<?xml version="1.0" encoding="UTF-8"?>
<TrainingCenterDatabase xmlns="http://www.garmin.com/xmlschemas/TrainingCenterDatabase/v2" xmlns:xsi="http://www.w3.org/2001/XMLSchema-instance" xsi:schemaLocation="http://www.garmin.com/xmlschemas/TrainingCenterDatabase/v2 http://www.garmin.com/xmlschemas/TrainingCenterDatabasev2.xsd">
  <Activities>
    <Activity Sport="Other">
      <Id>2021-07-27T08:40:45.000Z</Id>
      <Lap StartTime="2021-07-27T08:40:45.000Z">
        <TotalTimeSeconds>531688</TotalTimeSeconds>
        <DistanceMeters>601750</DistanceMeters>
        <Track>
          <Trackpoint>
            <Time>2021-07-27T08:40:45.000Z</Time>
            <Position>
              <LatitudeDegrees>40.64397244714200496673583984375</LatitudeDegrees>
              <LongitudeDegrees>-3.182016871869564056396484375</LongitudeDegrees>
            </Position>
            <AltitudeMeters>642.20001220703125</AltitudeMeters>
            <DistanceMeters>0</DistanceMeters>
          </Trackpoint>
          <Trackpoint>
            <Time>2021-07-27T08:40:50.000Z</Time>
            <Position>
              <LatitudeDegrees>40.64389181323349475860595703125</LatitudeDegrees>
              <LongitudeDegrees>-3.18187228403985500335693359375</LongitudeDegrees>
            </Position>
            <AltitudeMeters>642</AltitudeMeters>
            <DistanceMeters>15.154303155301</DistanceMeters>
          </Trackpoint>
          <Trackpoint>
            <Time>2021-07-27T08:40:59.000Z</Time>
            <Position>
              <LatitudeDegrees>40.6438110955059528350830078125</LatitudeDegrees>
              <LongitudeDegrees>-3.18165837787091732025146484375</LongitudeDegrees>
            </Position>
            <AltitudeMeters>641.20001220703125</AltitudeMeters>
            <DistanceMeters>35.329976277675</DistanceMeters>
          </Trackpoint>
          <Trackpoint>
            <Time>2021-07-27T08:41:12.000Z</Time>
            <Position>
              <LatitudeDegrees>40.64379039220511913299560546875</LatitudeDegrees>
              <LongitudeDegrees>-3.181634657084941864013671875</LongitudeDegrees>
            </Position>
            <AltitudeMeters>641.20001220703125</AltitudeMeters>
            <DistanceMeters>38.384165035202</DistanceMeters>
          </Trackpoint>
          <Trackpoint>
            <Time>2021-07-27T08:41:21.000Z</Time>
            <Position>
              <LatitudeDegrees>40.64364396035671234130859375</LatitudeDegrees>
              <LongitudeDegrees>-3.18131807260215282440185546875</LongitudeDegrees>
            </Position>
            <AltitudeMeters>641</AltitudeMeters>
            <DistanceMeters>69.696584937433</DistanceMeters>
          </Trackpoint>
          <Trackpoint>
            <Time>2021-07-27T08:41:30.000Z</Time>
            <Position>
              <LatitudeDegrees>40.64366005361080169677734375</LatitudeDegrees>
              <LongitudeDegrees>-3.18079571239650249481201171875</LongitudeDegrees>
            </Position>
            <AltitudeMeters>640.20001220703125</AltitudeMeters>
            <DistanceMeters>113.84792310648</DistanceMeters>
          </Trackpoint>
          <Trackpoint>
            <Time>2021-07-27T08:41:38.000Z</Time>
            <Position>
              <LatitudeDegrees>40.6436833553016185760498046875</LatitudeDegrees>
              <LongitudeDegrees>-3.180322386324405670166015625</LongitudeDegrees>
            </Position>
            <AltitudeMeters>640</AltitudeMeters>
            <DistanceMeters>153.90593833559</DistanceMeters>
          </Trackpoint>
          <Trackpoint>
            <Time>2021-07-27T08:41:41.000Z</Time>
            <Position>
              <LatitudeDegrees>40.64368763007223606109619140625</LatitudeDegrees>
              <LongitudeDegrees>-3.18015416152775287628173828125</LongitudeDegrees>
            </Position>
            <AltitudeMeters>640</AltitudeMeters>
            <DistanceMeters>168.12093114552</DistanceMeters>
          </Trackpoint>
          <Trackpoint>
            <Time>2021-07-27T08:41:43.000Z</Time>
            <Position>
              <LatitudeDegrees>40.64368260093033313751220703125</LatitudeDegrees>
              <LongitudeDegrees>-3.18004243075847625732421875</LongitudeDegrees>
            </Position>
            <AltitudeMeters>640</AltitudeMeters>
            <DistanceMeters>177.5731042468</DistanceMeters>
          </Trackpoint>
          <Trackpoint>
            <Time>2021-07-27T08:41:55.000Z</Time>
            <Position>
              <LatitudeDegrees>40.64370640553534030914306640625</LatitudeDegrees>
              <LongitudeDegrees>-3.1793241016566753387451171875</LongitudeDegrees>
            </Position>
            <AltitudeMeters>640</AltitudeMeters>
            <DistanceMeters>238.29614134717</DistanceMeters>
          </Trackpoint>
          <Trackpoint>
            <Time>2021-07-27T08:42:00.000Z</Time>
            <Position>
              <LatitudeDegrees>40.6437291204929351806640625</LatitudeDegrees>
              <LongitudeDegrees>-3.17904196679592132568359375</LongitudeDegrees>
            </Position>
            <AltitudeMeters>639.20001220703125</AltitudeMeters>
            <DistanceMeters>262.2571985089</DistanceMeters>
          </Trackpoint>
          <Trackpoint>
            <Time>2021-07-27T08:42:09.000Z</Time>
            <Position>
              <LatitudeDegrees>40.64379693008959293365478515625</LatitudeDegrees>
              <LongitudeDegrees>-3.17849823273718357086181640625</LongitudeDegrees>
            </Position>
            <AltitudeMeters>639</AltitudeMeters>
            <DistanceMeters>308.7933241851</DistanceMeters>
          </Trackpoint>
          <Trackpoint>
            <Time>2021-07-27T08:42:13.000Z</Time>
            <Position>
              <LatitudeDegrees>40.643834732472896575927734375</LatitudeDegrees>
              <LongitudeDegrees>-3.1782465241849422454833984375</LongitudeDegrees>
            </Position>
            <AltitudeMeters>638.4000244140625</AltitudeMeters>
            <DistanceMeters>330.46316579133</DistanceMeters>
          </Trackpoint>
          <Trackpoint>
            <Time>2021-07-27T08:42:23.000Z</Time>
            <Position>
              <LatitudeDegrees>40.6439448706805706024169921875</LatitudeDegrees>
              <LongitudeDegrees>-3.1775474734604358673095703125</LongitudeDegrees>
            </Position>
            <AltitudeMeters>637.4000244140625</AltitudeMeters>
            <DistanceMeters>390.75939450784</DistanceMeters>
          </Trackpoint>
          <Trackpoint>
            <Time>2021-07-27T08:42:25.000Z</Time>
            <Position>
              <LatitudeDegrees>40.64395911991596221923828125</LatitudeDegrees>
              <LongitudeDegrees>-3.17741897888481616973876953125</LongitudeDegrees>
            </Position>
            <AltitudeMeters>637.79998779296875</AltitudeMeters>
            <DistanceMeters>401.72623489862</DistanceMeters>
          </Trackpoint>
          <Trackpoint>
            <Time>2021-07-27T08:42:37.000Z</Time>
            <Position>
              <LatitudeDegrees>40.64397244714200496673583984375</LatitudeDegrees>
              <LongitudeDegrees>-3.1766901724040508270263671875</LongitudeDegrees>
            </Position>
            <AltitudeMeters>637</AltitudeMeters>
            <DistanceMeters>463.29386640302</DistanceMeters>
          </Trackpoint>
          <Trackpoint>
            <Time>2021-07-27T08:42:44.000Z</Time>
            <Position>
              <LatitudeDegrees>40.643958784639835357666015625</LatitudeDegrees>
              <LongitudeDegrees>-3.1765050999820232391357421875</LongitudeDegrees>
            </Position>
            <AltitudeMeters>637</AltitudeMeters>
            <DistanceMeters>478.99744426312</DistanceMeters>
          </Trackpoint>
          <Trackpoint>
            <Time>2021-07-27T08:42:53.000Z</Time>
            <Position>
              <LatitudeDegrees>40.64394596032798290252685546875</LatitudeDegrees>
              <LongitudeDegrees>-3.17644718103110790252685546875</LongitudeDegrees>
            </Position>
            <AltitudeMeters>637</AltitudeMeters>
            <DistanceMeters>484.09357022828</DistanceMeters>
          </Trackpoint>
          <Trackpoint>
            <Time>2021-07-27T08:43:00.000Z</Time>
            <Position>
              <LatitudeDegrees>40.64399306662380695343017578125</LatitudeDegrees>
              <LongitudeDegrees>-3.17615054547786712646484375</LongitudeDegrees>
            </Position>
            <AltitudeMeters>637</AltitudeMeters>
            <DistanceMeters>509.68805919663</DistanceMeters>
          </Trackpoint>
          <Trackpoint>
            <Time>2021-07-27T08:43:02.000Z</Time>
            <Position>
              <LatitudeDegrees>40.6440669111907482147216796875</LatitudeDegrees>
              <LongitudeDegrees>-3.17608214914798736572265625</LongitudeDegrees>
            </Position>
            <AltitudeMeters>637</AltitudeMeters>
            <DistanceMeters>519.73396056673</DistanceMeters>
          </Trackpoint>
          <Trackpoint>
            <Time>2021-07-27T08:43:06.000Z</Time>
            <Position>
              <LatitudeDegrees>40.64425575546920299530029296875</LatitudeDegrees>
              <LongitudeDegrees>-3.17599573172628879547119140625</LongitudeDegrees>
            </Position>
            <AltitudeMeters>637</AltitudeMeters>
            <DistanceMeters>541.98360889678</DistanceMeters>
          </Trackpoint>
          <Trackpoint>
            <Time>2021-07-27T08:43:17.000Z</Time>
            <Position>
              <LatitudeDegrees>40.64480275847017765045166015625</LatitudeDegrees>
              <LongitudeDegrees>-3.17593722604215145111083984375</LongitudeDegrees>
            </Position>
            <AltitudeMeters>638.20001220703125</AltitudeMeters>
            <DistanceMeters>603.06634922169</DistanceMeters>
          </Trackpoint>
          <Trackpoint>
            <Time>2021-07-27T08:43:22.000Z</Time>
            <Position>
              <LatitudeDegrees>40.6450365297496318817138671875</LatitudeDegrees>
              <LongitudeDegrees>-3.17590638063848018646240234375</LongitudeDegrees>
            </Position>
            <AltitudeMeters>639.5999755859375</AltitudeMeters>
            <DistanceMeters>629.21544955975</DistanceMeters>
          </Trackpoint>
          <Trackpoint>
            <Time>2021-07-27T08:43:34.000Z</Time>
            <Position>
              <LatitudeDegrees>40.6455964408814907073974609375</LatitudeDegrees>
              <LongitudeDegrees>-3.1758395768702030181884765625</LongitudeDegrees>
            </Position>
            <AltitudeMeters>637.4000244140625</AltitudeMeters>
            <DistanceMeters>691.78951277081</DistanceMeters>
          </Trackpoint>
          <Trackpoint>
            <Time>2021-07-27T08:43:46.000Z</Time>
            <Position>
              <LatitudeDegrees>40.64616817049682140350341796875</LatitudeDegrees>
              <LongitudeDegrees>-3.1757678277790546417236328125</LongitudeDegrees>
            </Position>
            <AltitudeMeters>637.20001220703125</AltitudeMeters>
            <DistanceMeters>755.71205598344</DistanceMeters>
          </Trackpoint>
          <Trackpoint>
            <Time>2021-07-27T08:43:49.000Z</Time>
            <Position>
              <LatitudeDegrees>40.6463102437555789947509765625</LatitudeDegrees>
              <LongitudeDegrees>-3.17575232125818729400634765625</LongitudeDegrees>
            </Position>
            <AltitudeMeters>638.20001220703125</AltitudeMeters>
            <DistanceMeters>771.5795255804</DistanceMeters>
          </Trackpoint>
          <Trackpoint>
            <Time>2021-07-27T08:44:01.000Z</Time>
            <Position>
              <LatitudeDegrees>40.64687292091548442840576171875</LatitudeDegrees>
              <LongitudeDegrees>-3.17568928934633731842041015625</LongitudeDegrees>
            </Position>
            <AltitudeMeters>639.4000244140625</AltitudeMeters>
            <DistanceMeters>834.43235242799</DistanceMeters>
          </Trackpoint>
          <Trackpoint>
            <Time>2021-07-27T08:44:12.000Z</Time>
            <Position>
              <LatitudeDegrees>40.64736820757389068603515625</LatitudeDegrees>
              <LongitudeDegrees>-3.17562424577772617340087890625</LongitudeDegrees>
            </Position>
            <AltitudeMeters>640.20001220703125</AltitudeMeters>
            <DistanceMeters>889.83170442178</DistanceMeters>
          </Trackpoint>
          <Trackpoint>
            <Time>2021-07-27T08:44:20.000Z</Time>
            <Position>
              <LatitudeDegrees>40.64771831966936588287353515625</LatitudeDegrees>
              <LongitudeDegrees>-3.17551678977906703948974609375</LongitudeDegrees>
            </Position>
            <AltitudeMeters>642.20001220703125</AltitudeMeters>
            <DistanceMeters>929.8425780956</DistanceMeters>
          </Trackpoint>
          <Trackpoint>
            <Time>2021-07-27T08:44:32.000Z</Time>
            <Position>
              <LatitudeDegrees>40.64824302680790424346923828125</LatitudeDegrees>
              <LongitudeDegrees>-3.1753559410572052001953125</LongitudeDegrees>
            </Position>
            <AltitudeMeters>645</AltitudeMeters>
            <DistanceMeters>989.80240176915</DistanceMeters>
          </Trackpoint>
          <Trackpoint>
            <Time>2021-07-27T08:44:44.000Z</Time>
            <Position>
              <LatitudeDegrees>40.6487943045794963836669921875</LatitudeDegrees>
              <LongitudeDegrees>-3.1751923263072967529296875</LongitudeDegrees>
            </Position>
            <AltitudeMeters>645</AltitudeMeters>
            <DistanceMeters>1052.6971663158</DistanceMeters>
          </Trackpoint>
          <Trackpoint>
            <Time>2021-07-27T08:44:56.000Z</Time>
            <Position>
              <LatitudeDegrees>40.64934499561786651611328125</LatitudeDegrees>
              <LongitudeDegrees>-3.175029046833515167236328125</LongitudeDegrees>
            </Position>
            <AltitudeMeters>642.20001220703125</AltitudeMeters>
            <DistanceMeters>1115.5219712333</DistanceMeters>
          </Trackpoint>
          <Trackpoint>
            <Time>2021-07-27T08:45:08.000Z</Time>
            <Position>
              <LatitudeDegrees>40.64991991035640239715576171875</LatitudeDegrees>
              <LongitudeDegrees>-3.17489300854504108428955078125</LongitudeDegrees>
            </Position>
            <AltitudeMeters>640.79998779296875</AltitudeMeters>
            <DistanceMeters>1180.5340657235</DistanceMeters>
          </Trackpoint>
          <Trackpoint>
            <Time>2021-07-27T08:45:19.000Z</Time>
            <Position>
              <LatitudeDegrees>40.650461800396442413330078125</LatitudeDegrees>
              <LongitudeDegrees>-3.174772895872592926025390625</LongitudeDegrees>
            </Position>
            <AltitudeMeters>640</AltitudeMeters>
            <DistanceMeters>1241.6943694006</DistanceMeters>
          </Trackpoint>
          <Trackpoint>
            <Time>2021-07-27T08:45:25.000Z</Time>
            <Position>
              <LatitudeDegrees>40.6507415883243083953857421875</LatitudeDegrees>
              <LongitudeDegrees>-3.174710534512996673583984375</LongitudeDegrees>
            </Position>
            <AltitudeMeters>642.4000244140625</AltitudeMeters>
            <DistanceMeters>1273.2772809851</DistanceMeters>
          </Trackpoint>
          <Trackpoint>
            <Time>2021-07-27T08:45:33.000Z</Time>
            <Position>
              <LatitudeDegrees>40.65107191912829875946044921875</LatitudeDegrees>
              <LongitudeDegrees>-3.1746252067387104034423828125</LongitudeDegrees>
            </Position>
            <AltitudeMeters>643.5999755859375</AltitudeMeters>
            <DistanceMeters>1310.7431222663</DistanceMeters>
          </Trackpoint>
          <Trackpoint>
            <Time>2021-07-27T08:45:38.000Z</Time>
            <Position>
              <LatitudeDegrees>40.65124140121042728424072265625</LatitudeDegrees>
              <LongitudeDegrees>-3.174583800137042999267578125</LongitudeDegrees>
            </Position>
            <AltitudeMeters>643.4000244140625</AltitudeMeters>
            <DistanceMeters>1329.9281663334</DistanceMeters>
          </Trackpoint>
          <Trackpoint>
            <Time>2021-07-27T08:45:41.000Z</Time>
            <Position>
              <LatitudeDegrees>40.651333518326282501220703125</LatitudeDegrees>
              <LongitudeDegrees>-3.17456477321684360504150390625</LongitudeDegrees>
            </Position>
            <AltitudeMeters>642.79998779296875</AltitudeMeters>
            <DistanceMeters>1340.3056752672</DistanceMeters>
          </Trackpoint>
          <Trackpoint>
            <Time>2021-07-27T08:45:44.000Z</Time>
            <Position>
              <LatitudeDegrees>40.651413984596729278564453125</LatitudeDegrees>
              <LongitudeDegrees>-3.1745487637817859649658203125</LongitudeDegrees>
            </Position>
            <AltitudeMeters>642.4000244140625</AltitudeMeters>
            <DistanceMeters>1349.3636703306</DistanceMeters>
          </Trackpoint>
          <Trackpoint>
            <Time>2021-07-27T08:45:48.000Z</Time>
            <Position>
              <LatitudeDegrees>40.6515170820057392120361328125</LatitudeDegrees>
              <LongitudeDegrees>-3.174528144299983978271484375</LongitudeDegrees>
            </Position>
            <AltitudeMeters>642.20001220703125</AltitudeMeters>
            <DistanceMeters>1360.9701633578</DistanceMeters>
          </Trackpoint>
          <Trackpoint>
            <Time>2021-07-27T08:45:53.000Z</Time>
            <Position>
              <LatitudeDegrees>40.6516501866281032562255859375</LatitudeDegrees>
              <LongitudeDegrees>-3.17450325004756450653076171875</LongitudeDegrees>
            </Position>
            <AltitudeMeters>642</AltitudeMeters>
            <DistanceMeters>1375.9331749314</DistanceMeters>
          </Trackpoint>
          <Trackpoint>
            <Time>2021-07-27T08:45:57.000Z</Time>
            <Position>
              <LatitudeDegrees>40.65175873227417469024658203125</LatitudeDegrees>
              <LongitudeDegrees>-3.17449000664055347442626953125</LongitudeDegrees>
            </Position>
            <AltitudeMeters>642.4000244140625</AltitudeMeters>
            <DistanceMeters>1388.0661179458</DistanceMeters>
          </Trackpoint>
          <Trackpoint>
            <Time>2021-07-27T08:46:01.000Z</Time>
            <Position>
              <LatitudeDegrees>40.65187163650989532470703125</LatitudeDegrees>
              <LongitudeDegrees>-3.17447676323354244232177734375</LongitudeDegrees>
            </Position>
            <AltitudeMeters>643</AltitudeMeters>
            <DistanceMeters>1400.6821445549</DistanceMeters>
          </Trackpoint>
          <Trackpoint>
            <Time>2021-07-27T08:46:09.000Z</Time>
            <Position>
              <LatitudeDegrees>40.6521038152277469635009765625</LatitudeDegrees>
              <LongitudeDegrees>-3.1744686327874660491943359375</LongitudeDegrees>
            </Position>
            <AltitudeMeters>644.20001220703125</AltitudeMeters>
            <DistanceMeters>1426.5330789139</DistanceMeters>
          </Trackpoint>
          <Trackpoint>
            <Time>2021-07-27T08:46:13.000Z</Time>
            <Position>
              <LatitudeDegrees>40.6522263586521148681640625</LatitudeDegrees>
              <LongitudeDegrees>-3.17447089590132236480712890625</LongitudeDegrees>
            </Position>
            <AltitudeMeters>644.4000244140625</AltitudeMeters>
            <DistanceMeters>1440.1736333428</DistanceMeters>
          </Trackpoint>
          <Trackpoint>
            <Time>2021-07-27T08:46:30.000Z</Time>
            <Position>
              <LatitudeDegrees>40.65278199501335620880126953125</LatitudeDegrees>
              <LongitudeDegrees>-3.17456041462719440460205078125</LongitudeDegrees>
            </Position>
            <AltitudeMeters>646.20001220703125</AltitudeMeters>
            <DistanceMeters>1502.477396961</DistanceMeters>
          </Trackpoint>
          <Trackpoint>
            <Time>2021-07-27T08:46:43.000Z</Time>
            <Position>
              <LatitudeDegrees>40.65329530276358127593994140625</LatitudeDegrees>
              <LongitudeDegrees>-3.1747603230178356170654296875</LongitudeDegrees>
            </Position>
            <AltitudeMeters>649</AltitudeMeters>
            <DistanceMeters>1562.0511895576</DistanceMeters>
          </Trackpoint>
          <Trackpoint>
            <Time>2021-07-27T08:46:45.000Z</Time>
            <Position>
              <LatitudeDegrees>40.6534093804657459259033203125</LatitudeDegrees>
              <LongitudeDegrees>-3.1748179905116558074951171875</LongitudeDegrees>
            </Position>
            <AltitudeMeters>649.4000244140625</AltitudeMeters>
            <DistanceMeters>1575.6499738965</DistanceMeters>
          </Trackpoint>
          <Trackpoint>
            <Time>2021-07-27T08:46:47.000Z</Time>
            <Position>
              <LatitudeDegrees>40.6535381264984607696533203125</LatitudeDegrees>
              <LongitudeDegrees>-3.174882195889949798583984375</LongitudeDegrees>
            </Position>
            <AltitudeMeters>649.4000244140625</AltitudeMeters>
            <DistanceMeters>1590.9710977835</DistanceMeters>
          </Trackpoint>
          <Trackpoint>
            <Time>2021-07-27T08:46:49.000Z</Time>
            <Position>
              <LatitudeDegrees>40.6536772660911083221435546875</LatitudeDegrees>
              <LongitudeDegrees>-3.174955956637859344482421875</LongitudeDegrees>
            </Position>
            <AltitudeMeters>648.79998779296875</AltitudeMeters>
            <DistanceMeters>1607.6633726061</DistanceMeters>
          </Trackpoint>
          <Trackpoint>
            <Time>2021-07-27T08:46:51.000Z</Time>
            <Position>
              <LatitudeDegrees>40.65382428467273712158203125</LatitudeDegrees>
              <LongitudeDegrees>-3.1750335730612277984619140625</LongitudeDegrees>
            </Position>
            <AltitudeMeters>648</AltitudeMeters>
            <DistanceMeters>1625.290507948</DistanceMeters>
          </Trackpoint>
          <Trackpoint>
            <Time>2021-07-27T08:46:54.000Z</Time>
            <Position>
              <LatitudeDegrees>40.65405185334384441375732421875</LatitudeDegrees>
              <LongitudeDegrees>-3.1751539371907711029052734375</LongitudeDegrees>
            </Position>
            <AltitudeMeters>647.79998779296875</AltitudeMeters>
            <DistanceMeters>1652.5823722207</DistanceMeters>
          </Trackpoint>
          <Trackpoint>
            <Time>2021-07-27T08:47:00.000Z</Time>
            <Position>
              <LatitudeDegrees>40.65448947250843048095703125</LatitudeDegrees>
              <LongitudeDegrees>-3.17534630186855792999267578125</LongitudeDegrees>
            </Position>
            <AltitudeMeters>648</AltitudeMeters>
            <DistanceMeters>1703.9272326988</DistanceMeters>
          </Trackpoint>
          <Trackpoint>
            <Time>2021-07-27T08:47:07.000Z</Time>
            <Position>
              <LatitudeDegrees>40.654942095279693603515625</LatitudeDegrees>
              <LongitudeDegrees>-3.1754426099359989166259765625</LongitudeDegrees>
            </Position>
            <AltitudeMeters>648.5999755859375</AltitudeMeters>
            <DistanceMeters>1754.9571091884</DistanceMeters>
          </Trackpoint>
          <Trackpoint>
            <Time>2021-07-27T08:47:11.000Z</Time>
            <Position>
              <LatitudeDegrees>40.65515189431607723236083984375</LatitudeDegrees>
              <LongitudeDegrees>-3.17548125050961971282958984375</LongitudeDegrees>
            </Position>
            <AltitudeMeters>648.20001220703125</AltitudeMeters>
            <DistanceMeters>1778.5350352236</DistanceMeters>
          </Trackpoint>
          <Trackpoint>
            <Time>2021-07-27T08:47:23.000Z</Time>
            <Position>
              <LatitudeDegrees>40.6557184271514415740966796875</LatitudeDegrees>
              <LongitudeDegrees>-3.17555652000010013580322265625</LongitudeDegrees>
            </Position>
            <AltitudeMeters>646.79998779296875</AltitudeMeters>
            <DistanceMeters>1841.9108011088</DistanceMeters>
          </Trackpoint>
          <Trackpoint>
            <Time>2021-07-27T08:47:26.000Z</Time>
            <Position>
              <LatitudeDegrees>40.65585379488766193389892578125</LatitudeDegrees>
              <LongitudeDegrees>-3.17557496018707752227783203125</LongitudeDegrees>
            </Position>
            <AltitudeMeters>646.4000244140625</AltitudeMeters>
            <DistanceMeters>1857.0579520715</DistanceMeters>
          </Trackpoint>
          <Trackpoint>
            <Time>2021-07-27T08:47:38.000Z</Time>
            <Position>
              <LatitudeDegrees>40.65639794804155826568603515625</LatitudeDegrees>
              <LongitudeDegrees>-3.1756461225450038909912109375</LongitudeDegrees>
            </Position>
            <AltitudeMeters>648</AltitudeMeters>
            <DistanceMeters>1917.9206153258</DistanceMeters>
          </Trackpoint>
          <Trackpoint>
            <Time>2021-07-27T08:47:50.000Z</Time>
            <Position>
              <LatitudeDegrees>40.65694495104253292083740234375</LatitudeDegrees>
              <LongitudeDegrees>-3.17569783888757228851318359375</LongitudeDegrees>
            </Position>
            <AltitudeMeters>648.4000244140625</AltitudeMeters>
            <DistanceMeters>1978.9595812439</DistanceMeters>
          </Trackpoint>
          <Trackpoint>
            <Time>2021-07-27T08:48:02.000Z</Time>
            <Position>
              <LatitudeDegrees>40.65751475282013416290283203125</LatitudeDegrees>
              <LongitudeDegrees>-3.17574528045952320098876953125</LongitudeDegrees>
            </Position>
            <AltitudeMeters>645.20001220703125</AltitudeMeters>
            <DistanceMeters>2042.5060987331</DistanceMeters>
          </Trackpoint>
          <Trackpoint>
            <Time>2021-07-27T08:48:14.000Z</Time>
            <Position>
              <LatitudeDegrees>40.65809679217636585235595703125</LatitudeDegrees>
              <LongitudeDegrees>-3.17579783499240875244140625</LongitudeDegrees>
            </Position>
            <AltitudeMeters>648</AltitudeMeters>
            <DistanceMeters>2107.4401549299</DistanceMeters>
          </Trackpoint>
          <Trackpoint>
            <Time>2021-07-27T08:48:20.000Z</Time>
            <Position>
              <LatitudeDegrees>40.65839049406349658966064453125</LatitudeDegrees>
              <LongitudeDegrees>-3.17582692019641399383544921875</LongitudeDegrees>
            </Position>
            <AltitudeMeters>648</AltitudeMeters>
            <DistanceMeters>2140.2220300661</DistanceMeters>
          </Trackpoint>
          <Trackpoint>
            <Time>2021-07-27T08:48:31.000Z</Time>
            <Position>
              <LatitudeDegrees>40.65893531776964664459228515625</LatitudeDegrees>
              <LongitudeDegrees>-3.17583144642412662506103515625</LongitudeDegrees>
            </Position>
            <AltitudeMeters>651.5999755859375</AltitudeMeters>
            <DistanceMeters>2200.8632219294</DistanceMeters>
          </Trackpoint>
          <Trackpoint>
            <Time>2021-07-27T08:48:42.000Z</Time>
            <Position>
              <LatitudeDegrees>40.659484751522541046142578125</LatitudeDegrees>
              <LongitudeDegrees>-3.17590269260108470916748046875</LongitudeDegrees>
            </Position>
            <AltitudeMeters>648.20001220703125</AltitudeMeters>
            <DistanceMeters>2262.3114956624</DistanceMeters>
          </Trackpoint>
          <Trackpoint>
            <Time>2021-07-27T08:48:53.000Z</Time>
            <Position>
              <LatitudeDegrees>40.66002932377159595489501953125</LatitudeDegrees>
              <LongitudeDegrees>-3.1760011799633502960205078125</LongitudeDegrees>
            </Position>
            <AltitudeMeters>647.79998779296875</AltitudeMeters>
            <DistanceMeters>2323.4912117125</DistanceMeters>
          </Trackpoint>
          <Trackpoint>
            <Time>2021-07-27T08:49:04.000Z</Time>
            <Position>
              <LatitudeDegrees>40.660570375621318817138671875</LatitudeDegrees>
              <LongitudeDegrees>-3.1760792993009090423583984375</LongitudeDegrees>
            </Position>
            <AltitudeMeters>648.4000244140625</AltitudeMeters>
            <DistanceMeters>2384.0714687941</DistanceMeters>
          </Trackpoint>
          <Trackpoint>
            <Time>2021-07-27T08:49:15.000Z</Time>
            <Position>
              <LatitudeDegrees>40.66111025400459766387939453125</LatitudeDegrees>
              <LongitudeDegrees>-3.17604082636535167694091796875</LongitudeDegrees>
            </Position>
            <AltitudeMeters>647.4000244140625</AltitudeMeters>
            <DistanceMeters>2444.2487441239</DistanceMeters>
          </Trackpoint>
          <Trackpoint>
            <Time>2021-07-27T08:49:27.000Z</Time>
            <Position>
              <LatitudeDegrees>40.661686174571514129638671875</LatitudeDegrees>
              <LongitudeDegrees>-3.17596622742712497711181640625</LongitudeDegrees>
            </Position>
            <AltitudeMeters>647.5999755859375</AltitudeMeters>
            <DistanceMeters>2508.6584932312</DistanceMeters>
          </Trackpoint>
          <Trackpoint>
            <Time>2021-07-27T08:49:32.000Z</Time>
            <Position>
              <LatitudeDegrees>40.66192514263093471527099609375</LatitudeDegrees>
              <LongitudeDegrees>-3.1759344600141048431396484375</LongitudeDegrees>
            </Position>
            <AltitudeMeters>648.4000244140625</AltitudeMeters>
            <DistanceMeters>2535.3907426604</DistanceMeters>
          </Trackpoint>
          <Trackpoint>
            <Time>2021-07-27T08:49:44.000Z</Time>
            <Position>
              <LatitudeDegrees>40.662494860589504241943359375</LatitudeDegrees>
              <LongitudeDegrees>-3.175859190523624420166015625</LongitudeDegrees>
            </Position>
            <AltitudeMeters>648.20001220703125</AltitudeMeters>
            <DistanceMeters>2599.1190326175</DistanceMeters>
          </Trackpoint>
          <Trackpoint>
            <Time>2021-07-27T08:49:56.000Z</Time>
            <Position>
              <LatitudeDegrees>40.6630733795464038848876953125</LatitudeDegrees>
              <LongitudeDegrees>-3.17578501068055629730224609375</LongitudeDegrees>
            </Position>
            <AltitudeMeters>650</AltitudeMeters>
            <DistanceMeters>2663.8131750949</DistanceMeters>
          </Trackpoint>
          <Trackpoint>
            <Time>2021-07-27T08:50:08.000Z</Time>
            <Position>
              <LatitudeDegrees>40.66363186575472354888916015625</LatitudeDegrees>
              <LongitudeDegrees>-3.17571602761745452880859375</LongitudeDegrees>
            </Position>
            <AltitudeMeters>651</AltitudeMeters>
            <DistanceMeters>2726.2459433919</DistanceMeters>
          </Trackpoint>
          <Trackpoint>
            <Time>2021-07-27T08:50:19.000Z</Time>
            <Position>
              <LatitudeDegrees>40.6641621887683868408203125</LatitudeDegrees>
              <LongitudeDegrees>-3.17563824355602264404296875</LongitudeDegrees>
            </Position>
            <AltitudeMeters>651.5999755859375</AltitudeMeters>
            <DistanceMeters>2785.6360434031</DistanceMeters>
          </Trackpoint>
          <Trackpoint>
            <Time>2021-07-27T08:50:24.000Z</Time>
            <Position>
              <LatitudeDegrees>40.664411969482898712158203125</LatitudeDegrees>
              <LongitudeDegrees>-3.1756022013723850250244140625</LongitudeDegrees>
            </Position>
            <AltitudeMeters>651.20001220703125</AltitudeMeters>
            <DistanceMeters>2813.6029721095</DistanceMeters>
          </Trackpoint>
          <Trackpoint>
            <Time>2021-07-27T08:50:35.000Z</Time>
            <Position>
              <LatitudeDegrees>40.66496886312961578369140625</LatitudeDegrees>
              <LongitudeDegrees>-3.17553154192864894866943359375</LongitudeDegrees>
            </Position>
            <AltitudeMeters>649.79998779296875</AltitudeMeters>
            <DistanceMeters>2875.8726663842</DistanceMeters>
          </Trackpoint>
          <Trackpoint>
            <Time>2021-07-27T08:50:46.000Z</Time>
            <Position>
              <LatitudeDegrees>40.6655192188918590545654296875</LatitudeDegrees>
              <LongitudeDegrees>-3.1754627265036106109619140625</LongitudeDegrees>
            </Position>
            <AltitudeMeters>651.5999755859375</AltitudeMeters>
            <DistanceMeters>2937.4033261445</DistanceMeters>
          </Trackpoint>
          <Trackpoint>
            <Time>2021-07-27T08:50:57.000Z</Time>
            <Position>
              <LatitudeDegrees>40.66607661545276641845703125</LatitudeDegrees>
              <LongitudeDegrees>-3.1753893010318279266357421875</LongitudeDegrees>
            </Position>
            <AltitudeMeters>651.4000244140625</AltitudeMeters>
            <DistanceMeters>2999.7515693268</DistanceMeters>
          </Trackpoint>
          <Trackpoint>
            <Time>2021-07-27T08:51:08.000Z</Time>
            <Position>
              <LatitudeDegrees>40.66662973724305629730224609375</LatitudeDegrees>
              <LongitudeDegrees>-3.17531780339777469635009765625</LongitudeDegrees>
            </Position>
            <AltitudeMeters>649</AltitudeMeters>
            <DistanceMeters>3061.6103110149</DistanceMeters>
          </Trackpoint>
          <Trackpoint>
            <Time>2021-07-27T08:51:12.000Z</Time>
            <Position>
              <LatitudeDegrees>40.6668381951749324798583984375</LatitudeDegrees>
              <LongitudeDegrees>-3.175289891660213470458984375</LongitudeDegrees>
            </Position>
            <AltitudeMeters>649</AltitudeMeters>
            <DistanceMeters>3084.9315782236</DistanceMeters>
          </Trackpoint>
          <Trackpoint>
            <Time>2021-07-27T08:51:23.000Z</Time>
            <Position>
              <LatitudeDegrees>40.6673840247094631195068359375</LatitudeDegrees>
              <LongitudeDegrees>-3.1752325594425201416015625</LongitudeDegrees>
            </Position>
            <AltitudeMeters>650</AltitudeMeters>
            <DistanceMeters>3145.8760115439</DistanceMeters>
          </Trackpoint>
          <Trackpoint>
            <Time>2021-07-27T08:51:35.000Z</Time>
            <Position>
              <LatitudeDegrees>40.6679456122219562530517578125</LatitudeDegrees>
              <LongitudeDegrees>-3.1751985289156436920166015625</LongitudeDegrees>
            </Position>
            <AltitudeMeters>651.79998779296875</AltitudeMeters>
            <DistanceMeters>3208.4479100643</DistanceMeters>
          </Trackpoint>
          <Trackpoint>
            <Time>2021-07-27T08:51:47.000Z</Time>
            <Position>
              <LatitudeDegrees>40.66850895993411540985107421875</LatitudeDegrees>
              <LongitudeDegrees>-3.17517061717808246612548828125</LongitudeDegrees>
            </Position>
            <AltitudeMeters>653.5999755859375</AltitudeMeters>
            <DistanceMeters>3271.1938991723</DistanceMeters>
          </Trackpoint>
          <Trackpoint>
            <Time>2021-07-27T08:51:59.000Z</Time>
            <Position>
              <LatitudeDegrees>40.6690664403140544891357421875</LatitudeDegrees>
              <LongitudeDegrees>-3.17508528940379619598388671875</LongitudeDegrees>
            </Position>
            <AltitudeMeters>651.5999755859375</AltitudeMeters>
            <DistanceMeters>3333.6593468355</DistanceMeters>
          </Trackpoint>
          <Trackpoint>
            <Time>2021-07-27T08:52:03.000Z</Time>
            <Position>
              <LatitudeDegrees>40.66925293765962123870849609375</LatitudeDegrees>
              <LongitudeDegrees>-3.17504690028727054595947265625</LongitudeDegrees>
            </Position>
            <AltitudeMeters>651.5999755859375</AltitudeMeters>
            <DistanceMeters>3354.6684188403</DistanceMeters>
          </Trackpoint>
          <Trackpoint>
            <Time>2021-07-27T08:52:15.000Z</Time>
            <Position>
              <LatitudeDegrees>40.66981385461986064910888671875</LatitudeDegrees>
              <LongitudeDegrees>-3.1749293021857738494873046875</LongitudeDegrees>
            </Position>
            <AltitudeMeters>652</AltitudeMeters>
            <DistanceMeters>3417.8839719095</DistanceMeters>
          </Trackpoint>
          <Trackpoint>
            <Time>2021-07-27T08:52:27.000Z</Time>
            <Position>
              <LatitudeDegrees>40.67038214765489101409912109375</LatitudeDegrees>
              <LongitudeDegrees>-3.17480399273335933685302734375</LongitudeDegrees>
            </Position>
            <AltitudeMeters>652</AltitudeMeters>
            <DistanceMeters>3482.0146846487</DistanceMeters>
          </Trackpoint>
          <Trackpoint>
            <Time>2021-07-27T08:52:39.000Z</Time>
            <Position>
              <LatitudeDegrees>40.67094423808157444000244140625</LatitudeDegrees>
              <LongitudeDegrees>-3.1746889092028141021728515625</LongitudeDegrees>
            </Position>
            <AltitudeMeters>651.4000244140625</AltitudeMeters>
            <DistanceMeters>3545.3262999554</DistanceMeters>
          </Trackpoint>
          <Trackpoint>
            <Time>2021-07-27T08:52:49.000Z</Time>
            <Position>
              <LatitudeDegrees>40.67140884697437286376953125</LatitudeDegrees>
              <LongitudeDegrees>-3.17459394223988056182861328125</LongitudeDegrees>
            </Position>
            <AltitudeMeters>652</AltitudeMeters>
            <DistanceMeters>3597.6560025331</DistanceMeters>
          </Trackpoint>
          <Trackpoint>
            <Time>2021-07-27T08:52:56.000Z</Time>
            <Position>
              <LatitudeDegrees>40.6717278622090816497802734375</LatitudeDegrees>
              <LongitudeDegrees>-3.1745330058038234710693359375</LongitudeDegrees>
            </Position>
            <AltitudeMeters>653</AltitudeMeters>
            <DistanceMeters>3633.5338416115</DistanceMeters>
          </Trackpoint>
          <Trackpoint>
            <Time>2021-07-27T08:53:09.000Z</Time>
            <Position>
              <LatitudeDegrees>40.67225349135696887969970703125</LatitudeDegrees>
              <LongitudeDegrees>-3.17441121675074100494384765625</LongitudeDegrees>
            </Position>
            <AltitudeMeters>654.79998779296875</AltitudeMeters>
            <DistanceMeters>3692.9338998552</DistanceMeters>
          </Trackpoint>
          <Trackpoint>
            <Time>2021-07-27T08:53:17.000Z</Time>
            <Position>
              <LatitudeDegrees>40.6726406514644622802734375</LatitudeDegrees>
              <LongitudeDegrees>-3.1743335165083408355712890625</LongitudeDegrees>
            </Position>
            <AltitudeMeters>655.4000244140625</AltitudeMeters>
            <DistanceMeters>3736.5219607634</DistanceMeters>
          </Trackpoint>
          <Trackpoint>
            <Time>2021-07-27T08:53:28.000Z</Time>
            <Position>
              <LatitudeDegrees>40.67320525646209716796875</LatitudeDegrees>
              <LongitudeDegrees>-3.1742480210959911346435546875</LongitudeDegrees>
            </Position>
            <AltitudeMeters>656.4000244140625</AltitudeMeters>
            <DistanceMeters>3799.7766414735</DistanceMeters>
          </Trackpoint>
          <Trackpoint>
            <Time>2021-07-27T08:53:39.000Z</Time>
            <Position>
              <LatitudeDegrees>40.67375988699495792388916015625</LatitudeDegrees>
              <LongitudeDegrees>-3.1741947121918201446533203125</LongitudeDegrees>
            </Position>
            <AltitudeMeters>656.4000244140625</AltitudeMeters>
            <DistanceMeters>3861.6719400957</DistanceMeters>
          </Trackpoint>
          <Trackpoint>
            <Time>2021-07-27T08:53:51.000Z</Time>
            <Position>
              <LatitudeDegrees>40.674348212778568267822265625</LatitudeDegrees>
              <LongitudeDegrees>-3.1741531379520893096923828125</LongitudeDegrees>
            </Position>
            <AltitudeMeters>655.20001220703125</AltitudeMeters>
            <DistanceMeters>3927.2478094629</DistanceMeters>
          </Trackpoint>
          <Trackpoint>
            <Time>2021-07-27T08:54:02.000Z</Time>
            <Position>
              <LatitudeDegrees>40.6748885102570056915283203125</LatitudeDegrees>
              <LongitudeDegrees>-3.1741088815033435821533203125</LongitudeDegrees>
            </Position>
            <AltitudeMeters>654.4000244140625</AltitudeMeters>
            <DistanceMeters>3987.4999171639</DistanceMeters>
          </Trackpoint>
          <Trackpoint>
            <Time>2021-07-27T08:54:13.000Z</Time>
            <Position>
              <LatitudeDegrees>40.67542813718318939208984375</LatitudeDegrees>
              <LongitudeDegrees>-3.174070827662944793701171875</LongitudeDegrees>
            </Position>
            <AltitudeMeters>657</AltitudeMeters>
            <DistanceMeters>4047.6473235559</DistanceMeters>
          </Trackpoint>
          <Trackpoint>
            <Time>2021-07-27T08:54:24.000Z</Time>
            <Position>
              <LatitudeDegrees>40.67596667446196079254150390625</LatitudeDegrees>
              <LongitudeDegrees>-3.17403218708932399749755859375</LongitudeDegrees>
            </Position>
            <AltitudeMeters>655.79998779296875</AltitudeMeters>
            <DistanceMeters>4107.6762338004</DistanceMeters>
          </Trackpoint>
          <Trackpoint>
            <Time>2021-07-27T08:54:35.000Z</Time>
            <Position>
              <LatitudeDegrees>40.67651753313839435577392578125</LatitudeDegrees>
              <LongitudeDegrees>-3.17399497143924236297607421875</LongitudeDegrees>
            </Position>
            <AltitudeMeters>655.20001220703125</AltitudeMeters>
            <DistanceMeters>4169.0683453976</DistanceMeters>
          </Trackpoint>
          <Trackpoint>
            <Time>2021-07-27T08:54:46.000Z</Time>
            <Position>
              <LatitudeDegrees>40.6770647875964641571044921875</LatitudeDegrees>
              <LongitudeDegrees>-3.173960186541080474853515625</LongitudeDegrees>
            </Position>
            <AltitudeMeters>656.5999755859375</AltitudeMeters>
            <DistanceMeters>4230.0495876014</DistanceMeters>
          </Trackpoint>
          <Trackpoint>
            <Time>2021-07-27T08:54:54.000Z</Time>
            <Position>
              <LatitudeDegrees>40.67745932377874851226806640625</LatitudeDegrees>
              <LongitudeDegrees>-3.1739657185971736907958984375</LongitudeDegrees>
            </Position>
            <AltitudeMeters>658</AltitudeMeters>
            <DistanceMeters>4273.9646802916</DistanceMeters>
          </Trackpoint>
          <Trackpoint>
            <Time>2021-07-27T08:55:06.000Z</Time>
            <Position>
              <LatitudeDegrees>40.6780211627483367919921875</LatitudeDegrees>
              <LongitudeDegrees>-3.17395507358014583587646484375</LongitudeDegrees>
            </Position>
            <AltitudeMeters>658.4000244140625</AltitudeMeters>
            <DistanceMeters>4336.5048936018</DistanceMeters>
          </Trackpoint>
          <Trackpoint>
            <Time>2021-07-27T08:55:17.000Z</Time>
            <Position>
              <LatitudeDegrees>40.67857034504413604736328125</LatitudeDegrees>
              <LongitudeDegrees>-3.17395105026662349700927734375</LongitudeDegrees>
            </Position>
            <AltitudeMeters>659</AltitudeMeters>
            <DistanceMeters>4397.6309338007</DistanceMeters>
          </Trackpoint>
          <Trackpoint>
            <Time>2021-07-27T08:55:29.000Z</Time>
            <Position>
              <LatitudeDegrees>40.67915196530520915985107421875</LatitudeDegrees>
              <LongitudeDegrees>-3.17391148768365383148193359375</LongitudeDegrees>
            </Position>
            <AltitudeMeters>656.20001220703125</AltitudeMeters>
            <DistanceMeters>4462.4523885089</DistanceMeters>
          </Trackpoint>
          <Trackpoint>
            <Time>2021-07-27T08:55:34.000Z</Time>
            <Position>
              <LatitudeDegrees>40.67939235828816890716552734375</LatitudeDegrees>
              <LongitudeDegrees>-3.1738929636776447296142578125</LongitudeDegrees>
            </Position>
            <AltitudeMeters>656.5999755859375</AltitudeMeters>
            <DistanceMeters>4489.2541338073</DistanceMeters>
          </Trackpoint>
          <Trackpoint>
            <Time>2021-07-27T08:55:46.000Z</Time>
            <Position>
              <LatitudeDegrees>40.679980181157588958740234375</LatitudeDegrees>
              <LongitudeDegrees>-3.17384124733507633209228515625</LongitudeDegrees>
            </Position>
            <AltitudeMeters>657.5999755859375</AltitudeMeters>
            <DistanceMeters>4554.8254587765</DistanceMeters>
          </Trackpoint>
          <Trackpoint>
            <Time>2021-07-27T08:55:48.000Z</Time>
            <Position>
              <LatitudeDegrees>40.68008034490048885345458984375</LatitudeDegrees>
              <LongitudeDegrees>-3.1738289259374141693115234375</LongitudeDegrees>
            </Position>
            <AltitudeMeters>657.79998779296875</AltitudeMeters>
            <DistanceMeters>4566.0224932655</DistanceMeters>
          </Trackpoint>
          <Trackpoint>
            <Time>2021-07-27T08:55:59.000Z</Time>
            <Position>
              <LatitudeDegrees>40.68062223494052886962890625</LatitudeDegrees>
              <LongitudeDegrees>-3.1737720966339111328125</LongitudeDegrees>
            </Position>
            <AltitudeMeters>659</AltitudeMeters>
            <DistanceMeters>4626.5263836346</DistanceMeters>
          </Trackpoint>
          <Trackpoint>
            <Time>2021-07-27T08:56:11.000Z</Time>
            <Position>
              <LatitudeDegrees>40.68120821379125118255615234375</LatitudeDegrees>
              <LongitudeDegrees>-3.17370478995144367218017578125</LongitudeDegrees>
            </Position>
            <AltitudeMeters>658.5999755859375</AltitudeMeters>
            <DistanceMeters>4691.9939279836</DistanceMeters>
          </Trackpoint>
          <Trackpoint>
            <Time>2021-07-27T08:56:23.000Z</Time>
            <Position>
              <LatitudeDegrees>40.6817921809852123260498046875</LatitudeDegrees>
              <LongitudeDegrees>-3.173639662563800811767578125</LongitudeDegrees>
            </Position>
            <AltitudeMeters>656.4000244140625</AltitudeMeters>
            <DistanceMeters>4757.2226901894</DistanceMeters>
          </Trackpoint>
          <Trackpoint>
            <Time>2021-07-27T08:56:35.000Z</Time>
            <Position>
              <LatitudeDegrees>40.68237237632274627685546875</LatitudeDegrees>
              <LongitudeDegrees>-3.1735761277377605438232421875</LongitudeDegrees>
            </Position>
            <AltitudeMeters>658.4000244140625</AltitudeMeters>
            <DistanceMeters>4822.0218519588</DistanceMeters>
          </Trackpoint>
          <Trackpoint>
            <Time>2021-07-27T08:56:46.000Z</Time>
            <Position>
              <LatitudeDegrees>40.6829123385250568389892578125</LatitudeDegrees>
              <LongitudeDegrees>-3.17351737059652805328369140625</LongitudeDegrees>
            </Position>
            <AltitudeMeters>660</AltitudeMeters>
            <DistanceMeters>4882.3249693281</DistanceMeters>
          </Trackpoint>
          <Trackpoint>
            <Time>2021-07-27T08:56:55.000Z</Time>
            <Position>
              <LatitudeDegrees>40.68335079587996006011962890625</LatitudeDegrees>
              <LongitudeDegrees>-3.17346741445362567901611328125</LongitudeDegrees>
            </Position>
            <AltitudeMeters>659.20001220703125</AltitudeMeters>
            <DistanceMeters>4931.3079915047</DistanceMeters>
          </Trackpoint>
          <Trackpoint>
            <Time>2021-07-27T08:57:06.000Z</Time>
            <Position>
              <LatitudeDegrees>40.68389059044420719146728515625</LatitudeDegrees>
              <LongitudeDegrees>-3.1734118424355983734130859375</LongitudeDegrees>
            </Position>
            <AltitudeMeters>659.5999755859375</AltitudeMeters>
            <DistanceMeters>4991.5710388353</DistanceMeters>
          </Trackpoint>
          <Trackpoint>
            <Time>2021-07-27T08:57:18.000Z</Time>
            <Position>
              <LatitudeDegrees>40.68446458317339420318603515625</LatitudeDegrees>
              <LongitudeDegrees>-3.1733494810760021209716796875</LongitudeDegrees>
            </Position>
            <AltitudeMeters>657.79998779296875</AltitudeMeters>
            <DistanceMeters>5055.6740065226</DistanceMeters>
          </Trackpoint>
          <Trackpoint>
            <Time>2021-07-27T08:57:30.000Z</Time>
            <Position>
              <LatitudeDegrees>40.6850337982177734375</LatitudeDegrees>
              <LongitudeDegrees>-3.1732852756977081298828125</LongitudeDegrees>
            </Position>
            <AltitudeMeters>659</AltitudeMeters>
            <DistanceMeters>5119.2601580625</DistanceMeters>
          </Trackpoint>
          <Trackpoint>
            <Time>2021-07-27T08:57:42.000Z</Time>
            <Position>
              <LatitudeDegrees>40.68560753948986530303955078125</LatitudeDegrees>
              <LongitudeDegrees>-3.17322199232876300811767578125</LongitudeDegrees>
            </Position>
            <AltitudeMeters>659</AltitudeMeters>
            <DistanceMeters>5183.3417101901</DistanceMeters>
          </Trackpoint>
          <Trackpoint>
            <Time>2021-07-27T08:57:48.000Z</Time>
            <Position>
              <LatitudeDegrees>40.68589168600738048553466796875</LatitudeDegrees>
              <LongitudeDegrees>-3.17318963818252086639404296875</LongitudeDegrees>
            </Position>
            <AltitudeMeters>660</AltitudeMeters>
            <DistanceMeters>5215.0854691103</DistanceMeters>
          </Trackpoint>
          <Trackpoint>
            <Time>2021-07-27T08:58:00.000Z</Time>
            <Position>
              <LatitudeDegrees>40.68645712919533252716064453125</LatitudeDegrees>
              <LongitudeDegrees>-3.17312878556549549102783203125</LongitudeDegrees>
            </Position>
            <AltitudeMeters>660.5999755859375</AltitudeMeters>
            <DistanceMeters>5278.2296303881</DistanceMeters>
          </Trackpoint>
          <Trackpoint>
            <Time>2021-07-27T08:58:12.000Z</Time>
            <Position>
              <LatitudeDegrees>40.6870335526764392852783203125</LatitudeDegrees>
              <LongitudeDegrees>-3.17306709475815296173095703125</LongitudeDegrees>
            </Position>
            <AltitudeMeters>659.20001220703125</AltitudeMeters>
            <DistanceMeters>5342.5975871252</DistanceMeters>
          </Trackpoint>
          <Trackpoint>
            <Time>2021-07-27T08:58:23.000Z</Time>
            <Position>
              <LatitudeDegrees>40.68757879547774791717529296875</LatitudeDegrees>
              <LongitudeDegrees>-3.1730091758072376251220703125</LongitudeDegrees>
            </Position>
            <AltitudeMeters>660</AltitudeMeters>
            <DistanceMeters>5403.4807217316</DistanceMeters>
          </Trackpoint>
          <Trackpoint>
            <Time>2021-07-27T08:58:35.000Z</Time>
            <Position>
              <LatitudeDegrees>40.688156895339488983154296875</LatitudeDegrees>
              <LongitudeDegrees>-3.17294689826667308807373046875</LongitudeDegrees>
            </Position>
            <AltitudeMeters>661</AltitudeMeters>
            <DistanceMeters>5468.0386292397</DistanceMeters>
          </Trackpoint>
          <Trackpoint>
            <Time>2021-07-27T08:58:47.000Z</Time>
            <Position>
              <LatitudeDegrees>40.68872862495481967926025390625</LatitudeDegrees>
              <LongitudeDegrees>-3.17288252525031566619873046875</LongitudeDegrees>
            </Position>
            <AltitudeMeters>662.20001220703125</AltitudeMeters>
            <DistanceMeters>5531.9047824805</DistanceMeters>
          </Trackpoint>
          <Trackpoint>
            <Time>2021-07-27T08:58:59.000Z</Time>
            <Position>
              <LatitudeDegrees>40.68930077366530895233154296875</LatitudeDegrees>
              <LongitudeDegrees>-3.17281764931976795196533203125</LongitudeDegrees>
            </Position>
            <AltitudeMeters>662.5999755859375</AltitudeMeters>
            <DistanceMeters>5595.8211096907</DistanceMeters>
          </Trackpoint>
          <Trackpoint>
            <Time>2021-07-27T08:59:09.000Z</Time>
            <Position>
              <LatitudeDegrees>40.689781643450260162353515625</LatitudeDegrees>
              <LongitudeDegrees>-3.17276534624397754669189453125</LongitudeDegrees>
            </Position>
            <AltitudeMeters>663</AltitudeMeters>
            <DistanceMeters>5649.5245726609</DistanceMeters>
          </Trackpoint>
          <Trackpoint>
            <Time>2021-07-27T08:59:21.000Z</Time>
            <Position>
              <LatitudeDegrees>40.69035437889397144317626953125</LatitudeDegrees>
              <LongitudeDegrees>-3.17269929684698581695556640625</LongitudeDegrees>
            </Position>
            <AltitudeMeters>662</AltitudeMeters>
            <DistanceMeters>5713.5143231179</DistanceMeters>
          </Trackpoint>
          <Trackpoint>
            <Time>2021-07-27T08:59:33.000Z</Time>
            <Position>
              <LatitudeDegrees>40.69090775214135646820068359375</LatitudeDegrees>
              <LongitudeDegrees>-3.172602318227291107177734375</LongitudeDegrees>
            </Position>
            <AltitudeMeters>663</AltitudeMeters>
            <DistanceMeters>5775.6472625385</DistanceMeters>
          </Trackpoint>
          <Trackpoint>
            <Time>2021-07-27T08:59:45.000Z</Time>
            <Position>
              <LatitudeDegrees>40.69145307876169681549072265625</LatitudeDegrees>
              <LongitudeDegrees>-3.17233837209641933441162109375</LongitudeDegrees>
            </Position>
            <AltitudeMeters>663</AltitudeMeters>
            <DistanceMeters>5840.3014725109</DistanceMeters>
          </Trackpoint>
          <Trackpoint>
            <Time>2021-07-27T08:59:47.000Z</Time>
            <Position>
              <LatitudeDegrees>40.6915470398962497711181640625</LatitudeDegrees>
              <LongitudeDegrees>-3.1722920201718807220458984375</LongitudeDegrees>
            </Position>
            <AltitudeMeters>663</AltitudeMeters>
            <DistanceMeters>5851.4670103567</DistanceMeters>
          </Trackpoint>
          <Trackpoint>
            <Time>2021-07-27T08:59:58.000Z</Time>
            <Position>
              <LatitudeDegrees>40.69205791689455509185791015625</LatitudeDegrees>
              <LongitudeDegrees>-3.172024972736835479736328125</LongitudeDegrees>
            </Position>
            <AltitudeMeters>662.20001220703125</AltitudeMeters>
            <DistanceMeters>5912.6318908896</DistanceMeters>
          </Trackpoint>
          <Trackpoint>
            <Time>2021-07-27T09:00:09.000Z</Time>
            <Position>
              <LatitudeDegrees>40.692565441131591796875</LatitudeDegrees>
              <LongitudeDegrees>-3.17174233496189117431640625</LongitudeDegrees>
            </Position>
            <AltitudeMeters>663</AltitudeMeters>
            <DistanceMeters>5973.9496777801</DistanceMeters>
          </Trackpoint>
          <Trackpoint>
            <Time>2021-07-27T09:00:15.000Z</Time>
            <Position>
              <LatitudeDegrees>40.6928455643355846405029296875</LatitudeDegrees>
              <LongitudeDegrees>-3.171587772667407989501953125</LongitudeDegrees>
            </Position>
            <AltitudeMeters>662</AltitudeMeters>
            <DistanceMeters>6007.7463398845</DistanceMeters>
          </Trackpoint>
          <Trackpoint>
            <Time>2021-07-27T09:00:19.000Z</Time>
            <Position>
              <LatitudeDegrees>40.69304262287914752960205078125</LatitudeDegrees>
              <LongitudeDegrees>-3.17149062640964984893798828125</LongitudeDegrees>
            </Position>
            <AltitudeMeters>662.4000244140625</AltitudeMeters>
            <DistanceMeters>6031.1613156756</DistanceMeters>
          </Trackpoint>
          <Trackpoint>
            <Time>2021-07-27T09:00:29.000Z</Time>
            <Position>
              <LatitudeDegrees>40.6935664080083370208740234375</LatitudeDegrees>
              <LongitudeDegrees>-3.17135182209312915802001953125</LongitudeDegrees>
            </Position>
            <AltitudeMeters>661</AltitudeMeters>
            <DistanceMeters>6090.6248089566</DistanceMeters>
          </Trackpoint>
          <Trackpoint>
            <Time>2021-07-27T09:00:40.000Z</Time>
            <Position>
              <LatitudeDegrees>40.69411617703735828399658203125</LatitudeDegrees>
              <LongitudeDegrees>-3.1714367307722568511962890625</LongitudeDegrees>
            </Position>
            <AltitudeMeters>659.4000244140625</AltitudeMeters>
            <DistanceMeters>6152.2333475833</DistanceMeters>
          </Trackpoint>
          <Trackpoint>
            <Time>2021-07-27T09:00:44.000Z</Time>
            <Position>
              <LatitudeDegrees>40.6943060271441936492919921875</LatitudeDegrees>
              <LongitudeDegrees>-3.17151040770113468170166015625</LongitudeDegrees>
            </Position>
            <AltitudeMeters>659</AltitudeMeters>
            <DistanceMeters>6174.2598758432</DistanceMeters>
          </Trackpoint>
          <Trackpoint>
            <Time>2021-07-27T09:00:53.000Z</Time>
            <Position>
              <LatitudeDegrees>40.69472436793148517608642578125</LatitudeDegrees>
              <LongitudeDegrees>-3.171699084341526031494140625</LongitudeDegrees>
            </Position>
            <AltitudeMeters>660</AltitudeMeters>
            <DistanceMeters>6223.4691275099</DistanceMeters>
          </Trackpoint>
          <Trackpoint>
            <Time>2021-07-27T09:01:05.000Z</Time>
            <Position>
              <LatitudeDegrees>40.69526550360023975372314453125</LatitudeDegrees>
              <LongitudeDegrees>-3.1719030998647212982177734375</LongitudeDegrees>
            </Position>
            <AltitudeMeters>661.20001220703125</AltitudeMeters>
            <DistanceMeters>6286.1109798022</DistanceMeters>
          </Trackpoint>
          <Trackpoint>
            <Time>2021-07-27T09:01:17.000Z</Time>
            <Position>
              <LatitudeDegrees>40.69582943804562091827392578125</LatitudeDegrees>
              <LongitudeDegrees>-3.1720214523375034332275390625</LongitudeDegrees>
            </Position>
            <AltitudeMeters>662</AltitudeMeters>
            <DistanceMeters>6349.6675857205</DistanceMeters>
          </Trackpoint>
          <Trackpoint>
            <Time>2021-07-27T09:01:28.000Z</Time>
            <Position>
              <LatitudeDegrees>40.6963324360549449920654296875</LatitudeDegrees>
              <LongitudeDegrees>-3.17203612066805362701416015625</LongitudeDegrees>
            </Position>
            <AltitudeMeters>662</AltitudeMeters>
            <DistanceMeters>6405.6659827177</DistanceMeters>
          </Trackpoint>
          <Trackpoint>
            <Time>2021-07-27T09:01:40.000Z</Time>
            <Position>
              <LatitudeDegrees>40.696892850100994110107421875</LatitudeDegrees>
              <LongitudeDegrees>-3.171984739601612091064453125</LongitudeDegrees>
            </Position>
            <AltitudeMeters>662.5999755859375</AltitudeMeters>
            <DistanceMeters>6468.1917555286</DistanceMeters>
          </Trackpoint>
          <Trackpoint>
            <Time>2021-07-27T09:01:44.000Z</Time>
            <Position>
              <LatitudeDegrees>40.6970837898552417755126953125</LatitudeDegrees>
              <LongitudeDegrees>-3.1719637848436832427978515625</LongitudeDegrees>
            </Position>
            <AltitudeMeters>663.4000244140625</AltitudeMeters>
            <DistanceMeters>6489.517156108</DistanceMeters>
          </Trackpoint>
          <Trackpoint>
            <Time>2021-07-27T09:01:56.000Z</Time>
            <Position>
              <LatitudeDegrees>40.6976629793643951416015625</LatitudeDegrees>
              <LongitudeDegrees>-3.17189027555286884307861328125</LongitudeDegrees>
            </Position>
            <AltitudeMeters>663.20001220703125</AltitudeMeters>
            <DistanceMeters>6554.2798663356</DistanceMeters>
          </Trackpoint>
          <Trackpoint>
            <Time>2021-07-27T09:02:07.000Z</Time>
            <Position>
              <LatitudeDegrees>40.69820621050894260406494140625</LatitudeDegrees>
              <LongitudeDegrees>-3.17182003520429134368896484375</LongitudeDegrees>
            </Position>
            <AltitudeMeters>663.79998779296875</AltitudeMeters>
            <DistanceMeters>6615.032415048</DistanceMeters>
          </Trackpoint>
          <Trackpoint>
            <Time>2021-07-27T09:02:18.000Z</Time>
            <Position>
              <LatitudeDegrees>40.6987680494785308837890625</LatitudeDegrees>
              <LongitudeDegrees>-3.17175515927374362945556640625</LongitudeDegrees>
            </Position>
            <AltitudeMeters>663</AltitudeMeters>
            <DistanceMeters>6677.8053104546</DistanceMeters>
          </Trackpoint>
          <Trackpoint>
            <Time>2021-07-27T09:02:29.000Z</Time>
            <Position>
              <LatitudeDegrees>40.69930759258568286895751953125</LatitudeDegrees>
              <LongitudeDegrees>-3.171688355505466461181640625</LongitudeDegrees>
            </Position>
            <AltitudeMeters>663</AltitudeMeters>
            <DistanceMeters>6738.1215290682</DistanceMeters>
          </Trackpoint>
          <Trackpoint>
            <Time>2021-07-27T09:02:41.000Z</Time>
            <Position>
              <LatitudeDegrees>40.69989298470318317413330078125</LatitudeDegrees>
              <LongitudeDegrees>-3.1716140918433666229248046875</LongitudeDegrees>
            </Position>
            <AltitudeMeters>664.5999755859375</AltitudeMeters>
            <DistanceMeters>6803.5775550728</DistanceMeters>
          </Trackpoint>
          <Trackpoint>
            <Time>2021-07-27T09:02:52.000Z</Time>
            <Position>
              <LatitudeDegrees>40.7004549913108348846435546875</LatitudeDegrees>
              <LongitudeDegrees>-3.17154561169445514678955078125</LongitudeDegrees>
            </Position>
            <AltitudeMeters>664</AltitudeMeters>
            <DistanceMeters>6866.3963228616</DistanceMeters>
          </Trackpoint>
          <Trackpoint>
            <Time>2021-07-27T09:03:03.000Z</Time>
            <Position>
              <LatitudeDegrees>40.701008699834346771240234375</LatitudeDegrees>
              <LongitudeDegrees>-3.17147813737392425537109375</LongitudeDegrees>
            </Position>
            <AltitudeMeters>663</AltitudeMeters>
            <DistanceMeters>6928.2876093026</DistanceMeters>
          </Trackpoint>
          <Trackpoint>
            <Time>2021-07-27T09:03:14.000Z</Time>
            <Position>
              <LatitudeDegrees>40.7015500031411647796630859375</LatitudeDegrees>
              <LongitudeDegrees>-3.17141233943402767181396484375</LongitudeDegrees>
            </Position>
            <AltitudeMeters>664</AltitudeMeters>
            <DistanceMeters>6988.7910519265</DistanceMeters>
          </Trackpoint>
          <Trackpoint>
            <Time>2021-07-27T09:03:25.000Z</Time>
            <Position>
              <LatitudeDegrees>40.7020918093621730804443359375</LatitudeDegrees>
              <LongitudeDegrees>-3.17134310491383075714111328125</LongitudeDegrees>
            </Position>
            <AltitudeMeters>663.4000244140625</AltitudeMeters>
            <DistanceMeters>7049.3774201486</DistanceMeters>
          </Trackpoint>
          <Trackpoint>
            <Time>2021-07-27T09:03:33.000Z</Time>
            <Position>
              <LatitudeDegrees>40.70246773771941661834716796875</LatitudeDegrees>
              <LongitudeDegrees>-3.171296082437038421630859375</LongitudeDegrees>
            </Position>
            <AltitudeMeters>663.4000244140625</AltitudeMeters>
            <DistanceMeters>7091.4066305134</DistanceMeters>
          </Trackpoint>
          <Trackpoint>
            <Time>2021-07-27T09:03:45.000Z</Time>
            <Position>
              <LatitudeDegrees>40.70304105989634990692138671875</LatitudeDegrees>
              <LongitudeDegrees>-3.1712268479168415069580078125</LongitudeDegrees>
            </Position>
            <AltitudeMeters>663.4000244140625</AltitudeMeters>
            <DistanceMeters>7155.4853642714</DistanceMeters>
          </Trackpoint>
          <Trackpoint>
            <Time>2021-07-27T09:03:56.000Z</Time>
            <Position>
              <LatitudeDegrees>40.70358638651669025421142578125</LatitudeDegrees>
              <LongitudeDegrees>-3.17116641439497470855712890625</LongitudeDegrees>
            </Position>
            <AltitudeMeters>664</AltitudeMeters>
            <DistanceMeters>7216.3950420482</DistanceMeters>
          </Trackpoint>
          <Trackpoint>
            <Time>2021-07-27T09:04:07.000Z</Time>
            <Position>
              <LatitudeDegrees>40.7041376642882823944091796875</LatitudeDegrees>
              <LongitudeDegrees>-3.17109315656125545501708984375</LongitudeDegrees>
            </Position>
            <AltitudeMeters>664</AltitudeMeters>
            <DistanceMeters>7278.0638654894</DistanceMeters>
          </Trackpoint>
          <Trackpoint>
            <Time>2021-07-27T09:04:18.000Z</Time>
            <Position>
              <LatitudeDegrees>40.704691708087921142578125</LatitudeDegrees>
              <LongitudeDegrees>-3.17102392204105854034423828125</LongitudeDegrees>
            </Position>
            <AltitudeMeters>665</AltitudeMeters>
            <DistanceMeters>7340.0060508778</DistanceMeters>
          </Trackpoint>
          <Trackpoint>
            <Time>2021-07-27T09:04:29.000Z</Time>
            <Position>
              <LatitudeDegrees>40.70524918846786022186279296875</LatitudeDegrees>
              <LongitudeDegrees>-3.17095351405441761016845703125</LongitudeDegrees>
            </Position>
            <AltitudeMeters>665.20001220703125</AltitudeMeters>
            <DistanceMeters>7402.3384328408</DistanceMeters>
          </Trackpoint>
          <Trackpoint>
            <Time>2021-07-27T09:04:40.000Z</Time>
            <Position>
              <LatitudeDegrees>40.705791078507900238037109375</LatitudeDegrees>
              <LongitudeDegrees>-3.1708872132003307342529296875</LongitudeDegrees>
            </Position>
            <AltitudeMeters>665</AltitudeMeters>
            <DistanceMeters>7462.9106401625</DistanceMeters>
          </Trackpoint>
          <Trackpoint>
            <Time>2021-07-27T09:04:52.000Z</Time>
            <Position>
              <LatitudeDegrees>40.7063694298267364501953125</LatitudeDegrees>
              <LongitudeDegrees>-3.1708201579749584197998046875</LongitudeDegrees>
            </Position>
            <AltitudeMeters>666.79998779296875</AltitudeMeters>
            <DistanceMeters>7527.5304828546</DistanceMeters>
          </Trackpoint>
          <Trackpoint>
            <Time>2021-07-27T09:05:04.000Z</Time>
            <Position>
              <LatitudeDegrees>40.70693814195692539215087890625</LatitudeDegrees>
              <LongitudeDegrees>-3.17075134254992008209228515625</LongitudeDegrees>
            </Position>
            <AltitudeMeters>663.4000244140625</AltitudeMeters>
            <DistanceMeters>7591.0950447144</DistanceMeters>
          </Trackpoint>
          <Trackpoint>
            <Time>2021-07-27T09:05:16.000Z</Time>
            <Position>
              <LatitudeDegrees>40.70750928483903408050537109375</LatitudeDegrees>
              <LongitudeDegrees>-3.170650340616703033447265625</LongitudeDegrees>
            </Position>
            <AltitudeMeters>663.79998779296875</AltitudeMeters>
            <DistanceMeters>7655.2330790184</DistanceMeters>
          </Trackpoint>
          <Trackpoint>
            <Time>2021-07-27T09:05:27.000Z</Time>
            <Position>
              <LatitudeDegrees>40.70804203860461711883544921875</LatitudeDegrees>
              <LongitudeDegrees>-3.17047096788883209228515625</LongitudeDegrees>
            </Position>
            <AltitudeMeters>666.79998779296875</AltitudeMeters>
            <DistanceMeters>7716.4304306297</DistanceMeters>
          </Trackpoint>
          <Trackpoint>
            <Time>2021-07-27T09:05:38.000Z</Time>
            <Position>
              <LatitudeDegrees>40.7085505686700344085693359375</LatitudeDegrees>
              <LongitudeDegrees>-3.170196712017059326171875</LongitudeDegrees>
            </Position>
            <AltitudeMeters>665.4000244140625</AltitudeMeters>
            <DistanceMeters>7777.5780354292</DistanceMeters>
          </Trackpoint>
          <Trackpoint>
            <Time>2021-07-27T09:05:49.000Z</Time>
            <Position>
              <LatitudeDegrees>40.70905893109738826751708984375</LatitudeDegrees>
              <LongitudeDegrees>-3.16985062323510646820068359375</LongitudeDegrees>
            </Position>
            <AltitudeMeters>664.20001220703125</AltitudeMeters>
            <DistanceMeters>7841.2500470211</DistanceMeters>
          </Trackpoint>
          <Trackpoint>
            <Time>2021-07-27T09:06:00.000Z</Time>
            <Position>
              <LatitudeDegrees>40.709567964076995849609375</LatitudeDegrees>
              <LongitudeDegrees>-3.1695140898227691650390625</LongitudeDegrees>
            </Position>
            <AltitudeMeters>664.5999755859375</AltitudeMeters>
            <DistanceMeters>7904.6229631485</DistanceMeters>
          </Trackpoint>
          <Trackpoint>
            <Time>2021-07-27T09:06:11.000Z</Time>
            <Position>
              <LatitudeDegrees>40.71008236147463321685791015625</LatitudeDegrees>
              <LongitudeDegrees>-3.16922181285917758941650390625</LongitudeDegrees>
            </Position>
            <AltitudeMeters>663.5999755859375</AltitudeMeters>
            <DistanceMeters>7966.9610672039</DistanceMeters>
          </Trackpoint>
          <Trackpoint>
            <Time>2021-07-27T09:06:16.000Z</Time>
            <Position>
              <LatitudeDegrees>40.71032510139048099517822265625</LatitudeDegrees>
              <LongitudeDegrees>-3.1691092438995838165283203125</LongitudeDegrees>
            </Position>
            <AltitudeMeters>663.20001220703125</AltitudeMeters>
            <DistanceMeters>7995.5992875213</DistanceMeters>
          </Trackpoint>
          <Trackpoint>
            <Time>2021-07-27T09:06:27.000Z</Time>
            <Position>
              <LatitudeDegrees>40.71086405776441097259521484375</LatitudeDegrees>
              <LongitudeDegrees>-3.16890455782413482666015625</LongitudeDegrees>
            </Position>
            <AltitudeMeters>662.79998779296875</AltitudeMeters>
            <DistanceMeters>8058.0225090589</DistanceMeters>
          </Trackpoint>
          <Trackpoint>
            <Time>2021-07-27T09:06:38.000Z</Time>
            <Position>
              <LatitudeDegrees>40.71140536107122898101806640625</LatitudeDegrees>
              <LongitudeDegrees>-3.16875242628157138824462890625</LongitudeDegrees>
            </Position>
            <AltitudeMeters>662.79998779296875</AltitudeMeters>
            <DistanceMeters>8119.6226192286</DistanceMeters>
          </Trackpoint>
          <Trackpoint>
            <Time>2021-07-27T09:06:50.000Z</Time>
            <Position>
              <LatitudeDegrees>40.711983628571033477783203125</LatitudeDegrees>
              <LongitudeDegrees>-3.1686049886047840118408203125</LongitudeDegrees>
            </Position>
            <AltitudeMeters>661.5999755859375</AltitudeMeters>
            <DistanceMeters>8185.1759012074</DistanceMeters>
          </Trackpoint>
          <Trackpoint>
            <Time>2021-07-27T09:07:02.000Z</Time>
            <Position>
              <LatitudeDegrees>40.71256038732826709747314453125</LatitudeDegrees>
              <LongitudeDegrees>-3.16846475936472415924072265625</LongitudeDegrees>
            </Position>
            <AltitudeMeters>661.20001220703125</AltitudeMeters>
            <DistanceMeters>8250.4513000221</DistanceMeters>
          </Trackpoint>
          <Trackpoint>
            <Time>2021-07-27T09:07:13.000Z</Time>
            <Position>
              <LatitudeDegrees>40.713092051446437835693359375</LatitudeDegrees>
              <LongitudeDegrees>-3.1683258712291717529296875</LongitudeDegrees>
            </Position>
            <AltitudeMeters>664</AltitudeMeters>
            <DistanceMeters>8310.7754528628</DistanceMeters>
          </Trackpoint>
          <Trackpoint>
            <Time>2021-07-27T09:07:24.000Z</Time>
            <Position>
              <LatitudeDegrees>40.71362757124006748199462890625</LatitudeDegrees>
              <LongitudeDegrees>-3.1681862287223339080810546875</LongitudeDegrees>
            </Position>
            <AltitudeMeters>663</AltitudeMeters>
            <DistanceMeters>8371.5330550229</DistanceMeters>
          </Trackpoint>
          <Trackpoint>
            <Time>2021-07-27T09:07:35.000Z</Time>
            <Position>
              <LatitudeDegrees>40.71416351012885570526123046875</LatitudeDegrees>
              <LongitudeDegrees>-3.1680507771670818328857421875</LongitudeDegrees>
            </Position>
            <AltitudeMeters>662.4000244140625</AltitudeMeters>
            <DistanceMeters>8432.268879771</DistanceMeters>
          </Trackpoint>
          <Trackpoint>
            <Time>2021-07-27T09:07:47.000Z</Time>
            <Position>
              <LatitudeDegrees>40.71472208015620708465576171875</LatitudeDegrees>
              <LongitudeDegrees>-3.167908452451229095458984375</LongitudeDegrees>
            </Position>
            <AltitudeMeters>663.20001220703125</AltitudeMeters>
            <DistanceMeters>8495.5876261293</DistanceMeters>
          </Trackpoint>
          <Trackpoint>
            <Time>2021-07-27T09:07:59.000Z</Time>
            <Position>
              <LatitudeDegrees>40.71526707150042057037353515625</LatitudeDegrees>
              <LongitudeDegrees>-3.1678405590355396270751953125</LongitudeDegrees>
            </Position>
            <AltitudeMeters>663.5999755859375</AltitudeMeters>
            <DistanceMeters>8556.5161291988</DistanceMeters>
          </Trackpoint>
          <Trackpoint>
            <Time>2021-07-27T09:08:11.000Z</Time>
            <Position>
              <LatitudeDegrees>40.71582178585231304168701171875</LatitudeDegrees>
              <LongitudeDegrees>-3.16786193288862705230712890625</LongitudeDegrees>
            </Position>
            <AltitudeMeters>663.5999755859375</AltitudeMeters>
            <DistanceMeters>8618.2832742467</DistanceMeters>
          </Trackpoint>
          <Trackpoint>
            <Time>2021-07-27T09:08:23.000Z</Time>
            <Position>
              <LatitudeDegrees>40.716363675892353057861328125</LatitudeDegrees>
              <LongitudeDegrees>-3.1679736636579036712646484375</LongitudeDegrees>
            </Position>
            <AltitudeMeters>664.79998779296875</AltitudeMeters>
            <DistanceMeters>8679.3288231193</DistanceMeters>
          </Trackpoint>
          <Trackpoint>
            <Time>2021-07-27T09:08:35.000Z</Time>
            <Position>
              <LatitudeDegrees>40.71690581738948822021484375</LatitudeDegrees>
              <LongitudeDegrees>-3.16812512464821338653564453125</LongitudeDegrees>
            </Position>
            <AltitudeMeters>664.5999755859375</AltitudeMeters>
            <DistanceMeters>8741.0081885152</DistanceMeters>
          </Trackpoint>
          <Trackpoint>
            <Time>2021-07-27T09:08:37.000Z</Time>
            <Position>
              <LatitudeDegrees>40.71699558757245540618896484375</LatitudeDegrees>
              <LongitudeDegrees>-3.16815144382417201995849609375</LongitudeDegrees>
            </Position>
            <AltitudeMeters>664.5999755859375</AltitudeMeters>
            <DistanceMeters>8751.2433200154</DistanceMeters>
          </Trackpoint>
          <Trackpoint>
            <Time>2021-07-27T09:08:48.000Z</Time>
            <Position>
              <LatitudeDegrees>40.71748542599380016326904296875</LatitudeDegrees>
              <LongitudeDegrees>-3.1682740710675716400146484375</LongitudeDegrees>
            </Position>
            <AltitudeMeters>666</AltitudeMeters>
            <DistanceMeters>8806.7360735874</DistanceMeters>
          </Trackpoint>
          <Trackpoint>
            <Time>2021-07-27T09:08:52.000Z</Time>
            <Position>
              <LatitudeDegrees>40.71765842847526073455810546875</LatitudeDegrees>
              <LongitudeDegrees>-3.1682076863944530487060546875</LongitudeDegrees>
            </Position>
            <AltitudeMeters>665.79998779296875</AltitudeMeters>
            <DistanceMeters>8826.7896374691</DistanceMeters>
          </Trackpoint>
          <Trackpoint>
            <Time>2021-07-27T09:08:53.000Z</Time>
            <Position>
              <LatitudeDegrees>40.71770251728594303131103515625</LatitudeDegrees>
              <LongitudeDegrees>-3.1681919284164905548095703125</LongitudeDegrees>
            </Position>
            <AltitudeMeters>665.79998779296875</AltitudeMeters>
            <DistanceMeters>8831.8742327194</DistanceMeters>
          </Trackpoint>
          <Trackpoint>
            <Time>2021-07-27T09:09:05.000Z</Time>
            <Position>
              <LatitudeDegrees>40.71819436736404895782470703125</LatitudeDegrees>
              <LongitudeDegrees>-3.16849409602582454681396484375</LongitudeDegrees>
            </Position>
            <AltitudeMeters>667</AltitudeMeters>
            <DistanceMeters>8892.261821848</DistanceMeters>
          </Trackpoint>
          <Trackpoint>
            <Time>2021-07-27T09:09:17.000Z</Time>
            <Position>
              <LatitudeDegrees>40.7187022268772125244140625</LatitudeDegrees>
              <LongitudeDegrees>-3.16864798776805400848388671875</LongitudeDegrees>
            </Position>
            <AltitudeMeters>667.4000244140625</AltitudeMeters>
            <DistanceMeters>8950.2592655451</DistanceMeters>
          </Trackpoint>
          <Trackpoint>
            <Time>2021-07-27T09:09:23.000Z</Time>
            <Position>
              <LatitudeDegrees>40.718907080590724945068359375</LatitudeDegrees>
              <LongitudeDegrees>-3.1687295436859130859375</LongitudeDegrees>
            </Position>
            <AltitudeMeters>667.79998779296875</AltitudeMeters>
            <DistanceMeters>8974.0753565693</DistanceMeters>
          </Trackpoint>
          <Trackpoint>
            <Time>2021-07-27T09:09:30.000Z</Time>
            <Position>
              <LatitudeDegrees>40.71913070976734161376953125</LatitudeDegrees>
              <LongitudeDegrees>-3.1688510812819004058837890625</LongitudeDegrees>
            </Position>
            <AltitudeMeters>668.5999755859375</AltitudeMeters>
            <DistanceMeters>9000.9945982837</DistanceMeters>
          </Trackpoint>
          <Trackpoint>
            <Time>2021-07-27T09:09:31.000Z</Time>
            <Position>
              <LatitudeDegrees>40.7191620580852031707763671875</LatitudeDegrees>
              <LongitudeDegrees>-3.16887061111629009246826171875</LongitudeDegrees>
            </Position>
            <AltitudeMeters>668.79998779296875</AltitudeMeters>
            <DistanceMeters>9004.8522615634</DistanceMeters>
          </Trackpoint>
          <Trackpoint>
            <Time>2021-07-27T09:09:35.000Z</Time>
            <Position>
              <LatitudeDegrees>40.7192861102521419525146484375</LatitudeDegrees>
              <LongitudeDegrees>-3.16894839517772197723388671875</LongitudeDegrees>
            </Position>
            <AltitudeMeters>669.20001220703125</AltitudeMeters>
            <DistanceMeters>9020.1394581138</DistanceMeters>
          </Trackpoint>
          <Trackpoint>
            <Time>2021-07-27T09:09:42.000Z</Time>
            <Position>
              <LatitudeDegrees>40.71949758566915988922119140625</LatitudeDegrees>
              <LongitudeDegrees>-3.16910731606185436248779296875</LongitudeDegrees>
            </Position>
            <AltitudeMeters>669.79998779296875</AltitudeMeters>
            <DistanceMeters>9047.2272393358</DistanceMeters>
          </Trackpoint>
          <Trackpoint>
            <Time>2021-07-27T09:09:52.000Z</Time>
            <Position>
              <LatitudeDegrees>40.7197886891663074493408203125</LatitudeDegrees>
              <LongitudeDegrees>-3.1693747825920581817626953125</LongitudeDegrees>
            </Position>
            <AltitudeMeters>669</AltitudeMeters>
            <DistanceMeters>9086.7096670287</DistanceMeters>
          </Trackpoint>
          <Trackpoint>
            <Time>2021-07-27T09:10:06.000Z</Time>
            <Position>
              <LatitudeDegrees>40.72022815234959125518798828125</LatitudeDegrees>
              <LongitudeDegrees>-3.16983134485781192779541015625</LongitudeDegrees>
            </Position>
            <AltitudeMeters>669.20001220703125</AltitudeMeters>
            <DistanceMeters>9148.9657283456</DistanceMeters>
          </Trackpoint>
          <Trackpoint>
            <Time>2021-07-27T09:10:09.000Z</Time>
            <Position>
              <LatitudeDegrees>40.7203464210033416748046875</LatitudeDegrees>
              <LongitudeDegrees>-3.1699541397392749786376953125</LongitudeDegrees>
            </Position>
            <AltitudeMeters>668.79998779296875</AltitudeMeters>
            <DistanceMeters>9165.7160568555</DistanceMeters>
          </Trackpoint>
          <Trackpoint>
            <Time>2021-07-27T09:10:12.000Z</Time>
            <Position>
              <LatitudeDegrees>40.720476843416690826416015625</LatitudeDegrees>
              <LongitudeDegrees>-3.1700880825519561767578125</LongitudeDegrees>
            </Position>
            <AltitudeMeters>668.4000244140625</AltitudeMeters>
            <DistanceMeters>9184.1115205534</DistanceMeters>
          </Trackpoint>
          <Trackpoint>
            <Time>2021-07-27T09:10:16.000Z</Time>
            <Position>
              <LatitudeDegrees>40.72068178094923496246337890625</LatitudeDegrees>
              <LongitudeDegrees>-3.17025312222540378570556640625</LongitudeDegrees>
            </Position>
            <AltitudeMeters>667.79998779296875</AltitudeMeters>
            <DistanceMeters>9210.8344789477</DistanceMeters>
          </Trackpoint>
          <Trackpoint>
            <Time>2021-07-27T09:10:25.000Z</Time>
            <Position>
              <LatitudeDegrees>40.72121721692383289337158203125</LatitudeDegrees>
              <LongitudeDegrees>-3.17049116827547550201416015625</LongitudeDegrees>
            </Position>
            <AltitudeMeters>668.20001220703125</AltitudeMeters>
            <DistanceMeters>9273.7216335921</DistanceMeters>
          </Trackpoint>
          <Trackpoint>
            <Time>2021-07-27T09:10:27.000Z</Time>
            <Position>
              <LatitudeDegrees>40.721337497234344482421875</LatitudeDegrees>
              <LongitudeDegrees>-3.170521594583988189697265625</LongitudeDegrees>
            </Position>
            <AltitudeMeters>668.79998779296875</AltitudeMeters>
            <DistanceMeters>9287.3525856099</DistanceMeters>
          </Trackpoint>
          <Trackpoint>
            <Time>2021-07-27T09:10:31.000Z</Time>
            <Position>
              <LatitudeDegrees>40.721567161381244659423828125</LatitudeDegrees>
              <LongitudeDegrees>-3.1705784238874912261962890625</LongitudeDegrees>
            </Position>
            <AltitudeMeters>669.4000244140625</AltitudeMeters>
            <DistanceMeters>9313.3604095502</DistanceMeters>
          </Trackpoint>
          <Trackpoint>
            <Time>2021-07-27T09:10:41.000Z</Time>
            <Position>
              <LatitudeDegrees>40.7220987416803836822509765625</LatitudeDegrees>
              <LongitudeDegrees>-3.17071161232888698577880859375</LongitudeDegrees>
            </Position>
            <AltitudeMeters>668.4000244140625</AltitudeMeters>
            <DistanceMeters>9373.5835101249</DistanceMeters>
          </Trackpoint>
          <Trackpoint>
            <Time>2021-07-27T09:10:47.000Z</Time>
            <Position>
              <LatitudeDegrees>40.72240308858454227447509765625</LatitudeDegrees>
              <LongitudeDegrees>-3.1707876361906528472900390625</LongitudeDegrees>
            </Position>
            <AltitudeMeters>669</AltitudeMeters>
            <DistanceMeters>9408.0594849771</DistanceMeters>
          </Trackpoint>
          <Trackpoint>
            <Time>2021-07-27T09:10:58.000Z</Time>
            <Position>
              <LatitudeDegrees>40.7229439727962017059326171875</LatitudeDegrees>
              <LongitudeDegrees>-3.17092266865074634552001953125</LongitudeDegrees>
            </Position>
            <AltitudeMeters>669.4000244140625</AltitudeMeters>
            <DistanceMeters>9469.3290229963</DistanceMeters>
          </Trackpoint>
          <Trackpoint>
            <Time>2021-07-27T09:10:59.000Z</Time>
            <Position>
              <LatitudeDegrees>40.7229929231107234954833984375</LatitudeDegrees>
              <LongitudeDegrees>-3.1709356606006622314453125</LongitudeDegrees>
            </Position>
            <AltitudeMeters>669.5999755859375</AltitudeMeters>
            <DistanceMeters>9474.8862580497</DistanceMeters>
          </Trackpoint>
          <Trackpoint>
            <Time>2021-07-27T09:11:10.000Z</Time>
            <Position>
              <LatitudeDegrees>40.72353581897914409637451171875</LatitudeDegrees>
              <LongitudeDegrees>-3.1710726208984851837158203125</LongitudeDegrees>
            </Position>
            <AltitudeMeters>672.5999755859375</AltitudeMeters>
            <DistanceMeters>9536.4062035907</DistanceMeters>
          </Trackpoint>
          <Trackpoint>
            <Time>2021-07-27T09:11:21.000Z</Time>
            <Position>
              <LatitudeDegrees>40.72407511062920093536376953125</LatitudeDegrees>
              <LongitudeDegrees>-3.1712087430059909820556640625</LongitudeDegrees>
            </Position>
            <AltitudeMeters>673</AltitudeMeters>
            <DistanceMeters>9597.5187989904</DistanceMeters>
          </Trackpoint>
          <Trackpoint>
            <Time>2021-07-27T09:11:24.000Z</Time>
            <Position>
              <LatitudeDegrees>40.72422087192535400390625</LatitudeDegrees>
              <LongitudeDegrees>-3.17124419845640659332275390625</LongitudeDegrees>
            </Position>
            <AltitudeMeters>673</AltitudeMeters>
            <DistanceMeters>9614.0157212448</DistanceMeters>
          </Trackpoint>
          <Trackpoint>
            <Time>2021-07-27T09:11:36.000Z</Time>
            <Position>
              <LatitudeDegrees>40.72480115108191967010498046875</LatitudeDegrees>
              <LongitudeDegrees>-3.17138157784938812255859375</LongitudeDegrees>
            </Position>
            <AltitudeMeters>673.4000244140625</AltitudeMeters>
            <DistanceMeters>9679.6333017365</DistanceMeters>
          </Trackpoint>
          <Trackpoint>
            <Time>2021-07-27T09:11:46.000Z</Time>
            <Position>
              <LatitudeDegrees>40.7252842001616954803466796875</LatitudeDegrees>
              <LongitudeDegrees>-3.1714960746467113494873046875</LongitudeDegrees>
            </Position>
            <AltitudeMeters>674</AltitudeMeters>
            <DistanceMeters>9734.2581254884</DistanceMeters>
          </Trackpoint>
          <Trackpoint>
            <Time>2021-07-27T09:11:58.000Z</Time>
            <Position>
              <LatitudeDegrees>40.7258618809282779693603515625</LatitudeDegrees>
              <LongitudeDegrees>-3.171617947518825531005859375</LongitudeDegrees>
            </Position>
            <AltitudeMeters>675</AltitudeMeters>
            <DistanceMeters>9799.3716062101</DistanceMeters>
          </Trackpoint>
          <Trackpoint>
            <Time>2021-07-27T09:12:10.000Z</Time>
            <Position>
              <LatitudeDegrees>40.72644241154193878173828125</LatitudeDegrees>
              <LongitudeDegrees>-3.1717180274426937103271484375</LongitudeDegrees>
            </Position>
            <AltitudeMeters>675</AltitudeMeters>
            <DistanceMeters>9864.5349240865</DistanceMeters>
          </Trackpoint>
          <Trackpoint>
            <Time>2021-07-27T09:12:14.000Z</Time>
            <Position>
              <LatitudeDegrees>40.72663477621972560882568359375</LatitudeDegrees>
              <LongitudeDegrees>-3.17174769937992095947265625</LongitudeDegrees>
            </Position>
            <AltitudeMeters>675</AltitudeMeters>
            <DistanceMeters>9886.0913315731</DistanceMeters>
          </Trackpoint>
          <Trackpoint>
            <Time>2021-07-27T09:12:26.000Z</Time>
            <Position>
              <LatitudeDegrees>40.72720893658697605133056640625</LatitudeDegrees>
              <LongitudeDegrees>-3.171818442642688751220703125</LongitudeDegrees>
            </Position>
            <AltitudeMeters>675.79998779296875</AltitudeMeters>
            <DistanceMeters>9950.2744736229</DistanceMeters>
          </Trackpoint>
          <Trackpoint>
            <Time>2021-07-27T09:12:38.000Z</Time>
            <Position>
              <LatitudeDegrees>40.72776817716658115386962890625</LatitudeDegrees>
              <LongitudeDegrees>-3.17187166772782802581787109375</LongitudeDegrees>
            </Position>
            <AltitudeMeters>677</AltitudeMeters>
            <DistanceMeters>10012.680767771</DistanceMeters>
          </Trackpoint>
          <Trackpoint>
            <Time>2021-07-27T09:12:39.000Z</Time>
            <Position>
              <LatitudeDegrees>40.7278151996433734893798828125</LatitudeDegrees>
              <LongitudeDegrees>-3.17187636159360408782958984375</LongitudeDegrees>
            </Position>
            <AltitudeMeters>677</AltitudeMeters>
            <DistanceMeters>10017.928789603</DistanceMeters>
          </Trackpoint>
          <Trackpoint>
            <Time>2021-07-27T09:12:47.000Z</Time>
            <Position>
              <LatitudeDegrees>40.72819196619093418121337890625</LatitudeDegrees>
              <LongitudeDegrees>-3.171900250017642974853515625</LongitudeDegrees>
            </Position>
            <AltitudeMeters>675</AltitudeMeters>
            <DistanceMeters>10059.911996379</DistanceMeters>
          </Trackpoint>
          <Trackpoint>
            <Time>2021-07-27T09:12:59.000Z</Time>
            <Position>
              <LatitudeDegrees>40.7287690602242946624755859375</LatitudeDegrees>
              <LongitudeDegrees>-3.17191659472882747650146484375</LongitudeDegrees>
            </Position>
            <AltitudeMeters>673.5999755859375</AltitudeMeters>
            <DistanceMeters>10124.158418786</DistanceMeters>
          </Trackpoint>
          <Trackpoint>
            <Time>2021-07-27T09:13:11.000Z</Time>
            <Position>
              <LatitudeDegrees>40.7293383590877056121826171875</LatitudeDegrees>
              <LongitudeDegrees>-3.17192061804234981536865234375</LongitudeDegrees>
            </Position>
            <AltitudeMeters>675.5999755859375</AltitudeMeters>
            <DistanceMeters>10187.52335491</DistanceMeters>
          </Trackpoint>
          <Trackpoint>
            <Time>2021-07-27T09:13:15.000Z</Time>
            <Position>
              <LatitudeDegrees>40.72952217422425746917724609375</LatitudeDegrees>
              <LongitudeDegrees>-3.17192682065069675445556640625</LongitudeDegrees>
            </Position>
            <AltitudeMeters>676.5999755859375</AltitudeMeters>
            <DistanceMeters>10207.988985506</DistanceMeters>
          </Trackpoint>
          <Trackpoint>
            <Time>2021-07-27T09:13:27.000Z</Time>
            <Position>
              <LatitudeDegrees>40.73006850667297840118408203125</LatitudeDegrees>
              <LongitudeDegrees>-3.17197434604167938232421875</LongitudeDegrees>
            </Position>
            <AltitudeMeters>676.4000244140625</AltitudeMeters>
            <DistanceMeters>10268.928973594</DistanceMeters>
          </Trackpoint>
          <Trackpoint>
            <Time>2021-07-27T09:13:30.000Z</Time>
            <Position>
              <LatitudeDegrees>40.73019909672439098358154296875</LatitudeDegrees>
              <LongitudeDegrees>-3.1719942949712276458740234375</LongitudeDegrees>
            </Position>
            <AltitudeMeters>676.5999755859375</AltitudeMeters>
            <DistanceMeters>10283.56123632</DistanceMeters>
          </Trackpoint>
          <Trackpoint>
            <Time>2021-07-27T09:13:35.000Z</Time>
            <Position>
              <LatitudeDegrees>40.7304073870182037353515625</LatitudeDegrees>
              <LongitudeDegrees>-3.17203067243099212646484375</LongitudeDegrees>
            </Position>
            <AltitudeMeters>676.79998779296875</AltitudeMeters>
            <DistanceMeters>10306.946304835</DistanceMeters>
          </Trackpoint>
          <Trackpoint>
            <Time>2021-07-27T09:13:45.000Z</Time>
            <Position>
              <LatitudeDegrees>40.73079488240182399749755859375</LatitudeDegrees>
              <LongitudeDegrees>-3.17212932743132114410400390625</LongitudeDegrees>
            </Position>
            <AltitudeMeters>678.5999755859375</AltitudeMeters>
            <DistanceMeters>10350.870649712</DistanceMeters>
          </Trackpoint>
          <Trackpoint>
            <Time>2021-07-27T09:13:53.000Z</Time>
            <Position>
              <LatitudeDegrees>40.73110065422952175140380859375</LatitudeDegrees>
              <LongitudeDegrees>-3.1722289882600307464599609375</LongitudeDegrees>
            </Position>
            <AltitudeMeters>679.5999755859375</AltitudeMeters>
            <DistanceMeters>10385.926363986</DistanceMeters>
          </Trackpoint>
          <Trackpoint>
            <Time>2021-07-27T09:13:59.000Z</Time>
            <Position>
              <LatitudeDegrees>40.73132880963385105133056640625</LatitudeDegrees>
              <LongitudeDegrees>-3.17232026718556880950927734375</LongitudeDegrees>
            </Position>
            <AltitudeMeters>680</AltitudeMeters>
            <DistanceMeters>10412.461627518</DistanceMeters>
          </Trackpoint>
          <Trackpoint>
            <Time>2021-07-27T09:14:09.000Z</Time>
            <Position>
              <LatitudeDegrees>40.7316849566996097564697265625</LatitudeDegrees>
              <LongitudeDegrees>-3.172486983239650726318359375</LongitudeDegrees>
            </Position>
            <AltitudeMeters>680.20001220703125</AltitudeMeters>
            <DistanceMeters>10454.521443206</DistanceMeters>
          </Trackpoint>
          <Trackpoint>
            <Time>2021-07-27T09:14:17.000Z</Time>
            <Position>
              <LatitudeDegrees>40.7319602183997631072998046875</LatitudeDegrees>
              <LongitudeDegrees>-3.17263551056385040283203125</LongitudeDegrees>
            </Position>
            <AltitudeMeters>681</AltitudeMeters>
            <DistanceMeters>10487.620490538</DistanceMeters>
          </Trackpoint>
          <Trackpoint>
            <Time>2021-07-27T09:14:32.000Z</Time>
            <Position>
              <LatitudeDegrees>40.7324671559035778045654296875</LatitudeDegrees>
              <LongitudeDegrees>-3.17294522188603878021240234375</LongitudeDegrees>
            </Position>
            <AltitudeMeters>683.5999755859375</AltitudeMeters>
            <DistanceMeters>10549.79686987</DistanceMeters>
          </Trackpoint>
          <Trackpoint>
            <Time>2021-07-27T09:14:46.000Z</Time>
            <Position>
              <LatitudeDegrees>40.7329600118100643157958984375</LatitudeDegrees>
              <LongitudeDegrees>-3.17324982024729251861572265625</LongitudeDegrees>
            </Position>
            <AltitudeMeters>684</AltitudeMeters>
            <DistanceMeters>10610.370269816</DistanceMeters>
          </Trackpoint>
          <Trackpoint>
            <Time>2021-07-27T09:14:49.000Z</Time>
            <Position>
              <LatitudeDegrees>40.73306587524712085723876953125</LatitudeDegrees>
              <LongitudeDegrees>-3.17331553436815738677978515625</LongitudeDegrees>
            </Position>
            <AltitudeMeters>684.20001220703125</AltitudeMeters>
            <DistanceMeters>10623.391703892</DistanceMeters>
          </Trackpoint>
          <Trackpoint>
            <Time>2021-07-27T09:15:03.000Z</Time>
            <Position>
              <LatitudeDegrees>40.73357247747480869293212890625</LatitudeDegrees>
              <LongitudeDegrees>-3.17358903586864471435546875</LongitudeDegrees>
            </Position>
            <AltitudeMeters>687.20001220703125</AltitudeMeters>
            <DistanceMeters>10684.313389023</DistanceMeters>
          </Trackpoint>
          <Trackpoint>
            <Time>2021-07-27T09:15:12.000Z</Time>
            <Position>
              <LatitudeDegrees>40.733895599842071533203125</LatitudeDegrees>
              <LongitudeDegrees>-3.17375491373240947723388671875</LongitudeDegrees>
            </Position>
            <AltitudeMeters>688.79998779296875</AltitudeMeters>
            <DistanceMeters>10722.902660152</DistanceMeters>
          </Trackpoint>
          <Trackpoint>
            <Time>2021-07-27T09:15:25.000Z</Time>
            <Position>
              <LatitudeDegrees>40.7343743741512298583984375</LatitudeDegrees>
              <LongitudeDegrees>-3.17375323735177516937255859375</LongitudeDegrees>
            </Position>
            <AltitudeMeters>685.4000244140625</AltitudeMeters>
            <DistanceMeters>10776.191299741</DistanceMeters>
          </Trackpoint>
          <Trackpoint>
            <Time>2021-07-27T09:15:38.000Z</Time>
            <Position>
              <LatitudeDegrees>40.734834372997283935546875</LatitudeDegrees>
              <LongitudeDegrees>-3.173982314765453338623046875</LongitudeDegrees>
            </Position>
            <AltitudeMeters>687.4000244140625</AltitudeMeters>
            <DistanceMeters>10830.91398252</DistanceMeters>
          </Trackpoint>
          <Trackpoint>
            <Time>2021-07-27T09:15:40.000Z</Time>
            <Position>
              <LatitudeDegrees>40.73491592891514301300048828125</LatitudeDegrees>
              <LongitudeDegrees>-3.17398306913673877716064453125</LongitudeDegrees>
            </Position>
            <AltitudeMeters>687.79998779296875</AltitudeMeters>
            <DistanceMeters>10839.991894043</DistanceMeters>
          </Trackpoint>
          <Trackpoint>
            <Time>2021-07-27T09:15:44.000Z</Time>
            <Position>
              <LatitudeDegrees>40.7350823096930980682373046875</LatitudeDegrees>
              <LongitudeDegrees>-3.17398223094642162322998046875</LongitudeDegrees>
            </Position>
            <AltitudeMeters>688.4000244140625</AltitudeMeters>
            <DistanceMeters>10858.510647867</DistanceMeters>
          </Trackpoint>
          <Trackpoint>
            <Time>2021-07-27T09:15:57.000Z</Time>
            <Position>
              <LatitudeDegrees>40.7356402091681957244873046875</LatitudeDegrees>
              <LongitudeDegrees>-3.17392154596745967864990234375</LongitudeDegrees>
            </Position>
            <AltitudeMeters>689</AltitudeMeters>
            <DistanceMeters>10920.816513026</DistanceMeters>
          </Trackpoint>
          <Trackpoint>
            <Time>2021-07-27T09:16:10.000Z</Time>
            <Position>
              <LatitudeDegrees>40.73620204813778400421142578125</LatitudeDegrees>
              <LongitudeDegrees>-3.17375759594142436981201171875</LongitudeDegrees>
            </Position>
            <AltitudeMeters>689</AltitudeMeters>
            <DistanceMeters>10984.86071169</DistanceMeters>
          </Trackpoint>
          <Trackpoint>
            <Time>2021-07-27T09:16:23.000Z</Time>
            <Position>
              <LatitudeDegrees>40.736741758882999420166015625</LatitudeDegrees>
              <LongitudeDegrees>-3.17352675832808017730712890625</LongitudeDegrees>
            </Position>
            <AltitudeMeters>690</AltitudeMeters>
            <DistanceMeters>11048.007518548</DistanceMeters>
          </Trackpoint>
          <Trackpoint>
            <Time>2021-07-27T09:16:35.000Z</Time>
            <Position>
              <LatitudeDegrees>40.7372605986893177032470703125</LatitudeDegrees>
              <LongitudeDegrees>-3.17329055629670619964599609375</LongitudeDegrees>
            </Position>
            <AltitudeMeters>690.79998779296875</AltitudeMeters>
            <DistanceMeters>11109.094619806</DistanceMeters>
          </Trackpoint>
          <Trackpoint>
            <Time>2021-07-27T09:16:47.000Z</Time>
            <Position>
              <LatitudeDegrees>40.7377772592008113861083984375</LatitudeDegrees>
              <LongitudeDegrees>-3.1730551086366176605224609375</LongitudeDegrees>
            </Position>
            <AltitudeMeters>689.4000244140625</AltitudeMeters>
            <DistanceMeters>11169.931609968</DistanceMeters>
          </Trackpoint>
          <Trackpoint>
            <Time>2021-07-27T09:16:53.000Z</Time>
            <Position>
              <LatitudeDegrees>40.73803533799946308135986328125</LatitudeDegrees>
              <LongitudeDegrees>-3.172938935458660125732421875</LongitudeDegrees>
            </Position>
            <AltitudeMeters>688.4000244140625</AltitudeMeters>
            <DistanceMeters>11200.281303831</DistanceMeters>
          </Trackpoint>
          <Trackpoint>
            <Time>2021-07-27T09:17:06.000Z</Time>
            <Position>
              <LatitudeDegrees>40.738587118685245513916015625</LatitudeDegrees>
              <LongitudeDegrees>-3.1726923398673534393310546875</LongitudeDegrees>
            </Position>
            <AltitudeMeters>689.5999755859375</AltitudeMeters>
            <DistanceMeters>11265.121144444</DistanceMeters>
          </Trackpoint>
          <Trackpoint>
            <Time>2021-07-27T09:17:19.000Z</Time>
            <Position>
              <LatitudeDegrees>40.739120207726955413818359375</LatitudeDegrees>
              <LongitudeDegrees>-3.172449767589569091796875</LongitudeDegrees>
            </Position>
            <AltitudeMeters>688.20001220703125</AltitudeMeters>
            <DistanceMeters>11327.882530546</DistanceMeters>
          </Trackpoint>
          <Trackpoint>
            <Time>2021-07-27T09:17:25.000Z</Time>
            <Position>
              <LatitudeDegrees>40.73936152271926403045654296875</LatitudeDegrees>
              <LongitudeDegrees>-3.17233778536319732666015625</LongitudeDegrees>
            </Position>
            <AltitudeMeters>688.20001220703125</AltitudeMeters>
            <DistanceMeters>11356.353143148</DistanceMeters>
          </Trackpoint>
          <Trackpoint>
            <Time>2021-07-27T09:17:38.000Z</Time>
            <Position>
              <LatitudeDegrees>40.7399099506437778472900390625</LatitudeDegrees>
              <LongitudeDegrees>-3.17209948785603046417236328125</LongitudeDegrees>
            </Position>
            <AltitudeMeters>688.4000244140625</AltitudeMeters>
            <DistanceMeters>11420.617202632</DistanceMeters>
          </Trackpoint>
          <Trackpoint>
            <Time>2021-07-27T09:17:41.000Z</Time>
            <Position>
              <LatitudeDegrees>40.74004716239869594573974609375</LatitudeDegrees>
              <LongitudeDegrees>-3.17203913815319538116455078125</LongitudeDegrees>
            </Position>
            <AltitudeMeters>688.5999755859375</AltitudeMeters>
            <DistanceMeters>11436.714627073</DistanceMeters>
          </Trackpoint>
          <Trackpoint>
            <Time>2021-07-27T09:17:53.000Z</Time>
            <Position>
              <LatitudeDegrees>40.74060657061636447906494140625</LatitudeDegrees>
              <LongitudeDegrees>-3.17181232385337352752685546875</LongitudeDegrees>
            </Position>
            <AltitudeMeters>690.79998779296875</AltitudeMeters>
            <DistanceMeters>11501.849599978</DistanceMeters>
          </Trackpoint>
          <Trackpoint>
            <Time>2021-07-27T09:17:57.000Z</Time>
            <Position>
              <LatitudeDegrees>40.74079357087612152099609375</LatitudeDegrees>
              <LongitudeDegrees>-3.171742670238018035888671875</LongitudeDegrees>
            </Position>
            <AltitudeMeters>691.20001220703125</AltitudeMeters>
            <DistanceMeters>11523.476060145</DistanceMeters>
          </Trackpoint>
          <Trackpoint>
            <Time>2021-07-27T09:18:09.000Z</Time>
            <Position>
              <LatitudeDegrees>40.741333700716495513916015625</LatitudeDegrees>
              <LongitudeDegrees>-3.1715587712824344635009765625</LongitudeDegrees>
            </Position>
            <AltitudeMeters>691</AltitudeMeters>
            <DistanceMeters>11585.561602352</DistanceMeters>
          </Trackpoint>
          <Trackpoint>
            <Time>2021-07-27T09:18:22.000Z</Time>
            <Position>
              <LatitudeDegrees>40.741898976266384124755859375</LatitudeDegrees>
              <LongitudeDegrees>-3.17147972993552684783935546875</LongitudeDegrees>
            </Position>
            <AltitudeMeters>690.4000244140625</AltitudeMeters>
            <DistanceMeters>11648.829986293</DistanceMeters>
          </Trackpoint>
          <Trackpoint>
            <Time>2021-07-27T09:18:35.000Z</Time>
            <Position>
              <LatitudeDegrees>40.74245595373213291168212890625</LatitudeDegrees>
              <LongitudeDegrees>-3.1714685820043087005615234375</LongitudeDegrees>
            </Position>
            <AltitudeMeters>690.4000244140625</AltitudeMeters>
            <DistanceMeters>11710.829947432</DistanceMeters>
          </Trackpoint>
          <Trackpoint>
            <Time>2021-07-27T09:18:46.000Z</Time>
            <Position>
              <LatitudeDegrees>40.742913186550140380859375</LatitudeDegrees>
              <LongitudeDegrees>-3.17153069190680980682373046875</LongitudeDegrees>
            </Position>
            <AltitudeMeters>691.20001220703125</AltitudeMeters>
            <DistanceMeters>11761.989633483</DistanceMeters>
          </Trackpoint>
          <Trackpoint>
            <Time>2021-07-27T09:18:59.000Z</Time>
            <Position>
              <LatitudeDegrees>40.743451304733753204345703125</LatitudeDegrees>
              <LongitudeDegrees>-3.17173160612583160400390625</LongitudeDegrees>
            </Position>
            <AltitudeMeters>691.20001220703125</AltitudeMeters>
            <DistanceMeters>11824.233437093</DistanceMeters>
          </Trackpoint>
          <Trackpoint>
            <Time>2021-07-27T09:19:12.000Z</Time>
            <Position>
              <LatitudeDegrees>40.74398213066160678863525390625</LatitudeDegrees>
              <LongitudeDegrees>-3.17198985256254673004150390625</LongitudeDegrees>
            </Position>
            <AltitudeMeters>691.4000244140625</AltitudeMeters>
            <DistanceMeters>11887.20109518</DistanceMeters>
          </Trackpoint>
          <Trackpoint>
            <Time>2021-07-27T09:19:14.000Z</Time>
            <Position>
              <LatitudeDegrees>40.74406511150300502777099609375</LatitudeDegrees>
              <LongitudeDegrees>-3.1720328517258167266845703125</LongitudeDegrees>
            </Position>
            <AltitudeMeters>691.20001220703125</AltitudeMeters>
            <DistanceMeters>11897.123540618</DistanceMeters>
          </Trackpoint>
          <Trackpoint>
            <Time>2021-07-27T09:19:27.000Z</Time>
            <Position>
              <LatitudeDegrees>40.744599960744380950927734375</LatitudeDegrees>
              <LongitudeDegrees>-3.17232026718556880950927734375</LongitudeDegrees>
            </Position>
            <AltitudeMeters>691</AltitudeMeters>
            <DistanceMeters>11961.397997385</DistanceMeters>
          </Trackpoint>
          <Trackpoint>
            <Time>2021-07-27T09:19:40.000Z</Time>
            <Position>
              <LatitudeDegrees>40.7451251707971096038818359375</LatitudeDegrees>
              <LongitudeDegrees>-3.17262067459523677825927734375</LongitudeDegrees>
            </Position>
            <AltitudeMeters>692.5999755859375</AltitudeMeters>
            <DistanceMeters>12025.107651526</DistanceMeters>
          </Trackpoint>
          <Trackpoint>
            <Time>2021-07-27T09:19:46.000Z</Time>
            <Position>
              <LatitudeDegrees>40.745366401970386505126953125</LatitudeDegrees>
              <LongitudeDegrees>-3.17275847308337688446044921875</LongitudeDegrees>
            </Position>
            <AltitudeMeters>691</AltitudeMeters>
            <DistanceMeters>12054.363844474</DistanceMeters>
          </Trackpoint>
          <Trackpoint>
            <Time>2021-07-27T09:19:59.000Z</Time>
            <Position>
              <LatitudeDegrees>40.7458872534334659576416015625</LatitudeDegrees>
              <LongitudeDegrees>-3.17305603064596652984619140625</LongitudeDegrees>
            </Position>
            <AltitudeMeters>695.20001220703125</AltitudeMeters>
            <DistanceMeters>12117.532669696</DistanceMeters>
          </Trackpoint>
          <Trackpoint>
            <Time>2021-07-27T09:20:12.000Z</Time>
            <Position>
              <LatitudeDegrees>40.7464035786688327789306640625</LatitudeDegrees>
              <LongitudeDegrees>-3.1733504869043827056884765625</LongitudeDegrees>
            </Position>
            <AltitudeMeters>699.79998779296875</AltitudeMeters>
            <DistanceMeters>12180.135227686</DistanceMeters>
          </Trackpoint>
          <Trackpoint>
            <Time>2021-07-27T09:20:21.000Z</Time>
            <Position>
              <LatitudeDegrees>40.746761150658130645751953125</LatitudeDegrees>
              <LongitudeDegrees>-3.1735553406178951263427734375</LongitudeDegrees>
            </Position>
            <AltitudeMeters>701</AltitudeMeters>
            <DistanceMeters>12223.520829038</DistanceMeters>
          </Trackpoint>
          <Trackpoint>
            <Time>2021-07-27T09:20:34.000Z</Time>
            <Position>
              <LatitudeDegrees>40.74728040955960750579833984375</LatitudeDegrees>
              <LongitudeDegrees>-3.17385314963757991790771484375</LongitudeDegrees>
            </Position>
            <AltitudeMeters>702</AltitudeMeters>
            <DistanceMeters>12286.535220846</DistanceMeters>
          </Trackpoint>
          <Trackpoint>
            <Time>2021-07-27T09:20:47.000Z</Time>
            <Position>
              <LatitudeDegrees>40.74778935872018337249755859375</LatitudeDegrees>
              <LongitudeDegrees>-3.17414266057312488555908203125</LongitudeDegrees>
            </Position>
            <AltitudeMeters>699.20001220703125</AltitudeMeters>
            <DistanceMeters>12348.218612207</DistanceMeters>
          </Trackpoint>
          <Trackpoint>
            <Time>2021-07-27T09:20:50.000Z</Time>
            <Position>
              <LatitudeDegrees>40.74790704064071178436279296875</LatitudeDegrees>
              <LongitudeDegrees>-3.174208290874958038330078125</LongitudeDegrees>
            </Position>
            <AltitudeMeters>698</AltitudeMeters>
            <DistanceMeters>12362.437733543</DistanceMeters>
          </Trackpoint>
          <Trackpoint>
            <Time>2021-07-27T09:21:03.000Z</Time>
            <Position>
              <LatitudeDegrees>40.74842487461864948272705078125</LatitudeDegrees>
              <LongitudeDegrees>-3.174504674971103668212890625</LongitudeDegrees>
            </Position>
            <AltitudeMeters>696.5999755859375</AltitudeMeters>
            <DistanceMeters>12425.258657516</DistanceMeters>
          </Trackpoint>
          <Trackpoint>
            <Time>2021-07-27T09:21:16.000Z</Time>
            <Position>
              <LatitudeDegrees>40.74893918819725513458251953125</LatitudeDegrees>
              <LongitudeDegrees>-3.17479628138244152069091796875</LongitudeDegrees>
            </Position>
            <AltitudeMeters>697.5999755859375</AltitudeMeters>
            <DistanceMeters>12487.560102111</DistanceMeters>
          </Trackpoint>
          <Trackpoint>
            <Time>2021-07-27T09:21:24.000Z</Time>
            <Position>
              <LatitudeDegrees>40.7492309622466564178466796875</LatitudeDegrees>
              <LongitudeDegrees>-3.1749661825597286224365234375</LongitudeDegrees>
            </Position>
            <AltitudeMeters>696</AltitudeMeters>
            <DistanceMeters>12523.054583447</DistanceMeters>
          </Trackpoint>
          <Trackpoint>
            <Time>2021-07-27T09:21:30.000Z</Time>
            <Position>
              <LatitudeDegrees>40.7494455389678478240966796875</LatitudeDegrees>
              <LongitudeDegrees>-3.17508730106055736541748046875</LongitudeDegrees>
            </Position>
            <AltitudeMeters>696</AltitudeMeters>
            <DistanceMeters>12549.029228035</DistanceMeters>
          </Trackpoint>
          <Trackpoint>
            <Time>2021-07-27T09:21:41.000Z</Time>
            <Position>
              <LatitudeDegrees>40.749835632741451263427734375</LatitudeDegrees>
              <LongitudeDegrees>-3.17531093023717403411865234375</LongitudeDegrees>
            </Position>
            <AltitudeMeters>695.4000244140625</AltitudeMeters>
            <DistanceMeters>12596.365124018</DistanceMeters>
          </Trackpoint>
          <Trackpoint>
            <Time>2021-07-27T09:21:55.000Z</Time>
            <Position>
              <LatitudeDegrees>40.75032857246696949005126953125</LatitudeDegrees>
              <LongitudeDegrees>-3.1755948252975940704345703125</LongitudeDegrees>
            </Position>
            <AltitudeMeters>698.4000244140625</AltitudeMeters>
            <DistanceMeters>12656.224864357</DistanceMeters>
          </Trackpoint>
          <Trackpoint>
            <Time>2021-07-27T09:22:09.000Z</Time>
            <Position>
              <LatitudeDegrees>40.7508122920989990234375</LatitudeDegrees>
              <LongitudeDegrees>-3.1758841685950756072998046875</LongitudeDegrees>
            </Position>
            <AltitudeMeters>699.5999755859375</AltitudeMeters>
            <DistanceMeters>12715.333543136</DistanceMeters>
          </Trackpoint>
          <Trackpoint>
            <Time>2021-07-27T09:22:18.000Z</Time>
            <Position>
              <LatitudeDegrees>40.75112870894372463226318359375</LatitudeDegrees>
              <LongitudeDegrees>-3.17607301287353038787841796875</LongitudeDegrees>
            </Position>
            <AltitudeMeters>700</AltitudeMeters>
            <DistanceMeters>12753.983607638</DistanceMeters>
          </Trackpoint>
          <Trackpoint>
            <Time>2021-07-27T09:22:32.000Z</Time>
            <Position>
              <LatitudeDegrees>40.751646459102630615234375</LatitudeDegrees>
              <LongitudeDegrees>-3.17633218131959438323974609375</LongitudeDegrees>
            </Position>
            <AltitudeMeters>701</AltitudeMeters>
            <DistanceMeters>12815.614347897</DistanceMeters>
          </Trackpoint>
          <Trackpoint>
            <Time>2021-07-27T09:22:33.000Z</Time>
            <Position>
              <LatitudeDegrees>40.7516835071146488189697265625</LatitudeDegrees>
              <LongitudeDegrees>-3.17635011859238147735595703125</LongitudeDegrees>
            </Position>
            <AltitudeMeters>701</AltitudeMeters>
            <DistanceMeters>12820.006186155</DistanceMeters>
          </Trackpoint>
          <Trackpoint>
            <Time>2021-07-27T09:22:47.000Z</Time>
            <Position>
              <LatitudeDegrees>40.752195306122303009033203125</LatitudeDegrees>
              <LongitudeDegrees>-3.17660811357200145721435546875</LongitudeDegrees>
            </Position>
            <AltitudeMeters>701.79998779296875</AltitudeMeters>
            <DistanceMeters>12880.982541537</DistanceMeters>
          </Trackpoint>
          <Trackpoint>
            <Time>2021-07-27T09:22:51.000Z</Time>
            <Position>
              <LatitudeDegrees>40.75234291143715381622314453125</LatitudeDegrees>
              <LongitudeDegrees>-3.17668296396732330322265625</LongitudeDegrees>
            </Position>
            <AltitudeMeters>702.4000244140625</AltitudeMeters>
            <DistanceMeters>12898.581735326</DistanceMeters>
          </Trackpoint>
          <Trackpoint>
            <Time>2021-07-27T09:23:05.000Z</Time>
            <Position>
              <LatitudeDegrees>40.7528710551559925079345703125</LatitudeDegrees>
              <LongitudeDegrees>-3.1769262067973613739013671875</LongitudeDegrees>
            </Position>
            <AltitudeMeters>704.4000244140625</AltitudeMeters>
            <DistanceMeters>12960.840117357</DistanceMeters>
          </Trackpoint>
          <Trackpoint>
            <Time>2021-07-27T09:23:10.000Z</Time>
            <Position>
              <LatitudeDegrees>40.7530641742050647735595703125</LatitudeDegrees>
              <LongitudeDegrees>-3.177008517086505889892578125</LongitudeDegrees>
            </Position>
            <AltitudeMeters>705</AltitudeMeters>
            <DistanceMeters>12983.427109828</DistanceMeters>
          </Trackpoint>
          <Trackpoint>
            <Time>2021-07-27T09:23:24.000Z</Time>
            <Position>
              <LatitudeDegrees>40.75361494906246662139892578125</LatitudeDegrees>
              <LongitudeDegrees>-3.17723122425377368927001953125</LongitudeDegrees>
            </Position>
            <AltitudeMeters>704.79998779296875</AltitudeMeters>
            <DistanceMeters>13047.540782612</DistanceMeters>
          </Trackpoint>
          <Trackpoint>
            <Time>2021-07-27T09:23:37.000Z</Time>
            <Position>
              <LatitudeDegrees>40.75415675528347492218017578125</LatitudeDegrees>
              <LongitudeDegrees>-3.177424930036067962646484375</LongitudeDegrees>
            </Position>
            <AltitudeMeters>704.20001220703125</AltitudeMeters>
            <DistanceMeters>13110.017288224</DistanceMeters>
          </Trackpoint>
          <Trackpoint>
            <Time>2021-07-27T09:23:49.000Z</Time>
            <Position>
              <LatitudeDegrees>40.754673667252063751220703125</LatitudeDegrees>
              <LongitudeDegrees>-3.17758661694824695587158203125</LongitudeDegrees>
            </Position>
            <AltitudeMeters>704.79998779296875</AltitudeMeters>
            <DistanceMeters>13169.143609391</DistanceMeters>
          </Trackpoint>
          <Trackpoint>
            <Time>2021-07-27T09:24:02.000Z</Time>
            <Position>
              <LatitudeDegrees>40.75524657033383846282958984375</LatitudeDegrees>
              <LongitudeDegrees>-3.17773816175758838653564453125</LongitudeDegrees>
            </Position>
            <AltitudeMeters>705.5999755859375</AltitudeMeters>
            <DistanceMeters>13234.176396451</DistanceMeters>
          </Trackpoint>
          <Trackpoint>
            <Time>2021-07-27T09:24:15.000Z</Time>
            <Position>
              <LatitudeDegrees>40.75582425110042095184326171875</LatitudeDegrees>
              <LongitudeDegrees>-3.177860118448734283447265625</LongitudeDegrees>
            </Position>
            <AltitudeMeters>708.4000244140625</AltitudeMeters>
            <DistanceMeters>13299.290362558</DistanceMeters>
          </Trackpoint>
          <Trackpoint>
            <Time>2021-07-27T09:24:27.000Z</Time>
            <Position>
              <LatitudeDegrees>40.75637594796717166900634765625</LatitudeDegrees>
              <LongitudeDegrees>-3.177938573062419891357421875</LongitudeDegrees>
            </Position>
            <AltitudeMeters>706.20001220703125</AltitudeMeters>
            <DistanceMeters>13361.050562931</DistanceMeters>
          </Trackpoint>
          <Trackpoint>
            <Time>2021-07-27T09:24:39.000Z</Time>
            <Position>
              <LatitudeDegrees>40.75694491155445575714111328125</LatitudeDegrees>
              <LongitudeDegrees>-3.17798173986375331878662109375</LongitudeDegrees>
            </Position>
            <AltitudeMeters>705.20001220703125</AltitudeMeters>
            <DistanceMeters>13424.481873505</DistanceMeters>
          </Trackpoint>
          <Trackpoint>
            <Time>2021-07-27T09:24:48.000Z</Time>
            <Position>
              <LatitudeDegrees>40.7573687843978404998779296875</LatitudeDegrees>
              <LongitudeDegrees>-3.17797134630382061004638671875</LongitudeDegrees>
            </Position>
            <AltitudeMeters>704</AltitudeMeters>
            <DistanceMeters>13471.667780601</DistanceMeters>
          </Trackpoint>
          <Trackpoint>
            <Time>2021-07-27T09:25:00.000Z</Time>
            <Position>
              <LatitudeDegrees>40.7579126022756099700927734375</LatitudeDegrees>
              <LongitudeDegrees>-3.17793563939630985260009765625</LongitudeDegrees>
            </Position>
            <AltitudeMeters>704.4000244140625</AltitudeMeters>
            <DistanceMeters>13532.270541522</DistanceMeters>
          </Trackpoint>
          <Trackpoint>
            <Time>2021-07-27T09:25:13.000Z</Time>
            <Position>
              <LatitudeDegrees>40.75847963802516460418701171875</LatitudeDegrees>
              <LongitudeDegrees>-3.1778733618557453155517578125</LongitudeDegrees>
            </Position>
            <AltitudeMeters>704.79998779296875</AltitudeMeters>
            <DistanceMeters>13595.600767186</DistanceMeters>
          </Trackpoint>
          <Trackpoint>
            <Time>2021-07-27T09:25:16.000Z</Time>
            <Position>
              <LatitudeDegrees>40.75860788114368915557861328125</LatitudeDegrees>
              <LongitudeDegrees>-3.17785508930683135986328125</LongitudeDegrees>
            </Position>
            <AltitudeMeters>704</AltitudeMeters>
            <DistanceMeters>13609.957350862</DistanceMeters>
          </Trackpoint>
          <Trackpoint>
            <Time>2021-07-27T09:25:24.000Z</Time>
            <Position>
              <LatitudeDegrees>40.75893091969192028045654296875</LatitudeDegrees>
              <LongitudeDegrees>-3.17779666744172573089599609375</LongitudeDegrees>
            </Position>
            <AltitudeMeters>704.79998779296875</AltitudeMeters>
            <DistanceMeters>13646.247852774</DistanceMeters>
          </Trackpoint>
          <Trackpoint>
            <Time>2021-07-27T09:25:38.000Z</Time>
            <Position>
              <LatitudeDegrees>40.7594904117286205291748046875</LatitudeDegrees>
              <LongitudeDegrees>-3.17768921144306659698486328125</LongitudeDegrees>
            </Position>
            <AltitudeMeters>708</AltitudeMeters>
            <DistanceMeters>13709.175989509</DistanceMeters>
          </Trackpoint>
          <Trackpoint>
            <Time>2021-07-27T09:25:39.000Z</Time>
            <Position>
              <LatitudeDegrees>40.7595299743115901947021484375</LatitudeDegrees>
              <LongitudeDegrees>-3.17767714150249958038330078125</LongitudeDegrees>
            </Position>
            <AltitudeMeters>708</AltitudeMeters>
            <DistanceMeters>13713.695506399</DistanceMeters>
          </Trackpoint>
          <Trackpoint>
            <Time>2021-07-27T09:25:44.000Z</Time>
            <Position>
              <LatitudeDegrees>40.75972820632159709930419921875</LatitudeDegrees>
              <LongitudeDegrees>-3.17760170437395572662353515625</LongitudeDegrees>
            </Position>
            <AltitudeMeters>707</AltitudeMeters>
            <DistanceMeters>13736.657390106</DistanceMeters>
          </Trackpoint>
          <Trackpoint>
            <Time>2021-07-27T09:25:48.000Z</Time>
            <Position>
              <LatitudeDegrees>40.7598781585693359375</LatitudeDegrees>
              <LongitudeDegrees>-3.1774834357202053070068359375</LongitudeDegrees>
            </Position>
            <AltitudeMeters>706.20001220703125</AltitudeMeters>
            <DistanceMeters>13756.098657545</DistanceMeters>
          </Trackpoint>
          <Trackpoint>
            <Time>2021-07-27T09:25:53.000Z</Time>
            <Position>
              <LatitudeDegrees>40.760093070566654205322265625</LatitudeDegrees>
              <LongitudeDegrees>-3.177412860095500946044921875</LongitudeDegrees>
            </Position>
            <AltitudeMeters>706</AltitudeMeters>
            <DistanceMeters>13780.747422287</DistanceMeters>
          </Trackpoint>
          <Trackpoint>
            <Time>2021-07-27T09:26:06.000Z</Time>
            <Position>
              <LatitudeDegrees>40.76063454151153564453125</LatitudeDegrees>
              <LongitudeDegrees>-3.17721077241003513336181640625</LongitudeDegrees>
            </Position>
            <AltitudeMeters>707.4000244140625</AltitudeMeters>
            <DistanceMeters>13843.376011003</DistanceMeters>
          </Trackpoint>
          <Trackpoint>
            <Time>2021-07-27T09:26:19.000Z</Time>
            <Position>
              <LatitudeDegrees>40.76117106713354587554931640625</LatitudeDegrees>
              <LongitudeDegrees>-3.1769168190658092498779296875</LongitudeDegrees>
            </Position>
            <AltitudeMeters>709</AltitudeMeters>
            <DistanceMeters>13908.030220976</DistanceMeters>
          </Trackpoint>
          <Trackpoint>
            <Time>2021-07-27T09:26:32.000Z</Time>
            <Position>
              <LatitudeDegrees>40.76169946230947971343994140625</LatitudeDegrees>
              <LongitudeDegrees>-3.17662135697901248931884765625</LongitudeDegrees>
            </Position>
            <AltitudeMeters>708.20001220703125</AltitudeMeters>
            <DistanceMeters>13971.899060582</DistanceMeters>
          </Trackpoint>
          <Trackpoint>
            <Time>2021-07-27T09:26:44.000Z</Time>
            <Position>
              <LatitudeDegrees>40.76218930073082447052001953125</LatitudeDegrees>
              <LongitudeDegrees>-3.17632061429321765899658203125</LongitudeDegrees>
            </Position>
            <AltitudeMeters>707.20001220703125</AltitudeMeters>
            <DistanceMeters>14032.025970405</DistanceMeters>
          </Trackpoint>
          <Trackpoint>
            <Time>2021-07-27T09:26:56.000Z</Time>
            <Position>
              <LatitudeDegrees>40.76267695985734462738037109375</LatitudeDegrees>
              <LongitudeDegrees>-3.176003359258174896240234375</LongitudeDegrees>
            </Position>
            <AltitudeMeters>706.4000244140625</AltitudeMeters>
            <DistanceMeters>14092.535084224</DistanceMeters>
          </Trackpoint>
          <Trackpoint>
            <Time>2021-07-27T09:27:08.000Z</Time>
            <Position>
              <LatitudeDegrees>40.76316746883094310760498046875</LatitudeDegrees>
              <LongitudeDegrees>-3.1756662391126155853271484375</LongitudeDegrees>
            </Position>
            <AltitudeMeters>707</AltitudeMeters>
            <DistanceMeters>14154.083939205</DistanceMeters>
          </Trackpoint>
          <Trackpoint>
            <Time>2021-07-27T09:27:20.000Z</Time>
            <Position>
              <LatitudeDegrees>40.76364289037883281707763671875</LatitudeDegrees>
              <LongitudeDegrees>-3.17532308399677276611328125</LongitudeDegrees>
            </Position>
            <AltitudeMeters>707</AltitudeMeters>
            <DistanceMeters>14214.390650342</DistanceMeters>
          </Trackpoint>
          <Trackpoint>
            <Time>2021-07-27T09:27:32.000Z</Time>
            <Position>
              <LatitudeDegrees>40.7641200721263885498046875</LatitudeDegrees>
              <LongitudeDegrees>-3.17496375180780887603759765625</LongitudeDegrees>
            </Position>
            <AltitudeMeters>707.79998779296875</AltitudeMeters>
            <DistanceMeters>14275.533233927</DistanceMeters>
          </Trackpoint>
          <Trackpoint>
            <Time>2021-07-27T09:27:44.000Z</Time>
            <Position>
              <LatitudeDegrees>40.7646114192903041839599609375</LatitudeDegrees>
              <LongitudeDegrees>-3.17458103410899639129638671875</LongitudeDegrees>
            </Position>
            <AltitudeMeters>708</AltitudeMeters>
            <DistanceMeters>14339.028787474</DistanceMeters>
          </Trackpoint>
          <Trackpoint>
            <Time>2021-07-27T09:27:56.000Z</Time>
            <Position>
              <LatitudeDegrees>40.7650955580174922943115234375</LatitudeDegrees>
              <LongitudeDegrees>-3.1741947121918201446533203125</LongitudeDegrees>
            </Position>
            <AltitudeMeters>707.4000244140625</AltitudeMeters>
            <DistanceMeters>14401.991139236</DistanceMeters>
          </Trackpoint>
          <Trackpoint>
            <Time>2021-07-27T09:28:08.000Z</Time>
            <Position>
              <LatitudeDegrees>40.76557978056371212005615234375</LatitudeDegrees>
              <LongitudeDegrees>-3.173797912895679473876953125</LongitudeDegrees>
            </Position>
            <AltitudeMeters>706.79998779296875</AltitudeMeters>
            <DistanceMeters>14465.42259217</DistanceMeters>
          </Trackpoint>
          <Trackpoint>
            <Time>2021-07-27T09:28:20.000Z</Time>
            <Position>
              <LatitudeDegrees>40.76605863869190216064453125</LatitudeDegrees>
              <LongitudeDegrees>-3.1734074838459491729736328125</LongitudeDegrees>
            </Position>
            <AltitudeMeters>710</AltitudeMeters>
            <DistanceMeters>14528.063579532</DistanceMeters>
          </Trackpoint>
          <Trackpoint>
            <Time>2021-07-27T09:28:32.000Z</Time>
            <Position>
              <LatitudeDegrees>40.76653129421174526214599609375</LatitudeDegrees>
              <LongitudeDegrees>-3.17301965318620204925537109375</LongitudeDegrees>
            </Position>
            <AltitudeMeters>710.20001220703125</AltitudeMeters>
            <DistanceMeters>14590.00219315</DistanceMeters>
          </Trackpoint>
          <Trackpoint>
            <Time>2021-07-27T09:28:44.000Z</Time>
            <Position>
              <LatitudeDegrees>40.76700101606547832489013671875</LatitudeDegrees>
              <LongitudeDegrees>-3.17263458855450153350830078125</LongitudeDegrees>
            </Position>
            <AltitudeMeters>710.79998779296875</AltitudeMeters>
            <DistanceMeters>14651.54026371</DistanceMeters>
          </Trackpoint>
          <Trackpoint>
            <Time>2021-07-27T09:28:57.000Z</Time>
            <Position>
              <LatitudeDegrees>40.7674911059439182281494140625</LatitudeDegrees>
              <LongitudeDegrees>-3.172233514487743377685546875</LongitudeDegrees>
            </Position>
            <AltitudeMeters>706.5999755859375</AltitudeMeters>
            <DistanceMeters>14715.716159695</DistanceMeters>
          </Trackpoint>
          <Trackpoint>
            <Time>2021-07-27T09:29:10.000Z</Time>
            <Position>
              <LatitudeDegrees>40.76797113753855228424072265625</LatitudeDegrees>
              <LongitudeDegrees>-3.17183881066739559173583984375</LongitudeDegrees>
            </Position>
            <AltitudeMeters>707.79998779296875</AltitudeMeters>
            <DistanceMeters>14778.657640351</DistanceMeters>
          </Trackpoint>
          <Trackpoint>
            <Time>2021-07-27T09:29:23.000Z</Time>
            <Position>
              <LatitudeDegrees>40.7684479840099811553955078125</LatitudeDegrees>
              <LongitudeDegrees>-3.17144670523703098297119140625</LongitudeDegrees>
            </Position>
            <AltitudeMeters>708.79998779296875</AltitudeMeters>
            <DistanceMeters>14841.18232999</DistanceMeters>
          </Trackpoint>
          <Trackpoint>
            <Time>2021-07-27T09:29:36.000Z</Time>
            <Position>
              <LatitudeDegrees>40.7689552567899227142333984375</LatitudeDegrees>
              <LongitudeDegrees>-3.1710696034133434295654296875</LongitudeDegrees>
            </Position>
            <AltitudeMeters>704.20001220703125</AltitudeMeters>
            <DistanceMeters>14905.976196059</DistanceMeters>
          </Trackpoint>
          <Trackpoint>
            <Time>2021-07-27T09:29:48.000Z</Time>
            <Position>
              <LatitudeDegrees>40.769477449357509613037109375</LatitudeDegrees>
              <LongitudeDegrees>-3.17073826678097248077392578125</LongitudeDegrees>
            </Position>
            <AltitudeMeters>704.79998779296875</AltitudeMeters>
            <DistanceMeters>14970.459786845</DistanceMeters>
          </Trackpoint>
          <Trackpoint>
            <Time>2021-07-27T09:30:00.000Z</Time>
            <Position>
              <LatitudeDegrees>40.7700076885521411895751953125</LatitudeDegrees>
              <LongitudeDegrees>-3.17048043943941593170166015625</LongitudeDegrees>
            </Position>
            <AltitudeMeters>707.5999755859375</AltitudeMeters>
            <DistanceMeters>15033.350890139</DistanceMeters>
          </Trackpoint>
          <Trackpoint>
            <Time>2021-07-27T09:30:12.000Z</Time>
            <Position>
              <LatitudeDegrees>40.77053281478583812713623046875</LatitudeDegrees>
              <LongitudeDegrees>-3.17031498067080974578857421875</LongitudeDegrees>
            </Position>
            <AltitudeMeters>707.79998779296875</AltitudeMeters>
            <DistanceMeters>15093.439415797</DistanceMeters>
          </Trackpoint>
          <Trackpoint>
            <Time>2021-07-27T09:30:25.000Z</Time>
            <Position>
              <LatitudeDegrees>40.771085433661937713623046875</LatitudeDegrees>
              <LongitudeDegrees>-3.17024054937064647674560546875</LongitudeDegrees>
            </Position>
            <AltitudeMeters>707</AltitudeMeters>
            <DistanceMeters>15155.266106794</DistanceMeters>
          </Trackpoint>
          <Trackpoint>
            <Time>2021-07-27T09:30:27.000Z</Time>
            <Position>
              <LatitudeDegrees>40.7711687497794628143310546875</LatitudeDegrees>
              <LongitudeDegrees>-3.1702273897826671600341796875</LongitudeDegrees>
            </Position>
            <AltitudeMeters>707</AltitudeMeters>
            <DistanceMeters>15164.605835829</DistanceMeters>
          </Trackpoint>
          <Trackpoint>
            <Time>2021-07-27T09:30:32.000Z</Time>
            <Position>
              <LatitudeDegrees>40.7713459432125091552734375</LatitudeDegrees>
              <LongitudeDegrees>-3.17009135149419307708740234375</LongitudeDegrees>
            </Position>
            <AltitudeMeters>707.20001220703125</AltitudeMeters>
            <DistanceMeters>15187.419373168</DistanceMeters>
          </Trackpoint>
          <Trackpoint>
            <Time>2021-07-27T09:30:33.000Z</Time>
            <Position>
              <LatitudeDegrees>40.77137905173003673553466796875</LatitudeDegrees>
              <LongitudeDegrees>-3.1700587458908557891845703125</LongitudeDegrees>
            </Position>
            <AltitudeMeters>707.20001220703125</AltitudeMeters>
            <DistanceMeters>15192.016152353</DistanceMeters>
          </Trackpoint>
          <Trackpoint>
            <Time>2021-07-27T09:30:44.000Z</Time>
            <Position>
              <LatitudeDegrees>40.77177308499813079833984375</LatitudeDegrees>
              <LongitudeDegrees>-3.17018841393291950225830078125</LongitudeDegrees>
            </Position>
            <AltitudeMeters>708.79998779296875</AltitudeMeters>
            <DistanceMeters>15237.214318178</DistanceMeters>
          </Trackpoint>
          <Trackpoint>
            <Time>2021-07-27T09:30:47.000Z</Time>
            <Position>
              <LatitudeDegrees>40.77186536975204944610595703125</LatitudeDegrees>
              <LongitudeDegrees>-3.17029402591288089752197265625</LongitudeDegrees>
            </Position>
            <AltitudeMeters>708.20001220703125</AltitudeMeters>
            <DistanceMeters>15250.806460539</DistanceMeters>
          </Trackpoint>
          <Trackpoint>
            <Time>2021-07-27T09:30:51.000Z</Time>
            <Position>
              <LatitudeDegrees>40.7720169983804225921630859375</LatitudeDegrees>
              <LongitudeDegrees>-3.17036367952823638916015625</LongitudeDegrees>
            </Position>
            <AltitudeMeters>708.20001220703125</AltitudeMeters>
            <DistanceMeters>15268.675020719</DistanceMeters>
          </Trackpoint>
          <Trackpoint>
            <Time>2021-07-27T09:31:03.000Z</Time>
            <Position>
              <LatitudeDegrees>40.77246987260878086090087890625</LatitudeDegrees>
              <LongitudeDegrees>-3.170502148568630218505859375</LongitudeDegrees>
            </Position>
            <AltitudeMeters>708.20001220703125</AltitudeMeters>
            <DistanceMeters>15320.414514261</DistanceMeters>
          </Trackpoint>
          <Trackpoint>
            <Time>2021-07-27T09:31:18.000Z</Time>
            <Position>
              <LatitudeDegrees>40.7730067335069179534912109375</LatitudeDegrees>
              <LongitudeDegrees>-3.1707326509058475494384765625</LongitudeDegrees>
            </Position>
            <AltitudeMeters>709.5999755859375</AltitudeMeters>
            <DistanceMeters>15383.247511496</DistanceMeters>
          </Trackpoint>
          <Trackpoint>
            <Time>2021-07-27T09:31:28.000Z</Time>
            <Position>
              <LatitudeDegrees>40.77335818670690059661865234375</LatitudeDegrees>
              <LongitudeDegrees>-3.17091277800500392913818359375</LongitudeDegrees>
            </Position>
            <AltitudeMeters>709.79998779296875</AltitudeMeters>
            <DistanceMeters>15425.208235575</DistanceMeters>
          </Trackpoint>
          <Trackpoint>
            <Time>2021-07-27T09:31:43.000Z</Time>
            <Position>
              <LatitudeDegrees>40.77388591133058071136474609375</LatitudeDegrees>
              <LongitudeDegrees>-3.17121569998562335968017578125</LongitudeDegrees>
            </Position>
            <AltitudeMeters>709.20001220703125</AltitudeMeters>
            <DistanceMeters>15489.254690161</DistanceMeters>
          </Trackpoint>
          <Trackpoint>
            <Time>2021-07-27T09:31:57.000Z</Time>
            <Position>
              <LatitudeDegrees>40.77437491156160831451416015625</LatitudeDegrees>
              <LongitudeDegrees>-3.17152046598494052886962890625</LongitudeDegrees>
            </Position>
            <AltitudeMeters>709.79998779296875</AltitudeMeters>
            <DistanceMeters>15549.439017799</DistanceMeters>
          </Trackpoint>
          <Trackpoint>
            <Time>2021-07-27T09:32:01.000Z</Time>
            <Position>
              <LatitudeDegrees>40.7745107822120189666748046875</LatitudeDegrees>
              <LongitudeDegrees>-3.17160763777792453765869140625</LongitudeDegrees>
            </Position>
            <AltitudeMeters>710</AltitudeMeters>
            <DistanceMeters>15566.252571057</DistanceMeters>
          </Trackpoint>
          <Trackpoint>
            <Time>2021-07-27T09:32:16.000Z</Time>
            <Position>
              <LatitudeDegrees>40.77501118183135986328125</LatitudeDegrees>
              <LongitudeDegrees>-3.1719621084630489349365234375</LongitudeDegrees>
            </Position>
            <AltitudeMeters>712</AltitudeMeters>
            <DistanceMeters>15629.45569532</DistanceMeters>
          </Trackpoint>
          <Trackpoint>
            <Time>2021-07-27T09:32:30.000Z</Time>
            <Position>
              <LatitudeDegrees>40.77548392117023468017578125</LatitudeDegrees>
              <LongitudeDegrees>-3.172317333519458770751953125</LongitudeDegrees>
            </Position>
            <AltitudeMeters>712.20001220703125</AltitudeMeters>
            <DistanceMeters>15689.994648777</DistanceMeters>
          </Trackpoint>
          <Trackpoint>
            <Time>2021-07-27T09:32:33.000Z</Time>
            <Position>
              <LatitudeDegrees>40.7755838334560394287109375</LatitudeDegrees>
              <LongitudeDegrees>-3.1723921000957489013671875</LongitudeDegrees>
            </Position>
            <AltitudeMeters>712.79998779296875</AltitudeMeters>
            <DistanceMeters>15702.776713286</DistanceMeters>
          </Trackpoint>
          <Trackpoint>
            <Time>2021-07-27T09:32:48.000Z</Time>
            <Position>
              <LatitudeDegrees>40.77608196996152400970458984375</LatitudeDegrees>
              <LongitudeDegrees>-3.17277054302394390106201171875</LongitudeDegrees>
            </Position>
            <AltitudeMeters>716.5999755859375</AltitudeMeters>
            <DistanceMeters>15766.741057541</DistanceMeters>
          </Trackpoint>
          <Trackpoint>
            <Time>2021-07-27T09:32:59.000Z</Time>
            <Position>
              <LatitudeDegrees>40.7764339260756969451904296875</LatitudeDegrees>
              <LongitudeDegrees>-3.1730359978973865509033203125</LongitudeDegrees>
            </Position>
            <AltitudeMeters>717.79998779296875</AltitudeMeters>
            <DistanceMeters>15811.853632822</DistanceMeters>
          </Trackpoint>
          <Trackpoint>
            <Time>2021-07-27T09:33:13.000Z</Time>
            <Position>
              <LatitudeDegrees>40.77687598764896392822265625</LatitudeDegrees>
              <LongitudeDegrees>-3.17336716689169406890869140625</LongitudeDegrees>
            </Position>
            <AltitudeMeters>717</AltitudeMeters>
            <DistanceMeters>15868.421911294</DistanceMeters>
          </Trackpoint>
          <Trackpoint>
            <Time>2021-07-27T09:33:17.000Z</Time>
            <Position>
              <LatitudeDegrees>40.777003057301044464111328125</LatitudeDegrees>
              <LongitudeDegrees>-3.1734577752649784088134765625</LongitudeDegrees>
            </Position>
            <AltitudeMeters>715.5999755859375</AltitudeMeters>
            <DistanceMeters>15884.494915276</DistanceMeters>
          </Trackpoint>
          <Trackpoint>
            <Time>2021-07-27T09:33:32.000Z</Time>
            <Position>
              <LatitudeDegrees>40.77749767340719699859619140625</LatitudeDegrees>
              <LongitudeDegrees>-3.17375860176980495452880859375</LongitudeDegrees>
            </Position>
            <AltitudeMeters>715.79998779296875</AltitudeMeters>
            <DistanceMeters>15945.104827984</DistanceMeters>
          </Trackpoint>
          <Trackpoint>
            <Time>2021-07-27T09:33:36.000Z</Time>
            <Position>
              <LatitudeDegrees>40.77763061039149761199951171875</LatitudeDegrees>
              <LongitudeDegrees>-3.17382381297647953033447265625</LongitudeDegrees>
            </Position>
            <AltitudeMeters>715.79998779296875</AltitudeMeters>
            <DistanceMeters>15960.88870517</DistanceMeters>
          </Trackpoint>
          <Trackpoint>
            <Time>2021-07-27T09:33:51.000Z</Time>
            <Position>
              <LatitudeDegrees>40.77815003693103790283203125</LatitudeDegrees>
              <LongitudeDegrees>-3.1740344502031803131103515625</LongitudeDegrees>
            </Position>
            <AltitudeMeters>715</AltitudeMeters>
            <DistanceMeters>16021.36632221</DistanceMeters>
          </Trackpoint>
          <Trackpoint>
            <Time>2021-07-27T09:33:58.000Z</Time>
            <Position>
              <LatitudeDegrees>40.77839386649429798126220703125</LatitudeDegrees>
              <LongitudeDegrees>-3.17412354983389377593994140625</LongitudeDegrees>
            </Position>
            <AltitudeMeters>716</AltitudeMeters>
            <DistanceMeters>16049.524711586</DistanceMeters>
          </Trackpoint>
          <Trackpoint>
            <Time>2021-07-27T09:34:13.000Z</Time>
            <Position>
              <LatitudeDegrees>40.77892041765153408050537109375</LatitudeDegrees>
              <LongitudeDegrees>-3.17432262003421783447265625</LongitudeDegrees>
            </Position>
            <AltitudeMeters>717</AltitudeMeters>
            <DistanceMeters>16110.485219124</DistanceMeters>
          </Trackpoint>
          <Trackpoint>
            <Time>2021-07-27T09:34:15.000Z</Time>
            <Position>
              <LatitudeDegrees>40.77898998744785785675048828125</LatitudeDegrees>
              <LongitudeDegrees>-3.174351118505001068115234375</LongitudeDegrees>
            </Position>
            <AltitudeMeters>716.79998779296875</AltitudeMeters>
            <DistanceMeters>16118.592061688</DistanceMeters>
          </Trackpoint>
          <Trackpoint>
            <Time>2021-07-27T09:34:30.000Z</Time>
            <Position>
              <LatitudeDegrees>40.77951502986252307891845703125</LatitudeDegrees>
              <LongitudeDegrees>-3.17454163916409015655517578125</LongitudeDegrees>
            </Position>
            <AltitudeMeters>715</AltitudeMeters>
            <DistanceMeters>16179.196238134</DistanceMeters>
          </Trackpoint>
          <Trackpoint>
            <Time>2021-07-27T09:34:32.000Z</Time>
            <Position>
              <LatitudeDegrees>40.77958577312529087066650390625</LatitudeDegrees>
              <LongitudeDegrees>-3.1745655275881290435791015625</LongitudeDegrees>
            </Position>
            <AltitudeMeters>715.5999755859375</AltitudeMeters>
            <DistanceMeters>16187.324216927</DistanceMeters>
          </Trackpoint>
          <Trackpoint>
            <Time>2021-07-27T09:34:42.000Z</Time>
            <Position>
              <LatitudeDegrees>40.7799611985683441162109375</LatitudeDegrees>
              <LongitudeDegrees>-3.17466317676007747650146484375</LongitudeDegrees>
            </Position>
            <AltitudeMeters>718.4000244140625</AltitudeMeters>
            <DistanceMeters>16229.912514549</DistanceMeters>
          </Trackpoint>
          <Trackpoint>
            <Time>2021-07-27T09:34:56.000Z</Time>
            <Position>
              <LatitudeDegrees>40.78053452074527740478515625</LatitudeDegrees>
              <LongitudeDegrees>-3.17472788505256175994873046875</LongitudeDegrees>
            </Position>
            <AltitudeMeters>720</AltitudeMeters>
            <DistanceMeters>16293.956995208</DistanceMeters>
          </Trackpoint>
          <Trackpoint>
            <Time>2021-07-27T09:35:10.000Z</Time>
            <Position>
              <LatitudeDegrees>40.7811016403138637542724609375</LatitudeDegrees>
              <LongitudeDegrees>-3.17475554533302783966064453125</LongitudeDegrees>
            </Position>
            <AltitudeMeters>719.4000244140625</AltitudeMeters>
            <DistanceMeters>16357.12153174</DistanceMeters>
          </Trackpoint>
          <Trackpoint>
            <Time>2021-07-27T09:35:24.000Z</Time>
            <Position>
              <LatitudeDegrees>40.781652666628360748291015625</LatitudeDegrees>
              <LongitudeDegrees>-3.17475655116140842437744140625</LongitudeDegrees>
            </Position>
            <AltitudeMeters>719.5999755859375</AltitudeMeters>
            <DistanceMeters>16418.451908652</DistanceMeters>
          </Trackpoint>
          <Trackpoint>
            <Time>2021-07-27T09:35:40.000Z</Time>
            <Position>
              <LatitudeDegrees>40.7822264917194843292236328125</LatitudeDegrees>
              <LongitudeDegrees>-3.17473241128027439117431640625</LongitudeDegrees>
            </Position>
            <AltitudeMeters>720</AltitudeMeters>
            <DistanceMeters>16482.352127953</DistanceMeters>
          </Trackpoint>
          <Trackpoint>
            <Time>2021-07-27T09:35:41.000Z</Time>
            <Position>
              <LatitudeDegrees>40.78226110897958278656005859375</LatitudeDegrees>
              <LongitudeDegrees>-3.17472939379513263702392578125</LongitudeDegrees>
            </Position>
            <AltitudeMeters>720.20001220703125</AltitudeMeters>
            <DistanceMeters>16486.214470025</DistanceMeters>
          </Trackpoint>
          <Trackpoint>
            <Time>2021-07-27T09:35:57.000Z</Time>
            <Position>
              <LatitudeDegrees>40.78282437287271022796630859375</LatitudeDegrees>
              <LongitudeDegrees>-3.17467407323420047760009765625</LongitudeDegrees>
            </Position>
            <AltitudeMeters>723</AltitudeMeters>
            <DistanceMeters>16549.079938577</DistanceMeters>
          </Trackpoint>
          <Trackpoint>
            <Time>2021-07-27T09:36:12.000Z</Time>
            <Position>
              <LatitudeDegrees>40.7833620719611644744873046875</LatitudeDegrees>
              <LongitudeDegrees>-3.174591846764087677001953125</LongitudeDegrees>
            </Position>
            <AltitudeMeters>722.4000244140625</AltitudeMeters>
            <DistanceMeters>16609.326800545</DistanceMeters>
          </Trackpoint>
          <Trackpoint>
            <Time>2021-07-27T09:36:17.000Z</Time>
            <Position>
              <LatitudeDegrees>40.78354119323194026947021484375</LatitudeDegrees>
              <LongitudeDegrees>-3.17455689422786235809326171875</LongitudeDegrees>
            </Position>
            <AltitudeMeters>722.79998779296875</AltitudeMeters>
            <DistanceMeters>16629.479858582</DistanceMeters>
          </Trackpoint>
          <Trackpoint>
            <Time>2021-07-27T09:36:32.000Z</Time>
            <Position>
              <LatitudeDegrees>40.78408702276647090911865234375</LatitudeDegrees>
              <LongitudeDegrees>-3.17446318455040454864501953125</LongitudeDegrees>
            </Position>
            <AltitudeMeters>723</AltitudeMeters>
            <DistanceMeters>16690.742985113</DistanceMeters>
          </Trackpoint>
          <Trackpoint>
            <Time>2021-07-27T09:36:35.000Z</Time>
            <Position>
              <LatitudeDegrees>40.7841964066028594970703125</LatitudeDegrees>
              <LongitudeDegrees>-3.174451030790805816650390625</LongitudeDegrees>
            </Position>
            <AltitudeMeters>722.5999755859375</AltitudeMeters>
            <DistanceMeters>16702.960479276</DistanceMeters>
          </Trackpoint>
          <Trackpoint>
            <Time>2021-07-27T09:36:36.000Z</Time>
            <Position>
              <LatitudeDegrees>40.78423286788165569305419921875</LatitudeDegrees>
              <LongitudeDegrees>-3.17444658838212490081787109375</LongitudeDegrees>
            </Position>
            <AltitudeMeters>722.4000244140625</AltitudeMeters>
            <DistanceMeters>16707.036671207</DistanceMeters>
          </Trackpoint>
          <Trackpoint>
            <Time>2021-07-27T09:36:51.000Z</Time>
            <Position>
              <LatitudeDegrees>40.78477383591234683990478515625</LatitudeDegrees>
              <LongitudeDegrees>-3.17443183623254299163818359375</LongitudeDegrees>
            </Position>
            <AltitudeMeters>726.20001220703125</AltitudeMeters>
            <DistanceMeters>16767.260296582</DistanceMeters>
          </Trackpoint>
          <Trackpoint>
            <Time>2021-07-27T09:36:52.000Z</Time>
            <Position>
              <LatitudeDegrees>40.78481121920049190521240234375</LatitudeDegrees>
              <LongitudeDegrees>-3.17443435080349445343017578125</LongitudeDegrees>
            </Position>
            <AltitudeMeters>726.5999755859375</AltitudeMeters>
            <DistanceMeters>16771.426326698</DistanceMeters>
          </Trackpoint>
          <Trackpoint>
            <Time>2021-07-27T09:37:07.000Z</Time>
            <Position>
              <LatitudeDegrees>40.78538672067224979400634765625</LatitudeDegrees>
              <LongitudeDegrees>-3.17450107075273990631103515625</LongitudeDegrees>
            </Position>
            <AltitudeMeters>726.4000244140625</AltitudeMeters>
            <DistanceMeters>16835.727050187</DistanceMeters>
          </Trackpoint>
          <Trackpoint>
            <Time>2021-07-27T09:37:21.000Z</Time>
            <Position>
              <LatitudeDegrees>40.78592517413198947906494140625</LatitudeDegrees>
              <LongitudeDegrees>-3.17460182122886180877685546875</LongitudeDegrees>
            </Position>
            <AltitudeMeters>725</AltitudeMeters>
            <DistanceMeters>16896.256456561</DistanceMeters>
          </Trackpoint>
          <Trackpoint>
            <Time>2021-07-27T09:37:36.000Z</Time>
            <Position>
              <LatitudeDegrees>40.78648609109222888946533203125</LatitudeDegrees>
              <LongitudeDegrees>-3.1747123785316944122314453125</LongitudeDegrees>
            </Position>
            <AltitudeMeters>727.79998779296875</AltitudeMeters>
            <DistanceMeters>16959.378948514</DistanceMeters>
          </Trackpoint>
          <Trackpoint>
            <Time>2021-07-27T09:37:48.000Z</Time>
            <Position>
              <LatitudeDegrees>40.78693703748285770416259765625</LatitudeDegrees>
              <LongitudeDegrees>-3.17479527555406093597412109375</LongitudeDegrees>
            </Position>
            <AltitudeMeters>726.79998779296875</AltitudeMeters>
            <DistanceMeters>17010.053943126</DistanceMeters>
          </Trackpoint>
          <Trackpoint>
            <Time>2021-07-27T09:38:03.000Z</Time>
            <Position>
              <LatitudeDegrees>40.78749292530119419097900390625</LatitudeDegrees>
              <LongitudeDegrees>-3.17489837296307086944580078125</LongitudeDegrees>
            </Position>
            <AltitudeMeters>726</AltitudeMeters>
            <DistanceMeters>17072.532399938</DistanceMeters>
          </Trackpoint>
          <Trackpoint>
            <Time>2021-07-27T09:38:18.000Z</Time>
            <Position>
              <LatitudeDegrees>40.7880458794534206390380859375</LatitudeDegrees>
              <LongitudeDegrees>-3.17499719560146331787109375</LongitudeDegrees>
            </Position>
            <AltitudeMeters>728.5999755859375</AltitudeMeters>
            <DistanceMeters>17134.63815581</DistanceMeters>
          </Trackpoint>
          <Trackpoint>
            <Time>2021-07-27T09:38:22.000Z</Time>
            <Position>
              <LatitudeDegrees>40.7881950773298740386962890625</LatitudeDegrees>
              <LongitudeDegrees>-3.175024688243865966796875</LongitudeDegrees>
            </Position>
            <AltitudeMeters>728.5999755859375</AltitudeMeters>
            <DistanceMeters>17151.404918761</DistanceMeters>
          </Trackpoint>
          <Trackpoint>
            <Time>2021-07-27T09:38:35.000Z</Time>
            <Position>
              <LatitudeDegrees>40.78864661045372486114501953125</LatitudeDegrees>
              <LongitudeDegrees>-3.175110518932342529296875</LongitudeDegrees>
            </Position>
            <AltitudeMeters>729.4000244140625</AltitudeMeters>
            <DistanceMeters>17202.179249326</DistanceMeters>
          </Trackpoint>
          <Trackpoint>
            <Time>2021-07-27T09:38:51.000Z</Time>
            <Position>
              <LatitudeDegrees>40.78919327817857265472412109375</LatitudeDegrees>
              <LongitudeDegrees>-3.1752300448715686798095703125</LongitudeDegrees>
            </Position>
            <AltitudeMeters>730.20001220703125</AltitudeMeters>
            <DistanceMeters>17263.852538676</DistanceMeters>
          </Trackpoint>
          <Trackpoint>
            <Time>2021-07-27T09:38:55.000Z</Time>
            <Position>
              <LatitudeDegrees>40.78932722099125385284423828125</LatitudeDegrees>
              <LongitudeDegrees>-3.17526633851230144500732421875</LongitudeDegrees>
            </Position>
            <AltitudeMeters>730</AltitudeMeters>
            <DistanceMeters>17279.071356985</DistanceMeters>
          </Trackpoint>
          <Trackpoint>
            <Time>2021-07-27T09:39:11.000Z</Time>
            <Position>
              <LatitudeDegrees>40.78986701555550098419189453125</LatitudeDegrees>
              <LongitudeDegrees>-3.175418637692928314208984375</LongitudeDegrees>
            </Position>
            <AltitudeMeters>732.20001220703125</AltitudeMeters>
            <DistanceMeters>17340.506991364</DistanceMeters>
          </Trackpoint>
          <Trackpoint>
            <Time>2021-07-27T09:39:19.000Z</Time>
            <Position>
              <LatitudeDegrees>40.7901400141417980194091796875</LatitudeDegrees>
              <LongitudeDegrees>-3.17550069652497768402099609375</LongitudeDegrees>
            </Position>
            <AltitudeMeters>734</AltitudeMeters>
            <DistanceMeters>17371.669089507</DistanceMeters>
          </Trackpoint>
          <Trackpoint>
            <Time>2021-07-27T09:39:35.000Z</Time>
            <Position>
              <LatitudeDegrees>40.79068257473409175872802734375</LatitudeDegrees>
              <LongitudeDegrees>-3.1756645627319812774658203125</LongitudeDegrees>
            </Position>
            <AltitudeMeters>732.79998779296875</AltitudeMeters>
            <DistanceMeters>17433.615866868</DistanceMeters>
          </Trackpoint>
          <Trackpoint>
            <Time>2021-07-27T09:39:39.000Z</Time>
            <Position>
              <LatitudeDegrees>40.79081785865128040313720703125</LatitudeDegrees>
              <LongitudeDegrees>-3.17570253275334835052490234375</LongitudeDegrees>
            </Position>
            <AltitudeMeters>733.5999755859375</AltitudeMeters>
            <DistanceMeters>17449.009608</DistanceMeters>
          </Trackpoint>
          <Trackpoint>
            <Time>2021-07-27T09:39:55.000Z</Time>
            <Position>
              <LatitudeDegrees>40.7913734950125217437744140625</LatitudeDegrees>
              <LongitudeDegrees>-3.17585994489490985870361328125</LongitudeDegrees>
            </Position>
            <AltitudeMeters>734.79998779296875</AltitudeMeters>
            <DistanceMeters>17512.259577539</DistanceMeters>
          </Trackpoint>
          <Trackpoint>
            <Time>2021-07-27T09:40:00.000Z</Time>
            <Position>
              <LatitudeDegrees>40.791552364826202392578125</LatitudeDegrees>
              <LongitudeDegrees>-3.17591744475066661834716796875</LongitudeDegrees>
            </Position>
            <AltitudeMeters>735</AltitudeMeters>
            <DistanceMeters>17532.749681838</DistanceMeters>
          </Trackpoint>
          <Trackpoint>
            <Time>2021-07-27T09:40:08.000Z</Time>
            <Position>
              <LatitudeDegrees>40.79181513749063014984130859375</LatitudeDegrees>
              <LongitudeDegrees>-3.17599019967019557952880859375</LongitudeDegrees>
            </Position>
            <AltitudeMeters>735.4000244140625</AltitudeMeters>
            <DistanceMeters>17562.632372973</DistanceMeters>
          </Trackpoint>
          <Trackpoint>
            <Time>2021-07-27T09:40:25.000Z</Time>
            <Position>
              <LatitudeDegrees>40.79236951656639575958251953125</LatitudeDegrees>
              <LongitudeDegrees>-3.176090531051158905029296875</LongitudeDegrees>
            </Position>
            <AltitudeMeters>737</AltitudeMeters>
            <DistanceMeters>17624.912362504</DistanceMeters>
          </Trackpoint>
          <Trackpoint>
            <Time>2021-07-27T09:40:30.000Z</Time>
            <Position>
              <LatitudeDegrees>40.79253497533500194549560546875</LatitudeDegrees>
              <LongitudeDegrees>-3.1760974042117595672607421875</LongitudeDegrees>
            </Position>
            <AltitudeMeters>737</AltitudeMeters>
            <DistanceMeters>17643.337255823</DistanceMeters>
          </Trackpoint>
          <Trackpoint>
            <Time>2021-07-27T09:40:43.000Z</Time>
            <Position>
              <LatitudeDegrees>40.7929482869803905487060546875</LatitudeDegrees>
              <LongitudeDegrees>-3.17604635842144489288330078125</LongitudeDegrees>
            </Position>
            <AltitudeMeters>736.79998779296875</AltitudeMeters>
            <DistanceMeters>17689.540178581</DistanceMeters>
          </Trackpoint>
          <Trackpoint>
            <Time>2021-07-27T09:40:58.000Z</Time>
            <Position>
              <LatitudeDegrees>40.793482549488544464111328125</LatitudeDegrees>
              <LongitudeDegrees>-3.17592616192996501922607421875</LongitudeDegrees>
            </Position>
            <AltitudeMeters>735</AltitudeMeters>
            <DistanceMeters>17749.861038096</DistanceMeters>
          </Trackpoint>
          <Trackpoint>
            <Time>2021-07-27T09:41:08.000Z</Time>
            <Position>
              <LatitudeDegrees>40.79386920668184757232666015625</LatitudeDegrees>
              <LongitudeDegrees>-3.17579808644950389862060546875</LongitudeDegrees>
            </Position>
            <AltitudeMeters>739.20001220703125</AltitudeMeters>
            <DistanceMeters>17794.229356012</DistanceMeters>
          </Trackpoint>
          <Trackpoint>
            <Time>2021-07-27T09:41:22.000Z</Time>
            <Position>
              <LatitudeDegrees>40.7943946681916713714599609375</LatitudeDegrees>
              <LongitudeDegrees>-3.17551829852163791656494140625</LongitudeDegrees>
            </Position>
            <AltitudeMeters>736.20001220703125</AltitudeMeters>
            <DistanceMeters>17857.287153319</DistanceMeters>
          </Trackpoint>
          <Trackpoint>
            <Time>2021-07-27T09:41:33.000Z</Time>
            <Position>
              <LatitudeDegrees>40.7947725243866443634033203125</LatitudeDegrees>
              <LongitudeDegrees>-3.17520246841013431549072265625</LongitudeDegrees>
            </Position>
            <AltitudeMeters>734.20001220703125</AltitudeMeters>
            <DistanceMeters>17907.056119237</DistanceMeters>
          </Trackpoint>
          <Trackpoint>
            <Time>2021-07-27T09:41:47.000Z</Time>
            <Position>
              <LatitudeDegrees>40.795219279825687408447265625</LatitudeDegrees>
              <LongitudeDegrees>-3.1747596524655818939208984375</LongitudeDegrees>
            </Position>
            <AltitudeMeters>734</AltitudeMeters>
            <DistanceMeters>17969.223275575</DistanceMeters>
          </Trackpoint>
          <Trackpoint>
            <Time>2021-07-27T09:42:03.000Z</Time>
            <Position>
              <LatitudeDegrees>40.795653797686100006103515625</LatitudeDegrees>
              <LongitudeDegrees>-3.1743167527019977569580078125</LongitudeDegrees>
            </Position>
            <AltitudeMeters>734</AltitudeMeters>
            <DistanceMeters>18030.310672478</DistanceMeters>
          </Trackpoint>
          <Trackpoint>
            <Time>2021-07-27T09:42:04.000Z</Time>
            <Position>
              <LatitudeDegrees>40.79567450098693370819091796875</LatitudeDegrees>
              <LongitudeDegrees>-3.17429504357278347015380859375</LongitudeDegrees>
            </Position>
            <AltitudeMeters>734.20001220703125</AltitudeMeters>
            <DistanceMeters>18033.254967535</DistanceMeters>
          </Trackpoint>
          <Trackpoint>
            <Time>2021-07-27T09:42:13.000Z</Time>
            <Position>
              <LatitudeDegrees>40.795830152928829193115234375</LatitudeDegrees>
              <LongitudeDegrees>-3.17410578019917011260986328125</LongitudeDegrees>
            </Position>
            <AltitudeMeters>734.5999755859375</AltitudeMeters>
            <DistanceMeters>18056.801659313</DistanceMeters>
          </Trackpoint>
          <Trackpoint>
            <Time>2021-07-27T09:42:21.000Z</Time>
            <Position>
              <LatitudeDegrees>40.7959550432860851287841796875</LatitudeDegrees>
              <LongitudeDegrees>-3.1739673949778079986572265625</LongitudeDegrees>
            </Position>
            <AltitudeMeters>735.79998779296875</AltitudeMeters>
            <DistanceMeters>18074.945541666</DistanceMeters>
          </Trackpoint>
          <Trackpoint>
            <Time>2021-07-27T09:42:28.000Z</Time>
            <Position>
              <LatitudeDegrees>40.79604766331613063812255859375</LatitudeDegrees>
              <LongitudeDegrees>-3.1738748587667942047119140625</LongitudeDegrees>
            </Position>
            <AltitudeMeters>736.4000244140625</AltitudeMeters>
            <DistanceMeters>18087.871270828</DistanceMeters>
          </Trackpoint>
          <Trackpoint>
            <Time>2021-07-27T09:42:37.000Z</Time>
            <Position>
              <LatitudeDegrees>40.79617288894951343536376953125</LatitudeDegrees>
              <LongitudeDegrees>-3.173784501850605010986328125</LongitudeDegrees>
            </Position>
            <AltitudeMeters>737.20001220703125</AltitudeMeters>
            <DistanceMeters>18103.752961394</DistanceMeters>
          </Trackpoint>
          <Trackpoint>
            <Time>2021-07-27T09:42:40.000Z</Time>
            <Position>
              <LatitudeDegrees>40.7962145470082759857177734375</LatitudeDegrees>
              <LongitudeDegrees>-3.17374996840953826904296875</LongitudeDegrees>
            </Position>
            <AltitudeMeters>737.5999755859375</AltitudeMeters>
            <DistanceMeters>18109.22669811</DistanceMeters>
          </Trackpoint>
          <Trackpoint>
            <Time>2021-07-27T09:42:47.000Z</Time>
            <Position>
              <LatitudeDegrees>40.79632476903498172760009765625</LatitudeDegrees>
              <LongitudeDegrees>-3.1737189553678035736083984375</LongitudeDegrees>
            </Position>
            <AltitudeMeters>738.79998779296875</AltitudeMeters>
            <DistanceMeters>18121.769864452</DistanceMeters>
          </Trackpoint>
          <Trackpoint>
            <Time>2021-07-27T09:42:49.000Z</Time>
            <Position>
              <LatitudeDegrees>40.7963520102202892303466796875</LatitudeDegrees>
              <LongitudeDegrees>-3.1736974976956844329833984375</LongitudeDegrees>
            </Position>
            <AltitudeMeters>739.20001220703125</AltitudeMeters>
            <DistanceMeters>18125.299950215</DistanceMeters>
          </Trackpoint>
          <Trackpoint>
            <Time>2021-07-27T09:42:58.000Z</Time>
            <Position>
              <LatitudeDegrees>40.796471200883388519287109375</LatitudeDegrees>
              <LongitudeDegrees>-3.17360512912273406982421875</LongitudeDegrees>
            </Position>
            <AltitudeMeters>741</AltitudeMeters>
            <DistanceMeters>18140.680780579</DistanceMeters>
          </Trackpoint>
          <Trackpoint>
            <Time>2021-07-27T09:43:06.000Z</Time>
            <Position>
              <LatitudeDegrees>40.7965830154716968536376953125</LatitudeDegrees>
              <LongitudeDegrees>-3.1735301949083805084228515625</LongitudeDegrees>
            </Position>
            <AltitudeMeters>743.20001220703125</AltitudeMeters>
            <DistanceMeters>18154.636125743</DistanceMeters>
          </Trackpoint>
          <Trackpoint>
            <Time>2021-07-27T09:43:16.000Z</Time>
            <Position>
              <LatitudeDegrees>40.79672760330140590667724609375</LatitudeDegrees>
              <LongitudeDegrees>-3.17343824543058872222900390625</LongitudeDegrees>
            </Position>
            <AltitudeMeters>746.20001220703125</AltitudeMeters>
            <DistanceMeters>18172.496598314</DistanceMeters>
          </Trackpoint>
          <Trackpoint>
            <Time>2021-07-27T09:43:25.000Z</Time>
            <Position>
              <LatitudeDegrees>40.79685333184897899627685546875</LatitudeDegrees>
              <LongitudeDegrees>-3.17335903644561767578125</LongitudeDegrees>
            </Position>
            <AltitudeMeters>748.20001220703125</AltitudeMeters>
            <DistanceMeters>18188.000811772</DistanceMeters>
          </Trackpoint>
          <Trackpoint>
            <Time>2021-07-27T09:43:33.000Z</Time>
            <Position>
              <LatitudeDegrees>40.79697285778820514678955078125</LatitudeDegrees>
              <LongitudeDegrees>-3.17329659126698970794677734375</LongitudeDegrees>
            </Position>
            <AltitudeMeters>749.79998779296875</AltitudeMeters>
            <DistanceMeters>18202.306672547</DistanceMeters>
          </Trackpoint>
          <Trackpoint>
            <Time>2021-07-27T09:43:40.000Z</Time>
            <Position>
              <LatitudeDegrees>40.7970795594155788421630859375</LatitudeDegrees>
              <LongitudeDegrees>-3.17323992960155010223388671875</LongitudeDegrees>
            </Position>
            <AltitudeMeters>751.20001220703125</AltitudeMeters>
            <DistanceMeters>18215.106739227</DistanceMeters>
          </Trackpoint>
          <Trackpoint>
            <Time>2021-07-27T09:43:48.000Z</Time>
            <Position>
              <LatitudeDegrees>40.79720252193510532379150390625</LatitudeDegrees>
              <LongitudeDegrees>-3.17317874170839786529541015625</LongitudeDegrees>
            </Position>
            <AltitudeMeters>752.4000244140625</AltitudeMeters>
            <DistanceMeters>18229.731594462</DistanceMeters>
          </Trackpoint>
          <Trackpoint>
            <Time>2021-07-27T09:44:02.000Z</Time>
            <Position>
              <LatitudeDegrees>40.797415338456630706787109375</LatitudeDegrees>
              <LongitudeDegrees>-3.173073045909404754638671875</LongitudeDegrees>
            </Position>
            <AltitudeMeters>753.4000244140625</AltitudeMeters>
            <DistanceMeters>18255.037263809</DistanceMeters>
          </Trackpoint>
          <Trackpoint>
            <Time>2021-07-27T09:44:10.000Z</Time>
            <Position>
              <LatitudeDegrees>40.7975362055003643035888671875</LatitudeDegrees>
              <LongitudeDegrees>-3.1730091758072376251220703125</LongitudeDegrees>
            </Position>
            <AltitudeMeters>753.5999755859375</AltitudeMeters>
            <DistanceMeters>18269.526267128</DistanceMeters>
          </Trackpoint>
          <Trackpoint>
            <Time>2021-07-27T09:44:21.000Z</Time>
            <Position>
              <LatitudeDegrees>40.797705017030239105224609375</LatitudeDegrees>
              <LongitudeDegrees>-3.1729246862232685089111328125</LongitudeDegrees>
            </Position>
            <AltitudeMeters>755.20001220703125</AltitudeMeters>
            <DistanceMeters>18289.618744018</DistanceMeters>
          </Trackpoint>
          <Trackpoint>
            <Time>2021-07-27T09:44:30.000Z</Time>
            <Position>
              <LatitudeDegrees>40.79783937893807888031005859375</LatitudeDegrees>
              <LongitudeDegrees>-3.17286374978721141815185546875</LongitudeDegrees>
            </Position>
            <AltitudeMeters>756.5999755859375</AltitudeMeters>
            <DistanceMeters>18305.430344077</DistanceMeters>
          </Trackpoint>
          <Trackpoint>
            <Time>2021-07-27T09:44:39.000Z</Time>
            <Position>
              <LatitudeDegrees>40.79796887934207916259765625</LatitudeDegrees>
              <LongitudeDegrees>-3.1728026457130908966064453125</LongitudeDegrees>
            </Position>
            <AltitudeMeters>758</AltitudeMeters>
            <DistanceMeters>18320.73584123</DistanceMeters>
          </Trackpoint>
          <Trackpoint>
            <Time>2021-07-27T09:44:49.000Z</Time>
            <Position>
              <LatitudeDegrees>40.7981101982295513153076171875</LatitudeDegrees>
              <LongitudeDegrees>-3.17273098044097423553466796875</LongitudeDegrees>
            </Position>
            <AltitudeMeters>759.5999755859375</AltitudeMeters>
            <DistanceMeters>18337.584267955</DistanceMeters>
          </Trackpoint>
          <Trackpoint>
            <Time>2021-07-27T09:44:57.000Z</Time>
            <Position>
              <LatitudeDegrees>40.79822997562587261199951171875</LatitudeDegrees>
              <LongitudeDegrees>-3.17267172038555145263671875</LongitudeDegrees>
            </Position>
            <AltitudeMeters>761</AltitudeMeters>
            <DistanceMeters>18351.820208585</DistanceMeters>
          </Trackpoint>
          <Trackpoint>
            <Time>2021-07-27T09:45:07.000Z</Time>
            <Position>
              <LatitudeDegrees>40.79838403500616550445556640625</LatitudeDegrees>
              <LongitudeDegrees>-3.17259402014315128326416015625</LongitudeDegrees>
            </Position>
            <AltitudeMeters>762.5999755859375</AltitudeMeters>
            <DistanceMeters>18370.174391537</DistanceMeters>
          </Trackpoint>
          <Trackpoint>
            <Time>2021-07-27T09:45:16.000Z</Time>
            <Position>
              <LatitudeDegrees>40.7985269464552402496337890625</LatitudeDegrees>
              <LongitudeDegrees>-3.17252864129841327667236328125</LongitudeDegrees>
            </Position>
            <AltitudeMeters>763.4000244140625</AltitudeMeters>
            <DistanceMeters>18387.007268256</DistanceMeters>
          </Trackpoint>
          <Trackpoint>
            <Time>2021-07-27T09:45:24.000Z</Time>
            <Position>
              <LatitudeDegrees>40.798649154603481292724609375</LatitudeDegrees>
              <LongitudeDegrees>-3.172467537224292755126953125</LongitudeDegrees>
            </Position>
            <AltitudeMeters>763.79998779296875</AltitudeMeters>
            <DistanceMeters>18401.551012981</DistanceMeters>
          </Trackpoint>
          <Trackpoint>
            <Time>2021-07-27T09:45:35.000Z</Time>
            <Position>
              <LatitudeDegrees>40.7988198101520538330078125</LatitudeDegrees>
              <LongitudeDegrees>-3.17238472402095794677734375</LongitudeDegrees>
            </Position>
            <AltitudeMeters>764</AltitudeMeters>
            <DistanceMeters>18421.786125689</DistanceMeters>
          </Trackpoint>
          <Trackpoint>
            <Time>2021-07-27T09:45:43.000Z</Time>
            <Position>
              <LatitudeDegrees>40.79894377849996089935302734375</LatitudeDegrees>
              <LongitudeDegrees>-3.1723225302994251251220703125</LongitudeDegrees>
            </Position>
            <AltitudeMeters>764.4000244140625</AltitudeMeters>
            <DistanceMeters>18436.545582458</DistanceMeters>
          </Trackpoint>
          <Trackpoint>
            <Time>2021-07-27T09:45:52.000Z</Time>
            <Position>
              <LatitudeDegrees>40.79908761195838451385498046875</LatitudeDegrees>
              <LongitudeDegrees>-3.17225639708340167999267578125</LongitudeDegrees>
            </Position>
            <AltitudeMeters>764.20001220703125</AltitudeMeters>
            <DistanceMeters>18453.49606836</DistanceMeters>
          </Trackpoint>
          <Trackpoint>
            <Time>2021-07-27T09:46:00.000Z</Time>
            <Position>
              <LatitudeDegrees>40.79921904020011425018310546875</LatitudeDegrees>
              <LongitudeDegrees>-3.1721880845725536346435546875</LongitudeDegrees>
            </Position>
            <AltitudeMeters>764</AltitudeMeters>
            <DistanceMeters>18469.216026119</DistanceMeters>
          </Trackpoint>
          <Trackpoint>
            <Time>2021-07-27T09:46:11.000Z</Time>
            <Position>
              <LatitudeDegrees>40.79940126277506351470947265625</LatitudeDegrees>
              <LongitudeDegrees>-3.172101080417633056640625</LongitudeDegrees>
            </Position>
            <AltitudeMeters>764.5999755859375</AltitudeMeters>
            <DistanceMeters>18490.781856898</DistanceMeters>
          </Trackpoint>
          <Trackpoint>
            <Time>2021-07-27T09:46:24.000Z</Time>
            <Position>
              <LatitudeDegrees>40.79963578842580318450927734375</LatitudeDegrees>
              <LongitudeDegrees>-3.17198113538324832916259765625</LongitudeDegrees>
            </Position>
            <AltitudeMeters>765.4000244140625</AltitudeMeters>
            <DistanceMeters>18518.772991436</DistanceMeters>
          </Trackpoint>
          <Trackpoint>
            <Time>2021-07-27T09:46:41.000Z</Time>
            <Position>
              <LatitudeDegrees>40.7999716512858867645263671875</LatitudeDegrees>
              <LongitudeDegrees>-3.171822130680084228515625</LongitudeDegrees>
            </Position>
            <AltitudeMeters>767.20001220703125</AltitudeMeters>
            <DistanceMeters>18558.483244385</DistanceMeters>
          </Trackpoint>
          <Trackpoint>
            <Time>2021-07-27T09:47:02.000Z</Time>
            <Position>
              <LatitudeDegrees>40.8004906587302684783935546875</LatitudeDegrees>
              <LongitudeDegrees>-3.1715634651482105255126953125</LongitudeDegrees>
            </Position>
            <AltitudeMeters>767.5999755859375</AltitudeMeters>
            <DistanceMeters>18620.224214899</DistanceMeters>
          </Trackpoint>
          <Trackpoint>
            <Time>2021-07-27T09:47:21.000Z</Time>
            <Position>
              <LatitudeDegrees>40.801005475223064422607421875</LatitudeDegrees>
              <LongitudeDegrees>-3.1713177077472209930419921875</LongitudeDegrees>
            </Position>
            <AltitudeMeters>768</AltitudeMeters>
            <DistanceMeters>18681.150791237</DistanceMeters>
          </Trackpoint>
          <Trackpoint>
            <Time>2021-07-27T09:47:28.000Z</Time>
            <Position>
              <LatitudeDegrees>40.8012225665152072906494140625</LatitudeDegrees>
              <LongitudeDegrees>-3.17120631225407123565673828125</LongitudeDegrees>
            </Position>
            <AltitudeMeters>767.79998779296875</AltitudeMeters>
            <DistanceMeters>18707.072365036</DistanceMeters>
          </Trackpoint>
          <Trackpoint>
            <Time>2021-07-27T09:47:43.000Z</Time>
            <Position>
              <LatitudeDegrees>40.80174677073955535888671875</LatitudeDegrees>
              <LongitudeDegrees>-3.1709693558514118194580078125</LongitudeDegrees>
            </Position>
            <AltitudeMeters>767.20001220703125</AltitudeMeters>
            <DistanceMeters>18768.738479489</DistanceMeters>
          </Trackpoint>
          <Trackpoint>
            <Time>2021-07-27T09:47:59.000Z</Time>
            <Position>
              <LatitudeDegrees>40.8022796921432018280029296875</LatitudeDegrees>
              <LongitudeDegrees>-3.1707666814327239990234375</LongitudeDegrees>
            </Position>
            <AltitudeMeters>768.79998779296875</AltitudeMeters>
            <DistanceMeters>18830.462628106</DistanceMeters>
          </Trackpoint>
          <Trackpoint>
            <Time>2021-07-27T09:48:12.000Z</Time>
            <Position>
              <LatitudeDegrees>40.8027494139969348907470703125</LatitudeDegrees>
              <LongitudeDegrees>-3.170640282332897186279296875</LongitudeDegrees>
            </Position>
            <AltitudeMeters>769.79998779296875</AltitudeMeters>
            <DistanceMeters>18883.817145335</DistanceMeters>
          </Trackpoint>
          <Trackpoint>
            <Time>2021-07-27T09:48:25.000Z</Time>
            <Position>
              <LatitudeDegrees>40.80322056077420711517333984375</LatitudeDegrees>
              <LongitudeDegrees>-3.170549757778644561767578125</LongitudeDegrees>
            </Position>
            <AltitudeMeters>770.5999755859375</AltitudeMeters>
            <DistanceMeters>18936.808492475</DistanceMeters>
          </Trackpoint>
          <Trackpoint>
            <Time>2021-07-27T09:48:41.000Z</Time>
            <Position>
              <LatitudeDegrees>40.8037845790386199951171875</LatitudeDegrees>
              <LongitudeDegrees>-3.17050315439701080322265625</LongitudeDegrees>
            </Position>
            <AltitudeMeters>770.20001220703125</AltitudeMeters>
            <DistanceMeters>18999.707420541</DistanceMeters>
          </Trackpoint>
          <Trackpoint>
            <Time>2021-07-27T09:48:45.000Z</Time>
            <Position>
              <LatitudeDegrees>40.8039289154112339019775390625</LatitudeDegrees>
              <LongitudeDegrees>-3.17048965953290462493896484375</LongitudeDegrees>
            </Position>
            <AltitudeMeters>770</AltitudeMeters>
            <DistanceMeters>19015.812696564</DistanceMeters>
          </Trackpoint>
          <Trackpoint>
            <Time>2021-07-27T09:49:00.000Z</Time>
            <Position>
              <LatitudeDegrees>40.80442688427865505218505859375</LatitudeDegrees>
              <LongitudeDegrees>-3.17048178054392337799072265625</LongitudeDegrees>
            </Position>
            <AltitudeMeters>772.79998779296875</AltitudeMeters>
            <DistanceMeters>19071.241625104</DistanceMeters>
          </Trackpoint>
          <Trackpoint>
            <Time>2021-07-27T09:49:12.000Z</Time>
            <Position>
              <LatitudeDegrees>40.80480909906327724456787109375</LatitudeDegrees>
              <LongitudeDegrees>-3.17048395983874797821044921875</LongitudeDegrees>
            </Position>
            <AltitudeMeters>776</AltitudeMeters>
            <DistanceMeters>19113.783250141</DistanceMeters>
          </Trackpoint>
          <Trackpoint>
            <Time>2021-07-27T09:49:24.000Z</Time>
            <Position>
              <LatitudeDegrees>40.80518762581050395965576171875</LatitudeDegrees>
              <LongitudeDegrees>-3.17048178054392337799072265625</LongitudeDegrees>
            </Position>
            <AltitudeMeters>778.4000244140625</AltitudeMeters>
            <DistanceMeters>19155.914498954</DistanceMeters>
          </Trackpoint>
          <Trackpoint>
            <Time>2021-07-27T09:49:33.000Z</Time>
            <Position>
              <LatitudeDegrees>40.80547562800347805023193359375</LatitudeDegrees>
              <LongitudeDegrees>-3.1704845465719699859619140625</LongitudeDegrees>
            </Position>
            <AltitudeMeters>778.5999755859375</AltitudeMeters>
            <DistanceMeters>19187.970490267</DistanceMeters>
          </Trackpoint>
          <Trackpoint>
            <Time>2021-07-27T09:49:46.000Z</Time>
            <Position>
              <LatitudeDegrees>40.8058865927159786224365234375</LatitudeDegrees>
              <LongitudeDegrees>-3.17048680968582630157470703125</LongitudeDegrees>
            </Position>
            <AltitudeMeters>779</AltitudeMeters>
            <DistanceMeters>19233.712011582</DistanceMeters>
          </Trackpoint>
          <Trackpoint>
            <Time>2021-07-27T09:49:56.000Z</Time>
            <Position>
              <LatitudeDegrees>40.80617719329893589019775390625</LatitudeDegrees>
              <LongitudeDegrees>-3.17047507502138614654541015625</LongitudeDegrees>
            </Position>
            <AltitudeMeters>781</AltitudeMeters>
            <DistanceMeters>19266.071503149</DistanceMeters>
          </Trackpoint>
          <Trackpoint>
            <Time>2021-07-27T09:50:09.000Z</Time>
            <Position>
              <LatitudeDegrees>40.80655303783714771270751953125</LatitudeDegrees>
              <LongitudeDegrees>-3.1704513542354106903076171875</LongitudeDegrees>
            </Position>
            <AltitudeMeters>782.20001220703125</AltitudeMeters>
            <DistanceMeters>19307.951448325</DistanceMeters>
          </Trackpoint>
          <Trackpoint>
            <Time>2021-07-27T09:50:25.000Z</Time>
            <Position>
              <LatitudeDegrees>40.80700683407485485076904296875</LatitudeDegrees>
              <LongitudeDegrees>-3.1704282201826572418212890625</LongitudeDegrees>
            </Position>
            <AltitudeMeters>782.79998779296875</AltitudeMeters>
            <DistanceMeters>19358.497443106</DistanceMeters>
          </Trackpoint>
          <Trackpoint>
            <Time>2021-07-27T09:50:42.000Z</Time>
            <Position>
              <LatitudeDegrees>40.80752936191856861114501953125</LatitudeDegrees>
              <LongitudeDegrees>-3.17031213082373142242431640625</LongitudeDegrees>
            </Position>
            <AltitudeMeters>782.79998779296875</AltitudeMeters>
            <DistanceMeters>19417.472372553</DistanceMeters>
          </Trackpoint>
          <Trackpoint>
            <Time>2021-07-27T09:50:47.000Z</Time>
            <Position>
              <LatitudeDegrees>40.80765525810420513153076171875</LatitudeDegrees>
              <LongitudeDegrees>-3.17038605920970439910888671875</LongitudeDegrees>
            </Position>
            <AltitudeMeters>783.5999755859375</AltitudeMeters>
            <DistanceMeters>19432.806751921</DistanceMeters>
          </Trackpoint>
          <Trackpoint>
            <Time>2021-07-27T09:50:59.000Z</Time>
            <Position>
              <LatitudeDegrees>40.8079820685088634490966796875</LatitudeDegrees>
              <LongitudeDegrees>-3.1703242845833301544189453125</LongitudeDegrees>
            </Position>
            <AltitudeMeters>784.5999755859375</AltitudeMeters>
            <DistanceMeters>19469.551752807</DistanceMeters>
          </Trackpoint>
          <Trackpoint>
            <Time>2021-07-27T09:51:17.000Z</Time>
            <Position>
              <LatitudeDegrees>40.80848707817494869232177734375</LatitudeDegrees>
              <LongitudeDegrees>-3.16999026574194431304931640625</LongitudeDegrees>
            </Position>
            <AltitudeMeters>782.79998779296875</AltitudeMeters>
            <DistanceMeters>19532.410541684</DistanceMeters>
          </Trackpoint>
          <Trackpoint>
            <Time>2021-07-27T09:51:18.000Z</Time>
            <Position>
              <LatitudeDegrees>40.80851339735090732574462890625</LatitudeDegrees>
              <LongitudeDegrees>-3.16996646113693714141845703125</LongitudeDegrees>
            </Position>
            <AltitudeMeters>782.79998779296875</AltitudeMeters>
            <DistanceMeters>19535.961032736</DistanceMeters>
          </Trackpoint>
          <Trackpoint>
            <Time>2021-07-27T09:51:35.000Z</Time>
            <Position>
              <LatitudeDegrees>40.80893911421298980712890625</LatitudeDegrees>
              <LongitudeDegrees>-3.16947813145816326141357421875</LongitudeDegrees>
            </Position>
            <AltitudeMeters>785.5999755859375</AltitudeMeters>
            <DistanceMeters>19598.711051329</DistanceMeters>
          </Trackpoint>
          <Trackpoint>
            <Time>2021-07-27T09:51:44.000Z</Time>
            <Position>
              <LatitudeDegrees>40.80915293656289577484130859375</LatitudeDegrees>
              <LongitudeDegrees>-3.16917789168655872344970703125</LongitudeDegrees>
            </Position>
            <AltitudeMeters>784.79998779296875</AltitudeMeters>
            <DistanceMeters>19633.440422911</DistanceMeters>
          </Trackpoint>
          <Trackpoint>
            <Time>2021-07-27T09:52:00.000Z</Time>
            <Position>
              <LatitudeDegrees>40.80954420380294322967529296875</LatitudeDegrees>
              <LongitudeDegrees>-3.16862351261079311370849609375</LongitudeDegrees>
            </Position>
            <AltitudeMeters>784.5999755859375</AltitudeMeters>
            <DistanceMeters>19697.296890158</DistanceMeters>
          </Trackpoint>
          <Trackpoint>
            <Time>2021-07-27T09:52:15.000Z</Time>
            <Position>
              <LatitudeDegrees>40.8099451102316379547119140625</LatitudeDegrees>
              <LongitudeDegrees>-3.1681044213473796844482421875</LongitudeDegrees>
            </Position>
            <AltitudeMeters>784.5999755859375</AltitudeMeters>
            <DistanceMeters>19759.773901643</DistanceMeters>
          </Trackpoint>
          <Trackpoint>
            <Time>2021-07-27T09:52:18.000Z</Time>
            <Position>
              <LatitudeDegrees>40.81003747880458831787109375</LatitudeDegrees>
              <LongitudeDegrees>-3.16799587570130825042724609375</LongitudeDegrees>
            </Position>
            <AltitudeMeters>784.20001220703125</AltitudeMeters>
            <DistanceMeters>19773.533428623</DistanceMeters>
          </Trackpoint>
          <Trackpoint>
            <Time>2021-07-27T09:52:19.000Z</Time>
            <Position>
              <LatitudeDegrees>40.81006639637053012847900390625</LatitudeDegrees>
              <LongitudeDegrees>-3.16795564256608486175537109375</LongitudeDegrees>
            </Position>
            <AltitudeMeters>784</AltitudeMeters>
            <DistanceMeters>19778.208124869</DistanceMeters>
          </Trackpoint>
          <Trackpoint>
            <Time>2021-07-27T09:52:27.000Z</Time>
            <Position>
              <LatitudeDegrees>40.810335539281368255615234375</LatitudeDegrees>
              <LongitudeDegrees>-3.167634196579456329345703125</LongitudeDegrees>
            </Position>
            <AltitudeMeters>782.79998779296875</AltitudeMeters>
            <DistanceMeters>19818.589559147</DistanceMeters>
          </Trackpoint>
          <Trackpoint>
            <Time>2021-07-27T09:52:33.000Z</Time>
            <Position>
              <LatitudeDegrees>40.81057735718786716461181640625</LatitudeDegrees>
              <LongitudeDegrees>-3.167362622916698455810546875</LongitudeDegrees>
            </Position>
            <AltitudeMeters>781</AltitudeMeters>
            <DistanceMeters>19853.913942841</DistanceMeters>
          </Trackpoint>
          <Trackpoint>
            <Time>2021-07-27T09:52:38.000Z</Time>
            <Position>
              <LatitudeDegrees>40.81080785952508449554443359375</LatitudeDegrees>
              <LongitudeDegrees>-3.16711242310702800750732421875</LongitudeDegrees>
            </Position>
            <AltitudeMeters>779.4000244140625</AltitudeMeters>
            <DistanceMeters>19887.117043791</DistanceMeters>
          </Trackpoint>
          <Trackpoint>
            <Time>2021-07-27T09:52:42.000Z</Time>
            <Position>
              <LatitudeDegrees>40.81099611707031726837158203125</LatitudeDegrees>
              <LongitudeDegrees>-3.166913352906703948974609375</LongitudeDegrees>
            </Position>
            <AltitudeMeters>778.4000244140625</AltitudeMeters>
            <DistanceMeters>19913.95498368</DistanceMeters>
          </Trackpoint>
          <Trackpoint>
            <Time>2021-07-27T09:52:46.000Z</Time>
            <Position>
              <LatitudeDegrees>40.811199881136417388916015625</LatitudeDegrees>
              <LongitudeDegrees>-3.166705481708049774169921875</LongitudeDegrees>
            </Position>
            <AltitudeMeters>778</AltitudeMeters>
            <DistanceMeters>19942.608019996</DistanceMeters>
          </Trackpoint>
          <Trackpoint>
            <Time>2021-07-27T09:52:48.000Z</Time>
            <Position>
              <LatitudeDegrees>40.81130222417414188385009765625</LatitudeDegrees>
              <LongitudeDegrees>-3.16660062409937381744384765625</LongitudeDegrees>
            </Position>
            <AltitudeMeters>777.20001220703125</AltitudeMeters>
            <DistanceMeters>19957.022667372</DistanceMeters>
          </Trackpoint>
          <Trackpoint>
            <Time>2021-07-27T09:52:51.000Z</Time>
            <Position>
              <LatitudeDegrees>40.811454690992832183837890625</LatitudeDegrees>
              <LongitudeDegrees>-3.1664484925568103790283203125</LongitudeDegrees>
            </Position>
            <AltitudeMeters>776</AltitudeMeters>
            <DistanceMeters>19978.287854138</DistanceMeters>
          </Trackpoint>
          <Trackpoint>
            <Time>2021-07-27T09:52:57.000Z</Time>
            <Position>
              <LatitudeDegrees>40.81173791550099849700927734375</LatitudeDegrees>
              <LongitudeDegrees>-3.16615923307836055755615234375</LongitudeDegrees>
            </Position>
            <AltitudeMeters>772.5999755859375</AltitudeMeters>
            <DistanceMeters>20018.131140132</DistanceMeters>
          </Trackpoint>
          <Trackpoint>
            <Time>2021-07-27T09:53:05.000Z</Time>
            <Position>
              <LatitudeDegrees>40.8118732832372188568115234375</LatitudeDegrees>
              <LongitudeDegrees>-3.165995366871356964111328125</LongitudeDegrees>
            </Position>
            <AltitudeMeters>772.20001220703125</AltitudeMeters>
            <DistanceMeters>20038.565198338</DistanceMeters>
          </Trackpoint>
          <Trackpoint>
            <Time>2021-07-27T09:57:34.000Z</Time>
            <Position>
              <LatitudeDegrees>40.8118866942822933197021484375</LatitudeDegrees>
              <LongitudeDegrees>-3.16603048704564571380615234375</LongitudeDegrees>
            </Position>
            <AltitudeMeters>772</AltitudeMeters>
            <DistanceMeters>20041.878893097</DistanceMeters>
          </Trackpoint>
          <Trackpoint>
            <Time>2021-07-27T09:57:40.000Z</Time>
            <Position>
              <LatitudeDegrees>40.8119926415383815765380859375</LatitudeDegrees>
              <LongitudeDegrees>-3.16591967828571796417236328125</LongitudeDegrees>
            </Position>
            <AltitudeMeters>772.79998779296875</AltitudeMeters>
            <DistanceMeters>20056.91835302</DistanceMeters>
          </Trackpoint>
          <Trackpoint>
            <Time>2021-07-27T09:57:54.000Z</Time>
            <Position>
              <LatitudeDegrees>40.8124427497386932373046875</LatitudeDegrees>
              <LongitudeDegrees>-3.1654621101915836334228515625</LongitudeDegrees>
            </Position>
            <AltitudeMeters>774</AltitudeMeters>
            <DistanceMeters>20120.128620574</DistanceMeters>
          </Trackpoint>
          <Trackpoint>
            <Time>2021-07-27T09:58:06.000Z</Time>
            <Position>
              <LatitudeDegrees>40.81287802197039127349853515625</LatitudeDegrees>
              <LongitudeDegrees>-3.16501627676188945770263671875</LongitudeDegrees>
            </Position>
            <AltitudeMeters>771.4000244140625</AltitudeMeters>
            <DistanceMeters>20181.427701723</DistanceMeters>
          </Trackpoint>
          <Trackpoint>
            <Time>2021-07-27T09:58:19.000Z</Time>
            <Position>
              <LatitudeDegrees>40.81333835609257221221923828125</LatitudeDegrees>
              <LongitudeDegrees>-3.164553344249725341796875</LongitudeDegrees>
            </Position>
            <AltitudeMeters>772.79998779296875</AltitudeMeters>
            <DistanceMeters>20245.816207428</DistanceMeters>
          </Trackpoint>
          <Trackpoint>
            <Time>2021-07-27T09:58:31.000Z</Time>
            <Position>
              <LatitudeDegrees>40.81378980539739131927490234375</LatitudeDegrees>
              <LongitudeDegrees>-3.16409393213689327239990234375</LongitudeDegrees>
            </Position>
            <AltitudeMeters>772</AltitudeMeters>
            <DistanceMeters>20309.23911821</DistanceMeters>
          </Trackpoint>
          <Trackpoint>
            <Time>2021-07-27T09:58:43.000Z</Time>
            <Position>
              <LatitudeDegrees>40.81422935239970684051513671875</LatitudeDegrees>
              <LongitudeDegrees>-3.1636465899646282196044921875</LongitudeDegrees>
            </Position>
            <AltitudeMeters>773</AltitudeMeters>
            <DistanceMeters>20370.991861326</DistanceMeters>
          </Trackpoint>
          <Trackpoint>
            <Time>2021-07-27T09:58:55.000Z</Time>
            <Position>
              <LatitudeDegrees>40.81465967930853366851806640625</LatitudeDegrees>
              <LongitudeDegrees>-3.163205869495868682861328125</LongitudeDegrees>
            </Position>
            <AltitudeMeters>771.5999755859375</AltitudeMeters>
            <DistanceMeters>20431.591344061</DistanceMeters>
          </Trackpoint>
          <Trackpoint>
            <Time>2021-07-27T09:59:06.000Z</Time>
            <Position>
              <LatitudeDegrees>40.815099813044071197509765625</LatitudeDegrees>
              <LongitudeDegrees>-3.1627661548554897308349609375</LongitudeDegrees>
            </Position>
            <AltitudeMeters>772</AltitudeMeters>
            <DistanceMeters>20493.005956083</DistanceMeters>
          </Trackpoint>
          <Trackpoint>
            <Time>2021-07-27T09:59:17.000Z</Time>
            <Position>
              <LatitudeDegrees>40.815550424158573150634765625</LatitudeDegrees>
              <LongitudeDegrees>-3.1623618118464946746826171875</LongitudeDegrees>
            </Position>
            <AltitudeMeters>771.5999755859375</AltitudeMeters>
            <DistanceMeters>20553.631808282</DistanceMeters>
          </Trackpoint>
          <Trackpoint>
            <Time>2021-07-27T09:59:19.000Z</Time>
            <Position>
              <LatitudeDegrees>40.81563315354287624359130859375</LatitudeDegrees>
              <LongitudeDegrees>-3.16229098476469516754150390625</LongitudeDegrees>
            </Position>
            <AltitudeMeters>772</AltitudeMeters>
            <DistanceMeters>20564.603587949</DistanceMeters>
          </Trackpoint>
          <Trackpoint>
            <Time>2021-07-27T09:59:31.000Z</Time>
            <Position>
              <LatitudeDegrees>40.81613673828542232513427734375</LatitudeDegrees>
              <LongitudeDegrees>-3.1619028188288211822509765625</LongitudeDegrees>
            </Position>
            <AltitudeMeters>772.20001220703125</AltitudeMeters>
            <DistanceMeters>20629.49354546</DistanceMeters>
          </Trackpoint>
          <Trackpoint>
            <Time>2021-07-27T09:59:36.000Z</Time>
            <Position>
              <LatitudeDegrees>40.8163507282733917236328125</LatitudeDegrees>
              <LongitudeDegrees>-3.1617546267807483673095703125</LongitudeDegrees>
            </Position>
            <AltitudeMeters>771.4000244140625</AltitudeMeters>
            <DistanceMeters>20656.38409085</DistanceMeters>
          </Trackpoint>
          <Trackpoint>
            <Time>2021-07-27T09:59:40.000Z</Time>
            <Position>
              <LatitudeDegrees>40.816466398537158966064453125</LatitudeDegrees>
              <LongitudeDegrees>-3.16156469285488128662109375</LongitudeDegrees>
            </Position>
            <AltitudeMeters>771</AltitudeMeters>
            <DistanceMeters>20676.919977247</DistanceMeters>
          </Trackpoint>
          <Trackpoint>
            <Time>2021-07-27T09:59:41.000Z</Time>
            <Position>
              <LatitudeDegrees>40.8164846710860729217529296875</LatitudeDegrees>
              <LongitudeDegrees>-3.16151012666523456573486328125</LongitudeDegrees>
            </Position>
            <AltitudeMeters>771.20001220703125</AltitudeMeters>
            <DistanceMeters>20681.946522173</DistanceMeters>
          </Trackpoint>
          <Trackpoint>
            <Time>2021-07-27T09:59:43.000Z</Time>
            <Position>
              <LatitudeDegrees>40.81651903688907623291015625</LatitudeDegrees>
              <LongitudeDegrees>-3.16140233539044857025146484375</LongitudeDegrees>
            </Position>
            <AltitudeMeters>771.79998779296875</AltitudeMeters>
            <DistanceMeters>20691.79910162</DistanceMeters>
          </Trackpoint>
          <Trackpoint>
            <Time>2021-07-27T09:59:48.000Z</Time>
            <Position>
              <LatitudeDegrees>40.8166690729558467864990234375</LatitudeDegrees>
              <LongitudeDegrees>-3.16118792630732059478759765625</LongitudeDegrees>
            </Position>
            <AltitudeMeters>772.5999755859375</AltitudeMeters>
            <DistanceMeters>20716.396890994</DistanceMeters>
          </Trackpoint>
          <Trackpoint>
            <Time>2021-07-27T10:00:01.000Z</Time>
            <Position>
              <LatitudeDegrees>40.817133598029613494873046875</LatitudeDegrees>
              <LongitudeDegrees>-3.16072055138647556304931640625</LongitudeDegrees>
            </Position>
            <AltitudeMeters>773.79998779296875</AltitudeMeters>
            <DistanceMeters>20781.38189465</DistanceMeters>
          </Trackpoint>
          <Trackpoint>
            <Time>2021-07-27T10:00:13.000Z</Time>
            <Position>
              <LatitudeDegrees>40.81756970845162868499755859375</LatitudeDegrees>
              <LongitudeDegrees>-3.16027983091771602630615234375</LongitudeDegrees>
            </Position>
            <AltitudeMeters>771.4000244140625</AltitudeMeters>
            <DistanceMeters>20842.490500364</DistanceMeters>
          </Trackpoint>
          <Trackpoint>
            <Time>2021-07-27T10:00:25.000Z</Time>
            <Position>
              <LatitudeDegrees>40.81802383996546268463134765625</LatitudeDegrees>
              <LongitudeDegrees>-3.15982150845229625701904296875</LongitudeDegrees>
            </Position>
            <AltitudeMeters>772.20001220703125</AltitudeMeters>
            <DistanceMeters>20906.092981332</DistanceMeters>
          </Trackpoint>
          <Trackpoint>
            <Time>2021-07-27T10:00:37.000Z</Time>
            <Position>
              <LatitudeDegrees>40.81846858374774456024169921875</LatitudeDegrees>
              <LongitudeDegrees>-3.159368969500064849853515625</LongitudeDegrees>
            </Position>
            <AltitudeMeters>773</AltitudeMeters>
            <DistanceMeters>20968.569559211</DistanceMeters>
          </Trackpoint>
          <Trackpoint>
            <Time>2021-07-27T10:00:39.000Z</Time>
            <Position>
              <LatitudeDegrees>40.81854301504790782928466796875</LatitudeDegrees>
              <LongitudeDegrees>-3.159296214580535888671875</LongitudeDegrees>
            </Position>
            <AltitudeMeters>772.5999755859375</AltitudeMeters>
            <DistanceMeters>20978.873715597</DistanceMeters>
          </Trackpoint>
          <Trackpoint>
            <Time>2021-07-27T10:00:50.000Z</Time>
            <Position>
              <LatitudeDegrees>40.81895557232201099395751953125</LatitudeDegrees>
              <LongitudeDegrees>-3.15887334756553173065185546875</LongitudeDegrees>
            </Position>
            <AltitudeMeters>771.4000244140625</AltitudeMeters>
            <DistanceMeters>21036.987349192</DistanceMeters>
          </Trackpoint>
          <Trackpoint>
            <Time>2021-07-27T10:01:01.000Z</Time>
            <Position>
              <LatitudeDegrees>40.81940853036940097808837890625</LatitudeDegrees>
              <LongitudeDegrees>-3.15841569565236568450927734375</LongitudeDegrees>
            </Position>
            <AltitudeMeters>771.5999755859375</AltitudeMeters>
            <DistanceMeters>21100.451251816</DistanceMeters>
          </Trackpoint>
          <Trackpoint>
            <Time>2021-07-27T10:01:08.000Z</Time>
            <Position>
              <LatitudeDegrees>40.8197194151580333709716796875</LatitudeDegrees>
              <LongitudeDegrees>-3.1581004522740840911865234375</LongitudeDegrees>
            </Position>
            <AltitudeMeters>771.5999755859375</AltitudeMeters>
            <DistanceMeters>21144.067582067</DistanceMeters>
          </Trackpoint>
          <Trackpoint>
            <Time>2021-07-27T10:01:17.000Z</Time>
            <Position>
              <LatitudeDegrees>40.82013021223247051239013671875</LatitudeDegrees>
              <LongitudeDegrees>-3.15769049338996410369873046875</LongitudeDegrees>
            </Position>
            <AltitudeMeters>770.79998779296875</AltitudeMeters>
            <DistanceMeters>21201.364356946</DistanceMeters>
          </Trackpoint>
          <Trackpoint>
            <Time>2021-07-27T10:01:25.000Z</Time>
            <Position>
              <LatitudeDegrees>40.82050018943846225738525390625</LatitudeDegrees>
              <LongitudeDegrees>-3.15731347538530826568603515625</LongitudeDegrees>
            </Position>
            <AltitudeMeters>769.4000244140625</AltitudeMeters>
            <DistanceMeters>21253.365941076</DistanceMeters>
          </Trackpoint>
          <Trackpoint>
            <Time>2021-07-27T10:01:34.000Z</Time>
            <Position>
              <LatitudeDegrees>40.8209066279232501983642578125</LatitudeDegrees>
              <LongitudeDegrees>-3.15682900138199329376220703125</LongitudeDegrees>
            </Position>
            <AltitudeMeters>769</AltitudeMeters>
            <DistanceMeters>21314.288811991</DistanceMeters>
          </Trackpoint>
          <Trackpoint>
            <Time>2021-07-27T10:01:38.000Z</Time>
            <Position>
              <LatitudeDegrees>40.82107183523476123809814453125</LatitudeDegrees>
              <LongitudeDegrees>-3.15656262449920177459716796875</LongitudeDegrees>
            </Position>
            <AltitudeMeters>768.5999755859375</AltitudeMeters>
            <DistanceMeters>21343.297652434</DistanceMeters>
          </Trackpoint>
          <Trackpoint>
            <Time>2021-07-27T10:01:43.000Z</Time>
            <Position>
              <LatitudeDegrees>40.82126361317932605743408203125</LatitudeDegrees>
              <LongitudeDegrees>-3.1561840139329433441162109375</LongitudeDegrees>
            </Position>
            <AltitudeMeters>768</AltitudeMeters>
            <DistanceMeters>21381.671741166</DistanceMeters>
          </Trackpoint>
          <Trackpoint>
            <Time>2021-07-27T10:01:46.000Z</Time>
            <Position>
              <LatitudeDegrees>40.8213646151125431060791015625</LatitudeDegrees>
              <LongitudeDegrees>-3.1559516675770282745361328125</LongitudeDegrees>
            </Position>
            <AltitudeMeters>767.79998779296875</AltitudeMeters>
            <DistanceMeters>21404.240535814</DistanceMeters>
          </Trackpoint>
          <Trackpoint>
            <Time>2021-07-27T10:01:50.000Z</Time>
            <Position>
              <LatitudeDegrees>40.82150098867714405059814453125</LatitudeDegrees>
              <LongitudeDegrees>-3.1556405313313007354736328125</LongitudeDegrees>
            </Position>
            <AltitudeMeters>767</AltitudeMeters>
            <DistanceMeters>21434.52529773</DistanceMeters>
          </Trackpoint>
          <Trackpoint>
            <Time>2021-07-27T10:01:53.000Z</Time>
            <Position>
              <LatitudeDegrees>40.82161783240735530853271484375</LatitudeDegrees>
              <LongitudeDegrees>-3.15537993796169757843017578125</LongitudeDegrees>
            </Position>
            <AltitudeMeters>766.20001220703125</AltitudeMeters>
            <DistanceMeters>21460.037802704</DistanceMeters>
          </Trackpoint>
          <Trackpoint>
            <Time>2021-07-27T10:01:55.000Z</Time>
            <Position>
              <LatitudeDegrees>40.821714811027050018310546875</LatitudeDegrees>
              <LongitudeDegrees>-3.15519981086254119873046875</LongitudeDegrees>
            </Position>
            <AltitudeMeters>765.20001220703125</AltitudeMeters>
            <DistanceMeters>21478.65721985</DistanceMeters>
          </Trackpoint>
          <Trackpoint>
            <Time>2021-07-27T10:01:57.000Z</Time>
            <Position>
              <LatitudeDegrees>40.8218286372721195220947265625</LatitudeDegrees>
              <LongitudeDegrees>-3.15501901321113109588623046875</LongitudeDegrees>
            </Position>
            <AltitudeMeters>764.79998779296875</AltitudeMeters>
            <DistanceMeters>21498.46658637</DistanceMeters>
          </Trackpoint>
          <Trackpoint>
            <Time>2021-07-27T10:01:59.000Z</Time>
            <Position>
              <LatitudeDegrees>40.82196232862770557403564453125</LatitudeDegrees>
              <LongitudeDegrees>-3.15484441816806793212890625</LongitudeDegrees>
            </Position>
            <AltitudeMeters>764</AltitudeMeters>
            <DistanceMeters>21519.387144324</DistanceMeters>
          </Trackpoint>
          <Trackpoint>
            <Time>2021-07-27T10:02:01.000Z</Time>
            <Position>
              <LatitudeDegrees>40.82211269997060298919677734375</LatitudeDegrees>
              <LongitudeDegrees>-3.15467870794236660003662109375</LongitudeDegrees>
            </Position>
            <AltitudeMeters>762.5999755859375</AltitudeMeters>
            <DistanceMeters>21541.179983526</DistanceMeters>
          </Trackpoint>
          <Trackpoint>
            <Time>2021-07-27T10:02:04.000Z</Time>
            <Position>
              <LatitudeDegrees>40.82236700691282749176025390625</LatitudeDegrees>
              <LongitudeDegrees>-3.15445625223219394683837890625</LongitudeDegrees>
            </Position>
            <AltitudeMeters>760.5999755859375</AltitudeMeters>
            <DistanceMeters>21575.124611293</DistanceMeters>
          </Trackpoint>
          <Trackpoint>
            <Time>2021-07-27T10:02:06.000Z</Time>
            <Position>
              <LatitudeDegrees>40.82255358807742595672607421875</LatitudeDegrees>
              <LongitudeDegrees>-3.15432448871433734893798828125</LongitudeDegrees>
            </Position>
            <AltitudeMeters>759.20001220703125</AltitudeMeters>
            <DistanceMeters>21598.670727819</DistanceMeters>
          </Trackpoint>
          <Trackpoint>
            <Time>2021-07-27T10:02:08.000Z</Time>
            <Position>
              <LatitudeDegrees>40.8227519877254962921142578125</LatitudeDegrees>
              <LongitudeDegrees>-3.15420605242252349853515625</LongitudeDegrees>
            </Position>
            <AltitudeMeters>756.20001220703125</AltitudeMeters>
            <DistanceMeters>21622.901608331</DistanceMeters>
          </Trackpoint>
          <Trackpoint>
            <Time>2021-07-27T10:02:10.000Z</Time>
            <Position>
              <LatitudeDegrees>40.82295860163867473602294921875</LatitudeDegrees>
              <LongitudeDegrees>-3.15409314818680286407470703125</LongitudeDegrees>
            </Position>
            <AltitudeMeters>753</AltitudeMeters>
            <DistanceMeters>21647.786998473</DistanceMeters>
          </Trackpoint>
          <Trackpoint>
            <Time>2021-07-27T10:02:12.000Z</Time>
            <Position>
              <LatitudeDegrees>40.82316932268440723419189453125</LatitudeDegrees>
              <LongitudeDegrees>-3.15397680737078189849853515625</LongitudeDegrees>
            </Position>
            <AltitudeMeters>750.4000244140625</AltitudeMeters>
            <DistanceMeters>21673.205356789</DistanceMeters>
          </Trackpoint>
          <Trackpoint>
            <Time>2021-07-27T10:02:13.000Z</Time>
            <Position>
              <LatitudeDegrees>40.823275856673717498779296875</LatitudeDegrees>
              <LongitudeDegrees>-3.153918720781803131103515625</LongitudeDegrees>
            </Position>
            <AltitudeMeters>749</AltitudeMeters>
            <DistanceMeters>21686.032203354</DistanceMeters>
          </Trackpoint>
          <Trackpoint>
            <Time>2021-07-27T10:02:15.000Z</Time>
            <Position>
              <LatitudeDegrees>40.82349102012813091278076171875</LatitudeDegrees>
              <LongitudeDegrees>-3.15380699001252651214599609375</LongitudeDegrees>
            </Position>
            <AltitudeMeters>746.4000244140625</AltitudeMeters>
            <DistanceMeters>21711.762868809</DistanceMeters>
          </Trackpoint>
          <Trackpoint>
            <Time>2021-07-27T10:02:17.000Z</Time>
            <Position>
              <LatitudeDegrees>40.82371096126735210418701171875</LatitudeDegrees>
              <LongitudeDegrees>-3.15370003692805767059326171875</LongitudeDegrees>
            </Position>
            <AltitudeMeters>743.5999755859375</AltitudeMeters>
            <DistanceMeters>21737.847658631</DistanceMeters>
          </Trackpoint>
          <Trackpoint>
            <Time>2021-07-27T10:02:20.000Z</Time>
            <Position>
              <LatitudeDegrees>40.82404254935681819915771484375</LatitudeDegrees>
              <LongitudeDegrees>-3.1535346619784832000732421875</LongitudeDegrees>
            </Position>
            <AltitudeMeters>740.4000244140625</AltitudeMeters>
            <DistanceMeters>21777.29496352</DistanceMeters>
          </Trackpoint>
          <Trackpoint>
            <Time>2021-07-27T10:02:23.000Z</Time>
            <Position>
              <LatitudeDegrees>40.824362821877002716064453125</LatitudeDegrees>
              <LongitudeDegrees>-3.15336828120052814483642578125</LongitudeDegrees>
            </Position>
            <AltitudeMeters>743</AltitudeMeters>
            <DistanceMeters>21815.597449073</DistanceMeters>
          </Trackpoint>
          <Trackpoint>
            <Time>2021-07-27T10:02:29.000Z</Time>
            <Position>
              <LatitudeDegrees>40.82488593645393848419189453125</LatitudeDegrees>
              <LongitudeDegrees>-3.15308597870171070098876953125</LongitudeDegrees>
            </Position>
            <AltitudeMeters>747.79998779296875</AltitudeMeters>
            <DistanceMeters>21878.488767741</DistanceMeters>
          </Trackpoint>
          <Trackpoint>
            <Time>2021-07-27T10:02:36.000Z</Time>
            <Position>
              <LatitudeDegrees>40.82543880678713321685791015625</LatitudeDegrees>
              <LongitudeDegrees>-3.15274651162326335906982421875</LongitudeDegrees>
            </Position>
            <AltitudeMeters>744.79998779296875</AltitudeMeters>
            <DistanceMeters>21946.342034027</DistanceMeters>
          </Trackpoint>
          <Trackpoint>
            <Time>2021-07-27T10:02:41.000Z</Time>
            <Position>
              <LatitudeDegrees>40.8257813751697540283203125</LatitudeDegrees>
              <LongitudeDegrees>-3.15241492353379726409912109375</LongitudeDegrees>
            </Position>
            <AltitudeMeters>745</AltitudeMeters>
            <DistanceMeters>21993.604236996</DistanceMeters>
          </Trackpoint>
          <Trackpoint>
            <Time>2021-07-27T10:02:45.000Z</Time>
            <Position>
              <LatitudeDegrees>40.82599787972867488861083984375</LatitudeDegrees>
              <LongitudeDegrees>-3.152072019875049591064453125</LongitudeDegrees>
            </Position>
            <AltitudeMeters>745</AltitudeMeters>
            <DistanceMeters>22031.217414295</DistanceMeters>
          </Trackpoint>
          <Trackpoint>
            <Time>2021-07-27T10:02:47.000Z</Time>
            <Position>
              <LatitudeDegrees>40.82609276287257671356201171875</LatitudeDegrees>
              <LongitudeDegrees>-3.1518871150910854339599609375</LongitudeDegrees>
            </Position>
            <AltitudeMeters>745</AltitudeMeters>
            <DistanceMeters>22050.033423626</DistanceMeters>
          </Trackpoint>
          <Trackpoint>
            <Time>2021-07-27T10:02:52.000Z</Time>
            <Position>
              <LatitudeDegrees>40.8263173140585422515869140625</LatitudeDegrees>
              <LongitudeDegrees>-3.15142191946506500244140625</LongitudeDegrees>
            </Position>
            <AltitudeMeters>744.20001220703125</AltitudeMeters>
            <DistanceMeters>22096.505761987</DistanceMeters>
          </Trackpoint>
          <Trackpoint>
            <Time>2021-07-27T10:02:53.000Z</Time>
            <Position>
              <LatitudeDegrees>40.826369114220142364501953125</LatitudeDegrees>
              <LongitudeDegrees>-3.151341117918491363525390625</LongitudeDegrees>
            </Position>
            <AltitudeMeters>743.79998779296875</AltitudeMeters>
            <DistanceMeters>22105.424615242</DistanceMeters>
          </Trackpoint>
          <Trackpoint>
            <Time>2021-07-27T10:02:58.000Z</Time>
            <Position>
              <LatitudeDegrees>40.826703719794750213623046875</LatitudeDegrees>
              <LongitudeDegrees>-3.15108588896691799163818359375</LongitudeDegrees>
            </Position>
            <AltitudeMeters>740.79998779296875</AltitudeMeters>
            <DistanceMeters>22148.425227251</DistanceMeters>
          </Trackpoint>
          <Trackpoint>
            <Time>2021-07-27T10:03:00.000Z</Time>
            <Position>
              <LatitudeDegrees>40.82684763707220554351806640625</LatitudeDegrees>
              <LongitudeDegrees>-3.15104372799396514892578125</LongitudeDegrees>
            </Position>
            <AltitudeMeters>739.79998779296875</AltitudeMeters>
            <DistanceMeters>22164.83268406</DistanceMeters>
          </Trackpoint>
          <Trackpoint>
            <Time>2021-07-27T10:03:06.000Z</Time>
            <Position>
              <LatitudeDegrees>40.8271531574428081512451171875</LatitudeDegrees>
              <LongitudeDegrees>-3.1513687781989574432373046875</LongitudeDegrees>
            </Position>
            <AltitudeMeters>741.20001220703125</AltitudeMeters>
            <DistanceMeters>22208.488022834</DistanceMeters>
          </Trackpoint>
          <Trackpoint>
            <Time>2021-07-27T10:03:09.000Z</Time>
            <Position>
              <LatitudeDegrees>40.82725600339472293853759765625</LatitudeDegrees>
              <LongitudeDegrees>-3.1515816785395145416259765625</LongitudeDegrees>
            </Position>
            <AltitudeMeters>741.4000244140625</AltitudeMeters>
            <DistanceMeters>22229.760851769</DistanceMeters>
          </Trackpoint>
          <Trackpoint>
            <Time>2021-07-27T10:03:17.000Z</Time>
            <Position>
              <LatitudeDegrees>40.82767006941139698028564453125</LatitudeDegrees>
              <LongitudeDegrees>-3.1515635736286640167236328125</LongitudeDegrees>
            </Position>
            <AltitudeMeters>739</AltitudeMeters>
            <DistanceMeters>22275.87250984</DistanceMeters>
          </Trackpoint>
          <Trackpoint>
            <Time>2021-07-27T10:03:21.000Z</Time>
            <Position>
              <LatitudeDegrees>40.827880539000034332275390625</LatitudeDegrees>
              <LongitudeDegrees>-3.15140976570546627044677734375</LongitudeDegrees>
            </Position>
            <AltitudeMeters>739</AltitudeMeters>
            <DistanceMeters>22302.641047827</DistanceMeters>
          </Trackpoint>
          <Trackpoint>
            <Time>2021-07-27T10:03:31.000Z</Time>
            <Position>
              <LatitudeDegrees>40.82838119007647037506103515625</LatitudeDegrees>
              <LongitudeDegrees>-3.1510256230831146240234375</LongitudeDegrees>
            </Position>
            <AltitudeMeters>739</AltitudeMeters>
            <DistanceMeters>22367.075326801</DistanceMeters>
          </Trackpoint>
          <Trackpoint>
            <Time>2021-07-27T10:03:42.000Z</Time>
            <Position>
              <LatitudeDegrees>40.82888192497193813323974609375</LatitudeDegrees>
              <LongitudeDegrees>-3.15063008107244968414306640625</LongitudeDegrees>
            </Position>
            <AltitudeMeters>737.5999755859375</AltitudeMeters>
            <DistanceMeters>22432.004863217</DistanceMeters>
          </Trackpoint>
          <Trackpoint>
            <Time>2021-07-27T10:03:53.000Z</Time>
            <Position>
              <LatitudeDegrees>40.8293488807976245880126953125</LatitudeDegrees>
              <LongitudeDegrees>-3.1501949764788150787353515625</LongitudeDegrees>
            </Position>
            <AltitudeMeters>737</AltitudeMeters>
            <DistanceMeters>22495.597121034</DistanceMeters>
          </Trackpoint>
          <Trackpoint>
            <Time>2021-07-27T10:03:58.000Z</Time>
            <Position>
              <LatitudeDegrees>40.82955683581531047821044921875</LatitudeDegrees>
              <LongitudeDegrees>-3.15000797621905803680419921875</LongitudeDegrees>
            </Position>
            <AltitudeMeters>737</AltitudeMeters>
            <DistanceMeters>22523.592449121</DistanceMeters>
          </Trackpoint>
          <Trackpoint>
            <Time>2021-07-27T10:04:00.000Z</Time>
            <Position>
              <LatitudeDegrees>40.8296385593712329864501953125</LatitudeDegrees>
              <LongitudeDegrees>-3.14994259737432003021240234375</LongitudeDegrees>
            </Position>
            <AltitudeMeters>737</AltitudeMeters>
            <DistanceMeters>22534.224830181</DistanceMeters>
          </Trackpoint>
          <Trackpoint>
            <Time>2021-07-27T10:04:15.000Z</Time>
            <Position>
              <LatitudeDegrees>40.83007282577455043792724609375</LatitudeDegrees>
              <LongitudeDegrees>-3.1498556770384311676025390625</LongitudeDegrees>
            </Position>
            <AltitudeMeters>737</AltitudeMeters>
            <DistanceMeters>22583.110695122</DistanceMeters>
          </Trackpoint>
          <Trackpoint>
            <Time>2021-07-27T10:04:18.000Z</Time>
            <Position>
              <LatitudeDegrees>40.83009277470409870147705078125</LatitudeDegrees>
              <LongitudeDegrees>-3.14988845027983188629150390625</LongitudeDegrees>
            </Position>
            <AltitudeMeters>737</AltitudeMeters>
            <DistanceMeters>22586.653547964</DistanceMeters>
          </Trackpoint>
          <Trackpoint>
            <Time>2021-07-27T10:10:26.000Z</Time>
            <Position>
              <LatitudeDegrees>40.8300465904176235198974609375</LatitudeDegrees>
              <LongitudeDegrees>-3.149853162467479705810546875</LongitudeDegrees>
            </Position>
            <AltitudeMeters>737</AltitudeMeters>
            <DistanceMeters>22592.591006885</DistanceMeters>
          </Trackpoint>
          <Trackpoint>
            <Time>2021-07-27T10:10:38.000Z</Time>
            <Position>
              <LatitudeDegrees>40.83010031841695308685302734375</LatitudeDegrees>
              <LongitudeDegrees>-3.1495167128741741180419921875</LongitudeDegrees>
            </Position>
            <AltitudeMeters>737</AltitudeMeters>
            <DistanceMeters>22621.549998569</DistanceMeters>
          </Trackpoint>
          <Trackpoint>
            <Time>2021-07-27T10:10:51.000Z</Time>
            <Position>
              <LatitudeDegrees>40.83056299947202205657958984375</LatitudeDegrees>
              <LongitudeDegrees>-3.1491277925670146942138671875</LongitudeDegrees>
            </Position>
            <AltitudeMeters>737.79998779296875</AltitudeMeters>
            <DistanceMeters>22682.58082727</DistanceMeters>
          </Trackpoint>
          <Trackpoint>
            <Time>2021-07-27T10:11:04.000Z</Time>
            <Position>
              <LatitudeDegrees>40.83105937577784061431884765625</LatitudeDegrees>
              <LongitudeDegrees>-3.14872437156736850738525390625</LongitudeDegrees>
            </Position>
            <AltitudeMeters>736.5999755859375</AltitudeMeters>
            <DistanceMeters>22747.438909347</DistanceMeters>
          </Trackpoint>
          <Trackpoint>
            <Time>2021-07-27T10:11:16.000Z</Time>
            <Position>
              <LatitudeDegrees>40.83154954947531223297119140625</LatitudeDegrees>
              <LongitudeDegrees>-3.1483489461243152618408203125</LongitudeDegrees>
            </Position>
            <AltitudeMeters>737</AltitudeMeters>
            <DistanceMeters>22810.495346209</DistanceMeters>
          </Trackpoint>
          <Trackpoint>
            <Time>2021-07-27T10:11:28.000Z</Time>
            <Position>
              <LatitudeDegrees>40.83205305039882659912109375</LatitudeDegrees>
              <LongitudeDegrees>-3.14794309437274932861328125</LongitudeDegrees>
            </Position>
            <AltitudeMeters>736</AltitudeMeters>
            <DistanceMeters>22876.136386158</DistanceMeters>
          </Trackpoint>
          <Trackpoint>
            <Time>2021-07-27T10:11:39.000Z</Time>
            <Position>
              <LatitudeDegrees>40.83252252079546451568603515625</LatitudeDegrees>
              <LongitudeDegrees>-3.147569261491298675537109375</LongitudeDegrees>
            </Position>
            <AltitudeMeters>736.20001220703125</AltitudeMeters>
            <DistanceMeters>22937.140428354</DistanceMeters>
          </Trackpoint>
          <Trackpoint>
            <Time>2021-07-27T10:11:50.000Z</Time>
            <Position>
              <LatitudeDegrees>40.83299777470529079437255859375</LatitudeDegrees>
              <LongitudeDegrees>-3.1471888907253742218017578125</LongitudeDegrees>
            </Position>
            <AltitudeMeters>736.20001220703125</AltitudeMeters>
            <DistanceMeters>22998.979970826</DistanceMeters>
          </Trackpoint>
          <Trackpoint>
            <Time>2021-07-27T10:12:01.000Z</Time>
            <Position>
              <LatitudeDegrees>40.83348124288022518157958984375</LatitudeDegrees>
              <LongitudeDegrees>-3.1467982940375804901123046875</LongitudeDegrees>
            </Position>
            <AltitudeMeters>738.5999755859375</AltitudeMeters>
            <DistanceMeters>23062.048077919</DistanceMeters>
          </Trackpoint>
          <Trackpoint>
            <Time>2021-07-27T10:12:12.000Z</Time>
            <Position>
              <LatitudeDegrees>40.8339458517730236053466796875</LatitudeDegrees>
              <LongitudeDegrees>-3.1463503651320934295654296875</LongitudeDegrees>
            </Position>
            <AltitudeMeters>736.20001220703125</AltitudeMeters>
            <DistanceMeters>23126.055888873</DistanceMeters>
          </Trackpoint>
          <Trackpoint>
            <Time>2021-07-27T10:12:23.000Z</Time>
            <Position>
              <LatitudeDegrees>40.8343267254531383514404296875</LatitudeDegrees>
              <LongitudeDegrees>-3.14575432799756526947021484375</LongitudeDegrees>
            </Position>
            <AltitudeMeters>736</AltitudeMeters>
            <DistanceMeters>23191.75557518</DistanceMeters>
          </Trackpoint>
          <Trackpoint>
            <Time>2021-07-27T10:12:33.000Z</Time>
            <Position>
              <LatitudeDegrees>40.8346261270344257354736328125</LatitudeDegrees>
              <LongitudeDegrees>-3.14514689147472381591796875</LongitudeDegrees>
            </Position>
            <AltitudeMeters>739</AltitudeMeters>
            <DistanceMeters>23252.805709511</DistanceMeters>
          </Trackpoint>
          <Trackpoint>
            <Time>2021-07-27T10:12:38.000Z</Time>
            <Position>
              <LatitudeDegrees>40.83476987667381763458251953125</LatitudeDegrees>
              <LongitudeDegrees>-3.14484120346605777740478515625</LongitudeDegrees>
            </Position>
            <AltitudeMeters>738.5999755859375</AltitudeMeters>
            <DistanceMeters>23283.114911691</DistanceMeters>
          </Trackpoint>
          <Trackpoint>
            <Time>2021-07-27T10:12:49.000Z</Time>
            <Position>
              <LatitudeDegrees>40.83508796989917755126953125</LatitudeDegrees>
              <LongitudeDegrees>-3.1441928632557392120361328125</LongitudeDegrees>
            </Position>
            <AltitudeMeters>736.4000244140625</AltitudeMeters>
            <DistanceMeters>23348.186635702</DistanceMeters>
          </Trackpoint>
          <Trackpoint>
            <Time>2021-07-27T10:13:00.000Z</Time>
            <Position>
              <LatitudeDegrees>40.8354059793055057525634765625</LatitudeDegrees>
              <LongitudeDegrees>-3.14356480725109577178955078125</LongitudeDegrees>
            </Position>
            <AltitudeMeters>737.4000244140625</AltitudeMeters>
            <DistanceMeters>23411.826587506</DistanceMeters>
          </Trackpoint>
          <Trackpoint>
            <Time>2021-07-27T10:13:11.000Z</Time>
            <Position>
              <LatitudeDegrees>40.83578039892017841339111328125</LatitudeDegrees>
              <LongitudeDegrees>-3.14297891221940517425537109375</LongitudeDegrees>
            </Position>
            <AltitudeMeters>737.5999755859375</AltitudeMeters>
            <DistanceMeters>23476.409388072</DistanceMeters>
          </Trackpoint>
          <Trackpoint>
            <Time>2021-07-27T10:13:21.000Z</Time>
            <Position>
              <LatitudeDegrees>40.83616898395121097564697265625</LatitudeDegrees>
              <LongitudeDegrees>-3.14248169772326946258544921875</LongitudeDegrees>
            </Position>
            <AltitudeMeters>737</AltitudeMeters>
            <DistanceMeters>23536.606617796</DistanceMeters>
          </Trackpoint>
          <Trackpoint>
            <Time>2021-07-27T10:13:31.000Z</Time>
            <Position>
              <LatitudeDegrees>40.8365579880774021148681640625</LatitudeDegrees>
              <LongitudeDegrees>-3.14195950515568256378173828125</LongitudeDegrees>
            </Position>
            <AltitudeMeters>733.20001220703125</AltitudeMeters>
            <DistanceMeters>23598.317817743</DistanceMeters>
          </Trackpoint>
          <Trackpoint>
            <Time>2021-07-27T10:13:41.000Z</Time>
            <Position>
              <LatitudeDegrees>40.8368661068379878997802734375</LatitudeDegrees>
              <LongitudeDegrees>-3.14136254601180553436279296875</LongitudeDegrees>
            </Position>
            <AltitudeMeters>732.79998779296875</AltitudeMeters>
            <DistanceMeters>23659.170539524</DistanceMeters>
          </Trackpoint>
          <Trackpoint>
            <Time>2021-07-27T10:13:52.000Z</Time>
            <Position>
              <LatitudeDegrees>40.83717933855950832366943359375</LatitudeDegrees>
              <LongitudeDegrees>-3.14070423133671283721923828125</LongitudeDegrees>
            </Position>
            <AltitudeMeters>734.20001220703125</AltitudeMeters>
            <DistanceMeters>23724.657460467</DistanceMeters>
          </Trackpoint>
          <Trackpoint>
            <Time>2021-07-27T10:14:03.000Z</Time>
            <Position>
              <LatitudeDegrees>40.83751327358186244964599609375</LatitudeDegrees>
              <LongitudeDegrees>-3.1400983035564422607421875</LongitudeDegrees>
            </Position>
            <AltitudeMeters>735</AltitudeMeters>
            <DistanceMeters>23787.783099582</DistanceMeters>
          </Trackpoint>
          <Trackpoint>
            <Time>2021-07-27T10:14:07.000Z</Time>
            <Position>
              <LatitudeDegrees>40.83765643648803234100341796875</LatitudeDegrees>
              <LongitudeDegrees>-3.13990610651671886444091796875</LongitudeDegrees>
            </Position>
            <AltitudeMeters>735.20001220703125</AltitudeMeters>
            <DistanceMeters>23810.495080711</DistanceMeters>
          </Trackpoint>
          <Trackpoint>
            <Time>2021-07-27T10:14:09.000Z</Time>
            <Position>
              <LatitudeDegrees>40.83773438818752765655517578125</LatitudeDegrees>
              <LongitudeDegrees>-3.13982429914176464080810546875</LongitudeDegrees>
            </Position>
            <AltitudeMeters>735.20001220703125</AltitudeMeters>
            <DistanceMeters>23821.573744846</DistanceMeters>
          </Trackpoint>
          <Trackpoint>
            <Time>2021-07-27T10:14:13.000Z</Time>
            <Position>
              <LatitudeDegrees>40.8379249088466167449951171875</LatitudeDegrees>
              <LongitudeDegrees>-3.13973058946430683135986328125</LongitudeDegrees>
            </Position>
            <AltitudeMeters>735.4000244140625</AltitudeMeters>
            <DistanceMeters>23844.199683363</DistanceMeters>
          </Trackpoint>
          <Trackpoint>
            <Time>2021-07-27T10:14:15.000Z</Time>
            <Position>
              <LatitudeDegrees>40.83802230656147003173828125</LatitudeDegrees>
              <LongitudeDegrees>-3.139690943062305450439453125</LongitudeDegrees>
            </Position>
            <AltitudeMeters>735.20001220703125</AltitudeMeters>
            <DistanceMeters>23855.54254584</DistanceMeters>
          </Trackpoint>
          <Trackpoint>
            <Time>2021-07-27T10:14:20.000Z</Time>
            <Position>
              <LatitudeDegrees>40.8382145874202251434326171875</LatitudeDegrees>
              <LongitudeDegrees>-3.139477707445621490478515625</LongitudeDegrees>
            </Position>
            <AltitudeMeters>734.20001220703125</AltitudeMeters>
            <DistanceMeters>23883.478460477</DistanceMeters>
          </Trackpoint>
          <Trackpoint>
            <Time>2021-07-27T10:14:24.000Z</Time>
            <Position>
              <LatitudeDegrees>40.83840946666896343231201171875</LatitudeDegrees>
              <LongitudeDegrees>-3.13937150873243808746337890625</LongitudeDegrees>
            </Position>
            <AltitudeMeters>734</AltitudeMeters>
            <DistanceMeters>23906.940053982</DistanceMeters>
          </Trackpoint>
          <Trackpoint>
            <Time>2021-07-27T10:14:27.000Z</Time>
            <Position>
              <LatitudeDegrees>40.8385646156966686248779296875</LatitudeDegrees>
              <LongitudeDegrees>-3.13930814154446125030517578125</LongitudeDegrees>
            </Position>
            <AltitudeMeters>733.5999755859375</AltitudeMeters>
            <DistanceMeters>23925.014125063</DistanceMeters>
          </Trackpoint>
          <Trackpoint>
            <Time>2021-07-27T10:14:29.000Z</Time>
            <Position>
              <LatitudeDegrees>40.8386578224599361419677734375</LatitudeDegrees>
              <LongitudeDegrees>-3.13922859728336334228515625</LongitudeDegrees>
            </Position>
            <AltitudeMeters>733.20001220703125</AltitudeMeters>
            <DistanceMeters>23937.362480048</DistanceMeters>
          </Trackpoint>
          <Trackpoint>
            <Time>2021-07-27T10:14:31.000Z</Time>
            <Position>
              <LatitudeDegrees>40.83873803727328777313232421875</LatitudeDegrees>
              <LongitudeDegrees>-3.1391192972660064697265625</LongitudeDegrees>
            </Position>
            <AltitudeMeters>732.79998779296875</AltitudeMeters>
            <DistanceMeters>23950.185101928</DistanceMeters>
          </Trackpoint>
          <Trackpoint>
            <Time>2021-07-27T10:14:37.000Z</Time>
            <Position>
              <LatitudeDegrees>40.8389894105494022369384765625</LatitudeDegrees>
              <LongitudeDegrees>-3.138778991997241973876953125</LongitudeDegrees>
            </Position>
            <AltitudeMeters>731</AltitudeMeters>
            <DistanceMeters>23990.234324619</DistanceMeters>
          </Trackpoint>
          <Trackpoint>
            <Time>2021-07-27T10:14:42.000Z</Time>
            <Position>
              <LatitudeDegrees>40.8392418734729290008544921875</LatitudeDegrees>
              <LongitudeDegrees>-3.13849275000393390655517578125</LongitudeDegrees>
            </Position>
            <AltitudeMeters>730</AltitudeMeters>
            <DistanceMeters>24027.255249545</DistanceMeters>
          </Trackpoint>
          <Trackpoint>
            <Time>2021-07-27T10:14:45.000Z</Time>
            <Position>
              <LatitudeDegrees>40.839424766600131988525390625</LatitudeDegrees>
              <LongitudeDegrees>-3.138338439166545867919921875</LongitudeDegrees>
            </Position>
            <AltitudeMeters>729.4000244140625</AltitudeMeters>
            <DistanceMeters>24051.405125677</DistanceMeters>
          </Trackpoint>
          <Trackpoint>
            <Time>2021-07-27T10:14:49.000Z</Time>
            <Position>
              <LatitudeDegrees>40.8396827615797519683837890625</LatitudeDegrees>
              <LongitudeDegrees>-3.1381240300834178924560546875</LongitudeDegrees>
            </Position>
            <AltitudeMeters>729.4000244140625</AltitudeMeters>
            <DistanceMeters>24085.324471775</DistanceMeters>
          </Trackpoint>
          <Trackpoint>
            <Time>2021-07-27T10:14:52.000Z</Time>
            <Position>
              <LatitudeDegrees>40.83989189006388187408447265625</LatitudeDegrees>
              <LongitudeDegrees>-3.137972988188266754150390625</LongitudeDegrees>
            </Position>
            <AltitudeMeters>730.20001220703125</AltitudeMeters>
            <DistanceMeters>24111.849013541</DistanceMeters>
          </Trackpoint>
          <Trackpoint>
            <Time>2021-07-27T10:14:56.000Z</Time>
            <Position>
              <LatitudeDegrees>40.840195231139659881591796875</LatitudeDegrees>
              <LongitudeDegrees>-3.13779688440263271331787109375</LongitudeDegrees>
            </Position>
            <AltitudeMeters>731.20001220703125</AltitudeMeters>
            <DistanceMeters>24148.724521557</DistanceMeters>
          </Trackpoint>
          <Trackpoint>
            <Time>2021-07-27T10:15:00.000Z</Time>
            <Position>
              <LatitudeDegrees>40.84053142927587032318115234375</LatitudeDegrees>
              <LongitudeDegrees>-3.1376613490283489227294921875</LongitudeDegrees>
            </Position>
            <AltitudeMeters>729.79998779296875</AltitudeMeters>
            <DistanceMeters>24187.845763053</DistanceMeters>
          </Trackpoint>
          <Trackpoint>
            <Time>2021-07-27T10:15:04.000Z</Time>
            <Position>
              <LatitudeDegrees>40.8408964611589908599853515625</LatitudeDegrees>
              <LongitudeDegrees>-3.13753545284271240234375</LongitudeDegrees>
            </Position>
            <AltitudeMeters>725.4000244140625</AltitudeMeters>
            <DistanceMeters>24229.834669269</DistanceMeters>
          </Trackpoint>
          <Trackpoint>
            <Time>2021-07-27T10:15:05.000Z</Time>
            <Position>
              <LatitudeDegrees>40.84099042229354381561279296875</LatitudeDegrees>
              <LongitudeDegrees>-3.137502931058406829833984375</LongitudeDegrees>
            </Position>
            <AltitudeMeters>724.4000244140625</AltitudeMeters>
            <DistanceMeters>24240.645184952</DistanceMeters>
          </Trackpoint>
          <Trackpoint>
            <Time>2021-07-27T10:15:07.000Z</Time>
            <Position>
              <LatitudeDegrees>40.8411804400384426116943359375</LatitudeDegrees>
              <LongitudeDegrees>-3.13743746839463710784912109375</LongitudeDegrees>
            </Position>
            <AltitudeMeters>722.4000244140625</AltitudeMeters>
            <DistanceMeters>24262.501122676</DistanceMeters>
          </Trackpoint>
          <Trackpoint>
            <Time>2021-07-27T10:15:10.000Z</Time>
            <Position>
              <LatitudeDegrees>40.84146953187882900238037109375</LatitudeDegrees>
              <LongitudeDegrees>-3.13734032213687896728515625</LongitudeDegrees>
            </Position>
            <AltitudeMeters>719.79998779296875</AltitudeMeters>
            <DistanceMeters>24295.701095884</DistanceMeters>
          </Trackpoint>
          <Trackpoint>
            <Time>2021-07-27T10:15:12.000Z</Time>
            <Position>
              <LatitudeDegrees>40.84166114218533039093017578125</LatitudeDegrees>
              <LongitudeDegrees>-3.13727469183504581451416015625</LongitudeDegrees>
            </Position>
            <AltitudeMeters>719</AltitudeMeters>
            <DistanceMeters>24317.731928342</DistanceMeters>
          </Trackpoint>
          <Trackpoint>
            <Time>2021-07-27T10:15:16.000Z</Time>
            <Position>
              <LatitudeDegrees>40.8420360647141933441162109375</LatitudeDegrees>
              <LongitudeDegrees>-3.13714460469782352447509765625</LongitudeDegrees>
            </Position>
            <AltitudeMeters>719.20001220703125</AltitudeMeters>
            <DistanceMeters>24360.875207855</DistanceMeters>
          </Trackpoint>
          <Trackpoint>
            <Time>2021-07-27T10:15:23.000Z</Time>
            <Position>
              <LatitudeDegrees>40.84263176657259464263916015625</LatitudeDegrees>
              <LongitudeDegrees>-3.13692449592053890228271484375</LongitudeDegrees>
            </Position>
            <AltitudeMeters>719</AltitudeMeters>
            <DistanceMeters>24429.719553902</DistanceMeters>
          </Trackpoint>
          <Trackpoint>
            <Time>2021-07-27T10:15:28.000Z</Time>
            <Position>
              <LatitudeDegrees>40.84298414178192615509033203125</LatitudeDegrees>
              <LongitudeDegrees>-3.13678485341370105743408203125</LongitudeDegrees>
            </Position>
            <AltitudeMeters>716.79998779296875</AltitudeMeters>
            <DistanceMeters>24470.664160165</DistanceMeters>
          </Trackpoint>
          <Trackpoint>
            <Time>2021-07-27T10:15:31.000Z</Time>
            <Position>
              <LatitudeDegrees>40.843174159526824951171875</LatitudeDegrees>
              <LongitudeDegrees>-3.13673540018498897552490234375</LongitudeDegrees>
            </Position>
            <AltitudeMeters>716.4000244140625</AltitudeMeters>
            <DistanceMeters>24492.219520365</DistanceMeters>
          </Trackpoint>
          <Trackpoint>
            <Time>2021-07-27T10:15:41.000Z</Time>
            <Position>
              <LatitudeDegrees>40.8437499962747097015380859375</LatitudeDegrees>
              <LongitudeDegrees>-3.13676071353256702423095703125</LongitudeDegrees>
            </Position>
            <AltitudeMeters>718</AltitudeMeters>
            <DistanceMeters>24556.346712823</DistanceMeters>
          </Trackpoint>
          <Trackpoint>
            <Time>2021-07-27T10:15:51.000Z</Time>
            <Position>
              <LatitudeDegrees>40.84430328570306301116943359375</LatitudeDegrees>
              <LongitudeDegrees>-3.13693530857563018798828125</LongitudeDegrees>
            </Position>
            <AltitudeMeters>719.20001220703125</AltitudeMeters>
            <DistanceMeters>24619.659255212</DistanceMeters>
          </Trackpoint>
          <Trackpoint>
            <Time>2021-07-27T10:16:00.000Z</Time>
            <Position>
              <LatitudeDegrees>40.84479815326631069183349609375</LatitudeDegrees>
              <LongitudeDegrees>-3.13695668242871761322021484375</LongitudeDegrees>
            </Position>
            <AltitudeMeters>720</AltitudeMeters>
            <DistanceMeters>24674.768523307</DistanceMeters>
          </Trackpoint>
          <Trackpoint>
            <Time>2021-07-27T10:16:01.000Z</Time>
            <Position>
              <LatitudeDegrees>40.84485414437949657440185546875</LatitudeDegrees>
              <LongitudeDegrees>-3.13694310374557971954345703125</LongitudeDegrees>
            </Position>
            <AltitudeMeters>719.5999755859375</AltitudeMeters>
            <DistanceMeters>24681.104746146</DistanceMeters>
          </Trackpoint>
          <Trackpoint>
            <Time>2021-07-27T10:16:07.000Z</Time>
            <Position>
              <LatitudeDegrees>40.8451980538666248321533203125</LatitudeDegrees>
              <LongitudeDegrees>-3.13680983148515224456787109375</LongitudeDegrees>
            </Position>
            <AltitudeMeters>716.20001220703125</AltitudeMeters>
            <DistanceMeters>24720.993334357</DistanceMeters>
          </Trackpoint>
          <Trackpoint>
            <Time>2021-07-27T10:16:16.000Z</Time>
            <Position>
              <LatitudeDegrees>40.8457120321691036224365234375</LatitudeDegrees>
              <LongitudeDegrees>-3.13647371716797351837158203125</LongitudeDegrees>
            </Position>
            <AltitudeMeters>713.4000244140625</AltitudeMeters>
            <DistanceMeters>24784.817339278</DistanceMeters>
          </Trackpoint>
          <Trackpoint>
            <Time>2021-07-27T10:16:17.000Z</Time>
            <Position>
              <LatitudeDegrees>40.845768861472606658935546875</LatitudeDegrees>
              <LongitudeDegrees>-3.136431388556957244873046875</LongitudeDegrees>
            </Position>
            <AltitudeMeters>713.5999755859375</AltitudeMeters>
            <DistanceMeters>24792.077405132</DistanceMeters>
          </Trackpoint>
          <Trackpoint>
            <Time>2021-07-27T10:16:25.000Z</Time>
            <Position>
              <LatitudeDegrees>40.84623917005956172943115234375</LatitudeDegrees>
              <LongitudeDegrees>-3.1361039914190769195556640625</LongitudeDegrees>
            </Position>
            <AltitudeMeters>713</AltitudeMeters>
            <DistanceMeters>24851.238232115</DistanceMeters>
          </Trackpoint>
          <Trackpoint>
            <Time>2021-07-27T10:16:34.000Z</Time>
            <Position>
              <LatitudeDegrees>40.84679313004016876220703125</LatitudeDegrees>
              <LongitudeDegrees>-3.13584809191524982452392578125</LongitudeDegrees>
            </Position>
            <AltitudeMeters>712.5999755859375</AltitudeMeters>
            <DistanceMeters>24916.551109802</DistanceMeters>
          </Trackpoint>
          <Trackpoint>
            <Time>2021-07-27T10:16:38.000Z</Time>
            <Position>
              <LatitudeDegrees>40.84703444503247737884521484375</LatitudeDegrees>
              <LongitudeDegrees>-3.135793022811412811279296875</LongitudeDegrees>
            </Position>
            <AltitudeMeters>712.79998779296875</AltitudeMeters>
            <DistanceMeters>24943.806885315</DistanceMeters>
          </Trackpoint>
          <Trackpoint>
            <Time>2021-07-27T10:16:48.000Z</Time>
            <Position>
              <LatitudeDegrees>40.84758949466049671173095703125</LatitudeDegrees>
              <LongitudeDegrees>-3.13578321598470211029052734375</LongitudeDegrees>
            </Position>
            <AltitudeMeters>710</AltitudeMeters>
            <DistanceMeters>25005.590475164</DistanceMeters>
          </Trackpoint>
          <Trackpoint>
            <Time>2021-07-27T10:16:59.000Z</Time>
            <Position>
              <LatitudeDegrees>40.8481442928314208984375</LatitudeDegrees>
              <LongitudeDegrees>-3.13587306998670101165771484375</LongitudeDegrees>
            </Position>
            <AltitudeMeters>708.4000244140625</AltitudeMeters>
            <DistanceMeters>25067.802281311</DistanceMeters>
          </Trackpoint>
          <Trackpoint>
            <Time>2021-07-27T10:17:10.000Z</Time>
            <Position>
              <LatitudeDegrees>40.8486755378544330596923828125</LatitudeDegrees>
              <LongitudeDegrees>-3.13595286570489406585693359375</LongitudeDegrees>
            </Position>
            <AltitudeMeters>711.4000244140625</AltitudeMeters>
            <DistanceMeters>25127.311314903</DistanceMeters>
          </Trackpoint>
          <Trackpoint>
            <Time>2021-07-27T10:17:21.000Z</Time>
            <Position>
              <LatitudeDegrees>40.84920250810682773590087890625</LatitudeDegrees>
              <LongitudeDegrees>-3.1360144726932048797607421875</LongitudeDegrees>
            </Position>
            <AltitudeMeters>716</AltitudeMeters>
            <DistanceMeters>25186.193075495</DistanceMeters>
          </Trackpoint>
          <Trackpoint>
            <Time>2021-07-27T10:17:33.000Z</Time>
            <Position>
              <LatitudeDegrees>40.84977784194052219390869140625</LatitudeDegrees>
              <LongitudeDegrees>-3.136093430221080780029296875</LongitudeDegrees>
            </Position>
            <AltitudeMeters>718.4000244140625</AltitudeMeters>
            <DistanceMeters>25250.57295564</DistanceMeters>
          </Trackpoint>
          <Trackpoint>
            <Time>2021-07-27T10:17:45.000Z</Time>
            <Position>
              <LatitudeDegrees>40.8503557741641998291015625</LatitudeDegrees>
              <LongitudeDegrees>-3.1361703760921955108642578125</LongitudeDegrees>
            </Position>
            <AltitudeMeters>719</AltitudeMeters>
            <DistanceMeters>25315.223254811</DistanceMeters>
          </Trackpoint>
          <Trackpoint>
            <Time>2021-07-27T10:17:51.000Z</Time>
            <Position>
              <LatitudeDegrees>40.85064486600458621978759765625</LatitudeDegrees>
              <LongitudeDegrees>-3.13620842993259429931640625</LongitudeDegrees>
            </Position>
            <AltitudeMeters>718.4000244140625</AltitudeMeters>
            <DistanceMeters>25347.558878377</DistanceMeters>
          </Trackpoint>
          <Trackpoint>
            <Time>2021-07-27T10:17:56.000Z</Time>
            <Position>
              <LatitudeDegrees>40.85088626481592655181884765625</LatitudeDegrees>
              <LongitudeDegrees>-3.13624539412558078765869140625</LongitudeDegrees>
            </Position>
            <AltitudeMeters>716.4000244140625</AltitudeMeters>
            <DistanceMeters>25374.606459473</DistanceMeters>
          </Trackpoint>
          <Trackpoint>
            <Time>2021-07-27T10:18:08.000Z</Time>
            <Position>
              <LatitudeDegrees>40.85146897472441196441650390625</LatitudeDegrees>
              <LongitudeDegrees>-3.13632267527282238006591796875</LongitudeDegrees>
            </Position>
            <AltitudeMeters>716.4000244140625</AltitudeMeters>
            <DistanceMeters>25439.788828774</DistanceMeters>
          </Trackpoint>
          <Trackpoint>
            <Time>2021-07-27T10:18:14.000Z</Time>
            <Position>
              <LatitudeDegrees>40.85175924003124237060546875</LatitudeDegrees>
              <LongitudeDegrees>-3.13636626116931438446044921875</LongitudeDegrees>
            </Position>
            <AltitudeMeters>717.20001220703125</AltitudeMeters>
            <DistanceMeters>25472.303521295</DistanceMeters>
          </Trackpoint>
          <Trackpoint>
            <Time>2021-07-27T10:18:25.000Z</Time>
            <Position>
              <LatitudeDegrees>40.85229911841452121734619140625</LatitudeDegrees>
              <LongitudeDegrees>-3.13643851317465305328369140625</LongitudeDegrees>
            </Position>
            <AltitudeMeters>717.20001220703125</AltitudeMeters>
            <DistanceMeters>25532.700156632</DistanceMeters>
          </Trackpoint>
          <Trackpoint>
            <Time>2021-07-27T10:18:36.000Z</Time>
            <Position>
              <LatitudeDegrees>40.85284796543419361114501953125</LatitudeDegrees>
              <LongitudeDegrees>-3.1365193985402584075927734375</LongitudeDegrees>
            </Position>
            <AltitudeMeters>718.4000244140625</AltitudeMeters>
            <DistanceMeters>25594.166282696</DistanceMeters>
          </Trackpoint>
          <Trackpoint>
            <Time>2021-07-27T10:18:39.000Z</Time>
            <Position>
              <LatitudeDegrees>40.85300152190029621124267578125</LatitudeDegrees>
              <LongitudeDegrees>-3.13654144294559955596923828125</LongitudeDegrees>
            </Position>
            <AltitudeMeters>718.79998779296875</AltitudeMeters>
            <DistanceMeters>25611.357978424</DistanceMeters>
          </Trackpoint>
          <Trackpoint>
            <Time>2021-07-27T10:18:50.000Z</Time>
            <Position>
              <LatitudeDegrees>40.8535692282021045684814453125</LatitudeDegrees>
              <LongitudeDegrees>-3.1366152875125408172607421875</LongitudeDegrees>
            </Position>
            <AltitudeMeters>719.5999755859375</AltitudeMeters>
            <DistanceMeters>25674.849905362</DistanceMeters>
          </Trackpoint>
          <Trackpoint>
            <Time>2021-07-27T10:19:01.000Z</Time>
            <Position>
              <LatitudeDegrees>40.85413559339940547943115234375</LatitudeDegrees>
              <LongitudeDegrees>-3.13669399358332157135009765625</LongitudeDegrees>
            </Position>
            <AltitudeMeters>720.79998779296875</AltitudeMeters>
            <DistanceMeters>25738.234647147</DistanceMeters>
          </Trackpoint>
          <Trackpoint>
            <Time>2021-07-27T10:19:12.000Z</Time>
            <Position>
              <LatitudeDegrees>40.8547098375856876373291015625</LatitudeDegrees>
              <LongitudeDegrees>-3.13670690171420574188232421875</LongitudeDegrees>
            </Position>
            <AltitudeMeters>723</AltitudeMeters>
            <DistanceMeters>25802.158391109</DistanceMeters>
          </Trackpoint>
          <Trackpoint>
            <Time>2021-07-27T10:19:23.000Z</Time>
            <Position>
              <LatitudeDegrees>40.8552627079188823699951171875</LatitudeDegrees>
              <LongitudeDegrees>-3.1365918181836605072021484375</LongitudeDegrees>
            </Position>
            <AltitudeMeters>718.5999755859375</AltitudeMeters>
            <DistanceMeters>25864.452008361</DistanceMeters>
          </Trackpoint>
          <Trackpoint>
            <Time>2021-07-27T10:19:34.000Z</Time>
            <Position>
              <LatitudeDegrees>40.85580007173120975494384765625</LatitudeDegrees>
              <LongitudeDegrees>-3.13642962835729122161865234375</LongitudeDegrees>
            </Position>
            <AltitudeMeters>718.5999755859375</AltitudeMeters>
            <DistanceMeters>25925.800345509</DistanceMeters>
          </Trackpoint>
          <Trackpoint>
            <Time>2021-07-27T10:19:42.000Z</Time>
            <Position>
              <LatitudeDegrees>40.856187231838703155517578125</LatitudeDegrees>
              <LongitudeDegrees>-3.13631345517933368682861328125</LongitudeDegrees>
            </Position>
            <AltitudeMeters>719</AltitudeMeters>
            <DistanceMeters>25969.98786987</DistanceMeters>
          </Trackpoint>
          <Trackpoint>
            <Time>2021-07-27T10:19:54.000Z</Time>
            <Position>
              <LatitudeDegrees>40.856759548187255859375</LatitudeDegrees>
              <LongitudeDegrees>-3.13614447601139545440673828125</LongitudeDegrees>
            </Position>
            <AltitudeMeters>719</AltitudeMeters>
            <DistanceMeters>26035.256766469</DistanceMeters>
          </Trackpoint>
          <Trackpoint>
            <Time>2021-07-27T10:20:01.000Z</Time>
            <Position>
              <LatitudeDegrees>40.85709658451378345489501953125</LatitudeDegrees>
              <LongitudeDegrees>-3.13604389317333698272705078125</LongitudeDegrees>
            </Position>
            <AltitudeMeters>717.79998779296875</AltitudeMeters>
            <DistanceMeters>26073.713362778</DistanceMeters>
          </Trackpoint>
          <Trackpoint>
            <Time>2021-07-27T10:20:12.000Z</Time>
            <Position>
              <LatitudeDegrees>40.85762397386133670806884765625</LatitudeDegrees>
              <LongitudeDegrees>-3.13588849268853664398193359375</LongitudeDegrees>
            </Position>
            <AltitudeMeters>717</AltitudeMeters>
            <DistanceMeters>26133.852886701</DistanceMeters>
          </Trackpoint>
          <Trackpoint>
            <Time>2021-07-27T10:20:23.000Z</Time>
            <Position>
              <LatitudeDegrees>40.85815220139920711517333984375</LatitudeDegrees>
              <LongitudeDegrees>-3.1357009895145893096923828125</LongitudeDegrees>
            </Position>
            <AltitudeMeters>719.79998779296875</AltitudeMeters>
            <DistanceMeters>26194.727714922</DistanceMeters>
          </Trackpoint>
          <Trackpoint>
            <Time>2021-07-27T10:20:26.000Z</Time>
            <Position>
              <LatitudeDegrees>40.8582956157624721527099609375</LatitudeDegrees>
              <LongitudeDegrees>-3.13562965951859951019287109375</LongitudeDegrees>
            </Position>
            <AltitudeMeters>720.5999755859375</AltitudeMeters>
            <DistanceMeters>26211.782032035</DistanceMeters>
          </Trackpoint>
          <Trackpoint>
            <Time>2021-07-27T10:20:37.000Z</Time>
            <Position>
              <LatitudeDegrees>40.85879065096378326416015625</LatitudeDegrees>
              <LongitudeDegrees>-3.135263621807098388671875</LongitudeDegrees>
            </Position>
            <AltitudeMeters>722.20001220703125</AltitudeMeters>
            <DistanceMeters>26274.911104239</DistanceMeters>
          </Trackpoint>
          <Trackpoint>
            <Time>2021-07-27T10:20:48.000Z</Time>
            <Position>
              <LatitudeDegrees>40.85920513607561588287353515625</LatitudeDegrees>
              <LongitudeDegrees>-3.13473916612565517425537109375</LongitudeDegrees>
            </Position>
            <AltitudeMeters>721.4000244140625</AltitudeMeters>
            <DistanceMeters>26338.76545027</DistanceMeters>
          </Trackpoint>
          <Trackpoint>
            <Time>2021-07-27T10:20:55.000Z</Time>
            <Position>
              <LatitudeDegrees>40.8594395779073238372802734375</LatitudeDegrees>
              <LongitudeDegrees>-3.13436717726290225982666015625</LongitudeDegrees>
            </Position>
            <AltitudeMeters>720</AltitudeMeters>
            <DistanceMeters>26379.526261902</DistanceMeters>
          </Trackpoint>
          <Trackpoint>
            <Time>2021-07-27T10:21:06.000Z</Time>
            <Position>
              <LatitudeDegrees>40.85984551347792148590087890625</LatitudeDegrees>
              <LongitudeDegrees>-3.13380408100783824920654296875</LongitudeDegrees>
            </Position>
            <AltitudeMeters>720</AltitudeMeters>
            <DistanceMeters>26445.010769703</DistanceMeters>
          </Trackpoint>
          <Trackpoint>
            <Time>2021-07-27T10:21:14.000Z</Time>
            <Position>
              <LatitudeDegrees>40.86021901108324527740478515625</LatitudeDegrees>
              <LongitudeDegrees>-3.13346528448164463043212890625</LongitudeDegrees>
            </Position>
            <AltitudeMeters>719</AltitudeMeters>
            <DistanceMeters>26495.424210521</DistanceMeters>
          </Trackpoint>
          <Trackpoint>
            <Time>2021-07-27T10:21:24.000Z</Time>
            <Position>
              <LatitudeDegrees>40.86074908263981342315673828125</LatitudeDegrees>
              <LongitudeDegrees>-3.13314341939985752105712890625</LongitudeDegrees>
            </Position>
            <AltitudeMeters>717.79998779296875</AltitudeMeters>
            <DistanceMeters>26560.346097361</DistanceMeters>
          </Trackpoint>
          <Trackpoint>
            <Time>2021-07-27T10:21:34.000Z</Time>
            <Position>
              <LatitudeDegrees>40.861258618533611297607421875</LatitudeDegrees>
              <LongitudeDegrees>-3.1328481249511241912841796875</LongitudeDegrees>
            </Position>
            <AltitudeMeters>717.79998779296875</AltitudeMeters>
            <DistanceMeters>26622.266776121</DistanceMeters>
          </Trackpoint>
          <Trackpoint>
            <Time>2021-07-27T10:21:45.000Z</Time>
            <Position>
              <LatitudeDegrees>40.8617777936160564422607421875</LatitudeDegrees>
              <LongitudeDegrees>-3.13252307474613189697265625</LongitudeDegrees>
            </Position>
            <AltitudeMeters>719</AltitudeMeters>
            <DistanceMeters>26686.202596951</DistanceMeters>
          </Trackpoint>
          <Trackpoint>
            <Time>2021-07-27T10:21:48.000Z</Time>
            <Position>
              <LatitudeDegrees>40.861915759742259979248046875</LatitudeDegrees>
              <LongitudeDegrees>-3.13243322074413299560546875</LongitudeDegrees>
            </Position>
            <AltitudeMeters>718.4000244140625</AltitudeMeters>
            <DistanceMeters>26703.320071076</DistanceMeters>
          </Trackpoint>
          <Trackpoint>
            <Time>2021-07-27T10:21:59.000Z</Time>
            <Position>
              <LatitudeDegrees>40.86242194287478923797607421875</LatitudeDegrees>
              <LongitudeDegrees>-3.1321188993752002716064453125</LongitudeDegrees>
            </Position>
            <AltitudeMeters>720.79998779296875</AltitudeMeters>
            <DistanceMeters>26765.562641529</DistanceMeters>
          </Trackpoint>
          <Trackpoint>
            <Time>2021-07-27T10:22:10.000Z</Time>
            <Position>
              <LatitudeDegrees>40.86292804218828678131103515625</LatitudeDegrees>
              <LongitudeDegrees>-3.13178974203765392303466796875</LongitudeDegrees>
            </Position>
            <AltitudeMeters>722</AltitudeMeters>
            <DistanceMeters>26828.337838543</DistanceMeters>
          </Trackpoint>
          <Trackpoint>
            <Time>2021-07-27T10:22:21.000Z</Time>
            <Position>
              <LatitudeDegrees>40.8634317107498645782470703125</LatitudeDegrees>
              <LongitudeDegrees>-3.131436444818973541259765625</LongitudeDegrees>
            </Position>
            <AltitudeMeters>722.5999755859375</AltitudeMeters>
            <DistanceMeters>26891.796760932</DistanceMeters>
          </Trackpoint>
          <Trackpoint>
            <Time>2021-07-27T10:22:32.000Z</Time>
            <Position>
              <LatitudeDegrees>40.86393244564533233642578125</LatitudeDegrees>
              <LongitudeDegrees>-3.1310751847922801971435546875</LongitudeDegrees>
            </Position>
            <AltitudeMeters>721.20001220703125</AltitudeMeters>
            <DistanceMeters>26955.28562998</DistanceMeters>
          </Trackpoint>
          <Trackpoint>
            <Time>2021-07-27T10:22:33.000Z</Time>
            <Position>
              <LatitudeDegrees>40.86397762410342693328857421875</LatitudeDegrees>
              <LongitudeDegrees>-3.131042160093784332275390625</LongitudeDegrees>
            </Position>
            <AltitudeMeters>721</AltitudeMeters>
            <DistanceMeters>26961.031407515</DistanceMeters>
          </Trackpoint>
          <Trackpoint>
            <Time>2021-07-27T10:22:44.000Z</Time>
            <Position>
              <LatitudeDegrees>40.86446779780089855194091796875</LatitudeDegrees>
              <LongitudeDegrees>-3.130681402981281280517578125</LongitudeDegrees>
            </Position>
            <AltitudeMeters>720</AltitudeMeters>
            <DistanceMeters>27023.470250262</DistanceMeters>
          </Trackpoint>
          <Trackpoint>
            <Time>2021-07-27T10:22:55.000Z</Time>
            <Position>
              <LatitudeDegrees>40.86495327763259410858154296875</LatitudeDegrees>
              <LongitudeDegrees>-3.1303216516971588134765625</LongitudeDegrees>
            </Position>
            <AltitudeMeters>720</AltitudeMeters>
            <DistanceMeters>27085.411560951</DistanceMeters>
          </Trackpoint>
          <Trackpoint>
            <Time>2021-07-27T10:23:06.000Z</Time>
            <Position>
              <LatitudeDegrees>40.86543456651270389556884765625</LatitudeDegrees>
              <LongitudeDegrees>-3.12996827065944671630859375</LongitudeDegrees>
            </Position>
            <AltitudeMeters>721.79998779296875</AltitudeMeters>
            <DistanceMeters>27146.684120243</DistanceMeters>
          </Trackpoint>
          <Trackpoint>
            <Time>2021-07-27T10:23:17.000Z</Time>
            <Position>
              <LatitudeDegrees>40.8659214712679386138916015625</LatitudeDegrees>
              <LongitudeDegrees>-3.12962402589619159698486328125</LongitudeDegrees>
            </Position>
            <AltitudeMeters>722</AltitudeMeters>
            <DistanceMeters>27208.137537154</DistanceMeters>
          </Trackpoint>
          <Trackpoint>
            <Time>2021-07-27T10:23:28.000Z</Time>
            <Position>
              <LatitudeDegrees>40.8664114773273468017578125</LatitudeDegrees>
              <LongitudeDegrees>-3.1292931921780109405517578125</LongitudeDegrees>
            </Position>
            <AltitudeMeters>722</AltitudeMeters>
            <DistanceMeters>27269.373905063</DistanceMeters>
          </Trackpoint>
          <Trackpoint>
            <Time>2021-07-27T10:23:32.000Z</Time>
            <Position>
              <LatitudeDegrees>40.86658372543752193450927734375</LatitudeDegrees>
              <LongitudeDegrees>-3.12918464653193950653076171875</LongitudeDegrees>
            </Position>
            <AltitudeMeters>722</AltitudeMeters>
            <DistanceMeters>27290.61104701</DistanceMeters>
          </Trackpoint>
          <Trackpoint>
            <Time>2021-07-27T10:23:39.000Z</Time>
            <Position>
              <LatitudeDegrees>40.86685831658542156219482421875</LatitudeDegrees>
              <LongitudeDegrees>-3.1290105544030666351318359375</LongitudeDegrees>
            </Position>
            <AltitudeMeters>722.79998779296875</AltitudeMeters>
            <DistanceMeters>27324.50482616</DistanceMeters>
          </Trackpoint>
          <Trackpoint>
            <Time>2021-07-27T10:23:47.000Z</Time>
            <Position>
              <LatitudeDegrees>40.867145396769046783447265625</LatitudeDegrees>
              <LongitudeDegrees>-3.12883277423679828643798828125</LongitudeDegrees>
            </Position>
            <AltitudeMeters>725.20001220703125</AltitudeMeters>
            <DistanceMeters>27359.787645045</DistanceMeters>
          </Trackpoint>
          <Trackpoint>
            <Time>2021-07-27T10:23:59.000Z</Time>
            <Position>
              <LatitudeDegrees>40.867574214935302734375</LatitudeDegrees>
              <LongitudeDegrees>-3.12858031131327152252197265625</LongitudeDegrees>
            </Position>
            <AltitudeMeters>727.79998779296875</AltitudeMeters>
            <DistanceMeters>27412.03263779</DistanceMeters>
          </Trackpoint>
          <Trackpoint>
            <Time>2021-07-27T10:24:06.000Z</Time>
            <Position>
              <LatitudeDegrees>40.867817960679531097412109375</LatitudeDegrees>
              <LongitudeDegrees>-3.12843916006386280059814453125</LongitudeDegrees>
            </Position>
            <AltitudeMeters>729</AltitudeMeters>
            <DistanceMeters>27441.649432612</DistanceMeters>
          </Trackpoint>
          <Trackpoint>
            <Time>2021-07-27T10:24:17.000Z</Time>
            <Position>
              <LatitudeDegrees>40.86820210330188274383544921875</LatitudeDegrees>
              <LongitudeDegrees>-3.128225170075893402099609375</LongitudeDegrees>
            </Position>
            <AltitudeMeters>730.20001220703125</AltitudeMeters>
            <DistanceMeters>27488.044078873</DistanceMeters>
          </Trackpoint>
          <Trackpoint>
            <Time>2021-07-27T10:24:26.000Z</Time>
            <Position>
              <LatitudeDegrees>40.86850787512958049774169921875</LatitudeDegrees>
              <LongitudeDegrees>-3.12805308960378170013427734375</LongitudeDegrees>
            </Position>
            <AltitudeMeters>731.20001220703125</AltitudeMeters>
            <DistanceMeters>27525.030961561</DistanceMeters>
          </Trackpoint>
          <Trackpoint>
            <Time>2021-07-27T10:24:34.000Z</Time>
            <Position>
              <LatitudeDegrees>40.86876234970986843109130859375</LatitudeDegrees>
              <LongitudeDegrees>-3.1278917379677295684814453125</LongitudeDegrees>
            </Position>
            <AltitudeMeters>732.20001220703125</AltitudeMeters>
            <DistanceMeters>27556.442142255</DistanceMeters>
          </Trackpoint>
          <Trackpoint>
            <Time>2021-07-27T10:24:40.000Z</Time>
            <Position>
              <LatitudeDegrees>40.86892982013523578643798828125</LatitudeDegrees>
              <LongitudeDegrees>-3.127779923379421234130859375</LongitudeDegrees>
            </Position>
            <AltitudeMeters>732.79998779296875</AltitudeMeters>
            <DistanceMeters>27577.32295189</DistanceMeters>
          </Trackpoint>
          <Trackpoint>
            <Time>2021-07-27T10:24:47.000Z</Time>
            <Position>
              <LatitudeDegrees>40.8691339194774627685546875</LatitudeDegrees>
              <LongitudeDegrees>-3.12769107520580291748046875</LongitudeDegrees>
            </Position>
            <AltitudeMeters>733.5999755859375</AltitudeMeters>
            <DistanceMeters>27601.238742531</DistanceMeters>
          </Trackpoint>
          <Trackpoint>
            <Time>2021-07-27T10:24:54.000Z</Time>
            <Position>
              <LatitudeDegrees>40.86933986283838748931884765625</LatitudeDegrees>
              <LongitudeDegrees>-3.12762326560914516448974609375</LongitudeDegrees>
            </Position>
            <AltitudeMeters>734.20001220703125</AltitudeMeters>
            <DistanceMeters>27624.860480054</DistanceMeters>
          </Trackpoint>
          <Trackpoint>
            <Time>2021-07-27T10:24:58.000Z</Time>
            <Position>
              <LatitudeDegrees>40.86946039460599422454833984375</LatitudeDegrees>
              <LongitudeDegrees>-3.127599544823169708251953125</LongitudeDegrees>
            </Position>
            <AltitudeMeters>734.5999755859375</AltitudeMeters>
            <DistanceMeters>27638.423359072</DistanceMeters>
          </Trackpoint>
          <Trackpoint>
            <Time>2021-07-27T10:25:00.000Z</Time>
            <Position>
              <LatitudeDegrees>40.869520492851734161376953125</LatitudeDegrees>
              <LongitudeDegrees>-3.12759107910096645355224609375</LongitudeDegrees>
            </Position>
            <AltitudeMeters>735</AltitudeMeters>
            <DistanceMeters>27645.150149767</DistanceMeters>
          </Trackpoint>
          <Trackpoint>
            <Time>2021-07-27T10:25:06.000Z</Time>
            <Position>
              <LatitudeDegrees>40.86969793774187564849853515625</LatitudeDegrees>
              <LongitudeDegrees>-3.127590827643871307373046875</LongitudeDegrees>
            </Position>
            <AltitudeMeters>736.4000244140625</AltitudeMeters>
            <DistanceMeters>27664.900167035</DistanceMeters>
          </Trackpoint>
          <Trackpoint>
            <Time>2021-07-27T10:25:13.000Z</Time>
            <Position>
              <LatitudeDegrees>40.8699042163789272308349609375</LatitudeDegrees>
              <LongitudeDegrees>-3.12760926783084869384765625</LongitudeDegrees>
            </Position>
            <AltitudeMeters>737.79998779296875</AltitudeMeters>
            <DistanceMeters>27687.911744833</DistanceMeters>
          </Trackpoint>
          <Trackpoint>
            <Time>2021-07-27T10:25:19.000Z</Time>
            <Position>
              <LatitudeDegrees>40.87007713504135608673095703125</LatitudeDegrees>
              <LongitudeDegrees>-3.127589486539363861083984375</LongitudeDegrees>
            </Position>
            <AltitudeMeters>739.20001220703125</AltitudeMeters>
            <DistanceMeters>27707.230000429</DistanceMeters>
          </Trackpoint>
          <Trackpoint>
            <Time>2021-07-27T10:25:31.000Z</Time>
            <Position>
              <LatitudeDegrees>40.8704366348683834075927734375</LatitudeDegrees>
              <LongitudeDegrees>-3.1271863169968128204345703125</LongitudeDegrees>
            </Position>
            <AltitudeMeters>738.79998779296875</AltitudeMeters>
            <DistanceMeters>27759.694214148</DistanceMeters>
          </Trackpoint>
          <Trackpoint>
            <Time>2021-07-27T10:25:36.000Z</Time>
            <Position>
              <LatitudeDegrees>40.87070242501795291900634765625</LatitudeDegrees>
              <LongitudeDegrees>-3.127004764974117279052734375</LongitudeDegrees>
            </Position>
            <AltitudeMeters>738</AltitudeMeters>
            <DistanceMeters>27792.99046837</DistanceMeters>
          </Trackpoint>
          <Trackpoint>
            <Time>2021-07-27T10:25:47.000Z</Time>
            <Position>
              <LatitudeDegrees>40.87125177495181560516357421875</LatitudeDegrees>
              <LongitudeDegrees>-3.12678985297679901123046875</LongitudeDegrees>
            </Position>
            <AltitudeMeters>739.20001220703125</AltitudeMeters>
            <DistanceMeters>27856.753606141</DistanceMeters>
          </Trackpoint>
          <Trackpoint>
            <Time>2021-07-27T10:25:57.000Z</Time>
            <Position>
              <LatitudeDegrees>40.871660895645618438720703125</LatitudeDegrees>
              <LongitudeDegrees>-3.12660972587764263153076171875</LongitudeDegrees>
            </Position>
            <AltitudeMeters>740</AltitudeMeters>
            <DistanceMeters>27904.746895037</DistanceMeters>
          </Trackpoint>
          <Trackpoint>
            <Time>2021-07-27T10:26:11.000Z</Time>
            <Position>
              <LatitudeDegrees>40.8722065575420856475830078125</LatitudeDegrees>
              <LongitudeDegrees>-3.12638693489134311676025390625</LongitudeDegrees>
            </Position>
            <AltitudeMeters>740</AltitudeMeters>
            <DistanceMeters>27968.308757671</DistanceMeters>
          </Trackpoint>
          <Trackpoint>
            <Time>2021-07-27T10:26:12.000Z</Time>
            <Position>
              <LatitudeDegrees>40.872244946658611297607421875</LatitudeDegrees>
              <LongitudeDegrees>-3.12636899761855602264404296875</LongitudeDegrees>
            </Position>
            <AltitudeMeters>740</AltitudeMeters>
            <DistanceMeters>27972.840246812</DistanceMeters>
          </Trackpoint>
          <Trackpoint>
            <Time>2021-07-27T10:26:26.000Z</Time>
            <Position>
              <LatitudeDegrees>40.8727924525737762451171875</LatitudeDegrees>
              <LongitudeDegrees>-3.12617822550237178802490234375</LongitudeDegrees>
            </Position>
            <AltitudeMeters>744.20001220703125</AltitudeMeters>
            <DistanceMeters>28035.85850765</DistanceMeters>
          </Trackpoint>
          <Trackpoint>
            <Time>2021-07-27T10:26:30.000Z</Time>
            <Position>
              <LatitudeDegrees>40.8729545585811138153076171875</LatitudeDegrees>
              <LongitudeDegrees>-3.12613346613943576812744140625</LongitudeDegrees>
            </Position>
            <AltitudeMeters>745.20001220703125</AltitudeMeters>
            <DistanceMeters>28054.290261119</DistanceMeters>
          </Trackpoint>
          <Trackpoint>
            <Time>2021-07-27T10:26:41.000Z</Time>
            <Position>
              <LatitudeDegrees>40.8733959496021270751953125</LatitudeDegrees>
              <LongitudeDegrees>-3.12605249695479869842529296875</LongitudeDegrees>
            </Position>
            <AltitudeMeters>745.20001220703125</AltitudeMeters>
            <DistanceMeters>28103.888380286</DistanceMeters>
          </Trackpoint>
          <Trackpoint>
            <Time>2021-07-27T10:26:48.000Z</Time>
            <Position>
              <LatitudeDegrees>40.873665511608123779296875</LatitudeDegrees>
              <LongitudeDegrees>-3.12600924633443355560302734375</LongitudeDegrees>
            </Position>
            <AltitudeMeters>745.79998779296875</AltitudeMeters>
            <DistanceMeters>28134.111357516</DistanceMeters>
          </Trackpoint>
          <Trackpoint>
            <Time>2021-07-27T10:27:02.000Z</Time>
            <Position>
              <LatitudeDegrees>40.8742265962064266204833984375</LatitudeDegrees>
              <LongitudeDegrees>-3.1259977631270885467529296875</LongitudeDegrees>
            </Position>
            <AltitudeMeters>748.5999755859375</AltitudeMeters>
            <DistanceMeters>28196.56863694</DistanceMeters>
          </Trackpoint>
          <Trackpoint>
            <Time>2021-07-27T10:27:11.000Z</Time>
            <Position>
              <LatitudeDegrees>40.87456514127552509307861328125</LatitudeDegrees>
              <LongitudeDegrees>-3.12599231489002704620361328125</LongitudeDegrees>
            </Position>
            <AltitudeMeters>750.20001220703125</AltitudeMeters>
            <DistanceMeters>28234.252091285</DistanceMeters>
          </Trackpoint>
          <Trackpoint>
            <Time>2021-07-27T10:27:16.000Z</Time>
            <Position>
              <LatitudeDegrees>40.8747509680688381195068359375</LatitudeDegrees>
              <LongitudeDegrees>-3.1259845197200775146484375</LongitudeDegrees>
            </Position>
            <AltitudeMeters>750.79998779296875</AltitudeMeters>
            <DistanceMeters>28254.945453869</DistanceMeters>
          </Trackpoint>
          <Trackpoint>
            <Time>2021-07-27T10:27:26.000Z</Time>
            <Position>
              <LatitudeDegrees>40.87520082481205463409423828125</LatitudeDegrees>
              <LongitudeDegrees>-3.1260973401367664337158203125</LongitudeDegrees>
            </Position>
            <AltitudeMeters>750</AltitudeMeters>
            <DistanceMeters>28305.90777668</DistanceMeters>
          </Trackpoint>
          <Trackpoint>
            <Time>2021-07-27T10:27:28.000Z</Time>
            <Position>
              <LatitudeDegrees>40.87533459998667240142822265625</LatitudeDegrees>
              <LongitudeDegrees>-3.1261493079364299774169921875</LongitudeDegrees>
            </Position>
            <AltitudeMeters>748.79998779296875</AltitudeMeters>
            <DistanceMeters>28321.425962096</DistanceMeters>
          </Trackpoint>
          <Trackpoint>
            <Time>2021-07-27T10:27:30.000Z</Time>
            <Position>
              <LatitudeDegrees>40.8754788525402545928955078125</LatitudeDegrees>
              <LongitudeDegrees>-3.12620538286864757537841796875</LongitudeDegrees>
            </Position>
            <AltitudeMeters>747</AltitudeMeters>
            <DistanceMeters>28338.160919246</DistanceMeters>
          </Trackpoint>
          <Trackpoint>
            <Time>2021-07-27T10:27:32.000Z</Time>
            <Position>
              <LatitudeDegrees>40.87562528438866138458251953125</LatitudeDegrees>
              <LongitudeDegrees>-3.126285262405872344970703125</LongitudeDegrees>
            </Position>
            <AltitudeMeters>746.4000244140625</AltitudeMeters>
            <DistanceMeters>28355.791128016</DistanceMeters>
          </Trackpoint>
          <Trackpoint>
            <Time>2021-07-27T10:27:33.000Z</Time>
            <Position>
              <LatitudeDegrees>40.87569451890885829925537109375</LatitudeDegrees>
              <LongitudeDegrees>-3.12634200789034366607666015625</LongitudeDegrees>
            </Position>
            <AltitudeMeters>746</AltitudeMeters>
            <DistanceMeters>28364.857094914</DistanceMeters>
          </Trackpoint>
          <Trackpoint>
            <Time>2021-07-27T10:27:36.000Z</Time>
            <Position>
              <LatitudeDegrees>40.87589149363338947296142578125</LatitudeDegrees>
              <LongitudeDegrees>-3.1265559978783130645751953125</LongitudeDegrees>
            </Position>
            <AltitudeMeters>744.79998779296875</AltitudeMeters>
            <DistanceMeters>28393.229213879</DistanceMeters>
          </Trackpoint>
          <Trackpoint>
            <Time>2021-07-27T10:27:38.000Z</Time>
            <Position>
              <LatitudeDegrees>40.87602979503571987152099609375</LatitudeDegrees>
              <LongitudeDegrees>-3.1267008371651172637939453125</LongitudeDegrees>
            </Position>
            <AltitudeMeters>745.20001220703125</AltitudeMeters>
            <DistanceMeters>28412.864363834</DistanceMeters>
          </Trackpoint>
          <Trackpoint>
            <Time>2021-07-27T10:27:39.000Z</Time>
            <Position>
              <LatitudeDegrees>40.8761064894497394561767578125</LatitudeDegrees>
              <LongitudeDegrees>-3.126764707267284393310546875</LongitudeDegrees>
            </Position>
            <AltitudeMeters>745.20001220703125</AltitudeMeters>
            <DistanceMeters>28422.951529014</DistanceMeters>
          </Trackpoint>
          <Trackpoint>
            <Time>2021-07-27T10:27:41.000Z</Time>
            <Position>
              <LatitudeDegrees>40.8762751333415508270263671875</LatitudeDegrees>
              <LongitudeDegrees>-3.1268590874969959259033203125</LongitudeDegrees>
            </Position>
            <AltitudeMeters>744.20001220703125</AltitudeMeters>
            <DistanceMeters>28443.333153254</DistanceMeters>
          </Trackpoint>
          <Trackpoint>
            <Time>2021-07-27T10:27:43.000Z</Time>
            <Position>
              <LatitudeDegrees>40.8764488063752651214599609375</LatitudeDegrees>
              <LongitudeDegrees>-3.12693410553038120269775390625</LongitudeDegrees>
            </Position>
            <AltitudeMeters>741.79998779296875</AltitudeMeters>
            <DistanceMeters>28463.66798201</DistanceMeters>
          </Trackpoint>
          <Trackpoint>
            <Time>2021-07-27T10:27:50.000Z</Time>
            <Position>
              <LatitudeDegrees>40.87704400531947612762451171875</LatitudeDegrees>
              <LongitudeDegrees>-3.12712957151234149932861328125</LongitudeDegrees>
            </Position>
            <AltitudeMeters>742.20001220703125</AltitudeMeters>
            <DistanceMeters>28531.926670415</DistanceMeters>
          </Trackpoint>
          <Trackpoint>
            <Time>2021-07-27T10:27:57.000Z</Time>
            <Position>
              <LatitudeDegrees>40.8775947801768779754638671875</LatitudeDegrees>
              <LongitudeDegrees>-3.12716812826693058013916015625</LongitudeDegrees>
            </Position>
            <AltitudeMeters>742.5999755859375</AltitudeMeters>
            <DistanceMeters>28593.314810493</DistanceMeters>
          </Trackpoint>
          <Trackpoint>
            <Time>2021-07-27T10:27:59.000Z</Time>
            <Position>
              <LatitudeDegrees>40.8777195028960704803466796875</LatitudeDegrees>
              <LongitudeDegrees>-3.1271539628505706787109375</LongitudeDegrees>
            </Position>
            <AltitudeMeters>742</AltitudeMeters>
            <DistanceMeters>28607.24781388</DistanceMeters>
          </Trackpoint>
          <Trackpoint>
            <Time>2021-07-27T10:28:01.000Z</Time>
            <Position>
              <LatitudeDegrees>40.8778277970850467681884765625</LatitudeDegrees>
              <LongitudeDegrees>-3.12711968086659908294677734375</LongitudeDegrees>
            </Position>
            <AltitudeMeters>741.20001220703125</AltitudeMeters>
            <DistanceMeters>28619.641789449</DistanceMeters>
          </Trackpoint>
          <Trackpoint>
            <Time>2021-07-27T10:28:03.000Z</Time>
            <Position>
              <LatitudeDegrees>40.8779233507812023162841796875</LatitudeDegrees>
              <LongitudeDegrees>-3.12708355486392974853515625</LongitudeDegrees>
            </Position>
            <AltitudeMeters>740.5999755859375</AltitudeMeters>
            <DistanceMeters>28630.702915329</DistanceMeters>
          </Trackpoint>
          <Trackpoint>
            <Time>2021-07-27T10:28:07.000Z</Time>
            <Position>
              <LatitudeDegrees>40.8780933357775211334228515625</LatitudeDegrees>
              <LongitudeDegrees>-3.12705161981284618377685546875</LongitudeDegrees>
            </Position>
            <AltitudeMeters>739.79998779296875</AltitudeMeters>
            <DistanceMeters>28649.812737973</DistanceMeters>
          </Trackpoint>
          <Trackpoint>
            <Time>2021-07-27T10:28:08.000Z</Time>
            <Position>
              <LatitudeDegrees>40.878133736550807952880859375</LatitudeDegrees>
              <LongitudeDegrees>-3.1270518712699413299560546875</LongitudeDegrees>
            </Position>
            <AltitudeMeters>739.5999755859375</AltitudeMeters>
            <DistanceMeters>28654.309218947</DistanceMeters>
          </Trackpoint>
          <Trackpoint>
            <Time>2021-07-27T10:28:16.000Z</Time>
            <Position>
              <LatitudeDegrees>40.87850354611873626708984375</LatitudeDegrees>
              <LongitudeDegrees>-3.1270699761807918548583984375</LongitudeDegrees>
            </Position>
            <AltitudeMeters>738.79998779296875</AltitudeMeters>
            <DistanceMeters>28695.498010892</DistanceMeters>
          </Trackpoint>
          <Trackpoint>
            <Time>2021-07-27T10:28:19.000Z</Time>
            <Position>
              <LatitudeDegrees>40.87866556830704212188720703125</LatitudeDegrees>
              <LongitudeDegrees>-3.1269750930368900299072265625</LongitudeDegrees>
            </Position>
            <AltitudeMeters>738.4000244140625</AltitudeMeters>
            <DistanceMeters>28715.220575961</DistanceMeters>
          </Trackpoint>
          <Trackpoint>
            <Time>2021-07-27T10:28:21.000Z</Time>
            <Position>
              <LatitudeDegrees>40.87877805344760417938232421875</LatitudeDegrees>
              <LongitudeDegrees>-3.12688599340617656707763671875</LongitudeDegrees>
            </Position>
            <AltitudeMeters>738.20001220703125</AltitudeMeters>
            <DistanceMeters>28729.8142168</DistanceMeters>
          </Trackpoint>
          <Trackpoint>
            <Time>2021-07-27T10:28:25.000Z</Time>
            <Position>
              <LatitudeDegrees>40.87902967818081378936767578125</LatitudeDegrees>
              <LongitudeDegrees>-3.12670762650668621063232421875</LongitudeDegrees>
            </Position>
            <AltitudeMeters>737</AltitudeMeters>
            <DistanceMeters>28761.589535954</DistanceMeters>
          </Trackpoint>
          <Trackpoint>
            <Time>2021-07-27T10:28:28.000Z</Time>
            <Position>
              <LatitudeDegrees>40.8792362920939922332763671875</LatitudeDegrees>
              <LongitudeDegrees>-3.12656898982822895050048828125</LongitudeDegrees>
            </Position>
            <AltitudeMeters>736</AltitudeMeters>
            <DistanceMeters>28787.376291647</DistanceMeters>
          </Trackpoint>
          <Trackpoint>
            <Time>2021-07-27T10:28:33.000Z</Time>
            <Position>
              <LatitudeDegrees>40.87959478609263896942138671875</LatitudeDegrees>
              <LongitudeDegrees>-3.12634049914777278900146484375</LongitudeDegrees>
            </Position>
            <AltitudeMeters>736.4000244140625</AltitudeMeters>
            <DistanceMeters>28831.668833433</DistanceMeters>
          </Trackpoint>
          <Trackpoint>
            <Time>2021-07-27T10:28:41.000Z</Time>
            <Position>
              <LatitudeDegrees>40.8801170624792575836181640625</LatitudeDegrees>
              <LongitudeDegrees>-3.12597169540822505950927734375</LongitudeDegrees>
            </Position>
            <AltitudeMeters>735.79998779296875</AltitudeMeters>
            <DistanceMeters>28897.565594813</DistanceMeters>
          </Trackpoint>
          <Trackpoint>
            <Time>2021-07-27T10:28:50.000Z</Time>
            <Position>
              <LatitudeDegrees>40.880624167621135711669921875</LatitudeDegrees>
              <LongitudeDegrees>-3.12561429105699062347412109375</LongitudeDegrees>
            </Position>
            <AltitudeMeters>736.4000244140625</AltitudeMeters>
            <DistanceMeters>28961.52090332</DistanceMeters>
          </Trackpoint>
          <Trackpoint>
            <Time>2021-07-27T10:28:59.000Z</Time>
            <Position>
              <LatitudeDegrees>40.881111323833465576171875</LatitudeDegrees>
              <LongitudeDegrees>-3.12527230940759181976318359375</LongitudeDegrees>
            </Position>
            <AltitudeMeters>735.5999755859375</AltitudeMeters>
            <DistanceMeters>29022.906248471</DistanceMeters>
          </Trackpoint>
          <Trackpoint>
            <Time>2021-07-27T10:29:09.000Z</Time>
            <Position>
              <LatitudeDegrees>40.88163142092525959014892578125</LatitudeDegrees>
              <LongitudeDegrees>-3.124891184270381927490234375</LongitudeDegrees>
            </Position>
            <AltitudeMeters>735.4000244140625</AltitudeMeters>
            <DistanceMeters>29089.085106544</DistanceMeters>
          </Trackpoint>
          <Trackpoint>
            <Time>2021-07-27T10:29:20.000Z</Time>
            <Position>
              <LatitudeDegrees>40.88215160183608531951904296875</LatitudeDegrees>
              <LongitudeDegrees>-3.1245986558496952056884765625</LongitudeDegrees>
            </Position>
            <AltitudeMeters>735.79998779296875</AltitudeMeters>
            <DistanceMeters>29151.998245926</DistanceMeters>
          </Trackpoint>
          <Trackpoint>
            <Time>2021-07-27T10:29:25.000Z</Time>
            <Position>
              <LatitudeDegrees>40.88236316107213497161865234375</LatitudeDegrees>
              <LongitudeDegrees>-3.12452933751046657562255859375</LongitudeDegrees>
            </Position>
            <AltitudeMeters>735.4000244140625</AltitudeMeters>
            <DistanceMeters>29176.257060445</DistanceMeters>
          </Trackpoint>
          <Trackpoint>
            <Time>2021-07-27T10:29:33.000Z</Time>
            <Position>
              <LatitudeDegrees>40.8826799131929874420166015625</LatitudeDegrees>
              <LongitudeDegrees>-3.12448055483400821685791015625</LongitudeDegrees>
            </Position>
            <AltitudeMeters>736</AltitudeMeters>
            <DistanceMeters>29211.750524135</DistanceMeters>
          </Trackpoint>
          <Trackpoint>
            <Time>2021-07-27T10:29:41.000Z</Time>
            <Position>
              <LatitudeDegrees>40.88298375718295574188232421875</LatitudeDegrees>
              <LongitudeDegrees>-3.12449044547975063323974609375</LongitudeDegrees>
            </Position>
            <AltitudeMeters>737.4000244140625</AltitudeMeters>
            <DistanceMeters>29245.579233654</DistanceMeters>
          </Trackpoint>
          <Trackpoint>
            <Time>2021-07-27T10:29:50.000Z</Time>
            <Position>
              <LatitudeDegrees>40.8833290077745914459228515625</LatitudeDegrees>
              <LongitudeDegrees>-3.12453906051814556121826171875</LongitudeDegrees>
            </Position>
            <AltitudeMeters>738.4000244140625</AltitudeMeters>
            <DistanceMeters>29284.223456795</DistanceMeters>
          </Trackpoint>
          <Trackpoint>
            <Time>2021-07-27T10:30:01.000Z</Time>
            <Position>
              <LatitudeDegrees>40.8837531320750713348388671875</LatitudeDegrees>
              <LongitudeDegrees>-3.12461550347506999969482421875</LongitudeDegrees>
            </Position>
            <AltitudeMeters>741.20001220703125</AltitudeMeters>
            <DistanceMeters>29331.865685488</DistanceMeters>
          </Trackpoint>
          <Trackpoint>
            <Time>2021-07-27T10:30:08.000Z</Time>
            <Position>
              <LatitudeDegrees>40.8840263821184635162353515625</LatitudeDegrees>
              <LongitudeDegrees>-3.1246341951191425323486328125</LongitudeDegrees>
            </Position>
            <AltitudeMeters>742.20001220703125</AltitudeMeters>
            <DistanceMeters>29362.319486584</DistanceMeters>
          </Trackpoint>
          <Trackpoint>
            <Time>2021-07-27T10:30:18.000Z</Time>
            <Position>
              <LatitudeDegrees>40.88442242704331874847412109375</LatitudeDegrees>
              <LongitudeDegrees>-3.124588094651699066162109375</LongitudeDegrees>
            </Position>
            <AltitudeMeters>744.20001220703125</AltitudeMeters>
            <DistanceMeters>29406.570418626</DistanceMeters>
          </Trackpoint>
          <Trackpoint>
            <Time>2021-07-27T10:30:29.000Z</Time>
            <Position>
              <LatitudeDegrees>40.88484252803027629852294921875</LatitudeDegrees>
              <LongitudeDegrees>-3.124448619782924652099609375</LongitudeDegrees>
            </Position>
            <AltitudeMeters>744</AltitudeMeters>
            <DistanceMeters>29454.778942191</DistanceMeters>
          </Trackpoint>
          <Trackpoint>
            <Time>2021-07-27T10:30:41.000Z</Time>
            <Position>
              <LatitudeDegrees>40.8852994255721569061279296875</LatitudeDegrees>
              <LongitudeDegrees>-3.12426597811281681060791015625</LongitudeDegrees>
            </Position>
            <AltitudeMeters>745.4000244140625</AltitudeMeters>
            <DistanceMeters>29507.904230069</DistanceMeters>
          </Trackpoint>
          <Trackpoint>
            <Time>2021-07-27T10:30:55.000Z</Time>
            <Position>
              <LatitudeDegrees>40.88583461008965969085693359375</LatitudeDegrees>
              <LongitudeDegrees>-3.124077133834362030029296875</LongitudeDegrees>
            </Position>
            <AltitudeMeters>746</AltitudeMeters>
            <DistanceMeters>29569.554381043</DistanceMeters>
          </Trackpoint>
          <Trackpoint>
            <Time>2021-07-27T10:30:57.000Z</Time>
            <Position>
              <LatitudeDegrees>40.88591256178915500640869140625</LatitudeDegrees>
              <LongitudeDegrees>-3.12405307777225971221923828125</LongitudeDegrees>
            </Position>
            <AltitudeMeters>746</AltitudeMeters>
            <DistanceMeters>29578.463610636</DistanceMeters>
          </Trackpoint>
          <Trackpoint>
            <Time>2021-07-27T10:31:01.000Z</Time>
            <Position>
              <LatitudeDegrees>40.8860692195594310760498046875</LatitudeDegrees>
              <LongitudeDegrees>-3.12400328926742076873779296875</LongitudeDegrees>
            </Position>
            <AltitudeMeters>745.79998779296875</AltitudeMeters>
            <DistanceMeters>29596.396236833</DistanceMeters>
          </Trackpoint>
          <Trackpoint>
            <Time>2021-07-27T10:31:06.000Z</Time>
            <Position>
              <LatitudeDegrees>40.8862586505711078643798828125</LatitudeDegrees>
              <LongitudeDegrees>-3.12394528649747371673583984375</LongitudeDegrees>
            </Position>
            <AltitudeMeters>745.79998779296875</AltitudeMeters>
            <DistanceMeters>29618.037723493</DistanceMeters>
          </Trackpoint>
          <Trackpoint>
            <Time>2021-07-27T10:31:16.000Z</Time>
            <Position>
              <LatitudeDegrees>40.886640362441539764404296875</LatitudeDegrees>
              <LongitudeDegrees>-3.1238473020493984222412109375</LongitudeDegrees>
            </Position>
            <AltitudeMeters>746.5999755859375</AltitudeMeters>
            <DistanceMeters>29661.315585104</DistanceMeters>
          </Trackpoint>
          <Trackpoint>
            <Time>2021-07-27T10:31:30.000Z</Time>
            <Position>
              <LatitudeDegrees>40.88717588223516941070556640625</LatitudeDegrees>
              <LongitudeDegrees>-3.12372249551117420196533203125</LongitudeDegrees>
            </Position>
            <AltitudeMeters>748.79998779296875</AltitudeMeters>
            <DistanceMeters>29721.837979379</DistanceMeters>
          </Trackpoint>
          <Trackpoint>
            <Time>2021-07-27T10:31:32.000Z</Time>
            <Position>
              <LatitudeDegrees>40.887253247201442718505859375</LatitudeDegrees>
              <LongitudeDegrees>-3.12371126376092433929443359375</LongitudeDegrees>
            </Position>
            <AltitudeMeters>749.4000244140625</AltitudeMeters>
            <DistanceMeters>29730.500538773</DistanceMeters>
          </Trackpoint>
          <Trackpoint>
            <Time>2021-07-27T10:31:45.000Z</Time>
            <Position>
              <LatitudeDegrees>40.88776026852428913116455078125</LatitudeDegrees>
              <LongitudeDegrees>-3.12367270700633525848388671875</LongitudeDegrees>
            </Position>
            <AltitudeMeters>751.5999755859375</AltitudeMeters>
            <DistanceMeters>29787.026099702</DistanceMeters>
          </Trackpoint>
          <Trackpoint>
            <Time>2021-07-27T10:31:56.000Z</Time>
            <Position>
              <LatitudeDegrees>40.8881871588528156280517578125</LatitudeDegrees>
              <LongitudeDegrees>-3.12367807142436504364013671875</LongitudeDegrees>
            </Position>
            <AltitudeMeters>752.20001220703125</AltitudeMeters>
            <DistanceMeters>29834.541927518</DistanceMeters>
          </Trackpoint>
          <Trackpoint>
            <Time>2021-07-27T10:32:07.000Z</Time>
            <Position>
              <LatitudeDegrees>40.8886200003325939178466796875</LatitudeDegrees>
              <LongitudeDegrees>-3.12368460930883884429931640625</LongitudeDegrees>
            </Position>
            <AltitudeMeters>753</AltitudeMeters>
            <DistanceMeters>29882.721315129</DistanceMeters>
          </Trackpoint>
          <Trackpoint>
            <Time>2021-07-27T10:32:15.000Z</Time>
            <Position>
              <LatitudeDegrees>40.88892786763608455657958984375</LatitudeDegrees>
              <LongitudeDegrees>-3.12368896789848804473876953125</LongitudeDegrees>
            </Position>
            <AltitudeMeters>754.79998779296875</AltitudeMeters>
            <DistanceMeters>29916.989613761</DistanceMeters>
          </Trackpoint>
          <Trackpoint>
            <Time>2021-07-27T10:32:26.000Z</Time>
            <Position>
              <LatitudeDegrees>40.8893470466136932373046875</LatitudeDegrees>
              <LongitudeDegrees>-3.12369600869715213775634765625</LongitudeDegrees>
            </Position>
            <AltitudeMeters>756.79998779296875</AltitudeMeters>
            <DistanceMeters>29963.648891725</DistanceMeters>
          </Trackpoint>
          <Trackpoint>
            <Time>2021-07-27T10:32:37.000Z</Time>
            <Position>
              <LatitudeDegrees>40.88977284729480743408203125</LatitudeDegrees>
              <LongitudeDegrees>-3.12369315885007381439208984375</LongitudeDegrees>
            </Position>
            <AltitudeMeters>759.4000244140625</AltitudeMeters>
            <DistanceMeters>30011.041982934</DistanceMeters>
          </Trackpoint>
          <Trackpoint>
            <Time>2021-07-27T10:32:39.000Z</Time>
            <Position>
              <LatitudeDegrees>40.889848954975605010986328125</LatitudeDegrees>
              <LongitudeDegrees>-3.12368695624172687530517578125</LongitudeDegrees>
            </Position>
            <AltitudeMeters>759.5999755859375</AltitudeMeters>
            <DistanceMeters>30019.528671907</DistanceMeters>
          </Trackpoint>
          <Trackpoint>
            <Time>2021-07-27T10:32:50.000Z</Time>
            <Position>
              <LatitudeDegrees>40.89026059024035930633544921875</LatitudeDegrees>
              <LongitudeDegrees>-3.12360095791518688201904296875</LongitudeDegrees>
            </Position>
            <AltitudeMeters>758.5999755859375</AltitudeMeters>
            <DistanceMeters>30065.912417261</DistanceMeters>
          </Trackpoint>
          <Trackpoint>
            <Time>2021-07-27T10:32:53.000Z</Time>
            <Position>
              <LatitudeDegrees>40.89037039317190647125244140625</LatitudeDegrees>
              <LongitudeDegrees>-3.12356449663639068603515625</LongitudeDegrees>
            </Position>
            <AltitudeMeters>758.20001220703125</AltitudeMeters>
            <DistanceMeters>30078.51268726</DistanceMeters>
          </Trackpoint>
          <Trackpoint>
            <Time>2021-07-27T10:33:04.000Z</Time>
            <Position>
              <LatitudeDegrees>40.89075746946036815643310546875</LatitudeDegrees>
              <LongitudeDegrees>-3.1233738921582698822021484375</LongitudeDegrees>
            </Position>
            <AltitudeMeters>759.20001220703125</AltitudeMeters>
            <DistanceMeters>30124.483229241</DistanceMeters>
          </Trackpoint>
          <Trackpoint>
            <Time>2021-07-27T10:33:14.000Z</Time>
            <Position>
              <LatitudeDegrees>40.89108536951243877410888671875</LatitudeDegrees>
              <LongitudeDegrees>-3.123135007917881011962890625</LongitudeDegrees>
            </Position>
            <AltitudeMeters>759.4000244140625</AltitudeMeters>
            <DistanceMeters>30166.147865272</DistanceMeters>
          </Trackpoint>
          <Trackpoint>
            <Time>2021-07-27T10:33:25.000Z</Time>
            <Position>
              <LatitudeDegrees>40.891422741115093231201171875</LatitudeDegrees>
              <LongitudeDegrees>-3.12283317558467388153076171875</LongitudeDegrees>
            </Position>
            <AltitudeMeters>760.20001220703125</AltitudeMeters>
            <DistanceMeters>30211.4794926</DistanceMeters>
          </Trackpoint>
          <Trackpoint>
            <Time>2021-07-27T10:33:35.000Z</Time>
            <Position>
              <LatitudeDegrees>40.8917327038943767547607421875</LatitudeDegrees>
              <LongitudeDegrees>-3.12256679870188236236572265625</LongitudeDegrees>
            </Position>
            <AltitudeMeters>761.4000244140625</AltitudeMeters>
            <DistanceMeters>30252.619914548</DistanceMeters>
          </Trackpoint>
          <Trackpoint>
            <Time>2021-07-27T10:33:47.000Z</Time>
            <Position>
              <LatitudeDegrees>40.892140567302703857421875</LatitudeDegrees>
              <LongitudeDegrees>-3.1223040260374546051025390625</LongitudeDegrees>
            </Position>
            <AltitudeMeters>762.4000244140625</AltitudeMeters>
            <DistanceMeters>30303.113626966</DistanceMeters>
          </Trackpoint>
          <Trackpoint>
            <Time>2021-07-27T10:34:01.000Z</Time>
            <Position>
              <LatitudeDegrees>40.89268413372337818145751953125</LatitudeDegrees>
              <LongitudeDegrees>-3.1221259944140911102294921875</LongitudeDegrees>
            </Position>
            <AltitudeMeters>764.79998779296875</AltitudeMeters>
            <DistanceMeters>30365.440431194</DistanceMeters>
          </Trackpoint>
          <Trackpoint>
            <Time>2021-07-27T10:34:03.000Z</Time>
            <Position>
              <LatitudeDegrees>40.8927670307457447052001953125</LatitudeDegrees>
              <LongitudeDegrees>-3.12211350537836551666259765625</LongitudeDegrees>
            </Position>
            <AltitudeMeters>765.5999755859375</AltitudeMeters>
            <DistanceMeters>30374.726831468</DistanceMeters>
          </Trackpoint>
          <Trackpoint>
            <Time>2021-07-27T10:34:16.000Z</Time>
            <Position>
              <LatitudeDegrees>40.8933262713253498077392578125</LatitudeDegrees>
              <LongitudeDegrees>-3.12214753590524196624755859375</LongitudeDegrees>
            </Position>
            <AltitudeMeters>768.79998779296875</AltitudeMeters>
            <DistanceMeters>30437.037261799</DistanceMeters>
          </Trackpoint>
          <Trackpoint>
            <Time>2021-07-27T10:34:29.000Z</Time>
            <Position>
              <LatitudeDegrees>40.89388878084719181060791015625</LatitudeDegrees>
              <LongitudeDegrees>-3.12232808209955692291259765625</LongitudeDegrees>
            </Position>
            <AltitudeMeters>768.4000244140625</AltitudeMeters>
            <DistanceMeters>30501.462150441</DistanceMeters>
          </Trackpoint>
          <Trackpoint>
            <Time>2021-07-27T10:34:41.000Z</Time>
            <Position>
              <LatitudeDegrees>40.8944351971149444580078125</LatitudeDegrees>
              <LongitudeDegrees>-3.12248046509921550750732421875</LongitudeDegrees>
            </Position>
            <AltitudeMeters>762.4000244140625</AltitudeMeters>
            <DistanceMeters>30563.616014545</DistanceMeters>
          </Trackpoint>
          <Trackpoint>
            <Time>2021-07-27T10:34:53.000Z</Time>
            <Position>
              <LatitudeDegrees>40.8949895761907100677490234375</LatitudeDegrees>
              <LongitudeDegrees>-3.122483901679515838623046875</LongitudeDegrees>
            </Position>
            <AltitudeMeters>761.20001220703125</AltitudeMeters>
            <DistanceMeters>30625.320190348</DistanceMeters>
          </Trackpoint>
          <Trackpoint>
            <Time>2021-07-27T10:34:57.000Z</Time>
            <Position>
              <LatitudeDegrees>40.89517104439437389373779296875</LatitudeDegrees>
              <LongitudeDegrees>-3.12244408763945102691650390625</LongitudeDegrees>
            </Position>
            <AltitudeMeters>762</AltitudeMeters>
            <DistanceMeters>30645.793982096</DistanceMeters>
          </Trackpoint>
          <Trackpoint>
            <Time>2021-07-27T10:35:08.000Z</Time>
            <Position>
              <LatitudeDegrees>40.89565384201705455780029296875</LatitudeDegrees>
              <LongitudeDegrees>-3.122286088764667510986328125</LongitudeDegrees>
            </Position>
            <AltitudeMeters>765.5999755859375</AltitudeMeters>
            <DistanceMeters>30701.150122323</DistanceMeters>
          </Trackpoint>
          <Trackpoint>
            <Time>2021-07-27T10:35:17.000Z</Time>
            <Position>
              <LatitudeDegrees>40.89603312313556671142578125</LatitudeDegrees>
              <LongitudeDegrees>-3.1221598573029041290283203125</LongitudeDegrees>
            </Position>
            <AltitudeMeters>769.5999755859375</AltitudeMeters>
            <DistanceMeters>30744.680344825</DistanceMeters>
          </Trackpoint>
          <Trackpoint>
            <Time>2021-07-27T10:35:30.000Z</Time>
            <Position>
              <LatitudeDegrees>40.89660317637026309967041015625</LatitudeDegrees>
              <LongitudeDegrees>-3.12207059003412723541259765625</LongitudeDegrees>
            </Position>
            <AltitudeMeters>771.79998779296875</AltitudeMeters>
            <DistanceMeters>30808.571307305</DistanceMeters>
          </Trackpoint>
          <Trackpoint>
            <Time>2021-07-27T10:35:43.000Z</Time>
            <Position>
              <LatitudeDegrees>40.89717582799494266510009765625</LatitudeDegrees>
              <LongitudeDegrees>-3.12213529832661151885986328125</LongitudeDegrees>
            </Position>
            <AltitudeMeters>768.5999755859375</AltitudeMeters>
            <DistanceMeters>30872.540592445</DistanceMeters>
          </Trackpoint>
          <Trackpoint>
            <Time>2021-07-27T10:35:44.000Z</Time>
            <Position>
              <LatitudeDegrees>40.89721807278692722320556640625</LatitudeDegrees>
              <LongitudeDegrees>-3.12214468605816364288330078125</LongitudeDegrees>
            </Position>
            <AltitudeMeters>768.4000244140625</AltitudeMeters>
            <DistanceMeters>30877.308055336</DistanceMeters>
          </Trackpoint>
          <Trackpoint>
            <Time>2021-07-27T10:35:57.000Z</Time>
            <Position>
              <LatitudeDegrees>40.8977814204990863800048828125</LatitudeDegrees>
              <LongitudeDegrees>-3.12229271046817302703857421875</LongitudeDegrees>
            </Position>
            <AltitudeMeters>772.20001220703125</AltitudeMeters>
            <DistanceMeters>30941.234483243</DistanceMeters>
          </Trackpoint>
          <Trackpoint>
            <Time>2021-07-27T10:36:09.000Z</Time>
            <Position>
              <LatitudeDegrees>40.89827721007168292999267578125</LatitudeDegrees>
              <LongitudeDegrees>-3.12243369407951831817626953125</LongitudeDegrees>
            </Position>
            <AltitudeMeters>773.5999755859375</AltitudeMeters>
            <DistanceMeters>30997.677151935</DistanceMeters>
          </Trackpoint>
          <Trackpoint>
            <Time>2021-07-27T10:36:18.000Z</Time>
            <Position>
              <LatitudeDegrees>40.89862271212041378021240234375</LatitudeDegrees>
              <LongitudeDegrees>-3.12253477983176708221435546875</LongitudeDegrees>
            </Position>
            <AltitudeMeters>771.79998779296875</AltitudeMeters>
            <DistanceMeters>31037.061340272</DistanceMeters>
          </Trackpoint>
          <Trackpoint>
            <Time>2021-07-27T10:36:27.000Z</Time>
            <Position>
              <LatitudeDegrees>40.8989646099507808685302734375</LatitudeDegrees>
              <LongitudeDegrees>-3.12261633574962615966796875</LongitudeDegrees>
            </Position>
            <AltitudeMeters>771.79998779296875</AltitudeMeters>
            <DistanceMeters>31075.728923561</DistanceMeters>
          </Trackpoint>
          <Trackpoint>
            <Time>2021-07-27T10:36:36.000Z</Time>
            <Position>
              <LatitudeDegrees>40.8993092738091945648193359375</LatitudeDegrees>
              <LongitudeDegrees>-3.1226520426571369171142578125</LongitudeDegrees>
            </Position>
            <AltitudeMeters>773</AltitudeMeters>
            <DistanceMeters>31114.208055235</DistanceMeters>
          </Trackpoint>
          <Trackpoint>
            <Time>2021-07-27T10:36:46.000Z</Time>
            <Position>
              <LatitudeDegrees>40.8996837772428989410400390625</LatitudeDegrees>
              <LongitudeDegrees>-3.122634105384349822998046875</LongitudeDegrees>
            </Position>
            <AltitudeMeters>773.79998779296875</AltitudeMeters>
            <DistanceMeters>31155.918180237</DistanceMeters>
          </Trackpoint>
          <Trackpoint>
            <Time>2021-07-27T10:36:56.000Z</Time>
            <Position>
              <LatitudeDegrees>40.90005367062985897064208984375</LatitudeDegrees>
              <LongitudeDegrees>-3.122532181441783905029296875</LongitudeDegrees>
            </Position>
            <AltitudeMeters>774.5999755859375</AltitudeMeters>
            <DistanceMeters>31197.97155455</DistanceMeters>
          </Trackpoint>
          <Trackpoint>
            <Time>2021-07-27T10:37:05.000Z</Time>
            <Position>
              <LatitudeDegrees>40.9003767929971218109130859375</LatitudeDegrees>
              <LongitudeDegrees>-3.12239530496299266815185546875</LongitudeDegrees>
            </Position>
            <AltitudeMeters>777.79998779296875</AltitudeMeters>
            <DistanceMeters>31235.73424304</DistanceMeters>
          </Trackpoint>
          <Trackpoint>
            <Time>2021-07-27T10:37:14.000Z</Time>
            <Position>
              <LatitudeDegrees>40.90067342855036258697509765625</LatitudeDegrees>
              <LongitudeDegrees>-3.12223277986049652099609375</LongitudeDegrees>
            </Position>
            <AltitudeMeters>780.20001220703125</AltitudeMeters>
            <DistanceMeters>31271.469468245</DistanceMeters>
          </Trackpoint>
          <Trackpoint>
            <Time>2021-07-27T10:37:22.000Z</Time>
            <Position>
              <LatitudeDegrees>40.900935865938663482666015625</LatitudeDegrees>
              <LongitudeDegrees>-3.1220810674130916595458984375</LongitudeDegrees>
            </Position>
            <AltitudeMeters>780.79998779296875</AltitudeMeters>
            <DistanceMeters>31303.345796794</DistanceMeters>
          </Trackpoint>
          <Trackpoint>
            <Time>2021-07-27T10:37:32.000Z</Time>
            <Position>
              <LatitudeDegrees>40.901269800961017608642578125</LatitudeDegrees>
              <LongitudeDegrees>-3.12188417650759220123291015625</LongitudeDegrees>
            </Position>
            <AltitudeMeters>785</AltitudeMeters>
            <DistanceMeters>31344.037207892</DistanceMeters>
          </Trackpoint>
          <Trackpoint>
            <Time>2021-07-27T10:37:44.000Z</Time>
            <Position>
              <LatitudeDegrees>40.90167808346450328826904296875</LatitudeDegrees>
              <LongitudeDegrees>-3.12164445407688617706298828125</LongitudeDegrees>
            </Position>
            <AltitudeMeters>787</AltitudeMeters>
            <DistanceMeters>31393.753800841</DistanceMeters>
          </Trackpoint>
          <Trackpoint>
            <Time>2021-07-27T10:37:54.000Z</Time>
            <Position>
              <LatitudeDegrees>40.90201444923877716064453125</LatitudeDegrees>
              <LongitudeDegrees>-3.1214631535112857818603515625</LongitudeDegrees>
            </Position>
            <AltitudeMeters>785.4000244140625</AltitudeMeters>
            <DistanceMeters>31434.179375846</DistanceMeters>
          </Trackpoint>
          <Trackpoint>
            <Time>2021-07-27T10:37:59.000Z</Time>
            <Position>
              <LatitudeDegrees>40.90219013392925262451171875</LatitudeDegrees>
              <LongitudeDegrees>-3.121390901505947113037109375</LongitudeDegrees>
            </Position>
            <AltitudeMeters>786</AltitudeMeters>
            <DistanceMeters>31454.656254749</DistanceMeters>
          </Trackpoint>
          <Trackpoint>
            <Time>2021-07-27T10:38:02.000Z</Time>
            <Position>
              <LatitudeDegrees>40.90230069123208522796630859375</LatitudeDegrees>
              <LongitudeDegrees>-3.12135301530361175537109375</LongitudeDegrees>
            </Position>
            <AltitudeMeters>786.4000244140625</AltitudeMeters>
            <DistanceMeters>31467.367476477</DistanceMeters>
          </Trackpoint>
          <Trackpoint>
            <Time>2021-07-27T10:38:12.000Z</Time>
            <Position>
              <LatitudeDegrees>40.9026734344661235809326171875</LatitudeDegrees>
              <LongitudeDegrees>-3.12125503085553646087646484375</LongitudeDegrees>
            </Position>
            <AltitudeMeters>788.4000244140625</AltitudeMeters>
            <DistanceMeters>31509.665573903</DistanceMeters>
          </Trackpoint>
          <Trackpoint>
            <Time>2021-07-27T10:38:26.000Z</Time>
            <Position>
              <LatitudeDegrees>40.903211049735546112060546875</LatitudeDegrees>
              <LongitudeDegrees>-3.12114338390529155731201171875</LongitudeDegrees>
            </Position>
            <AltitudeMeters>785.5999755859375</AltitudeMeters>
            <DistanceMeters>31570.235843159</DistanceMeters>
          </Trackpoint>
          <Trackpoint>
            <Time>2021-07-27T10:38:28.000Z</Time>
            <Position>
              <LatitudeDegrees>40.90329092927277088165283203125</LatitudeDegrees>
              <LongitudeDegrees>-3.1211322359740734100341796875</LongitudeDegrees>
            </Position>
            <AltitudeMeters>785.20001220703125</AltitudeMeters>
            <DistanceMeters>31579.175933014</DistanceMeters>
          </Trackpoint>
          <Trackpoint>
            <Time>2021-07-27T10:38:41.000Z</Time>
            <Position>
              <LatitudeDegrees>40.9038378484547138214111328125</LatitudeDegrees>
              <LongitudeDegrees>-3.1211979500949382781982421875</LongitudeDegrees>
            </Position>
            <AltitudeMeters>785.4000244140625</AltitudeMeters>
            <DistanceMeters>31640.299609506</DistanceMeters>
          </Trackpoint>
          <Trackpoint>
            <Time>2021-07-27T10:38:54.000Z</Time>
            <Position>
              <LatitudeDegrees>40.904405303299427032470703125</LatitudeDegrees>
              <LongitudeDegrees>-3.1213769875466823577880859375</LongitudeDegrees>
            </Position>
            <AltitudeMeters>785.4000244140625</AltitudeMeters>
            <DistanceMeters>31705.229354534</DistanceMeters>
          </Trackpoint>
          <Trackpoint>
            <Time>2021-07-27T10:39:02.000Z</Time>
            <Position>
              <LatitudeDegrees>40.90474435128271579742431640625</LatitudeDegrees>
              <LongitudeDegrees>-3.1214329786598682403564453125</LongitudeDegrees>
            </Position>
            <AltitudeMeters>787</AltitudeMeters>
            <DistanceMeters>31743.259040876</DistanceMeters>
          </Trackpoint>
          <Trackpoint>
            <Time>2021-07-27T10:39:10.000Z</Time>
            <Position>
              <LatitudeDegrees>40.9050622768700122833251953125</LatitudeDegrees>
              <LongitudeDegrees>-3.12139450572431087493896484375</LongitudeDegrees>
            </Position>
            <AltitudeMeters>787.4000244140625</AltitudeMeters>
            <DistanceMeters>31778.792425302</DistanceMeters>
          </Trackpoint>
          <Trackpoint>
            <Time>2021-07-27T10:39:17.000Z</Time>
            <Position>
              <LatitudeDegrees>40.9053120575845241546630859375</LatitudeDegrees>
              <LongitudeDegrees>-3.1213173083961009979248046875</LongitudeDegrees>
            </Position>
            <AltitudeMeters>787.79998779296875</AltitudeMeters>
            <DistanceMeters>31807.341904456</DistanceMeters>
          </Trackpoint>
          <Trackpoint>
            <Time>2021-07-27T10:39:26.000Z</Time>
            <Position>
              <LatitudeDegrees>40.90561908669769763946533203125</LatitudeDegrees>
              <LongitudeDegrees>-3.1212197430431842803955078125</LongitudeDegrees>
            </Position>
            <AltitudeMeters>789</AltitudeMeters>
            <DistanceMeters>31842.486761067</DistanceMeters>
          </Trackpoint>
          <Trackpoint>
            <Time>2021-07-27T10:39:34.000Z</Time>
            <Position>
              <LatitudeDegrees>40.9058984555304050445556640625</LatitudeDegrees>
              <LongitudeDegrees>-3.12117867171764373779296875</LongitudeDegrees>
            </Position>
            <AltitudeMeters>790.20001220703125</AltitudeMeters>
            <DistanceMeters>31873.772493854</DistanceMeters>
          </Trackpoint>
          <Trackpoint>
            <Time>2021-07-27T10:39:48.000Z</Time>
            <Position>
              <LatitudeDegrees>40.90640111826360225677490234375</LatitudeDegrees>
              <LongitudeDegrees>-3.1212130375206470489501953125</LongitudeDegrees>
            </Position>
            <AltitudeMeters>792.20001220703125</AltitudeMeters>
            <DistanceMeters>31929.794429277</DistanceMeters>
          </Trackpoint>
          <Trackpoint>
            <Time>2021-07-27T10:39:55.000Z</Time>
            <Position>
              <LatitudeDegrees>40.9066514857113361358642578125</LatitudeDegrees>
              <LongitudeDegrees>-3.1212489120662212371826171875</LongitudeDegrees>
            </Position>
            <AltitudeMeters>794.5999755859375</AltitudeMeters>
            <DistanceMeters>31957.823927505</DistanceMeters>
          </Trackpoint>
          <Trackpoint>
            <Time>2021-07-27T10:39:58.000Z</Time>
            <Position>
              <LatitudeDegrees>40.906754247844219207763671875</LatitudeDegrees>
              <LongitudeDegrees>-3.121248744428157806396484375</LongitudeDegrees>
            </Position>
            <AltitudeMeters>795.79998779296875</AltitudeMeters>
            <DistanceMeters>31969.261923288</DistanceMeters>
          </Trackpoint>
          <Trackpoint>
            <Time>2021-07-27T10:40:05.000Z</Time>
            <Position>
              <LatitudeDegrees>40.90697259642183780670166015625</LatitudeDegrees>
              <LongitudeDegrees>-3.121229968965053558349609375</LongitudeDegrees>
            </Position>
            <AltitudeMeters>797</AltitudeMeters>
            <DistanceMeters>31993.61565916</DistanceMeters>
          </Trackpoint>
          <Trackpoint>
            <Time>2021-07-27T10:40:11.000Z</Time>
            <Position>
              <LatitudeDegrees>40.9071327745914459228515625</LatitudeDegrees>
              <LongitudeDegrees>-3.1211888976395130157470703125</LongitudeDegrees>
            </Position>
            <AltitudeMeters>797.5999755859375</AltitudeMeters>
            <DistanceMeters>32011.77570932</DistanceMeters>
          </Trackpoint>
          <Trackpoint>
            <Time>2021-07-27T10:40:17.000Z</Time>
            <Position>
              <LatitudeDegrees>40.9072856605052947998046875</LatitudeDegrees>
              <LongitudeDegrees>-3.1211262010037899017333984375</LongitudeDegrees>
            </Position>
            <AltitudeMeters>798.20001220703125</AltitudeMeters>
            <DistanceMeters>32029.590874118</DistanceMeters>
          </Trackpoint>
          <Trackpoint>
            <Time>2021-07-27T10:40:21.000Z</Time>
            <Position>
              <LatitudeDegrees>40.90737995691597461700439453125</LatitudeDegrees>
              <LongitudeDegrees>-3.121074400842189788818359375</LongitudeDegrees>
            </Position>
            <AltitudeMeters>798.5999755859375</AltitudeMeters>
            <DistanceMeters>32040.955211023</DistanceMeters>
          </Trackpoint>
          <Trackpoint>
            <Time>2021-07-27T10:40:27.000Z</Time>
            <Position>
              <LatitudeDegrees>40.9075171686708927154541015625</LatitudeDegrees>
              <LongitudeDegrees>-3.12098446302115917205810546875</LongitudeDegrees>
            </Position>
            <AltitudeMeters>799.20001220703125</AltitudeMeters>
            <DistanceMeters>32057.998405236</DistanceMeters>
          </Trackpoint>
          <Trackpoint>
            <Time>2021-07-27T10:40:32.000Z</Time>
            <Position>
              <LatitudeDegrees>40.90762621723115444183349609375</LatitudeDegrees>
              <LongitudeDegrees>-3.120900727808475494384765625</LongitudeDegrees>
            </Position>
            <AltitudeMeters>799.79998779296875</AltitudeMeters>
            <DistanceMeters>32072.031505645</DistanceMeters>
          </Trackpoint>
          <Trackpoint>
            <Time>2021-07-27T10:40:38.000Z</Time>
            <Position>
              <LatitudeDegrees>40.90774339623749256134033203125</LatitudeDegrees>
              <LongitudeDegrees>-3.12079377472400665283203125</LongitudeDegrees>
            </Position>
            <AltitudeMeters>800.5999755859375</AltitudeMeters>
            <DistanceMeters>32087.875910185</DistanceMeters>
          </Trackpoint>
          <Trackpoint>
            <Time>2021-07-27T10:40:44.000Z</Time>
            <Position>
              <LatitudeDegrees>40.90782889164984226226806640625</LatitudeDegrees>
              <LongitudeDegrees>-3.1206950359046459197998046875</LongitudeDegrees>
            </Position>
            <AltitudeMeters>801.20001220703125</AltitudeMeters>
            <DistanceMeters>32100.506958859</DistanceMeters>
          </Trackpoint>
          <Trackpoint>
            <Time>2021-07-27T10:40:52.000Z</Time>
            <Position>
              <LatitudeDegrees>40.9079376049339771270751953125</LatitudeDegrees>
              <LongitudeDegrees>-3.1205649487674236297607421875</LongitudeDegrees>
            </Position>
            <AltitudeMeters>802</AltitudeMeters>
            <DistanceMeters>32116.821138983</DistanceMeters>
          </Trackpoint>
          <Trackpoint>
            <Time>2021-07-27T10:41:00.000Z</Time>
            <Position>
              <LatitudeDegrees>40.90804749168455600738525390625</LatitudeDegrees>
              <LongitudeDegrees>-3.12042497098445892333984375</LongitudeDegrees>
            </Position>
            <AltitudeMeters>802.79998779296875</AltitudeMeters>
            <DistanceMeters>32133.798240618</DistanceMeters>
          </Trackpoint>
          <Trackpoint>
            <Time>2021-07-27T10:41:08.000Z</Time>
            <Position>
              <LatitudeDegrees>40.90815134346485137939453125</LatitudeDegrees>
              <LongitudeDegrees>-3.1202893517911434173583984375</LongitudeDegrees>
            </Position>
            <AltitudeMeters>803.79998779296875</AltitudeMeters>
            <DistanceMeters>32150.038636942</DistanceMeters>
          </Trackpoint>
          <Trackpoint>
            <Time>2021-07-27T10:41:16.000Z</Time>
            <Position>
              <LatitudeDegrees>40.90825863182544708251953125</LatitudeDegrees>
              <LongitudeDegrees>-3.12015851028263568878173828125</LongitudeDegrees>
            </Position>
            <AltitudeMeters>805.4000244140625</AltitudeMeters>
            <DistanceMeters>32166.278477232</DistanceMeters>
          </Trackpoint>
          <Trackpoint>
            <Time>2021-07-27T10:41:22.000Z</Time>
            <Position>
              <LatitudeDegrees>40.908338092267513275146484375</LatitudeDegrees>
              <LongitudeDegrees>-3.12006278894841670989990234375</LongitudeDegrees>
            </Position>
            <AltitudeMeters>806.79998779296875</AltitudeMeters>
            <DistanceMeters>32178.239015306</DistanceMeters>
          </Trackpoint>
          <Trackpoint>
            <Time>2021-07-27T10:41:30.000Z</Time>
            <Position>
              <LatitudeDegrees>40.90844848193228244781494140625</LatitudeDegrees>
              <LongitudeDegrees>-3.1199225597083568572998046875</LongitudeDegrees>
            </Position>
            <AltitudeMeters>808.5999755859375</AltitudeMeters>
            <DistanceMeters>32195.271344443</DistanceMeters>
          </Trackpoint>
          <Trackpoint>
            <Time>2021-07-27T10:41:37.000Z</Time>
            <Position>
              <LatitudeDegrees>40.9085390903055667877197265625</LatitudeDegrees>
              <LongitudeDegrees>-3.11979641206562519073486328125</LongitudeDegrees>
            </Position>
            <AltitudeMeters>809.4000244140625</AltitudeMeters>
            <DistanceMeters>32209.910394077</DistanceMeters>
          </Trackpoint>
          <Trackpoint>
            <Time>2021-07-27T10:41:43.000Z</Time>
            <Position>
              <LatitudeDegrees>40.90861427597701549530029296875</LatitudeDegrees>
              <LongitudeDegrees>-3.1196861900389194488525390625</LongitudeDegrees>
            </Position>
            <AltitudeMeters>809.79998779296875</AltitudeMeters>
            <DistanceMeters>32222.400534214</DistanceMeters>
          </Trackpoint>
          <Trackpoint>
            <Time>2021-07-27T10:41:51.000Z</Time>
            <Position>
              <LatitudeDegrees>40.90870253741741180419921875</LatitudeDegrees>
              <LongitudeDegrees>-3.119524084031581878662109375</LongitudeDegrees>
            </Position>
            <AltitudeMeters>810.4000244140625</AltitudeMeters>
            <DistanceMeters>32239.206566792</DistanceMeters>
          </Trackpoint>
          <Trackpoint>
            <Time>2021-07-27T10:41:58.000Z</Time>
            <Position>
              <LatitudeDegrees>40.9087747894227504730224609375</LatitudeDegrees>
              <LongitudeDegrees>-3.11936910264194011688232421875</LongitudeDegrees>
            </Position>
            <AltitudeMeters>811</AltitudeMeters>
            <DistanceMeters>32254.523859182</DistanceMeters>
          </Trackpoint>
          <Trackpoint>
            <Time>2021-07-27T10:42:04.000Z</Time>
            <Position>
              <LatitudeDegrees>40.90882600285112857818603515625</LatitudeDegrees>
              <LongitudeDegrees>-3.11922811903059482574462890625</LongitudeDegrees>
            </Position>
            <AltitudeMeters>812.5999755859375</AltitudeMeters>
            <DistanceMeters>32267.681542321</DistanceMeters>
          </Trackpoint>
          <Trackpoint>
            <Time>2021-07-27T10:42:11.000Z</Time>
            <Position>
              <LatitudeDegrees>40.90887612663209438323974609375</LatitudeDegrees>
              <LongitudeDegrees>-3.11906618066132068634033203125</LongitudeDegrees>
            </Position>
            <AltitudeMeters>814.4000244140625</AltitudeMeters>
            <DistanceMeters>32282.401484042</DistanceMeters>
          </Trackpoint>
          <Trackpoint>
            <Time>2021-07-27T10:42:17.000Z</Time>
            <Position>
              <LatitudeDegrees>40.9089149348437786102294921875</LatitudeDegrees>
              <LongitudeDegrees>-3.11891480349004268646240234375</LongitudeDegrees>
            </Position>
            <AltitudeMeters>816.79998779296875</AltitudeMeters>
            <DistanceMeters>32295.847680179</DistanceMeters>
          </Trackpoint>
          <Trackpoint>
            <Time>2021-07-27T10:42:26.000Z</Time>
            <Position>
              <LatitudeDegrees>40.90895826928317546844482421875</LatitudeDegrees>
              <LongitudeDegrees>-3.11869000084698200225830078125</LongitudeDegrees>
            </Position>
            <AltitudeMeters>819.5999755859375</AltitudeMeters>
            <DistanceMeters>32315.362660168</DistanceMeters>
          </Trackpoint>
          <Trackpoint>
            <Time>2021-07-27T10:42:33.000Z</Time>
            <Position>
              <LatitudeDegrees>40.90898777358233928680419921875</LatitudeDegrees>
              <LongitudeDegrees>-3.1185063533484935760498046875</LongitudeDegrees>
            </Position>
            <AltitudeMeters>821</AltitudeMeters>
            <DistanceMeters>32331.155402532</DistanceMeters>
          </Trackpoint>
          <Trackpoint>
            <Time>2021-07-27T10:42:37.000Z</Time>
            <Position>
              <LatitudeDegrees>40.909006632864475250244140625</LatitudeDegrees>
              <LongitudeDegrees>-3.118400909006595611572265625</LongitudeDegrees>
            </Position>
            <AltitudeMeters>821.79998779296875</AltitudeMeters>
            <DistanceMeters>32340.270044778</DistanceMeters>
          </Trackpoint>
          <Trackpoint>
            <Time>2021-07-27T10:42:41.000Z</Time>
            <Position>
              <LatitudeDegrees>40.90901962481439113616943359375</LatitudeDegrees>
              <LongitudeDegrees>-3.118288926780223846435546875</LongitudeDegrees>
            </Position>
            <AltitudeMeters>822.4000244140625</AltitudeMeters>
            <DistanceMeters>32349.799286549</DistanceMeters>
          </Trackpoint>
          <Trackpoint>
            <Time>2021-07-27T10:42:50.000Z</Time>
            <Position>
              <LatitudeDegrees>40.909054912626743316650390625</LatitudeDegrees>
              <LongitudeDegrees>-3.1180250644683837890625</LongitudeDegrees>
            </Position>
            <AltitudeMeters>823.4000244140625</AltitudeMeters>
            <DistanceMeters>32372.339254625</DistanceMeters>
          </Trackpoint>
          <Trackpoint>
            <Time>2021-07-27T10:42:58.000Z</Time>
            <Position>
              <LatitudeDegrees>40.9090907871723175048828125</LatitudeDegrees>
              <LongitudeDegrees>-3.11778291128575801849365234375</LongitudeDegrees>
            </Position>
            <AltitudeMeters>824.20001220703125</AltitudeMeters>
            <DistanceMeters>32393.096012737</DistanceMeters>
          </Trackpoint>
          <Trackpoint>
            <Time>2021-07-27T10:43:08.000Z</Time>
            <Position>
              <LatitudeDegrees>40.9091362170875072479248046875</LatitudeDegrees>
              <LongitudeDegrees>-3.11746423132717609405517578125</LongitudeDegrees>
            </Position>
            <AltitudeMeters>825.20001220703125</AltitudeMeters>
            <DistanceMeters>32420.374804489</DistanceMeters>
          </Trackpoint>
          <Trackpoint>
            <Time>2021-07-27T10:43:17.000Z</Time>
            <Position>
              <LatitudeDegrees>40.90916731394827365875244140625</LatitudeDegrees>
              <LongitudeDegrees>-3.11717203818261623382568359375</LongitudeDegrees>
            </Position>
            <AltitudeMeters>826.79998779296875</AltitudeMeters>
            <DistanceMeters>32445.195338432</DistanceMeters>
          </Trackpoint>
          <Trackpoint>
            <Time>2021-07-27T10:43:24.000Z</Time>
            <Position>
              <LatitudeDegrees>40.9091846644878387451171875</LatitudeDegrees>
              <LongitudeDegrees>-3.1169369257986545562744140625</LongitudeDegrees>
            </Position>
            <AltitudeMeters>827.5999755859375</AltitudeMeters>
            <DistanceMeters>32465.066149251</DistanceMeters>
          </Trackpoint>
          <Trackpoint>
            <Time>2021-07-27T10:43:33.000Z</Time>
            <Position>
              <LatitudeDegrees>40.909199416637420654296875</LatitudeDegrees>
              <LongitudeDegrees>-3.116641379892826080322265625</LongitudeDegrees>
            </Position>
            <AltitudeMeters>830.4000244140625</AltitudeMeters>
            <DistanceMeters>32489.980914249</DistanceMeters>
          </Trackpoint>
          <Trackpoint>
            <Time>2021-07-27T10:43:44.000Z</Time>
            <Position>
              <LatitudeDegrees>40.90922112576663494110107421875</LatitudeDegrees>
              <LongitudeDegrees>-3.1162408925592899322509765625</LongitudeDegrees>
            </Position>
            <AltitudeMeters>832.79998779296875</AltitudeMeters>
            <DistanceMeters>32523.755125069</DistanceMeters>
          </Trackpoint>
          <Trackpoint>
            <Time>2021-07-27T10:43:58.000Z</Time>
            <Position>
              <LatitudeDegrees>40.90925909578800201416015625</LatitudeDegrees>
              <LongitudeDegrees>-3.115585260093212127685546875</LongitudeDegrees>
            </Position>
            <AltitudeMeters>830.4000244140625</AltitudeMeters>
            <DistanceMeters>32579.066060683</DistanceMeters>
          </Trackpoint>
          <Trackpoint>
            <Time>2021-07-27T10:44:04.000Z</Time>
            <Position>
              <LatitudeDegrees>40.9092978201806545257568359375</LatitudeDegrees>
              <LongitudeDegrees>-3.1151586212217807769775390625</LongitudeDegrees>
            </Position>
            <AltitudeMeters>829</AltitudeMeters>
            <DistanceMeters>32615.211205031</DistanceMeters>
          </Trackpoint>
          <Trackpoint>
            <Time>2021-07-27T10:44:06.000Z</Time>
            <Position>
              <LatitudeDegrees>40.9093152545392513275146484375</LatitudeDegrees>
              <LongitudeDegrees>-3.1149826012551784515380859375</LongitudeDegrees>
            </Position>
            <AltitudeMeters>828</AltitudeMeters>
            <DistanceMeters>32630.144011455</DistanceMeters>
          </Trackpoint>
          <Trackpoint>
            <Time>2021-07-27T10:44:08.000Z</Time>
            <Position>
              <LatitudeDegrees>40.9093363769352436065673828125</LatitudeDegrees>
              <LongitudeDegrees>-3.11479099094867706298828125</LongitudeDegrees>
            </Position>
            <AltitudeMeters>827</AltitudeMeters>
            <DistanceMeters>32646.432155792</DistanceMeters>
          </Trackpoint>
          <Trackpoint>
            <Time>2021-07-27T10:44:09.000Z</Time>
            <Position>
              <LatitudeDegrees>40.9093444235622882843017578125</LatitudeDegrees>
              <LongitudeDegrees>-3.114688731729984283447265625</LongitudeDegrees>
            </Position>
            <AltitudeMeters>826.4000244140625</AltitudeMeters>
            <DistanceMeters>32655.080630986</DistanceMeters>
          </Trackpoint>
          <Trackpoint>
            <Time>2021-07-27T10:44:12.000Z</Time>
            <Position>
              <LatitudeDegrees>40.90937552042305469512939453125</LatitudeDegrees>
              <LongitudeDegrees>-3.1143623404204845428466796875</LongitudeDegrees>
            </Position>
            <AltitudeMeters>825.20001220703125</AltitudeMeters>
            <DistanceMeters>32682.752827907</DistanceMeters>
          </Trackpoint>
          <Trackpoint>
            <Time>2021-07-27T10:44:15.000Z</Time>
            <Position>
              <LatitudeDegrees>40.90940753929316997528076171875</LatitudeDegrees>
              <LongitudeDegrees>-3.11400711536407470703125</LongitudeDegrees>
            </Position>
            <AltitudeMeters>823.79998779296875</AltitudeMeters>
            <DistanceMeters>32712.844804175</DistanceMeters>
          </Trackpoint>
          <Trackpoint>
            <Time>2021-07-27T10:44:17.000Z</Time>
            <Position>
              <LatitudeDegrees>40.9094235487282276153564453125</LatitudeDegrees>
              <LongitudeDegrees>-3.113754652440547943115234375</LongitudeDegrees>
            </Position>
            <AltitudeMeters>822</AltitudeMeters>
            <DistanceMeters>32734.155802854</DistanceMeters>
          </Trackpoint>
          <Trackpoint>
            <Time>2021-07-27T10:44:18.000Z</Time>
            <Position>
              <LatitudeDegrees>40.9094245545566082000732421875</LatitudeDegrees>
              <LongitudeDegrees>-3.11362347565591335296630859375</LongitudeDegrees>
            </Position>
            <AltitudeMeters>821.4000244140625</AltitudeMeters>
            <DistanceMeters>32745.190364502</DistanceMeters>
          </Trackpoint>
          <Trackpoint>
            <Time>2021-07-27T10:44:20.000Z</Time>
            <Position>
              <LatitudeDegrees>40.9094134904444217681884765625</LatitudeDegrees>
              <LongitudeDegrees>-3.113355673849582672119140625</LongitudeDegrees>
            </Position>
            <AltitudeMeters>820.4000244140625</AltitudeMeters>
            <DistanceMeters>32767.750354939</DistanceMeters>
          </Trackpoint>
          <Trackpoint>
            <Time>2021-07-27T10:44:22.000Z</Time>
            <Position>
              <LatitudeDegrees>40.909397900104522705078125</LatitudeDegrees>
              <LongitudeDegrees>-3.1130825914442539215087890625</LongitudeDegrees>
            </Position>
            <AltitudeMeters>819.5999755859375</AltitudeMeters>
            <DistanceMeters>32790.786445587</DistanceMeters>
          </Trackpoint>
          <Trackpoint>
            <Time>2021-07-27T10:44:23.000Z</Time>
            <Position>
              <LatitudeDegrees>40.9093890152871608734130859375</LatitudeDegrees>
              <LongitudeDegrees>-3.11294521205127239227294921875</LongitudeDegrees>
            </Position>
            <AltitudeMeters>818.5999755859375</AltitudeMeters>
            <DistanceMeters>32802.384377243</DistanceMeters>
          </Trackpoint>
          <Trackpoint>
            <Time>2021-07-27T10:44:25.000Z</Time>
            <Position>
              <LatitudeDegrees>40.90935825370252132415771484375</LatitudeDegrees>
              <LongitudeDegrees>-3.11267581768333911895751953125</LongitudeDegrees>
            </Position>
            <AltitudeMeters>816.79998779296875</AltitudeMeters>
            <DistanceMeters>32825.301779062</DistanceMeters>
          </Trackpoint>
          <Trackpoint>
            <Time>2021-07-27T10:44:27.000Z</Time>
            <Position>
              <LatitudeDegrees>40.90930913574993610382080078125</LatitudeDegrees>
              <LongitudeDegrees>-3.11241983436048030853271484375</LongitudeDegrees>
            </Position>
            <AltitudeMeters>815.20001220703125</AltitudeMeters>
            <DistanceMeters>32847.51730962</DistanceMeters>
          </Trackpoint>
          <Trackpoint>
            <Time>2021-07-27T10:44:32.000Z</Time>
            <Position>
              <LatitudeDegrees>40.9091754443943500518798828125</LatitudeDegrees>
              <LongitudeDegrees>-3.1118410639464855194091796875</LongitudeDegrees>
            </Position>
            <AltitudeMeters>811.4000244140625</AltitudeMeters>
            <DistanceMeters>32898.424496133</DistanceMeters>
          </Trackpoint>
          <Trackpoint>
            <Time>2021-07-27T10:44:39.000Z</Time>
            <Position>
              <LatitudeDegrees>40.9091202914714813232421875</LatitudeDegrees>
              <LongitudeDegrees>-3.11112231574952602386474609375</LongitudeDegrees>
            </Position>
            <AltitudeMeters>812.4000244140625</AltitudeMeters>
            <DistanceMeters>32959.193912803</DistanceMeters>
          </Trackpoint>
          <Trackpoint>
            <Time>2021-07-27T10:44:41.000Z</Time>
            <Position>
              <LatitudeDegrees>40.90913613326847553253173828125</LatitudeDegrees>
              <LongitudeDegrees>-3.1109415180981159210205078125</LongitudeDegrees>
            </Position>
            <AltitudeMeters>812.4000244140625</AltitudeMeters>
            <DistanceMeters>32974.503834235</DistanceMeters>
          </Trackpoint>
          <Trackpoint>
            <Time>2021-07-27T10:44:47.000Z</Time>
            <Position>
              <LatitudeDegrees>40.909218527376651763916015625</LatitudeDegrees>
              <LongitudeDegrees>-3.1104412861168384552001953125</LongitudeDegrees>
            </Position>
            <AltitudeMeters>812.5999755859375</AltitudeMeters>
            <DistanceMeters>33017.569182141</DistanceMeters>
          </Trackpoint>
          <Trackpoint>
            <Time>2021-07-27T10:44:57.000Z</Time>
            <Position>
              <LatitudeDegrees>40.90936998836696147918701171875</LatitudeDegrees>
              <LongitudeDegrees>-3.1096828915178775787353515625</LongitudeDegrees>
            </Position>
            <AltitudeMeters>813.4000244140625</AltitudeMeters>
            <DistanceMeters>33083.552355124</DistanceMeters>
          </Trackpoint>
          <Trackpoint>
            <Time>2021-07-27T10:45:07.000Z</Time>
            <Position>
              <LatitudeDegrees>40.909519605338573455810546875</LatitudeDegrees>
              <LongitudeDegrees>-3.10892340727150440216064453125</LongitudeDegrees>
            </Position>
            <AltitudeMeters>816.4000244140625</AltitudeMeters>
            <DistanceMeters>33149.571921296</DistanceMeters>
          </Trackpoint>
          <Trackpoint>
            <Time>2021-07-27T10:45:10.000Z</Time>
            <Position>
              <LatitudeDegrees>40.90956780128180980682373046875</LatitudeDegrees>
              <LongitudeDegrees>-3.10867530293762683868408203125</LongitudeDegrees>
            </Position>
            <AltitudeMeters>817.79998779296875</AltitudeMeters>
            <DistanceMeters>33171.119949064</DistanceMeters>
          </Trackpoint>
          <Trackpoint>
            <Time>2021-07-27T10:45:14.000Z</Time>
            <Position>
              <LatitudeDegrees>40.90965078212320804595947265625</LatitudeDegrees>
              <LongitudeDegrees>-3.1083221733570098876953125</LongitudeDegrees>
            </Position>
            <AltitudeMeters>818.5999755859375</AltitudeMeters>
            <DistanceMeters>33202.226505308</DistanceMeters>
          </Trackpoint>
          <Trackpoint>
            <Time>2021-07-27T10:45:16.000Z</Time>
            <Position>
              <LatitudeDegrees>40.909699983894824981689453125</LatitudeDegrees>
              <LongitudeDegrees>-3.10813701711595058441162109375</LongitudeDegrees>
            </Position>
            <AltitudeMeters>818.20001220703125</AltitudeMeters>
            <DistanceMeters>33218.735739006</DistanceMeters>
          </Trackpoint>
          <Trackpoint>
            <Time>2021-07-27T10:45:19.000Z</Time>
            <Position>
              <LatitudeDegrees>40.9097869880497455596923828125</LatitudeDegrees>
              <LongitudeDegrees>-3.10785220004618167877197265625</LongitudeDegrees>
            </Position>
            <AltitudeMeters>817.79998779296875</AltitudeMeters>
            <DistanceMeters>33244.576541292</DistanceMeters>
          </Trackpoint>
          <Trackpoint>
            <Time>2021-07-27T10:45:26.000Z</Time>
            <Position>
              <LatitudeDegrees>40.91008446179330348968505859375</LatitudeDegrees>
              <LongitudeDegrees>-3.10717888176441192626953125</LongitudeDegrees>
            </Position>
            <AltitudeMeters>812.79998779296875</AltitudeMeters>
            <DistanceMeters>33310.180840426</DistanceMeters>
          </Trackpoint>
          <Trackpoint>
            <Time>2021-07-27T10:45:27.000Z</Time>
            <Position>
              <LatitudeDegrees>40.91013886034488677978515625</LatitudeDegrees>
              <LongitudeDegrees>-3.107081986963748931884765625</LongitudeDegrees>
            </Position>
            <AltitudeMeters>811.5999755859375</AltitudeMeters>
            <DistanceMeters>33320.334034637</DistanceMeters>
          </Trackpoint>
          <Trackpoint>
            <Time>2021-07-27T10:45:31.000Z</Time>
            <Position>
              <LatitudeDegrees>40.9103862941265106201171875</LatitudeDegrees>
              <LongitudeDegrees>-3.10669113881886005401611328125</LongitudeDegrees>
            </Position>
            <AltitudeMeters>809</AltitudeMeters>
            <DistanceMeters>33363.221097378</DistanceMeters>
          </Trackpoint>
          <Trackpoint>
            <Time>2021-07-27T10:45:33.000Z</Time>
            <Position>
              <LatitudeDegrees>40.910528115928173065185546875</LatitudeDegrees>
              <LongitudeDegrees>-3.10650237835943698883056640625</LongitudeDegrees>
            </Position>
            <AltitudeMeters>808.79998779296875</AltitudeMeters>
            <DistanceMeters>33385.610125349</DistanceMeters>
          </Trackpoint>
          <Trackpoint>
            <Time>2021-07-27T10:45:36.000Z</Time>
            <Position>
              <LatitudeDegrees>40.9107515774667263031005859375</LatitudeDegrees>
              <LongitudeDegrees>-3.10621437616646289825439453125</LongitudeDegrees>
            </Position>
            <AltitudeMeters>806.79998779296875</AltitudeMeters>
            <DistanceMeters>33420.329875129</DistanceMeters>
          </Trackpoint>
          <Trackpoint>
            <Time>2021-07-27T10:45:38.000Z</Time>
            <Position>
              <LatitudeDegrees>40.9109047986567020416259765625</LatitudeDegrees>
              <LongitudeDegrees>-3.1060176528990268707275390625</LongitudeDegrees>
            </Position>
            <AltitudeMeters>802</AltitudeMeters>
            <DistanceMeters>33444.092254641</DistanceMeters>
          </Trackpoint>
          <Trackpoint>
            <Time>2021-07-27T10:45:39.000Z</Time>
            <Position>
              <LatitudeDegrees>40.91098199598491191864013671875</LatitudeDegrees>
              <LongitudeDegrees>-3.10591933317482471466064453125</LongitudeDegrees>
            </Position>
            <AltitudeMeters>800.5999755859375</AltitudeMeters>
            <DistanceMeters>33456.018012646</DistanceMeters>
          </Trackpoint>
          <Trackpoint>
            <Time>2021-07-27T10:45:41.000Z</Time>
            <Position>
              <LatitudeDegrees>40.91113471426069736480712890625</LatitudeDegrees>
              <LongitudeDegrees>-3.10572386719286441802978515625</LongitudeDegrees>
            </Position>
            <AltitudeMeters>799</AltitudeMeters>
            <DistanceMeters>33479.666303583</DistanceMeters>
          </Trackpoint>
          <Trackpoint>
            <Time>2021-07-27T10:45:44.000Z</Time>
            <Position>
              <LatitudeDegrees>40.911360271275043487548828125</LatitudeDegrees>
              <LongitudeDegrees>-3.1054294109344482421875</LongitudeDegrees>
            </Position>
            <AltitudeMeters>798</AltitudeMeters>
            <DistanceMeters>33514.9323548</DistanceMeters>
          </Trackpoint>
          <Trackpoint>
            <Time>2021-07-27T10:45:47.000Z</Time>
            <Position>
              <LatitudeDegrees>40.9115897677838802337646484375</LatitudeDegrees>
              <LongitudeDegrees>-3.1051330268383026123046875</LongitudeDegrees>
            </Position>
            <AltitudeMeters>796.4000244140625</AltitudeMeters>
            <DistanceMeters>33550.624975673</DistanceMeters>
          </Trackpoint>
          <Trackpoint>
            <Time>2021-07-27T10:45:50.000Z</Time>
            <Position>
              <LatitudeDegrees>40.9118211083114147186279296875</LatitudeDegrees>
              <LongitudeDegrees>-3.104835636913776397705078125</LongitudeDegrees>
            </Position>
            <AltitudeMeters>794.79998779296875</AltitudeMeters>
            <DistanceMeters>33586.523698904</DistanceMeters>
          </Trackpoint>
          <Trackpoint>
            <Time>2021-07-27T10:45:56.000Z</Time>
            <Position>
              <LatitudeDegrees>40.91226811520755290985107421875</LatitudeDegrees>
              <LongitudeDegrees>-3.10426290147006511688232421875</LongitudeDegrees>
            </Position>
            <AltitudeMeters>795.5999755859375</AltitudeMeters>
            <DistanceMeters>33655.777640174</DistanceMeters>
          </Trackpoint>
          <Trackpoint>
            <Time>2021-07-27T10:46:02.000Z</Time>
            <Position>
              <LatitudeDegrees>40.91267614625394344329833984375</LatitudeDegrees>
              <LongitudeDegrees>-3.1037360988557338714599609375</LongitudeDegrees>
            </Position>
            <AltitudeMeters>797.20001220703125</AltitudeMeters>
            <DistanceMeters>33719.227739475</DistanceMeters>
          </Trackpoint>
          <Trackpoint>
            <Time>2021-07-27T10:46:09.000Z</Time>
            <Position>
              <LatitudeDegrees>40.91311284340918064117431640625</LatitudeDegrees>
              <LongitudeDegrees>-3.10317660681903362274169921875</LongitudeDegrees>
            </Position>
            <AltitudeMeters>797.4000244140625</AltitudeMeters>
            <DistanceMeters>33786.882021951</DistanceMeters>
          </Trackpoint>
          <Trackpoint>
            <Time>2021-07-27T10:46:16.000Z</Time>
            <Position>
              <LatitudeDegrees>40.91347661800682544708251953125</LatitudeDegrees>
              <LongitudeDegrees>-3.10260781086981296539306640625</LongitudeDegrees>
            </Position>
            <AltitudeMeters>793.79998779296875</AltitudeMeters>
            <DistanceMeters>33849.557381098</DistanceMeters>
          </Trackpoint>
          <Trackpoint>
            <Time>2021-07-27T10:46:24.000Z</Time>
            <Position>
              <LatitudeDegrees>40.91377115808427333831787109375</LatitudeDegrees>
              <LongitudeDegrees>-3.10196441598236560821533203125</LongitudeDegrees>
            </Position>
            <AltitudeMeters>794</AltitudeMeters>
            <DistanceMeters>33912.829047663</DistanceMeters>
          </Trackpoint>
          <Trackpoint>
            <Time>2021-07-27T10:46:33.000Z</Time>
            <Position>
              <LatitudeDegrees>40.914145410060882568359375</LatitudeDegrees>
              <LongitudeDegrees>-3.1013993918895721435546875</LongitudeDegrees>
            </Position>
            <AltitudeMeters>792.4000244140625</AltitudeMeters>
            <DistanceMeters>33976.024742046</DistanceMeters>
          </Trackpoint>
          <Trackpoint>
            <Time>2021-07-27T10:46:42.000Z</Time>
            <Position>
              <LatitudeDegrees>40.91453634202480316162109375</LatitudeDegrees>
              <LongitudeDegrees>-3.10089983046054840087890625</LongitudeDegrees>
            </Position>
            <AltitudeMeters>791</AltitudeMeters>
            <DistanceMeters>34036.512362211</DistanceMeters>
          </Trackpoint>
          <Trackpoint>
            <Time>2021-07-27T10:46:52.000Z</Time>
            <Position>
              <LatitudeDegrees>40.91503431089222431182861328125</LatitudeDegrees>
              <LongitudeDegrees>-3.10047679580748081207275390625</LongitudeDegrees>
            </Position>
            <AltitudeMeters>792.5999755859375</AltitudeMeters>
            <DistanceMeters>34102.375404676</DistanceMeters>
          </Trackpoint>
          <Trackpoint>
            <Time>2021-07-27T10:46:59.000Z</Time>
            <Position>
              <LatitudeDegrees>40.91544535942375659942626953125</LatitudeDegrees>
              <LongitudeDegrees>-3.1002884544432163238525390625</LongitudeDegrees>
            </Position>
            <AltitudeMeters>791.5999755859375</AltitudeMeters>
            <DistanceMeters>34150.790932801</DistanceMeters>
          </Trackpoint>
          <Trackpoint>
            <Time>2021-07-27T10:47:00.000Z</Time>
            <Position>
              <LatitudeDegrees>40.915506966412067413330078125</LatitudeDegrees>
              <LongitudeDegrees>-3.10026054270565509796142578125</LongitudeDegrees>
            </Position>
            <AltitudeMeters>791.20001220703125</AltitudeMeters>
            <DistanceMeters>34158.037926978</DistanceMeters>
          </Trackpoint>
          <Trackpoint>
            <Time>2021-07-27T10:47:09.000Z</Time>
            <Position>
              <LatitudeDegrees>40.916022956371307373046875</LatitudeDegrees>
              <LongitudeDegrees>-3.09992082417011260986328125</LongitudeDegrees>
            </Position>
            <AltitudeMeters>789.4000244140625</AltitudeMeters>
            <DistanceMeters>34222.18384511</DistanceMeters>
          </Trackpoint>
          <Trackpoint>
            <Time>2021-07-27T10:47:18.000Z</Time>
            <Position>
              <LatitudeDegrees>40.91646174900233745574951171875</LatitudeDegrees>
              <LongitudeDegrees>-3.09948773123323917388916015625</LongitudeDegrees>
            </Position>
            <AltitudeMeters>791</AltitudeMeters>
            <DistanceMeters>34283.110717872</DistanceMeters>
          </Trackpoint>
          <Trackpoint>
            <Time>2021-07-27T10:47:28.000Z</Time>
            <Position>
              <LatitudeDegrees>40.91694035567343235015869140625</LatitudeDegrees>
              <LongitudeDegrees>-3.09906964190304279327392578125</LongitudeDegrees>
            </Position>
            <AltitudeMeters>793.20001220703125</AltitudeMeters>
            <DistanceMeters>34346.94009896</DistanceMeters>
          </Trackpoint>
          <Trackpoint>
            <Time>2021-07-27T10:47:38.000Z</Time>
            <Position>
              <LatitudeDegrees>40.91746556572616100311279296875</LatitudeDegrees>
              <LongitudeDegrees>-3.098856993019580841064453125</LongitudeDegrees>
            </Position>
            <AltitudeMeters>792.79998779296875</AltitudeMeters>
            <DistanceMeters>34408.07190031</DistanceMeters>
          </Trackpoint>
          <Trackpoint>
            <Time>2021-07-27T10:47:48.000Z</Time>
            <Position>
              <LatitudeDegrees>40.9180082939565181732177734375</LatitudeDegrees>
              <LongitudeDegrees>-3.0988776125013828277587890625</LongitudeDegrees>
            </Position>
            <AltitudeMeters>793.79998779296875</AltitudeMeters>
            <DistanceMeters>34468.50351154</DistanceMeters>
          </Trackpoint>
          <Trackpoint>
            <Time>2021-07-27T10:47:58.000Z</Time>
            <Position>
              <LatitudeDegrees>40.91854733414947986602783203125</LatitudeDegrees>
              <LongitudeDegrees>-3.09902639128267765045166015625</LongitudeDegrees>
            </Position>
            <AltitudeMeters>792.79998779296875</AltitudeMeters>
            <DistanceMeters>34529.790806614</DistanceMeters>
          </Trackpoint>
          <Trackpoint>
            <Time>2021-07-27T10:48:05.000Z</Time>
            <Position>
              <LatitudeDegrees>40.91889082454144954681396484375</LatitudeDegrees>
              <LongitudeDegrees>-3.099127225577831268310546875</LongitudeDegrees>
            </Position>
            <AltitudeMeters>793.79998779296875</AltitudeMeters>
            <DistanceMeters>34568.951268334</DistanceMeters>
          </Trackpoint>
          <Trackpoint>
            <Time>2021-07-27T10:48:12.000Z</Time>
            <Position>
              <LatitudeDegrees>40.9192115999758243560791015625</LatitudeDegrees>
              <LongitudeDegrees>-3.09914709068834781646728515625</LongitudeDegrees>
            </Position>
            <AltitudeMeters>795.79998779296875</AltitudeMeters>
            <DistanceMeters>34604.693315626</DistanceMeters>
          </Trackpoint>
          <Trackpoint>
            <Time>2021-07-27T10:48:18.000Z</Time>
            <Position>
              <LatitudeDegrees>40.9194516576826572418212890625</LatitudeDegrees>
              <LongitudeDegrees>-3.09909612871706485748291015625</LongitudeDegrees>
            </Position>
            <AltitudeMeters>796.79998779296875</AltitudeMeters>
            <DistanceMeters>34631.753747238</DistanceMeters>
          </Trackpoint>
          <Trackpoint>
            <Time>2021-07-27T10:48:25.000Z</Time>
            <Position>
              <LatitudeDegrees>40.91970403678715229034423828125</LatitudeDegrees>
              <LongitudeDegrees>-3.0990009941160678863525390625</LongitudeDegrees>
            </Position>
            <AltitudeMeters>797.20001220703125</AltitudeMeters>
            <DistanceMeters>34660.961441118</DistanceMeters>
          </Trackpoint>
          <Trackpoint>
            <Time>2021-07-27T10:48:36.000Z</Time>
            <Position>
              <LatitudeDegrees>40.9200903587043285369873046875</LatitudeDegrees>
              <LongitudeDegrees>-3.09882874600589275360107421875</LongitudeDegrees>
            </Position>
            <AltitudeMeters>797.4000244140625</AltitudeMeters>
            <DistanceMeters>34706.334483203</DistanceMeters>
          </Trackpoint>
          <Trackpoint>
            <Time>2021-07-27T10:48:43.000Z</Time>
            <Position>
              <LatitudeDegrees>40.9203347750008106231689453125</LatitudeDegrees>
              <LongitudeDegrees>-3.09874760918319225311279296875</LongitudeDegrees>
            </Position>
            <AltitudeMeters>798.4000244140625</AltitudeMeters>
            <DistanceMeters>34734.381372855</DistanceMeters>
          </Trackpoint>
          <Trackpoint>
            <Time>2021-07-27T10:48:56.000Z</Time>
            <Position>
              <LatitudeDegrees>40.920807011425495147705078125</LatitudeDegrees>
              <LongitudeDegrees>-3.09876202605664730072021484375</LongitudeDegrees>
            </Position>
            <AltitudeMeters>800.4000244140625</AltitudeMeters>
            <DistanceMeters>34786.956314221</DistanceMeters>
          </Trackpoint>
          <Trackpoint>
            <Time>2021-07-27T10:49:04.000Z</Time>
            <Position>
              <LatitudeDegrees>40.921073891222476959228515625</LatitudeDegrees>
              <LongitudeDegrees>-3.09883679263293743133544921875</LongitudeDegrees>
            </Position>
            <AltitudeMeters>802.5999755859375</AltitudeMeters>
            <DistanceMeters>34817.31894807</DistanceMeters>
          </Trackpoint>
          <Trackpoint>
            <Time>2021-07-27T10:49:11.000Z</Time>
            <Position>
              <LatitudeDegrees>40.92127547599375247955322265625</LatitudeDegrees>
              <LongitudeDegrees>-3.0989104695618152618408203125</LongitudeDegrees>
            </Position>
            <AltitudeMeters>804.79998779296875</AltitudeMeters>
            <DistanceMeters>34840.595644284</DistanceMeters>
          </Trackpoint>
          <Trackpoint>
            <Time>2021-07-27T10:49:16.000Z</Time>
            <Position>
              <LatitudeDegrees>40.92141025699675083160400390625</LatitudeDegrees>
              <LongitudeDegrees>-3.0989537201821804046630859375</LongitudeDegrees>
            </Position>
            <AltitudeMeters>806.4000244140625</AltitudeMeters>
            <DistanceMeters>34856.031563339</DistanceMeters>
          </Trackpoint>
          <Trackpoint>
            <Time>2021-07-27T10:49:24.000Z</Time>
            <Position>
              <LatitudeDegrees>40.92162583954632282257080078125</LatitudeDegrees>
              <LongitudeDegrees>-3.0990224517881870269775390625</LongitudeDegrees>
            </Position>
            <AltitudeMeters>809</AltitudeMeters>
            <DistanceMeters>34880.712728766</DistanceMeters>
          </Trackpoint>
          <Trackpoint>
            <Time>2021-07-27T10:49:34.000Z</Time>
            <Position>
              <LatitudeDegrees>40.9218948148190975189208984375</LatitudeDegrees>
              <LongitudeDegrees>-3.09911339543759822845458984375</LongitudeDegrees>
            </Position>
            <AltitudeMeters>810.5999755859375</AltitudeMeters>
            <DistanceMeters>34911.611757592</DistanceMeters>
          </Trackpoint>
          <Trackpoint>
            <Time>2021-07-27T10:49:41.000Z</Time>
            <Position>
              <LatitudeDegrees>40.9220916219055652618408203125</LatitudeDegrees>
              <LongitudeDegrees>-3.0991659499704837799072265625</LongitudeDegrees>
            </Position>
            <AltitudeMeters>810.5999755859375</AltitudeMeters>
            <DistanceMeters>34933.957992113</DistanceMeters>
          </Trackpoint>
          <Trackpoint>
            <Time>2021-07-27T10:49:55.000Z</Time>
            <Position>
              <LatitudeDegrees>40.9225313365459442138671875</LatitudeDegrees>
              <LongitudeDegrees>-3.09901566244661808013916015625</LongitudeDegrees>
            </Position>
            <AltitudeMeters>808</AltitudeMeters>
            <DistanceMeters>34984.504790816</DistanceMeters>
          </Trackpoint>
          <Trackpoint>
            <Time>2021-07-27T10:50:00.000Z</Time>
            <Position>
              <LatitudeDegrees>40.92262529768049716949462890625</LatitudeDegrees>
              <LongitudeDegrees>-3.09877778403460979461669921875</LongitudeDegrees>
            </Position>
            <AltitudeMeters>806</AltitudeMeters>
            <DistanceMeters>35007.07878634</DistanceMeters>
          </Trackpoint>
          <Trackpoint>
            <Time>2021-07-27T10:50:03.000Z</Time>
            <Position>
              <LatitudeDegrees>40.92267818748950958251953125</LatitudeDegrees>
              <LongitudeDegrees>-3.09862741269171237945556640625</LongitudeDegrees>
            </Position>
            <AltitudeMeters>805.20001220703125</AltitudeMeters>
            <DistanceMeters>35021.027982991</DistanceMeters>
          </Trackpoint>
          <Trackpoint>
            <Time>2021-07-27T10:50:14.000Z</Time>
            <Position>
              <LatitudeDegrees>40.92299334704875946044921875</LatitudeDegrees>
              <LongitudeDegrees>-3.09876420535147190093994140625</LongitudeDegrees>
            </Position>
            <AltitudeMeters>806.4000244140625</AltitudeMeters>
            <DistanceMeters>35057.94424102</DistanceMeters>
          </Trackpoint>
          <Trackpoint>
            <Time>2021-07-27T10:50:19.000Z</Time>
            <Position>
              <LatitudeDegrees>40.92305948026478290557861328125</LatitudeDegrees>
              <LongitudeDegrees>-3.09898213483393192291259765625</LongitudeDegrees>
            </Position>
            <AltitudeMeters>808.79998779296875</AltitudeMeters>
            <DistanceMeters>35077.694715501</DistanceMeters>
          </Trackpoint>
          <Trackpoint>
            <Time>2021-07-27T10:50:27.000Z</Time>
            <Position>
              <LatitudeDegrees>40.92325561679899692535400390625</LatitudeDegrees>
              <LongitudeDegrees>-3.0992199294269084930419921875</LongitudeDegrees>
            </Position>
            <AltitudeMeters>813.5999755859375</AltitudeMeters>
            <DistanceMeters>35107.300379485</DistanceMeters>
          </Trackpoint>
          <Trackpoint>
            <Time>2021-07-27T10:50:33.000Z</Time>
            <Position>
              <LatitudeDegrees>40.9234179742634296417236328125</LatitudeDegrees>
              <LongitudeDegrees>-3.09936619363725185394287109375</LongitudeDegrees>
            </Position>
            <AltitudeMeters>815.4000244140625</AltitudeMeters>
            <DistanceMeters>35129.160241911</DistanceMeters>
          </Trackpoint>
          <Trackpoint>
            <Time>2021-07-27T10:50:42.000Z</Time>
            <Position>
              <LatitudeDegrees>40.92365191318094730377197265625</LatitudeDegrees>
              <LongitudeDegrees>-3.09957188554108142852783203125</LongitudeDegrees>
            </Position>
            <AltitudeMeters>816.20001220703125</AltitudeMeters>
            <DistanceMeters>35160.420564726</DistanceMeters>
          </Trackpoint>
          <Trackpoint>
            <Time>2021-07-27T10:50:49.000Z</Time>
            <Position>
              <LatitudeDegrees>40.92383732087910175323486328125</LatitudeDegrees>
              <LongitudeDegrees>-3.0997446365654468536376953125</LongitudeDegrees>
            </Position>
            <AltitudeMeters>817.20001220703125</AltitudeMeters>
            <DistanceMeters>35185.657627783</DistanceMeters>
          </Trackpoint>
          <Trackpoint>
            <Time>2021-07-27T10:50:59.000Z</Time>
            <Position>
              <LatitudeDegrees>40.92409439384937286376953125</LatitudeDegrees>
              <LongitudeDegrees>-3.10001461766660213470458984375</LongitudeDegrees>
            </Position>
            <AltitudeMeters>818.5999755859375</AltitudeMeters>
            <DistanceMeters>35222.184245401</DistanceMeters>
          </Trackpoint>
          <Trackpoint>
            <Time>2021-07-27T10:51:10.000Z</Time>
            <Position>
              <LatitudeDegrees>40.92437879182398319244384765625</LatitudeDegrees>
              <LongitudeDegrees>-3.10030094347894191741943359375</LongitudeDegrees>
            </Position>
            <AltitudeMeters>819.4000244140625</AltitudeMeters>
            <DistanceMeters>35261.95584872</DistanceMeters>
          </Trackpoint>
          <Trackpoint>
            <Time>2021-07-27T10:51:22.000Z</Time>
            <Position>
              <LatitudeDegrees>40.924706943333148956298828125</LatitudeDegrees>
              <LongitudeDegrees>-3.10063253156840801239013671875</LongitudeDegrees>
            </Position>
            <AltitudeMeters>820.5999755859375</AltitudeMeters>
            <DistanceMeters>35307.908020657</DistanceMeters>
          </Trackpoint>
          <Trackpoint>
            <Time>2021-07-27T10:51:32.000Z</Time>
            <Position>
              <LatitudeDegrees>40.92499050311744213104248046875</LatitudeDegrees>
              <LongitudeDegrees>-3.1008688174188137054443359375</LongitudeDegrees>
            </Position>
            <AltitudeMeters>818.79998779296875</AltitudeMeters>
            <DistanceMeters>35345.203312518</DistanceMeters>
          </Trackpoint>
          <Trackpoint>
            <Time>2021-07-27T10:51:48.000Z</Time>
            <Position>
              <LatitudeDegrees>40.9254742227494716644287109375</LatitudeDegrees>
              <LongitudeDegrees>-3.10124876908957958221435546875</LongitudeDegrees>
            </Position>
            <AltitudeMeters>816</AltitudeMeters>
            <DistanceMeters>35407.809909225</DistanceMeters>
          </Trackpoint>
          <Trackpoint>
            <Time>2021-07-27T10:52:04.000Z</Time>
            <Position>
              <LatitudeDegrees>40.92594939284026622772216796875</LatitudeDegrees>
              <LongitudeDegrees>-3.10166291892528533935546875</LongitudeDegrees>
            </Position>
            <AltitudeMeters>820.4000244140625</AltitudeMeters>
            <DistanceMeters>35471.135001543</DistanceMeters>
          </Trackpoint>
          <Trackpoint>
            <Time>2021-07-27T10:52:07.000Z</Time>
            <Position>
              <LatitudeDegrees>40.92604075558483600616455078125</LatitudeDegrees>
              <LongitudeDegrees>-3.10173626057803630828857421875</LongitudeDegrees>
            </Position>
            <AltitudeMeters>820.4000244140625</AltitudeMeters>
            <DistanceMeters>35483.027776129</DistanceMeters>
          </Trackpoint>
          <Trackpoint>
            <Time>2021-07-27T10:52:15.000Z</Time>
            <Position>
              <LatitudeDegrees>40.92628919519484043121337890625</LatitudeDegrees>
              <LongitudeDegrees>-3.10193088836967945098876953125</LongitudeDegrees>
            </Position>
            <AltitudeMeters>819.20001220703125</AltitudeMeters>
            <DistanceMeters>35515.160578695</DistanceMeters>
          </Trackpoint>
          <Trackpoint>
            <Time>2021-07-27T10:52:29.000Z</Time>
            <Position>
              <LatitudeDegrees>40.92676327563822269439697265625</LatitudeDegrees>
              <LongitudeDegrees>-3.10223230160772800445556640625</LongitudeDegrees>
            </Position>
            <AltitudeMeters>818.79998779296875</AltitudeMeters>
            <DistanceMeters>35573.698963017</DistanceMeters>
          </Trackpoint>
          <Trackpoint>
            <Time>2021-07-27T10:52:38.000Z</Time>
            <Position>
              <LatitudeDegrees>40.92708505690097808837890625</LatitudeDegrees>
              <LongitudeDegrees>-3.10235903598368167877197265625</LongitudeDegrees>
            </Position>
            <AltitudeMeters>821</AltitudeMeters>
            <DistanceMeters>35611.065854783</DistanceMeters>
          </Trackpoint>
          <Trackpoint>
            <Time>2021-07-27T10:52:47.000Z</Time>
            <Position>
              <LatitudeDegrees>40.9274075925350189208984375</LatitudeDegrees>
              <LongitudeDegrees>-3.10242357663810253143310546875</LongitudeDegrees>
            </Position>
            <AltitudeMeters>824.4000244140625</AltitudeMeters>
            <DistanceMeters>35647.372651241</DistanceMeters>
          </Trackpoint>
          <Trackpoint>
            <Time>2021-07-27T10:52:56.000Z</Time>
            <Position>
              <LatitudeDegrees>40.92773390002548694610595703125</LatitudeDegrees>
              <LongitudeDegrees>-3.1024194695055484771728515625</LongitudeDegrees>
            </Position>
            <AltitudeMeters>825.20001220703125</AltitudeMeters>
            <DistanceMeters>35683.693000185</DistanceMeters>
          </Trackpoint>
          <Trackpoint>
            <Time>2021-07-27T10:53:09.000Z</Time>
            <Position>
              <LatitudeDegrees>40.92820378951728343963623046875</LatitudeDegrees>
              <LongitudeDegrees>-3.1023259274661540985107421875</LongitudeDegrees>
            </Position>
            <AltitudeMeters>825.20001220703125</AltitudeMeters>
            <DistanceMeters>35736.580980097</DistanceMeters>
          </Trackpoint>
          <Trackpoint>
            <Time>2021-07-27T10:53:18.000Z</Time>
            <Position>
              <LatitudeDegrees>40.928525067865848541259765625</LatitudeDegrees>
              <LongitudeDegrees>-3.1022333912551403045654296875</LongitudeDegrees>
            </Position>
            <AltitudeMeters>825</AltitudeMeters>
            <DistanceMeters>35773.176753588</DistanceMeters>
          </Trackpoint>
          <Trackpoint>
            <Time>2021-07-27T10:53:28.000Z</Time>
            <Position>
              <LatitudeDegrees>40.9288739226758480072021484375</LatitudeDegrees>
              <LongitudeDegrees>-3.10213021002709865570068359375</LongitudeDegrees>
            </Position>
            <AltitudeMeters>825.5999755859375</AltitudeMeters>
            <DistanceMeters>35812.96265838</DistanceMeters>
          </Trackpoint>
          <Trackpoint>
            <Time>2021-07-27T10:53:35.000Z</Time>
            <Position>
              <LatitudeDegrees>40.9291096217930316925048828125</LatitudeDegrees>
              <LongitudeDegrees>-3.10204915702342987060546875</LongitudeDegrees>
            </Position>
            <AltitudeMeters>826.79998779296875</AltitudeMeters>
            <DistanceMeters>35840.067435807</DistanceMeters>
          </Trackpoint>
          <Trackpoint>
            <Time>2021-07-27T10:53:43.000Z</Time>
            <Position>
              <LatitudeDegrees>40.92935630120337009429931640625</LatitudeDegrees>
              <LongitudeDegrees>-3.10196089558303356170654296875</LongitudeDegrees>
            </Position>
            <AltitudeMeters>828.20001220703125</AltitudeMeters>
            <DistanceMeters>35868.508536132</DistanceMeters>
          </Trackpoint>
          <Trackpoint>
            <Time>2021-07-27T10:53:51.000Z</Time>
            <Position>
              <LatitudeDegrees>40.92958563007414340972900390625</LatitudeDegrees>
              <LongitudeDegrees>-3.10186601243913173675537109375</LongitudeDegrees>
            </Position>
            <AltitudeMeters>829</AltitudeMeters>
            <DistanceMeters>35895.251086388</DistanceMeters>
          </Trackpoint>
          <Trackpoint>
            <Time>2021-07-27T10:53:57.000Z</Time>
            <Position>
              <LatitudeDegrees>40.929750166833400726318359375</LatitudeDegrees>
              <LongitudeDegrees>-3.1017874740064144134521484375</LongitudeDegrees>
            </Position>
            <AltitudeMeters>829.79998779296875</AltitudeMeters>
            <DistanceMeters>35914.718811174</DistanceMeters>
          </Trackpoint>
          <Trackpoint>
            <Time>2021-07-27T10:54:03.000Z</Time>
            <Position>
              <LatitudeDegrees>40.92991537414491176605224609375</LatitudeDegrees>
              <LongitudeDegrees>-3.10170105658471584320068359375</LongitudeDegrees>
            </Position>
            <AltitudeMeters>830.4000244140625</AltitudeMeters>
            <DistanceMeters>35934.4905344</DistanceMeters>
          </Trackpoint>
          <Trackpoint>
            <Time>2021-07-27T10:54:10.000Z</Time>
            <Position>
              <LatitudeDegrees>40.93009717762470245361328125</LatitudeDegrees>
              <LongitudeDegrees>-3.10159108601510524749755859375</LongitudeDegrees>
            </Position>
            <AltitudeMeters>831</AltitudeMeters>
            <DistanceMeters>35956.738559261</DistanceMeters>
          </Trackpoint>
          <Trackpoint>
            <Time>2021-07-27T10:54:17.000Z</Time>
            <Position>
              <LatitudeDegrees>40.93027344904839992523193359375</LatitudeDegrees>
              <LongitudeDegrees>-3.10147776268422603607177734375</LongitudeDegrees>
            </Position>
            <AltitudeMeters>831.20001220703125</AltitudeMeters>
            <DistanceMeters>35978.549622674</DistanceMeters>
          </Trackpoint>
          <Trackpoint>
            <Time>2021-07-27T10:54:21.000Z</Time>
            <Position>
              <LatitudeDegrees>40.9303565137088298797607421875</LatitudeDegrees>
              <LongitudeDegrees>-3.1014179997146129608154296875</LongitudeDegrees>
            </Position>
            <AltitudeMeters>831.4000244140625</AltitudeMeters>
            <DistanceMeters>35989.072302816</DistanceMeters>
          </Trackpoint>
          <Trackpoint>
            <Time>2021-07-27T10:54:30.000Z</Time>
            <Position>
              <LatitudeDegrees>40.93052624724805355072021484375</LatitudeDegrees>
              <LongitudeDegrees>-3.10128816403448581695556640625</LongitudeDegrees>
            </Position>
            <AltitudeMeters>832.79998779296875</AltitudeMeters>
            <DistanceMeters>36010.891851857</DistanceMeters>
          </Trackpoint>
          <Trackpoint>
            <Time>2021-07-27T10:54:37.000Z</Time>
            <Position>
              <LatitudeDegrees>40.93065516091883182525634765625</LatitudeDegrees>
              <LongitudeDegrees>-3.10118154622614383697509765625</LongitudeDegrees>
            </Position>
            <AltitudeMeters>834.20001220703125</AltitudeMeters>
            <DistanceMeters>36027.810877339</DistanceMeters>
          </Trackpoint>
          <Trackpoint>
            <Time>2021-07-27T10:54:44.000Z</Time>
            <Position>
              <LatitudeDegrees>40.93077619560062885284423828125</LatitudeDegrees>
              <LongitudeDegrees>-3.1010683067142963409423828125</LongitudeDegrees>
            </Position>
            <AltitudeMeters>835.79998779296875</AltitudeMeters>
            <DistanceMeters>36044.307799594</DistanceMeters>
          </Trackpoint>
          <Trackpoint>
            <Time>2021-07-27T10:54:53.000Z</Time>
            <Position>
              <LatitudeDegrees>40.93092774040997028350830078125</LatitudeDegrees>
              <LongitudeDegrees>-3.1009258143603801727294921875</LongitudeDegrees>
            </Position>
            <AltitudeMeters>837.79998779296875</AltitudeMeters>
            <DistanceMeters>36064.997889103</DistanceMeters>
          </Trackpoint>
          <Trackpoint>
            <Time>2021-07-27T10:54:59.000Z</Time>
            <Position>
              <LatitudeDegrees>40.9310213662683963775634765625</LatitudeDegrees>
              <LongitudeDegrees>-3.10081492178142070770263671875</LongitudeDegrees>
            </Position>
            <AltitudeMeters>838.79998779296875</AltitudeMeters>
            <DistanceMeters>36078.981353456</DistanceMeters>
          </Trackpoint>
          <Trackpoint>
            <Time>2021-07-27T10:55:06.000Z</Time>
            <Position>
              <LatitudeDegrees>40.93112739734351634979248046875</LatitudeDegrees>
              <LongitudeDegrees>-3.10069262981414794921875</LongitudeDegrees>
            </Position>
            <AltitudeMeters>840</AltitudeMeters>
            <DistanceMeters>36094.634535057</DistanceMeters>
          </Trackpoint>
          <Trackpoint>
            <Time>2021-07-27T10:55:12.000Z</Time>
            <Position>
              <LatitudeDegrees>40.93121834099292755126953125</LatitudeDegrees>
              <LongitudeDegrees>-3.10058542527258396148681640625</LongitudeDegrees>
            </Position>
            <AltitudeMeters>841.4000244140625</AltitudeMeters>
            <DistanceMeters>36108.188755996</DistanceMeters>
          </Trackpoint>
          <Trackpoint>
            <Time>2021-07-27T10:55:17.000Z</Time>
            <Position>
              <LatitudeDegrees>40.93129486776888370513916015625</LatitudeDegrees>
              <LongitudeDegrees>-3.10049490071833133697509765625</LongitudeDegrees>
            </Position>
            <AltitudeMeters>842.20001220703125</AltitudeMeters>
            <DistanceMeters>36119.612137049</DistanceMeters>
          </Trackpoint>
          <Trackpoint>
            <Time>2021-07-27T10:55:19.000Z</Time>
            <Position>
              <LatitudeDegrees>40.9313247911632061004638671875</LatitudeDegrees>
              <LongitudeDegrees>-3.100458271801471710205078125</LongitudeDegrees>
            </Position>
            <AltitudeMeters>842.5999755859375</AltitudeMeters>
            <DistanceMeters>36124.149600469</DistanceMeters>
          </Trackpoint>
          <Trackpoint>
            <Time>2021-07-27T10:55:26.000Z</Time>
            <Position>
              <LatitudeDegrees>40.9314290620386600494384765625</LatitudeDegrees>
              <LongitudeDegrees>-3.1003229878842830657958984375</LongitudeDegrees>
            </Position>
            <AltitudeMeters>843.79998779296875</AltitudeMeters>
            <DistanceMeters>36140.400557847</DistanceMeters>
          </Trackpoint>
          <Trackpoint>
            <Time>2021-07-27T10:55:32.000Z</Time>
            <Position>
              <LatitudeDegrees>40.93151497654616832733154296875</LatitudeDegrees>
              <LongitudeDegrees>-3.1002059765160083770751953125</LongitudeDegrees>
            </Position>
            <AltitudeMeters>845</AltitudeMeters>
            <DistanceMeters>36154.121309783</DistanceMeters>
          </Trackpoint>
          <Trackpoint>
            <Time>2021-07-27T10:55:38.000Z</Time>
            <Position>
              <LatitudeDegrees>40.93160248361527919769287109375</LatitudeDegrees>
              <LongitudeDegrees>-3.10008653439581394195556640625</LongitudeDegrees>
            </Position>
            <AltitudeMeters>846</AltitudeMeters>
            <DistanceMeters>36168.1121985</DistanceMeters>
          </Trackpoint>
          <Trackpoint>
            <Time>2021-07-27T10:55:47.000Z</Time>
            <Position>
              <LatitudeDegrees>40.9317351691424846649169921875</LatitudeDegrees>
              <LongitudeDegrees>-3.09989995323121547698974609375</LongitudeDegrees>
            </Position>
            <AltitudeMeters>847.79998779296875</AltitudeMeters>
            <DistanceMeters>36189.658759481</DistanceMeters>
          </Trackpoint>
          <Trackpoint>
            <Time>2021-07-27T10:55:54.000Z</Time>
            <Position>
              <LatitudeDegrees>40.9318377636373043060302734375</LatitudeDegrees>
              <LongitudeDegrees>-3.09975259937345981597900390625</LongitudeDegrees>
            </Position>
            <AltitudeMeters>849</AltitudeMeters>
            <DistanceMeters>36206.508794008</DistanceMeters>
          </Trackpoint>
          <Trackpoint>
            <Time>2021-07-27T10:56:04.000Z</Time>
            <Position>
              <LatitudeDegrees>40.9319807589054107666015625</LatitudeDegrees>
              <LongitudeDegrees>-3.09954539872705936431884765625</LongitudeDegrees>
            </Position>
            <AltitudeMeters>851</AltitudeMeters>
            <DistanceMeters>36230.106818378</DistanceMeters>
          </Trackpoint>
          <Trackpoint>
            <Time>2021-07-27T10:56:12.000Z</Time>
            <Position>
              <LatitudeDegrees>40.93209408223628997802734375</LatitudeDegrees>
              <LongitudeDegrees>-3.09938061051070690155029296875</LongitudeDegrees>
            </Position>
            <AltitudeMeters>852.4000244140625</AltitudeMeters>
            <DistanceMeters>36248.844197387</DistanceMeters>
          </Trackpoint>
          <Trackpoint>
            <Time>2021-07-27T10:56:21.000Z</Time>
            <Position>
              <LatitudeDegrees>40.93222090043127536773681640625</LatitudeDegrees>
              <LongitudeDegrees>-3.09919620864093303680419921875</LongitudeDegrees>
            </Position>
            <AltitudeMeters>853.5999755859375</AltitudeMeters>
            <DistanceMeters>36269.812612255</DistanceMeters>
          </Trackpoint>
          <Trackpoint>
            <Time>2021-07-27T10:56:30.000Z</Time>
            <Position>
              <LatitudeDegrees>40.93234914354979991912841796875</LatitudeDegrees>
              <LongitudeDegrees>-3.0990068614482879638671875</LongitudeDegrees>
            </Position>
            <AltitudeMeters>854.79998779296875</AltitudeMeters>
            <DistanceMeters>36291.195945737</DistanceMeters>
          </Trackpoint>
          <Trackpoint>
            <Time>2021-07-27T10:56:38.000Z</Time>
            <Position>
              <LatitudeDegrees>40.93246296979486942291259765625</LatitudeDegrees>
              <LongitudeDegrees>-3.09883712790906429290771484375</LongitudeDegrees>
            </Position>
            <AltitudeMeters>855</AltitudeMeters>
            <DistanceMeters>36310.280234385</DistanceMeters>
          </Trackpoint>
          <Trackpoint>
            <Time>2021-07-27T10:56:45.000Z</Time>
            <Position>
              <LatitudeDegrees>40.93256388790905475616455078125</LatitudeDegrees>
              <LongitudeDegrees>-3.09869346208870410919189453125</LongitudeDegrees>
            </Position>
            <AltitudeMeters>855.79998779296875</AltitudeMeters>
            <DistanceMeters>36326.775788134</DistanceMeters>
          </Trackpoint>
          <Trackpoint>
            <Time>2021-07-27T10:56:53.000Z</Time>
            <Position>
              <LatitudeDegrees>40.9326759539544582366943359375</LatitudeDegrees>
              <LongitudeDegrees>-3.09851878322660923004150390625</LongitudeDegrees>
            </Position>
            <AltitudeMeters>857.5999755859375</AltitudeMeters>
            <DistanceMeters>36346.045837525</DistanceMeters>
          </Trackpoint>
          <Trackpoint>
            <Time>2021-07-27T10:56:59.000Z</Time>
            <Position>
              <LatitudeDegrees>40.93275616876780986785888671875</LatitudeDegrees>
              <LongitudeDegrees>-3.09840177185833454132080078125</LongitudeDegrees>
            </Position>
            <AltitudeMeters>858.4000244140625</AltitudeMeters>
            <DistanceMeters>36359.331238316</DistanceMeters>
          </Trackpoint>
          <Trackpoint>
            <Time>2021-07-27T10:57:08.000Z</Time>
            <Position>
              <LatitudeDegrees>40.93287787400186061859130859375</LatitudeDegrees>
              <LongitudeDegrees>-3.09822306968271732330322265625</LongitudeDegrees>
            </Position>
            <AltitudeMeters>859.79998779296875</AltitudeMeters>
            <DistanceMeters>36379.561887953</DistanceMeters>
          </Trackpoint>
          <Trackpoint>
            <Time>2021-07-27T10:57:12.000Z</Time>
            <Position>
              <LatitudeDegrees>40.93293218873441219329833984375</LatitudeDegrees>
              <LongitudeDegrees>-3.0981446988880634307861328125</LongitudeDegrees>
            </Position>
            <AltitudeMeters>860.5999755859375</AltitudeMeters>
            <DistanceMeters>36388.504502615</DistanceMeters>
          </Trackpoint>
          <Trackpoint>
            <Time>2021-07-27T10:57:13.000Z</Time>
            <Position>
              <LatitudeDegrees>40.9329458512365818023681640625</LatitudeDegrees>
              <LongitudeDegrees>-3.09812483377754688262939453125</LongitudeDegrees>
            </Position>
            <AltitudeMeters>860.5999755859375</AltitudeMeters>
            <DistanceMeters>36390.761262043</DistanceMeters>
          </Trackpoint>
          <Trackpoint>
            <Time>2021-07-27T10:57:21.000Z</Time>
            <Position>
              <LatitudeDegrees>40.9330531395971775054931640625</LatitudeDegrees>
              <LongitudeDegrees>-3.0979686789214611053466796875</LongitudeDegrees>
            </Position>
            <AltitudeMeters>862</AltitudeMeters>
            <DistanceMeters>36408.509647509</DistanceMeters>
          </Trackpoint>
          <Trackpoint>
            <Time>2021-07-27T10:57:30.000Z</Time>
            <Position>
              <LatitudeDegrees>40.93317895196378231048583984375</LatitudeDegrees>
              <LongitudeDegrees>-3.09778905473649501800537109375</LongitudeDegrees>
            </Position>
            <AltitudeMeters>863.5999755859375</AltitudeMeters>
            <DistanceMeters>36429.106126121</DistanceMeters>
          </Trackpoint>
          <Trackpoint>
            <Time>2021-07-27T10:57:37.000Z</Time>
            <Position>
              <LatitudeDegrees>40.9332814626395702362060546875</LatitudeDegrees>
              <LongitudeDegrees>-3.0976374261081218719482421875</LongitudeDegrees>
            </Position>
            <AltitudeMeters>865.20001220703125</AltitudeMeters>
            <DistanceMeters>36446.215685383</DistanceMeters>
          </Trackpoint>
          <Trackpoint>
            <Time>2021-07-27T10:57:45.000Z</Time>
            <Position>
              <LatitudeDegrees>40.93340140767395496368408203125</LatitudeDegrees>
              <LongitudeDegrees>-3.097459562122821807861328125</LongitudeDegrees>
            </Position>
            <AltitudeMeters>866.4000244140625</AltitudeMeters>
            <DistanceMeters>36466.263394538</DistanceMeters>
          </Trackpoint>
          <Trackpoint>
            <Time>2021-07-27T10:57:57.000Z</Time>
            <Position>
              <LatitudeDegrees>40.93358899466693401336669921875</LatitudeDegrees>
              <LongitudeDegrees>-3.09716225601732730865478515625</LongitudeDegrees>
            </Position>
            <AltitudeMeters>868.79998779296875</AltitudeMeters>
            <DistanceMeters>36498.834416027</DistanceMeters>
          </Trackpoint>
          <Trackpoint>
            <Time>2021-07-27T10:58:04.000Z</Time>
            <Position>
              <LatitudeDegrees>40.93370315618813037872314453125</LatitudeDegrees>
              <LongitudeDegrees>-3.09695824049413204193115234375</LongitudeDegrees>
            </Position>
            <AltitudeMeters>870.4000244140625</AltitudeMeters>
            <DistanceMeters>36520.182247251</DistanceMeters>
          </Trackpoint>
          <Trackpoint>
            <Time>2021-07-27T10:58:19.000Z</Time>
            <Position>
              <LatitudeDegrees>40.9339486621320247650146484375</LatitudeDegrees>
              <LongitudeDegrees>-3.09640067629516124725341796875</LongitudeDegrees>
            </Position>
            <AltitudeMeters>870.79998779296875</AltitudeMeters>
            <DistanceMeters>36574.446911148</DistanceMeters>
          </Trackpoint>
          <Trackpoint>
            <Time>2021-07-27T10:58:33.000Z</Time>
            <Position>
              <LatitudeDegrees>40.93420757912099361419677734375</LatitudeDegrees>
              <LongitudeDegrees>-3.09572325088083744049072265625</LongitudeDegrees>
            </Position>
            <AltitudeMeters>874</AltitudeMeters>
            <DistanceMeters>36638.282799621</DistanceMeters>
          </Trackpoint>
          <Trackpoint>
            <Time>2021-07-27T10:58:41.000Z</Time>
            <Position>
              <LatitudeDegrees>40.93439969234168529510498046875</LatitudeDegrees>
              <LongitudeDegrees>-3.095244728028774261474609375</LongitudeDegrees>
            </Position>
            <AltitudeMeters>872</AltitudeMeters>
            <DistanceMeters>36683.84788621</DistanceMeters>
          </Trackpoint>
          <Trackpoint>
            <Time>2021-07-27T10:58:44.000Z</Time>
            <Position>
              <LatitudeDegrees>40.934488289058208465576171875</LatitudeDegrees>
              <LongitudeDegrees>-3.09505806304514408111572265625</LongitudeDegrees>
            </Position>
            <AltitudeMeters>869</AltitudeMeters>
            <DistanceMeters>36702.383698804</DistanceMeters>
          </Trackpoint>
          <Trackpoint>
            <Time>2021-07-27T10:58:46.000Z</Time>
            <Position>
              <LatitudeDegrees>40.93454964458942413330078125</LatitudeDegrees>
              <LongitudeDegrees>-3.094932250678539276123046875</LongitudeDegrees>
            </Position>
            <AltitudeMeters>866.79998779296875</AltitudeMeters>
            <DistanceMeters>36714.975007399</DistanceMeters>
          </Trackpoint>
          <Trackpoint>
            <Time>2021-07-27T10:58:48.000Z</Time>
            <Position>
              <LatitudeDegrees>40.934616364538669586181640625</LatitudeDegrees>
              <LongitudeDegrees>-3.09480828233063220977783203125</LongitudeDegrees>
            </Position>
            <AltitudeMeters>865.79998779296875</AltitudeMeters>
            <DistanceMeters>36727.77295749</DistanceMeters>
          </Trackpoint>
          <Trackpoint>
            <Time>2021-07-27T10:58:58.000Z</Time>
            <Position>
              <LatitudeDegrees>40.93493965454399585723876953125</LatitudeDegrees>
              <LongitudeDegrees>-3.0941703356802463531494140625</LongitudeDegrees>
            </Position>
            <AltitudeMeters>867</AltitudeMeters>
            <DistanceMeters>36792.364845827</DistanceMeters>
          </Trackpoint>
          <Trackpoint>
            <Time>2021-07-27T10:59:00.000Z</Time>
            <Position>
              <LatitudeDegrees>40.93500427901744842529296875</LatitudeDegrees>
              <LongitudeDegrees>-3.09404418803751468658447265625</LongitudeDegrees>
            </Position>
            <AltitudeMeters>867.79998779296875</AltitudeMeters>
            <DistanceMeters>36805.180775776</DistanceMeters>
          </Trackpoint>
          <Trackpoint>
            <Time>2021-07-27T10:59:10.000Z</Time>
            <Position>
              <LatitudeDegrees>40.9353253059089183807373046875</LatitudeDegrees>
              <LongitudeDegrees>-3.09345410205423831939697265625</LongitudeDegrees>
            </Position>
            <AltitudeMeters>867.20001220703125</AltitudeMeters>
            <DistanceMeters>36866.323950114</DistanceMeters>
          </Trackpoint>
          <Trackpoint>
            <Time>2021-07-27T10:59:21.000Z</Time>
            <Position>
              <LatitudeDegrees>40.93570508994162082672119140625</LatitudeDegrees>
              <LongitudeDegrees>-3.092860244214534759521484375</LongitudeDegrees>
            </Position>
            <AltitudeMeters>868.20001220703125</AltitudeMeters>
            <DistanceMeters>36931.746789196</DistanceMeters>
          </Trackpoint>
          <Trackpoint>
            <Time>2021-07-27T10:59:23.000Z</Time>
            <Position>
              <LatitudeDegrees>40.93577834777534008026123046875</LatitudeDegrees>
              <LongitudeDegrees>-3.09276058338582515716552734375</LongitudeDegrees>
            </Position>
            <AltitudeMeters>868.4000244140625</AltitudeMeters>
            <DistanceMeters>36943.438551133</DistanceMeters>
          </Trackpoint>
          <Trackpoint>
            <Time>2021-07-27T10:59:34.000Z</Time>
            <Position>
              <LatitudeDegrees>40.9362245164811611175537109375</LatitudeDegrees>
              <LongitudeDegrees>-3.092278540134429931640625</LongitudeDegrees>
            </Position>
            <AltitudeMeters>867.20001220703125</AltitudeMeters>
            <DistanceMeters>37007.538842267</DistanceMeters>
          </Trackpoint>
          <Trackpoint>
            <Time>2021-07-27T10:59:37.000Z</Time>
            <Position>
              <LatitudeDegrees>40.9363596327602863311767578125</LatitudeDegrees>
              <LongitudeDegrees>-3.09216965921223163604736328125</LongitudeDegrees>
            </Position>
            <AltitudeMeters>867.4000244140625</AltitudeMeters>
            <DistanceMeters>37025.145474377</DistanceMeters>
          </Trackpoint>
          <Trackpoint>
            <Time>2021-07-27T10:59:48.000Z</Time>
            <Position>
              <LatitudeDegrees>40.936870761215686798095703125</LatitudeDegrees>
              <LongitudeDegrees>-3.09189163148403167724609375</LongitudeDegrees>
            </Position>
            <AltitudeMeters>867.20001220703125</AltitudeMeters>
            <DistanceMeters>37086.650886693</DistanceMeters>
          </Trackpoint>
          <Trackpoint>
            <Time>2021-07-27T10:59:59.000Z</Time>
            <Position>
              <LatitudeDegrees>40.9374294988811016082763671875</LatitudeDegrees>
              <LongitudeDegrees>-3.09173312969505786895751953125</LongitudeDegrees>
            </Position>
            <AltitudeMeters>869.20001220703125</AltitudeMeters>
            <DistanceMeters>37150.251521936</DistanceMeters>
          </Trackpoint>
          <Trackpoint>
            <Time>2021-07-27T11:00:02.000Z</Time>
            <Position>
              <LatitudeDegrees>40.93760308809578418731689453125</LatitudeDegrees>
              <LongitudeDegrees>-3.091713599860668182373046875</LongitudeDegrees>
            </Position>
            <AltitudeMeters>868.5999755859375</AltitudeMeters>
            <DistanceMeters>37169.64209498</DistanceMeters>
          </Trackpoint>
          <Trackpoint>
            <Time>2021-07-27T11:00:07.000Z</Time>
            <Position>
              <LatitudeDegrees>40.9379404596984386444091796875</LatitudeDegrees>
              <LongitudeDegrees>-3.09172525070607662200927734375</LongitudeDegrees>
            </Position>
            <AltitudeMeters>867.4000244140625</AltitudeMeters>
            <DistanceMeters>37207.204942376</DistanceMeters>
          </Trackpoint>
          <Trackpoint>
            <Time>2021-07-27T11:00:09.000Z</Time>
            <Position>
              <LatitudeDegrees>40.9380973689258098602294921875</LatitudeDegrees>
              <LongitudeDegrees>-3.09174553491175174713134765625</LongitudeDegrees>
            </Position>
            <AltitudeMeters>866.5999755859375</AltitudeMeters>
            <DistanceMeters>37224.752236942</DistanceMeters>
          </Trackpoint>
          <Trackpoint>
            <Time>2021-07-27T11:00:12.000Z</Time>
            <Position>
              <LatitudeDegrees>40.93835745938122272491455078125</LatitudeDegrees>
              <LongitudeDegrees>-3.09178275056183338165283203125</LongitudeDegrees>
            </Position>
            <AltitudeMeters>864.79998779296875</AltitudeMeters>
            <DistanceMeters>37253.869513895</DistanceMeters>
          </Trackpoint>
          <Trackpoint>
            <Time>2021-07-27T11:00:14.000Z</Time>
            <Position>
              <LatitudeDegrees>40.9385499916970729827880859375</LatitudeDegrees>
              <LongitudeDegrees>-3.09180940501391887664794921875</LongitudeDegrees>
            </Position>
            <AltitudeMeters>863.4000244140625</AltitudeMeters>
            <DistanceMeters>37275.415655777</DistanceMeters>
          </Trackpoint>
          <Trackpoint>
            <Time>2021-07-27T11:00:16.000Z</Time>
            <Position>
              <LatitudeDegrees>40.938757024705410003662109375</LatitudeDegrees>
              <LongitudeDegrees>-3.0918421782553195953369140625</LongitudeDegrees>
            </Position>
            <AltitudeMeters>862</AltitudeMeters>
            <DistanceMeters>37298.623195057</DistanceMeters>
          </Trackpoint>
          <Trackpoint>
            <Time>2021-07-27T11:00:18.000Z</Time>
            <Position>
              <LatitudeDegrees>40.9389764629304409027099609375</LatitudeDegrees>
              <LongitudeDegrees>-3.09187277220189571380615234375</LongitudeDegrees>
            </Position>
            <AltitudeMeters>861.20001220703125</AltitudeMeters>
            <DistanceMeters>37323.182040019</DistanceMeters>
          </Trackpoint>
          <Trackpoint>
            <Time>2021-07-27T11:00:20.000Z</Time>
            <Position>
              <LatitudeDegrees>40.93920671381056308746337890625</LatitudeDegrees>
              <LongitudeDegrees>-3.09189607389271259307861328125</LongitudeDegrees>
            </Position>
            <AltitudeMeters>860.20001220703125</AltitudeMeters>
            <DistanceMeters>37348.88426312</DistanceMeters>
          </Trackpoint>
          <Trackpoint>
            <Time>2021-07-27T11:00:21.000Z</Time>
            <Position>
              <LatitudeDegrees>40.93932422809302806854248046875</LatitudeDegrees>
              <LongitudeDegrees>-3.0919072218239307403564453125</LongitudeDegrees>
            </Position>
            <AltitudeMeters>859.79998779296875</AltitudeMeters>
            <DistanceMeters>37361.997605398</DistanceMeters>
          </Trackpoint>
          <Trackpoint>
            <Time>2021-07-27T11:00:23.000Z</Time>
            <Position>
              <LatitudeDegrees>40.93956244178116321563720703125</LatitudeDegrees>
              <LongitudeDegrees>-3.09191384352743625640869140625</LongitudeDegrees>
            </Position>
            <AltitudeMeters>858.4000244140625</AltitudeMeters>
            <DistanceMeters>37388.517040038</DistanceMeters>
          </Trackpoint>
          <Trackpoint>
            <Time>2021-07-27T11:00:25.000Z</Time>
            <Position>
              <LatitudeDegrees>40.93980182893574237823486328125</LatitudeDegrees>
              <LongitudeDegrees>-3.09189087711274623870849609375</LongitudeDegrees>
            </Position>
            <AltitudeMeters>858.20001220703125</AltitudeMeters>
            <DistanceMeters>37415.231211209</DistanceMeters>
          </Trackpoint>
          <Trackpoint>
            <Time>2021-07-27T11:00:28.000Z</Time>
            <Position>
              <LatitudeDegrees>40.9401583112776279449462890625</LatitudeDegrees>
              <LongitudeDegrees>-3.0918291024863719940185546875</LongitudeDegrees>
            </Position>
            <AltitudeMeters>858.79998779296875</AltitudeMeters>
            <DistanceMeters>37455.246824104</DistanceMeters>
          </Trackpoint>
          <Trackpoint>
            <Time>2021-07-27T11:00:33.000Z</Time>
            <Position>
              <LatitudeDegrees>40.94073154963552951812744140625</LatitudeDegrees>
              <LongitudeDegrees>-3.09167143888771533966064453125</LongitudeDegrees>
            </Position>
            <AltitudeMeters>852.4000244140625</AltitudeMeters>
            <DistanceMeters>37520.411874158</DistanceMeters>
          </Trackpoint>
          <Trackpoint>
            <Time>2021-07-27T11:00:38.000Z</Time>
            <Position>
              <LatitudeDegrees>40.94124938361346721649169921875</LatitudeDegrees>
              <LongitudeDegrees>-3.09141193516552448272705078125</LongitudeDegrees>
            </Position>
            <AltitudeMeters>848.4000244140625</AltitudeMeters>
            <DistanceMeters>37582.039171124</DistanceMeters>
          </Trackpoint>
          <Trackpoint>
            <Time>2021-07-27T11:00:39.000Z</Time>
            <Position>
              <LatitudeDegrees>40.94134795479476451873779296875</LatitudeDegrees>
              <LongitudeDegrees>-3.09135518968105316162109375</LongitudeDegrees>
            </Position>
            <AltitudeMeters>847.79998779296875</AltitudeMeters>
            <DistanceMeters>37594.002728774</DistanceMeters>
          </Trackpoint>
          <Trackpoint>
            <Time>2021-07-27T11:00:41.000Z</Time>
            <Position>
              <LatitudeDegrees>40.9415374696254730224609375</LatitudeDegrees>
              <LongitudeDegrees>-3.091240860521793365478515625</LongitudeDegrees>
            </Position>
            <AltitudeMeters>847</AltitudeMeters>
            <DistanceMeters>37617.183014982</DistanceMeters>
          </Trackpoint>
          <Trackpoint>
            <Time>2021-07-27T11:00:47.000Z</Time>
            <Position>
              <LatitudeDegrees>40.9420465864241123199462890625</LatitudeDegrees>
              <LongitudeDegrees>-3.09091991744935512542724609375</LongitudeDegrees>
            </Position>
            <AltitudeMeters>848</AltitudeMeters>
            <DistanceMeters>37679.945264356</DistanceMeters>
          </Trackpoint>
          <Trackpoint>
            <Time>2021-07-27T11:00:48.000Z</Time>
            <Position>
              <LatitudeDegrees>40.94212311320006847381591796875</LatitudeDegrees>
              <LongitudeDegrees>-3.09087163768708705902099609375</LongitudeDegrees>
            </Position>
            <AltitudeMeters>848.20001220703125</AltitudeMeters>
            <DistanceMeters>37689.380225595</DistanceMeters>
          </Trackpoint>
          <Trackpoint>
            <Time>2021-07-27T11:00:53.000Z</Time>
            <Position>
              <LatitudeDegrees>40.9424683637917041778564453125</LatitudeDegrees>
              <LongitudeDegrees>-3.09064549393951892852783203125</LongitudeDegrees>
            </Position>
            <AltitudeMeters>849</AltitudeMeters>
            <DistanceMeters>37732.253705401</DistanceMeters>
          </Trackpoint>
          <Trackpoint>
            <Time>2021-07-27T11:00:57.000Z</Time>
            <Position>
              <LatitudeDegrees>40.9427080862224102020263671875</LatitudeDegrees>
              <LongitudeDegrees>-3.090491183102130889892578125</LongitudeDegrees>
            </Position>
            <AltitudeMeters>849</AltitudeMeters>
            <DistanceMeters>37761.92213528</DistanceMeters>
          </Trackpoint>
          <Trackpoint>
            <Time>2021-07-27T11:01:02.000Z</Time>
            <Position>
              <LatitudeDegrees>40.94296884723007678985595703125</LatitudeDegrees>
              <LongitudeDegrees>-3.09032463468611240386962890625</LongitudeDegrees>
            </Position>
            <AltitudeMeters>849</AltitudeMeters>
            <DistanceMeters>37794.146701542</DistanceMeters>
          </Trackpoint>
          <Trackpoint>
            <Time>2021-07-27T11:01:07.000Z</Time>
            <Position>
              <LatitudeDegrees>40.94318903982639312744140625</LatitudeDegrees>
              <LongitudeDegrees>-3.0901959724724292755126953125</LongitudeDegrees>
            </Position>
            <AltitudeMeters>849.20001220703125</AltitudeMeters>
            <DistanceMeters>37820.935640775</DistanceMeters>
          </Trackpoint>
          <Trackpoint>
            <Time>2021-07-27T11:01:11.000Z</Time>
            <Position>
              <LatitudeDegrees>40.943342931568622589111328125</LatitudeDegrees>
              <LongitudeDegrees>-3.0901207029819488525390625</LongitudeDegrees>
            </Position>
            <AltitudeMeters>850</AltitudeMeters>
            <DistanceMeters>37839.195611821</DistanceMeters>
          </Trackpoint>
          <Trackpoint>
            <Time>2021-07-27T11:01:15.000Z</Time>
            <Position>
              <LatitudeDegrees>40.94347762875258922576904296875</LatitudeDegrees>
              <LongitudeDegrees>-3.0900655500590801239013671875</LongitudeDegrees>
            </Position>
            <AltitudeMeters>850.79998779296875</AltitudeMeters>
            <DistanceMeters>37854.88797253</DistanceMeters>
          </Trackpoint>
          <Trackpoint>
            <Time>2021-07-27T11:01:21.000Z</Time>
            <Position>
              <LatitudeDegrees>40.94366806559264659881591796875</LatitudeDegrees>
              <LongitudeDegrees>-3.090007044374942779541015625</LongitudeDegrees>
            </Position>
            <AltitudeMeters>853</AltitudeMeters>
            <DistanceMeters>37876.647222704</DistanceMeters>
          </Trackpoint>
          <Trackpoint>
            <Time>2021-07-27T11:01:26.000Z</Time>
            <Position>
              <LatitudeDegrees>40.9438218735158443450927734375</LatitudeDegrees>
              <LongitudeDegrees>-3.0899646319448947906494140625</LongitudeDegrees>
            </Position>
            <AltitudeMeters>854.79998779296875</AltitudeMeters>
            <DistanceMeters>37894.133687428</DistanceMeters>
          </Trackpoint>
          <Trackpoint>
            <Time>2021-07-27T11:01:31.000Z</Time>
            <Position>
              <LatitudeDegrees>40.94396897591650485992431640625</LatitudeDegrees>
              <LongitudeDegrees>-3.0899160169064998626708984375</LongitudeDegrees>
            </Position>
            <AltitudeMeters>856.5999755859375</AltitudeMeters>
            <DistanceMeters>37911.008890856</DistanceMeters>
          </Trackpoint>
          <Trackpoint>
            <Time>2021-07-27T11:01:35.000Z</Time>
            <Position>
              <LatitudeDegrees>40.944075845181941986083984375</LatitudeDegrees>
              <LongitudeDegrees>-3.08987804688513278961181640625</LongitudeDegrees>
            </Position>
            <AltitudeMeters>857.5999755859375</AltitudeMeters>
            <DistanceMeters>37923.325027592</DistanceMeters>
          </Trackpoint>
          <Trackpoint>
            <Time>2021-07-27T11:01:41.000Z</Time>
            <Position>
              <LatitudeDegrees>40.944222025573253631591796875</LatitudeDegrees>
              <LongitudeDegrees>-3.08983161114156246185302734375</LongitudeDegrees>
            </Position>
            <AltitudeMeters>859.20001220703125</AltitudeMeters>
            <DistanceMeters>37940.057286557</DistanceMeters>
          </Trackpoint>
          <Trackpoint>
            <Time>2021-07-27T11:01:46.000Z</Time>
            <Position>
              <LatitudeDegrees>40.94433777965605258941650390625</LatitudeDegrees>
              <LongitudeDegrees>-3.0897969938814640045166015625</LongitudeDegrees>
            </Position>
            <AltitudeMeters>860.5999755859375</AltitudeMeters>
            <DistanceMeters>37953.265658027</DistanceMeters>
          </Trackpoint>
          <Trackpoint>
            <Time>2021-07-27T11:01:58.000Z</Time>
            <Position>
              <LatitudeDegrees>40.94460633583366870880126953125</LatitudeDegrees>
              <LongitudeDegrees>-3.0897158570587635040283203125</LongitudeDegrees>
            </Position>
            <AltitudeMeters>863</AltitudeMeters>
            <DistanceMeters>37983.92499327</DistanceMeters>
          </Trackpoint>
          <Trackpoint>
            <Time>2021-07-27T11:02:07.000Z</Time>
            <Position>
              <LatitudeDegrees>40.9448044002056121826171875</LatitudeDegrees>
              <LongitudeDegrees>-3.08964821510016918182373046875</LongitudeDegrees>
            </Position>
            <AltitudeMeters>863</AltitudeMeters>
            <DistanceMeters>38006.691775824</DistanceMeters>
          </Trackpoint>
          <Trackpoint>
            <Time>2021-07-27T11:02:16.000Z</Time>
            <Position>
              <LatitudeDegrees>40.944995842874050140380859375</LatitudeDegrees>
              <LongitudeDegrees>-3.08953321538865566253662109375</LongitudeDegrees>
            </Position>
            <AltitudeMeters>864.4000244140625</AltitudeMeters>
            <DistanceMeters>38030.090741505</DistanceMeters>
          </Trackpoint>
          <Trackpoint>
            <Time>2021-07-27T11:02:30.000Z</Time>
            <Position>
              <LatitudeDegrees>40.94530639238655567169189453125</LatitudeDegrees>
              <LongitudeDegrees>-3.08928360231220722198486328125</LongitudeDegrees>
            </Position>
            <AltitudeMeters>867</AltitudeMeters>
            <DistanceMeters>38070.527037106</DistanceMeters>
          </Trackpoint>
          <Trackpoint>
            <Time>2021-07-27T11:02:35.000Z</Time>
            <Position>
              <LatitudeDegrees>40.94542172737419605255126953125</LatitudeDegrees>
              <LongitudeDegrees>-3.0893229134380817413330078125</LongitudeDegrees>
            </Position>
            <AltitudeMeters>869</AltitudeMeters>
            <DistanceMeters>38083.782838006</DistanceMeters>
          </Trackpoint>
          <Trackpoint>
            <Time>2021-07-27T11:02:43.000Z</Time>
            <Position>
              <LatitudeDegrees>40.94557427801191806793212890625</LatitudeDegrees>
              <LongitudeDegrees>-3.0894120968878269195556640625</LongitudeDegrees>
            </Position>
            <AltitudeMeters>869.5999755859375</AltitudeMeters>
            <DistanceMeters>38102.343479599</DistanceMeters>
          </Trackpoint>
          <Trackpoint>
            <Time>2021-07-27T11:02:50.000Z</Time>
            <Position>
              <LatitudeDegrees>40.94567150808870792388916015625</LatitudeDegrees>
              <LongitudeDegrees>-3.08942190371453762054443359375</LongitudeDegrees>
            </Position>
            <AltitudeMeters>869.5999755859375</AltitudeMeters>
            <DistanceMeters>38113.196512223</DistanceMeters>
          </Trackpoint>
          <Trackpoint>
            <Time>2021-07-27T11:03:13.000Z</Time>
            <Position>
              <LatitudeDegrees>40.946061350405216217041015625</LatitudeDegrees>
              <LongitudeDegrees>-3.088885210454463958740234375</LongitudeDegrees>
            </Position>
            <AltitudeMeters>868.79998779296875</AltitudeMeters>
            <DistanceMeters>38175.794237835</DistanceMeters>
          </Trackpoint>
          <Trackpoint>
            <Time>2021-07-27T11:03:17.000Z</Time>
            <Position>
              <LatitudeDegrees>40.9461252205073833465576171875</LatitudeDegrees>
              <LongitudeDegrees>-3.08877850882709026336669921875</LongitudeDegrees>
            </Position>
            <AltitudeMeters>868.5999755859375</AltitudeMeters>
            <DistanceMeters>38187.239731227</DistanceMeters>
          </Trackpoint>
          <Trackpoint>
            <Time>2021-07-27T11:03:21.000Z</Time>
            <Position>
              <LatitudeDegrees>40.94621012918651103973388671875</LatitudeDegrees>
              <LongitudeDegrees>-3.08880248107016086578369140625</LongitudeDegrees>
            </Position>
            <AltitudeMeters>869</AltitudeMeters>
            <DistanceMeters>38196.902597801</DistanceMeters>
          </Trackpoint>
          <Trackpoint>
            <Time>2021-07-27T11:03:22.000Z</Time>
            <Position>
              <LatitudeDegrees>40.946219600737094879150390625</LatitudeDegrees>
              <LongitudeDegrees>-3.08881253935396671295166015625</LongitudeDegrees>
            </Position>
            <AltitudeMeters>869</AltitudeMeters>
            <DistanceMeters>38198.253181172</DistanceMeters>
          </Trackpoint>
          <Trackpoint>
            <Time>2021-07-27T11:03:24.000Z</Time>
            <Position>
              <LatitudeDegrees>40.94623024575412273406982421875</LatitudeDegrees>
              <LongitudeDegrees>-3.08884036727249622344970703125</LongitudeDegrees>
            </Position>
            <AltitudeMeters>869.20001220703125</AltitudeMeters>
            <DistanceMeters>38200.876331615</DistanceMeters>
          </Trackpoint>
          <Trackpoint>
            <Time>2021-07-27T11:03:27.000Z</Time>
            <Position>
              <LatitudeDegrees>40.94626310281455516815185546875</LatitudeDegrees>
              <LongitudeDegrees>-3.0888575501739978790283203125</LongitudeDegrees>
            </Position>
            <AltitudeMeters>869.79998779296875</AltitudeMeters>
            <DistanceMeters>38204.808187522</DistanceMeters>
          </Trackpoint>
          <Trackpoint>
            <Time>2021-07-27T11:03:33.000Z</Time>
            <Position>
              <LatitudeDegrees>40.94632362015545368194580078125</LatitudeDegrees>
              <LongitudeDegrees>-3.08888177387416362762451171875</LongitudeDegrees>
            </Position>
            <AltitudeMeters>870.5999755859375</AltitudeMeters>
            <DistanceMeters>38211.844657457</DistanceMeters>
          </Trackpoint>
          <Trackpoint>
            <Time>2021-07-27T11:03:36.000Z</Time>
            <Position>
              <LatitudeDegrees>40.9463327564299106597900390625</LatitudeDegrees>
              <LongitudeDegrees>-3.08889535255730152130126953125</LongitudeDegrees>
            </Position>
            <AltitudeMeters>870.79998779296875</AltitudeMeters>
            <DistanceMeters>38213.373967693</DistanceMeters>
          </Trackpoint>
          <Trackpoint>
            <Time>2021-07-27T11:04:40.000Z</Time>
            <Position>
              <LatitudeDegrees>40.9467407874763011932373046875</LatitudeDegrees>
              <LongitudeDegrees>-3.08905377052724361419677734375</LongitudeDegrees>
            </Position>
            <AltitudeMeters>879.20001220703125</AltitudeMeters>
            <DistanceMeters>38260.70118303</DistanceMeters>
          </Trackpoint>
          <Trackpoint>
            <Time>2021-07-27T11:04:49.000Z</Time>
            <Position>
              <LatitudeDegrees>40.94688738696277141571044921875</LatitudeDegrees>
              <LongitudeDegrees>-3.089062236249446868896484375</LongitudeDegrees>
            </Position>
            <AltitudeMeters>880.79998779296875</AltitudeMeters>
            <DistanceMeters>38277.033618799</DistanceMeters>
          </Trackpoint>
          <Trackpoint>
            <Time>2021-07-27T11:04:59.000Z</Time>
            <Position>
              <LatitudeDegrees>40.946884453296661376953125</LatitudeDegrees>
              <LongitudeDegrees>-3.08927111327648162841796875</LongitudeDegrees>
            </Position>
            <AltitudeMeters>883.5999755859375</AltitudeMeters>
            <DistanceMeters>38294.596344988</DistanceMeters>
          </Trackpoint>
          <Trackpoint>
            <Time>2021-07-27T11:05:02.000Z</Time>
            <Position>
              <LatitudeDegrees>40.9468688629567623138427734375</LatitudeDegrees>
              <LongitudeDegrees>-3.08929014019668102264404296875</LongitudeDegrees>
            </Position>
            <AltitudeMeters>883.79998779296875</AltitudeMeters>
            <DistanceMeters>38296.954846014</DistanceMeters>
          </Trackpoint>
          <Trackpoint>
            <Time>2021-07-27T11:28:29.000Z</Time>
            <Position>
              <LatitudeDegrees>40.946869365870952606201171875</LatitudeDegrees>
              <LongitudeDegrees>-3.08916122652590274810791015625</LongitudeDegrees>
            </Position>
            <AltitudeMeters>882.20001220703125</AltitudeMeters>
            <DistanceMeters>38307.792475105</DistanceMeters>
          </Trackpoint>
          <Trackpoint>
            <Time>2021-07-27T11:28:34.000Z</Time>
            <Position>
              <LatitudeDegrees>40.94691823236644268035888671875</LatitudeDegrees>
              <LongitudeDegrees>-3.0889346636831760406494140625</LongitudeDegrees>
            </Position>
            <AltitudeMeters>880</AltitudeMeters>
            <DistanceMeters>38327.600474031</DistanceMeters>
          </Trackpoint>
          <Trackpoint>
            <Time>2021-07-27T11:28:37.000Z</Time>
            <Position>
              <LatitudeDegrees>40.9469694457948207855224609375</LatitudeDegrees>
              <LongitudeDegrees>-3.08881781995296478271484375</LongitudeDegrees>
            </Position>
            <AltitudeMeters>879.5999755859375</AltitudeMeters>
            <DistanceMeters>38338.957657306</DistanceMeters>
          </Trackpoint>
          <Trackpoint>
            <Time>2021-07-27T11:28:42.000Z</Time>
            <Position>
              <LatitudeDegrees>40.94700288958847522735595703125</LatitudeDegrees>
              <LongitudeDegrees>-3.08874883688986301422119140625</LongitudeDegrees>
            </Position>
            <AltitudeMeters>879.4000244140625</AltitudeMeters>
            <DistanceMeters>38345.848240876</DistanceMeters>
          </Trackpoint>
          <Trackpoint>
            <Time>2021-07-27T11:30:14.000Z</Time>
            <Position>
              <LatitudeDegrees>40.9470425359904766082763671875</LatitudeDegrees>
              <LongitudeDegrees>-3.08875881135463714599609375</LongitudeDegrees>
            </Position>
            <AltitudeMeters>879.5999755859375</AltitudeMeters>
            <DistanceMeters>38350.33969841</DistanceMeters>
          </Trackpoint>
          <Trackpoint>
            <Time>2021-07-27T11:30:25.000Z</Time>
            <Position>
              <LatitudeDegrees>40.94724026508629322052001953125</LatitudeDegrees>
              <LongitudeDegrees>-3.08866971172392368316650390625</LongitudeDegrees>
            </Position>
            <AltitudeMeters>878.5999755859375</AltitudeMeters>
            <DistanceMeters>38373.587280546</DistanceMeters>
          </Trackpoint>
          <Trackpoint>
            <Time>2021-07-27T11:30:36.000Z</Time>
            <Position>
              <LatitudeDegrees>40.9475203044712543487548828125</LatitudeDegrees>
              <LongitudeDegrees>-3.0883811227977275848388671875</LongitudeDegrees>
            </Position>
            <AltitudeMeters>877</AltitudeMeters>
            <DistanceMeters>38413.085486164</DistanceMeters>
          </Trackpoint>
          <Trackpoint>
            <Time>2021-07-27T11:30:42.000Z</Time>
            <Position>
              <LatitudeDegrees>40.9476674906909465789794921875</LatitudeDegrees>
              <LongitudeDegrees>-3.08816646225750446319580078125</LongitudeDegrees>
            </Position>
            <AltitudeMeters>876.5999755859375</AltitudeMeters>
            <DistanceMeters>38437.458310145</DistanceMeters>
          </Trackpoint>
          <Trackpoint>
            <Time>2021-07-27T11:30:45.000Z</Time>
            <Position>
              <LatitudeDegrees>40.94774368219077587127685546875</LatitudeDegrees>
              <LongitudeDegrees>-3.08808482252061367034912109375</LongitudeDegrees>
            </Position>
            <AltitudeMeters>875.79998779296875</AltitudeMeters>
            <DistanceMeters>38448.367774272</DistanceMeters>
          </Trackpoint>
          <Trackpoint>
            <Time>2021-07-27T11:30:50.000Z</Time>
            <Position>
              <LatitudeDegrees>40.94779632054269313812255859375</LatitudeDegrees>
              <LongitudeDegrees>-3.0879623629152774810791015625</LongitudeDegrees>
            </Position>
            <AltitudeMeters>875.20001220703125</AltitudeMeters>
            <DistanceMeters>38460.21299811</DistanceMeters>
          </Trackpoint>
          <Trackpoint>
            <Time>2021-07-27T11:30:54.000Z</Time>
            <Position>
              <LatitudeDegrees>40.94778274185955524444580078125</LatitudeDegrees>
              <LongitudeDegrees>-3.08787678368389606475830078125</LongitudeDegrees>
            </Position>
            <AltitudeMeters>875</AltitudeMeters>
            <DistanceMeters>38467.563914886</DistanceMeters>
          </Trackpoint>
          <Trackpoint>
            <Time>2021-07-27T11:30:57.000Z</Time>
            <Position>
              <LatitudeDegrees>40.94777419231832027435302734375</LatitudeDegrees>
              <LongitudeDegrees>-3.08784677647054195404052734375</LongitudeDegrees>
            </Position>
            <AltitudeMeters>875</AltitudeMeters>
            <DistanceMeters>38470.260062422</DistanceMeters>
          </Trackpoint>
          <Trackpoint>
            <Time>2021-07-27T11:31:00.000Z</Time>
            <Position>
              <LatitudeDegrees>40.94781056977808475494384765625</LatitudeDegrees>
              <LongitudeDegrees>-3.08782540261745452880859375</LongitudeDegrees>
            </Position>
            <AltitudeMeters>874.5999755859375</AltitudeMeters>
            <DistanceMeters>38474.688755913</DistanceMeters>
          </Trackpoint>
          <Trackpoint>
            <Time>2021-07-27T11:31:08.000Z</Time>
            <Position>
              <LatitudeDegrees>40.94780621118843555450439453125</LatitudeDegrees>
              <LongitudeDegrees>-3.0880264006555080413818359375</LongitudeDegrees>
            </Position>
            <AltitudeMeters>875</AltitudeMeters>
            <DistanceMeters>38491.59283054</DistanceMeters>
          </Trackpoint>
          <Trackpoint>
            <Time>2021-07-27T11:31:09.000Z</Time>
            <Position>
              <LatitudeDegrees>40.94779330305755138397216796875</LatitudeDegrees>
              <LongitudeDegrees>-3.0880525521934032440185546875</LongitudeDegrees>
            </Position>
            <AltitudeMeters>875.20001220703125</AltitudeMeters>
            <DistanceMeters>38494.215980983</DistanceMeters>
          </Trackpoint>
          <Trackpoint>
            <Time>2021-07-27T11:31:31.000Z</Time>
            <Position>
              <LatitudeDegrees>40.9474445320665836334228515625</LatitudeDegrees>
              <LongitudeDegrees>-3.08851498179137706756591796875</LongitudeDegrees>
            </Position>
            <AltitudeMeters>877.20001220703125</AltitudeMeters>
            <DistanceMeters>38549.153997515</DistanceMeters>
          </Trackpoint>
          <Trackpoint>
            <Time>2021-07-27T11:31:42.000Z</Time>
            <Position>
              <LatitudeDegrees>40.94725786708295345306396484375</LatitudeDegrees>
              <LongitudeDegrees>-3.0887683667242527008056640625</LongitudeDegrees>
            </Position>
            <AltitudeMeters>879.20001220703125</AltitudeMeters>
            <DistanceMeters>38578.909955834</DistanceMeters>
          </Trackpoint>
          <Trackpoint>
            <Time>2021-07-27T11:31:44.000Z</Time>
            <Position>
              <LatitudeDegrees>40.9472618065774440765380859375</LatitudeDegrees>
              <LongitudeDegrees>-3.08882695622742176055908203125</LongitudeDegrees>
            </Position>
            <AltitudeMeters>879.5999755859375</AltitudeMeters>
            <DistanceMeters>38583.854998504</DistanceMeters>
          </Trackpoint>
          <Trackpoint>
            <Time>2021-07-27T11:31:47.000Z</Time>
            <Position>
              <LatitudeDegrees>40.94728502444922924041748046875</LatitudeDegrees>
              <LongitudeDegrees>-3.088891915977001190185546875</LongitudeDegrees>
            </Position>
            <AltitudeMeters>880</AltitudeMeters>
            <DistanceMeters>38589.897980313</DistanceMeters>
          </Trackpoint>
          <Trackpoint>
            <Time>2021-07-27T11:31:51.000Z</Time>
            <Position>
              <LatitudeDegrees>40.9473496489226818084716796875</LatitudeDegrees>
              <LongitudeDegrees>-3.08890641666948795318603515625</LongitudeDegrees>
            </Position>
            <AltitudeMeters>880</AltitudeMeters>
            <DistanceMeters>38597.193408372</DistanceMeters>
          </Trackpoint>
          <Trackpoint>
            <Time>2021-07-27T11:31:56.000Z</Time>
            <Position>
              <LatitudeDegrees>40.94747160561382770538330078125</LatitudeDegrees>
              <LongitudeDegrees>-3.088852353394031524658203125</LongitudeDegrees>
            </Position>
            <AltitudeMeters>879.20001220703125</AltitudeMeters>
            <DistanceMeters>38611.508103432</DistanceMeters>
          </Trackpoint>
          <Trackpoint>
            <Time>2021-07-27T11:31:58.000Z</Time>
            <Position>
              <LatitudeDegrees>40.9475565142929553985595703125</LatitudeDegrees>
              <LongitudeDegrees>-3.0888015590608119964599609375</LongitudeDegrees>
            </Position>
            <AltitudeMeters>878.4000244140625</AltitudeMeters>
            <DistanceMeters>38621.878648762</DistanceMeters>
          </Trackpoint>
          <Trackpoint>
            <Time>2021-07-27T11:32:00.000Z</Time>
            <Position>
              <LatitudeDegrees>40.947674028575420379638671875</LatitudeDegrees>
              <LongitudeDegrees>-3.08875612914562225341796875</LongitudeDegrees>
            </Position>
            <AltitudeMeters>878</AltitudeMeters>
            <DistanceMeters>38635.504300001</DistanceMeters>
          </Trackpoint>
          <Trackpoint>
            <Time>2021-07-27T11:32:02.000Z</Time>
            <Position>
              <LatitudeDegrees>40.9478079713881015777587890625</LatitudeDegrees>
              <LongitudeDegrees>-3.08869871310889720916748046875</LongitudeDegrees>
            </Position>
            <AltitudeMeters>878.20001220703125</AltitudeMeters>
            <DistanceMeters>38651.174202319</DistanceMeters>
          </Trackpoint>
          <Trackpoint>
            <Time>2021-07-27T11:32:07.000Z</Time>
            <Position>
              <LatitudeDegrees>40.94811466522514820098876953125</LatitudeDegrees>
              <LongitudeDegrees>-3.0885487608611583709716796875</LongitudeDegrees>
            </Position>
            <AltitudeMeters>876.5999755859375</AltitudeMeters>
            <DistanceMeters>38687.562982452</DistanceMeters>
          </Trackpoint>
          <Trackpoint>
            <Time>2021-07-27T11:32:09.000Z</Time>
            <Position>
              <LatitudeDegrees>40.9482146613299846649169921875</LatitudeDegrees>
              <LongitudeDegrees>-3.08851917274296283721923828125</LongitudeDegrees>
            </Position>
            <AltitudeMeters>876.20001220703125</AltitudeMeters>
            <DistanceMeters>38698.967375948</DistanceMeters>
          </Trackpoint>
          <Trackpoint>
            <Time>2021-07-27T11:32:11.000Z</Time>
            <Position>
              <LatitudeDegrees>40.94832010567188262939453125</LatitudeDegrees>
              <LongitudeDegrees>-3.0884548835456371307373046875</LongitudeDegrees>
            </Position>
            <AltitudeMeters>875</AltitudeMeters>
            <DistanceMeters>38711.888563331</DistanceMeters>
          </Trackpoint>
          <Trackpoint>
            <Time>2021-07-27T11:32:16.000Z</Time>
            <Position>
              <LatitudeDegrees>40.948572568595409393310546875</LatitudeDegrees>
              <LongitudeDegrees>-3.088226057589054107666015625</LongitudeDegrees>
            </Position>
            <AltitudeMeters>873.4000244140625</AltitudeMeters>
            <DistanceMeters>38745.941820984</DistanceMeters>
          </Trackpoint>
          <Trackpoint>
            <Time>2021-07-27T11:32:20.000Z</Time>
            <Position>
              <LatitudeDegrees>40.94869519583880901336669921875</LatitudeDegrees>
              <LongitudeDegrees>-3.08800100348889827728271484375</LongitudeDegrees>
            </Position>
            <AltitudeMeters>871.4000244140625</AltitudeMeters>
            <DistanceMeters>38769.270637439</DistanceMeters>
          </Trackpoint>
          <Trackpoint>
            <Time>2021-07-27T11:32:24.000Z</Time>
            <Position>
              <LatitudeDegrees>40.94879913143813610076904296875</LatitudeDegrees>
              <LongitudeDegrees>-3.08775122277438640594482421875</LongitudeDegrees>
            </Position>
            <AltitudeMeters>870</AltitudeMeters>
            <DistanceMeters>38793.244504576</DistanceMeters>
          </Trackpoint>
          <Trackpoint>
            <Time>2021-07-27T11:32:27.000Z</Time>
            <Position>
              <LatitudeDegrees>40.94887607730925083160400390625</LatitudeDegrees>
              <LongitudeDegrees>-3.08759297244250774383544921875</LongitudeDegrees>
            </Position>
            <AltitudeMeters>868.79998779296875</AltitudeMeters>
            <DistanceMeters>38809.066381177</DistanceMeters>
          </Trackpoint>
          <Trackpoint>
            <Time>2021-07-27T11:32:29.000Z</Time>
            <Position>
              <LatitudeDegrees>40.94894103705883026123046875</LatitudeDegrees>
              <LongitudeDegrees>-3.087489791214466094970703125</LongitudeDegrees>
            </Position>
            <AltitudeMeters>867.4000244140625</AltitudeMeters>
            <DistanceMeters>38820.358178173</DistanceMeters>
          </Trackpoint>
          <Trackpoint>
            <Time>2021-07-27T11:32:34.000Z</Time>
            <Position>
              <LatitudeDegrees>40.9491670131683349609375</LatitudeDegrees>
              <LongitudeDegrees>-3.08739851228892803192138671875</LongitudeDegrees>
            </Position>
            <AltitudeMeters>867.4000244140625</AltitudeMeters>
            <DistanceMeters>38846.654321117</DistanceMeters>
          </Trackpoint>
          <Trackpoint>
            <Time>2021-07-27T11:32:42.000Z</Time>
            <Position>
              <LatitudeDegrees>40.9494256787002086639404296875</LatitudeDegrees>
              <LongitudeDegrees>-3.0874835886061191558837890625</LongitudeDegrees>
            </Position>
            <AltitudeMeters>871</AltitudeMeters>
            <DistanceMeters>38876.319402775</DistanceMeters>
          </Trackpoint>
          <Trackpoint>
            <Time>2021-07-27T11:32:44.000Z</Time>
            <Position>
              <LatitudeDegrees>40.94945526681840419769287109375</LatitudeDegrees>
              <LongitudeDegrees>-3.08748316951096057891845703125</LongitudeDegrees>
            </Position>
            <AltitudeMeters>871</AltitudeMeters>
            <DistanceMeters>38879.611224723</DistanceMeters>
          </Trackpoint>
          <Trackpoint>
            <Time>2021-07-27T11:32:48.000Z</Time>
            <Position>
              <LatitudeDegrees>40.94945409335196018218994140625</LatitudeDegrees>
              <LongitudeDegrees>-3.08751183561980724334716796875</LongitudeDegrees>
            </Position>
            <AltitudeMeters>871.5999755859375</AltitudeMeters>
            <DistanceMeters>38882.024603952</DistanceMeters>
          </Trackpoint>
          <Trackpoint>
            <Time>2021-07-27T11:32:53.000Z</Time>
            <Position>
              <LatitudeDegrees>40.94928662292659282684326171875</LatitudeDegrees>
              <LongitudeDegrees>-3.08745685033500194549560546875</LongitudeDegrees>
            </Position>
            <AltitudeMeters>869.79998779296875</AltitudeMeters>
            <DistanceMeters>38901.228936331</DistanceMeters>
          </Trackpoint>
          <Trackpoint>
            <Time>2021-07-27T11:32:56.000Z</Time>
            <Position>
              <LatitudeDegrees>40.94920582138001918792724609375</LatitudeDegrees>
              <LongitudeDegrees>-3.08742382563650608062744140625</LongitudeDegrees>
            </Position>
            <AltitudeMeters>868</AltitudeMeters>
            <DistanceMeters>38910.640899459</DistanceMeters>
          </Trackpoint>
          <Trackpoint>
            <Time>2021-07-27T11:33:01.000Z</Time>
            <Position>
              <LatitudeDegrees>40.9493009559810161590576171875</LatitudeDegrees>
              <LongitudeDegrees>-3.087346293032169342041015625</LongitudeDegrees>
            </Position>
            <AltitudeMeters>867</AltitudeMeters>
            <DistanceMeters>38923.075245798</DistanceMeters>
          </Trackpoint>
          <Trackpoint>
            <Time>2021-07-27T11:33:03.000Z</Time>
            <Position>
              <LatitudeDegrees>40.9493881277740001678466796875</LatitudeDegrees>
              <LongitudeDegrees>-3.0873189680278301239013671875</LongitudeDegrees>
            </Position>
            <AltitudeMeters>866.4000244140625</AltitudeMeters>
            <DistanceMeters>38933.045808047</DistanceMeters>
          </Trackpoint>
          <Trackpoint>
            <Time>2021-07-27T11:33:05.000Z</Time>
            <Position>
              <LatitudeDegrees>40.9494866989552974700927734375</LatitudeDegrees>
              <LongitudeDegrees>-3.08729658834636211395263671875</LongitudeDegrees>
            </Position>
            <AltitudeMeters>866.20001220703125</AltitudeMeters>
            <DistanceMeters>38944.177326765</DistanceMeters>
          </Trackpoint>
          <Trackpoint>
            <Time>2021-07-27T11:33:07.000Z</Time>
            <Position>
              <LatitudeDegrees>40.9495872817933559417724609375</LatitudeDegrees>
              <LongitudeDegrees>-3.08728049509227275848388671875</LongitudeDegrees>
            </Position>
            <AltitudeMeters>865.79998779296875</AltitudeMeters>
            <DistanceMeters>38955.454319563</DistanceMeters>
          </Trackpoint>
          <Trackpoint>
            <Time>2021-07-27T11:33:08.000Z</Time>
            <Position>
              <LatitudeDegrees>40.9496404230594635009765625</LatitudeDegrees>
              <LongitudeDegrees>-3.08728150092065334320068359375</LongitudeDegrees>
            </Position>
            <AltitudeMeters>865</AltitudeMeters>
            <DistanceMeters>38961.369684828</DistanceMeters>
          </Trackpoint>
          <Trackpoint>
            <Time>2021-07-27T11:33:10.000Z</Time>
            <Position>
              <LatitudeDegrees>40.94974041916429996490478515625</LatitudeDegrees>
              <LongitudeDegrees>-3.08730639517307281494140625</LongitudeDegrees>
            </Position>
            <AltitudeMeters>863.20001220703125</AltitudeMeters>
            <DistanceMeters>38972.694222154</DistanceMeters>
          </Trackpoint>
          <Trackpoint>
            <Time>2021-07-27T11:33:12.000Z</Time>
            <Position>
              <LatitudeDegrees>40.9498373977839946746826171875</LatitudeDegrees>
              <LongitudeDegrees>-3.087344281375408172607421875</LongitudeDegrees>
            </Position>
            <AltitudeMeters>861.5999755859375</AltitudeMeters>
            <DistanceMeters>38983.94756797</DistanceMeters>
          </Trackpoint>
          <Trackpoint>
            <Time>2021-07-27T11:33:14.000Z</Time>
            <Position>
              <LatitudeDegrees>40.94992364756762981414794921875</LatitudeDegrees>
              <LongitudeDegrees>-3.0873850174248218536376953125</LongitudeDegrees>
            </Position>
            <AltitudeMeters>859.5999755859375</AltitudeMeters>
            <DistanceMeters>38994.1398199</DistanceMeters>
          </Trackpoint>
          <Trackpoint>
            <Time>2021-07-27T11:33:15.000Z</Time>
            <Position>
              <LatitudeDegrees>40.9499668143689632415771484375</LatitudeDegrees>
              <LongitudeDegrees>-3.087411336600780487060546875</LongitudeDegrees>
            </Position>
            <AltitudeMeters>858.5999755859375</AltitudeMeters>
            <DistanceMeters>38999.428976433</DistanceMeters>
          </Trackpoint>
          <Trackpoint>
            <Time>2021-07-27T11:33:17.000Z</Time>
            <Position>
              <LatitudeDegrees>40.950044430792331695556640625</LatitudeDegrees>
              <LongitudeDegrees>-3.087487109005451202392578125</LongitudeDegrees>
            </Position>
            <AltitudeMeters>857.20001220703125</AltitudeMeters>
            <DistanceMeters>39010.162368966</DistanceMeters>
          </Trackpoint>
          <Trackpoint>
            <Time>2021-07-27T11:33:19.000Z</Time>
            <Position>
              <LatitudeDegrees>40.9501163475215435028076171875</LatitudeDegrees>
              <LongitudeDegrees>-3.08759381063282489776611328125</LongitudeDegrees>
            </Position>
            <AltitudeMeters>854.79998779296875</AltitudeMeters>
            <DistanceMeters>39022.18465675</DistanceMeters>
          </Trackpoint>
          <Trackpoint>
            <Time>2021-07-27T11:33:20.000Z</Time>
            <Position>
              <LatitudeDegrees>40.95015817321836948394775390625</LatitudeDegrees>
              <LongitudeDegrees>-3.08765617199242115020751953125</LongitudeDegrees>
            </Position>
            <AltitudeMeters>854.20001220703125</AltitudeMeters>
            <DistanceMeters>39029.19476916</DistanceMeters>
          </Trackpoint>
          <Trackpoint>
            <Time>2021-07-27T11:33:22.000Z</Time>
            <Position>
              <LatitudeDegrees>40.95024593174457550048828125</LatitudeDegrees>
              <LongitudeDegrees>-3.08779028244316577911376953125</LongitudeDegrees>
            </Position>
            <AltitudeMeters>854.5999755859375</AltitudeMeters>
            <DistanceMeters>39044.111239372</DistanceMeters>
          </Trackpoint>
          <Trackpoint>
            <Time>2021-07-27T11:33:24.000Z</Time>
            <Position>
              <LatitudeDegrees>40.95033385790884494781494140625</LatitudeDegrees>
              <LongitudeDegrees>-3.08793830685317516326904296875</LongitudeDegrees>
            </Position>
            <AltitudeMeters>852.4000244140625</AltitudeMeters>
            <DistanceMeters>39059.941959872</DistanceMeters>
          </Trackpoint>
          <Trackpoint>
            <Time>2021-07-27T11:33:26.000Z</Time>
            <Position>
              <LatitudeDegrees>40.9504231251776218414306640625</LatitudeDegrees>
              <LongitudeDegrees>-3.08809488080441951751708984375</LongitudeDegrees>
            </Position>
            <AltitudeMeters>850.5999755859375</AltitudeMeters>
            <DistanceMeters>39076.433407424</DistanceMeters>
          </Trackpoint>
          <Trackpoint>
            <Time>2021-07-27T11:33:31.000Z</Time>
            <Position>
              <LatitudeDegrees>40.9505941160023212432861328125</LatitudeDegrees>
              <LongitudeDegrees>-3.08857440948486328125</LongitudeDegrees>
            </Position>
            <AltitudeMeters>847.5999755859375</AltitudeMeters>
            <DistanceMeters>39121.011167377</DistanceMeters>
          </Trackpoint>
          <Trackpoint>
            <Time>2021-07-27T11:33:32.000Z</Time>
            <Position>
              <LatitudeDegrees>40.9506113827228546142578125</LatitudeDegrees>
              <LongitudeDegrees>-3.088682703673839569091796875</LongitudeDegrees>
            </Position>
            <AltitudeMeters>846.20001220703125</AltitudeMeters>
            <DistanceMeters>39130.315539621</DistanceMeters>
          </Trackpoint>
          <Trackpoint>
            <Time>2021-07-27T11:33:33.000Z</Time>
            <Position>
              <LatitudeDegrees>40.95062144100666046142578125</LatitudeDegrees>
              <LongitudeDegrees>-3.088793344795703887939453125</LongitudeDegrees>
            </Position>
            <AltitudeMeters>845</AltitudeMeters>
            <DistanceMeters>39139.683265219</DistanceMeters>
          </Trackpoint>
          <Trackpoint>
            <Time>2021-07-27T11:33:36.000Z</Time>
            <Position>
              <LatitudeDegrees>40.95060534775257110595703125</LatitudeDegrees>
              <LongitudeDegrees>-3.08912367559969425201416015625</LongitudeDegrees>
            </Position>
            <AltitudeMeters>844.79998779296875</AltitudeMeters>
            <DistanceMeters>39167.509709385</DistanceMeters>
          </Trackpoint>
          <Trackpoint>
            <Time>2021-07-27T11:33:38.000Z</Time>
            <Position>
              <LatitudeDegrees>40.95059185288846492767333984375</LatitudeDegrees>
              <LongitudeDegrees>-3.0893589556217193603515625</LongitudeDegrees>
            </Position>
            <AltitudeMeters>844.4000244140625</AltitudeMeters>
            <DistanceMeters>39187.34504227</DistanceMeters>
          </Trackpoint>
          <Trackpoint>
            <Time>2021-07-27T11:33:39.000Z</Time>
            <Position>
              <LatitudeDegrees>40.95058665610849857330322265625</LatitudeDegrees>
              <LongitudeDegrees>-3.0894871987402439117431640625</LongitudeDegrees>
            </Position>
            <AltitudeMeters>844</AltitudeMeters>
            <DistanceMeters>39198.140930222</DistanceMeters>
          </Trackpoint>
          <Trackpoint>
            <Time>2021-07-27T11:33:40.000Z</Time>
            <Position>
              <LatitudeDegrees>40.95058112405240535736083984375</LatitudeDegrees>
              <LongitudeDegrees>-3.08961988426744937896728515625</LongitudeDegrees>
            </Position>
            <AltitudeMeters>844.20001220703125</AltitudeMeters>
            <DistanceMeters>39209.31212785</DistanceMeters>
          </Trackpoint>
          <Trackpoint>
            <Time>2021-07-27T11:33:42.000Z</Time>
            <Position>
              <LatitudeDegrees>40.9505639411509037017822265625</LatitudeDegrees>
              <LongitudeDegrees>-3.089881651103496551513671875</LongitudeDegrees>
            </Position>
            <AltitudeMeters>845.4000244140625</AltitudeMeters>
            <DistanceMeters>39231.40026947</DistanceMeters>
          </Trackpoint>
          <Trackpoint>
            <Time>2021-07-27T11:33:44.000Z</Time>
            <Position>
              <LatitudeDegrees>40.950554721057415008544921875</LatitudeDegrees>
              <LongitudeDegrees>-3.090096898376941680908203125</LongitudeDegrees>
            </Position>
            <AltitudeMeters>846</AltitudeMeters>
            <DistanceMeters>39249.523734938</DistanceMeters>
          </Trackpoint>
          <Trackpoint>
            <Time>2021-07-27T11:33:49.000Z</Time>
            <Position>
              <LatitudeDegrees>40.95066980458796024322509765625</LatitudeDegrees>
              <LongitudeDegrees>-3.0901346169412136077880859375</LongitudeDegrees>
            </Position>
            <AltitudeMeters>844</AltitudeMeters>
            <DistanceMeters>39262.719110415</DistanceMeters>
          </Trackpoint>
          <Trackpoint>
            <Time>2021-07-27T11:33:53.000Z</Time>
            <Position>
              <LatitudeDegrees>40.95067935995757579803466796875</LatitudeDegrees>
              <LongitudeDegrees>-3.08994526974856853485107421875</LongitudeDegrees>
            </Position>
            <AltitudeMeters>843.20001220703125</AltitudeMeters>
            <DistanceMeters>39278.671715668</DistanceMeters>
          </Trackpoint>
          <Trackpoint>
            <Time>2021-07-27T11:33:57.000Z</Time>
            <Position>
              <LatitudeDegrees>40.95072495751082897186279296875</LatitudeDegrees>
              <LongitudeDegrees>-3.08979355730116367340087890625</LongitudeDegrees>
            </Position>
            <AltitudeMeters>841.79998779296875</AltitudeMeters>
            <DistanceMeters>39292.397731657</DistanceMeters>
          </Trackpoint>
          <Trackpoint>
            <Time>2021-07-27T11:34:04.000Z</Time>
            <Position>
              <LatitudeDegrees>40.95086007378995418548583984375</LatitudeDegrees>
              <LongitudeDegrees>-3.0899984948337078094482421875</LongitudeDegrees>
            </Position>
            <AltitudeMeters>840</AltitudeMeters>
            <DistanceMeters>39315.265827052</DistanceMeters>
          </Trackpoint>
          <Trackpoint>
            <Time>2021-07-27T11:34:05.000Z</Time>
            <Position>
              <LatitudeDegrees>40.95086962915956974029541015625</LatitudeDegrees>
              <LongitudeDegrees>-3.09004803188145160675048828125</LongitudeDegrees>
            </Position>
            <AltitudeMeters>839.5999755859375</AltitudeMeters>
            <DistanceMeters>39319.562043557</DistanceMeters>
          </Trackpoint>
          <Trackpoint>
            <Time>2021-07-27T11:34:10.000Z</Time>
            <Position>
              <LatitudeDegrees>40.95092880539596080780029296875</LatitudeDegrees>
              <LongitudeDegrees>-3.09029026888310909271240234375</LongitudeDegrees>
            </Position>
            <AltitudeMeters>838</AltitudeMeters>
            <DistanceMeters>39340.963949956</DistanceMeters>
          </Trackpoint>
          <Trackpoint>
            <Time>2021-07-27T11:34:24.000Z</Time>
            <Position>
              <LatitudeDegrees>40.95123876817524433135986328125</LatitudeDegrees>
              <LongitudeDegrees>-3.09089611284434795379638671875</LongitudeDegrees>
            </Position>
            <AltitudeMeters>837.20001220703125</AltitudeMeters>
            <DistanceMeters>39402.478023901</DistanceMeters>
          </Trackpoint>
          <Trackpoint>
            <Time>2021-07-27T11:34:39.000Z</Time>
            <Position>
              <LatitudeDegrees>40.95170329324901103973388671875</LatitudeDegrees>
              <LongitudeDegrees>-3.09132660739123821258544921875</LongitudeDegrees>
            </Position>
            <AltitudeMeters>839</AltitudeMeters>
            <DistanceMeters>39465.587138663</DistanceMeters>
          </Trackpoint>
          <Trackpoint>
            <Time>2021-07-27T11:34:45.000Z</Time>
            <Position>
              <LatitudeDegrees>40.95190529711544513702392578125</LatitudeDegrees>
              <LongitudeDegrees>-3.09142836369574069976806640625</LongitudeDegrees>
            </Position>
            <AltitudeMeters>840.4000244140625</AltitudeMeters>
            <DistanceMeters>39489.642790572</DistanceMeters>
          </Trackpoint>
          <Trackpoint>
            <Time>2021-07-27T11:34:51.000Z</Time>
            <Position>
              <LatitudeDegrees>40.952109731733798980712890625</LatitudeDegrees>
              <LongitudeDegrees>-3.091487623751163482666015625</LongitudeDegrees>
            </Position>
            <AltitudeMeters>841.4000244140625</AltitudeMeters>
            <DistanceMeters>39512.935774774</DistanceMeters>
          </Trackpoint>
          <Trackpoint>
            <Time>2021-07-27T11:35:07.000Z</Time>
            <Position>
              <LatitudeDegrees>40.95266126096248626708984375</LatitudeDegrees>
              <LongitudeDegrees>-3.09146381914615631103515625</LongitudeDegrees>
            </Position>
            <AltitudeMeters>844.4000244140625</AltitudeMeters>
            <DistanceMeters>39574.354650653</DistanceMeters>
          </Trackpoint>
          <Trackpoint>
            <Time>2021-07-27T11:35:20.000Z</Time>
            <Position>
              <LatitudeDegrees>40.9530694596469402313232421875</LatitudeDegrees>
              <LongitudeDegrees>-3.091272376477718353271484375</LongitudeDegrees>
            </Position>
            <AltitudeMeters>843.4000244140625</AltitudeMeters>
            <DistanceMeters>39622.553901339</DistanceMeters>
          </Trackpoint>
          <Trackpoint>
            <Time>2021-07-27T11:35:22.000Z</Time>
            <Position>
              <LatitudeDegrees>40.95312788151204586029052734375</LatitudeDegrees>
              <LongitudeDegrees>-3.0912299640476703643798828125</LongitudeDegrees>
            </Position>
            <AltitudeMeters>844</AltitudeMeters>
            <DistanceMeters>39629.969639033</DistanceMeters>
          </Trackpoint>
          <Trackpoint>
            <Time>2021-07-27T11:35:27.000Z</Time>
            <Position>
              <LatitudeDegrees>40.95327171497046947479248046875</LatitudeDegrees>
              <LongitudeDegrees>-3.09111806564033031463623046875</LongitudeDegrees>
            </Position>
            <AltitudeMeters>845.20001220703125</AltitudeMeters>
            <DistanceMeters>39648.537576954</DistanceMeters>
          </Trackpoint>
          <Trackpoint>
            <Time>2021-07-27T11:35:33.000Z</Time>
            <Position>
              <LatitudeDegrees>40.9534362517297267913818359375</LatitudeDegrees>
              <LongitudeDegrees>-3.0909707956016063690185546875</LongitudeDegrees>
            </Position>
            <AltitudeMeters>846.4000244140625</AltitudeMeters>
            <DistanceMeters>39670.642473842</DistanceMeters>
          </Trackpoint>
          <Trackpoint>
            <Time>2021-07-27T11:35:44.000Z</Time>
            <Position>
              <LatitudeDegrees>40.9537363238632678985595703125</LatitudeDegrees>
              <LongitudeDegrees>-3.09067793190479278564453125</LongitudeDegrees>
            </Position>
            <AltitudeMeters>844.20001220703125</AltitudeMeters>
            <DistanceMeters>39712.133688136</DistanceMeters>
          </Trackpoint>
          <Trackpoint>
            <Time>2021-07-27T11:36:00.000Z</Time>
            <Position>
              <LatitudeDegrees>40.95417746342718601226806640625</LatitudeDegrees>
              <LongitudeDegrees>-3.09024936519563198089599609375</LongitudeDegrees>
            </Position>
            <AltitudeMeters>842.20001220703125</AltitudeMeters>
            <DistanceMeters>39773.031801037</DistanceMeters>
          </Trackpoint>
          <Trackpoint>
            <Time>2021-07-27T11:36:15.000Z</Time>
            <Position>
              <LatitudeDegrees>40.9546132385730743408203125</LatitudeDegrees>
              <LongitudeDegrees>-3.08982507325708866119384765625</LongitudeDegrees>
            </Position>
            <AltitudeMeters>843.4000244140625</AltitudeMeters>
            <DistanceMeters>39833.235855746</DistanceMeters>
          </Trackpoint>
          <Trackpoint>
            <Time>2021-07-27T11:36:22.000Z</Time>
            <Position>
              <LatitudeDegrees>40.95481599681079387664794921875</LatitudeDegrees>
              <LongitudeDegrees>-3.08963279239833354949951171875</LongitudeDegrees>
            </Position>
            <AltitudeMeters>844.79998779296875</AltitudeMeters>
            <DistanceMeters>39860.994068275</DistanceMeters>
          </Trackpoint>
          <Trackpoint>
            <Time>2021-07-27T11:36:35.000Z</Time>
            <Position>
              <LatitudeDegrees>40.9551870636641979217529296875</LatitudeDegrees>
              <LongitudeDegrees>-3.08925409801304340362548828125</LongitudeDegrees>
            </Position>
            <AltitudeMeters>846.5999755859375</AltitudeMeters>
            <DistanceMeters>39913.138370532</DistanceMeters>
          </Trackpoint>
          <Trackpoint>
            <Time>2021-07-27T11:36:50.000Z</Time>
            <Position>
              <LatitudeDegrees>40.95556030981242656707763671875</LatitudeDegrees>
              <LongitudeDegrees>-3.08873173780739307403564453125</LongitudeDegrees>
            </Position>
            <AltitudeMeters>849.4000244140625</AltitudeMeters>
            <DistanceMeters>39973.584773163</DistanceMeters>
          </Trackpoint>
          <Trackpoint>
            <Time>2021-07-27T11:36:56.000Z</Time>
            <Position>
              <LatitudeDegrees>40.95567983575165271759033203125</LatitudeDegrees>
              <LongitudeDegrees>-3.08849100954830646514892578125</LongitudeDegrees>
            </Position>
            <AltitudeMeters>849</AltitudeMeters>
            <DistanceMeters>39997.801115257</DistanceMeters>
          </Trackpoint>
          <Trackpoint>
            <Time>2021-07-27T11:37:08.000Z</Time>
            <Position>
              <LatitudeDegrees>40.95586423762142658233642578125</LatitudeDegrees>
              <LongitudeDegrees>-3.0879781208932399749755859375</LongitudeDegrees>
            </Position>
            <AltitudeMeters>847.20001220703125</AltitudeMeters>
            <DistanceMeters>40045.549273445</DistanceMeters>
          </Trackpoint>
          <Trackpoint>
            <Time>2021-07-27T11:37:19.000Z</Time>
            <Position>
              <LatitudeDegrees>40.9559887088835239410400390625</LatitudeDegrees>
              <LongitudeDegrees>-3.08750932104885578155517578125</LongitudeDegrees>
            </Position>
            <AltitudeMeters>847.20001220703125</AltitudeMeters>
            <DistanceMeters>40087.319540983</DistanceMeters>
          </Trackpoint>
          <Trackpoint>
            <Time>2021-07-27T11:37:25.000Z</Time>
            <Position>
              <LatitudeDegrees>40.95605232752859592437744140625</LatitudeDegrees>
              <LongitudeDegrees>-3.087267167866230010986328125</LongitudeDegrees>
            </Position>
            <AltitudeMeters>848</AltitudeMeters>
            <DistanceMeters>40108.870711527</DistanceMeters>
          </Trackpoint>
          <Trackpoint>
            <Time>2021-07-27T11:37:35.000Z</Time>
            <Position>
              <LatitudeDegrees>40.95615752041339874267578125</LatitudeDegrees>
              <LongitudeDegrees>-3.08688101358711719512939453125</LongitudeDegrees>
            </Position>
            <AltitudeMeters>850.20001220703125</AltitudeMeters>
            <DistanceMeters>40143.376663615</DistanceMeters>
          </Trackpoint>
          <Trackpoint>
            <Time>2021-07-27T11:37:44.000Z</Time>
            <Position>
              <LatitudeDegrees>40.956247709691524505615234375</LatitudeDegrees>
              <LongitudeDegrees>-3.08654372580349445343017578125</LongitudeDegrees>
            </Position>
            <AltitudeMeters>852.20001220703125</AltitudeMeters>
            <DistanceMeters>40173.452581183</DistanceMeters>
          </Trackpoint>
          <Trackpoint>
            <Time>2021-07-27T11:37:54.000Z</Time>
            <Position>
              <LatitudeDegrees>40.95634393393993377685546875</LatitudeDegrees>
              <LongitudeDegrees>-3.08617944829165935516357421875</LongitudeDegrees>
            </Position>
            <AltitudeMeters>854.20001220703125</AltitudeMeters>
            <DistanceMeters>40205.891366734</DistanceMeters>
          </Trackpoint>
          <Trackpoint>
            <Time>2021-07-27T11:38:03.000Z</Time>
            <Position>
              <LatitudeDegrees>40.9564262442290782928466796875</LatitudeDegrees>
              <LongitudeDegrees>-3.085852302610874176025390625</LongitudeDegrees>
            </Position>
            <AltitudeMeters>855.4000244140625</AltitudeMeters>
            <DistanceMeters>40234.875916616</DistanceMeters>
          </Trackpoint>
          <Trackpoint>
            <Time>2021-07-27T11:38:08.000Z</Time>
            <Position>
              <LatitudeDegrees>40.9564738534390926361083984375</LatitudeDegrees>
              <LongitudeDegrees>-3.08567351661622524261474609375</LongitudeDegrees>
            </Position>
            <AltitudeMeters>855.5999755859375</AltitudeMeters>
            <DistanceMeters>40250.810681112</DistanceMeters>
          </Trackpoint>
          <Trackpoint>
            <Time>2021-07-27T11:38:18.000Z</Time>
            <Position>
              <LatitudeDegrees>40.95656865276396274566650390625</LatitudeDegrees>
              <LongitudeDegrees>-3.0853222310543060302734375</LongitudeDegrees>
            </Position>
            <AltitudeMeters>856.5999755859375</AltitudeMeters>
            <DistanceMeters>40282.166905109</DistanceMeters>
          </Trackpoint>
          <Trackpoint>
            <Time>2021-07-27T11:38:20.000Z</Time>
            <Position>
              <LatitudeDegrees>40.9565888531506061553955078125</LatitudeDegrees>
              <LongitudeDegrees>-3.08525224216282367706298828125</LongitudeDegrees>
            </Position>
            <AltitudeMeters>856.5999755859375</AltitudeMeters>
            <DistanceMeters>40288.46524821</DistanceMeters>
          </Trackpoint>
          <Trackpoint>
            <Time>2021-07-27T11:38:27.000Z</Time>
            <Position>
              <LatitudeDegrees>40.95665532164275646209716796875</LatitudeDegrees>
              <LongitudeDegrees>-3.0850075744092464447021484375</LongitudeDegrees>
            </Position>
            <AltitudeMeters>857</AltitudeMeters>
            <DistanceMeters>40310.321185935</DistanceMeters>
          </Trackpoint>
          <Trackpoint>
            <Time>2021-07-27T11:38:30.000Z</Time>
            <Position>
              <LatitudeDegrees>40.95668365247547626495361328125</LatitudeDegrees>
              <LongitudeDegrees>-3.08490221388638019561767578125</LongitudeDegrees>
            </Position>
            <AltitudeMeters>856.79998779296875</AltitudeMeters>
            <DistanceMeters>40319.722589459</DistanceMeters>
          </Trackpoint>
          <Trackpoint>
            <Time>2021-07-27T11:38:41.000Z</Time>
            <Position>
              <LatitudeDegrees>40.956802926957607269287109375</LatitudeDegrees>
              <LongitudeDegrees>-3.0845147185027599334716796875</LongitudeDegrees>
            </Position>
            <AltitudeMeters>856.79998779296875</AltitudeMeters>
            <DistanceMeters>40354.895569614</DistanceMeters>
          </Trackpoint>
          <Trackpoint>
            <Time>2021-07-27T11:38:59.000Z</Time>
            <Position>
              <LatitudeDegrees>40.95710241235792636871337890625</LatitudeDegrees>
              <LongitudeDegrees>-3.08391532860696315765380859375</LongitudeDegrees>
            </Position>
            <AltitudeMeters>858.5999755859375</AltitudeMeters>
            <DistanceMeters>40415.306257529</DistanceMeters>
          </Trackpoint>
          <Trackpoint>
            <Time>2021-07-27T11:39:16.000Z</Time>
            <Position>
              <LatitudeDegrees>40.957548581063747406005859375</LatitudeDegrees>
              <LongitudeDegrees>-3.08346019126474857330322265625</LongitudeDegrees>
            </Position>
            <AltitudeMeters>856.20001220703125</AltitudeMeters>
            <DistanceMeters>40477.992997724</DistanceMeters>
          </Trackpoint>
          <Trackpoint>
            <Time>2021-07-27T11:39:30.000Z</Time>
            <Position>
              <LatitudeDegrees>40.95807622186839580535888671875</LatitudeDegrees>
              <LongitudeDegrees>-3.0832302756607532501220703125</LongitudeDegrees>
            </Position>
            <AltitudeMeters>854.4000244140625</AltitudeMeters>
            <DistanceMeters>40539.818520273</DistanceMeters>
          </Trackpoint>
          <Trackpoint>
            <Time>2021-07-27T11:39:41.000Z</Time>
            <Position>
              <LatitudeDegrees>40.95863579772412776947021484375</LatitudeDegrees>
              <LongitudeDegrees>-3.08322130702435970306396484375</LongitudeDegrees>
            </Position>
            <AltitudeMeters>856.20001220703125</AltitudeMeters>
            <DistanceMeters>40602.105034085</DistanceMeters>
          </Trackpoint>
          <Trackpoint>
            <Time>2021-07-27T11:39:45.000Z</Time>
            <Position>
              <LatitudeDegrees>40.95887250266969203948974609375</LatitudeDegrees>
              <LongitudeDegrees>-3.08325684629380702972412109375</LongitudeDegrees>
            </Position>
            <AltitudeMeters>857.4000244140625</AltitudeMeters>
            <DistanceMeters>40628.619701185</DistanceMeters>
          </Trackpoint>
          <Trackpoint>
            <Time>2021-07-27T11:39:49.000Z</Time>
            <Position>
              <LatitudeDegrees>40.95913234166800975799560546875</LatitudeDegrees>
              <LongitudeDegrees>-3.08329917490482330322265625</LongitudeDegrees>
            </Position>
            <AltitudeMeters>857.79998779296875</AltitudeMeters>
            <DistanceMeters>40657.758369098</DistanceMeters>
          </Trackpoint>
          <Trackpoint>
            <Time>2021-07-27T11:39:53.000Z</Time>
            <Position>
              <LatitudeDegrees>40.95941849984228610992431640625</LatitudeDegrees>
              <LongitudeDegrees>-3.0833412520587444305419921875</LongitudeDegrees>
            </Position>
            <AltitudeMeters>857.4000244140625</AltitudeMeters>
            <DistanceMeters>40689.803935926</DistanceMeters>
          </Trackpoint>
          <Trackpoint>
            <Time>2021-07-27T11:39:57.000Z</Time>
            <Position>
              <LatitudeDegrees>40.959732234477996826171875</LatitudeDegrees>
              <LongitudeDegrees>-3.083389364182949066162109375</LongitudeDegrees>
            </Position>
            <AltitudeMeters>855.4000244140625</AltitudeMeters>
            <DistanceMeters>40724.956499856</DistanceMeters>
          </Trackpoint>
          <Trackpoint>
            <Time>2021-07-27T11:40:00.000Z</Time>
            <Position>
              <LatitudeDegrees>40.9599808417260646820068359375</LatitudeDegrees>
              <LongitudeDegrees>-3.08342456817626953125</LongitudeDegrees>
            </Position>
            <AltitudeMeters>853.79998779296875</AltitudeMeters>
            <DistanceMeters>40752.784566546</DistanceMeters>
          </Trackpoint>
          <Trackpoint>
            <Time>2021-07-27T11:40:02.000Z</Time>
            <Position>
              <LatitudeDegrees>40.96014822833240032196044921875</LatitudeDegrees>
              <LongitudeDegrees>-3.08345298282802104949951171875</LongitudeDegrees>
            </Position>
            <AltitudeMeters>852.4000244140625</AltitudeMeters>
            <DistanceMeters>40771.567432583</DistanceMeters>
          </Trackpoint>
          <Trackpoint>
            <Time>2021-07-27T11:40:05.000Z</Time>
            <Position>
              <LatitudeDegrees>40.96040622331202030181884765625</LatitudeDegrees>
              <LongitudeDegrees>-3.08348299004137516021728515625</LongitudeDegrees>
            </Position>
            <AltitudeMeters>851</AltitudeMeters>
            <DistanceMeters>40800.393281647</DistanceMeters>
          </Trackpoint>
          <Trackpoint>
            <Time>2021-07-27T11:40:07.000Z</Time>
            <Position>
              <LatitudeDegrees>40.9605824947357177734375</LatitudeDegrees>
              <LongitudeDegrees>-3.08349371887743473052978515625</LongitudeDegrees>
            </Position>
            <AltitudeMeters>849</AltitudeMeters>
            <DistanceMeters>40820.03325989</DistanceMeters>
          </Trackpoint>
          <Trackpoint>
            <Time>2021-07-27T11:40:12.000Z</Time>
            <Position>
              <LatitudeDegrees>40.9610242210328578948974609375</LatitudeDegrees>
              <LongitudeDegrees>-3.083459772169589996337890625</LongitudeDegrees>
            </Position>
            <AltitudeMeters>847.4000244140625</AltitudeMeters>
            <DistanceMeters>40869.281032242</DistanceMeters>
          </Trackpoint>
          <Trackpoint>
            <Time>2021-07-27T11:40:19.000Z</Time>
            <Position>
              <LatitudeDegrees>40.96157264895737171173095703125</LatitudeDegrees>
              <LongitudeDegrees>-3.083285428583621978759765625</LongitudeDegrees>
            </Position>
            <AltitudeMeters>849.20001220703125</AltitudeMeters>
            <DistanceMeters>40932.056373104</DistanceMeters>
          </Trackpoint>
          <Trackpoint>
            <Time>2021-07-27T11:40:27.000Z</Time>
            <Position>
              <LatitudeDegrees>40.96210934221744537353515625</LatitudeDegrees>
              <LongitudeDegrees>-3.0830827541649341583251953125</LongitudeDegrees>
            </Position>
            <AltitudeMeters>850</AltitudeMeters>
            <DistanceMeters>40994.172814838</DistanceMeters>
          </Trackpoint>
          <Trackpoint>
            <Time>2021-07-27T11:40:36.000Z</Time>
            <Position>
              <LatitudeDegrees>40.9626437723636627197265625</LatitudeDegrees>
              <LongitudeDegrees>-3.08284965343773365020751953125</LongitudeDegrees>
            </Position>
            <AltitudeMeters>855.79998779296875</AltitudeMeters>
            <DistanceMeters>41056.799384937</DistanceMeters>
          </Trackpoint>
          <Trackpoint>
            <Time>2021-07-27T11:40:46.000Z</Time>
            <Position>
              <LatitudeDegrees>40.963105447590351104736328125</LatitudeDegrees>
              <LongitudeDegrees>-3.08241002261638641357421875</LongitudeDegrees>
            </Position>
            <AltitudeMeters>848.79998779296875</AltitudeMeters>
            <DistanceMeters>41120.090458326</DistanceMeters>
          </Trackpoint>
          <Trackpoint>
            <Time>2021-07-27T11:40:57.000Z</Time>
            <Position>
              <LatitudeDegrees>40.96340627409517765045166015625</LatitudeDegrees>
              <LongitudeDegrees>-3.081817924976348876953125</LongitudeDegrees>
            </Position>
            <AltitudeMeters>846.79998779296875</AltitudeMeters>
            <DistanceMeters>41180.070233461</DistanceMeters>
          </Trackpoint>
          <Trackpoint>
            <Time>2021-07-27T11:41:05.000Z</Time>
            <Position>
              <LatitudeDegrees>40.96350568346679210662841796875</LatitudeDegrees>
              <LongitudeDegrees>-3.0814244784414768218994140625</LongitudeDegrees>
            </Position>
            <AltitudeMeters>847.5999755859375</AltitudeMeters>
            <DistanceMeters>41214.940247131</DistanceMeters>
          </Trackpoint>
          <Trackpoint>
            <Time>2021-07-27T11:41:17.000Z</Time>
            <Position>
              <LatitudeDegrees>40.96354273147881031036376953125</LatitudeDegrees>
              <LongitudeDegrees>-3.0809024535119533538818359375</LongitudeDegrees>
            </Position>
            <AltitudeMeters>848</AltitudeMeters>
            <DistanceMeters>41259.008469696</DistanceMeters>
          </Trackpoint>
          <Trackpoint>
            <Time>2021-07-27T11:41:23.000Z</Time>
            <Position>
              <LatitudeDegrees>40.96352546475827693939208984375</LatitudeDegrees>
              <LongitudeDegrees>-3.08068913407623767852783203125</LongitudeDegrees>
            </Position>
            <AltitudeMeters>848.79998779296875</AltitudeMeters>
            <DistanceMeters>41277.040023496</DistanceMeters>
          </Trackpoint>
          <Trackpoint>
            <Time>2021-07-27T11:41:32.000Z</Time>
            <Position>
              <LatitudeDegrees>40.96347416751086711883544921875</LatitudeDegrees>
              <LongitudeDegrees>-3.0803941749036312103271484375</LongitudeDegrees>
            </Position>
            <AltitudeMeters>850.5999755859375</AltitudeMeters>
            <DistanceMeters>41302.479510884</DistanceMeters>
          </Trackpoint>
          <Trackpoint>
            <Time>2021-07-27T11:41:38.000Z</Time>
            <Position>
              <LatitudeDegrees>40.96342689357697963714599609375</LatitudeDegrees>
              <LongitudeDegrees>-3.08020918630063533782958984375</LongitudeDegrees>
            </Position>
            <AltitudeMeters>851.4000244140625</AltitudeMeters>
            <DistanceMeters>41318.893295661</DistanceMeters>
          </Trackpoint>
          <Trackpoint>
            <Time>2021-07-27T11:41:47.000Z</Time>
            <Position>
              <LatitudeDegrees>40.9633413143455982208251953125</LatitudeDegrees>
              <LongitudeDegrees>-3.079976253211498260498046875</LongitudeDegrees>
            </Position>
            <AltitudeMeters>853.5999755859375</AltitudeMeters>
            <DistanceMeters>41340.664992258</DistanceMeters>
          </Trackpoint>
          <Trackpoint>
            <Time>2021-07-27T11:42:00.000Z</Time>
            <Position>
              <LatitudeDegrees>40.96319991163909435272216796875</LatitudeDegrees>
              <LongitudeDegrees>-3.0796931125223636627197265625</LongitudeDegrees>
            </Position>
            <AltitudeMeters>855.79998779296875</AltitudeMeters>
            <DistanceMeters>41369.195962116</DistanceMeters>
          </Trackpoint>
          <Trackpoint>
            <Time>2021-07-27T11:42:06.000Z</Time>
            <Position>
              <LatitudeDegrees>40.963134281337261199951171875</LatitudeDegrees>
              <LongitudeDegrees>-3.0795849859714508056640625</LongitudeDegrees>
            </Position>
            <AltitudeMeters>856.5999755859375</AltitudeMeters>
            <DistanceMeters>41380.856014901</DistanceMeters>
          </Trackpoint>
          <Trackpoint>
            <Time>2021-07-27T11:42:11.000Z</Time>
            <Position>
              <LatitudeDegrees>40.9630764462053775787353515625</LatitudeDegrees>
              <LongitudeDegrees>-3.07950259186327457427978515625</LongitudeDegrees>
            </Position>
            <AltitudeMeters>857</AltitudeMeters>
            <DistanceMeters>41390.3110536</DistanceMeters>
          </Trackpoint>
          <Trackpoint>
            <Time>2021-07-27T11:42:19.000Z</Time>
            <Position>
              <LatitudeDegrees>40.96297645010054111480712890625</LatitudeDegrees>
              <LongitudeDegrees>-3.07938088662922382354736328125</LongitudeDegrees>
            </Position>
            <AltitudeMeters>856.5999755859375</AltitudeMeters>
            <DistanceMeters>41405.427172623</DistanceMeters>
          </Trackpoint>
          <Trackpoint>
            <Time>2021-07-27T11:42:26.000Z</Time>
            <Position>
              <LatitudeDegrees>40.96288525499403476715087890625</LatitudeDegrees>
              <LongitudeDegrees>-3.07928399182856082916259765625</LongitudeDegrees>
            </Position>
            <AltitudeMeters>856.5999755859375</AltitudeMeters>
            <DistanceMeters>41418.44062926</DistanceMeters>
          </Trackpoint>
          <Trackpoint>
            <Time>2021-07-27T11:42:30.000Z</Time>
            <Position>
              <LatitudeDegrees>40.96283110789954662322998046875</LatitudeDegrees>
              <LongitudeDegrees>-3.07923168875277042388916015625</LongitudeDegrees>
            </Position>
            <AltitudeMeters>857</AltitudeMeters>
            <DistanceMeters>41425.90007502</DistanceMeters>
          </Trackpoint>
          <Trackpoint>
            <Time>2021-07-27T11:42:34.000Z</Time>
            <Position>
              <LatitudeDegrees>40.96277377568185329437255859375</LatitudeDegrees>
              <LongitudeDegrees>-3.07917720638215541839599609375</LongitudeDegrees>
            </Position>
            <AltitudeMeters>857.20001220703125</AltitudeMeters>
            <DistanceMeters>41433.754594882</DistanceMeters>
          </Trackpoint>
          <Trackpoint>
            <Time>2021-07-27T11:42:45.000Z</Time>
            <Position>
              <LatitudeDegrees>40.96262742765247821807861328125</LatitudeDegrees>
              <LongitudeDegrees>-3.079027421772480010986328125</LongitudeDegrees>
            </Position>
            <AltitudeMeters>856.4000244140625</AltitudeMeters>
            <DistanceMeters>41454.341425814</DistanceMeters>
          </Trackpoint>
          <Trackpoint>
            <Time>2021-07-27T11:42:53.000Z</Time>
            <Position>
              <LatitudeDegrees>40.96251904964447021484375</LatitudeDegrees>
              <LongitudeDegrees>-3.07893656194210052490234375</LongitudeDegrees>
            </Position>
            <AltitudeMeters>857.20001220703125</AltitudeMeters>
            <DistanceMeters>41468.618221165</DistanceMeters>
          </Trackpoint>
          <Trackpoint>
            <Time>2021-07-27T11:43:03.000Z</Time>
            <Position>
              <LatitudeDegrees>40.96239097416400909423828125</LatitudeDegrees>
              <LongitudeDegrees>-3.07880655862390995025634765625</LongitudeDegrees>
            </Position>
            <AltitudeMeters>859.4000244140625</AltitudeMeters>
            <DistanceMeters>41486.579024345</DistanceMeters>
          </Trackpoint>
          <Trackpoint>
            <Time>2021-07-27T11:43:09.000Z</Time>
            <Position>
              <LatitudeDegrees>40.96232199110090732574462890625</LatitudeDegrees>
              <LongitudeDegrees>-3.07872307486832141876220703125</LongitudeDegrees>
            </Position>
            <AltitudeMeters>860.4000244140625</AltitudeMeters>
            <DistanceMeters>41496.98000102</DistanceMeters>
          </Trackpoint>
          <Trackpoint>
            <Time>2021-07-27T11:43:18.000Z</Time>
            <Position>
              <LatitudeDegrees>40.96222425810992717742919921875</LatitudeDegrees>
              <LongitudeDegrees>-3.078593574464321136474609375</LongitudeDegrees>
            </Position>
            <AltitudeMeters>861.20001220703125</AltitudeMeters>
            <DistanceMeters>41512.367874964</DistanceMeters>
          </Trackpoint>
          <Trackpoint>
            <Time>2021-07-27T11:43:26.000Z</Time>
            <Position>
              <LatitudeDegrees>40.96214563585817813873291015625</LatitudeDegrees>
              <LongitudeDegrees>-3.07847865857183933258056640625</LongitudeDegrees>
            </Position>
            <AltitudeMeters>863.20001220703125</AltitudeMeters>
            <DistanceMeters>41525.401092832</DistanceMeters>
          </Trackpoint>
          <Trackpoint>
            <Time>2021-07-27T11:43:35.000Z</Time>
            <Position>
              <LatitudeDegrees>40.9620719589293003082275390625</LatitudeDegrees>
              <LongitudeDegrees>-3.0783442966639995574951171875</LongitudeDegrees>
            </Position>
            <AltitudeMeters>864.5999755859375</AltitudeMeters>
            <DistanceMeters>41539.357408567</DistanceMeters>
          </Trackpoint>
          <Trackpoint>
            <Time>2021-07-27T11:43:41.000Z</Time>
            <Position>
              <LatitudeDegrees>40.962027199566364288330078125</LatitudeDegrees>
              <LongitudeDegrees>-3.07825754396617412567138671875</LongitudeDegrees>
            </Position>
            <AltitudeMeters>865.4000244140625</AltitudeMeters>
            <DistanceMeters>41548.188248854</DistanceMeters>
          </Trackpoint>
          <Trackpoint>
            <Time>2021-07-27T11:44:01.000Z</Time>
            <Position>
              <LatitudeDegrees>40.961908511817455291748046875</LatitudeDegrees>
              <LongitudeDegrees>-3.077939115464687347412109375</LongitudeDegrees>
            </Position>
            <AltitudeMeters>869.4000244140625</AltitudeMeters>
            <DistanceMeters>41578.034504583</DistanceMeters>
          </Trackpoint>
          <Trackpoint>
            <Time>2021-07-27T11:44:06.000Z</Time>
            <Position>
              <LatitudeDegrees>40.96188697032630443572998046875</LatitudeDegrees>
              <LongitudeDegrees>-3.07785387150943279266357421875</LongitudeDegrees>
            </Position>
            <AltitudeMeters>871.20001220703125</AltitudeMeters>
            <DistanceMeters>41585.590174194</DistanceMeters>
          </Trackpoint>
          <Trackpoint>
            <Time>2021-07-27T11:44:19.000Z</Time>
            <Position>
              <LatitudeDegrees>40.9618417918682098388671875</LatitudeDegrees>
              <LongitudeDegrees>-3.07763191871345043182373046875</LongitudeDegrees>
            </Position>
            <AltitudeMeters>874</AltitudeMeters>
            <DistanceMeters>41604.911234212</DistanceMeters>
          </Trackpoint>
          <Trackpoint>
            <Time>2021-07-27T11:44:29.000Z</Time>
            <Position>
              <LatitudeDegrees>40.96181639470160007476806640625</LatitudeDegrees>
              <LongitudeDegrees>-3.07745304889976978302001953125</LongitudeDegrees>
            </Position>
            <AltitudeMeters>876.79998779296875</AltitudeMeters>
            <DistanceMeters>41620.208469288</DistanceMeters>
          </Trackpoint>
          <Trackpoint>
            <Time>2021-07-27T11:44:38.000Z</Time>
            <Position>
              <LatitudeDegrees>40.96180700697004795074462890625</LatitudeDegrees>
              <LongitudeDegrees>-3.07728826068341732025146484375</LongitudeDegrees>
            </Position>
            <AltitudeMeters>879.20001220703125</AltitudeMeters>
            <DistanceMeters>41634.097981632</DistanceMeters>
          </Trackpoint>
          <Trackpoint>
            <Time>2021-07-27T11:44:47.000Z</Time>
            <Position>
              <LatitudeDegrees>40.9618042409420013427734375</LatitudeDegrees>
              <LongitudeDegrees>-3.0771242268383502960205078125</LongitudeDegrees>
            </Position>
            <AltitudeMeters>880.79998779296875</AltitudeMeters>
            <DistanceMeters>41647.888319188</DistanceMeters>
          </Trackpoint>
          <Trackpoint>
            <Time>2021-07-27T11:44:54.000Z</Time>
            <Position>
              <LatitudeDegrees>40.96180901862680912017822265625</LatitudeDegrees>
              <LongitudeDegrees>-3.07699489407241344451904296875</LongitudeDegrees>
            </Position>
            <AltitudeMeters>881.4000244140625</AltitudeMeters>
            <DistanceMeters>41658.771678628</DistanceMeters>
          </Trackpoint>
          <Trackpoint>
            <Time>2021-07-27T11:45:05.000Z</Time>
            <Position>
              <LatitudeDegrees>40.96182494424283504486083984375</LatitudeDegrees>
              <LongitudeDegrees>-3.076789788901805877685546875</LongitudeDegrees>
            </Position>
            <AltitudeMeters>882.4000244140625</AltitudeMeters>
            <DistanceMeters>41676.101487697</DistanceMeters>
          </Trackpoint>
          <Trackpoint>
            <Time>2021-07-27T11:45:15.000Z</Time>
            <Position>
              <LatitudeDegrees>40.961857549846172332763671875</LatitudeDegrees>
              <LongitudeDegrees>-3.07659977115690708160400390625</LongitudeDegrees>
            </Position>
            <AltitudeMeters>882.5999755859375</AltitudeMeters>
            <DistanceMeters>41692.479749231</DistanceMeters>
          </Trackpoint>
          <Trackpoint>
            <Time>2021-07-27T11:45:24.000Z</Time>
            <Position>
              <LatitudeDegrees>40.96190272830426692962646484375</LatitudeDegrees>
              <LongitudeDegrees>-3.076423667371273040771484375</LongitudeDegrees>
            </Position>
            <AltitudeMeters>883.20001220703125</AltitudeMeters>
            <DistanceMeters>41708.112149197</DistanceMeters>
          </Trackpoint>
          <Trackpoint>
            <Time>2021-07-27T11:45:33.000Z</Time>
            <Position>
              <LatitudeDegrees>40.96195855177938938140869140625</LatitudeDegrees>
              <LongitudeDegrees>-3.07625108398497104644775390625</LongitudeDegrees>
            </Position>
            <AltitudeMeters>883.20001220703125</AltitudeMeters>
            <DistanceMeters>41723.892307245</DistanceMeters>
          </Trackpoint>
          <Trackpoint>
            <Time>2021-07-27T11:45:43.000Z</Time>
            <Position>
              <LatitudeDegrees>40.962034575641155242919921875</LatitudeDegrees>
              <LongitudeDegrees>-3.0760667659342288970947265625</LongitudeDegrees>
            </Position>
            <AltitudeMeters>883</AltitudeMeters>
            <DistanceMeters>41741.544270813</DistanceMeters>
          </Trackpoint>
          <Trackpoint>
            <Time>2021-07-27T11:45:55.000Z</Time>
            <Position>
              <LatitudeDegrees>40.96214664168655872344970703125</LatitudeDegrees>
              <LongitudeDegrees>-3.07585202157497406005859375</LongitudeDegrees>
            </Position>
            <AltitudeMeters>883.4000244140625</AltitudeMeters>
            <DistanceMeters>41763.484126211</DistanceMeters>
          </Trackpoint>
          <Trackpoint>
            <Time>2021-07-27T11:46:02.000Z</Time>
            <Position>
              <LatitudeDegrees>40.96221889369189739227294921875</LatitudeDegrees>
              <LongitudeDegrees>-3.07573576457798480987548828125</LongitudeDegrees>
            </Position>
            <AltitudeMeters>884</AltitudeMeters>
            <DistanceMeters>41776.138744959</DistanceMeters>
          </Trackpoint>
          <Trackpoint>
            <Time>2021-07-27T11:46:12.000Z</Time>
            <Position>
              <LatitudeDegrees>40.96233271993696689605712890625</LatitudeDegrees>
              <LongitudeDegrees>-3.075584135949611663818359375</LongitudeDegrees>
            </Position>
            <AltitudeMeters>885.20001220703125</AltitudeMeters>
            <DistanceMeters>41794.108595644</DistanceMeters>
          </Trackpoint>
          <Trackpoint>
            <Time>2021-07-27T11:46:23.000Z</Time>
            <Position>
              <LatitudeDegrees>40.96247370354831218719482421875</LatitudeDegrees>
              <LongitudeDegrees>-3.0754284001886844635009765625</LongitudeDegrees>
            </Position>
            <AltitudeMeters>886.5999755859375</AltitudeMeters>
            <DistanceMeters>41814.54265385</DistanceMeters>
          </Trackpoint>
          <Trackpoint>
            <Time>2021-07-27T11:46:31.000Z</Time>
            <Position>
              <LatitudeDegrees>40.96258266828954219818115234375</LatitudeDegrees>
              <LongitudeDegrees>-3.075327984988689422607421875</LongitudeDegrees>
            </Position>
            <AltitudeMeters>887.4000244140625</AltitudeMeters>
            <DistanceMeters>41829.318314857</DistanceMeters>
          </Trackpoint>
          <Trackpoint>
            <Time>2021-07-27T11:46:40.000Z</Time>
            <Position>
              <LatitudeDegrees>40.96271174959838390350341796875</LatitudeDegrees>
              <LongitudeDegrees>-3.0752210319042205810546875</LongitudeDegrees>
            </Position>
            <AltitudeMeters>889.20001220703125</AltitudeMeters>
            <DistanceMeters>41846.265870476</DistanceMeters>
          </Trackpoint>
          <Trackpoint>
            <Time>2021-07-27T11:46:54.000Z</Time>
            <Position>
              <LatitudeDegrees>40.96291576512157917022705078125</LatitudeDegrees>
              <LongitudeDegrees>-3.0750572495162487030029296875</LongitudeDegrees>
            </Position>
            <AltitudeMeters>892.4000244140625</AltitudeMeters>
            <DistanceMeters>41872.81967414</DistanceMeters>
          </Trackpoint>
          <Trackpoint>
            <Time>2021-07-27T11:47:09.000Z</Time>
            <Position>
              <LatitudeDegrees>40.96313838846981525421142578125</LatitudeDegrees>
              <LongitudeDegrees>-3.0748879350721836090087890625</LongitudeDegrees>
            </Position>
            <AltitudeMeters>894.20001220703125</AltitudeMeters>
            <DistanceMeters>41901.393813706</DistanceMeters>
          </Trackpoint>
          <Trackpoint>
            <Time>2021-07-27T11:47:19.000Z</Time>
            <Position>
              <LatitudeDegrees>40.9632846526801586151123046875</LatitudeDegrees>
              <LongitudeDegrees>-3.07476840913295745849609375</LongitudeDegrees>
            </Position>
            <AltitudeMeters>895.79998779296875</AltitudeMeters>
            <DistanceMeters>41920.52347256</DistanceMeters>
          </Trackpoint>
          <Trackpoint>
            <Time>2021-07-27T11:47:20.000Z</Time>
            <Position>
              <LatitudeDegrees>40.96329932101070880889892578125</LatitudeDegrees>
              <LongitudeDegrees>-3.0747561715543270111083984375</LongitudeDegrees>
            </Position>
            <AltitudeMeters>896</AltitudeMeters>
            <DistanceMeters>41922.454643597</DistanceMeters>
          </Trackpoint>
          <Trackpoint>
            <Time>2021-07-27T11:47:33.000Z</Time>
            <Position>
              <LatitudeDegrees>40.96349160186946392059326171875</LatitudeDegrees>
              <LongitudeDegrees>-3.07461041025817394256591796875</LongitudeDegrees>
            </Position>
            <AltitudeMeters>898.4000244140625</AltitudeMeters>
            <DistanceMeters>41947.114396391</DistanceMeters>
          </Trackpoint>
          <Trackpoint>
            <Time>2021-07-27T11:47:45.000Z</Time>
            <Position>
              <LatitudeDegrees>40.9636817872524261474609375</LatitudeDegrees>
              <LongitudeDegrees>-3.0744587816298007965087890625</LongitudeDegrees>
            </Position>
            <AltitudeMeters>898</AltitudeMeters>
            <DistanceMeters>41971.822438565</DistanceMeters>
          </Trackpoint>
          <Trackpoint>
            <Time>2021-07-27T11:47:53.000Z</Time>
            <Position>
              <LatitudeDegrees>40.963812209665775299072265625</LatitudeDegrees>
              <LongitudeDegrees>-3.07435912080109119415283203125</LongitudeDegrees>
            </Position>
            <AltitudeMeters>898.5999755859375</AltitudeMeters>
            <DistanceMeters>41988.582198643</DistanceMeters>
          </Trackpoint>
          <Trackpoint>
            <Time>2021-07-27T11:48:02.000Z</Time>
            <Position>
              <LatitudeDegrees>40.9639484994113445281982421875</LatitudeDegrees>
              <LongitudeDegrees>-3.07425484992563724517822265625</LongitudeDegrees>
            </Position>
            <AltitudeMeters>899.4000244140625</AltitudeMeters>
            <DistanceMeters>42006.101166597</DistanceMeters>
          </Trackpoint>
          <Trackpoint>
            <Time>2021-07-27T11:48:11.000Z</Time>
            <Position>
              <LatitudeDegrees>40.96408135257661342620849609375</LatitudeDegrees>
              <LongitudeDegrees>-3.0741503275930881500244140625</LongitudeDegrees>
            </Position>
            <AltitudeMeters>901</AltitudeMeters>
            <DistanceMeters>42023.300739391</DistanceMeters>
          </Trackpoint>
          <Trackpoint>
            <Time>2021-07-27T11:48:21.000Z</Time>
            <Position>
              <LatitudeDegrees>40.96422770060598850250244140625</LatitudeDegrees>
              <LongitudeDegrees>-3.0740393511950969696044921875</LongitudeDegrees>
            </Position>
            <AltitudeMeters>904.20001220703125</AltitudeMeters>
            <DistanceMeters>42042.070860929</DistanceMeters>
          </Trackpoint>
          <Trackpoint>
            <Time>2021-07-27T11:48:32.000Z</Time>
            <Position>
              <LatitudeDegrees>40.96438494510948657989501953125</LatitudeDegrees>
              <LongitudeDegrees>-3.0739163048565387725830078125</LongitudeDegrees>
            </Position>
            <AltitudeMeters>906.5999755859375</AltitudeMeters>
            <DistanceMeters>42062.399471762</DistanceMeters>
          </Trackpoint>
          <Trackpoint>
            <Time>2021-07-27T11:48:39.000Z</Time>
            <Position>
              <LatitudeDegrees>40.96448787488043308258056640625</LatitudeDegrees>
              <LongitudeDegrees>-3.07383810169994831085205078125</LongitudeDegrees>
            </Position>
            <AltitudeMeters>907.4000244140625</AltitudeMeters>
            <DistanceMeters>42075.607159551</DistanceMeters>
          </Trackpoint>
          <Trackpoint>
            <Time>2021-07-27T11:48:41.000Z</Time>
            <Position>
              <LatitudeDegrees>40.9645167924463748931884765625</LatitudeDegrees>
              <LongitudeDegrees>-3.07381697930395603179931640625</LongitudeDegrees>
            </Position>
            <AltitudeMeters>907.5999755859375</AltitudeMeters>
            <DistanceMeters>42079.282617939</DistanceMeters>
          </Trackpoint>
          <Trackpoint>
            <Time>2021-07-27T11:48:49.000Z</Time>
            <Position>
              <LatitudeDegrees>40.96462927758693695068359375</LatitudeDegrees>
              <LongitudeDegrees>-3.073728047311305999755859375</LongitudeDegrees>
            </Position>
            <AltitudeMeters>908.20001220703125</AltitudeMeters>
            <DistanceMeters>42093.863568518</DistanceMeters>
          </Trackpoint>
          <Trackpoint>
            <Time>2021-07-27T11:48:59.000Z</Time>
            <Position>
              <LatitudeDegrees>40.96477772109210491180419921875</LatitudeDegrees>
              <LongitudeDegrees>-3.0736283026635646820068359375</LongitudeDegrees>
            </Position>
            <AltitudeMeters>908.79998779296875</AltitudeMeters>
            <DistanceMeters>42112.390609992</DistanceMeters>
          </Trackpoint>
          <Trackpoint>
            <Time>2021-07-27T11:49:14.000Z</Time>
            <Position>
              <LatitudeDegrees>40.96499984152615070343017578125</LatitudeDegrees>
              <LongitudeDegrees>-3.0734935216605663299560546875</LongitudeDegrees>
            </Position>
            <AltitudeMeters>910.5999755859375</AltitudeMeters>
            <DistanceMeters>42139.584526229</DistanceMeters>
          </Trackpoint>
          <Trackpoint>
            <Time>2021-07-27T11:49:27.000Z</Time>
            <Position>
              <LatitudeDegrees>40.96520327031612396240234375</LatitudeDegrees>
              <LongitudeDegrees>-3.0733902566134929656982421875</LongitudeDegrees>
            </Position>
            <AltitudeMeters>911.5999755859375</AltitudeMeters>
            <DistanceMeters>42163.832543415</DistanceMeters>
          </Trackpoint>
          <Trackpoint>
            <Time>2021-07-27T11:49:36.000Z</Time>
            <Position>
              <LatitudeDegrees>40.96534886397421360015869140625</LatitudeDegrees>
              <LongitudeDegrees>-3.073334433138370513916015625</LongitudeDegrees>
            </Position>
            <AltitudeMeters>912.20001220703125</AltitudeMeters>
            <DistanceMeters>42180.702930173</DistanceMeters>
          </Trackpoint>
          <Trackpoint>
            <Time>2021-07-27T11:49:46.000Z</Time>
            <Position>
              <LatitudeDegrees>40.965511389076709747314453125</LatitudeDegrees>
              <LongitudeDegrees>-3.0732752569019794464111328125</LongitudeDegrees>
            </Position>
            <AltitudeMeters>913.4000244140625</AltitudeMeters>
            <DistanceMeters>42199.463427487</DistanceMeters>
          </Trackpoint>
          <Trackpoint>
            <Time>2021-07-27T11:49:59.000Z</Time>
            <Position>
              <LatitudeDegrees>40.96572521142661571502685546875</LatitudeDegrees>
              <LongitudeDegrees>-3.07320660911500453948974609375</LongitudeDegrees>
            </Position>
            <AltitudeMeters>915</AltitudeMeters>
            <DistanceMeters>42223.951573935</DistanceMeters>
          </Trackpoint>
          <Trackpoint>
            <Time>2021-07-27T11:50:09.000Z</Time>
            <Position>
              <LatitudeDegrees>40.9658900834619998931884765625</LatitudeDegrees>
              <LongitudeDegrees>-3.07314642705023288726806640625</LongitudeDegrees>
            </Position>
            <AltitudeMeters>914.5999755859375</AltitudeMeters>
            <DistanceMeters>42242.986352296</DistanceMeters>
          </Trackpoint>
          <Trackpoint>
            <Time>2021-07-27T11:50:17.000Z</Time>
            <Position>
              <LatitudeDegrees>40.966023020446300506591796875</LatitudeDegrees>
              <LongitudeDegrees>-3.0731049366295337677001953125</LongitudeDegrees>
            </Position>
            <AltitudeMeters>914.79998779296875</AltitudeMeters>
            <DistanceMeters>42258.18765672</DistanceMeters>
          </Trackpoint>
          <Trackpoint>
            <Time>2021-07-27T11:50:25.000Z</Time>
            <Position>
              <LatitudeDegrees>40.9661579690873622894287109375</LatitudeDegrees>
              <LongitudeDegrees>-3.0730586685240268707275390625</LongitudeDegrees>
            </Position>
            <AltitudeMeters>915.5999755859375</AltitudeMeters>
            <DistanceMeters>42273.702932349</DistanceMeters>
          </Trackpoint>
          <Trackpoint>
            <Time>2021-07-27T11:50:36.000Z</Time>
            <Position>
              <LatitudeDegrees>40.9663303010165691375732421875</LatitudeDegrees>
              <LongitudeDegrees>-3.0729993246495723724365234375</LongitudeDegrees>
            </Position>
            <AltitudeMeters>917.5999755859375</AltitudeMeters>
            <DistanceMeters>42293.521869383</DistanceMeters>
          </Trackpoint>
          <Trackpoint>
            <Time>2021-07-27T11:50:44.000Z</Time>
            <Position>
              <LatitudeDegrees>40.9664580412209033966064453125</LatitudeDegrees>
              <LongitudeDegrees>-3.07295397855341434478759765625</LongitudeDegrees>
            </Position>
            <AltitudeMeters>919</AltitudeMeters>
            <DistanceMeters>42308.241504372</DistanceMeters>
          </Trackpoint>
          <Trackpoint>
            <Time>2021-07-27T11:50:56.000Z</Time>
            <Position>
              <LatitudeDegrees>40.96665627323091030120849609375</LatitudeDegrees>
              <LongitudeDegrees>-3.07287636213004589080810546875</LongitudeDegrees>
            </Position>
            <AltitudeMeters>920.20001220703125</AltitudeMeters>
            <DistanceMeters>42331.24935393</DistanceMeters>
          </Trackpoint>
          <Trackpoint>
            <Time>2021-07-27T11:51:05.000Z</Time>
            <Position>
              <LatitudeDegrees>40.9668013639748096466064453125</LatitudeDegrees>
              <LongitudeDegrees>-3.072815425693988800048828125</LongitudeDegrees>
            </Position>
            <AltitudeMeters>920.79998779296875</AltitudeMeters>
            <DistanceMeters>42348.190780957</DistanceMeters>
          </Trackpoint>
          <Trackpoint>
            <Time>2021-07-27T11:51:13.000Z</Time>
            <Position>
              <LatitudeDegrees>40.96692935563623905181884765625</LatitudeDegrees>
              <LongitudeDegrees>-3.07275214232504367828369140625</LongitudeDegrees>
            </Position>
            <AltitudeMeters>922.5999755859375</AltitudeMeters>
            <DistanceMeters>42363.396836903</DistanceMeters>
          </Trackpoint>
          <Trackpoint>
            <Time>2021-07-27T11:51:22.000Z</Time>
            <Position>
              <LatitudeDegrees>40.96706648357212543487548828125</LatitudeDegrees>
              <LongitudeDegrees>-3.0726804770529270172119140625</LongitudeDegrees>
            </Position>
            <AltitudeMeters>924.5999755859375</AltitudeMeters>
            <DistanceMeters>42379.804844067</DistanceMeters>
          </Trackpoint>
          <Trackpoint>
            <Time>2021-07-27T11:51:32.000Z</Time>
            <Position>
              <LatitudeDegrees>40.9672268293797969818115234375</LatitudeDegrees>
              <LongitudeDegrees>-3.072600848972797393798828125</LongitudeDegrees>
            </Position>
            <AltitudeMeters>926.5999755859375</AltitudeMeters>
            <DistanceMeters>42398.864985866</DistanceMeters>
          </Trackpoint>
          <Trackpoint>
            <Time>2021-07-27T11:51:40.000Z</Time>
            <Position>
              <LatitudeDegrees>40.96735733561217784881591796875</LatitudeDegrees>
              <LongitudeDegrees>-3.072543181478977203369140625</LongitudeDegrees>
            </Position>
            <AltitudeMeters>928.5999755859375</AltitudeMeters>
            <DistanceMeters>42414.177561252</DistanceMeters>
          </Trackpoint>
          <Trackpoint>
            <Time>2021-07-27T11:51:53.000Z</Time>
            <Position>
              <LatitudeDegrees>40.9675822220742702484130859375</LatitudeDegrees>
              <LongitudeDegrees>-3.07246305048465728759765625</LongitudeDegrees>
            </Position>
            <AltitudeMeters>931.20001220703125</AltitudeMeters>
            <DistanceMeters>42440.098089945</DistanceMeters>
          </Trackpoint>
          <Trackpoint>
            <Time>2021-07-27T11:52:00.000Z</Time>
            <Position>
              <LatitudeDegrees>40.9677109681069850921630859375</LatitudeDegrees>
              <LongitudeDegrees>-3.07243061251938343048095703125</LongitudeDegrees>
            </Position>
            <AltitudeMeters>931</AltitudeMeters>
            <DistanceMeters>42454.684613217</DistanceMeters>
          </Trackpoint>
          <Trackpoint>
            <Time>2021-07-27T11:52:12.000Z</Time>
            <Position>
              <LatitudeDegrees>40.96793836914002895355224609375</LatitudeDegrees>
              <LongitudeDegrees>-3.07238954119384288787841796875</LongitudeDegrees>
            </Position>
            <AltitudeMeters>930.4000244140625</AltitudeMeters>
            <DistanceMeters>42480.228953566</DistanceMeters>
          </Trackpoint>
          <Trackpoint>
            <Time>2021-07-27T11:52:26.000Z</Time>
            <Position>
              <LatitudeDegrees>40.9682081826031208038330078125</LatitudeDegrees>
              <LongitudeDegrees>-3.07235316373407840728759765625</LongitudeDegrees>
            </Position>
            <AltitudeMeters>931.4000244140625</AltitudeMeters>
            <DistanceMeters>42510.414859112</DistanceMeters>
          </Trackpoint>
          <Trackpoint>
            <Time>2021-07-27T11:52:35.000Z</Time>
            <Position>
              <LatitudeDegrees>40.9683758206665515899658203125</LatitudeDegrees>
              <LongitudeDegrees>-3.072339333593845367431640625</LongitudeDegrees>
            </Position>
            <AltitudeMeters>934</AltitudeMeters>
            <DistanceMeters>42529.109297283</DistanceMeters>
          </Trackpoint>
          <Trackpoint>
            <Time>2021-07-27T11:52:43.000Z</Time>
            <Position>
              <LatitudeDegrees>40.96851973794400691986083984375</LatitudeDegrees>
              <LongitudeDegrees>-3.07231812737882137298583984375</LongitudeDegrees>
            </Position>
            <AltitudeMeters>935.79998779296875</AltitudeMeters>
            <DistanceMeters>42545.226343508</DistanceMeters>
          </Trackpoint>
          <Trackpoint>
            <Time>2021-07-27T11:52:54.000Z</Time>
            <Position>
              <LatitudeDegrees>40.968722663819789886474609375</LatitudeDegrees>
              <LongitudeDegrees>-3.07229499332606792449951171875</LongitudeDegrees>
            </Position>
            <AltitudeMeters>939.20001220703125</AltitudeMeters>
            <DistanceMeters>42567.895742494</DistanceMeters>
          </Trackpoint>
          <Trackpoint>
            <Time>2021-07-27T11:53:01.000Z</Time>
            <Position>
              <LatitudeDegrees>40.9688532538712024688720703125</LatitudeDegrees>
              <LongitudeDegrees>-3.0722804926335811614990234375</LongitudeDegrees>
            </Position>
            <AltitudeMeters>939.79998779296875</AltitudeMeters>
            <DistanceMeters>42582.481646684</DistanceMeters>
          </Trackpoint>
          <Trackpoint>
            <Time>2021-07-27T11:53:12.000Z</Time>
            <Position>
              <LatitudeDegrees>40.96906137652695178985595703125</LatitudeDegrees>
              <LongitudeDegrees>-3.07226213626563549041748046875</LongitudeDegrees>
            </Position>
            <AltitudeMeters>940.79998779296875</AltitudeMeters>
            <DistanceMeters>42605.697355646</DistanceMeters>
          </Trackpoint>
          <Trackpoint>
            <Time>2021-07-27T11:53:22.000Z</Time>
            <Position>
              <LatitudeDegrees>40.96924946643412113189697265625</LatitudeDegrees>
              <LongitudeDegrees>-3.0722372420132160186767578125</LongitudeDegrees>
            </Position>
            <AltitudeMeters>939.79998779296875</AltitudeMeters>
            <DistanceMeters>42626.736493395</DistanceMeters>
          </Trackpoint>
          <Trackpoint>
            <Time>2021-07-27T11:53:32.000Z</Time>
            <Position>
              <LatitudeDegrees>40.96943470649421215057373046875</LatitudeDegrees>
              <LongitudeDegrees>-3.072220645844936370849609375</LongitudeDegrees>
            </Position>
            <AltitudeMeters>939</AltitudeMeters>
            <DistanceMeters>42647.401472106</DistanceMeters>
          </Trackpoint>
          <Trackpoint>
            <Time>2021-07-27T11:53:39.000Z</Time>
            <Position>
              <LatitudeDegrees>40.96956697292625904083251953125</LatitudeDegrees>
              <LongitudeDegrees>-3.07220497168600559234619140625</LongitudeDegrees>
            </Position>
            <AltitudeMeters>938.4000244140625</AltitudeMeters>
            <DistanceMeters>42662.182021466</DistanceMeters>
          </Trackpoint>
          <Trackpoint>
            <Time>2021-07-27T11:53:52.000Z</Time>
            <Position>
              <LatitudeDegrees>40.969811975955963134765625</LatitudeDegrees>
              <LongitudeDegrees>-3.07217999361455440521240234375</LongitudeDegrees>
            </Position>
            <AltitudeMeters>939.79998779296875</AltitudeMeters>
            <DistanceMeters>42689.532056976</DistanceMeters>
          </Trackpoint>
          <Trackpoint>
            <Time>2021-07-27T11:53:59.000Z</Time>
            <Position>
              <LatitudeDegrees>40.969941057264804840087890625</LatitudeDegrees>
              <LongitudeDegrees>-3.07216222397983074188232421875</LongitudeDegrees>
            </Position>
            <AltitudeMeters>941.79998779296875</AltitudeMeters>
            <DistanceMeters>42703.976742723</DistanceMeters>
          </Trackpoint>
          <Trackpoint>
            <Time>2021-07-27T11:54:08.000Z</Time>
            <Position>
              <LatitudeDegrees>40.97010978497564792633056640625</LatitudeDegrees>
              <LongitudeDegrees>-3.0721490643918514251708984375</LongitudeDegrees>
            </Position>
            <AltitudeMeters>945.4000244140625</AltitudeMeters>
            <DistanceMeters>42722.78915235</DistanceMeters>
          </Trackpoint>
          <Trackpoint>
            <Time>2021-07-27T11:54:16.000Z</Time>
            <Position>
              <LatitudeDegrees>40.97025747410953044891357421875</LatitudeDegrees>
              <LongitudeDegrees>-3.07213447988033294677734375</LongitudeDegrees>
            </Position>
            <AltitudeMeters>947</AltitudeMeters>
            <DistanceMeters>42739.272384438</DistanceMeters>
          </Trackpoint>
          <Trackpoint>
            <Time>2021-07-27T11:54:25.000Z</Time>
            <Position>
              <LatitudeDegrees>40.970425866544246673583984375</LatitudeDegrees>
              <LongitudeDegrees>-3.07212903164327144622802734375</LongitudeDegrees>
            </Position>
            <AltitudeMeters>949</AltitudeMeters>
            <DistanceMeters>42758.020122046</DistanceMeters>
          </Trackpoint>
          <Trackpoint>
            <Time>2021-07-27T11:54:33.000Z</Time>
            <Position>
              <LatitudeDegrees>40.97057565115392208099365234375</LatitudeDegrees>
              <LongitudeDegrees>-3.07212869636714458465576171875</LongitudeDegrees>
            </Position>
            <AltitudeMeters>949.5999755859375</AltitudeMeters>
            <DistanceMeters>42774.691285556</DistanceMeters>
          </Trackpoint>
          <Trackpoint>
            <Time>2021-07-27T11:54:35.000Z</Time>
            <Position>
              <LatitudeDegrees>40.97061269916594028472900390625</LatitudeDegrees>
              <LongitudeDegrees>-3.07213054038584232330322265625</LongitudeDegrees>
            </Position>
            <AltitudeMeters>949.79998779296875</AltitudeMeters>
            <DistanceMeters>42778.817021139</DistanceMeters>
          </Trackpoint>
          <Trackpoint>
            <Time>2021-07-27T11:54:46.000Z</Time>
            <Position>
              <LatitudeDegrees>40.97081369720399379730224609375</LatitudeDegrees>
              <LongitudeDegrees>-3.07214428670704364776611328125</LongitudeDegrees>
            </Position>
            <AltitudeMeters>951</AltitudeMeters>
            <DistanceMeters>42801.218347174</DistanceMeters>
          </Trackpoint>
          <Trackpoint>
            <Time>2021-07-27T11:54:55.000Z</Time>
            <Position>
              <LatitudeDegrees>40.970977060496807098388671875</LatitudeDegrees>
              <LongitudeDegrees>-3.07216792367398738861083984375</LongitudeDegrees>
            </Position>
            <AltitudeMeters>952.79998779296875</AltitudeMeters>
            <DistanceMeters>42819.50895329</DistanceMeters>
          </Trackpoint>
          <Trackpoint>
            <Time>2021-07-27T11:55:07.000Z</Time>
            <Position>
              <LatitudeDegrees>40.97120278514921665191650390625</LatitudeDegrees>
              <LongitudeDegrees>-3.07220966555178165435791015625</LongitudeDegrees>
            </Position>
            <AltitudeMeters>955.5999755859375</AltitudeMeters>
            <DistanceMeters>42844.876280851</DistanceMeters>
          </Trackpoint>
          <Trackpoint>
            <Time>2021-07-27T11:55:20.000Z</Time>
            <Position>
              <LatitudeDegrees>40.9714543260633945465087890625</LatitudeDegrees>
              <LongitudeDegrees>-3.0722580291330814361572265625</LongitudeDegrees>
            </Position>
            <AltitudeMeters>957.79998779296875</AltitudeMeters>
            <DistanceMeters>42873.166804624</DistanceMeters>
          </Trackpoint>
          <Trackpoint>
            <Time>2021-07-27T11:55:29.000Z</Time>
            <Position>
              <LatitudeDegrees>40.97162758000195026397705078125</LatitudeDegrees>
              <LongitudeDegrees>-3.0722902156412601470947265625</LongitudeDegrees>
            </Position>
            <AltitudeMeters>959.4000244140625</AltitudeMeters>
            <DistanceMeters>42892.639167344</DistanceMeters>
          </Trackpoint>
          <Trackpoint>
            <Time>2021-07-27T11:55:41.000Z</Time>
            <Position>
              <LatitudeDegrees>40.97186512313783168792724609375</LatitudeDegrees>
              <LongitudeDegrees>-3.07232483290135860443115234375</LongitudeDegrees>
            </Position>
            <AltitudeMeters>960.79998779296875</AltitudeMeters>
            <DistanceMeters>42919.237652247</DistanceMeters>
          </Trackpoint>
          <Trackpoint>
            <Time>2021-07-27T11:55:49.000Z</Time>
            <Position>
              <LatitudeDegrees>40.97201415337622165679931640625</LatitudeDegrees>
              <LongitudeDegrees>-3.072339333593845367431640625</LongitudeDegrees>
            </Position>
            <AltitudeMeters>962.20001220703125</AltitudeMeters>
            <DistanceMeters>42935.869227688</DistanceMeters>
          </Trackpoint>
          <Trackpoint>
            <Time>2021-07-27T11:55:58.000Z</Time>
            <Position>
              <LatitudeDegrees>40.97218698821961879730224609375</LatitudeDegrees>
              <LongitudeDegrees>-3.07234008796513080596923828125</LongitudeDegrees>
            </Position>
            <AltitudeMeters>963.5999755859375</AltitudeMeters>
            <DistanceMeters>42955.106446635</DistanceMeters>
          </Trackpoint>
          <Trackpoint>
            <Time>2021-07-27T11:56:10.000Z</Time>
            <Position>
              <LatitudeDegrees>40.97241145558655261993408203125</LatitudeDegrees>
              <LongitudeDegrees>-3.0723110027611255645751953125</LongitudeDegrees>
            </Position>
            <AltitudeMeters>964.20001220703125</AltitudeMeters>
            <DistanceMeters>42980.209332018</DistanceMeters>
          </Trackpoint>
          <Trackpoint>
            <Time>2021-07-27T11:56:22.000Z</Time>
            <Position>
              <LatitudeDegrees>40.97264447249472141265869140625</LatitudeDegrees>
              <LongitudeDegrees>-3.072252832353115081787109375</LongitudeDegrees>
            </Position>
            <AltitudeMeters>960.5999755859375</AltitudeMeters>
            <DistanceMeters>43006.601109458</DistanceMeters>
          </Trackpoint>
          <Trackpoint>
            <Time>2021-07-27T11:56:35.000Z</Time>
            <Position>
              <LatitudeDegrees>40.97290456295013427734375</LatitudeDegrees>
              <LongitudeDegrees>-3.07214713655412197113037109375</LongitudeDegrees>
            </Position>
            <AltitudeMeters>955.79998779296875</AltitudeMeters>
            <DistanceMeters>43036.881696673</DistanceMeters>
          </Trackpoint>
          <Trackpoint>
            <Time>2021-07-27T11:56:43.000Z</Time>
            <Position>
              <LatitudeDegrees>40.9730522520840167999267578125</LatitudeDegrees>
              <LongitudeDegrees>-3.07208142243325710296630859375</LongitudeDegrees>
            </Position>
            <AltitudeMeters>957.20001220703125</AltitudeMeters>
            <DistanceMeters>43054.2224448</DistanceMeters>
          </Trackpoint>
          <Trackpoint>
            <Time>2021-07-27T11:56:51.000Z</Time>
            <Position>
              <LatitudeDegrees>40.97319432534277439117431640625</LatitudeDegrees>
              <LongitudeDegrees>-3.07201319374144077301025390625</LongitudeDegrees>
            </Position>
            <AltitudeMeters>958.20001220703125</AltitudeMeters>
            <DistanceMeters>43071.042710109</DistanceMeters>
          </Trackpoint>
          <Trackpoint>
            <Time>2021-07-27T11:57:00.000Z</Time>
            <Position>
              <LatitudeDegrees>40.973366238176822662353515625</LatitudeDegrees>
              <LongitudeDegrees>-3.07194010354578495025634765625</LongitudeDegrees>
            </Position>
            <AltitudeMeters>960.20001220703125</AltitudeMeters>
            <DistanceMeters>43091.138782083</DistanceMeters>
          </Trackpoint>
          <Trackpoint>
            <Time>2021-07-27T11:57:07.000Z</Time>
            <Position>
              <LatitudeDegrees>40.97349992953240871429443359375</LatitudeDegrees>
              <LongitudeDegrees>-3.07189886458218097686767578125</LongitudeDegrees>
            </Position>
            <AltitudeMeters>961.4000244140625</AltitudeMeters>
            <DistanceMeters>43106.417115634</DistanceMeters>
          </Trackpoint>
          <Trackpoint>
            <Time>2021-07-27T11:57:13.000Z</Time>
            <Position>
              <LatitudeDegrees>40.9736192040145397186279296875</LatitudeDegrees>
              <LongitudeDegrees>-3.07188101112842559814453125</LongitudeDegrees>
            </Position>
            <AltitudeMeters>962</AltitudeMeters>
            <DistanceMeters>43119.777074129</DistanceMeters>
          </Trackpoint>
          <Trackpoint>
            <Time>2021-07-27T11:57:24.000Z</Time>
            <Position>
              <LatitudeDegrees>40.97385205328464508056640625</LatitudeDegrees>
              <LongitudeDegrees>-3.0718714557588100433349609375</LongitudeDegrees>
            </Position>
            <AltitudeMeters>963.4000244140625</AltitudeMeters>
            <DistanceMeters>43145.705962485</DistanceMeters>
          </Trackpoint>
          <Trackpoint>
            <Time>2021-07-27T11:57:47.000Z</Time>
            <Position>
              <LatitudeDegrees>40.97434113733470439910888671875</LatitudeDegrees>
              <LongitudeDegrees>-3.07202224619686603546142578125</LongitudeDegrees>
            </Position>
            <AltitudeMeters>966.5999755859375</AltitudeMeters>
            <DistanceMeters>43201.597344512</DistanceMeters>
          </Trackpoint>
          <Trackpoint>
            <Time>2021-07-27T11:57:54.000Z</Time>
            <Position>
              <LatitudeDegrees>40.97448664717376232147216796875</LatitudeDegrees>
              <LongitudeDegrees>-3.07212752290070056915283203125</LongitudeDegrees>
            </Position>
            <AltitudeMeters>969</AltitudeMeters>
            <DistanceMeters>43220.051620521</DistanceMeters>
          </Trackpoint>
          <Trackpoint>
            <Time>2021-07-27T11:58:03.000Z</Time>
            <Position>
              <LatitudeDegrees>40.9746354259550571441650390625</LatitudeDegrees>
              <LongitudeDegrees>-3.0722754634916782379150390625</LongitudeDegrees>
            </Position>
            <AltitudeMeters>971.20001220703125</AltitudeMeters>
            <DistanceMeters>43240.758288281</DistanceMeters>
          </Trackpoint>
          <Trackpoint>
            <Time>2021-07-27T11:58:20.000Z</Time>
            <Position>
              <LatitudeDegrees>40.97487623803317546844482421875</LatitudeDegrees>
              <LongitudeDegrees>-3.07260998524725437164306640625</LongitudeDegrees>
            </Position>
            <AltitudeMeters>973.79998779296875</AltitudeMeters>
            <DistanceMeters>43279.598997479</DistanceMeters>
          </Trackpoint>
          <Trackpoint>
            <Time>2021-07-27T11:58:36.000Z</Time>
            <Position>
              <LatitudeDegrees>40.9750920720398426055908203125</LatitudeDegrees>
              <LongitudeDegrees>-3.0730626918375492095947265625</LongitudeDegrees>
            </Position>
            <AltitudeMeters>974.20001220703125</AltitudeMeters>
            <DistanceMeters>43324.591111195</DistanceMeters>
          </Trackpoint>
          <Trackpoint>
            <Time>2021-07-27T11:58:53.000Z</Time>
            <Position>
              <LatitudeDegrees>40.97537831403315067291259765625</LatitudeDegrees>
              <LongitudeDegrees>-3.07353417389094829559326171875</LongitudeDegrees>
            </Position>
            <AltitudeMeters>973.20001220703125</AltitudeMeters>
            <DistanceMeters>43375.431380284</DistanceMeters>
          </Trackpoint>
          <Trackpoint>
            <Time>2021-07-27T11:59:06.000Z</Time>
            <Position>
              <LatitudeDegrees>40.97567939199507236480712890625</LatitudeDegrees>
              <LongitudeDegrees>-3.07382586412131786346435546875</LongitudeDegrees>
            </Position>
            <AltitudeMeters>971.79998779296875</AltitudeMeters>
            <DistanceMeters>43416.949464204</DistanceMeters>
          </Trackpoint>
          <Trackpoint>
            <Time>2021-07-27T11:59:24.000Z</Time>
            <Position>
              <LatitudeDegrees>40.9761998243629932403564453125</LatitudeDegrees>
              <LongitudeDegrees>-3.0740242637693881988525390625</LongitudeDegrees>
            </Position>
            <AltitudeMeters>970.79998779296875</AltitudeMeters>
            <DistanceMeters>43477.226070922</DistanceMeters>
          </Trackpoint>
          <Trackpoint>
            <Time>2021-07-27T11:59:25.000Z</Time>
            <Position>
              <LatitudeDegrees>40.97623025067150592803955078125</LatitudeDegrees>
              <LongitudeDegrees>-3.0740272812545299530029296875</LongitudeDegrees>
            </Position>
            <AltitudeMeters>971</AltitudeMeters>
            <DistanceMeters>43480.620533698</DistanceMeters>
          </Trackpoint>
          <Trackpoint>
            <Time>2021-07-27T11:59:33.000Z</Time>
            <Position>
              <LatitudeDegrees>40.9765000641345977783203125</LatitudeDegrees>
              <LongitudeDegrees>-3.07401294820010662078857421875</LongitudeDegrees>
            </Position>
            <AltitudeMeters>973.20001220703125</AltitudeMeters>
            <DistanceMeters>43510.675426925</DistanceMeters>
          </Trackpoint>
          <Trackpoint>
            <Time>2021-07-27T11:59:47.000Z</Time>
            <Position>
              <LatitudeDegrees>40.9770230948925018310546875</LatitudeDegrees>
              <LongitudeDegrees>-3.07380574755370616912841796875</LongitudeDegrees>
            </Position>
            <AltitudeMeters>976.5999755859375</AltitudeMeters>
            <DistanceMeters>43571.437784887</DistanceMeters>
          </Trackpoint>
          <Trackpoint>
            <Time>2021-07-27T12:00:00.000Z</Time>
            <Position>
              <LatitudeDegrees>40.9775462932884693145751953125</LatitudeDegrees>
              <LongitudeDegrees>-3.07349503040313720703125</LongitudeDegrees>
            </Position>
            <AltitudeMeters>973.20001220703125</AltitudeMeters>
            <DistanceMeters>43635.256200945</DistanceMeters>
          </Trackpoint>
          <Trackpoint>
            <Time>2021-07-27T12:00:13.000Z</Time>
            <Position>
              <LatitudeDegrees>40.9780767001211643218994140625</LatitudeDegrees>
              <LongitudeDegrees>-3.07336955331265926361083984375</LongitudeDegrees>
            </Position>
            <AltitudeMeters>972</AltitudeMeters>
            <DistanceMeters>43695.225662379</DistanceMeters>
          </Trackpoint>
          <Trackpoint>
            <Time>2021-07-27T12:00:22.000Z</Time>
            <Position>
              <LatitudeDegrees>40.978420861065387725830078125</LatitudeDegrees>
              <LongitudeDegrees>-3.073433339595794677734375</LongitudeDegrees>
            </Position>
            <AltitudeMeters>974.5999755859375</AltitudeMeters>
            <DistanceMeters>43733.904686991</DistanceMeters>
          </Trackpoint>
          <Trackpoint>
            <Time>2021-07-27T12:00:28.000Z</Time>
            <Position>
              <LatitudeDegrees>40.97863870672881603240966796875</LatitudeDegrees>
              <LongitudeDegrees>-3.07350768707692623138427734375</LongitudeDegrees>
            </Position>
            <AltitudeMeters>976.20001220703125</AltitudeMeters>
            <DistanceMeters>43758.943279549</DistanceMeters>
          </Trackpoint>
          <Trackpoint>
            <Time>2021-07-27T12:00:33.000Z</Time>
            <Position>
              <LatitudeDegrees>40.978805087506771087646484375</LatitudeDegrees>
              <LongitudeDegrees>-3.073579184710979461669921875</LongitudeDegrees>
            </Position>
            <AltitudeMeters>976.79998779296875</AltitudeMeters>
            <DistanceMeters>43778.411932011</DistanceMeters>
          </Trackpoint>
          <Trackpoint>
            <Time>2021-07-27T12:00:41.000Z</Time>
            <Position>
              <LatitudeDegrees>40.9790614061057567596435546875</LatitudeDegrees>
              <LongitudeDegrees>-3.07367783971130847930908203125</LongitudeDegrees>
            </Position>
            <AltitudeMeters>977.20001220703125</AltitudeMeters>
            <DistanceMeters>43808.120511102</DistanceMeters>
          </Trackpoint>
          <Trackpoint>
            <Time>2021-07-27T12:00:49.000Z</Time>
            <Position>
              <LatitudeDegrees>40.97931479103863239288330078125</LatitudeDegrees>
              <LongitudeDegrees>-3.07373131625354290008544921875</LongitudeDegrees>
            </Position>
            <AltitudeMeters>977.5999755859375</AltitudeMeters>
            <DistanceMeters>43836.678528962</DistanceMeters>
          </Trackpoint>
          <Trackpoint>
            <Time>2021-07-27T12:01:07.000Z</Time>
            <Position>
              <LatitudeDegrees>40.9798543341457843780517578125</LatitudeDegrees>
              <LongitudeDegrees>-3.07369150221347808837890625</LongitudeDegrees>
            </Position>
            <AltitudeMeters>978.20001220703125</AltitudeMeters>
            <DistanceMeters>43896.823908532</DistanceMeters>
          </Trackpoint>
          <Trackpoint>
            <Time>2021-07-27T12:01:16.000Z</Time>
            <Position>
              <LatitudeDegrees>40.98010218702256679534912109375</LatitudeDegrees>
              <LongitudeDegrees>-3.07357792742550373077392578125</LongitudeDegrees>
            </Position>
            <AltitudeMeters>978.5999755859375</AltitudeMeters>
            <DistanceMeters>43926.014593235</DistanceMeters>
          </Trackpoint>
          <Trackpoint>
            <Time>2021-07-27T12:01:22.000Z</Time>
            <Position>
              <LatitudeDegrees>40.9802578389644622802734375</LatitudeDegrees>
              <LongitudeDegrees>-3.07347734458744525909423828125</LongitudeDegrees>
            </Position>
            <AltitudeMeters>978.4000244140625</AltitudeMeters>
            <DistanceMeters>43945.290733552</DistanceMeters>
          </Trackpoint>
          <Trackpoint>
            <Time>2021-07-27T12:01:30.000Z</Time>
            <Position>
              <LatitudeDegrees>40.980454646050930023193359375</LatitudeDegrees>
              <LongitudeDegrees>-3.0733154900372028350830078125</LongitudeDegrees>
            </Position>
            <AltitudeMeters>978.79998779296875</AltitudeMeters>
            <DistanceMeters>43971.074337408</DistanceMeters>
          </Trackpoint>
          <Trackpoint>
            <Time>2021-07-27T12:01:46.000Z</Time>
            <Position>
              <LatitudeDegrees>40.980826802551746368408203125</LatitudeDegrees>
              <LongitudeDegrees>-3.072939477860927581787109375</LongitudeDegrees>
            </Position>
            <AltitudeMeters>980.5999755859375</AltitudeMeters>
            <DistanceMeters>44023.170301505</DistanceMeters>
          </Trackpoint>
          <Trackpoint>
            <Time>2021-07-27T12:01:53.000Z</Time>
            <Position>
              <LatitudeDegrees>40.9809929318726062774658203125</LatitudeDegrees>
              <LongitudeDegrees>-3.0727683193981647491455078125</LongitudeDegrees>
            </Position>
            <AltitudeMeters>981.79998779296875</AltitudeMeters>
            <DistanceMeters>44046.595109406</DistanceMeters>
          </Trackpoint>
          <Trackpoint>
            <Time>2021-07-27T12:02:05.000Z</Time>
            <Position>
              <LatitudeDegrees>40.9812691994011402130126953125</LatitudeDegrees>
              <LongitudeDegrees>-3.0724816583096981048583984375</LongitudeDegrees>
            </Position>
            <AltitudeMeters>983.79998779296875</AltitudeMeters>
            <DistanceMeters>44085.654903767</DistanceMeters>
          </Trackpoint>
          <Trackpoint>
            <Time>2021-07-27T12:02:10.000Z</Time>
            <Position>
              <LatitudeDegrees>40.98138394765555858612060546875</LatitudeDegrees>
              <LongitudeDegrees>-3.07236255146563053131103515625</LongitudeDegrees>
            </Position>
            <AltitudeMeters>985</AltitudeMeters>
            <DistanceMeters>44101.880836985</DistanceMeters>
          </Trackpoint>
          <Trackpoint>
            <Time>2021-07-27T12:02:17.000Z</Time>
            <Position>
              <LatitudeDegrees>40.981549657881259918212890625</LatitudeDegrees>
              <LongitudeDegrees>-3.07218535803258419036865234375</LongitudeDegrees>
            </Position>
            <AltitudeMeters>986</AltitudeMeters>
            <DistanceMeters>44125.584050402</DistanceMeters>
          </Trackpoint>
          <Trackpoint>
            <Time>2021-07-27T12:02:30.000Z</Time>
            <Position>
              <LatitudeDegrees>40.9818596206605434417724609375</LatitudeDegrees>
              <LongitudeDegrees>-3.07187707163393497467041015625</LongitudeDegrees>
            </Position>
            <AltitudeMeters>987.79998779296875</AltitudeMeters>
            <DistanceMeters>44168.725655448</DistanceMeters>
          </Trackpoint>
          <Trackpoint>
            <Time>2021-07-27T12:02:48.000Z</Time>
            <Position>
              <LatitudeDegrees>40.98237200640141963958740234375</LatitudeDegrees>
              <LongitudeDegrees>-3.07158194482326507568359375</LongitudeDegrees>
            </Position>
            <AltitudeMeters>986.5999755859375</AltitudeMeters>
            <DistanceMeters>44230.913216733</DistanceMeters>
          </Trackpoint>
          <Trackpoint>
            <Time>2021-07-27T12:02:51.000Z</Time>
            <Position>
              <LatitudeDegrees>40.98247610963881015777587890625</LatitudeDegrees>
              <LongitudeDegrees>-3.07156694121658802032470703125</LongitudeDegrees>
            </Position>
            <AltitudeMeters>986</AltitudeMeters>
            <DistanceMeters>44242.568621917</DistanceMeters>
          </Trackpoint>
          <Trackpoint>
            <Time>2021-07-27T12:03:07.000Z</Time>
            <Position>
              <LatitudeDegrees>40.98303216509521007537841796875</LatitudeDegrees>
              <LongitudeDegrees>-3.0716605670750141143798828125</LongitudeDegrees>
            </Position>
            <AltitudeMeters>987</AltitudeMeters>
            <DistanceMeters>44304.956681432</DistanceMeters>
          </Trackpoint>
          <Trackpoint>
            <Time>2021-07-27T12:03:22.000Z</Time>
            <Position>
              <LatitudeDegrees>40.9835601411759853363037109375</LatitudeDegrees>
              <LongitudeDegrees>-3.0719460546970367431640625</LongitudeDegrees>
            </Position>
            <AltitudeMeters>990.5999755859375</AltitudeMeters>
            <DistanceMeters>44368.428622751</DistanceMeters>
          </Trackpoint>
          <Trackpoint>
            <Time>2021-07-27T12:03:38.000Z</Time>
            <Position>
              <LatitudeDegrees>40.98407185636460781097412109375</LatitudeDegrees>
              <LongitudeDegrees>-3.07223514653742313385009765625</LongitudeDegrees>
            </Position>
            <AltitudeMeters>986.4000244140625</AltitudeMeters>
            <DistanceMeters>44430.346822301</DistanceMeters>
          </Trackpoint>
          <Trackpoint>
            <Time>2021-07-27T12:03:52.000Z</Time>
            <Position>
              <LatitudeDegrees>40.98460905253887176513671875</LatitudeDegrees>
              <LongitudeDegrees>-3.072532452642917633056640625</LongitudeDegrees>
            </Position>
            <AltitudeMeters>984.5999755859375</AltitudeMeters>
            <DistanceMeters>44495.146123425</DistanceMeters>
          </Trackpoint>
          <Trackpoint>
            <Time>2021-07-27T12:03:59.000Z</Time>
            <Position>
              <LatitudeDegrees>40.984884314239025115966796875</LatitudeDegrees>
              <LongitudeDegrees>-3.0726824887096881866455078125</LongitudeDegrees>
            </Position>
            <AltitudeMeters>985</AltitudeMeters>
            <DistanceMeters>44528.275439918</DistanceMeters>
          </Trackpoint>
          <Trackpoint>
            <Time>2021-07-27T12:04:09.000Z</Time>
            <Position>
              <LatitudeDegrees>40.98526074551045894622802734375</LatitudeDegrees>
              <LongitudeDegrees>-3.07288256473839282989501953125</LongitudeDegrees>
            </Position>
            <AltitudeMeters>986</AltitudeMeters>
            <DistanceMeters>44573.419630604</DistanceMeters>
          </Trackpoint>
          <Trackpoint>
            <Time>2021-07-27T12:04:23.000Z</Time>
            <Position>
              <LatitudeDegrees>40.98577983677387237548828125</LatitudeDegrees>
              <LongitudeDegrees>-3.07307685725390911102294921875</LongitudeDegrees>
            </Position>
            <AltitudeMeters>984.20001220703125</AltitudeMeters>
            <DistanceMeters>44633.457490694</DistanceMeters>
          </Trackpoint>
          <Trackpoint>
            <Time>2021-07-27T12:04:38.000Z</Time>
            <Position>
              <LatitudeDegrees>40.98633362911641597747802734375</LatitudeDegrees>
              <LongitudeDegrees>-3.073089011013507843017578125</LongitudeDegrees>
            </Position>
            <AltitudeMeters>984.5999755859375</AltitudeMeters>
            <DistanceMeters>44695.104199459</DistanceMeters>
          </Trackpoint>
          <Trackpoint>
            <Time>2021-07-27T12:04:40.000Z</Time>
            <Position>
              <LatitudeDegrees>40.98640336655080318450927734375</LatitudeDegrees>
              <LongitudeDegrees>-3.0730693973600864410400390625</LongitudeDegrees>
            </Position>
            <AltitudeMeters>985.20001220703125</AltitudeMeters>
            <DistanceMeters>44703.038787852</DistanceMeters>
          </Trackpoint>
          <Trackpoint>
            <Time>2021-07-27T12:04:54.000Z</Time>
            <Position>
              <LatitudeDegrees>40.98685883916914463043212890625</LatitudeDegrees>
              <LongitudeDegrees>-3.07288725860416889190673828125</LongitudeDegrees>
            </Position>
            <AltitudeMeters>988.4000244140625</AltitudeMeters>
            <DistanceMeters>44755.993058582</DistanceMeters>
          </Trackpoint>
          <Trackpoint>
            <Time>2021-07-27T12:05:06.000Z</Time>
            <Position>
              <LatitudeDegrees>40.98719512112438678741455078125</LatitudeDegrees>
              <LongitudeDegrees>-3.07268508709967136383056640625</LongitudeDegrees>
            </Position>
            <AltitudeMeters>990.79998779296875</AltitudeMeters>
            <DistanceMeters>44797.09582007</DistanceMeters>
          </Trackpoint>
          <Trackpoint>
            <Time>2021-07-27T12:05:18.000Z</Time>
            <Position>
              <LatitudeDegrees>40.9875033237040042877197265625</LatitudeDegrees>
              <LongitudeDegrees>-3.0724829994142055511474609375</LongitudeDegrees>
            </Position>
            <AltitudeMeters>992.4000244140625</AltitudeMeters>
            <DistanceMeters>44835.371183973</DistanceMeters>
          </Trackpoint>
          <Trackpoint>
            <Time>2021-07-27T12:05:30.000Z</Time>
            <Position>
              <LatitudeDegrees>40.9877956844866275787353515625</LatitudeDegrees>
              <LongitudeDegrees>-3.07228543795645236968994140625</LongitudeDegrees>
            </Position>
            <AltitudeMeters>993.5999755859375</AltitudeMeters>
            <DistanceMeters>44871.900273698</DistanceMeters>
          </Trackpoint>
          <Trackpoint>
            <Time>2021-07-27T12:05:40.000Z</Time>
            <Position>
              <LatitudeDegrees>40.98803331144154071807861328125</LatitudeDegrees>
              <LongitudeDegrees>-3.07213037274777889251708984375</LongitudeDegrees>
            </Position>
            <AltitudeMeters>994.20001220703125</AltitudeMeters>
            <DistanceMeters>44901.383067977</DistanceMeters>
          </Trackpoint>
          <Trackpoint>
            <Time>2021-07-27T12:05:49.000Z</Time>
            <Position>
              <LatitudeDegrees>40.98823682405054569244384765625</LatitudeDegrees>
              <LongitudeDegrees>-3.071996010839939117431640625</LongitudeDegrees>
            </Position>
            <AltitudeMeters>993.20001220703125</AltitudeMeters>
            <DistanceMeters>44926.691591884</DistanceMeters>
          </Trackpoint>
          <Trackpoint>
            <Time>2021-07-27T12:05:57.000Z</Time>
            <Position>
              <LatitudeDegrees>40.9884075634181499481201171875</LatitudeDegrees>
              <LongitudeDegrees>-3.07188008911907672882080078125</LongitudeDegrees>
            </Position>
            <AltitudeMeters>991.79998779296875</AltitudeMeters>
            <DistanceMeters>44948.045767126</DistanceMeters>
          </Trackpoint>
          <Trackpoint>
            <Time>2021-07-27T12:06:10.000Z</Time>
            <Position>
              <LatitudeDegrees>40.988682992756366729736328125</LatitudeDegrees>
              <LongitudeDegrees>-3.07169451378285884857177734375</LongitudeDegrees>
            </Position>
            <AltitudeMeters>991.4000244140625</AltitudeMeters>
            <DistanceMeters>44982.438611927</DistanceMeters>
          </Trackpoint>
          <Trackpoint>
            <Time>2021-07-27T12:06:16.000Z</Time>
            <Position>
              <LatitudeDegrees>40.9888033568859100341796875</LatitudeDegrees>
              <LongitudeDegrees>-3.07160675525665283203125</LongitudeDegrees>
            </Position>
            <AltitudeMeters>991.79998779296875</AltitudeMeters>
            <DistanceMeters>44997.730533311</DistanceMeters>
          </Trackpoint>
          <Trackpoint>
            <Time>2021-07-27T12:06:27.000Z</Time>
            <Position>
              <LatitudeDegrees>40.98901986144483089447021484375</LatitudeDegrees>
              <LongitudeDegrees>-3.07143383659422397613525390625</LongitudeDegrees>
            </Position>
            <AltitudeMeters>994</AltitudeMeters>
            <DistanceMeters>45025.868391126</DistanceMeters>
          </Trackpoint>
          <Trackpoint>
            <Time>2021-07-27T12:06:34.000Z</Time>
            <Position>
              <LatitudeDegrees>40.989156067371368408203125</LatitudeDegrees>
              <LongitudeDegrees>-3.071310706436634063720703125</LongitudeDegrees>
            </Position>
            <AltitudeMeters>995.5999755859375</AltitudeMeters>
            <DistanceMeters>45044.221836078</DistanceMeters>
          </Trackpoint>
          <Trackpoint>
            <Time>2021-07-27T12:06:42.000Z</Time>
            <Position>
              <LatitudeDegrees>40.9893030859529972076416015625</LatitudeDegrees>
              <LongitudeDegrees>-3.07115547358989715576171875</LongitudeDegrees>
            </Position>
            <AltitudeMeters>997.5999755859375</AltitudeMeters>
            <DistanceMeters>45065.146709951</DistanceMeters>
          </Trackpoint>
          <Trackpoint>
            <Time>2021-07-27T12:06:52.000Z</Time>
            <Position>
              <LatitudeDegrees>40.98947466351091861724853515625</LatitudeDegrees>
              <LongitudeDegrees>-3.07095120660960674285888671875</LongitudeDegrees>
            </Position>
            <AltitudeMeters>999.4000244140625</AltitudeMeters>
            <DistanceMeters>45090.82151434</DistanceMeters>
          </Trackpoint>
          <Trackpoint>
            <Time>2021-07-27T12:06:59.000Z</Time>
            <Position>
              <LatitudeDegrees>40.9895820356905460357666015625</LatitudeDegrees>
              <LongitudeDegrees>-3.07079982943832874298095703125</LongitudeDegrees>
            </Position>
            <AltitudeMeters>1000.4000244140625</AltitudeMeters>
            <DistanceMeters>45108.273345714</DistanceMeters>
          </Trackpoint>
          <Trackpoint>
            <Time>2021-07-27T12:07:09.000Z</Time>
            <Position>
              <LatitudeDegrees>40.98972737789154052734375</LatitudeDegrees>
              <LongitudeDegrees>-3.07056413032114505767822265625</LongitudeDegrees>
            </Position>
            <AltitudeMeters>1002.20001220703125</AltitudeMeters>
            <DistanceMeters>45133.843125824</DistanceMeters>
          </Trackpoint>
          <Trackpoint>
            <Time>2021-07-27T12:07:18.000Z</Time>
            <Position>
              <LatitudeDegrees>40.9898448921740055084228515625</LatitudeDegrees>
              <LongitudeDegrees>-3.07033161632716655731201171875</LongitudeDegrees>
            </Position>
            <AltitudeMeters>1004.20001220703125</AltitudeMeters>
            <DistanceMeters>45157.352012837</DistanceMeters>
          </Trackpoint>
          <Trackpoint>
            <Time>2021-07-27T12:07:23.000Z</Time>
            <Position>
              <LatitudeDegrees>40.9899075888097286224365234375</LatitudeDegrees>
              <LongitudeDegrees>-3.07019348256289958953857421875</LongitudeDegrees>
            </Position>
            <AltitudeMeters>1005.4000244140625</AltitudeMeters>
            <DistanceMeters>45170.893903119</DistanceMeters>
          </Trackpoint>
          <Trackpoint>
            <Time>2021-07-27T12:07:33.000Z</Time>
            <Position>
              <LatitudeDegrees>40.990017391741275787353515625</LatitudeDegrees>
              <LongitudeDegrees>-3.06990983895957469940185546875</LongitudeDegrees>
            </Position>
            <AltitudeMeters>1007</AltitudeMeters>
            <DistanceMeters>45197.674919747</DistanceMeters>
          </Trackpoint>
          <Trackpoint>
            <Time>2021-07-27T12:07:38.000Z</Time>
            <Position>
              <LatitudeDegrees>40.990069024264812469482421875</LatitudeDegrees>
              <LongitudeDegrees>-3.0697595514357089996337890625</LongitudeDegrees>
            </Position>
            <AltitudeMeters>1007.5999755859375</AltitudeMeters>
            <DistanceMeters>45211.547518249</DistanceMeters>
          </Trackpoint>
          <Trackpoint>
            <Time>2021-07-27T12:07:45.000Z</Time>
            <Position>
              <LatitudeDegrees>40.990130715072154998779296875</LatitudeDegrees>
              <LongitudeDegrees>-3.06955310516059398651123046875</LongitudeDegrees>
            </Position>
            <AltitudeMeters>1008</AltitudeMeters>
            <DistanceMeters>45230.201337313</DistanceMeters>
          </Trackpoint>
          <Trackpoint>
            <Time>2021-07-27T12:07:54.000Z</Time>
            <Position>
              <LatitudeDegrees>40.9902002848684787750244140625</LatitudeDegrees>
              <LongitudeDegrees>-3.0692911706864833831787109375</LongitudeDegrees>
            </Position>
            <AltitudeMeters>1009</AltitudeMeters>
            <DistanceMeters>45253.529960228</DistanceMeters>
          </Trackpoint>
          <Trackpoint>
            <Time>2021-07-27T12:08:02.000Z</Time>
            <Position>
              <LatitudeDegrees>40.99026289768517017364501953125</LatitudeDegrees>
              <LongitudeDegrees>-3.069065697491168975830078125</LongitudeDegrees>
            </Position>
            <AltitudeMeters>1010.79998779296875</AltitudeMeters>
            <DistanceMeters>45273.713911744</DistanceMeters>
          </Trackpoint>
          <Trackpoint>
            <Time>2021-07-27T12:08:08.000Z</Time>
            <Position>
              <LatitudeDegrees>40.99030899815261363983154296875</LatitudeDegrees>
              <LongitudeDegrees>-3.06889562867581844329833984375</LongitudeDegrees>
            </Position>
            <AltitudeMeters>1011.4000244140625</AltitudeMeters>
            <DistanceMeters>45288.895005611</DistanceMeters>
          </Trackpoint>
          <Trackpoint>
            <Time>2021-07-27T12:08:16.000Z</Time>
            <Position>
              <LatitudeDegrees>40.9903766401112079620361328125</LatitudeDegrees>
              <LongitudeDegrees>-3.06866009719669818878173828125</LongitudeDegrees>
            </Position>
            <AltitudeMeters>1013</AltitudeMeters>
            <DistanceMeters>45310.066565178</DistanceMeters>
          </Trackpoint>
          <Trackpoint>
            <Time>2021-07-27T12:08:27.000Z</Time>
            <Position>
              <LatitudeDegrees>40.9904842637479305267333984375</LatitudeDegrees>
              <LongitudeDegrees>-3.06833454407751560211181640625</LongitudeDegrees>
            </Position>
            <AltitudeMeters>1014.5999755859375</AltitudeMeters>
            <DistanceMeters>45339.925525433</DistanceMeters>
          </Trackpoint>
          <Trackpoint>
            <Time>2021-07-27T12:08:37.000Z</Time>
            <Position>
              <LatitudeDegrees>40.99060068838298320770263671875</LatitudeDegrees>
              <LongitudeDegrees>-3.06804050691425800323486328125</LongitudeDegrees>
            </Position>
            <AltitudeMeters>1015.4000244140625</AltitudeMeters>
            <DistanceMeters>45367.820681774</DistanceMeters>
          </Trackpoint>
          <Trackpoint>
            <Time>2021-07-27T12:08:48.000Z</Time>
            <Position>
              <LatitudeDegrees>40.99075441248714923858642578125</LatitudeDegrees>
              <LongitudeDegrees>-3.0677291192114353179931640625</LongitudeDegrees>
            </Position>
            <AltitudeMeters>1015.4000244140625</AltitudeMeters>
            <DistanceMeters>45399.079560222</DistanceMeters>
          </Trackpoint>
          <Trackpoint>
            <Time>2021-07-27T12:08:58.000Z</Time>
            <Position>
              <LatitudeDegrees>40.990912578999996185302734375</LatitudeDegrees>
              <LongitudeDegrees>-3.06744840927422046661376953125</LongitudeDegrees>
            </Position>
            <AltitudeMeters>1016.5999755859375</AltitudeMeters>
            <DistanceMeters>45428.508706178</DistanceMeters>
          </Trackpoint>
          <Trackpoint>
            <Time>2021-07-27T12:08:59.000Z</Time>
            <Position>
              <LatitudeDegrees>40.990928672254085540771484375</LatitudeDegrees>
              <LongitudeDegrees>-3.06742108426988124847412109375</LongitudeDegrees>
            </Position>
            <AltitudeMeters>1016.79998779296875</AltitudeMeters>
            <DistanceMeters>45431.419068991</DistanceMeters>
          </Trackpoint>
          <Trackpoint>
            <Time>2021-07-27T12:09:08.000Z</Time>
            <Position>
              <LatitudeDegrees>40.99109237082302570343017578125</LatitudeDegrees>
              <LongitudeDegrees>-3.06718588806688785552978515625</LongitudeDegrees>
            </Position>
            <AltitudeMeters>1016.5999755859375</AltitudeMeters>
            <DistanceMeters>45458.296682641</DistanceMeters>
          </Trackpoint>
          <Trackpoint>
            <Time>2021-07-27T12:09:17.000Z</Time>
            <Position>
              <LatitudeDegrees>40.99127031862735748291015625</LatitudeDegrees>
              <LongitudeDegrees>-3.0669613368809223175048828125</LongitudeDegrees>
            </Position>
            <AltitudeMeters>1016.4000244140625</AltitudeMeters>
            <DistanceMeters>45485.649194291</DistanceMeters>
          </Trackpoint>
          <Trackpoint>
            <Time>2021-07-27T12:09:28.000Z</Time>
            <Position>
              <LatitudeDegrees>40.99152504466474056243896484375</LatitudeDegrees>
              <LongitudeDegrees>-3.06669185869395732879638671875</LongitudeDegrees>
            </Position>
            <AltitudeMeters>1015.4000244140625</AltitudeMeters>
            <DistanceMeters>45521.930737306</DistanceMeters>
          </Trackpoint>
          <Trackpoint>
            <Time>2021-07-27T12:09:42.000Z</Time>
            <Position>
              <LatitudeDegrees>40.99188110791146755218505859375</LatitudeDegrees>
              <LongitudeDegrees>-3.0663283355534076690673828125</LongitudeDegrees>
            </Position>
            <AltitudeMeters>1018.20001220703125</AltitudeMeters>
            <DistanceMeters>45571.963543259</DistanceMeters>
          </Trackpoint>
          <Trackpoint>
            <Time>2021-07-27T12:09:51.000Z</Time>
            <Position>
              <LatitudeDegrees>40.9921093471348285675048828125</LatitudeDegrees>
              <LongitudeDegrees>-3.06611233390867710113525390625</LongitudeDegrees>
            </Position>
            <AltitudeMeters>1020.5999755859375</AltitudeMeters>
            <DistanceMeters>45603.182675385</DistanceMeters>
          </Trackpoint>
          <Trackpoint>
            <Time>2021-07-27T12:10:06.000Z</Time>
            <Position>
              <LatitudeDegrees>40.99248242564499378204345703125</LatitudeDegrees>
              <LongitudeDegrees>-3.0657610483467578887939453125</LongitudeDegrees>
            </Position>
            <AltitudeMeters>1023.20001220703125</AltitudeMeters>
            <DistanceMeters>45654.125857949</DistanceMeters>
          </Trackpoint>
          <Trackpoint>
            <Time>2021-07-27T12:10:19.000Z</Time>
            <Position>
              <LatitudeDegrees>40.99281853996217250823974609375</LatitudeDegrees>
              <LongitudeDegrees>-3.0654354952275753021240234375</LongitudeDegrees>
            </Position>
            <AltitudeMeters>1024.5999755859375</AltitudeMeters>
            <DistanceMeters>45700.467338071</DistanceMeters>
          </Trackpoint>
          <Trackpoint>
            <Time>2021-07-27T12:10:22.000Z</Time>
            <Position>
              <LatitudeDegrees>40.99290017969906330108642578125</LatitudeDegrees>
              <LongitudeDegrees>-3.0653556995093822479248046875</LongitudeDegrees>
            </Position>
            <AltitudeMeters>1024.5999755859375</AltitudeMeters>
            <DistanceMeters>45711.759135067</DistanceMeters>
          </Trackpoint>
          <Trackpoint>
            <Time>2021-07-27T12:10:36.000Z</Time>
            <Position>
              <LatitudeDegrees>40.99335179664194583892822265625</LatitudeDegrees>
              <LongitudeDegrees>-3.06492914445698261260986328125</LongitudeDegrees>
            </Position>
            <AltitudeMeters>1024</AltitudeMeters>
            <DistanceMeters>45773.490671255</DistanceMeters>
          </Trackpoint>
          <Trackpoint>
            <Time>2021-07-27T12:10:48.000Z</Time>
            <Position>
              <LatitudeDegrees>40.99380609579384326934814453125</LatitudeDegrees>
              <LongitudeDegrees>-3.06449127383530139923095703125</LongitudeDegrees>
            </Position>
            <AltitudeMeters>1025.5999755859375</AltitudeMeters>
            <DistanceMeters>45836.019837883</DistanceMeters>
          </Trackpoint>
          <Trackpoint>
            <Time>2021-07-27T12:10:59.000Z</Time>
            <Position>
              <LatitudeDegrees>40.9942722134292125701904296875</LatitudeDegrees>
              <LongitudeDegrees>-3.06405323557555675506591796875</LongitudeDegrees>
            </Position>
            <AltitudeMeters>1027.199951171875</AltitudeMeters>
            <DistanceMeters>45899.625442263</DistanceMeters>
          </Trackpoint>
          <Trackpoint>
            <Time>2021-07-27T12:11:10.000Z</Time>
            <Position>
              <LatitudeDegrees>40.99473061971366405487060546875</LatitudeDegrees>
              <LongitudeDegrees>-3.063612766563892364501953125</LongitudeDegrees>
            </Position>
            <AltitudeMeters>1027.5999755859375</AltitudeMeters>
            <DistanceMeters>45962.652443369</DistanceMeters>
          </Trackpoint>
          <Trackpoint>
            <Time>2021-07-27T12:11:11.000Z</Time>
            <Position>
              <LatitudeDegrees>40.9947724454104900360107421875</LatitudeDegrees>
              <LongitudeDegrees>-3.06357496418058872222900390625</LongitudeDegrees>
            </Position>
            <AltitudeMeters>1027.4000244140625</AltitudeMeters>
            <DistanceMeters>45968.287134911</DistanceMeters>
          </Trackpoint>
          <Trackpoint>
            <Time>2021-07-27T12:11:22.000Z</Time>
            <Position>
              <LatitudeDegrees>40.99523085169494152069091796875</LatitudeDegrees>
              <LongitudeDegrees>-3.06313457898795604705810546875</LongitudeDegrees>
            </Position>
            <AltitudeMeters>1029.199951171875</AltitudeMeters>
            <DistanceMeters>46031.309837675</DistanceMeters>
          </Trackpoint>
          <Trackpoint>
            <Time>2021-07-27T12:11:33.000Z</Time>
            <Position>
              <LatitudeDegrees>40.99568129517138004302978515625</LatitudeDegrees>
              <LongitudeDegrees>-3.062699474394321441650390625</LongitudeDegrees>
            </Position>
            <AltitudeMeters>1028.4000244140625</AltitudeMeters>
            <DistanceMeters>46093.354641716</DistanceMeters>
          </Trackpoint>
          <Trackpoint>
            <Time>2021-07-27T12:11:39.000Z</Time>
            <Position>
              <LatitudeDegrees>40.99592135287821292877197265625</LatitudeDegrees>
              <LongitudeDegrees>-3.06247442029416561126708984375</LongitudeDegrees>
            </Position>
            <AltitudeMeters>1029.4000244140625</AltitudeMeters>
            <DistanceMeters>46126.085793075</DistanceMeters>
          </Trackpoint>
          <Trackpoint>
            <Time>2021-07-27T12:11:48.000Z</Time>
            <Position>
              <LatitudeDegrees>40.99626920185983180999755859375</LatitudeDegrees>
              <LongitudeDegrees>-3.06214216165244579315185546875</LongitudeDegrees>
            </Position>
            <AltitudeMeters>1027</AltitudeMeters>
            <DistanceMeters>46173.814373449</DistanceMeters>
          </Trackpoint>
          <Trackpoint>
            <Time>2021-07-27T12:11:49.000Z</Time>
            <Position>
              <LatitudeDegrees>40.99630926735699176788330078125</LatitudeDegrees>
              <LongitudeDegrees>-3.0621055327355861663818359375</LongitudeDegrees>
            </Position>
            <AltitudeMeters>1026.800048828125</AltitudeMeters>
            <DistanceMeters>46179.233396294</DistanceMeters>
          </Trackpoint>
          <Trackpoint>
            <Time>2021-07-27T12:12:00.000Z</Time>
            <Position>
              <LatitudeDegrees>40.99674244411289691925048828125</LatitudeDegrees>
              <LongitudeDegrees>-3.06166187860071659088134765625</LongitudeDegrees>
            </Position>
            <AltitudeMeters>1025</AltitudeMeters>
            <DistanceMeters>46240.172198932</DistanceMeters>
          </Trackpoint>
          <Trackpoint>
            <Time>2021-07-27T12:12:02.000Z</Time>
            <Position>
              <LatitudeDegrees>40.99682257510721683502197265625</LatitudeDegrees>
              <LongitudeDegrees>-3.06157537735998630523681640625</LongitudeDegrees>
            </Position>
            <AltitudeMeters>1024.800048828125</AltitudeMeters>
            <DistanceMeters>46251.676319949</DistanceMeters>
          </Trackpoint>
          <Trackpoint>
            <Time>2021-07-27T12:12:05.000Z</Time>
            <Position>
              <LatitudeDegrees>40.9969701804220676422119140625</LatitudeDegrees>
              <LongitudeDegrees>-3.061491809785366058349609375</LongitudeDegrees>
            </Position>
            <AltitudeMeters>1025</AltitudeMeters>
            <DistanceMeters>46269.542100426</DistanceMeters>
          </Trackpoint>
          <Trackpoint>
            <Time>2021-07-27T12:12:06.000Z</Time>
            <Position>
              <LatitudeDegrees>40.99702156148850917816162109375</LatitudeDegrees>
              <LongitudeDegrees>-3.06145920418202877044677734375</LongitudeDegrees>
            </Position>
            <AltitudeMeters>1025</AltitudeMeters>
            <DistanceMeters>46275.884021308</DistanceMeters>
          </Trackpoint>
          <Trackpoint>
            <Time>2021-07-27T12:12:10.000Z</Time>
            <Position>
              <LatitudeDegrees>40.9971240721642971038818359375</LatitudeDegrees>
              <LongitudeDegrees>-3.0611721239984035491943359375</LongitudeDegrees>
            </Position>
            <AltitudeMeters>1025</AltitudeMeters>
            <DistanceMeters>46302.563014645</DistanceMeters>
          </Trackpoint>
          <Trackpoint>
            <Time>2021-07-27T12:12:11.000Z</Time>
            <Position>
              <LatitudeDegrees>40.99713237024843692779541015625</LatitudeDegrees>
              <LongitudeDegrees>-3.0610815994441509246826171875</LongitudeDegrees>
            </Position>
            <AltitudeMeters>1025.4000244140625</AltitudeMeters>
            <DistanceMeters>46310.223134536</DistanceMeters>
          </Trackpoint>
          <Trackpoint>
            <Time>2021-07-27T12:12:14.000Z</Time>
            <Position>
              <LatitudeDegrees>40.99715248681604862213134765625</LatitudeDegrees>
              <LongitudeDegrees>-3.0607788451015949249267578125</LongitudeDegrees>
            </Position>
            <AltitudeMeters>1025</AltitudeMeters>
            <DistanceMeters>46335.753861277</DistanceMeters>
          </Trackpoint>
          <Trackpoint>
            <Time>2021-07-27T12:12:16.000Z</Time>
            <Position>
              <LatitudeDegrees>40.9971691668033599853515625</LatitudeDegrees>
              <LongitudeDegrees>-3.06054909713566303253173828125</LongitudeDegrees>
            </Position>
            <AltitudeMeters>1024.4000244140625</AltitudeMeters>
            <DistanceMeters>46355.142804323</DistanceMeters>
          </Trackpoint>
          <Trackpoint>
            <Time>2021-07-27T12:12:17.000Z</Time>
            <Position>
              <LatitudeDegrees>40.9971746988594532012939453125</LatitudeDegrees>
              <LongitudeDegrees>-3.06042688898742198944091796875</LongitudeDegrees>
            </Position>
            <AltitudeMeters>1024.4000244140625</AltitudeMeters>
            <DistanceMeters>46365.427662877</DistanceMeters>
          </Trackpoint>
          <Trackpoint>
            <Time>2021-07-27T12:12:18.000Z</Time>
            <Position>
              <LatitudeDegrees>40.99718098528683185577392578125</LatitudeDegrees>
              <LongitudeDegrees>-3.06030132807791233062744140625</LongitudeDegrees>
            </Position>
            <AltitudeMeters>1023.79998779296875</AltitudeMeters>
            <DistanceMeters>46375.998290385</DistanceMeters>
          </Trackpoint>
          <Trackpoint>
            <Time>2021-07-27T12:12:19.000Z</Time>
            <Position>
              <LatitudeDegrees>40.997187606990337371826171875</LatitudeDegrees>
              <LongitudeDegrees>-3.0601743422448635101318359375</LongitudeDegrees>
            </Position>
            <AltitudeMeters>1023.79998779296875</AltitudeMeters>
            <DistanceMeters>46386.690379413</DistanceMeters>
          </Trackpoint>
          <Trackpoint>
            <Time>2021-07-27T12:12:21.000Z</Time>
            <Position>
              <LatitudeDegrees>40.9972028620541095733642578125</LatitudeDegrees>
              <LongitudeDegrees>-3.05991525761783123016357421875</LongitudeDegrees>
            </Position>
            <AltitudeMeters>1024.5999755859375</AltitudeMeters>
            <DistanceMeters>46408.520685969</DistanceMeters>
          </Trackpoint>
          <Trackpoint>
            <Time>2021-07-27T12:12:23.000Z</Time>
            <Position>
              <LatitudeDegrees>40.9972223080694675445556640625</LatitudeDegrees>
              <LongitudeDegrees>-3.0596489645540714263916015625</LongitudeDegrees>
            </Position>
            <AltitudeMeters>1025.199951171875</AltitudeMeters>
            <DistanceMeters>46430.994855493</DistanceMeters>
          </Trackpoint>
          <Trackpoint>
            <Time>2021-07-27T12:12:27.000Z</Time>
            <Position>
              <LatitudeDegrees>40.9972601942718029022216796875</LatitudeDegrees>
              <LongitudeDegrees>-3.0590900592505931854248046875</LongitudeDegrees>
            </Position>
            <AltitudeMeters>1021.4000244140625</AltitudeMeters>
            <DistanceMeters>46478.134236178</DistanceMeters>
          </Trackpoint>
          <Trackpoint>
            <Time>2021-07-27T12:12:31.000Z</Time>
            <Position>
              <LatitudeDegrees>40.997292883694171905517578125</LatitudeDegrees>
              <LongitudeDegrees>-3.0584966205060482025146484375</LongitudeDegrees>
            </Position>
            <AltitudeMeters>1021.20001220703125</AltitudeMeters>
            <DistanceMeters>46528.118107277</DistanceMeters>
          </Trackpoint>
          <Trackpoint>
            <Time>2021-07-27T12:12:34.000Z</Time>
            <Position>
              <LatitudeDegrees>40.9973205439746379852294921875</LatitudeDegrees>
              <LongitudeDegrees>-3.05802312679588794708251953125</LongitudeDegrees>
            </Position>
            <AltitudeMeters>1019.20001220703125</AltitudeMeters>
            <DistanceMeters>46568.012580997</DistanceMeters>
          </Trackpoint>
          <Trackpoint>
            <Time>2021-07-27T12:12:36.000Z</Time>
            <Position>
              <LatitudeDegrees>40.99734409712255001068115234375</LatitudeDegrees>
              <LongitudeDegrees>-3.05769707076251506805419921875</LongitudeDegrees>
            </Position>
            <AltitudeMeters>1017.79998779296875</AltitudeMeters>
            <DistanceMeters>46595.527697008</DistanceMeters>
          </Trackpoint>
          <Trackpoint>
            <Time>2021-07-27T12:12:38.000Z</Time>
            <Position>
              <LatitudeDegrees>40.99737511016428470611572265625</LatitudeDegrees>
              <LongitudeDegrees>-3.05736900307238101959228515625</LongitudeDegrees>
            </Position>
            <AltitudeMeters>1015.4000244140625</AltitudeMeters>
            <DistanceMeters>46623.302170368</DistanceMeters>
          </Trackpoint>
          <Trackpoint>
            <Time>2021-07-27T12:12:39.000Z</Time>
            <Position>
              <LatitudeDegrees>40.99739774130284786224365234375</LatitudeDegrees>
              <LongitudeDegrees>-3.05720605887472629547119140625</LongitudeDegrees>
            </Position>
            <AltitudeMeters>1014.5999755859375</AltitudeMeters>
            <DistanceMeters>46637.219610496</DistanceMeters>
          </Trackpoint>
          <Trackpoint>
            <Time>2021-07-27T12:12:40.000Z</Time>
            <Position>
              <LatitudeDegrees>40.9974258206784725189208984375</LatitudeDegrees>
              <LongitudeDegrees>-3.0570442043244838714599609375</LongitudeDegrees>
            </Position>
            <AltitudeMeters>1013.79998779296875</AltitudeMeters>
            <DistanceMeters>46651.170749076</DistanceMeters>
          </Trackpoint>
          <Trackpoint>
            <Time>2021-07-27T12:12:42.000Z</Time>
            <Position>
              <LatitudeDegrees>40.99750511348247528076171875</LatitudeDegrees>
              <LongitudeDegrees>-3.0567293800413608551025390625</LongitudeDegrees>
            </Position>
            <AltitudeMeters>1011.79998779296875</AltitudeMeters>
            <DistanceMeters>46679.051010558</DistanceMeters>
          </Trackpoint>
          <Trackpoint>
            <Time>2021-07-27T12:12:44.000Z</Time>
            <Position>
              <LatitudeDegrees>40.99761650897562503814697265625</LatitudeDegrees>
              <LongitudeDegrees>-3.05643257685005664825439453125</LongitudeDegrees>
            </Position>
            <AltitudeMeters>1007.79998779296875</AltitudeMeters>
            <DistanceMeters>46706.896270187</DistanceMeters>
          </Trackpoint>
          <Trackpoint>
            <Time>2021-07-27T12:12:45.000Z</Time>
            <Position>
              <LatitudeDegrees>40.99768037907779216766357421875</LatitudeDegrees>
              <LongitudeDegrees>-3.0562905035912990570068359375</LongitudeDegrees>
            </Position>
            <AltitudeMeters>1005.79998779296875</AltitudeMeters>
            <DistanceMeters>46720.787732803</DistanceMeters>
          </Trackpoint>
          <Trackpoint>
            <Time>2021-07-27T12:12:47.000Z</Time>
            <Position>
              <LatitudeDegrees>40.9978154115378856658935546875</LatitudeDegrees>
              <LongitudeDegrees>-3.05601381696760654449462890625</LongitudeDegrees>
            </Position>
            <AltitudeMeters>1001.79998779296875</AltitudeMeters>
            <DistanceMeters>46748.466455416</DistanceMeters>
          </Trackpoint>
          <Trackpoint>
            <Time>2021-07-27T12:12:50.000Z</Time>
            <Position>
              <LatitudeDegrees>40.99801850505173206329345703125</LatitudeDegrees>
              <LongitudeDegrees>-3.055596984922885894775390625</LongitudeDegrees>
            </Position>
            <AltitudeMeters>1000.4000244140625</AltitudeMeters>
            <DistanceMeters>46790.144310026</DistanceMeters>
          </Trackpoint>
          <Trackpoint>
            <Time>2021-07-27T12:12:53.000Z</Time>
            <Position>
              <LatitudeDegrees>40.99822369404137134552001953125</LatitudeDegrees>
              <LongitudeDegrees>-3.0551770515739917755126953125</LongitudeDegrees>
            </Position>
            <AltitudeMeters>999.5999755859375</AltitudeMeters>
            <DistanceMeters>46832.167504093</DistanceMeters>
          </Trackpoint>
          <Trackpoint>
            <Time>2021-07-27T12:12:57.000Z</Time>
            <Position>
              <LatitudeDegrees>40.99850582890212535858154296875</LatitudeDegrees>
              <LongitudeDegrees>-3.05460356175899505615234375</LongitudeDegrees>
            </Position>
            <AltitudeMeters>997.5999755859375</AltitudeMeters>
            <DistanceMeters>46889.67319333</DistanceMeters>
          </Trackpoint>
          <Trackpoint>
            <Time>2021-07-27T12:12:59.000Z</Time>
            <Position>
              <LatitudeDegrees>40.998652093112468719482421875</LatitudeDegrees>
              <LongitudeDegrees>-3.0543137155473232269287109375</LongitudeDegrees>
            </Position>
            <AltitudeMeters>997</AltitudeMeters>
            <DistanceMeters>46918.962085457</DistanceMeters>
          </Trackpoint>
          <Trackpoint>
            <Time>2021-07-27T12:13:00.000Z</Time>
            <Position>
              <LatitudeDegrees>40.9987256862223148345947265625</LatitudeDegrees>
              <LongitudeDegrees>-3.05416896007955074310302734375</LongitudeDegrees>
            </Position>
            <AltitudeMeters>997.20001220703125</AltitudeMeters>
            <DistanceMeters>46933.62301686</DistanceMeters>
          </Trackpoint>
          <Trackpoint>
            <Time>2021-07-27T12:13:01.000Z</Time>
            <Position>
              <LatitudeDegrees>40.9987994469702243804931640625</LatitudeDegrees>
              <LongitudeDegrees>-3.054023198783397674560546875</LongitudeDegrees>
            </Position>
            <AltitudeMeters>997.79998779296875</AltitudeMeters>
            <DistanceMeters>46948.364720279</DistanceMeters>
          </Trackpoint>
          <Trackpoint>
            <Time>2021-07-27T12:13:03.000Z</Time>
            <Position>
              <LatitudeDegrees>40.99894453771412372589111328125</LatitudeDegrees>
              <LongitudeDegrees>-3.05372891016304492950439453125</LongitudeDegrees>
            </Position>
            <AltitudeMeters>998.20001220703125</AltitudeMeters>
            <DistanceMeters>46977.892809637</DistanceMeters>
          </Trackpoint>
          <Trackpoint>
            <Time>2021-07-27T12:13:04.000Z</Time>
            <Position>
              <LatitudeDegrees>40.999016873538494110107421875</LatitudeDegrees>
              <LongitudeDegrees>-3.053582645952701568603515625</LongitudeDegrees>
            </Position>
            <AltitudeMeters>997</AltitudeMeters>
            <DistanceMeters>46992.582046398</DistanceMeters>
          </Trackpoint>
          <Trackpoint>
            <Time>2021-07-27T12:13:06.000Z</Time>
            <Position>
              <LatitudeDegrees>40.99917219020426273345947265625</LatitudeDegrees>
              <LongitudeDegrees>-3.05330227129161357879638671875</LongitudeDegrees>
            </Position>
            <AltitudeMeters>992.4000244140625</AltitudeMeters>
            <DistanceMeters>47021.797468449</DistanceMeters>
          </Trackpoint>
          <Trackpoint>
            <Time>2021-07-27T12:13:07.000Z</Time>
            <Position>
              <LatitudeDegrees>40.99926187656819820404052734375</LatitudeDegrees>
              <LongitudeDegrees>-3.05317520163953304290771484375</LongitudeDegrees>
            </Position>
            <AltitudeMeters>990</AltitudeMeters>
            <DistanceMeters>47036.411823312</DistanceMeters>
          </Trackpoint>
          <Trackpoint>
            <Time>2021-07-27T12:13:08.000Z</Time>
            <Position>
              <LatitudeDegrees>40.999361537396907806396484375</LatitudeDegrees>
              <LongitudeDegrees>-3.05306171067059040069580078125</LongitudeDegrees>
            </Position>
            <AltitudeMeters>988</AltitudeMeters>
            <DistanceMeters>47051.03791339</DistanceMeters>
          </Trackpoint>
          <Trackpoint>
            <Time>2021-07-27T12:13:10.000Z</Time>
            <Position>
              <LatitudeDegrees>40.9995896928012371063232421875</LatitudeDegrees>
              <LongitudeDegrees>-3.0528874509036540985107421875</LongitudeDegrees>
            </Position>
            <AltitudeMeters>983.20001220703125</AltitudeMeters>
            <DistanceMeters>47080.348995475</DistanceMeters>
          </Trackpoint>
          <Trackpoint>
            <Time>2021-07-27T12:13:11.000Z</Time>
            <Position>
              <LatitudeDegrees>40.99971382878720760345458984375</LatitudeDegrees>
              <LongitudeDegrees>-3.0528294481337070465087890625</LongitudeDegrees>
            </Position>
            <AltitudeMeters>980.4000244140625</AltitudeMeters>
            <DistanceMeters>47094.999452362</DistanceMeters>
          </Trackpoint>
          <Trackpoint>
            <Time>2021-07-27T12:13:12.000Z</Time>
            <Position>
              <LatitudeDegrees>40.99984056316316127777099609375</LatitudeDegrees>
              <LongitudeDegrees>-3.052787370979785919189453125</LongitudeDegrees>
            </Position>
            <AltitudeMeters>977.5999755859375</AltitudeMeters>
            <DistanceMeters>47109.541644777</DistanceMeters>
          </Trackpoint>
          <Trackpoint>
            <Time>2021-07-27T12:13:13.000Z</Time>
            <Position>
              <LatitudeDegrees>40.9999688901007175445556640625</LatitudeDegrees>
              <LongitudeDegrees>-3.05276398546993732452392578125</LongitudeDegrees>
            </Position>
            <AltitudeMeters>977.5999755859375</AltitudeMeters>
            <DistanceMeters>47123.959110909</DistanceMeters>
          </Trackpoint>
          <Trackpoint>
            <Time>2021-07-27T12:13:16.000Z</Time>
            <Position>
              <LatitudeDegrees>41.0003502666950225830078125</LatitudeDegrees>
              <LongitudeDegrees>-3.05283305235207080841064453125</LongitudeDegrees>
            </Position>
            <AltitudeMeters>980.4000244140625</AltitudeMeters>
            <DistanceMeters>47166.801723555</DistanceMeters>
          </Trackpoint>
          <Trackpoint>
            <Time>2021-07-27T12:13:17.000Z</Time>
            <Position>
              <LatitudeDegrees>41.0004728101193904876708984375</LatitudeDegrees>
              <LongitudeDegrees>-3.05288418196141719818115234375</LongitudeDegrees>
            </Position>
            <AltitudeMeters>981.5999755859375</AltitudeMeters>
            <DistanceMeters>47181.101270785</DistanceMeters>
          </Trackpoint>
          <Trackpoint>
            <Time>2021-07-27T12:13:18.000Z</Time>
            <Position>
              <LatitudeDegrees>41.000593341886997222900390625</LatitudeDegrees>
              <LongitudeDegrees>-3.05294117890298366546630859375</LongitudeDegrees>
            </Position>
            <AltitudeMeters>981.20001220703125</AltitudeMeters>
            <DistanceMeters>47195.3457721</DistanceMeters>
          </Trackpoint>
          <Trackpoint>
            <Time>2021-07-27T12:13:23.000Z</Time>
            <Position>
              <LatitudeDegrees>41.00119650363922119140625</LatitudeDegrees>
              <LongitudeDegrees>-3.05321912281215190887451171875</LongitudeDegrees>
            </Position>
            <AltitudeMeters>970</AltitudeMeters>
            <DistanceMeters>47266.422832444</DistanceMeters>
          </Trackpoint>
          <Trackpoint>
            <Time>2021-07-27T12:13:25.000Z</Time>
            <Position>
              <LatitudeDegrees>41.00145307369530200958251953125</LatitudeDegrees>
              <LongitudeDegrees>-3.0532964877784252166748046875</LongitudeDegrees>
            </Position>
            <AltitudeMeters>968.20001220703125</AltitudeMeters>
            <DistanceMeters>47295.709874649</DistanceMeters>
          </Trackpoint>
          <Trackpoint>
            <Time>2021-07-27T12:13:28.000Z</Time>
            <Position>
              <LatitudeDegrees>41.00185942836105823516845703125</LatitudeDegrees>
              <LongitudeDegrees>-3.05333412252366542816162109375</LongitudeDegrees>
            </Position>
            <AltitudeMeters>967.4000244140625</AltitudeMeters>
            <DistanceMeters>47341.048473454</DistanceMeters>
          </Trackpoint>
          <Trackpoint>
            <Time>2021-07-27T12:13:30.000Z</Time>
            <Position>
              <LatitudeDegrees>41.00213787518441677093505859375</LatitudeDegrees>
              <LongitudeDegrees>-3.05332741700112819671630859375</LongitudeDegrees>
            </Position>
            <AltitudeMeters>963.5999755859375</AltitudeMeters>
            <DistanceMeters>47372.045249635</DistanceMeters>
          </Trackpoint>
          <Trackpoint>
            <Time>2021-07-27T12:13:32.000Z</Time>
            <Position>
              <LatitudeDegrees>41.002418585121631622314453125</LatitudeDegrees>
              <LongitudeDegrees>-3.05328701622784137725830078125</LongitudeDegrees>
            </Position>
            <AltitudeMeters>958.20001220703125</AltitudeMeters>
            <DistanceMeters>47403.472525068</DistanceMeters>
          </Trackpoint>
          <Trackpoint>
            <Time>2021-07-27T12:13:33.000Z</Time>
            <Position>
              <LatitudeDegrees>41.002558059990406036376953125</LatitudeDegrees>
              <LongitudeDegrees>-3.0532545782625675201416015625</LongitudeDegrees>
            </Position>
            <AltitudeMeters>957</AltitudeMeters>
            <DistanceMeters>47419.233787802</DistanceMeters>
          </Trackpoint>
          <Trackpoint>
            <Time>2021-07-27T12:13:35.000Z</Time>
            <Position>
              <LatitudeDegrees>41.00283575244247913360595703125</LatitudeDegrees>
              <LongitudeDegrees>-3.053168244659900665283203125</LongitudeDegrees>
            </Position>
            <AltitudeMeters>957.5999755859375</AltitudeMeters>
            <DistanceMeters>47450.980817933</DistanceMeters>
          </Trackpoint>
          <Trackpoint>
            <Time>2021-07-27T12:13:37.000Z</Time>
            <Position>
              <LatitudeDegrees>41.00311034359037876129150390625</LatitudeDegrees>
              <LongitudeDegrees>-3.0530510656535625457763671875</LongitudeDegrees>
            </Position>
            <AltitudeMeters>956.79998779296875</AltitudeMeters>
            <DistanceMeters>47483.089162136</DistanceMeters>
          </Trackpoint>
          <Trackpoint>
            <Time>2021-07-27T12:13:38.000Z</Time>
            <Position>
              <LatitudeDegrees>41.0032431967556476593017578125</LatitudeDegrees>
              <LongitudeDegrees>-3.0529736168682575225830078125</LongitudeDegrees>
            </Position>
            <AltitudeMeters>955.79998779296875</AltitudeMeters>
            <DistanceMeters>47499.243703579</DistanceMeters>
          </Trackpoint>
          <Trackpoint>
            <Time>2021-07-27T12:13:39.000Z</Time>
            <Position>
              <LatitudeDegrees>41.00337135605514049530029296875</LatitudeDegrees>
              <LongitudeDegrees>-3.05288166739046573638916015625</LongitudeDegrees>
            </Position>
            <AltitudeMeters>953.79998779296875</AltitudeMeters>
            <DistanceMeters>47515.464905677</DistanceMeters>
          </Trackpoint>
          <Trackpoint>
            <Time>2021-07-27T12:13:41.000Z</Time>
            <Position>
              <LatitudeDegrees>41.0036120004951953887939453125</LatitudeDegrees>
              <LongitudeDegrees>-3.05266306735575199127197265625</LongitudeDegrees>
            </Position>
            <AltitudeMeters>951.4000244140625</AltitudeMeters>
            <DistanceMeters>47547.938747262</DistanceMeters>
          </Trackpoint>
          <Trackpoint>
            <Time>2021-07-27T12:13:43.000Z</Time>
            <Position>
              <LatitudeDegrees>41.00382800213992595672607421875</LatitudeDegrees>
              <LongitudeDegrees>-3.05240222252905368804931640625</LongitudeDegrees>
            </Position>
            <AltitudeMeters>950</AltitudeMeters>
            <DistanceMeters>47580.46621253</DistanceMeters>
          </Trackpoint>
          <Trackpoint>
            <Time>2021-07-27T12:13:44.000Z</Time>
            <Position>
              <LatitudeDegrees>41.00392791442573070526123046875</LatitudeDegrees>
              <LongitudeDegrees>-3.0522598139941692352294921875</LongitudeDegrees>
            </Position>
            <AltitudeMeters>948.20001220703125</AltitudeMeters>
            <DistanceMeters>47596.798648299</DistanceMeters>
          </Trackpoint>
          <Trackpoint>
            <Time>2021-07-27T12:13:46.000Z</Time>
            <Position>
              <LatitudeDegrees>41.00410711951553821563720703125</LatitudeDegrees>
              <LongitudeDegrees>-3.05195127613842487335205078125</LongitudeDegrees>
            </Position>
            <AltitudeMeters>946.20001220703125</AltitudeMeters>
            <DistanceMeters>47629.501371023</DistanceMeters>
          </Trackpoint>
          <Trackpoint>
            <Time>2021-07-27T12:13:47.000Z</Time>
            <Position>
              <LatitudeDegrees>41.00418423302471637725830078125</LatitudeDegrees>
              <LongitudeDegrees>-3.05178564973175525665283203125</LongitudeDegrees>
            </Position>
            <AltitudeMeters>946.5999755859375</AltitudeMeters>
            <DistanceMeters>47645.848175669</DistanceMeters>
          </Trackpoint>
          <Trackpoint>
            <Time>2021-07-27T12:13:48.000Z</Time>
            <Position>
              <LatitudeDegrees>41.00425531156361103057861328125</LatitudeDegrees>
              <LongitudeDegrees>-3.05161532945930957794189453125</LongitudeDegrees>
            </Position>
            <AltitudeMeters>947.20001220703125</AltitudeMeters>
            <DistanceMeters>47662.19608509</DistanceMeters>
          </Trackpoint>
          <Trackpoint>
            <Time>2021-07-27T12:13:50.000Z</Time>
            <Position>
              <LatitudeDegrees>41.0043828003108501434326171875</LatitudeDegrees>
              <LongitudeDegrees>-3.0512670613825321197509765625</LongitudeDegrees>
            </Position>
            <AltitudeMeters>948.79998779296875</AltitudeMeters>
            <DistanceMeters>47694.708833493</DistanceMeters>
          </Trackpoint>
          <Trackpoint>
            <Time>2021-07-27T12:13:52.000Z</Time>
            <Position>
              <LatitudeDegrees>41.004514396190643310546875</LatitudeDegrees>
              <LongitudeDegrees>-3.05092667229473590850830078125</LongitudeDegrees>
            </Position>
            <AltitudeMeters>948.4000244140625</AltitudeMeters>
            <DistanceMeters>47726.833204244</DistanceMeters>
          </Trackpoint>
          <Trackpoint>
            <Time>2021-07-27T12:13:55.000Z</Time>
            <Position>
              <LatitudeDegrees>41.004759483039379119873046875</LatitudeDegrees>
              <LongitudeDegrees>-3.050457537174224853515625</LongitudeDegrees>
            </Position>
            <AltitudeMeters>949.79998779296875</AltitudeMeters>
            <DistanceMeters>47774.758898648</DistanceMeters>
          </Trackpoint>
          <Trackpoint>
            <Time>2021-07-27T12:13:56.000Z</Time>
            <Position>
              <LatitudeDegrees>41.00486048497259616851806640625</LatitudeDegrees>
              <LongitudeDegrees>-3.0503219179809093475341796875</LongitudeDegrees>
            </Position>
            <AltitudeMeters>949.4000244140625</AltitudeMeters>
            <DistanceMeters>47790.762932148</DistanceMeters>
          </Trackpoint>
          <Trackpoint>
            <Time>2021-07-27T12:13:58.000Z</Time>
            <Position>
              <LatitudeDegrees>41.00508579052984714508056640625</LatitudeDegrees>
              <LongitudeDegrees>-3.05008345283567905426025390625</LongitudeDegrees>
            </Position>
            <AltitudeMeters>948.5999755859375</AltitudeMeters>
            <DistanceMeters>47822.857211386</DistanceMeters>
          </Trackpoint>
          <Trackpoint>
            <Time>2021-07-27T12:13:59.000Z</Time>
            <Position>
              <LatitudeDegrees>41.00520548410713672637939453125</LatitudeDegrees>
              <LongitudeDegrees>-3.0499779246747493743896484375</LongitudeDegrees>
            </Position>
            <AltitudeMeters>947</AltitudeMeters>
            <DistanceMeters>47838.858423449</DistanceMeters>
          </Trackpoint>
          <Trackpoint>
            <Time>2021-07-27T12:14:00.000Z</Time>
            <Position>
              <LatitudeDegrees>41.00532911717891693115234375</LatitudeDegrees>
              <LongitudeDegrees>-3.04988061077892780303955078125</LongitudeDegrees>
            </Position>
            <AltitudeMeters>944.79998779296875</AltitudeMeters>
            <DistanceMeters>47854.863585384</DistanceMeters>
          </Trackpoint>
          <Trackpoint>
            <Time>2021-07-27T12:14:01.000Z</Time>
            <Position>
              <LatitudeDegrees>41.0054546780884265899658203125</LatitudeDegrees>
              <LongitudeDegrees>-3.04978706873953342437744140625</LongitudeDegrees>
            </Position>
            <AltitudeMeters>941.79998779296875</AltitudeMeters>
            <DistanceMeters>47870.895805939</DistanceMeters>
          </Trackpoint>
          <Trackpoint>
            <Time>2021-07-27T12:14:03.000Z</Time>
            <Position>
              <LatitudeDegrees>41.00570353679358959197998046875</LatitudeDegrees>
              <LongitudeDegrees>-3.049593865871429443359375</LongitudeDegrees>
            </Position>
            <AltitudeMeters>938</AltitudeMeters>
            <DistanceMeters>47902.997962316</DistanceMeters>
          </Trackpoint>
          <Trackpoint>
            <Time>2021-07-27T12:14:05.000Z</Time>
            <Position>
              <LatitudeDegrees>41.00593931972980499267578125</LatitudeDegrees>
              <LongitudeDegrees>-3.0493761040270328521728515625</LongitudeDegrees>
            </Position>
            <AltitudeMeters>936</AltitudeMeters>
            <DistanceMeters>47934.986416052</DistanceMeters>
          </Trackpoint>
          <Trackpoint>
            <Time>2021-07-27T12:14:07.000Z</Time>
            <Position>
              <LatitudeDegrees>41.00615146569907665252685546875</LatitudeDegrees>
              <LongitudeDegrees>-3.04912003688514232635498046875</LongitudeDegrees>
            </Position>
            <AltitudeMeters>933.5999755859375</AltitudeMeters>
            <DistanceMeters>47966.925854617</DistanceMeters>
          </Trackpoint>
          <Trackpoint>
            <Time>2021-07-27T12:14:10.000Z</Time>
            <Position>
              <LatitudeDegrees>41.00642253644764423370361328125</LatitudeDegrees>
              <LongitudeDegrees>-3.048676550388336181640625</LongitudeDegrees>
            </Position>
            <AltitudeMeters>928.4000244140625</AltitudeMeters>
            <DistanceMeters>48014.86134577</DistanceMeters>
          </Trackpoint>
          <Trackpoint>
            <Time>2021-07-27T12:14:12.000Z</Time>
            <Position>
              <LatitudeDegrees>41.00658304989337921142578125</LatitudeDegrees>
              <LongitudeDegrees>-3.04836600087583065032958984375</LongitudeDegrees>
            </Position>
            <AltitudeMeters>926.5999755859375</AltitudeMeters>
            <DistanceMeters>48046.476835037</DistanceMeters>
          </Trackpoint>
          <Trackpoint>
            <Time>2021-07-27T12:14:14.000Z</Time>
            <Position>
              <LatitudeDegrees>41.00674138404428958892822265625</LatitudeDegrees>
              <LongitudeDegrees>-3.0480645038187503814697265625</LongitudeDegrees>
            </Position>
            <AltitudeMeters>928</AltitudeMeters>
            <DistanceMeters>48077.328630248</DistanceMeters>
          </Trackpoint>
          <Trackpoint>
            <Time>2021-07-27T12:14:19.000Z</Time>
            <Position>
              <LatitudeDegrees>41.0071994550526142120361328125</LatitudeDegrees>
              <LongitudeDegrees>-3.047441057860851287841796875</LongitudeDegrees>
            </Position>
            <AltitudeMeters>930.79998779296875</AltitudeMeters>
            <DistanceMeters>48150.41362623</DistanceMeters>
          </Trackpoint>
          <Trackpoint>
            <Time>2021-07-27T12:14:24.000Z</Time>
            <Position>
              <LatitudeDegrees>41.00760857574641704559326171875</LatitudeDegrees>
              <LongitudeDegrees>-3.0468286760151386260986328125</LongitudeDegrees>
            </Position>
            <AltitudeMeters>925.5999755859375</AltitudeMeters>
            <DistanceMeters>48219.109068359</DistanceMeters>
          </Trackpoint>
          <Trackpoint>
            <Time>2021-07-27T12:14:29.000Z</Time>
            <Position>
              <LatitudeDegrees>41.0079561732709407806396484375</LatitudeDegrees>
              <LongitudeDegrees>-3.04620824754238128662109375</LongitudeDegrees>
            </Position>
            <AltitudeMeters>920.5999755859375</AltitudeMeters>
            <DistanceMeters>48284.011062079</DistanceMeters>
          </Trackpoint>
          <Trackpoint>
            <Time>2021-07-27T12:14:30.000Z</Time>
            <Position>
              <LatitudeDegrees>41.00801895372569561004638671875</LatitudeDegrees>
              <LongitudeDegrees>-3.046083860099315643310546875</LongitudeDegrees>
            </Position>
            <AltitudeMeters>920.4000244140625</AltitudeMeters>
            <DistanceMeters>48296.579759598</DistanceMeters>
          </Trackpoint>
          <Trackpoint>
            <Time>2021-07-27T12:14:33.000Z</Time>
            <Position>
              <LatitudeDegrees>41.00819380022585391998291015625</LatitudeDegrees>
              <LongitudeDegrees>-3.04571111686527729034423828125</LongitudeDegrees>
            </Position>
            <AltitudeMeters>921</AltitudeMeters>
            <DistanceMeters>48333.442041718</DistanceMeters>
          </Trackpoint>
          <Trackpoint>
            <Time>2021-07-27T12:14:38.000Z</Time>
            <Position>
              <LatitudeDegrees>41.0084641166031360626220703125</LatitudeDegrees>
              <LongitudeDegrees>-3.04510795511305332183837890625</LongitudeDegrees>
            </Position>
            <AltitudeMeters>922.79998779296875</AltitudeMeters>
            <DistanceMeters>48392.362436226</DistanceMeters>
          </Trackpoint>
          <Trackpoint>
            <Time>2021-07-27T12:14:42.000Z</Time>
            <Position>
              <LatitudeDegrees>41.00866687484085559844970703125</LatitudeDegrees>
              <LongitudeDegrees>-3.04464879445731639862060546875</LongitudeDegrees>
            </Position>
            <AltitudeMeters>923.20001220703125</AltitudeMeters>
            <DistanceMeters>48437.045104809</DistanceMeters>
          </Trackpoint>
          <Trackpoint>
            <Time>2021-07-27T12:14:48.000Z</Time>
            <Position>
              <LatitudeDegrees>41.0089080221951007843017578125</LatitudeDegrees>
              <LongitudeDegrees>-3.043987043201923370361328125</LongitudeDegrees>
            </Position>
            <AltitudeMeters>920.4000244140625</AltitudeMeters>
            <DistanceMeters>48498.766620017</DistanceMeters>
          </Trackpoint>
          <Trackpoint>
            <Time>2021-07-27T12:14:55.000Z</Time>
            <Position>
              <LatitudeDegrees>41.00912653841078281402587890625</LatitudeDegrees>
              <LongitudeDegrees>-3.04326142184436321258544921875</LongitudeDegrees>
            </Position>
            <AltitudeMeters>922</AltitudeMeters>
            <DistanceMeters>48564.384750974</DistanceMeters>
          </Trackpoint>
          <Trackpoint>
            <Time>2021-07-27T12:15:00.000Z</Time>
            <Position>
              <LatitudeDegrees>41.009251512587070465087890625</LatitudeDegrees>
              <LongitudeDegrees>-3.0427771992981433868408203125</LongitudeDegrees>
            </Position>
            <AltitudeMeters>922.4000244140625</AltitudeMeters>
            <DistanceMeters>48607.367089205</DistanceMeters>
          </Trackpoint>
          <Trackpoint>
            <Time>2021-07-27T12:15:05.000Z</Time>
            <Position>
              <LatitudeDegrees>41.00937045179307460784912109375</LatitudeDegrees>
              <LongitudeDegrees>-3.04233103059232234954833984375</LongitudeDegrees>
            </Position>
            <AltitudeMeters>923.5999755859375</AltitudeMeters>
            <DistanceMeters>48647.110074137</DistanceMeters>
          </Trackpoint>
          <Trackpoint>
            <Time>2021-07-27T12:15:11.000Z</Time>
            <Position>
              <LatitudeDegrees>41.0094944201409816741943359375</LatitudeDegrees>
              <LongitudeDegrees>-3.041849993169307708740234375</LongitudeDegrees>
            </Position>
            <AltitudeMeters>922.79998779296875</AltitudeMeters>
            <DistanceMeters>48689.802987014</DistanceMeters>
          </Trackpoint>
          <Trackpoint>
            <Time>2021-07-27T12:15:21.000Z</Time>
            <Position>
              <LatitudeDegrees>41.0096744634211063385009765625</LatitudeDegrees>
              <LongitudeDegrees>-3.041166029870510101318359375</LongitudeDegrees>
            </Position>
            <AltitudeMeters>919.4000244140625</AltitudeMeters>
            <DistanceMeters>48750.642945717</DistanceMeters>
          </Trackpoint>
          <Trackpoint>
            <Time>2021-07-27T12:15:33.000Z</Time>
            <Position>
              <LatitudeDegrees>41.0098524950444698333740234375</LatitudeDegrees>
              <LongitudeDegrees>-3.04043521173298358917236328125</LongitudeDegrees>
            </Position>
            <AltitudeMeters>923.20001220703125</AltitudeMeters>
            <DistanceMeters>48815.14228872</DistanceMeters>
          </Trackpoint>
          <Trackpoint>
            <Time>2021-07-27T12:15:44.000Z</Time>
            <Position>
              <LatitudeDegrees>41.0100140981376171112060546875</LatitudeDegrees>
              <LongitudeDegrees>-3.03974856622517108917236328125</LongitudeDegrees>
            </Position>
            <AltitudeMeters>920</AltitudeMeters>
            <DistanceMeters>48875.55222924</DistanceMeters>
          </Trackpoint>
          <Trackpoint>
            <Time>2021-07-27T12:15:48.000Z</Time>
            <Position>
              <LatitudeDegrees>41.01007662713527679443359375</LatitudeDegrees>
              <LongitudeDegrees>-3.0395101010799407958984375</LongitudeDegrees>
            </Position>
            <AltitudeMeters>920</AltitudeMeters>
            <DistanceMeters>48896.755327736</DistanceMeters>
          </Trackpoint>
          <Trackpoint>
            <Time>2021-07-27T12:15:59.000Z</Time>
            <Position>
              <LatitudeDegrees>41.01024518720805644989013671875</LatitudeDegrees>
              <LongitudeDegrees>-3.03889595903456211090087890625</LongitudeDegrees>
            </Position>
            <AltitudeMeters>922</AltitudeMeters>
            <DistanceMeters>48951.641790571</DistanceMeters>
          </Trackpoint>
          <Trackpoint>
            <Time>2021-07-27T12:16:09.000Z</Time>
            <Position>
              <LatitudeDegrees>41.01037661544978618621826171875</LatitudeDegrees>
              <LongitudeDegrees>-3.0383401550352573394775390625</LongitudeDegrees>
            </Position>
            <AltitudeMeters>925.5999755859375</AltitudeMeters>
            <DistanceMeters>49000.560708777</DistanceMeters>
          </Trackpoint>
          <Trackpoint>
            <Time>2021-07-27T12:16:21.000Z</Time>
            <Position>
              <LatitudeDegrees>41.01049773395061492919921875</LatitudeDegrees>
              <LongitudeDegrees>-3.0375802516937255859375</LongitudeDegrees>
            </Position>
            <AltitudeMeters>923.20001220703125</AltitudeMeters>
            <DistanceMeters>49065.791270639</DistanceMeters>
          </Trackpoint>
          <Trackpoint>
            <Time>2021-07-27T12:16:27.000Z</Time>
            <Position>
              <LatitudeDegrees>41.01053788326680660247802734375</LatitudeDegrees>
              <LongitudeDegrees>-3.0371579714119434356689453125</LongitudeDegrees>
            </Position>
            <AltitudeMeters>922.79998779296875</AltitudeMeters>
            <DistanceMeters>49101.537991572</DistanceMeters>
          </Trackpoint>
          <Trackpoint>
            <Time>2021-07-27T12:16:37.000Z</Time>
            <Position>
              <LatitudeDegrees>41.0105911083519458770751953125</LatitudeDegrees>
              <LongitudeDegrees>-3.03644358180463314056396484375</LongitudeDegrees>
            </Position>
            <AltitudeMeters>921.4000244140625</AltitudeMeters>
            <DistanceMeters>49161.829352831</DistanceMeters>
          </Trackpoint>
          <Trackpoint>
            <Time>2021-07-27T12:16:44.000Z</Time>
            <Position>
              <LatitudeDegrees>41.01061885245144367218017578125</LatitudeDegrees>
              <LongitudeDegrees>-3.03594619967043399810791015625</LongitudeDegrees>
            </Position>
            <AltitudeMeters>921.20001220703125</AltitudeMeters>
            <DistanceMeters>49203.71705954</DistanceMeters>
          </Trackpoint>
          <Trackpoint>
            <Time>2021-07-27T12:16:55.000Z</Time>
            <Position>
              <LatitudeDegrees>41.0106430761516094207763671875</LatitudeDegrees>
              <LongitudeDegrees>-3.0352240987122058868408203125</LongitudeDegrees>
            </Position>
            <AltitudeMeters>921.4000244140625</AltitudeMeters>
            <DistanceMeters>49264.424182667</DistanceMeters>
          </Trackpoint>
          <Trackpoint>
            <Time>2021-07-27T12:16:59.000Z</Time>
            <Position>
              <LatitudeDegrees>41.01064114831387996673583984375</LatitudeDegrees>
              <LongitudeDegrees>-3.03497205488383769989013671875</LongitudeDegrees>
            </Position>
            <AltitudeMeters>924.5999755859375</AltitudeMeters>
            <DistanceMeters>49285.594036089</DistanceMeters>
          </Trackpoint>
          <Trackpoint>
            <Time>2021-07-27T12:17:11.000Z</Time>
            <Position>
              <LatitudeDegrees>41.0105790384113788604736328125</LatitudeDegrees>
              <LongitudeDegrees>-3.0342132411897182464599609375</LongitudeDegrees>
            </Position>
            <AltitudeMeters>923.20001220703125</AltitudeMeters>
            <DistanceMeters>49349.698482876</DistanceMeters>
          </Trackpoint>
          <Trackpoint>
            <Time>2021-07-27T12:17:23.000Z</Time>
            <Position>
              <LatitudeDegrees>41.0105227120220661163330078125</LatitudeDegrees>
              <LongitudeDegrees>-3.0334665812551975250244140625</LongitudeDegrees>
            </Position>
            <AltitudeMeters>925.4000244140625</AltitudeMeters>
            <DistanceMeters>49412.720899074</DistanceMeters>
          </Trackpoint>
          <Trackpoint>
            <Time>2021-07-27T12:17:36.000Z</Time>
            <Position>
              <LatitudeDegrees>41.010426990687847137451171875</LatitudeDegrees>
              <LongitudeDegrees>-3.03270944394171237945556640625</LongitudeDegrees>
            </Position>
            <AltitudeMeters>925.79998779296875</AltitudeMeters>
            <DistanceMeters>49477.197207535</DistanceMeters>
          </Trackpoint>
          <Trackpoint>
            <Time>2021-07-27T12:17:48.000Z</Time>
            <Position>
              <LatitudeDegrees>41.010304279625415802001953125</LatitudeDegrees>
              <LongitudeDegrees>-3.03195456974208354949951171875</LongitudeDegrees>
            </Position>
            <AltitudeMeters>924.5999755859375</AltitudeMeters>
            <DistanceMeters>49542.051669577</DistanceMeters>
          </Trackpoint>
          <Trackpoint>
            <Time>2021-07-27T12:17:59.000Z</Time>
            <Position>
              <LatitudeDegrees>41.01018123328685760498046875</LatitudeDegrees>
              <LongitudeDegrees>-3.0312426947057247161865234375</LongitudeDegrees>
            </Position>
            <AltitudeMeters>925.79998779296875</AltitudeMeters>
            <DistanceMeters>49603.388892609</DistanceMeters>
          </Trackpoint>
          <Trackpoint>
            <Time>2021-07-27T12:18:01.000Z</Time>
            <Position>
              <LatitudeDegrees>41.01016103290021419525146484375</LatitudeDegrees>
              <LongitudeDegrees>-3.031115792691707611083984375</LongitudeDegrees>
            </Position>
            <AltitudeMeters>926.4000244140625</AltitudeMeters>
            <DistanceMeters>49614.281789582</DistanceMeters>
          </Trackpoint>
          <Trackpoint>
            <Time>2021-07-27T12:18:13.000Z</Time>
            <Position>
              <LatitudeDegrees>41.01011174730956554412841796875</LatitudeDegrees>
              <LongitudeDegrees>-3.03035547025501728057861328125</LongitudeDegrees>
            </Position>
            <AltitudeMeters>928.20001220703125</AltitudeMeters>
            <DistanceMeters>49678.374684394</DistanceMeters>
          </Trackpoint>
          <Trackpoint>
            <Time>2021-07-27T12:18:24.000Z</Time>
            <Position>
              <LatitudeDegrees>41.01008676923811435699462890625</LatitudeDegrees>
              <LongitudeDegrees>-3.02960277535021305084228515625</LongitudeDegrees>
            </Position>
            <AltitudeMeters>926.20001220703125</AltitudeMeters>
            <DistanceMeters>49741.652987051</DistanceMeters>
          </Trackpoint>
          <Trackpoint>
            <Time>2021-07-27T12:18:34.000Z</Time>
            <Position>
              <LatitudeDegrees>41.01005894131958484649658203125</LatitudeDegrees>
              <LongitudeDegrees>-3.0288863740861415863037109375</LongitudeDegrees>
            </Position>
            <AltitudeMeters>924</AltitudeMeters>
            <DistanceMeters>49801.901647607</DistanceMeters>
          </Trackpoint>
          <Trackpoint>
            <Time>2021-07-27T12:18:41.000Z</Time>
            <Position>
              <LatitudeDegrees>41.01003505289554595947265625</LatitudeDegrees>
              <LongitudeDegrees>-3.0283821187913417816162109375</LongitudeDegrees>
            </Position>
            <AltitudeMeters>920.5999755859375</AltitudeMeters>
            <DistanceMeters>49844.336369285</DistanceMeters>
          </Trackpoint>
          <Trackpoint>
            <Time>2021-07-27T12:18:42.000Z</Time>
            <Position>
              <LatitudeDegrees>41.0100241564214229583740234375</LatitudeDegrees>
              <LongitudeDegrees>-3.02831229753792285919189453125</LongitudeDegrees>
            </Position>
            <AltitudeMeters>919.79998779296875</AltitudeMeters>
            <DistanceMeters>49850.325314404</DistanceMeters>
          </Trackpoint>
          <Trackpoint>
            <Time>2021-07-27T12:18:49.000Z</Time>
            <Position>
              <LatitudeDegrees>41.00982927717268466949462890625</LatitudeDegrees>
              <LongitudeDegrees>-3.02788414992392063140869140625</LongitudeDegrees>
            </Position>
            <AltitudeMeters>921.20001220703125</AltitudeMeters>
            <DistanceMeters>49892.319811772</DistanceMeters>
          </Trackpoint>
          <Trackpoint>
            <Time>2021-07-27T12:18:50.000Z</Time>
            <Position>
              <LatitudeDegrees>41.00979055278003215789794921875</LatitudeDegrees>
              <LongitudeDegrees>-3.0278305895626544952392578125</LongitudeDegrees>
            </Position>
            <AltitudeMeters>921.4000244140625</AltitudeMeters>
            <DistanceMeters>49898.549680836</DistanceMeters>
          </Trackpoint>
          <Trackpoint>
            <Time>2021-07-27T12:18:58.000Z</Time>
            <Position>
              <LatitudeDegrees>41.00944907404482364654541015625</LatitudeDegrees>
              <LongitudeDegrees>-3.02742834202945232391357421875</LongitudeDegrees>
            </Position>
            <AltitudeMeters>921.5999755859375</AltitudeMeters>
            <DistanceMeters>49949.40167127</DistanceMeters>
          </Trackpoint>
          <Trackpoint>
            <Time>2021-07-27T12:19:08.000Z</Time>
            <Position>
              <LatitudeDegrees>41.0090371035039424896240234375</LatitudeDegrees>
              <LongitudeDegrees>-3.0269598774611949920654296875</LongitudeDegrees>
            </Position>
            <AltitudeMeters>927</AltitudeMeters>
            <DistanceMeters>50009.821925028</DistanceMeters>
          </Trackpoint>
          <Trackpoint>
            <Time>2021-07-27T12:19:14.000Z</Time>
            <Position>
              <LatitudeDegrees>41.00879562087357044219970703125</LatitudeDegrees>
              <LongitudeDegrees>-3.0267013795673847198486328125</LongitudeDegrees>
            </Position>
            <AltitudeMeters>937.5999755859375</AltitudeMeters>
            <DistanceMeters>50044.37299022</DistanceMeters>
          </Trackpoint>
          <Trackpoint>
            <Time>2021-07-27T12:19:22.000Z</Time>
            <Position>
              <LatitudeDegrees>41.008566208183765411376953125</LatitudeDegrees>
              <LongitudeDegrees>-3.02629242651164531707763671875</LongitudeDegrees>
            </Position>
            <AltitudeMeters>929</AltitudeMeters>
            <DistanceMeters>50087.171950566</DistanceMeters>
          </Trackpoint>
          <Trackpoint>
            <Time>2021-07-27T12:19:34.000Z</Time>
            <Position>
              <LatitudeDegrees>41.00848071277141571044921875</LatitudeDegrees>
              <LongitudeDegrees>-3.0255854129791259765625</LongitudeDegrees>
            </Position>
            <AltitudeMeters>915.20001220703125</AltitudeMeters>
            <DistanceMeters>50147.311474488</DistanceMeters>
          </Trackpoint>
          <Trackpoint>
            <Time>2021-07-27T12:19:47.000Z</Time>
            <Position>
              <LatitudeDegrees>41.008567549288272857666015625</LatitudeDegrees>
              <LongitudeDegrees>-3.02483615465462207794189453125</LongitudeDegrees>
            </Position>
            <AltitudeMeters>907.4000244140625</AltitudeMeters>
            <DistanceMeters>50210.979444032</DistanceMeters>
          </Trackpoint>
          <Trackpoint>
            <Time>2021-07-27T12:19:52.000Z</Time>
            <Position>
              <LatitudeDegrees>41.00861004553735256195068359375</LatitudeDegrees>
              <LongitudeDegrees>-3.0245817638933658599853515625</LongitudeDegrees>
            </Position>
            <AltitudeMeters>908.5999755859375</AltitudeMeters>
            <DistanceMeters>50232.862839883</DistanceMeters>
          </Trackpoint>
          <Trackpoint>
            <Time>2021-07-27T12:19:57.000Z</Time>
            <Position>
              <LatitudeDegrees>41.0086468420922756195068359375</LatitudeDegrees>
              <LongitudeDegrees>-3.02436861209571361541748046875</LongitudeDegrees>
            </Position>
            <AltitudeMeters>910.20001220703125</AltitudeMeters>
            <DistanceMeters>50251.227843427</DistanceMeters>
          </Trackpoint>
          <Trackpoint>
            <Time>2021-07-27T12:20:02.000Z</Time>
            <Position>
              <LatitudeDegrees>41.0085613466799259185791015625</LatitudeDegrees>
              <LongitudeDegrees>-3.02434279583394527435302734375</LongitudeDegrees>
            </Position>
            <AltitudeMeters>912.20001220703125</AltitudeMeters>
            <DistanceMeters>50260.987415464</DistanceMeters>
          </Trackpoint>
          <Trackpoint>
            <Time>2021-07-27T12:20:04.000Z</Time>
            <Position>
              <LatitudeDegrees>41.0085519589483737945556640625</LatitudeDegrees>
              <LongitudeDegrees>-3.02434966899454593658447265625</LongitudeDegrees>
            </Position>
            <AltitudeMeters>912.20001220703125</AltitudeMeters>
            <DistanceMeters>50262.181882742</DistanceMeters>
          </Trackpoint>
          <Trackpoint>
            <Time>2021-07-27T12:21:15.000Z</Time>
            <Position>
              <LatitudeDegrees>41.008569560945034027099609375</LatitudeDegrees>
              <LongitudeDegrees>-3.02432636730372905731201171875</LongitudeDegrees>
            </Position>
            <AltitudeMeters>912.20001220703125</AltitudeMeters>
            <DistanceMeters>50264.949102434</DistanceMeters>
          </Trackpoint>
          <Trackpoint>
            <Time>2021-07-27T12:21:36.000Z</Time>
            <Position>
              <LatitudeDegrees>41.00900097750127315521240234375</LatitudeDegrees>
              <LongitudeDegrees>-3.0238924361765384674072265625</LongitudeDegrees>
            </Position>
            <AltitudeMeters>913</AltitudeMeters>
            <DistanceMeters>50325.231551483</DistanceMeters>
          </Trackpoint>
          <Trackpoint>
            <Time>2021-07-27T12:21:50.000Z</Time>
            <Position>
              <LatitudeDegrees>41.0094615630805492401123046875</LatitudeDegrees>
              <LongitudeDegrees>-3.023493625223636627197265625</LongitudeDegrees>
            </Position>
            <AltitudeMeters>915.20001220703125</AltitudeMeters>
            <DistanceMeters>50386.46850924</DistanceMeters>
          </Trackpoint>
          <Trackpoint>
            <Time>2021-07-27T12:22:04.000Z</Time>
            <Position>
              <LatitudeDegrees>41.0098930634558200836181640625</LatitudeDegrees>
              <LongitudeDegrees>-3.022982664406299591064453125</LongitudeDegrees>
            </Position>
            <AltitudeMeters>913.5999755859375</AltitudeMeters>
            <DistanceMeters>50450.875454339</DistanceMeters>
          </Trackpoint>
          <Trackpoint>
            <Time>2021-07-27T12:22:17.000Z</Time>
            <Position>
              <LatitudeDegrees>41.01031710393726825714111328125</LatitudeDegrees>
              <LongitudeDegrees>-3.02253213711082935333251953125</LongitudeDegrees>
            </Position>
            <AltitudeMeters>921</AltitudeMeters>
            <DistanceMeters>50511.367478339</DistanceMeters>
          </Trackpoint>
          <Trackpoint>
            <Time>2021-07-27T12:22:18.000Z</Time>
            <Position>
              <LatitudeDegrees>41.01035515777766704559326171875</LatitudeDegrees>
              <LongitudeDegrees>-3.02250732667744159698486328125</LongitudeDegrees>
            </Position>
            <AltitudeMeters>921.20001220703125</AltitudeMeters>
            <DistanceMeters>50516.088307574</DistanceMeters>
          </Trackpoint>
          <Trackpoint>
            <Time>2021-07-27T12:22:27.000Z</Time>
            <Position>
              <LatitudeDegrees>41.0107035934925079345703125</LatitudeDegrees>
              <LongitudeDegrees>-3.02230414934456348419189453125</LongitudeDegrees>
            </Position>
            <AltitudeMeters>920.5999755859375</AltitudeMeters>
            <DistanceMeters>50558.458075772</DistanceMeters>
          </Trackpoint>
          <Trackpoint>
            <Time>2021-07-27T12:22:28.000Z</Time>
            <Position>
              <LatitudeDegrees>41.0107406415045261383056640625</LatitudeDegrees>
              <LongitudeDegrees>-3.0222743935883045196533203125</LongitudeDegrees>
            </Position>
            <AltitudeMeters>920.4000244140625</AltitudeMeters>
            <DistanceMeters>50563.280154872</DistanceMeters>
          </Trackpoint>
          <Trackpoint>
            <Time>2021-07-27T12:22:41.000Z</Time>
            <Position>
              <LatitudeDegrees>41.0111771710216999053955078125</LatitudeDegrees>
              <LongitudeDegrees>-3.02177307195961475372314453125</LongitudeDegrees>
            </Position>
            <AltitudeMeters>919.79998779296875</AltitudeMeters>
            <DistanceMeters>50627.571889889</DistanceMeters>
          </Trackpoint>
          <Trackpoint>
            <Time>2021-07-27T12:22:42.000Z</Time>
            <Position>
              <LatitudeDegrees>41.01120944134891033172607421875</LatitudeDegrees>
              <LongitudeDegrees>-3.02173250354826450347900390625</LongitudeDegrees>
            </Position>
            <AltitudeMeters>919.79998779296875</AltitudeMeters>
            <DistanceMeters>50632.522407788</DistanceMeters>
          </Trackpoint>
          <Trackpoint>
            <Time>2021-07-27T12:22:55.000Z</Time>
            <Position>
              <LatitudeDegrees>41.011620573699474334716796875</LatitudeDegrees>
              <LongitudeDegrees>-3.0211944691836833953857421875</LongitudeDegrees>
            </Position>
            <AltitudeMeters>921.79998779296875</AltitudeMeters>
            <DistanceMeters>50696.833101394</DistanceMeters>
          </Trackpoint>
          <Trackpoint>
            <Time>2021-07-27T12:23:06.000Z</Time>
            <Position>
              <LatitudeDegrees>41.01200723089277744293212890625</LatitudeDegrees>
              <LongitudeDegrees>-3.02068962715566158294677734375</LongitudeDegrees>
            </Position>
            <AltitudeMeters>920.79998779296875</AltitudeMeters>
            <DistanceMeters>50757.246554592</DistanceMeters>
          </Trackpoint>
          <Trackpoint>
            <Time>2021-07-27T12:23:16.000Z</Time>
            <Position>
              <LatitudeDegrees>41.01239128969609737396240234375</LatitudeDegrees>
              <LongitudeDegrees>-3.020186461508274078369140625</LongitudeDegrees>
            </Position>
            <AltitudeMeters>920</AltitudeMeters>
            <DistanceMeters>50817.355064107</DistanceMeters>
          </Trackpoint>
          <Trackpoint>
            <Time>2021-07-27T12:23:26.000Z</Time>
            <Position>
              <LatitudeDegrees>41.0127921961247920989990234375</LatitudeDegrees>
              <LongitudeDegrees>-3.01967457868158817291259765625</LongitudeDegrees>
            </Position>
            <AltitudeMeters>921</AltitudeMeters>
            <DistanceMeters>50879.316854117</DistanceMeters>
          </Trackpoint>
          <Trackpoint>
            <Time>2021-07-27T12:23:28.000Z</Time>
            <Position>
              <LatitudeDegrees>41.01287090219557285308837890625</LatitudeDegrees>
              <LongitudeDegrees>-3.01957818679511547088623046875</LongitudeDegrees>
            </Position>
            <AltitudeMeters>921.4000244140625</AltitudeMeters>
            <DistanceMeters>50891.244883478</DistanceMeters>
          </Trackpoint>
          <Trackpoint>
            <Time>2021-07-27T12:23:39.000Z</Time>
            <Position>
              <LatitudeDegrees>41.01330592297017574310302734375</LatitudeDegrees>
              <LongitudeDegrees>-3.01906068809330463409423828125</LongitudeDegrees>
            </Position>
            <AltitudeMeters>924.20001220703125</AltitudeMeters>
            <DistanceMeters>50956.308558265</DistanceMeters>
          </Trackpoint>
          <Trackpoint>
            <Time>2021-07-27T12:23:50.000Z</Time>
            <Position>
              <LatitudeDegrees>41.01376793347299098968505859375</LatitudeDegrees>
              <LongitudeDegrees>-3.01865785382688045501708984375</LongitudeDegrees>
            </Position>
            <AltitudeMeters>922.5999755859375</AltitudeMeters>
            <DistanceMeters>51017.862181266</DistanceMeters>
          </Trackpoint>
          <Trackpoint>
            <Time>2021-07-27T12:24:00.000Z</Time>
            <Position>
              <LatitudeDegrees>41.0141725279390811920166015625</LatitudeDegrees>
              <LongitudeDegrees>-3.01834068261086940765380859375</LongitudeDegrees>
            </Position>
            <AltitudeMeters>920.79998779296875</AltitudeMeters>
            <DistanceMeters>51070.182564709</DistanceMeters>
          </Trackpoint>
          <Trackpoint>
            <Time>2021-07-27T12:24:12.000Z</Time>
            <Position>
              <LatitudeDegrees>41.01467753760516643524169921875</LatitudeDegrees>
              <LongitudeDegrees>-3.01796198822557926177978515625</LongitudeDegrees>
            </Position>
            <AltitudeMeters>922.79998779296875</AltitudeMeters>
            <DistanceMeters>51134.764875898</DistanceMeters>
          </Trackpoint>
          <Trackpoint>
            <Time>2021-07-27T12:24:20.000Z</Time>
            <Position>
              <LatitudeDegrees>41.01500250399112701416015625</LatitudeDegrees>
              <LongitudeDegrees>-3.01771991886198520660400390625</LongitudeDegrees>
            </Position>
            <AltitudeMeters>923.79998779296875</AltitudeMeters>
            <DistanceMeters>51176.255981371</DistanceMeters>
          </Trackpoint>
          <Trackpoint>
            <Time>2021-07-27T12:24:32.000Z</Time>
            <Position>
              <LatitudeDegrees>41.01547583006322383880615234375</LatitudeDegrees>
              <LongitudeDegrees>-3.0173676274716854095458984375</LongitudeDegrees>
            </Position>
            <AltitudeMeters>925.4000244140625</AltitudeMeters>
            <DistanceMeters>51236.677281301</DistanceMeters>
          </Trackpoint>
          <Trackpoint>
            <Time>2021-07-27T12:24:44.000Z</Time>
            <Position>
              <LatitudeDegrees>41.015974469482898712158203125</LatitudeDegrees>
              <LongitudeDegrees>-3.0169924534857273101806640625</LongitudeDegrees>
            </Position>
            <AltitudeMeters>922.4000244140625</AltitudeMeters>
            <DistanceMeters>51300.496758574</DistanceMeters>
          </Trackpoint>
          <Trackpoint>
            <Time>2021-07-27T12:24:48.000Z</Time>
            <Position>
              <LatitudeDegrees>41.016155183315277099609375</LatitudeDegrees>
              <LongitudeDegrees>-3.01686261780560016632080078125</LongitudeDegrees>
            </Position>
            <AltitudeMeters>919.79998779296875</AltitudeMeters>
            <DistanceMeters>51323.376105186</DistanceMeters>
          </Trackpoint>
          <Trackpoint>
            <Time>2021-07-27T12:24:53.000Z</Time>
            <Position>
              <LatitudeDegrees>41.01639247499406337738037109375</LatitudeDegrees>
              <LongitudeDegrees>-3.01670671440660953521728515625</LongitudeDegrees>
            </Position>
            <AltitudeMeters>918.4000244140625</AltitudeMeters>
            <DistanceMeters>51352.854304863</DistanceMeters>
          </Trackpoint>
          <Trackpoint>
            <Time>2021-07-27T12:25:01.000Z</Time>
            <Position>
              <LatitudeDegrees>41.01678826846182346343994140625</LatitudeDegrees>
              <LongitudeDegrees>-3.01647537387907505035400390625</LongitudeDegrees>
            </Position>
            <AltitudeMeters>919.5999755859375</AltitudeMeters>
            <DistanceMeters>51401.000694173</DistanceMeters>
          </Trackpoint>
          <Trackpoint>
            <Time>2021-07-27T12:25:07.000Z</Time>
            <Position>
              <LatitudeDegrees>41.017079539597034454345703125</LatitudeDegrees>
              <LongitudeDegrees>-3.016312681138515472412109375</LongitudeDegrees>
            </Position>
            <AltitudeMeters>922.79998779296875</AltitudeMeters>
            <DistanceMeters>51436.181247146</DistanceMeters>
          </Trackpoint>
          <Trackpoint>
            <Time>2021-07-27T12:25:18.000Z</Time>
            <Position>
              <LatitudeDegrees>41.0176231898367404937744140625</LatitudeDegrees>
              <LongitudeDegrees>-3.01600514911115169525146484375</LongitudeDegrees>
            </Position>
            <AltitudeMeters>924.79998779296875</AltitudeMeters>
            <DistanceMeters>51501.971653072</DistanceMeters>
          </Trackpoint>
          <Trackpoint>
            <Time>2021-07-27T12:25:28.000Z</Time>
            <Position>
              <LatitudeDegrees>41.01803549565374851226806640625</LatitudeDegrees>
              <LongitudeDegrees>-3.01554950885474681854248046875</LongitudeDegrees>
            </Position>
            <AltitudeMeters>924.20001220703125</AltitudeMeters>
            <DistanceMeters>51561.72147083</DistanceMeters>
          </Trackpoint>
          <Trackpoint>
            <Time>2021-07-27T12:25:39.000Z</Time>
            <Position>
              <LatitudeDegrees>41.01833372376859188079833984375</LatitudeDegrees>
              <LongitudeDegrees>-3.014900498092174530029296875</LongitudeDegrees>
            </Position>
            <AltitudeMeters>922.4000244140625</AltitudeMeters>
            <DistanceMeters>51625.535995618</DistanceMeters>
          </Trackpoint>
          <Trackpoint>
            <Time>2021-07-27T12:25:51.000Z</Time>
            <Position>
              <LatitudeDegrees>41.01867671124637126922607421875</LatitudeDegrees>
              <LongitudeDegrees>-3.0142787285149097442626953125</LongitudeDegrees>
            </Position>
            <AltitudeMeters>924.79998779296875</AltitudeMeters>
            <DistanceMeters>51690.217434973</DistanceMeters>
          </Trackpoint>
          <Trackpoint>
            <Time>2021-07-27T12:26:03.000Z</Time>
            <Position>
              <LatitudeDegrees>41.01912648417055606842041015625</LatitudeDegrees>
              <LongitudeDegrees>-3.01390078850090503692626953125</LongitudeDegrees>
            </Position>
            <AltitudeMeters>926.79998779296875</AltitudeMeters>
            <DistanceMeters>51749.491105033</DistanceMeters>
          </Trackpoint>
          <Trackpoint>
            <Time>2021-07-27T12:26:16.000Z</Time>
            <Position>
              <LatitudeDegrees>41.019641049206256866455078125</LatitudeDegrees>
              <LongitudeDegrees>-3.01355277188122272491455078125</LongitudeDegrees>
            </Position>
            <AltitudeMeters>928</AltitudeMeters>
            <DistanceMeters>51813.788879318</DistanceMeters>
          </Trackpoint>
          <Trackpoint>
            <Time>2021-07-27T12:26:21.000Z</Time>
            <Position>
              <LatitudeDegrees>41.01983475498855113983154296875</LatitudeDegrees>
              <LongitudeDegrees>-3.01343089900910854339599609375</LongitudeDegrees>
            </Position>
            <AltitudeMeters>928.4000244140625</AltitudeMeters>
            <DistanceMeters>51837.65439925</DistanceMeters>
          </Trackpoint>
          <Trackpoint>
            <Time>2021-07-27T12:26:30.000Z</Time>
            <Position>
              <LatitudeDegrees>41.0201766528189182281494140625</LatitudeDegrees>
              <LongitudeDegrees>-3.01321028731763362884521484375</LongitudeDegrees>
            </Position>
            <AltitudeMeters>927.20001220703125</AltitudeMeters>
            <DistanceMeters>51879.978213992</DistanceMeters>
          </Trackpoint>
          <Trackpoint>
            <Time>2021-07-27T12:26:40.000Z</Time>
            <Position>
              <LatitudeDegrees>41.0205250047147274017333984375</LatitudeDegrees>
              <LongitudeDegrees>-3.01296855323016643524169921875</LongitudeDegrees>
            </Position>
            <AltitudeMeters>930.5999755859375</AltitudeMeters>
            <DistanceMeters>51923.74294242</DistanceMeters>
          </Trackpoint>
          <Trackpoint>
            <Time>2021-07-27T12:26:52.000Z</Time>
            <Position>
              <LatitudeDegrees>41.0208938084542751312255859375</LatitudeDegrees>
              <LongitudeDegrees>-3.01264886744320392608642578125</LongitudeDegrees>
            </Position>
            <AltitudeMeters>932</AltitudeMeters>
            <DistanceMeters>51972.790445058</DistanceMeters>
          </Trackpoint>
          <Trackpoint>
            <Time>2021-07-27T12:27:05.000Z</Time>
            <Position>
              <LatitudeDegrees>41.02120083756744861602783203125</LatitudeDegrees>
              <LongitudeDegrees>-3.01218467764556407928466796875</LongitudeDegrees>
            </Position>
            <AltitudeMeters>931.79998779296875</AltitudeMeters>
            <DistanceMeters>52024.628889563</DistanceMeters>
          </Trackpoint>
          <Trackpoint>
            <Time>2021-07-27T12:27:21.000Z</Time>
            <Position>
              <LatitudeDegrees>41.02146905846893787384033203125</LatitudeDegrees>
              <LongitudeDegrees>-3.01154094748198986053466796875</LongitudeDegrees>
            </Position>
            <AltitudeMeters>931.5999755859375</AltitudeMeters>
            <DistanceMeters>52086.380901526</DistanceMeters>
          </Trackpoint>
          <Trackpoint>
            <Time>2021-07-27T12:27:37.000Z</Time>
            <Position>
              <LatitudeDegrees>41.021714396774768829345703125</LatitudeDegrees>
              <LongitudeDegrees>-3.0109021626412868499755859375</LongitudeDegrees>
            </Position>
            <AltitudeMeters>931.5999755859375</AltitudeMeters>
            <DistanceMeters>52146.572205636</DistanceMeters>
          </Trackpoint>
          <Trackpoint>
            <Time>2021-07-27T12:27:45.000Z</Time>
            <Position>
              <LatitudeDegrees>41.021836102008819580078125</LatitudeDegrees>
              <LongitudeDegrees>-3.01058557815849781036376953125</LongitudeDegrees>
            </Position>
            <AltitudeMeters>932.4000244140625</AltitudeMeters>
            <DistanceMeters>52176.408929421</DistanceMeters>
          </Trackpoint>
          <Trackpoint>
            <Time>2021-07-27T12:28:02.000Z</Time>
            <Position>
              <LatitudeDegrees>41.02208764292299747467041015625</LatitudeDegrees>
              <LongitudeDegrees>-3.0099261738359928131103515625</LongitudeDegrees>
            </Position>
            <AltitudeMeters>933.79998779296875</AltitudeMeters>
            <DistanceMeters>52238.456353148</DistanceMeters>
          </Trackpoint>
          <Trackpoint>
            <Time>2021-07-27T12:28:08.000Z</Time>
            <Position>
              <LatitudeDegrees>41.02217380888760089874267578125</LatitudeDegrees>
              <LongitudeDegrees>-3.00970346666872501373291015625</LongitudeDegrees>
            </Position>
            <AltitudeMeters>934.79998779296875</AltitudeMeters>
            <DistanceMeters>52259.473375281</DistanceMeters>
          </Trackpoint>
          <Trackpoint>
            <Time>2021-07-27T12:28:22.000Z</Time>
            <Position>
              <LatitudeDegrees>41.022358797490596771240234375</LatitudeDegrees>
              <LongitudeDegrees>-3.0092091858386993408203125</LongitudeDegrees>
            </Position>
            <AltitudeMeters>937</AltitudeMeters>
            <DistanceMeters>52305.805598653</DistanceMeters>
          </Trackpoint>
          <Trackpoint>
            <Time>2021-07-27T12:28:31.000Z</Time>
            <Position>
              <LatitudeDegrees>41.02247304283082485198974609375</LatitudeDegrees>
              <LongitudeDegrees>-3.00890685059130191802978515625</LongitudeDegrees>
            </Position>
            <AltitudeMeters>938</AltitudeMeters>
            <DistanceMeters>52334.199669955</DistanceMeters>
          </Trackpoint>
          <Trackpoint>
            <Time>2021-07-27T12:28:42.000Z</Time>
            <Position>
              <LatitudeDegrees>41.0226027108728885650634765625</LatitudeDegrees>
              <LongitudeDegrees>-3.00853888504207134246826171875</LongitudeDegrees>
            </Position>
            <AltitudeMeters>941.4000244140625</AltitudeMeters>
            <DistanceMeters>52368.302876485</DistanceMeters>
          </Trackpoint>
          <Trackpoint>
            <Time>2021-07-27T12:28:52.000Z</Time>
            <Position>
              <LatitudeDegrees>41.02270337752997875213623046875</LatitudeDegrees>
              <LongitudeDegrees>-3.0082048662006855010986328125</LongitudeDegrees>
            </Position>
            <AltitudeMeters>941.4000244140625</AltitudeMeters>
            <DistanceMeters>52398.506426651</DistanceMeters>
          </Trackpoint>
          <Trackpoint>
            <Time>2021-07-27T12:29:02.000Z</Time>
            <Position>
              <LatitudeDegrees>41.02279004640877246856689453125</LatitudeDegrees>
              <LongitudeDegrees>-3.0078679136931896209716796875</LongitudeDegrees>
            </Position>
            <AltitudeMeters>940</AltitudeMeters>
            <DistanceMeters>52428.400145474</DistanceMeters>
          </Trackpoint>
          <Trackpoint>
            <Time>2021-07-27T12:29:12.000Z</Time>
            <Position>
              <LatitudeDegrees>41.02287436835467815399169921875</LatitudeDegrees>
              <LongitudeDegrees>-3.00753188319504261016845703125</LongitudeDegrees>
            </Position>
            <AltitudeMeters>940</AltitudeMeters>
            <DistanceMeters>52458.136978961</DistanceMeters>
          </Trackpoint>
          <Trackpoint>
            <Time>2021-07-27T12:29:24.000Z</Time>
            <Position>
              <LatitudeDegrees>41.02297025732696056365966796875</LatitudeDegrees>
              <LongitudeDegrees>-3.00712368451058864593505859375</LongitudeDegrees>
            </Position>
            <AltitudeMeters>940.79998779296875</AltitudeMeters>
            <DistanceMeters>52494.037085653</DistanceMeters>
          </Trackpoint>
          <Trackpoint>
            <Time>2021-07-27T12:29:34.000Z</Time>
            <Position>
              <LatitudeDegrees>41.02304770611226558685302734375</LatitudeDegrees>
              <LongitudeDegrees>-3.00678153522312641143798828125</LongitudeDegrees>
            </Position>
            <AltitudeMeters>942</AltitudeMeters>
            <DistanceMeters>52524.033032327</DistanceMeters>
          </Trackpoint>
          <Trackpoint>
            <Time>2021-07-27T12:29:50.000Z</Time>
            <Position>
              <LatitudeDegrees>41.02317779324948787689208984375</LatitudeDegrees>
              <LongitudeDegrees>-3.0062069557607173919677734375</LongitudeDegrees>
            </Position>
            <AltitudeMeters>943.20001220703125</AltitudeMeters>
            <DistanceMeters>52574.40687198</DistanceMeters>
          </Trackpoint>
          <Trackpoint>
            <Time>2021-07-27T12:30:00.000Z</Time>
            <Position>
              <LatitudeDegrees>41.02326060645282268524169921875</LatitudeDegrees>
              <LongitudeDegrees>-3.00586908124387264251708984375</LongitudeDegrees>
            </Position>
            <AltitudeMeters>944.4000244140625</AltitudeMeters>
            <DistanceMeters>52604.238147572</DistanceMeters>
          </Trackpoint>
          <Trackpoint>
            <Time>2021-07-27T12:30:09.000Z</Time>
            <Position>
              <LatitudeDegrees>41.0233322717249393463134765625</LatitudeDegrees>
              <LongitudeDegrees>-3.00556029193103313446044921875</LongitudeDegrees>
            </Position>
            <AltitudeMeters>946</AltitudeMeters>
            <DistanceMeters>52631.366735082</DistanceMeters>
          </Trackpoint>
          <Trackpoint>
            <Time>2021-07-27T12:30:20.000Z</Time>
            <Position>
              <LatitudeDegrees>41.02341634221374988555908203125</LatitudeDegrees>
              <LongitudeDegrees>-3.005187548696994781494140625</LongitudeDegrees>
            </Position>
            <AltitudeMeters>948</AltitudeMeters>
            <DistanceMeters>52664.035200222</DistanceMeters>
          </Trackpoint>
          <Trackpoint>
            <Time>2021-07-27T12:30:28.000Z</Time>
            <Position>
              <LatitudeDegrees>41.02347920648753643035888671875</LatitudeDegrees>
              <LongitudeDegrees>-3.004927374422550201416015625</LongitudeDegrees>
            </Position>
            <AltitudeMeters>948</AltitudeMeters>
            <DistanceMeters>52686.975444227</DistanceMeters>
          </Trackpoint>
          <Trackpoint>
            <Time>2021-07-27T12:30:43.000Z</Time>
            <Position>
              <LatitudeDegrees>41.0236085392534732818603515625</LatitudeDegrees>
              <LongitudeDegrees>-3.004441224038600921630859375</LongitudeDegrees>
            </Position>
            <AltitudeMeters>948</AltitudeMeters>
            <DistanceMeters>52730.261546866</DistanceMeters>
          </Trackpoint>
          <Trackpoint>
            <Time>2021-07-27T12:30:49.000Z</Time>
            <Position>
              <LatitudeDegrees>41.02367299608886241912841796875</LatitudeDegrees>
              <LongitudeDegrees>-3.00424818880856037139892578125</LongitudeDegrees>
            </Position>
            <AltitudeMeters>948.20001220703125</AltitudeMeters>
            <DistanceMeters>52747.987531745</DistanceMeters>
          </Trackpoint>
          <Trackpoint>
            <Time>2021-07-27T12:31:00.000Z</Time>
            <Position>
              <LatitudeDegrees>41.02382571436464786529541015625</LatitudeDegrees>
              <LongitudeDegrees>-3.00391408614814281463623046875</LongitudeDegrees>
            </Position>
            <AltitudeMeters>950</AltitudeMeters>
            <DistanceMeters>52780.790059832</DistanceMeters>
          </Trackpoint>
          <Trackpoint>
            <Time>2021-07-27T12:31:04.000Z</Time>
            <Position>
              <LatitudeDegrees>41.0238925181329250335693359375</LatitudeDegrees>
              <LongitudeDegrees>-3.0038000084459781646728515625</LongitudeDegrees>
            </Position>
            <AltitudeMeters>951.20001220703125</AltitudeMeters>
            <DistanceMeters>52792.915930306</DistanceMeters>
          </Trackpoint>
          <Trackpoint>
            <Time>2021-07-27T12:31:16.000Z</Time>
            <Position>
              <LatitudeDegrees>41.0241211764514446258544921875</LatitudeDegrees>
              <LongitudeDegrees>-3.003461547195911407470703125</LongitudeDegrees>
            </Position>
            <AltitudeMeters>954</AltitudeMeters>
            <DistanceMeters>52831.066167933</DistanceMeters>
          </Trackpoint>
          <Trackpoint>
            <Time>2021-07-27T12:31:27.000Z</Time>
            <Position>
              <LatitudeDegrees>41.024335585534572601318359375</LatitudeDegrees>
              <LongitudeDegrees>-3.0031661689281463623046875</LongitudeDegrees>
            </Position>
            <AltitudeMeters>955</AltitudeMeters>
            <DistanceMeters>52865.485520759</DistanceMeters>
          </Trackpoint>
          <Trackpoint>
            <Time>2021-07-27T12:31:42.000Z</Time>
            <Position>
              <LatitudeDegrees>41.0246180556714534759521484375</LatitudeDegrees>
              <LongitudeDegrees>-3.0027703754603862762451171875</LongitudeDegrees>
            </Position>
            <AltitudeMeters>955.4000244140625</AltitudeMeters>
            <DistanceMeters>52911.234740624</DistanceMeters>
          </Trackpoint>
          <Trackpoint>
            <Time>2021-07-27T12:31:53.000Z</Time>
            <Position>
              <LatitudeDegrees>41.02479918859899044036865234375</LatitudeDegrees>
              <LongitudeDegrees>-3.00253191031515598297119140625</LongitudeDegrees>
            </Position>
            <AltitudeMeters>954.79998779296875</AltitudeMeters>
            <DistanceMeters>52939.649476149</DistanceMeters>
          </Trackpoint>
          <Trackpoint>
            <Time>2021-07-27T12:32:04.000Z</Time>
            <Position>
              <LatitudeDegrees>41.024965904653072357177734375</LatitudeDegrees>
              <LongitudeDegrees>-3.002333007752895355224609375</LongitudeDegrees>
            </Position>
            <AltitudeMeters>955.5999755859375</AltitudeMeters>
            <DistanceMeters>52964.614569303</DistanceMeters>
          </Trackpoint>
          <Trackpoint>
            <Time>2021-07-27T12:32:10.000Z</Time>
            <Position>
              <LatitudeDegrees>41.0250535793602466583251953125</LatitudeDegrees>
              <LongitudeDegrees>-3.00223837606608867645263671875</LongitudeDegrees>
            </Position>
            <AltitudeMeters>956.5999755859375</AltitudeMeters>
            <DistanceMeters>52977.199062963</DistanceMeters>
          </Trackpoint>
          <Trackpoint>
            <Time>2021-07-27T12:32:25.000Z</Time>
            <Position>
              <LatitudeDegrees>41.0252674855291843414306640625</LatitudeDegrees>
              <LongitudeDegrees>-3.00205799750983715057373046875</LongitudeDegrees>
            </Position>
            <AltitudeMeters>959</AltitudeMeters>
            <DistanceMeters>53005.416717375</DistanceMeters>
          </Trackpoint>
          <Trackpoint>
            <Time>2021-07-27T12:32:30.000Z</Time>
            <Position>
              <LatitudeDegrees>41.02534619159996509552001953125</LatitudeDegrees>
              <LongitudeDegrees>-3.00200334750115871429443359375</LongitudeDegrees>
            </Position>
            <AltitudeMeters>959.79998779296875</AltitudeMeters>
            <DistanceMeters>53015.30588963</DistanceMeters>
          </Trackpoint>
          <Trackpoint>
            <Time>2021-07-27T12:32:37.000Z</Time>
            <Position>
              <LatitudeDegrees>41.025457084178924560546875</LatitudeDegrees>
              <LongitudeDegrees>-3.00193428061902523040771484375</LongitudeDegrees>
            </Position>
            <AltitudeMeters>960.79998779296875</AltitudeMeters>
            <DistanceMeters>53028.943464724</DistanceMeters>
          </Trackpoint>
          <Trackpoint>
            <Time>2021-07-27T12:32:44.000Z</Time>
            <Position>
              <LatitudeDegrees>41.0255735926330089569091796875</LatitudeDegrees>
              <LongitudeDegrees>-3.00188449211418628692626953125</LongitudeDegrees>
            </Position>
            <AltitudeMeters>961.79998779296875</AltitudeMeters>
            <DistanceMeters>53042.56845322</DistanceMeters>
          </Trackpoint>
          <Trackpoint>
            <Time>2021-07-27T12:32:54.000Z</Time>
            <Position>
              <LatitudeDegrees>41.02574517019093036651611328125</LatitudeDegrees>
              <LongitudeDegrees>-3.00182732753455638885498046875</LongitudeDegrees>
            </Position>
            <AltitudeMeters>963.20001220703125</AltitudeMeters>
            <DistanceMeters>53062.259400946</DistanceMeters>
          </Trackpoint>
          <Trackpoint>
            <Time>2021-07-27T12:33:01.000Z</Time>
            <Position>
              <LatitudeDegrees>41.02586553432047367095947265625</LatitudeDegrees>
              <LongitudeDegrees>-3.00178726203739643096923828125</LongitudeDegrees>
            </Position>
            <AltitudeMeters>964.20001220703125</AltitudeMeters>
            <DistanceMeters>53076.071984163</DistanceMeters>
          </Trackpoint>
          <Trackpoint>
            <Time>2021-07-27T12:33:13.000Z</Time>
            <Position>
              <LatitudeDegrees>41.02607441134750843048095703125</LatitudeDegrees>
              <LongitudeDegrees>-3.00173110328614711761474609375</LongitudeDegrees>
            </Position>
            <AltitudeMeters>966</AltitudeMeters>
            <DistanceMeters>53099.794047813</DistanceMeters>
          </Trackpoint>
          <Trackpoint>
            <Time>2021-07-27T12:33:29.000Z</Time>
            <Position>
              <LatitudeDegrees>41.0263489186763763427734375</LatitudeDegrees>
              <LongitudeDegrees>-3.00166320987045764923095703125</LongitudeDegrees>
            </Position>
            <AltitudeMeters>967.79998779296875</AltitudeMeters>
            <DistanceMeters>53130.874611799</DistanceMeters>
          </Trackpoint>
          <Trackpoint>
            <Time>2021-07-27T12:33:38.000Z</Time>
            <Position>
              <LatitudeDegrees>41.02650691755115985870361328125</LatitudeDegrees>
              <LongitudeDegrees>-3.00162230618298053741455078125</LongitudeDegrees>
            </Position>
            <AltitudeMeters>968.5999755859375</AltitudeMeters>
            <DistanceMeters>53148.792376945</DistanceMeters>
          </Trackpoint>
          <Trackpoint>
            <Time>2021-07-27T12:33:47.000Z</Time>
            <Position>
              <LatitudeDegrees>41.0266672633588314056396484375</LatitudeDegrees>
              <LongitudeDegrees>-3.00158944912254810333251953125</LongitudeDegrees>
            </Position>
            <AltitudeMeters>969.79998779296875</AltitudeMeters>
            <DistanceMeters>53166.851453356</DistanceMeters>
          </Trackpoint>
          <Trackpoint>
            <Time>2021-07-27T12:33:57.000Z</Time>
            <Position>
              <LatitudeDegrees>41.026848144829273223876953125</LatitudeDegrees>
              <LongitudeDegrees>-3.001539744436740875244140625</LongitudeDegrees>
            </Position>
            <AltitudeMeters>971</AltitudeMeters>
            <DistanceMeters>53187.411949426</DistanceMeters>
          </Trackpoint>
          <Trackpoint>
            <Time>2021-07-27T12:34:08.000Z</Time>
            <Position>
              <LatitudeDegrees>41.0270481370389461517333984375</LatitudeDegrees>
              <LongitudeDegrees>-3.001496158540248870849609375</LongitudeDegrees>
            </Position>
            <AltitudeMeters>973.4000244140625</AltitudeMeters>
            <DistanceMeters>53209.970138579</DistanceMeters>
          </Trackpoint>
          <Trackpoint>
            <Time>2021-07-27T12:34:18.000Z</Time>
            <Position>
              <LatitudeDegrees>41.02722776122391223907470703125</LatitudeDegrees>
              <LongitudeDegrees>-3.00145559012889862060546875</LongitudeDegrees>
            </Position>
            <AltitudeMeters>974.5999755859375</AltitudeMeters>
            <DistanceMeters>53230.250718499</DistanceMeters>
          </Trackpoint>
          <Trackpoint>
            <Time>2021-07-27T12:34:26.000Z</Time>
            <Position>
              <LatitudeDegrees>41.0273676551878452301025390625</LatitudeDegrees>
              <LongitudeDegrees>-3.0014255829155445098876953125</LongitudeDegrees>
            </Position>
            <AltitudeMeters>975.20001220703125</AltitudeMeters>
            <DistanceMeters>53246.02343564</DistanceMeters>
          </Trackpoint>
          <Trackpoint>
            <Time>2021-07-27T12:34:37.000Z</Time>
            <Position>
              <LatitudeDegrees>41.02755926549434661865234375</LatitudeDegrees>
              <LongitudeDegrees>-3.00137755461037158966064453125</LongitudeDegrees>
            </Position>
            <AltitudeMeters>976.20001220703125</AltitudeMeters>
            <DistanceMeters>53267.727836759</DistanceMeters>
          </Trackpoint>
          <Trackpoint>
            <Time>2021-07-27T12:34:45.000Z</Time>
            <Position>
              <LatitudeDegrees>41.0277005843818187713623046875</LatitudeDegrees>
              <LongitudeDegrees>-3.00134385935962200164794921875</LongitudeDegrees>
            </Position>
            <AltitudeMeters>977</AltitudeMeters>
            <DistanceMeters>53283.709284821</DistanceMeters>
          </Trackpoint>
          <Trackpoint>
            <Time>2021-07-27T12:34:50.000Z</Time>
            <Position>
              <LatitudeDegrees>41.02779119275510311126708984375</LatitudeDegrees>
              <LongitudeDegrees>-3.00132173113524913787841796875</LongitudeDegrees>
            </Position>
            <AltitudeMeters>977.4000244140625</AltitudeMeters>
            <DistanceMeters>53293.963807734</DistanceMeters>
          </Trackpoint>
          <Trackpoint>
            <Time>2021-07-27T12:35:00.000Z</Time>
            <Position>
              <LatitudeDegrees>41.0279805399477481842041015625</LatitudeDegrees>
              <LongitudeDegrees>-3.00127613358199596405029296875</LongitudeDegrees>
            </Position>
            <AltitudeMeters>978.5999755859375</AltitudeMeters>
            <DistanceMeters>53315.383427805</DistanceMeters>
          </Trackpoint>
          <Trackpoint>
            <Time>2021-07-27T12:35:12.000Z</Time>
            <Position>
              <LatitudeDegrees>41.028214395046234130859375</LatitudeDegrees>
              <LongitudeDegrees>-3.00118996761739253997802734375</LongitudeDegrees>
            </Position>
            <AltitudeMeters>979.5999755859375</AltitudeMeters>
            <DistanceMeters>53342.398772303</DistanceMeters>
          </Trackpoint>
          <Trackpoint>
            <Time>2021-07-27T12:35:21.000Z</Time>
            <Position>
              <LatitudeDegrees>41.0283761657774448394775390625</LatitudeDegrees>
              <LongitudeDegrees>-3.0010903067886829376220703125</LongitudeDegrees>
            </Position>
            <AltitudeMeters>980.79998779296875</AltitudeMeters>
            <DistanceMeters>53362.253671377</DistanceMeters>
          </Trackpoint>
          <Trackpoint>
            <Time>2021-07-27T12:35:29.000Z</Time>
            <Position>
              <LatitudeDegrees>41.02851270698010921478271484375</LatitudeDegrees>
              <LongitudeDegrees>-3.0009937472641468048095703125</LongitudeDegrees>
            </Position>
            <AltitudeMeters>981.79998779296875</AltitudeMeters>
            <DistanceMeters>53379.478426575</DistanceMeters>
          </Trackpoint>
          <Trackpoint>
            <Time>2021-07-27T12:35:40.000Z</Time>
            <Position>
              <LatitudeDegrees>41.02868939749896526336669921875</LatitudeDegrees>
              <LongitudeDegrees>-3.00082753412425518035888671875</LongitudeDegrees>
            </Position>
            <AltitudeMeters>983</AltitudeMeters>
            <DistanceMeters>53403.593128789</DistanceMeters>
          </Trackpoint>
          <Trackpoint>
            <Time>2021-07-27T12:35:48.000Z</Time>
            <Position>
              <LatitudeDegrees>41.02881252765655517578125</LatitudeDegrees>
              <LongitudeDegrees>-3.0006765760481357574462890625</LongitudeDegrees>
            </Position>
            <AltitudeMeters>983.5999755859375</AltitudeMeters>
            <DistanceMeters>53422.260497376</DistanceMeters>
          </Trackpoint>
          <Trackpoint>
            <Time>2021-07-27T12:35:58.000Z</Time>
            <Position>
              <LatitudeDegrees>41.02895443327724933624267578125</LatitudeDegrees>
              <LongitudeDegrees>-3.0004705488681793212890625</LongitudeDegrees>
            </Position>
            <AltitudeMeters>983.4000244140625</AltitudeMeters>
            <DistanceMeters>53445.684919782</DistanceMeters>
          </Trackpoint>
          <Trackpoint>
            <Time>2021-07-27T12:36:09.000Z</Time>
            <Position>
              <LatitudeDegrees>41.02911117486655712127685546875</LatitudeDegrees>
              <LongitudeDegrees>-3.00021884031593799591064453125</LongitudeDegrees>
            </Position>
            <AltitudeMeters>984.20001220703125</AltitudeMeters>
            <DistanceMeters>53473.089543437</DistanceMeters>
          </Trackpoint>
          <Trackpoint>
            <Time>2021-07-27T12:36:19.000Z</Time>
            <Position>
              <LatitudeDegrees>41.029269509017467498779296875</LatitudeDegrees>
              <LongitudeDegrees>-2.99997459165751934051513671875</LongitudeDegrees>
            </Position>
            <AltitudeMeters>984.20001220703125</AltitudeMeters>
            <DistanceMeters>53500.129110731</DistanceMeters>
          </Trackpoint>
          <Trackpoint>
            <Time>2021-07-27T12:36:27.000Z</Time>
            <Position>
              <LatitudeDegrees>41.02938853204250335693359375</LatitudeDegrees>
              <LongitudeDegrees>-2.99975800327956676483154296875</LongitudeDegrees>
            </Position>
            <AltitudeMeters>991.79998779296875</AltitudeMeters>
            <DistanceMeters>53522.627977263</DistanceMeters>
          </Trackpoint>
          <Trackpoint>
            <Time>2021-07-27T12:36:34.000Z</Time>
            <Position>
              <LatitudeDegrees>41.029499508440494537353515625</LatitudeDegrees>
              <LongitudeDegrees>-2.99957108683884143829345703125</LongitudeDegrees>
            </Position>
            <AltitudeMeters>991.4000244140625</AltitudeMeters>
            <DistanceMeters>53542.599870931</DistanceMeters>
          </Trackpoint>
          <Trackpoint>
            <Time>2021-07-27T12:36:45.000Z</Time>
            <Position>
              <LatitudeDegrees>41.029684580862522125244140625</LatitudeDegrees>
              <LongitudeDegrees>-2.99927487038075923919677734375</LongitudeDegrees>
            </Position>
            <AltitudeMeters>991.4000244140625</AltitudeMeters>
            <DistanceMeters>53574.893857812</DistanceMeters>
          </Trackpoint>
          <Trackpoint>
            <Time>2021-07-27T12:37:05.000Z</Time>
            <Position>
              <LatitudeDegrees>41.03002597577869892120361328125</LatitudeDegrees>
              <LongitudeDegrees>-2.99870205111801624298095703125</LongitudeDegrees>
            </Position>
            <AltitudeMeters>995.20001220703125</AltitudeMeters>
            <DistanceMeters>53636.188372126</DistanceMeters>
          </Trackpoint>
          <Trackpoint>
            <Time>2021-07-27T12:37:22.000Z</Time>
            <Position>
              <LatitudeDegrees>41.03037583641707897186279296875</LatitudeDegrees>
              <LongitudeDegrees>-2.998117916285991668701171875</LongitudeDegrees>
            </Position>
            <AltitudeMeters>995.79998779296875</AltitudeMeters>
            <DistanceMeters>53698.812418863</DistanceMeters>
          </Trackpoint>
          <Trackpoint>
            <Time>2021-07-27T12:37:28.000Z</Time>
            <Position>
              <LatitudeDegrees>41.0305376909673213958740234375</LatitudeDegrees>
              <LongitudeDegrees>-2.99785614944994449615478515625</LongitudeDegrees>
            </Position>
            <AltitudeMeters>993.79998779296875</AltitudeMeters>
            <DistanceMeters>53727.230332166</DistanceMeters>
          </Trackpoint>
          <Trackpoint>
            <Time>2021-07-27T12:37:30.000Z</Time>
            <Position>
              <LatitudeDegrees>41.03060063906013965606689453125</LatitudeDegrees>
              <LongitudeDegrees>-2.99775280058383941650390625</LongitudeDegrees>
            </Position>
            <AltitudeMeters>992.79998779296875</AltitudeMeters>
            <DistanceMeters>53738.383327415</DistanceMeters>
          </Trackpoint>
          <Trackpoint>
            <Time>2021-07-27T12:37:33.000Z</Time>
            <Position>
              <LatitudeDegrees>41.03070725686848163604736328125</LatitudeDegrees>
              <LongitudeDegrees>-2.997580803930759429931640625</LongitudeDegrees>
            </Position>
            <AltitudeMeters>991</AltitudeMeters>
            <DistanceMeters>53757.074625592</DistanceMeters>
          </Trackpoint>
          <Trackpoint>
            <Time>2021-07-27T12:37:37.000Z</Time>
            <Position>
              <LatitudeDegrees>41.03086969815194606781005859375</LatitudeDegrees>
              <LongitudeDegrees>-2.99731316976249217987060546875</LongitudeDegrees>
            </Position>
            <AltitudeMeters>989</AltitudeMeters>
            <DistanceMeters>53785.91613356</DistanceMeters>
          </Trackpoint>
          <Trackpoint>
            <Time>2021-07-27T12:37:40.000Z</Time>
            <Position>
              <LatitudeDegrees>41.03101168759167194366455078125</LatitudeDegrees>
              <LongitudeDegrees>-2.99708224833011627197265625</LongitudeDegrees>
            </Position>
            <AltitudeMeters>986.5999755859375</AltitudeMeters>
            <DistanceMeters>53810.92964864</DistanceMeters>
          </Trackpoint>
          <Trackpoint>
            <Time>2021-07-27T12:37:43.000Z</Time>
            <Position>
              <LatitudeDegrees>41.03117245249450206756591796875</LatitudeDegrees>
              <LongitudeDegrees>-2.9968185536563396453857421875</LongitudeDegrees>
            </Position>
            <AltitudeMeters>982.5999755859375</AltitudeMeters>
            <DistanceMeters>53839.396454925</DistanceMeters>
          </Trackpoint>
          <Trackpoint>
            <Time>2021-07-27T12:37:45.000Z</Time>
            <Position>
              <LatitudeDegrees>41.03128912858664989471435546875</LatitudeDegrees>
              <LongitudeDegrees>-2.99661914817988872528076171875</LongitudeDegrees>
            </Position>
            <AltitudeMeters>979.20001220703125</AltitudeMeters>
            <DistanceMeters>53860.584642212</DistanceMeters>
          </Trackpoint>
          <Trackpoint>
            <Time>2021-07-27T12:37:47.000Z</Time>
            <Position>
              <LatitudeDegrees>41.03140060789883136749267578125</LatitudeDegrees>
              <LongitudeDegrees>-2.99639250151813030242919921875</LongitudeDegrees>
            </Position>
            <AltitudeMeters>975.5999755859375</AltitudeMeters>
            <DistanceMeters>53883.301791433</DistanceMeters>
          </Trackpoint>
          <Trackpoint>
            <Time>2021-07-27T12:37:49.000Z</Time>
            <Position>
              <LatitudeDegrees>41.0315019451081752777099609375</LatitudeDegrees>
              <LongitudeDegrees>-2.99613886512815952301025390625</LongitudeDegrees>
            </Position>
            <AltitudeMeters>972.5999755859375</AltitudeMeters>
            <DistanceMeters>53907.399824258</DistanceMeters>
          </Trackpoint>
          <Trackpoint>
            <Time>2021-07-27T12:37:50.000Z</Time>
            <Position>
              <LatitudeDegrees>41.03154913522303104400634765625</LatitudeDegrees>
              <LongitudeDegrees>-2.99600391648709774017333984375</LongitudeDegrees>
            </Position>
            <AltitudeMeters>971.79998779296875</AltitudeMeters>
            <DistanceMeters>53919.888156824</DistanceMeters>
          </Trackpoint>
          <Trackpoint>
            <Time>2021-07-27T12:37:51.000Z</Time>
            <Position>
              <LatitudeDegrees>41.03159221820533275604248046875</LatitudeDegrees>
              <LongitudeDegrees>-2.99586318433284759521484375</LongitudeDegrees>
            </Position>
            <AltitudeMeters>971.79998779296875</AltitudeMeters>
            <DistanceMeters>53932.639807169</DistanceMeters>
          </Trackpoint>
          <Trackpoint>
            <Time>2021-07-27T12:37:53.000Z</Time>
            <Position>
              <LatitudeDegrees>41.0316561721265316009521484375</LatitudeDegrees>
              <LongitudeDegrees>-2.9955656267702579498291015625</LongitudeDegrees>
            </Position>
            <AltitudeMeters>972</AltitudeMeters>
            <DistanceMeters>53958.617232806</DistanceMeters>
          </Trackpoint>
          <Trackpoint>
            <Time>2021-07-27T12:37:55.000Z</Time>
            <Position>
              <LatitudeDegrees>41.03170470334589481353759765625</LatitudeDegrees>
              <LongitudeDegrees>-2.9952536523342132568359375</LongitudeDegrees>
            </Position>
            <AltitudeMeters>971.20001220703125</AltitudeMeters>
            <DistanceMeters>53985.361808988</DistanceMeters>
          </Trackpoint>
          <Trackpoint>
            <Time>2021-07-27T12:37:57.000Z</Time>
            <Position>
              <LatitudeDegrees>41.03175960481166839599609375</LatitudeDegrees>
              <LongitudeDegrees>-2.9949336312711238861083984375</LongitudeDegrees>
            </Position>
            <AltitudeMeters>969.79998779296875</AltitudeMeters>
            <DistanceMeters>54012.916934604</DistanceMeters>
          </Trackpoint>
          <Trackpoint>
            <Time>2021-07-27T12:37:59.000Z</Time>
            <Position>
              <LatitudeDegrees>41.0318211279809474945068359375</LatitudeDegrees>
              <LongitudeDegrees>-2.99460816197097301483154296875</LongitudeDegrees>
            </Position>
            <AltitudeMeters>966.20001220703125</AltitudeMeters>
            <DistanceMeters>54041.088148606</DistanceMeters>
          </Trackpoint>
          <Trackpoint>
            <Time>2021-07-27T12:38:00.000Z</Time>
            <Position>
              <LatitudeDegrees>41.0318590141832828521728515625</LatitudeDegrees>
              <LongitudeDegrees>-2.994447648525238037109375</LongitudeDegrees>
            </Position>
            <AltitudeMeters>964.79998779296875</AltitudeMeters>
            <DistanceMeters>54055.209450887</DistanceMeters>
          </Trackpoint>
          <Trackpoint>
            <Time>2021-07-27T12:38:02.000Z</Time>
            <Position>
              <LatitudeDegrees>41.03195532225072383880615234375</LatitudeDegrees>
              <LongitudeDegrees>-2.9941383562982082366943359375</LongitudeDegrees>
            </Position>
            <AltitudeMeters>963.4000244140625</AltitudeMeters>
            <DistanceMeters>54083.30314718</DistanceMeters>
          </Trackpoint>
          <Trackpoint>
            <Time>2021-07-27T12:38:04.000Z</Time>
            <Position>
              <LatitudeDegrees>41.032071076333522796630859375</LatitudeDegrees>
              <LongitudeDegrees>-2.99384524114429950714111328125</LongitudeDegrees>
            </Position>
            <AltitudeMeters>962.4000244140625</AltitudeMeters>
            <DistanceMeters>54111.081521724</DistanceMeters>
          </Trackpoint>
          <Trackpoint>
            <Time>2021-07-27T12:38:09.000Z</Time>
            <Position>
              <LatitudeDegrees>41.03241146542131900787353515625</LatitudeDegrees>
              <LongitudeDegrees>-2.993197739124298095703125</LongitudeDegrees>
            </Position>
            <AltitudeMeters>965</AltitudeMeters>
            <DistanceMeters>54177.344583834</DistanceMeters>
          </Trackpoint>
          <Trackpoint>
            <Time>2021-07-27T12:38:13.000Z</Time>
            <Position>
              <LatitudeDegrees>41.03271715342998504638671875</LatitudeDegrees>
              <LongitudeDegrees>-2.99280412495136260986328125</LongitudeDegrees>
            </Position>
            <AltitudeMeters>969.79998779296875</AltitudeMeters>
            <DistanceMeters>54224.775957261</DistanceMeters>
          </Trackpoint>
          <Trackpoint>
            <Time>2021-07-27T12:38:15.000Z</Time>
            <Position>
              <LatitudeDegrees>41.0328648425638675689697265625</LatitudeDegrees>
              <LongitudeDegrees>-2.99263925291597843170166015625</LongitudeDegrees>
            </Position>
            <AltitudeMeters>970.5999755859375</AltitudeMeters>
            <DistanceMeters>54246.265865811</DistanceMeters>
          </Trackpoint>
          <Trackpoint>
            <Time>2021-07-27T12:38:17.000Z</Time>
            <Position>
              <LatitudeDegrees>41.03301219642162322998046875</LatitudeDegrees>
              <LongitudeDegrees>-2.99250237643718719482421875</LongitudeDegrees>
            </Position>
            <AltitudeMeters>971.20001220703125</AltitudeMeters>
            <DistanceMeters>54266.291942686</DistanceMeters>
          </Trackpoint>
          <Trackpoint>
            <Time>2021-07-27T12:38:21.000Z</Time>
            <Position>
              <LatitudeDegrees>41.033300198614597320556640625</LatitudeDegrees>
              <LongitudeDegrees>-2.99228318966925144195556640625</LongitudeDegrees>
            </Position>
            <AltitudeMeters>973.4000244140625</AltitudeMeters>
            <DistanceMeters>54303.253914434</DistanceMeters>
          </Trackpoint>
          <Trackpoint>
            <Time>2021-07-27T12:38:29.000Z</Time>
            <Position>
              <LatitudeDegrees>41.03383990935981273651123046875</LatitudeDegrees>
              <LongitudeDegrees>-2.99197926186025142669677734375</LongitudeDegrees>
            </Position>
            <AltitudeMeters>975.79998779296875</AltitudeMeters>
            <DistanceMeters>54368.51976722</DistanceMeters>
          </Trackpoint>
          <Trackpoint>
            <Time>2021-07-27T12:38:35.000Z</Time>
            <Position>
              <LatitudeDegrees>41.03419982828199863433837890625</LatitudeDegrees>
              <LongitudeDegrees>-2.99179201014339923858642578125</LongitudeDegrees>
            </Position>
            <AltitudeMeters>976</AltitudeMeters>
            <DistanceMeters>54411.553861</DistanceMeters>
          </Trackpoint>
          <Trackpoint>
            <Time>2021-07-27T12:38:44.000Z</Time>
            <Position>
              <LatitudeDegrees>41.0347147285938262939453125</LatitudeDegrees>
              <LongitudeDegrees>-2.991531081497669219970703125</LongitudeDegrees>
            </Position>
            <AltitudeMeters>972.5999755859375</AltitudeMeters>
            <DistanceMeters>54472.907570476</DistanceMeters>
          </Trackpoint>
          <Trackpoint>
            <Time>2021-07-27T12:38:54.000Z</Time>
            <Position>
              <LatitudeDegrees>41.03525879792869091033935546875</LatitudeDegrees>
              <LongitudeDegrees>-2.99122857861220836639404296875</LongitudeDegrees>
            </Position>
            <AltitudeMeters>972.79998779296875</AltitudeMeters>
            <DistanceMeters>54538.573574187</DistanceMeters>
          </Trackpoint>
          <Trackpoint>
            <Time>2021-07-27T12:39:04.000Z</Time>
            <Position>
              <LatitudeDegrees>41.03579473681747913360595703125</LatitudeDegrees>
              <LongitudeDegrees>-2.99092129804193973541259765625</LongitudeDegrees>
            </Position>
            <AltitudeMeters>972</AltitudeMeters>
            <DistanceMeters>54603.564066386</DistanceMeters>
          </Trackpoint>
          <Trackpoint>
            <Time>2021-07-27T12:39:14.000Z</Time>
            <Position>
              <LatitudeDegrees>41.0363349504768848419189453125</LatitudeDegrees>
              <LongitudeDegrees>-2.990605048835277557373046875</LongitudeDegrees>
            </Position>
            <AltitudeMeters>974.79998779296875</AltitudeMeters>
            <DistanceMeters>54669.292060212</DistanceMeters>
          </Trackpoint>
          <Trackpoint>
            <Time>2021-07-27T12:39:24.000Z</Time>
            <Position>
              <LatitudeDegrees>41.0368658602237701416015625</LatitudeDegrees>
              <LongitudeDegrees>-2.9902786575257778167724609375</LongitudeDegrees>
            </Position>
            <AltitudeMeters>970.5999755859375</AltitudeMeters>
            <DistanceMeters>54734.427656978</DistanceMeters>
          </Trackpoint>
          <Trackpoint>
            <Time>2021-07-27T12:39:34.000Z</Time>
            <Position>
              <LatitudeDegrees>41.03735896758735179901123046875</LatitudeDegrees>
              <LongitudeDegrees>-2.9899051599204540252685546875</LongitudeDegrees>
            </Position>
            <AltitudeMeters>971.5999755859375</AltitudeMeters>
            <DistanceMeters>54797.637210239</DistanceMeters>
          </Trackpoint>
          <Trackpoint>
            <Time>2021-07-27T12:39:44.000Z</Time>
            <Position>
              <LatitudeDegrees>41.0378205589950084686279296875</LatitudeDegrees>
              <LongitudeDegrees>-2.9894890822470188140869140625</LongitudeDegrees>
            </Position>
            <AltitudeMeters>975</AltitudeMeters>
            <DistanceMeters>54859.7634639</DistanceMeters>
          </Trackpoint>
          <Trackpoint>
            <Time>2021-07-27T12:39:45.000Z</Time>
            <Position>
              <LatitudeDegrees>41.03786489926278591156005859375</LatitudeDegrees>
              <LongitudeDegrees>-2.98944641835987567901611328125</LongitudeDegrees>
            </Position>
            <AltitudeMeters>975.20001220703125</AltitudeMeters>
            <DistanceMeters>54865.861484464</DistanceMeters>
          </Trackpoint>
          <Trackpoint>
            <Time>2021-07-27T12:39:56.000Z</Time>
            <Position>
              <LatitudeDegrees>41.0383288376033306121826171875</LatitudeDegrees>
              <LongitudeDegrees>-2.98897753469645977020263671875</LongitudeDegrees>
            </Position>
            <AltitudeMeters>970.79998779296875</AltitudeMeters>
            <DistanceMeters>54930.791507641</DistanceMeters>
          </Trackpoint>
          <Trackpoint>
            <Time>2021-07-27T12:40:03.000Z</Time>
            <Position>
              <LatitudeDegrees>41.03862061165273189544677734375</LatitudeDegrees>
              <LongitudeDegrees>-2.98870042897760868072509765625</LongitudeDegrees>
            </Position>
            <AltitudeMeters>971</AltitudeMeters>
            <DistanceMeters>54970.739137975</DistanceMeters>
          </Trackpoint>
          <Trackpoint>
            <Time>2021-07-27T12:40:10.000Z</Time>
            <Position>
              <LatitudeDegrees>41.0389123857021331787109375</LatitudeDegrees>
              <LongitudeDegrees>-2.98845165409147739410400390625</LongitudeDegrees>
            </Position>
            <AltitudeMeters>974</AltitudeMeters>
            <DistanceMeters>55009.350048485</DistanceMeters>
          </Trackpoint>
          <Trackpoint>
            <Time>2021-07-27T12:40:22.000Z</Time>
            <Position>
              <LatitudeDegrees>41.03943281807005405426025390625</LatitudeDegrees>
              <LongitudeDegrees>-2.9881107620894908905029296875</LongitudeDegrees>
            </Position>
            <AltitudeMeters>972.20001220703125</AltitudeMeters>
            <DistanceMeters>55073.959060299</DistanceMeters>
          </Trackpoint>
          <Trackpoint>
            <Time>2021-07-27T12:40:34.000Z</Time>
            <Position>
              <LatitudeDegrees>41.03995375335216522216796875</LatitudeDegrees>
              <LongitudeDegrees>-2.9877996258437633514404296875</LongitudeDegrees>
            </Position>
            <AltitudeMeters>974.5999755859375</AltitudeMeters>
            <DistanceMeters>55137.55202811</DistanceMeters>
          </Trackpoint>
          <Trackpoint>
            <Time>2021-07-27T12:40:37.000Z</Time>
            <Position>
              <LatitudeDegrees>41.0400752909481525421142578125</LatitudeDegrees>
              <LongitudeDegrees>-2.98772628419101238250732421875</LongitudeDegrees>
            </Position>
            <AltitudeMeters>975.5999755859375</AltitudeMeters>
            <DistanceMeters>55152.414825964</DistanceMeters>
          </Trackpoint>
          <Trackpoint>
            <Time>2021-07-27T12:40:42.000Z</Time>
            <Position>
              <LatitudeDegrees>41.04025550186634063720703125</LatitudeDegrees>
              <LongitudeDegrees>-2.9876061715185642242431640625</LongitudeDegrees>
            </Position>
            <AltitudeMeters>977.5999755859375</AltitudeMeters>
            <DistanceMeters>55174.864472431</DistanceMeters>
          </Trackpoint>
          <Trackpoint>
            <Time>2021-07-27T12:40:49.000Z</Time>
            <Position>
              <LatitudeDegrees>41.04047871194779872894287109375</LatitudeDegrees>
              <LongitudeDegrees>-2.98745152540504932403564453125</LongitudeDegrees>
            </Position>
            <AltitudeMeters>979</AltitudeMeters>
            <DistanceMeters>55202.895903573</DistanceMeters>
          </Trackpoint>
          <Trackpoint>
            <Time>2021-07-27T12:40:56.000Z</Time>
            <Position>
              <LatitudeDegrees>41.040668897330760955810546875</LatitudeDegrees>
              <LongitudeDegrees>-2.98729176633059978485107421875</LongitudeDegrees>
            </Position>
            <AltitudeMeters>978.20001220703125</AltitudeMeters>
            <DistanceMeters>55227.954864364</DistanceMeters>
          </Trackpoint>
          <Trackpoint>
            <Time>2021-07-27T12:41:04.000Z</Time>
            <Position>
              <LatitudeDegrees>41.04086025618016719818115234375</LatitudeDegrees>
              <LongitudeDegrees>-2.9871149919927120208740234375</LongitudeDegrees>
            </Position>
            <AltitudeMeters>976.4000244140625</AltitudeMeters>
            <DistanceMeters>55253.913686073</DistanceMeters>
          </Trackpoint>
          <Trackpoint>
            <Time>2021-07-27T12:41:11.000Z</Time>
            <Position>
              <LatitudeDegrees>41.04100995697081089019775390625</LatitudeDegrees>
              <LongitudeDegrees>-2.9869567416608333587646484375</LongitudeDegrees>
            </Position>
            <AltitudeMeters>975</AltitudeMeters>
            <DistanceMeters>55275.223413529</DistanceMeters>
          </Trackpoint>
          <Trackpoint>
            <Time>2021-07-27T12:41:19.000Z</Time>
            <Position>
              <LatitudeDegrees>41.0411761701107025146484375</LatitudeDegrees>
              <LongitudeDegrees>-2.98676756210625171661376953125</LongitudeDegrees>
            </Position>
            <AltitudeMeters>975.20001220703125</AltitudeMeters>
            <DistanceMeters>55299.605127834</DistanceMeters>
          </Trackpoint>
          <Trackpoint>
            <Time>2021-07-27T12:41:26.000Z</Time>
            <Position>
              <LatitudeDegrees>41.04131824336946010589599609375</LatitudeDegrees>
              <LongitudeDegrees>-2.9866000078618526458740234375</LongitudeDegrees>
            </Position>
            <AltitudeMeters>976.79998779296875</AltitudeMeters>
            <DistanceMeters>55320.769008663</DistanceMeters>
          </Trackpoint>
          <Trackpoint>
            <Time>2021-07-27T12:41:36.000Z</Time>
            <Position>
              <LatitudeDegrees>41.0415106080472469329833984375</LatitudeDegrees>
              <LongitudeDegrees>-2.9863653145730495452880859375</LongitudeDegrees>
            </Position>
            <AltitudeMeters>978.79998779296875</AltitudeMeters>
            <DistanceMeters>55349.865034108</DistanceMeters>
          </Trackpoint>
          <Trackpoint>
            <Time>2021-07-27T12:41:44.000Z</Time>
            <Position>
              <LatitudeDegrees>41.04166324250400066375732421875</LatitudeDegrees>
              <LongitudeDegrees>-2.9861889593303203582763671875</LongitudeDegrees>
            </Position>
            <AltitudeMeters>979.5999755859375</AltitudeMeters>
            <DistanceMeters>55372.398992008</DistanceMeters>
          </Trackpoint>
          <Trackpoint>
            <Time>2021-07-27T12:41:55.000Z</Time>
            <Position>
              <LatitudeDegrees>41.0418636538088321685791015625</LatitudeDegrees>
              <LongitudeDegrees>-2.9859517514705657958984375</LongitudeDegrees>
            </Position>
            <AltitudeMeters>980.4000244140625</AltitudeMeters>
            <DistanceMeters>55402.300412692</DistanceMeters>
          </Trackpoint>
          <Trackpoint>
            <Time>2021-07-27T12:42:08.000Z</Time>
            <Position>
              <LatitudeDegrees>41.04209759272634983062744140625</LatitudeDegrees>
              <LongitudeDegrees>-2.98570096492767333984375</LongitudeDegrees>
            </Position>
            <AltitudeMeters>982</AltitudeMeters>
            <DistanceMeters>55435.784623171</DistanceMeters>
          </Trackpoint>
          <Trackpoint>
            <Time>2021-07-27T12:42:17.000Z</Time>
            <Position>
              <LatitudeDegrees>41.04225517250597476959228515625</LatitudeDegrees>
              <LongitudeDegrees>-2.98553676344454288482666015625</LongitudeDegrees>
            </Position>
            <AltitudeMeters>983.79998779296875</AltitudeMeters>
            <DistanceMeters>55458.091828118</DistanceMeters>
          </Trackpoint>
          <Trackpoint>
            <Time>2021-07-27T12:42:31.000Z</Time>
            <Position>
              <LatitudeDegrees>41.04249916970729827880859375</LatitudeDegrees>
              <LongitudeDegrees>-2.98527424223721027374267578125</LongitudeDegrees>
            </Position>
            <AltitudeMeters>985.79998779296875</AltitudeMeters>
            <DistanceMeters>55493.066048552</DistanceMeters>
          </Trackpoint>
          <Trackpoint>
            <Time>2021-07-27T12:42:39.000Z</Time>
            <Position>
              <LatitudeDegrees>41.04264979250729084014892578125</LatitudeDegrees>
              <LongitudeDegrees>-2.98513627611100673675537109375</LongitudeDegrees>
            </Position>
            <AltitudeMeters>987</AltitudeMeters>
            <DistanceMeters>55513.442133915</DistanceMeters>
          </Trackpoint>
          <Trackpoint>
            <Time>2021-07-27T12:42:46.000Z</Time>
            <Position>
              <LatitudeDegrees>41.0427846573293209075927734375</LatitudeDegrees>
              <LongitudeDegrees>-2.9850156605243682861328125</LongitudeDegrees>
            </Position>
            <AltitudeMeters>989</AltitudeMeters>
            <DistanceMeters>55531.548650846</DistanceMeters>
          </Trackpoint>
          <Trackpoint>
            <Time>2021-07-27T12:42:58.000Z</Time>
            <Position>
              <LatitudeDegrees>41.043021194636821746826171875</LatitudeDegrees>
              <LongitudeDegrees>-2.98482530750334262847900390625</LongitudeDegrees>
            </Position>
            <AltitudeMeters>991.4000244140625</AltitudeMeters>
            <DistanceMeters>55562.345517392</DistanceMeters>
          </Trackpoint>
          <Trackpoint>
            <Time>2021-07-27T12:43:06.000Z</Time>
            <Position>
              <LatitudeDegrees>41.04318288154900074005126953125</LatitudeDegrees>
              <LongitudeDegrees>-2.98470226116478443145751953125</LongitudeDegrees>
            </Position>
            <AltitudeMeters>991.79998779296875</AltitudeMeters>
            <DistanceMeters>55583.095096057</DistanceMeters>
          </Trackpoint>
          <Trackpoint>
            <Time>2021-07-27T12:43:20.000Z</Time>
            <Position>
              <LatitudeDegrees>41.043475158512592315673828125</LatitudeDegrees>
              <LongitudeDegrees>-2.984500341117382049560546875</LongitudeDegrees>
            </Position>
            <AltitudeMeters>991.79998779296875</AltitudeMeters>
            <DistanceMeters>55619.777131046</DistanceMeters>
          </Trackpoint>
          <Trackpoint>
            <Time>2021-07-27T12:43:31.000Z</Time>
            <Position>
              <LatitudeDegrees>41.04371278546750545501708984375</LatitudeDegrees>
              <LongitudeDegrees>-2.9843442700803279876708984375</LongitudeDegrees>
            </Position>
            <AltitudeMeters>990.4000244140625</AltitudeMeters>
            <DistanceMeters>55649.292526432</DistanceMeters>
          </Trackpoint>
          <Trackpoint>
            <Time>2021-07-27T12:43:43.000Z</Time>
            <Position>
              <LatitudeDegrees>41.043987460434436798095703125</LatitudeDegrees>
              <LongitudeDegrees>-2.98418543301522731781005859375</LongitudeDegrees>
            </Position>
            <AltitudeMeters>991.5999755859375</AltitudeMeters>
            <DistanceMeters>55682.64541412</DistanceMeters>
          </Trackpoint>
          <Trackpoint>
            <Time>2021-07-27T12:43:53.000Z</Time>
            <Position>
              <LatitudeDegrees>41.04422257281839847564697265625</LatitudeDegrees>
              <LongitudeDegrees>-2.98405434004962444305419921875</LongitudeDegrees>
            </Position>
            <AltitudeMeters>993</AltitudeMeters>
            <DistanceMeters>55711.033760361</DistanceMeters>
          </Trackpoint>
          <Trackpoint>
            <Time>2021-07-27T12:44:13.000Z</Time>
            <Position>
              <LatitudeDegrees>41.04475951753556728363037109375</LatitudeDegrees>
              <LongitudeDegrees>-2.9838091693818569183349609375</LongitudeDegrees>
            </Position>
            <AltitudeMeters>995.5999755859375</AltitudeMeters>
            <DistanceMeters>55774.241170695</DistanceMeters>
          </Trackpoint>
          <Trackpoint>
            <Time>2021-07-27T12:44:29.000Z</Time>
            <Position>
              <LatitudeDegrees>41.04532127268612384796142578125</LatitudeDegrees>
              <LongitudeDegrees>-2.98361747525632381439208984375</LongitudeDegrees>
            </Position>
            <AltitudeMeters>994</AltitudeMeters>
            <DistanceMeters>55838.803134469</DistanceMeters>
          </Trackpoint>
          <Trackpoint>
            <Time>2021-07-27T12:44:41.000Z</Time>
            <Position>
              <LatitudeDegrees>41.04587699286639690399169921875</LatitudeDegrees>
              <LongitudeDegrees>-2.98348235897719860076904296875</LongitudeDegrees>
            </Position>
            <AltitudeMeters>991.4000244140625</AltitudeMeters>
            <DistanceMeters>55901.687201815</DistanceMeters>
          </Trackpoint>
          <Trackpoint>
            <Time>2021-07-27T12:44:44.000Z</Time>
            <Position>
              <LatitudeDegrees>41.04604429565370082855224609375</LatitudeDegrees>
              <LongitudeDegrees>-2.98344589769840240478515625</LongitudeDegrees>
            </Position>
            <AltitudeMeters>990.79998779296875</AltitudeMeters>
            <DistanceMeters>55920.558081355</DistanceMeters>
          </Trackpoint>
          <Trackpoint>
            <Time>2021-07-27T12:44:50.000Z</Time>
            <Position>
              <LatitudeDegrees>41.0464177094399929046630859375</LatitudeDegrees>
              <LongitudeDegrees>-2.98335461877286434173583984375</LongitudeDegrees>
            </Position>
            <AltitudeMeters>990</AltitudeMeters>
            <DistanceMeters>55962.820084148</DistanceMeters>
          </Trackpoint>
          <Trackpoint>
            <Time>2021-07-27T12:44:57.000Z</Time>
            <Position>
              <LatitudeDegrees>41.046914756298065185546875</LatitudeDegrees>
              <LongitudeDegrees>-2.98325571231544017791748046875</LongitudeDegrees>
            </Position>
            <AltitudeMeters>987</AltitudeMeters>
            <DistanceMeters>56018.761932371</DistanceMeters>
          </Trackpoint>
          <Trackpoint>
            <Time>2021-07-27T12:45:03.000Z</Time>
            <Position>
              <LatitudeDegrees>41.04736612178385257720947265625</LatitudeDegrees>
              <LongitudeDegrees>-2.98316217027604579925537109375</LongitudeDegrees>
            </Position>
            <AltitudeMeters>986.79998779296875</AltitudeMeters>
            <DistanceMeters>56069.609838401</DistanceMeters>
          </Trackpoint>
          <Trackpoint>
            <Time>2021-07-27T12:45:07.000Z</Time>
            <Position>
              <LatitudeDegrees>41.04768178425729274749755859375</LatitudeDegrees>
              <LongitudeDegrees>-2.983105592429637908935546875</LongitudeDegrees>
            </Position>
            <AltitudeMeters>987.20001220703125</AltitudeMeters>
            <DistanceMeters>56105.063081702</DistanceMeters>
          </Trackpoint>
          <Trackpoint>
            <Time>2021-07-27T12:45:09.000Z</Time>
            <Position>
              <LatitudeDegrees>41.04784389026463031768798828125</LatitudeDegrees>
              <LongitudeDegrees>-2.98308916389942169189453125</LongitudeDegrees>
            </Position>
            <AltitudeMeters>986.5999755859375</AltitudeMeters>
            <DistanceMeters>56123.158623473</DistanceMeters>
          </Trackpoint>
          <Trackpoint>
            <Time>2021-07-27T12:45:12.000Z</Time>
            <Position>
              <LatitudeDegrees>41.0480917431414127349853515625</LatitudeDegrees>
              <LongitudeDegrees>-2.98309310339391231536865234375</LongitudeDegrees>
            </Position>
            <AltitudeMeters>985.4000244140625</AltitudeMeters>
            <DistanceMeters>56150.747155209</DistanceMeters>
          </Trackpoint>
          <Trackpoint>
            <Time>2021-07-27T12:45:15.000Z</Time>
            <Position>
              <LatitudeDegrees>41.04833976365625858306884765625</LatitudeDegrees>
              <LongitudeDegrees>-2.98313065432012081146240234375</LongitudeDegrees>
            </Position>
            <AltitudeMeters>984.4000244140625</AltitudeMeters>
            <DistanceMeters>56178.531705505</DistanceMeters>
          </Trackpoint>
          <Trackpoint>
            <Time>2021-07-27T12:45:16.000Z</Time>
            <Position>
              <LatitudeDegrees>41.0484233312308788299560546875</LatitudeDegrees>
              <LongitudeDegrees>-2.9831490106880664825439453125</LongitudeDegrees>
            </Position>
            <AltitudeMeters>984</AltitudeMeters>
            <DistanceMeters>56187.959964757</DistanceMeters>
          </Trackpoint>
          <Trackpoint>
            <Time>2021-07-27T12:45:20.000Z</Time>
            <Position>
              <LatitudeDegrees>41.048763133585453033447265625</LatitudeDegrees>
              <LongitudeDegrees>-2.9832194186747074127197265625</LongitudeDegrees>
            </Position>
            <AltitudeMeters>984.20001220703125</AltitudeMeters>
            <DistanceMeters>56226.239693006</DistanceMeters>
          </Trackpoint>
          <Trackpoint>
            <Time>2021-07-27T12:45:24.000Z</Time>
            <Position>
              <LatitudeDegrees>41.04911022819578647613525390625</LatitudeDegrees>
              <LongitudeDegrees>-2.9832988791167736053466796875</LongitudeDegrees>
            </Position>
            <AltitudeMeters>983.20001220703125</AltitudeMeters>
            <DistanceMeters>56265.443481992</DistanceMeters>
          </Trackpoint>
          <Trackpoint>
            <Time>2021-07-27T12:45:31.000Z</Time>
            <Position>
              <LatitudeDegrees>41.04969025589525699615478515625</LatitudeDegrees>
              <LongitudeDegrees>-2.98343650996685028076171875</LongitudeDegrees>
            </Position>
            <AltitudeMeters>985.4000244140625</AltitudeMeters>
            <DistanceMeters>56331.027200033</DistanceMeters>
          </Trackpoint>
          <Trackpoint>
            <Time>2021-07-27T12:45:39.000Z</Time>
            <Position>
              <LatitudeDegrees>41.05021831579506397247314453125</LatitudeDegrees>
              <LongitudeDegrees>-2.98360439948737621307373046875</LongitudeDegrees>
            </Position>
            <AltitudeMeters>984.79998779296875</AltitudeMeters>
            <DistanceMeters>56391.46717856</DistanceMeters>
          </Trackpoint>
          <Trackpoint>
            <Time>2021-07-27T12:45:40.000Z</Time>
            <Position>
              <LatitudeDegrees>41.0502707026898860931396484375</LatitudeDegrees>
              <LongitudeDegrees>-2.9836274497210979461669921875</LongitudeDegrees>
            </Position>
            <AltitudeMeters>984.5999755859375</AltitudeMeters>
            <DistanceMeters>56397.610933074</DistanceMeters>
          </Trackpoint>
          <Trackpoint>
            <Time>2021-07-27T12:45:45.000Z</Time>
            <Position>
              <LatitudeDegrees>41.0504926554858684539794921875</LatitudeDegrees>
              <LongitudeDegrees>-2.98373783938586711883544921875</LongitudeDegrees>
            </Position>
            <AltitudeMeters>986.4000244140625</AltitudeMeters>
            <DistanceMeters>56423.995182032</DistanceMeters>
          </Trackpoint>
          <Trackpoint>
            <Time>2021-07-27T12:45:49.000Z</Time>
            <Position>
              <LatitudeDegrees>41.0506341420114040374755859375</LatitudeDegrees>
              <LongitudeDegrees>-2.98382903449237346649169921875</LongitudeDegrees>
            </Position>
            <AltitudeMeters>987.20001220703125</AltitudeMeters>
            <DistanceMeters>56441.504869506</DistanceMeters>
          </Trackpoint>
          <Trackpoint>
            <Time>2021-07-27T12:45:55.000Z</Time>
            <Position>
              <LatitudeDegrees>41.0508011095225811004638671875</LatitudeDegrees>
              <LongitudeDegrees>-2.9839613847434520721435546875</LongitudeDegrees>
            </Position>
            <AltitudeMeters>989.4000244140625</AltitudeMeters>
            <DistanceMeters>56463.1561595</DistanceMeters>
          </Trackpoint>
          <Trackpoint>
            <Time>2021-07-27T12:46:03.000Z</Time>
            <Position>
              <LatitudeDegrees>41.05096816085278987884521484375</LatitudeDegrees>
              <LongitudeDegrees>-2.9841229878365993499755859375</LongitudeDegrees>
            </Position>
            <AltitudeMeters>991.20001220703125</AltitudeMeters>
            <DistanceMeters>56486.17107258</DistanceMeters>
          </Trackpoint>
          <Trackpoint>
            <Time>2021-07-27T12:46:11.000Z</Time>
            <Position>
              <LatitudeDegrees>41.05110369622707366943359375</LatitudeDegrees>
              <LongitudeDegrees>-2.98427243717014789581298828125</LongitudeDegrees>
            </Position>
            <AltitudeMeters>993.20001220703125</AltitudeMeters>
            <DistanceMeters>56505.790579928</DistanceMeters>
          </Trackpoint>
          <Trackpoint>
            <Time>2021-07-27T12:46:25.000Z</Time>
            <Position>
              <LatitudeDegrees>41.0513422451913356781005859375</LatitudeDegrees>
              <LongitudeDegrees>-2.9845169372856616973876953125</LongitudeDegrees>
            </Position>
            <AltitudeMeters>996.5999755859375</AltitudeMeters>
            <DistanceMeters>56539.348198185</DistanceMeters>
          </Trackpoint>
          <Trackpoint>
            <Time>2021-07-27T12:46:36.000Z</Time>
            <Position>
              <LatitudeDegrees>41.05152421630918979644775390625</LatitudeDegrees>
              <LongitudeDegrees>-2.98470242880284786224365234375</LongitudeDegrees>
            </Position>
            <AltitudeMeters>997.79998779296875</AltitudeMeters>
            <DistanceMeters>56564.894659481</DistanceMeters>
          </Trackpoint>
          <Trackpoint>
            <Time>2021-07-27T12:46:44.000Z</Time>
            <Position>
              <LatitudeDegrees>41.05166268534958362579345703125</LatitudeDegrees>
              <LongitudeDegrees>-2.98483134247362613677978515625</LongitudeDegrees>
            </Position>
            <AltitudeMeters>999.4000244140625</AltitudeMeters>
            <DistanceMeters>56583.725780052</DistanceMeters>
          </Trackpoint>
          <Trackpoint>
            <Time>2021-07-27T12:46:57.000Z</Time>
            <Position>
              <LatitudeDegrees>41.0518915951251983642578125</LatitudeDegrees>
              <LongitudeDegrees>-2.98500183038413524627685546875</LongitudeDegrees>
            </Position>
            <AltitudeMeters>1001</AltitudeMeters>
            <DistanceMeters>56612.947383168</DistanceMeters>
          </Trackpoint>
          <Trackpoint>
            <Time>2021-07-27T12:47:10.000Z</Time>
            <Position>
              <LatitudeDegrees>41.0521303117275238037109375</LatitudeDegrees>
              <LongitudeDegrees>-2.98514516092836856842041015625</LongitudeDegrees>
            </Position>
            <AltitudeMeters>1003.20001220703125</AltitudeMeters>
            <DistanceMeters>56642.11361915</DistanceMeters>
          </Trackpoint>
          <Trackpoint>
            <Time>2021-07-27T12:47:20.000Z</Time>
            <Position>
              <LatitudeDegrees>41.05231965892016887664794921875</LatitudeDegrees>
              <LongitudeDegrees>-2.985241971909999847412109375</LongitudeDegrees>
            </Position>
            <AltitudeMeters>1003.5999755859375</AltitudeMeters>
            <DistanceMeters>56664.700411724</DistanceMeters>
          </Trackpoint>
          <Trackpoint>
            <Time>2021-07-27T12:47:27.000Z</Time>
            <Position>
              <LatitudeDegrees>41.05244991369545459747314453125</LatitudeDegrees>
              <LongitudeDegrees>-2.9853098653256893157958984375</LongitudeDegrees>
            </Position>
            <AltitudeMeters>1005.4000244140625</AltitudeMeters>
            <DistanceMeters>56680.277838155</DistanceMeters>
          </Trackpoint>
          <Trackpoint>
            <Time>2021-07-27T12:47:40.000Z</Time>
            <Position>
              <LatitudeDegrees>41.052695252001285552978515625</LatitudeDegrees>
              <LongitudeDegrees>-2.98543316312134265899658203125</LongitudeDegrees>
            </Position>
            <AltitudeMeters>1007.79998779296875</AltitudeMeters>
            <DistanceMeters>56709.479811872</DistanceMeters>
          </Trackpoint>
          <Trackpoint>
            <Time>2021-07-27T12:47:49.000Z</Time>
            <Position>
              <LatitudeDegrees>41.05287487618625164031982421875</LatitudeDegrees>
              <LongitudeDegrees>-2.985526956617832183837890625</LongitudeDegrees>
            </Position>
            <AltitudeMeters>1007</AltitudeMeters>
            <DistanceMeters>56730.966568685</DistanceMeters>
          </Trackpoint>
          <Trackpoint>
            <Time>2021-07-27T12:47:58.000Z</Time>
            <Position>
              <LatitudeDegrees>41.053031869232654571533203125</LatitudeDegrees>
              <LongitudeDegrees>-2.98565092496573925018310546875</LongitudeDegrees>
            </Position>
            <AltitudeMeters>1004.20001220703125</AltitudeMeters>
            <DistanceMeters>56751.303617667</DistanceMeters>
          </Trackpoint>
          <Trackpoint>
            <Time>2021-07-27T12:48:06.000Z</Time>
            <Position>
              <LatitudeDegrees>41.0531782172620296478271484375</LatitudeDegrees>
              <LongitudeDegrees>-2.98575259745121002197265625</LongitudeDegrees>
            </Position>
            <AltitudeMeters>1002.4000244140625</AltitudeMeters>
            <DistanceMeters>56769.692207676</DistanceMeters>
          </Trackpoint>
          <Trackpoint>
            <Time>2021-07-27T12:48:18.000Z</Time>
            <Position>
              <LatitudeDegrees>41.0533803887665271759033203125</LatitudeDegrees>
              <LongitudeDegrees>-2.98593808896839618682861328125</LongitudeDegrees>
            </Position>
            <AltitudeMeters>1002</AltitudeMeters>
            <DistanceMeters>56797.055116665</DistanceMeters>
          </Trackpoint>
          <Trackpoint>
            <Time>2021-07-27T12:48:33.000Z</Time>
            <Position>
              <LatitudeDegrees>41.05362924747169017791748046875</LatitudeDegrees>
              <LongitudeDegrees>-2.98617898486554622650146484375</LongitudeDegrees>
            </Position>
            <AltitudeMeters>1005</AltitudeMeters>
            <DistanceMeters>56831.348176393</DistanceMeters>
          </Trackpoint>
          <Trackpoint>
            <Time>2021-07-27T12:48:35.000Z</Time>
            <Position>
              <LatitudeDegrees>41.05366093106567859649658203125</LatitudeDegrees>
              <LongitudeDegrees>-2.986215613782405853271484375</LongitudeDegrees>
            </Position>
            <AltitudeMeters>1005.5999755859375</AltitudeMeters>
            <DistanceMeters>56836.02673443</DistanceMeters>
          </Trackpoint>
          <Trackpoint>
            <Time>2021-07-27T12:48:48.000Z</Time>
            <Position>
              <LatitudeDegrees>41.0538936965167522430419921875</LatitudeDegrees>
              <LongitudeDegrees>-2.98644318245351314544677734375</LongitudeDegrees>
            </Position>
            <AltitudeMeters>1010</AltitudeMeters>
            <DistanceMeters>56868.213728857</DistanceMeters>
          </Trackpoint>
          <Trackpoint>
            <Time>2021-07-27T12:49:01.000Z</Time>
            <Position>
              <LatitudeDegrees>41.054140962660312652587890625</LatitudeDegrees>
              <LongitudeDegrees>-2.98665340058505535125732421875</LongitudeDegrees>
            </Position>
            <AltitudeMeters>1012.4000244140625</AltitudeMeters>
            <DistanceMeters>56900.905128449</DistanceMeters>
          </Trackpoint>
          <Trackpoint>
            <Time>2021-07-27T12:49:10.000Z</Time>
            <Position>
              <LatitudeDegrees>41.0543215088546276092529296875</LatitudeDegrees>
              <LongitudeDegrees>-2.98677577637135982513427734375</LongitudeDegrees>
            </Position>
            <AltitudeMeters>1013.4000244140625</AltitudeMeters>
            <DistanceMeters>56923.473122857</DistanceMeters>
          </Trackpoint>
          <Trackpoint>
            <Time>2021-07-27T12:49:19.000Z</Time>
            <Position>
              <LatitudeDegrees>41.05451554991304874420166015625</LatitudeDegrees>
              <LongitudeDegrees>-2.9868797957897186279296875</LongitudeDegrees>
            </Position>
            <AltitudeMeters>1012.79998779296875</AltitudeMeters>
            <DistanceMeters>56946.768432986</DistanceMeters>
          </Trackpoint>
          <Trackpoint>
            <Time>2021-07-27T12:49:25.000Z</Time>
            <Position>
              <LatitudeDegrees>41.05464479885995388031005859375</LatitudeDegrees>
              <LongitudeDegrees>-2.9869332723319530487060546875</LongitudeDegrees>
            </Position>
            <AltitudeMeters>1013.20001220703125</AltitudeMeters>
            <DistanceMeters>56961.838483502</DistanceMeters>
          </Trackpoint>
          <Trackpoint>
            <Time>2021-07-27T12:49:31.000Z</Time>
            <Position>
              <LatitudeDegrees>41.05477740056812763214111328125</LatitudeDegrees>
              <LongitudeDegrees>-2.98697710968554019927978515625</LongitudeDegrees>
            </Position>
            <AltitudeMeters>1012.79998779296875</AltitudeMeters>
            <DistanceMeters>56977.048992651</DistanceMeters>
          </Trackpoint>
          <Trackpoint>
            <Time>2021-07-27T12:49:47.000Z</Time>
            <Position>
              <LatitudeDegrees>41.05518325231969356536865234375</LatitudeDegrees>
              <LongitudeDegrees>-2.987050116062164306640625</LongitudeDegrees>
            </Position>
            <AltitudeMeters>1013.4000244140625</AltitudeMeters>
            <DistanceMeters>57022.634685272</DistanceMeters>
          </Trackpoint>
          <Trackpoint>
            <Time>2021-07-27T12:50:06.000Z</Time>
            <Position>
              <LatitudeDegrees>41.05572589673101902008056640625</LatitudeDegrees>
              <LongitudeDegrees>-2.986980378627777099609375</LongitudeDegrees>
            </Position>
            <AltitudeMeters>1014.5999755859375</AltitudeMeters>
            <DistanceMeters>57083.315027812</DistanceMeters>
          </Trackpoint>
          <Trackpoint>
            <Time>2021-07-27T12:50:20.000Z</Time>
            <Position>
              <LatitudeDegrees>41.056108362972736358642578125</LatitudeDegrees>
              <LongitudeDegrees>-2.98683092929422855377197265625</LongitudeDegrees>
            </Position>
            <AltitudeMeters>1014.79998779296875</AltitudeMeters>
            <DistanceMeters>57127.693826045</DistanceMeters>
          </Trackpoint>
          <Trackpoint>
            <Time>2021-07-27T12:50:39.000Z</Time>
            <Position>
              <LatitudeDegrees>41.05661404319107532501220703125</LatitudeDegrees>
              <LongitudeDegrees>-2.9865359701216220855712890625</LongitudeDegrees>
            </Position>
            <AltitudeMeters>1016.79998779296875</AltitudeMeters>
            <DistanceMeters>57189.180736563</DistanceMeters>
          </Trackpoint>
          <Trackpoint>
            <Time>2021-07-27T12:50:40.000Z</Time>
            <Position>
              <LatitudeDegrees>41.05664069764316082000732421875</LatitudeDegrees>
              <LongitudeDegrees>-2.98652079887688159942626953125</LongitudeDegrees>
            </Position>
            <AltitudeMeters>1017</AltitudeMeters>
            <DistanceMeters>57192.410247097</DistanceMeters>
          </Trackpoint>
          <Trackpoint>
            <Time>2021-07-27T12:50:58.000Z</Time>
            <Position>
              <LatitudeDegrees>41.0571472160518169403076171875</LatitudeDegrees>
              <LongitudeDegrees>-2.9862241633236408233642578125</LongitudeDegrees>
            </Position>
            <AltitudeMeters>1018.4000244140625</AltitudeMeters>
            <DistanceMeters>57254.039155841</DistanceMeters>
          </Trackpoint>
          <Trackpoint>
            <Time>2021-07-27T12:51:11.000Z</Time>
            <Position>
              <LatitudeDegrees>41.057515852153301239013671875</LatitudeDegrees>
              <LongitudeDegrees>-2.98596574924886226654052734375</LongitudeDegrees>
            </Position>
            <AltitudeMeters>1015.5999755859375</AltitudeMeters>
            <DistanceMeters>57300.448592093</DistanceMeters>
          </Trackpoint>
          <Trackpoint>
            <Time>2021-07-27T12:51:20.000Z</Time>
            <Position>
              <LatitudeDegrees>41.0577426664531230926513671875</LatitudeDegrees>
              <LongitudeDegrees>-2.98574178479611873626708984375</LongitudeDegrees>
            </Position>
            <AltitudeMeters>1017.20001220703125</AltitudeMeters>
            <DistanceMeters>57331.922811323</DistanceMeters>
          </Trackpoint>
          <Trackpoint>
            <Time>2021-07-27T12:51:33.000Z</Time>
            <Position>
              <LatitudeDegrees>41.0580172576010227203369140625</LatitudeDegrees>
              <LongitudeDegrees>-2.9854064248502254486083984375</LongitudeDegrees>
            </Position>
            <AltitudeMeters>1019.79998779296875</AltitudeMeters>
            <DistanceMeters>57373.471116387</DistanceMeters>
          </Trackpoint>
          <Trackpoint>
            <Time>2021-07-27T12:51:42.000Z</Time>
            <Position>
              <LatitudeDegrees>41.0581832192838191986083984375</LatitudeDegrees>
              <LongitudeDegrees>-2.9851727373898029327392578125</LongitudeDegrees>
            </Position>
            <AltitudeMeters>1020</AltitudeMeters>
            <DistanceMeters>57400.413159087</DistanceMeters>
          </Trackpoint>
          <Trackpoint>
            <Time>2021-07-27T12:51:54.000Z</Time>
            <Position>
              <LatitudeDegrees>41.0584001429378986358642578125</LatitudeDegrees>
              <LongitudeDegrees>-2.984877526760101318359375</LongitudeDegrees>
            </Position>
            <AltitudeMeters>1021.4000244140625</AltitudeMeters>
            <DistanceMeters>57435.007581922</DistanceMeters>
          </Trackpoint>
          <Trackpoint>
            <Time>2021-07-27T12:52:06.000Z</Time>
            <Position>
              <LatitudeDegrees>41.05862536467611789703369140625</LatitudeDegrees>
              <LongitudeDegrees>-2.98458105884492397308349609375</LongitudeDegrees>
            </Position>
            <AltitudeMeters>1024</AltitudeMeters>
            <DistanceMeters>57470.327236089</DistanceMeters>
          </Trackpoint>
          <Trackpoint>
            <Time>2021-07-27T12:52:17.000Z</Time>
            <Position>
              <LatitudeDegrees>41.05885251425206661224365234375</LatitudeDegrees>
              <LongitudeDegrees>-2.98434309661388397216796875</LongitudeDegrees>
            </Position>
            <AltitudeMeters>1024.5999755859375</AltitudeMeters>
            <DistanceMeters>57502.545917123</DistanceMeters>
          </Trackpoint>
          <Trackpoint>
            <Time>2021-07-27T12:52:28.000Z</Time>
            <Position>
              <LatitudeDegrees>41.0591065697371959686279296875</LatitudeDegrees>
              <LongitudeDegrees>-2.9841437749564647674560546875</LongitudeDegrees>
            </Position>
            <AltitudeMeters>1024.199951171875</AltitudeMeters>
            <DistanceMeters>57535.400433065</DistanceMeters>
          </Trackpoint>
          <Trackpoint>
            <Time>2021-07-27T12:52:43.000Z</Time>
            <Position>
              <LatitudeDegrees>41.05947646312415599822998046875</LatitudeDegrees>
              <LongitudeDegrees>-2.983938753604888916015625</LongitudeDegrees>
            </Position>
            <AltitudeMeters>1027.4000244140625</AltitudeMeters>
            <DistanceMeters>57580.021117</DistanceMeters>
          </Trackpoint>
          <Trackpoint>
            <Time>2021-07-27T12:52:53.000Z</Time>
            <Position>
              <LatitudeDegrees>41.05973227880895137786865234375</LatitudeDegrees>
              <LongitudeDegrees>-2.9838462173938751220703125</LongitudeDegrees>
            </Position>
            <AltitudeMeters>1030.5999755859375</AltitudeMeters>
            <DistanceMeters>57609.534064728</DistanceMeters>
          </Trackpoint>
          <Trackpoint>
            <Time>2021-07-27T12:53:01.000Z</Time>
            <Position>
              <LatitudeDegrees>41.05993478558957576751708984375</LatitudeDegrees>
              <LongitudeDegrees>-2.98380606807768344879150390625</LongitudeDegrees>
            </Position>
            <AltitudeMeters>1032.4000244140625</AltitudeMeters>
            <DistanceMeters>57632.323840434</DistanceMeters>
          </Trackpoint>
          <Trackpoint>
            <Time>2021-07-27T12:53:14.000Z</Time>
            <Position>
              <LatitudeDegrees>41.06026670895516872406005859375</LatitudeDegrees>
              <LongitudeDegrees>-2.9837773181498050689697265625</LongitudeDegrees>
            </Position>
            <AltitudeMeters>1034.5999755859375</AltitudeMeters>
            <DistanceMeters>57669.34622884</DistanceMeters>
          </Trackpoint>
          <Trackpoint>
            <Time>2021-07-27T12:53:35.000Z</Time>
            <Position>
              <LatitudeDegrees>41.0607683658599853515625</LatitudeDegrees>
              <LongitudeDegrees>-2.9838269390165805816650390625</LongitudeDegrees>
            </Position>
            <AltitudeMeters>1037.5999755859375</AltitudeMeters>
            <DistanceMeters>57725.336723737</DistanceMeters>
          </Trackpoint>
          <Trackpoint>
            <Time>2021-07-27T12:53:39.000Z</Time>
            <Position>
              <LatitudeDegrees>41.06086215935647487640380859375</LatitudeDegrees>
              <LongitudeDegrees>-2.98383708111941814422607421875</LongitudeDegrees>
            </Position>
            <AltitudeMeters>1037.199951171875</AltitudeMeters>
            <DistanceMeters>57735.810805974</DistanceMeters>
          </Trackpoint>
          <Trackpoint>
            <Time>2021-07-27T12:53:49.000Z</Time>
            <Position>
              <LatitudeDegrees>41.06110054068267345428466796875</LatitudeDegrees>
              <LongitudeDegrees>-2.9838665015995502471923828125</LongitudeDegrees>
            </Position>
            <AltitudeMeters>1036.199951171875</AltitudeMeters>
            <DistanceMeters>57762.457794566</DistanceMeters>
          </Trackpoint>
          <Trackpoint>
            <Time>2021-07-27T12:53:58.000Z</Time>
            <Position>
              <LatitudeDegrees>41.061313860118389129638671875</LatitudeDegrees>
              <LongitudeDegrees>-2.98388988710939884185791015625</LongitudeDegrees>
            </Position>
            <AltitudeMeters>1036.5999755859375</AltitudeMeters>
            <DistanceMeters>57786.281467556</DistanceMeters>
          </Trackpoint>
          <Trackpoint>
            <Time>2021-07-27T12:54:12.000Z</Time>
            <Position>
              <LatitudeDegrees>41.06164083816111087799072265625</LatitudeDegrees>
              <LongitudeDegrees>-2.9839174635708332061767578125</LongitudeDegrees>
            </Position>
            <AltitudeMeters>1038.800048828125</AltitudeMeters>
            <DistanceMeters>57822.748209083</DistanceMeters>
          </Trackpoint>
          <Trackpoint>
            <Time>2021-07-27T12:54:23.000Z</Time>
            <Position>
              <LatitudeDegrees>41.06188525445759296417236328125</LatitudeDegrees>
              <LongitudeDegrees>-2.98390455543994903564453125</LongitudeDegrees>
            </Position>
            <AltitudeMeters>1041</AltitudeMeters>
            <DistanceMeters>57849.97365297</DistanceMeters>
          </Trackpoint>
          <Trackpoint>
            <Time>2021-07-27T12:54:37.000Z</Time>
            <Position>
              <LatitudeDegrees>41.0621921159327030181884765625</LatitudeDegrees>
              <LongitudeDegrees>-2.98386725597083568572998046875</LongitudeDegrees>
            </Position>
            <AltitudeMeters>1041.800048828125</AltitudeMeters>
            <DistanceMeters>57884.271057216</DistanceMeters>
          </Trackpoint>
          <Trackpoint>
            <Time>2021-07-27T12:54:49.000Z</Time>
            <Position>
              <LatitudeDegrees>41.062468551099300384521484375</LatitudeDegrees>
              <LongitudeDegrees>-2.98382618464529514312744140625</LongitudeDegrees>
            </Position>
            <AltitudeMeters>1041.4000244140625</AltitudeMeters>
            <DistanceMeters>57915.231542429</DistanceMeters>
          </Trackpoint>
          <Trackpoint>
            <Time>2021-07-27T12:54:51.000Z</Time>
            <Position>
              <LatitudeDegrees>41.0625171661376953125</LatitudeDegrees>
              <LongitudeDegrees>-2.9838172160089015960693359375</LongitudeDegrees>
            </Position>
            <AltitudeMeters>1041.199951171875</AltitudeMeters>
            <DistanceMeters>57920.695371921</DistanceMeters>
          </Trackpoint>
          <Trackpoint>
            <Time>2021-07-27T12:54:55.000Z</Time>
            <Position>
              <LatitudeDegrees>41.06260903179645538330078125</LatitudeDegrees>
              <LongitudeDegrees>-2.983800284564495086669921875</LongitudeDegrees>
            </Position>
            <AltitudeMeters>1041</AltitudeMeters>
            <DistanceMeters>57931.017915312</DistanceMeters>
          </Trackpoint>
          <Trackpoint>
            <Time>2021-07-27T12:55:06.000Z</Time>
            <Position>
              <LatitudeDegrees>41.06285353191196918487548828125</LatitudeDegrees>
              <LongitudeDegrees>-2.98376482911407947540283203125</LongitudeDegrees>
            </Position>
            <AltitudeMeters>1040.199951171875</AltitudeMeters>
            <DistanceMeters>57958.393526798</DistanceMeters>
          </Trackpoint>
          <Trackpoint>
            <Time>2021-07-27T12:55:19.000Z</Time>
            <Position>
              <LatitudeDegrees>41.0631443001329898834228515625</LatitudeDegrees>
              <LongitudeDegrees>-2.983718477189540863037109375</LongitudeDegrees>
            </Position>
            <AltitudeMeters>1040.5999755859375</AltitudeMeters>
            <DistanceMeters>57990.989490575</DistanceMeters>
          </Trackpoint>
          <Trackpoint>
            <Time>2021-07-27T12:55:27.000Z</Time>
            <Position>
              <LatitudeDegrees>41.0633297078311443328857421875</LatitudeDegrees>
              <LongitudeDegrees>-2.9836945049464702606201171875</LongitudeDegrees>
            </Position>
            <AltitudeMeters>1040.800048828125</AltitudeMeters>
            <DistanceMeters>58011.723614124</DistanceMeters>
          </Trackpoint>
          <Trackpoint>
            <Time>2021-07-27T12:55:38.000Z</Time>
            <Position>
              <LatitudeDegrees>41.06358510442078113555908203125</LatitudeDegrees>
              <LongitudeDegrees>-2.98366039060056209564208984375</LongitudeDegrees>
            </Position>
            <AltitudeMeters>1041.4000244140625</AltitudeMeters>
            <DistanceMeters>58040.293645099</DistanceMeters>
          </Trackpoint>
          <Trackpoint>
            <Time>2021-07-27T12:55:51.000Z</Time>
            <Position>
              <LatitudeDegrees>41.0638956539332866668701171875</LatitudeDegrees>
              <LongitudeDegrees>-2.98361211083829402923583984375</LongitudeDegrees>
            </Position>
            <AltitudeMeters>1043</AltitudeMeters>
            <DistanceMeters>58075.095095397</DistanceMeters>
          </Trackpoint>
          <Trackpoint>
            <Time>2021-07-27T12:55:58.000Z</Time>
            <Position>
              <LatitudeDegrees>41.06406102888286113739013671875</LatitudeDegrees>
              <LongitudeDegrees>-2.9835828579962253570556640625</LongitudeDegrees>
            </Position>
            <AltitudeMeters>1044</AltitudeMeters>
            <DistanceMeters>58093.66449224</DistanceMeters>
          </Trackpoint>
          <Trackpoint>
            <Time>2021-07-27T12:56:14.000Z</Time>
            <Position>
              <LatitudeDegrees>41.06445573270320892333984375</LatitudeDegrees>
              <LongitudeDegrees>-2.9835255257785320281982421875</LongitudeDegrees>
            </Position>
            <AltitudeMeters>1046.199951171875</AltitudeMeters>
            <DistanceMeters>58137.858351247</DistanceMeters>
          </Trackpoint>
          <Trackpoint>
            <Time>2021-07-27T12:56:29.000Z</Time>
            <Position>
              <LatitudeDegrees>41.06482260860502719879150390625</LatitudeDegrees>
              <LongitudeDegrees>-2.9834765754640102386474609375</LongitudeDegrees>
            </Position>
            <AltitudeMeters>1048.5999755859375</AltitudeMeters>
            <DistanceMeters>58178.89845186</DistanceMeters>
          </Trackpoint>
          <Trackpoint>
            <Time>2021-07-27T12:56:41.000Z</Time>
            <Position>
              <LatitudeDegrees>41.06510214507579803466796875</LatitudeDegrees>
              <LongitudeDegrees>-2.983430810272693634033203125</LongitudeDegrees>
            </Position>
            <AltitudeMeters>1048.5999755859375</AltitudeMeters>
            <DistanceMeters>58210.247475442</DistanceMeters>
          </Trackpoint>
          <Trackpoint>
            <Time>2021-07-27T12:56:58.000Z</Time>
            <Position>
              <LatitudeDegrees>41.06551076285541057586669921875</LatitudeDegrees>
              <LongitudeDegrees>-2.983381859958171844482421875</LongitudeDegrees>
            </Position>
            <AltitudeMeters>1048.199951171875</AltitudeMeters>
            <DistanceMeters>58255.912533123</DistanceMeters>
          </Trackpoint>
          <Trackpoint>
            <Time>2021-07-27T12:57:05.000Z</Time>
            <Position>
              <LatitudeDegrees>41.06567823328077793121337890625</LatitudeDegrees>
              <LongitudeDegrees>-2.98335067927837371826171875</LongitudeDegrees>
            </Position>
            <AltitudeMeters>1048.800048828125</AltitudeMeters>
            <DistanceMeters>58274.735020186</DistanceMeters>
          </Trackpoint>
          <Trackpoint>
            <Time>2021-07-27T12:57:13.000Z</Time>
            <Position>
              <LatitudeDegrees>41.06587034650146961212158203125</LatitudeDegrees>
              <LongitudeDegrees>-2.983322180807590484619140625</LongitudeDegrees>
            </Position>
            <AltitudeMeters>1049.5999755859375</AltitudeMeters>
            <DistanceMeters>58296.250965412</DistanceMeters>
          </Trackpoint>
          <Trackpoint>
            <Time>2021-07-27T12:57:21.000Z</Time>
            <Position>
              <LatitudeDegrees>41.066064722836017608642578125</LatitudeDegrees>
              <LongitudeDegrees>-2.98329192213714122772216796875</LongitudeDegrees>
            </Position>
            <AltitudeMeters>1050.199951171875</AltitudeMeters>
            <DistanceMeters>58318.034064982</DistanceMeters>
          </Trackpoint>
          <Trackpoint>
            <Time>2021-07-27T12:57:30.000Z</Time>
            <Position>
              <LatitudeDegrees>41.0662744380533695220947265625</LatitudeDegrees>
              <LongitudeDegrees>-2.9832660220563411712646484375</LongitudeDegrees>
            </Position>
            <AltitudeMeters>1051.4000244140625</AltitudeMeters>
            <DistanceMeters>58341.476598809</DistanceMeters>
          </Trackpoint>
          <Trackpoint>
            <Time>2021-07-27T12:57:37.000Z</Time>
            <Position>
              <LatitudeDegrees>41.06642874889075756072998046875</LatitudeDegrees>
              <LongitudeDegrees>-2.98324347473680973052978515625</LongitudeDegrees>
            </Position>
            <AltitudeMeters>1053</AltitudeMeters>
            <DistanceMeters>58358.755267375</DistanceMeters>
          </Trackpoint>
          <Trackpoint>
            <Time>2021-07-27T12:57:45.000Z</Time>
            <Position>
              <LatitudeDegrees>41.06660594232380390167236328125</LatitudeDegrees>
              <LongitudeDegrees>-2.9832239449024200439453125</LongitudeDegrees>
            </Position>
            <AltitudeMeters>1055.4000244140625</AltitudeMeters>
            <DistanceMeters>58378.545250837</DistanceMeters>
          </Trackpoint>
          <Trackpoint>
            <Time>2021-07-27T12:57:50.000Z</Time>
            <Position>
              <LatitudeDegrees>41.06671289540827274322509765625</LatitudeDegrees>
              <LongitudeDegrees>-2.98320357687771320343017578125</LongitudeDegrees>
            </Position>
            <AltitudeMeters>1057.199951171875</AltitudeMeters>
            <DistanceMeters>58390.571293591</DistanceMeters>
          </Trackpoint>
          <Trackpoint>
            <Time>2021-07-27T12:58:01.000Z</Time>
            <Position>
              <LatitudeDegrees>41.0669468343257904052734375</LatitudeDegrees>
              <LongitudeDegrees>-2.9831842146813869476318359375</LongitudeDegrees>
            </Position>
            <AltitudeMeters>1061.199951171875</AltitudeMeters>
            <DistanceMeters>58416.659891134</DistanceMeters>
          </Trackpoint>
          <Trackpoint>
            <Time>2021-07-27T12:58:08.000Z</Time>
            <Position>
              <LatitudeDegrees>41.0670992173254489898681640625</LatitudeDegrees>
              <LongitudeDegrees>-2.983180023729801177978515625</LongitudeDegrees>
            </Position>
            <AltitudeMeters>1063.800048828125</AltitudeMeters>
            <DistanceMeters>58433.624222428</DistanceMeters>
          </Trackpoint>
          <Trackpoint>
            <Time>2021-07-27T12:58:22.000Z</Time>
            <Position>
              <LatitudeDegrees>41.0673902370035648345947265625</LatitudeDegrees>
              <LongitudeDegrees>-2.9832033254206180572509765625</LongitudeDegrees>
            </Position>
            <AltitudeMeters>1068.199951171875</AltitudeMeters>
            <DistanceMeters>58466.074140982</DistanceMeters>
          </Trackpoint>
          <Trackpoint>
            <Time>2021-07-27T12:58:27.000Z</Time>
            <Position>
              <LatitudeDegrees>41.06748905964195728302001953125</LatitudeDegrees>
              <LongitudeDegrees>-2.98321413807570934295654296875</LongitudeDegrees>
            </Position>
            <AltitudeMeters>1068.199951171875</AltitudeMeters>
            <DistanceMeters>58477.110748303</DistanceMeters>
          </Trackpoint>
          <Trackpoint>
            <Time>2021-07-27T12:58:42.000Z</Time>
            <Position>
              <LatitudeDegrees>41.06776046566665172576904296875</LatitudeDegrees>
              <LongitudeDegrees>-2.98326677642762660980224609375</LongitudeDegrees>
            </Position>
            <AltitudeMeters>1068.5999755859375</AltitudeMeters>
            <DistanceMeters>58507.640067656</DistanceMeters>
          </Trackpoint>
          <Trackpoint>
            <Time>2021-07-27T12:59:01.000Z</Time>
            <Position>
              <LatitudeDegrees>41.06804477982223033905029296875</LatitudeDegrees>
              <LongitudeDegrees>-2.98334238119423389434814453125</LongitudeDegrees>
            </Position>
            <AltitudeMeters>1069</AltitudeMeters>
            <DistanceMeters>58539.914475132</DistanceMeters>
          </Trackpoint>
          <Trackpoint>
            <Time>2021-07-27T12:59:23.000Z</Time>
            <Position>
              <LatitudeDegrees>41.06841878034174442291259765625</LatitudeDegrees>
              <LongitudeDegrees>-2.9834787547588348388671875</LongitudeDegrees>
            </Position>
            <AltitudeMeters>1070.199951171875</AltitudeMeters>
            <DistanceMeters>58583.085792319</DistanceMeters>
          </Trackpoint>
          <Trackpoint>
            <Time>2021-07-27T12:59:39.000Z</Time>
            <Position>
              <LatitudeDegrees>41.068763025104999542236328125</LatitudeDegrees>
              <LongitudeDegrees>-2.98364664427936077117919921875</LongitudeDegrees>
            </Position>
            <AltitudeMeters>1068.5999755859375</AltitudeMeters>
            <DistanceMeters>58623.908808718</DistanceMeters>
          </Trackpoint>
          <Trackpoint>
            <Time>2021-07-27T12:59:49.000Z</Time>
            <Position>
              <LatitudeDegrees>41.068997047841548919677734375</LatitudeDegrees>
              <LongitudeDegrees>-2.98375410027801990509033203125</LongitudeDegrees>
            </Position>
            <AltitudeMeters>1067.4000244140625</AltitudeMeters>
            <DistanceMeters>58651.472617268</DistanceMeters>
          </Trackpoint>
          <Trackpoint>
            <Time>2021-07-27T12:59:58.000Z</Time>
            <Position>
              <LatitudeDegrees>41.06921455822885036468505859375</LatitudeDegrees>
              <LongitudeDegrees>-2.983848564326763153076171875</LongitudeDegrees>
            </Position>
            <AltitudeMeters>1066.199951171875</AltitudeMeters>
            <DistanceMeters>58676.946512797</DistanceMeters>
          </Trackpoint>
          <Trackpoint>
            <Time>2021-07-27T13:00:11.000Z</Time>
            <Position>
              <LatitudeDegrees>41.06953860260546207427978515625</LatitudeDegrees>
              <LongitudeDegrees>-2.9839764721691608428955078125</LongitudeDegrees>
            </Position>
            <AltitudeMeters>1067.4000244140625</AltitudeMeters>
            <DistanceMeters>58714.576371781</DistanceMeters>
          </Trackpoint>
          <Trackpoint>
            <Time>2021-07-27T13:00:21.000Z</Time>
            <Position>
              <LatitudeDegrees>41.06980615295469760894775390625</LatitudeDegrees>
              <LongitudeDegrees>-2.98406490124762058258056640625</LongitudeDegrees>
            </Position>
            <AltitudeMeters>1070.800048828125</AltitudeMeters>
            <DistanceMeters>58745.266028561</DistanceMeters>
          </Trackpoint>
          <Trackpoint>
            <Time>2021-07-27T13:00:32.000Z</Time>
            <Position>
              <LatitudeDegrees>41.07009180821478366851806640625</LatitudeDegrees>
              <LongitudeDegrees>-2.9841343872249126434326171875</LongitudeDegrees>
            </Position>
            <AltitudeMeters>1073.4000244140625</AltitudeMeters>
            <DistanceMeters>58777.590340081</DistanceMeters>
          </Trackpoint>
          <Trackpoint>
            <Time>2021-07-27T13:00:44.000Z</Time>
            <Position>
              <LatitudeDegrees>41.0704157687723636627197265625</LatitudeDegrees>
              <LongitudeDegrees>-2.98417545855045318603515625</LongitudeDegrees>
            </Position>
            <AltitudeMeters>1075.800048828125</AltitudeMeters>
            <DistanceMeters>58813.811975836</DistanceMeters>
          </Trackpoint>
          <Trackpoint>
            <Time>2021-07-27T13:01:05.000Z</Time>
            <Position>
              <LatitudeDegrees>41.0709699802100658416748046875</LatitudeDegrees>
              <LongitudeDegrees>-2.98416045494377613067626953125</LongitudeDegrees>
            </Position>
            <AltitudeMeters>1082.800048828125</AltitudeMeters>
            <DistanceMeters>58875.509712138</DistanceMeters>
          </Trackpoint>
          <Trackpoint>
            <Time>2021-07-27T13:01:09.000Z</Time>
            <Position>
              <LatitudeDegrees>41.07101012952625751495361328125</LatitudeDegrees>
              <LongitudeDegrees>-2.98416070640087127685546875</LongitudeDegrees>
            </Position>
            <AltitudeMeters>1083</AltitudeMeters>
            <DistanceMeters>58879.978999452</DistanceMeters>
          </Trackpoint>
          <Trackpoint>
            <Time>2021-07-27T13:03:27.000Z</Time>
            <Position>
              <LatitudeDegrees>41.07104784809052944183349609375</LatitudeDegrees>
              <LongitudeDegrees>-2.98414997756481170654296875</LongitudeDegrees>
            </Position>
            <AltitudeMeters>1082.800048828125</AltitudeMeters>
            <DistanceMeters>58884.273113575</DistanceMeters>
          </Trackpoint>
          <Trackpoint>
            <Time>2021-07-27T13:03:46.000Z</Time>
            <Position>
              <LatitudeDegrees>41.07158864848315715789794921875</LatitudeDegrees>
              <LongitudeDegrees>-2.9840768873691558837890625</LongitudeDegrees>
            </Position>
            <AltitudeMeters>1079.199951171875</AltitudeMeters>
            <DistanceMeters>58944.77692932</DistanceMeters>
          </Trackpoint>
          <Trackpoint>
            <Time>2021-07-27T13:03:58.000Z</Time>
            <Position>
              <LatitudeDegrees>41.07202316634356975555419921875</LatitudeDegrees>
              <LongitudeDegrees>-2.9840053059160709381103515625</LongitudeDegrees>
            </Position>
            <AltitudeMeters>1075</AltitudeMeters>
            <DistanceMeters>58993.511183144</DistanceMeters>
          </Trackpoint>
          <Trackpoint>
            <Time>2021-07-27T13:04:05.000Z</Time>
            <Position>
              <LatitudeDegrees>41.07237118296325206756591796875</LatitudeDegrees>
              <LongitudeDegrees>-2.98397186212241649627685546875</LongitudeDegrees>
            </Position>
            <AltitudeMeters>1071.199951171875</AltitudeMeters>
            <DistanceMeters>59032.347707297</DistanceMeters>
          </Trackpoint>
          <Trackpoint>
            <Time>2021-07-27T13:04:06.000Z</Time>
            <Position>
              <LatitudeDegrees>41.07242859899997711181640625</LatitudeDegrees>
              <LongitudeDegrees>-2.9839677549898624420166015625</LongitudeDegrees>
            </Position>
            <AltitudeMeters>1070.800048828125</AltitudeMeters>
            <DistanceMeters>59038.747740637</DistanceMeters>
          </Trackpoint>
          <Trackpoint>
            <Time>2021-07-27T13:04:11.000Z</Time>
            <Position>
              <LatitudeDegrees>41.072739399969577789306640625</LatitudeDegrees>
              <LongitudeDegrees>-2.9839650727808475494384765625</LongitudeDegrees>
            </Position>
            <AltitudeMeters>1070.4000244140625</AltitudeMeters>
            <DistanceMeters>59073.341380382</DistanceMeters>
          </Trackpoint>
          <Trackpoint>
            <Time>2021-07-27T13:04:15.000Z</Time>
            <Position>
              <LatitudeDegrees>41.07301726005971431732177734375</LatitudeDegrees>
              <LongitudeDegrees>-2.98399264924228191375732421875</LongitudeDegrees>
            </Position>
            <AltitudeMeters>1071.5999755859375</AltitudeMeters>
            <DistanceMeters>59104.354175194</DistanceMeters>
          </Trackpoint>
          <Trackpoint>
            <Time>2021-07-27T13:04:18.000Z</Time>
            <Position>
              <LatitudeDegrees>41.07323954813182353973388671875</LatitudeDegrees>
              <LongitudeDegrees>-2.98403120599687099456787109375</LongitudeDegrees>
            </Position>
            <AltitudeMeters>1072.800048828125</AltitudeMeters>
            <DistanceMeters>59129.305881558</DistanceMeters>
          </Trackpoint>
          <Trackpoint>
            <Time>2021-07-27T13:04:22.000Z</Time>
            <Position>
              <LatitudeDegrees>41.07355269603431224822998046875</LatitudeDegrees>
              <LongitudeDegrees>-2.98411586321890354156494140625</LongitudeDegrees>
            </Position>
            <AltitudeMeters>1071</AltitudeMeters>
            <DistanceMeters>59164.87634952</DistanceMeters>
          </Trackpoint>
          <Trackpoint>
            <Time>2021-07-27T13:04:25.000Z</Time>
            <Position>
              <LatitudeDegrees>41.0737970285117626190185546875</LatitudeDegrees>
              <LongitudeDegrees>-2.98419448547065258026123046875</LongitudeDegrees>
            </Position>
            <AltitudeMeters>1071.800048828125</AltitudeMeters>
            <DistanceMeters>59192.85974047</DistanceMeters>
          </Trackpoint>
          <Trackpoint>
            <Time>2021-07-27T13:04:28.000Z</Time>
            <Position>
              <LatitudeDegrees>41.074043624103069305419921875</LatitudeDegrees>
              <LongitudeDegrees>-2.98430060036480426788330078125</LongitudeDegrees>
            </Position>
            <AltitudeMeters>1072</AltitudeMeters>
            <DistanceMeters>59221.714395351</DistanceMeters>
          </Trackpoint>
          <Trackpoint>
            <Time>2021-07-27T13:04:30.000Z</Time>
            <Position>
              <LatitudeDegrees>41.07421184889972209930419921875</LatitudeDegrees>
              <LongitudeDegrees>-2.98437603749334812164306640625</LongitudeDegrees>
            </Position>
            <AltitudeMeters>1071.5999755859375</AltitudeMeters>
            <DistanceMeters>59241.4790382</DistanceMeters>
          </Trackpoint>
          <Trackpoint>
            <Time>2021-07-27T13:04:33.000Z</Time>
            <Position>
              <LatitudeDegrees>41.0744746215641498565673828125</LatitudeDegrees>
              <LongitudeDegrees>-2.9844968207180500030517578125</LongitudeDegrees>
            </Position>
            <AltitudeMeters>1070.800048828125</AltitudeMeters>
            <DistanceMeters>59272.432376806</DistanceMeters>
          </Trackpoint>
          <Trackpoint>
            <Time>2021-07-27T13:04:35.000Z</Time>
            <Position>
              <LatitudeDegrees>41.07465826906263828277587890625</LatitudeDegrees>
              <LongitudeDegrees>-2.98458776436746120452880859375</LongitudeDegrees>
            </Position>
            <AltitudeMeters>1069.800048828125</AltitudeMeters>
            <DistanceMeters>59294.250477315</DistanceMeters>
          </Trackpoint>
          <Trackpoint>
            <Time>2021-07-27T13:04:37.000Z</Time>
            <Position>
              <LatitudeDegrees>41.07485021464526653289794921875</LatitudeDegrees>
              <LongitudeDegrees>-2.98468767665326595306396484375</LongitudeDegrees>
            </Position>
            <AltitudeMeters>1067.4000244140625</AltitudeMeters>
            <DistanceMeters>59317.200166609</DistanceMeters>
          </Trackpoint>
          <Trackpoint>
            <Time>2021-07-27T13:04:39.000Z</Time>
            <Position>
              <LatitudeDegrees>41.0750499553978443145751953125</LatitudeDegrees>
              <LongitudeDegrees>-2.9847895167768001556396484375</LongitudeDegrees>
            </Position>
            <AltitudeMeters>1063.4000244140625</AltitudeMeters>
            <DistanceMeters>59341.017205511</DistanceMeters>
          </Trackpoint>
          <Trackpoint>
            <Time>2021-07-27T13:04:41.000Z</Time>
            <Position>
              <LatitudeDegrees>41.07525958679616451263427734375</LatitudeDegrees>
              <LongitudeDegrees>-2.9848904348909854888916015625</LongitudeDegrees>
            </Position>
            <AltitudeMeters>1059.800048828125</AltitudeMeters>
            <DistanceMeters>59365.83828517</DistanceMeters>
          </Trackpoint>
          <Trackpoint>
            <Time>2021-07-27T13:04:43.000Z</Time>
            <Position>
              <LatitudeDegrees>41.07547483406960964202880859375</LatitudeDegrees>
              <LongitudeDegrees>-2.98500501550734043121337890625</LongitudeDegrees>
            </Position>
            <AltitudeMeters>1057.4000244140625</AltitudeMeters>
            <DistanceMeters>59391.652340666</DistanceMeters>
          </Trackpoint>
          <Trackpoint>
            <Time>2021-07-27T13:04:45.000Z</Time>
            <Position>
              <LatitudeDegrees>41.07569477520883083343505859375</LatitudeDegrees>
              <LongitudeDegrees>-2.98512772656977176666259765625</LongitudeDegrees>
            </Position>
            <AltitudeMeters>1055.199951171875</AltitudeMeters>
            <DistanceMeters>59418.209374771</DistanceMeters>
          </Trackpoint>
          <Trackpoint>
            <Time>2021-07-27T13:04:46.000Z</Time>
            <Position>
              <LatitudeDegrees>41.07580692507326602935791015625</LatitudeDegrees>
              <LongitudeDegrees>-2.98519142903387546539306640625</LongitudeDegrees>
            </Position>
            <AltitudeMeters>1055.5999755859375</AltitudeMeters>
            <DistanceMeters>59431.788223431</DistanceMeters>
          </Trackpoint>
          <Trackpoint>
            <Time>2021-07-27T13:04:48.000Z</Time>
            <Position>
              <LatitudeDegrees>41.07602971605956554412841796875</LatitudeDegrees>
              <LongitudeDegrees>-2.98533023335039615631103515625</LongitudeDegrees>
            </Position>
            <AltitudeMeters>1056.199951171875</AltitudeMeters>
            <DistanceMeters>59459.183948892</DistanceMeters>
          </Trackpoint>
          <Trackpoint>
            <Time>2021-07-27T13:04:50.000Z</Time>
            <Position>
              <LatitudeDegrees>41.07624781318008899688720703125</LatitudeDegrees>
              <LongitudeDegrees>-2.98548898659646511077880859375</LongitudeDegrees>
            </Position>
            <AltitudeMeters>1056.5999755859375</AltitudeMeters>
            <DistanceMeters>59486.872946352</DistanceMeters>
          </Trackpoint>
          <Trackpoint>
            <Time>2021-07-27T13:04:51.000Z</Time>
            <Position>
              <LatitudeDegrees>41.07635694555938243865966796875</LatitudeDegrees>
              <LongitudeDegrees>-2.98557012341916561126708984375</LongitudeDegrees>
            </Position>
            <AltitudeMeters>1055</AltitudeMeters>
            <DistanceMeters>59500.7975218</DistanceMeters>
          </Trackpoint>
          <Trackpoint>
            <Time>2021-07-27T13:04:52.000Z</Time>
            <Position>
              <LatitudeDegrees>41.07646591030061244964599609375</LatitudeDegrees>
              <LongitudeDegrees>-2.98565377481281757354736328125</LongitudeDegrees>
            </Position>
            <AltitudeMeters>1054.199951171875</AltitudeMeters>
            <DistanceMeters>59514.810015589</DistanceMeters>
          </Trackpoint>
          <Trackpoint>
            <Time>2021-07-27T13:04:54.000Z</Time>
            <Position>
              <LatitudeDegrees>41.07667780481278896331787109375</LatitudeDegrees>
              <LongitudeDegrees>-2.98583172261714935302734375</LongitudeDegrees>
            </Position>
            <AltitudeMeters>1052.5999755859375</AltitudeMeters>
            <DistanceMeters>59542.72297057</DistanceMeters>
          </Trackpoint>
          <Trackpoint>
            <Time>2021-07-27T13:04:57.000Z</Time>
            <Position>
              <LatitudeDegrees>41.07697536237537860870361328125</LatitudeDegrees>
              <LongitudeDegrees>-2.98612676560878753662109375</LongitudeDegrees>
            </Position>
            <AltitudeMeters>1048.800048828125</AltitudeMeters>
            <DistanceMeters>59584.071058471</DistanceMeters>
          </Trackpoint>
          <Trackpoint>
            <Time>2021-07-27T13:04:58.000Z</Time>
            <Position>
              <LatitudeDegrees>41.07706890441477298736572265625</LatitudeDegrees>
              <LongitudeDegrees>-2.9862301982939243316650390625</LongitudeDegrees>
            </Position>
            <AltitudeMeters>1047.4000244140625</AltitudeMeters>
            <DistanceMeters>59597.624946297</DistanceMeters>
          </Trackpoint>
          <Trackpoint>
            <Time>2021-07-27T13:05:03.000Z</Time>
            <Position>
              <LatitudeDegrees>41.0774770192801952362060546875</LatitudeDegrees>
              <LongitudeDegrees>-2.98677007667720317840576171875</LongitudeDegrees>
            </Position>
            <AltitudeMeters>1045</AltitudeMeters>
            <DistanceMeters>59661.774454064</DistanceMeters>
          </Trackpoint>
          <Trackpoint>
            <Time>2021-07-27T13:05:08.000Z</Time>
            <Position>
              <LatitudeDegrees>41.07778304256498813629150390625</LatitudeDegrees>
              <LongitudeDegrees>-2.9873101226985454559326171875</LongitudeDegrees>
            </Position>
            <AltitudeMeters>1044.199951171875</AltitudeMeters>
            <DistanceMeters>59718.459780927</DistanceMeters>
          </Trackpoint>
          <Trackpoint>
            <Time>2021-07-27T13:05:10.000Z</Time>
            <Position>
              <LatitudeDegrees>41.0778810270130634307861328125</LatitudeDegrees>
              <LongitudeDegrees>-2.98751019872725009918212890625</LongitudeDegrees>
            </Position>
            <AltitudeMeters>1042.5999755859375</AltitudeMeters>
            <DistanceMeters>59738.478190765</DistanceMeters>
          </Trackpoint>
          <Trackpoint>
            <Time>2021-07-27T13:05:13.000Z</Time>
            <Position>
              <LatitudeDegrees>41.07799812220036983489990234375</LatitudeDegrees>
              <LongitudeDegrees>-2.987787723541259765625</LongitudeDegrees>
            </Position>
            <AltitudeMeters>1040</AltitudeMeters>
            <DistanceMeters>59765.162091486</DistanceMeters>
          </Trackpoint>
          <Trackpoint>
            <Time>2021-07-27T13:05:15.000Z</Time>
            <Position>
              <LatitudeDegrees>41.07805855572223663330078125</LatitudeDegrees>
              <LongitudeDegrees>-2.98795469105243682861328125</LongitudeDegrees>
            </Position>
            <AltitudeMeters>1039.4000244140625</AltitudeMeters>
            <DistanceMeters>59780.701792392</DistanceMeters>
          </Trackpoint>
          <Trackpoint>
            <Time>2021-07-27T13:05:18.000Z</Time>
            <Position>
              <LatitudeDegrees>41.07812963426113128662109375</LatitudeDegrees>
              <LongitudeDegrees>-2.988170944154262542724609375</LongitudeDegrees>
            </Position>
            <AltitudeMeters>1039.5999755859375</AltitudeMeters>
            <DistanceMeters>59800.495197774</DistanceMeters>
          </Trackpoint>
          <Trackpoint>
            <Time>2021-07-27T13:05:22.000Z</Time>
            <Position>
              <LatitudeDegrees>41.07819308526813983917236328125</LatitudeDegrees>
              <LongitudeDegrees>-2.988401614129543304443359375</LongitudeDegrees>
            </Position>
            <AltitudeMeters>1040.5999755859375</AltitudeMeters>
            <DistanceMeters>59821.096936851</DistanceMeters>
          </Trackpoint>
          <Trackpoint>
            <Time>2021-07-27T13:05:24.000Z</Time>
            <Position>
              <LatitudeDegrees>41.07822108082473278045654296875</LatitudeDegrees>
              <LongitudeDegrees>-2.9884899593889713287353515625</LongitudeDegrees>
            </Position>
            <AltitudeMeters>1041</AltitudeMeters>
            <DistanceMeters>59829.137230208</DistanceMeters>
          </Trackpoint>
          <Trackpoint>
            <Time>2021-07-27T13:05:28.000Z</Time>
            <Position>
              <LatitudeDegrees>41.0782603919506072998046875</LatitudeDegrees>
              <LongitudeDegrees>-2.9886240698397159576416015625</LongitudeDegrees>
            </Position>
            <AltitudeMeters>1041.5999755859375</AltitudeMeters>
            <DistanceMeters>59841.209737562</DistanceMeters>
          </Trackpoint>
          <Trackpoint>
            <Time>2021-07-27T13:05:34.000Z</Time>
            <Position>
              <LatitudeDegrees>41.07829132117331027984619140625</LatitudeDegrees>
              <LongitudeDegrees>-2.988795898854732513427734375</LongitudeDegrees>
            </Position>
            <AltitudeMeters>1042.4000244140625</AltitudeMeters>
            <DistanceMeters>59856.03177284</DistanceMeters>
          </Trackpoint>
          <Trackpoint>
            <Time>2021-07-27T13:05:37.000Z</Time>
            <Position>
              <LatitudeDegrees>41.07830406166613101959228515625</LatitudeDegrees>
              <LongitudeDegrees>-2.98887862823903560638427734375</LongitudeDegrees>
            </Position>
            <AltitudeMeters>1043</AltitudeMeters>
            <DistanceMeters>59863.116204002</DistanceMeters>
          </Trackpoint>
          <Trackpoint>
            <Time>2021-07-27T13:05:41.000Z</Time>
            <Position>
              <LatitudeDegrees>41.078325100243091583251953125</LatitudeDegrees>
              <LongitudeDegrees>-2.98898273147642612457275390625</LongitudeDegrees>
            </Position>
            <AltitudeMeters>1043.5999755859375</AltitudeMeters>
            <DistanceMeters>59872.158733637</DistanceMeters>
          </Trackpoint>
          <Trackpoint>
            <Time>2021-07-27T13:05:47.000Z</Time>
            <Position>
              <LatitudeDegrees>41.078346557915210723876953125</LatitudeDegrees>
              <LongitudeDegrees>-2.9891175962984561920166015625</LongitudeDegrees>
            </Position>
            <AltitudeMeters>1044.5999755859375</AltitudeMeters>
            <DistanceMeters>59883.723918127</DistanceMeters>
          </Trackpoint>
          <Trackpoint>
            <Time>2021-07-27T13:05:55.000Z</Time>
            <Position>
              <LatitudeDegrees>41.0783708654344081878662109375</LatitudeDegrees>
              <LongitudeDegrees>-2.989287413656711578369140625</LongitudeDegrees>
            </Position>
            <AltitudeMeters>1046.4000244140625</AltitudeMeters>
            <DistanceMeters>59898.226314841</DistanceMeters>
          </Trackpoint>
          <Trackpoint>
            <Time>2021-07-27T13:06:07.000Z</Time>
            <Position>
              <LatitudeDegrees>41.07840145938098430633544921875</LatitudeDegrees>
              <LongitudeDegrees>-2.9895378649234771728515625</LongitudeDegrees>
            </Position>
            <AltitudeMeters>1049.800048828125</AltitudeMeters>
            <DistanceMeters>59919.513359399</DistanceMeters>
          </Trackpoint>
          <Trackpoint>
            <Time>2021-07-27T13:06:21.000Z</Time>
            <Position>
              <LatitudeDegrees>41.0784285329282283782958984375</LatitudeDegrees>
              <LongitudeDegrees>-2.98982578329741954803466796875</LongitudeDegrees>
            </Position>
            <AltitudeMeters>1054.800048828125</AltitudeMeters>
            <DistanceMeters>59943.857267402</DistanceMeters>
          </Trackpoint>
          <Trackpoint>
            <Time>2021-07-27T13:06:29.000Z</Time>
            <Position>
              <LatitudeDegrees>41.07844420708715915679931640625</LatitudeDegrees>
              <LongitudeDegrees>-2.9899846203625202178955078125</LongitudeDegrees>
            </Position>
            <AltitudeMeters>1057.4000244140625</AltitudeMeters>
            <DistanceMeters>59957.297418041</DistanceMeters>
          </Trackpoint>
          <Trackpoint>
            <Time>2021-07-27T13:06:38.000Z</Time>
            <Position>
              <LatitudeDegrees>41.07845141552388668060302734375</LatitudeDegrees>
              <LongitudeDegrees>-2.99016608856618404388427734375</LongitudeDegrees>
            </Position>
            <AltitudeMeters>1060.5999755859375</AltitudeMeters>
            <DistanceMeters>59972.543802131</DistanceMeters>
          </Trackpoint>
          <Trackpoint>
            <Time>2021-07-27T13:06:49.000Z</Time>
            <Position>
              <LatitudeDegrees>41.0784607194364070892333984375</LatitudeDegrees>
              <LongitudeDegrees>-2.990388460457324981689453125</LongitudeDegrees>
            </Position>
            <AltitudeMeters>1063.199951171875</AltitudeMeters>
            <DistanceMeters>59991.229543641</DistanceMeters>
          </Trackpoint>
          <Trackpoint>
            <Time>2021-07-27T13:06:58.000Z</Time>
            <Position>
              <LatitudeDegrees>41.0784613899886608123779296875</LatitudeDegrees>
              <LongitudeDegrees>-2.99057185649871826171875</LongitudeDegrees>
            </Position>
            <AltitudeMeters>1064.4000244140625</AltitudeMeters>
            <DistanceMeters>60006.616830743</DistanceMeters>
          </Trackpoint>
          <Trackpoint>
            <Time>2021-07-27T13:07:07.000Z</Time>
            <Position>
              <LatitudeDegrees>41.07845820486545562744140625</LatitudeDegrees>
              <LongitudeDegrees>-2.99075215123593807220458984375</LongitudeDegrees>
            </Position>
            <AltitudeMeters>1064.800048828125</AltitudeMeters>
            <DistanceMeters>60021.747876912</DistanceMeters>
          </Trackpoint>
          <Trackpoint>
            <Time>2021-07-27T13:07:15.000Z</Time>
            <Position>
              <LatitudeDegrees>41.07848142273724079132080078125</LatitudeDegrees>
              <LongitudeDegrees>-2.99091191031038761138916015625</LongitudeDegrees>
            </Position>
            <AltitudeMeters>1064.800048828125</AltitudeMeters>
            <DistanceMeters>60035.398688518</DistanceMeters>
          </Trackpoint>
          <Trackpoint>
            <Time>2021-07-27T13:07:22.000Z</Time>
            <Position>
              <LatitudeDegrees>41.0784816741943359375</LatitudeDegrees>
              <LongitudeDegrees>-2.9910586774349212646484375</LongitudeDegrees>
            </Position>
            <AltitudeMeters>1063.800048828125</AltitudeMeters>
            <DistanceMeters>60047.712625485</DistanceMeters>
          </Trackpoint>
          <Trackpoint>
            <Time>2021-07-27T13:07:24.000Z</Time>
            <Position>
              <LatitudeDegrees>41.0784798301756381988525390625</LatitudeDegrees>
              <LongitudeDegrees>-2.991103939712047576904296875</LongitudeDegrees>
            </Position>
            <AltitudeMeters>1063.199951171875</AltitudeMeters>
            <DistanceMeters>60051.516068986</DistanceMeters>
          </Trackpoint>
          <Trackpoint>
            <Time>2021-07-27T13:07:31.000Z</Time>
            <Position>
              <LatitudeDegrees>41.0784794948995113372802734375</LatitudeDegrees>
              <LongitudeDegrees>-2.99125875346362590789794921875</LongitudeDegrees>
            </Position>
            <AltitudeMeters>1061.5999755859375</AltitudeMeters>
            <DistanceMeters>60064.504868707</DistanceMeters>
          </Trackpoint>
          <Trackpoint>
            <Time>2021-07-27T13:07:39.000Z</Time>
            <Position>
              <LatitudeDegrees>41.0784808360040187835693359375</LatitudeDegrees>
              <LongitudeDegrees>-2.9914315044879913330078125</LongitudeDegrees>
            </Position>
            <AltitudeMeters>1059.800048828125</AltitudeMeters>
            <DistanceMeters>60078.99948007</DistanceMeters>
          </Trackpoint>
          <Trackpoint>
            <Time>2021-07-27T13:07:47.000Z</Time>
            <Position>
              <LatitudeDegrees>41.078482009470462799072265625</LatitudeDegrees>
              <LongitudeDegrees>-2.99159771762788295745849609375</LongitudeDegrees>
            </Position>
            <AltitudeMeters>1059.199951171875</AltitudeMeters>
            <DistanceMeters>60092.945115816</DistanceMeters>
          </Trackpoint>
          <Trackpoint>
            <Time>2021-07-27T13:07:56.000Z</Time>
            <Position>
              <LatitudeDegrees>41.07848293147981166839599609375</LatitudeDegrees>
              <LongitudeDegrees>-2.9917867295444011688232421875</LongitudeDegrees>
            </Position>
            <AltitudeMeters>1059.800048828125</AltitudeMeters>
            <DistanceMeters>60108.8034773</DistanceMeters>
          </Trackpoint>
          <Trackpoint>
            <Time>2021-07-27T13:08:07.000Z</Time>
            <Position>
              <LatitudeDegrees>41.07848159037530422210693359375</LatitudeDegrees>
              <LongitudeDegrees>-2.99202770926058292388916015625</LongitudeDegrees>
            </Position>
            <AltitudeMeters>1063</AltitudeMeters>
            <DistanceMeters>60129.022071728</DistanceMeters>
          </Trackpoint>
          <Trackpoint>
            <Time>2021-07-27T13:08:17.000Z</Time>
            <Position>
              <LatitudeDegrees>41.07848142273724079132080078125</LatitudeDegrees>
              <LongitudeDegrees>-2.99223809503018856048583984375</LongitudeDegrees>
            </Position>
            <AltitudeMeters>1065.5999755859375</AltitudeMeters>
            <DistanceMeters>60146.673523725</DistanceMeters>
          </Trackpoint>
          <Trackpoint>
            <Time>2021-07-27T13:08:29.000Z</Time>
            <Position>
              <LatitudeDegrees>41.0784912295639514923095703125</LatitudeDegrees>
              <LongitudeDegrees>-2.99248628318309783935546875</LongitudeDegrees>
            </Position>
            <AltitudeMeters>1068.800048828125</AltitudeMeters>
            <DistanceMeters>60167.525338533</DistanceMeters>
          </Trackpoint>
          <Trackpoint>
            <Time>2021-07-27T13:08:38.000Z</Time>
            <Position>
              <LatitudeDegrees>41.07848812825977802276611328125</LatitudeDegrees>
              <LongitudeDegrees>-2.9926715232431888580322265625</LongitudeDegrees>
            </Position>
            <AltitudeMeters>1071.4000244140625</AltitudeMeters>
            <DistanceMeters>60183.070849325</DistanceMeters>
          </Trackpoint>
          <Trackpoint>
            <Time>2021-07-27T13:08:46.000Z</Time>
            <Position>
              <LatitudeDegrees>41.07848896645009517669677734375</LatitudeDegrees>
              <LongitudeDegrees>-2.99283639527857303619384765625</LongitudeDegrees>
            </Position>
            <AltitudeMeters>1073.199951171875</AltitudeMeters>
            <DistanceMeters>60196.904336955</DistanceMeters>
          </Trackpoint>
          <Trackpoint>
            <Time>2021-07-27T13:08:56.000Z</Time>
            <Position>
              <LatitudeDegrees>41.07849181629717350006103515625</LatitudeDegrees>
              <LongitudeDegrees>-2.99304175190627574920654296875</LongitudeDegrees>
            </Position>
            <AltitudeMeters>1074.4000244140625</AltitudeMeters>
            <DistanceMeters>60214.136954108</DistanceMeters>
          </Trackpoint>
          <Trackpoint>
            <Time>2021-07-27T13:08:58.000Z</Time>
            <Position>
              <LatitudeDegrees>41.0784949176013469696044921875</LatitudeDegrees>
              <LongitudeDegrees>-2.99308332614600658416748046875</LongitudeDegrees>
            </Position>
            <AltitudeMeters>1074.5999755859375</AltitudeMeters>
            <DistanceMeters>60217.641366179</DistanceMeters>
          </Trackpoint>
          <Trackpoint>
            <Time>2021-07-27T13:09:08.000Z</Time>
            <Position>
              <LatitudeDegrees>41.0785066522657871246337890625</LatitudeDegrees>
              <LongitudeDegrees>-2.99328449182212352752685546875</LongitudeDegrees>
            </Position>
            <AltitudeMeters>1075.800048828125</AltitudeMeters>
            <DistanceMeters>60234.569462524</DistanceMeters>
          </Trackpoint>
          <Trackpoint>
            <Time>2021-07-27T13:09:16.000Z</Time>
            <Position>
              <LatitudeDegrees>41.0785123519599437713623046875</LatitudeDegrees>
              <LongitudeDegrees>-2.99344492144882678985595703125</LongitudeDegrees>
            </Position>
            <AltitudeMeters>1077</AltitudeMeters>
            <DistanceMeters>60248.044505275</DistanceMeters>
          </Trackpoint>
          <Trackpoint>
            <Time>2021-07-27T13:09:25.000Z</Time>
            <Position>
              <LatitudeDegrees>41.07852735556662082672119140625</LatitudeDegrees>
              <LongitudeDegrees>-2.99362530000507831573486328125</LongitudeDegrees>
            </Position>
            <AltitudeMeters>1078.199951171875</AltitudeMeters>
            <DistanceMeters>60263.270145572</DistanceMeters>
          </Trackpoint>
          <Trackpoint>
            <Time>2021-07-27T13:09:27.000Z</Time>
            <Position>
              <LatitudeDegrees>41.078526265919208526611328125</LatitudeDegrees>
              <LongitudeDegrees>-2.99366536550223827362060546875</LongitudeDegrees>
            </Position>
            <AltitudeMeters>1078.5999755859375</AltitudeMeters>
            <DistanceMeters>60266.633876505</DistanceMeters>
          </Trackpoint>
          <Trackpoint>
            <Time>2021-07-27T13:09:33.000Z</Time>
            <Position>
              <LatitudeDegrees>41.0785408504307270050048828125</LatitudeDegrees>
              <LongitudeDegrees>-2.99377935938537120819091796875</LongitudeDegrees>
            </Position>
            <AltitudeMeters>1078.800048828125</AltitudeMeters>
            <DistanceMeters>60276.334517031</DistanceMeters>
          </Trackpoint>
          <Trackpoint>
            <Time>2021-07-27T13:09:42.000Z</Time>
            <Position>
              <LatitudeDegrees>41.07855769805610179901123046875</LatitudeDegrees>
              <LongitudeDegrees>-2.99394800327718257904052734375</LongitudeDegrees>
            </Position>
            <AltitudeMeters>1078.800048828125</AltitudeMeters>
            <DistanceMeters>60290.607516876</DistanceMeters>
          </Trackpoint>
          <Trackpoint>
            <Time>2021-07-27T13:09:47.000Z</Time>
            <Position>
              <LatitudeDegrees>41.0785686783492565155029296875</LatitudeDegrees>
              <LongitudeDegrees>-2.994044311344623565673828125</LongitudeDegrees>
            </Position>
            <AltitudeMeters>1078.800048828125</AltitudeMeters>
            <DistanceMeters>60298.779814312</DistanceMeters>
          </Trackpoint>
          <Trackpoint>
            <Time>2021-07-27T13:09:51.000Z</Time>
            <Position>
              <LatitudeDegrees>41.07857949100434780120849609375</LatitudeDegrees>
              <LongitudeDegrees>-2.9941259510815143585205078125</LongitudeDegrees>
            </Position>
            <AltitudeMeters>1078.199951171875</AltitudeMeters>
            <DistanceMeters>60305.734315691</DistanceMeters>
          </Trackpoint>
          <Trackpoint>
            <Time>2021-07-27T13:10:04.000Z</Time>
            <Position>
              <LatitudeDegrees>41.0786146111786365509033203125</LatitudeDegrees>
              <LongitudeDegrees>-2.99437413923442363739013671875</LongitudeDegrees>
            </Position>
            <AltitudeMeters>1078</AltitudeMeters>
            <DistanceMeters>60326.921224386</DistanceMeters>
          </Trackpoint>
          <Trackpoint>
            <Time>2021-07-27T13:10:06.000Z</Time>
            <Position>
              <LatitudeDegrees>41.07861938886344432830810546875</LatitudeDegrees>
              <LongitudeDegrees>-2.994411773979663848876953125</LongitudeDegrees>
            </Position>
            <AltitudeMeters>1078</AltitudeMeters>
            <DistanceMeters>60330.122651687</DistanceMeters>
          </Trackpoint>
          <Trackpoint>
            <Time>2021-07-27T13:10:17.000Z</Time>
            <Position>
              <LatitudeDegrees>41.07865802943706512451171875</LatitudeDegrees>
              <LongitudeDegrees>-2.99462811090052127838134765625</LongitudeDegrees>
            </Position>
            <AltitudeMeters>1078.4000244140625</AltitudeMeters>
            <DistanceMeters>60348.775986658</DistanceMeters>
          </Trackpoint>
          <Trackpoint>
            <Time>2021-07-27T13:10:32.000Z</Time>
            <Position>
              <LatitudeDegrees>41.07871712185442447662353515625</LatitudeDegrees>
              <LongitudeDegrees>-2.9949156939983367919921875</LongitudeDegrees>
            </Position>
            <AltitudeMeters>1080.5999755859375</AltitudeMeters>
            <DistanceMeters>60373.784808195</DistanceMeters>
          </Trackpoint>
          <Trackpoint>
            <Time>2021-07-27T13:10:47.000Z</Time>
            <Position>
              <LatitudeDegrees>41.0787968337535858154296875</LatitudeDegrees>
              <LongitudeDegrees>-2.99523663707077503204345703125</LongitudeDegrees>
            </Position>
            <AltitudeMeters>1086.199951171875</AltitudeMeters>
            <DistanceMeters>60402.135913366</DistanceMeters>
          </Trackpoint>
          <Trackpoint>
            <Time>2021-07-27T13:11:03.000Z</Time>
            <Position>
              <LatitudeDegrees>41.07890169136226177215576171875</LatitudeDegrees>
              <LongitudeDegrees>-2.9955773614346981048583984375</LongitudeDegrees>
            </Position>
            <AltitudeMeters>1092.5999755859375</AltitudeMeters>
            <DistanceMeters>60433.013308513</DistanceMeters>
          </Trackpoint>
          <Trackpoint>
            <Time>2021-07-27T13:11:14.000Z</Time>
            <Position>
              <LatitudeDegrees>41.07899221591651439666748046875</LatitudeDegrees>
              <LongitudeDegrees>-2.9958224482834339141845703125</LongitudeDegrees>
            </Position>
            <AltitudeMeters>1094.800048828125</AltitudeMeters>
            <DistanceMeters>60455.911789223</DistanceMeters>
          </Trackpoint>
          <Trackpoint>
            <Time>2021-07-27T13:11:26.000Z</Time>
            <Position>
              <LatitudeDegrees>41.0791146755218505859375</LatitudeDegrees>
              <LongitudeDegrees>-2.996107600629329681396484375</LongitudeDegrees>
            </Position>
            <AltitudeMeters>1097</AltitudeMeters>
            <DistanceMeters>60483.446425377</DistanceMeters>
          </Trackpoint>
          <Trackpoint>
            <Time>2021-07-27T13:11:44.000Z</Time>
            <Position>
              <LatitudeDegrees>41.0794192738831043243408203125</LatitudeDegrees>
              <LongitudeDegrees>-2.996701709926128387451171875</LongitudeDegrees>
            </Position>
            <AltitudeMeters>1102</AltitudeMeters>
            <DistanceMeters>60543.72872463</DistanceMeters>
          </Trackpoint>
          <Trackpoint>
            <Time>2021-07-27T13:12:00.000Z</Time>
            <Position>
              <LatitudeDegrees>41.0797951184213161468505859375</LatitudeDegrees>
              <LongitudeDegrees>-2.99723337404429912567138671875</LongitudeDegrees>
            </Position>
            <AltitudeMeters>1099.5999755859375</AltitudeMeters>
            <DistanceMeters>60604.881350231</DistanceMeters>
          </Trackpoint>
          <Trackpoint>
            <Time>2021-07-27T13:12:12.000Z</Time>
            <Position>
              <LatitudeDegrees>41.08017481863498687744140625</LatitudeDegrees>
              <LongitudeDegrees>-2.99765288829803466796875</LongitudeDegrees>
            </Position>
            <AltitudeMeters>1096.800048828125</AltitudeMeters>
            <DistanceMeters>60659.879738995</DistanceMeters>
          </Trackpoint>
          <Trackpoint>
            <Time>2021-07-27T13:12:19.000Z</Time>
            <Position>
              <LatitudeDegrees>41.08047296293079853057861328125</LatitudeDegrees>
              <LongitudeDegrees>-2.99792286939918994903564453125</LongitudeDegrees>
            </Position>
            <AltitudeMeters>1094.5999755859375</AltitudeMeters>
            <DistanceMeters>60700.05750132</DistanceMeters>
          </Trackpoint>
          <Trackpoint>
            <Time>2021-07-27T13:12:23.000Z</Time>
            <Position>
              <LatitudeDegrees>41.08069206587970256805419921875</LatitudeDegrees>
              <LongitudeDegrees>-2.9980832152068614959716796875</LongitudeDegrees>
            </Position>
            <AltitudeMeters>1090.199951171875</AltitudeMeters>
            <DistanceMeters>60727.908435532</DistanceMeters>
          </Trackpoint>
          <Trackpoint>
            <Time>2021-07-27T13:12:26.000Z</Time>
            <Position>
              <LatitudeDegrees>41.080882251262664794921875</LatitudeDegrees>
              <LongitudeDegrees>-2.99821305088698863983154296875</LongitudeDegrees>
            </Position>
            <AltitudeMeters>1088.4000244140625</AltitudeMeters>
            <DistanceMeters>60751.714476732</DistanceMeters>
          </Trackpoint>
          <Trackpoint>
            <Time>2021-07-27T13:12:28.000Z</Time>
            <Position>
              <LatitudeDegrees>41.0810218937695026397705078125</LatitudeDegrees>
              <LongitudeDegrees>-2.998302988708019256591796875</LongitudeDegrees>
            </Position>
            <AltitudeMeters>1087.4000244140625</AltitudeMeters>
            <DistanceMeters>60768.991577383</DistanceMeters>
          </Trackpoint>
          <Trackpoint>
            <Time>2021-07-27T13:12:31.000Z</Time>
            <Position>
              <LatitudeDegrees>41.081254743039608001708984375</LatitudeDegrees>
              <LongitudeDegrees>-2.99842880107462406158447265625</LongitudeDegrees>
            </Position>
            <AltitudeMeters>1086.4000244140625</AltitudeMeters>
            <DistanceMeters>60796.97512968</DistanceMeters>
          </Trackpoint>
          <Trackpoint>
            <Time>2021-07-27T13:12:34.000Z</Time>
            <Position>
              <LatitudeDegrees>41.08151282183825969696044921875</LatitudeDegrees>
              <LongitudeDegrees>-2.99854765646159648895263671875</LongitudeDegrees>
            </Position>
            <AltitudeMeters>1084</AltitudeMeters>
            <DistanceMeters>60827.381302518</DistanceMeters>
          </Trackpoint>
          <Trackpoint>
            <Time>2021-07-27T13:12:36.000Z</Time>
            <Position>
              <LatitudeDegrees>41.08169638551771640777587890625</LatitudeDegrees>
              <LongitudeDegrees>-2.99862929619848728179931640625</LongitudeDegrees>
            </Position>
            <AltitudeMeters>1082.199951171875</AltitudeMeters>
            <DistanceMeters>60848.929958877</DistanceMeters>
          </Trackpoint>
          <Trackpoint>
            <Time>2021-07-27T13:12:38.000Z</Time>
            <Position>
              <LatitudeDegrees>41.08188916929066181182861328125</LatitudeDegrees>
              <LongitudeDegrees>-2.99870389513671398162841796875</LongitudeDegrees>
            </Position>
            <AltitudeMeters>1081.4000244140625</AltitudeMeters>
            <DistanceMeters>60871.281244057</DistanceMeters>
          </Trackpoint>
          <Trackpoint>
            <Time>2021-07-27T13:12:40.000Z</Time>
            <Position>
              <LatitudeDegrees>41.0820904187858104705810546875</LatitudeDegrees>
              <LongitudeDegrees>-2.99877782352268695831298828125</LongitudeDegrees>
            </Position>
            <AltitudeMeters>1080.5999755859375</AltitudeMeters>
            <DistanceMeters>60894.523776045</DistanceMeters>
          </Trackpoint>
          <Trackpoint>
            <Time>2021-07-27T13:12:41.000Z</Time>
            <Position>
              <LatitudeDegrees>41.08219376765191555023193359375</LatitudeDegrees>
              <LongitudeDegrees>-2.99881453625857830047607421875</LongitudeDegrees>
            </Position>
            <AltitudeMeters>1080</AltitudeMeters>
            <DistanceMeters>60906.432105922</DistanceMeters>
          </Trackpoint>
          <Trackpoint>
            <Time>2021-07-27T13:12:42.000Z</Time>
            <Position>
              <LatitudeDegrees>41.08229803852736949920654296875</LatitudeDegrees>
              <LongitudeDegrees>-2.99885074608027935028076171875</LongitudeDegrees>
            </Position>
            <AltitudeMeters>1079.5999755859375</AltitudeMeters>
            <DistanceMeters>60918.428452378</DistanceMeters>
          </Trackpoint>
          <Trackpoint>
            <Time>2021-07-27T13:12:44.000Z</Time>
            <Position>
              <LatitudeDegrees>41.0825105197727680206298828125</LatitudeDegrees>
              <LongitudeDegrees>-2.99891981296241283416748046875</LongitudeDegrees>
            </Position>
            <AltitudeMeters>1077.800048828125</AltitudeMeters>
            <DistanceMeters>60942.777552957</DistanceMeters>
          </Trackpoint>
          <Trackpoint>
            <Time>2021-07-27T13:12:47.000Z</Time>
            <Position>
              <LatitudeDegrees>41.082839928567409515380859375</LatitudeDegrees>
              <LongitudeDegrees>-2.99903280101716518402099609375</LongitudeDegrees>
            </Position>
            <AltitudeMeters>1077.4000244140625</AltitudeMeters>
            <DistanceMeters>60980.647099566</DistanceMeters>
          </Trackpoint>
          <Trackpoint>
            <Time>2021-07-27T13:12:48.000Z</Time>
            <Position>
              <LatitudeDegrees>41.08295283280313014984130859375</LatitudeDegrees>
              <LongitudeDegrees>-2.99907035194337368011474609375</LongitudeDegrees>
            </Position>
            <AltitudeMeters>1076.5999755859375</AltitudeMeters>
            <DistanceMeters>60993.602137227</DistanceMeters>
          </Trackpoint>
          <Trackpoint>
            <Time>2021-07-27T13:12:49.000Z</Time>
            <Position>
              <LatitudeDegrees>41.08306615613400936126708984375</LatitudeDegrees>
              <LongitudeDegrees>-2.99910957925021648406982421875</LongitudeDegrees>
            </Position>
            <AltitudeMeters>1077</AltitudeMeters>
            <DistanceMeters>61006.637779847</DistanceMeters>
          </Trackpoint>
          <Trackpoint>
            <Time>2021-07-27T13:12:51.000Z</Time>
            <Position>
              <LatitudeDegrees>41.0832957364618778228759765625</LatitudeDegrees>
              <LongitudeDegrees>-2.9991899617016315460205078125</LongitudeDegrees>
            </Position>
            <AltitudeMeters>1075.4000244140625</AltitudeMeters>
            <DistanceMeters>61033.065459134</DistanceMeters>
          </Trackpoint>
          <Trackpoint>
            <Time>2021-07-27T13:12:53.000Z</Time>
            <Position>
              <LatitudeDegrees>41.08352799899876117706298828125</LatitudeDegrees>
              <LongitudeDegrees>-2.99926162697374820709228515625</LongitudeDegrees>
            </Position>
            <AltitudeMeters>1074.5999755859375</AltitudeMeters>
            <DistanceMeters>61059.606677331</DistanceMeters>
          </Trackpoint>
          <Trackpoint>
            <Time>2021-07-27T13:12:58.000Z</Time>
            <Position>
              <LatitudeDegrees>41.08410383574664592742919921875</LatitudeDegrees>
              <LongitudeDegrees>-2.999448291957378387451171875</LongitudeDegrees>
            </Position>
            <AltitudeMeters>1074.4000244140625</AltitudeMeters>
            <DistanceMeters>61125.583896886</DistanceMeters>
          </Trackpoint>
          <Trackpoint>
            <Time>2021-07-27T13:13:00.000Z</Time>
            <Position>
              <LatitudeDegrees>41.08432478271424770355224609375</LatitudeDegrees>
              <LongitudeDegrees>-2.9995222203433513641357421875</LongitudeDegrees>
            </Position>
            <AltitudeMeters>1074.800048828125</AltitudeMeters>
            <DistanceMeters>61150.945884294</DistanceMeters>
          </Trackpoint>
          <Trackpoint>
            <Time>2021-07-27T13:13:06.000Z</Time>
            <Position>
              <LatitudeDegrees>41.0849426127970218658447265625</LatitudeDegrees>
              <LongitudeDegrees>-2.99969916231930255889892578125</LongitudeDegrees>
            </Position>
            <AltitudeMeters>1075.5999755859375</AltitudeMeters>
            <DistanceMeters>61221.295438778</DistanceMeters>
          </Trackpoint>
          <Trackpoint>
            <Time>2021-07-27T13:13:07.000Z</Time>
            <Position>
              <LatitudeDegrees>41.08503724448382854461669921875</LatitudeDegrees>
              <LongitudeDegrees>-2.999713160097599029541015625</LongitudeDegrees>
            </Position>
            <AltitudeMeters>1076.199951171875</AltitudeMeters>
            <DistanceMeters>61231.893367388</DistanceMeters>
          </Trackpoint>
          <Trackpoint>
            <Time>2021-07-27T13:13:11.000Z</Time>
            <Position>
              <LatitudeDegrees>41.0853831656277179718017578125</LatitudeDegrees>
              <LongitudeDegrees>-2.99971341155469417572021484375</LongitudeDegrees>
            </Position>
            <AltitudeMeters>1075.199951171875</AltitudeMeters>
            <DistanceMeters>61270.395021236</DistanceMeters>
          </Trackpoint>
          <Trackpoint>
            <Time>2021-07-27T13:13:14.000Z</Time>
            <Position>
              <LatitudeDegrees>41.085603944957256317138671875</LatitudeDegrees>
              <LongitudeDegrees>-2.9996632039546966552734375</LongitudeDegrees>
            </Position>
            <AltitudeMeters>1074.800048828125</AltitudeMeters>
            <DistanceMeters>61295.326452842</DistanceMeters>
          </Trackpoint>
          <Trackpoint>
            <Time>2021-07-27T13:13:18.000Z</Time>
            <Position>
              <LatitudeDegrees>41.08584894798696041107177734375</LatitudeDegrees>
              <LongitudeDegrees>-2.99956220202147960662841796875</LongitudeDegrees>
            </Position>
            <AltitudeMeters>1076</AltitudeMeters>
            <DistanceMeters>61323.881940982</DistanceMeters>
          </Trackpoint>
          <Trackpoint>
            <Time>2021-07-27T13:13:21.000Z</Time>
            <Position>
              <LatitudeDegrees>41.08600133098661899566650390625</LatitudeDegrees>
              <LongitudeDegrees>-2.9994762875139713287353515625</LongitudeDegrees>
            </Position>
            <AltitudeMeters>1077.800048828125</AltitudeMeters>
            <DistanceMeters>61342.310264696</DistanceMeters>
          </Trackpoint>
          <Trackpoint>
            <Time>2021-07-27T13:13:25.000Z</Time>
            <Position>
              <LatitudeDegrees>41.0861797817051410675048828125</LatitudeDegrees>
              <LongitudeDegrees>-2.99935583956539630889892578125</LongitudeDegrees>
            </Position>
            <AltitudeMeters>1078.5999755859375</AltitudeMeters>
            <DistanceMeters>61364.59438379</DistanceMeters>
          </Trackpoint>
          <Trackpoint>
            <Time>2021-07-27T13:13:35.000Z</Time>
            <Position>
              <LatitudeDegrees>41.0865653492510318756103515625</LatitudeDegrees>
              <LongitudeDegrees>-2.9990866966545581817626953125</LongitudeDegrees>
            </Position>
            <AltitudeMeters>1077.199951171875</AltitudeMeters>
            <DistanceMeters>61413.085949098</DistanceMeters>
          </Trackpoint>
          <Trackpoint>
            <Time>2021-07-27T13:13:49.000Z</Time>
            <Position>
              <LatitudeDegrees>41.087086200714111328125</LatitudeDegrees>
              <LongitudeDegrees>-2.998840101063251495361328125</LongitudeDegrees>
            </Position>
            <AltitudeMeters>1077.800048828125</AltitudeMeters>
            <DistanceMeters>61474.638178408</DistanceMeters>
          </Trackpoint>
          <Trackpoint>
            <Time>2021-07-27T13:13:58.000Z</Time>
            <Position>
              <LatitudeDegrees>41.08738602139055728912353515625</LatitudeDegrees>
              <LongitudeDegrees>-2.9987916536629199981689453125</LongitudeDegrees>
            </Position>
            <AltitudeMeters>1078.5999755859375</AltitudeMeters>
            <DistanceMeters>61508.255347637</DistanceMeters>
          </Trackpoint>
          <Trackpoint>
            <Time>2021-07-27T13:14:08.000Z</Time>
            <Position>
              <LatitudeDegrees>41.0876613669097423553466796875</LatitudeDegrees>
              <LongitudeDegrees>-2.99882442690432071685791015625</LongitudeDegrees>
            </Position>
            <AltitudeMeters>1079.800048828125</AltitudeMeters>
            <DistanceMeters>61539.024933186</DistanceMeters>
          </Trackpoint>
          <Trackpoint>
            <Time>2021-07-27T13:14:15.000Z</Time>
            <Position>
              <LatitudeDegrees>41.08783059753477573394775390625</LatitudeDegrees>
              <LongitudeDegrees>-2.99885510466992855072021484375</LongitudeDegrees>
            </Position>
            <AltitudeMeters>1080.800048828125</AltitudeMeters>
            <DistanceMeters>61558.03550181</DistanceMeters>
          </Trackpoint>
          <Trackpoint>
            <Time>2021-07-27T13:14:22.000Z</Time>
            <Position>
              <LatitudeDegrees>41.08798029832541942596435546875</LatitudeDegrees>
              <LongitudeDegrees>-2.99891151487827301025390625</LongitudeDegrees>
            </Position>
            <AltitudeMeters>1082.199951171875</AltitudeMeters>
            <DistanceMeters>61575.356450392</DistanceMeters>
          </Trackpoint>
          <Trackpoint>
            <Time>2021-07-27T13:14:30.000Z</Time>
            <Position>
              <LatitudeDegrees>41.088139303028583526611328125</LatitudeDegrees>
              <LongitudeDegrees>-2.9989834316074848175048828125</LongitudeDegrees>
            </Position>
            <AltitudeMeters>1083.4000244140625</AltitudeMeters>
            <DistanceMeters>61594.053786552</DistanceMeters>
          </Trackpoint>
          <Trackpoint>
            <Time>2021-07-27T13:14:39.000Z</Time>
            <Position>
              <LatitudeDegrees>41.08830995857715606689453125</LatitudeDegrees>
              <LongitudeDegrees>-2.99906515516340732574462890625</LongitudeDegrees>
            </Position>
            <AltitudeMeters>1085.199951171875</AltitudeMeters>
            <DistanceMeters>61614.247578225</DistanceMeters>
          </Trackpoint>
          <Trackpoint>
            <Time>2021-07-27T13:14:54.000Z</Time>
            <Position>
              <LatitudeDegrees>41.08859133906662464141845703125</LatitudeDegrees>
              <LongitudeDegrees>-2.99919809214770793914794921875</LongitudeDegrees>
            </Position>
            <AltitudeMeters>1088.199951171875</AltitudeMeters>
            <DistanceMeters>61647.492127944</DistanceMeters>
          </Trackpoint>
          <Trackpoint>
            <Time>2021-07-27T13:15:04.000Z</Time>
            <Position>
              <LatitudeDegrees>41.0887813568115234375</LatitudeDegrees>
              <LongitudeDegrees>-2.99927629530429840087890625</LongitudeDegrees>
            </Position>
            <AltitudeMeters>1089</AltitudeMeters>
            <DistanceMeters>61669.635595399</DistanceMeters>
          </Trackpoint>
          <Trackpoint>
            <Time>2021-07-27T13:15:09.000Z</Time>
            <Position>
              <LatitudeDegrees>41.08887867070734500885009765625</LatitudeDegrees>
              <LongitudeDegrees>-2.99930554814636707305908203125</LongitudeDegrees>
            </Position>
            <AltitudeMeters>1089.800048828125</AltitudeMeters>
            <DistanceMeters>61680.741124835</DistanceMeters>
          </Trackpoint>
          <Trackpoint>
            <Time>2021-07-27T13:15:13.000Z</Time>
            <Position>
              <LatitudeDegrees>41.088956035673618316650390625</LatitudeDegrees>
              <LongitudeDegrees>-2.99932583235204219818115234375</LongitudeDegrees>
            </Position>
            <AltitudeMeters>1090.4000244140625</AltitudeMeters>
            <DistanceMeters>61689.518630872</DistanceMeters>
          </Trackpoint>
          <Trackpoint>
            <Time>2021-07-27T13:15:23.000Z</Time>
            <Position>
              <LatitudeDegrees>41.0891501605510711669921875</LatitudeDegrees>
              <LongitudeDegrees>-2.999357767403125762939453125</LongitudeDegrees>
            </Position>
            <AltitudeMeters>1091.800048828125</AltitudeMeters>
            <DistanceMeters>61711.290327468</DistanceMeters>
          </Trackpoint>
          <Trackpoint>
            <Time>2021-07-27T13:15:30.000Z</Time>
            <Position>
              <LatitudeDegrees>41.08929575420916080474853515625</LatitudeDegrees>
              <LongitudeDegrees>-2.99935868941247463226318359375</LongitudeDegrees>
            </Position>
            <AltitudeMeters>1093</AltitudeMeters>
            <DistanceMeters>61727.495377702</DistanceMeters>
          </Trackpoint>
          <Trackpoint>
            <Time>2021-07-27T13:15:38.000Z</Time>
            <Position>
              <LatitudeDegrees>41.08946062624454498291015625</LatitudeDegrees>
              <LongitudeDegrees>-2.999344356358051300048828125</LongitudeDegrees>
            </Position>
            <AltitudeMeters>1093.5999755859375</AltitudeMeters>
            <DistanceMeters>61745.885195344</DistanceMeters>
          </Trackpoint>
          <Trackpoint>
            <Time>2021-07-27T13:15:50.000Z</Time>
            <Position>
              <LatitudeDegrees>41.08971250243484973907470703125</LatitudeDegrees>
              <LongitudeDegrees>-2.99928358756005764007568359375</LongitudeDegrees>
            </Position>
            <AltitudeMeters>1094.5999755859375</AltitudeMeters>
            <DistanceMeters>61774.379268995</DistanceMeters>
          </Trackpoint>
          <Trackpoint>
            <Time>2021-07-27T13:15:51.000Z</Time>
            <Position>
              <LatitudeDegrees>41.08973362483084201812744140625</LatitudeDegrees>
              <LongitudeDegrees>-2.99927503801882266998291015625</LongitudeDegrees>
            </Position>
            <AltitudeMeters>1094.5999755859375</AltitudeMeters>
            <DistanceMeters>61776.837138223</DistanceMeters>
          </Trackpoint>
          <Trackpoint>
            <Time>2021-07-27T13:16:01.000Z</Time>
            <Position>
              <LatitudeDegrees>41.0899472795426845550537109375</LatitudeDegrees>
              <LongitudeDegrees>-2.9991802386939525604248046875</LongitudeDegrees>
            </Position>
            <AltitudeMeters>1095.5999755859375</AltitudeMeters>
            <DistanceMeters>61801.911589413</DistanceMeters>
          </Trackpoint>
          <Trackpoint>
            <Time>2021-07-27T13:16:11.000Z</Time>
            <Position>
              <LatitudeDegrees>41.09016177244484424591064453125</LatitudeDegrees>
              <LongitudeDegrees>-2.99905040301382541656494140625</LongitudeDegrees>
            </Position>
            <AltitudeMeters>1096.199951171875</AltitudeMeters>
            <DistanceMeters>61828.152042705</DistanceMeters>
          </Trackpoint>
          <Trackpoint>
            <Time>2021-07-27T13:16:29.000Z</Time>
            <Position>
              <LatitudeDegrees>41.09056293033063411712646484375</LatitudeDegrees>
              <LongitudeDegrees>-2.9987995326519012451171875</LongitudeDegrees>
            </Position>
            <AltitudeMeters>1095.800048828125</AltitudeMeters>
            <DistanceMeters>61877.51254418</DistanceMeters>
          </Trackpoint>
          <Trackpoint>
            <Time>2021-07-27T13:16:49.000Z</Time>
            <Position>
              <LatitudeDegrees>41.0910325683653354644775390625</LatitudeDegrees>
              <LongitudeDegrees>-2.99849501810967922210693359375</LongitudeDegrees>
            </Position>
            <AltitudeMeters>1094</AltitudeMeters>
            <DistanceMeters>61935.691869153</DistanceMeters>
          </Trackpoint>
          <Trackpoint>
            <Time>2021-07-27T13:16:51.000Z</Time>
            <Position>
              <LatitudeDegrees>41.0910786688327789306640625</LatitudeDegrees>
              <LongitudeDegrees>-2.99846366979181766510009765625</LongitudeDegrees>
            </Position>
            <AltitudeMeters>1094</AltitudeMeters>
            <DistanceMeters>61941.45804132</DistanceMeters>
          </Trackpoint>
          <Trackpoint>
            <Time>2021-07-27T13:17:03.000Z</Time>
            <Position>
              <LatitudeDegrees>41.09137346036732196807861328125</LatitudeDegrees>
              <LongitudeDegrees>-2.9982806928455829620361328125</LongitudeDegrees>
            </Position>
            <AltitudeMeters>1094.4000244140625</AltitudeMeters>
            <DistanceMeters>61977.681546782</DistanceMeters>
          </Trackpoint>
          <Trackpoint>
            <Time>2021-07-27T13:17:16.000Z</Time>
            <Position>
              <LatitudeDegrees>41.0916866920888423919677734375</LatitudeDegrees>
              <LongitudeDegrees>-2.99807189963757991790771484375</LongitudeDegrees>
            </Position>
            <AltitudeMeters>1095</AltitudeMeters>
            <DistanceMeters>62016.697043911</DistanceMeters>
          </Trackpoint>
          <Trackpoint>
            <Time>2021-07-27T13:17:33.000Z</Time>
            <Position>
              <LatitudeDegrees>41.09210570342838764190673828125</LatitudeDegrees>
              <LongitudeDegrees>-2.99780636094510555267333984375</LongitudeDegrees>
            </Position>
            <AltitudeMeters>1094.5999755859375</AltitudeMeters>
            <DistanceMeters>62068.380133626</DistanceMeters>
          </Trackpoint>
          <Trackpoint>
            <Time>2021-07-27T13:17:45.000Z</Time>
            <Position>
              <LatitudeDegrees>41.0924135707318782806396484375</LatitudeDegrees>
              <LongitudeDegrees>-2.99762078560888767242431640625</LongitudeDegrees>
            </Position>
            <AltitudeMeters>1096.4000244140625</AltitudeMeters>
            <DistanceMeters>62106.016471271</DistanceMeters>
          </Trackpoint>
          <Trackpoint>
            <Time>2021-07-27T13:18:01.000Z</Time>
            <Position>
              <LatitudeDegrees>41.09284632839262485504150390625</LatitudeDegrees>
              <LongitudeDegrees>-2.997362874448299407958984375</LongitudeDegrees>
            </Position>
            <AltitudeMeters>1101.4000244140625</AltitudeMeters>
            <DistanceMeters>62158.818755809</DistanceMeters>
          </Trackpoint>
          <Trackpoint>
            <Time>2021-07-27T13:18:09.000Z</Time>
            <Position>
              <LatitudeDegrees>41.09308990649878978729248046875</LatitudeDegrees>
              <LongitudeDegrees>-2.99722817726433277130126953125</LongitudeDegrees>
            </Position>
            <AltitudeMeters>1102.5999755859375</AltitudeMeters>
            <DistanceMeters>62188.189544064</DistanceMeters>
          </Trackpoint>
          <Trackpoint>
            <Time>2021-07-27T13:18:19.000Z</Time>
            <Position>
              <LatitudeDegrees>41.09340439550578594207763671875</LatitudeDegrees>
              <LongitudeDegrees>-2.997096665203571319580078125</LongitudeDegrees>
            </Position>
            <AltitudeMeters>1103.5999755859375</AltitudeMeters>
            <DistanceMeters>62224.889791232</DistanceMeters>
          </Trackpoint>
          <Trackpoint>
            <Time>2021-07-27T13:18:35.000Z</Time>
            <Position>
              <LatitudeDegrees>41.093932874500751495361328125</LatitudeDegrees>
              <LongitudeDegrees>-2.99694009125232696533203125</LongitudeDegrees>
            </Position>
            <AltitudeMeters>1103</AltitudeMeters>
            <DistanceMeters>62285.158906953</DistanceMeters>
          </Trackpoint>
          <Trackpoint>
            <Time>2021-07-27T13:18:42.000Z</Time>
            <Position>
              <LatitudeDegrees>41.0941720940172672271728515625</LatitudeDegrees>
              <LongitudeDegrees>-2.9968829266726970672607421875</LongitudeDegrees>
            </Position>
            <AltitudeMeters>1102.199951171875</AltitudeMeters>
            <DistanceMeters>62312.212830624</DistanceMeters>
          </Trackpoint>
          <Trackpoint>
            <Time>2021-07-27T13:18:57.000Z</Time>
            <Position>
              <LatitudeDegrees>41.0947276465594768524169921875</LatitudeDegrees>
              <LongitudeDegrees>-2.99673833884298801422119140625</LongitudeDegrees>
            </Position>
            <AltitudeMeters>1100.199951171875</AltitudeMeters>
            <DistanceMeters>62375.225072868</DistanceMeters>
          </Trackpoint>
          <Trackpoint>
            <Time>2021-07-27T13:19:08.000Z</Time>
            <Position>
              <LatitudeDegrees>41.0951192490756511688232421875</LatitudeDegrees>
              <LongitudeDegrees>-2.996584363281726837158203125</LongitudeDegrees>
            </Position>
            <AltitudeMeters>1101.800048828125</AltitudeMeters>
            <DistanceMeters>62420.684406941</DistanceMeters>
          </Trackpoint>
          <Trackpoint>
            <Time>2021-07-27T13:19:23.000Z</Time>
            <Position>
              <LatitudeDegrees>41.09563364647328853607177734375</LatitudeDegrees>
              <LongitudeDegrees>-2.99630834721028804779052734375</LongitudeDegrees>
            </Position>
            <AltitudeMeters>1103.5999755859375</AltitudeMeters>
            <DistanceMeters>62482.441756116</DistanceMeters>
          </Trackpoint>
          <Trackpoint>
            <Time>2021-07-27T13:19:26.000Z</Time>
            <Position>
              <LatitudeDegrees>41.0957636497914791107177734375</LatitudeDegrees>
              <LongitudeDegrees>-2.99622058868408203125</LongitudeDegrees>
            </Position>
            <AltitudeMeters>1104.199951171875</AltitudeMeters>
            <DistanceMeters>62498.676035007</DistanceMeters>
          </Trackpoint>
          <Trackpoint>
            <Time>2021-07-27T13:19:36.000Z</Time>
            <Position>
              <LatitudeDegrees>41.0960590280592441558837890625</LatitudeDegrees>
              <LongitudeDegrees>-2.99601699225604534149169921875</LongitudeDegrees>
            </Position>
            <AltitudeMeters>1105.5999755859375</AltitudeMeters>
            <DistanceMeters>62535.722806237</DistanceMeters>
          </Trackpoint>
          <Trackpoint>
            <Time>2021-07-27T13:19:51.000Z</Time>
            <Position>
              <LatitudeDegrees>41.0965512134134769439697265625</LatitudeDegrees>
              <LongitudeDegrees>-2.9956655390560626983642578125</LongitudeDegrees>
            </Position>
            <AltitudeMeters>1106.800048828125</AltitudeMeters>
            <DistanceMeters>62597.932144776</DistanceMeters>
          </Trackpoint>
          <Trackpoint>
            <Time>2021-07-27T13:19:59.000Z</Time>
            <Position>
              <LatitudeDegrees>41.09681482426822185516357421875</LatitudeDegrees>
              <LongitudeDegrees>-2.995473258197307586669921875</LongitudeDegrees>
            </Position>
            <AltitudeMeters>1106</AltitudeMeters>
            <DistanceMeters>62631.413118919</DistanceMeters>
          </Trackpoint>
          <Trackpoint>
            <Time>2021-07-27T13:20:14.000Z</Time>
            <Position>
              <LatitudeDegrees>41.09730734489858150482177734375</LatitudeDegrees>
              <LongitudeDegrees>-2.99512096680700778961181640625</LongitudeDegrees>
            </Position>
            <AltitudeMeters>1110.199951171875</AltitudeMeters>
            <DistanceMeters>62693.688468545</DistanceMeters>
          </Trackpoint>
          <Trackpoint>
            <Time>2021-07-27T13:20:22.000Z</Time>
            <Position>
              <LatitudeDegrees>41.0975738056004047393798828125</LatitudeDegrees>
              <LongitudeDegrees>-2.994924746453762054443359375</LongitudeDegrees>
            </Position>
            <AltitudeMeters>1111</AltitudeMeters>
            <DistanceMeters>62727.606616623</DistanceMeters>
          </Trackpoint>
          <Trackpoint>
            <Time>2021-07-27T13:20:33.000Z</Time>
            <Position>
              <LatitudeDegrees>41.09794135205447673797607421875</LatitudeDegrees>
              <LongitudeDegrees>-2.99466012977063655853271484375</LongitudeDegrees>
            </Position>
            <AltitudeMeters>1112</AltitudeMeters>
            <DistanceMeters>62774.148369248</DistanceMeters>
          </Trackpoint>
          <Trackpoint>
            <Time>2021-07-27T13:20:44.000Z</Time>
            <Position>
              <LatitudeDegrees>41.09832859598100185394287109375</LatitudeDegrees>
              <LongitudeDegrees>-2.99437782727181911468505859375</LongitudeDegrees>
            </Position>
            <AltitudeMeters>1113.4000244140625</AltitudeMeters>
            <DistanceMeters>62823.325038233</DistanceMeters>
          </Trackpoint>
          <Trackpoint>
            <Time>2021-07-27T13:20:49.000Z</Time>
            <Position>
              <LatitudeDegrees>41.09850503504276275634765625</LatitudeDegrees>
              <LongitudeDegrees>-2.99424438737332820892333984375</LongitudeDegrees>
            </Position>
            <AltitudeMeters>1114</AltitudeMeters>
            <DistanceMeters>62845.928416191</DistanceMeters>
          </Trackpoint>
          <Trackpoint>
            <Time>2021-07-27T13:21:02.000Z</Time>
            <Position>
              <LatitudeDegrees>41.09893443994224071502685546875</LatitudeDegrees>
              <LongitudeDegrees>-2.9939153976738452911376953125</LongitudeDegrees>
            </Position>
            <AltitudeMeters>1114</AltitudeMeters>
            <DistanceMeters>62901.115789048</DistanceMeters>
          </Trackpoint>
          <Trackpoint>
            <Time>2021-07-27T13:21:09.000Z</Time>
            <Position>
              <LatitudeDegrees>41.09916242770850658416748046875</LatitudeDegrees>
              <LongitudeDegrees>-2.9937299899756908416748046875</LongitudeDegrees>
            </Position>
            <AltitudeMeters>1114</AltitudeMeters>
            <DistanceMeters>62930.877512762</DistanceMeters>
          </Trackpoint>
          <Trackpoint>
            <Time>2021-07-27T13:21:20.000Z</Time>
            <Position>
              <LatitudeDegrees>41.09952100552618503570556640625</LatitudeDegrees>
              <LongitudeDegrees>-2.9934245534241199493408203125</LongitudeDegrees>
            </Position>
            <AltitudeMeters>1114.5999755859375</AltitudeMeters>
            <DistanceMeters>62978.302603168</DistanceMeters>
          </Trackpoint>
          <Trackpoint>
            <Time>2021-07-27T13:21:34.000Z</Time>
            <Position>
              <LatitudeDegrees>41.09996055252850055694580078125</LatitudeDegrees>
              <LongitudeDegrees>-2.9930044524371623992919921875</LongitudeDegrees>
            </Position>
            <AltitudeMeters>1116.4000244140625</AltitudeMeters>
            <DistanceMeters>63038.592990889</DistanceMeters>
          </Trackpoint>
          <Trackpoint>
            <Time>2021-07-27T13:21:37.000Z</Time>
            <Position>
              <LatitudeDegrees>41.100055016577243804931640625</LatitudeDegrees>
              <LongitudeDegrees>-2.99290998838841915130615234375</LongitudeDegrees>
            </Position>
            <AltitudeMeters>1116</AltitudeMeters>
            <DistanceMeters>63051.758221128</DistanceMeters>
          </Trackpoint>
          <Trackpoint>
            <Time>2021-07-27T13:21:50.000Z</Time>
            <Position>
              <LatitudeDegrees>41.1004637181758880615234375</LatitudeDegrees>
              <LongitudeDegrees>-2.9924775660037994384765625</LongitudeDegrees>
            </Position>
            <AltitudeMeters>1117</AltitudeMeters>
            <DistanceMeters>63109.936149184</DistanceMeters>
          </Trackpoint>
          <Trackpoint>
            <Time>2021-07-27T13:21:56.000Z</Time>
            <Position>
              <LatitudeDegrees>41.10064334236085414886474609375</LatitudeDegrees>
              <LongitudeDegrees>-2.9922765679657459259033203125</LongitudeDegrees>
            </Position>
            <AltitudeMeters>1118</AltitudeMeters>
            <DistanceMeters>63136.087666723</DistanceMeters>
          </Trackpoint>
          <Trackpoint>
            <Time>2021-07-27T13:22:09.000Z</Time>
            <Position>
              <LatitudeDegrees>41.1010328494012355804443359375</LatitudeDegrees>
              <LongitudeDegrees>-2.99185059964656829833984375</LongitudeDegrees>
            </Position>
            <AltitudeMeters>1119.199951171875</AltitudeMeters>
            <DistanceMeters>63192.2647727</DistanceMeters>
          </Trackpoint>
          <Trackpoint>
            <Time>2021-07-27T13:22:17.000Z</Time>
            <Position>
              <LatitudeDegrees>41.10127483494579792022705078125</LatitudeDegrees>
              <LongitudeDegrees>-2.9915838874876499176025390625</LongitudeDegrees>
            </Position>
            <AltitudeMeters>1119.199951171875</AltitudeMeters>
            <DistanceMeters>63227.276411009</DistanceMeters>
          </Trackpoint>
          <Trackpoint>
            <Time>2021-07-27T13:22:31.000Z</Time>
            <Position>
              <LatitudeDegrees>41.10169242136180400848388671875</LatitudeDegrees>
              <LongitudeDegrees>-2.9911124892532825469970703125</LongitudeDegrees>
            </Position>
            <AltitudeMeters>1121</AltitudeMeters>
            <DistanceMeters>63288.295845784</DistanceMeters>
          </Trackpoint>
          <Trackpoint>
            <Time>2021-07-27T13:22:33.000Z</Time>
            <Position>
              <LatitudeDegrees>41.10175277106463909149169921875</LatitudeDegrees>
              <LongitudeDegrees>-2.99104191362857818603515625</LongitudeDegrees>
            </Position>
            <AltitudeMeters>1121.4000244140625</AltitudeMeters>
            <DistanceMeters>63297.248552554</DistanceMeters>
          </Trackpoint>
          <Trackpoint>
            <Time>2021-07-27T13:22:47.000Z</Time>
            <Position>
              <LatitudeDegrees>41.10218234360218048095703125</LatitudeDegrees>
              <LongitudeDegrees>-2.9905485548079013824462890625</LongitudeDegrees>
            </Position>
            <AltitudeMeters>1124</AltitudeMeters>
            <DistanceMeters>63360.479673899</DistanceMeters>
          </Trackpoint>
          <Trackpoint>
            <Time>2021-07-27T13:22:49.000Z</Time>
            <Position>
              <LatitudeDegrees>41.10224512405693531036376953125</LatitudeDegrees>
              <LongitudeDegrees>-2.99047571606934070587158203125</LongitudeDegrees>
            </Position>
            <AltitudeMeters>1123.800048828125</AltitudeMeters>
            <DistanceMeters>63369.761210909</DistanceMeters>
          </Trackpoint>
          <Trackpoint>
            <Time>2021-07-27T13:23:02.000Z</Time>
            <Position>
              <LatitudeDegrees>41.10266354866325855255126953125</LatitudeDegrees>
              <LongitudeDegrees>-2.99000347964465618133544921875</LongitudeDegrees>
            </Position>
            <AltitudeMeters>1119.5999755859375</AltitudeMeters>
            <DistanceMeters>63430.896926579</DistanceMeters>
          </Trackpoint>
          <Trackpoint>
            <Time>2021-07-27T13:23:14.000Z</Time>
            <Position>
              <LatitudeDegrees>41.10308985225856304168701171875</LatitudeDegrees>
              <LongitudeDegrees>-2.98951766453683376312255859375</LongitudeDegrees>
            </Position>
            <AltitudeMeters>1121.4000244140625</AltitudeMeters>
            <DistanceMeters>63493.439016909</DistanceMeters>
          </Trackpoint>
          <Trackpoint>
            <Time>2021-07-27T13:23:24.000Z</Time>
            <Position>
              <LatitudeDegrees>41.1034454964101314544677734375</LatitudeDegrees>
              <LongitudeDegrees>-2.989104688167572021484375</LongitudeDegrees>
            </Position>
            <AltitudeMeters>1123.5999755859375</AltitudeMeters>
            <DistanceMeters>63546.0367969</DistanceMeters>
          </Trackpoint>
          <Trackpoint>
            <Time>2021-07-27T13:23:36.000Z</Time>
            <Position>
              <LatitudeDegrees>41.10389417968690395355224609375</LatitudeDegrees>
              <LongitudeDegrees>-2.98860236071050167083740234375</LongitudeDegrees>
            </Position>
            <AltitudeMeters>1124.199951171875</AltitudeMeters>
            <DistanceMeters>63611.373036137</DistanceMeters>
          </Trackpoint>
          <Trackpoint>
            <Time>2021-07-27T13:23:42.000Z</Time>
            <Position>
              <LatitudeDegrees>41.10411428846418857574462890625</LatitudeDegrees>
              <LongitudeDegrees>-2.98834218643605709075927734375</LongitudeDegrees>
            </Position>
            <AltitudeMeters>1122.5999755859375</AltitudeMeters>
            <DistanceMeters>63644.180243753</DistanceMeters>
          </Trackpoint>
          <Trackpoint>
            <Time>2021-07-27T13:23:54.000Z</Time>
            <Position>
              <LatitudeDegrees>41.1045545898377895355224609375</LatitudeDegrees>
              <LongitudeDegrees>-2.9878415353596210479736328125</LongitudeDegrees>
            </Position>
            <AltitudeMeters>1123</AltitudeMeters>
            <DistanceMeters>63708.714368027</DistanceMeters>
          </Trackpoint>
          <Trackpoint>
            <Time>2021-07-27T13:24:06.000Z</Time>
            <Position>
              <LatitudeDegrees>41.1049966514110565185546875</LatitudeDegrees>
              <LongitudeDegrees>-2.98732982017099857330322265625</LongitudeDegrees>
            </Position>
            <AltitudeMeters>1122.4000244140625</AltitudeMeters>
            <DistanceMeters>63774.00332257</DistanceMeters>
          </Trackpoint>
          <Trackpoint>
            <Time>2021-07-27T13:24:08.000Z</Time>
            <Position>
              <LatitudeDegrees>41.10507016070187091827392578125</LatitudeDegrees>
              <LongitudeDegrees>-2.987242229282855987548828125</LongitudeDegrees>
            </Position>
            <AltitudeMeters>1123</AltitudeMeters>
            <DistanceMeters>63784.998944131</DistanceMeters>
          </Trackpoint>
          <Trackpoint>
            <Time>2021-07-27T13:24:20.000Z</Time>
            <Position>
              <LatitudeDegrees>41.1055164970457553863525390625</LatitudeDegrees>
              <LongitudeDegrees>-2.9867357946932315826416015625</LongitudeDegrees>
            </Position>
            <AltitudeMeters>1129.4000244140625</AltitudeMeters>
            <DistanceMeters>63850.358398408</DistanceMeters>
          </Trackpoint>
          <Trackpoint>
            <Time>2021-07-27T13:24:26.000Z</Time>
            <Position>
              <LatitudeDegrees>41.10573400743305683135986328125</LatitudeDegrees>
              <LongitudeDegrees>-2.9864809848368167877197265625</LongitudeDegrees>
            </Position>
            <AltitudeMeters>1130.800048828125</AltitudeMeters>
            <DistanceMeters>63882.650148244</DistanceMeters>
          </Trackpoint>
          <Trackpoint>
            <Time>2021-07-27T13:24:37.000Z</Time>
            <Position>
              <LatitudeDegrees>41.10614153556525707244873046875</LatitudeDegrees>
              <LongitudeDegrees>-2.9860079102218151092529296875</LongitudeDegrees>
            </Position>
            <AltitudeMeters>1127.4000244140625</AltitudeMeters>
            <DistanceMeters>63942.911996808</DistanceMeters>
          </Trackpoint>
          <Trackpoint>
            <Time>2021-07-27T13:24:41.000Z</Time>
            <Position>
              <LatitudeDegrees>41.10629106871783733367919921875</LatitudeDegrees>
              <LongitudeDegrees>-2.985835410654544830322265625</LongitudeDegrees>
            </Position>
            <AltitudeMeters>1127</AltitudeMeters>
            <DistanceMeters>63964.963928167</DistanceMeters>
          </Trackpoint>
          <Trackpoint>
            <Time>2021-07-27T13:24:52.000Z</Time>
            <Position>
              <LatitudeDegrees>41.10669373534619808197021484375</LatitudeDegrees>
              <LongitudeDegrees>-2.98534045927226543426513671875</LongitudeDegrees>
            </Position>
            <AltitudeMeters>1128</AltitudeMeters>
            <DistanceMeters>64026.050881602</DistanceMeters>
          </Trackpoint>
          <Trackpoint>
            <Time>2021-07-27T13:24:53.000Z</Time>
            <Position>
              <LatitudeDegrees>41.10673061572015285491943359375</LatitudeDegrees>
              <LongitudeDegrees>-2.9852964542806148529052734375</LongitudeDegrees>
            </Position>
            <AltitudeMeters>1128.199951171875</AltitudeMeters>
            <DistanceMeters>64031.56898071</DistanceMeters>
          </Trackpoint>
          <Trackpoint>
            <Time>2021-07-27T13:25:04.000Z</Time>
            <Position>
              <LatitudeDegrees>41.10711651854217052459716796875</LatitudeDegrees>
              <LongitudeDegrees>-2.98477627336978912353515625</LongitudeDegrees>
            </Position>
            <AltitudeMeters>1130.199951171875</AltitudeMeters>
            <DistanceMeters>64092.789494333</DistanceMeters>
          </Trackpoint>
          <Trackpoint>
            <Time>2021-07-27T13:25:11.000Z</Time>
            <Position>
              <LatitudeDegrees>41.1073704063892364501953125</LatitudeDegrees>
              <LongitudeDegrees>-2.98444158397614955902099609375</LongitudeDegrees>
            </Position>
            <AltitudeMeters>1130.5999755859375</AltitudeMeters>
            <DistanceMeters>64132.618499457</DistanceMeters>
          </Trackpoint>
          <Trackpoint>
            <Time>2021-07-27T13:25:22.000Z</Time>
            <Position>
              <LatitudeDegrees>41.1077423952519893646240234375</LatitudeDegrees>
              <LongitudeDegrees>-2.98391796648502349853515625</LongitudeDegrees>
            </Position>
            <AltitudeMeters>1129.800048828125</AltitudeMeters>
            <DistanceMeters>64192.971760477</DistanceMeters>
          </Trackpoint>
          <Trackpoint>
            <Time>2021-07-27T13:25:27.000Z</Time>
            <Position>
              <LatitudeDegrees>41.10790911130607128143310546875</LatitudeDegrees>
              <LongitudeDegrees>-2.98367715440690517425537109375</LongitudeDegrees>
            </Position>
            <AltitudeMeters>1129.5999755859375</AltitudeMeters>
            <DistanceMeters>64220.397464615</DistanceMeters>
          </Trackpoint>
          <Trackpoint>
            <Time>2021-07-27T13:25:38.000Z</Time>
            <Position>
              <LatitudeDegrees>41.10828260891139507293701171875</LatitudeDegrees>
              <LongitudeDegrees>-2.9831543751060962677001953125</LongitudeDegrees>
            </Position>
            <AltitudeMeters>1133</AltitudeMeters>
            <DistanceMeters>64280.81472921</DistanceMeters>
          </Trackpoint>
          <Trackpoint>
            <Time>2021-07-27T13:25:41.000Z</Time>
            <Position>
              <LatitudeDegrees>41.10837916843593120574951171875</LatitudeDegrees>
              <LongitudeDegrees>-2.98301045782864093780517578125</LongitudeDegrees>
            </Position>
            <AltitudeMeters>1133</AltitudeMeters>
            <DistanceMeters>64296.975697652</DistanceMeters>
          </Trackpoint>
          <Trackpoint>
            <Time>2021-07-27T13:25:43.000Z</Time>
            <Position>
              <LatitudeDegrees>41.10844505019485950469970703125</LatitudeDegrees>
              <LongitudeDegrees>-2.98291725106537342071533203125</LongitudeDegrees>
            </Position>
            <AltitudeMeters>1133</AltitudeMeters>
            <DistanceMeters>64307.693514708</DistanceMeters>
          </Trackpoint>
          <Trackpoint>
            <Time>2021-07-27T13:25:54.000Z</Time>
            <Position>
              <LatitudeDegrees>41.108803041279315948486328125</LatitudeDegrees>
              <LongitudeDegrees>-2.98240176402032375335693359375</LongitudeDegrees>
            </Position>
            <AltitudeMeters>1130</AltitudeMeters>
            <DistanceMeters>64366.485184361</DistanceMeters>
          </Trackpoint>
          <Trackpoint>
            <Time>2021-07-27T13:26:06.000Z</Time>
            <Position>
              <LatitudeDegrees>41.10919740982353687286376953125</LatitudeDegrees>
              <LongitudeDegrees>-2.981846630573272705078125</LongitudeDegrees>
            </Position>
            <AltitudeMeters>1132.800048828125</AltitudeMeters>
            <DistanceMeters>64430.469501562</DistanceMeters>
          </Trackpoint>
          <Trackpoint>
            <Time>2021-07-27T13:26:18.000Z</Time>
            <Position>
              <LatitudeDegrees>41.10960259102284908294677734375</LatitudeDegrees>
              <LongitudeDegrees>-2.98129568807780742645263671875</LongitudeDegrees>
            </Position>
            <AltitudeMeters>1132</AltitudeMeters>
            <DistanceMeters>64495.033143715</DistanceMeters>
          </Trackpoint>
          <Trackpoint>
            <Time>2021-07-27T13:26:21.000Z</Time>
            <Position>
              <LatitudeDegrees>41.10970384441316127777099609375</LatitudeDegrees>
              <LongitudeDegrees>-2.98115395009517669677734375</LongitudeDegrees>
            </Position>
            <AltitudeMeters>1132.4000244140625</AltitudeMeters>
            <DistanceMeters>64511.412507902</DistanceMeters>
          </Trackpoint>
          <Trackpoint>
            <Time>2021-07-27T13:26:32.000Z</Time>
            <Position>
              <LatitudeDegrees>41.11007868312299251556396484375</LatitudeDegrees>
              <LongitudeDegrees>-2.9806310869753360748291015625</LongitudeDegrees>
            </Position>
            <AltitudeMeters>1134.4000244140625</AltitudeMeters>
            <DistanceMeters>64571.936841775</DistanceMeters>
          </Trackpoint>
          <Trackpoint>
            <Time>2021-07-27T13:26:43.000Z</Time>
            <Position>
              <LatitudeDegrees>41.110467351973056793212890625</LatitudeDegrees>
              <LongitudeDegrees>-2.9800872690975666046142578125</LongitudeDegrees>
            </Position>
            <AltitudeMeters>1136</AltitudeMeters>
            <DistanceMeters>64634.795127852</DistanceMeters>
          </Trackpoint>
          <Trackpoint>
            <Time>2021-07-27T13:26:54.000Z</Time>
            <Position>
              <LatitudeDegrees>41.11083649098873138427734375</LatitudeDegrees>
              <LongitudeDegrees>-2.97956247813999652862548828125</LongitudeDegrees>
            </Position>
            <AltitudeMeters>1136.5999755859375</AltitudeMeters>
            <DistanceMeters>64695.001582371</DistanceMeters>
          </Trackpoint>
          <Trackpoint>
            <Time>2021-07-27T13:27:05.000Z</Time>
            <Position>
              <LatitudeDegrees>41.11120839603245258331298828125</LatitudeDegrees>
              <LongitudeDegrees>-2.97902855090796947479248046875</LongitudeDegrees>
            </Position>
            <AltitudeMeters>1136.5999755859375</AltitudeMeters>
            <DistanceMeters>64755.978678206</DistanceMeters>
          </Trackpoint>
          <Trackpoint>
            <Time>2021-07-27T13:27:16.000Z</Time>
            <Position>
              <LatitudeDegrees>41.1116020940244197845458984375</LatitudeDegrees>
              <LongitudeDegrees>-2.97847216017544269561767578125</LongitudeDegrees>
            </Position>
            <AltitudeMeters>1134.800048828125</AltitudeMeters>
            <DistanceMeters>64819.987476697</DistanceMeters>
          </Trackpoint>
          <Trackpoint>
            <Time>2021-07-27T13:27:26.000Z</Time>
            <Position>
              <LatitudeDegrees>41.1119843088090419769287109375</LatitudeDegrees>
              <LongitudeDegrees>-2.97793823294341564178466796875</LongitudeDegrees>
            </Position>
            <AltitudeMeters>1135.4000244140625</AltitudeMeters>
            <DistanceMeters>64881.748992963</DistanceMeters>
          </Trackpoint>
          <Trackpoint>
            <Time>2021-07-27T13:27:36.000Z</Time>
            <Position>
              <LatitudeDegrees>41.1123601533472537994384765625</LatitudeDegrees>
              <LongitudeDegrees>-2.97741151414811611175537109375</LongitudeDegrees>
            </Position>
            <AltitudeMeters>1134.4000244140625</AltitudeMeters>
            <DistanceMeters>64942.583756623</DistanceMeters>
          </Trackpoint>
          <Trackpoint>
            <Time>2021-07-27T13:27:44.000Z</Time>
            <Position>
              <LatitudeDegrees>41.11266617663204669952392578125</LatitudeDegrees>
              <LongitudeDegrees>-2.97697716392576694488525390625</LongitudeDegrees>
            </Position>
            <AltitudeMeters>1130.5999755859375</AltitudeMeters>
            <DistanceMeters>64992.451690329</DistanceMeters>
          </Trackpoint>
          <Trackpoint>
            <Time>2021-07-27T13:27:52.000Z</Time>
            <Position>
              <LatitudeDegrees>41.11299089156091213226318359375</LatitudeDegrees>
              <LongitudeDegrees>-2.9765239544212818145751953125</LongitudeDegrees>
            </Position>
            <AltitudeMeters>1132.4000244140625</AltitudeMeters>
            <DistanceMeters>65044.897484106</DistanceMeters>
          </Trackpoint>
          <Trackpoint>
            <Time>2021-07-27T13:28:00.000Z</Time>
            <Position>
              <LatitudeDegrees>41.1133361421525478363037109375</LatitudeDegrees>
              <LongitudeDegrees>-2.97603671438992023468017578125</LongitudeDegrees>
            </Position>
            <AltitudeMeters>1134.4000244140625</AltitudeMeters>
            <DistanceMeters>65100.987077729</DistanceMeters>
          </Trackpoint>
          <Trackpoint>
            <Time>2021-07-27T13:28:08.000Z</Time>
            <Position>
              <LatitudeDegrees>41.1136945523321628570556640625</LatitudeDegrees>
              <LongitudeDegrees>-2.975525669753551483154296875</LongitudeDegrees>
            </Position>
            <AltitudeMeters>1132.5999755859375</AltitudeMeters>
            <DistanceMeters>65159.53479398</DistanceMeters>
          </Trackpoint>
          <Trackpoint>
            <Time>2021-07-27T13:28:16.000Z</Time>
            <Position>
              <LatitudeDegrees>41.114063523709774017333984375</LatitudeDegrees>
              <LongitudeDegrees>-2.97498662956058979034423828125</LongitudeDegrees>
            </Position>
            <AltitudeMeters>1132</AltitudeMeters>
            <DistanceMeters>65220.606002202</DistanceMeters>
          </Trackpoint>
          <Trackpoint>
            <Time>2021-07-27T13:28:19.000Z</Time>
            <Position>
              <LatitudeDegrees>41.1141910962760448455810546875</LatitudeDegrees>
              <LongitudeDegrees>-2.97476534731686115264892578125</LongitudeDegrees>
            </Position>
            <AltitudeMeters>1130.800048828125</AltitudeMeters>
            <DistanceMeters>65243.97098244</DistanceMeters>
          </Trackpoint>
          <Trackpoint>
            <Time>2021-07-27T13:28:25.000Z</Time>
            <Position>
              <LatitudeDegrees>41.11442218534648418426513671875</LatitudeDegrees>
              <LongitudeDegrees>-2.9743030853569507598876953125</LongitudeDegrees>
            </Position>
            <AltitudeMeters>1129.5999755859375</AltitudeMeters>
            <DistanceMeters>65290.491193751</DistanceMeters>
          </Trackpoint>
          <Trackpoint>
            <Time>2021-07-27T13:28:33.000Z</Time>
            <Position>
              <LatitudeDegrees>41.1146427132189273834228515625</LatitudeDegrees>
              <LongitudeDegrees>-2.97373236157000064849853515625</LongitudeDegrees>
            </Position>
            <AltitudeMeters>1132</AltitudeMeters>
            <DistanceMeters>65344.276314084</DistanceMeters>
          </Trackpoint>
          <Trackpoint>
            <Time>2021-07-27T13:28:38.000Z</Time>
            <Position>
              <LatitudeDegrees>41.1147496663033962249755859375</LatitudeDegrees>
              <LongitudeDegrees>-2.9734119214117527008056640625</LongitudeDegrees>
            </Position>
            <AltitudeMeters>1133.5999755859375</AltitudeMeters>
            <DistanceMeters>65373.665543606</DistanceMeters>
          </Trackpoint>
          <Trackpoint>
            <Time>2021-07-27T13:28:43.000Z</Time>
            <Position>
              <LatitudeDegrees>41.11484597437083721160888671875</LatitudeDegrees>
              <LongitudeDegrees>-2.97312785871326923370361328125</LongitudeDegrees>
            </Position>
            <AltitudeMeters>1135.800048828125</AltitudeMeters>
            <DistanceMeters>65399.786311511</DistanceMeters>
          </Trackpoint>
          <Trackpoint>
            <Time>2021-07-27T13:28:48.000Z</Time>
            <Position>
              <LatitudeDegrees>41.11492945812642574310302734375</LatitudeDegrees>
              <LongitudeDegrees>-2.972869612276554107666015625</LongitudeDegrees>
            </Position>
            <AltitudeMeters>1137.199951171875</AltitudeMeters>
            <DistanceMeters>65423.350637529</DistanceMeters>
          </Trackpoint>
          <Trackpoint>
            <Time>2021-07-27T13:28:54.000Z</Time>
            <Position>
              <LatitudeDegrees>41.115034483373165130615234375</LatitudeDegrees>
              <LongitudeDegrees>-2.97258471138775348663330078125</LongitudeDegrees>
            </Position>
            <AltitudeMeters>1138</AltitudeMeters>
            <DistanceMeters>65449.947255139</DistanceMeters>
          </Trackpoint>
          <Trackpoint>
            <Time>2021-07-27T13:28:57.000Z</Time>
            <Position>
              <LatitudeDegrees>41.11508821137249469757080078125</LatitudeDegrees>
              <LongitudeDegrees>-2.97244976274669170379638671875</LongitudeDegrees>
            </Position>
            <AltitudeMeters>1138</AltitudeMeters>
            <DistanceMeters>65462.745910799</DistanceMeters>
          </Trackpoint>
          <Trackpoint>
            <Time>2021-07-27T13:29:05.000Z</Time>
            <Position>
              <LatitudeDegrees>41.1152358166873455047607421875</LatitudeDegrees>
              <LongitudeDegrees>-2.9720956273376941680908203125</LongitudeDegrees>
            </Position>
            <AltitudeMeters>1139</AltitudeMeters>
            <DistanceMeters>65496.682956043</DistanceMeters>
          </Trackpoint>
          <Trackpoint>
            <Time>2021-07-27T13:29:10.000Z</Time>
            <Position>
              <LatitudeDegrees>41.11533681862056255340576171875</LatitudeDegrees>
              <LongitudeDegrees>-2.97188649885356426239013671875</LongitudeDegrees>
            </Position>
            <AltitudeMeters>1139.5999755859375</AltitudeMeters>
            <DistanceMeters>65517.513106622</DistanceMeters>
          </Trackpoint>
          <Trackpoint>
            <Time>2021-07-27T13:29:17.000Z</Time>
            <Position>
              <LatitudeDegrees>41.11548014916479587554931640625</LatitudeDegrees>
              <LongitudeDegrees>-2.9716448485851287841796875</LongitudeDegrees>
            </Position>
            <AltitudeMeters>1141.199951171875</AltitudeMeters>
            <DistanceMeters>65543.302488552</DistanceMeters>
          </Trackpoint>
          <Trackpoint>
            <Time>2021-07-27T13:29:23.000Z</Time>
            <Position>
              <LatitudeDegrees>41.115588359534740447998046875</LatitudeDegrees>
              <LongitudeDegrees>-2.97145902179181575775146484375</LongitudeDegrees>
            </Position>
            <AltitudeMeters>1142.5999755859375</AltitudeMeters>
            <DistanceMeters>65562.996646148</DistanceMeters>
          </Trackpoint>
          <Trackpoint>
            <Time>2021-07-27T13:29:33.000Z</Time>
            <Position>
              <LatitudeDegrees>41.11577468924224376678466796875</LatitudeDegrees>
              <LongitudeDegrees>-2.97118526883423328399658203125</LongitudeDegrees>
            </Position>
            <AltitudeMeters>1143.199951171875</AltitudeMeters>
            <DistanceMeters>65593.932621836</DistanceMeters>
          </Trackpoint>
          <Trackpoint>
            <Time>2021-07-27T13:29:46.000Z</Time>
            <Position>
              <LatitudeDegrees>41.116034947335720062255859375</LatitudeDegrees>
              <LongitudeDegrees>-2.9708524234592914581298828125</LongitudeDegrees>
            </Position>
            <AltitudeMeters>1144.4000244140625</AltitudeMeters>
            <DistanceMeters>65634.157891353</DistanceMeters>
          </Trackpoint>
          <Trackpoint>
            <Time>2021-07-27T13:30:05.000Z</Time>
            <Position>
              <LatitudeDegrees>41.11644406802952289581298828125</LatitudeDegrees>
              <LongitudeDegrees>-2.97037817537784576416015625</LongitudeDegrees>
            </Position>
            <AltitudeMeters>1145.5999755859375</AltitudeMeters>
            <DistanceMeters>65694.613854175</DistanceMeters>
          </Trackpoint>
          <Trackpoint>
            <Time>2021-07-27T13:30:06.000Z</Time>
            <Position>
              <LatitudeDegrees>41.1164659447968006134033203125</LatitudeDegrees>
              <LongitudeDegrees>-2.9703528620302677154541015625</LongitudeDegrees>
            </Position>
            <AltitudeMeters>1145.5999755859375</AltitudeMeters>
            <DistanceMeters>65697.844762464</DistanceMeters>
          </Trackpoint>
          <Trackpoint>
            <Time>2021-07-27T13:30:24.000Z</Time>
            <Position>
              <LatitudeDegrees>41.11687489785254001617431640625</LatitudeDegrees>
              <LongitudeDegrees>-2.9698774404823780059814453125</LongitudeDegrees>
            </Position>
            <AltitudeMeters>1146</AltitudeMeters>
            <DistanceMeters>65758.351189993</DistanceMeters>
          </Trackpoint>
          <Trackpoint>
            <Time>2021-07-27T13:30:37.000Z</Time>
            <Position>
              <LatitudeDegrees>41.1172142811119556427001953125</LatitudeDegrees>
              <LongitudeDegrees>-2.96948206610977649688720703125</LongitudeDegrees>
            </Position>
            <AltitudeMeters>1147</AltitudeMeters>
            <DistanceMeters>65808.610351185</DistanceMeters>
          </Trackpoint>
          <Trackpoint>
            <Time>2021-07-27T13:30:51.000Z</Time>
            <Position>
              <LatitudeDegrees>41.11762390471994876861572265625</LatitudeDegrees>
              <LongitudeDegrees>-2.9690067283809185028076171875</LongitudeDegrees>
            </Position>
            <AltitudeMeters>1147</AltitudeMeters>
            <DistanceMeters>65869.168096065</DistanceMeters>
          </Trackpoint>
          <Trackpoint>
            <Time>2021-07-27T13:31:05.000Z</Time>
            <Position>
              <LatitudeDegrees>41.11806328408420085906982421875</LatitudeDegrees>
              <LongitudeDegrees>-2.9685014672577381134033203125</LongitudeDegrees>
            </Position>
            <AltitudeMeters>1146</AltitudeMeters>
            <DistanceMeters>65933.871171113</DistanceMeters>
          </Trackpoint>
          <Trackpoint>
            <Time>2021-07-27T13:31:13.000Z</Time>
            <Position>
              <LatitudeDegrees>41.11831717193126678466796875</LatitudeDegrees>
              <LongitudeDegrees>-2.9682077653706073760986328125</LongitudeDegrees>
            </Position>
            <AltitudeMeters>1146</AltitudeMeters>
            <DistanceMeters>65971.354843748</DistanceMeters>
          </Trackpoint>
          <Trackpoint>
            <Time>2021-07-27T13:31:26.000Z</Time>
            <Position>
              <LatitudeDegrees>41.1187464930117130279541015625</LatitudeDegrees>
              <LongitudeDegrees>-2.967714406549930572509765625</LongitudeDegrees>
            </Position>
            <AltitudeMeters>1146</AltitudeMeters>
            <DistanceMeters>66034.558039448</DistanceMeters>
          </Trackpoint>
          <Trackpoint>
            <Time>2021-07-27T13:31:38.000Z</Time>
            <Position>
              <LatitudeDegrees>41.11915930174291133880615234375</LatitudeDegrees>
              <LongitudeDegrees>-2.96724493615329265594482421875</LongitudeDegrees>
            </Position>
            <AltitudeMeters>1145.4000244140625</AltitudeMeters>
            <DistanceMeters>66095.061332823</DistanceMeters>
          </Trackpoint>
          <Trackpoint>
            <Time>2021-07-27T13:31:50.000Z</Time>
            <Position>
              <LatitudeDegrees>41.119566746056079864501953125</LatitudeDegrees>
              <LongitudeDegrees>-2.96672827564179897308349609375</LongitudeDegrees>
            </Position>
            <AltitudeMeters>1147.199951171875</AltitudeMeters>
            <DistanceMeters>66157.777236525</DistanceMeters>
          </Trackpoint>
          <Trackpoint>
            <Time>2021-07-27T13:31:56.000Z</Time>
            <Position>
              <LatitudeDegrees>41.11976011656224727630615234375</LatitudeDegrees>
              <LongitudeDegrees>-2.966432981193065643310546875</LongitudeDegrees>
            </Position>
            <AltitudeMeters>1146.4000244140625</AltitudeMeters>
            <DistanceMeters>66190.583756016</DistanceMeters>
          </Trackpoint>
          <Trackpoint>
            <Time>2021-07-27T13:32:07.000Z</Time>
            <Position>
              <LatitudeDegrees>41.1200943030416965484619140625</LatitudeDegrees>
              <LongitudeDegrees>-2.96586846001446247100830078125</LongitudeDegrees>
            </Position>
            <AltitudeMeters>1145.4000244140625</AltitudeMeters>
            <DistanceMeters>66250.783460824</DistanceMeters>
          </Trackpoint>
          <Trackpoint>
            <Time>2021-07-27T13:32:18.000Z</Time>
            <Position>
              <LatitudeDegrees>41.12048598937690258026123046875</LatitudeDegrees>
              <LongitudeDegrees>-2.96529429964721202850341796875</LongitudeDegrees>
            </Position>
            <AltitudeMeters>1145.199951171875</AltitudeMeters>
            <DistanceMeters>66315.731004958</DistanceMeters>
          </Trackpoint>
          <Trackpoint>
            <Time>2021-07-27T13:32:28.000Z</Time>
            <Position>
              <LatitudeDegrees>41.120895780622959136962890625</LatitudeDegrees>
              <LongitudeDegrees>-2.9648114182054996490478515625</LongitudeDegrees>
            </Position>
            <AltitudeMeters>1144.800048828125</AltitudeMeters>
            <DistanceMeters>66376.719502629</DistanceMeters>
          </Trackpoint>
          <Trackpoint>
            <Time>2021-07-27T13:32:36.000Z</Time>
            <Position>
              <LatitudeDegrees>41.12127430737018585205078125</LatitudeDegrees>
              <LongitudeDegrees>-2.964422665536403656005859375</LongitudeDegrees>
            </Position>
            <AltitudeMeters>1143</AltitudeMeters>
            <DistanceMeters>66429.98729506</DistanceMeters>
          </Trackpoint>
          <Trackpoint>
            <Time>2021-07-27T13:32:38.000Z</Time>
            <Position>
              <LatitudeDegrees>41.12138100899755954742431640625</LatitudeDegrees>
              <LongitudeDegrees>-2.9643098451197147369384765625</LongitudeDegrees>
            </Position>
            <AltitudeMeters>1143</AltitudeMeters>
            <DistanceMeters>66445.170173294</DistanceMeters>
          </Trackpoint>
          <Trackpoint>
            <Time>2021-07-27T13:32:42.000Z</Time>
            <Position>
              <LatitudeDegrees>41.12161285243928432464599609375</LatitudeDegrees>
              <LongitudeDegrees>-2.9640630818903446197509765625</LongitudeDegrees>
            </Position>
            <AltitudeMeters>1141.5999755859375</AltitudeMeters>
            <DistanceMeters>66478.245203768</DistanceMeters>
          </Trackpoint>
          <Trackpoint>
            <Time>2021-07-27T13:32:45.000Z</Time>
            <Position>
              <LatitudeDegrees>41.1218078993260860443115234375</LatitudeDegrees>
              <LongitudeDegrees>-2.9638652689754962921142578125</LongitudeDegrees>
            </Position>
            <AltitudeMeters>1141.4000244140625</AltitudeMeters>
            <DistanceMeters>66505.565012303</DistanceMeters>
          </Trackpoint>
          <Trackpoint>
            <Time>2021-07-27T13:32:48.000Z</Time>
            <Position>
              <LatitudeDegrees>41.12201551906764507293701171875</LatitudeDegrees>
              <LongitudeDegrees>-2.9636465013027191162109375</LongitudeDegrees>
            </Position>
            <AltitudeMeters>1140</AltitudeMeters>
            <DistanceMeters>66535.06862647</DistanceMeters>
          </Trackpoint>
          <Trackpoint>
            <Time>2021-07-27T13:32:50.000Z</Time>
            <Position>
              <LatitudeDegrees>41.1221627891063690185546875</LatitudeDegrees>
              <LongitudeDegrees>-2.96349504031240940093994140625</LongitudeDegrees>
            </Position>
            <AltitudeMeters>1138.4000244140625</AltitudeMeters>
            <DistanceMeters>66555.803838784</DistanceMeters>
          </Trackpoint>
          <Trackpoint>
            <Time>2021-07-27T13:32:52.000Z</Time>
            <Position>
              <LatitudeDegrees>41.12231525592505931854248046875</LatitudeDegrees>
              <LongitudeDegrees>-2.963334023952484130859375</LongitudeDegrees>
            </Position>
            <AltitudeMeters>1137</AltitudeMeters>
            <DistanceMeters>66577.488676823</DistanceMeters>
          </Trackpoint>
          <Trackpoint>
            <Time>2021-07-27T13:32:54.000Z</Time>
            <Position>
              <LatitudeDegrees>41.12247593700885772705078125</LatitudeDegrees>
              <LongitudeDegrees>-2.96316663734614849090576171875</LongitudeDegrees>
            </Position>
            <AltitudeMeters>1135.800048828125</AltitudeMeters>
            <DistanceMeters>66600.221720501</DistanceMeters>
          </Trackpoint>
          <Trackpoint>
            <Time>2021-07-27T13:32:57.000Z</Time>
            <Position>
              <LatitudeDegrees>41.1227299086749553680419921875</LatitudeDegrees>
              <LongitudeDegrees>-2.962905205786228179931640625</LongitudeDegrees>
            </Position>
            <AltitudeMeters>1134.4000244140625</AltitudeMeters>
            <DistanceMeters>66635.992052925</DistanceMeters>
          </Trackpoint>
          <Trackpoint>
            <Time>2021-07-27T13:32:59.000Z</Time>
            <Position>
              <LatitudeDegrees>41.122909449040889739990234375</LatitudeDegrees>
              <LongitudeDegrees>-2.96272926963865756988525390625</LongitudeDegrees>
            </Position>
            <AltitudeMeters>1134.4000244140625</AltitudeMeters>
            <DistanceMeters>66660.830225617</DistanceMeters>
          </Trackpoint>
          <Trackpoint>
            <Time>2021-07-27T13:33:01.000Z</Time>
            <Position>
              <LatitudeDegrees>41.1231042444705963134765625</LatitudeDegrees>
              <LongitudeDegrees>-2.96256900765001773834228515625</LongitudeDegrees>
            </Position>
            <AltitudeMeters>1133.800048828125</AltitudeMeters>
            <DistanceMeters>66686.337597842</DistanceMeters>
          </Trackpoint>
          <Trackpoint>
            <Time>2021-07-27T13:33:04.000Z</Time>
            <Position>
              <LatitudeDegrees>41.12342569045722484588623046875</LatitudeDegrees>
              <LongitudeDegrees>-2.96237840317189693450927734375</LongitudeDegrees>
            </Position>
            <AltitudeMeters>1133</AltitudeMeters>
            <DistanceMeters>66725.522033759</DistanceMeters>
          </Trackpoint>
          <Trackpoint>
            <Time>2021-07-27T13:33:06.000Z</Time>
            <Position>
              <LatitudeDegrees>41.12365636043250560760498046875</LatitudeDegrees>
              <LongitudeDegrees>-2.96229441650211811065673828125</LongitudeDegrees>
            </Position>
            <AltitudeMeters>1132.800048828125</AltitudeMeters>
            <DistanceMeters>66752.144103171</DistanceMeters>
          </Trackpoint>
          <Trackpoint>
            <Time>2021-07-27T13:33:08.000Z</Time>
            <Position>
              <LatitudeDegrees>41.12389574758708477020263671875</LatitudeDegrees>
              <LongitudeDegrees>-2.962244041264057159423828125</LongitudeDegrees>
            </Position>
            <AltitudeMeters>1131</AltitudeMeters>
            <DistanceMeters>66779.120980692</DistanceMeters>
          </Trackpoint>
          <Trackpoint>
            <Time>2021-07-27T13:33:09.000Z</Time>
            <Position>
              <LatitudeDegrees>41.12401552498340606689453125</LatitudeDegrees>
              <LongitudeDegrees>-2.962225936353206634521484375</LongitudeDegrees>
            </Position>
            <AltitudeMeters>1129.5999755859375</AltitudeMeters>
            <DistanceMeters>66792.538941198</DistanceMeters>
          </Trackpoint>
          <Trackpoint>
            <Time>2021-07-27T13:33:10.000Z</Time>
            <Position>
              <LatitudeDegrees>41.12413513474166393280029296875</LatitudeDegrees>
              <LongitudeDegrees>-2.9622103460133075714111328125</LongitudeDegrees>
            </Position>
            <AltitudeMeters>1128.4000244140625</AltitudeMeters>
            <DistanceMeters>66805.915786671</DistanceMeters>
          </Trackpoint>
          <Trackpoint>
            <Time>2021-07-27T13:33:12.000Z</Time>
            <Position>
              <LatitudeDegrees>41.124369911849498748779296875</LatitudeDegrees>
              <LongitudeDegrees>-2.96217254363000392913818359375</LongitudeDegrees>
            </Position>
            <AltitudeMeters>1126.5999755859375</AltitudeMeters>
            <DistanceMeters>66832.238358079</DistanceMeters>
          </Trackpoint>
          <Trackpoint>
            <Time>2021-07-27T13:33:15.000Z</Time>
            <Position>
              <LatitudeDegrees>41.1247137375175952911376953125</LatitudeDegrees>
              <LongitudeDegrees>-2.96212158165872097015380859375</LongitudeDegrees>
            </Position>
            <AltitudeMeters>1125</AltitudeMeters>
            <DistanceMeters>66870.744702389</DistanceMeters>
          </Trackpoint>
          <Trackpoint>
            <Time>2021-07-27T13:33:19.000Z</Time>
            <Position>
              <LatitudeDegrees>41.1251630075275897979736328125</LatitudeDegrees>
              <LongitudeDegrees>-2.962082438170909881591796875</LongitudeDegrees>
            </Position>
            <AltitudeMeters>1122.199951171875</AltitudeMeters>
            <DistanceMeters>66920.857038185</DistanceMeters>
          </Trackpoint>
          <Trackpoint>
            <Time>2021-07-27T13:33:21.000Z</Time>
            <Position>
              <LatitudeDegrees>41.1253863014280796051025390625</LatitudeDegrees>
              <LongitudeDegrees>-2.96207212843000888824462890625</LongitudeDegrees>
            </Position>
            <AltitudeMeters>1122.800048828125</AltitudeMeters>
            <DistanceMeters>66945.72536775</DistanceMeters>
          </Trackpoint>
          <Trackpoint>
            <Time>2021-07-27T13:33:24.000Z</Time>
            <Position>
              <LatitudeDegrees>41.1257249303162097930908203125</LatitudeDegrees>
              <LongitudeDegrees>-2.96207380481064319610595703125</LongitudeDegrees>
            </Position>
            <AltitudeMeters>1124</AltitudeMeters>
            <DistanceMeters>66983.41553113</DistanceMeters>
          </Trackpoint>
          <Trackpoint>
            <Time>2021-07-27T13:33:26.000Z</Time>
            <Position>
              <LatitudeDegrees>41.1259572766721248626708984375</LatitudeDegrees>
              <LongitudeDegrees>-2.96207548119127750396728515625</LongitudeDegrees>
            </Position>
            <AltitudeMeters>1124</AltitudeMeters>
            <DistanceMeters>67009.276419003</DistanceMeters>
          </Trackpoint>
          <Trackpoint>
            <Time>2021-07-27T13:33:28.000Z</Time>
            <Position>
              <LatitudeDegrees>41.1262003518640995025634765625</LatitudeDegrees>
              <LongitudeDegrees>-2.962082438170909881591796875</LongitudeDegrees>
            </Position>
            <AltitudeMeters>1123.4000244140625</AltitudeMeters>
            <DistanceMeters>67036.33735116</DistanceMeters>
          </Trackpoint>
          <Trackpoint>
            <Time>2021-07-27T13:33:30.000Z</Time>
            <Position>
              <LatitudeDegrees>41.12645507790148258209228515625</LatitudeDegrees>
              <LongitudeDegrees>-2.9621037282049655914306640625</LongitudeDegrees>
            </Position>
            <AltitudeMeters>1123</AltitudeMeters>
            <DistanceMeters>67064.745094324</DistanceMeters>
          </Trackpoint>
          <Trackpoint>
            <Time>2021-07-27T13:33:31.000Z</Time>
            <Position>
              <LatitudeDegrees>41.1265855841338634490966796875</LatitudeDegrees>
              <LongitudeDegrees>-2.96211789362132549285888671875</LongitudeDegrees>
            </Position>
            <AltitudeMeters>1122.800048828125</AltitudeMeters>
            <DistanceMeters>67079.318921139</DistanceMeters>
          </Trackpoint>
          <Trackpoint>
            <Time>2021-07-27T13:33:33.000Z</Time>
            <Position>
              <LatitudeDegrees>41.12685590051114559173583984375</LatitudeDegrees>
              <LongitudeDegrees>-2.96213314868509769439697265625</LongitudeDegrees>
            </Position>
            <AltitudeMeters>1119.199951171875</AltitudeMeters>
            <DistanceMeters>67109.432645532</DistanceMeters>
          </Trackpoint>
          <Trackpoint>
            <Time>2021-07-27T13:33:34.000Z</Time>
            <Position>
              <LatitudeDegrees>41.12699504010379314422607421875</LatitudeDegrees>
              <LongitudeDegrees>-2.9621191509068012237548828125</LongitudeDegrees>
            </Position>
            <AltitudeMeters>1116.800048828125</AltitudeMeters>
            <DistanceMeters>67124.963627535</DistanceMeters>
          </Trackpoint>
          <Trackpoint>
            <Time>2021-07-27T13:33:35.000Z</Time>
            <Position>
              <LatitudeDegrees>41.12713552080094814300537109375</LatitudeDegrees>
              <LongitudeDegrees>-2.962085120379924774169921875</LongitudeDegrees>
            </Position>
            <AltitudeMeters>1115</AltitudeMeters>
            <DistanceMeters>67140.857822028</DistanceMeters>
          </Trackpoint>
          <Trackpoint>
            <Time>2021-07-27T13:33:38.000Z</Time>
            <Position>
              <LatitudeDegrees>41.1275528557598590850830078125</LatitudeDegrees>
              <LongitudeDegrees>-2.96186358667910099029541015625</LongitudeDegrees>
            </Position>
            <AltitudeMeters>1112.800048828125</AltitudeMeters>
            <DistanceMeters>67190.883588644</DistanceMeters>
          </Trackpoint>
          <Trackpoint>
            <Time>2021-07-27T13:33:39.000Z</Time>
            <Position>
              <LatitudeDegrees>41.1276869662106037139892578125</LatitudeDegrees>
              <LongitudeDegrees>-2.96176132746040821075439453125</LongitudeDegrees>
            </Position>
            <AltitudeMeters>1112</AltitudeMeters>
            <DistanceMeters>67208.097331074</DistanceMeters>
          </Trackpoint>
          <Trackpoint>
            <Time>2021-07-27T13:33:40.000Z</Time>
            <Position>
              <LatitudeDegrees>41.12782032229006290435791015625</LatitudeDegrees>
              <LongitudeDegrees>-2.961655296385288238525390625</LongitudeDegrees>
            </Position>
            <AltitudeMeters>1111</AltitudeMeters>
            <DistanceMeters>67225.398457452</DistanceMeters>
          </Trackpoint>
          <Trackpoint>
            <Time>2021-07-27T13:33:41.000Z</Time>
            <Position>
              <LatitudeDegrees>41.127954684197902679443359375</LatitudeDegrees>
              <LongitudeDegrees>-2.961549349129199981689453125</LongitudeDegrees>
            </Position>
            <AltitudeMeters>1110.199951171875</AltitudeMeters>
            <DistanceMeters>67242.792240284</DistanceMeters>
          </Trackpoint>
          <Trackpoint>
            <Time>2021-07-27T13:33:42.000Z</Time>
            <Position>
              <LatitudeDegrees>41.128090135753154754638671875</LatitudeDegrees>
              <LongitudeDegrees>-2.9614435695111751556396484375</LongitudeDegrees>
            </Position>
            <AltitudeMeters>1109</AltitudeMeters>
            <DistanceMeters>67260.283093889</DistanceMeters>
          </Trackpoint>
          <Trackpoint>
            <Time>2021-07-27T13:33:43.000Z</Time>
            <Position>
              <LatitudeDegrees>41.1282257549464702606201171875</LatitudeDegrees>
              <LongitudeDegrees>-2.96133653260767459869384765625</LongitudeDegrees>
            </Position>
            <AltitudeMeters>1108</AltitudeMeters>
            <DistanceMeters>67277.843763311</DistanceMeters>
          </Trackpoint>
          <Trackpoint>
            <Time>2021-07-27T13:33:44.000Z</Time>
            <Position>
              <LatitudeDegrees>41.12836145795881748199462890625</LatitudeDegrees>
              <LongitudeDegrees>-2.96122740022838115692138671875</LongitudeDegrees>
            </Position>
            <AltitudeMeters>1107.199951171875</AltitudeMeters>
            <DistanceMeters>67295.502887296</DistanceMeters>
          </Trackpoint>
          <Trackpoint>
            <Time>2021-07-27T13:33:45.000Z</Time>
            <Position>
              <LatitudeDegrees>41.12849774770438671112060546875</LatitudeDegrees>
              <LongitudeDegrees>-2.96111810021102428436279296875</LongitudeDegrees>
            </Position>
            <AltitudeMeters>1107</AltitudeMeters>
            <DistanceMeters>67313.225305835</DistanceMeters>
          </Trackpoint>
          <Trackpoint>
            <Time>2021-07-27T13:33:46.000Z</Time>
            <Position>
              <LatitudeDegrees>41.12863487564027309417724609375</LatitudeDegrees>
              <LongitudeDegrees>-2.96100921928882598876953125</LongitudeDegrees>
            </Position>
            <AltitudeMeters>1104.4000244140625</AltitudeMeters>
            <DistanceMeters>67331.00952433</DistanceMeters>
          </Trackpoint>
          <Trackpoint>
            <Time>2021-07-27T13:33:47.000Z</Time>
            <Position>
              <LatitudeDegrees>41.1287732608616352081298828125</LatitudeDegrees>
              <LongitudeDegrees>-2.9609020985662937164306640625</LongitudeDegrees>
            </Position>
            <AltitudeMeters>1102.4000244140625</AltitudeMeters>
            <DistanceMeters>67348.838876002</DistanceMeters>
          </Trackpoint>
          <Trackpoint>
            <Time>2021-07-27T13:33:48.000Z</Time>
            <Position>
              <LatitudeDegrees>41.12891315482556819915771484375</LatitudeDegrees>
              <LongitudeDegrees>-2.96079640276730060577392578125</LongitudeDegrees>
            </Position>
            <AltitudeMeters>1100.4000244140625</AltitudeMeters>
            <DistanceMeters>67366.754373124</DistanceMeters>
          </Trackpoint>
          <Trackpoint>
            <Time>2021-07-27T13:33:49.000Z</Time>
            <Position>
              <LatitudeDegrees>41.12905430607497692108154296875</LatitudeDegrees>
              <LongitudeDegrees>-2.96068995259702205657958984375</LongitudeDegrees>
            </Position>
            <AltitudeMeters>1098.199951171875</AltitudeMeters>
            <DistanceMeters>67384.822697719</DistanceMeters>
          </Trackpoint>
          <Trackpoint>
            <Time>2021-07-27T13:33:51.000Z</Time>
            <Position>
              <LatitudeDegrees>41.12934079952538013458251953125</LatitudeDegrees>
              <LongitudeDegrees>-2.96047336421906948089599609375</LongitudeDegrees>
            </Position>
            <AltitudeMeters>1093.800048828125</AltitudeMeters>
            <DistanceMeters>67421.5175314</DistanceMeters>
          </Trackpoint>
          <Trackpoint>
            <Time>2021-07-27T13:33:52.000Z</Time>
            <Position>
              <LatitudeDegrees>41.12948563881218433380126953125</LatitudeDegrees>
              <LongitudeDegrees>-2.9603629745543003082275390625</LongitudeDegrees>
            </Position>
            <AltitudeMeters>1092.199951171875</AltitudeMeters>
            <DistanceMeters>67440.105883803</DistanceMeters>
          </Trackpoint>
          <Trackpoint>
            <Time>2021-07-27T13:33:53.000Z</Time>
            <Position>
              <LatitudeDegrees>41.12962997518479824066162109375</LatitudeDegrees>
              <LongitudeDegrees>-2.96024789102375507354736328125</LongitudeDegrees>
            </Position>
            <AltitudeMeters>1089.800048828125</AltitudeMeters>
            <DistanceMeters>67458.845190427</DistanceMeters>
          </Trackpoint>
          <Trackpoint>
            <Time>2021-07-27T13:33:54.000Z</Time>
            <Position>
              <LatitudeDegrees>41.1297722160816192626953125</LatitudeDegrees>
              <LongitudeDegrees>-2.9601247608661651611328125</LongitudeDegrees>
            </Position>
            <AltitudeMeters>1089</AltitudeMeters>
            <DistanceMeters>67477.744759306</DistanceMeters>
          </Trackpoint>
          <Trackpoint>
            <Time>2021-07-27T13:33:56.000Z</Time>
            <Position>
              <LatitudeDegrees>41.1300439573824405670166015625</LatitudeDegrees>
              <LongitudeDegrees>-2.959856875240802764892578125</LongitudeDegrees>
            </Position>
            <AltitudeMeters>1086.5999755859375</AltitudeMeters>
            <DistanceMeters>67515.416350111</DistanceMeters>
          </Trackpoint>
          <Trackpoint>
            <Time>2021-07-27T13:33:57.000Z</Time>
            <Position>
              <LatitudeDegrees>41.13016809336841106414794921875</LatitudeDegrees>
              <LongitudeDegrees>-2.9597128741443157196044921875</LongitudeDegrees>
            </Position>
            <AltitudeMeters>1086.5999755859375</AltitudeMeters>
            <DistanceMeters>67533.764136076</DistanceMeters>
          </Trackpoint>
          <Trackpoint>
            <Time>2021-07-27T13:33:59.000Z</Time>
            <Position>
              <LatitudeDegrees>41.13039323128759860992431640625</LatitudeDegrees>
              <LongitudeDegrees>-2.95939796604216098785400390625</LongitudeDegrees>
            </Position>
            <AltitudeMeters>1084.800048828125</AltitudeMeters>
            <DistanceMeters>67570.163213206</DistanceMeters>
          </Trackpoint>
          <Trackpoint>
            <Time>2021-07-27T13:34:01.000Z</Time>
            <Position>
              <LatitudeDegrees>41.13058987073600292205810546875</LatitudeDegrees>
              <LongitudeDegrees>-2.959046848118305206298828125</LongitudeDegrees>
            </Position>
            <AltitudeMeters>1082.800048828125</AltitudeMeters>
            <DistanceMeters>67606.844017316</DistanceMeters>
          </Trackpoint>
          <Trackpoint>
            <Time>2021-07-27T13:34:02.000Z</Time>
            <Position>
              <LatitudeDegrees>41.13067737780511379241943359375</LatitudeDegrees>
              <LongitudeDegrees>-2.95886085368692874908447265625</LongitudeDegrees>
            </Position>
            <AltitudeMeters>1081.800048828125</AltitudeMeters>
            <DistanceMeters>67625.228678349</DistanceMeters>
          </Trackpoint>
          <Trackpoint>
            <Time>2021-07-27T13:34:03.000Z</Time>
            <Position>
              <LatitudeDegrees>41.13075633533298969268798828125</LatitudeDegrees>
              <LongitudeDegrees>-2.958668656647205352783203125</LongitudeDegrees>
            </Position>
            <AltitudeMeters>1081.199951171875</AltitudeMeters>
            <DistanceMeters>67643.581877294</DistanceMeters>
          </Trackpoint>
          <Trackpoint>
            <Time>2021-07-27T13:34:04.000Z</Time>
            <Position>
              <LatitudeDegrees>41.13082489930093288421630859375</LatitudeDegrees>
              <LongitudeDegrees>-2.958470843732357025146484375</LongitudeDegrees>
            </Position>
            <AltitudeMeters>1082</AltitudeMeters>
            <DistanceMeters>67661.836902385</DistanceMeters>
          </Trackpoint>
          <Trackpoint>
            <Time>2021-07-27T13:34:05.000Z</Time>
            <Position>
              <LatitudeDegrees>41.13088332116603851318359375</LatitudeDegrees>
              <LongitudeDegrees>-2.95826825313270092010498046875</LongitudeDegrees>
            </Position>
            <AltitudeMeters>1081.800048828125</AltitudeMeters>
            <DistanceMeters>67680.023039408</DistanceMeters>
          </Trackpoint>
          <Trackpoint>
            <Time>2021-07-27T13:34:06.000Z</Time>
            <Position>
              <LatitudeDegrees>41.1309347860515117645263671875</LatitudeDegrees>
              <LongitudeDegrees>-2.95806373469531536102294921875</LongitudeDegrees>
            </Position>
            <AltitudeMeters>1081.4000244140625</AltitudeMeters>
            <DistanceMeters>67698.099858163</DistanceMeters>
          </Trackpoint>
          <Trackpoint>
            <Time>2021-07-27T13:34:08.000Z</Time>
            <Position>
              <LatitudeDegrees>41.1310330219566822052001953125</LatitudeDegrees>
              <LongitudeDegrees>-2.957656122744083404541015625</LongitudeDegrees>
            </Position>
            <AltitudeMeters>1078</AltitudeMeters>
            <DistanceMeters>67733.978074774</DistanceMeters>
          </Trackpoint>
          <Trackpoint>
            <Time>2021-07-27T13:34:11.000Z</Time>
            <Position>
              <LatitudeDegrees>41.13118649460375308990478515625</LatitudeDegrees>
              <LongitudeDegrees>-2.9570574872195720672607421875</LongitudeDegrees>
            </Position>
            <AltitudeMeters>1072.4000244140625</AltitudeMeters>
            <DistanceMeters>67786.991144306</DistanceMeters>
          </Trackpoint>
          <Trackpoint>
            <Time>2021-07-27T13:34:12.000Z</Time>
            <Position>
              <LatitudeDegrees>41.13123678602278232574462890625</LatitudeDegrees>
              <LongitudeDegrees>-2.95686143450438976287841796875</LongitudeDegrees>
            </Position>
            <AltitudeMeters>1071.800048828125</AltitudeMeters>
            <DistanceMeters>67804.353749871</DistanceMeters>
          </Trackpoint>
          <Trackpoint>
            <Time>2021-07-27T13:34:13.000Z</Time>
            <Position>
              <LatitudeDegrees>41.1312844790518283843994140625</LatitudeDegrees>
              <LongitudeDegrees>-2.95666814781725406646728515625</LongitudeDegrees>
            </Position>
            <AltitudeMeters>1071.5999755859375</AltitudeMeters>
            <DistanceMeters>67821.405154545</DistanceMeters>
          </Trackpoint>
          <Trackpoint>
            <Time>2021-07-27T13:34:15.000Z</Time>
            <Position>
              <LatitudeDegrees>41.13135295920073986053466796875</LatitudeDegrees>
              <LongitudeDegrees>-2.95628408901393413543701171875</LongitudeDegrees>
            </Position>
            <AltitudeMeters>1072.800048828125</AltitudeMeters>
            <DistanceMeters>67854.491922708</DistanceMeters>
          </Trackpoint>
          <Trackpoint>
            <Time>2021-07-27T13:34:18.000Z</Time>
            <Position>
              <LatitudeDegrees>41.13137542270123958587646484375</LatitudeDegrees>
              <LongitudeDegrees>-2.95570037327706813812255859375</LongitudeDegrees>
            </Position>
            <AltitudeMeters>1074.5999755859375</AltitudeMeters>
            <DistanceMeters>67903.490427934</DistanceMeters>
          </Trackpoint>
          <Trackpoint>
            <Time>2021-07-27T13:34:21.000Z</Time>
            <Position>
              <LatitudeDegrees>41.13139285705983638763427734375</LatitudeDegrees>
              <LongitudeDegrees>-2.95513425953686237335205078125</LongitudeDegrees>
            </Position>
            <AltitudeMeters>1074.4000244140625</AltitudeMeters>
            <DistanceMeters>67950.98914875</DistanceMeters>
          </Trackpoint>
          <Trackpoint>
            <Time>2021-07-27T13:34:23.000Z</Time>
            <Position>
              <LatitudeDegrees>41.13148438744246959686279296875</LatitudeDegrees>
              <LongitudeDegrees>-2.954804599285125732421875</LongitudeDegrees>
            </Position>
            <AltitudeMeters>1071.199951171875</AltitudeMeters>
            <DistanceMeters>67980.443291654</DistanceMeters>
          </Trackpoint>
          <Trackpoint>
            <Time>2021-07-27T13:34:26.000Z</Time>
            <Position>
              <LatitudeDegrees>41.13173182122409343719482421875</LatitudeDegrees>
              <LongitudeDegrees>-2.954407967627048492431640625</LongitudeDegrees>
            </Position>
            <AltitudeMeters>1065.199951171875</AltitudeMeters>
            <DistanceMeters>68023.618059982</DistanceMeters>
          </Trackpoint>
          <Trackpoint>
            <Time>2021-07-27T13:34:27.000Z</Time>
            <Position>
              <LatitudeDegrees>41.13181781955063343048095703125</LatitudeDegrees>
              <LongitudeDegrees>-2.95428249053657054901123046875</LongitudeDegrees>
            </Position>
            <AltitudeMeters>1064</AltitudeMeters>
            <DistanceMeters>68037.840356293</DistanceMeters>
          </Trackpoint>
          <Trackpoint>
            <Time>2021-07-27T13:34:32.000Z</Time>
            <Position>
              <LatitudeDegrees>41.132238171994686126708984375</LatitudeDegrees>
              <LongitudeDegrees>-2.95364546589553356170654296875</LongitudeDegrees>
            </Position>
            <AltitudeMeters>1058.4000244140625</AltitudeMeters>
            <DistanceMeters>68108.83924018</DistanceMeters>
          </Trackpoint>
          <Trackpoint>
            <Time>2021-07-27T13:34:35.000Z</Time>
            <Position>
              <LatitudeDegrees>41.13249708898365497589111328125</LatitudeDegrees>
              <LongitudeDegrees>-2.95327096246182918548583984375</LongitudeDegrees>
            </Position>
            <AltitudeMeters>1056.5999755859375</AltitudeMeters>
            <DistanceMeters>68151.455410872</DistanceMeters>
          </Trackpoint>
          <Trackpoint>
            <Time>2021-07-27T13:34:37.000Z</Time>
            <Position>
              <LatitudeDegrees>41.132667995989322662353515625</LatitudeDegrees>
              <LongitudeDegrees>-2.95302025973796844482421875</LongitudeDegrees>
            </Position>
            <AltitudeMeters>1056</AltitudeMeters>
            <DistanceMeters>68179.802375127</DistanceMeters>
          </Trackpoint>
          <Trackpoint>
            <Time>2021-07-27T13:34:40.000Z</Time>
            <Position>
              <LatitudeDegrees>41.1329211294651031494140625</LatitudeDegrees>
              <LongitudeDegrees>-2.952643074095249176025390625</LongitudeDegrees>
            </Position>
            <AltitudeMeters>1058</AltitudeMeters>
            <DistanceMeters>68222.153384132</DistanceMeters>
          </Trackpoint>
          <Trackpoint>
            <Time>2021-07-27T13:34:43.000Z</Time>
            <Position>
              <LatitudeDegrees>41.13317417912185192108154296875</LatitudeDegrees>
              <LongitudeDegrees>-2.95225976966321468353271484375</LongitudeDegrees>
            </Position>
            <AltitudeMeters>1060</AltitudeMeters>
            <DistanceMeters>68264.882555972</DistanceMeters>
          </Trackpoint>
          <Trackpoint>
            <Time>2021-07-27T13:34:45.000Z</Time>
            <Position>
              <LatitudeDegrees>41.13333762623369693756103515625</LatitudeDegrees>
              <LongitudeDegrees>-2.95199641026556491851806640625</LongitudeDegrees>
            </Position>
            <AltitudeMeters>1059.4000244140625</AltitudeMeters>
            <DistanceMeters>68293.489858676</DistanceMeters>
          </Trackpoint>
          <Trackpoint>
            <Time>2021-07-27T13:34:49.000Z</Time>
            <Position>
              <LatitudeDegrees>41.13366066478192806243896484375</LatitudeDegrees>
              <LongitudeDegrees>-2.95145762152969837188720703125</LongitudeDegrees>
            </Position>
            <AltitudeMeters>1058</AltitudeMeters>
            <DistanceMeters>68351.220132308</DistanceMeters>
          </Trackpoint>
          <Trackpoint>
            <Time>2021-07-27T13:34:53.000Z</Time>
            <Position>
              <LatitudeDegrees>41.13398118875920772552490234375</LatitudeDegrees>
              <LongitudeDegrees>-2.95090810395777225494384765625</LongitudeDegrees>
            </Position>
            <AltitudeMeters>1057.5999755859375</AltitudeMeters>
            <DistanceMeters>68409.484915827</DistanceMeters>
          </Trackpoint>
          <Trackpoint>
            <Time>2021-07-27T13:34:56.000Z</Time>
            <Position>
              <LatitudeDegrees>41.1342258565127849578857421875</LatitudeDegrees>
              <LongitudeDegrees>-2.95049688778817653656005859375</LongitudeDegrees>
            </Position>
            <AltitudeMeters>1056.800048828125</AltitudeMeters>
            <DistanceMeters>68453.415633299</DistanceMeters>
          </Trackpoint>
          <Trackpoint>
            <Time>2021-07-27T13:34:58.000Z</Time>
            <Position>
              <LatitudeDegrees>41.13439307548105716705322265625</LatitudeDegrees>
              <LongitudeDegrees>-2.95023101381957530975341796875</LongitudeDegrees>
            </Position>
            <AltitudeMeters>1056.5999755859375</AltitudeMeters>
            <DistanceMeters>68482.452631554</DistanceMeters>
          </Trackpoint>
          <Trackpoint>
            <Time>2021-07-27T13:35:00.000Z</Time>
            <Position>
              <LatitudeDegrees>41.1345653235912322998046875</LatitudeDegrees>
              <LongitudeDegrees>-2.949976623058319091796875</LongitudeDegrees>
            </Position>
            <AltitudeMeters>1054.4000244140625</AltitudeMeters>
            <DistanceMeters>68511.128664775</DistanceMeters>
          </Trackpoint>
          <Trackpoint>
            <Time>2021-07-27T13:35:02.000Z</Time>
            <Position>
              <LatitudeDegrees>41.13474578596651554107666015625</LatitudeDegrees>
              <LongitudeDegrees>-2.94973991811275482177734375</LongitudeDegrees>
            </Position>
            <AltitudeMeters>1053.199951171875</AltitudeMeters>
            <DistanceMeters>68539.362795156</DistanceMeters>
          </Trackpoint>
          <Trackpoint>
            <Time>2021-07-27T13:35:05.000Z</Time>
            <Position>
              <LatitudeDegrees>41.1350228078663349151611328125</LatitudeDegrees>
              <LongitudeDegrees>-2.9494101740419864654541015625</LongitudeDegrees>
            </Position>
            <AltitudeMeters>1053</AltitudeMeters>
            <DistanceMeters>68580.772423701</DistanceMeters>
          </Trackpoint>
          <Trackpoint>
            <Time>2021-07-27T13:35:10.000Z</Time>
            <Position>
              <LatitudeDegrees>41.13549110479652881622314453125</LatitudeDegrees>
              <LongitudeDegrees>-2.94891790486872196197509765625</LongitudeDegrees>
            </Position>
            <AltitudeMeters>1051</AltitudeMeters>
            <DistanceMeters>68647.252694717</DistanceMeters>
          </Trackpoint>
          <Trackpoint>
            <Time>2021-07-27T13:35:15.000Z</Time>
            <Position>
              <LatitudeDegrees>41.1359565518796443939208984375</LatitudeDegrees>
              <LongitudeDegrees>-2.94844709336757659912109375</LongitudeDegrees>
            </Position>
            <AltitudeMeters>1042.199951171875</AltitudeMeters>
            <DistanceMeters>68712.37879429</DistanceMeters>
          </Trackpoint>
          <Trackpoint>
            <Time>2021-07-27T13:35:20.000Z</Time>
            <Position>
              <LatitudeDegrees>41.13637514412403106689453125</LatitudeDegrees>
              <LongitudeDegrees>-2.9479352943599224090576171875</LongitudeDegrees>
            </Position>
            <AltitudeMeters>1041.199951171875</AltitudeMeters>
            <DistanceMeters>68775.713368713</DistanceMeters>
          </Trackpoint>
          <Trackpoint>
            <Time>2021-07-27T13:35:25.000Z</Time>
            <Position>
              <LatitudeDegrees>41.1367674171924591064453125</LatitudeDegrees>
              <LongitudeDegrees>-2.94743330217897891998291015625</LongitudeDegrees>
            </Position>
            <AltitudeMeters>1043.5999755859375</AltitudeMeters>
            <DistanceMeters>68836.351656763</DistanceMeters>
          </Trackpoint>
          <Trackpoint>
            <Time>2021-07-27T13:35:29.000Z</Time>
            <Position>
              <LatitudeDegrees>41.13706740550696849822998046875</LatitudeDegrees>
              <LongitudeDegrees>-2.9470344074070453643798828125</LongitudeDegrees>
            </Position>
            <AltitudeMeters>1040.199951171875</AltitudeMeters>
            <DistanceMeters>68883.605452196</DistanceMeters>
          </Trackpoint>
          <Trackpoint>
            <Time>2021-07-27T13:35:32.000Z</Time>
            <Position>
              <LatitudeDegrees>41.13729069940745830535888671875</LatitudeDegrees>
              <LongitudeDegrees>-2.946740873157978057861328125</LongitudeDegrees>
            </Position>
            <AltitudeMeters>1035.800048828125</AltitudeMeters>
            <DistanceMeters>68918.578510744</DistanceMeters>
          </Trackpoint>
          <Trackpoint>
            <Time>2021-07-27T13:35:35.000Z</Time>
            <Position>
              <LatitudeDegrees>41.1375139094889163970947265625</LatitudeDegrees>
              <LongitudeDegrees>-2.946450524032115936279296875</LongitudeDegrees>
            </Position>
            <AltitudeMeters>1038.199951171875</AltitudeMeters>
            <DistanceMeters>68953.357509288</DistanceMeters>
          </Trackpoint>
          <Trackpoint>
            <Time>2021-07-27T13:35:41.000Z</Time>
            <Position>
              <LatitudeDegrees>41.1379584856331348419189453125</LatitudeDegrees>
              <LongitudeDegrees>-2.94589203782379627227783203125</LongitudeDegrees>
            </Position>
            <AltitudeMeters>1035.4000244140625</AltitudeMeters>
            <DistanceMeters>69021.476022711</DistanceMeters>
          </Trackpoint>
          <Trackpoint>
            <Time>2021-07-27T13:35:44.000Z</Time>
            <Position>
              <LatitudeDegrees>41.13819477148354053497314453125</LatitudeDegrees>
              <LongitudeDegrees>-2.9456393234431743621826171875</LongitudeDegrees>
            </Position>
            <AltitudeMeters>1035</AltitudeMeters>
            <DistanceMeters>69055.245688003</DistanceMeters>
          </Trackpoint>
          <Trackpoint>
            <Time>2021-07-27T13:35:47.000Z</Time>
            <Position>
              <LatitudeDegrees>41.13844019360840320587158203125</LatitudeDegrees>
              <LongitudeDegrees>-2.94541058130562305450439453125</LongitudeDegrees>
            </Position>
            <AltitudeMeters>1033.5999755859375</AltitudeMeters>
            <DistanceMeters>69088.619551714</DistanceMeters>
          </Trackpoint>
          <Trackpoint>
            <Time>2021-07-27T13:35:50.000Z</Time>
            <Position>
              <LatitudeDegrees>41.1386796645820140838623046875</LatitudeDegrees>
              <LongitudeDegrees>-2.9451749660074710845947265625</LongitudeDegrees>
            </Position>
            <AltitudeMeters>1030.800048828125</AltitudeMeters>
            <DistanceMeters>69121.793131354</DistanceMeters>
          </Trackpoint>
          <Trackpoint>
            <Time>2021-07-27T13:35:55.000Z</Time>
            <Position>
              <LatitudeDegrees>41.1390481330454349517822265625</LatitudeDegrees>
              <LongitudeDegrees>-2.944745980203151702880859375</LongitudeDegrees>
            </Position>
            <AltitudeMeters>1030.5999755859375</AltitudeMeters>
            <DistanceMeters>69176.336478745</DistanceMeters>
          </Trackpoint>
          <Trackpoint>
            <Time>2021-07-27T13:35:58.000Z</Time>
            <Position>
              <LatitudeDegrees>41.13923974335193634033203125</LatitudeDegrees>
              <LongitudeDegrees>-2.9444606602191925048828125</LongitudeDegrees>
            </Position>
            <AltitudeMeters>1030</AltitudeMeters>
            <DistanceMeters>69208.380354798</DistanceMeters>
          </Trackpoint>
          <Trackpoint>
            <Time>2021-07-27T13:36:04.000Z</Time>
            <Position>
              <LatitudeDegrees>41.1395580880343914031982421875</LatitudeDegrees>
              <LongitudeDegrees>-2.94383729808032512664794921875</LongitudeDegrees>
            </Position>
            <AltitudeMeters>1027</AltitudeMeters>
            <DistanceMeters>69271.512859904</DistanceMeters>
          </Trackpoint>
          <Trackpoint>
            <Time>2021-07-27T13:36:05.000Z</Time>
            <Position>
              <LatitudeDegrees>41.13961114548146724700927734375</LatitudeDegrees>
              <LongitudeDegrees>-2.9437337815761566162109375</LongitudeDegrees>
            </Position>
            <AltitudeMeters>1027</AltitudeMeters>
            <DistanceMeters>69282.008903569</DistanceMeters>
          </Trackpoint>
          <Trackpoint>
            <Time>2021-07-27T13:36:08.000Z</Time>
            <Position>
              <LatitudeDegrees>41.139765791594982147216796875</LatitudeDegrees>
              <LongitudeDegrees>-2.94342138804495334625244140625</LongitudeDegrees>
            </Position>
            <AltitudeMeters>1027</AltitudeMeters>
            <DistanceMeters>69313.344962234</DistanceMeters>
          </Trackpoint>
          <Trackpoint>
            <Time>2021-07-27T13:36:14.000Z</Time>
            <Position>
              <LatitudeDegrees>41.1400864832103252410888671875</LatitudeDegrees>
              <LongitudeDegrees>-2.94281135313212871551513671875</LongitudeDegrees>
            </Position>
            <AltitudeMeters>1026.800048828125</AltitudeMeters>
            <DistanceMeters>69375.704935777</DistanceMeters>
          </Trackpoint>
          <Trackpoint>
            <Time>2021-07-27T13:36:20.000Z</Time>
            <Position>
              <LatitudeDegrees>41.14043223671615123748779296875</LatitudeDegrees>
              <LongitudeDegrees>-2.9422111250460147857666015625</LongitudeDegrees>
            </Position>
            <AltitudeMeters>1022</AltitudeMeters>
            <DistanceMeters>69439.04735147</DistanceMeters>
          </Trackpoint>
          <Trackpoint>
            <Time>2021-07-27T13:36:21.000Z</Time>
            <Position>
              <LatitudeDegrees>41.140491664409637451171875</LatitudeDegrees>
              <LongitudeDegrees>-2.9421108774840831756591796875</LongitudeDegrees>
            </Position>
            <AltitudeMeters>1021.79998779296875</AltitudeMeters>
            <DistanceMeters>69449.741129478</DistanceMeters>
          </Trackpoint>
          <Trackpoint>
            <Time>2021-07-27T13:36:23.000Z</Time>
            <Position>
              <LatitudeDegrees>41.14060658030211925506591796875</LatitudeDegrees>
              <LongitudeDegrees>-2.941907532513141632080078125</LongitudeDegrees>
            </Position>
            <AltitudeMeters>1022</AltitudeMeters>
            <DistanceMeters>69471.051280683</DistanceMeters>
          </Trackpoint>
          <Trackpoint>
            <Time>2021-07-27T13:36:25.000Z</Time>
            <Position>
              <LatitudeDegrees>41.1407251842319965362548828125</LatitudeDegrees>
              <LongitudeDegrees>-2.94171164743602275848388671875</LongitudeDegrees>
            </Position>
            <AltitudeMeters>1022.4000244140625</AltitudeMeters>
            <DistanceMeters>69492.118941146</DistanceMeters>
          </Trackpoint>
          <Trackpoint>
            <Time>2021-07-27T13:36:31.000Z</Time>
            <Position>
              <LatitudeDegrees>41.14106624387204647064208984375</LatitudeDegrees>
              <LongitudeDegrees>-2.941141426563262939453125</LongitudeDegrees>
            </Position>
            <AltitudeMeters>1022.79998779296875</AltitudeMeters>
            <DistanceMeters>69553.155835875</DistanceMeters>
          </Trackpoint>
          <Trackpoint>
            <Time>2021-07-27T13:36:38.000Z</Time>
            <Position>
              <LatitudeDegrees>41.141434125602245330810546875</LatitudeDegrees>
              <LongitudeDegrees>-2.9405032284557819366455078125</LongitudeDegrees>
            </Position>
            <AltitudeMeters>1026.800048828125</AltitudeMeters>
            <DistanceMeters>69620.521868176</DistanceMeters>
          </Trackpoint>
          <Trackpoint>
            <Time>2021-07-27T13:36:45.000Z</Time>
            <Position>
              <LatitudeDegrees>41.141714416444301605224609375</LatitudeDegrees>
              <LongitudeDegrees>-2.939847595989704132080078125</LongitudeDegrees>
            </Position>
            <AltitudeMeters>1026</AltitudeMeters>
            <DistanceMeters>69683.714490334</DistanceMeters>
          </Trackpoint>
          <Trackpoint>
            <Time>2021-07-27T13:36:49.000Z</Time>
            <Position>
              <LatitudeDegrees>41.14186990074813365936279296875</LatitudeDegrees>
              <LongitudeDegrees>-2.9394543170928955078125</LongitudeDegrees>
            </Position>
            <AltitudeMeters>1024</AltitudeMeters>
            <DistanceMeters>69720.94556411</DistanceMeters>
          </Trackpoint>
          <Trackpoint>
            <Time>2021-07-27T13:36:53.000Z</Time>
            <Position>
              <LatitudeDegrees>41.14202680997550487518310546875</LatitudeDegrees>
              <LongitudeDegrees>-2.93904402293264865875244140625</LongitudeDegrees>
            </Position>
            <AltitudeMeters>1023.5999755859375</AltitudeMeters>
            <DistanceMeters>69759.516461483</DistanceMeters>
          </Trackpoint>
          <Trackpoint>
            <Time>2021-07-27T13:36:56.000Z</Time>
            <Position>
              <LatitudeDegrees>41.1421480961143970489501953125</LatitudeDegrees>
              <LongitudeDegrees>-2.93872945010662078857421875</LongitudeDegrees>
            </Position>
            <AltitudeMeters>1021.79998779296875</AltitudeMeters>
            <DistanceMeters>69789.138591525</DistanceMeters>
          </Trackpoint>
          <Trackpoint>
            <Time>2021-07-27T13:37:00.000Z</Time>
            <Position>
              <LatitudeDegrees>41.14231313578784465789794921875</LatitudeDegrees>
              <LongitudeDegrees>-2.9383075051009654998779296875</LongitudeDegrees>
            </Position>
            <AltitudeMeters>1018</AltitudeMeters>
            <DistanceMeters>69828.99150855</DistanceMeters>
          </Trackpoint>
          <Trackpoint>
            <Time>2021-07-27T13:37:03.000Z</Time>
            <Position>
              <LatitudeDegrees>41.142432577908039093017578125</LatitudeDegrees>
              <LongitudeDegrees>-2.93798807077109813690185546875</LongitudeDegrees>
            </Position>
            <AltitudeMeters>1016.4000244140625</AltitudeMeters>
            <DistanceMeters>69858.884925298</DistanceMeters>
          </Trackpoint>
          <Trackpoint>
            <Time>2021-07-27T13:37:08.000Z</Time>
            <Position>
              <LatitudeDegrees>41.14261723123490810394287109375</LatitudeDegrees>
              <LongitudeDegrees>-2.93744961731135845184326171875</LongitudeDegrees>
            </Position>
            <AltitudeMeters>1016.79998779296875</AltitudeMeters>
            <DistanceMeters>69908.47658074</DistanceMeters>
          </Trackpoint>
          <Trackpoint>
            <Time>2021-07-27T13:37:10.000Z</Time>
            <Position>
              <LatitudeDegrees>41.14268646575510501861572265625</LatitudeDegrees>
              <LongitudeDegrees>-2.9372347891330718994140625</LongitudeDegrees>
            </Position>
            <AltitudeMeters>1015.79998779296875</AltitudeMeters>
            <DistanceMeters>69928.062921326</DistanceMeters>
          </Trackpoint>
          <Trackpoint>
            <Time>2021-07-27T13:37:13.000Z</Time>
            <Position>
              <LatitudeDegrees>41.14278000779449939727783203125</LatitudeDegrees>
              <LongitudeDegrees>-2.9369211383163928985595703125</LongitudeDegrees>
            </Position>
            <AltitudeMeters>1015.20001220703125</AltitudeMeters>
            <DistanceMeters>69956.339077863</DistanceMeters>
          </Trackpoint>
          <Trackpoint>
            <Time>2021-07-27T13:37:17.000Z</Time>
            <Position>
              <LatitudeDegrees>41.14288813434541225433349609375</LatitudeDegrees>
              <LongitudeDegrees>-2.93651553802192211151123046875</LongitudeDegrees>
            </Position>
            <AltitudeMeters>1015.20001220703125</AltitudeMeters>
            <DistanceMeters>69992.402936645</DistanceMeters>
          </Trackpoint>
          <Trackpoint>
            <Time>2021-07-27T13:37:23.000Z</Time>
            <Position>
              <LatitudeDegrees>41.14303833805024623870849609375</LatitudeDegrees>
              <LongitudeDegrees>-2.935957722365856170654296875</LongitudeDegrees>
            </Position>
            <AltitudeMeters>1011</AltitudeMeters>
            <DistanceMeters>70042.056918276</DistanceMeters>
          </Trackpoint>
          <Trackpoint>
            <Time>2021-07-27T13:37:25.000Z</Time>
            <Position>
              <LatitudeDegrees>41.14309013821184635162353515625</LatitudeDegrees>
              <LongitudeDegrees>-2.93579067103564739227294921875</LongitudeDegrees>
            </Position>
            <AltitudeMeters>1008.5999755859375</AltitudeMeters>
            <DistanceMeters>70057.199299233</DistanceMeters>
          </Trackpoint>
          <Trackpoint>
            <Time>2021-07-27T13:37:30.000Z</Time>
            <Position>
              <LatitudeDegrees>41.1432421021163463592529296875</LatitudeDegrees>
              <LongitudeDegrees>-2.9354144074022769927978515625</LongitudeDegrees>
            </Position>
            <AltitudeMeters>1007.4000244140625</AltitudeMeters>
            <DistanceMeters>70092.986163049</DistanceMeters>
          </Trackpoint>
          <Trackpoint>
            <Time>2021-07-27T13:37:33.000Z</Time>
            <Position>
              <LatitudeDegrees>41.143351234495639801025390625</LatitudeDegrees>
              <LongitudeDegrees>-2.9352016746997833251953125</LongitudeDegrees>
            </Position>
            <AltitudeMeters>1006.79998779296875</AltitudeMeters>
            <DistanceMeters>70114.560994461</DistanceMeters>
          </Trackpoint>
          <Trackpoint>
            <Time>2021-07-27T13:37:41.000Z</Time>
            <Position>
              <LatitudeDegrees>41.14367988891899585723876953125</LatitudeDegrees>
              <LongitudeDegrees>-2.934645451605319976806640625</LongitudeDegrees>
            </Position>
            <AltitudeMeters>1004.79998779296875</AltitudeMeters>
            <DistanceMeters>70173.820037549</DistanceMeters>
          </Trackpoint>
          <Trackpoint>
            <Time>2021-07-27T13:37:43.000Z</Time>
            <Position>
              <LatitudeDegrees>41.1437666416168212890625</LatitudeDegrees>
              <LongitudeDegrees>-2.934507988393306732177734375</LongitudeDegrees>
            </Position>
            <AltitudeMeters>1004.5999755859375</AltitudeMeters>
            <DistanceMeters>70188.852891339</DistanceMeters>
          </Trackpoint>
          <Trackpoint>
            <Time>2021-07-27T13:37:48.000Z</Time>
            <Position>
              <LatitudeDegrees>41.1439787037670612335205078125</LatitudeDegrees>
              <LongitudeDegrees>-2.93416508473455905914306640625</LongitudeDegrees>
            </Position>
            <AltitudeMeters>1004.4000244140625</AltitudeMeters>
            <DistanceMeters>70226.043560048</DistanceMeters>
          </Trackpoint>
          <Trackpoint>
            <Time>2021-07-27T13:37:51.000Z</Time>
            <Position>
              <LatitudeDegrees>41.1441017501056194305419921875</LatitudeDegrees>
              <LongitudeDegrees>-2.93396308086812496185302734375</LongitudeDegrees>
            </Position>
            <AltitudeMeters>1004.5999755859375</AltitudeMeters>
            <DistanceMeters>70247.820233222</DistanceMeters>
          </Trackpoint>
          <Trackpoint>
            <Time>2021-07-27T13:37:56.000Z</Time>
            <Position>
              <LatitudeDegrees>41.14429092966020107269287109375</LatitudeDegrees>
              <LongitudeDegrees>-2.9336290620267391204833984375</LongitudeDegrees>
            </Position>
            <AltitudeMeters>1006.79998779296875</AltitudeMeters>
            <DistanceMeters>70282.850823259</DistanceMeters>
          </Trackpoint>
          <Trackpoint>
            <Time>2021-07-27T13:38:04.000Z</Time>
            <Position>
              <LatitudeDegrees>41.14446879364550113677978515625</LatitudeDegrees>
              <LongitudeDegrees>-2.93302380479872226715087890625</LongitudeDegrees>
            </Position>
            <AltitudeMeters>1005.5999755859375</AltitudeMeters>
            <DistanceMeters>70337.30701762</DistanceMeters>
          </Trackpoint>
          <Trackpoint>
            <Time>2021-07-27T13:38:14.000Z</Time>
            <Position>
              <LatitudeDegrees>41.14457155577838420867919921875</LatitudeDegrees>
              <LongitudeDegrees>-2.93228552676737308502197265625</LongitudeDegrees>
            </Position>
            <AltitudeMeters>1003.20001220703125</AltitudeMeters>
            <DistanceMeters>70400.234939107</DistanceMeters>
          </Trackpoint>
          <Trackpoint>
            <Time>2021-07-27T13:38:24.000Z</Time>
            <Position>
              <LatitudeDegrees>41.14466006867587566375732421875</LatitudeDegrees>
              <LongitudeDegrees>-2.93150802142918109893798828125</LongitudeDegrees>
            </Position>
            <AltitudeMeters>1000</AltitudeMeters>
            <DistanceMeters>70466.142867787</DistanceMeters>
          </Trackpoint>
          <Trackpoint>
            <Time>2021-07-27T13:38:26.000Z</Time>
            <Position>
              <LatitudeDegrees>41.144680939614772796630859375</LatitudeDegrees>
              <LongitudeDegrees>-2.931336276233196258544921875</LongitudeDegrees>
            </Position>
            <AltitudeMeters>998.79998779296875</AltitudeMeters>
            <DistanceMeters>70480.723818366</DistanceMeters>
          </Trackpoint>
          <Trackpoint>
            <Time>2021-07-27T13:38:30.000Z</Time>
            <Position>
              <LatitudeDegrees>41.14472880028188228607177734375</LatitudeDegrees>
              <LongitudeDegrees>-2.930975854396820068359375</LongitudeDegrees>
            </Position>
            <AltitudeMeters>998.20001220703125</AltitudeMeters>
            <DistanceMeters>70511.399054074</DistanceMeters>
          </Trackpoint>
          <Trackpoint>
            <Time>2021-07-27T13:38:34.000Z</Time>
            <Position>
              <LatitudeDegrees>41.14477758295834064483642578125</LatitudeDegrees>
              <LongitudeDegrees>-2.93058835901319980621337890625</LongitudeDegrees>
            </Position>
            <AltitudeMeters>998.4000244140625</AltitudeMeters>
            <DistanceMeters>70544.327970231</DistanceMeters>
          </Trackpoint>
          <Trackpoint>
            <Time>2021-07-27T13:38:37.000Z</Time>
            <Position>
              <LatitudeDegrees>41.144815385341644287109375</LatitudeDegrees>
              <LongitudeDegrees>-2.930279485881328582763671875</LongitudeDegrees>
            </Position>
            <AltitudeMeters>998.20001220703125</AltitudeMeters>
            <DistanceMeters>70570.556031987</DistanceMeters>
          </Trackpoint>
          <Trackpoint>
            <Time>2021-07-27T13:38:44.000Z</Time>
            <Position>
              <LatitudeDegrees>41.14491051994264125823974609375</LatitudeDegrees>
              <LongitudeDegrees>-2.92950273491442203521728515625</LongitudeDegrees>
            </Position>
            <AltitudeMeters>994.79998779296875</AltitudeMeters>
            <DistanceMeters>70636.515456487</DistanceMeters>
          </Trackpoint>
          <Trackpoint>
            <Time>2021-07-27T13:38:45.000Z</Time>
            <Position>
              <LatitudeDegrees>41.14492426626384258270263671875</LatitudeDegrees>
              <LongitudeDegrees>-2.92938689701259136199951171875</LongitudeDegrees>
            </Position>
            <AltitudeMeters>994.20001220703125</AltitudeMeters>
            <DistanceMeters>70646.344177553</DistanceMeters>
          </Trackpoint>
          <Trackpoint>
            <Time>2021-07-27T13:38:46.000Z</Time>
            <Position>
              <LatitudeDegrees>41.144936420023441314697265625</LatitudeDegrees>
              <LongitudeDegrees>-2.9292708076536655426025390625</LongitudeDegrees>
            </Position>
            <AltitudeMeters>993.5999755859375</AltitudeMeters>
            <DistanceMeters>70656.167844229</DistanceMeters>
          </Trackpoint>
          <Trackpoint>
            <Time>2021-07-27T13:38:53.000Z</Time>
            <Position>
              <LatitudeDegrees>41.14503842778503894805908203125</LatitudeDegrees>
              <LongitudeDegrees>-2.92846505530178546905517578125</LongitudeDegrees>
            </Position>
            <AltitudeMeters>991.4000244140625</AltitudeMeters>
            <DistanceMeters>70724.650202627</DistanceMeters>
          </Trackpoint>
          <Trackpoint>
            <Time>2021-07-27T13:38:55.000Z</Time>
            <Position>
              <LatitudeDegrees>41.1450613103806972503662109375</LatitudeDegrees>
              <LongitudeDegrees>-2.928234636783599853515625</LongitudeDegrees>
            </Position>
            <AltitudeMeters>993.79998779296875</AltitudeMeters>
            <DistanceMeters>70744.129983743</DistanceMeters>
          </Trackpoint>
          <Trackpoint>
            <Time>2021-07-27T13:38:58.000Z</Time>
            <Position>
              <LatitudeDegrees>41.14510229788720607757568359375</LatitudeDegrees>
              <LongitudeDegrees>-2.9278975166380405426025390625</LongitudeDegrees>
            </Position>
            <AltitudeMeters>996.4000244140625</AltitudeMeters>
            <DistanceMeters>70772.751802955</DistanceMeters>
          </Trackpoint>
          <Trackpoint>
            <Time>2021-07-27T13:39:00.000Z</Time>
            <Position>
              <LatitudeDegrees>41.14512660540640354156494140625</LatitudeDegrees>
              <LongitudeDegrees>-2.927684783935546875</LongitudeDegrees>
            </Position>
            <AltitudeMeters>996.79998779296875</AltitudeMeters>
            <DistanceMeters>70790.785860546</DistanceMeters>
          </Trackpoint>
          <Trackpoint>
            <Time>2021-07-27T13:39:08.000Z</Time>
            <Position>
              <LatitudeDegrees>41.1452443711459636688232421875</LatitudeDegrees>
              <LongitudeDegrees>-2.92693577706813812255859375</LongitudeDegrees>
            </Position>
            <AltitudeMeters>994.79998779296875</AltitudeMeters>
            <DistanceMeters>70854.917840539</DistanceMeters>
          </Trackpoint>
          <Trackpoint>
            <Time>2021-07-27T13:39:12.000Z</Time>
            <Position>
              <LatitudeDegrees>41.1453670822083950042724609375</LatitudeDegrees>
              <LongitudeDegrees>-2.926618270576000213623046875</LongitudeDegrees>
            </Position>
            <AltitudeMeters>994.5999755859375</AltitudeMeters>
            <DistanceMeters>70884.829829178</DistanceMeters>
          </Trackpoint>
          <Trackpoint>
            <Time>2021-07-27T13:39:16.000Z</Time>
            <Position>
              <LatitudeDegrees>41.14555575884878635406494140625</LatitudeDegrees>
              <LongitudeDegrees>-2.9263756982982158660888671875</LongitudeDegrees>
            </Position>
            <AltitudeMeters>995.20001220703125</AltitudeMeters>
            <DistanceMeters>70914.059465725</DistanceMeters>
          </Trackpoint>
          <Trackpoint>
            <Time>2021-07-27T13:39:25.000Z</Time>
            <Position>
              <LatitudeDegrees>41.14603218622505664825439453125</LatitudeDegrees>
              <LongitudeDegrees>-2.92592919431626796722412109375</LongitudeDegrees>
            </Position>
            <AltitudeMeters>996</AltitudeMeters>
            <DistanceMeters>70978.962642074</DistanceMeters>
          </Trackpoint>
          <Trackpoint>
            <Time>2021-07-27T13:39:27.000Z</Time>
            <Position>
              <LatitudeDegrees>41.14612757228314876556396484375</LatitudeDegrees>
              <LongitudeDegrees>-2.92581788264214992523193359375</LongitudeDegrees>
            </Position>
            <AltitudeMeters>996.20001220703125</AltitudeMeters>
            <DistanceMeters>70993.096408419</DistanceMeters>
          </Trackpoint>
          <Trackpoint>
            <Time>2021-07-27T13:39:35.000Z</Time>
            <Position>
              <LatitudeDegrees>41.1463916860520839691162109375</LatitudeDegrees>
              <LongitudeDegrees>-2.92530356906354427337646484375</LongitudeDegrees>
            </Position>
            <AltitudeMeters>993.20001220703125</AltitudeMeters>
            <DistanceMeters>71045.272392031</DistanceMeters>
          </Trackpoint>
          <Trackpoint>
            <Time>2021-07-27T13:39:45.000Z</Time>
            <Position>
              <LatitudeDegrees>41.1466763354837894439697265625</LatitudeDegrees>
              <LongitudeDegrees>-2.9246927797794342041015625</LongitudeDegrees>
            </Position>
            <AltitudeMeters>990.4000244140625</AltitudeMeters>
            <DistanceMeters>71105.475546786</DistanceMeters>
          </Trackpoint>
          <Trackpoint>
            <Time>2021-07-27T13:39:51.000Z</Time>
            <Position>
              <LatitudeDegrees>41.1469049938023090362548828125</LatitudeDegrees>
              <LongitudeDegrees>-2.92441391386091709136962890625</LongitudeDegrees>
            </Position>
            <AltitudeMeters>990.4000244140625</AltitudeMeters>
            <DistanceMeters>71140.02974809</DistanceMeters>
          </Trackpoint>
          <Trackpoint>
            <Time>2021-07-27T13:40:01.000Z</Time>
            <Position>
              <LatitudeDegrees>41.1474162898957729339599609375</LatitudeDegrees>
              <LongitudeDegrees>-2.92417980730533599853515625</LongitudeDegrees>
            </Position>
            <AltitudeMeters>991.79998779296875</AltitudeMeters>
            <DistanceMeters>71200.225552719</DistanceMeters>
          </Trackpoint>
          <Trackpoint>
            <Time>2021-07-27T13:40:07.000Z</Time>
            <Position>
              <LatitudeDegrees>41.14773069508373737335205078125</LatitudeDegrees>
              <LongitudeDegrees>-2.92405868880450725555419921875</LongitudeDegrees>
            </Position>
            <AltitudeMeters>993</AltitudeMeters>
            <DistanceMeters>71236.662071474</DistanceMeters>
          </Trackpoint>
          <Trackpoint>
            <Time>2021-07-27T13:40:16.000Z</Time>
            <Position>
              <LatitudeDegrees>41.1481760255992412567138671875</LatitudeDegrees>
              <LongitudeDegrees>-2.923695333302021026611328125</LongitudeDegrees>
            </Position>
            <AltitudeMeters>989.20001220703125</AltitudeMeters>
            <DistanceMeters>71294.83611903</DistanceMeters>
          </Trackpoint>
          <Trackpoint>
            <Time>2021-07-27T13:40:17.000Z</Time>
            <Position>
              <LatitudeDegrees>41.14821667782962322235107421875</LatitudeDegrees>
              <LongitudeDegrees>-2.923637665808200836181640625</LongitudeDegrees>
            </Position>
            <AltitudeMeters>988.5999755859375</AltitudeMeters>
            <DistanceMeters>71301.456692348</DistanceMeters>
          </Trackpoint>
          <Trackpoint>
            <Time>2021-07-27T13:40:22.000Z</Time>
            <Position>
              <LatitudeDegrees>41.1483845673501491546630859375</LatitudeDegrees>
              <LongitudeDegrees>-2.92331135831773281097412109375</LongitudeDegrees>
            </Position>
            <AltitudeMeters>990</AltitudeMeters>
            <DistanceMeters>71334.579466502</DistanceMeters>
          </Trackpoint>
          <Trackpoint>
            <Time>2021-07-27T13:40:24.000Z</Time>
            <Position>
              <LatitudeDegrees>41.14842806942760944366455078125</LatitudeDegrees>
              <LongitudeDegrees>-2.92317138053476810455322265625</LongitudeDegrees>
            </Position>
            <AltitudeMeters>990.5999755859375</AltitudeMeters>
            <DistanceMeters>71347.271137141</DistanceMeters>
          </Trackpoint>
          <Trackpoint>
            <Time>2021-07-27T13:40:29.000Z</Time>
            <Position>
              <LatitudeDegrees>41.1485213600099086761474609375</LatitudeDegrees>
              <LongitudeDegrees>-2.9228328354656696319580078125</LongitudeDegrees>
            </Position>
            <AltitudeMeters>991.79998779296875</AltitudeMeters>
            <DistanceMeters>71377.485149586</DistanceMeters>
          </Trackpoint>
          <Trackpoint>
            <Time>2021-07-27T13:40:39.000Z</Time>
            <Position>
              <LatitudeDegrees>41.14869830198585987091064453125</LatitudeDegrees>
              <LongitudeDegrees>-2.9220895282924175262451171875</LongitudeDegrees>
            </Position>
            <AltitudeMeters>989.79998779296875</AltitudeMeters>
            <DistanceMeters>71442.821250614</DistanceMeters>
          </Trackpoint>
          <Trackpoint>
            <Time>2021-07-27T13:40:48.000Z</Time>
            <Position>
              <LatitudeDegrees>41.14885655231773853302001953125</LatitudeDegrees>
              <LongitudeDegrees>-2.92138989083468914031982421875</LongitudeDegrees>
            </Position>
            <AltitudeMeters>985.4000244140625</AltitudeMeters>
            <DistanceMeters>71504.046779059</DistanceMeters>
          </Trackpoint>
          <Trackpoint>
            <Time>2021-07-27T13:40:53.000Z</Time>
            <Position>
              <LatitudeDegrees>41.14893953315913677215576171875</LatitudeDegrees>
              <LongitudeDegrees>-2.92104237712919712066650390625</LongitudeDegrees>
            </Position>
            <AltitudeMeters>984.79998779296875</AltitudeMeters>
            <DistanceMeters>71534.601377457</DistanceMeters>
          </Trackpoint>
          <Trackpoint>
            <Time>2021-07-27T13:41:00.000Z</Time>
            <Position>
              <LatitudeDegrees>41.149074397981166839599609375</LatitudeDegrees>
              <LongitudeDegrees>-2.920639626681804656982421875</LongitudeDegrees>
            </Position>
            <AltitudeMeters>988</AltitudeMeters>
            <DistanceMeters>71571.54318836</DistanceMeters>
          </Trackpoint>
          <Trackpoint>
            <Time>2021-07-27T13:41:01.000Z</Time>
            <Position>
              <LatitudeDegrees>41.1491010524332523345947265625</LatitudeDegrees>
              <LongitudeDegrees>-2.92059159837663173675537109375</LongitudeDegrees>
            </Position>
            <AltitudeMeters>988</AltitudeMeters>
            <DistanceMeters>71576.545422044</DistanceMeters>
          </Trackpoint>
          <Trackpoint>
            <Time>2021-07-27T13:41:07.000Z</Time>
            <Position>
              <LatitudeDegrees>41.149300038814544677734375</LatitudeDegrees>
              <LongitudeDegrees>-2.9203705675899982452392578125</LongitudeDegrees>
            </Position>
            <AltitudeMeters>989.4000244140625</AltitudeMeters>
            <DistanceMeters>71605.418847844</DistanceMeters>
          </Trackpoint>
          <Trackpoint>
            <Time>2021-07-27T13:41:21.000Z</Time>
            <Position>
              <LatitudeDegrees>41.149831116199493408203125</LatitudeDegrees>
              <LongitudeDegrees>-2.92028725147247314453125</LongitudeDegrees>
            </Position>
            <AltitudeMeters>989.79998779296875</AltitudeMeters>
            <DistanceMeters>71664.939867922</DistanceMeters>
          </Trackpoint>
          <Trackpoint>
            <Time>2021-07-27T13:41:22.000Z</Time>
            <Position>
              <LatitudeDegrees>41.14986657164990901947021484375</LatitudeDegrees>
              <LongitudeDegrees>-2.92030259035527706146240234375</LongitudeDegrees>
            </Position>
            <AltitudeMeters>990</AltitudeMeters>
            <DistanceMeters>71669.090697461</DistanceMeters>
          </Trackpoint>
          <Trackpoint>
            <Time>2021-07-27T13:41:36.000Z</Time>
            <Position>
              <LatitudeDegrees>41.15035104565322399139404296875</LatitudeDegrees>
              <LongitudeDegrees>-2.92062026448547840118408203125</LongitudeDegrees>
            </Position>
            <AltitudeMeters>990.5999755859375</AltitudeMeters>
            <DistanceMeters>71729.228194296</DistanceMeters>
          </Trackpoint>
          <Trackpoint>
            <Time>2021-07-27T13:41:42.000Z</Time>
            <Position>
              <LatitudeDegrees>41.15059479139745235443115234375</LatitudeDegrees>
              <LongitudeDegrees>-2.92064239270985126495361328125</LongitudeDegrees>
            </Position>
            <AltitudeMeters>992.79998779296875</AltitudeMeters>
            <DistanceMeters>71756.420782251</DistanceMeters>
          </Trackpoint>
          <Trackpoint>
            <Time>2021-07-27T13:41:44.000Z</Time>
            <Position>
              <LatitudeDegrees>41.15067726932466030120849609375</LatitudeDegrees>
              <LongitudeDegrees>-2.920640967786312103271484375</LongitudeDegrees>
            </Position>
            <AltitudeMeters>995</AltitudeMeters>
            <DistanceMeters>71765.601562911</DistanceMeters>
          </Trackpoint>
          <Trackpoint>
            <Time>2021-07-27T13:41:51.000Z</Time>
            <Position>
              <LatitudeDegrees>41.15086033008992671966552734375</LatitudeDegrees>
              <LongitudeDegrees>-2.92088781483471393585205078125</LongitudeDegrees>
            </Position>
            <AltitudeMeters>998.5999755859375</AltitudeMeters>
            <DistanceMeters>71794.638250179</DistanceMeters>
          </Trackpoint>
          <Trackpoint>
            <Time>2021-07-27T13:42:05.000Z</Time>
            <Position>
              <LatitudeDegrees>41.15100332535803318023681640625</LatitudeDegrees>
              <LongitudeDegrees>-2.92157848365604877471923828125</LongitudeDegrees>
            </Position>
            <AltitudeMeters>994</AltitudeMeters>
            <DistanceMeters>71854.670168924</DistanceMeters>
          </Trackpoint>
          <Trackpoint>
            <Time>2021-07-27T13:42:18.000Z</Time>
            <Position>
              <LatitudeDegrees>41.1511452309787273406982421875</LatitudeDegrees>
              <LongitudeDegrees>-2.92224459350109100341796875</LongitudeDegrees>
            </Position>
            <AltitudeMeters>992.79998779296875</AltitudeMeters>
            <DistanceMeters>71912.686760294</DistanceMeters>
          </Trackpoint>
          <Trackpoint>
            <Time>2021-07-27T13:42:22.000Z</Time>
            <Position>
              <LatitudeDegrees>41.151225529611110687255859375</LatitudeDegrees>
              <LongitudeDegrees>-2.9224509559571743011474609375</LongitudeDegrees>
            </Position>
            <AltitudeMeters>993.5999755859375</AltitudeMeters>
            <DistanceMeters>71932.154253154</DistanceMeters>
          </Trackpoint>
          <Trackpoint>
            <Time>2021-07-27T13:42:26.000Z</Time>
            <Position>
              <LatitudeDegrees>41.1513479053974151611328125</LatitudeDegrees>
              <LongitudeDegrees>-2.9226128943264484405517578125</LongitudeDegrees>
            </Position>
            <AltitudeMeters>993.4000244140625</AltitudeMeters>
            <DistanceMeters>71951.38184686</DistanceMeters>
          </Trackpoint>
          <Trackpoint>
            <Time>2021-07-27T13:42:30.000Z</Time>
            <Position>
              <LatitudeDegrees>41.15150556899607181549072265625</LatitudeDegrees>
              <LongitudeDegrees>-2.92269880883395671844482421875</LongitudeDegrees>
            </Position>
            <AltitudeMeters>993.79998779296875</AltitudeMeters>
            <DistanceMeters>71970.349617042</DistanceMeters>
          </Trackpoint>
          <Trackpoint>
            <Time>2021-07-27T13:42:32.000Z</Time>
            <Position>
              <LatitudeDegrees>41.1515901423990726470947265625</LatitudeDegrees>
              <LongitudeDegrees>-2.92271875776350498199462890625</LongitudeDegrees>
            </Position>
            <AltitudeMeters>994</AltitudeMeters>
            <DistanceMeters>71979.910079048</DistanceMeters>
          </Trackpoint>
          <Trackpoint>
            <Time>2021-07-27T13:42:37.000Z</Time>
            <Position>
              <LatitudeDegrees>41.15180052816867828369140625</LatitudeDegrees>
              <LongitudeDegrees>-2.9226591624319553375244140625</LongitudeDegrees>
            </Position>
            <AltitudeMeters>994.5999755859375</AltitudeMeters>
            <DistanceMeters>72003.853039871</DistanceMeters>
          </Trackpoint>
          <Trackpoint>
            <Time>2021-07-27T13:42:50.000Z</Time>
            <Position>
              <LatitudeDegrees>41.1523029394447803497314453125</LatitudeDegrees>
              <LongitudeDegrees>-2.92230972088873386383056640625</LongitudeDegrees>
            </Position>
            <AltitudeMeters>993.79998779296875</AltitudeMeters>
            <DistanceMeters>72066.976890844</DistanceMeters>
          </Trackpoint>
          <Trackpoint>
            <Time>2021-07-27T13:43:04.000Z</Time>
            <Position>
              <LatitudeDegrees>41.152792274951934814453125</LatitudeDegrees>
              <LongitudeDegrees>-2.9219228960573673248291015625</LongitudeDegrees>
            </Position>
            <AltitudeMeters>996.5999755859375</AltitudeMeters>
            <DistanceMeters>72130.358783275</DistanceMeters>
          </Trackpoint>
          <Trackpoint>
            <Time>2021-07-27T13:43:05.000Z</Time>
            <Position>
              <LatitudeDegrees>41.152827478945255279541015625</LatitudeDegrees>
              <LongitudeDegrees>-2.9218987561762332916259765625</LongitudeDegrees>
            </Position>
            <AltitudeMeters>997.79998779296875</AltitudeMeters>
            <DistanceMeters>72134.767039677</DistanceMeters>
          </Trackpoint>
          <Trackpoint>
            <Time>2021-07-27T13:43:15.000Z</Time>
            <Position>
              <LatitudeDegrees>41.1531887389719486236572265625</LatitudeDegrees>
              <LongitudeDegrees>-2.92170278728008270263671875</LongitudeDegrees>
            </Position>
            <AltitudeMeters>1004.79998779296875</AltitudeMeters>
            <DistanceMeters>72178.200589727</DistanceMeters>
          </Trackpoint>
          <Trackpoint>
            <Time>2021-07-27T13:43:29.000Z</Time>
            <Position>
              <LatitudeDegrees>41.15368570201098918914794921875</LatitudeDegrees>
              <LongitudeDegrees>-2.92160731740295886993408203125</LongitudeDegrees>
            </Position>
            <AltitudeMeters>1001.5999755859375</AltitudeMeters>
            <DistanceMeters>72234.0891443</DistanceMeters>
          </Trackpoint>
          <Trackpoint>
            <Time>2021-07-27T13:43:47.000Z</Time>
            <Position>
              <LatitudeDegrees>41.15417956374585628509521484375</LatitudeDegrees>
              <LongitudeDegrees>-2.92189590632915496826171875</LongitudeDegrees>
            </Position>
            <AltitudeMeters>1002.4000244140625</AltitudeMeters>
            <DistanceMeters>72294.142268696</DistanceMeters>
          </Trackpoint>
          <Trackpoint>
            <Time>2021-07-27T13:43:56.000Z</Time>
            <Position>
              <LatitudeDegrees>41.15438408218324184417724609375</LatitudeDegrees>
              <LongitudeDegrees>-2.92207184247672557830810546875</LongitudeDegrees>
            </Position>
            <AltitudeMeters>999</AltitudeMeters>
            <DistanceMeters>72321.263365776</DistanceMeters>
          </Trackpoint>
          <Trackpoint>
            <Time>2021-07-27T13:44:04.000Z</Time>
            <Position>
              <LatitudeDegrees>41.15456429310142993927001953125</LatitudeDegrees>
              <LongitudeDegrees>-2.922224141657352447509765625</LongitudeDegrees>
            </Position>
            <AltitudeMeters>1002.4000244140625</AltitudeMeters>
            <DistanceMeters>72345.037902678</DistanceMeters>
          </Trackpoint>
          <Trackpoint>
            <Time>2021-07-27T13:44:11.000Z</Time>
            <Position>
              <LatitudeDegrees>41.15472145378589630126953125</LatitudeDegrees>
              <LongitudeDegrees>-2.92235322296619415283203125</LongitudeDegrees>
            </Position>
            <AltitudeMeters>1004.4000244140625</AltitudeMeters>
            <DistanceMeters>72365.604766097</DistanceMeters>
          </Trackpoint>
          <Trackpoint>
            <Time>2021-07-27T13:44:18.000Z</Time>
            <Position>
              <LatitudeDegrees>41.154876016080379486083984375</LatitudeDegrees>
              <LongitudeDegrees>-2.9225066117942333221435546875</LongitudeDegrees>
            </Position>
            <AltitudeMeters>1004.5999755859375</AltitudeMeters>
            <DistanceMeters>72387.079962583</DistanceMeters>
          </Trackpoint>
          <Trackpoint>
            <Time>2021-07-27T13:44:34.000Z</Time>
            <Position>
              <LatitudeDegrees>41.1552225239574909210205078125</LatitudeDegrees>
              <LongitudeDegrees>-2.92290299199521541595458984375</LongitudeDegrees>
            </Position>
            <AltitudeMeters>1004.79998779296875</AltitudeMeters>
            <DistanceMeters>72437.980230684</DistanceMeters>
          </Trackpoint>
          <Trackpoint>
            <Time>2021-07-27T13:44:40.000Z</Time>
            <Position>
              <LatitudeDegrees>41.15531162358820438385009765625</LatitudeDegrees>
              <LongitudeDegrees>-2.92310801334679126739501953125</LongitudeDegrees>
            </Position>
            <AltitudeMeters>1005</AltitudeMeters>
            <DistanceMeters>72457.817839699</DistanceMeters>
          </Trackpoint>
          <Trackpoint>
            <Time>2021-07-27T13:44:49.000Z</Time>
            <Position>
              <LatitudeDegrees>41.155403070151805877685546875</LatitudeDegrees>
              <LongitudeDegrees>-2.92343725450336933135986328125</LongitudeDegrees>
            </Position>
            <AltitudeMeters>1003.4000244140625</AltitudeMeters>
            <DistanceMeters>72487.226420105</DistanceMeters>
          </Trackpoint>
          <Trackpoint>
            <Time>2021-07-27T13:45:07.000Z</Time>
            <Position>
              <LatitudeDegrees>41.15560784004628658294677734375</LatitudeDegrees>
              <LongitudeDegrees>-2.92413479648530483245849609375</LongitudeDegrees>
            </Position>
            <AltitudeMeters>1005.5999755859375</AltitudeMeters>
            <DistanceMeters>72549.967875733</DistanceMeters>
          </Trackpoint>
          <Trackpoint>
            <Time>2021-07-27T13:45:25.000Z</Time>
            <Position>
              <LatitudeDegrees>41.15586684085428714752197265625</LatitudeDegrees>
              <LongitudeDegrees>-2.9247978888452053070068359375</LongitudeDegrees>
            </Position>
            <AltitudeMeters>1011.5999755859375</AltitudeMeters>
            <DistanceMeters>72612.568630641</DistanceMeters>
          </Trackpoint>
          <Trackpoint>
            <Time>2021-07-27T13:45:31.000Z</Time>
            <Position>
              <LatitudeDegrees>41.15596977062523365020751953125</LatitudeDegrees>
              <LongitudeDegrees>-2.92499830015003681182861328125</LongitudeDegrees>
            </Position>
            <AltitudeMeters>1014</AltitudeMeters>
            <DistanceMeters>72632.898574045</DistanceMeters>
          </Trackpoint>
          <Trackpoint>
            <Time>2021-07-27T13:45:49.000Z</Time>
            <Position>
              <LatitudeDegrees>41.15630404092371463775634765625</LatitudeDegrees>
              <LongitudeDegrees>-2.9255968518555164337158203125</LongitudeDegrees>
            </Position>
            <AltitudeMeters>1013.4000244140625</AltitudeMeters>
            <DistanceMeters>72695.349997704</DistanceMeters>
          </Trackpoint>
          <Trackpoint>
            <Time>2021-07-27T13:46:05.000Z</Time>
            <Position>
              <LatitudeDegrees>41.15666546858847141265869140625</LatitudeDegrees>
              <LongitudeDegrees>-2.9261624626815319061279296875</LongitudeDegrees>
            </Position>
            <AltitudeMeters>1013.5999755859375</AltitudeMeters>
            <DistanceMeters>72757.518388694</DistanceMeters>
          </Trackpoint>
          <Trackpoint>
            <Time>2021-07-27T13:46:15.000Z</Time>
            <Position>
              <LatitudeDegrees>41.1569605953991413116455078125</LatitudeDegrees>
              <LongitudeDegrees>-2.92646295391023159027099609375</LongitudeDegrees>
            </Position>
            <AltitudeMeters>1012</AltitudeMeters>
            <DistanceMeters>72798.908059293</DistanceMeters>
          </Trackpoint>
          <Trackpoint>
            <Time>2021-07-27T13:46:17.000Z</Time>
            <Position>
              <LatitudeDegrees>41.15702186711132526397705078125</LatitudeDegrees>
              <LongitudeDegrees>-2.92651458643376827239990234375</LongitudeDegrees>
            </Position>
            <AltitudeMeters>1011.20001220703125</AltitudeMeters>
            <DistanceMeters>72806.983652898</DistanceMeters>
          </Trackpoint>
          <Trackpoint>
            <Time>2021-07-27T13:46:32.000Z</Time>
            <Position>
              <LatitudeDegrees>41.15752947516739368438720703125</LatitudeDegrees>
              <LongitudeDegrees>-2.92675598524510860443115234375</LongitudeDegrees>
            </Position>
            <AltitudeMeters>1010.79998779296875</AltitudeMeters>
            <DistanceMeters>72866.993831836</DistanceMeters>
          </Trackpoint>
          <Trackpoint>
            <Time>2021-07-27T13:46:33.000Z</Time>
            <Position>
              <LatitudeDegrees>41.15756635554134845733642578125</LatitudeDegrees>
              <LongitudeDegrees>-2.9267673008143901824951171875</LongitudeDegrees>
            </Position>
            <AltitudeMeters>1011</AltitudeMeters>
            <DistanceMeters>72871.207278203</DistanceMeters>
          </Trackpoint>
          <Trackpoint>
            <Time>2021-07-27T13:46:47.000Z</Time>
            <Position>
              <LatitudeDegrees>41.158108077943325042724609375</LatitudeDegrees>
              <LongitudeDegrees>-2.9267924465239048004150390625</LongitudeDegrees>
            </Position>
            <AltitudeMeters>1008.20001220703125</AltitudeMeters>
            <DistanceMeters>72931.53884037</DistanceMeters>
          </Trackpoint>
          <Trackpoint>
            <Time>2021-07-27T13:47:01.000Z</Time>
            <Position>
              <LatitudeDegrees>41.15867041982710361480712890625</LatitudeDegrees>
              <LongitudeDegrees>-2.926678955554962158203125</LongitudeDegrees>
            </Position>
            <AltitudeMeters>1004.20001220703125</AltitudeMeters>
            <DistanceMeters>72994.847032486</DistanceMeters>
          </Trackpoint>
          <Trackpoint>
            <Time>2021-07-27T13:47:15.000Z</Time>
            <Position>
              <LatitudeDegrees>41.1592309176921844482421875</LatitudeDegrees>
              <LongitudeDegrees>-2.92654710821807384490966796875</LongitudeDegrees>
            </Position>
            <AltitudeMeters>1008</AltitudeMeters>
            <DistanceMeters>73058.202419784</DistanceMeters>
          </Trackpoint>
          <Trackpoint>
            <Time>2021-07-27T13:47:25.000Z</Time>
            <Position>
              <LatitudeDegrees>41.15961723960936069488525390625</LatitudeDegrees>
              <LongitudeDegrees>-2.9264672286808490753173828125</LongitudeDegrees>
            </Position>
            <AltitudeMeters>1006.20001220703125</AltitudeMeters>
            <DistanceMeters>73101.71874133</DistanceMeters>
          </Trackpoint>
          <Trackpoint>
            <Time>2021-07-27T13:47:28.000Z</Time>
            <Position>
              <LatitudeDegrees>41.15973173640668392181396484375</LatitudeDegrees>
              <LongitudeDegrees>-2.92643948458135128021240234375</LongitudeDegrees>
            </Position>
            <AltitudeMeters>1006.4000244140625</AltitudeMeters>
            <DistanceMeters>73114.673081939</DistanceMeters>
          </Trackpoint>
          <Trackpoint>
            <Time>2021-07-27T13:47:43.000Z</Time>
            <Position>
              <LatitudeDegrees>41.16027622483670711517333984375</LatitudeDegrees>
              <LongitudeDegrees>-2.9263222217559814453125</LongitudeDegrees>
            </Position>
            <AltitudeMeters>1010</AltitudeMeters>
            <DistanceMeters>73176.067105658</DistanceMeters>
          </Trackpoint>
          <Trackpoint>
            <Time>2021-07-27T13:47:45.000Z</Time>
            <Position>
              <LatitudeDegrees>41.16034738719463348388671875</LatitudeDegrees>
              <LongitudeDegrees>-2.92630637995898723602294921875</LongitudeDegrees>
            </Position>
            <AltitudeMeters>1011.20001220703125</AltitudeMeters>
            <DistanceMeters>73184.097846966</DistanceMeters>
          </Trackpoint>
          <Trackpoint>
            <Time>2021-07-27T13:48:00.000Z</Time>
            <Position>
              <LatitudeDegrees>41.16086446680128574371337890625</LatitudeDegrees>
              <LongitudeDegrees>-2.92615952901542186737060546875</LongitudeDegrees>
            </Position>
            <AltitudeMeters>1013.20001220703125</AltitudeMeters>
            <DistanceMeters>73242.950692195</DistanceMeters>
          </Trackpoint>
          <Trackpoint>
            <Time>2021-07-27T13:48:09.000Z</Time>
            <Position>
              <LatitudeDegrees>41.16115565411746501922607421875</LatitudeDegrees>
              <LongitudeDegrees>-2.92601569555699825286865234375</LongitudeDegrees>
            </Position>
            <AltitudeMeters>1012.5999755859375</AltitudeMeters>
            <DistanceMeters>73277.528927573</DistanceMeters>
          </Trackpoint>
          <Trackpoint>
            <Time>2021-07-27T13:48:20.000Z</Time>
            <Position>
              <LatitudeDegrees>41.1614625155925750732421875</LatitudeDegrees>
              <LongitudeDegrees>-2.92579558677971363067626953125</LongitudeDegrees>
            </Position>
            <AltitudeMeters>1011.20001220703125</AltitudeMeters>
            <DistanceMeters>73316.345217645</DistanceMeters>
          </Trackpoint>
          <Trackpoint>
            <Time>2021-07-27T13:48:30.000Z</Time>
            <Position>
              <LatitudeDegrees>41.16168555803596973419189453125</LatitudeDegrees>
              <LongitudeDegrees>-2.92555569671094417572021484375</LongitudeDegrees>
            </Position>
            <AltitudeMeters>1011.5999755859375</AltitudeMeters>
            <DistanceMeters>73348.288190077</DistanceMeters>
          </Trackpoint>
          <Trackpoint>
            <Time>2021-07-27T13:48:31.000Z</Time>
            <Position>
              <LatitudeDegrees>41.161702908575534820556640625</LatitudeDegrees>
              <LongitudeDegrees>-2.9255314730107784271240234375</LongitudeDegrees>
            </Position>
            <AltitudeMeters>1011.79998779296875</AltitudeMeters>
            <DistanceMeters>73351.089464149</DistanceMeters>
          </Trackpoint>
          <Trackpoint>
            <Time>2021-07-27T13:48:45.000Z</Time>
            <Position>
              <LatitudeDegrees>41.16193098016083240509033203125</LatitudeDegrees>
              <LongitudeDegrees>-2.925231568515300750732421875</LongitudeDegrees>
            </Position>
            <AltitudeMeters>1012.5999755859375</AltitudeMeters>
            <DistanceMeters>73386.809398097</DistanceMeters>
          </Trackpoint>
          <Trackpoint>
            <Time>2021-07-27T13:48:55.000Z</Time>
            <Position>
              <LatitudeDegrees>41.1620712094008922576904296875</LatitudeDegrees>
              <LongitudeDegrees>-2.92503065429627895355224609375</LongitudeDegrees>
            </Position>
            <AltitudeMeters>1012.79998779296875</AltitudeMeters>
            <DistanceMeters>73409.766562155</DistanceMeters>
          </Trackpoint>
          <Trackpoint>
            <Time>2021-07-27T13:49:09.000Z</Time>
            <Position>
              <LatitudeDegrees>41.16225712001323699951171875</LatitudeDegrees>
              <LongitudeDegrees>-2.92476117610931396484375</LongitudeDegrees>
            </Position>
            <AltitudeMeters>1013.79998779296875</AltitudeMeters>
            <DistanceMeters>73440.394071701</DistanceMeters>
          </Trackpoint>
          <Trackpoint>
            <Time>2021-07-27T13:49:19.000Z</Time>
            <Position>
              <LatitudeDegrees>41.162402294576168060302734375</LatitudeDegrees>
              <LongitudeDegrees>-2.9245531372725963592529296875</LongitudeDegrees>
            </Position>
            <AltitudeMeters>1013.20001220703125</AltitudeMeters>
            <DistanceMeters>73464.163100556</DistanceMeters>
          </Trackpoint>
          <Trackpoint>
            <Time>2021-07-27T13:49:34.000Z</Time>
            <Position>
              <LatitudeDegrees>41.16259164176881313323974609375</LatitudeDegrees>
              <LongitudeDegrees>-2.9242741875350475311279296875</LongitudeDegrees>
            </Position>
            <AltitudeMeters>1015.20001220703125</AltitudeMeters>
            <DistanceMeters>73495.635167933</DistanceMeters>
          </Trackpoint>
          <Trackpoint>
            <Time>2021-07-27T13:49:41.000Z</Time>
            <Position>
              <LatitudeDegrees>41.16267596371471881866455078125</LatitudeDegrees>
              <LongitudeDegrees>-2.92415457777678966522216796875</LongitudeDegrees>
            </Position>
            <AltitudeMeters>1016</AltitudeMeters>
            <DistanceMeters>73509.365788312</DistanceMeters>
          </Trackpoint>
          <Trackpoint>
            <Time>2021-07-27T13:49:48.000Z</Time>
            <Position>
              <LatitudeDegrees>41.16276003420352935791015625</LatitudeDegrees>
              <LongitudeDegrees>-2.924039661884307861328125</LongitudeDegrees>
            </Position>
            <AltitudeMeters>1016.20001220703125</AltitudeMeters>
            <DistanceMeters>73522.792494764</DistanceMeters>
          </Trackpoint>
          <Trackpoint>
            <Time>2021-07-27T13:49:52.000Z</Time>
            <Position>
              <LatitudeDegrees>41.16280839778482913970947265625</LatitudeDegrees>
              <LongitudeDegrees>-2.923968248069286346435546875</LongitudeDegrees>
            </Position>
            <AltitudeMeters>1016.5999755859375</AltitudeMeters>
            <DistanceMeters>73530.841206984</DistanceMeters>
          </Trackpoint>
          <Trackpoint>
            <Time>2021-07-27T13:50:04.000Z</Time>
            <Position>
              <LatitudeDegrees>41.1629538238048553466796875</LatitudeDegrees>
              <LongitudeDegrees>-2.92375677265226840972900390625</LongitudeDegrees>
            </Position>
            <AltitudeMeters>1018.5999755859375</AltitudeMeters>
            <DistanceMeters>73554.841426071</DistanceMeters>
          </Trackpoint>
          <Trackpoint>
            <Time>2021-07-27T13:50:14.000Z</Time>
            <Position>
              <LatitudeDegrees>41.16307259537279605865478515625</LatitudeDegrees>
              <LongitudeDegrees>-2.92358435690402984619140625</LongitudeDegrees>
            </Position>
            <AltitudeMeters>1020.4000244140625</AltitudeMeters>
            <DistanceMeters>73574.424077994</DistanceMeters>
          </Trackpoint>
          <Trackpoint>
            <Time>2021-07-27T13:50:26.000Z</Time>
            <Position>
              <LatitudeDegrees>41.1632178537547588348388671875</LatitudeDegrees>
              <LongitudeDegrees>-2.92336500249803066253662109375</LongitudeDegrees>
            </Position>
            <AltitudeMeters>1021.79998779296875</AltitudeMeters>
            <DistanceMeters>73598.903188328</DistanceMeters>
          </Trackpoint>
          <Trackpoint>
            <Time>2021-07-27T13:50:30.000Z</Time>
            <Position>
              <LatitudeDegrees>41.16326873190701007843017578125</LatitudeDegrees>
              <LongitudeDegrees>-2.92328654788434505462646484375</LongitudeDegrees>
            </Position>
            <AltitudeMeters>1022</AltitudeMeters>
            <DistanceMeters>73607.579288675</DistanceMeters>
          </Trackpoint>
          <Trackpoint>
            <Time>2021-07-27T13:50:51.000Z</Time>
            <Position>
              <LatitudeDegrees>41.16355002857744693756103515625</LatitudeDegrees>
              <LongitudeDegrees>-2.92282118462026119232177734375</LongitudeDegrees>
            </Position>
            <AltitudeMeters>1025</AltitudeMeters>
            <DistanceMeters>73657.586820609</DistanceMeters>
          </Trackpoint>
          <Trackpoint>
            <Time>2021-07-27T13:50:54.000Z</Time>
            <Position>
              <LatitudeDegrees>41.1635913513600826263427734375</LatitudeDegrees>
              <LongitudeDegrees>-2.922743819653987884521484375</LongitudeDegrees>
            </Position>
            <AltitudeMeters>1026</AltitudeMeters>
            <DistanceMeters>73665.535622083</DistanceMeters>
          </Trackpoint>
          <Trackpoint>
            <Time>2021-07-27T13:51:04.000Z</Time>
            <Position>
              <LatitudeDegrees>41.16371699608862400054931640625</LatitudeDegrees>
              <LongitudeDegrees>-2.92246428318321704864501953125</LongitudeDegrees>
            </Position>
            <AltitudeMeters>1028.4000244140625</AltitudeMeters>
            <DistanceMeters>73692.81573792</DistanceMeters>
          </Trackpoint>
          <Trackpoint>
            <Time>2021-07-27T13:51:25.000Z</Time>
            <Position>
              <LatitudeDegrees>41.163920424878597259521484375</LatitudeDegrees>
              <LongitudeDegrees>-2.92177579365670680999755859375</LongitudeDegrees>
            </Position>
            <AltitudeMeters>1025.800048828125</AltitudeMeters>
            <DistanceMeters>73754.789550001</DistanceMeters>
          </Trackpoint>
          <Trackpoint>
            <Time>2021-07-27T13:51:42.000Z</Time>
            <Position>
              <LatitudeDegrees>41.164015643298625946044921875</LatitudeDegrees>
              <LongitudeDegrees>-2.92105696164071559906005859375</LongitudeDegrees>
            </Position>
            <AltitudeMeters>1022.4000244140625</AltitudeMeters>
            <DistanceMeters>73815.946679206</DistanceMeters>
          </Trackpoint>
          <Trackpoint>
            <Time>2021-07-27T13:51:45.000Z</Time>
            <Position>
              <LatitudeDegrees>41.16402159444987773895263671875</LatitudeDegrees>
              <LongitudeDegrees>-2.9209093563258647918701171875</LongitudeDegrees>
            </Position>
            <AltitudeMeters>1022.20001220703125</AltitudeMeters>
            <DistanceMeters>73828.332273202</DistanceMeters>
          </Trackpoint>
          <Trackpoint>
            <Time>2021-07-27T13:51:59.000Z</Time>
            <Position>
              <LatitudeDegrees>41.16396560333669185638427734375</LatitudeDegrees>
              <LongitudeDegrees>-2.920185662806034088134765625</LongitudeDegrees>
            </Position>
            <AltitudeMeters>1022.79998779296875</AltitudeMeters>
            <DistanceMeters>73889.290929087</DistanceMeters>
          </Trackpoint>
          <Trackpoint>
            <Time>2021-07-27T13:52:05.000Z</Time>
            <Position>
              <LatitudeDegrees>41.16391145624220371246337890625</LatitudeDegrees>
              <LongitudeDegrees>-2.91988416574895381927490234375</LongitudeDegrees>
            </Position>
            <AltitudeMeters>1023</AltitudeMeters>
            <DistanceMeters>73915.262618486</DistanceMeters>
          </Trackpoint>
          <Trackpoint>
            <Time>2021-07-27T13:52:20.000Z</Time>
            <Position>
              <LatitudeDegrees>41.163708530366420745849609375</LatitudeDegrees>
              <LongitudeDegrees>-2.9191984422504901885986328125</LongitudeDegrees>
            </Position>
            <AltitudeMeters>1023</AltitudeMeters>
            <DistanceMeters>73977.00029812</DistanceMeters>
          </Trackpoint>
          <Trackpoint>
            <Time>2021-07-27T13:52:25.000Z</Time>
            <Position>
              <LatitudeDegrees>41.16362395696341991424560546875</LatitudeDegrees>
              <LongitudeDegrees>-2.91899350471794605255126953125</LongitudeDegrees>
            </Position>
            <AltitudeMeters>1023.4000244140625</AltitudeMeters>
            <DistanceMeters>73996.583180605</DistanceMeters>
          </Trackpoint>
          <Trackpoint>
            <Time>2021-07-27T13:52:42.000Z</Time>
            <Position>
              <LatitudeDegrees>41.16328365169465541839599609375</LatitudeDegrees>
              <LongitudeDegrees>-2.9184055142104625701904296875</LongitudeDegrees>
            </Position>
            <AltitudeMeters>1023.4000244140625</AltitudeMeters>
            <DistanceMeters>74058.728762864</DistanceMeters>
          </Trackpoint>
          <Trackpoint>
            <Time>2021-07-27T13:52:46.000Z</Time>
            <Position>
              <LatitudeDegrees>41.16319966502487659454345703125</LatitudeDegrees>
              <LongitudeDegrees>-2.91828406043350696563720703125</LongitudeDegrees>
            </Position>
            <AltitudeMeters>1023.4000244140625</AltitudeMeters>
            <DistanceMeters>74072.547228643</DistanceMeters>
          </Trackpoint>
          <Trackpoint>
            <Time>2021-07-27T13:53:04.000Z</Time>
            <Position>
              <LatitudeDegrees>41.16280269809067249298095703125</LatitudeDegrees>
              <LongitudeDegrees>-2.9177956469357013702392578125</LongitudeDegrees>
            </Position>
            <AltitudeMeters>1024.5999755859375</AltitudeMeters>
            <DistanceMeters>74132.772128516</DistanceMeters>
          </Trackpoint>
          <Trackpoint>
            <Time>2021-07-27T13:53:06.000Z</Time>
            <Position>
              <LatitudeDegrees>41.1627625487744808197021484375</LatitudeDegrees>
              <LongitudeDegrees>-2.917746864259243011474609375</LongitudeDegrees>
            </Position>
            <AltitudeMeters>1024.800048828125</AltitudeMeters>
            <DistanceMeters>74138.828544165</DistanceMeters>
          </Trackpoint>
          <Trackpoint>
            <Time>2021-07-27T13:53:12.000Z</Time>
            <Position>
              <LatitudeDegrees>41.16264394484460353851318359375</LatitudeDegrees>
              <LongitudeDegrees>-2.91760210879147052764892578125</LongitudeDegrees>
            </Position>
            <AltitudeMeters>1025.4000244140625</AltitudeMeters>
            <DistanceMeters>74156.755630393</DistanceMeters>
          </Trackpoint>
          <Trackpoint>
            <Time>2021-07-27T13:53:31.000Z</Time>
            <Position>
              <LatitudeDegrees>41.16226089186966419219970703125</LatitudeDegrees>
              <LongitudeDegrees>-2.91713473387062549591064453125</LongitudeDegrees>
            </Position>
            <AltitudeMeters>1027.5999755859375</AltitudeMeters>
            <DistanceMeters>74214.647258731</DistanceMeters>
          </Trackpoint>
          <Trackpoint>
            <Time>2021-07-27T13:53:44.000Z</Time>
            <Position>
              <LatitudeDegrees>41.16200088523328304290771484375</LatitudeDegrees>
              <LongitudeDegrees>-2.91680281050503253936767578125</LongitudeDegrees>
            </Position>
            <AltitudeMeters>1029.800048828125</AltitudeMeters>
            <DistanceMeters>74254.785220044</DistanceMeters>
          </Trackpoint>
          <Trackpoint>
            <Time>2021-07-27T13:53:54.000Z</Time>
            <Position>
              <LatitudeDegrees>41.16182235069572925567626953125</LatitudeDegrees>
              <LongitudeDegrees>-2.916525788605213165283203125</LongitudeDegrees>
            </Position>
            <AltitudeMeters>1031.199951171875</AltitudeMeters>
            <DistanceMeters>74285.341739385</DistanceMeters>
          </Trackpoint>
          <Trackpoint>
            <Time>2021-07-27T13:54:05.000Z</Time>
            <Position>
              <LatitudeDegrees>41.1616809479892253875732421875</LatitudeDegrees>
              <LongitudeDegrees>-2.91617148555815219879150390625</LongitudeDegrees>
            </Position>
            <AltitudeMeters>1031.800048828125</AltitudeMeters>
            <DistanceMeters>74318.943862806</DistanceMeters>
          </Trackpoint>
          <Trackpoint>
            <Time>2021-07-27T13:54:22.000Z</Time>
            <Position>
              <LatitudeDegrees>41.16157114505767822265625</LatitudeDegrees>
              <LongitudeDegrees>-2.9155972413718700408935546875</LongitudeDegrees>
            </Position>
            <AltitudeMeters>1037.5999755859375</AltitudeMeters>
            <DistanceMeters>74368.590023838</DistanceMeters>
          </Trackpoint>
          <Trackpoint>
            <Time>2021-07-27T13:54:32.000Z</Time>
            <Position>
              <LatitudeDegrees>41.1615971289575099945068359375</LatitudeDegrees>
              <LongitudeDegrees>-2.9152522422373294830322265625</LongitudeDegrees>
            </Position>
            <AltitudeMeters>1039.199951171875</AltitudeMeters>
            <DistanceMeters>74397.643344228</DistanceMeters>
          </Trackpoint>
          <Trackpoint>
            <Time>2021-07-27T13:54:41.000Z</Time>
            <Position>
              <LatitudeDegrees>41.16165437735617160797119140625</LatitudeDegrees>
              <LongitudeDegrees>-2.91501461528241634368896484375</LongitudeDegrees>
            </Position>
            <AltitudeMeters>1039.4000244140625</AltitudeMeters>
            <DistanceMeters>74418.550085251</DistanceMeters>
          </Trackpoint>
          <Trackpoint>
            <Time>2021-07-27T13:54:47.000Z</Time>
            <Position>
              <LatitudeDegrees>41.16180592216551303863525390625</LatitudeDegrees>
              <LongitudeDegrees>-2.91491436772048473358154296875</LongitudeDegrees>
            </Position>
            <AltitudeMeters>1038.199951171875</AltitudeMeters>
            <DistanceMeters>74437.393190244</DistanceMeters>
          </Trackpoint>
          <Trackpoint>
            <Time>2021-07-27T13:54:49.000Z</Time>
            <Position>
              <LatitudeDegrees>41.161910109221935272216796875</LatitudeDegrees>
              <LongitudeDegrees>-2.91486508212983608245849609375</LongitudeDegrees>
            </Position>
            <AltitudeMeters>1037.5999755859375</AltitudeMeters>
            <DistanceMeters>74449.702726495</DistanceMeters>
          </Trackpoint>
          <Trackpoint>
            <Time>2021-07-27T13:54:54.000Z</Time>
            <Position>
              <LatitudeDegrees>41.16205117665231227874755859375</LatitudeDegrees>
              <LongitudeDegrees>-2.91480481624603271484375</LongitudeDegrees>
            </Position>
            <AltitudeMeters>1037.5999755859375</AltitudeMeters>
            <DistanceMeters>74466.195816648</DistanceMeters>
          </Trackpoint>
          <Trackpoint>
            <Time>2021-07-27T13:54:57.000Z</Time>
            <Position>
              <LatitudeDegrees>41.1620537750422954559326171875</LatitudeDegrees>
              <LongitudeDegrees>-2.91482132859528064727783203125</LongitudeDegrees>
            </Position>
            <AltitudeMeters>1037.4000244140625</AltitudeMeters>
            <DistanceMeters>74467.611682804</DistanceMeters>
          </Trackpoint>
          <Trackpoint>
            <Time>2021-07-27T14:09:45.000Z</Time>
            <Position>
              <LatitudeDegrees>41.16199065931141376495361328125</LatitudeDegrees>
              <LongitudeDegrees>-2.91484840214252471923828125</LongitudeDegrees>
            </Position>
            <AltitudeMeters>1037.4000244140625</AltitudeMeters>
            <DistanceMeters>74474.994469637</DistanceMeters>
          </Trackpoint>
          <Trackpoint>
            <Time>2021-07-27T14:09:48.000Z</Time>
            <Position>
              <LatitudeDegrees>41.1619479954242706298828125</LatitudeDegrees>
              <LongitudeDegrees>-2.91487078182399272918701171875</LongitudeDegrees>
            </Position>
            <AltitudeMeters>1037.5999755859375</AltitudeMeters>
            <DistanceMeters>74480.09944766</DistanceMeters>
          </Trackpoint>
          <Trackpoint>
            <Time>2021-07-27T14:09:54.000Z</Time>
            <Position>
              <LatitudeDegrees>41.16186006926000118255615234375</LatitudeDegrees>
              <LongitudeDegrees>-2.91491956450045108795166015625</LongitudeDegrees>
            </Position>
            <AltitudeMeters>1037.5999755859375</AltitudeMeters>
            <DistanceMeters>74490.705893452</DistanceMeters>
          </Trackpoint>
          <Trackpoint>
            <Time>2021-07-27T14:10:05.000Z</Time>
            <Position>
              <LatitudeDegrees>41.1617174930870532989501953125</LatitudeDegrees>
              <LongitudeDegrees>-2.91501495055854320526123046875</LongitudeDegrees>
            </Position>
            <AltitudeMeters>1038.800048828125</AltitudeMeters>
            <DistanceMeters>74508.474618583</DistanceMeters>
          </Trackpoint>
          <Trackpoint>
            <Time>2021-07-27T14:10:06.000Z</Time>
            <Position>
              <LatitudeDegrees>41.1617074348032474517822265625</LatitudeDegrees>
              <LongitudeDegrees>-2.91501964442431926727294921875</LongitudeDegrees>
            </Position>
            <AltitudeMeters>1038.800048828125</AltitudeMeters>
            <DistanceMeters>74509.665299901</DistanceMeters>
          </Trackpoint>
          <Trackpoint>
            <Time>2021-07-27T14:10:09.000Z</Time>
            <Position>
              <LatitudeDegrees>41.161673069000244140625</LatitudeDegrees>
              <LongitudeDegrees>-2.91503422893583774566650390625</LongitudeDegrees>
            </Position>
            <AltitudeMeters>1039.199951171875</AltitudeMeters>
            <DistanceMeters>74513.681232735</DistanceMeters>
          </Trackpoint>
          <Trackpoint>
            <Time>2021-07-27T14:10:17.000Z</Time>
            <Position>
              <LatitudeDegrees>41.16160559467971324920654296875</LatitudeDegrees>
              <LongitudeDegrees>-2.9149176366627216339111328125</LongitudeDegrees>
            </Position>
            <AltitudeMeters>1040.4000244140625</AltitudeMeters>
            <DistanceMeters>74526.003966421</DistanceMeters>
          </Trackpoint>
          <Trackpoint>
            <Time>2021-07-27T14:10:27.000Z</Time>
            <Position>
              <LatitudeDegrees>41.1616288125514984130859375</LatitudeDegrees>
              <LongitudeDegrees>-2.91468688286840915679931640625</LongitudeDegrees>
            </Position>
            <AltitudeMeters>1041.199951171875</AltitudeMeters>
            <DistanceMeters>74545.512004294</DistanceMeters>
          </Trackpoint>
          <Trackpoint>
            <Time>2021-07-27T14:10:51.000Z</Time>
            <Position>
              <LatitudeDegrees>41.16169159300625324249267578125</LatitudeDegrees>
              <LongitudeDegrees>-2.91413359344005584716796875</LongitudeDegrees>
            </Position>
            <AltitudeMeters>1044.800048828125</AltitudeMeters>
            <DistanceMeters>74592.398227535</DistanceMeters>
          </Trackpoint>
          <Trackpoint>
            <Time>2021-07-27T14:11:03.000Z</Time>
            <Position>
              <LatitudeDegrees>41.16169930435717105865478515625</LatitudeDegrees>
              <LongitudeDegrees>-2.91386746801435947418212890625</LongitudeDegrees>
            </Position>
            <AltitudeMeters>1047.5999755859375</AltitudeMeters>
            <DistanceMeters>74614.714538744</DistanceMeters>
          </Trackpoint>
          <Trackpoint>
            <Time>2021-07-27T14:11:18.000Z</Time>
            <Position>
              <LatitudeDegrees>41.1616745777428150177001953125</LatitudeDegrees>
              <LongitudeDegrees>-2.9135497100651264190673828125</LongitudeDegrees>
            </Position>
            <AltitudeMeters>1051.5999755859375</AltitudeMeters>
            <DistanceMeters>74641.48273939</DistanceMeters>
          </Trackpoint>
          <Trackpoint>
            <Time>2021-07-27T14:11:31.000Z</Time>
            <Position>
              <LatitudeDegrees>41.161616407334804534912109375</LatitudeDegrees>
              <LongitudeDegrees>-2.91329783387482166290283203125</LongitudeDegrees>
            </Position>
            <AltitudeMeters>1053</AltitudeMeters>
            <DistanceMeters>74663.559226561</DistanceMeters>
          </Trackpoint>
          <Trackpoint>
            <Time>2021-07-27T14:11:38.000Z</Time>
            <Position>
              <LatitudeDegrees>41.16157759912312030792236328125</LatitudeDegrees>
              <LongitudeDegrees>-2.91316942311823368072509765625</LongitudeDegrees>
            </Position>
            <AltitudeMeters>1054</AltitudeMeters>
            <DistanceMeters>74675.154043425</DistanceMeters>
          </Trackpoint>
          <Trackpoint>
            <Time>2021-07-27T14:11:51.000Z</Time>
            <Position>
              <LatitudeDegrees>41.1615052632987499237060546875</LatitudeDegrees>
              <LongitudeDegrees>-2.9129344783723354339599609375</LongitudeDegrees>
            </Position>
            <AltitudeMeters>1053.800048828125</AltitudeMeters>
            <DistanceMeters>74696.423900731</DistanceMeters>
          </Trackpoint>
          <Trackpoint>
            <Time>2021-07-27T14:12:01.000Z</Time>
            <Position>
              <LatitudeDegrees>41.1614415608346462249755859375</LatitudeDegrees>
              <LongitudeDegrees>-2.912768684327602386474609375</LongitudeDegrees>
            </Position>
            <AltitudeMeters>1053.5999755859375</AltitudeMeters>
            <DistanceMeters>74712.021313641</DistanceMeters>
          </Trackpoint>
          <Trackpoint>
            <Time>2021-07-27T14:12:10.000Z</Time>
            <Position>
              <LatitudeDegrees>41.16138615645468235015869140625</LatitudeDegrees>
              <LongitudeDegrees>-2.91260884143412113189697265625</LongitudeDegrees>
            </Position>
            <AltitudeMeters>1053.4000244140625</AltitudeMeters>
            <DistanceMeters>74726.766691921</DistanceMeters>
          </Trackpoint>
          <Trackpoint>
            <Time>2021-07-27T14:12:22.000Z</Time>
            <Position>
              <LatitudeDegrees>41.1613466776907444000244140625</LatitudeDegrees>
              <LongitudeDegrees>-2.9123728908598423004150390625</LongitudeDegrees>
            </Position>
            <AltitudeMeters>1053.199951171875</AltitudeMeters>
            <DistanceMeters>74747.020538783</DistanceMeters>
          </Trackpoint>
          <Trackpoint>
            <Time>2021-07-27T14:12:28.000Z</Time>
            <Position>
              <LatitudeDegrees>41.16134273819625377655029296875</LatitudeDegrees>
              <LongitudeDegrees>-2.91223852895200252532958984375</LongitudeDegrees>
            </Position>
            <AltitudeMeters>1053.5999755859375</AltitudeMeters>
            <DistanceMeters>74758.287918457</DistanceMeters>
          </Trackpoint>
          <Trackpoint>
            <Time>2021-07-27T14:12:48.000Z</Time>
            <Position>
              <LatitudeDegrees>41.16142295300960540771484375</LatitudeDegrees>
              <LongitudeDegrees>-2.91178674437105655670166015625</LongitudeDegrees>
            </Position>
            <AltitudeMeters>1055.4000244140625</AltitudeMeters>
            <DistanceMeters>74797.183688758</DistanceMeters>
          </Trackpoint>
          <Trackpoint>
            <Time>2021-07-27T14:13:14.000Z</Time>
            <Position>
              <LatitudeDegrees>41.16174775175750255584716796875</LatitudeDegrees>
              <LongitudeDegrees>-2.911186181008815765380859375</LongitudeDegrees>
            </Position>
            <AltitudeMeters>1052</AltitudeMeters>
            <DistanceMeters>74859.146353179</DistanceMeters>
          </Trackpoint>
          <Trackpoint>
            <Time>2021-07-27T14:13:38.000Z</Time>
            <Position>
              <LatitudeDegrees>41.1621738038957118988037109375</LatitudeDegrees>
              <LongitudeDegrees>-2.91075275279581546783447265625</LongitudeDegrees>
            </Position>
            <AltitudeMeters>1048.800048828125</AltitudeMeters>
            <DistanceMeters>74918.876898569</DistanceMeters>
          </Trackpoint>
          <Trackpoint>
            <Time>2021-07-27T14:14:02.000Z</Time>
            <Position>
              <LatitudeDegrees>41.162715442478656768798828125</LatitudeDegrees>
              <LongitudeDegrees>-2.91067999787628650665283203125</LongitudeDegrees>
            </Position>
            <AltitudeMeters>1060.4000244140625</AltitudeMeters>
            <DistanceMeters>74979.469824403</DistanceMeters>
          </Trackpoint>
          <Trackpoint>
            <Time>2021-07-27T14:14:04.000Z</Time>
            <Position>
              <LatitudeDegrees>41.16275894455611705780029296875</LatitudeDegrees>
              <LongitudeDegrees>-2.9106903076171875</LongitudeDegrees>
            </Position>
            <AltitudeMeters>1061</AltitudeMeters>
            <DistanceMeters>74984.388317545</DistanceMeters>
          </Trackpoint>
          <Trackpoint>
            <Time>2021-07-27T14:14:29.000Z</Time>
            <Position>
              <LatitudeDegrees>41.16327099502086639404296875</LatitudeDegrees>
              <LongitudeDegrees>-2.9109711013734340667724609375</LongitudeDegrees>
            </Position>
            <AltitudeMeters>1060.800048828125</AltitudeMeters>
            <DistanceMeters>75046.046304322</DistanceMeters>
          </Trackpoint>
          <Trackpoint>
            <Time>2021-07-27T14:14:34.000Z</Time>
            <Position>
              <LatitudeDegrees>41.16337065584957599639892578125</LatitudeDegrees>
              <LongitudeDegrees>-2.9110368154942989349365234375</LongitudeDegrees>
            </Position>
            <AltitudeMeters>1060</AltitudeMeters>
            <DistanceMeters>75058.430440074</DistanceMeters>
          </Trackpoint>
          <Trackpoint>
            <Time>2021-07-27T14:14:51.000Z</Time>
            <Position>
              <LatitudeDegrees>41.16370509378612041473388671875</LatitudeDegrees>
              <LongitudeDegrees>-2.9112242348492145538330078125</LongitudeDegrees>
            </Position>
            <AltitudeMeters>1060.4000244140625</AltitudeMeters>
            <DistanceMeters>75098.831212808</DistanceMeters>
          </Trackpoint>
          <Trackpoint>
            <Time>2021-07-27T14:15:02.000Z</Time>
            <Position>
              <LatitudeDegrees>41.16391472518444061279296875</LatitudeDegrees>
              <LongitudeDegrees>-2.91132205165922641754150390625</LongitudeDegrees>
            </Position>
            <AltitudeMeters>1060.4000244140625</AltitudeMeters>
            <DistanceMeters>75123.561173529</DistanceMeters>
          </Trackpoint>
          <Trackpoint>
            <Time>2021-07-27T14:15:08.000Z</Time>
            <Position>
              <LatitudeDegrees>41.1640245281159877777099609375</LatitudeDegrees>
              <LongitudeDegrees>-2.91136144660413265228271484375</LongitudeDegrees>
            </Position>
            <AltitudeMeters>1060.5999755859375</AltitudeMeters>
            <DistanceMeters>75136.220786348</DistanceMeters>
          </Trackpoint>
          <Trackpoint>
            <Time>2021-07-27T14:15:25.000Z</Time>
            <Position>
              <LatitudeDegrees>41.164356283843517303466796875</LatitudeDegrees>
              <LongitudeDegrees>-2.91142992675304412841796875</LongitudeDegrees>
            </Position>
            <AltitudeMeters>1060.800048828125</AltitudeMeters>
            <DistanceMeters>75173.588886393</DistanceMeters>
          </Trackpoint>
          <Trackpoint>
            <Time>2021-07-27T14:15:30.000Z</Time>
            <Position>
              <LatitudeDegrees>41.164458207786083221435546875</LatitudeDegrees>
              <LongitudeDegrees>-2.9114371351897716522216796875</LongitudeDegrees>
            </Position>
            <AltitudeMeters>1061.5999755859375</AltitudeMeters>
            <DistanceMeters>75184.949249615</DistanceMeters>
          </Trackpoint>
          <Trackpoint>
            <Time>2021-07-27T14:15:39.000Z</Time>
            <Position>
              <LatitudeDegrees>41.16464302875101566314697265625</LatitudeDegrees>
              <LongitudeDegrees>-2.91143889538943767547607421875</LongitudeDegrees>
            </Position>
            <AltitudeMeters>1062.4000244140625</AltitudeMeters>
            <DistanceMeters>75205.52050316</DistanceMeters>
          </Trackpoint>
          <Trackpoint>
            <Time>2021-07-27T14:15:54.000Z</Time>
            <Position>
              <LatitudeDegrees>41.1649324558675289154052734375</LatitudeDegrees>
              <LongitudeDegrees>-2.91140017099678516387939453125</LongitudeDegrees>
            </Position>
            <AltitudeMeters>1065.5999755859375</AltitudeMeters>
            <DistanceMeters>75237.897430965</DistanceMeters>
          </Trackpoint>
          <Trackpoint>
            <Time>2021-07-27T14:16:06.000Z</Time>
            <Position>
              <LatitudeDegrees>41.16516086272895336151123046875</LatitudeDegrees>
              <LongitudeDegrees>-2.9113298468291759490966796875</LongitudeDegrees>
            </Position>
            <AltitudeMeters>1065</AltitudeMeters>
            <DistanceMeters>75263.993642281</DistanceMeters>
          </Trackpoint>
          <Trackpoint>
            <Time>2021-07-27T14:16:13.000Z</Time>
            <Position>
              <LatitudeDegrees>41.16528801620006561279296875</LatitudeDegrees>
              <LongitudeDegrees>-2.91127628646790981292724609375</LongitudeDegrees>
            </Position>
            <AltitudeMeters>1065.5999755859375</AltitudeMeters>
            <DistanceMeters>75278.840939212</DistanceMeters>
          </Trackpoint>
          <Trackpoint>
            <Time>2021-07-27T14:16:20.000Z</Time>
            <Position>
              <LatitudeDegrees>41.16541500203311443328857421875</LatitudeDegrees>
              <LongitudeDegrees>-2.911210320889949798583984375</LongitudeDegrees>
            </Position>
            <AltitudeMeters>1066.4000244140625</AltitudeMeters>
            <DistanceMeters>75294.016678721</DistanceMeters>
          </Trackpoint>
          <Trackpoint>
            <Time>2021-07-27T14:16:34.000Z</Time>
            <Position>
              <LatitudeDegrees>41.1656673811376094818115234375</LatitudeDegrees>
              <LongitudeDegrees>-2.9110468737781047821044921875</LongitudeDegrees>
            </Position>
            <AltitudeMeters>1066.5999755859375</AltitudeMeters>
            <DistanceMeters>75325.267611948</DistanceMeters>
          </Trackpoint>
          <Trackpoint>
            <Time>2021-07-27T14:16:41.000Z</Time>
            <Position>
              <LatitudeDegrees>41.1657900922000408172607421875</LatitudeDegrees>
              <LongitudeDegrees>-2.9109620489180088043212890625</LongitudeDegrees>
            </Position>
            <AltitudeMeters>1066.5999755859375</AltitudeMeters>
            <DistanceMeters>75340.664285836</DistanceMeters>
          </Trackpoint>
          <Trackpoint>
            <Time>2021-07-27T14:16:45.000Z</Time>
            <Position>
              <LatitudeDegrees>41.16585924290120601654052734375</LatitudeDegrees>
              <LongitudeDegrees>-2.91091418825089931488037109375</LongitudeDegrees>
            </Position>
            <AltitudeMeters>1066.5999755859375</AltitudeMeters>
            <DistanceMeters>75349.34298779</DistanceMeters>
          </Trackpoint>
          <Trackpoint>
            <Time>2021-07-27T14:16:57.000Z</Time>
            <Position>
              <LatitudeDegrees>41.166069544851779937744140625</LatitudeDegrees>
              <LongitudeDegrees>-2.9107625596225261688232421875</LongitudeDegrees>
            </Position>
            <AltitudeMeters>1067</AltitudeMeters>
            <DistanceMeters>75375.975739706</DistanceMeters>
          </Trackpoint>
          <Trackpoint>
            <Time>2021-07-27T14:17:10.000Z</Time>
            <Position>
              <LatitudeDegrees>41.1662990413606166839599609375</LatitudeDegrees>
              <LongitudeDegrees>-2.910593412816524505615234375</LongitudeDegrees>
            </Position>
            <AltitudeMeters>1068.5999755859375</AltitudeMeters>
            <DistanceMeters>75405.18745249</DistanceMeters>
          </Trackpoint>
          <Trackpoint>
            <Time>2021-07-27T14:17:24.000Z</Time>
            <Position>
              <LatitudeDegrees>41.166546307504177093505859375</LatitudeDegrees>
              <LongitudeDegrees>-2.9104100167751312255859375</LongitudeDegrees>
            </Position>
            <AltitudeMeters>1069</AltitudeMeters>
            <DistanceMeters>75436.707972645</DistanceMeters>
          </Trackpoint>
          <Trackpoint>
            <Time>2021-07-27T14:17:33.000Z</Time>
            <Position>
              <LatitudeDegrees>41.166708581149578094482421875</LatitudeDegrees>
              <LongitudeDegrees>-2.9102955199778079986572265625</LongitudeDegrees>
            </Position>
            <AltitudeMeters>1069.800048828125</AltitudeMeters>
            <DistanceMeters>75457.158816652</DistanceMeters>
          </Trackpoint>
          <Trackpoint>
            <Time>2021-07-27T14:17:41.000Z</Time>
            <Position>
              <LatitudeDegrees>41.166847385466098785400390625</LatitudeDegrees>
              <LongitudeDegrees>-2.91018965654075145721435546875</LongitudeDegrees>
            </Position>
            <AltitudeMeters>1070.800048828125</AltitudeMeters>
            <DistanceMeters>75474.97322112</DistanceMeters>
          </Trackpoint>
          <Trackpoint>
            <Time>2021-07-27T14:17:45.000Z</Time>
            <Position>
              <LatitudeDegrees>41.16691687144339084625244140625</LatitudeDegrees>
              <LongitudeDegrees>-2.9101376049220561981201171875</LongitudeDegrees>
            </Position>
            <AltitudeMeters>1071.4000244140625</AltitudeMeters>
            <DistanceMeters>75483.851991719</DistanceMeters>
          </Trackpoint>
          <Trackpoint>
            <Time>2021-07-27T14:17:54.000Z</Time>
            <Position>
              <LatitudeDegrees>41.16707880981266498565673828125</LatitudeDegrees>
              <LongitudeDegrees>-2.91001950390636920928955078125</LongitudeDegrees>
            </Position>
            <AltitudeMeters>1074</AltitudeMeters>
            <DistanceMeters>75504.413805333</DistanceMeters>
          </Trackpoint>
          <Trackpoint>
            <Time>2021-07-27T14:18:00.000Z</Time>
            <Position>
              <LatitudeDegrees>41.16719531826674938201904296875</LatitudeDegrees>
              <LongitudeDegrees>-2.9099297337234020233154296875</LongitudeDegrees>
            </Position>
            <AltitudeMeters>1075.800048828125</AltitudeMeters>
            <DistanceMeters>75519.404853077</DistanceMeters>
          </Trackpoint>
          <Trackpoint>
            <Time>2021-07-27T14:18:16.000Z</Time>
            <Position>
              <LatitudeDegrees>41.1675120703876018524169921875</LatitudeDegrees>
              <LongitudeDegrees>-2.909692861139774322509765625</LongitudeDegrees>
            </Position>
            <AltitudeMeters>1078.5999755859375</AltitudeMeters>
            <DistanceMeters>75559.862469745</DistanceMeters>
          </Trackpoint>
          <Trackpoint>
            <Time>2021-07-27T14:18:24.000Z</Time>
            <Position>
              <LatitudeDegrees>41.16766571067273616790771484375</LatitudeDegrees>
              <LongitudeDegrees>-2.90957794524729251861572265625</LongitudeDegrees>
            </Position>
            <AltitudeMeters>1079</AltitudeMeters>
            <DistanceMeters>75579.48726937</DistanceMeters>
          </Trackpoint>
          <Trackpoint>
            <Time>2021-07-27T14:18:37.000Z</Time>
            <Position>
              <LatitudeDegrees>41.1679204367101192474365234375</LatitudeDegrees>
              <LongitudeDegrees>-2.90938750840723514556884765625</LongitudeDegrees>
            </Position>
            <AltitudeMeters>1077.800048828125</AltitudeMeters>
            <DistanceMeters>75612.020425226</DistanceMeters>
          </Trackpoint>
          <Trackpoint>
            <Time>2021-07-27T14:18:45.000Z</Time>
            <Position>
              <LatitudeDegrees>41.1680770106613636016845703125</LatitudeDegrees>
              <LongitudeDegrees>-2.90926513262093067169189453125</LongitudeDegrees>
            </Position>
            <AltitudeMeters>1078.199951171875</AltitudeMeters>
            <DistanceMeters>75632.239912878</DistanceMeters>
          </Trackpoint>
          <Trackpoint>
            <Time>2021-07-27T14:18:54.000Z</Time>
            <Position>
              <LatitudeDegrees>41.1682513542473316192626953125</LatitudeDegrees>
              <LongitudeDegrees>-2.90912297554314136505126953125</LongitudeDegrees>
            </Position>
            <AltitudeMeters>1079.4000244140625</AltitudeMeters>
            <DistanceMeters>75655.008678516</DistanceMeters>
          </Trackpoint>
          <Trackpoint>
            <Time>2021-07-27T14:19:02.000Z</Time>
            <Position>
              <LatitudeDegrees>41.16840214468538761138916015625</LatitudeDegrees>
              <LongitudeDegrees>-2.908994816243648529052734375</LongitudeDegrees>
            </Position>
            <AltitudeMeters>1081.5999755859375</AltitudeMeters>
            <DistanceMeters>75674.933267613</DistanceMeters>
          </Trackpoint>
          <Trackpoint>
            <Time>2021-07-27T14:19:11.000Z</Time>
            <Position>
              <LatitudeDegrees>41.16856693290174007415771484375</LatitudeDegrees>
              <LongitudeDegrees>-2.9088454507291316986083984375</LongitudeDegrees>
            </Position>
            <AltitudeMeters>1083</AltitudeMeters>
            <DistanceMeters>75697.137413931</DistanceMeters>
          </Trackpoint>
          <Trackpoint>
            <Time>2021-07-27T14:19:26.000Z</Time>
            <Position>
              <LatitudeDegrees>41.1688320524990558624267578125</LatitudeDegrees>
              <LongitudeDegrees>-2.9085896350443363189697265625</LongitudeDegrees>
            </Position>
            <AltitudeMeters>1084.800048828125</AltitudeMeters>
            <DistanceMeters>75733.60836484</DistanceMeters>
          </Trackpoint>
          <Trackpoint>
            <Time>2021-07-27T14:19:35.000Z</Time>
            <Position>
              <LatitudeDegrees>41.1689933203160762786865234375</LatitudeDegrees>
              <LongitudeDegrees>-2.90842115879058837890625</LongitudeDegrees>
            </Position>
            <AltitudeMeters>1085.4000244140625</AltitudeMeters>
            <DistanceMeters>75756.443266507</DistanceMeters>
          </Trackpoint>
          <Trackpoint>
            <Time>2021-07-27T14:19:44.000Z</Time>
            <Position>
              <LatitudeDegrees>41.16915031336247920989990234375</LatitudeDegrees>
              <LongitudeDegrees>-2.90824958123266696929931640625</LongitudeDegrees>
            </Position>
            <AltitudeMeters>1086.5999755859375</AltitudeMeters>
            <DistanceMeters>75779.070402301</DistanceMeters>
          </Trackpoint>
          <Trackpoint>
            <Time>2021-07-27T14:19:52.000Z</Time>
            <Position>
              <LatitudeDegrees>41.16928844712674617767333984375</LatitudeDegrees>
              <LongitudeDegrees>-2.9080890677869319915771484375</LongitudeDegrees>
            </Position>
            <AltitudeMeters>1088.5999755859375</AltitudeMeters>
            <DistanceMeters>75799.496946604</DistanceMeters>
          </Trackpoint>
          <Trackpoint>
            <Time>2021-07-27T14:20:01.000Z</Time>
            <Position>
              <LatitudeDegrees>41.16944409906864166259765625</LatitudeDegrees>
              <LongitudeDegrees>-2.9079140536487102508544921875</LongitudeDegrees>
            </Position>
            <AltitudeMeters>1090.5999755859375</AltitudeMeters>
            <DistanceMeters>75822.194013178</DistanceMeters>
          </Trackpoint>
          <Trackpoint>
            <Time>2021-07-27T14:20:11.000Z</Time>
            <Position>
              <LatitudeDegrees>41.1696082167327404022216796875</LatitudeDegrees>
              <LongitudeDegrees>-2.90770224295556545257568359375</LongitudeDegrees>
            </Position>
            <AltitudeMeters>1091.199951171875</AltitudeMeters>
            <DistanceMeters>75847.661527204</DistanceMeters>
          </Trackpoint>
          <Trackpoint>
            <Time>2021-07-27T14:20:27.000Z</Time>
            <Position>
              <LatitudeDegrees>41.1698861606419086456298828125</LatitudeDegrees>
              <LongitudeDegrees>-2.90731281973421573638916015625</LongitudeDegrees>
            </Position>
            <AltitudeMeters>1091.5999755859375</AltitudeMeters>
            <DistanceMeters>75892.623324471</DistanceMeters>
          </Trackpoint>
          <Trackpoint>
            <Time>2021-07-27T14:20:40.000Z</Time>
            <Position>
              <LatitudeDegrees>41.170097552239894866943359375</LatitudeDegrees>
              <LongitudeDegrees>-2.90695524774491786956787109375</LongitudeDegrees>
            </Position>
            <AltitudeMeters>1091.4000244140625</AltitudeMeters>
            <DistanceMeters>75930.7168308</DistanceMeters>
          </Trackpoint>
          <Trackpoint>
            <Time>2021-07-27T14:20:54.000Z</Time>
            <Position>
              <LatitudeDegrees>41.1703280545771121978759765625</LatitudeDegrees>
              <LongitudeDegrees>-2.90654788725078105926513671875</LongitudeDegrees>
            </Position>
            <AltitudeMeters>1092.4000244140625</AltitudeMeters>
            <DistanceMeters>75973.414185204</DistanceMeters>
          </Trackpoint>
          <Trackpoint>
            <Time>2021-07-27T14:21:15.000Z</Time>
            <Position>
              <LatitudeDegrees>41.1706673540174961090087890625</LatitudeDegrees>
              <LongitudeDegrees>-2.905949167907238006591796875</LongitudeDegrees>
            </Position>
            <AltitudeMeters>1094</AltitudeMeters>
            <DistanceMeters>76036.203190092</DistanceMeters>
          </Trackpoint>
          <Trackpoint>
            <Time>2021-07-27T14:21:29.000Z</Time>
            <Position>
              <LatitudeDegrees>41.17089760489761829376220703125</LatitudeDegrees>
              <LongitudeDegrees>-2.905548512935638427734375</LongitudeDegrees>
            </Position>
            <AltitudeMeters>1093.5999755859375</AltitudeMeters>
            <DistanceMeters>76078.435589371</DistanceMeters>
          </Trackpoint>
          <Trackpoint>
            <Time>2021-07-27T14:21:48.000Z</Time>
            <Position>
              <LatitudeDegrees>41.17122584022581577301025390625</LatitudeDegrees>
              <LongitudeDegrees>-2.9049582593142986297607421875</LongitudeDegrees>
            </Position>
            <AltitudeMeters>1095.199951171875</AltitudeMeters>
            <DistanceMeters>76139.919415714</DistanceMeters>
          </Trackpoint>
          <Trackpoint>
            <Time>2021-07-27T14:22:04.000Z</Time>
            <Position>
              <LatitudeDegrees>41.17157989181578159332275390625</LatitudeDegrees>
              <LongitudeDegrees>-2.9043467156589031219482421875</LongitudeDegrees>
            </Position>
            <AltitudeMeters>1091.199951171875</AltitudeMeters>
            <DistanceMeters>76204.557072997</DistanceMeters>
          </Trackpoint>
          <Trackpoint>
            <Time>2021-07-27T14:22:09.000Z</Time>
            <Position>
              <LatitudeDegrees>41.17173462174832820892333984375</LatitudeDegrees>
              <LongitudeDegrees>-2.904077656567096710205078125</LongitudeDegrees>
            </Position>
            <AltitudeMeters>1090.4000244140625</AltitudeMeters>
            <DistanceMeters>76232.925054112</DistanceMeters>
          </Trackpoint>
          <Trackpoint>
            <Time>2021-07-27T14:22:14.000Z</Time>
            <Position>
              <LatitudeDegrees>41.1719202809035778045654296875</LatitudeDegrees>
              <LongitudeDegrees>-2.90375604294240474700927734375</LongitudeDegrees>
            </Position>
            <AltitudeMeters>1090.199951171875</AltitudeMeters>
            <DistanceMeters>76266.881783801</DistanceMeters>
          </Trackpoint>
          <Trackpoint>
            <Time>2021-07-27T14:22:17.000Z</Time>
            <Position>
              <LatitudeDegrees>41.17204676382243633270263671875</LatitudeDegrees>
              <LongitudeDegrees>-2.90352813899517059326171875</LongitudeDegrees>
            </Position>
            <AltitudeMeters>1090.4000244140625</AltitudeMeters>
            <DistanceMeters>76290.604418437</DistanceMeters>
          </Trackpoint>
          <Trackpoint>
            <Time>2021-07-27T14:22:20.000Z</Time>
            <Position>
              <LatitudeDegrees>41.17218607105314731597900390625</LatitudeDegrees>
              <LongitudeDegrees>-2.90328095667064189910888671875</LongitudeDegrees>
            </Position>
            <AltitudeMeters>1089.800048828125</AltitudeMeters>
            <DistanceMeters>76316.474732423</DistanceMeters>
          </Trackpoint>
          <Trackpoint>
            <Time>2021-07-27T14:22:22.000Z</Time>
            <Position>
              <LatitudeDegrees>41.172285564243793487548828125</LatitudeDegrees>
              <LongitudeDegrees>-2.90311063639819622039794921875</LongitudeDegrees>
            </Position>
            <AltitudeMeters>1088.800048828125</AltitudeMeters>
            <DistanceMeters>76334.536808764</DistanceMeters>
          </Trackpoint>
          <Trackpoint>
            <Time>2021-07-27T14:22:24.000Z</Time>
            <Position>
              <LatitudeDegrees>41.1723889969289302825927734375</LatitudeDegrees>
              <LongitudeDegrees>-2.90294048376381397247314453125</LongitudeDegrees>
            </Position>
            <AltitudeMeters>1087.199951171875</AltitudeMeters>
            <DistanceMeters>76352.859970123</DistanceMeters>
          </Trackpoint>
          <Trackpoint>
            <Time>2021-07-27T14:22:29.000Z</Time>
            <Position>
              <LatitudeDegrees>41.17267389781773090362548828125</LatitudeDegrees>
              <LongitudeDegrees>-2.90251904167234897613525390625</LongitudeDegrees>
            </Position>
            <AltitudeMeters>1082.199951171875</AltitudeMeters>
            <DistanceMeters>76400.317608984</DistanceMeters>
          </Trackpoint>
          <Trackpoint>
            <Time>2021-07-27T14:22:32.000Z</Time>
            <Position>
              <LatitudeDegrees>41.1728650890290737152099609375</LatitudeDegrees>
              <LongitudeDegrees>-2.90227110497653484344482421875</LongitudeDegrees>
            </Position>
            <AltitudeMeters>1080.4000244140625</AltitudeMeters>
            <DistanceMeters>76430.055049798</DistanceMeters>
          </Trackpoint>
          <Trackpoint>
            <Time>2021-07-27T14:22:37.000Z</Time>
            <Position>
              <LatitudeDegrees>41.17320715449750423431396484375</LatitudeDegrees>
              <LongitudeDegrees>-2.90184346027672290802001953125</LongitudeDegrees>
            </Position>
            <AltitudeMeters>1082.4000244140625</AltitudeMeters>
            <DistanceMeters>76482.334772039</DistanceMeters>
          </Trackpoint>
          <Trackpoint>
            <Time>2021-07-27T14:22:38.000Z</Time>
            <Position>
              <LatitudeDegrees>41.173279993236064910888671875</LatitudeDegrees>
              <LongitudeDegrees>-2.90175855159759521484375</LongitudeDegrees>
            </Position>
            <AltitudeMeters>1082.5999755859375</AltitudeMeters>
            <DistanceMeters>76493.12061808</DistanceMeters>
          </Trackpoint>
          <Trackpoint>
            <Time>2021-07-27T14:22:39.000Z</Time>
            <Position>
              <LatitudeDegrees>41.1733542568981647491455078125</LatitudeDegrees>
              <LongitudeDegrees>-2.90167473256587982177734375</LongitudeDegrees>
            </Position>
            <AltitudeMeters>1082.5999755859375</AltitudeMeters>
            <DistanceMeters>76503.966992401</DistanceMeters>
          </Trackpoint>
          <Trackpoint>
            <Time>2021-07-27T14:22:41.000Z</Time>
            <Position>
              <LatitudeDegrees>41.173506639897823333740234375</LatitudeDegrees>
              <LongitudeDegrees>-2.901510782539844512939453125</LongitudeDegrees>
            </Position>
            <AltitudeMeters>1082</AltitudeMeters>
            <DistanceMeters>76525.791920863</DistanceMeters>
          </Trackpoint>
          <Trackpoint>
            <Time>2021-07-27T14:22:46.000Z</Time>
            <Position>
              <LatitudeDegrees>41.17390670813620090484619140625</LatitudeDegrees>
              <LongitudeDegrees>-2.901123873889446258544921875</LongitudeDegrees>
            </Position>
            <AltitudeMeters>1077.5999755859375</AltitudeMeters>
            <DistanceMeters>76580.86906349</DistanceMeters>
          </Trackpoint>
          <Trackpoint>
            <Time>2021-07-27T14:22:51.000Z</Time>
            <Position>
              <LatitudeDegrees>41.17433351464569568634033203125</LatitudeDegrees>
              <LongitudeDegrees>-2.90076236240565776824951171875</LongitudeDegrees>
            </Position>
            <AltitudeMeters>1076</AltitudeMeters>
            <DistanceMeters>76637.207003718</DistanceMeters>
          </Trackpoint>
          <Trackpoint>
            <Time>2021-07-27T14:22:56.000Z</Time>
            <Position>
              <LatitudeDegrees>41.17478613741695880889892578125</LatitudeDegrees>
              <LongitudeDegrees>-2.90044468827545642852783203125</LongitudeDegrees>
            </Position>
            <AltitudeMeters>1074.800048828125</AltitudeMeters>
            <DistanceMeters>76694.182790163</DistanceMeters>
          </Trackpoint>
          <Trackpoint>
            <Time>2021-07-27T14:23:01.000Z</Time>
            <Position>
              <LatitudeDegrees>41.175270192325115203857421875</LatitudeDegrees>
              <LongitudeDegrees>-2.9001289419829845428466796875</LongitudeDegrees>
            </Position>
            <AltitudeMeters>1070.800048828125</AltitudeMeters>
            <DistanceMeters>76754.20252355</DistanceMeters>
          </Trackpoint>
          <Trackpoint>
            <Time>2021-07-27T14:23:03.000Z</Time>
            <Position>
              <LatitudeDegrees>41.17547311820089817047119140625</LatitudeDegrees>
              <LongitudeDegrees>-2.900000698864459991455078125</LongitudeDegrees>
            </Position>
            <AltitudeMeters>1070</AltitudeMeters>
            <DistanceMeters>76779.213872488</DistanceMeters>
          </Trackpoint>
          <Trackpoint>
            <Time>2021-07-27T14:23:05.000Z</Time>
            <Position>
              <LatitudeDegrees>41.17567780427634716033935546875</LatitudeDegrees>
              <LongitudeDegrees>-2.8998697735369205474853515625</LongitudeDegrees>
            </Position>
            <AltitudeMeters>1070</AltitudeMeters>
            <DistanceMeters>76804.498836642</DistanceMeters>
          </Trackpoint>
          <Trackpoint>
            <Time>2021-07-27T14:23:07.000Z</Time>
            <Position>
              <LatitudeDegrees>41.17588316090404987335205078125</LatitudeDegrees>
              <LongitudeDegrees>-2.89973608218133449554443359375</LongitudeDegrees>
            </Position>
            <AltitudeMeters>1068.199951171875</AltitudeMeters>
            <DistanceMeters>76829.952163822</DistanceMeters>
          </Trackpoint>
          <Trackpoint>
            <Time>2021-07-27T14:23:09.000Z</Time>
            <Position>
              <LatitudeDegrees>41.1760884337127208709716796875</LatitudeDegrees>
              <LongitudeDegrees>-2.899603061378002166748046875</LongitudeDegrees>
            </Position>
            <AltitudeMeters>1066</AltitudeMeters>
            <DistanceMeters>76855.372475982</DistanceMeters>
          </Trackpoint>
          <Trackpoint>
            <Time>2021-07-27T14:23:13.000Z</Time>
            <Position>
              <LatitudeDegrees>41.17650342173874378204345703125</LatitudeDegrees>
              <LongitudeDegrees>-2.89933458901941776275634765625</LongitudeDegrees>
            </Position>
            <AltitudeMeters>1065</AltitudeMeters>
            <DistanceMeters>76906.746522766</DistanceMeters>
          </Trackpoint>
          <Trackpoint>
            <Time>2021-07-27T14:23:16.000Z</Time>
            <Position>
              <LatitudeDegrees>41.176820509135723114013671875</LatitudeDegrees>
              <LongitudeDegrees>-2.89912923239171504974365234375</LongitudeDegrees>
            </Position>
            <AltitudeMeters>1065.800048828125</AltitudeMeters>
            <DistanceMeters>76946.008773717</DistanceMeters>
          </Trackpoint>
          <Trackpoint>
            <Time>2021-07-27T14:23:19.000Z</Time>
            <Position>
              <LatitudeDegrees>41.177138350903987884521484375</LatitudeDegrees>
              <LongitudeDegrees>-2.89892018772661685943603515625</LongitudeDegrees>
            </Position>
            <AltitudeMeters>1065</AltitudeMeters>
            <DistanceMeters>76985.482509424</DistanceMeters>
          </Trackpoint>
          <Trackpoint>
            <Time>2021-07-27T14:23:21.000Z</Time>
            <Position>
              <LatitudeDegrees>41.1773500777781009674072265625</LatitudeDegrees>
              <LongitudeDegrees>-2.8987821377813816070556640625</LongitudeDegrees>
            </Position>
            <AltitudeMeters>1062.5999755859375</AltitudeMeters>
            <DistanceMeters>77011.732940534</DistanceMeters>
          </Trackpoint>
          <Trackpoint>
            <Time>2021-07-27T14:23:25.000Z</Time>
            <Position>
              <LatitudeDegrees>41.17777143605053424835205078125</LatitudeDegrees>
              <LongitudeDegrees>-2.898504026234149932861328125</LongitudeDegrees>
            </Position>
            <AltitudeMeters>1060.800048828125</AltitudeMeters>
            <DistanceMeters>77064.099385749</DistanceMeters>
          </Trackpoint>
          <Trackpoint>
            <Time>2021-07-27T14:23:29.000Z</Time>
            <Position>
              <LatitudeDegrees>41.1781919561326503753662109375</LatitudeDegrees>
              <LongitudeDegrees>-2.89822541177272796630859375</LongitudeDegrees>
            </Position>
            <AltitudeMeters>1060.5999755859375</AltitudeMeters>
            <DistanceMeters>77116.400953287</DistanceMeters>
          </Trackpoint>
          <Trackpoint>
            <Time>2021-07-27T14:23:34.000Z</Time>
            <Position>
              <LatitudeDegrees>41.1787025816738605499267578125</LatitudeDegrees>
              <LongitudeDegrees>-2.8978789038956165313720703125</LongitudeDegrees>
            </Position>
            <AltitudeMeters>1064</AltitudeMeters>
            <DistanceMeters>77180.218520361</DistanceMeters>
          </Trackpoint>
          <Trackpoint>
            <Time>2021-07-27T14:23:39.000Z</Time>
            <Position>
              <LatitudeDegrees>41.179158389568328857421875</LatitudeDegrees>
              <LongitudeDegrees>-2.8974648378789424896240234375</LongitudeDegrees>
            </Position>
            <AltitudeMeters>1062.4000244140625</AltitudeMeters>
            <DistanceMeters>77241.675610708</DistanceMeters>
          </Trackpoint>
          <Trackpoint>
            <Time>2021-07-27T14:23:43.000Z</Time>
            <Position>
              <LatitudeDegrees>41.1794747225940227508544921875</LatitudeDegrees>
              <LongitudeDegrees>-2.8970826230943202972412109375</LongitudeDegrees>
            </Position>
            <AltitudeMeters>1060.5999755859375</AltitudeMeters>
            <DistanceMeters>77289.266067032</DistanceMeters>
          </Trackpoint>
          <Trackpoint>
            <Time>2021-07-27T14:23:49.000Z</Time>
            <Position>
              <LatitudeDegrees>41.1798780597746372222900390625</LatitudeDegrees>
              <LongitudeDegrees>-2.89648222737014293670654296875</LongitudeDegrees>
            </Position>
            <AltitudeMeters>1057.199951171875</AltitudeMeters>
            <DistanceMeters>77356.682682311</DistanceMeters>
          </Trackpoint>
          <Trackpoint>
            <Time>2021-07-27T14:23:55.000Z</Time>
            <Position>
              <LatitudeDegrees>41.18025004863739013671875</LatitudeDegrees>
              <LongitudeDegrees>-2.8958907164633274078369140625</LongitudeDegrees>
            </Position>
            <AltitudeMeters>1055.199951171875</AltitudeMeters>
            <DistanceMeters>77421.254715709</DistanceMeters>
          </Trackpoint>
          <Trackpoint>
            <Time>2021-07-27T14:24:01.000Z</Time>
            <Position>
              <LatitudeDegrees>41.180609799921512603759765625</LatitudeDegrees>
              <LongitudeDegrees>-2.895324267446994781494140625</LongitudeDegrees>
            </Position>
            <AltitudeMeters>1056</AltitudeMeters>
            <DistanceMeters>77483.342875885</DistanceMeters>
          </Trackpoint>
          <Trackpoint>
            <Time>2021-07-27T14:24:06.000Z</Time>
            <Position>
              <LatitudeDegrees>41.18089000694453716278076171875</LatitudeDegrees>
              <LongitudeDegrees>-2.89488480426371097564697265625</LongitudeDegrees>
            </Position>
            <AltitudeMeters>1056.800048828125</AltitudeMeters>
            <DistanceMeters>77531.591374172</DistanceMeters>
          </Trackpoint>
          <Trackpoint>
            <Time>2021-07-27T14:24:13.000Z</Time>
            <Position>
              <LatitudeDegrees>41.1812583915889263153076171875</LatitudeDegrees>
              <LongitudeDegrees>-2.8943119011819362640380859375</LongitudeDegrees>
            </Position>
            <AltitudeMeters>1054.4000244140625</AltitudeMeters>
            <DistanceMeters>77594.713222367</DistanceMeters>
          </Trackpoint>
          <Trackpoint>
            <Time>2021-07-27T14:24:21.000Z</Time>
            <Position>
              <LatitudeDegrees>41.1816489882767200469970703125</LatitudeDegrees>
              <LongitudeDegrees>-2.893692813813686370849609375</LongitudeDegrees>
            </Position>
            <AltitudeMeters>1052.4000244140625</AltitudeMeters>
            <DistanceMeters>77662.385254535</DistanceMeters>
          </Trackpoint>
          <Trackpoint>
            <Time>2021-07-27T14:24:29.000Z</Time>
            <Position>
              <LatitudeDegrees>41.18201703764498233795166015625</LatitudeDegrees>
              <LongitudeDegrees>-2.89311236701905727386474609375</LongitudeDegrees>
            </Position>
            <AltitudeMeters>1052.199951171875</AltitudeMeters>
            <DistanceMeters>77725.964447045</DistanceMeters>
          </Trackpoint>
          <Trackpoint>
            <Time>2021-07-27T14:24:30.000Z</Time>
            <Position>
              <LatitudeDegrees>41.18206322193145751953125</LatitudeDegrees>
              <LongitudeDegrees>-2.8930438868701457977294921875</LongitudeDegrees>
            </Position>
            <AltitudeMeters>1052.4000244140625</AltitudeMeters>
            <DistanceMeters>77733.666302157</DistanceMeters>
          </Trackpoint>
          <Trackpoint>
            <Time>2021-07-27T14:24:39.000Z</Time>
            <Position>
              <LatitudeDegrees>41.182442419230937957763671875</LatitudeDegrees>
              <LongitudeDegrees>-2.892446257174015045166015625</LongitudeDegrees>
            </Position>
            <AltitudeMeters>1052.4000244140625</AltitudeMeters>
            <DistanceMeters>77799.145431778</DistanceMeters>
          </Trackpoint>
          <Trackpoint>
            <Time>2021-07-27T14:24:49.000Z</Time>
            <Position>
              <LatitudeDegrees>41.18281616829335689544677734375</LatitudeDegrees>
              <LongitudeDegrees>-2.89185642264783382415771484375</LongitudeDegrees>
            </Position>
            <AltitudeMeters>1052.800048828125</AltitudeMeters>
            <DistanceMeters>77863.734314302</DistanceMeters>
          </Trackpoint>
          <Trackpoint>
            <Time>2021-07-27T14:25:00.000Z</Time>
            <Position>
              <LatitudeDegrees>41.18317357264459133148193359375</LatitudeDegrees>
              <LongitudeDegrees>-2.891294918954372406005859375</LongitudeDegrees>
            </Position>
            <AltitudeMeters>1051.199951171875</AltitudeMeters>
            <DistanceMeters>77925.336036961</DistanceMeters>
          </Trackpoint>
          <Trackpoint>
            <Time>2021-07-27T14:25:09.000Z</Time>
            <Position>
              <LatitudeDegrees>41.1834450624883174896240234375</LatitudeDegrees>
              <LongitudeDegrees>-2.89086132310330867767333984375</LongitudeDegrees>
            </Position>
            <AltitudeMeters>1051.5999755859375</AltitudeMeters>
            <DistanceMeters>77972.583239074</DistanceMeters>
          </Trackpoint>
          <Trackpoint>
            <Time>2021-07-27T14:25:21.000Z</Time>
            <Position>
              <LatitudeDegrees>41.1837679333984851837158203125</LatitudeDegrees>
              <LongitudeDegrees>-2.8902828879654407501220703125</LongitudeDegrees>
            </Position>
            <AltitudeMeters>1054.199951171875</AltitudeMeters>
            <DistanceMeters>78032.908514598</DistanceMeters>
          </Trackpoint>
          <Trackpoint>
            <Time>2021-07-27T14:25:34.000Z</Time>
            <Position>
              <LatitudeDegrees>41.184034645557403564453125</LatitudeDegrees>
              <LongitudeDegrees>-2.88963588885962963104248046875</LongitudeDegrees>
            </Position>
            <AltitudeMeters>1055.199951171875</AltitudeMeters>
            <DistanceMeters>78094.702261492</DistanceMeters>
          </Trackpoint>
          <Trackpoint>
            <Time>2021-07-27T14:25:45.000Z</Time>
            <Position>
              <LatitudeDegrees>41.184213347733020782470703125</LatitudeDegrees>
              <LongitudeDegrees>-2.88906290195882320404052734375</LongitudeDegrees>
            </Position>
            <AltitudeMeters>1054</AltitudeMeters>
            <DistanceMeters>78146.656765153</DistanceMeters>
          </Trackpoint>
          <Trackpoint>
            <Time>2021-07-27T14:25:59.000Z</Time>
            <Position>
              <LatitudeDegrees>41.18436791002750396728515625</LatitudeDegrees>
              <LongitudeDegrees>-2.88832479156553745269775390625</LongitudeDegrees>
            </Position>
            <AltitudeMeters>1052</AltitudeMeters>
            <DistanceMeters>78210.833505382</DistanceMeters>
          </Trackpoint>
          <Trackpoint>
            <Time>2021-07-27T14:26:13.000Z</Time>
            <Position>
              <LatitudeDegrees>41.18448651395738124847412109375</LatitudeDegrees>
              <LongitudeDegrees>-2.88760093040764331817626953125</LongitudeDegrees>
            </Position>
            <AltitudeMeters>1055.199951171875</AltitudeMeters>
            <DistanceMeters>78272.888350954</DistanceMeters>
          </Trackpoint>
          <Trackpoint>
            <Time>2021-07-27T14:26:21.000Z</Time>
            <Position>
              <LatitudeDegrees>41.18454854004085063934326171875</LatitudeDegrees>
              <LongitudeDegrees>-2.88718820549547672271728515625</LongitudeDegrees>
            </Position>
            <AltitudeMeters>1057.800048828125</AltitudeMeters>
            <DistanceMeters>78308.142749708</DistanceMeters>
          </Trackpoint>
          <Trackpoint>
            <Time>2021-07-27T14:26:35.000Z</Time>
            <Position>
              <LatitudeDegrees>41.184655241668224334716796875</LatitudeDegrees>
              <LongitudeDegrees>-2.8864845447242259979248046875</LongitudeDegrees>
            </Position>
            <AltitudeMeters>1056.800048828125</AltitudeMeters>
            <DistanceMeters>78368.269359163</DistanceMeters>
          </Trackpoint>
          <Trackpoint>
            <Time>2021-07-27T14:26:38.000Z</Time>
            <Position>
              <LatitudeDegrees>41.1846758611500263214111328125</LatitudeDegrees>
              <LongitudeDegrees>-2.88633107207715511322021484375</LongitudeDegrees>
            </Position>
            <AltitudeMeters>1057.199951171875</AltitudeMeters>
            <DistanceMeters>78381.328187351</DistanceMeters>
          </Trackpoint>
          <Trackpoint>
            <Time>2021-07-27T14:26:53.000Z</Time>
            <Position>
              <LatitudeDegrees>41.1847925372421741485595703125</LatitudeDegrees>
              <LongitudeDegrees>-2.88559799082577228546142578125</LongitudeDegrees>
            </Position>
            <AltitudeMeters>1060.800048828125</AltitudeMeters>
            <DistanceMeters>78444.092666786</DistanceMeters>
          </Trackpoint>
          <Trackpoint>
            <Time>2021-07-27T14:27:07.000Z</Time>
            <Position>
              <LatitudeDegrees>41.18495397269725799560546875</LatitudeDegrees>
              <LongitudeDegrees>-2.884944789111614227294921875</LongitudeDegrees>
            </Position>
            <AltitudeMeters>1064.199951171875</AltitudeMeters>
            <DistanceMeters>78501.682619006</DistanceMeters>
          </Trackpoint>
          <Trackpoint>
            <Time>2021-07-27T14:27:21.000Z</Time>
            <Position>
              <LatitudeDegrees>41.1852294020354747772216796875</LatitudeDegrees>
              <LongitudeDegrees>-2.8843729756772518157958984375</LongitudeDegrees>
            </Position>
            <AltitudeMeters>1062.4000244140625</AltitudeMeters>
            <DistanceMeters>78558.550530318</DistanceMeters>
          </Trackpoint>
          <Trackpoint>
            <Time>2021-07-27T14:27:36.000Z</Time>
            <Position>
              <LatitudeDegrees>41.185654699802398681640625</LatitudeDegrees>
              <LongitudeDegrees>-2.8839129768311977386474609375</LongitudeDegrees>
            </Position>
            <AltitudeMeters>1062.4000244140625</AltitudeMeters>
            <DistanceMeters>78619.586537374</DistanceMeters>
          </Trackpoint>
          <Trackpoint>
            <Time>2021-07-27T14:27:42.000Z</Time>
            <Position>
              <LatitudeDegrees>41.18584538809955120086669921875</LatitudeDegrees>
              <LongitudeDegrees>-2.88376688025891780853271484375</LongitudeDegrees>
            </Position>
            <AltitudeMeters>1062.4000244140625</AltitudeMeters>
            <DistanceMeters>78644.085743914</DistanceMeters>
          </Trackpoint>
          <Trackpoint>
            <Time>2021-07-27T14:27:58.000Z</Time>
            <Position>
              <LatitudeDegrees>41.186359114944934844970703125</LatitudeDegrees>
              <LongitudeDegrees>-2.8834372200071811676025390625</LongitudeDegrees>
            </Position>
            <AltitudeMeters>1063.199951171875</AltitudeMeters>
            <DistanceMeters>78707.583075134</DistanceMeters>
          </Trackpoint>
          <Trackpoint>
            <Time>2021-07-27T14:28:13.000Z</Time>
            <Position>
              <LatitudeDegrees>41.18679321371018886566162109375</LatitudeDegrees>
              <LongitudeDegrees>-2.8831632994115352630615234375</LongitudeDegrees>
            </Position>
            <AltitudeMeters>1065.5999755859375</AltitudeMeters>
            <DistanceMeters>78761.07020161</DistanceMeters>
          </Trackpoint>
          <Trackpoint>
            <Time>2021-07-27T14:28:28.000Z</Time>
            <Position>
              <LatitudeDegrees>41.18718028999865055084228515625</LatitudeDegrees>
              <LongitudeDegrees>-2.8829172067344188690185546875</LongitudeDegrees>
            </Position>
            <AltitudeMeters>1069.5999755859375</AltitudeMeters>
            <DistanceMeters>78808.829989191</DistanceMeters>
          </Trackpoint>
          <Trackpoint>
            <Time>2021-07-27T14:28:46.000Z</Time>
            <Position>
              <LatitudeDegrees>41.1876551248133182525634765625</LatitudeDegrees>
              <LongitudeDegrees>-2.88262291811406612396240234375</LongitudeDegrees>
            </Position>
            <AltitudeMeters>1069.199951171875</AltitudeMeters>
            <DistanceMeters>78867.145894817</DistanceMeters>
          </Trackpoint>
          <Trackpoint>
            <Time>2021-07-27T14:29:01.000Z</Time>
            <Position>
              <LatitudeDegrees>41.188048236072063446044921875</LatitudeDegrees>
              <LongitudeDegrees>-2.882376573979854583740234375</LongitudeDegrees>
            </Position>
            <AltitudeMeters>1069.5999755859375</AltitudeMeters>
            <DistanceMeters>78915.521306244</DistanceMeters>
          </Trackpoint>
          <Trackpoint>
            <Time>2021-07-27T14:29:14.000Z</Time>
            <Position>
              <LatitudeDegrees>41.18839985691010951995849609375</LatitudeDegrees>
              <LongitudeDegrees>-2.8821531124413013458251953125</LongitudeDegrees>
            </Position>
            <AltitudeMeters>1070.800048828125</AltitudeMeters>
            <DistanceMeters>78958.903056922</DistanceMeters>
          </Trackpoint>
          <Trackpoint>
            <Time>2021-07-27T14:29:30.000Z</Time>
            <Position>
              <LatitudeDegrees>41.1888262443244457244873046875</LatitudeDegrees>
              <LongitudeDegrees>-2.8818838857114315032958984375</LongitudeDegrees>
            </Position>
            <AltitudeMeters>1071</AltitudeMeters>
            <DistanceMeters>79011.445955977</DistanceMeters>
          </Trackpoint>
          <Trackpoint>
            <Time>2021-07-27T14:29:43.000Z</Time>
            <Position>
              <LatitudeDegrees>41.189165376126766204833984375</LatitudeDegrees>
              <LongitudeDegrees>-2.8816728293895721435546875</LongitudeDegrees>
            </Position>
            <AltitudeMeters>1071</AltitudeMeters>
            <DistanceMeters>79053.12662712</DistanceMeters>
          </Trackpoint>
          <Trackpoint>
            <Time>2021-07-27T14:29:51.000Z</Time>
            <Position>
              <LatitudeDegrees>41.1893690563738346099853515625</LatitudeDegrees>
              <LongitudeDegrees>-2.88154651410877704620361328125</LongitudeDegrees>
            </Position>
            <AltitudeMeters>1072.4000244140625</AltitudeMeters>
            <DistanceMeters>79078.143752018</DistanceMeters>
          </Trackpoint>
          <Trackpoint>
            <Time>2021-07-27T14:30:02.000Z</Time>
            <Position>
              <LatitudeDegrees>41.18962906301021575927734375</LatitudeDegrees>
              <LongitudeDegrees>-2.8813769482076168060302734375</LongitudeDegrees>
            </Position>
            <AltitudeMeters>1074.199951171875</AltitudeMeters>
            <DistanceMeters>79110.380085513</DistanceMeters>
          </Trackpoint>
          <Trackpoint>
            <Time>2021-07-27T14:30:11.000Z</Time>
            <Position>
              <LatitudeDegrees>41.18983089923858642578125</LatitudeDegrees>
              <LongitudeDegrees>-2.88125113584101200103759765625</LongitudeDegrees>
            </Position>
            <AltitudeMeters>1075.5999755859375</AltitudeMeters>
            <DistanceMeters>79135.193524054</DistanceMeters>
          </Trackpoint>
          <Trackpoint>
            <Time>2021-07-27T14:30:22.000Z</Time>
            <Position>
              <LatitudeDegrees>41.1900396086275577545166015625</LatitudeDegrees>
              <LongitudeDegrees>-2.88110864348709583282470703125</LongitudeDegrees>
            </Position>
            <AltitudeMeters>1078.199951171875</AltitudeMeters>
            <DistanceMeters>79161.309797409</DistanceMeters>
          </Trackpoint>
          <Trackpoint>
            <Time>2021-07-27T14:30:34.000Z</Time>
            <Position>
              <LatitudeDegrees>41.19025745429098606109619140625</LatitudeDegrees>
              <LongitudeDegrees>-2.88094653747975826263427734375</LongitudeDegrees>
            </Position>
            <AltitudeMeters>1080.800048828125</AltitudeMeters>
            <DistanceMeters>79189.099222331</DistanceMeters>
          </Trackpoint>
          <Trackpoint>
            <Time>2021-07-27T14:30:43.000Z</Time>
            <Position>
              <LatitudeDegrees>41.19041335768997669219970703125</LatitudeDegrees>
              <LongitudeDegrees>-2.88081645034253597259521484375</LongitudeDegrees>
            </Position>
            <AltitudeMeters>1081</AltitudeMeters>
            <DistanceMeters>79209.588885921</DistanceMeters>
          </Trackpoint>
          <Trackpoint>
            <Time>2021-07-27T14:30:53.000Z</Time>
            <Position>
              <LatitudeDegrees>41.1905777268111705780029296875</LatitudeDegrees>
              <LongitudeDegrees>-2.8806587867438793182373046875</LongitudeDegrees>
            </Position>
            <AltitudeMeters>1081.5999755859375</AltitudeMeters>
            <DistanceMeters>79232.151678071</DistanceMeters>
          </Trackpoint>
          <Trackpoint>
            <Time>2021-07-27T14:31:03.000Z</Time>
            <Position>
              <LatitudeDegrees>41.1907369829714298248291015625</LatitudeDegrees>
              <LongitudeDegrees>-2.88048670627176761627197265625</LongitudeDegrees>
            </Position>
            <AltitudeMeters>1082.199951171875</AltitudeMeters>
            <DistanceMeters>79254.997649674</DistanceMeters>
          </Trackpoint>
          <Trackpoint>
            <Time>2021-07-27T14:31:16.000Z</Time>
            <Position>
              <LatitudeDegrees>41.19093337096273899078369140625</LatitudeDegrees>
              <LongitudeDegrees>-2.88024899549782276153564453125</LongitudeDegrees>
            </Position>
            <AltitudeMeters>1083.199951171875</AltitudeMeters>
            <DistanceMeters>79284.56439908</DistanceMeters>
          </Trackpoint>
          <Trackpoint>
            <Time>2021-07-27T14:31:27.000Z</Time>
            <Position>
              <LatitudeDegrees>41.19111458770930767059326171875</LatitudeDegrees>
              <LongitudeDegrees>-2.8800070099532604217529296875</LongitudeDegrees>
            </Position>
            <AltitudeMeters>1084</AltitudeMeters>
            <DistanceMeters>79313.15812534</DistanceMeters>
          </Trackpoint>
          <Trackpoint>
            <Time>2021-07-27T14:31:40.000Z</Time>
            <Position>
              <LatitudeDegrees>41.1913253925740718841552734375</LatitudeDegrees>
              <LongitudeDegrees>-2.879710458219051361083984375</LongitudeDegrees>
            </Position>
            <AltitudeMeters>1085.199951171875</AltitudeMeters>
            <DistanceMeters>79347.32601089</DistanceMeters>
          </Trackpoint>
          <Trackpoint>
            <Time>2021-07-27T14:31:41.000Z</Time>
            <Position>
              <LatitudeDegrees>41.19134073145687580108642578125</LatitudeDegrees>
              <LongitudeDegrees>-2.87968656979501247406005859375</LongitudeDegrees>
            </Position>
            <AltitudeMeters>1085.199951171875</AltitudeMeters>
            <DistanceMeters>79349.956037231</DistanceMeters>
          </Trackpoint>
          <Trackpoint>
            <Time>2021-07-27T14:32:04.000Z</Time>
            <Position>
              <LatitudeDegrees>41.191716492176055908203125</LatitudeDegrees>
              <LongitudeDegrees>-2.87913202308118343353271484375</LongitudeDegrees>
            </Position>
            <AltitudeMeters>1086.5999755859375</AltitudeMeters>
            <DistanceMeters>79412.45768697</DistanceMeters>
          </Trackpoint>
          <Trackpoint>
            <Time>2021-07-27T14:32:06.000Z</Time>
            <Position>
              <LatitudeDegrees>41.19174960069358348846435546875</LatitudeDegrees>
              <LongitudeDegrees>-2.87908156402409076690673828125</LongitudeDegrees>
            </Position>
            <AltitudeMeters>1086.4000244140625</AltitudeMeters>
            <DistanceMeters>79418.065068371</DistanceMeters>
          </Trackpoint>
          <Trackpoint>
            <Time>2021-07-27T14:32:27.000Z</Time>
            <Position>
              <LatitudeDegrees>41.1920573003590106964111328125</LatitudeDegrees>
              <LongitudeDegrees>-2.87847454659640789031982421875</LongitudeDegrees>
            </Position>
            <AltitudeMeters>1086.199951171875</AltitudeMeters>
            <DistanceMeters>79479.365328003</DistanceMeters>
          </Trackpoint>
          <Trackpoint>
            <Time>2021-07-27T14:32:31.000Z</Time>
            <Position>
              <LatitudeDegrees>41.192103736102581024169921875</LatitudeDegrees>
              <LongitudeDegrees>-2.87833926267921924591064453125</LongitudeDegrees>
            </Position>
            <AltitudeMeters>1086.4000244140625</AltitudeMeters>
            <DistanceMeters>79491.819266858</DistanceMeters>
          </Trackpoint>
          <Trackpoint>
            <Time>2021-07-27T14:32:50.000Z</Time>
            <Position>
              <LatitudeDegrees>41.19225452654063701629638671875</LatitudeDegrees>
              <LongitudeDegrees>-2.87772838957607746124267578125</LongitudeDegrees>
            </Position>
            <AltitudeMeters>1087.800048828125</AltitudeMeters>
            <DistanceMeters>79545.665465099</DistanceMeters>
          </Trackpoint>
          <Trackpoint>
            <Time>2021-07-27T14:33:05.000Z</Time>
            <Position>
              <LatitudeDegrees>41.19230548851191997528076171875</LatitudeDegrees>
              <LongitudeDegrees>-2.8772218711674213409423828125</LongitudeDegrees>
            </Position>
            <AltitudeMeters>1087.800048828125</AltitudeMeters>
            <DistanceMeters>79588.466535274</DistanceMeters>
          </Trackpoint>
          <Trackpoint>
            <Time>2021-07-27T14:33:25.000Z</Time>
            <Position>
              <LatitudeDegrees>41.19235544465482234954833984375</LatitudeDegrees>
              <LongitudeDegrees>-2.8765751235187053680419921875</LongitudeDegrees>
            </Position>
            <AltitudeMeters>1092.4000244140625</AltitudeMeters>
            <DistanceMeters>79642.919578911</DistanceMeters>
          </Trackpoint>
          <Trackpoint>
            <Time>2021-07-27T14:33:40.000Z</Time>
            <Position>
              <LatitudeDegrees>41.19242870248854160308837890625</LatitudeDegrees>
              <LongitudeDegrees>-2.876099534332752227783203125</LongitudeDegrees>
            </Position>
            <AltitudeMeters>1092.5999755859375</AltitudeMeters>
            <DistanceMeters>79683.578577359</DistanceMeters>
          </Trackpoint>
          <Trackpoint>
            <Time>2021-07-27T14:33:50.000Z</Time>
            <Position>
              <LatitudeDegrees>41.1924985237419605255126953125</LatitudeDegrees>
              <LongitudeDegrees>-2.87579753436148166656494140625</LongitudeDegrees>
            </Position>
            <AltitudeMeters>1092</AltitudeMeters>
            <DistanceMeters>79710.039379828</DistanceMeters>
          </Trackpoint>
          <Trackpoint>
            <Time>2021-07-27T14:34:05.000Z</Time>
            <Position>
              <LatitudeDegrees>41.192656941711902618408203125</LatitudeDegrees>
              <LongitudeDegrees>-2.87535731680691242218017578125</LongitudeDegrees>
            </Position>
            <AltitudeMeters>1092.4000244140625</AltitudeMeters>
            <DistanceMeters>79750.909042906</DistanceMeters>
          </Trackpoint>
          <Trackpoint>
            <Time>2021-07-27T14:34:12.000Z</Time>
            <Position>
              <LatitudeDegrees>41.1927426047623157501220703125</LatitudeDegrees>
              <LongitudeDegrees>-2.8751582466065883636474609375</LongitudeDegrees>
            </Position>
            <AltitudeMeters>1093.5999755859375</AltitudeMeters>
            <DistanceMeters>79770.115726193</DistanceMeters>
          </Trackpoint>
          <Trackpoint>
            <Time>2021-07-27T14:34:22.000Z</Time>
            <Position>
              <LatitudeDegrees>41.1928753741085529327392578125</LatitudeDegrees>
              <LongitudeDegrees>-2.8748787939548492431640625</LongitudeDegrees>
            </Position>
            <AltitudeMeters>1095.4000244140625</AltitudeMeters>
            <DistanceMeters>79797.795590645</DistanceMeters>
          </Trackpoint>
          <Trackpoint>
            <Time>2021-07-27T14:34:36.000Z</Time>
            <Position>
              <LatitudeDegrees>41.19305835105478763580322265625</LatitudeDegrees>
              <LongitudeDegrees>-2.87448040209710597991943359375</LongitudeDegrees>
            </Position>
            <AltitudeMeters>1097.4000244140625</AltitudeMeters>
            <DistanceMeters>79836.886813653</DistanceMeters>
          </Trackpoint>
          <Trackpoint>
            <Time>2021-07-27T14:34:47.000Z</Time>
            <Position>
              <LatitudeDegrees>41.1931258253753185272216796875</LatitudeDegrees>
              <LongitudeDegrees>-2.87413355894386768341064453125</LongitudeDegrees>
            </Position>
            <AltitudeMeters>1099</AltitudeMeters>
            <DistanceMeters>79866.891338833</DistanceMeters>
          </Trackpoint>
          <Trackpoint>
            <Time>2021-07-27T14:35:11.000Z</Time>
            <Position>
              <LatitudeDegrees>41.19346453808248043060302734375</LatitudeDegrees>
              <LongitudeDegrees>-2.873682864010334014892578125</LongitudeDegrees>
            </Position>
            <AltitudeMeters>1100.4000244140625</AltitudeMeters>
            <DistanceMeters>79920.240270628</DistanceMeters>
          </Trackpoint>
          <Trackpoint>
            <Time>2021-07-27T14:35:19.000Z</Time>
            <Position>
              <LatitudeDegrees>41.19353645481169223785400390625</LatitudeDegrees>
              <LongitudeDegrees>-2.87347105331718921661376953125</LongitudeDegrees>
            </Position>
            <AltitudeMeters>1100.199951171875</AltitudeMeters>
            <DistanceMeters>79939.702428435</DistanceMeters>
          </Trackpoint>
          <Trackpoint>
            <Time>2021-07-27T14:35:30.000Z</Time>
            <Position>
              <LatitudeDegrees>41.19351466186344623565673828125</LatitudeDegrees>
              <LongitudeDegrees>-2.87313376553356647491455078125</LongitudeDegrees>
            </Position>
            <AltitudeMeters>1099</AltitudeMeters>
            <DistanceMeters>79968.05576308</DistanceMeters>
          </Trackpoint>
          <Trackpoint>
            <Time>2021-07-27T14:35:38.000Z</Time>
            <Position>
              <LatitudeDegrees>41.193479038774967193603515625</LatitudeDegrees>
              <LongitudeDegrees>-2.87289940752089023590087890625</LongitudeDegrees>
            </Position>
            <AltitudeMeters>1098.199951171875</AltitudeMeters>
            <DistanceMeters>79988.080487163</DistanceMeters>
          </Trackpoint>
          <Trackpoint>
            <Time>2021-07-27T14:35:57.000Z</Time>
            <Position>
              <LatitudeDegrees>41.19337736628949642181396484375</LatitudeDegrees>
              <LongitudeDegrees>-2.8722973354160785675048828125</LongitudeDegrees>
            </Position>
            <AltitudeMeters>1100.199951171875</AltitudeMeters>
            <DistanceMeters>80039.760519185</DistanceMeters>
          </Trackpoint>
          <Trackpoint>
            <Time>2021-07-27T14:36:07.000Z</Time>
            <Position>
              <LatitudeDegrees>41.193341910839080810546875</LatitudeDegrees>
              <LongitudeDegrees>-2.8719578683376312255859375</LongitudeDegrees>
            </Position>
            <AltitudeMeters>1101</AltitudeMeters>
            <DistanceMeters>80068.4647221</DistanceMeters>
          </Trackpoint>
          <Trackpoint>
            <Time>2021-07-27T14:36:27.000Z</Time>
            <Position>
              <LatitudeDegrees>41.193283908069133758544921875</LatitudeDegrees>
              <LongitudeDegrees>-2.87124549038708209991455078125</LongitudeDegrees>
            </Position>
            <AltitudeMeters>1103</AltitudeMeters>
            <DistanceMeters>80128.477233366</DistanceMeters>
          </Trackpoint>
          <Trackpoint>
            <Time>2021-07-27T14:36:28.000Z</Time>
            <Position>
              <LatitudeDegrees>41.19328130967915058135986328125</LatitudeDegrees>
              <LongitudeDegrees>-2.87121129222214221954345703125</LongitudeDegrees>
            </Position>
            <AltitudeMeters>1103.199951171875</AltitudeMeters>
            <DistanceMeters>80131.356401679</DistanceMeters>
          </Trackpoint>
          <Trackpoint>
            <Time>2021-07-27T14:36:47.000Z</Time>
            <Position>
              <LatitudeDegrees>41.19325264357030391693115234375</LatitudeDegrees>
              <LongitudeDegrees>-2.87056513130664825439453125</LongitudeDegrees>
            </Position>
            <AltitudeMeters>1105</AltitudeMeters>
            <DistanceMeters>80185.568788271</DistanceMeters>
          </Trackpoint>
          <Trackpoint>
            <Time>2021-07-27T14:37:07.000Z</Time>
            <Position>
              <LatitudeDegrees>41.19372689165174961090087890625</LatitudeDegrees>
              <LongitudeDegrees>-2.87028894759714603424072265625</LongitudeDegrees>
            </Position>
            <AltitudeMeters>1107</AltitudeMeters>
            <DistanceMeters>80243.199337255</DistanceMeters>
          </Trackpoint>
          <Trackpoint>
            <Time>2021-07-27T14:37:13.000Z</Time>
            <Position>
              <LatitudeDegrees>41.19388514198362827301025390625</LatitudeDegrees>
              <LongitudeDegrees>-2.87026966921985149383544921875</LongitudeDegrees>
            </Position>
            <AltitudeMeters>1107.4000244140625</AltitudeMeters>
            <DistanceMeters>80260.886563389</DistanceMeters>
          </Trackpoint>
          <Trackpoint>
            <Time>2021-07-27T14:37:33.000Z</Time>
            <Position>
              <LatitudeDegrees>41.19440465234220027923583984375</LatitudeDegrees>
              <LongitudeDegrees>-2.870170511305332183837890625</LongitudeDegrees>
            </Position>
            <AltitudeMeters>1107.5999755859375</AltitudeMeters>
            <DistanceMeters>80319.3024149</DistanceMeters>
          </Trackpoint>
          <Trackpoint>
            <Time>2021-07-27T14:37:50.000Z</Time>
            <Position>
              <LatitudeDegrees>41.1948193050920963287353515625</LatitudeDegrees>
              <LongitudeDegrees>-2.8701768815517425537109375</LongitudeDegrees>
            </Position>
            <AltitudeMeters>1107.5999755859375</AltitudeMeters>
            <DistanceMeters>80365.457233433</DistanceMeters>
          </Trackpoint>
          <Trackpoint>
            <Time>2021-07-27T14:38:10.000Z</Time>
            <Position>
              <LatitudeDegrees>41.19524787180125713348388671875</LatitudeDegrees>
              <LongitudeDegrees>-2.870169840753078460693359375</LongitudeDegrees>
            </Position>
            <AltitudeMeters>1108.4000244140625</AltitudeMeters>
            <DistanceMeters>80413.161211932</DistanceMeters>
          </Trackpoint>
          <Trackpoint>
            <Time>2021-07-27T14:38:22.000Z</Time>
            <Position>
              <LatitudeDegrees>41.195459850132465362548828125</LatitudeDegrees>
              <LongitudeDegrees>-2.87016992457211017608642578125</LongitudeDegrees>
            </Position>
            <AltitudeMeters>1108.5999755859375</AltitudeMeters>
            <DistanceMeters>80436.754643906</DistanceMeters>
          </Trackpoint>
          <Trackpoint>
            <Time>2021-07-27T14:38:30.000Z</Time>
            <Position>
              <LatitudeDegrees>41.195590607821941375732421875</LatitudeDegrees>
              <LongitudeDegrees>-2.87018434144556522369384765625</LongitudeDegrees>
            </Position>
            <AltitudeMeters>1109.800048828125</AltitudeMeters>
            <DistanceMeters>80451.357872497</DistanceMeters>
          </Trackpoint>
          <Trackpoint>
            <Time>2021-07-27T14:38:34.000Z</Time>
            <Position>
              <LatitudeDegrees>41.19565506465733051300048828125</LatitudeDegrees>
              <LongitudeDegrees>-2.8701881133019924163818359375</LongitudeDegrees>
            </Position>
            <AltitudeMeters>1110.199951171875</AltitudeMeters>
            <DistanceMeters>80458.539151393</DistanceMeters>
          </Trackpoint>
          <Trackpoint>
            <Time>2021-07-27T14:38:40.000Z</Time>
            <Position>
              <LatitudeDegrees>41.195750199258327484130859375</LatitudeDegrees>
              <LongitudeDegrees>-2.87018383853137493133544921875</LongitudeDegrees>
            </Position>
            <AltitudeMeters>1110</AltitudeMeters>
            <DistanceMeters>80469.133671212</DistanceMeters>
          </Trackpoint>
          <Trackpoint>
            <Time>2021-07-27T14:38:47.000Z</Time>
            <Position>
              <LatitudeDegrees>41.19585790671408176422119140625</LatitudeDegrees>
              <LongitudeDegrees>-2.87014913745224475860595703125</LongitudeDegrees>
            </Position>
            <AltitudeMeters>1112</AltitudeMeters>
            <DistanceMeters>80481.468856175</DistanceMeters>
          </Trackpoint>
          <Trackpoint>
            <Time>2021-07-27T14:38:56.000Z</Time>
            <Position>
              <LatitudeDegrees>41.19599687866866588592529296875</LatitudeDegrees>
              <LongitudeDegrees>-2.87009985186159610748291015625</LongitudeDegrees>
            </Position>
            <AltitudeMeters>1114.4000244140625</AltitudeMeters>
            <DistanceMeters>80497.477967007</DistanceMeters>
          </Trackpoint>
          <Trackpoint>
            <Time>2021-07-27T14:39:10.000Z</Time>
            <Position>
              <LatitudeDegrees>41.19621279649436473846435546875</LatitudeDegrees>
              <LongitudeDegrees>-2.87002868950366973876953125</LongitudeDegrees>
            </Position>
            <AltitudeMeters>1117.800048828125</AltitudeMeters>
            <DistanceMeters>80522.237851696</DistanceMeters>
          </Trackpoint>
          <Trackpoint>
            <Time>2021-07-27T14:39:15.000Z</Time>
            <Position>
              <LatitudeDegrees>41.19628429412841796875</LatitudeDegrees>
              <LongitudeDegrees>-2.870003879070281982421875</LongitudeDegrees>
            </Position>
            <AltitudeMeters>1119</AltitudeMeters>
            <DistanceMeters>80530.462467349</DistanceMeters>
          </Trackpoint>
          <Trackpoint>
            <Time>2021-07-27T14:39:23.000Z</Time>
            <Position>
              <LatitudeDegrees>41.19639753364026546478271484375</LatitudeDegrees>
              <LongitudeDegrees>-2.869963981211185455322265625</LongitudeDegrees>
            </Position>
            <AltitudeMeters>1120.5999755859375</AltitudeMeters>
            <DistanceMeters>80543.501573119</DistanceMeters>
          </Trackpoint>
          <Trackpoint>
            <Time>2021-07-27T14:39:36.000Z</Time>
            <Position>
              <LatitudeDegrees>41.19658445008099079132080078125</LatitudeDegrees>
              <LongitudeDegrees>-2.86990405060350894927978515625</LongitudeDegrees>
            </Position>
            <AltitudeMeters>1123.800048828125</AltitudeMeters>
            <DistanceMeters>80564.902635645</DistanceMeters>
          </Trackpoint>
          <Trackpoint>
            <Time>2021-07-27T14:39:44.000Z</Time>
            <Position>
              <LatitudeDegrees>41.19669743813574314117431640625</LatitudeDegrees>
              <LongitudeDegrees>-2.86986172199249267578125</LongitudeDegrees>
            </Position>
            <AltitudeMeters>1124.5999755859375</AltitudeMeters>
            <DistanceMeters>80577.968722483</DistanceMeters>
          </Trackpoint>
          <Trackpoint>
            <Time>2021-07-27T14:39:55.000Z</Time>
            <Position>
              <LatitudeDegrees>41.196850575506687164306640625</LatitudeDegrees>
              <LongitudeDegrees>-2.86980514414608478546142578125</LongitudeDegrees>
            </Position>
            <AltitudeMeters>1125.800048828125</AltitudeMeters>
            <DistanceMeters>80595.659522052</DistanceMeters>
          </Trackpoint>
          <Trackpoint>
            <Time>2021-07-27T14:40:08.000Z</Time>
            <Position>
              <LatitudeDegrees>41.19702131487429141998291015625</LatitudeDegrees>
              <LongitudeDegrees>-2.86968846805393695831298828125</LongitudeDegrees>
            </Position>
            <AltitudeMeters>1127.4000244140625</AltitudeMeters>
            <DistanceMeters>80617.028070095</DistanceMeters>
          </Trackpoint>
          <Trackpoint>
            <Time>2021-07-27T14:40:17.000Z</Time>
            <Position>
              <LatitudeDegrees>41.19713254272937774658203125</LatitudeDegrees>
              <LongitudeDegrees>-2.8696000389754772186279296875</LongitudeDegrees>
            </Position>
            <AltitudeMeters>1128.4000244140625</AltitudeMeters>
            <DistanceMeters>80631.453989189</DistanceMeters>
          </Trackpoint>
          <Trackpoint>
            <Time>2021-07-27T14:40:24.000Z</Time>
            <Position>
              <LatitudeDegrees>41.19721661321818828582763671875</LatitudeDegrees>
              <LongitudeDegrees>-2.8695319779217243194580078125</LongitudeDegrees>
            </Position>
            <AltitudeMeters>1128.4000244140625</AltitudeMeters>
            <DistanceMeters>80642.410532269</DistanceMeters>
          </Trackpoint>
          <Trackpoint>
            <Time>2021-07-27T14:40:38.000Z</Time>
            <Position>
              <LatitudeDegrees>41.19738508947193622589111328125</LatitudeDegrees>
              <LongitudeDegrees>-2.86940717138350009918212890625</LongitudeDegrees>
            </Position>
            <AltitudeMeters>1128.800048828125</AltitudeMeters>
            <DistanceMeters>80663.878579258</DistanceMeters>
          </Trackpoint>
          <Trackpoint>
            <Time>2021-07-27T14:40:42.000Z</Time>
            <Position>
              <LatitudeDegrees>41.1974280886352062225341796875</LatitudeDegrees>
              <LongitudeDegrees>-2.8693735599517822265625</LongitudeDegrees>
            </Position>
            <AltitudeMeters>1128.800048828125</AltitudeMeters>
            <DistanceMeters>80669.430124169</DistanceMeters>
          </Trackpoint>
          <Trackpoint>
            <Time>2021-07-27T14:40:55.000Z</Time>
            <Position>
              <LatitudeDegrees>41.1976039409637451171875</LatitudeDegrees>
              <LongitudeDegrees>-2.86926694214344024658203125</LongitudeDegrees>
            </Position>
            <AltitudeMeters>1128</AltitudeMeters>
            <DistanceMeters>80690.943131349</DistanceMeters>
          </Trackpoint>
          <Trackpoint>
            <Time>2021-07-27T14:41:07.000Z</Time>
            <Position>
              <LatitudeDegrees>41.1977301724255084991455078125</LatitudeDegrees>
              <LongitudeDegrees>-2.8692308999598026275634765625</LongitudeDegrees>
            </Position>
            <AltitudeMeters>1127.800048828125</AltitudeMeters>
            <DistanceMeters>80705.313546033</DistanceMeters>
          </Trackpoint>
          <Trackpoint>
            <Time>2021-07-27T14:41:11.000Z</Time>
            <Position>
              <LatitudeDegrees>41.1977714113891124725341796875</LatitudeDegrees>
              <LongitudeDegrees>-2.8692825324833393096923828125</LongitudeDegrees>
            </Position>
            <AltitudeMeters>1128.800048828125</AltitudeMeters>
            <DistanceMeters>80711.619053672</DistanceMeters>
          </Trackpoint>
          <Trackpoint>
            <Time>2021-07-27T14:41:13.000Z</Time>
            <Position>
              <LatitudeDegrees>41.19779110886156558990478515625</LatitudeDegrees>
              <LongitudeDegrees>-2.86931782029569149017333984375</LongitudeDegrees>
            </Position>
            <AltitudeMeters>1129.199951171875</AltitudeMeters>
            <DistanceMeters>80715.299422494</DistanceMeters>
          </Trackpoint>
          <Trackpoint>
            <Time>2021-07-27T14:41:34.000Z</Time>
            <Position>
              <LatitudeDegrees>41.19806620292365550994873046875</LatitudeDegrees>
              <LongitudeDegrees>-2.86928261630237102508544921875</LongitudeDegrees>
            </Position>
            <AltitudeMeters>1131.5999755859375</AltitudeMeters>
            <DistanceMeters>80746.059468656</DistanceMeters>
          </Trackpoint>
          <Trackpoint>
            <Time>2021-07-27T14:41:49.000Z</Time>
            <Position>
              <LatitudeDegrees>41.19828061200678348541259765625</LatitudeDegrees>
              <LongitudeDegrees>-2.869159318506717681884765625</LongitudeDegrees>
            </Position>
            <AltitudeMeters>1133.199951171875</AltitudeMeters>
            <DistanceMeters>80772.061736704</DistanceMeters>
          </Trackpoint>
          <Trackpoint>
            <Time>2021-07-27T14:41:57.000Z</Time>
            <Position>
              <LatitudeDegrees>41.1983926780521869659423828125</LatitudeDegrees>
              <LongitudeDegrees>-2.86908715032041072845458984375</LongitudeDegrees>
            </Position>
            <AltitudeMeters>1135</AltitudeMeters>
            <DistanceMeters>80785.921962037</DistanceMeters>
          </Trackpoint>
          <Trackpoint>
            <Time>2021-07-27T14:42:09.000Z</Time>
            <Position>
              <LatitudeDegrees>41.19854564778506755828857421875</LatitudeDegrees>
              <LongitudeDegrees>-2.8689804486930370330810546875</LongitudeDegrees>
            </Position>
            <AltitudeMeters>1137.199951171875</AltitudeMeters>
            <DistanceMeters>80805.150260191</DistanceMeters>
          </Trackpoint>
          <Trackpoint>
            <Time>2021-07-27T14:42:14.000Z</Time>
            <Position>
              <LatitudeDegrees>41.19862410239875316619873046875</LatitudeDegrees>
              <LongitudeDegrees>-2.86897114478051662445068359375</LongitudeDegrees>
            </Position>
            <AltitudeMeters>1138.199951171875</AltitudeMeters>
            <DistanceMeters>80813.916957438</DistanceMeters>
          </Trackpoint>
          <Trackpoint>
            <Time>2021-07-27T14:42:18.000Z</Time>
            <Position>
              <LatitudeDegrees>41.19867757894098758697509765625</LatitudeDegrees>
              <LongitudeDegrees>-2.868990339338779449462890625</LongitudeDegrees>
            </Position>
            <AltitudeMeters>1139.199951171875</AltitudeMeters>
            <DistanceMeters>80820.082719502</DistanceMeters>
          </Trackpoint>
          <Trackpoint>
            <Time>2021-07-27T14:42:24.000Z</Time>
            <Position>
              <LatitudeDegrees>41.19874446652829647064208984375</LatitudeDegrees>
              <LongitudeDegrees>-2.86898321472108364105224609375</LongitudeDegrees>
            </Position>
            <AltitudeMeters>1140</AltitudeMeters>
            <DistanceMeters>80827.551843431</DistanceMeters>
          </Trackpoint>
          <Trackpoint>
            <Time>2021-07-27T14:42:33.000Z</Time>
            <Position>
              <LatitudeDegrees>41.1988613940775394439697265625</LatitudeDegrees>
              <LongitudeDegrees>-2.86899327300488948822021484375</LongitudeDegrees>
            </Position>
            <AltitudeMeters>1141.5999755859375</AltitudeMeters>
            <DistanceMeters>80840.593719059</DistanceMeters>
          </Trackpoint>
          <Trackpoint>
            <Time>2021-07-27T14:42:39.000Z</Time>
            <Position>
              <LatitudeDegrees>41.1989257670938968658447265625</LatitudeDegrees>
              <LongitudeDegrees>-2.869036607444286346435546875</LongitudeDegrees>
            </Position>
            <AltitudeMeters>1142.5999755859375</AltitudeMeters>
            <DistanceMeters>80848.624460368</DistanceMeters>
          </Trackpoint>
          <Trackpoint>
            <Time>2021-07-27T14:42:47.000Z</Time>
            <Position>
              <LatitudeDegrees>41.19901218451559543609619140625</LatitudeDegrees>
              <LongitudeDegrees>-2.86906284280121326446533203125</LongitudeDegrees>
            </Position>
            <AltitudeMeters>1143.800048828125</AltitudeMeters>
            <DistanceMeters>80858.489862737</DistanceMeters>
          </Trackpoint>
          <Trackpoint>
            <Time>2021-07-27T14:42:48.000Z</Time>
            <Position>
              <LatitudeDegrees>41.19902350008487701416015625</LatitudeDegrees>
              <LongitudeDegrees>-2.86906301043927669525146484375</LongitudeDegrees>
            </Position>
            <AltitudeMeters>1143.800048828125</AltitudeMeters>
            <DistanceMeters>80859.750534564</DistanceMeters>
          </Trackpoint>
          <Trackpoint>
            <Time>2021-07-27T14:43:01.000Z</Time>
            <Position>
              <LatitudeDegrees>41.19914847426116466522216796875</LatitudeDegrees>
              <LongitudeDegrees>-2.8690944425761699676513671875</LongitudeDegrees>
            </Position>
            <AltitudeMeters>1145</AltitudeMeters>
            <DistanceMeters>80873.907282658</DistanceMeters>
          </Trackpoint>
          <Trackpoint>
            <Time>2021-07-27T14:43:09.000Z</Time>
            <Position>
              <LatitudeDegrees>41.19922609068453311920166015625</LatitudeDegrees>
              <LongitudeDegrees>-2.8691071830689907073974609375</LongitudeDegrees>
            </Position>
            <AltitudeMeters>1145.4000244140625</AltitudeMeters>
            <DistanceMeters>80882.612476597</DistanceMeters>
          </Trackpoint>
          <Trackpoint>
            <Time>2021-07-27T14:43:19.000Z</Time>
            <Position>
              <LatitudeDegrees>41.1993084847927093505859375</LatitudeDegrees>
              <LongitudeDegrees>-2.86911447532474994659423828125</LongitudeDegrees>
            </Position>
            <AltitudeMeters>1146.199951171875</AltitudeMeters>
            <DistanceMeters>80891.803579095</DistanceMeters>
          </Trackpoint>
          <Trackpoint>
            <Time>2021-07-27T14:43:28.000Z</Time>
            <Position>
              <LatitudeDegrees>41.19939900934696197509765625</LatitudeDegrees>
              <LongitudeDegrees>-2.86911405622959136962890625</LongitudeDegrees>
            </Position>
            <AltitudeMeters>1147</AltitudeMeters>
            <DistanceMeters>80901.879099895</DistanceMeters>
          </Trackpoint>
          <Trackpoint>
            <Time>2021-07-27T14:43:35.000Z</Time>
            <Position>
              <LatitudeDegrees>41.19947939179837703704833984375</LatitudeDegrees>
              <LongitudeDegrees>-2.869137860834598541259765625</LongitudeDegrees>
            </Position>
            <AltitudeMeters>1147.5999755859375</AltitudeMeters>
            <DistanceMeters>80911.045114909</DistanceMeters>
          </Trackpoint>
          <Trackpoint>
            <Time>2021-07-27T14:43:43.000Z</Time>
            <Position>
              <LatitudeDegrees>41.19955231435596942901611328125</LatitudeDegrees>
              <LongitudeDegrees>-2.86921019665896892547607421875</LongitudeDegrees>
            </Position>
            <AltitudeMeters>1148.4000244140625</AltitudeMeters>
            <DistanceMeters>80921.173375786</DistanceMeters>
          </Trackpoint>
          <Trackpoint>
            <Time>2021-07-27T14:43:57.000Z</Time>
            <Position>
              <LatitudeDegrees>41.19952482171356678009033203125</LatitudeDegrees>
              <LongitudeDegrees>-2.869322933256626129150390625</LongitudeDegrees>
            </Position>
            <AltitudeMeters>1149.5999755859375</AltitudeMeters>
            <DistanceMeters>80931.097641188</DistanceMeters>
          </Trackpoint>
          <Trackpoint>
            <Time>2021-07-27T14:44:01.000Z</Time>
            <Position>
              <LatitudeDegrees>41.19949397630989551544189453125</LatitudeDegrees>
              <LongitudeDegrees>-2.8693462349474430084228515625</LongitudeDegrees>
            </Position>
            <AltitudeMeters>1149.800048828125</AltitudeMeters>
            <DistanceMeters>80935.045540876</DistanceMeters>
          </Trackpoint>
          <Trackpoint>
            <Time>2021-07-27T14:44:05.000Z</Time>
            <Position>
              <LatitudeDegrees>41.199462376534938812255859375</LatitudeDegrees>
              <LongitudeDegrees>-2.8693737275898456573486328125</LongitudeDegrees>
            </Position>
            <AltitudeMeters>1150.199951171875</AltitudeMeters>
            <DistanceMeters>80939.248257798</DistanceMeters>
          </Trackpoint>
          <Trackpoint>
            <Time>2021-07-27T14:44:12.000Z</Time>
            <Position>
              <LatitudeDegrees>41.19940328411757946014404296875</LatitudeDegrees>
              <LongitudeDegrees>-2.8694146312773227691650390625</LongitudeDegrees>
            </Position>
            <AltitudeMeters>1150.5999755859375</AltitudeMeters>
            <DistanceMeters>80946.663995492</DistanceMeters>
          </Trackpoint>
          <Trackpoint>
            <Time>2021-07-27T14:44:18.000Z</Time>
            <Position>
              <LatitudeDegrees>41.19936279952526092529296875</LatitudeDegrees>
              <LongitudeDegrees>-2.869456708431243896484375</LongitudeDegrees>
            </Position>
            <AltitudeMeters>1151</AltitudeMeters>
            <DistanceMeters>80952.384572126</DistanceMeters>
          </Trackpoint>
          <Trackpoint>
            <Time>2021-07-27T14:44:26.000Z</Time>
            <Position>
              <LatitudeDegrees>41.19930689223110675811767578125</LatitudeDegrees>
              <LongitudeDegrees>-2.86952267400920391082763671875</LongitudeDegrees>
            </Position>
            <AltitudeMeters>1151.5999755859375</AltitudeMeters>
            <DistanceMeters>80960.705787553</DistanceMeters>
          </Trackpoint>
          <Trackpoint>
            <Time>2021-07-27T14:44:33.000Z</Time>
            <Position>
              <LatitudeDegrees>41.1992687545716762542724609375</LatitudeDegrees>
              <LongitudeDegrees>-2.86958620883524417877197265625</LongitudeDegrees>
            </Position>
            <AltitudeMeters>1152.4000244140625</AltitudeMeters>
            <DistanceMeters>80967.511982683</DistanceMeters>
          </Trackpoint>
          <Trackpoint>
            <Time>2021-07-27T14:44:42.000Z</Time>
            <Position>
              <LatitudeDegrees>41.1992067284882068634033203125</LatitudeDegrees>
              <LongitudeDegrees>-2.86967866122722625732421875</LongitudeDegrees>
            </Position>
            <AltitudeMeters>1153.800048828125</AltitudeMeters>
            <DistanceMeters>80977.885139913</DistanceMeters>
          </Trackpoint>
          <Trackpoint>
            <Time>2021-07-27T14:44:51.000Z</Time>
            <Position>
              <LatitudeDegrees>41.199155934154987335205078125</LatitudeDegrees>
              <LongitudeDegrees>-2.86979801952838897705078125</LongitudeDegrees>
            </Position>
            <AltitudeMeters>1156</AltitudeMeters>
            <DistanceMeters>80989.368834283</DistanceMeters>
          </Trackpoint>
          <Trackpoint>
            <Time>2021-07-27T14:44:58.000Z</Time>
            <Position>
              <LatitudeDegrees>41.19909281842410564422607421875</LatitudeDegrees>
              <LongitudeDegrees>-2.8698464669287204742431640625</LongitudeDegrees>
            </Position>
            <AltitudeMeters>1156.4000244140625</AltitudeMeters>
            <DistanceMeters>80997.481244352</DistanceMeters>
          </Trackpoint>
          <Trackpoint>
            <Time>2021-07-27T14:45:04.000Z</Time>
            <Position>
              <LatitudeDegrees>41.1990421079099178314208984375</LatitudeDegrees>
              <LongitudeDegrees>-2.86988661624491214752197265625</LongitudeDegrees>
            </Position>
            <AltitudeMeters>1156.199951171875</AltitudeMeters>
            <DistanceMeters>81004.051158004</DistanceMeters>
          </Trackpoint>
          <Trackpoint>
            <Time>2021-07-27T14:45:08.000Z</Time>
            <Position>
              <LatitudeDegrees>41.1989891342818737030029296875</LatitudeDegrees>
              <LongitudeDegrees>-2.869937159121036529541015625</LongitudeDegrees>
            </Position>
            <AltitudeMeters>1156.199951171875</AltitudeMeters>
            <DistanceMeters>81011.309357917</DistanceMeters>
          </Trackpoint>
          <Trackpoint>
            <Time>2021-07-27T14:45:13.000Z</Time>
            <Position>
              <LatitudeDegrees>41.19887924753129482269287109375</LatitudeDegrees>
              <LongitudeDegrees>-2.87005106918513774871826171875</LongitudeDegrees>
            </Position>
            <AltitudeMeters>1156.4000244140625</AltitudeMeters>
            <DistanceMeters>81026.820558927</DistanceMeters>
          </Trackpoint>
          <Trackpoint>
            <Time>2021-07-27T14:45:31.000Z</Time>
            <Position>
              <LatitudeDegrees>41.19853265583515167236328125</LatitudeDegrees>
              <LongitudeDegrees>-2.870411239564418792724609375</LongitudeDegrees>
            </Position>
            <AltitudeMeters>1155.5999755859375</AltitudeMeters>
            <DistanceMeters>81075.78947621</DistanceMeters>
          </Trackpoint>
          <Trackpoint>
            <Time>2021-07-27T14:45:36.000Z</Time>
            <Position>
              <LatitudeDegrees>41.19841841049492359161376953125</LatitudeDegrees>
              <LongitudeDegrees>-2.8704945556819438934326171875</LongitudeDegrees>
            </Position>
            <AltitudeMeters>1155</AltitudeMeters>
            <DistanceMeters>81090.294052074</DistanceMeters>
          </Trackpoint>
          <Trackpoint>
            <Time>2021-07-27T14:45:37.000Z</Time>
            <Position>
              <LatitudeDegrees>41.19839561171829700469970703125</LatitudeDegrees>
              <LongitudeDegrees>-2.8705041110515594482421875</LongitudeDegrees>
            </Position>
            <AltitudeMeters>1154.800048828125</AltitudeMeters>
            <DistanceMeters>81092.956496441</DistanceMeters>
          </Trackpoint>
          <Trackpoint>
            <Time>2021-07-27T14:45:39.000Z</Time>
            <Position>
              <LatitudeDegrees>41.1983511038124561309814453125</LatitudeDegrees>
              <LongitudeDegrees>-2.8704891912639141082763671875</LongitudeDegrees>
            </Position>
            <AltitudeMeters>1154</AltitudeMeters>
            <DistanceMeters>81098.065894742</DistanceMeters>
          </Trackpoint>
          <Trackpoint>
            <Time>2021-07-27T14:45:41.000Z</Time>
            <Position>
              <LatitudeDegrees>41.19831028394401073455810546875</LatitudeDegrees>
              <LongitudeDegrees>-2.870458178222179412841796875</LongitudeDegrees>
            </Position>
            <AltitudeMeters>1153</AltitudeMeters>
            <DistanceMeters>81103.298407693</DistanceMeters>
          </Trackpoint>
          <Trackpoint>
            <Time>2021-07-27T14:45:43.000Z</Time>
            <Position>
              <LatitudeDegrees>41.19826233945786952972412109375</LatitudeDegrees>
              <LongitudeDegrees>-2.870416603982448577880859375</LongitudeDegrees>
            </Position>
            <AltitudeMeters>1151.800048828125</AltitudeMeters>
            <DistanceMeters>81109.669451062</DistanceMeters>
          </Trackpoint>
          <Trackpoint>
            <Time>2021-07-27T14:45:46.000Z</Time>
            <Position>
              <LatitudeDegrees>41.1982034146785736083984375</LatitudeDegrees>
              <LongitudeDegrees>-2.8703477047383785247802734375</LongitudeDegrees>
            </Position>
            <AltitudeMeters>1149.800048828125</AltitudeMeters>
            <DistanceMeters>81118.404675498</DistanceMeters>
          </Trackpoint>
          <Trackpoint>
            <Time>2021-07-27T14:45:48.000Z</Time>
            <Position>
              <LatitudeDegrees>41.19817500002682209014892578125</LatitudeDegrees>
              <LongitudeDegrees>-2.87033504806458950042724609375</LongitudeDegrees>
            </Position>
            <AltitudeMeters>1149.199951171875</AltitudeMeters>
            <DistanceMeters>81121.740099636</DistanceMeters>
          </Trackpoint>
          <Trackpoint>
            <Time>2021-07-27T14:45:50.000Z</Time>
            <Position>
              <LatitudeDegrees>41.19814901612699031829833984375</LatitudeDegrees>
              <LongitudeDegrees>-2.870334796607494354248046875</LongitudeDegrees>
            </Position>
            <AltitudeMeters>1148.800048828125</AltitudeMeters>
            <DistanceMeters>81124.631786131</DistanceMeters>
          </Trackpoint>
          <Trackpoint>
            <Time>2021-07-27T14:46:00.000Z</Time>
            <Position>
              <LatitudeDegrees>41.1979175917804241180419921875</LatitudeDegrees>
              <LongitudeDegrees>-2.87043311633169651031494140625</LongitudeDegrees>
            </Position>
            <AltitudeMeters>1147.800048828125</AltitudeMeters>
            <DistanceMeters>81151.673857993</DistanceMeters>
          </Trackpoint>
          <Trackpoint>
            <Time>2021-07-27T14:46:01.000Z</Time>
            <Position>
              <LatitudeDegrees>41.19787509553134441375732421875</LatitudeDegrees>
              <LongitudeDegrees>-2.87044451572000980377197265625</LongitudeDegrees>
            </Position>
            <AltitudeMeters>1147.800048828125</AltitudeMeters>
            <DistanceMeters>81156.498745253</DistanceMeters>
          </Trackpoint>
          <Trackpoint>
            <Time>2021-07-27T14:46:07.000Z</Time>
            <Position>
              <LatitudeDegrees>41.1977466009557247161865234375</LatitudeDegrees>
              <LongitudeDegrees>-2.87044401280581951141357421875</LongitudeDegrees>
            </Position>
            <AltitudeMeters>1147.4000244140625</AltitudeMeters>
            <DistanceMeters>81170.800502542</DistanceMeters>
          </Trackpoint>
          <Trackpoint>
            <Time>2021-07-27T14:46:22.000Z</Time>
            <Position>
              <LatitudeDegrees>41.19750092737376689910888671875</LatitudeDegrees>
              <LongitudeDegrees>-2.8705190308392047882080078125</LongitudeDegrees>
            </Position>
            <AltitudeMeters>1146.5999755859375</AltitudeMeters>
            <DistanceMeters>81198.857049439</DistanceMeters>
          </Trackpoint>
          <Trackpoint>
            <Time>2021-07-27T14:46:30.000Z</Time>
            <Position>
              <LatitudeDegrees>41.19741844944655895233154296875</LatitudeDegrees>
              <LongitudeDegrees>-2.870515845715999603271484375</LongitudeDegrees>
            </Position>
            <AltitudeMeters>1145</AltitudeMeters>
            <DistanceMeters>81208.040780379</DistanceMeters>
          </Trackpoint>
          <Trackpoint>
            <Time>2021-07-27T14:46:50.000Z</Time>
            <Position>
              <LatitudeDegrees>41.197388358414173126220703125</LatitudeDegrees>
              <LongitudeDegrees>-2.87053068168461322784423828125</LongitudeDegrees>
            </Position>
            <AltitudeMeters>1145</AltitudeMeters>
            <DistanceMeters>81211.612824334</DistanceMeters>
          </Trackpoint>
          <Trackpoint>
            <Time>2021-07-27T14:46:53.000Z</Time>
            <Position>
              <LatitudeDegrees>41.19731904007494449615478515625</LatitudeDegrees>
              <LongitudeDegrees>-2.87058264948427677154541015625</LongitudeDegrees>
            </Position>
            <AltitudeMeters>1145.4000244140625</AltitudeMeters>
            <DistanceMeters>81220.471230754</DistanceMeters>
          </Trackpoint>
          <Trackpoint>
            <Time>2021-07-27T14:46:55.000Z</Time>
            <Position>
              <LatitudeDegrees>41.19725734926760196685791015625</LatitudeDegrees>
              <LongitudeDegrees>-2.87063662894070148468017578125</LongitudeDegrees>
            </Position>
            <AltitudeMeters>1146</AltitudeMeters>
            <DistanceMeters>81228.692002743</DistanceMeters>
          </Trackpoint>
          <Trackpoint>
            <Time>2021-07-27T14:46:58.000Z</Time>
            <Position>
              <LatitudeDegrees>41.19715668261051177978515625</LatitudeDegrees>
              <LongitudeDegrees>-2.870757579803466796875</LongitudeDegrees>
            </Position>
            <AltitudeMeters>1147.4000244140625</AltitudeMeters>
            <DistanceMeters>81243.796468353</DistanceMeters>
          </Trackpoint>
          <Trackpoint>
            <Time>2021-07-27T14:47:02.000Z</Time>
            <Position>
              <LatitudeDegrees>41.19703271426260471343994140625</LatitudeDegrees>
              <LongitudeDegrees>-2.87094977684319019317626953125</LongitudeDegrees>
            </Position>
            <AltitudeMeters>1149</AltitudeMeters>
            <DistanceMeters>81264.997437319</DistanceMeters>
          </Trackpoint>
          <Trackpoint>
            <Time>2021-07-27T14:47:04.000Z</Time>
            <Position>
              <LatitudeDegrees>41.1969808302819728851318359375</LatitudeDegrees>
              <LongitudeDegrees>-2.8710092045366764068603515625</LongitudeDegrees>
            </Position>
            <AltitudeMeters>1149</AltitudeMeters>
            <DistanceMeters>81272.620925496</DistanceMeters>
          </Trackpoint>
          <Trackpoint>
            <Time>2021-07-27T14:47:06.000Z</Time>
            <Position>
              <LatitudeDegrees>41.19693808257579803466796875</LatitudeDegrees>
              <LongitudeDegrees>-2.87100191228091716766357421875</LongitudeDegrees>
            </Position>
            <AltitudeMeters>1147.800048828125</AltitudeMeters>
            <DistanceMeters>81277.417657173</DistanceMeters>
          </Trackpoint>
          <Trackpoint>
            <Time>2021-07-27T14:47:12.000Z</Time>
            <Position>
              <LatitudeDegrees>41.19697588495910167694091796875</LatitudeDegrees>
              <LongitudeDegrees>-2.870872579514980316162109375</LongitudeDegrees>
            </Position>
            <AltitudeMeters>1146.199951171875</AltitudeMeters>
            <DistanceMeters>81289.037369002</DistanceMeters>
          </Trackpoint>
          <Trackpoint>
            <Time>2021-07-27T14:47:24.000Z</Time>
            <Position>
              <LatitudeDegrees>41.1972443573176860809326171875</LatitudeDegrees>
              <LongitudeDegrees>-2.87046228535473346710205078125</LongitudeDegrees>
            </Position>
            <AltitudeMeters>1140.800048828125</AltitudeMeters>
            <DistanceMeters>81334.574503676</DistanceMeters>
          </Trackpoint>
          <Trackpoint>
            <Time>2021-07-27T14:47:27.000Z</Time>
            <Position>
              <LatitudeDegrees>41.197341419756412506103515625</LatitudeDegrees>
              <LongitudeDegrees>-2.87031702697277069091796875</LongitudeDegrees>
            </Position>
            <AltitudeMeters>1138.4000244140625</AltitudeMeters>
            <DistanceMeters>81350.844065157</DistanceMeters>
          </Trackpoint>
          <Trackpoint>
            <Time>2021-07-27T14:47:31.000Z</Time>
            <Position>
              <LatitudeDegrees>41.19744912721216678619384765625</LatitudeDegrees>
              <LongitudeDegrees>-2.87012164480984210968017578125</LongitudeDegrees>
            </Position>
            <AltitudeMeters>1135</AltitudeMeters>
            <DistanceMeters>81371.128429411</DistanceMeters>
          </Trackpoint>
          <Trackpoint>
            <Time>2021-07-27T14:47:34.000Z</Time>
            <Position>
              <LatitudeDegrees>41.19750444777309894561767578125</LatitudeDegrees>
              <LongitudeDegrees>-2.86995819769799709320068359375</LongitudeDegrees>
            </Position>
            <AltitudeMeters>1133</AltitudeMeters>
            <DistanceMeters>81386.137838031</DistanceMeters>
          </Trackpoint>
          <Trackpoint>
            <Time>2021-07-27T14:47:35.000Z</Time>
            <Position>
              <LatitudeDegrees>41.1975169368088245391845703125</LatitudeDegrees>
              <LongitudeDegrees>-2.86989415995776653289794921875</LongitudeDegrees>
            </Position>
            <AltitudeMeters>1132.4000244140625</AltitudeMeters>
            <DistanceMeters>81391.677170098</DistanceMeters>
          </Trackpoint>
          <Trackpoint>
            <Time>2021-07-27T14:47:36.000Z</Time>
            <Position>
              <LatitudeDegrees>41.19752657599747180938720703125</LatitudeDegrees>
              <LongitudeDegrees>-2.86982442252337932586669921875</LongitudeDegrees>
            </Position>
            <AltitudeMeters>1131.800048828125</AltitudeMeters>
            <DistanceMeters>81397.61614969</DistanceMeters>
          </Trackpoint>
          <Trackpoint>
            <Time>2021-07-27T14:47:38.000Z</Time>
            <Position>
              <LatitudeDegrees>41.197546608746051788330078125</LatitudeDegrees>
              <LongitudeDegrees>-2.86967673338949680328369140625</LongitudeDegrees>
            </Position>
            <AltitudeMeters>1131</AltitudeMeters>
            <DistanceMeters>81410.184847209</DistanceMeters>
          </Trackpoint>
          <Trackpoint>
            <Time>2021-07-27T14:47:39.000Z</Time>
            <Position>
              <LatitudeDegrees>41.19756303727626800537109375</LatitudeDegrees>
              <LongitudeDegrees>-2.86960632540285587310791015625</LongitudeDegrees>
            </Position>
            <AltitudeMeters>1130.800048828125</AltitudeMeters>
            <DistanceMeters>81416.359390329</DistanceMeters>
          </Trackpoint>
          <Trackpoint>
            <Time>2021-07-27T14:47:40.000Z</Time>
            <Position>
              <LatitudeDegrees>41.1975880153477191925048828125</LatitudeDegrees>
              <LongitudeDegrees>-2.86954765208065509796142578125</LongitudeDegrees>
            </Position>
            <AltitudeMeters>1130.5999755859375</AltitudeMeters>
            <DistanceMeters>81422.005288827</DistanceMeters>
          </Trackpoint>
          <Trackpoint>
            <Time>2021-07-27T14:47:41.000Z</Time>
            <Position>
              <LatitudeDegrees>41.19761609472334384918212890625</LatitudeDegrees>
              <LongitudeDegrees>-2.8694994561374187469482421875</LongitudeDegrees>
            </Position>
            <AltitudeMeters>1130.199951171875</AltitudeMeters>
            <DistanceMeters>81427.109382335</DistanceMeters>
          </Trackpoint>
          <Trackpoint>
            <Time>2021-07-27T14:47:43.000Z</Time>
            <Position>
              <LatitudeDegrees>41.19767024181783199310302734375</LatitudeDegrees>
              <LongitudeDegrees>-2.8694183193147182464599609375</LongitudeDegrees>
            </Position>
            <AltitudeMeters>1129.5999755859375</AltitudeMeters>
            <DistanceMeters>81436.191271909</DistanceMeters>
          </Trackpoint>
          <Trackpoint>
            <Time>2021-07-27T14:47:49.000Z</Time>
            <Position>
              <LatitudeDegrees>41.19764476083219051361083984375</LatitudeDegrees>
              <LongitudeDegrees>-2.86931253969669342041015625</LongitudeDegrees>
            </Position>
            <AltitudeMeters>1128.4000244140625</AltitudeMeters>
            <DistanceMeters>81445.493217538</DistanceMeters>
          </Trackpoint>
          <Trackpoint>
            <Time>2021-07-27T14:47:51.000Z</Time>
            <Position>
              <LatitudeDegrees>41.19759798981249332427978515625</LatitudeDegrees>
              <LongitudeDegrees>-2.8693368472158908843994140625</LongitudeDegrees>
            </Position>
            <AltitudeMeters>1128.4000244140625</AltitudeMeters>
            <DistanceMeters>81451.082856569</DistanceMeters>
          </Trackpoint>
          <Trackpoint>
            <Time>2021-07-27T14:47:52.000Z</Time>
            <Position>
              <LatitudeDegrees>41.19756882078945636749267578125</LatitudeDegrees>
              <LongitudeDegrees>-2.86935411393642425537109375</LongitudeDegrees>
            </Position>
            <AltitudeMeters>1128.5999755859375</AltitudeMeters>
            <DistanceMeters>81454.638430647</DistanceMeters>
          </Trackpoint>
          <Trackpoint>
            <Time>2021-07-27T14:47:56.000Z</Time>
            <Position>
              <LatitudeDegrees>41.19743756018579006195068359375</LatitudeDegrees>
              <LongitudeDegrees>-2.86944799125194549560546875</LongitudeDegrees>
            </Position>
            <AltitudeMeters>1129.199951171875</AltitudeMeters>
            <DistanceMeters>81471.229235033</DistanceMeters>
          </Trackpoint>
          <Trackpoint>
            <Time>2021-07-27T14:47:58.000Z</Time>
            <Position>
              <LatitudeDegrees>41.19736195541918277740478515625</LatitudeDegrees>
              <LongitudeDegrees>-2.869503982365131378173828125</LongitudeDegrees>
            </Position>
            <AltitudeMeters>1129.4000244140625</AltitudeMeters>
            <DistanceMeters>81480.86308814</DistanceMeters>
          </Trackpoint>
          <Trackpoint>
            <Time>2021-07-27T14:48:02.000Z</Time>
            <Position>
              <LatitudeDegrees>41.19718526490032672882080078125</LatitudeDegrees>
              <LongitudeDegrees>-2.86963918246328830718994140625</LongitudeDegrees>
            </Position>
            <AltitudeMeters>1129</AltitudeMeters>
            <DistanceMeters>81503.555777918</DistanceMeters>
          </Trackpoint>
          <Trackpoint>
            <Time>2021-07-27T14:48:04.000Z</Time>
            <Position>
              <LatitudeDegrees>41.19707412086427211761474609375</LatitudeDegrees>
              <LongitudeDegrees>-2.86972065456211566925048828125</LongitudeDegrees>
            </Position>
            <AltitudeMeters>1128.4000244140625</AltitudeMeters>
            <DistanceMeters>81517.683153809</DistanceMeters>
          </Trackpoint>
          <Trackpoint>
            <Time>2021-07-27T14:48:05.000Z</Time>
            <Position>
              <LatitudeDegrees>41.1970130167901515960693359375</LatitudeDegrees>
              <LongitudeDegrees>-2.86975921131670475006103515625</LongitudeDegrees>
            </Position>
            <AltitudeMeters>1127.800048828125</AltitudeMeters>
            <DistanceMeters>81525.211285035</DistanceMeters>
          </Trackpoint>
          <Trackpoint>
            <Time>2021-07-27T14:48:07.000Z</Time>
            <Position>
              <LatitudeDegrees>41.19688435457646846771240234375</LatitudeDegrees>
              <LongitudeDegrees>-2.8698390908539295196533203125</LongitudeDegrees>
            </Position>
            <AltitudeMeters>1126.4000244140625</AltitudeMeters>
            <DistanceMeters>81541.017173017</DistanceMeters>
          </Trackpoint>
          <Trackpoint>
            <Time>2021-07-27T14:48:08.000Z</Time>
            <Position>
              <LatitudeDegrees>41.19681562297046184539794921875</LatitudeDegrees>
              <LongitudeDegrees>-2.8698753006756305694580078125</LongitudeDegrees>
            </Position>
            <AltitudeMeters>1126</AltitudeMeters>
            <DistanceMeters>81549.246727886</DistanceMeters>
          </Trackpoint>
          <Trackpoint>
            <Time>2021-07-27T14:48:10.000Z</Time>
            <Position>
              <LatitudeDegrees>41.19666676037013530731201171875</LatitudeDegrees>
              <LongitudeDegrees>-2.86993171088397502899169921875</LongitudeDegrees>
            </Position>
            <AltitudeMeters>1125</AltitudeMeters>
            <DistanceMeters>81566.475676573</DistanceMeters>
          </Trackpoint>
          <Trackpoint>
            <Time>2021-07-27T14:48:12.000Z</Time>
            <Position>
              <LatitudeDegrees>41.1965054087340831756591796875</LatitudeDegrees>
              <LongitudeDegrees>-2.86998434923589229583740234375</LongitudeDegrees>
            </Position>
            <AltitudeMeters>1123</AltitudeMeters>
            <DistanceMeters>81584.967591963</DistanceMeters>
          </Trackpoint>
          <Trackpoint>
            <Time>2021-07-27T14:48:14.000Z</Time>
            <Position>
              <LatitudeDegrees>41.1963354237377643585205078125</LatitudeDegrees>
              <LongitudeDegrees>-2.870045788586139678955078125</LongitudeDegrees>
            </Position>
            <AltitudeMeters>1120.199951171875</AltitudeMeters>
            <DistanceMeters>81604.574438072</DistanceMeters>
          </Trackpoint>
          <Trackpoint>
            <Time>2021-07-27T14:48:16.000Z</Time>
            <Position>
              <LatitudeDegrees>41.1961617507040500640869140625</LatitudeDegrees>
              <LongitudeDegrees>-2.87010907195508480072021484375</LongitudeDegrees>
            </Position>
            <AltitudeMeters>1117.4000244140625</AltitudeMeters>
            <DistanceMeters>81624.618092953</DistanceMeters>
          </Trackpoint>
          <Trackpoint>
            <Time>2021-07-27T14:48:17.000Z</Time>
            <Position>
              <LatitudeDegrees>41.19607583619654178619384765625</LatitudeDegrees>
              <LongitudeDegrees>-2.8701361455023288726806640625</LongitudeDegrees>
            </Position>
            <AltitudeMeters>1116</AltitudeMeters>
            <DistanceMeters>81634.445895233</DistanceMeters>
          </Trackpoint>
          <Trackpoint>
            <Time>2021-07-27T14:48:19.000Z</Time>
            <Position>
              <LatitudeDegrees>41.19590987451374530792236328125</LatitudeDegrees>
              <LongitudeDegrees>-2.87019104696810245513916015625</LongitudeDegrees>
            </Position>
            <AltitudeMeters>1112.800048828125</AltitudeMeters>
            <DistanceMeters>81653.481147986</DistanceMeters>
          </Trackpoint>
          <Trackpoint>
            <Time>2021-07-27T14:48:23.000Z</Time>
            <Position>
              <LatitudeDegrees>41.19560368359088897705078125</LatitudeDegrees>
              <LongitudeDegrees>-2.870275117456912994384765625</LongitudeDegrees>
            </Position>
            <AltitudeMeters>1110.5999755859375</AltitudeMeters>
            <DistanceMeters>81688.280652175</DistanceMeters>
          </Trackpoint>
          <Trackpoint>
            <Time>2021-07-27T14:48:24.000Z</Time>
            <Position>
              <LatitudeDegrees>41.19553000666201114654541015625</LatitudeDegrees>
              <LongitudeDegrees>-2.87027704529464244842529296875</LongitudeDegrees>
            </Position>
            <AltitudeMeters>1110.4000244140625</AltitudeMeters>
            <DistanceMeters>81696.482729321</DistanceMeters>
          </Trackpoint>
          <Trackpoint>
            <Time>2021-07-27T14:48:26.000Z</Time>
            <Position>
              <LatitudeDegrees>41.19538843631744384765625</LatitudeDegrees>
              <LongitudeDegrees>-2.8702533245086669921875</LongitudeDegrees>
            </Position>
            <AltitudeMeters>1109.4000244140625</AltitudeMeters>
            <DistanceMeters>81712.364419886</DistanceMeters>
          </Trackpoint>
          <Trackpoint>
            <Time>2021-07-27T14:48:28.000Z</Time>
            <Position>
              <LatitudeDegrees>41.19526312686502933502197265625</LatitudeDegrees>
              <LongitudeDegrees>-2.87020512856543064117431640625</LongitudeDegrees>
            </Position>
            <AltitudeMeters>1108.800048828125</AltitudeMeters>
            <DistanceMeters>81726.884551594</DistanceMeters>
          </Trackpoint>
          <Trackpoint>
            <Time>2021-07-27T14:48:37.000Z</Time>
            <Position>
              <LatitudeDegrees>41.195131950080394744873046875</LatitudeDegrees>
              <LongitudeDegrees>-2.86974973976612091064453125</LongitudeDegrees>
            </Position>
            <AltitudeMeters>1104.800048828125</AltitudeMeters>
            <DistanceMeters>81767.723159659</DistanceMeters>
          </Trackpoint>
          <Trackpoint>
            <Time>2021-07-27T14:48:38.000Z</Time>
            <Position>
              <LatitudeDegrees>41.19515315629541873931884765625</LatitudeDegrees>
              <LongitudeDegrees>-2.8697157092392444610595703125</LongitudeDegrees>
            </Position>
            <AltitudeMeters>1104.5999755859375</AltitudeMeters>
            <DistanceMeters>81771.425544842</DistanceMeters>
          </Trackpoint>
          <Trackpoint>
            <Time>2021-07-27T14:48:53.000Z</Time>
            <Position>
              <LatitudeDegrees>41.19531995616853237152099609375</LatitudeDegrees>
              <LongitudeDegrees>-2.86965946666896343231201171875</LongitudeDegrees>
            </Position>
            <AltitudeMeters>1105.5999755859375</AltitudeMeters>
            <DistanceMeters>81790.579027178</DistanceMeters>
          </Trackpoint>
          <Trackpoint>
            <Time>2021-07-28T07:33:42.000Z</Time>
            <Position>
              <LatitudeDegrees>41.19528274051845073699951171875</LatitudeDegrees>
              <LongitudeDegrees>-2.86999692209064960479736328125</LongitudeDegrees>
            </Position>
            <AltitudeMeters>1122.5999755859375</AltitudeMeters>
            <DistanceMeters>81819.143368361</DistanceMeters>
          </Trackpoint>
          <Trackpoint>
            <Time>2021-07-28T07:33:43.000Z</Time>
            <Position>
              <LatitudeDegrees>41.19528274051845073699951171875</LatitudeDegrees>
              <LongitudeDegrees>-2.86999692209064960479736328125</LongitudeDegrees>
            </Position>
            <AltitudeMeters>1123.5999755859375</AltitudeMeters>
            <DistanceMeters>81819.143368361</DistanceMeters>
          </Trackpoint>
          <Trackpoint>
            <Time>2021-07-28T07:33:53.000Z</Time>
            <Position>
              <LatitudeDegrees>41.1952521465718746185302734375</LatitudeDegrees>
              <LongitudeDegrees>-2.86999759264290332794189453125</LongitudeDegrees>
            </Position>
            <AltitudeMeters>1123.800048828125</AltitudeMeters>
            <DistanceMeters>81822.551106365</DistanceMeters>
          </Trackpoint>
          <Trackpoint>
            <Time>2021-07-28T07:33:56.000Z</Time>
            <Position>
              <LatitudeDegrees>41.19516505859792232513427734375</LatitudeDegrees>
              <LongitudeDegrees>-2.86997504532337188720703125</LongitudeDegrees>
            </Position>
            <AltitudeMeters>1122.5999755859375</AltitudeMeters>
            <DistanceMeters>81832.426572207</DistanceMeters>
          </Trackpoint>
          <Trackpoint>
            <Time>2021-07-28T07:34:00.000Z</Time>
            <Position>
              <LatitudeDegrees>41.19503815658390522003173828125</LatitudeDegrees>
              <LongitudeDegrees>-2.869982421398162841796875</LongitudeDegrees>
            </Position>
            <AltitudeMeters>1122</AltitudeMeters>
            <DistanceMeters>81846.564171438</DistanceMeters>
          </Trackpoint>
          <Trackpoint>
            <Time>2021-07-28T07:34:08.000Z</Time>
            <Position>
              <LatitudeDegrees>41.19513421319425106048583984375</LatitudeDegrees>
              <LongitudeDegrees>-2.870088033378124237060546875</LongitudeDegrees>
            </Position>
            <AltitudeMeters>1122.800048828125</AltitudeMeters>
            <DistanceMeters>81860.440024202</DistanceMeters>
          </Trackpoint>
          <Trackpoint>
            <Time>2021-07-28T07:34:13.000Z</Time>
            <Position>
              <LatitudeDegrees>41.1952176131308078765869140625</LatitudeDegrees>
              <LongitudeDegrees>-2.870137654244899749755859375</LongitudeDegrees>
            </Position>
            <AltitudeMeters>1123.5999755859375</AltitudeMeters>
            <DistanceMeters>81870.610546591</DistanceMeters>
          </Trackpoint>
          <Trackpoint>
            <Time>2021-07-28T07:34:23.000Z</Time>
            <Position>
              <LatitudeDegrees>41.19540310464799404144287109375</LatitudeDegrees>
              <LongitudeDegrees>-2.87018283270299434661865234375</LongitudeDegrees>
            </Position>
            <AltitudeMeters>1124.800048828125</AltitudeMeters>
            <DistanceMeters>81891.599622545</DistanceMeters>
          </Trackpoint>
          <Trackpoint>
            <Time>2021-07-28T07:34:30.000Z</Time>
            <Position>
              <LatitudeDegrees>41.1955327726900577545166015625</LatitudeDegrees>
              <LongitudeDegrees>-2.87019238807260990142822265625</LongitudeDegrees>
            </Position>
            <AltitudeMeters>1126</AltitudeMeters>
            <DistanceMeters>81906.05368248</DistanceMeters>
          </Trackpoint>
          <Trackpoint>
            <Time>2021-07-28T07:34:38.000Z</Time>
            <Position>
              <LatitudeDegrees>41.1956782825291156768798828125</LatitudeDegrees>
              <LongitudeDegrees>-2.8701907955110073089599609375</LongitudeDegrees>
            </Position>
            <AltitudeMeters>1127.199951171875</AltitudeMeters>
            <DistanceMeters>81922.24953567</DistanceMeters>
          </Trackpoint>
          <Trackpoint>
            <Time>2021-07-28T07:34:46.000Z</Time>
            <Position>
              <LatitudeDegrees>41.19582102634012699127197265625</LatitudeDegrees>
              <LongitudeDegrees>-2.87015207111835479736328125</LongitudeDegrees>
            </Position>
            <AltitudeMeters>1128.4000244140625</AltitudeMeters>
            <DistanceMeters>81938.464891537</DistanceMeters>
          </Trackpoint>
          <Trackpoint>
            <Time>2021-07-28T07:34:52.000Z</Time>
            <Position>
              <LatitudeDegrees>41.19592412374913692474365234375</LatitudeDegrees>
              <LongitudeDegrees>-2.8701197169721126556396484375</LongitudeDegrees>
            </Position>
            <AltitudeMeters>1129.4000244140625</AltitudeMeters>
            <DistanceMeters>81950.255099202</DistanceMeters>
          </Trackpoint>
          <Trackpoint>
            <Time>2021-07-28T07:35:00.000Z</Time>
            <Position>
              <LatitudeDegrees>41.1960534565150737762451171875</LatitudeDegrees>
              <LongitudeDegrees>-2.8700764663517475128173828125</LongitudeDegrees>
            </Position>
            <AltitudeMeters>1130.4000244140625</AltitudeMeters>
            <DistanceMeters>81965.098746504</DistanceMeters>
          </Trackpoint>
          <Trackpoint>
            <Time>2021-07-28T07:35:11.000Z</Time>
            <Position>
              <LatitudeDegrees>41.19622989557683467864990234375</LatitudeDegrees>
              <LongitudeDegrees>-2.8700130991637706756591796875</LongitudeDegrees>
            </Position>
            <AltitudeMeters>1131.5999755859375</AltitudeMeters>
            <DistanceMeters>81985.441566939</DistanceMeters>
          </Trackpoint>
          <Trackpoint>
            <Time>2021-07-28T07:35:18.000Z</Time>
            <Position>
              <LatitudeDegrees>41.1963427998125553131103515625</LatitudeDegrees>
              <LongitudeDegrees>-2.869986109435558319091796875</LongitudeDegrees>
            </Position>
            <AltitudeMeters>1132.800048828125</AltitudeMeters>
            <DistanceMeters>81998.209847956</DistanceMeters>
          </Trackpoint>
          <Trackpoint>
            <Time>2021-07-28T07:35:25.000Z</Time>
            <Position>
              <LatitudeDegrees>41.19645151309669017791748046875</LatitudeDegrees>
              <LongitudeDegrees>-2.86994394846260547637939453125</LongitudeDegrees>
            </Position>
            <AltitudeMeters>1134</AltitudeMeters>
            <DistanceMeters>82010.814775367</DistanceMeters>
          </Trackpoint>
          <Trackpoint>
            <Time>2021-07-28T07:35:35.000Z</Time>
            <Position>
              <LatitudeDegrees>41.19660423137247562408447265625</LatitudeDegrees>
              <LongitudeDegrees>-2.86989147774875164031982421875</LongitudeDegrees>
            </Position>
            <AltitudeMeters>1135.199951171875</AltitudeMeters>
            <DistanceMeters>82028.371330534</DistanceMeters>
          </Trackpoint>
          <Trackpoint>
            <Time>2021-07-28T07:35:45.000Z</Time>
            <Position>
              <LatitudeDegrees>41.19676248170435428619384765625</LatitudeDegrees>
              <LongitudeDegrees>-2.86984118632972240447998046875</LongitudeDegrees>
            </Position>
            <AltitudeMeters>1136.199951171875</AltitudeMeters>
            <DistanceMeters>82046.481587476</DistanceMeters>
          </Trackpoint>
          <Trackpoint>
            <Time>2021-07-28T07:36:05.000Z</Time>
            <Position>
              <LatitudeDegrees>41.19705299846827983856201171875</LatitudeDegrees>
              <LongitudeDegrees>-2.86966449581086635589599609375</LongitudeDegrees>
            </Position>
            <AltitudeMeters>1137.5999755859375</AltitudeMeters>
            <DistanceMeters>82082.041899411</DistanceMeters>
          </Trackpoint>
          <Trackpoint>
            <Time>2021-07-28T07:36:09.000Z</Time>
            <Position>
              <LatitudeDegrees>41.1971109174191951751708984375</LatitudeDegrees>
              <LongitudeDegrees>-2.8696282021701335906982421875</LongitudeDegrees>
            </Position>
            <AltitudeMeters>1138.800048828125</AltitudeMeters>
            <DistanceMeters>82089.169536472</DistanceMeters>
          </Trackpoint>
          <Trackpoint>
            <Time>2021-07-28T07:36:13.000Z</Time>
            <Position>
              <LatitudeDegrees>41.19716548360884189605712890625</LatitudeDegrees>
              <LongitudeDegrees>-2.86958604119718074798583984375</LongitudeDegrees>
            </Position>
            <AltitudeMeters>1139.800048828125</AltitudeMeters>
            <DistanceMeters>82096.195089678</DistanceMeters>
          </Trackpoint>
          <Trackpoint>
            <Time>2021-07-28T07:36:37.000Z</Time>
            <Position>
              <LatitudeDegrees>41.19750495068728923797607421875</LatitudeDegrees>
              <LongitudeDegrees>-2.86936056800186634063720703125</LongitudeDegrees>
            </Position>
            <AltitudeMeters>1141</AltitudeMeters>
            <DistanceMeters>82138.434223708</DistanceMeters>
          </Trackpoint>
          <Trackpoint>
            <Time>2021-07-28T07:36:44.000Z</Time>
            <Position>
              <LatitudeDegrees>41.19761642999947071075439453125</LatitudeDegrees>
              <LongitudeDegrees>-2.869302816689014434814453125</LongitudeDegrees>
            </Position>
            <AltitudeMeters>1142.4000244140625</AltitudeMeters>
            <DistanceMeters>82151.750853958</DistanceMeters>
          </Trackpoint>
          <Trackpoint>
            <Time>2021-07-28T07:36:48.000Z</Time>
            <Position>
              <LatitudeDegrees>41.19768952019512653350830078125</LatitudeDegrees>
              <LongitudeDegrees>-2.8692714683711528778076171875</LongitudeDegrees>
            </Position>
            <AltitudeMeters>1143.4000244140625</AltitudeMeters>
            <DistanceMeters>82160.297977359</DistanceMeters>
          </Trackpoint>
          <Trackpoint>
            <Time>2021-07-28T07:37:06.000Z</Time>
            <Position>
              <LatitudeDegrees>41.19809822179377079010009765625</LatitudeDegrees>
              <LongitudeDegrees>-2.86902428604662418365478515625</LongitudeDegrees>
            </Position>
            <AltitudeMeters>1142.4000244140625</AltitudeMeters>
            <DistanceMeters>82210.27606701</DistanceMeters>
          </Trackpoint>
          <Trackpoint>
            <Time>2021-07-28T07:37:13.000Z</Time>
            <Position>
              <LatitudeDegrees>41.1982967890799045562744140625</LatitudeDegrees>
              <LongitudeDegrees>-2.8688143193721771240234375</LongitudeDegrees>
            </Position>
            <AltitudeMeters>1141.800048828125</AltitudeMeters>
            <DistanceMeters>82238.518671572</DistanceMeters>
          </Trackpoint>
          <Trackpoint>
            <Time>2021-07-28T07:37:14.000Z</Time>
            <Position>
              <LatitudeDegrees>41.198318414390087127685546875</LatitudeDegrees>
              <LongitudeDegrees>-2.86876511760056018829345703125</LongitudeDegrees>
            </Position>
            <AltitudeMeters>1141.5999755859375</AltitudeMeters>
            <DistanceMeters>82243.290867376</DistanceMeters>
          </Trackpoint>
          <Trackpoint>
            <Time>2021-07-28T07:37:18.000Z</Time>
            <Position>
              <LatitudeDegrees>41.19840432889759540557861328125</LatitudeDegrees>
              <LongitudeDegrees>-2.86854517646133899688720703125</LongitudeDegrees>
            </Position>
            <AltitudeMeters>1140.4000244140625</AltitudeMeters>
            <DistanceMeters>82264.044579965</DistanceMeters>
          </Trackpoint>
          <Trackpoint>
            <Time>2021-07-28T07:37:22.000Z</Time>
            <Position>
              <LatitudeDegrees>41.198550760746002197265625</LatitudeDegrees>
              <LongitudeDegrees>-2.86837041378021240234375</LongitudeDegrees>
            </Position>
            <AltitudeMeters>1139.800048828125</AltitudeMeters>
            <DistanceMeters>82285.94983509</DistanceMeters>
          </Trackpoint>
          <Trackpoint>
            <Time>2021-07-28T07:37:24.000Z</Time>
            <Position>
              <LatitudeDegrees>41.1986307241022586822509765625</LatitudeDegrees>
              <LongitudeDegrees>-2.8683008439838886260986328125</LongitudeDegrees>
            </Position>
            <AltitudeMeters>1139.199951171875</AltitudeMeters>
            <DistanceMeters>82296.587310726</DistanceMeters>
          </Trackpoint>
          <Trackpoint>
            <Time>2021-07-28T07:37:32.000Z</Time>
            <Position>
              <LatitudeDegrees>41.1988610588014125823974609375</LatitudeDegrees>
              <LongitudeDegrees>-2.86809456534683704376220703125</LongitudeDegrees>
            </Position>
            <AltitudeMeters>1141</AltitudeMeters>
            <DistanceMeters>82327.501094386</DistanceMeters>
          </Trackpoint>
          <Trackpoint>
            <Time>2021-07-28T07:37:35.000Z</Time>
            <Position>
              <LatitudeDegrees>41.1989257670938968658447265625</LatitudeDegrees>
              <LongitudeDegrees>-2.8680430166423320770263671875</LongitudeDegrees>
            </Position>
            <AltitudeMeters>1142</AltitudeMeters>
            <DistanceMeters>82335.897929318</DistanceMeters>
          </Trackpoint>
          <Trackpoint>
            <Time>2021-07-28T07:37:44.000Z</Time>
            <Position>
              <LatitudeDegrees>41.19909600354731082916259765625</LatitudeDegrees>
              <LongitudeDegrees>-2.86790647543966770172119140625</LongitudeDegrees>
            </Position>
            <AltitudeMeters>1143.199951171875</AltitudeMeters>
            <DistanceMeters>82358.028547386</DistanceMeters>
          </Trackpoint>
          <Trackpoint>
            <Time>2021-07-28T07:37:51.000Z</Time>
            <Position>
              <LatitudeDegrees>41.19922257028520107269287109375</LatitudeDegrees>
              <LongitudeDegrees>-2.867796421051025390625</LongitudeDegrees>
            </Position>
            <AltitudeMeters>1144.4000244140625</AltitudeMeters>
            <DistanceMeters>82374.863033393</DistanceMeters>
          </Trackpoint>
          <Trackpoint>
            <Time>2021-07-28T07:37:58.000Z</Time>
            <Position>
              <LatitudeDegrees>41.19934578426182270050048828125</LatitudeDegrees>
              <LongitudeDegrees>-2.8676926530897617340087890625</LongitudeDegrees>
            </Position>
            <AltitudeMeters>1145.5999755859375</AltitudeMeters>
            <DistanceMeters>82391.098702812</DistanceMeters>
          </Trackpoint>
          <Trackpoint>
            <Time>2021-07-28T07:38:07.000Z</Time>
            <Position>
              <LatitudeDegrees>41.1995098181068897247314453125</LatitudeDegrees>
              <LongitudeDegrees>-2.86756566725671291351318359375</LongitudeDegrees>
            </Position>
            <AltitudeMeters>1146.800048828125</AltitudeMeters>
            <DistanceMeters>82412.227140025</DistanceMeters>
          </Trackpoint>
          <Trackpoint>
            <Time>2021-07-28T07:38:13.000Z</Time>
            <Position>
              <LatitudeDegrees>41.19962557218968868255615234375</LatitudeDegrees>
              <LongitudeDegrees>-2.867497690021991729736328125</LongitudeDegrees>
            </Position>
            <AltitudeMeters>1147.800048828125</AltitudeMeters>
            <DistanceMeters>82426.312266204</DistanceMeters>
          </Trackpoint>
          <Trackpoint>
            <Time>2021-07-28T07:38:32.000Z</Time>
            <Position>
              <LatitudeDegrees>41.19995581917464733123779296875</LatitudeDegrees>
              <LongitudeDegrees>-2.86763590760529041290283203125</LongitudeDegrees>
            </Position>
            <AltitudeMeters>1149</AltitudeMeters>
            <DistanceMeters>82464.848733112</DistanceMeters>
          </Trackpoint>
          <Trackpoint>
            <Time>2021-07-28T07:38:37.000Z</Time>
            <Position>
              <LatitudeDegrees>41.19999286718666553497314453125</LatitudeDegrees>
              <LongitudeDegrees>-2.867761217057704925537109375</LongitudeDegrees>
            </Position>
            <AltitudeMeters>1149.800048828125</AltitudeMeters>
            <DistanceMeters>82476.124124292</DistanceMeters>
          </Trackpoint>
          <Trackpoint>
            <Time>2021-07-28T07:38:39.000Z</Time>
            <Position>
              <LatitudeDegrees>41.20000527240335941314697265625</LatitudeDegrees>
              <LongitudeDegrees>-2.8678136877715587615966796875</LongitudeDegrees>
            </Position>
            <AltitudeMeters>1150.199951171875</AltitudeMeters>
            <DistanceMeters>82480.730715184</DistanceMeters>
          </Trackpoint>
          <Trackpoint>
            <Time>2021-07-28T07:38:44.000Z</Time>
            <Position>
              <LatitudeDegrees>41.2000274844467639923095703125</LatitudeDegrees>
              <LongitudeDegrees>-2.8679441101849079132080078125</LongitudeDegrees>
            </Position>
            <AltitudeMeters>1151.4000244140625</AltitudeMeters>
            <DistanceMeters>82491.929362497</DistanceMeters>
          </Trackpoint>
          <Trackpoint>
            <Time>2021-07-28T07:38:52.000Z</Time>
            <Position>
              <LatitudeDegrees>41.20005707256495952606201171875</LatitudeDegrees>
              <LongitudeDegrees>-2.86814510822296142578125</LongitudeDegrees>
            </Position>
            <AltitudeMeters>1152.4000244140625</AltitudeMeters>
            <DistanceMeters>82509.081092159</DistanceMeters>
          </Trackpoint>
          <Trackpoint>
            <Time>2021-07-28T07:39:01.000Z</Time>
            <Position>
              <LatitudeDegrees>41.2000948749482631683349609375</LatitudeDegrees>
              <LongitudeDegrees>-2.86837686784565448760986328125</LongitudeDegrees>
            </Position>
            <AltitudeMeters>1153.5999755859375</AltitudeMeters>
            <DistanceMeters>82528.940766095</DistanceMeters>
          </Trackpoint>
          <Trackpoint>
            <Time>2021-07-28T07:39:08.000Z</Time>
            <Position>
              <LatitudeDegrees>41.20011943392455577850341796875</LatitudeDegrees>
              <LongitudeDegrees>-2.86854886449873447418212890625</LongitudeDegrees>
            </Position>
            <AltitudeMeters>1154.5999755859375</AltitudeMeters>
            <DistanceMeters>82543.602005458</DistanceMeters>
          </Trackpoint>
          <Trackpoint>
            <Time>2021-07-28T07:39:18.000Z</Time>
            <Position>
              <LatitudeDegrees>41.2001562304794788360595703125</LatitudeDegrees>
              <LongitudeDegrees>-2.8687977232038974761962890625</LongitudeDegrees>
            </Position>
            <AltitudeMeters>1155.5999755859375</AltitudeMeters>
            <DistanceMeters>82564.841485888</DistanceMeters>
          </Trackpoint>
          <Trackpoint>
            <Time>2021-07-28T07:39:23.000Z</Time>
            <Position>
              <LatitudeDegrees>41.2001719884574413299560546875</LatitudeDegrees>
              <LongitudeDegrees>-2.86892454139888286590576171875</LongitudeDegrees>
            </Position>
            <AltitudeMeters>1156.5999755859375</AltitudeMeters>
            <DistanceMeters>82575.605961766</DistanceMeters>
          </Trackpoint>
          <Trackpoint>
            <Time>2021-07-28T07:39:32.000Z</Time>
            <Position>
              <LatitudeDegrees>41.20023359544575214385986328125</LatitudeDegrees>
              <LongitudeDegrees>-2.8691484220325946807861328125</LongitudeDegrees>
            </Position>
            <AltitudeMeters>1158</AltitudeMeters>
            <DistanceMeters>82595.569715269</DistanceMeters>
          </Trackpoint>
          <Trackpoint>
            <Time>2021-07-28T07:39:56.000Z</Time>
            <Position>
              <LatitudeDegrees>41.20066232979297637939453125</LatitudeDegrees>
              <LongitudeDegrees>-2.86961403675377368927001953125</LongitudeDegrees>
            </Position>
            <AltitudeMeters>1158.800048828125</AltitudeMeters>
            <DistanceMeters>82657.193861819</DistanceMeters>
          </Trackpoint>
          <Trackpoint>
            <Time>2021-07-28T07:40:00.000Z</Time>
            <Position>
              <LatitudeDegrees>41.20073030702769756317138671875</LatitudeDegrees>
              <LongitudeDegrees>-2.86970204673707485198974609375</LongitudeDegrees>
            </Position>
            <AltitudeMeters>1159.199951171875</AltitudeMeters>
            <DistanceMeters>82667.756370728</DistanceMeters>
          </Trackpoint>
          <Trackpoint>
            <Time>2021-07-28T07:40:13.000Z</Time>
            <Position>
              <LatitudeDegrees>41.2009357474744319915771484375</LatitudeDegrees>
              <LongitudeDegrees>-2.870005555450916290283203125</LongitudeDegrees>
            </Position>
            <AltitudeMeters>1160.4000244140625</AltitudeMeters>
            <DistanceMeters>82701.945260519</DistanceMeters>
          </Trackpoint>
          <Trackpoint>
            <Time>2021-07-28T07:40:26.000Z</Time>
            <Position>
              <LatitudeDegrees>41.20103825815021991729736328125</LatitudeDegrees>
              <LongitudeDegrees>-2.87038550712168216705322265625</LongitudeDegrees>
            </Position>
            <AltitudeMeters>1161.5999755859375</AltitudeMeters>
            <DistanceMeters>82735.747666686</DistanceMeters>
          </Trackpoint>
          <Trackpoint>
            <Time>2021-07-28T07:40:35.000Z</Time>
            <Position>
              <LatitudeDegrees>41.20102803222835063934326171875</LatitudeDegrees>
              <LongitudeDegrees>-2.87067887373268604278564453125</LongitudeDegrees>
            </Position>
            <AltitudeMeters>1162.800048828125</AltitudeMeters>
            <DistanceMeters>82760.34160111</DistanceMeters>
          </Trackpoint>
          <Trackpoint>
            <Time>2021-07-28T07:40:55.000Z</Time>
            <Position>
              <LatitudeDegrees>41.200993917882442474365234375</LatitudeDegrees>
              <LongitudeDegrees>-2.8714246116578578948974609375</LongitudeDegrees>
            </Position>
            <AltitudeMeters>1163.4000244140625</AltitudeMeters>
            <DistanceMeters>82822.907943248</DistanceMeters>
          </Trackpoint>
          <Trackpoint>
            <Time>2021-07-28T07:40:58.000Z</Time>
            <Position>
              <LatitudeDegrees>41.20100758038461208343505859375</LatitudeDegrees>
              <LongitudeDegrees>-2.8715208359062671661376953125</LongitudeDegrees>
            </Position>
            <AltitudeMeters>1163.800048828125</AltitudeMeters>
            <DistanceMeters>82831.10891937</DistanceMeters>
          </Trackpoint>
          <Trackpoint>
            <Time>2021-07-28T07:41:04.000Z</Time>
            <Position>
              <LatitudeDegrees>41.20106558315455913543701171875</LatitudeDegrees>
              <LongitudeDegrees>-2.8716894797980785369873046875</LongitudeDegrees>
            </Position>
            <AltitudeMeters>1164.800048828125</AltitudeMeters>
            <DistanceMeters>82846.637575505</DistanceMeters>
          </Trackpoint>
          <Trackpoint>
            <Time>2021-07-28T07:41:11.000Z</Time>
            <Position>
              <LatitudeDegrees>41.20116926729679107666015625</LatitudeDegrees>
              <LongitudeDegrees>-2.87186491303145885467529296875</LongitudeDegrees>
            </Position>
            <AltitudeMeters>1165.5999755859375</AltitudeMeters>
            <DistanceMeters>82865.319450533</DistanceMeters>
          </Trackpoint>
          <Trackpoint>
            <Time>2021-07-28T07:41:13.000Z</Time>
            <Position>
              <LatitudeDegrees>41.2011989392340183258056640625</LatitudeDegrees>
              <LongitudeDegrees>-2.87191201932728290557861328125</LongitudeDegrees>
            </Position>
            <AltitudeMeters>1166</AltitudeMeters>
            <DistanceMeters>82870.464074335</DistanceMeters>
          </Trackpoint>
          <Trackpoint>
            <Time>2021-07-28T07:41:20.000Z</Time>
            <Position>
              <LatitudeDegrees>41.20130128227174282073974609375</LatitudeDegrees>
              <LongitudeDegrees>-2.87207362242043018341064453125</LongitudeDegrees>
            </Position>
            <AltitudeMeters>1167.199951171875</AltitudeMeters>
            <DistanceMeters>82888.153087277</DistanceMeters>
          </Trackpoint>
          <Trackpoint>
            <Time>2021-07-28T07:41:27.000Z</Time>
            <Position>
              <LatitudeDegrees>41.2013933993875980377197265625</LatitudeDegrees>
              <LongitudeDegrees>-2.87223824299871921539306640625</LongitudeDegrees>
            </Position>
            <AltitudeMeters>1168.199951171875</AltitudeMeters>
            <DistanceMeters>82905.334011841</DistanceMeters>
          </Trackpoint>
          <Trackpoint>
            <Time>2021-07-28T07:41:34.000Z</Time>
            <Position>
              <LatitudeDegrees>41.2014842592179775238037109375</LatitudeDegrees>
              <LongitudeDegrees>-2.8723861835896968841552734375</LongitudeDegrees>
            </Position>
            <AltitudeMeters>1169.4000244140625</AltitudeMeters>
            <DistanceMeters>82921.326474288</DistanceMeters>
          </Trackpoint>
          <Trackpoint>
            <Time>2021-07-28T07:41:41.000Z</Time>
            <Position>
              <LatitudeDegrees>41.20157637633383274078369140625</LatitudeDegrees>
              <LongitudeDegrees>-2.8725390695035457611083984375</LongitudeDegrees>
            </Position>
            <AltitudeMeters>1170.4000244140625</AltitudeMeters>
            <DistanceMeters>82937.729252335</DistanceMeters>
          </Trackpoint>
          <Trackpoint>
            <Time>2021-07-28T07:41:49.000Z</Time>
            <Position>
              <LatitudeDegrees>41.20168098248541355133056640625</LatitudeDegrees>
              <LongitudeDegrees>-2.87270486354827880859375</LongitudeDegrees>
            </Position>
            <AltitudeMeters>1171.5999755859375</AltitudeMeters>
            <DistanceMeters>82955.849229694</DistanceMeters>
          </Trackpoint>
          <Trackpoint>
            <Time>2021-07-28T07:41:56.000Z</Time>
            <Position>
              <LatitudeDegrees>41.20177335105836391448974609375</LatitudeDegrees>
              <LongitudeDegrees>-2.87285665981471538543701171875</LongitudeDegrees>
            </Position>
            <AltitudeMeters>1172.800048828125</AltitudeMeters>
            <DistanceMeters>82972.197967647</DistanceMeters>
          </Trackpoint>
          <Trackpoint>
            <Time>2021-07-28T07:42:04.000Z</Time>
            <Position>
              <LatitudeDegrees>41.20188130997121334075927734375</LatitudeDegrees>
              <LongitudeDegrees>-2.87302714772522449493408203125</LongitudeDegrees>
            </Position>
            <AltitudeMeters>1173.800048828125</AltitudeMeters>
            <DistanceMeters>82990.858562703</DistanceMeters>
          </Trackpoint>
          <Trackpoint>
            <Time>2021-07-28T07:42:12.000Z</Time>
            <Position>
              <LatitudeDegrees>41.20198734104633331298828125</LatitudeDegrees>
              <LongitudeDegrees>-2.87318925373256206512451171875</LongitudeDegrees>
            </Position>
            <AltitudeMeters>1175</AltitudeMeters>
            <DistanceMeters>83008.84599273</DistanceMeters>
          </Trackpoint>
          <Trackpoint>
            <Time>2021-07-28T07:42:19.000Z</Time>
            <Position>
              <LatitudeDegrees>41.20206772349774837493896484375</LatitudeDegrees>
              <LongitudeDegrees>-2.87333845160901546478271484375</LongitudeDegrees>
            </Position>
            <AltitudeMeters>1176.199951171875</AltitudeMeters>
            <DistanceMeters>83024.213313875</DistanceMeters>
          </Trackpoint>
          <Trackpoint>
            <Time>2021-07-28T07:42:28.000Z</Time>
            <Position>
              <LatitudeDegrees>41.20214198715984821319580078125</LatitudeDegrees>
              <LongitudeDegrees>-2.873556800186634063720703125</LongitudeDegrees>
            </Position>
            <AltitudeMeters>1177.4000244140625</AltitudeMeters>
            <DistanceMeters>83044.279932145</DistanceMeters>
          </Trackpoint>
          <Trackpoint>
            <Time>2021-07-28T07:42:42.000Z</Time>
            <Position>
              <LatitudeDegrees>41.20225514285266399383544921875</LatitudeDegrees>
              <LongitudeDegrees>-2.87391546182334423065185546875</LongitudeDegrees>
            </Position>
            <AltitudeMeters>1178.800048828125</AltitudeMeters>
            <DistanceMeters>83076.848874247</DistanceMeters>
          </Trackpoint>
          <Trackpoint>
            <Time>2021-07-28T07:43:02.000Z</Time>
            <Position>
              <LatitudeDegrees>41.20247676037251949310302734375</LatitudeDegrees>
              <LongitudeDegrees>-2.87443061359226703643798828125</LongitudeDegrees>
            </Position>
            <AltitudeMeters>1179.800048828125</AltitudeMeters>
            <DistanceMeters>83126.542848986</DistanceMeters>
          </Trackpoint>
          <Trackpoint>
            <Time>2021-07-28T07:43:14.000Z</Time>
            <Position>
              <LatitudeDegrees>41.20258438400924205780029296875</LatitudeDegrees>
              <LongitudeDegrees>-2.87476220168173313140869140625</LongitudeDegrees>
            </Position>
            <AltitudeMeters>1181</AltitudeMeters>
            <DistanceMeters>83156.784494315</DistanceMeters>
          </Trackpoint>
          <Trackpoint>
            <Time>2021-07-28T07:43:24.000Z</Time>
            <Position>
              <LatitudeDegrees>41.20252386666834354400634765625</LatitudeDegrees>
              <LongitudeDegrees>-2.87503779865801334381103515625</LongitudeDegrees>
            </Position>
            <AltitudeMeters>1182</AltitudeMeters>
            <DistanceMeters>83180.82644085</DistanceMeters>
          </Trackpoint>
          <Trackpoint>
            <Time>2021-07-28T07:43:39.000Z</Time>
            <Position>
              <LatitudeDegrees>41.20228649117052555084228515625</LatitudeDegrees>
              <LongitudeDegrees>-2.875422947108745574951171875</LongitudeDegrees>
            </Position>
            <AltitudeMeters>1183.199951171875</AltitudeMeters>
            <DistanceMeters>83222.519459157</DistanceMeters>
          </Trackpoint>
          <Trackpoint>
            <Time>2021-07-28T07:43:55.000Z</Time>
            <Position>
              <LatitudeDegrees>41.20217937044799327850341796875</LatitudeDegrees>
              <LongitudeDegrees>-2.875925861299037933349609375</LongitudeDegrees>
            </Position>
            <AltitudeMeters>1184.4000244140625</AltitudeMeters>
            <DistanceMeters>83266.289861356</DistanceMeters>
          </Trackpoint>
          <Trackpoint>
            <Time>2021-07-28T07:44:07.000Z</Time>
            <Position>
              <LatitudeDegrees>41.20226469822227954864501953125</LatitudeDegrees>
              <LongitudeDegrees>-2.87626524455845355987548828125</LongitudeDegrees>
            </Position>
            <AltitudeMeters>1185.4000244140625</AltitudeMeters>
            <DistanceMeters>83296.255537912</DistanceMeters>
          </Trackpoint>
          <Trackpoint>
            <Time>2021-07-28T07:44:15.000Z</Time>
            <Position>
              <LatitudeDegrees>41.202402748167514801025390625</LatitudeDegrees>
              <LongitudeDegrees>-2.87642550654709339141845703125</LongitudeDegrees>
            </Position>
            <AltitudeMeters>1186.4000244140625</AltitudeMeters>
            <DistanceMeters>83316.656425719</DistanceMeters>
          </Trackpoint>
          <Trackpoint>
            <Time>2021-07-28T07:44:21.000Z</Time>
            <Position>
              <LatitudeDegrees>41.20254063047468662261962890625</LatitudeDegrees>
              <LongitudeDegrees>-2.8764882870018482208251953125</LongitudeDegrees>
            </Position>
            <AltitudeMeters>1187.5999755859375</AltitudeMeters>
            <DistanceMeters>83332.878462821</DistanceMeters>
          </Trackpoint>
          <Trackpoint>
            <Time>2021-07-28T07:44:36.000Z</Time>
            <Position>
              <LatitudeDegrees>41.20288847945630550384521484375</LatitudeDegrees>
              <LongitudeDegrees>-2.8766586072742938995361328125</LongitudeDegrees>
            </Position>
            <AltitudeMeters>1188.800048828125</AltitudeMeters>
            <DistanceMeters>83374.138445026</DistanceMeters>
          </Trackpoint>
          <Trackpoint>
            <Time>2021-07-28T07:44:54.000Z</Time>
            <Position>
              <LatitudeDegrees>41.2031753920018672943115234375</LatitudeDegrees>
              <LongitudeDegrees>-2.87692691199481487274169921875</LongitudeDegrees>
            </Position>
            <AltitudeMeters>1189.4000244140625</AltitudeMeters>
            <DistanceMeters>83413.184597032</DistanceMeters>
          </Trackpoint>
          <Trackpoint>
            <Time>2021-07-28T07:45:15.000Z</Time>
            <Position>
              <LatitudeDegrees>41.2031985260546207427978515625</LatitudeDegrees>
              <LongitudeDegrees>-2.87696161307394504547119140625</LongitudeDegrees>
            </Position>
            <AltitudeMeters>1189.4000244140625</AltitudeMeters>
            <DistanceMeters>83417.066761066</DistanceMeters>
          </Trackpoint>
          <Trackpoint>
            <Time>2021-07-28T07:45:24.000Z</Time>
            <Position>
              <LatitudeDegrees>41.20344118215143680572509765625</LatitudeDegrees>
              <LongitudeDegrees>-2.8771613538265228271484375</LongitudeDegrees>
            </Position>
            <AltitudeMeters>1188</AltitudeMeters>
            <DistanceMeters>83448.83483267</DistanceMeters>
          </Trackpoint>
          <Trackpoint>
            <Time>2021-07-28T07:45:32.000Z</Time>
            <Position>
              <LatitudeDegrees>41.20379783213138580322265625</LatitudeDegrees>
              <LongitudeDegrees>-2.8772077895700931549072265625</LongitudeDegrees>
            </Position>
            <AltitudeMeters>1187.800048828125</AltitudeMeters>
            <DistanceMeters>83488.720704198</DistanceMeters>
          </Trackpoint>
          <Trackpoint>
            <Time>2021-07-28T07:45:35.000Z</Time>
            <Position>
              <LatitudeDegrees>41.2039411626756191253662109375</LatitudeDegrees>
              <LongitudeDegrees>-2.8772740066051483154296875</LongitudeDegrees>
            </Position>
            <AltitudeMeters>1187.199951171875</AltitudeMeters>
            <DistanceMeters>83505.610082067</DistanceMeters>
          </Trackpoint>
          <Trackpoint>
            <Time>2021-07-28T07:45:37.000Z</Time>
            <Position>
              <LatitudeDegrees>41.2040300108492374420166015625</LatitudeDegrees>
              <LongitudeDegrees>-2.87735455669462680816650390625</LongitudeDegrees>
            </Position>
            <AltitudeMeters>1186.5999755859375</AltitudeMeters>
            <DistanceMeters>83517.580430976</DistanceMeters>
          </Trackpoint>
          <Trackpoint>
            <Time>2021-07-28T07:45:40.000Z</Time>
            <Position>
              <LatitudeDegrees>41.2041664682328701019287109375</LatitudeDegrees>
              <LongitudeDegrees>-2.87749730050563812255859375</LongitudeDegrees>
            </Position>
            <AltitudeMeters>1185.199951171875</AltitudeMeters>
            <DistanceMeters>83536.907799454</DistanceMeters>
          </Trackpoint>
          <Trackpoint>
            <Time>2021-07-28T07:45:41.000Z</Time>
            <Position>
              <LatitudeDegrees>41.20421667583286762237548828125</LatitudeDegrees>
              <LongitudeDegrees>-2.877540886402130126953125</LongitudeDegrees>
            </Position>
            <AltitudeMeters>1184.800048828125</AltitudeMeters>
            <DistanceMeters>83543.582707481</DistanceMeters>
          </Trackpoint>
          <Trackpoint>
            <Time>2021-07-28T07:45:43.000Z</Time>
            <Position>
              <LatitudeDegrees>41.20432899333536624908447265625</LatitudeDegrees>
              <LongitudeDegrees>-2.87760165520012378692626953125</LongitudeDegrees>
            </Position>
            <AltitudeMeters>1184</AltitudeMeters>
            <DistanceMeters>83557.079846518</DistanceMeters>
          </Trackpoint>
          <Trackpoint>
            <Time>2021-07-28T07:45:49.000Z</Time>
            <Position>
              <LatitudeDegrees>41.20469829998910427093505859375</LatitudeDegrees>
              <LongitudeDegrees>-2.87751247175037860870361328125</LongitudeDegrees>
            </Position>
            <AltitudeMeters>1183</AltitudeMeters>
            <DistanceMeters>83598.857247529</DistanceMeters>
          </Trackpoint>
          <Trackpoint>
            <Time>2021-07-28T07:45:50.000Z</Time>
            <Position>
              <LatitudeDegrees>41.20475932024419307708740234375</LatitudeDegrees>
              <LongitudeDegrees>-2.8774830512702465057373046875</LongitudeDegrees>
            </Position>
            <AltitudeMeters>1182.5999755859375</AltitudeMeters>
            <DistanceMeters>83606.081778092</DistanceMeters>
          </Trackpoint>
          <Trackpoint>
            <Time>2021-07-28T07:45:52.000Z</Time>
            <Position>
              <LatitudeDegrees>41.20489485561847686767578125</LatitudeDegrees>
              <LongitudeDegrees>-2.87745949812233448028564453125</LongitudeDegrees>
            </Position>
            <AltitudeMeters>1181.800048828125</AltitudeMeters>
            <DistanceMeters>83621.295552094</DistanceMeters>
          </Trackpoint>
          <Trackpoint>
            <Time>2021-07-28T07:45:54.000Z</Time>
            <Position>
              <LatitudeDegrees>41.20504547841846942901611328125</LatitudeDegrees>
              <LongitudeDegrees>-2.877480201423168182373046875</LongitudeDegrees>
            </Position>
            <AltitudeMeters>1180.4000244140625</AltitudeMeters>
            <DistanceMeters>83638.149605456</DistanceMeters>
          </Trackpoint>
          <Trackpoint>
            <Time>2021-07-28T07:45:55.000Z</Time>
            <Position>
              <LatitudeDegrees>41.20512544177472591400146484375</LatitudeDegrees>
              <LongitudeDegrees>-2.87750124000012874603271484375</LongitudeDegrees>
            </Position>
            <AltitudeMeters>1179.199951171875</AltitudeMeters>
            <DistanceMeters>83647.222541963</DistanceMeters>
          </Trackpoint>
          <Trackpoint>
            <Time>2021-07-28T07:45:56.000Z</Time>
            <Position>
              <LatitudeDegrees>41.205208003520965576171875</LatitudeDegrees>
              <LongitudeDegrees>-2.87752672098577022552490234375</LongitudeDegrees>
            </Position>
            <AltitudeMeters>1177.800048828125</AltitudeMeters>
            <DistanceMeters>83656.656067462</DistanceMeters>
          </Trackpoint>
          <Trackpoint>
            <Time>2021-07-28T07:45:58.000Z</Time>
            <Position>
              <LatitudeDegrees>41.2053794972598552703857421875</LatitudeDegrees>
              <LongitudeDegrees>-2.87758648395538330078125</LongitudeDegrees>
            </Position>
            <AltitudeMeters>1176.4000244140625</AltitudeMeters>
            <DistanceMeters>83676.388702772</DistanceMeters>
          </Trackpoint>
          <Trackpoint>
            <Time>2021-07-28T07:46:00.000Z</Time>
            <Position>
              <LatitudeDegrees>41.20555912144482135772705078125</LatitudeDegrees>
              <LongitudeDegrees>-2.87765898741781711578369140625</LongitudeDegrees>
            </Position>
            <AltitudeMeters>1175</AltitudeMeters>
            <DistanceMeters>83697.282482124</DistanceMeters>
          </Trackpoint>
          <Trackpoint>
            <Time>2021-07-28T07:46:02.000Z</Time>
            <Position>
              <LatitudeDegrees>41.205746121704578399658203125</LatitudeDegrees>
              <LongitudeDegrees>-2.87773995660245418548583984375</LongitudeDegrees>
            </Position>
            <AltitudeMeters>1173.5999755859375</AltitudeMeters>
            <DistanceMeters>83719.172479301</DistanceMeters>
          </Trackpoint>
          <Trackpoint>
            <Time>2021-07-28T07:46:04.000Z</Time>
            <Position>
              <LatitudeDegrees>41.2059335410594940185546875</LatitudeDegrees>
              <LongitudeDegrees>-2.87784908898174762725830078125</LongitudeDegrees>
            </Position>
            <AltitudeMeters>1172</AltitudeMeters>
            <DistanceMeters>83741.9465984</DistanceMeters>
          </Trackpoint>
          <Trackpoint>
            <Time>2021-07-28T07:46:05.000Z</Time>
            <Position>
              <LatitudeDegrees>41.206024400889873504638671875</LatitudeDegrees>
              <LongitudeDegrees>-2.87792150862514972686767578125</LongitudeDegrees>
            </Position>
            <AltitudeMeters>1170.800048828125</AltitudeMeters>
            <DistanceMeters>83753.73872065</DistanceMeters>
          </Trackpoint>
          <Trackpoint>
            <Time>2021-07-28T07:46:07.000Z</Time>
            <Position>
              <LatitudeDegrees>41.20620620436966419219970703125</LatitudeDegrees>
              <LongitudeDegrees>-2.87808872759342193603515625</LongitudeDegrees>
            </Position>
            <AltitudeMeters>1168.800048828125</AltitudeMeters>
            <DistanceMeters>83778.346053013</DistanceMeters>
          </Trackpoint>
          <Trackpoint>
            <Time>2021-07-28T07:46:08.000Z</Time>
            <Position>
              <LatitudeDegrees>41.20630091987550258636474609375</LatitudeDegrees>
              <LongitudeDegrees>-2.87817464210093021392822265625</LongitudeDegrees>
            </Position>
            <AltitudeMeters>1167.5999755859375</AltitudeMeters>
            <DistanceMeters>83791.109382479</DistanceMeters>
          </Trackpoint>
          <Trackpoint>
            <Time>2021-07-28T07:46:09.000Z</Time>
            <Position>
              <LatitudeDegrees>41.2064007483422756195068359375</LatitudeDegrees>
              <LongitudeDegrees>-2.8782541863620281219482421875</LongitudeDegrees>
            </Position>
            <AltitudeMeters>1166.4000244140625</AltitudeMeters>
            <DistanceMeters>83804.063723088</DistanceMeters>
          </Trackpoint>
          <Trackpoint>
            <Time>2021-07-28T07:46:10.000Z</Time>
            <Position>
              <LatitudeDegrees>41.20650359429419040679931640625</LatitudeDegrees>
              <LongitudeDegrees>-2.87832853384315967559814453125</LongitudeDegrees>
            </Position>
            <AltitudeMeters>1165.4000244140625</AltitudeMeters>
            <DistanceMeters>83817.093822754</DistanceMeters>
          </Trackpoint>
          <Trackpoint>
            <Time>2021-07-28T07:46:12.000Z</Time>
            <Position>
              <LatitudeDegrees>41.2067108787596225738525390625</LatitudeDegrees>
              <LongitudeDegrees>-2.87846717052161693572998046875</LongitudeDegrees>
            </Position>
            <AltitudeMeters>1163.800048828125</AltitudeMeters>
            <DistanceMeters>83842.921167699</DistanceMeters>
          </Trackpoint>
          <Trackpoint>
            <Time>2021-07-28T07:46:14.000Z</Time>
            <Position>
              <LatitudeDegrees>41.20691715739667415618896484375</LatitudeDegrees>
              <LongitudeDegrees>-2.87859390489757061004638671875</LongitudeDegrees>
            </Position>
            <AltitudeMeters>1162.5999755859375</AltitudeMeters>
            <DistanceMeters>83868.214701575</DistanceMeters>
          </Trackpoint>
          <Trackpoint>
            <Time>2021-07-28T07:46:19.000Z</Time>
            <Position>
              <LatitudeDegrees>41.207390315830707550048828125</LatitudeDegrees>
              <LongitudeDegrees>-2.87896044552326202392578125</LongitudeDegrees>
            </Position>
            <AltitudeMeters>1161.800048828125</AltitudeMeters>
            <DistanceMeters>83929.169505843</DistanceMeters>
          </Trackpoint>
          <Trackpoint>
            <Time>2021-07-28T07:46:23.000Z</Time>
            <Position>
              <LatitudeDegrees>41.20772651396691799163818359375</LatitudeDegrees>
              <LongitudeDegrees>-2.8792844898998737335205078125</LongitudeDegrees>
            </Position>
            <AltitudeMeters>1161.4000244140625</AltitudeMeters>
            <DistanceMeters>83975.391578129</DistanceMeters>
          </Trackpoint>
          <Trackpoint>
            <Time>2021-07-28T07:46:29.000Z</Time>
            <Position>
              <LatitudeDegrees>41.20825029909610748291015625</LatitudeDegrees>
              <LongitudeDegrees>-2.879593782126903533935546875</LongitudeDegrees>
            </Position>
            <AltitudeMeters>1162</AltitudeMeters>
            <DistanceMeters>84039.183670426</DistanceMeters>
          </Trackpoint>
          <Trackpoint>
            <Time>2021-07-28T07:46:31.000Z</Time>
            <Position>
              <LatitudeDegrees>41.20840192772448062896728515625</LatitudeDegrees>
              <LongitudeDegrees>-2.87967852316796779632568359375</LongitudeDegrees>
            </Position>
            <AltitudeMeters>1162.5999755859375</AltitudeMeters>
            <DistanceMeters>84057.491301277</DistanceMeters>
          </Trackpoint>
          <Trackpoint>
            <Time>2021-07-28T07:46:33.000Z</Time>
            <Position>
              <LatitudeDegrees>41.20853872038424015045166015625</LatitudeDegrees>
              <LongitudeDegrees>-2.8797515295445919036865234375</LongitudeDegrees>
            </Position>
            <AltitudeMeters>1163.800048828125</AltitudeMeters>
            <DistanceMeters>84073.897657321</DistanceMeters>
          </Trackpoint>
          <Trackpoint>
            <Time>2021-07-28T07:46:36.000Z</Time>
            <Position>
              <LatitudeDegrees>41.20872261933982372283935546875</LatitudeDegrees>
              <LongitudeDegrees>-2.87983593530952930450439453125</LongitudeDegrees>
            </Position>
            <AltitudeMeters>1164.800048828125</AltitudeMeters>
            <DistanceMeters>84095.5518666</DistanceMeters>
          </Trackpoint>
          <Trackpoint>
            <Time>2021-07-28T07:46:41.000Z</Time>
            <Position>
              <LatitudeDegrees>41.208980865776538848876953125</LatitudeDegrees>
              <LongitudeDegrees>-2.87995143793523311614990234375</LongitudeDegrees>
            </Position>
            <AltitudeMeters>1166</AltitudeMeters>
            <DistanceMeters>84125.878641665</DistanceMeters>
          </Trackpoint>
          <Trackpoint>
            <Time>2021-07-28T07:46:44.000Z</Time>
            <Position>
              <LatitudeDegrees>41.20911933481693267822265625</LatitudeDegrees>
              <LongitudeDegrees>-2.88001547567546367645263671875</LongitudeDegrees>
            </Position>
            <AltitudeMeters>1167.199951171875</AltitudeMeters>
            <DistanceMeters>84142.196695905</DistanceMeters>
          </Trackpoint>
          <Trackpoint>
            <Time>2021-07-28T07:46:50.000Z</Time>
            <Position>
              <LatitudeDegrees>41.209373138844966888427734375</LatitudeDegrees>
              <LongitudeDegrees>-2.880169115960597991943359375</LongitudeDegrees>
            </Position>
            <AltitudeMeters>1168.199951171875</AltitudeMeters>
            <DistanceMeters>84173.23713979</DistanceMeters>
          </Trackpoint>
          <Trackpoint>
            <Time>2021-07-28T07:47:01.000Z</Time>
            <Position>
              <LatitudeDegrees>41.2098463810980319976806640625</LatitudeDegrees>
              <LongitudeDegrees>-2.880511768162250518798828125</LongitudeDegrees>
            </Position>
            <AltitudeMeters>1167.5999755859375</AltitudeMeters>
            <DistanceMeters>84233.217291303</DistanceMeters>
          </Trackpoint>
          <Trackpoint>
            <Time>2021-07-28T07:47:02.000Z</Time>
            <Position>
              <LatitudeDegrees>41.20990279130637645721435546875</LatitudeDegrees>
              <LongitudeDegrees>-2.88054018281400203704833984375</LongitudeDegrees>
            </Position>
            <AltitudeMeters>1167</AltitudeMeters>
            <DistanceMeters>84239.931317041</DistanceMeters>
          </Trackpoint>
          <Trackpoint>
            <Time>2021-07-28T07:47:03.000Z</Time>
            <Position>
              <LatitudeDegrees>41.20996297337114810943603515625</LatitudeDegrees>
              <LongitudeDegrees>-2.8805618919432163238525390625</LongitudeDegrees>
            </Position>
            <AltitudeMeters>1166.4000244140625</AltitudeMeters>
            <DistanceMeters>84246.871520767</DistanceMeters>
          </Trackpoint>
          <Trackpoint>
            <Time>2021-07-28T07:47:04.000Z</Time>
            <Position>
              <LatitudeDegrees>41.2100281007587909698486328125</LatitudeDegrees>
              <LongitudeDegrees>-2.8805731236934661865234375</LongitudeDegrees>
            </Position>
            <AltitudeMeters>1165.800048828125</AltitudeMeters>
            <DistanceMeters>84254.180551636</DistanceMeters>
          </Trackpoint>
          <Trackpoint>
            <Time>2021-07-28T07:47:06.000Z</Time>
            <Position>
              <LatitudeDegrees>41.21016782708466053009033203125</LatitudeDegrees>
              <LongitudeDegrees>-2.88055946119129657745361328125</LongitudeDegrees>
            </Position>
            <AltitudeMeters>1164</AltitudeMeters>
            <DistanceMeters>84269.774200935</DistanceMeters>
          </Trackpoint>
          <Trackpoint>
            <Time>2021-07-28T07:47:07.000Z</Time>
            <Position>
              <LatitudeDegrees>41.21023840270936489105224609375</LatitudeDegrees>
              <LongitudeDegrees>-2.880533225834369659423828125</LongitudeDegrees>
            </Position>
            <AltitudeMeters>1163</AltitudeMeters>
            <DistanceMeters>84277.930460689</DistanceMeters>
          </Trackpoint>
          <Trackpoint>
            <Time>2021-07-28T07:47:09.000Z</Time>
            <Position>
              <LatitudeDegrees>41.21037301607429981231689453125</LatitudeDegrees>
              <LongitudeDegrees>-2.88043566048145294189453125</LongitudeDegrees>
            </Position>
            <AltitudeMeters>1162</AltitudeMeters>
            <DistanceMeters>84294.995628878</DistanceMeters>
          </Trackpoint>
          <Trackpoint>
            <Time>2021-07-28T07:47:12.000Z</Time>
            <Position>
              <LatitudeDegrees>41.21053813956677913665771484375</LatitudeDegrees>
              <LongitudeDegrees>-2.88019401021301746368408203125</LongitudeDegrees>
            </Position>
            <AltitudeMeters>1161.199951171875</AltitudeMeters>
            <DistanceMeters>84322.330142138</DistanceMeters>
          </Trackpoint>
          <Trackpoint>
            <Time>2021-07-28T07:47:14.000Z</Time>
            <Position>
              <LatitudeDegrees>41.21062816120684146881103515625</LatitudeDegrees>
              <LongitudeDegrees>-2.87999770604074001312255859375</LongitudeDegrees>
            </Position>
            <AltitudeMeters>1160</AltitudeMeters>
            <DistanceMeters>84341.58003089</DistanceMeters>
          </Trackpoint>
          <Trackpoint>
            <Time>2021-07-28T07:47:15.000Z</Time>
            <Position>
              <LatitudeDegrees>41.21066772378981113433837890625</LatitudeDegrees>
              <LongitudeDegrees>-2.879893518984317779541015625</LongitudeDegrees>
            </Position>
            <AltitudeMeters>1159.199951171875</AltitudeMeters>
            <DistanceMeters>84351.351623817</DistanceMeters>
          </Trackpoint>
          <Trackpoint>
            <Time>2021-07-28T07:47:16.000Z</Time>
            <Position>
              <LatitudeDegrees>41.2107070349156856536865234375</LatitudeDegrees>
              <LongitudeDegrees>-2.879788242280483245849609375</LongitudeDegrees>
            </Position>
            <AltitudeMeters>1158.5999755859375</AltitudeMeters>
            <DistanceMeters>84361.192281304</DistanceMeters>
          </Trackpoint>
          <Trackpoint>
            <Time>2021-07-28T07:47:18.000Z</Time>
            <Position>
              <LatitudeDegrees>41.21080116368830204010009765625</LatitudeDegrees>
              <LongitudeDegrees>-2.8795865736901760101318359375</LongitudeDegrees>
            </Position>
            <AltitudeMeters>1157.4000244140625</AltitudeMeters>
            <DistanceMeters>84381.064455394</DistanceMeters>
          </Trackpoint>
          <Trackpoint>
            <Time>2021-07-28T07:47:20.000Z</Time>
            <Position>
              <LatitudeDegrees>41.21092580258846282958984375</LatitudeDegrees>
              <LongitudeDegrees>-2.87940778769552707672119140625</LongitudeDegrees>
            </Position>
            <AltitudeMeters>1156.199951171875</AltitudeMeters>
            <DistanceMeters>84401.474193911</DistanceMeters>
          </Trackpoint>
          <Trackpoint>
            <Time>2021-07-28T07:47:22.000Z</Time>
            <Position>
              <LatitudeDegrees>41.21106117032468318939208984375</LatitudeDegrees>
              <LongitudeDegrees>-2.879231683909893035888671875</LongitudeDegrees>
            </Position>
            <AltitudeMeters>1155.199951171875</AltitudeMeters>
            <DistanceMeters>84422.555780008</DistanceMeters>
          </Trackpoint>
          <Trackpoint>
            <Time>2021-07-28T07:47:23.000Z</Time>
            <Position>
              <LatitudeDegrees>41.2111231125891208648681640625</LatitudeDegrees>
              <LongitudeDegrees>-2.87913420237600803375244140625</LongitudeDegrees>
            </Position>
            <AltitudeMeters>1153.4000244140625</AltitudeMeters>
            <DistanceMeters>84433.240265321</DistanceMeters>
          </Trackpoint>
          <Trackpoint>
            <Time>2021-07-28T07:47:24.000Z</Time>
            <Position>
              <LatitudeDegrees>41.21117935515940189361572265625</LatitudeDegrees>
              <LongitudeDegrees>-2.8790306858718395233154296875</LongitudeDegrees>
            </Position>
            <AltitudeMeters>1152.199951171875</AltitudeMeters>
            <DistanceMeters>84443.931932062</DistanceMeters>
          </Trackpoint>
          <Trackpoint>
            <Time>2021-07-28T07:47:30.000Z</Time>
            <Position>
              <LatitudeDegrees>41.211488731205463409423828125</LatitudeDegrees>
              <LongitudeDegrees>-2.87842257879674434661865234375</LongitudeDegrees>
            </Position>
            <AltitudeMeters>1152.5999755859375</AltitudeMeters>
            <DistanceMeters>84505.399674131</DistanceMeters>
          </Trackpoint>
          <Trackpoint>
            <Time>2021-07-28T07:47:35.000Z</Time>
            <Position>
              <LatitudeDegrees>41.21171772480010986328125</LatitudeDegrees>
              <LongitudeDegrees>-2.87800557911396026611328125</LongitudeDegrees>
            </Position>
            <AltitudeMeters>1153.800048828125</AltitudeMeters>
            <DistanceMeters>84548.628265474</DistanceMeters>
          </Trackpoint>
          <Trackpoint>
            <Time>2021-07-28T07:47:38.000Z</Time>
            <Position>
              <LatitudeDegrees>41.2118214927613735198974609375</LatitudeDegrees>
              <LongitudeDegrees>-2.87781120277941226959228515625</LongitudeDegrees>
            </Position>
            <AltitudeMeters>1155</AltitudeMeters>
            <DistanceMeters>84568.58500673</DistanceMeters>
          </Trackpoint>
          <Trackpoint>
            <Time>2021-07-28T07:47:40.000Z</Time>
            <Position>
              <LatitudeDegrees>41.21187773533165454864501953125</LatitudeDegrees>
              <LongitudeDegrees>-2.87770592607557773590087890625</LongitudeDegrees>
            </Position>
            <AltitudeMeters>1156.4000244140625</AltitudeMeters>
            <DistanceMeters>84579.396357686</DistanceMeters>
          </Trackpoint>
          <Trackpoint>
            <Time>2021-07-28T07:47:42.000Z</Time>
            <Position>
              <LatitudeDegrees>41.2119301222264766693115234375</LatitudeDegrees>
              <LongitudeDegrees>-2.87761288695037364959716796875</LongitudeDegrees>
            </Position>
            <AltitudeMeters>1157.5999755859375</AltitudeMeters>
            <DistanceMeters>84589.126740593</DistanceMeters>
          </Trackpoint>
          <Trackpoint>
            <Time>2021-07-28T07:47:44.000Z</Time>
            <Position>
              <LatitudeDegrees>41.21197647415101528167724609375</LatitudeDegrees>
              <LongitudeDegrees>-2.877530157566070556640625</LongitudeDegrees>
            </Position>
            <AltitudeMeters>1158.5999755859375</AltitudeMeters>
            <DistanceMeters>84597.76320002</DistanceMeters>
          </Trackpoint>
          <Trackpoint>
            <Time>2021-07-28T07:47:47.000Z</Time>
            <Position>
              <LatitudeDegrees>41.21203464455902576446533203125</LatitudeDegrees>
              <LongitudeDegrees>-2.8774284012615680694580078125</LongitudeDegrees>
            </Position>
            <AltitudeMeters>1159.800048828125</AltitudeMeters>
            <DistanceMeters>84608.463731283</DistanceMeters>
          </Trackpoint>
          <Trackpoint>
            <Time>2021-07-28T07:47:51.000Z</Time>
            <Position>
              <LatitudeDegrees>41.212113015353679656982421875</LatitudeDegrees>
              <LongitudeDegrees>-2.87731952033936977386474609375</LongitudeDegrees>
            </Position>
            <AltitudeMeters>1161.199951171875</AltitudeMeters>
            <DistanceMeters>84621.081189335</DistanceMeters>
          </Trackpoint>
          <Trackpoint>
            <Time>2021-07-28T07:47:57.000Z</Time>
            <Position>
              <LatitudeDegrees>41.21224083937704563140869140625</LatitudeDegrees>
              <LongitudeDegrees>-2.8772155009210109710693359375</LongitudeDegrees>
            </Position>
            <AltitudeMeters>1162.199951171875</AltitudeMeters>
            <DistanceMeters>84637.762370517</DistanceMeters>
          </Trackpoint>
          <Trackpoint>
            <Time>2021-07-28T07:48:04.000Z</Time>
            <Position>
              <LatitudeDegrees>41.2123924680054187774658203125</LatitudeDegrees>
              <LongitudeDegrees>-2.8771008364856243133544921875</LongitudeDegrees>
            </Position>
            <AltitudeMeters>1163.4000244140625</AltitudeMeters>
            <DistanceMeters>84657.178539845</DistanceMeters>
          </Trackpoint>
          <Trackpoint>
            <Time>2021-07-28T07:48:17.000Z</Time>
            <Position>
              <LatitudeDegrees>41.21261081658303737640380859375</LatitudeDegrees>
              <LongitudeDegrees>-2.87678726948797702789306640625</LongitudeDegrees>
            </Position>
            <AltitudeMeters>1164.800048828125</AltitudeMeters>
            <DistanceMeters>84692.954551853</DistanceMeters>
          </Trackpoint>
          <Trackpoint>
            <Time>2021-07-28T07:48:24.000Z</Time>
            <Position>
              <LatitudeDegrees>41.2127237208187580108642578125</LatitudeDegrees>
              <LongitudeDegrees>-2.87659683264791965484619140625</LongitudeDegrees>
            </Position>
            <AltitudeMeters>1165.800048828125</AltitudeMeters>
            <DistanceMeters>84713.256270478</DistanceMeters>
          </Trackpoint>
          <Trackpoint>
            <Time>2021-07-28T07:48:32.000Z</Time>
            <Position>
              <LatitudeDegrees>41.21285137720406055450439453125</LatitudeDegrees>
              <LongitudeDegrees>-2.87638979963958263397216796875</LongitudeDegrees>
            </Position>
            <AltitudeMeters>1166.800048828125</AltitudeMeters>
            <DistanceMeters>84735.669686387</DistanceMeters>
          </Trackpoint>
          <Trackpoint>
            <Time>2021-07-28T07:48:39.000Z</Time>
            <Position>
              <LatitudeDegrees>41.2129716575145721435546875</LatitudeDegrees>
              <LongitudeDegrees>-2.8762252628803253173828125</LongitudeDegrees>
            </Position>
            <AltitudeMeters>1167.800048828125</AltitudeMeters>
            <DistanceMeters>84754.879425425</DistanceMeters>
          </Trackpoint>
          <Trackpoint>
            <Time>2021-07-28T07:48:50.000Z</Time>
            <Position>
              <LatitudeDegrees>41.21322940103709697723388671875</LatitudeDegrees>
              <LongitudeDegrees>-2.876076400279998779296875</LongitudeDegrees>
            </Position>
            <AltitudeMeters>1169</AltitudeMeters>
            <DistanceMeters>84786.157508517</DistanceMeters>
          </Trackpoint>
          <Trackpoint>
            <Time>2021-07-28T07:49:02.000Z</Time>
            <Position>
              <LatitudeDegrees>41.21355168521404266357421875</LatitudeDegrees>
              <LongitudeDegrees>-2.875987552106380462646484375</LongitudeDegrees>
            </Position>
            <AltitudeMeters>1170</AltitudeMeters>
            <DistanceMeters>84822.79175508</DistanceMeters>
          </Trackpoint>
          <Trackpoint>
            <Time>2021-07-28T07:49:08.000Z</Time>
            <Position>
              <LatitudeDegrees>41.2137523479759693145751953125</LatitudeDegrees>
              <LongitudeDegrees>-2.87592527456581592559814453125</LongitudeDegrees>
            </Position>
            <AltitudeMeters>1169.199951171875</AltitudeMeters>
            <DistanceMeters>84845.726487537</DistanceMeters>
          </Trackpoint>
          <Trackpoint>
            <Time>2021-07-28T07:49:12.000Z</Time>
            <Position>
              <LatitudeDegrees>41.21392208151519298553466796875</LatitudeDegrees>
              <LongitudeDegrees>-2.87584480829536914825439453125</LongitudeDegrees>
            </Position>
            <AltitudeMeters>1168</AltitudeMeters>
            <DistanceMeters>84865.783878585</DistanceMeters>
          </Trackpoint>
          <Trackpoint>
            <Time>2021-07-28T07:49:15.000Z</Time>
            <Position>
              <LatitudeDegrees>41.21406893245875835418701171875</LatitudeDegrees>
              <LongitudeDegrees>-2.8757728077471256256103515625</LongitudeDegrees>
            </Position>
            <AltitudeMeters>1166.5999755859375</AltitudeMeters>
            <DistanceMeters>84883.205154924</DistanceMeters>
          </Trackpoint>
          <Trackpoint>
            <Time>2021-07-28T07:49:17.000Z</Time>
            <Position>
              <LatitudeDegrees>41.21417605318129062652587890625</LatitudeDegrees>
              <LongitudeDegrees>-2.8757241927087306976318359375</LongitudeDegrees>
            </Position>
            <AltitudeMeters>1166</AltitudeMeters>
            <DistanceMeters>84895.803991526</DistanceMeters>
          </Trackpoint>
          <Trackpoint>
            <Time>2021-07-28T07:49:19.000Z</Time>
            <Position>
              <LatitudeDegrees>41.2142891250550746917724609375</LatitudeDegrees>
              <LongitudeDegrees>-2.87567214109003543853759765625</LongitudeDegrees>
            </Position>
            <AltitudeMeters>1165.199951171875</AltitudeMeters>
            <DistanceMeters>84909.122316931</DistanceMeters>
          </Trackpoint>
          <Trackpoint>
            <Time>2021-07-28T07:49:22.000Z</Time>
            <Position>
              <LatitudeDegrees>41.2144718505442142486572265625</LatitudeDegrees>
              <LongitudeDegrees>-2.8755857236683368682861328125</LongitudeDegrees>
            </Position>
            <AltitudeMeters>1164.199951171875</AltitudeMeters>
            <DistanceMeters>84930.708655311</DistanceMeters>
          </Trackpoint>
          <Trackpoint>
            <Time>2021-07-28T07:49:26.000Z</Time>
            <Position>
              <LatitudeDegrees>41.214725486934185028076171875</LatitudeDegrees>
              <LongitudeDegrees>-2.8754257969558238983154296875</LongitudeDegrees>
            </Position>
            <AltitudeMeters>1162.5999755859375</AltitudeMeters>
            <DistanceMeters>84961.953519919</DistanceMeters>
          </Trackpoint>
          <Trackpoint>
            <Time>2021-07-28T07:49:28.000Z</Time>
            <Position>
              <LatitudeDegrees>41.21484853327274322509765625</LatitudeDegrees>
              <LongitudeDegrees>-2.87531322799623012542724609375</LongitudeDegrees>
            </Position>
            <AltitudeMeters>1161.5999755859375</AltitudeMeters>
            <DistanceMeters>84978.578307127</DistanceMeters>
          </Trackpoint>
          <Trackpoint>
            <Time>2021-07-28T07:49:32.000Z</Time>
            <Position>
              <LatitudeDegrees>41.21509437449276447296142578125</LatitudeDegrees>
              <LongitudeDegrees>-2.87506696768105030059814453125</LongitudeDegrees>
            </Position>
            <AltitudeMeters>1160.199951171875</AltitudeMeters>
            <DistanceMeters>85012.839490222</DistanceMeters>
          </Trackpoint>
          <Trackpoint>
            <Time>2021-07-28T07:49:33.000Z</Time>
            <Position>
              <LatitudeDegrees>41.215163357555866241455078125</LatitudeDegrees>
              <LongitudeDegrees>-2.87501784972846508026123046875</LongitudeDegrees>
            </Position>
            <AltitudeMeters>1160</AltitudeMeters>
            <DistanceMeters>85021.549869219</DistanceMeters>
          </Trackpoint>
          <Trackpoint>
            <Time>2021-07-28T07:49:37.000Z</Time>
            <Position>
              <LatitudeDegrees>41.21546988375484943389892578125</LatitudeDegrees>
              <LongitudeDegrees>-2.875046096742153167724609375</LongitudeDegrees>
            </Position>
            <AltitudeMeters>1159</AltitudeMeters>
            <DistanceMeters>85055.748794216</DistanceMeters>
          </Trackpoint>
          <Trackpoint>
            <Time>2021-07-28T07:49:39.000Z</Time>
            <Position>
              <LatitudeDegrees>41.2156181596219539642333984375</LatitudeDegrees>
              <LongitudeDegrees>-2.875156402587890625</LongitudeDegrees>
            </Position>
            <AltitudeMeters>1158</AltitudeMeters>
            <DistanceMeters>85074.660304141</DistanceMeters>
          </Trackpoint>
          <Trackpoint>
            <Time>2021-07-28T07:49:40.000Z</Time>
            <Position>
              <LatitudeDegrees>41.215693764388561248779296875</LatitudeDegrees>
              <LongitudeDegrees>-2.87521800957620143890380859375</LongitudeDegrees>
            </Position>
            <AltitudeMeters>1157.199951171875</AltitudeMeters>
            <DistanceMeters>85084.529824626</DistanceMeters>
          </Trackpoint>
          <Trackpoint>
            <Time>2021-07-28T07:49:42.000Z</Time>
            <Position>
              <LatitudeDegrees>41.21584690175950527191162109375</LatitudeDegrees>
              <LongitudeDegrees>-2.87535044364631175994873046875</LongitudeDegrees>
            </Position>
            <AltitudeMeters>1155.5999755859375</AltitudeMeters>
            <DistanceMeters>85104.863543178</DistanceMeters>
          </Trackpoint>
          <Trackpoint>
            <Time>2021-07-28T07:49:43.000Z</Time>
            <Position>
              <LatitudeDegrees>41.21592250652611255645751953125</LatitudeDegrees>
              <LongitudeDegrees>-2.875423617660999298095703125</LongitudeDegrees>
            </Position>
            <AltitudeMeters>1154.5999755859375</AltitudeMeters>
            <DistanceMeters>85115.272330676</DistanceMeters>
          </Trackpoint>
          <Trackpoint>
            <Time>2021-07-28T07:49:45.000Z</Time>
            <Position>
              <LatitudeDegrees>41.21606566943228244781494140625</LatitudeDegrees>
              <LongitudeDegrees>-2.875578515231609344482421875</LongitudeDegrees>
            </Position>
            <AltitudeMeters>1153.4000244140625</AltitudeMeters>
            <DistanceMeters>85135.817449154</DistanceMeters>
          </Trackpoint>
          <Trackpoint>
            <Time>2021-07-28T07:49:50.000Z</Time>
            <Position>
              <LatitudeDegrees>41.21634713374078273773193359375</LatitudeDegrees>
              <LongitudeDegrees>-2.87593625485897064208984375</LongitudeDegrees>
            </Position>
            <AltitudeMeters>1153.199951171875</AltitudeMeters>
            <DistanceMeters>85179.159320048</DistanceMeters>
          </Trackpoint>
          <Trackpoint>
            <Time>2021-07-28T07:49:53.000Z</Time>
            <Position>
              <LatitudeDegrees>41.2164607085287570953369140625</LatitudeDegrees>
              <LongitudeDegrees>-2.87617363035678863525390625</LongitudeDegrees>
            </Position>
            <AltitudeMeters>1152.5999755859375</AltitudeMeters>
            <DistanceMeters>85202.713105444</DistanceMeters>
          </Trackpoint>
          <Trackpoint>
            <Time>2021-07-28T07:49:54.000Z</Time>
            <Position>
              <LatitudeDegrees>41.21650882065296173095703125</LatitudeDegrees>
              <LongitudeDegrees>-2.876245044171810150146484375</LongitudeDegrees>
            </Position>
            <AltitudeMeters>1152.4000244140625</AltitudeMeters>
            <DistanceMeters>85210.739910252</DistanceMeters>
          </Trackpoint>
          <Trackpoint>
            <Time>2021-07-28T07:49:58.000Z</Time>
            <Position>
              <LatitudeDegrees>41.2167751975357532501220703125</LatitudeDegrees>
              <LongitudeDegrees>-2.87641779519617557525634765625</LongitudeDegrees>
            </Position>
            <AltitudeMeters>1151.199951171875</AltitudeMeters>
            <DistanceMeters>85243.728006776</DistanceMeters>
          </Trackpoint>
          <Trackpoint>
            <Time>2021-07-28T07:50:00.000Z</Time>
            <Position>
              <LatitudeDegrees>41.216920204460620880126953125</LatitudeDegrees>
              <LongitudeDegrees>-2.87644126452505588531494140625</LongitudeDegrees>
            </Position>
            <AltitudeMeters>1151.5999755859375</AltitudeMeters>
            <DistanceMeters>85259.987296981</DistanceMeters>
          </Trackpoint>
          <Trackpoint>
            <Time>2021-07-28T07:50:05.000Z</Time>
            <Position>
              <LatitudeDegrees>41.2172392196953296661376953125</LatitudeDegrees>
              <LongitudeDegrees>-2.876498512923717498779296875</LongitudeDegrees>
            </Position>
            <AltitudeMeters>1152.5999755859375</AltitudeMeters>
            <DistanceMeters>85295.816401036</DistanceMeters>
          </Trackpoint>
          <Trackpoint>
            <Time>2021-07-28T07:50:13.000Z</Time>
            <Position>
              <LatitudeDegrees>41.21764741837978363037109375</LatitudeDegrees>
              <LongitudeDegrees>-2.87663220427930355072021484375</LongitudeDegrees>
            </Position>
            <AltitudeMeters>1153.800048828125</AltitudeMeters>
            <DistanceMeters>85342.608157307</DistanceMeters>
          </Trackpoint>
          <Trackpoint>
            <Time>2021-07-28T07:50:22.000Z</Time>
            <Position>
              <LatitudeDegrees>41.2180428765714168548583984375</LatitudeDegrees>
              <LongitudeDegrees>-2.87676279433071613311767578125</LongitudeDegrees>
            </Position>
            <AltitudeMeters>1154.800048828125</AltitudeMeters>
            <DistanceMeters>85387.960994511</DistanceMeters>
          </Trackpoint>
          <Trackpoint>
            <Time>2021-07-28T07:50:31.000Z</Time>
            <Position>
              <LatitudeDegrees>41.2184120155870914459228515625</LatitudeDegrees>
              <LongitudeDegrees>-2.876884751021862030029296875</LongitudeDegrees>
            </Position>
            <AltitudeMeters>1156</AltitudeMeters>
            <DistanceMeters>85430.296542254</DistanceMeters>
          </Trackpoint>
          <Trackpoint>
            <Time>2021-07-28T07:50:37.000Z</Time>
            <Position>
              <LatitudeDegrees>41.2186788953840732574462890625</LatitudeDegrees>
              <LongitudeDegrees>-2.87690847180783748626708984375</LongitudeDegrees>
            </Position>
            <AltitudeMeters>1155</AltitudeMeters>
            <DistanceMeters>85460.067063627</DistanceMeters>
          </Trackpoint>
          <Trackpoint>
            <Time>2021-07-28T07:50:38.000Z</Time>
            <Position>
              <LatitudeDegrees>41.21872792951762676239013671875</LatitudeDegrees>
              <LongitudeDegrees>-2.8769013471901416778564453125</LongitudeDegrees>
            </Position>
            <AltitudeMeters>1154.4000244140625</AltitudeMeters>
            <DistanceMeters>85465.557272655</DistanceMeters>
          </Trackpoint>
          <Trackpoint>
            <Time>2021-07-28T07:50:39.000Z</Time>
            <Position>
              <LatitudeDegrees>41.21877905912697315216064453125</LatitudeDegrees>
              <LongitudeDegrees>-2.87688466720283031463623046875</LongitudeDegrees>
            </Position>
            <AltitudeMeters>1154</AltitudeMeters>
            <DistanceMeters>85471.416654076</DistanceMeters>
          </Trackpoint>
          <Trackpoint>
            <Time>2021-07-28T07:50:41.000Z</Time>
            <Position>
              <LatitudeDegrees>41.2188814021646976470947265625</LatitudeDegrees>
              <LongitudeDegrees>-2.876810319721698760986328125</LongitudeDegrees>
            </Position>
            <AltitudeMeters>1152.5999755859375</AltitudeMeters>
            <DistanceMeters>85484.396760635</DistanceMeters>
          </Trackpoint>
          <Trackpoint>
            <Time>2021-07-28T07:50:43.000Z</Time>
            <Position>
              <LatitudeDegrees>41.21896865777671337127685546875</LatitudeDegrees>
              <LongitudeDegrees>-2.876678891479969024658203125</LongitudeDegrees>
            </Position>
            <AltitudeMeters>1151.4000244140625</AltitudeMeters>
            <DistanceMeters>85499.072774513</DistanceMeters>
          </Trackpoint>
          <Trackpoint>
            <Time>2021-07-28T07:50:45.000Z</Time>
            <Position>
              <LatitudeDegrees>41.219036467373371124267578125</LatitudeDegrees>
              <LongitudeDegrees>-2.87650848738849163055419921875</LongitudeDegrees>
            </Position>
            <AltitudeMeters>1149.800048828125</AltitudeMeters>
            <DistanceMeters>85515.21249617</DistanceMeters>
          </Trackpoint>
          <Trackpoint>
            <Time>2021-07-28T07:50:46.000Z</Time>
            <Position>
              <LatitudeDegrees>41.21906857006251811981201171875</LatitudeDegrees>
              <LongitudeDegrees>-2.87641544826328754425048828125</LongitudeDegrees>
            </Position>
            <AltitudeMeters>1148.800048828125</AltitudeMeters>
            <DistanceMeters>85523.78230432</DistanceMeters>
          </Trackpoint>
          <Trackpoint>
            <Time>2021-07-28T07:50:48.000Z</Time>
            <Position>
              <LatitudeDegrees>41.21912925504148006439208984375</LatitudeDegrees>
              <LongitudeDegrees>-2.8762172162532806396484375</LongitudeDegrees>
            </Position>
            <AltitudeMeters>1147</AltitudeMeters>
            <DistanceMeters>85541.70032145</DistanceMeters>
          </Trackpoint>
          <Trackpoint>
            <Time>2021-07-28T07:50:49.000Z</Time>
            <Position>
              <LatitudeDegrees>41.21916043572127819061279296875</LatitudeDegrees>
              <LongitudeDegrees>-2.87611353211104869842529296875</LongitudeDegrees>
            </Position>
            <AltitudeMeters>1145.800048828125</AltitudeMeters>
            <DistanceMeters>85551.048748047</DistanceMeters>
          </Trackpoint>
          <Trackpoint>
            <Time>2021-07-28T07:50:50.000Z</Time>
            <Position>
              <LatitudeDegrees>41.21919371187686920166015625</LatitudeDegrees>
              <LongitudeDegrees>-2.8760085068643093109130859375</LongitudeDegrees>
            </Position>
            <AltitudeMeters>1144.800048828125</AltitudeMeters>
            <DistanceMeters>85560.590300892</DistanceMeters>
          </Trackpoint>
          <Trackpoint>
            <Time>2021-07-28T07:50:52.000Z</Time>
            <Position>
              <LatitudeDegrees>41.21927660889923572540283203125</LatitudeDegrees>
              <LongitudeDegrees>-2.87579812109470367431640625</LongitudeDegrees>
            </Position>
            <AltitudeMeters>1143.800048828125</AltitudeMeters>
            <DistanceMeters>85580.474286082</DistanceMeters>
          </Trackpoint>
          <Trackpoint>
            <Time>2021-07-28T07:50:54.000Z</Time>
            <Position>
              <LatitudeDegrees>41.21938490308821201324462890625</LatitudeDegrees>
              <LongitudeDegrees>-2.8755941055715084075927734375</LongitudeDegrees>
            </Position>
            <AltitudeMeters>1142.5999755859375</AltitudeMeters>
            <DistanceMeters>85601.379299346</DistanceMeters>
          </Trackpoint>
          <Trackpoint>
            <Time>2021-07-28T07:50:55.000Z</Time>
            <Position>
              <LatitudeDegrees>41.21944424696266651153564453125</LatitudeDegrees>
              <LongitudeDegrees>-2.875492013990879058837890625</LongitudeDegrees>
            </Position>
            <AltitudeMeters>1141.4000244140625</AltitudeMeters>
            <DistanceMeters>85612.181040768</DistanceMeters>
          </Trackpoint>
          <Trackpoint>
            <Time>2021-07-28T07:50:57.000Z</Time>
            <Position>
              <LatitudeDegrees>41.219568215310573577880859375</LatitudeDegrees>
              <LongitudeDegrees>-2.8752833046019077301025390625</LongitudeDegrees>
            </Position>
            <AltitudeMeters>1139.5999755859375</AltitudeMeters>
            <DistanceMeters>85634.445294995</DistanceMeters>
          </Trackpoint>
          <Trackpoint>
            <Time>2021-07-28T07:50:58.000Z</Time>
            <Position>
              <LatitudeDegrees>41.2196300737559795379638671875</LatitudeDegrees>
              <LongitudeDegrees>-2.875173501670360565185546875</LongitudeDegrees>
            </Position>
            <AltitudeMeters>1138.4000244140625</AltitudeMeters>
            <DistanceMeters>85645.930561936</DistanceMeters>
          </Trackpoint>
          <Trackpoint>
            <Time>2021-07-28T07:50:59.000Z</Time>
            <Position>
              <LatitudeDegrees>41.219686567783355712890625</LatitudeDegrees>
              <LongitudeDegrees>-2.87505540065467357635498046875</LongitudeDegrees>
            </Position>
            <AltitudeMeters>1137.199951171875</AltitudeMeters>
            <DistanceMeters>85657.648168873</DistanceMeters>
          </Trackpoint>
          <Trackpoint>
            <Time>2021-07-28T07:51:01.000Z</Time>
            <Position>
              <LatitudeDegrees>41.2197769246995449066162109375</LatitudeDegrees>
              <LongitudeDegrees>-2.87479673512279987335205078125</LongitudeDegrees>
            </Position>
            <AltitudeMeters>1135.5999755859375</AltitudeMeters>
            <DistanceMeters>85681.525037307</DistanceMeters>
          </Trackpoint>
          <Trackpoint>
            <Time>2021-07-28T07:51:02.000Z</Time>
            <Position>
              <LatitudeDegrees>41.21981472708284854888916015625</LatitudeDegrees>
              <LongitudeDegrees>-2.8746603615581989288330078125</LongitudeDegrees>
            </Position>
            <AltitudeMeters>1134.4000244140625</AltitudeMeters>
            <DistanceMeters>85693.69253924</DistanceMeters>
          </Trackpoint>
          <Trackpoint>
            <Time>2021-07-28T07:51:03.000Z</Time>
            <Position>
              <LatitudeDegrees>41.21985177509486675262451171875</LatitudeDegrees>
              <LongitudeDegrees>-2.87452147342264652252197265625</LongitudeDegrees>
            </Position>
            <AltitudeMeters>1132.800048828125</AltitudeMeters>
            <DistanceMeters>85706.029188234</DistanceMeters>
          </Trackpoint>
          <Trackpoint>
            <Time>2021-07-28T07:51:05.000Z</Time>
            <Position>
              <LatitudeDegrees>41.219926960766315460205078125</LatitudeDegrees>
              <LongitudeDegrees>-2.87423841655254364013671875</LongitudeDegrees>
            </Position>
            <AltitudeMeters>1131.199951171875</AltitudeMeters>
            <DistanceMeters>85731.160834952</DistanceMeters>
          </Trackpoint>
          <Trackpoint>
            <Time>2021-07-28T07:51:07.000Z</Time>
            <Position>
              <LatitudeDegrees>41.2200055830180644989013671875</LatitudeDegrees>
              <LongitudeDegrees>-2.8739489056169986724853515625</LongitudeDegrees>
            </Position>
            <AltitudeMeters>1129.5999755859375</AltitudeMeters>
            <DistanceMeters>85756.92990035</DistanceMeters>
          </Trackpoint>
          <Trackpoint>
            <Time>2021-07-28T07:51:09.000Z</Time>
            <Position>
              <LatitudeDegrees>41.2201036512851715087890625</LatitudeDegrees>
              <LongitudeDegrees>-2.873674146831035614013671875</LongitudeDegrees>
            </Position>
            <AltitudeMeters>1128.199951171875</AltitudeMeters>
            <DistanceMeters>85782.391031273</DistanceMeters>
          </Trackpoint>
          <Trackpoint>
            <Time>2021-07-28T07:51:11.000Z</Time>
            <Position>
              <LatitudeDegrees>41.22026114724576473236083984375</LatitudeDegrees>
              <LongitudeDegrees>-2.87344892509281635284423828125</LongitudeDegrees>
            </Position>
            <AltitudeMeters>1126.5999755859375</AltitudeMeters>
            <DistanceMeters>85808.136081496</DistanceMeters>
          </Trackpoint>
          <Trackpoint>
            <Time>2021-07-28T07:51:12.000Z</Time>
            <Position>
              <LatitudeDegrees>41.2203589640557765960693359375</LatitudeDegrees>
              <LongitudeDegrees>-2.87335823290050029754638671875</LongitudeDegrees>
            </Position>
            <AltitudeMeters>1125.4000244140625</AltitudeMeters>
            <DistanceMeters>85821.409922371</DistanceMeters>
          </Trackpoint>
          <Trackpoint>
            <Time>2021-07-28T07:51:13.000Z</Time>
            <Position>
              <LatitudeDegrees>41.22045342810451984405517578125</LatitudeDegrees>
              <LongitudeDegrees>-2.87326276302337646484375</LongitudeDegrees>
            </Position>
            <AltitudeMeters>1124.199951171875</AltitudeMeters>
            <DistanceMeters>85834.616926445</DistanceMeters>
          </Trackpoint>
          <Trackpoint>
            <Time>2021-07-28T07:51:17.000Z</Time>
            <Position>
              <LatitudeDegrees>41.2207140214741230010986328125</LatitudeDegrees>
              <LongitudeDegrees>-2.8727787919342517852783203125</LongitudeDegrees>
            </Position>
            <AltitudeMeters>1124</AltitudeMeters>
            <DistanceMeters>85884.44591278</DistanceMeters>
          </Trackpoint>
          <Trackpoint>
            <Time>2021-07-28T07:51:18.000Z</Time>
            <Position>
              <LatitudeDegrees>41.22077085077762603759765625</LatitudeDegrees>
              <LongitudeDegrees>-2.87266085855662822723388671875</LongitudeDegrees>
            </Position>
            <AltitudeMeters>1124.199951171875</AltitudeMeters>
            <DistanceMeters>85896.171608663</DistanceMeters>
          </Trackpoint>
          <Trackpoint>
            <Time>2021-07-28T07:51:23.000Z</Time>
            <Position>
              <LatitudeDegrees>41.2211227230727672576904296875</LatitudeDegrees>
              <LongitudeDegrees>-2.87222835235297679901123046875</LongitudeDegrees>
            </Position>
            <AltitudeMeters>1124.800048828125</AltitudeMeters>
            <DistanceMeters>85949.509283186</DistanceMeters>
          </Trackpoint>
          <Trackpoint>
            <Time>2021-07-28T07:51:26.000Z</Time>
            <Position>
              <LatitudeDegrees>41.22133470140397548675537109375</LatitudeDegrees>
              <LongitudeDegrees>-2.8720411844551563262939453125</LongitudeDegrees>
            </Position>
            <AltitudeMeters>1125.4000244140625</AltitudeMeters>
            <DistanceMeters>85977.832026888</DistanceMeters>
          </Trackpoint>
          <Trackpoint>
            <Time>2021-07-28T07:51:30.000Z</Time>
            <Position>
              <LatitudeDegrees>41.22156654484570026397705078125</LatitudeDegrees>
              <LongitudeDegrees>-2.87178553640842437744140625</LongitudeDegrees>
            </Position>
            <AltitudeMeters>1126.5999755859375</AltitudeMeters>
            <DistanceMeters>86011.357203915</DistanceMeters>
          </Trackpoint>
          <Trackpoint>
            <Time>2021-07-28T07:51:35.000Z</Time>
            <Position>
              <LatitudeDegrees>41.2217654474079608917236328125</LatitudeDegrees>
              <LongitudeDegrees>-2.87147666327655315399169921875</LongitudeDegrees>
            </Position>
            <AltitudeMeters>1128</AltitudeMeters>
            <DistanceMeters>86045.397598145</DistanceMeters>
          </Trackpoint>
          <Trackpoint>
            <Time>2021-07-28T07:51:40.000Z</Time>
            <Position>
              <LatitudeDegrees>41.2219087779521942138671875</LatitudeDegrees>
              <LongitudeDegrees>-2.871226631104946136474609375</LongitudeDegrees>
            </Position>
            <AltitudeMeters>1129.199951171875</AltitudeMeters>
            <DistanceMeters>86071.716052578</DistanceMeters>
          </Trackpoint>
          <Trackpoint>
            <Time>2021-07-28T07:51:44.000Z</Time>
            <Position>
              <LatitudeDegrees>41.222009360790252685546875</LatitudeDegrees>
              <LongitudeDegrees>-2.87104935385286808013916015625</LongitudeDegrees>
            </Position>
            <AltitudeMeters>1130.199951171875</AltitudeMeters>
            <DistanceMeters>86090.306105176</DistanceMeters>
          </Trackpoint>
          <Trackpoint>
            <Time>2021-07-28T07:51:56.000Z</Time>
            <Position>
              <LatitudeDegrees>41.22228504158556461334228515625</LatitudeDegrees>
              <LongitudeDegrees>-2.870540320873260498046875</LongitudeDegrees>
            </Position>
            <AltitudeMeters>1131.4000244140625</AltitudeMeters>
            <DistanceMeters>86142.818060135</DistanceMeters>
          </Trackpoint>
          <Trackpoint>
            <Time>2021-07-28T07:52:03.000Z</Time>
            <Position>
              <LatitudeDegrees>41.22244681231677532196044921875</LatitudeDegrees>
              <LongitudeDegrees>-2.87025877274572849273681640625</LongitudeDegrees>
            </Position>
            <AltitudeMeters>1132.4000244140625</AltitudeMeters>
            <DistanceMeters>86172.478575428</DistanceMeters>
          </Trackpoint>
          <Trackpoint>
            <Time>2021-07-28T07:52:18.000Z</Time>
            <Position>
              <LatitudeDegrees>41.22279583476483821868896484375</LatitudeDegrees>
              <LongitudeDegrees>-2.86964915692806243896484375</LongitudeDegrees>
            </Position>
            <AltitudeMeters>1132.199951171875</AltitudeMeters>
            <DistanceMeters>86236.616187357</DistanceMeters>
          </Trackpoint>
          <Trackpoint>
            <Time>2021-07-28T07:52:33.000Z</Time>
            <Position>
              <LatitudeDegrees>41.22313949279487133026123046875</LatitudeDegrees>
              <LongitudeDegrees>-2.86904389970004558563232421875</LongitudeDegrees>
            </Position>
            <AltitudeMeters>1133.5999755859375</AltitudeMeters>
            <DistanceMeters>86300.102140605</DistanceMeters>
          </Trackpoint>
          <Trackpoint>
            <Time>2021-07-28T07:52:39.000Z</Time>
            <Position>
              <LatitudeDegrees>41.22327192686498165130615234375</LatitudeDegrees>
              <LongitudeDegrees>-2.8688342683017253875732421875</LongitudeDegrees>
            </Position>
            <AltitudeMeters>1134.800048828125</AltitudeMeters>
            <DistanceMeters>86323.020330465</DistanceMeters>
          </Trackpoint>
          <Trackpoint>
            <Time>2021-07-28T07:52:44.000Z</Time>
            <Position>
              <LatitudeDegrees>41.223407797515392303466796875</LatitudeDegrees>
              <LongitudeDegrees>-2.8686963021755218505859375</LongitudeDegrees>
            </Position>
            <AltitudeMeters>1135.800048828125</AltitudeMeters>
            <DistanceMeters>86342.048940642</DistanceMeters>
          </Trackpoint>
          <Trackpoint>
            <Time>2021-07-28T07:52:59.000Z</Time>
            <Position>
              <LatitudeDegrees>41.2239487655460834503173828125</LatitudeDegrees>
              <LongitudeDegrees>-2.868443839251995086669921875</LongitudeDegrees>
            </Position>
            <AltitudeMeters>1135.199951171875</AltitudeMeters>
            <DistanceMeters>86405.861342819</DistanceMeters>
          </Trackpoint>
          <Trackpoint>
            <Time>2021-07-28T07:53:11.000Z</Time>
            <Position>
              <LatitudeDegrees>41.22441940940916538238525390625</LatitudeDegrees>
              <LongitudeDegrees>-2.86827385425567626953125</LongitudeDegrees>
            </Position>
            <AltitudeMeters>1134.800048828125</AltitudeMeters>
            <DistanceMeters>86460.143476749</DistanceMeters>
          </Trackpoint>
          <Trackpoint>
            <Time>2021-07-28T07:53:18.000Z</Time>
            <Position>
              <LatitudeDegrees>41.2247339822351932525634765625</LatitudeDegrees>
              <LongitudeDegrees>-2.8681491315364837646484375</LongitudeDegrees>
            </Position>
            <AltitudeMeters>1134</AltitudeMeters>
            <DistanceMeters>86496.679734638</DistanceMeters>
          </Trackpoint>
          <Trackpoint>
            <Time>2021-07-28T07:53:19.000Z</Time>
            <Position>
              <LatitudeDegrees>41.2247812561690807342529296875</LatitudeDegrees>
              <LongitudeDegrees>-2.8681308589875698089599609375</LongitudeDegrees>
            </Position>
            <AltitudeMeters>1133.800048828125</AltitudeMeters>
            <DistanceMeters>86502.159242297</DistanceMeters>
          </Trackpoint>
          <Trackpoint>
            <Time>2021-07-28T07:53:30.000Z</Time>
            <Position>
              <LatitudeDegrees>41.22530437074601650238037109375</LatitudeDegrees>
              <LongitudeDegrees>-2.86789901554584503173828125</LongitudeDegrees>
            </Position>
            <AltitudeMeters>1132.800048828125</AltitudeMeters>
            <DistanceMeters>86563.532523672</DistanceMeters>
          </Trackpoint>
          <Trackpoint>
            <Time>2021-07-28T07:53:31.000Z</Time>
            <Position>
              <LatitudeDegrees>41.225353740155696868896484375</LatitudeDegrees>
              <LongitudeDegrees>-2.86787713877856731414794921875</LongitudeDegrees>
            </Position>
            <AltitudeMeters>1132.800048828125</AltitudeMeters>
            <DistanceMeters>86569.325257402</DistanceMeters>
          </Trackpoint>
          <Trackpoint>
            <Time>2021-07-28T07:53:40.000Z</Time>
            <Position>
              <LatitudeDegrees>41.2258299998939037322998046875</LatitudeDegrees>
              <LongitudeDegrees>-2.867663316428661346435546875</LongitudeDegrees>
            </Position>
            <AltitudeMeters>1131.5999755859375</AltitudeMeters>
            <DistanceMeters>86625.274449707</DistanceMeters>
          </Trackpoint>
          <Trackpoint>
            <Time>2021-07-28T07:53:44.000Z</Time>
            <Position>
              <LatitudeDegrees>41.2260589934885501861572265625</LatitudeDegrees>
              <LongitudeDegrees>-2.86755837500095367431640625</LongitudeDegrees>
            </Position>
            <AltitudeMeters>1130.4000244140625</AltitudeMeters>
            <DistanceMeters>86652.233245536</DistanceMeters>
          </Trackpoint>
          <Trackpoint>
            <Time>2021-07-28T07:53:49.000Z</Time>
            <Position>
              <LatitudeDegrees>41.22635110281407833099365234375</LatitudeDegrees>
              <LongitudeDegrees>-2.86742988042533397674560546875</LongitudeDegrees>
            </Position>
            <AltitudeMeters>1129</AltitudeMeters>
            <DistanceMeters>86686.478742874</DistanceMeters>
          </Trackpoint>
          <Trackpoint>
            <Time>2021-07-28T07:53:59.000Z</Time>
            <Position>
              <LatitudeDegrees>41.2268901430070400238037109375</LatitudeDegrees>
              <LongitudeDegrees>-2.86718479357659816741943359375</LongitudeDegrees>
            </Position>
            <AltitudeMeters>1129.199951171875</AltitudeMeters>
            <DistanceMeters>86749.885990057</DistanceMeters>
          </Trackpoint>
          <Trackpoint>
            <Time>2021-07-28T07:54:05.000Z</Time>
            <Position>
              <LatitudeDegrees>41.22714185155928134918212890625</LatitudeDegrees>
              <LongitudeDegrees>-2.86706962622702121734619140625</LongitudeDegrees>
            </Position>
            <AltitudeMeters>1130.199951171875</AltitudeMeters>
            <DistanceMeters>86779.514216316</DistanceMeters>
          </Trackpoint>
          <Trackpoint>
            <Time>2021-07-28T07:54:11.000Z</Time>
            <Position>
              <LatitudeDegrees>41.22736682184040546417236328125</LatitudeDegrees>
              <LongitudeDegrees>-2.8669703006744384765625</LongitudeDegrees>
            </Position>
            <AltitudeMeters>1131.4000244140625</AltitudeMeters>
            <DistanceMeters>86805.898294147</DistanceMeters>
          </Trackpoint>
          <Trackpoint>
            <Time>2021-07-28T07:54:19.000Z</Time>
            <Position>
              <LatitudeDegrees>41.2276629544794559478759765625</LatitudeDegrees>
              <LongitudeDegrees>-2.86683325655758380889892578125</LongitudeDegrees>
            </Position>
            <AltitudeMeters>1132.4000244140625</AltitudeMeters>
            <DistanceMeters>86840.797817221</DistanceMeters>
          </Trackpoint>
          <Trackpoint>
            <Time>2021-07-28T07:54:33.000Z</Time>
            <Position>
              <LatitudeDegrees>41.22803234495222568511962890625</LatitudeDegrees>
              <LongitudeDegrees>-2.8663367964327335357666015625</LongitudeDegrees>
            </Position>
            <AltitudeMeters>1133.4000244140625</AltitudeMeters>
            <DistanceMeters>86899.256935847</DistanceMeters>
          </Trackpoint>
          <Trackpoint>
            <Time>2021-07-28T07:54:43.000Z</Time>
            <Position>
              <LatitudeDegrees>41.228175424039363861083984375</LatitudeDegrees>
              <LongitudeDegrees>-2.86591325886547565460205078125</LongitudeDegrees>
            </Position>
            <AltitudeMeters>1134.5999755859375</AltitudeMeters>
            <DistanceMeters>86938.1233267</DistanceMeters>
          </Trackpoint>
          <Trackpoint>
            <Time>2021-07-28T07:54:57.000Z</Time>
            <Position>
              <LatitudeDegrees>41.22840617783367633819580078125</LatitudeDegrees>
              <LongitudeDegrees>-2.8652414493262767791748046875</LongitudeDegrees>
            </Position>
            <AltitudeMeters>1134.800048828125</AltitudeMeters>
            <DistanceMeters>86999.947169565</DistanceMeters>
          </Trackpoint>
          <Trackpoint>
            <Time>2021-07-28T07:55:10.000Z</Time>
            <Position>
              <LatitudeDegrees>41.22870524413883686065673828125</LatitudeDegrees>
              <LongitudeDegrees>-2.86460484378039836883544921875</LongitudeDegrees>
            </Position>
            <AltitudeMeters>1134</AltitudeMeters>
            <DistanceMeters>87062.778442191</DistanceMeters>
          </Trackpoint>
          <Trackpoint>
            <Time>2021-07-28T07:55:14.000Z</Time>
            <Position>
              <LatitudeDegrees>41.22881672345101833343505859375</LatitudeDegrees>
              <LongitudeDegrees>-2.864437289535999298095703125</LongitudeDegrees>
            </Position>
            <AltitudeMeters>1133.800048828125</AltitudeMeters>
            <DistanceMeters>87081.504733565</DistanceMeters>
          </Trackpoint>
          <Trackpoint>
            <Time>2021-07-28T07:55:20.000Z</Time>
            <Position>
              <LatitudeDegrees>41.22902275063097476959228515625</LatitudeDegrees>
              <LongitudeDegrees>-2.86417602561414241790771484375</LongitudeDegrees>
            </Position>
            <AltitudeMeters>1132.4000244140625</AltitudeMeters>
            <DistanceMeters>87113.192972718</DistanceMeters>
          </Trackpoint>
          <Trackpoint>
            <Time>2021-07-28T07:55:23.000Z</Time>
            <Position>
              <LatitudeDegrees>41.22915686108171939849853515625</LatitudeDegrees>
              <LongitudeDegrees>-2.86402096040546894073486328125</LongitudeDegrees>
            </Position>
            <AltitudeMeters>1131</AltitudeMeters>
            <DistanceMeters>87132.974056421</DistanceMeters>
          </Trackpoint>
          <Trackpoint>
            <Time>2021-07-28T07:55:25.000Z</Time>
            <Position>
              <LatitudeDegrees>41.22926138341426849365234375</LatitudeDegrees>
              <LongitudeDegrees>-2.8639053739607334136962890625</LongitudeDegrees>
            </Position>
            <AltitudeMeters>1129.800048828125</AltitudeMeters>
            <DistanceMeters>87148.10510259</DistanceMeters>
          </Trackpoint>
          <Trackpoint>
            <Time>2021-07-28T07:55:27.000Z</Time>
            <Position>
              <LatitudeDegrees>41.22937847860157489776611328125</LatitudeDegrees>
              <LongitudeDegrees>-2.86378123797476291656494140625</LongitudeDegrees>
            </Position>
            <AltitudeMeters>1128.199951171875</AltitudeMeters>
            <DistanceMeters>87164.773286712</DistanceMeters>
          </Trackpoint>
          <Trackpoint>
            <Time>2021-07-28T07:55:29.000Z</Time>
            <Position>
              <LatitudeDegrees>41.22950588352978229522705078125</LatitudeDegrees>
              <LongitudeDegrees>-2.86364846862852573394775390625</LongitudeDegrees>
            </Position>
            <AltitudeMeters>1126.800048828125</AltitudeMeters>
            <DistanceMeters>87182.789810457</DistanceMeters>
          </Trackpoint>
          <Trackpoint>
            <Time>2021-07-28T07:55:31.000Z</Time>
            <Position>
              <LatitudeDegrees>41.22964066453278064727783203125</LatitudeDegrees>
              <LongitudeDegrees>-2.86350346170365810394287109375</LongitudeDegrees>
            </Position>
            <AltitudeMeters>1125</AltitudeMeters>
            <DistanceMeters>87202.086785928</DistanceMeters>
          </Trackpoint>
          <Trackpoint>
            <Time>2021-07-28T07:55:33.000Z</Time>
            <Position>
              <LatitudeDegrees>41.22978215105831623077392578125</LatitudeDegrees>
              <LongitudeDegrees>-2.863349653780460357666015625</LongitudeDegrees>
            </Position>
            <AltitudeMeters>1123.4000244140625</AltitudeMeters>
            <DistanceMeters>87222.427386768</DistanceMeters>
          </Trackpoint>
          <Trackpoint>
            <Time>2021-07-28T07:55:35.000Z</Time>
            <Position>
              <LatitudeDegrees>41.22992665506899356842041015625</LatitudeDegrees>
              <LongitudeDegrees>-2.86318503320217132568359375</LongitudeDegrees>
            </Position>
            <AltitudeMeters>1121.4000244140625</AltitudeMeters>
            <DistanceMeters>87243.607048649</DistanceMeters>
          </Trackpoint>
          <Trackpoint>
            <Time>2021-07-28T07:55:37.000Z</Time>
            <Position>
              <LatitudeDegrees>41.2300745956599712371826171875</LatitudeDegrees>
              <LongitudeDegrees>-2.86300666630268096923828125</LongitudeDegrees>
            </Position>
            <AltitudeMeters>1120.199951171875</AltitudeMeters>
            <DistanceMeters>87265.834363881</DistanceMeters>
          </Trackpoint>
          <Trackpoint>
            <Time>2021-07-28T07:55:39.000Z</Time>
            <Position>
              <LatitudeDegrees>41.23022572137415409088134765625</LatitudeDegrees>
              <LongitudeDegrees>-2.8628127090632915496826171875</LongitudeDegrees>
            </Position>
            <AltitudeMeters>1118.5999755859375</AltitudeMeters>
            <DistanceMeters>87289.21209445</DistanceMeters>
          </Trackpoint>
          <Trackpoint>
            <Time>2021-07-28T07:55:40.000Z</Time>
            <Position>
              <LatitudeDegrees>41.2303012423217296600341796875</LatitudeDegrees>
              <LongitudeDegrees>-2.86270801909267902374267578125</LongitudeDegrees>
            </Position>
            <AltitudeMeters>1117.4000244140625</AltitudeMeters>
            <DistanceMeters>87301.354709002</DistanceMeters>
          </Trackpoint>
          <Trackpoint>
            <Time>2021-07-28T07:55:41.000Z</Time>
            <Position>
              <LatitudeDegrees>41.23037676326930522918701171875</LatitudeDegrees>
              <LongitudeDegrees>-2.86259871907532215118408203125</LongitudeDegrees>
            </Position>
            <AltitudeMeters>1116.199951171875</AltitudeMeters>
            <DistanceMeters>87313.778884095</DistanceMeters>
          </Trackpoint>
          <Trackpoint>
            <Time>2021-07-28T07:55:42.000Z</Time>
            <Position>
              <LatitudeDegrees>41.23045228421688079833984375</LatitudeDegrees>
              <LongitudeDegrees>-2.86248506046831607818603515625</LongitudeDegrees>
            </Position>
            <AltitudeMeters>1114.4000244140625</AltitudeMeters>
            <DistanceMeters>87326.474111717</DistanceMeters>
          </Trackpoint>
          <Trackpoint>
            <Time>2021-07-28T07:55:43.000Z</Time>
            <Position>
              <LatitudeDegrees>41.23052814044058322906494140625</LatitudeDegrees>
              <LongitudeDegrees>-2.862367965281009674072265625</LongitudeDegrees>
            </Position>
            <AltitudeMeters>1113.4000244140625</AltitudeMeters>
            <DistanceMeters>87339.410315822</DistanceMeters>
          </Trackpoint>
          <Trackpoint>
            <Time>2021-07-28T07:55:44.000Z</Time>
            <Position>
              <LatitudeDegrees>41.230602823197841644287109375</LatitudeDegrees>
              <LongitudeDegrees>-2.8622501157224178314208984375</LongitudeDegrees>
            </Position>
            <AltitudeMeters>1111.800048828125</AltitudeMeters>
            <DistanceMeters>87352.310170423</DistanceMeters>
          </Trackpoint>
          <Trackpoint>
            <Time>2021-07-28T07:55:46.000Z</Time>
            <Position>
              <LatitudeDegrees>41.23073098249733448028564453125</LatitudeDegrees>
              <LongitudeDegrees>-2.86201064474880695343017578125</LongitudeDegrees>
            </Position>
            <AltitudeMeters>1111</AltitudeMeters>
            <DistanceMeters>87376.912731754</DistanceMeters>
          </Trackpoint>
          <Trackpoint>
            <Time>2021-07-28T07:55:50.000Z</Time>
            <Position>
              <LatitudeDegrees>41.23075612820684909820556640625</LatitudeDegrees>
              <LongitudeDegrees>-2.8615282662212848663330078125</LongitudeDegrees>
            </Position>
            <AltitudeMeters>1114</AltitudeMeters>
            <DistanceMeters>87417.387642604</DistanceMeters>
          </Trackpoint>
          <Trackpoint>
            <Time>2021-07-28T07:55:52.000Z</Time>
            <Position>
              <LatitudeDegrees>41.23068572022020816802978515625</LatitudeDegrees>
              <LongitudeDegrees>-2.86137144081294536590576171875</LongitudeDegrees>
            </Position>
            <AltitudeMeters>1116.199951171875</AltitudeMeters>
            <DistanceMeters>87432.676020499</DistanceMeters>
          </Trackpoint>
          <Trackpoint>
            <Time>2021-07-28T07:55:53.000Z</Time>
            <Position>
              <LatitudeDegrees>41.23065118677914142608642578125</LatitudeDegrees>
              <LongitudeDegrees>-2.861313857138156890869140625</LongitudeDegrees>
            </Position>
            <AltitudeMeters>1117.4000244140625</AltitudeMeters>
            <DistanceMeters>87438.841050244</DistanceMeters>
          </Trackpoint>
          <Trackpoint>
            <Time>2021-07-28T07:55:54.000Z</Time>
            <Position>
              <LatitudeDegrees>41.2306247837841510772705078125</LatitudeDegrees>
              <LongitudeDegrees>-2.86125912331044673919677734375</LongitudeDegrees>
            </Position>
            <AltitudeMeters>1118.5999755859375</AltitudeMeters>
            <DistanceMeters>87444.283352214</DistanceMeters>
          </Trackpoint>
          <Trackpoint>
            <Time>2021-07-28T07:55:55.000Z</Time>
            <Position>
              <LatitudeDegrees>41.2306066788733005523681640625</LatitudeDegrees>
              <LongitudeDegrees>-2.861206568777561187744140625</LongitudeDegrees>
            </Position>
            <AltitudeMeters>1119.5999755859375</AltitudeMeters>
            <DistanceMeters>87449.122255832</DistanceMeters>
          </Trackpoint>
          <Trackpoint>
            <Time>2021-07-28T07:55:57.000Z</Time>
            <Position>
              <LatitudeDegrees>41.23058865778148174285888671875</LatitudeDegrees>
              <LongitudeDegrees>-2.8611081652343273162841796875</LongitudeDegrees>
            </Position>
            <AltitudeMeters>1121</AltitudeMeters>
            <DistanceMeters>87457.599363141</DistanceMeters>
          </Trackpoint>
          <Trackpoint>
            <Time>2021-07-28T07:56:00.000Z</Time>
            <Position>
              <LatitudeDegrees>41.23058999888598918914794921875</LatitudeDegrees>
              <LongitudeDegrees>-2.860975563526153564453125</LongitudeDegrees>
            </Position>
            <AltitudeMeters>1122.199951171875</AltitudeMeters>
            <DistanceMeters>87468.69960607</DistanceMeters>
          </Trackpoint>
          <Trackpoint>
            <Time>2021-07-28T07:56:04.000Z</Time>
            <Position>
              <LatitudeDegrees>41.2306086905300617218017578125</LatitudeDegrees>
              <LongitudeDegrees>-2.8608295507729053497314453125</LongitudeDegrees>
            </Position>
            <AltitudeMeters>1123.5999755859375</AltitudeMeters>
            <DistanceMeters>87481.097588214</DistanceMeters>
          </Trackpoint>
          <Trackpoint>
            <Time>2021-07-28T07:56:08.000Z</Time>
            <Position>
              <LatitudeDegrees>41.2306485883891582489013671875</LatitudeDegrees>
              <LongitudeDegrees>-2.86069552414119243621826171875</LongitudeDegrees>
            </Position>
            <AltitudeMeters>1124.5999755859375</AltitudeMeters>
            <DistanceMeters>87493.1629876</DistanceMeters>
          </Trackpoint>
          <Trackpoint>
            <Time>2021-07-28T07:56:14.000Z</Time>
            <Position>
              <LatitudeDegrees>41.23074053786695003509521484375</LatitudeDegrees>
              <LongitudeDegrees>-2.8605123795568943023681640625</LongitudeDegrees>
            </Position>
            <AltitudeMeters>1125.800048828125</AltitudeMeters>
            <DistanceMeters>87511.595475935</DistanceMeters>
          </Trackpoint>
          <Trackpoint>
            <Time>2021-07-28T07:56:20.000Z</Time>
            <Position>
              <LatitudeDegrees>41.2308655120432376861572265625</LatitudeDegrees>
              <LongitudeDegrees>-2.86037416197359561920166015625</LongitudeDegrees>
            </Position>
            <AltitudeMeters>1126.800048828125</AltitudeMeters>
            <DistanceMeters>87529.688023325</DistanceMeters>
          </Trackpoint>
          <Trackpoint>
            <Time>2021-07-28T07:56:25.000Z</Time>
            <Position>
              <LatitudeDegrees>41.2309771589934825897216796875</LatitudeDegrees>
              <LongitudeDegrees>-2.86027961410582065582275390625</LongitudeDegrees>
            </Position>
            <AltitudeMeters>1127.800048828125</AltitudeMeters>
            <DistanceMeters>87544.420535583</DistanceMeters>
          </Trackpoint>
          <Trackpoint>
            <Time>2021-07-28T07:56:32.000Z</Time>
            <Position>
              <LatitudeDegrees>41.231133900582790374755859375</LatitudeDegrees>
              <LongitudeDegrees>-2.8601573221385478973388671875</LongitudeDegrees>
            </Position>
            <AltitudeMeters>1129</AltitudeMeters>
            <DistanceMeters>87564.647390836</DistanceMeters>
          </Trackpoint>
          <Trackpoint>
            <Time>2021-07-28T07:56:38.000Z</Time>
            <Position>
              <LatitudeDegrees>41.23125560581684112548828125</LatitudeDegrees>
              <LongitudeDegrees>-2.8600295819342136383056640625</LongitudeDegrees>
            </Position>
            <AltitudeMeters>1130</AltitudeMeters>
            <DistanceMeters>87581.904880549</DistanceMeters>
          </Trackpoint>
          <Trackpoint>
            <Time>2021-07-28T07:56:47.000Z</Time>
            <Position>
              <LatitudeDegrees>41.23135442845523357391357421875</LatitudeDegrees>
              <LongitudeDegrees>-2.85976253449916839599609375</LongitudeDegrees>
            </Position>
            <AltitudeMeters>1131.199951171875</AltitudeMeters>
            <DistanceMeters>87606.817652054</DistanceMeters>
          </Trackpoint>
          <Trackpoint>
            <Time>2021-07-28T07:56:52.000Z</Time>
            <Position>
              <LatitudeDegrees>41.231410838663578033447265625</LatitudeDegrees>
              <LongitudeDegrees>-2.85961794666945934295654296875</LongitudeDegrees>
            </Position>
            <AltitudeMeters>1132.4000244140625</AltitudeMeters>
            <DistanceMeters>87620.451916012</DistanceMeters>
          </Trackpoint>
          <Trackpoint>
            <Time>2021-07-28T07:56:57.000Z</Time>
            <Position>
              <LatitudeDegrees>41.23149608261883258819580078125</LatitudeDegrees>
              <LongitudeDegrees>-2.85953320562839508056640625</LongitudeDegrees>
            </Position>
            <AltitudeMeters>1133.4000244140625</AltitudeMeters>
            <DistanceMeters>87632.298283304</DistanceMeters>
          </Trackpoint>
          <Trackpoint>
            <Time>2021-07-28T07:57:04.000Z</Time>
            <Position>
              <LatitudeDegrees>41.231636814773082733154296875</LatitudeDegrees>
              <LongitudeDegrees>-2.85947017371654510498046875</LongitudeDegrees>
            </Position>
            <AltitudeMeters>1134.5999755859375</AltitudeMeters>
            <DistanceMeters>87648.826376739</DistanceMeters>
          </Trackpoint>
          <Trackpoint>
            <Time>2021-07-28T07:57:18.000Z</Time>
            <Position>
              <LatitudeDegrees>41.2319226376712322235107421875</LatitudeDegrees>
              <LongitudeDegrees>-2.85941041074693202972412109375</LongitudeDegrees>
            </Position>
            <AltitudeMeters>1135.5999755859375</AltitudeMeters>
            <DistanceMeters>87681.02991939</DistanceMeters>
          </Trackpoint>
          <Trackpoint>
            <Time>2021-07-28T07:57:26.000Z</Time>
            <Position>
              <LatitudeDegrees>41.23209253884851932525634765625</LatitudeDegrees>
              <LongitudeDegrees>-2.85937738604843616485595703125</LongitudeDegrees>
            </Position>
            <AltitudeMeters>1136.800048828125</AltitudeMeters>
            <DistanceMeters>87700.141395838</DistanceMeters>
          </Trackpoint>
          <Trackpoint>
            <Time>2021-07-28T07:57:34.000Z</Time>
            <Position>
              <LatitudeDegrees>41.232265122234821319580078125</LatitudeDegrees>
              <LongitudeDegrees>-2.8593365661799907684326171875</LongitudeDegrees>
            </Position>
            <AltitudeMeters>1138</AltitudeMeters>
            <DistanceMeters>87719.651748024</DistanceMeters>
          </Trackpoint>
          <Trackpoint>
            <Time>2021-07-28T07:57:45.000Z</Time>
            <Position>
              <LatitudeDegrees>41.23250006698071956634521484375</LatitudeDegrees>
              <LongitudeDegrees>-2.85927412100136280059814453125</LongitudeDegrees>
            </Position>
            <AltitudeMeters>1139</AltitudeMeters>
            <DistanceMeters>87746.318553606</DistanceMeters>
          </Trackpoint>
          <Trackpoint>
            <Time>2021-07-28T07:57:52.000Z</Time>
            <Position>
              <LatitudeDegrees>41.23265244998037815093994140625</LatitudeDegrees>
              <LongitudeDegrees>-2.8592376597225666046142578125</LongitudeDegrees>
            </Position>
            <AltitudeMeters>1140</AltitudeMeters>
            <DistanceMeters>87763.551432762</DistanceMeters>
          </Trackpoint>
          <Trackpoint>
            <Time>2021-07-28T07:58:03.000Z</Time>
            <Position>
              <LatitudeDegrees>41.23289418406784534454345703125</LatitudeDegrees>
              <LongitudeDegrees>-2.85919214598834514617919921875</LongitudeDegrees>
            </Position>
            <AltitudeMeters>1141.199951171875</AltitudeMeters>
            <DistanceMeters>87790.725085644</DistanceMeters>
          </Trackpoint>
          <Trackpoint>
            <Time>2021-07-28T07:58:13.000Z</Time>
            <Position>
              <LatitudeDegrees>41.233112029731273651123046875</LatitudeDegrees>
              <LongitudeDegrees>-2.8591417707502841949462890625</LongitudeDegrees>
            </Position>
            <AltitudeMeters>1142.199951171875</AltitudeMeters>
            <DistanceMeters>87815.335720488</DistanceMeters>
          </Trackpoint>
          <Trackpoint>
            <Time>2021-07-28T07:58:22.000Z</Time>
            <Position>
              <LatitudeDegrees>41.23330992646515369415283203125</LatitudeDegrees>
              <LongitudeDegrees>-2.85909793339669704437255859375</LongitudeDegrees>
            </Position>
            <AltitudeMeters>1143.4000244140625</AltitudeMeters>
            <DistanceMeters>87837.665583029</DistanceMeters>
          </Trackpoint>
          <Trackpoint>
            <Time>2021-07-28T07:58:32.000Z</Time>
            <Position>
              <LatitudeDegrees>41.23353154398500919342041015625</LatitudeDegrees>
              <LongitudeDegrees>-2.8590267710387706756591796875</LongitudeDegrees>
            </Position>
            <AltitudeMeters>1144.5999755859375</AltitudeMeters>
            <DistanceMeters>87863.041096641</DistanceMeters>
          </Trackpoint>
          <Trackpoint>
            <Time>2021-07-28T07:58:49.000Z</Time>
            <Position>
              <LatitudeDegrees>41.23391811735928058624267578125</LatitudeDegrees>
              <LongitudeDegrees>-2.858792245388031005859375</LongitudeDegrees>
            </Position>
            <AltitudeMeters>1145.800048828125</AltitudeMeters>
            <DistanceMeters>87910.33405081</DistanceMeters>
          </Trackpoint>
          <Trackpoint>
            <Time>2021-07-28T07:59:09.000Z</Time>
            <Position>
              <LatitudeDegrees>41.2344097159802913665771484375</LatitudeDegrees>
              <LongitudeDegrees>-2.858448587357997894287109375</LongitudeDegrees>
            </Position>
            <AltitudeMeters>1146.800048828125</AltitudeMeters>
            <DistanceMeters>87972.150224977</DistanceMeters>
          </Trackpoint>
          <Trackpoint>
            <Time>2021-07-28T07:59:11.000Z</Time>
            <Position>
              <LatitudeDegrees>41.23446059413254261016845703125</LatitudeDegrees>
              <LongitudeDegrees>-2.85841816104948520660400390625</LongitudeDegrees>
            </Position>
            <AltitudeMeters>1147</AltitudeMeters>
            <DistanceMeters>87978.358313754</DistanceMeters>
          </Trackpoint>
          <Trackpoint>
            <Time>2021-07-28T07:59:31.000Z</Time>
            <Position>
              <LatitudeDegrees>41.23496199958026409149169921875</LatitudeDegrees>
              <LongitudeDegrees>-2.85807517357170581817626953125</LongitudeDegrees>
            </Position>
            <AltitudeMeters>1147.800048828125</AltitudeMeters>
            <DistanceMeters>88041.116894144</DistanceMeters>
          </Trackpoint>
          <Trackpoint>
            <Time>2021-07-28T07:59:34.000Z</Time>
            <Position>
              <LatitudeDegrees>41.23503726907074451446533203125</LatitudeDegrees>
              <LongitudeDegrees>-2.858023457229137420654296875</LongitudeDegrees>
            </Position>
            <AltitudeMeters>1148</AltitudeMeters>
            <DistanceMeters>88050.547068735</DistanceMeters>
          </Trackpoint>
          <Trackpoint>
            <Time>2021-07-28T07:59:45.000Z</Time>
            <Position>
              <LatitudeDegrees>41.23531571589410305023193359375</LatitudeDegrees>
              <LongitudeDegrees>-2.85783327184617519378662109375</LongitudeDegrees>
            </Position>
            <AltitudeMeters>1149</AltitudeMeters>
            <DistanceMeters>88085.38806637</DistanceMeters>
          </Trackpoint>
          <Trackpoint>
            <Time>2021-07-28T07:59:48.000Z</Time>
            <Position>
              <LatitudeDegrees>41.23539425432682037353515625</LatitudeDegrees>
              <LongitudeDegrees>-2.85777946002781391143798828125</LongitudeDegrees>
            </Position>
            <AltitudeMeters>1149.199951171875</AltitudeMeters>
            <DistanceMeters>88095.222298354</DistanceMeters>
          </Trackpoint>
          <Trackpoint>
            <Time>2021-07-28T08:00:06.000Z</Time>
            <Position>
              <LatitudeDegrees>41.23591619543731212615966796875</LatitudeDegrees>
              <LongitudeDegrees>-2.85747737623751163482666015625</LongitudeDegrees>
            </Position>
            <AltitudeMeters>1148.4000244140625</AltitudeMeters>
            <DistanceMeters>88158.579253469</DistanceMeters>
          </Trackpoint>
          <Trackpoint>
            <Time>2021-07-28T08:00:07.000Z</Time>
            <Position>
              <LatitudeDegrees>41.2359581887722015380859375</LatitudeDegrees>
              <LongitudeDegrees>-2.8574606962502002716064453125</LongitudeDegrees>
            </Position>
            <AltitudeMeters>1148.199951171875</AltitudeMeters>
            <DistanceMeters>88163.457188629</DistanceMeters>
          </Trackpoint>
          <Trackpoint>
            <Time>2021-07-28T08:00:09.000Z</Time>
            <Position>
              <LatitudeDegrees>41.2360508926212787628173828125</LatitudeDegrees>
              <LongitudeDegrees>-2.85742926411330699920654296875</LongitudeDegrees>
            </Position>
            <AltitudeMeters>1147</AltitudeMeters>
            <DistanceMeters>88174.105270138</DistanceMeters>
          </Trackpoint>
          <Trackpoint>
            <Time>2021-07-28T08:00:13.000Z</Time>
            <Position>
              <LatitudeDegrees>41.2362698279321193695068359375</LatitudeDegrees>
              <LongitudeDegrees>-2.85736505873501300811767578125</LongitudeDegrees>
            </Position>
            <AltitudeMeters>1145.4000244140625</AltitudeMeters>
            <DistanceMeters>88199.058785948</DistanceMeters>
          </Trackpoint>
          <Trackpoint>
            <Time>2021-07-28T08:00:15.000Z</Time>
            <Position>
              <LatitudeDegrees>41.23639496974647045135498046875</LatitudeDegrees>
              <LongitudeDegrees>-2.8573242388665676116943359375</LongitudeDegrees>
            </Position>
            <AltitudeMeters>1144.199951171875</AltitudeMeters>
            <DistanceMeters>88213.399951211</DistanceMeters>
          </Trackpoint>
          <Trackpoint>
            <Time>2021-07-28T08:00:17.000Z</Time>
            <Position>
              <LatitudeDegrees>41.23652790673077106475830078125</LatitudeDegrees>
              <LongitudeDegrees>-2.857275120913982391357421875</LongitudeDegrees>
            </Position>
            <AltitudeMeters>1142.800048828125</AltitudeMeters>
            <DistanceMeters>88228.756691634</DistanceMeters>
          </Trackpoint>
          <Trackpoint>
            <Time>2021-07-28T08:00:20.000Z</Time>
            <Position>
              <LatitudeDegrees>41.23673644848167896270751953125</LatitudeDegrees>
              <LongitudeDegrees>-2.85720747895538806915283203125</LongitudeDegrees>
            </Position>
            <AltitudeMeters>1141.800048828125</AltitudeMeters>
            <DistanceMeters>88252.64811608</DistanceMeters>
          </Trackpoint>
          <Trackpoint>
            <Time>2021-07-28T08:00:28.000Z</Time>
            <Position>
              <LatitudeDegrees>41.2372796796262264251708984375</LatitudeDegrees>
              <LongitudeDegrees>-2.85703296773135662078857421875</LongitudeDegrees>
            </Position>
            <AltitudeMeters>1141.800048828125</AltitudeMeters>
            <DistanceMeters>88314.849978622</DistanceMeters>
          </Trackpoint>
          <Trackpoint>
            <Time>2021-07-28T08:00:33.000Z</Time>
            <Position>
              <LatitudeDegrees>41.23755016364157199859619140625</LatitudeDegrees>
              <LongitudeDegrees>-2.8569390065968036651611328125</LongitudeDegrees>
            </Position>
            <AltitudeMeters>1143</AltitudeMeters>
            <DistanceMeters>88345.965532708</DistanceMeters>
          </Trackpoint>
          <Trackpoint>
            <Time>2021-07-28T08:00:36.000Z</Time>
            <Position>
              <LatitudeDegrees>41.237666420638561248779296875</LatitudeDegrees>
              <LongitudeDegrees>-2.8568974323570728302001953125</LongitudeDegrees>
            </Position>
            <AltitudeMeters>1144.199951171875</AltitudeMeters>
            <DistanceMeters>88359.364636404</DistanceMeters>
          </Trackpoint>
          <Trackpoint>
            <Time>2021-07-28T08:00:39.000Z</Time>
            <Position>
              <LatitudeDegrees>41.2377624772489070892333984375</LatitudeDegrees>
              <LongitudeDegrees>-2.8568625636398792266845703125</LongitudeDegrees>
            </Position>
            <AltitudeMeters>1145.199951171875</AltitudeMeters>
            <DistanceMeters>88370.446560408</DistanceMeters>
          </Trackpoint>
          <Trackpoint>
            <Time>2021-07-28T08:00:44.000Z</Time>
            <Position>
              <LatitudeDegrees>41.237898766994476318359375</LatitudeDegrees>
              <LongitudeDegrees>-2.85681503824889659881591796875</LongitudeDegrees>
            </Position>
            <AltitudeMeters>1146.4000244140625</AltitudeMeters>
            <DistanceMeters>88386.128559703</DistanceMeters>
          </Trackpoint>
          <Trackpoint>
            <Time>2021-07-28T08:00:53.000Z</Time>
            <Position>
              <LatitudeDegrees>41.2381259165704250335693359375</LatitudeDegrees>
              <LongitudeDegrees>-2.85677866078913211822509765625</LongitudeDegrees>
            </Position>
            <AltitudeMeters>1147.4000244140625</AltitudeMeters>
            <DistanceMeters>88411.593236992</DistanceMeters>
          </Trackpoint>
          <Trackpoint>
            <Time>2021-07-28T08:01:01.000Z</Time>
            <Position>
              <LatitudeDegrees>41.23832934536039829254150390625</LatitudeDegrees>
              <LongitudeDegrees>-2.8567551076412200927734375</LongitudeDegrees>
            </Position>
            <AltitudeMeters>1148.5999755859375</AltitudeMeters>
            <DistanceMeters>88434.320718875</DistanceMeters>
          </Trackpoint>
          <Trackpoint>
            <Time>2021-07-28T08:01:12.000Z</Time>
            <Position>
              <LatitudeDegrees>41.23861365951597690582275390625</LatitudeDegrees>
              <LongitudeDegrees>-2.85672887228429317474365234375</LongitudeDegrees>
            </Position>
            <AltitudeMeters>1149.5999755859375</AltitudeMeters>
            <DistanceMeters>88466.041427537</DistanceMeters>
          </Trackpoint>
          <Trackpoint>
            <Time>2021-07-28T08:01:22.000Z</Time>
            <Position>
              <LatitudeDegrees>41.2388702295720577239990234375</LatitudeDegrees>
              <LongitudeDegrees>-2.8567150421440601348876953125</LongitudeDegrees>
            </Position>
            <AltitudeMeters>1150.5999755859375</AltitudeMeters>
            <DistanceMeters>88494.62172888</DistanceMeters>
          </Trackpoint>
          <Trackpoint>
            <Time>2021-07-28T08:01:31.000Z</Time>
            <Position>
              <LatitudeDegrees>41.23909528367221355438232421875</LatitudeDegrees>
              <LongitudeDegrees>-2.8566962666809558868408203125</LongitudeDegrees>
            </Position>
            <AltitudeMeters>1151.800048828125</AltitudeMeters>
            <DistanceMeters>88519.719937434</DistanceMeters>
          </Trackpoint>
          <Trackpoint>
            <Time>2021-07-28T08:01:42.000Z</Time>
            <Position>
              <LatitudeDegrees>41.239375658333301544189453125</LatitudeDegrees>
              <LongitudeDegrees>-2.85667204298079013824462890625</LongitudeDegrees>
            </Position>
            <AltitudeMeters>1153</AltitudeMeters>
            <DistanceMeters>88550.991812795</DistanceMeters>
          </Trackpoint>
          <Trackpoint>
            <Time>2021-07-28T08:01:52.000Z</Time>
            <Position>
              <LatitudeDegrees>41.23963960446417331695556640625</LatitudeDegrees>
              <LongitudeDegrees>-2.85665561445057392120361328125</LongitudeDegrees>
            </Position>
            <AltitudeMeters>1154</AltitudeMeters>
            <DistanceMeters>88580.401621399</DistanceMeters>
          </Trackpoint>
          <Trackpoint>
            <Time>2021-07-28T08:02:02.000Z</Time>
            <Position>
              <LatitudeDegrees>41.23990313149988651275634765625</LatitudeDegrees>
              <LongitudeDegrees>-2.8566370904445648193359375</LongitudeDegrees>
            </Position>
            <AltitudeMeters>1155</AltitudeMeters>
            <DistanceMeters>88609.773639432</DistanceMeters>
          </Trackpoint>
          <Trackpoint>
            <Time>2021-07-28T08:02:15.000Z</Time>
            <Position>
              <LatitudeDegrees>41.24025114811956882476806640625</LatitudeDegrees>
              <LongitudeDegrees>-2.85662912763655185699462890625</LongitudeDegrees>
            </Position>
            <AltitudeMeters>1156.199951171875</AltitudeMeters>
            <DistanceMeters>88648.514248943</DistanceMeters>
          </Trackpoint>
          <Trackpoint>
            <Time>2021-07-28T08:02:30.000Z</Time>
            <Position>
              <LatitudeDegrees>41.24060922302305698394775390625</LatitudeDegrees>
              <LongitudeDegrees>-2.85659275017678737640380859375</LongitudeDegrees>
            </Position>
            <AltitudeMeters>1157.199951171875</AltitudeMeters>
            <DistanceMeters>88688.484703591</DistanceMeters>
          </Trackpoint>
          <Trackpoint>
            <Time>2021-07-28T08:02:35.000Z</Time>
            <Position>
              <LatitudeDegrees>41.24070444144308567047119140625</LatitudeDegrees>
              <LongitudeDegrees>-2.8565829433500766754150390625</LongitudeDegrees>
            </Position>
            <AltitudeMeters>1158.4000244140625</AltitudeMeters>
            <DistanceMeters>88699.114536447</DistanceMeters>
          </Trackpoint>
          <Trackpoint>
            <Time>2021-07-28T08:02:43.000Z</Time>
            <Position>
              <LatitudeDegrees>41.240905188024044036865234375</LatitudeDegrees>
              <LongitudeDegrees>-2.85656458698213100433349609375</LongitudeDegrees>
            </Position>
            <AltitudeMeters>1159.4000244140625</AltitudeMeters>
            <DistanceMeters>88721.510823109</DistanceMeters>
          </Trackpoint>
          <Trackpoint>
            <Time>2021-07-28T08:02:50.000Z</Time>
            <Position>
              <LatitudeDegrees>41.2410619296133518218994140625</LatitudeDegrees>
              <LongitudeDegrees>-2.85654899664223194122314453125</LongitudeDegrees>
            </Position>
            <AltitudeMeters>1161</AltitudeMeters>
            <DistanceMeters>88739.005032174</DistanceMeters>
          </Trackpoint>
          <Trackpoint>
            <Time>2021-07-28T08:02:59.000Z</Time>
            <Position>
              <LatitudeDegrees>41.24126971699297428131103515625</LatitudeDegrees>
              <LongitudeDegrees>-2.85653776489198207855224609375</LongitudeDegrees>
            </Position>
            <AltitudeMeters>1162</AltitudeMeters>
            <DistanceMeters>88762.151401985</DistanceMeters>
          </Trackpoint>
          <Trackpoint>
            <Time>2021-07-28T08:03:02.000Z</Time>
            <Position>
              <LatitudeDegrees>41.2413492612540721893310546875</LatitudeDegrees>
              <LongitudeDegrees>-2.85653441213071346282958984375</LongitudeDegrees>
            </Position>
            <AltitudeMeters>1163.199951171875</AltitudeMeters>
            <DistanceMeters>88771.008788967</DistanceMeters>
          </Trackpoint>
          <Trackpoint>
            <Time>2021-07-28T08:03:13.000Z</Time>
            <Position>
              <LatitudeDegrees>41.2416221760213375091552734375</LatitudeDegrees>
              <LongitudeDegrees>-2.8565242700278759002685546875</LongitudeDegrees>
            </Position>
            <AltitudeMeters>1164.199951171875</AltitudeMeters>
            <DistanceMeters>88801.396543362</DistanceMeters>
          </Trackpoint>
          <Trackpoint>
            <Time>2021-07-28T08:03:20.000Z</Time>
            <Position>
              <LatitudeDegrees>41.24179224483668804168701171875</LatitudeDegrees>
              <LongitudeDegrees>-2.856509350240230560302734375</LongitudeDegrees>
            </Position>
            <AltitudeMeters>1165.199951171875</AltitudeMeters>
            <DistanceMeters>88820.366455759</DistanceMeters>
          </Trackpoint>
          <Trackpoint>
            <Time>2021-07-28T08:03:27.000Z</Time>
            <Position>
              <LatitudeDegrees>41.24195602722465991973876953125</LatitudeDegrees>
              <LongitudeDegrees>-2.85650406964123249053955078125</LongitudeDegrees>
            </Position>
            <AltitudeMeters>1166.4000244140625</AltitudeMeters>
            <DistanceMeters>88838.60069319</DistanceMeters>
          </Trackpoint>
          <Trackpoint>
            <Time>2021-07-28T08:03:37.000Z</Time>
            <Position>
              <LatitudeDegrees>41.24219105578958988189697265625</LatitudeDegrees>
              <LongitudeDegrees>-2.85654279403388500213623046875</LongitudeDegrees>
            </Position>
            <AltitudeMeters>1167.4000244140625</AltitudeMeters>
            <DistanceMeters>88864.959603291</DistanceMeters>
          </Trackpoint>
          <Trackpoint>
            <Time>2021-07-28T08:03:54.000Z</Time>
            <Position>
              <LatitudeDegrees>41.2426699139177799224853515625</LatitudeDegrees>
              <LongitudeDegrees>-2.856796681880950927734375</LongitudeDegrees>
            </Position>
            <AltitudeMeters>1159.5999755859375</AltitudeMeters>
            <DistanceMeters>88922.336856185</DistanceMeters>
          </Trackpoint>
          <Trackpoint>
            <Time>2021-07-28T08:03:59.000Z</Time>
            <Position>
              <LatitudeDegrees>41.24286663718521595001220703125</LatitudeDegrees>
              <LongitudeDegrees>-2.856918387115001678466796875</LongitudeDegrees>
            </Position>
            <AltitudeMeters>1165.4000244140625</AltitudeMeters>
            <DistanceMeters>88946.485610537</DistanceMeters>
          </Trackpoint>
          <Trackpoint>
            <Time>2021-07-28T08:04:12.000Z</Time>
            <Position>
              <LatitudeDegrees>41.243388913571834564208984375</LatitudeDegrees>
              <LongitudeDegrees>-2.8572300262749195098876953125</LongitudeDegrees>
            </Position>
            <AltitudeMeters>1165.800048828125</AltitudeMeters>
            <DistanceMeters>89010.198808029</DistanceMeters>
          </Trackpoint>
          <Trackpoint>
            <Time>2021-07-28T08:04:15.000Z</Time>
            <Position>
              <LatitudeDegrees>41.243488825857639312744140625</LatitudeDegrees>
              <LongitudeDegrees>-2.85728727467358112335205078125</LongitudeDegrees>
            </Position>
            <AltitudeMeters>1166.4000244140625</AltitudeMeters>
            <DistanceMeters>89022.30716552</DistanceMeters>
          </Trackpoint>
          <Trackpoint>
            <Time>2021-07-28T08:04:23.000Z</Time>
            <Position>
              <LatitudeDegrees>41.24373801983892917633056640625</LatitudeDegrees>
              <LongitudeDegrees>-2.857442088425159454345703125</LongitudeDegrees>
            </Position>
            <AltitudeMeters>1167.4000244140625</AltitudeMeters>
            <DistanceMeters>89052.919929743</DistanceMeters>
          </Trackpoint>
          <Trackpoint>
            <Time>2021-07-28T08:04:37.000Z</Time>
            <Position>
              <LatitudeDegrees>41.2442059814929962158203125</LatitudeDegrees>
              <LongitudeDegrees>-2.8577287495136260986328125</LongitudeDegrees>
            </Position>
            <AltitudeMeters>1168.4000244140625</AltitudeMeters>
            <DistanceMeters>89110.264438092</DistanceMeters>
          </Trackpoint>
          <Trackpoint>
            <Time>2021-07-28T08:04:51.000Z</Time>
            <Position>
              <LatitudeDegrees>41.24473144300282001495361328125</LatitudeDegrees>
              <LongitudeDegrees>-2.85790602676570415496826171875</LongitudeDegrees>
            </Position>
            <AltitudeMeters>1169</AltitudeMeters>
            <DistanceMeters>89170.60168761</DistanceMeters>
          </Trackpoint>
          <Trackpoint>
            <Time>2021-07-28T08:04:58.000Z</Time>
            <Position>
              <LatitudeDegrees>41.24500167556107044219970703125</LatitudeDegrees>
              <LongitudeDegrees>-2.857979200780391693115234375</LongitudeDegrees>
            </Position>
            <AltitudeMeters>1169.5999755859375</AltitudeMeters>
            <DistanceMeters>89201.296051843</DistanceMeters>
          </Trackpoint>
          <Trackpoint>
            <Time>2021-07-28T08:05:12.000Z</Time>
            <Position>
              <LatitudeDegrees>41.245544739067554473876953125</LatitudeDegrees>
              <LongitudeDegrees>-2.8581275604665279388427734375</LongitudeDegrees>
            </Position>
            <AltitudeMeters>1170</AltitudeMeters>
            <DistanceMeters>89263.002056928</DistanceMeters>
          </Trackpoint>
          <Trackpoint>
            <Time>2021-07-28T08:05:24.000Z</Time>
            <Position>
              <LatitudeDegrees>41.246099956333637237548828125</LatitudeDegrees>
              <LongitudeDegrees>-2.85827717743813991546630859375</LongitudeDegrees>
            </Position>
            <AltitudeMeters>1168.5999755859375</AltitudeMeters>
            <DistanceMeters>89326.054555495</DistanceMeters>
          </Trackpoint>
          <Trackpoint>
            <Time>2021-07-28T08:05:25.000Z</Time>
            <Position>
              <LatitudeDegrees>41.246152259409427642822265625</LatitudeDegrees>
              <LongitudeDegrees>-2.8582837991416454315185546875</LongitudeDegrees>
            </Position>
            <AltitudeMeters>1168.199951171875</AltitudeMeters>
            <DistanceMeters>89331.901594867</DistanceMeters>
          </Trackpoint>
          <Trackpoint>
            <Time>2021-07-28T08:05:26.000Z</Time>
            <Position>
              <LatitudeDegrees>41.246205903589725494384765625</LatitudeDegrees>
              <LongitudeDegrees>-2.85828463733196258544921875</LongitudeDegrees>
            </Position>
            <AltitudeMeters>1168</AltitudeMeters>
            <DistanceMeters>89337.873931257</DistanceMeters>
          </Trackpoint>
          <Trackpoint>
            <Time>2021-07-28T08:05:32.000Z</Time>
            <Position>
              <LatitudeDegrees>41.246509663760662078857421875</LatitudeDegrees>
              <LongitudeDegrees>-2.85812881775200366973876953125</LongitudeDegrees>
            </Position>
            <AltitudeMeters>1167.4000244140625</AltitudeMeters>
            <DistanceMeters>89374.110646561</DistanceMeters>
          </Trackpoint>
          <Trackpoint>
            <Time>2021-07-28T08:05:36.000Z</Time>
            <Position>
              <LatitudeDegrees>41.24670420773327350616455078125</LatitudeDegrees>
              <LongitudeDegrees>-2.8579723276197910308837890625</LongitudeDegrees>
            </Position>
            <AltitudeMeters>1167.199951171875</AltitudeMeters>
            <DistanceMeters>89399.416315908</DistanceMeters>
          </Trackpoint>
          <Trackpoint>
            <Time>2021-07-28T08:05:40.000Z</Time>
            <Position>
              <LatitudeDegrees>41.2469111569225788116455078125</LatitudeDegrees>
              <LongitudeDegrees>-2.8577949665486812591552734375</LongitudeDegrees>
            </Position>
            <AltitudeMeters>1166</AltitudeMeters>
            <DistanceMeters>89426.818138591</DistanceMeters>
          </Trackpoint>
          <Trackpoint>
            <Time>2021-07-28T08:05:45.000Z</Time>
            <Position>
              <LatitudeDegrees>41.24720628373324871063232421875</LatitudeDegrees>
              <LongitudeDegrees>-2.85760763101279735565185546875</LongitudeDegrees>
            </Position>
            <AltitudeMeters>1164.800048828125</AltitudeMeters>
            <DistanceMeters>89463.21560313</DistanceMeters>
          </Trackpoint>
          <Trackpoint>
            <Time>2021-07-28T08:05:48.000Z</Time>
            <Position>
              <LatitudeDegrees>41.24740929342806339263916015625</LatitudeDegrees>
              <LongitudeDegrees>-2.85755448974668979644775390625</LongitudeDegrees>
            </Position>
            <AltitudeMeters>1163.800048828125</AltitudeMeters>
            <DistanceMeters>89486.244440693</DistanceMeters>
          </Trackpoint>
          <Trackpoint>
            <Time>2021-07-28T08:05:53.000Z</Time>
            <Position>
              <LatitudeDegrees>41.24777776189148426055908203125</LatitudeDegrees>
              <LongitudeDegrees>-2.8575445152819156646728515625</LongitudeDegrees>
            </Position>
            <AltitudeMeters>1162.4000244140625</AltitudeMeters>
            <DistanceMeters>89527.264293499</DistanceMeters>
          </Trackpoint>
          <Trackpoint>
            <Time>2021-07-28T08:05:56.000Z</Time>
            <Position>
              <LatitudeDegrees>41.24800742603838443756103515625</LatitudeDegrees>
              <LongitudeDegrees>-2.8575418330729007720947265625</LongitudeDegrees>
            </Position>
            <AltitudeMeters>1161.199951171875</AltitudeMeters>
            <DistanceMeters>89552.827362798</DistanceMeters>
          </Trackpoint>
          <Trackpoint>
            <Time>2021-07-28T08:06:04.000Z</Time>
            <Position>
              <LatitudeDegrees>41.2485647387802600860595703125</LatitudeDegrees>
              <LongitudeDegrees>-2.857539989054203033447265625</LongitudeDegrees>
            </Position>
            <AltitudeMeters>1161.4000244140625</AltitudeMeters>
            <DistanceMeters>89614.857538221</DistanceMeters>
          </Trackpoint>
          <Trackpoint>
            <Time>2021-07-28T08:06:11.000Z</Time>
            <Position>
              <LatitudeDegrees>41.24895743094384670257568359375</LatitudeDegrees>
              <LongitudeDegrees>-2.85753353498876094818115234375</LongitudeDegrees>
            </Position>
            <AltitudeMeters>1162.199951171875</AltitudeMeters>
            <DistanceMeters>89658.568277455</DistanceMeters>
          </Trackpoint>
          <Trackpoint>
            <Time>2021-07-28T08:06:19.000Z</Time>
            <Position>
              <LatitudeDegrees>41.24939496628940105438232421875</LatitudeDegrees>
              <LongitudeDegrees>-2.85753898322582244873046875</LongitudeDegrees>
            </Position>
            <AltitudeMeters>1161</AltitudeMeters>
            <DistanceMeters>89707.268981845</DistanceMeters>
          </Trackpoint>
          <Trackpoint>
            <Time>2021-07-28T08:06:27.000Z</Time>
            <Position>
              <LatitudeDegrees>41.24985312111675739288330078125</LatitudeDegrees>
              <LongitudeDegrees>-2.857531942427158355712890625</LongitudeDegrees>
            </Position>
            <AltitudeMeters>1160</AltitudeMeters>
            <DistanceMeters>89758.265845239</DistanceMeters>
          </Trackpoint>
          <Trackpoint>
            <Time>2021-07-28T08:06:37.000Z</Time>
            <Position>
              <LatitudeDegrees>41.2504325620830059051513671875</LatitudeDegrees>
              <LongitudeDegrees>-2.85754971206188201904296875</LongitudeDegrees>
            </Position>
            <AltitudeMeters>1159.800048828125</AltitudeMeters>
            <DistanceMeters>89822.775897553</DistanceMeters>
          </Trackpoint>
          <Trackpoint>
            <Time>2021-07-28T08:06:48.000Z</Time>
            <Position>
              <LatitudeDegrees>41.2510187923908233642578125</LatitudeDegrees>
              <LongitudeDegrees>-2.85760939121246337890625</LongitudeDegrees>
            </Position>
            <AltitudeMeters>1159.5999755859375</AltitudeMeters>
            <DistanceMeters>89888.215297702</DistanceMeters>
          </Trackpoint>
          <Trackpoint>
            <Time>2021-07-28T08:06:59.000Z</Time>
            <Position>
              <LatitudeDegrees>41.25157711096107959747314453125</LatitudeDegrees>
              <LongitudeDegrees>-2.85766982473433017730712890625</LongitudeDegrees>
            </Position>
            <AltitudeMeters>1159.5999755859375</AltitudeMeters>
            <DistanceMeters>89950.562744299</DistanceMeters>
          </Trackpoint>
          <Trackpoint>
            <Time>2021-07-28T08:07:05.000Z</Time>
            <Position>
              <LatitudeDegrees>41.25187600962817668914794921875</LatitudeDegrees>
              <LongitudeDegrees>-2.8577047772705554962158203125</LongitudeDegrees>
            </Position>
            <AltitudeMeters>1159</AltitudeMeters>
            <DistanceMeters>89983.958922846</DistanceMeters>
          </Trackpoint>
          <Trackpoint>
            <Time>2021-07-28T08:07:16.000Z</Time>
            <Position>
              <LatitudeDegrees>41.25242200680077075958251953125</LatitudeDegrees>
              <LongitudeDegrees>-2.85778901539742946624755859375</LongitudeDegrees>
            </Position>
            <AltitudeMeters>1158.800048828125</AltitudeMeters>
            <DistanceMeters>90045.136867681</DistanceMeters>
          </Trackpoint>
          <Trackpoint>
            <Time>2021-07-28T08:07:22.000Z</Time>
            <Position>
              <LatitudeDegrees>41.25274948775768280029296875</LatitudeDegrees>
              <LongitudeDegrees>-2.857846431434154510498046875</LongitudeDegrees>
            </Position>
            <AltitudeMeters>1157.800048828125</AltitudeMeters>
            <DistanceMeters>90081.901400483</DistanceMeters>
          </Trackpoint>
          <Trackpoint>
            <Time>2021-07-28T08:07:32.000Z</Time>
            <Position>
              <LatitudeDegrees>41.2532991729676723480224609375</LatitudeDegrees>
              <LongitudeDegrees>-2.85792916081845760345458984375</LongitudeDegrees>
            </Position>
            <AltitudeMeters>1157</AltitudeMeters>
            <DistanceMeters>90143.472845269</DistanceMeters>
          </Trackpoint>
          <Trackpoint>
            <Time>2021-07-28T08:07:33.000Z</Time>
            <Position>
              <LatitudeDegrees>41.25335843302309513092041015625</LatitudeDegrees>
              <LongitudeDegrees>-2.85793435759842395782470703125</LongitudeDegrees>
            </Position>
            <AltitudeMeters>1156.800048828125</AltitudeMeters>
            <DistanceMeters>90150.083181109</DistanceMeters>
          </Trackpoint>
          <Trackpoint>
            <Time>2021-07-28T08:07:36.000Z</Time>
            <Position>
              <LatitudeDegrees>41.25354635529220104217529296875</LatitudeDegrees>
              <LongitudeDegrees>-2.85794290713965892791748046875</LongitudeDegrees>
            </Position>
            <AltitudeMeters>1155.5999755859375</AltitudeMeters>
            <DistanceMeters>90171.011507077</DistanceMeters>
          </Trackpoint>
          <Trackpoint>
            <Time>2021-07-28T08:07:39.000Z</Time>
            <Position>
              <LatitudeDegrees>41.253746934235095977783203125</LatitudeDegrees>
              <LongitudeDegrees>-2.85793486051261425018310546875</LongitudeDegrees>
            </Position>
            <AltitudeMeters>1154.5999755859375</AltitudeMeters>
            <DistanceMeters>90193.346221826</DistanceMeters>
          </Trackpoint>
          <Trackpoint>
            <Time>2021-07-28T08:07:42.000Z</Time>
            <Position>
              <LatitudeDegrees>41.25395514070987701416015625</LatitudeDegrees>
              <LongitudeDegrees>-2.8578854911029338836669921875</LongitudeDegrees>
            </Position>
            <AltitudeMeters>1153.5999755859375</AltitudeMeters>
            <DistanceMeters>90216.885434232</DistanceMeters>
          </Trackpoint>
          <Trackpoint>
            <Time>2021-07-28T08:07:43.000Z</Time>
            <Position>
              <LatitudeDegrees>41.25402353703975677490234375</LatitudeDegrees>
              <LongitudeDegrees>-2.8578512929379940032958984375</LongitudeDegrees>
            </Position>
            <AltitudeMeters>1153.199951171875</AltitudeMeters>
            <DistanceMeters>90225.017855758</DistanceMeters>
          </Trackpoint>
          <Trackpoint>
            <Time>2021-07-28T08:07:46.000Z</Time>
            <Position>
              <LatitudeDegrees>41.254218332469463348388671875</LatitudeDegrees>
              <LongitudeDegrees>-2.85769798792898654937744140625</LongitudeDegrees>
            </Position>
            <AltitudeMeters>1152.4000244140625</AltitudeMeters>
            <DistanceMeters>90250.209794399</DistanceMeters>
          </Trackpoint>
          <Trackpoint>
            <Time>2021-07-28T08:07:47.000Z</Time>
            <Position>
              <LatitudeDegrees>41.25428312458097934722900390625</LatitudeDegrees>
              <LongitudeDegrees>-2.857636548578739166259765625</LongitudeDegrees>
            </Position>
            <AltitudeMeters>1151.800048828125</AltitudeMeters>
            <DistanceMeters>90259.066671618</DistanceMeters>
          </Trackpoint>
          <Trackpoint>
            <Time>2021-07-28T08:07:50.000Z</Time>
            <Position>
              <LatitudeDegrees>41.2544895708560943603515625</LatitudeDegrees>
              <LongitudeDegrees>-2.857453823089599609375</LongitudeDegrees>
            </Position>
            <AltitudeMeters>1150.800048828125</AltitudeMeters>
            <DistanceMeters>90286.66649333</DistanceMeters>
          </Trackpoint>
          <Trackpoint>
            <Time>2021-07-28T08:07:52.000Z</Time>
            <Position>
              <LatitudeDegrees>41.2546422891318798065185546875</LatitudeDegrees>
              <LongitudeDegrees>-2.85736153833568096160888671875</LongitudeDegrees>
            </Position>
            <AltitudeMeters>1150.199951171875</AltitudeMeters>
            <DistanceMeters>90305.336280441</DistanceMeters>
          </Trackpoint>
          <Trackpoint>
            <Time>2021-07-28T08:07:53.000Z</Time>
            <Position>
              <LatitudeDegrees>41.25472418032586574554443359375</LatitudeDegrees>
              <LongitudeDegrees>-2.857336141169071197509765625</LongitudeDegrees>
            </Position>
            <AltitudeMeters>1149.5999755859375</AltitudeMeters>
            <DistanceMeters>90314.695326413</DistanceMeters>
          </Trackpoint>
          <Trackpoint>
            <Time>2021-07-28T08:07:56.000Z</Time>
            <Position>
              <LatitudeDegrees>41.2549758888781070709228515625</LatitudeDegrees>
              <LongitudeDegrees>-2.85731242038309574127197265625</LongitudeDegrees>
            </Position>
            <AltitudeMeters>1148.199951171875</AltitudeMeters>
            <DistanceMeters>90342.781146637</DistanceMeters>
          </Trackpoint>
          <Trackpoint>
            <Time>2021-07-28T08:08:03.000Z</Time>
            <Position>
              <LatitudeDegrees>41.2555425055325031280517578125</LatitudeDegrees>
              <LongitudeDegrees>-2.8572705946862697601318359375</LongitudeDegrees>
            </Position>
            <AltitudeMeters>1147.5999755859375</AltitudeMeters>
            <DistanceMeters>90405.943753163</DistanceMeters>
          </Trackpoint>
          <Trackpoint>
            <Time>2021-07-28T08:08:04.000Z</Time>
            <Position>
              <LatitudeDegrees>41.255613751709461212158203125</LatitudeDegrees>
              <LongitudeDegrees>-2.857231199741363525390625</LongitudeDegrees>
            </Position>
            <AltitudeMeters>1147.199951171875</AltitudeMeters>
            <DistanceMeters>90414.531981409</DistanceMeters>
          </Trackpoint>
          <Trackpoint>
            <Time>2021-07-28T08:08:12.000Z</Time>
            <Position>
              <LatitudeDegrees>41.2560987286269664764404296875</LatitudeDegrees>
              <LongitudeDegrees>-2.85674010403454303741455078125</LongitudeDegrees>
            </Position>
            <AltitudeMeters>1146.4000244140625</AltitudeMeters>
            <DistanceMeters>90482.372004702</DistanceMeters>
          </Trackpoint>
          <Trackpoint>
            <Time>2021-07-28T08:08:13.000Z</Time>
            <Position>
              <LatitudeDegrees>41.2561647780239582061767578125</LatitudeDegrees>
              <LongitudeDegrees>-2.85668461583554744720458984375</LongitudeDegrees>
            </Position>
            <AltitudeMeters>1146</AltitudeMeters>
            <DistanceMeters>90491.066819248</DistanceMeters>
          </Trackpoint>
          <Trackpoint>
            <Time>2021-07-28T08:08:16.000Z</Time>
            <Position>
              <LatitudeDegrees>41.25637994147837162017822265625</LatitudeDegrees>
              <LongitudeDegrees>-2.85653977654874324798583984375</LongitudeDegrees>
            </Position>
            <AltitudeMeters>1144.800048828125</AltitudeMeters>
            <DistanceMeters>90517.906777862</DistanceMeters>
          </Trackpoint>
          <Trackpoint>
            <Time>2021-07-28T08:08:18.000Z</Time>
            <Position>
              <LatitudeDegrees>41.25653383322060108184814453125</LatitudeDegrees>
              <LongitudeDegrees>-2.8564521856606006622314453125</LongitudeDegrees>
            </Position>
            <AltitudeMeters>1143.5999755859375</AltitudeMeters>
            <DistanceMeters>90536.537346247</DistanceMeters>
          </Trackpoint>
          <Trackpoint>
            <Time>2021-07-28T08:08:21.000Z</Time>
            <Position>
              <LatitudeDegrees>41.256767101585865020751953125</LatitudeDegrees>
              <LongitudeDegrees>-2.8563117049634456634521484375</LongitudeDegrees>
            </Position>
            <AltitudeMeters>1142.5999755859375</AltitudeMeters>
            <DistanceMeters>90565.037598987</DistanceMeters>
          </Trackpoint>
          <Trackpoint>
            <Time>2021-07-28T08:08:23.000Z</Time>
            <Position>
              <LatitudeDegrees>41.2569251842796802520751953125</LatitudeDegrees>
              <LongitudeDegrees>-2.85621908493340015411376953125</LongitudeDegrees>
            </Position>
            <AltitudeMeters>1141.4000244140625</AltitudeMeters>
            <DistanceMeters>90584.263548876</DistanceMeters>
          </Trackpoint>
          <Trackpoint>
            <Time>2021-07-28T08:08:24.000Z</Time>
            <Position>
              <LatitudeDegrees>41.25700288452208042144775390625</LatitudeDegrees>
              <LongitudeDegrees>-2.8561705537140369415283203125</LongitudeDegrees>
            </Position>
            <AltitudeMeters>1140.199951171875</AltitudeMeters>
            <DistanceMeters>90593.81786951</DistanceMeters>
          </Trackpoint>
          <Trackpoint>
            <Time>2021-07-28T08:08:26.000Z</Time>
            <Position>
              <LatitudeDegrees>41.2571575306355953216552734375</LatitudeDegrees>
              <LongitudeDegrees>-2.8560756705701351165771484375</LongitudeDegrees>
            </Position>
            <AltitudeMeters>1139</AltitudeMeters>
            <DistanceMeters>90612.773257707</DistanceMeters>
          </Trackpoint>
          <Trackpoint>
            <Time>2021-07-28T08:08:33.000Z</Time>
            <Position>
              <LatitudeDegrees>41.257627420127391815185546875</LatitudeDegrees>
              <LongitudeDegrees>-2.855705358088016510009765625</LongitudeDegrees>
            </Position>
            <AltitudeMeters>1140</AltitudeMeters>
            <DistanceMeters>90673.56228585</DistanceMeters>
          </Trackpoint>
          <Trackpoint>
            <Time>2021-07-28T08:08:42.000Z</Time>
            <Position>
              <LatitudeDegrees>41.25805883668363094329833984375</LatitudeDegrees>
              <LongitudeDegrees>-2.8552227281033992767333984375</LongitudeDegrees>
            </Position>
            <AltitudeMeters>1141</AltitudeMeters>
            <DistanceMeters>90736.303093812</DistanceMeters>
          </Trackpoint>
          <Trackpoint>
            <Time>2021-07-28T08:08:49.000Z</Time>
            <Position>
              <LatitudeDegrees>41.258327476680278778076171875</LatitudeDegrees>
              <LongitudeDegrees>-2.85491536371409893035888671875</LongitudeDegrees>
            </Position>
            <AltitudeMeters>1142.199951171875</AltitudeMeters>
            <DistanceMeters>90775.741698975</DistanceMeters>
          </Trackpoint>
          <Trackpoint>
            <Time>2021-07-28T08:08:54.000Z</Time>
            <Position>
              <LatitudeDegrees>41.25850810669362545013427734375</LatitudeDegrees>
              <LongitudeDegrees>-2.854726351797580718994140625</LongitudeDegrees>
            </Position>
            <AltitudeMeters>1143.199951171875</AltitudeMeters>
            <DistanceMeters>90801.32083596</DistanceMeters>
          </Trackpoint>
          <Trackpoint>
            <Time>2021-07-28T08:09:06.000Z</Time>
            <Position>
              <LatitudeDegrees>41.25902627594769001007080078125</LatitudeDegrees>
              <LongitudeDegrees>-2.85445846617221832275390625</LongitudeDegrees>
            </Position>
            <AltitudeMeters>1142.199951171875</AltitudeMeters>
            <DistanceMeters>90863.196435924</DistanceMeters>
          </Trackpoint>
          <Trackpoint>
            <Time>2021-07-28T08:09:09.000Z</Time>
            <Position>
              <LatitudeDegrees>41.25918569974601268768310546875</LatitudeDegrees>
              <LongitudeDegrees>-2.8544204123318195343017578125</LongitudeDegrees>
            </Position>
            <AltitudeMeters>1141</AltitudeMeters>
            <DistanceMeters>90881.223982935</DistanceMeters>
          </Trackpoint>
          <Trackpoint>
            <Time>2021-07-28T08:09:13.000Z</Time>
            <Position>
              <LatitudeDegrees>41.2594129331409931182861328125</LatitudeDegrees>
              <LongitudeDegrees>-2.85440172068774700164794921875</LongitudeDegrees>
            </Position>
            <AltitudeMeters>1140</AltitudeMeters>
            <DistanceMeters>90906.563885771</DistanceMeters>
          </Trackpoint>
          <Trackpoint>
            <Time>2021-07-28T08:09:14.000Z</Time>
            <Position>
              <LatitudeDegrees>41.259472109377384185791015625</LatitudeDegrees>
              <LongitudeDegrees>-2.85441613756120204925537109375</LongitudeDegrees>
            </Position>
            <AltitudeMeters>1140</AltitudeMeters>
            <DistanceMeters>90913.259055632</DistanceMeters>
          </Trackpoint>
          <Trackpoint>
            <Time>2021-07-28T08:09:18.000Z</Time>
            <Position>
              <LatitudeDegrees>41.25970018096268177032470703125</LatitudeDegrees>
              <LongitudeDegrees>-2.85457313060760498046875</LongitudeDegrees>
            </Position>
            <AltitudeMeters>1139</AltitudeMeters>
            <DistanceMeters>90941.841094673</DistanceMeters>
          </Trackpoint>
          <Trackpoint>
            <Time>2021-07-28T08:09:19.000Z</Time>
            <Position>
              <LatitudeDegrees>41.2597575969994068145751953125</LatitudeDegrees>
              <LongitudeDegrees>-2.85462635569274425506591796875</LongitudeDegrees>
            </Position>
            <AltitudeMeters>1138.199951171875</AltitudeMeters>
            <DistanceMeters>90949.630387557</DistanceMeters>
          </Trackpoint>
          <Trackpoint>
            <Time>2021-07-28T08:09:21.000Z</Time>
            <Position>
              <LatitudeDegrees>41.259882487356662750244140625</LatitudeDegrees>
              <LongitudeDegrees>-2.8547238372266292572021484375</LongitudeDegrees>
            </Position>
            <AltitudeMeters>1137</AltitudeMeters>
            <DistanceMeters>90965.747153638</DistanceMeters>
          </Trackpoint>
          <Trackpoint>
            <Time>2021-07-28T08:09:23.000Z</Time>
            <Position>
              <LatitudeDegrees>41.2600214593112468719482421875</LatitudeDegrees>
              <LongitudeDegrees>-2.85479650832712650299072265625</LongitudeDegrees>
            </Position>
            <AltitudeMeters>1136.199951171875</AltitudeMeters>
            <DistanceMeters>90982.366779935</DistanceMeters>
          </Trackpoint>
          <Trackpoint>
            <Time>2021-07-28T08:09:29.000Z</Time>
            <Position>
              <LatitudeDegrees>41.2604600004851818084716796875</LatitudeDegrees>
              <LongitudeDegrees>-2.8548780642449855804443359375</LongitudeDegrees>
            </Position>
            <AltitudeMeters>1135.800048828125</AltitudeMeters>
            <DistanceMeters>91031.651851943</DistanceMeters>
          </Trackpoint>
          <Trackpoint>
            <Time>2021-07-28T08:09:38.000Z</Time>
            <Position>
              <LatitudeDegrees>41.26102083362638950347900390625</LatitudeDegrees>
              <LongitudeDegrees>-2.8549374081194400787353515625</LongitudeDegrees>
            </Position>
            <AltitudeMeters>1136.5999755859375</AltitudeMeters>
            <DistanceMeters>91094.270779547</DistanceMeters>
          </Trackpoint>
          <Trackpoint>
            <Time>2021-07-28T08:09:40.000Z</Time>
            <Position>
              <LatitudeDegrees>41.26113181002438068389892578125</LatitudeDegrees>
              <LongitudeDegrees>-2.8549370728433132171630859375</LongitudeDegrees>
            </Position>
            <AltitudeMeters>1137</AltitudeMeters>
            <DistanceMeters>91106.62279038</DistanceMeters>
          </Trackpoint>
          <Trackpoint>
            <Time>2021-07-28T08:09:51.000Z</Time>
            <Position>
              <LatitudeDegrees>41.26170647330582141876220703125</LatitudeDegrees>
              <LongitudeDegrees>-2.85476289689540863037109375</LongitudeDegrees>
            </Position>
            <AltitudeMeters>1136.4000244140625</AltitudeMeters>
            <DistanceMeters>91172.223028872</DistanceMeters>
          </Trackpoint>
          <Trackpoint>
            <Time>2021-07-28T08:09:56.000Z</Time>
            <Position>
              <LatitudeDegrees>41.26197720877826213836669921875</LatitudeDegrees>
              <LongitudeDegrees>-2.85464244894683361053466796875</LongitudeDegrees>
            </Position>
            <AltitudeMeters>1135.800048828125</AltitudeMeters>
            <DistanceMeters>91203.996927069</DistanceMeters>
          </Trackpoint>
          <Trackpoint>
            <Time>2021-07-28T08:10:06.000Z</Time>
            <Position>
              <LatitudeDegrees>41.26251834444701671600341796875</LatitudeDegrees>
              <LongitudeDegrees>-2.85439652390778064727783203125</LongitudeDegrees>
            </Position>
            <AltitudeMeters>1135.199951171875</AltitudeMeters>
            <DistanceMeters>91267.643902199</DistanceMeters>
          </Trackpoint>
          <Trackpoint>
            <Time>2021-07-28T08:10:17.000Z</Time>
            <Position>
              <LatitudeDegrees>41.2630724720656871795654296875</LatitudeDegrees>
              <LongitudeDegrees>-2.8541327454149723052978515625</LongitudeDegrees>
            </Position>
            <AltitudeMeters>1135.5999755859375</AltitudeMeters>
            <DistanceMeters>91333.148815484</DistanceMeters>
          </Trackpoint>
          <Trackpoint>
            <Time>2021-07-28T08:10:28.000Z</Time>
            <Position>
              <LatitudeDegrees>41.263575218617916107177734375</LatitudeDegrees>
              <LongitudeDegrees>-2.85386033356189727783203125</LongitudeDegrees>
            </Position>
            <AltitudeMeters>1135.5999755859375</AltitudeMeters>
            <DistanceMeters>91393.56884506</DistanceMeters>
          </Trackpoint>
          <Trackpoint>
            <Time>2021-07-28T08:10:40.000Z</Time>
            <Position>
              <LatitudeDegrees>41.264078132808208465576171875</LatitudeDegrees>
              <LongitudeDegrees>-2.85354643128812313079833984375</LongitudeDegrees>
            </Position>
            <AltitudeMeters>1136.5999755859375</AltitudeMeters>
            <DistanceMeters>91455.398749176</DistanceMeters>
          </Trackpoint>
          <Trackpoint>
            <Time>2021-07-28T08:10:50.000Z</Time>
            <Position>
              <LatitudeDegrees>41.26446998678147792816162109375</LatitudeDegrees>
              <LongitudeDegrees>-2.853290028870105743408203125</LongitudeDegrees>
            </Position>
            <AltitudeMeters>1137</AltitudeMeters>
            <DistanceMeters>91504.002846725</DistanceMeters>
          </Trackpoint>
          <Trackpoint>
            <Time>2021-07-28T08:10:55.000Z</Time>
            <Position>
              <LatitudeDegrees>41.26465070061385631561279296875</LatitudeDegrees>
              <LongitudeDegrees>-2.85317678935825824737548828125</LongitudeDegrees>
            </Position>
            <AltitudeMeters>1138</AltitudeMeters>
            <DistanceMeters>91526.236255026</DistanceMeters>
          </Trackpoint>
          <Trackpoint>
            <Time>2021-07-28T08:11:05.000Z</Time>
            <Position>
              <LatitudeDegrees>41.26498010940849781036376953125</LatitudeDegrees>
              <LongitudeDegrees>-2.85296715795993804931640625</LongitudeDegrees>
            </Position>
            <AltitudeMeters>1139</AltitudeMeters>
            <DistanceMeters>91566.878815273</DistanceMeters>
          </Trackpoint>
          <Trackpoint>
            <Time>2021-07-28T08:11:10.000Z</Time>
            <Position>
              <LatitudeDegrees>41.26511807553470134735107421875</LatitudeDegrees>
              <LongitudeDegrees>-2.85287386737763881683349609375</LongitudeDegrees>
            </Position>
            <AltitudeMeters>1140</AltitudeMeters>
            <DistanceMeters>91584.104094714</DistanceMeters>
          </Trackpoint>
          <Trackpoint>
            <Time>2021-07-28T08:11:21.000Z</Time>
            <Position>
              <LatitudeDegrees>41.26541085541248321533203125</LatitudeDegrees>
              <LongitudeDegrees>-2.8526954166591167449951171875</LongitudeDegrees>
            </Position>
            <AltitudeMeters>1141.199951171875</AltitudeMeters>
            <DistanceMeters>91619.948191528</DistanceMeters>
          </Trackpoint>
          <Trackpoint>
            <Time>2021-07-28T08:11:31.000Z</Time>
            <Position>
              <LatitudeDegrees>41.2656665034592151641845703125</LatitudeDegrees>
              <LongitudeDegrees>-2.85253465175628662109375</LongitudeDegrees>
            </Position>
            <AltitudeMeters>1142.199951171875</AltitudeMeters>
            <DistanceMeters>91651.420832747</DistanceMeters>
          </Trackpoint>
          <Trackpoint>
            <Time>2021-07-28T08:11:44.000Z</Time>
            <Position>
              <LatitudeDegrees>41.26598945818841457366943359375</LatitudeDegrees>
              <LongitudeDegrees>-2.85233977250754833221435546875</LongitudeDegrees>
            </Position>
            <AltitudeMeters>1143.199951171875</AltitudeMeters>
            <DistanceMeters>91690.890908099</DistanceMeters>
          </Trackpoint>
          <Trackpoint>
            <Time>2021-07-28T08:12:01.000Z</Time>
            <Position>
              <LatitudeDegrees>41.266470663249492645263671875</LatitudeDegrees>
              <LongitudeDegrees>-2.852000892162322998046875</LongitudeDegrees>
            </Position>
            <AltitudeMeters>1143</AltitudeMeters>
            <DistanceMeters>91751.49083787</DistanceMeters>
          </Trackpoint>
          <Trackpoint>
            <Time>2021-07-28T08:12:06.000Z</Time>
            <Position>
              <LatitudeDegrees>41.266649030148983001708984375</LatitudeDegrees>
              <LongitudeDegrees>-2.85186016000807285308837890625</LongitudeDegrees>
            </Position>
            <AltitudeMeters>1142.199951171875</AltitudeMeters>
            <DistanceMeters>91774.572355368</DistanceMeters>
          </Trackpoint>
          <Trackpoint>
            <Time>2021-07-28T08:12:14.000Z</Time>
            <Position>
              <LatitudeDegrees>41.266988329589366912841796875</LatitudeDegrees>
              <LongitudeDegrees>-2.85160870291292667388916015625</LongitudeDegrees>
            </Position>
            <AltitudeMeters>1141</AltitudeMeters>
            <DistanceMeters>91817.801051157</DistanceMeters>
          </Trackpoint>
          <Trackpoint>
            <Time>2021-07-28T08:12:27.000Z</Time>
            <Position>
              <LatitudeDegrees>41.26748831011354923248291015625</LatitudeDegrees>
              <LongitudeDegrees>-2.85123981535434722900390625</LongitudeDegrees>
            </Position>
            <AltitudeMeters>1141</AltitudeMeters>
            <DistanceMeters>91881.434191723</DistanceMeters>
          </Trackpoint>
          <Trackpoint>
            <Time>2021-07-28T08:12:43.000Z</Time>
            <Position>
              <LatitudeDegrees>41.26797814853489398956298828125</LatitudeDegrees>
              <LongitudeDegrees>-2.85086707212030887603759765625</LongitudeDegrees>
            </Position>
            <AltitudeMeters>1142</AltitudeMeters>
            <DistanceMeters>91944.241961822</DistanceMeters>
          </Trackpoint>
          <Trackpoint>
            <Time>2021-07-28T08:12:46.000Z</Time>
            <Position>
              <LatitudeDegrees>41.26806381158530712127685546875</LatitudeDegrees>
              <LongitudeDegrees>-2.850801609456539154052734375</LongitudeDegrees>
            </Position>
            <AltitudeMeters>1142.4000244140625</AltitudeMeters>
            <DistanceMeters>91955.236762109</DistanceMeters>
          </Trackpoint>
          <Trackpoint>
            <Time>2021-07-28T08:12:59.000Z</Time>
            <Position>
              <LatitudeDegrees>41.2684261612594127655029296875</LatitudeDegrees>
              <LongitudeDegrees>-2.85053783096373081207275390625</LongitudeDegrees>
            </Position>
            <AltitudeMeters>1143.4000244140625</AltitudeMeters>
            <DistanceMeters>92001.209366578</DistanceMeters>
          </Trackpoint>
          <Trackpoint>
            <Time>2021-07-28T08:13:12.000Z</Time>
            <Position>
              <LatitudeDegrees>41.2687627784907817840576171875</LatitudeDegrees>
              <LongitudeDegrees>-2.8503018803894519805908203125</LongitudeDegrees>
            </Position>
            <AltitudeMeters>1144.4000244140625</AltitudeMeters>
            <DistanceMeters>92043.5573904</DistanceMeters>
          </Trackpoint>
          <Trackpoint>
            <Time>2021-07-28T08:13:25.000Z</Time>
            <Position>
              <LatitudeDegrees>41.2690638564527034759521484375</LatitudeDegrees>
              <LongitudeDegrees>-2.85012108273804187774658203125</LongitudeDegrees>
            </Position>
            <AltitudeMeters>1145.5999755859375</AltitudeMeters>
            <DistanceMeters>92080.323274084</DistanceMeters>
          </Trackpoint>
          <Trackpoint>
            <Time>2021-07-28T08:13:37.000Z</Time>
            <Position>
              <LatitudeDegrees>41.26932646147906780242919921875</LatitudeDegrees>
              <LongitudeDegrees>-2.84995998255908489227294921875</LongitudeDegrees>
            </Position>
            <AltitudeMeters>1146.5999755859375</AltitudeMeters>
            <DistanceMeters>92112.50914629</DistanceMeters>
          </Trackpoint>
          <Trackpoint>
            <Time>2021-07-28T08:13:49.000Z</Time>
            <Position>
              <LatitudeDegrees>41.26959267072379589080810546875</LatitudeDegrees>
              <LongitudeDegrees>-2.849800474941730499267578125</LongitudeDegrees>
            </Position>
            <AltitudeMeters>1147.800048828125</AltitudeMeters>
            <DistanceMeters>92145.00480922</DistanceMeters>
          </Trackpoint>
          <Trackpoint>
            <Time>2021-07-28T08:14:00.000Z</Time>
            <Position>
              <LatitudeDegrees>41.26983390189707279205322265625</LatitudeDegrees>
              <LongitudeDegrees>-2.849662341177463531494140625</LongitudeDegrees>
            </Position>
            <AltitudeMeters>1148.800048828125</AltitudeMeters>
            <DistanceMeters>92174.235527022</DistanceMeters>
          </Trackpoint>
          <Trackpoint>
            <Time>2021-07-28T08:14:13.000Z</Time>
            <Position>
              <LatitudeDegrees>41.27011888660490512847900390625</LatitudeDegrees>
              <LongitudeDegrees>-2.84949143417179584503173828125</LongitudeDegrees>
            </Position>
            <AltitudeMeters>1149.800048828125</AltitudeMeters>
            <DistanceMeters>92209.028154081</DistanceMeters>
          </Trackpoint>
          <Trackpoint>
            <Time>2021-07-28T08:14:19.000Z</Time>
            <Position>
              <LatitudeDegrees>41.270251907408237457275390625</LatitudeDegrees>
              <LongitudeDegrees>-2.84941884689033031463623046875</LongitudeDegrees>
            </Position>
            <AltitudeMeters>1151</AltitudeMeters>
            <DistanceMeters>92225.030494779</DistanceMeters>
          </Trackpoint>
          <Trackpoint>
            <Time>2021-07-28T08:14:29.000Z</Time>
            <Position>
              <LatitudeDegrees>41.2704482115805149078369140625</LatitudeDegrees>
              <LongitudeDegrees>-2.84931709058582782745361328125</LongitudeDegrees>
            </Position>
            <AltitudeMeters>1152.199951171875</AltitudeMeters>
            <DistanceMeters>92248.479191004</DistanceMeters>
          </Trackpoint>
          <Trackpoint>
            <Time>2021-07-28T08:14:35.000Z</Time>
            <Position>
              <LatitudeDegrees>41.27056949771940708160400390625</LatitudeDegrees>
              <LongitudeDegrees>-2.849281132221221923828125</LongitudeDegrees>
            </Position>
            <AltitudeMeters>1153.199951171875</AltitudeMeters>
            <DistanceMeters>92262.309414402</DistanceMeters>
          </Trackpoint>
          <Trackpoint>
            <Time>2021-07-28T08:14:44.000Z</Time>
            <Position>
              <LatitudeDegrees>41.27075247466564178466796875</LatitudeDegrees>
              <LongitudeDegrees>-2.8492115624248981475830078125</LongitudeDegrees>
            </Position>
            <AltitudeMeters>1154.199951171875</AltitudeMeters>
            <DistanceMeters>92283.490355313</DistanceMeters>
          </Trackpoint>
          <Trackpoint>
            <Time>2021-07-28T08:14:51.000Z</Time>
            <Position>
              <LatitudeDegrees>41.27089924179017543792724609375</LatitudeDegrees>
              <LongitudeDegrees>-2.84916554577648639678955078125</LongitudeDegrees>
            </Position>
            <AltitudeMeters>1155.4000244140625</AltitudeMeters>
            <DistanceMeters>92300.273267589</DistanceMeters>
          </Trackpoint>
          <Trackpoint>
            <Time>2021-07-28T08:14:57.000Z</Time>
            <Position>
              <LatitudeDegrees>41.27101642079651355743408203125</LatitudeDegrees>
              <LongitudeDegrees>-2.8491173498332500457763671875</LongitudeDegrees>
            </Position>
            <AltitudeMeters>1156.4000244140625</AltitudeMeters>
            <DistanceMeters>92313.924409943</DistanceMeters>
          </Trackpoint>
          <Trackpoint>
            <Time>2021-07-28T08:15:06.000Z</Time>
            <Position>
              <LatitudeDegrees>41.27116813324391841888427734375</LatitudeDegrees>
              <LongitudeDegrees>-2.84907669760286808013916015625</LongitudeDegrees>
            </Position>
            <AltitudeMeters>1157.5999755859375</AltitudeMeters>
            <DistanceMeters>92331.149165141</DistanceMeters>
          </Trackpoint>
          <Trackpoint>
            <Time>2021-07-28T08:15:17.000Z</Time>
            <Position>
              <LatitudeDegrees>41.27134390175342559814453125</LatitudeDegrees>
              <LongitudeDegrees>-2.84901198931038379669189453125</LongitudeDegrees>
            </Position>
            <AltitudeMeters>1158.800048828125</AltitudeMeters>
            <DistanceMeters>92351.447769972</DistanceMeters>
          </Trackpoint>
          <Trackpoint>
            <Time>2021-07-28T08:15:28.000Z</Time>
            <Position>
              <LatitudeDegrees>41.2715241126716136932373046875</LatitudeDegrees>
              <LongitudeDegrees>-2.848952896893024444580078125</LongitudeDegrees>
            </Position>
            <AltitudeMeters>1159.800048828125</AltitudeMeters>
            <DistanceMeters>92372.105974461</DistanceMeters>
          </Trackpoint>
          <Trackpoint>
            <Time>2021-07-28T08:15:38.000Z</Time>
            <Position>
              <LatitudeDegrees>41.27168663777410984039306640625</LatitudeDegrees>
              <LongitudeDegrees>-2.84890227019786834716796875</LongitudeDegrees>
            </Position>
            <AltitudeMeters>1160.800048828125</AltitudeMeters>
            <DistanceMeters>92390.684365455</DistanceMeters>
          </Trackpoint>
          <Trackpoint>
            <Time>2021-07-28T08:15:46.000Z</Time>
            <Position>
              <LatitudeDegrees>41.27182074822485446929931640625</LatitudeDegrees>
              <LongitudeDegrees>-2.8488715924322605133056640625</LongitudeDegrees>
            </Position>
            <AltitudeMeters>1162</AltitudeMeters>
            <DistanceMeters>92405.829727842</DistanceMeters>
          </Trackpoint>
          <Trackpoint>
            <Time>2021-07-28T08:16:00.000Z</Time>
            <Position>
              <LatitudeDegrees>41.27205200493335723876953125</LatitudeDegrees>
              <LongitudeDegrees>-2.84879238344728946685791015625</LongitudeDegrees>
            </Position>
            <AltitudeMeters>1163</AltitudeMeters>
            <DistanceMeters>92432.408344815</DistanceMeters>
          </Trackpoint>
          <Trackpoint>
            <Time>2021-07-28T08:16:06.000Z</Time>
            <Position>
              <LatitudeDegrees>41.2721510790288448333740234375</LatitudeDegrees>
              <LongitudeDegrees>-2.848757766187191009521484375</LongitudeDegrees>
            </Position>
            <AltitudeMeters>1164</AltitudeMeters>
            <DistanceMeters>92443.809570645</DistanceMeters>
          </Trackpoint>
          <Trackpoint>
            <Time>2021-07-28T08:16:22.000Z</Time>
            <Position>
              <LatitudeDegrees>41.2724229879677295684814453125</LatitudeDegrees>
              <LongitudeDegrees>-2.84866682253777980804443359375</LongitudeDegrees>
            </Position>
            <AltitudeMeters>1165.199951171875</AltitudeMeters>
            <DistanceMeters>92475.015105147</DistanceMeters>
          </Trackpoint>
          <Trackpoint>
            <Time>2021-07-28T08:16:33.000Z</Time>
            <Position>
              <LatitudeDegrees>41.27261753194034099578857421875</LatitudeDegrees>
              <LongitudeDegrees>-2.84861116670072078704833984375</LongitudeDegrees>
            </Position>
            <AltitudeMeters>1166.199951171875</AltitudeMeters>
            <DistanceMeters>92497.163057932</DistanceMeters>
          </Trackpoint>
          <Trackpoint>
            <Time>2021-07-28T08:16:48.000Z</Time>
            <Position>
              <LatitudeDegrees>41.27287368290126323699951171875</LatitudeDegrees>
              <LongitudeDegrees>-2.8485265932977199554443359375</LongitudeDegrees>
            </Position>
            <AltitudeMeters>1167.199951171875</AltitudeMeters>
            <DistanceMeters>92526.537842777</DistanceMeters>
          </Trackpoint>
          <Trackpoint>
            <Time>2021-07-28T08:16:56.000Z</Time>
            <Position>
              <LatitudeDegrees>41.27301215194165706634521484375</LatitudeDegrees>
              <LongitudeDegrees>-2.848481498658657073974609375</LongitudeDegrees>
            </Position>
            <AltitudeMeters>1168.199951171875</AltitudeMeters>
            <DistanceMeters>92542.40474327</DistanceMeters>
          </Trackpoint>
          <Trackpoint>
            <Time>2021-07-28T08:17:10.000Z</Time>
            <Position>
              <LatitudeDegrees>41.27326662652194499969482421875</LatitudeDegrees>
              <LongitudeDegrees>-2.848398685455322265625</LongitudeDegrees>
            </Position>
            <AltitudeMeters>1169.199951171875</AltitudeMeters>
            <DistanceMeters>92571.563238045</DistanceMeters>
          </Trackpoint>
          <Trackpoint>
            <Time>2021-07-28T08:17:19.000Z</Time>
            <Position>
              <LatitudeDegrees>41.27340543083846569061279296875</LatitudeDegrees>
              <LongitudeDegrees>-2.84834763966500759124755859375</LongitudeDegrees>
            </Position>
            <AltitudeMeters>1169.800048828125</AltitudeMeters>
            <DistanceMeters>92587.591515395</DistanceMeters>
          </Trackpoint>
          <Trackpoint>
            <Time>2021-07-28T08:17:26.000Z</Time>
            <Position>
              <LatitudeDegrees>41.27356703393161296844482421875</LatitudeDegrees>
              <LongitudeDegrees>-2.84828075207769870758056640625</LongitudeDegrees>
            </Position>
            <AltitudeMeters>1169</AltitudeMeters>
            <DistanceMeters>92606.42838944</DistanceMeters>
          </Trackpoint>
          <Trackpoint>
            <Time>2021-07-28T08:17:29.000Z</Time>
            <Position>
              <LatitudeDegrees>41.273682117462158203125</LatitudeDegrees>
              <LongitudeDegrees>-2.84823481924831867218017578125</LongitudeDegrees>
            </Position>
            <AltitudeMeters>1167.5999755859375</AltitudeMeters>
            <DistanceMeters>92619.801521608</DistanceMeters>
          </Trackpoint>
          <Trackpoint>
            <Time>2021-07-28T08:17:31.000Z</Time>
            <Position>
              <LatitudeDegrees>41.27377222292125225067138671875</LatitudeDegrees>
              <LongitudeDegrees>-2.84818536601960659027099609375</LongitudeDegrees>
            </Position>
            <AltitudeMeters>1166.199951171875</AltitudeMeters>
            <DistanceMeters>92630.650393271</DistanceMeters>
          </Trackpoint>
          <Trackpoint>
            <Time>2021-07-28T08:17:33.000Z</Time>
            <Position>
              <LatitudeDegrees>41.27387431450188159942626953125</LatitudeDegrees>
              <LongitudeDegrees>-2.848126776516437530517578125</LongitudeDegrees>
            </Position>
            <AltitudeMeters>1164.800048828125</AltitudeMeters>
            <DistanceMeters>92643.025411106</DistanceMeters>
          </Trackpoint>
          <Trackpoint>
            <Time>2021-07-28T08:17:35.000Z</Time>
            <Position>
              <LatitudeDegrees>41.2739857099950313568115234375</LatitudeDegrees>
              <LongitudeDegrees>-2.84805980511009693145751953125</LongitudeDegrees>
            </Position>
            <AltitudeMeters>1163.800048828125</AltitudeMeters>
            <DistanceMeters>92656.631166032</DistanceMeters>
          </Trackpoint>
          <Trackpoint>
            <Time>2021-07-28T08:17:38.000Z</Time>
            <Position>
              <LatitudeDegrees>41.27417354844510555267333984375</LatitudeDegrees>
              <LongitudeDegrees>-2.8479469008743762969970703125</LongitudeDegrees>
            </Position>
            <AltitudeMeters>1162.5999755859375</AltitudeMeters>
            <DistanceMeters>92679.572590911</DistanceMeters>
          </Trackpoint>
          <Trackpoint>
            <Time>2021-07-28T08:17:40.000Z</Time>
            <Position>
              <LatitudeDegrees>41.274312436580657958984375</LatitudeDegrees>
              <LongitudeDegrees>-2.84786048345267772674560546875</LongitudeDegrees>
            </Position>
            <AltitudeMeters>1161.199951171875</AltitudeMeters>
            <DistanceMeters>92696.6377591</DistanceMeters>
          </Trackpoint>
          <Trackpoint>
            <Time>2021-07-28T08:17:42.000Z</Time>
            <Position>
              <LatitudeDegrees>41.274459622800350189208984375</LatitudeDegrees>
              <LongitudeDegrees>-2.8477671928703784942626953125</LongitudeDegrees>
            </Position>
            <AltitudeMeters>1160</AltitudeMeters>
            <DistanceMeters>92714.783632114</DistanceMeters>
          </Trackpoint>
          <Trackpoint>
            <Time>2021-07-28T08:17:44.000Z</Time>
            <Position>
              <LatitudeDegrees>41.27460923977196216583251953125</LatitudeDegrees>
              <LongitudeDegrees>-2.84765303134918212890625</LongitudeDegrees>
            </Position>
            <AltitudeMeters>1158.199951171875</AltitudeMeters>
            <DistanceMeters>92733.980439653</DistanceMeters>
          </Trackpoint>
          <Trackpoint>
            <Time>2021-07-28T08:17:46.000Z</Time>
            <Position>
              <LatitudeDegrees>41.27475793473422527313232421875</LatitudeDegrees>
              <LongitudeDegrees>-2.8475137241184711456298828125</LongitudeDegrees>
            </Position>
            <AltitudeMeters>1156.800048828125</AltitudeMeters>
            <DistanceMeters>92754.221575943</DistanceMeters>
          </Trackpoint>
          <Trackpoint>
            <Time>2021-07-28T08:17:48.000Z</Time>
            <Position>
              <LatitudeDegrees>41.27490495331585407257080078125</LatitudeDegrees>
              <LongitudeDegrees>-2.84735170193016529083251953125</LongitudeDegrees>
            </Position>
            <AltitudeMeters>1155.199951171875</AltitudeMeters>
            <DistanceMeters>92775.468920289</DistanceMeters>
          </Trackpoint>
          <Trackpoint>
            <Time>2021-07-28T08:17:50.000Z</Time>
            <Position>
              <LatitudeDegrees>41.2750505469739437103271484375</LatitudeDegrees>
              <LongitudeDegrees>-2.847173251211643218994140625</LongitudeDegrees>
            </Position>
            <AltitudeMeters>1153.800048828125</AltitudeMeters>
            <DistanceMeters>92797.501187293</DistanceMeters>
          </Trackpoint>
          <Trackpoint>
            <Time>2021-07-28T08:17:51.000Z</Time>
            <Position>
              <LatitudeDegrees>41.275119446218013763427734375</LatitudeDegrees>
              <LongitudeDegrees>-2.8470761887729167938232421875</LongitudeDegrees>
            </Position>
            <AltitudeMeters>1152.800048828125</AltitudeMeters>
            <DistanceMeters>92808.669151111</DistanceMeters>
          </Trackpoint>
          <Trackpoint>
            <Time>2021-07-28T08:17:53.000Z</Time>
            <Position>
              <LatitudeDegrees>41.27524710260331630706787109375</LatitudeDegrees>
              <LongitudeDegrees>-2.846867479383945465087890625</LongitudeDegrees>
            </Position>
            <AltitudeMeters>1151.4000244140625</AltitudeMeters>
            <DistanceMeters>92831.178249918</DistanceMeters>
          </Trackpoint>
          <Trackpoint>
            <Time>2021-07-28T08:17:55.000Z</Time>
            <Position>
              <LatitudeDegrees>41.27536176703870296478271484375</LatitudeDegrees>
              <LongitudeDegrees>-2.8466410003602504730224609375</LongitudeDegrees>
            </Position>
            <AltitudeMeters>1150.199951171875</AltitudeMeters>
            <DistanceMeters>92854.020663912</DistanceMeters>
          </Trackpoint>
          <Trackpoint>
            <Time>2021-07-28T08:17:56.000Z</Time>
            <Position>
              <LatitudeDegrees>41.275413818657398223876953125</LatitudeDegrees>
              <LongitudeDegrees>-2.84652206115424633026123046875</LongitudeDegrees>
            </Position>
            <AltitudeMeters>1149</AltitudeMeters>
            <DistanceMeters>92865.534200389</DistanceMeters>
          </Trackpoint>
          <Trackpoint>
            <Time>2021-07-28T08:17:57.000Z</Time>
            <Position>
              <LatitudeDegrees>41.2754656188189983367919921875</LatitudeDegrees>
              <LongitudeDegrees>-2.84640219993889331817626953125</LongitudeDegrees>
            </Position>
            <AltitudeMeters>1147.5999755859375</AltitudeMeters>
            <DistanceMeters>92877.100165651</DistanceMeters>
          </Trackpoint>
          <Trackpoint>
            <Time>2021-07-28T08:17:59.000Z</Time>
            <Position>
              <LatitudeDegrees>41.275584809482097625732421875</LatitudeDegrees>
              <LongitudeDegrees>-2.8461711108684539794921875</LongitudeDegrees>
            </Position>
            <AltitudeMeters>1146.199951171875</AltitudeMeters>
            <DistanceMeters>92900.544817985</DistanceMeters>
          </Trackpoint>
          <Trackpoint>
            <Time>2021-07-28T08:18:01.000Z</Time>
            <Position>
              <LatitudeDegrees>41.27573459409177303314208984375</LatitudeDegrees>
              <LongitudeDegrees>-2.84596215002238750457763671875</LongitudeDegrees>
            </Position>
            <AltitudeMeters>1145</AltitudeMeters>
            <DistanceMeters>92924.699741485</DistanceMeters>
          </Trackpoint>
          <Trackpoint>
            <Time>2021-07-28T08:18:02.000Z</Time>
            <Position>
              <LatitudeDegrees>41.2758153118193149566650390625</LatitudeDegrees>
              <LongitudeDegrees>-2.84586341120302677154541015625</LongitudeDegrees>
            </Position>
            <AltitudeMeters>1143.800048828125</AltitudeMeters>
            <DistanceMeters>92936.903554446</DistanceMeters>
          </Trackpoint>
          <Trackpoint>
            <Time>2021-07-28T08:18:03.000Z</Time>
            <Position>
              <LatitudeDegrees>41.27589762210845947265625</LatitudeDegrees>
              <LongitudeDegrees>-2.8457662649452686309814453125</LongitudeDegrees>
            </Position>
            <AltitudeMeters>1142.5999755859375</AltitudeMeters>
            <DistanceMeters>92949.149839988</DistanceMeters>
          </Trackpoint>
          <Trackpoint>
            <Time>2021-07-28T08:18:05.000Z</Time>
            <Position>
              <LatitudeDegrees>41.2760627456009387969970703125</LatitudeDegrees>
              <LongitudeDegrees>-2.84557138569653034210205078125</LongitudeDegrees>
            </Position>
            <AltitudeMeters>1141.199951171875</AltitudeMeters>
            <DistanceMeters>92973.716037677</DistanceMeters>
          </Trackpoint>
          <Trackpoint>
            <Time>2021-07-28T08:18:08.000Z</Time>
            <Position>
              <LatitudeDegrees>41.2763152085244655609130859375</LatitudeDegrees>
              <LongitudeDegrees>-2.845283634960651397705078125</LongitudeDegrees>
            </Position>
            <AltitudeMeters>1140</AltitudeMeters>
            <DistanceMeters>93010.715247517</DistanceMeters>
          </Trackpoint>
          <Trackpoint>
            <Time>2021-07-28T08:18:10.000Z</Time>
            <Position>
              <LatitudeDegrees>41.27649910748004913330078125</LatitudeDegrees>
              <LongitudeDegrees>-2.8451262228190898895263671875</LongitudeDegrees>
            </Position>
            <AltitudeMeters>1139.4000244140625</AltitudeMeters>
            <DistanceMeters>93035.05284876</DistanceMeters>
          </Trackpoint>
          <Trackpoint>
            <Time>2021-07-28T08:18:12.000Z</Time>
            <Position>
              <LatitudeDegrees>41.276696585118770599365234375</LatitudeDegrees>
              <LongitudeDegrees>-2.84502455033361911773681640625</LongitudeDegrees>
            </Position>
            <AltitudeMeters>1138.800048828125</AltitudeMeters>
            <DistanceMeters>93058.620623412</DistanceMeters>
          </Trackpoint>
          <Trackpoint>
            <Time>2021-07-28T08:18:14.000Z</Time>
            <Position>
              <LatitudeDegrees>41.2768928892910480499267578125</LatitudeDegrees>
              <LongitudeDegrees>-2.84494995139539241790771484375</LongitudeDegrees>
            </Position>
            <AltitudeMeters>1137.5999755859375</AltitudeMeters>
            <DistanceMeters>93081.343535659</DistanceMeters>
          </Trackpoint>
          <Trackpoint>
            <Time>2021-07-28T08:18:20.000Z</Time>
            <Position>
              <LatitudeDegrees>41.2774323485791683197021484375</LatitudeDegrees>
              <LongitudeDegrees>-2.84475012682378292083740234375</LongitudeDegrees>
            </Position>
            <AltitudeMeters>1138</AltitudeMeters>
            <DistanceMeters>93143.66961547</DistanceMeters>
          </Trackpoint>
          <Trackpoint>
            <Time>2021-07-28T08:18:23.000Z</Time>
            <Position>
              <LatitudeDegrees>41.27766846679151058197021484375</LatitudeDegrees>
              <LongitudeDegrees>-2.84461610019207000732421875</LongitudeDegrees>
            </Position>
            <AltitudeMeters>1137.800048828125</AltitudeMeters>
            <DistanceMeters>93172.241542791</DistanceMeters>
          </Trackpoint>
          <Trackpoint>
            <Time>2021-07-28T08:18:29.000Z</Time>
            <Position>
              <LatitudeDegrees>41.27802453003823757171630859375</LatitudeDegrees>
              <LongitudeDegrees>-2.84415283240377902984619140625</LongitudeDegrees>
            </Position>
            <AltitudeMeters>1136</AltitudeMeters>
            <DistanceMeters>93227.668760721</DistanceMeters>
          </Trackpoint>
          <Trackpoint>
            <Time>2021-07-28T08:18:31.000Z</Time>
            <Position>
              <LatitudeDegrees>41.27814204432070255279541015625</LatitudeDegrees>
              <LongitudeDegrees>-2.84397982992231845855712890625</LongitudeDegrees>
            </Position>
            <AltitudeMeters>1134.199951171875</AltitudeMeters>
            <DistanceMeters>93247.174946946</DistanceMeters>
          </Trackpoint>
          <Trackpoint>
            <Time>2021-07-28T08:18:33.000Z</Time>
            <Position>
              <LatitudeDegrees>41.2782621569931507110595703125</LatitudeDegrees>
              <LongitudeDegrees>-2.8438027203083038330078125</LongitudeDegrees>
            </Position>
            <AltitudeMeters>1132.5999755859375</AltitudeMeters>
            <DistanceMeters>93267.129651927</DistanceMeters>
          </Trackpoint>
          <Trackpoint>
            <Time>2021-07-28T08:18:35.000Z</Time>
            <Position>
              <LatitudeDegrees>41.27838780172169208526611328125</LatitudeDegrees>
              <LongitudeDegrees>-2.84362770617008209228515625</LongitudeDegrees>
            </Position>
            <AltitudeMeters>1131.199951171875</AltitudeMeters>
            <DistanceMeters>93287.375025961</DistanceMeters>
          </Trackpoint>
          <Trackpoint>
            <Time>2021-07-28T08:18:37.000Z</Time>
            <Position>
              <LatitudeDegrees>41.278512440621852874755859375</LatitudeDegrees>
              <LongitudeDegrees>-2.84345428459346294403076171875</LongitudeDegrees>
            </Position>
            <AltitudeMeters>1130.199951171875</AltitudeMeters>
            <DistanceMeters>93307.446593674</DistanceMeters>
          </Trackpoint>
          <Trackpoint>
            <Time>2021-07-28T08:18:44.000Z</Time>
            <Position>
              <LatitudeDegrees>41.27890999428927898406982421875</LatitudeDegrees>
              <LongitudeDegrees>-2.8428651206195354461669921875</LongitudeDegrees>
            </Position>
            <AltitudeMeters>1130.199951171875</AltitudeMeters>
            <DistanceMeters>93373.677077771</DistanceMeters>
          </Trackpoint>
          <Trackpoint>
            <Time>2021-07-28T08:18:50.000Z</Time>
            <Position>
              <LatitudeDegrees>41.27923957072198390960693359375</LatitudeDegrees>
              <LongitudeDegrees>-2.84239732660353183746337890625</LongitudeDegrees>
            </Position>
            <AltitudeMeters>1129.199951171875</AltitudeMeters>
            <DistanceMeters>93427.311219435</DistanceMeters>
          </Trackpoint>
          <Trackpoint>
            <Time>2021-07-28T08:18:57.000Z</Time>
            <Position>
              <LatitudeDegrees>41.27961088903248310089111328125</LatitudeDegrees>
              <LongitudeDegrees>-2.84186021424829959869384765625</LongitudeDegrees>
            </Position>
            <AltitudeMeters>1128.5999755859375</AltitudeMeters>
            <DistanceMeters>93488.355363017</DistanceMeters>
          </Trackpoint>
          <Trackpoint>
            <Time>2021-07-28T08:18:59.000Z</Time>
            <Position>
              <LatitudeDegrees>41.2797175906598567962646484375</LatitudeDegrees>
              <LongitudeDegrees>-2.84171001054346561431884765625</LongitudeDegrees>
            </Position>
            <AltitudeMeters>1128</AltitudeMeters>
            <DistanceMeters>93505.6439584</DistanceMeters>
          </Trackpoint>
          <Trackpoint>
            <Time>2021-07-28T08:19:01.000Z</Time>
            <Position>
              <LatitudeDegrees>41.27982278354465961456298828125</LatitudeDegrees>
              <LongitudeDegrees>-2.84156349487602710723876953125</LongitudeDegrees>
            </Position>
            <AltitudeMeters>1126.800048828125</AltitudeMeters>
            <DistanceMeters>93522.593378802</DistanceMeters>
          </Trackpoint>
          <Trackpoint>
            <Time>2021-07-28T08:19:09.000Z</Time>
            <Position>
              <LatitudeDegrees>41.28020633943378925323486328125</LatitudeDegrees>
              <LongitudeDegrees>-2.84101062454283237457275390625</LongitudeDegrees>
            </Position>
            <AltitudeMeters>1127</AltitudeMeters>
            <DistanceMeters>93585.529550925</DistanceMeters>
          </Trackpoint>
          <Trackpoint>
            <Time>2021-07-28T08:19:19.000Z</Time>
            <Position>
              <LatitudeDegrees>41.28060431219637393951416015625</LatitudeDegrees>
              <LongitudeDegrees>-2.8404419124126434326171875</LongitudeDegrees>
            </Position>
            <AltitudeMeters>1127.199951171875</AltitudeMeters>
            <DistanceMeters>93650.52810141</DistanceMeters>
          </Trackpoint>
          <Trackpoint>
            <Time>2021-07-28T08:19:30.000Z</Time>
            <Position>
              <LatitudeDegrees>41.28100387752056121826171875</LatitudeDegrees>
              <LongitudeDegrees>-2.83987185917794704437255859375</LongitudeDegrees>
            </Position>
            <AltitudeMeters>1126.199951171875</AltitudeMeters>
            <DistanceMeters>93715.729378073</DistanceMeters>
          </Trackpoint>
          <Trackpoint>
            <Time>2021-07-28T08:19:42.000Z</Time>
            <Position>
              <LatitudeDegrees>41.28139992244541645050048828125</LatitudeDegrees>
              <LongitudeDegrees>-2.8392992913722991943359375</LongitudeDegrees>
            </Position>
            <AltitudeMeters>1125.800048828125</AltitudeMeters>
            <DistanceMeters>93780.818446163</DistanceMeters>
          </Trackpoint>
          <Trackpoint>
            <Time>2021-07-28T08:19:54.000Z</Time>
            <Position>
              <LatitudeDegrees>41.2817756831645965576171875</LatitudeDegrees>
              <LongitudeDegrees>-2.83875790424644947052001953125</LongitudeDegrees>
            </Position>
            <AltitudeMeters>1126.4000244140625</AltitudeMeters>
            <DistanceMeters>93842.459441901</DistanceMeters>
          </Trackpoint>
          <Trackpoint>
            <Time>2021-07-28T08:20:07.000Z</Time>
            <Position>
              <LatitudeDegrees>41.28217323683202266693115234375</LatitudeDegrees>
              <LongitudeDegrees>-2.8381888568401336669921875</LongitudeDegrees>
            </Position>
            <AltitudeMeters>1126</AltitudeMeters>
            <DistanceMeters>93907.445904582</DistanceMeters>
          </Trackpoint>
          <Trackpoint>
            <Time>2021-07-28T08:20:20.000Z</Time>
            <Position>
              <LatitudeDegrees>41.28256953321397304534912109375</LatitudeDegrees>
              <LongitudeDegrees>-2.83761997707188129425048828125</LongitudeDegrees>
            </Position>
            <AltitudeMeters>1125.800048828125</AltitudeMeters>
            <DistanceMeters>93972.326676893</DistanceMeters>
          </Trackpoint>
          <Trackpoint>
            <Time>2021-07-28T08:20:21.000Z</Time>
            <Position>
              <LatitudeDegrees>41.28260021097958087921142578125</LatitudeDegrees>
              <LongitudeDegrees>-2.83757806755602359771728515625</LongitudeDegrees>
            </Position>
            <AltitudeMeters>1125.800048828125</AltitudeMeters>
            <DistanceMeters>93977.22032203</DistanceMeters>
          </Trackpoint>
          <Trackpoint>
            <Time>2021-07-28T08:20:34.000Z</Time>
            <Position>
              <LatitudeDegrees>41.28298678435385227203369140625</LatitudeDegrees>
              <LongitudeDegrees>-2.83702142536640167236328125</LongitudeDegrees>
            </Position>
            <AltitudeMeters>1126</AltitudeMeters>
            <DistanceMeters>94040.614608219</DistanceMeters>
          </Trackpoint>
          <Trackpoint>
            <Time>2021-07-28T08:20:47.000Z</Time>
            <Position>
              <LatitudeDegrees>41.2833581864833831787109375</LatitudeDegrees>
              <LongitudeDegrees>-2.836488671600818634033203125</LongitudeDegrees>
            </Position>
            <AltitudeMeters>1125.4000244140625</AltitudeMeters>
            <DistanceMeters>94101.395317116</DistanceMeters>
          </Trackpoint>
          <Trackpoint>
            <Time>2021-07-28T08:21:01.000Z</Time>
            <Position>
              <LatitudeDegrees>41.2837258167564868927001953125</LatitudeDegrees>
              <LongitudeDegrees>-2.835956253111362457275390625</LongitudeDegrees>
            </Position>
            <AltitudeMeters>1126</AltitudeMeters>
            <DistanceMeters>94161.870545106</DistanceMeters>
          </Trackpoint>
          <Trackpoint>
            <Time>2021-07-28T08:21:06.000Z</Time>
            <Position>
              <LatitudeDegrees>41.2838545627892017364501953125</LatitudeDegrees>
              <LongitudeDegrees>-2.83577025867998600006103515625</LongitudeDegrees>
            </Position>
            <AltitudeMeters>1126.800048828125</AltitudeMeters>
            <DistanceMeters>94183.020767963</DistanceMeters>
          </Trackpoint>
          <Trackpoint>
            <Time>2021-07-28T08:21:20.000Z</Time>
            <Position>
              <LatitudeDegrees>41.284222863614559173583984375</LatitudeDegrees>
              <LongitudeDegrees>-2.8352372534573078155517578125</LongitudeDegrees>
            </Position>
            <AltitudeMeters>1127.199951171875</AltitudeMeters>
            <DistanceMeters>94243.582315159</DistanceMeters>
          </Trackpoint>
          <Trackpoint>
            <Time>2021-07-28T08:21:27.000Z</Time>
            <Position>
              <LatitudeDegrees>41.284401230514049530029296875</LatitudeDegrees>
              <LongitudeDegrees>-2.83497867174446582794189453125</LongitudeDegrees>
            </Position>
            <AltitudeMeters>1127.800048828125</AltitudeMeters>
            <DistanceMeters>94272.939572456</DistanceMeters>
          </Trackpoint>
          <Trackpoint>
            <Time>2021-07-28T08:21:38.000Z</Time>
            <Position>
              <LatitudeDegrees>41.2846652604639530181884765625</LatitudeDegrees>
              <LongitudeDegrees>-2.83462294377386569976806640625</LongitudeDegrees>
            </Position>
            <AltitudeMeters>1129</AltitudeMeters>
            <DistanceMeters>94314.757913339</DistanceMeters>
          </Trackpoint>
          <Trackpoint>
            <Time>2021-07-28T08:21:43.000Z</Time>
            <Position>
              <LatitudeDegrees>41.2847759015858173370361328125</LatitudeDegrees>
              <LongitudeDegrees>-2.83445647917687892913818359375</LongitudeDegrees>
            </Position>
            <AltitudeMeters>1130</AltitudeMeters>
            <DistanceMeters>94333.345294132</DistanceMeters>
          </Trackpoint>
          <Trackpoint>
            <Time>2021-07-28T08:21:52.000Z</Time>
            <Position>
              <LatitudeDegrees>41.28497815690934658050537109375</LatitudeDegrees>
              <LongitudeDegrees>-2.83415841870009899139404296875</LongitudeDegrees>
            </Position>
            <AltitudeMeters>1131.199951171875</AltitudeMeters>
            <DistanceMeters>94366.933978101</DistanceMeters>
          </Trackpoint>
          <Trackpoint>
            <Time>2021-07-28T08:22:05.000Z</Time>
            <Position>
              <LatitudeDegrees>41.28527487628161907196044921875</LatitudeDegrees>
              <LongitudeDegrees>-2.8337281756103038787841796875</LongitudeDegrees>
            </Position>
            <AltitudeMeters>1132.199951171875</AltitudeMeters>
            <DistanceMeters>94415.775675599</DistanceMeters>
          </Trackpoint>
          <Trackpoint>
            <Time>2021-07-28T08:22:22.000Z</Time>
            <Position>
              <LatitudeDegrees>41.2856264971196651458740234375</LatitudeDegrees>
              <LongitudeDegrees>-2.83315091393887996673583984375</LongitudeDegrees>
            </Position>
            <AltitudeMeters>1132.800048828125</AltitudeMeters>
            <DistanceMeters>94477.925180975</DistanceMeters>
          </Trackpoint>
          <Trackpoint>
            <Time>2021-07-28T08:22:33.000Z</Time>
            <Position>
              <LatitudeDegrees>41.28588021732866764068603515625</LatitudeDegrees>
              <LongitudeDegrees>-2.8326670266687870025634765625</LongitudeDegrees>
            </Position>
            <AltitudeMeters>1131</AltitudeMeters>
            <DistanceMeters>94527.273881322</DistanceMeters>
          </Trackpoint>
          <Trackpoint>
            <Time>2021-07-28T08:22:42.000Z</Time>
            <Position>
              <LatitudeDegrees>41.28610904328525066375732421875</LatitudeDegrees>
              <LongitudeDegrees>-2.8322070278227329254150390625</LongitudeDegrees>
            </Position>
            <AltitudeMeters>1129.800048828125</AltitudeMeters>
            <DistanceMeters>94573.412262535</DistanceMeters>
          </Trackpoint>
          <Trackpoint>
            <Time>2021-07-28T08:22:50.000Z</Time>
            <Position>
              <LatitudeDegrees>41.28631708212196826934814453125</LatitudeDegrees>
              <LongitudeDegrees>-2.83179488964378833770751953125</LongitudeDegrees>
            </Position>
            <AltitudeMeters>1128.800048828125</AltitudeMeters>
            <DistanceMeters>94614.936653401</DistanceMeters>
          </Trackpoint>
          <Trackpoint>
            <Time>2021-07-28T08:23:00.000Z</Time>
            <Position>
              <LatitudeDegrees>41.2865729816257953643798828125</LatitudeDegrees>
              <LongitudeDegrees>-2.83128409646451473236083984375</LongitudeDegrees>
            </Position>
            <AltitudeMeters>1127.800048828125</AltitudeMeters>
            <DistanceMeters>94666.280898327</DistanceMeters>
          </Trackpoint>
          <Trackpoint>
            <Time>2021-07-28T08:23:12.000Z</Time>
            <Position>
              <LatitudeDegrees>41.28687296994030475616455078125</LatitudeDegrees>
              <LongitudeDegrees>-2.83068328164517879486083984375</LongitudeDegrees>
            </Position>
            <AltitudeMeters>1128.199951171875</AltitudeMeters>
            <DistanceMeters>94726.611412766</DistanceMeters>
          </Trackpoint>
          <Trackpoint>
            <Time>2021-07-28T08:23:24.000Z</Time>
            <Position>
              <LatitudeDegrees>41.28718192689120769500732421875</LatitudeDegrees>
              <LongitudeDegrees>-2.83007089979946613311767578125</LongitudeDegrees>
            </Position>
            <AltitudeMeters>1128.199951171875</AltitudeMeters>
            <DistanceMeters>94788.300732798</DistanceMeters>
          </Trackpoint>
          <Trackpoint>
            <Time>2021-07-28T08:23:37.000Z</Time>
            <Position>
              <LatitudeDegrees>41.287492811679840087890625</LatitudeDegrees>
              <LongitudeDegrees>-2.8294480405747890472412109375</LongitudeDegrees>
            </Position>
            <AltitudeMeters>1127.800048828125</AltitudeMeters>
            <DistanceMeters>94850.837697286</DistanceMeters>
          </Trackpoint>
          <Trackpoint>
            <Time>2021-07-28T08:23:51.000Z</Time>
            <Position>
              <LatitudeDegrees>41.28780252300202846527099609375</LatitudeDegrees>
              <LongitudeDegrees>-2.82882953993976116180419921875</LongitudeDegrees>
            </Position>
            <AltitudeMeters>1128.4000244140625</AltitudeMeters>
            <DistanceMeters>94912.99853472</DistanceMeters>
          </Trackpoint>
          <Trackpoint>
            <Time>2021-07-28T08:24:01.000Z</Time>
            <Position>
              <LatitudeDegrees>41.28797418437898159027099609375</LatitudeDegrees>
              <LongitudeDegrees>-2.8283694572746753692626953125</LongitudeDegrees>
            </Position>
            <AltitudeMeters>1128.800048828125</AltitudeMeters>
            <DistanceMeters>94955.959018236</DistanceMeters>
          </Trackpoint>
          <Trackpoint>
            <Time>2021-07-28T08:24:15.000Z</Time>
            <Position>
              <LatitudeDegrees>41.28818943165242671966552734375</LatitudeDegrees>
              <LongitudeDegrees>-2.82766747288405895233154296875</LongitudeDegrees>
            </Position>
            <AltitudeMeters>1128.5999755859375</AltitudeMeters>
            <DistanceMeters>95019.367760747</DistanceMeters>
          </Trackpoint>
          <Trackpoint>
            <Time>2021-07-28T08:24:21.000Z</Time>
            <Position>
              <LatitudeDegrees>41.28832035697996616363525390625</LatitudeDegrees>
              <LongitudeDegrees>-2.8273126669228076934814453125</LongitudeDegrees>
            </Position>
            <AltitudeMeters>1127.800048828125</AltitudeMeters>
            <DistanceMeters>95052.426132933</DistanceMeters>
          </Trackpoint>
          <Trackpoint>
            <Time>2021-07-28T08:24:24.000Z</Time>
            <Position>
              <LatitudeDegrees>41.2883958779275417327880859375</LatitudeDegrees>
              <LongitudeDegrees>-2.82712248153984546661376953125</LongitudeDegrees>
            </Position>
            <AltitudeMeters>1126.5999755859375</AltitudeMeters>
            <DistanceMeters>95070.416323866</DistanceMeters>
          </Trackpoint>
          <Trackpoint>
            <Time>2021-07-28T08:24:30.000Z</Time>
            <Position>
              <LatitudeDegrees>41.2885643541812896728515625</LatitudeDegrees>
              <LongitudeDegrees>-2.82673959620296955108642578125</LongitudeDegrees>
            </Position>
            <AltitudeMeters>1125.199951171875</AltitudeMeters>
            <DistanceMeters>95107.52422541</DistanceMeters>
          </Trackpoint>
          <Trackpoint>
            <Time>2021-07-28T08:24:39.000Z</Time>
            <Position>
              <LatitudeDegrees>41.28881639800965785980224609375</LatitudeDegrees>
              <LongitudeDegrees>-2.826141379773616790771484375</LongitudeDegrees>
            </Position>
            <AltitudeMeters>1124.199951171875</AltitudeMeters>
            <DistanceMeters>95164.882353352</DistanceMeters>
          </Trackpoint>
          <Trackpoint>
            <Time>2021-07-28T08:24:45.000Z</Time>
            <Position>
              <LatitudeDegrees>41.28896174021065235137939453125</LatitudeDegrees>
              <LongitudeDegrees>-2.82572320662438869476318359375</LongitudeDegrees>
            </Position>
            <AltitudeMeters>1123.199951171875</AltitudeMeters>
            <DistanceMeters>95203.414953696</DistanceMeters>
          </Trackpoint>
          <Trackpoint>
            <Time>2021-07-28T08:24:56.000Z</Time>
            <Position>
              <LatitudeDegrees>41.2891222536563873291015625</LatitudeDegrees>
              <LongitudeDegrees>-2.824972607195377349853515625</LongitudeDegrees>
            </Position>
            <AltitudeMeters>1122</AltitudeMeters>
            <DistanceMeters>95268.681290734</DistanceMeters>
          </Trackpoint>
          <Trackpoint>
            <Time>2021-07-28T08:25:04.000Z</Time>
            <Position>
              <LatitudeDegrees>41.28923398442566394805908203125</LatitudeDegrees>
              <LongitudeDegrees>-2.8244452178478240966796875</LongitudeDegrees>
            </Position>
            <AltitudeMeters>1121</AltitudeMeters>
            <DistanceMeters>95314.507030854</DistanceMeters>
          </Trackpoint>
          <Trackpoint>
            <Time>2021-07-28T08:25:10.000Z</Time>
            <Position>
              <LatitudeDegrees>41.28936105407774448394775390625</LatitudeDegrees>
              <LongitudeDegrees>-2.82405151985585689544677734375</LongitudeDegrees>
            </Position>
            <AltitudeMeters>1119.800048828125</AltitudeMeters>
            <DistanceMeters>95350.341553184</DistanceMeters>
          </Trackpoint>
          <Trackpoint>
            <Time>2021-07-28T08:25:20.000Z</Time>
            <Position>
              <LatitudeDegrees>41.28959675319492816925048828125</LatitudeDegrees>
              <LongitudeDegrees>-2.82340393401682376861572265625</LongitudeDegrees>
            </Position>
            <AltitudeMeters>1119.4000244140625</AltitudeMeters>
            <DistanceMeters>95410.518753485</DistanceMeters>
          </Trackpoint>
          <Trackpoint>
            <Time>2021-07-28T08:25:24.000Z</Time>
            <Position>
              <LatitudeDegrees>41.28968828357756137847900390625</LatitudeDegrees>
              <LongitudeDegrees>-2.82314275391399860382080078125</LongitudeDegrees>
            </Position>
            <AltitudeMeters>1118.5999755859375</AltitudeMeters>
            <DistanceMeters>95434.620345911</DistanceMeters>
          </Trackpoint>
          <Trackpoint>
            <Time>2021-07-28T08:25:34.000Z</Time>
            <Position>
              <LatitudeDegrees>41.28992666490375995635986328125</LatitudeDegrees>
              <LongitudeDegrees>-2.822476141154766082763671875</LongitudeDegrees>
            </Position>
            <AltitudeMeters>1118</AltitudeMeters>
            <DistanceMeters>95496.36095078</DistanceMeters>
          </Trackpoint>
          <Trackpoint>
            <Time>2021-07-28T08:25:36.000Z</Time>
            <Position>
              <LatitudeDegrees>41.289976201951503753662109375</LatitudeDegrees>
              <LongitudeDegrees>-2.8223314695060253143310546875</LongitudeDegrees>
            </Position>
            <AltitudeMeters>1117.5999755859375</AltitudeMeters>
            <DistanceMeters>95509.657222311</DistanceMeters>
          </Trackpoint>
          <Trackpoint>
            <Time>2021-07-28T08:25:40.000Z</Time>
            <Position>
              <LatitudeDegrees>41.29007720388472080230712890625</LatitudeDegrees>
              <LongitudeDegrees>-2.82203324139118194580078125</LongitudeDegrees>
            </Position>
            <AltitudeMeters>1116.5999755859375</AltitudeMeters>
            <DistanceMeters>95537.014520529</DistanceMeters>
          </Trackpoint>
          <Trackpoint>
            <Time>2021-07-28T08:25:44.000Z</Time>
            <Position>
              <LatitudeDegrees>41.2901792116463184356689453125</LatitudeDegrees>
              <LongitudeDegrees>-2.8217306546866893768310546875</LongitudeDegrees>
            </Position>
            <AltitudeMeters>1115.4000244140625</AltitudeMeters>
            <DistanceMeters>95564.750277455</DistanceMeters>
          </Trackpoint>
          <Trackpoint>
            <Time>2021-07-28T08:25:53.000Z</Time>
            <Position>
              <LatitudeDegrees>41.2904139049351215362548828125</LatitudeDegrees>
              <LongitudeDegrees>-2.8210718370974063873291015625</LongitudeDegrees>
            </Position>
            <AltitudeMeters>1115.4000244140625</AltitudeMeters>
            <DistanceMeters>95625.725596188</DistanceMeters>
          </Trackpoint>
          <Trackpoint>
            <Time>2021-07-28T08:26:02.000Z</Time>
            <Position>
              <LatitudeDegrees>41.29062823019921779632568359375</LatitudeDegrees>
              <LongitudeDegrees>-2.82051435671746730804443359375</LongitudeDegrees>
            </Position>
            <AltitudeMeters>1114.800048828125</AltitudeMeters>
            <DistanceMeters>95678.095834948</DistanceMeters>
          </Trackpoint>
          <Trackpoint>
            <Time>2021-07-28T08:26:06.000Z</Time>
            <Position>
              <LatitudeDegrees>41.29076653160154819488525390625</LatitudeDegrees>
              <LongitudeDegrees>-2.82034168951213359832763671875</LongitudeDegrees>
            </Position>
            <AltitudeMeters>1114.800048828125</AltitudeMeters>
            <DistanceMeters>95699.201608352</DistanceMeters>
          </Trackpoint>
          <Trackpoint>
            <Time>2021-07-28T08:26:09.000Z</Time>
            <Position>
              <LatitudeDegrees>41.2908732332289218902587890625</LatitudeDegrees>
              <LongitudeDegrees>-2.82021604478359222412109375</LongitudeDegrees>
            </Position>
            <AltitudeMeters>1115</AltitudeMeters>
            <DistanceMeters>95715.059115682</DistanceMeters>
          </Trackpoint>
          <Trackpoint>
            <Time>2021-07-28T08:26:22.000Z</Time>
            <Position>
              <LatitudeDegrees>41.29115402698516845703125</LatitudeDegrees>
              <LongitudeDegrees>-2.81955345533788204193115234375</LongitudeDegrees>
            </Position>
            <AltitudeMeters>1114.4000244140625</AltitudeMeters>
            <DistanceMeters>95778.676573439</DistanceMeters>
          </Trackpoint>
          <Trackpoint>
            <Time>2021-07-28T08:26:23.000Z</Time>
            <Position>
              <LatitudeDegrees>41.29117506556212902069091796875</LatitudeDegrees>
              <LongitudeDegrees>-2.819498889148235321044921875</LongitudeDegrees>
            </Position>
            <AltitudeMeters>1114.199951171875</AltitudeMeters>
            <DistanceMeters>95783.806255959</DistanceMeters>
          </Trackpoint>
          <Trackpoint>
            <Time>2021-07-28T08:26:35.000Z</Time>
            <Position>
              <LatitudeDegrees>41.29142115823924541473388671875</LatitudeDegrees>
              <LongitudeDegrees>-2.818806879222393035888671875</LongitudeDegrees>
            </Position>
            <AltitudeMeters>1113.199951171875</AltitudeMeters>
            <DistanceMeters>95847.832686464</DistanceMeters>
          </Trackpoint>
          <Trackpoint>
            <Time>2021-07-28T08:26:44.000Z</Time>
            <Position>
              <LatitudeDegrees>41.29153464920818805694580078125</LatitudeDegrees>
              <LongitudeDegrees>-2.8182394243776798248291015625</LongitudeDegrees>
            </Position>
            <AltitudeMeters>1112.199951171875</AltitudeMeters>
            <DistanceMeters>95896.940263833</DistanceMeters>
          </Trackpoint>
          <Trackpoint>
            <Time>2021-07-28T08:26:50.000Z</Time>
            <Position>
              <LatitudeDegrees>41.291617713868618011474609375</LatitudeDegrees>
              <LongitudeDegrees>-2.817821502685546875</LongitudeDegrees>
            </Position>
            <AltitudeMeters>1111</AltitudeMeters>
            <DistanceMeters>95933.092402693</DistanceMeters>
          </Trackpoint>
          <Trackpoint>
            <Time>2021-07-28T08:26:51.000Z</Time>
            <Position>
              <LatitudeDegrees>41.2916400097310543060302734375</LatitudeDegrees>
              <LongitudeDegrees>-2.81775319017469882965087890625</LongitudeDegrees>
            </Position>
            <AltitudeMeters>1111</AltitudeMeters>
            <DistanceMeters>95939.320822108</DistanceMeters>
          </Trackpoint>
          <Trackpoint>
            <Time>2021-07-28T08:26:54.000Z</Time>
            <Position>
              <LatitudeDegrees>41.29174084402620792388916015625</LatitudeDegrees>
              <LongitudeDegrees>-2.81756493262946605682373046875</LongitudeDegrees>
            </Position>
            <AltitudeMeters>1109.800048828125</AltitudeMeters>
            <DistanceMeters>95958.654964046</DistanceMeters>
          </Trackpoint>
          <Trackpoint>
            <Time>2021-07-28T08:26:56.000Z</Time>
            <Position>
              <LatitudeDegrees>41.2918344698846340179443359375</LatitudeDegrees>
              <LongitudeDegrees>-2.81745194457471370697021484375</LongitudeDegrees>
            </Position>
            <AltitudeMeters>1108.5999755859375</AltitudeMeters>
            <DistanceMeters>95972.721485828</DistanceMeters>
          </Trackpoint>
          <Trackpoint>
            <Time>2021-07-28T08:26:58.000Z</Time>
            <Position>
              <LatitudeDegrees>41.29193714819848537445068359375</LatitudeDegrees>
              <LongitudeDegrees>-2.81733535230159759521484375</LongitudeDegrees>
            </Position>
            <AltitudeMeters>1107.4000244140625</AltitudeMeters>
            <DistanceMeters>95987.744124427</DistanceMeters>
          </Trackpoint>
          <Trackpoint>
            <Time>2021-07-28T08:27:01.000Z</Time>
            <Position>
              <LatitudeDegrees>41.29210193641483783721923828125</LatitudeDegrees>
              <LongitudeDegrees>-2.8171455860137939453125</LongitudeDegrees>
            </Position>
            <AltitudeMeters>1106.199951171875</AltitudeMeters>
            <DistanceMeters>96011.998099356</DistanceMeters>
          </Trackpoint>
          <Trackpoint>
            <Time>2021-07-28T08:27:04.000Z</Time>
            <Position>
              <LatitudeDegrees>41.29227795638144016265869140625</LatitudeDegrees>
              <LongitudeDegrees>-2.8169348649680614471435546875</LongitudeDegrees>
            </Position>
            <AltitudeMeters>1104.800048828125</AltitudeMeters>
            <DistanceMeters>96038.348786218</DistanceMeters>
          </Trackpoint>
          <Trackpoint>
            <Time>2021-07-28T08:27:06.000Z</Time>
            <Position>
              <LatitudeDegrees>41.2924041040241718292236328125</LatitudeDegrees>
              <LongitudeDegrees>-2.8167886845767498016357421875</LongitudeDegrees>
            </Position>
            <AltitudeMeters>1103.5999755859375</AltitudeMeters>
            <DistanceMeters>96056.965293246</DistanceMeters>
          </Trackpoint>
          <Trackpoint>
            <Time>2021-07-28T08:27:07.000Z</Time>
            <Position>
              <LatitudeDegrees>41.29247023724019527435302734375</LatitudeDegrees>
              <LongitudeDegrees>-2.81671718694269657135009765625</LongitudeDegrees>
            </Position>
            <AltitudeMeters>1102.4000244140625</AltitudeMeters>
            <DistanceMeters>96066.448940296</DistanceMeters>
          </Trackpoint>
          <Trackpoint>
            <Time>2021-07-28T08:27:09.000Z</Time>
            <Position>
              <LatitudeDegrees>41.2926029227674007415771484375</LatitudeDegrees>
              <LongitudeDegrees>-2.8165729343891143798828125</LongitudeDegrees>
            </Position>
            <AltitudeMeters>1101.199951171875</AltitudeMeters>
            <DistanceMeters>96085.517844781</DistanceMeters>
          </Trackpoint>
          <Trackpoint>
            <Time>2021-07-28T08:27:17.000Z</Time>
            <Position>
              <LatitudeDegrees>41.2930485047399997711181640625</LatitudeDegrees>
              <LongitudeDegrees>-2.816028110682964324951171875</LongitudeDegrees>
            </Position>
            <AltitudeMeters>1102.4000244140625</AltitudeMeters>
            <DistanceMeters>96152.863432124</DistanceMeters>
          </Trackpoint>
          <Trackpoint>
            <Time>2021-07-28T08:27:22.000Z</Time>
            <Position>
              <LatitudeDegrees>41.29325998015701770782470703125</LatitudeDegrees>
              <LongitudeDegrees>-2.8157654218375682830810546875</LongitudeDegrees>
            </Position>
            <AltitudeMeters>1103.5999755859375</AltitudeMeters>
            <DistanceMeters>96185.059683386</DistanceMeters>
          </Trackpoint>
          <Trackpoint>
            <Time>2021-07-28T08:27:23.000Z</Time>
            <Position>
              <LatitudeDegrees>41.29329887218773365020751953125</LatitudeDegrees>
              <LongitudeDegrees>-2.81572829000651836395263671875</LongitudeDegrees>
            </Position>
            <AltitudeMeters>1104</AltitudeMeters>
            <DistanceMeters>96190.386267675</DistanceMeters>
          </Trackpoint>
          <Trackpoint>
            <Time>2021-07-28T08:27:25.000Z</Time>
            <Position>
              <LatitudeDegrees>41.29338503815233707427978515625</LatitudeDegrees>
              <LongitudeDegrees>-2.81570549122989177703857421875</LongitudeDegrees>
            </Position>
            <AltitudeMeters>1104.800048828125</AltitudeMeters>
            <DistanceMeters>96200.163865504</DistanceMeters>
          </Trackpoint>
          <Trackpoint>
            <Time>2021-07-28T08:27:29.000Z</Time>
            <Position>
              <LatitudeDegrees>41.2935081683099269866943359375</LatitudeDegrees>
              <LongitudeDegrees>-2.815865166485309600830078125</LongitudeDegrees>
            </Position>
            <AltitudeMeters>1105</AltitudeMeters>
            <DistanceMeters>96219.298008269</DistanceMeters>
          </Trackpoint>
          <Trackpoint>
            <Time>2021-07-28T08:27:41.000Z</Time>
            <Position>
              <LatitudeDegrees>41.29383648745715618133544921875</LatitudeDegrees>
              <LongitudeDegrees>-2.81644091941416263580322265625</LongitudeDegrees>
            </Position>
            <AltitudeMeters>1105.199951171875</AltitudeMeters>
            <DistanceMeters>96279.742543498</DistanceMeters>
          </Trackpoint>
          <Trackpoint>
            <Time>2021-07-28T08:27:47.000Z</Time>
            <Position>
              <LatitudeDegrees>41.2940114177763462066650390625</LatitudeDegrees>
              <LongitudeDegrees>-2.81664728187024593353271484375</LongitudeDegrees>
            </Position>
            <AltitudeMeters>1105.800048828125</AltitudeMeters>
            <DistanceMeters>96305.759393232</DistanceMeters>
          </Trackpoint>
          <Trackpoint>
            <Time>2021-07-28T08:27:53.000Z</Time>
            <Position>
              <LatitudeDegrees>41.2941689975559711456298828125</LatitudeDegrees>
              <LongitudeDegrees>-2.816801257431507110595703125</LongitudeDegrees>
            </Position>
            <AltitudeMeters>1107</AltitudeMeters>
            <DistanceMeters>96327.517398372</DistanceMeters>
          </Trackpoint>
          <Trackpoint>
            <Time>2021-07-28T08:28:02.000Z</Time>
            <Position>
              <LatitudeDegrees>41.29441089928150177001953125</LatitudeDegrees>
              <LongitudeDegrees>-2.81699362210929393768310546875</LongitudeDegrees>
            </Position>
            <AltitudeMeters>1108</AltitudeMeters>
            <DistanceMeters>96358.881109047</DistanceMeters>
          </Trackpoint>
          <Trackpoint>
            <Time>2021-07-28T08:28:12.000Z</Time>
            <Position>
              <LatitudeDegrees>41.29468314349651336669921875</LatitudeDegrees>
              <LongitudeDegrees>-2.81720115803182125091552734375</LongitudeDegrees>
            </Position>
            <AltitudeMeters>1109.199951171875</AltitudeMeters>
            <DistanceMeters>96393.800549801</DistanceMeters>
          </Trackpoint>
          <Trackpoint>
            <Time>2021-07-28T08:28:17.000Z</Time>
            <Position>
              <LatitudeDegrees>41.29481515847146511077880859375</LatitudeDegrees>
              <LongitudeDegrees>-2.81730274669826030731201171875</LongitudeDegrees>
            </Position>
            <AltitudeMeters>1110.199951171875</AltitudeMeters>
            <DistanceMeters>96410.772863684</DistanceMeters>
          </Trackpoint>
          <Trackpoint>
            <Time>2021-07-28T08:28:26.000Z</Time>
            <Position>
              <LatitudeDegrees>41.29504792392253875732421875</LatitudeDegrees>
              <LongitudeDegrees>-2.81747558154165744781494140625</LongitudeDegrees>
            </Position>
            <AltitudeMeters>1111.5999755859375</AltitudeMeters>
            <DistanceMeters>96440.439010726</DistanceMeters>
          </Trackpoint>
          <Trackpoint>
            <Time>2021-07-28T08:28:33.000Z</Time>
            <Position>
              <LatitudeDegrees>41.295242048799991607666015625</LatitudeDegrees>
              <LongitudeDegrees>-2.81761832535266876220703125</LongitudeDegrees>
            </Position>
            <AltitudeMeters>1112.5999755859375</AltitudeMeters>
            <DistanceMeters>96465.123468756</DistanceMeters>
          </Trackpoint>
          <Trackpoint>
            <Time>2021-07-28T08:28:39.000Z</Time>
            <Position>
              <LatitudeDegrees>41.295477412641048431396484375</LatitudeDegrees>
              <LongitudeDegrees>-2.81779191456735134124755859375</LongitudeDegrees>
            </Position>
            <AltitudeMeters>1111.199951171875</AltitudeMeters>
            <DistanceMeters>96495.073018891</DistanceMeters>
          </Trackpoint>
          <Trackpoint>
            <Time>2021-07-28T08:28:42.000Z</Time>
            <Position>
              <LatitudeDegrees>41.29563130438327789306640625</LatitudeDegrees>
              <LongitudeDegrees>-2.81789283268153667449951171875</LongitudeDegrees>
            </Position>
            <AltitudeMeters>1110</AltitudeMeters>
            <DistanceMeters>96514.167477944</DistanceMeters>
          </Trackpoint>
          <Trackpoint>
            <Time>2021-07-28T08:28:45.000Z</Time>
            <Position>
              <LatitudeDegrees>41.29580372013151645660400390625</LatitudeDegrees>
              <LongitudeDegrees>-2.8179946728050708770751953125</LongitudeDegrees>
            </Position>
            <AltitudeMeters>1108.800048828125</AltitudeMeters>
            <DistanceMeters>96535.162146109</DistanceMeters>
          </Trackpoint>
          <Trackpoint>
            <Time>2021-07-28T08:28:54.000Z</Time>
            <Position>
              <LatitudeDegrees>41.29632063210010528564453125</LatitudeDegrees>
              <LongitudeDegrees>-2.81826649792492389678955078125</LongitudeDegrees>
            </Position>
            <AltitudeMeters>1108.199951171875</AltitudeMeters>
            <DistanceMeters>96597.023004456</DistanceMeters>
          </Trackpoint>
          <Trackpoint>
            <Time>2021-07-28T08:29:06.000Z</Time>
            <Position>
              <LatitudeDegrees>41.29685782827436923980712890625</LatitudeDegrees>
              <LongitudeDegrees>-2.81851996667683124542236328125</LongitudeDegrees>
            </Position>
            <AltitudeMeters>1109.4000244140625</AltitudeMeters>
            <DistanceMeters>96660.459582129</DistanceMeters>
          </Trackpoint>
          <Trackpoint>
            <Time>2021-07-28T08:29:12.000Z</Time>
            <Position>
              <LatitudeDegrees>41.29708045162260532379150390625</LatitudeDegrees>
              <LongitudeDegrees>-2.81863446347415447235107421875</LongitudeDegrees>
            </Position>
            <AltitudeMeters>1109.800048828125</AltitudeMeters>
            <DistanceMeters>96687.02341588</DistanceMeters>
          </Trackpoint>
          <Trackpoint>
            <Time>2021-07-28T08:29:27.000Z</Time>
            <Position>
              <LatitudeDegrees>41.2976253591477870941162109375</LatitudeDegrees>
              <LongitudeDegrees>-2.8188754431903362274169921875</LongitudeDegrees>
            </Position>
            <AltitudeMeters>1110.199951171875</AltitudeMeters>
            <DistanceMeters>96750.932678718</DistanceMeters>
          </Trackpoint>
          <Trackpoint>
            <Time>2021-07-28T08:29:33.000Z</Time>
            <Position>
              <LatitudeDegrees>41.29784219898283481597900390625</LatitudeDegrees>
              <LongitudeDegrees>-2.81892917118966579437255859375</LongitudeDegrees>
            </Position>
            <AltitudeMeters>1111</AltitudeMeters>
            <DistanceMeters>96775.481961841</DistanceMeters>
          </Trackpoint>
          <Trackpoint>
            <Time>2021-07-28T08:29:39.000Z</Time>
            <Position>
              <LatitudeDegrees>41.2980216555297374725341796875</LatitudeDegrees>
              <LongitudeDegrees>-2.81893235631287097930908203125</LongitudeDegrees>
            </Position>
            <AltitudeMeters>1112</AltitudeMeters>
            <DistanceMeters>96795.457472295</DistanceMeters>
          </Trackpoint>
          <Trackpoint>
            <Time>2021-07-28T08:29:47.000Z</Time>
            <Position>
              <LatitudeDegrees>41.29821687005460262298583984375</LatitudeDegrees>
              <LongitudeDegrees>-2.8189253993332386016845703125</LongitudeDegrees>
            </Position>
            <AltitudeMeters>1113</AltitudeMeters>
            <DistanceMeters>96817.193054629</DistanceMeters>
          </Trackpoint>
          <Trackpoint>
            <Time>2021-07-28T08:29:55.000Z</Time>
            <Position>
              <LatitudeDegrees>41.2984021939337253570556640625</LatitudeDegrees>
              <LongitudeDegrees>-2.818905450403690338134765625</LongitudeDegrees>
            </Position>
            <AltitudeMeters>1114.199951171875</AltitudeMeters>
            <DistanceMeters>96837.887071766</DistanceMeters>
          </Trackpoint>
          <Trackpoint>
            <Time>2021-07-28T08:30:04.000Z</Time>
            <Position>
              <LatitudeDegrees>41.29858500324189662933349609375</LatitudeDegrees>
              <LongitudeDegrees>-2.81887737102806568145751953125</LongitudeDegrees>
            </Position>
            <AltitudeMeters>1115.4000244140625</AltitudeMeters>
            <DistanceMeters>96858.369241852</DistanceMeters>
          </Trackpoint>
          <Trackpoint>
            <Time>2021-07-28T08:30:11.000Z</Time>
            <Position>
              <LatitudeDegrees>41.29870955832302570343017578125</LatitudeDegrees>
              <LongitudeDegrees>-2.81881484203040599822998046875</LongitudeDegrees>
            </Position>
            <AltitudeMeters>1116.5999755859375</AltitudeMeters>
            <DistanceMeters>96873.185793018</DistanceMeters>
          </Trackpoint>
          <Trackpoint>
            <Time>2021-07-28T08:30:18.000Z</Time>
            <Position>
              <LatitudeDegrees>41.29881449975073337554931640625</LatitudeDegrees>
              <LongitudeDegrees>-2.81870738603174686431884765625</LongitudeDegrees>
            </Position>
            <AltitudeMeters>1117.4000244140625</AltitudeMeters>
            <DistanceMeters>96887.922288815</DistanceMeters>
          </Trackpoint>
          <Trackpoint>
            <Time>2021-07-28T08:30:20.000Z</Time>
            <Position>
              <LatitudeDegrees>41.2988380528986454010009765625</LatitudeDegrees>
              <LongitudeDegrees>-2.8186705894768238067626953125</LongitudeDegrees>
            </Position>
            <AltitudeMeters>1117.800048828125</AltitudeMeters>
            <DistanceMeters>96891.963997401</DistanceMeters>
          </Trackpoint>
          <Trackpoint>
            <Time>2021-07-28T08:30:27.000Z</Time>
            <Position>
              <LatitudeDegrees>41.29890737123787403106689453125</LatitudeDegrees>
              <LongitudeDegrees>-2.818534635007381439208984375</LongitudeDegrees>
            </Position>
            <AltitudeMeters>1119</AltitudeMeters>
            <DistanceMeters>96905.703164696</DistanceMeters>
          </Trackpoint>
          <Trackpoint>
            <Time>2021-07-28T08:30:34.000Z</Time>
            <Position>
              <LatitudeDegrees>41.29898406565189361572265625</LatitudeDegrees>
              <LongitudeDegrees>-2.81838837079703807830810546875</LongitudeDegrees>
            </Position>
            <AltitudeMeters>1120</AltitudeMeters>
            <DistanceMeters>96920.617818669</DistanceMeters>
          </Trackpoint>
          <Trackpoint>
            <Time>2021-07-28T08:30:46.000Z</Time>
            <Position>
              <LatitudeDegrees>41.29909998737275600433349609375</LatitudeDegrees>
              <LongitudeDegrees>-2.81813909299671649932861328125</LongitudeDegrees>
            </Position>
            <AltitudeMeters>1121.199951171875</AltitudeMeters>
            <DistanceMeters>96945.132132597</DistanceMeters>
          </Trackpoint>
          <Trackpoint>
            <Time>2021-07-28T08:30:57.000Z</Time>
            <Position>
              <LatitudeDegrees>41.29920090548694133758544921875</LatitudeDegrees>
              <LongitudeDegrees>-2.8179115243256092071533203125</LongitudeDegrees>
            </Position>
            <AltitudeMeters>1122.4000244140625</AltitudeMeters>
            <DistanceMeters>96967.228653439</DistanceMeters>
          </Trackpoint>
          <Trackpoint>
            <Time>2021-07-28T08:31:10.000Z</Time>
            <Position>
              <LatitudeDegrees>41.29925354383885860443115234375</LatitudeDegrees>
              <LongitudeDegrees>-2.81760851852595806121826171875</LongitudeDegrees>
            </Position>
            <AltitudeMeters>1123.4000244140625</AltitudeMeters>
            <DistanceMeters>96993.234046823</DistanceMeters>
          </Trackpoint>
          <Trackpoint>
            <Time>2021-07-28T08:31:19.000Z</Time>
            <Position>
              <LatitudeDegrees>41.29924348555505275726318359375</LatitudeDegrees>
              <LongitudeDegrees>-2.81740232370793819427490234375</LongitudeDegrees>
            </Position>
            <AltitudeMeters>1124.4000244140625</AltitudeMeters>
            <DistanceMeters>97010.511931449</DistanceMeters>
          </Trackpoint>
          <Trackpoint>
            <Time>2021-07-28T08:31:26.000Z</Time>
            <Position>
              <LatitudeDegrees>41.2992259673774242401123046875</LatitudeDegrees>
              <LongitudeDegrees>-2.817241139709949493408203125</LongitudeDegrees>
            </Position>
            <AltitudeMeters>1125.4000244140625</AltitudeMeters>
            <DistanceMeters>97024.130290748</DistanceMeters>
          </Trackpoint>
          <Trackpoint>
            <Time>2021-07-28T08:31:33.000Z</Time>
            <Position>
              <LatitudeDegrees>41.2992162443697452545166015625</LatitudeDegrees>
              <LongitudeDegrees>-2.81707459129393100738525390625</LongitudeDegrees>
            </Position>
            <AltitudeMeters>1126.5999755859375</AltitudeMeters>
            <DistanceMeters>97038.098894537</DistanceMeters>
          </Trackpoint>
          <Trackpoint>
            <Time>2021-07-28T08:31:40.000Z</Time>
            <Position>
              <LatitudeDegrees>41.29921146668493747711181640625</LatitudeDegrees>
              <LongitudeDegrees>-2.81691558659076690673828125</LongitudeDegrees>
            </Position>
            <AltitudeMeters>1127.800048828125</AltitudeMeters>
            <DistanceMeters>97051.405010004</DistanceMeters>
          </Trackpoint>
          <Trackpoint>
            <Time>2021-07-28T08:31:46.000Z</Time>
            <Position>
              <LatitudeDegrees>41.29922814667224884033203125</LatitudeDegrees>
              <LongitudeDegrees>-2.81677837483584880828857421875</LongitudeDegrees>
            </Position>
            <AltitudeMeters>1129</AltitudeMeters>
            <DistanceMeters>97063.027829955</DistanceMeters>
          </Trackpoint>
          <Trackpoint>
            <Time>2021-07-28T08:31:54.000Z</Time>
            <Position>
              <LatitudeDegrees>41.29928740672767162322998046875</LatitudeDegrees>
              <LongitudeDegrees>-2.81660654582083225250244140625</LongitudeDegrees>
            </Position>
            <AltitudeMeters>1130</AltitudeMeters>
            <DistanceMeters>97078.837431022</DistanceMeters>
          </Trackpoint>
          <Trackpoint>
            <Time>2021-07-28T08:32:12.000Z</Time>
            <Position>
              <LatitudeDegrees>41.299453787505626678466796875</LatitudeDegrees>
              <LongitudeDegrees>-2.81620002351701259613037109375</LongitudeDegrees>
            </Position>
            <AltitudeMeters>1131.199951171875</AltitudeMeters>
            <DistanceMeters>97117.546910415</DistanceMeters>
          </Trackpoint>
          <Trackpoint>
            <Time>2021-07-28T08:32:22.000Z</Time>
            <Position>
              <LatitudeDegrees>41.29946946166455745697021484375</LatitudeDegrees>
              <LongitudeDegrees>-2.81595443375408649444580078125</LongitudeDegrees>
            </Position>
            <AltitudeMeters>1132.199951171875</AltitudeMeters>
            <DistanceMeters>97138.156537674</DistanceMeters>
          </Trackpoint>
          <Trackpoint>
            <Time>2021-07-28T08:32:37.000Z</Time>
            <Position>
              <LatitudeDegrees>41.299503743648529052734375</LatitudeDegrees>
              <LongitudeDegrees>-2.81559753231704235076904296875</LongitudeDegrees>
            </Position>
            <AltitudeMeters>1133.4000244140625</AltitudeMeters>
            <DistanceMeters>97168.242811834</DistanceMeters>
          </Trackpoint>
          <Trackpoint>
            <Time>2021-07-28T08:32:53.000Z</Time>
            <Position>
              <LatitudeDegrees>41.29953048191964626312255859375</LatitudeDegrees>
              <LongitudeDegrees>-2.81520341522991657257080078125</LongitudeDegrees>
            </Position>
            <AltitudeMeters>1134.4000244140625</AltitudeMeters>
            <DistanceMeters>97201.332172645</DistanceMeters>
          </Trackpoint>
          <Trackpoint>
            <Time>2021-07-28T08:33:00.000Z</Time>
            <Position>
              <LatitudeDegrees>41.29954942502081394195556640625</LatitudeDegrees>
              <LongitudeDegrees>-2.81503695063292980194091796875</LongitudeDegrees>
            </Position>
            <AltitudeMeters>1135.5999755859375</AltitudeMeters>
            <DistanceMeters>97215.410244878</DistanceMeters>
          </Trackpoint>
          <Trackpoint>
            <Time>2021-07-28T08:33:11.000Z</Time>
            <Position>
              <LatitudeDegrees>41.29958664067089557647705078125</LatitudeDegrees>
              <LongitudeDegrees>-2.81478867866098880767822265625</LongitudeDegrees>
            </Position>
            <AltitudeMeters>1136.5999755859375</AltitudeMeters>
            <DistanceMeters>97236.579245176</DistanceMeters>
          </Trackpoint>
          <Trackpoint>
            <Time>2021-07-28T08:33:16.000Z</Time>
            <Position>
              <LatitudeDegrees>41.29961363039910793304443359375</LatitudeDegrees>
              <LongitudeDegrees>-2.8146881796419620513916015625</LongitudeDegrees>
            </Position>
            <AltitudeMeters>1137.800048828125</AltitudeMeters>
            <DistanceMeters>97245.503159349</DistanceMeters>
          </Trackpoint>
          <Trackpoint>
            <Time>2021-07-28T08:33:23.000Z</Time>
            <Position>
              <LatitudeDegrees>41.29965034313499927520751953125</LatitudeDegrees>
              <LongitudeDegrees>-2.8145456872880458831787109375</LongitudeDegrees>
            </Position>
            <AltitudeMeters>1139</AltitudeMeters>
            <DistanceMeters>97258.099128669</DistanceMeters>
          </Trackpoint>
          <Trackpoint>
            <Time>2021-07-28T08:33:30.000Z</Time>
            <Position>
              <LatitudeDegrees>41.29969728179275989532470703125</LatitudeDegrees>
              <LongitudeDegrees>-2.814405374228954315185546875</LongitudeDegrees>
            </Position>
            <AltitudeMeters>1140</AltitudeMeters>
            <DistanceMeters>97270.942156985</DistanceMeters>
          </Trackpoint>
          <Trackpoint>
            <Time>2021-07-28T08:33:38.000Z</Time>
            <Position>
              <LatitudeDegrees>41.29975981079041957855224609375</LatitudeDegrees>
              <LongitudeDegrees>-2.81425642780959606170654296875</LongitudeDegrees>
            </Position>
            <AltitudeMeters>1141.199951171875</AltitudeMeters>
            <DistanceMeters>97285.209461678</DistanceMeters>
          </Trackpoint>
          <Trackpoint>
            <Time>2021-07-28T08:33:45.000Z</Time>
            <Position>
              <LatitudeDegrees>41.2998113594949245452880859375</LatitudeDegrees>
              <LongitudeDegrees>-2.8141249157488346099853515625</LongitudeDegrees>
            </Position>
            <AltitudeMeters>1142.4000244140625</AltitudeMeters>
            <DistanceMeters>97297.612541227</DistanceMeters>
          </Trackpoint>
          <Trackpoint>
            <Time>2021-07-28T08:33:52.000Z</Time>
            <Position>
              <LatitudeDegrees>41.299861483275890350341796875</LatitudeDegrees>
              <LongitudeDegrees>-2.8139881230890750885009765625</LongitudeDegrees>
            </Position>
            <AltitudeMeters>1143.4000244140625</AltitudeMeters>
            <DistanceMeters>97310.339027431</DistanceMeters>
          </Trackpoint>
          <Trackpoint>
            <Time>2021-07-28T08:34:00.000Z</Time>
            <Position>
              <LatitudeDegrees>41.299911439418792724609375</LatitudeDegrees>
              <LongitudeDegrees>-2.81383917666971683502197265625</LongitudeDegrees>
            </Position>
            <AltitudeMeters>1144.4000244140625</AltitudeMeters>
            <DistanceMeters>97323.97858882</DistanceMeters>
          </Trackpoint>
          <Trackpoint>
            <Time>2021-07-28T08:34:08.000Z</Time>
            <Position>
              <LatitudeDegrees>41.29995829425752162933349609375</LatitudeDegrees>
              <LongitudeDegrees>-2.81369182281196117401123046875</LongitudeDegrees>
            </Position>
            <AltitudeMeters>1145.4000244140625</AltitudeMeters>
            <DistanceMeters>97337.358134232</DistanceMeters>
          </Trackpoint>
          <Trackpoint>
            <Time>2021-07-28T08:34:16.000Z</Time>
            <Position>
              <LatitudeDegrees>41.30001512356102466583251953125</LatitudeDegrees>
              <LongitudeDegrees>-2.8135475702583789825439453125</LongitudeDegrees>
            </Position>
            <AltitudeMeters>1146.4000244140625</AltitudeMeters>
            <DistanceMeters>97350.978151133</DistanceMeters>
          </Trackpoint>
          <Trackpoint>
            <Time>2021-07-28T08:34:24.000Z</Time>
            <Position>
              <LatitudeDegrees>41.30009525455534458160400390625</LatitudeDegrees>
              <LongitudeDegrees>-2.8134240210056304931640625</LongitudeDegrees>
            </Position>
            <AltitudeMeters>1147.5999755859375</AltitudeMeters>
            <DistanceMeters>97364.626316464</DistanceMeters>
          </Trackpoint>
          <Trackpoint>
            <Time>2021-07-28T08:34:37.000Z</Time>
            <Position>
              <LatitudeDegrees>41.30028837360441684722900390625</LatitudeDegrees>
              <LongitudeDegrees>-2.81336124055087566375732421875</LongitudeDegrees>
            </Position>
            <AltitudeMeters>1148.5999755859375</AltitudeMeters>
            <DistanceMeters>97386.752649745</DistanceMeters>
          </Trackpoint>
          <Trackpoint>
            <Time>2021-07-28T08:34:49.000Z</Time>
            <Position>
              <LatitudeDegrees>41.30048350431025028228759765625</LatitudeDegrees>
              <LongitudeDegrees>-2.8134355880320072174072265625</LongitudeDegrees>
            </Position>
            <AltitudeMeters>1149.5999755859375</AltitudeMeters>
            <DistanceMeters>97409.343439911</DistanceMeters>
          </Trackpoint>
          <Trackpoint>
            <Time>2021-07-28T08:34:58.000Z</Time>
            <Position>
              <LatitudeDegrees>41.30062834359705448150634765625</LatitudeDegrees>
              <LongitudeDegrees>-2.8135180659592151641845703125</LongitudeDegrees>
            </Position>
            <AltitudeMeters>1150.800048828125</AltitudeMeters>
            <DistanceMeters>97426.877864417</DistanceMeters>
          </Trackpoint>
          <Trackpoint>
            <Time>2021-07-28T08:35:05.000Z</Time>
            <Position>
              <LatitudeDegrees>41.3007528148591518402099609375</LatitudeDegrees>
              <LongitudeDegrees>-2.81358319334685802459716796875</LongitudeDegrees>
            </Position>
            <AltitudeMeters>1151.199951171875</AltitudeMeters>
            <DistanceMeters>97441.763731737</DistanceMeters>
          </Trackpoint>
          <Trackpoint>
            <Time>2021-07-28T08:35:14.000Z</Time>
            <Position>
              <LatitudeDegrees>41.30092774517834186553955078125</LatitudeDegrees>
              <LongitudeDegrees>-2.81368243508040904998779296875</LongitudeDegrees>
            </Position>
            <AltitudeMeters>1151.800048828125</AltitudeMeters>
            <DistanceMeters>97462.928465897</DistanceMeters>
          </Trackpoint>
          <Trackpoint>
            <Time>2021-07-28T08:35:34.000Z</Time>
            <Position>
              <LatitudeDegrees>41.30138522945344448089599609375</LatitudeDegrees>
              <LongitudeDegrees>-2.81393221579492092132568359375</LongitudeDegrees>
            </Position>
            <AltitudeMeters>1152.800048828125</AltitudeMeters>
            <DistanceMeters>97517.964276797</DistanceMeters>
          </Trackpoint>
          <Trackpoint>
            <Time>2021-07-28T08:35:52.000Z</Time>
            <Position>
              <LatitudeDegrees>41.30184464156627655029296875</LatitudeDegrees>
              <LongitudeDegrees>-2.814168669283390045166015625</LongitudeDegrees>
            </Position>
            <AltitudeMeters>1153.800048828125</AltitudeMeters>
            <DistanceMeters>97572.786949965</DistanceMeters>
          </Trackpoint>
          <Trackpoint>
            <Time>2021-07-28T08:36:11.000Z</Time>
            <Position>
              <LatitudeDegrees>41.302400194108486175537109375</LatitudeDegrees>
              <LongitudeDegrees>-2.8143398277461528778076171875</LongitudeDegrees>
            </Position>
            <AltitudeMeters>1154</AltitudeMeters>
            <DistanceMeters>97636.255547879</DistanceMeters>
          </Trackpoint>
          <Trackpoint>
            <Time>2021-07-28T08:36:23.000Z</Time>
            <Position>
              <LatitudeDegrees>41.30286329425871372222900390625</LatitudeDegrees>
              <LongitudeDegrees>-2.8143968246877193450927734375</LongitudeDegrees>
            </Position>
            <AltitudeMeters>1153</AltitudeMeters>
            <DistanceMeters>97688.019382583</DistanceMeters>
          </Trackpoint>
          <Trackpoint>
            <Time>2021-07-28T08:36:26.000Z</Time>
            <Position>
              <LatitudeDegrees>41.30300360731780529022216796875</LatitudeDegrees>
              <LongitudeDegrees>-2.81440378166735172271728515625</LongitudeDegrees>
            </Position>
            <AltitudeMeters>1151.5999755859375</AltitudeMeters>
            <DistanceMeters>97703.647160656</DistanceMeters>
          </Trackpoint>
          <Trackpoint>
            <Time>2021-07-28T08:36:30.000Z</Time>
            <Position>
              <LatitudeDegrees>41.30320661701261997222900390625</LatitudeDegrees>
              <LongitudeDegrees>-2.81442523933947086334228515625</LongitudeDegrees>
            </Position>
            <AltitudeMeters>1150.4000244140625</AltitudeMeters>
            <DistanceMeters>97726.313771108</DistanceMeters>
          </Trackpoint>
          <Trackpoint>
            <Time>2021-07-28T08:36:34.000Z</Time>
            <Position>
              <LatitudeDegrees>41.303430162370204925537109375</LatitudeDegrees>
              <LongitudeDegrees>-2.81445155851542949676513671875</LongitudeDegrees>
            </Position>
            <AltitudeMeters>1149.800048828125</AltitudeMeters>
            <DistanceMeters>97751.291882359</DistanceMeters>
          </Trackpoint>
          <Trackpoint>
            <Time>2021-07-28T08:36:35.000Z</Time>
            <Position>
              <LatitudeDegrees>41.30349260754883289337158203125</LatitudeDegrees>
              <LongitudeDegrees>-2.81445256434381008148193359375</LongitudeDegrees>
            </Position>
            <AltitudeMeters>1149.199951171875</AltitudeMeters>
            <DistanceMeters>97758.243786352</DistanceMeters>
          </Trackpoint>
          <Trackpoint>
            <Time>2021-07-28T08:36:37.000Z</Time>
            <Position>
              <LatitudeDegrees>41.30363090895116329193115234375</LatitudeDegrees>
              <LongitudeDegrees>-2.814461030066013336181640625</LongitudeDegrees>
            </Position>
            <AltitudeMeters>1147.800048828125</AltitudeMeters>
            <DistanceMeters>97773.653357733</DistanceMeters>
          </Trackpoint>
          <Trackpoint>
            <Time>2021-07-28T08:36:39.000Z</Time>
            <Position>
              <LatitudeDegrees>41.3037832081317901611328125</LatitudeDegrees>
              <LongitudeDegrees>-2.81447343528270721435546875</LongitudeDegrees>
            </Position>
            <AltitudeMeters>1146.800048828125</AltitudeMeters>
            <DistanceMeters>97790.636309232</DistanceMeters>
          </Trackpoint>
          <Trackpoint>
            <Time>2021-07-28T08:36:41.000Z</Time>
            <Position>
              <LatitudeDegrees>41.30394757725298404693603515625</LatitudeDegrees>
              <LongitudeDegrees>-2.81449128873646259307861328125</LongitudeDegrees>
            </Position>
            <AltitudeMeters>1145</AltitudeMeters>
            <DistanceMeters>97808.991476138</DistanceMeters>
          </Trackpoint>
          <Trackpoint>
            <Time>2021-07-28T08:36:43.000Z</Time>
            <Position>
              <LatitudeDegrees>41.3041193224489688873291015625</LatitudeDegrees>
              <LongitudeDegrees>-2.81450771726667881011962890625</LongitudeDegrees>
            </Position>
            <AltitudeMeters>1143.4000244140625</AltitudeMeters>
            <DistanceMeters>97828.156270144</DistanceMeters>
          </Trackpoint>
          <Trackpoint>
            <Time>2021-07-28T08:36:46.000Z</Time>
            <Position>
              <LatitudeDegrees>41.30438393913209438323974609375</LatitudeDegrees>
              <LongitudeDegrees>-2.81453101895749568939208984375</LongitudeDegrees>
            </Position>
            <AltitudeMeters>1142</AltitudeMeters>
            <DistanceMeters>97857.672889282</DistanceMeters>
          </Trackpoint>
          <Trackpoint>
            <Time>2021-07-28T08:36:53.000Z</Time>
            <Position>
              <LatitudeDegrees>41.30494636483490467071533203125</LatitudeDegrees>
              <LongitudeDegrees>-2.8145854175090789794921875</LongitudeDegrees>
            </Position>
            <AltitudeMeters>1142.4000244140625</AltitudeMeters>
            <DistanceMeters>97920.437009036</DistanceMeters>
          </Trackpoint>
          <Trackpoint>
            <Time>2021-07-28T08:36:56.000Z</Time>
            <Position>
              <LatitudeDegrees>41.3051362149417400360107421875</LatitudeDegrees>
              <LongitudeDegrees>-2.8145986609160900115966796875</LongitudeDegrees>
            </Position>
            <AltitudeMeters>1143.199951171875</AltitudeMeters>
            <DistanceMeters>97941.596622696</DistanceMeters>
          </Trackpoint>
          <Trackpoint>
            <Time>2021-07-28T08:37:06.000Z</Time>
            <Position>
              <LatitudeDegrees>41.3056123070418834686279296875</LatitudeDegrees>
              <LongitudeDegrees>-2.8146368823945522308349609375</LongitudeDegrees>
            </Position>
            <AltitudeMeters>1144.199951171875</AltitudeMeters>
            <DistanceMeters>97994.682886522</DistanceMeters>
          </Trackpoint>
          <Trackpoint>
            <Time>2021-07-28T08:37:08.000Z</Time>
            <Position>
              <LatitudeDegrees>41.3057031668722629547119140625</LatitudeDegrees>
              <LongitudeDegrees>-2.814652808010578155517578125</LongitudeDegrees>
            </Position>
            <AltitudeMeters>1143.800048828125</AltitudeMeters>
            <DistanceMeters>98004.882666457</DistanceMeters>
          </Trackpoint>
          <Trackpoint>
            <Time>2021-07-28T08:37:12.000Z</Time>
            <Position>
              <LatitudeDegrees>41.30593325011432170867919921875</LatitudeDegrees>
              <LongitudeDegrees>-2.81466026790440082550048828125</LongitudeDegrees>
            </Position>
            <AltitudeMeters>1141.800048828125</AltitudeMeters>
            <DistanceMeters>98030.498844254</DistanceMeters>
          </Trackpoint>
          <Trackpoint>
            <Time>2021-07-28T08:37:14.000Z</Time>
            <Position>
              <LatitudeDegrees>41.30607314407825469970703125</LatitudeDegrees>
              <LongitudeDegrees>-2.81467133201658725738525390625</LongitudeDegrees>
            </Position>
            <AltitudeMeters>1140</AltitudeMeters>
            <DistanceMeters>98046.09712556</DistanceMeters>
          </Trackpoint>
          <Trackpoint>
            <Time>2021-07-28T08:37:15.000Z</Time>
            <Position>
              <LatitudeDegrees>41.30614832974970340728759765625</LatitudeDegrees>
              <LongitudeDegrees>-2.8146781213581562042236328125</LongitudeDegrees>
            </Position>
            <AltitudeMeters>1139</AltitudeMeters>
            <DistanceMeters>98054.485352766</DistanceMeters>
          </Trackpoint>
          <Trackpoint>
            <Time>2021-07-28T08:37:17.000Z</Time>
            <Position>
              <LatitudeDegrees>41.30630741827189922332763671875</LatitudeDegrees>
              <LongitudeDegrees>-2.8146932087838649749755859375</LongitudeDegrees>
            </Position>
            <AltitudeMeters>1137.800048828125</AltitudeMeters>
            <DistanceMeters>98072.236790668</DistanceMeters>
          </Trackpoint>
          <Trackpoint>
            <Time>2021-07-28T08:37:19.000Z</Time>
            <Position>
              <LatitudeDegrees>41.30647203885018825531005859375</LatitudeDegrees>
              <LongitudeDegrees>-2.81471542082726955413818359375</LongitudeDegrees>
            </Position>
            <AltitudeMeters>1136.199951171875</AltitudeMeters>
            <DistanceMeters>98090.653105206</DistanceMeters>
          </Trackpoint>
          <Trackpoint>
            <Time>2021-07-28T08:37:20.000Z</Time>
            <Position>
              <LatitudeDegrees>41.3065547682344913482666015625</LatitudeDegrees>
              <LongitudeDegrees>-2.814738638699054718017578125</LongitudeDegrees>
            </Position>
            <AltitudeMeters>1135.5999755859375</AltitudeMeters>
            <DistanceMeters>98100.063629085</DistanceMeters>
          </Trackpoint>
          <Trackpoint>
            <Time>2021-07-28T08:37:21.000Z</Time>
            <Position>
              <LatitudeDegrees>41.30663582123816013336181640625</LatitudeDegrees>
              <LongitudeDegrees>-2.8147750161588191986083984375</LongitudeDegrees>
            </Position>
            <AltitudeMeters>1135</AltitudeMeters>
            <DistanceMeters>98109.583864233</DistanceMeters>
          </Trackpoint>
          <Trackpoint>
            <Time>2021-07-28T08:37:24.000Z</Time>
            <Position>
              <LatitudeDegrees>41.30687369965016841888427734375</LatitudeDegrees>
              <LongitudeDegrees>-2.8149446658790111541748046875</LongitudeDegrees>
            </Position>
            <AltitudeMeters>1133.5999755859375</AltitudeMeters>
            <DistanceMeters>98139.620273929</DistanceMeters>
          </Trackpoint>
          <Trackpoint>
            <Time>2021-07-28T08:37:26.000Z</Time>
            <Position>
              <LatitudeDegrees>41.30703949369490146636962890625</LatitudeDegrees>
              <LongitudeDegrees>-2.815072573721408843994140625</LongitudeDegrees>
            </Position>
            <AltitudeMeters>1132</AltitudeMeters>
            <DistanceMeters>98160.948215011</DistanceMeters>
          </Trackpoint>
          <Trackpoint>
            <Time>2021-07-28T08:37:27.000Z</Time>
            <Position>
              <LatitudeDegrees>41.30712700076401233673095703125</LatitudeDegrees>
              <LongitudeDegrees>-2.81513233669102191925048828125</LongitudeDegrees>
            </Position>
            <AltitudeMeters>1130.800048828125</AltitudeMeters>
            <DistanceMeters>98171.894863558</DistanceMeters>
          </Trackpoint>
          <Trackpoint>
            <Time>2021-07-28T08:37:28.000Z</Time>
            <Position>
              <LatitudeDegrees>41.30721970461308956146240234375</LatitudeDegrees>
              <LongitudeDegrees>-2.8151862323284149169921875</LongitudeDegrees>
            </Position>
            <AltitudeMeters>1129.5999755859375</AltitudeMeters>
            <DistanceMeters>98183.153825016</DistanceMeters>
          </Trackpoint>
          <Trackpoint>
            <Time>2021-07-28T08:37:29.000Z</Time>
            <Position>
              <LatitudeDegrees>41.307316683232784271240234375</LatitudeDegrees>
              <LongitudeDegrees>-2.81523359008133411407470703125</LongitudeDegrees>
            </Position>
            <AltitudeMeters>1128.5999755859375</AltitudeMeters>
            <DistanceMeters>98194.650879377</DistanceMeters>
          </Trackpoint>
          <Trackpoint>
            <Time>2021-07-28T08:37:31.000Z</Time>
            <Position>
              <LatitudeDegrees>41.30751826800405979156494140625</LatitudeDegrees>
              <LongitudeDegrees>-2.8153069317340850830078125</LongitudeDegrees>
            </Position>
            <AltitudeMeters>1127</AltitudeMeters>
            <DistanceMeters>98217.910499751</DistanceMeters>
          </Trackpoint>
          <Trackpoint>
            <Time>2021-07-28T08:37:32.000Z</Time>
            <Position>
              <LatitudeDegrees>41.307621784508228302001953125</LatitudeDegrees>
              <LongitudeDegrees>-2.815335094928741455078125</LongitudeDegrees>
            </Position>
            <AltitudeMeters>1125.5999755859375</AltitudeMeters>
            <DistanceMeters>98229.670415598</DistanceMeters>
          </Trackpoint>
          <Trackpoint>
            <Time>2021-07-28T08:37:33.000Z</Time>
            <Position>
              <LatitudeDegrees>41.30772664211690425872802734375</LatitudeDegrees>
              <LongitudeDegrees>-2.81535998918116092681884765625</LongitudeDegrees>
            </Position>
            <AltitudeMeters>1124.5999755859375</AltitudeMeters>
            <DistanceMeters>98241.525545702</DistanceMeters>
          </Trackpoint>
          <Trackpoint>
            <Time>2021-07-28T08:37:39.000Z</Time>
            <Position>
              <LatitudeDegrees>41.30832108668982982635498046875</LatitudeDegrees>
              <LongitudeDegrees>-2.81548253260552883148193359375</LongitudeDegrees>
            </Position>
            <AltitudeMeters>1124.5999755859375</AltitudeMeters>
            <DistanceMeters>98308.476907125</DistanceMeters>
          </Trackpoint>
          <Trackpoint>
            <Time>2021-07-28T08:37:41.000Z</Time>
            <Position>
              <LatitudeDegrees>41.30848302505910396575927734375</LatitudeDegrees>
              <LongitudeDegrees>-2.81552192755043506622314453125</LongitudeDegrees>
            </Position>
            <AltitudeMeters>1126.4000244140625</AltitudeMeters>
            <DistanceMeters>98326.799082811</DistanceMeters>
          </Trackpoint>
          <Trackpoint>
            <Time>2021-07-28T08:37:42.000Z</Time>
            <Position>
              <LatitudeDegrees>41.30855150520801544189453125</LatitudeDegrees>
              <LongitudeDegrees>-2.8155431337654590606689453125</LongitudeDegrees>
            </Position>
            <AltitudeMeters>1127.5999755859375</AltitudeMeters>
            <DistanceMeters>98334.624808237</DistanceMeters>
          </Trackpoint>
          <Trackpoint>
            <Time>2021-07-28T08:37:44.000Z</Time>
            <Position>
              <LatitudeDegrees>41.308663822710514068603515625</LatitudeDegrees>
              <LongitudeDegrees>-2.81558881513774394989013671875</LongitudeDegrees>
            </Position>
            <AltitudeMeters>1129.5999755859375</AltitudeMeters>
            <DistanceMeters>98347.696077357</DistanceMeters>
          </Trackpoint>
          <Trackpoint>
            <Time>2021-07-28T08:37:46.000Z</Time>
            <Position>
              <LatitudeDegrees>41.308744288980960845947265625</LatitudeDegrees>
              <LongitudeDegrees>-2.815635167062282562255859375</LongitudeDegrees>
            </Position>
            <AltitudeMeters>1131.4000244140625</AltitudeMeters>
            <DistanceMeters>98357.454724096</DistanceMeters>
          </Trackpoint>
          <Trackpoint>
            <Time>2021-07-28T08:37:49.000Z</Time>
            <Position>
              <LatitudeDegrees>41.308832801878452301025390625</LatitudeDegrees>
              <LongitudeDegrees>-2.8157003782689571380615234375</LongitudeDegrees>
            </Position>
            <AltitudeMeters>1132.5999755859375</AltitudeMeters>
            <DistanceMeters>98368.71448756</DistanceMeters>
          </Trackpoint>
          <Trackpoint>
            <Time>2021-07-28T08:37:55.000Z</Time>
            <Position>
              <LatitudeDegrees>41.30897940136492252349853515625</LatitudeDegrees>
              <LongitudeDegrees>-2.8158147074282169342041015625</LongitudeDegrees>
            </Position>
            <AltitudeMeters>1133.800048828125</AltitudeMeters>
            <DistanceMeters>98387.625042479</DistanceMeters>
          </Trackpoint>
          <Trackpoint>
            <Time>2021-07-28T08:38:00.000Z</Time>
            <Position>
              <LatitudeDegrees>41.30908526480197906494140625</LatitudeDegrees>
              <LongitudeDegrees>-2.81590430997312068939208984375</LongitudeDegrees>
            </Position>
            <AltitudeMeters>1134.800048828125</AltitudeMeters>
            <DistanceMeters>98401.588150317</DistanceMeters>
          </Trackpoint>
          <Trackpoint>
            <Time>2021-07-28T08:38:06.000Z</Time>
            <Position>
              <LatitudeDegrees>41.3092111609876155853271484375</LatitudeDegrees>
              <LongitudeDegrees>-2.8159997798502445220947265625</LongitudeDegrees>
            </Position>
            <AltitudeMeters>1136</AltitudeMeters>
            <DistanceMeters>98417.71443853</DistanceMeters>
          </Trackpoint>
          <Trackpoint>
            <Time>2021-07-28T08:38:10.000Z</Time>
            <Position>
              <LatitudeDegrees>41.30929187871515750885009765625</LatitudeDegrees>
              <LongitudeDegrees>-2.81606323085725307464599609375</LongitudeDegrees>
            </Position>
            <AltitudeMeters>1137</AltitudeMeters>
            <DistanceMeters>98428.147488968</DistanceMeters>
          </Trackpoint>
          <Trackpoint>
            <Time>2021-07-28T08:38:16.000Z</Time>
            <Position>
              <LatitudeDegrees>41.309410147368907928466796875</LatitudeDegrees>
              <LongitudeDegrees>-2.81614235602319240570068359375</LongitudeDegrees>
            </Position>
            <AltitudeMeters>1138.4000244140625</AltitudeMeters>
            <DistanceMeters>98442.879694755</DistanceMeters>
          </Trackpoint>
          <Trackpoint>
            <Time>2021-07-28T08:38:21.000Z</Time>
            <Position>
              <LatitudeDegrees>41.30950846709311008453369140625</LatitudeDegrees>
              <LongitudeDegrees>-2.81618191860616207122802734375</LongitudeDegrees>
            </Position>
            <AltitudeMeters>1139.5999755859375</AltitudeMeters>
            <DistanceMeters>98454.311372947</DistanceMeters>
          </Trackpoint>
          <Trackpoint>
            <Time>2021-07-28T08:38:26.000Z</Time>
            <Position>
              <LatitudeDegrees>41.309595219790935516357421875</LatitudeDegrees>
              <LongitudeDegrees>-2.81619315035641193389892578125</LongitudeDegrees>
            </Position>
            <AltitudeMeters>1141</AltitudeMeters>
            <DistanceMeters>98464.0124789</DistanceMeters>
          </Trackpoint>
          <Trackpoint>
            <Time>2021-07-28T08:38:34.000Z</Time>
            <Position>
              <LatitudeDegrees>41.309710554778575897216796875</LatitudeDegrees>
              <LongitudeDegrees>-2.8162083216011524200439453125</LongitudeDegrees>
            </Position>
            <AltitudeMeters>1142</AltitudeMeters>
            <DistanceMeters>98476.911633467</DistanceMeters>
          </Trackpoint>
          <Trackpoint>
            <Time>2021-07-28T08:38:40.000Z</Time>
            <Position>
              <LatitudeDegrees>41.30980988033115863800048828125</LatitudeDegrees>
              <LongitudeDegrees>-2.8162203915417194366455078125</LongitudeDegrees>
            </Position>
            <AltitudeMeters>1143</AltitudeMeters>
            <DistanceMeters>98488.01228314</DistanceMeters>
          </Trackpoint>
          <Trackpoint>
            <Time>2021-07-28T08:38:44.000Z</Time>
            <Position>
              <LatitudeDegrees>41.3098770193755626678466796875</LatitudeDegrees>
              <LongitudeDegrees>-2.816229276359081268310546875</LongitudeDegrees>
            </Position>
            <AltitudeMeters>1143.5999755859375</AltitudeMeters>
            <DistanceMeters>98495.521197663</DistanceMeters>
          </Trackpoint>
          <Trackpoint>
            <Time>2021-07-28T08:38:47.000Z</Time>
            <Position>
              <LatitudeDegrees>41.30992940627038478851318359375</LatitudeDegrees>
              <LongitudeDegrees>-2.816233970224857330322265625</LongitudeDegrees>
            </Position>
            <AltitudeMeters>1144.199951171875</AltitudeMeters>
            <DistanceMeters>98501.36514745</DistanceMeters>
          </Trackpoint>
          <Trackpoint>
            <Time>2021-07-28T08:38:58.000Z</Time>
            <Position>
              <LatitudeDegrees>41.310116238892078399658203125</LatitudeDegrees>
              <LongitudeDegrees>-2.81625282950699329376220703125</LongitudeDegrees>
            </Position>
            <AltitudeMeters>1145.199951171875</AltitudeMeters>
            <DistanceMeters>98522.219776954</DistanceMeters>
          </Trackpoint>
          <Trackpoint>
            <Time>2021-07-28T08:39:05.000Z</Time>
            <Position>
              <LatitudeDegrees>41.310234926640987396240234375</LatitudeDegrees>
              <LongitudeDegrees>-2.81627177260816097259521484375</LongitudeDegrees>
            </Position>
            <AltitudeMeters>1146.4000244140625</AltitudeMeters>
            <DistanceMeters>98535.52453507</DistanceMeters>
          </Trackpoint>
          <Trackpoint>
            <Time>2021-07-28T08:39:13.000Z</Time>
            <Position>
              <LatitudeDegrees>41.3103745691478252410888671875</LatitudeDegrees>
              <LongitudeDegrees>-2.81625970266759395599365234375</LongitudeDegrees>
            </Position>
            <AltitudeMeters>1147.4000244140625</AltitudeMeters>
            <DistanceMeters>98551.099642569</DistanceMeters>
          </Trackpoint>
          <Trackpoint>
            <Time>2021-07-28T08:39:37.000Z</Time>
            <Position>
              <LatitudeDegrees>41.31088209338486194610595703125</LatitudeDegrees>
              <LongitudeDegrees>-2.815963067114353179931640625</LongitudeDegrees>
            </Position>
            <AltitudeMeters>1148</AltitudeMeters>
            <DistanceMeters>98612.792182875</DistanceMeters>
          </Trackpoint>
          <Trackpoint>
            <Time>2021-07-28T08:39:49.000Z</Time>
            <Position>
              <LatitudeDegrees>41.311273612082004547119140625</LatitudeDegrees>
              <LongitudeDegrees>-2.815652601420879364013671875</LongitudeDegrees>
            </Position>
            <AltitudeMeters>1146.4000244140625</AltitudeMeters>
            <DistanceMeters>98663.513487262</DistanceMeters>
          </Trackpoint>
          <Trackpoint>
            <Time>2021-07-28T08:39:56.000Z</Time>
            <Position>
              <LatitudeDegrees>41.31156228482723236083984375</LatitudeDegrees>
              <LongitudeDegrees>-2.81542117707431316375732421875</LongitudeDegrees>
            </Position>
            <AltitudeMeters>1145</AltitudeMeters>
            <DistanceMeters>98701.018955638</DistanceMeters>
          </Trackpoint>
          <Trackpoint>
            <Time>2021-07-28T08:40:00.000Z</Time>
            <Position>
              <LatitudeDegrees>41.31174442358314990997314453125</LatitudeDegrees>
              <LongitudeDegrees>-2.81527566723525524139404296875</LongitudeDegrees>
            </Position>
            <AltitudeMeters>1144</AltitudeMeters>
            <DistanceMeters>98724.661136201</DistanceMeters>
          </Trackpoint>
          <Trackpoint>
            <Time>2021-07-28T08:40:05.000Z</Time>
            <Position>
              <LatitudeDegrees>41.31199085153639316558837890625</LatitudeDegrees>
              <LongitudeDegrees>-2.81507835723459720611572265625</LongitudeDegrees>
            </Position>
            <AltitudeMeters>1142.800048828125</AltitudeMeters>
            <DistanceMeters>98756.667510443</DistanceMeters>
          </Trackpoint>
          <Trackpoint>
            <Time>2021-07-28T08:40:08.000Z</Time>
            <Position>
              <LatitudeDegrees>41.31215178407728672027587890625</LatitudeDegrees>
              <LongitudeDegrees>-2.8149567358195781707763671875</LongitudeDegrees>
            </Position>
            <AltitudeMeters>1141.4000244140625</AltitudeMeters>
            <DistanceMeters>98777.264208267</DistanceMeters>
          </Trackpoint>
          <Trackpoint>
            <Time>2021-07-28T08:40:12.000Z</Time>
            <Position>
              <LatitudeDegrees>41.31237633526325225830078125</LatitudeDegrees>
              <LongitudeDegrees>-2.8147864155471324920654296875</LongitudeDegrees>
            </Position>
            <AltitudeMeters>1140</AltitudeMeters>
            <DistanceMeters>98806.028592221</DistanceMeters>
          </Trackpoint>
          <Trackpoint>
            <Time>2021-07-28T08:40:15.000Z</Time>
            <Position>
              <LatitudeDegrees>41.31254523061215877532958984375</LatitudeDegrees>
              <LongitudeDegrees>-2.814644761383533477783203125</LongitudeDegrees>
            </Position>
            <AltitudeMeters>1138.800048828125</AltitudeMeters>
            <DistanceMeters>98828.246358284</DistanceMeters>
          </Trackpoint>
          <Trackpoint>
            <Time>2021-07-28T08:40:24.000Z</Time>
            <Position>
              <LatitudeDegrees>41.31303221918642520904541015625</LatitudeDegrees>
              <LongitudeDegrees>-2.81425508670508861541748046875</LongitudeDegrees>
            </Position>
            <AltitudeMeters>1139.199951171875</AltitudeMeters>
            <DistanceMeters>98891.485762103</DistanceMeters>
          </Trackpoint>
          <Trackpoint>
            <Time>2021-07-28T08:40:26.000Z</Time>
            <Position>
              <LatitudeDegrees>41.3131224922835826873779296875</LatitudeDegrees>
              <LongitudeDegrees>-2.8141866065561771392822265625</LongitudeDegrees>
            </Position>
            <AltitudeMeters>1140</AltitudeMeters>
            <DistanceMeters>98903.050165768</DistanceMeters>
          </Trackpoint>
          <Trackpoint>
            <Time>2021-07-28T08:40:27.000Z</Time>
            <Position>
              <LatitudeDegrees>41.31316750310361385345458984375</LatitudeDegrees>
              <LongitudeDegrees>-2.8141643106937408447265625</LongitudeDegrees>
            </Position>
            <AltitudeMeters>1140.199951171875</AltitudeMeters>
            <DistanceMeters>98908.395365659</DistanceMeters>
          </Trackpoint>
          <Trackpoint>
            <Time>2021-07-28T08:40:33.000Z</Time>
            <Position>
              <LatitudeDegrees>41.3133545033633708953857421875</LatitudeDegrees>
              <LongitudeDegrees>-2.81432750634849071502685546875</LongitudeDegrees>
            </Position>
            <AltitudeMeters>1141</AltitudeMeters>
            <DistanceMeters>98933.281844377</DistanceMeters>
          </Trackpoint>
          <Trackpoint>
            <Time>2021-07-28T08:40:36.000Z</Time>
            <Position>
              <LatitudeDegrees>41.313359029591083526611328125</LatitudeDegrees>
              <LongitudeDegrees>-2.814461030066013336181640625</LongitudeDegrees>
            </Position>
            <AltitudeMeters>1141.4000244140625</AltitudeMeters>
            <DistanceMeters>98944.45627488</DistanceMeters>
          </Trackpoint>
          <Trackpoint>
            <Time>2021-07-28T08:40:45.000Z</Time>
            <Position>
              <LatitudeDegrees>41.31334285251796245574951171875</LatitudeDegrees>
              <LongitudeDegrees>-2.81483293510973453521728515625</LongitudeDegrees>
            </Position>
            <AltitudeMeters>1142</AltitudeMeters>
            <DistanceMeters>98975.599531785</DistanceMeters>
          </Trackpoint>
          <Trackpoint>
            <Time>2021-07-28T08:41:02.000Z</Time>
            <Position>
              <LatitudeDegrees>41.31344393827021121978759765625</LatitudeDegrees>
              <LongitudeDegrees>-2.81553919427096843719482421875</LongitudeDegrees>
            </Position>
            <AltitudeMeters>1142.5999755859375</AltitudeMeters>
            <DistanceMeters>99035.705261989</DistanceMeters>
          </Trackpoint>
          <Trackpoint>
            <Time>2021-07-28T08:41:19.000Z</Time>
            <Position>
              <LatitudeDegrees>41.31349473260343074798583984375</LatitudeDegrees>
              <LongitudeDegrees>-2.816292978823184967041015625</LongitudeDegrees>
            </Position>
            <AltitudeMeters>1142.5999755859375</AltitudeMeters>
            <DistanceMeters>99098.974645007</DistanceMeters>
          </Trackpoint>
          <Trackpoint>
            <Time>2021-07-28T08:41:23.000Z</Time>
            <Position>
              <LatitudeDegrees>41.31349322386085987091064453125</LatitudeDegrees>
              <LongitudeDegrees>-2.81645768322050571441650390625</LongitudeDegrees>
            </Position>
            <AltitudeMeters>1143</AltitudeMeters>
            <DistanceMeters>99112.744996318</DistanceMeters>
          </Trackpoint>
          <Trackpoint>
            <Time>2021-07-28T08:41:41.000Z</Time>
            <Position>
              <LatitudeDegrees>41.313477046787738800048828125</LatitudeDegrees>
              <LongitudeDegrees>-2.8172091208398342132568359375</LongitudeDegrees>
            </Position>
            <AltitudeMeters>1144.199951171875</AltitudeMeters>
            <DistanceMeters>99175.590926619</DistanceMeters>
          </Trackpoint>
          <Trackpoint>
            <Time>2021-07-28T08:41:54.000Z</Time>
            <Position>
              <LatitudeDegrees>41.313477717339992523193359375</LatitudeDegrees>
              <LongitudeDegrees>-2.8177157230675220489501953125</LongitudeDegrees>
            </Position>
            <AltitudeMeters>1145.199951171875</AltitudeMeters>
            <DistanceMeters>99217.942788495</DistanceMeters>
          </Trackpoint>
          <Trackpoint>
            <Time>2021-07-28T08:42:12.000Z</Time>
            <Position>
              <LatitudeDegrees>41.313546784222126007080078125</LatitudeDegrees>
              <LongitudeDegrees>-2.81841628253459930419921875</LongitudeDegrees>
            </Position>
            <AltitudeMeters>1146.4000244140625</AltitudeMeters>
            <DistanceMeters>99277.011809965</DistanceMeters>
          </Trackpoint>
          <Trackpoint>
            <Time>2021-07-28T08:42:26.000Z</Time>
            <Position>
              <LatitudeDegrees>41.31363823078572750091552734375</LatitudeDegrees>
              <LongitudeDegrees>-2.81893084757030010223388671875</LongitudeDegrees>
            </Position>
            <AltitudeMeters>1147.4000244140625</AltitudeMeters>
            <DistanceMeters>99321.217109901</DistanceMeters>
          </Trackpoint>
          <Trackpoint>
            <Time>2021-07-28T08:42:45.000Z</Time>
            <Position>
              <LatitudeDegrees>41.31390192545950412750244140625</LatitudeDegrees>
              <LongitudeDegrees>-2.8195828758180141448974609375</LongitudeDegrees>
            </Position>
            <AltitudeMeters>1148.199951171875</AltitudeMeters>
            <DistanceMeters>99383.125683342</DistanceMeters>
          </Trackpoint>
          <Trackpoint>
            <Time>2021-07-28T08:42:57.000Z</Time>
            <Position>
              <LatitudeDegrees>41.31422915495932102203369140625</LatitudeDegrees>
              <LongitudeDegrees>-2.8198618255555629730224609375</LongitudeDegrees>
            </Position>
            <AltitudeMeters>1148.5999755859375</AltitudeMeters>
            <DistanceMeters>99426.372966415</DistanceMeters>
          </Trackpoint>
          <Trackpoint>
            <Time>2021-07-28T08:43:06.000Z</Time>
            <Position>
              <LatitudeDegrees>41.31437231786549091339111328125</LatitudeDegrees>
              <LongitudeDegrees>-2.82012443058192729949951171875</LongitudeDegrees>
            </Position>
            <AltitudeMeters>1149.5999755859375</AltitudeMeters>
            <DistanceMeters>99453.499723122</DistanceMeters>
          </Trackpoint>
          <Trackpoint>
            <Time>2021-07-28T08:43:25.000Z</Time>
            <Position>
              <LatitudeDegrees>41.31433778442442417144775390625</LatitudeDegrees>
              <LongitudeDegrees>-2.820850051939487457275390625</LongitudeDegrees>
            </Position>
            <AltitudeMeters>1150.4000244140625</AltitudeMeters>
            <DistanceMeters>99514.282437656</DistanceMeters>
          </Trackpoint>
          <Trackpoint>
            <Time>2021-07-28T08:43:33.000Z</Time>
            <Position>
              <LatitudeDegrees>41.31433895789086818695068359375</LatitudeDegrees>
              <LongitudeDegrees>-2.82118306495249271392822265625</LongitudeDegrees>
            </Position>
            <AltitudeMeters>1150.5999755859375</AltitudeMeters>
            <DistanceMeters>99542.122183725</DistanceMeters>
          </Trackpoint>
          <Trackpoint>
            <Time>2021-07-28T08:43:50.000Z</Time>
            <Position>
              <LatitudeDegrees>41.31417986936867237091064453125</LatitudeDegrees>
              <LongitudeDegrees>-2.82184816896915435791015625</LongitudeDegrees>
            </Position>
            <AltitudeMeters>1151.5999755859375</AltitudeMeters>
            <DistanceMeters>99600.475550431</DistanceMeters>
          </Trackpoint>
          <Trackpoint>
            <Time>2021-07-28T08:44:03.000Z</Time>
            <Position>
              <LatitudeDegrees>41.31408330984413623809814453125</LatitudeDegrees>
              <LongitudeDegrees>-2.82230137847363948822021484375</LongitudeDegrees>
            </Position>
            <AltitudeMeters>1152.800048828125</AltitudeMeters>
            <DistanceMeters>99639.858363053</DistanceMeters>
          </Trackpoint>
          <Trackpoint>
            <Time>2021-07-28T08:44:12.000Z</Time>
            <Position>
              <LatitudeDegrees>41.31407492794096469879150390625</LatitudeDegrees>
              <LongitudeDegrees>-2.82263430766761302947998046875</LongitudeDegrees>
            </Position>
            <AltitudeMeters>1153.800048828125</AltitudeMeters>
            <DistanceMeters>99667.706703313</DistanceMeters>
          </Trackpoint>
          <Trackpoint>
            <Time>2021-07-28T08:44:31.000Z</Time>
            <Position>
              <LatitudeDegrees>41.3140461780130863189697265625</LatitudeDegrees>
              <LongitudeDegrees>-2.8233604319393634796142578125</LongitudeDegrees>
            </Position>
            <AltitudeMeters>1155</AltitudeMeters>
            <DistanceMeters>99728.494394511</DistanceMeters>
          </Trackpoint>
          <Trackpoint>
            <Time>2021-07-28T08:44:44.000Z</Time>
            <Position>
              <LatitudeDegrees>41.31398373283445835113525390625</LatitudeDegrees>
              <LongitudeDegrees>-2.82383778132498264312744140625</LongitudeDegrees>
            </Position>
            <AltitudeMeters>1156</AltitudeMeters>
            <DistanceMeters>99769.001085071</DistanceMeters>
          </Trackpoint>
          <Trackpoint>
            <Time>2021-07-28T08:45:04.000Z</Time>
            <Position>
              <LatitudeDegrees>41.313982307910919189453125</LatitudeDegrees>
              <LongitudeDegrees>-2.82449777238070964813232421875</LongitudeDegrees>
            </Position>
            <AltitudeMeters>1156.800048828125</AltitudeMeters>
            <DistanceMeters>99824.176184631</DistanceMeters>
          </Trackpoint>
          <Trackpoint>
            <Time>2021-07-28T08:45:20.000Z</Time>
            <Position>
              <LatitudeDegrees>41.31454146467149257659912109375</LatitudeDegrees>
              <LongitudeDegrees>-2.82451026141643524169921875</LongitudeDegrees>
            </Position>
            <AltitudeMeters>1156</AltitudeMeters>
            <DistanceMeters>99886.420205853</DistanceMeters>
          </Trackpoint>
          <Trackpoint>
            <Time>2021-07-28T08:45:34.000Z</Time>
            <Position>
              <LatitudeDegrees>41.31508125923573970794677734375</LatitudeDegrees>
              <LongitudeDegrees>-2.8246703557670116424560546875</LongitudeDegrees>
            </Position>
            <AltitudeMeters>1155.4000244140625</AltitudeMeters>
            <DistanceMeters>99947.973021984</DistanceMeters>
          </Trackpoint>
          <Trackpoint>
            <Time>2021-07-28T08:45:49.000Z</Time>
            <Position>
              <LatitudeDegrees>41.31560630165040493011474609375</LatitudeDegrees>
              <LongitudeDegrees>-2.82487579621374607086181640625</LongitudeDegrees>
            </Position>
            <AltitudeMeters>1156.199951171875</AltitudeMeters>
            <DistanceMeters>100008.88269976</DistanceMeters>
          </Trackpoint>
          <Trackpoint>
            <Time>2021-07-28T08:46:03.000Z</Time>
            <Position>
              <LatitudeDegrees>41.3161379657685756683349609375</LatitudeDegrees>
              <LongitudeDegrees>-2.82512272708117961883544921875</LongitudeDegrees>
            </Position>
            <AltitudeMeters>1155.5999755859375</AltitudeMeters>
            <DistanceMeters>100071.55510526</DistanceMeters>
          </Trackpoint>
          <Trackpoint>
            <Time>2021-07-28T08:46:15.000Z</Time>
            <Position>
              <LatitudeDegrees>41.3166167400777339935302734375</LatitudeDegrees>
              <LongitudeDegrees>-2.82533613033592700958251953125</LongitudeDegrees>
            </Position>
            <AltitudeMeters>1155.199951171875</AltitudeMeters>
            <DistanceMeters>100127.75045261</DistanceMeters>
          </Trackpoint>
          <Trackpoint>
            <Time>2021-07-28T08:46:25.000Z</Time>
            <Position>
              <LatitudeDegrees>41.31698378361761569976806640625</LatitudeDegrees>
              <LongitudeDegrees>-2.82558071427047252655029296875</LongitudeDegrees>
            </Position>
            <AltitudeMeters>1154.800048828125</AltitudeMeters>
            <DistanceMeters>100173.43389695</DistanceMeters>
          </Trackpoint>
          <Trackpoint>
            <Time>2021-07-28T08:46:28.000Z</Time>
            <Position>
              <LatitudeDegrees>41.317101381719112396240234375</LatitudeDegrees>
              <LongitudeDegrees>-2.82566168345510959625244140625</LongitudeDegrees>
            </Position>
            <AltitudeMeters>1154.4000244140625</AltitudeMeters>
            <DistanceMeters>100188.16947357</DistanceMeters>
          </Trackpoint>
          <Trackpoint>
            <Time>2021-07-28T08:46:35.000Z</Time>
            <Position>
              <LatitudeDegrees>41.31734672002494335174560546875</LatitudeDegrees>
              <LongitudeDegrees>-2.8259457461535930633544921875</LongitudeDegrees>
            </Position>
            <AltitudeMeters>1153.5999755859375</AltitudeMeters>
            <DistanceMeters>100224.35706379</DistanceMeters>
          </Trackpoint>
          <Trackpoint>
            <Time>2021-07-28T08:46:39.000Z</Time>
            <Position>
              <LatitudeDegrees>41.317476890981197357177734375</LatitudeDegrees>
              <LongitudeDegrees>-2.82617834396660327911376953125</LongitudeDegrees>
            </Position>
            <AltitudeMeters>1152.5999755859375</AltitudeMeters>
            <DistanceMeters>100248.60545337</DistanceMeters>
          </Trackpoint>
          <Trackpoint>
            <Time>2021-07-28T08:46:40.000Z</Time>
            <Position>
              <LatitudeDegrees>41.31751636974513530731201171875</LatitudeDegrees>
              <LongitudeDegrees>-2.82623752020299434661865234375</LongitudeDegrees>
            </Position>
            <AltitudeMeters>1152.4000244140625</AltitudeMeters>
            <DistanceMeters>100255.22261596</DistanceMeters>
          </Trackpoint>
          <Trackpoint>
            <Time>2021-07-28T08:46:43.000Z</Time>
            <Position>
              <LatitudeDegrees>41.3176596164703369140625</LatitudeDegrees>
              <LongitudeDegrees>-2.82639258541166782379150390625</LongitudeDegrees>
            </Position>
            <AltitudeMeters>1151.4000244140625</AltitudeMeters>
            <DistanceMeters>100275.7710306</DistanceMeters>
          </Trackpoint>
          <Trackpoint>
            <Time>2021-07-28T08:46:45.000Z</Time>
            <Position>
              <LatitudeDegrees>41.3177593611180782318115234375</LatitudeDegrees>
              <LongitudeDegrees>-2.826484702527523040771484375</LongitudeDegrees>
            </Position>
            <AltitudeMeters>1151.199951171875</AltitudeMeters>
            <DistanceMeters>100289.2822121</DistanceMeters>
          </Trackpoint>
          <Trackpoint>
            <Time>2021-07-28T08:46:50.000Z</Time>
            <Position>
              <LatitudeDegrees>41.31791015155613422393798828125</LatitudeDegrees>
              <LongitudeDegrees>-2.82674412243068218231201171875</LongitudeDegrees>
            </Position>
            <AltitudeMeters>1152.5999755859375</AltitudeMeters>
            <DistanceMeters>100316.70429418</DistanceMeters>
          </Trackpoint>
          <Trackpoint>
            <Time>2021-07-28T08:46:55.000Z</Time>
            <Position>
              <LatitudeDegrees>41.31799279712140560150146484375</LatitudeDegrees>
              <LongitudeDegrees>-2.8269572742283344268798828125</LongitudeDegrees>
            </Position>
            <AltitudeMeters>1153.800048828125</AltitudeMeters>
            <DistanceMeters>100336.75695745</DistanceMeters>
          </Trackpoint>
          <Trackpoint>
            <Time>2021-07-28T08:47:02.000Z</Time>
            <Position>
              <LatitudeDegrees>41.31812456063926219940185546875</LatitudeDegrees>
              <LongitudeDegrees>-2.82717310823500156402587890625</LongitudeDegrees>
            </Position>
            <AltitudeMeters>1155</AltitudeMeters>
            <DistanceMeters>100360.0080352</DistanceMeters>
          </Trackpoint>
          <Trackpoint>
            <Time>2021-07-28T08:47:13.000Z</Time>
            <Position>
              <LatitudeDegrees>41.31838289089500904083251953125</LatitudeDegrees>
              <LongitudeDegrees>-2.82742305658757686614990234375</LongitudeDegrees>
            </Position>
            <AltitudeMeters>1156</AltitudeMeters>
            <DistanceMeters>100395.55082117</DistanceMeters>
          </Trackpoint>
          <Trackpoint>
            <Time>2021-07-28T08:47:25.000Z</Time>
            <Position>
              <LatitudeDegrees>41.3186733238399028778076171875</LatitudeDegrees>
              <LongitudeDegrees>-2.827670574188232421875</LongitudeDegrees>
            </Position>
            <AltitudeMeters>1157</AltitudeMeters>
            <DistanceMeters>100433.93149821</DistanceMeters>
          </Trackpoint>
          <Trackpoint>
            <Time>2021-07-28T08:47:37.000Z</Time>
            <Position>
              <LatitudeDegrees>41.3189207576215267181396484375</LatitudeDegrees>
              <LongitudeDegrees>-2.8279776871204376220703125</LongitudeDegrees>
            </Position>
            <AltitudeMeters>1158</AltitudeMeters>
            <DistanceMeters>100471.58138944</DistanceMeters>
          </Trackpoint>
          <Trackpoint>
            <Time>2021-07-28T08:47:54.000Z</Time>
            <Position>
              <LatitudeDegrees>41.319344043731689453125</LatitudeDegrees>
              <LongitudeDegrees>-2.82845386303961277008056640625</LongitudeDegrees>
            </Position>
            <AltitudeMeters>1158.199951171875</AltitudeMeters>
            <DistanceMeters>100533.25804631</DistanceMeters>
          </Trackpoint>
          <Trackpoint>
            <Time>2021-07-28T08:47:58.000Z</Time>
            <Position>
              <LatitudeDegrees>41.3194870389997959136962890625</LatitudeDegrees>
              <LongitudeDegrees>-2.828577496111392974853515625</LongitudeDegrees>
            </Position>
            <AltitudeMeters>1157.4000244140625</AltitudeMeters>
            <DistanceMeters>100552.23438391</DistanceMeters>
          </Trackpoint>
          <Trackpoint>
            <Time>2021-07-28T08:47:59.000Z</Time>
            <Position>
              <LatitudeDegrees>41.31952266208827495574951171875</LatitudeDegrees>
              <LongitudeDegrees>-2.8286219201982021331787109375</LongitudeDegrees>
            </Position>
            <AltitudeMeters>1156.5999755859375</AltitudeMeters>
            <DistanceMeters>100557.66505879</DistanceMeters>
          </Trackpoint>
          <Trackpoint>
            <Time>2021-07-28T08:48:01.000Z</Time>
            <Position>
              <LatitudeDegrees>41.3195894658565521240234375</LatitudeDegrees>
              <LongitudeDegrees>-2.82872610725462436676025390625</LongitudeDegrees>
            </Position>
            <AltitudeMeters>1155.4000244140625</AltitudeMeters>
            <DistanceMeters>100569.11607359</DistanceMeters>
          </Trackpoint>
          <Trackpoint>
            <Time>2021-07-28T08:48:02.000Z</Time>
            <Position>
              <LatitudeDegrees>41.3196208141744136810302734375</LatitudeDegrees>
              <LongitudeDegrees>-2.828787378966808319091796875</LongitudeDegrees>
            </Position>
            <AltitudeMeters>1154.800048828125</AltitudeMeters>
            <DistanceMeters>100575.31397204</DistanceMeters>
          </Trackpoint>
          <Trackpoint>
            <Time>2021-07-28T08:48:03.000Z</Time>
            <Position>
              <LatitudeDegrees>41.31965316832065582275390625</LatitudeDegrees>
              <LongitudeDegrees>-2.82885217107832431793212890625</LongitudeDegrees>
            </Position>
            <AltitudeMeters>1154.199951171875</AltitudeMeters>
            <DistanceMeters>100581.81757705</DistanceMeters>
          </Trackpoint>
          <Trackpoint>
            <Time>2021-07-28T08:48:05.000Z</Time>
            <Position>
              <LatitudeDegrees>41.31972718052566051483154296875</LatitudeDegrees>
              <LongitudeDegrees>-2.82897287048399448394775390625</LongitudeDegrees>
            </Position>
            <AltitudeMeters>1153.199951171875</AltitudeMeters>
            <DistanceMeters>100594.84247805</DistanceMeters>
          </Trackpoint>
          <Trackpoint>
            <Time>2021-07-28T08:48:06.000Z</Time>
            <Position>
              <LatitudeDegrees>41.31976850330829620361328125</LatitudeDegrees>
              <LongitudeDegrees>-2.82901980914175510406494140625</LongitudeDegrees>
            </Position>
            <AltitudeMeters>1152.800048828125</AltitudeMeters>
            <DistanceMeters>100600.88844774</DistanceMeters>
          </Trackpoint>
          <Trackpoint>
            <Time>2021-07-28T08:48:09.000Z</Time>
            <Position>
              <LatitudeDegrees>41.31989330984652042388916015625</LatitudeDegrees>
              <LongitudeDegrees>-2.82911955378949642181396484375</LongitudeDegrees>
            </Position>
            <AltitudeMeters>1151.4000244140625</AltitudeMeters>
            <DistanceMeters>100617.08987552</DistanceMeters>
          </Trackpoint>
          <Trackpoint>
            <Time>2021-07-28T08:48:13.000Z</Time>
            <Position>
              <LatitudeDegrees>41.3200395740568637847900390625</LatitudeDegrees>
              <LongitudeDegrees>-2.82921410165727138519287109375</LongitudeDegrees>
            </Position>
            <AltitudeMeters>1150.199951171875</AltitudeMeters>
            <DistanceMeters>100635.1866648</DistanceMeters>
          </Trackpoint>
          <Trackpoint>
            <Time>2021-07-28T08:48:15.000Z</Time>
            <Position>
              <LatitudeDegrees>41.32011928595602512359619140625</LatitudeDegrees>
              <LongitudeDegrees>-2.829266823828220367431640625</LongitudeDegrees>
            </Position>
            <AltitudeMeters>1149.199951171875</AltitudeMeters>
            <DistanceMeters>100645.09317129</DistanceMeters>
          </Trackpoint>
          <Trackpoint>
            <Time>2021-07-28T08:48:18.000Z</Time>
            <Position>
              <LatitudeDegrees>41.32027653045952320098876953125</LatitudeDegrees>
              <LongitudeDegrees>-2.82936229370534420013427734375</LongitudeDegrees>
            </Position>
            <AltitudeMeters>1147.5999755859375</AltitudeMeters>
            <DistanceMeters>100664.32851252</DistanceMeters>
          </Trackpoint>
          <Trackpoint>
            <Time>2021-07-28T08:48:20.000Z</Time>
            <Position>
              <LatitudeDegrees>41.32039706222712993621826171875</LatitudeDegrees>
              <LongitudeDegrees>-2.8294463641941547393798828125</LongitudeDegrees>
            </Position>
            <AltitudeMeters>1145.800048828125</AltitudeMeters>
            <DistanceMeters>100679.4726824</DistanceMeters>
          </Trackpoint>
          <Trackpoint>
            <Time>2021-07-28T08:48:21.000Z</Time>
            <Position>
              <LatitudeDegrees>41.320456825196743011474609375</LatitudeDegrees>
              <LongitudeDegrees>-2.82949087209999561309814453125</LongitudeDegrees>
            </Position>
            <AltitudeMeters>1144.5999755859375</AltitudeMeters>
            <DistanceMeters>100687.0938012</DistanceMeters>
          </Trackpoint>
          <Trackpoint>
            <Time>2021-07-28T08:48:23.000Z</Time>
            <Position>
              <LatitudeDegrees>41.32058163173496723175048828125</LatitudeDegrees>
              <LongitudeDegrees>-2.82957435585558414459228515625</LongitudeDegrees>
            </Position>
            <AltitudeMeters>1143.4000244140625</AltitudeMeters>
            <DistanceMeters>100702.63931199</DistanceMeters>
          </Trackpoint>
          <Trackpoint>
            <Time>2021-07-28T08:48:25.000Z</Time>
            <Position>
              <LatitudeDegrees>41.32071934640407562255859375</LatitudeDegrees>
              <LongitudeDegrees>-2.8296361304819583892822265625</LongitudeDegrees>
            </Position>
            <AltitudeMeters>1142</AltitudeMeters>
            <DistanceMeters>100718.81368507</DistanceMeters>
          </Trackpoint>
          <Trackpoint>
            <Time>2021-07-28T08:48:27.000Z</Time>
            <Position>
              <LatitudeDegrees>41.32086686789989471435546875</LatitudeDegrees>
              <LongitudeDegrees>-2.8296810574829578399658203125</LongitudeDegrees>
            </Position>
            <AltitudeMeters>1140.800048828125</AltitudeMeters>
            <DistanceMeters>100735.65728747</DistanceMeters>
          </Trackpoint>
          <Trackpoint>
            <Time>2021-07-28T08:48:29.000Z</Time>
            <Position>
              <LatitudeDegrees>41.321016736328601837158203125</LatitudeDegrees>
              <LongitudeDegrees>-2.8297293372452259063720703125</LongitudeDegrees>
            </Position>
            <AltitudeMeters>1139.4000244140625</AltitudeMeters>
            <DistanceMeters>100752.81954354</DistanceMeters>
          </Trackpoint>
          <Trackpoint>
            <Time>2021-07-28T08:48:31.000Z</Time>
            <Position>
              <LatitudeDegrees>41.3211692869663238525390625</LatitudeDegrees>
              <LongitudeDegrees>-2.829778455197811126708984375</LongitudeDegrees>
            </Position>
            <AltitudeMeters>1138</AltitudeMeters>
            <DistanceMeters>100770.28844171</DistanceMeters>
          </Trackpoint>
          <Trackpoint>
            <Time>2021-07-28T08:48:34.000Z</Time>
            <Position>
              <LatitudeDegrees>41.32138880901038646697998046875</LatitudeDegrees>
              <LongitudeDegrees>-2.8298564068973064422607421875</LongitudeDegrees>
            </Position>
            <AltitudeMeters>1137</AltitudeMeters>
            <DistanceMeters>100795.57572712</DistanceMeters>
          </Trackpoint>
          <Trackpoint>
            <Time>2021-07-28T08:48:41.000Z</Time>
            <Position>
              <LatitudeDegrees>41.321746967732906341552734375</LatitudeDegrees>
              <LongitudeDegrees>-2.8300927765667438507080078125</LongitudeDegrees>
            </Position>
            <AltitudeMeters>1135.5999755859375</AltitudeMeters>
            <DistanceMeters>100840.06731191</DistanceMeters>
          </Trackpoint>
          <Trackpoint>
            <Time>2021-07-28T08:48:45.000Z</Time>
            <Position>
              <LatitudeDegrees>41.32184185087680816650390625</LatitudeDegrees>
              <LongitudeDegrees>-2.8301878273487091064453125</LongitudeDegrees>
            </Position>
            <AltitudeMeters>1134.199951171875</AltitudeMeters>
            <DistanceMeters>100853.28251825</DistanceMeters>
          </Trackpoint>
          <Trackpoint>
            <Time>2021-07-28T08:48:47.000Z</Time>
            <Position>
              <LatitudeDegrees>41.3219144381582736968994140625</LatitudeDegrees>
              <LongitudeDegrees>-2.83026535995304584503173828125</LongitudeDegrees>
            </Position>
            <AltitudeMeters>1133.199951171875</AltitudeMeters>
            <DistanceMeters>100863.63955827</DistanceMeters>
          </Trackpoint>
          <Trackpoint>
            <Time>2021-07-28T08:48:48.000Z</Time>
            <Position>
              <LatitudeDegrees>41.32195659913122653961181640625</LatitudeDegrees>
              <LongitudeDegrees>-2.83030961640179157257080078125</LongitudeDegrees>
            </Position>
            <AltitudeMeters>1132.199951171875</AltitudeMeters>
            <DistanceMeters>100869.61491787</DistanceMeters>
          </Trackpoint>
          <Trackpoint>
            <Time>2021-07-28T08:48:50.000Z</Time>
            <Position>
              <LatitudeDegrees>41.322042010724544525146484375</LatitudeDegrees>
              <LongitudeDegrees>-2.83041338436305522918701171875</LongitudeDegrees>
            </Position>
            <AltitudeMeters>1131</AltitudeMeters>
            <DistanceMeters>100882.483935</DistanceMeters>
          </Trackpoint>
          <Trackpoint>
            <Time>2021-07-28T08:48:53.000Z</Time>
            <Position>
              <LatitudeDegrees>41.32218291051685810089111328125</LatitudeDegrees>
              <LongitudeDegrees>-2.83057549037039279937744140625</LongitudeDegrees>
            </Position>
            <AltitudeMeters>1129.5999755859375</AltitudeMeters>
            <DistanceMeters>100903.20934636</DistanceMeters>
          </Trackpoint>
          <Trackpoint>
            <Time>2021-07-28T08:48:56.000Z</Time>
            <Position>
              <LatitudeDegrees>41.32234216667711734771728515625</LatitudeDegrees>
              <LongitudeDegrees>-2.83073030412197113037109375</LongitudeDegrees>
            </Position>
            <AltitudeMeters>1128.199951171875</AltitudeMeters>
            <DistanceMeters>100925.15599184</DistanceMeters>
          </Trackpoint>
          <Trackpoint>
            <Time>2021-07-28T08:49:06.000Z</Time>
            <Position>
              <LatitudeDegrees>41.32281725294888019561767578125</LatitudeDegrees>
              <LongitudeDegrees>-2.83116482198238372802734375</LongitudeDegrees>
            </Position>
            <AltitudeMeters>1126.800048828125</AltitudeMeters>
            <DistanceMeters>100989.30627381</DistanceMeters>
          </Trackpoint>
          <Trackpoint>
            <Time>2021-07-28T08:49:14.000Z</Time>
            <Position>
              <LatitudeDegrees>41.3232203386723995208740234375</LatitudeDegrees>
              <LongitudeDegrees>-2.8314670734107494354248046875</LongitudeDegrees>
            </Position>
            <AltitudeMeters>1125.5999755859375</AltitudeMeters>
            <DistanceMeters>101040.79497124</DistanceMeters>
          </Trackpoint>
          <Trackpoint>
            <Time>2021-07-28T08:49:20.000Z</Time>
            <Position>
              <LatitudeDegrees>41.32354530505836009979248046875</LatitudeDegrees>
              <LongitudeDegrees>-2.83163043670356273651123046875</LongitudeDegrees>
            </Position>
            <AltitudeMeters>1124.5999755859375</AltitudeMeters>
            <DistanceMeters>101079.45624868</DistanceMeters>
          </Trackpoint>
          <Trackpoint>
            <Time>2021-07-28T08:49:26.000Z</Time>
            <Position>
              <LatitudeDegrees>41.3238845206797122955322265625</LatitudeDegrees>
              <LongitudeDegrees>-2.83178466372191905975341796875</LongitudeDegrees>
            </Position>
            <AltitudeMeters>1123.5999755859375</AltitudeMeters>
            <DistanceMeters>101119.35162779</DistanceMeters>
          </Trackpoint>
          <Trackpoint>
            <Time>2021-07-28T08:49:28.000Z</Time>
            <Position>
              <LatitudeDegrees>41.32400262169539928436279296875</LatitudeDegrees>
              <LongitudeDegrees>-2.83179522491991519927978515625</LongitudeDegrees>
            </Position>
            <AltitudeMeters>1123.5999755859375</AltitudeMeters>
            <DistanceMeters>101132.52577175</DistanceMeters>
          </Trackpoint>
          <Trackpoint>
            <Time>2021-07-28T08:49:39.000Z</Time>
            <Position>
              <LatitudeDegrees>41.32451735436916351318359375</LatitudeDegrees>
              <LongitudeDegrees>-2.831872589886188507080078125</LongitudeDegrees>
            </Position>
            <AltitudeMeters>1124.800048828125</AltitudeMeters>
            <DistanceMeters>101190.18036749</DistanceMeters>
          </Trackpoint>
          <Trackpoint>
            <Time>2021-07-28T08:49:42.000Z</Time>
            <Position>
              <LatitudeDegrees>41.32462237961590290069580078125</LatitudeDegrees>
              <LongitudeDegrees>-2.83192447386682033538818359375</LongitudeDegrees>
            </Position>
            <AltitudeMeters>1124.5999755859375</AltitudeMeters>
            <DistanceMeters>101202.64843735</DistanceMeters>
          </Trackpoint>
          <Trackpoint>
            <Time>2021-07-28T08:49:44.000Z</Time>
            <Position>
              <LatitudeDegrees>41.32472648285329341888427734375</LatitudeDegrees>
              <LongitudeDegrees>-2.831941656768321990966796875</LongitudeDegrees>
            </Position>
            <AltitudeMeters>1123.199951171875</AltitudeMeters>
            <DistanceMeters>101214.32396877</DistanceMeters>
          </Trackpoint>
          <Trackpoint>
            <Time>2021-07-28T08:49:45.000Z</Time>
            <Position>
              <LatitudeDegrees>41.324786581099033355712890625</LatitudeDegrees>
              <LongitudeDegrees>-2.83194224350154399871826171875</LongitudeDegrees>
            </Position>
            <AltitudeMeters>1122.5999755859375</AltitudeMeters>
            <DistanceMeters>101221.01306653</DistanceMeters>
          </Trackpoint>
          <Trackpoint>
            <Time>2021-07-28T08:49:46.000Z</Time>
            <Position>
              <LatitudeDegrees>41.32485053502023220062255859375</LatitudeDegrees>
              <LongitudeDegrees>-2.8319391421973705291748046875</LongitudeDegrees>
            </Position>
            <AltitudeMeters>1122</AltitudeMeters>
            <DistanceMeters>101228.13563414</DistanceMeters>
          </Trackpoint>
          <Trackpoint>
            <Time>2021-07-28T08:49:48.000Z</Time>
            <Position>
              <LatitudeDegrees>41.3249838910996913909912109375</LatitudeDegrees>
              <LongitudeDegrees>-2.83193461596965789794921875</LongitudeDegrees>
            </Position>
            <AltitudeMeters>1121</AltitudeMeters>
            <DistanceMeters>101242.98293107</DistanceMeters>
          </Trackpoint>
          <Trackpoint>
            <Time>2021-07-28T08:49:52.000Z</Time>
            <Position>
              <LatitudeDegrees>41.32524699904024600982666015625</LatitudeDegrees>
              <LongitudeDegrees>-2.83193059265613555908203125</LongitudeDegrees>
            </Position>
            <AltitudeMeters>1120.4000244140625</AltitudeMeters>
            <DistanceMeters>101272.26920244</DistanceMeters>
          </Trackpoint>
          <Trackpoint>
            <Time>2021-07-28T08:49:56.000Z</Time>
            <Position>
              <LatitudeDegrees>41.325481943786144256591796875</LatitudeDegrees>
              <LongitudeDegrees>-2.83193352632224559783935546875</LongitudeDegrees>
            </Position>
            <AltitudeMeters>1120.4000244140625</AltitudeMeters>
            <DistanceMeters>101298.42037468</DistanceMeters>
          </Trackpoint>
          <Trackpoint>
            <Time>2021-07-28T08:49:58.000Z</Time>
            <Position>
              <LatitudeDegrees>41.32556048221886157989501953125</LatitudeDegrees>
              <LongitudeDegrees>-2.83198666758835315704345703125</LongitudeDegrees>
            </Position>
            <AltitudeMeters>1120</AltitudeMeters>
            <DistanceMeters>101308.22563979</DistanceMeters>
          </Trackpoint>
          <Trackpoint>
            <Time>2021-07-28T08:50:00.000Z</Time>
            <Position>
              <LatitudeDegrees>41.32561027072370052337646484375</LatitudeDegrees>
              <LongitudeDegrees>-2.83208959735929965972900390625</LongitudeDegrees>
            </Position>
            <AltitudeMeters>1119.5999755859375</AltitudeMeters>
            <DistanceMeters>101318.45944781</DistanceMeters>
          </Trackpoint>
          <Trackpoint>
            <Time>2021-07-28T08:50:03.000Z</Time>
            <Position>
              <LatitudeDegrees>41.32568554021418094635009765625</LatitudeDegrees>
              <LongitudeDegrees>-2.832299731671810150146484375</LongitudeDegrees>
            </Position>
            <AltitudeMeters>1118.4000244140625</AltitudeMeters>
            <DistanceMeters>101337.91928558</DistanceMeters>
          </Trackpoint>
          <Trackpoint>
            <Time>2021-07-28T08:50:05.000Z</Time>
            <Position>
              <LatitudeDegrees>41.3257451355457305908203125</LatitudeDegrees>
              <LongitudeDegrees>-2.8324784338474273681640625</LongitudeDegrees>
            </Position>
            <AltitudeMeters>1116.5999755859375</AltitudeMeters>
            <DistanceMeters>101354.26277545</DistanceMeters>
          </Trackpoint>
          <Trackpoint>
            <Time>2021-07-28T08:50:06.000Z</Time>
            <Position>
              <LatitudeDegrees>41.3257805071771144866943359375</LatitudeDegrees>
              <LongitudeDegrees>-2.83257566392421722412109375</LongitudeDegrees>
            </Position>
            <AltitudeMeters>1115</AltitudeMeters>
            <DistanceMeters>101363.29281367</DistanceMeters>
          </Trackpoint>
          <Trackpoint>
            <Time>2021-07-28T08:50:07.000Z</Time>
            <Position>
              <LatitudeDegrees>41.32581881247460842132568359375</LatitudeDegrees>
              <LongitudeDegrees>-2.8326733969151973724365234375</LongitudeDegrees>
            </Position>
            <AltitudeMeters>1113.800048828125</AltitudeMeters>
            <DistanceMeters>101372.50746552</DistanceMeters>
          </Trackpoint>
          <Trackpoint>
            <Time>2021-07-28T08:50:09.000Z</Time>
            <Position>
              <LatitudeDegrees>41.3259025476872920989990234375</LatitudeDegrees>
              <LongitudeDegrees>-2.83285939134657382965087890625</LongitudeDegrees>
            </Position>
            <AltitudeMeters>1112.5999755859375</AltitudeMeters>
            <DistanceMeters>101390.63342209</DistanceMeters>
          </Trackpoint>
          <Trackpoint>
            <Time>2021-07-28T08:50:16.000Z</Time>
            <Position>
              <LatitudeDegrees>41.3262076489627361297607421875</LatitudeDegrees>
              <LongitudeDegrees>-2.83334277570247650146484375</LongitudeDegrees>
            </Position>
            <AltitudeMeters>1114</AltitudeMeters>
            <DistanceMeters>101443.41201549</DistanceMeters>
          </Trackpoint>
          <Trackpoint>
            <Time>2021-07-28T08:50:18.000Z</Time>
            <Position>
              <LatitudeDegrees>41.3262787275016307830810546875</LatitudeDegrees>
              <LongitudeDegrees>-2.83342751674354076385498046875</LongitudeDegrees>
            </Position>
            <AltitudeMeters>1115.199951171875</AltitudeMeters>
            <DistanceMeters>101454.03037386</DistanceMeters>
          </Trackpoint>
          <Trackpoint>
            <Time>2021-07-28T08:50:23.000Z</Time>
            <Position>
              <LatitudeDegrees>41.32642197422683238983154296875</LatitudeDegrees>
              <LongitudeDegrees>-2.833597250282764434814453125</LongitudeDegrees>
            </Position>
            <AltitudeMeters>1116.199951171875</AltitudeMeters>
            <DistanceMeters>101475.3722823</DistanceMeters>
          </Trackpoint>
          <Trackpoint>
            <Time>2021-07-28T08:50:32.000Z</Time>
            <Position>
              <LatitudeDegrees>41.3267015106976032257080078125</LatitudeDegrees>
              <LongitudeDegrees>-2.8339417465031147003173828125</LongitudeDegrees>
            </Position>
            <AltitudeMeters>1115</AltitudeMeters>
            <DistanceMeters>101517.76463578</DistanceMeters>
          </Trackpoint>
          <Trackpoint>
            <Time>2021-07-28T08:50:38.000Z</Time>
            <Position>
              <LatitudeDegrees>41.32692572660744190216064453125</LatitudeDegrees>
              <LongitudeDegrees>-2.83422228880226612091064453125</LongitudeDegrees>
            </Position>
            <AltitudeMeters>1113.800048828125</AltitudeMeters>
            <DistanceMeters>101552.00815541</DistanceMeters>
          </Trackpoint>
          <Trackpoint>
            <Time>2021-07-28T08:50:43.000Z</Time>
            <Position>
              <LatitudeDegrees>41.32713024504482746124267578125</LatitudeDegrees>
              <LongitudeDegrees>-2.83446662127971649169921875</LongitudeDegrees>
            </Position>
            <AltitudeMeters>1112.800048828125</AltitudeMeters>
            <DistanceMeters>101582.58963603</DistanceMeters>
          </Trackpoint>
          <Trackpoint>
            <Time>2021-07-28T08:50:49.000Z</Time>
            <Position>
              <LatitudeDegrees>41.32739360444247722625732421875</LatitudeDegrees>
              <LongitudeDegrees>-2.83478421159088611602783203125</LongitudeDegrees>
            </Position>
            <AltitudeMeters>1111.800048828125</AltitudeMeters>
            <DistanceMeters>101622.13525183</DistanceMeters>
          </Trackpoint>
          <Trackpoint>
            <Time>2021-07-28T08:51:00.000Z</Time>
            <Position>
              <LatitudeDegrees>41.32780901156365871429443359375</LatitudeDegrees>
              <LongitudeDegrees>-2.83528293482959270477294921875</LongitudeDegrees>
            </Position>
            <AltitudeMeters>1112.199951171875</AltitudeMeters>
            <DistanceMeters>101684.38725169</DistanceMeters>
          </Trackpoint>
          <Trackpoint>
            <Time>2021-07-28T08:51:03.000Z</Time>
            <Position>
              <LatitudeDegrees>41.32788226939737796783447265625</LatitudeDegrees>
              <LongitudeDegrees>-2.83537454903125762939453125</LongitudeDegrees>
            </Position>
            <AltitudeMeters>1113</AltitudeMeters>
            <DistanceMeters>101695.57298989</DistanceMeters>
          </Trackpoint>
          <Trackpoint>
            <Time>2021-07-28T08:51:06.000Z</Time>
            <Position>
              <LatitudeDegrees>41.32793985307216644287109375</LatitudeDegrees>
              <LongitudeDegrees>-2.8354531712830066680908203125</LongitudeDegrees>
            </Position>
            <AltitudeMeters>1114.4000244140625</AltitudeMeters>
            <DistanceMeters>101704.75180317</DistanceMeters>
          </Trackpoint>
          <Trackpoint>
            <Time>2021-07-28T08:51:12.000Z</Time>
            <Position>
              <LatitudeDegrees>41.32804253138601779937744140625</LatitudeDegrees>
              <LongitudeDegrees>-2.83558786846697330474853515625</LongitudeDegrees>
            </Position>
            <AltitudeMeters>1115.4000244140625</AltitudeMeters>
            <DistanceMeters>101720.7938775</DistanceMeters>
          </Trackpoint>
          <Trackpoint>
            <Time>2021-07-28T08:51:17.000Z</Time>
            <Position>
              <LatitudeDegrees>41.32812819443643093109130859375</LatitudeDegrees>
              <LongitudeDegrees>-2.83569448627531528472900390625</LongitudeDegrees>
            </Position>
            <AltitudeMeters>1116.5999755859375</AltitudeMeters>
            <DistanceMeters>101733.8447511</DistanceMeters>
          </Trackpoint>
          <Trackpoint>
            <Time>2021-07-28T08:51:22.000Z</Time>
            <Position>
              <LatitudeDegrees>41.32821335457265377044677734375</LatitudeDegrees>
              <LongitudeDegrees>-2.83579439856112003326416015625</LongitudeDegrees>
            </Position>
            <AltitudeMeters>1117.5999755859375</AltitudeMeters>
            <DistanceMeters>101746.4768721</DistanceMeters>
          </Trackpoint>
          <Trackpoint>
            <Time>2021-07-28T08:51:28.000Z</Time>
            <Position>
              <LatitudeDegrees>41.32832064293324947357177734375</LatitudeDegrees>
              <LongitudeDegrees>-2.83592113293707370758056640625</LongitudeDegrees>
            </Position>
            <AltitudeMeters>1118.5999755859375</AltitudeMeters>
            <DistanceMeters>101762.43966312</DistanceMeters>
          </Trackpoint>
          <Trackpoint>
            <Time>2021-07-28T08:51:36.000Z</Time>
            <Position>
              <LatitudeDegrees>41.32847688160836696624755859375</LatitudeDegrees>
              <LongitudeDegrees>-2.83608667552471160888671875</LongitudeDegrees>
            </Position>
            <AltitudeMeters>1119.800048828125</AltitudeMeters>
            <DistanceMeters>101784.66210269</DistanceMeters>
          </Trackpoint>
          <Trackpoint>
            <Time>2021-07-28T08:51:42.000Z</Time>
            <Position>
              <LatitudeDegrees>41.32859825156629085540771484375</LatitudeDegrees>
              <LongitudeDegrees>-2.8362335264682769775390625</LongitudeDegrees>
            </Position>
            <AltitudeMeters>1120.199951171875</AltitudeMeters>
            <DistanceMeters>101802.91415956</DistanceMeters>
          </Trackpoint>
          <Trackpoint>
            <Time>2021-07-28T08:51:59.000Z</Time>
            <Position>
              <LatitudeDegrees>41.328965462744235992431640625</LatitudeDegrees>
              <LongitudeDegrees>-2.8366933576762676239013671875</LongitudeDegrees>
            </Position>
            <AltitudeMeters>1120.800048828125</AltitudeMeters>
            <DistanceMeters>101859.01719456</DistanceMeters>
          </Trackpoint>
          <Trackpoint>
            <Time>2021-07-28T08:52:14.000Z</Time>
            <Position>
              <LatitudeDegrees>41.32934692315757274627685546875</LatitudeDegrees>
              <LongitudeDegrees>-2.83721454441547393798828125</LongitudeDegrees>
            </Position>
            <AltitudeMeters>1120</AltitudeMeters>
            <DistanceMeters>101919.84609471</DistanceMeters>
          </Trackpoint>
          <Trackpoint>
            <Time>2021-07-28T08:52:16.000Z</Time>
            <Position>
              <LatitudeDegrees>41.32940056733787059783935546875</LatitudeDegrees>
              <LongitudeDegrees>-2.8373010456562042236328125</LongitudeDegrees>
            </Position>
            <AltitudeMeters>1119.800048828125</AltitudeMeters>
            <DistanceMeters>101929.2224919</DistanceMeters>
          </Trackpoint>
          <Trackpoint>
            <Time>2021-07-28T08:52:29.000Z</Time>
            <Position>
              <LatitudeDegrees>41.32975168526172637939453125</LatitudeDegrees>
              <LongitudeDegrees>-2.837853915989398956298828125</LongitudeDegrees>
            </Position>
            <AltitudeMeters>1119.800048828125</AltitudeMeters>
            <DistanceMeters>101989.74093219</DistanceMeters>
          </Trackpoint>
          <Trackpoint>
            <Time>2021-07-28T08:52:39.000Z</Time>
            <Position>
              <LatitudeDegrees>41.32994254119694232940673828125</LatitudeDegrees>
              <LongitudeDegrees>-2.83818013966083526611328125</LongitudeDegrees>
            </Position>
            <AltitudeMeters>1121</AltitudeMeters>
            <DistanceMeters>102024.30467075</DistanceMeters>
          </Trackpoint>
          <Trackpoint>
            <Time>2021-07-28T08:52:53.000Z</Time>
            <Position>
              <LatitudeDegrees>41.33021160028874874114990234375</LatitudeDegrees>
              <LongitudeDegrees>-2.83859454095363616943359375</LongitudeDegrees>
            </Position>
            <AltitudeMeters>1122</AltitudeMeters>
            <DistanceMeters>102070.09118063</DistanceMeters>
          </Trackpoint>
          <Trackpoint>
            <Time>2021-07-28T08:53:11.000Z</Time>
            <Position>
              <LatitudeDegrees>41.33055341430008411407470703125</LatitudeDegrees>
              <LongitudeDegrees>-2.83915939740836620330810546875</LongitudeDegrees>
            </Position>
            <AltitudeMeters>1122.800048828125</AltitudeMeters>
            <DistanceMeters>102130.72246917</DistanceMeters>
          </Trackpoint>
          <Trackpoint>
            <Time>2021-07-28T08:53:13.000Z</Time>
            <Position>
              <LatitudeDegrees>41.330592893064022064208984375</LatitudeDegrees>
              <LongitudeDegrees>-2.83921572379767894744873046875</LongitudeDegrees>
            </Position>
            <AltitudeMeters>1123</AltitudeMeters>
            <DistanceMeters>102137.16258882</DistanceMeters>
          </Trackpoint>
          <Trackpoint>
            <Time>2021-07-28T08:53:22.000Z</Time>
            <Position>
              <LatitudeDegrees>41.330753825604915618896484375</LatitudeDegrees>
              <LongitudeDegrees>-2.83946734853088855743408203125</LongitudeDegrees>
            </Position>
            <AltitudeMeters>1124</AltitudeMeters>
            <DistanceMeters>102164.7867746</DistanceMeters>
          </Trackpoint>
          <Trackpoint>
            <Time>2021-07-28T08:53:33.000Z</Time>
            <Position>
              <LatitudeDegrees>41.33092858828604221343994140625</LatitudeDegrees>
              <LongitudeDegrees>-2.8397430293262004852294921875</LongitudeDegrees>
            </Position>
            <AltitudeMeters>1125.199951171875</AltitudeMeters>
            <DistanceMeters>102194.94035477</DistanceMeters>
          </Trackpoint>
          <Trackpoint>
            <Time>2021-07-28T08:53:48.000Z</Time>
            <Position>
              <LatitudeDegrees>41.33122463710606098175048828125</LatitudeDegrees>
              <LongitudeDegrees>-2.8402707539498805999755859375</LongitudeDegrees>
            </Position>
            <AltitudeMeters>1123.800048828125</AltitudeMeters>
            <DistanceMeters>102249.99560529</DistanceMeters>
          </Trackpoint>
          <Trackpoint>
            <Time>2021-07-28T08:53:50.000Z</Time>
            <Position>
              <LatitudeDegrees>41.3312957994639873504638671875</LatitudeDegrees>
              <LongitudeDegrees>-2.84039690159261226654052734375</LongitudeDegrees>
            </Position>
            <AltitudeMeters>1122.5999755859375</AltitudeMeters>
            <DistanceMeters>102263.18242379</DistanceMeters>
          </Trackpoint>
          <Trackpoint>
            <Time>2021-07-28T08:53:52.000Z</Time>
            <Position>
              <LatitudeDegrees>41.33138288743793964385986328125</LatitudeDegrees>
              <LongitudeDegrees>-2.8405357897281646728515625</LongitudeDegrees>
            </Position>
            <AltitudeMeters>1121.199951171875</AltitudeMeters>
            <DistanceMeters>102278.30511257</DistanceMeters>
          </Trackpoint>
          <Trackpoint>
            <Time>2021-07-28T08:53:55.000Z</Time>
            <Position>
              <LatitudeDegrees>41.33152320049703121185302734375</LatitudeDegrees>
              <LongitudeDegrees>-2.84075631760060787200927734375</LongitudeDegrees>
            </Position>
            <AltitudeMeters>1120.199951171875</AltitudeMeters>
            <DistanceMeters>102302.46283971</DistanceMeters>
          </Trackpoint>
          <Trackpoint>
            <Time>2021-07-28T08:53:57.000Z</Time>
            <Position>
              <LatitudeDegrees>41.3316233642399311065673828125</LatitudeDegrees>
              <LongitudeDegrees>-2.840893529355525970458984375</LongitudeDegrees>
            </Position>
            <AltitudeMeters>1119.4000244140625</AltitudeMeters>
            <DistanceMeters>102318.45643141</DistanceMeters>
          </Trackpoint>
          <Trackpoint>
            <Time>2021-07-28T08:54:01.000Z</Time>
            <Position>
              <LatitudeDegrees>41.3318466581404209136962890625</LatitudeDegrees>
              <LongitudeDegrees>-2.841098718345165252685546875</LongitudeDegrees>
            </Position>
            <AltitudeMeters>1118.800048828125</AltitudeMeters>
            <DistanceMeters>102348.65175867</DistanceMeters>
          </Trackpoint>
          <Trackpoint>
            <Time>2021-07-28T08:54:11.000Z</Time>
            <Position>
              <LatitudeDegrees>41.33232467807829380035400390625</LatitudeDegrees>
              <LongitudeDegrees>-2.841458134353160858154296875</LongitudeDegrees>
            </Position>
            <AltitudeMeters>1119.800048828125</AltitudeMeters>
            <DistanceMeters>102409.75046293</DistanceMeters>
          </Trackpoint>
          <Trackpoint>
            <Time>2021-07-28T08:54:12.000Z</Time>
            <Position>
              <LatitudeDegrees>41.33236390538513660430908203125</LatitudeDegrees>
              <LongitudeDegrees>-2.8414871357381343841552734375</LongitudeDegrees>
            </Position>
            <AltitudeMeters>1120.199951171875</AltitudeMeters>
            <DistanceMeters>102414.74456656</DistanceMeters>
          </Trackpoint>
          <Trackpoint>
            <Time>2021-07-28T08:54:16.000Z</Time>
            <Position>
              <LatitudeDegrees>41.3325037993490695953369140625</LatitudeDegrees>
              <LongitudeDegrees>-2.84159618429839611053466796875</LongitudeDegrees>
            </Position>
            <AltitudeMeters>1121.199951171875</AltitudeMeters>
            <DistanceMeters>102432.78613344</DistanceMeters>
          </Trackpoint>
          <Trackpoint>
            <Time>2021-07-28T08:54:26.000Z</Time>
            <Position>
              <LatitudeDegrees>41.33278434164822101593017578125</LatitudeDegrees>
              <LongitudeDegrees>-2.8418022952973842620849609375</LongitudeDegrees>
            </Position>
            <AltitudeMeters>1122.4000244140625</AltitudeMeters>
            <DistanceMeters>102468.44736906</DistanceMeters>
          </Trackpoint>
          <Trackpoint>
            <Time>2021-07-28T08:54:33.000Z</Time>
            <Position>
              <LatitudeDegrees>41.3329597748816013336181640625</LatitudeDegrees>
              <LongitudeDegrees>-2.8419337235391139984130859375</LongitudeDegrees>
            </Position>
            <AltitudeMeters>1123.4000244140625</AltitudeMeters>
            <DistanceMeters>102490.85111359</DistanceMeters>
          </Trackpoint>
          <Trackpoint>
            <Time>2021-07-28T08:54:44.000Z</Time>
            <Position>
              <LatitudeDegrees>41.33323109708726406097412109375</LatitudeDegrees>
              <LongitudeDegrees>-2.84213664941489696502685546875</LongitudeDegrees>
            </Position>
            <AltitudeMeters>1124.4000244140625</AltitudeMeters>
            <DistanceMeters>102525.48623269</DistanceMeters>
          </Trackpoint>
          <Trackpoint>
            <Time>2021-07-28T08:54:57.000Z</Time>
            <Position>
              <LatitudeDegrees>41.3335344381630420684814453125</LatitudeDegrees>
              <LongitudeDegrees>-2.84238693304359912872314453125</LongitudeDegrees>
            </Position>
            <AltitudeMeters>1125.5999755859375</AltitudeMeters>
            <DistanceMeters>102565.20330703</DistanceMeters>
          </Trackpoint>
          <Trackpoint>
            <Time>2021-07-28T08:55:15.000Z</Time>
            <Position>
              <LatitudeDegrees>41.333975158631801605224609375</LatitudeDegrees>
              <LongitudeDegrees>-2.84284072928130626678466796875</LongitudeDegrees>
            </Position>
            <AltitudeMeters>1125.5999755859375</AltitudeMeters>
            <DistanceMeters>102627.20778305</DistanceMeters>
          </Trackpoint>
          <Trackpoint>
            <Time>2021-07-28T08:55:33.000Z</Time>
            <Position>
              <LatitudeDegrees>41.3344152085483074188232421875</LatitudeDegrees>
              <LongitudeDegrees>-2.84331858158111572265625</LongitudeDegrees>
            </Position>
            <AltitudeMeters>1126.4000244140625</AltitudeMeters>
            <DistanceMeters>102690.40397755</DistanceMeters>
          </Trackpoint>
          <Trackpoint>
            <Time>2021-07-28T08:55:51.000Z</Time>
            <Position>
              <LatitudeDegrees>41.33482734672725200653076171875</LatitudeDegrees>
              <LongitudeDegrees>-2.84380473196506500244140625</LongitudeDegrees>
            </Position>
            <AltitudeMeters>1126</AltitudeMeters>
            <DistanceMeters>102751.6815474</DistanceMeters>
          </Trackpoint>
          <Trackpoint>
            <Time>2021-07-28T08:56:00.000Z</Time>
            <Position>
              <LatitudeDegrees>41.3351320289075374603271484375</LatitudeDegrees>
              <LongitudeDegrees>-2.84413464367389678955078125</LongitudeDegrees>
            </Position>
            <AltitudeMeters>1124.5999755859375</AltitudeMeters>
            <DistanceMeters>102795.38722496</DistanceMeters>
          </Trackpoint>
          <Trackpoint>
            <Time>2021-07-28T08:56:03.000Z</Time>
            <Position>
              <LatitudeDegrees>41.33525960147380828857421875</LatitudeDegrees>
              <LongitudeDegrees>-2.8442680835723876953125</LongitudeDegrees>
            </Position>
            <AltitudeMeters>1123.4000244140625</AltitudeMeters>
            <DistanceMeters>102813.44180054</DistanceMeters>
          </Trackpoint>
          <Trackpoint>
            <Time>2021-07-28T08:56:06.000Z</Time>
            <Position>
              <LatitudeDegrees>41.3354005850851535797119140625</LatitudeDegrees>
              <LongitudeDegrees>-2.84441803582012653350830078125</LongitudeDegrees>
            </Position>
            <AltitudeMeters>1122.199951171875</AltitudeMeters>
            <DistanceMeters>102833.52371315</DistanceMeters>
          </Trackpoint>
          <Trackpoint>
            <Time>2021-07-28T08:56:10.000Z</Time>
            <Position>
              <LatitudeDegrees>41.335607953369617462158203125</LatitudeDegrees>
              <LongitudeDegrees>-2.8446387313306331634521484375</LongitudeDegrees>
            </Position>
            <AltitudeMeters>1121</AltitudeMeters>
            <DistanceMeters>102863.0683118</DistanceMeters>
          </Trackpoint>
          <Trackpoint>
            <Time>2021-07-28T08:56:14.000Z</Time>
            <Position>
              <LatitudeDegrees>41.33582965470850467681884765625</LatitudeDegrees>
              <LongitudeDegrees>-2.84488708712160587310791015625</LongitudeDegrees>
            </Position>
            <AltitudeMeters>1119.800048828125</AltitudeMeters>
            <DistanceMeters>102895.31248773</DistanceMeters>
          </Trackpoint>
          <Trackpoint>
            <Time>2021-07-28T08:56:16.000Z</Time>
            <Position>
              <LatitudeDegrees>41.33595186285674571990966796875</LatitudeDegrees>
              <LongitudeDegrees>-2.8450145758688449859619140625</LongitudeDegrees>
            </Position>
            <AltitudeMeters>1118.5999755859375</AltitudeMeters>
            <DistanceMeters>102912.59063367</DistanceMeters>
          </Trackpoint>
          <Trackpoint>
            <Time>2021-07-28T08:56:19.000Z</Time>
            <Position>
              <LatitudeDegrees>41.3361412100493907928466796875</LatitudeDegrees>
              <LongitudeDegrees>-2.8452227823436260223388671875</LongitudeDegrees>
            </Position>
            <AltitudeMeters>1117.199951171875</AltitudeMeters>
            <DistanceMeters>102939.92035637</DistanceMeters>
          </Trackpoint>
          <Trackpoint>
            <Time>2021-07-28T08:56:21.000Z</Time>
            <Position>
              <LatitudeDegrees>41.33627205155789852142333984375</LatitudeDegrees>
              <LongitudeDegrees>-2.8453699685633182525634765625</LongitudeDegrees>
            </Position>
            <AltitudeMeters>1116.199951171875</AltitudeMeters>
            <DistanceMeters>102958.98286686</DistanceMeters>
          </Trackpoint>
          <Trackpoint>
            <Time>2021-07-28T08:56:24.000Z</Time>
            <Position>
              <LatitudeDegrees>41.33647606708109378814697265625</LatitudeDegrees>
              <LongitudeDegrees>-2.8455922566354274749755859375</LongitudeDegrees>
            </Position>
            <AltitudeMeters>1115</AltitudeMeters>
            <DistanceMeters>102988.32089332</DistanceMeters>
          </Trackpoint>
          <Trackpoint>
            <Time>2021-07-28T08:56:28.000Z</Time>
            <Position>
              <LatitudeDegrees>41.3367681764066219329833984375</LatitudeDegrees>
              <LongitudeDegrees>-2.84589023329317569732666015625</LongitudeDegrees>
            </Position>
            <AltitudeMeters>1113.199951171875</AltitudeMeters>
            <DistanceMeters>103029.27421014</DistanceMeters>
          </Trackpoint>
          <Trackpoint>
            <Time>2021-07-28T08:56:30.000Z</Time>
            <Position>
              <LatitudeDegrees>41.336914189159870147705078125</LatitudeDegrees>
              <LongitudeDegrees>-2.84605066291987895965576171875</LongitudeDegrees>
            </Position>
            <AltitudeMeters>1112</AltitudeMeters>
            <DistanceMeters>103050.34229922</DistanceMeters>
          </Trackpoint>
          <Trackpoint>
            <Time>2021-07-28T08:56:32.000Z</Time>
            <Position>
              <LatitudeDegrees>41.33706162683665752410888671875</LatitudeDegrees>
              <LongitudeDegrees>-2.84621176309883594512939453125</LongitudeDegrees>
            </Position>
            <AltitudeMeters>1111</AltitudeMeters>
            <DistanceMeters>103071.56859574</DistanceMeters>
          </Trackpoint>
          <Trackpoint>
            <Time>2021-07-28T08:56:37.000Z</Time>
            <Position>
              <LatitudeDegrees>41.33736052550375461578369140625</LatitudeDegrees>
              <LongitudeDegrees>-2.8466279245913028717041015625</LongitudeDegrees>
            </Position>
            <AltitudeMeters>1109.800048828125</AltitudeMeters>
            <DistanceMeters>103119.69660119</DistanceMeters>
          </Trackpoint>
          <Trackpoint>
            <Time>2021-07-28T08:56:40.000Z</Time>
            <Position>
              <LatitudeDegrees>41.337475441396236419677734375</LatitudeDegrees>
              <LongitudeDegrees>-2.846858091652393341064453125</LongitudeDegrees>
            </Position>
            <AltitudeMeters>1109.4000244140625</AltitudeMeters>
            <DistanceMeters>103142.79591259</DistanceMeters>
          </Trackpoint>
          <Trackpoint>
            <Time>2021-07-28T08:56:44.000Z</Time>
            <Position>
              <LatitudeDegrees>41.33758080191910266876220703125</LatitudeDegrees>
              <LongitudeDegrees>-2.84711684100329875946044921875</LongitudeDegrees>
            </Position>
            <AltitudeMeters>1109</AltitudeMeters>
            <DistanceMeters>103167.39480327</DistanceMeters>
          </Trackpoint>
          <Trackpoint>
            <Time>2021-07-28T08:56:45.000Z</Time>
            <Position>
              <LatitudeDegrees>41.33762002922594547271728515625</LatitudeDegrees>
              <LongitudeDegrees>-2.8471543081104755401611328125</LongitudeDegrees>
            </Position>
            <AltitudeMeters>1108.5999755859375</AltitudeMeters>
            <DistanceMeters>103172.76864588</DistanceMeters>
          </Trackpoint>
          <Trackpoint>
            <Time>2021-07-28T08:56:49.000Z</Time>
            <Position>
              <LatitudeDegrees>41.33780845440924167633056640625</LatitudeDegrees>
              <LongitudeDegrees>-2.84711767919361591339111328125</LongitudeDegrees>
            </Position>
            <AltitudeMeters>1107.199951171875</AltitudeMeters>
            <DistanceMeters>103193.96279891</DistanceMeters>
          </Trackpoint>
          <Trackpoint>
            <Time>2021-07-28T08:56:51.000Z</Time>
            <Position>
              <LatitudeDegrees>41.33789109997451305389404296875</LatitudeDegrees>
              <LongitudeDegrees>-2.84701944328844547271728515625</LongitudeDegrees>
            </Position>
            <AltitudeMeters>1106.199951171875</AltitudeMeters>
            <DistanceMeters>103206.29212602</DistanceMeters>
          </Trackpoint>
          <Trackpoint>
            <Time>2021-07-28T08:56:52.000Z</Time>
            <Position>
              <LatitudeDegrees>41.33793166838586330413818359375</LatitudeDegrees>
              <LongitudeDegrees>-2.84696705639362335205078125</LongitudeDegrees>
            </Position>
            <AltitudeMeters>1105.800048828125</AltitudeMeters>
            <DistanceMeters>103212.58114302</DistanceMeters>
          </Trackpoint>
          <Trackpoint>
            <Time>2021-07-28T08:56:55.000Z</Time>
            <Position>
              <LatitudeDegrees>41.338062174618244171142578125</LatitudeDegrees>
              <LongitudeDegrees>-2.84680972807109355926513671875</LongitudeDegrees>
            </Position>
            <AltitudeMeters>1104.5999755859375</AltitudeMeters>
            <DistanceMeters>103232.1734762</DistanceMeters>
          </Trackpoint>
          <Trackpoint>
            <Time>2021-07-28T08:56:58.000Z</Time>
            <Position>
              <LatitudeDegrees>41.338190250098705291748046875</LatitudeDegrees>
              <LongitudeDegrees>-2.84664024598896503448486328125</LongitudeDegrees>
            </Position>
            <AltitudeMeters>1103.5999755859375</AltitudeMeters>
            <DistanceMeters>103252.26842478</DistanceMeters>
          </Trackpoint>
          <Trackpoint>
            <Time>2021-07-28T08:57:08.000Z</Time>
            <Position>
              <LatitudeDegrees>41.33853265084326267242431640625</LatitudeDegrees>
              <LongitudeDegrees>-2.84600816667079925537109375</LongitudeDegrees>
            </Position>
            <AltitudeMeters>1102.5999755859375</AltitudeMeters>
            <DistanceMeters>103317.40277382</DistanceMeters>
          </Trackpoint>
          <Trackpoint>
            <Time>2021-07-28T08:57:09.000Z</Time>
            <Position>
              <LatitudeDegrees>41.33855930529534816741943359375</LatitudeDegrees>
              <LongitudeDegrees>-2.8459449671208858489990234375</LongitudeDegrees>
            </Position>
            <AltitudeMeters>1102.4000244140625</AltitudeMeters>
            <DistanceMeters>103323.45993492</DistanceMeters>
          </Trackpoint>
          <Trackpoint>
            <Time>2021-07-28T08:57:14.000Z</Time>
            <Position>
              <LatitudeDegrees>41.3386765681207180023193359375</LatitudeDegrees>
              <LongitudeDegrees>-2.8456573002040386199951171875</LongitudeDegrees>
            </Position>
            <AltitudeMeters>1102.800048828125</AltitudeMeters>
            <DistanceMeters>103350.8140972</DistanceMeters>
          </Trackpoint>
          <Trackpoint>
            <Time>2021-07-28T08:57:17.000Z</Time>
            <Position>
              <LatitudeDegrees>41.33875728584825992584228515625</LatitudeDegrees>
              <LongitudeDegrees>-2.8455327451229095458984375</LongitudeDegrees>
            </Position>
            <AltitudeMeters>1103.199951171875</AltitudeMeters>
            <DistanceMeters>103364.56377649</DistanceMeters>
          </Trackpoint>
          <Trackpoint>
            <Time>2021-07-28T08:57:29.000Z</Time>
            <Position>
              <LatitudeDegrees>41.33914654143154621124267578125</LatitudeDegrees>
              <LongitudeDegrees>-2.84496235661208629608154296875</LongitudeDegrees>
            </Position>
            <AltitudeMeters>1101.800048828125</AltitudeMeters>
            <DistanceMeters>103428.97717062</DistanceMeters>
          </Trackpoint>
          <Trackpoint>
            <Time>2021-07-28T08:57:30.000Z</Time>
            <Position>
              <LatitudeDegrees>41.3391925580799579620361328125</LatitudeDegrees>
              <LongitudeDegrees>-2.844914495944976806640625</LongitudeDegrees>
            </Position>
            <AltitudeMeters>1101</AltitudeMeters>
            <DistanceMeters>103435.47521936</DistanceMeters>
          </Trackpoint>
          <Trackpoint>
            <Time>2021-07-28T08:57:33.000Z</Time>
            <Position>
              <LatitudeDegrees>41.33934938348829746246337890625</LatitudeDegrees>
              <LongitudeDegrees>-2.84476923756301403045654296875</LongitudeDegrees>
            </Position>
            <AltitudeMeters>1099.800048828125</AltitudeMeters>
            <DistanceMeters>103456.73615929</DistanceMeters>
          </Trackpoint>
          <Trackpoint>
            <Time>2021-07-28T08:57:35.000Z</Time>
            <Position>
              <LatitudeDegrees>41.33947075344622135162353515625</LatitudeDegrees>
              <LongitudeDegrees>-2.844683490693569183349609375</LongitudeDegrees>
            </Position>
            <AltitudeMeters>1098.800048828125</AltitudeMeters>
            <DistanceMeters>103472.02778542</DistanceMeters>
          </Trackpoint>
          <Trackpoint>
            <Time>2021-07-28T08:57:38.000Z</Time>
            <Position>
              <LatitudeDegrees>41.33967242203652858734130859375</LatitudeDegrees>
              <LongitudeDegrees>-2.84459254704415798187255859375</LongitudeDegrees>
            </Position>
            <AltitudeMeters>1097.4000244140625</AltitudeMeters>
            <DistanceMeters>103495.72547421</DistanceMeters>
          </Trackpoint>
          <Trackpoint>
            <Time>2021-07-28T08:57:46.000Z</Time>
            <Position>
              <LatitudeDegrees>41.34024440310895442962646484375</LatitudeDegrees>
              <LongitudeDegrees>-2.8444556705653667449951171875</LongitudeDegrees>
            </Position>
            <AltitudeMeters>1096.199951171875</AltitudeMeters>
            <DistanceMeters>103560.40747199</DistanceMeters>
          </Trackpoint>
          <Trackpoint>
            <Time>2021-07-28T08:57:49.000Z</Time>
            <Position>
              <LatitudeDegrees>41.34046853519976139068603515625</LatitudeDegrees>
              <LongitudeDegrees>-2.8444100730121135711669921875</LongitudeDegrees>
            </Position>
            <AltitudeMeters>1095.199951171875</AltitudeMeters>
            <DistanceMeters>103585.64310377</DistanceMeters>
          </Trackpoint>
          <Trackpoint>
            <Time>2021-07-28T08:57:52.000Z</Time>
            <Position>
              <LatitudeDegrees>41.34069778025150299072265625</LatitudeDegrees>
              <LongitudeDegrees>-2.8443460352718830108642578125</LongitudeDegrees>
            </Position>
            <AltitudeMeters>1093.800048828125</AltitudeMeters>
            <DistanceMeters>103611.71352309</DistanceMeters>
          </Trackpoint>
          <Trackpoint>
            <Time>2021-07-28T08:57:54.000Z</Time>
            <Position>
              <LatitudeDegrees>41.340857036411762237548828125</LatitudeDegrees>
              <LongitudeDegrees>-2.844311334192752838134765625</LongitudeDegrees>
            </Position>
            <AltitudeMeters>1092.5999755859375</AltitudeMeters>
            <DistanceMeters>103629.67457766</DistanceMeters>
          </Trackpoint>
          <Trackpoint>
            <Time>2021-07-28T08:57:56.000Z</Time>
            <Position>
              <LatitudeDegrees>41.34101838804781436920166015625</LatitudeDegrees>
              <LongitudeDegrees>-2.844279147684574127197265625</LongitudeDegrees>
            </Position>
            <AltitudeMeters>1091.4000244140625</AltitudeMeters>
            <DistanceMeters>103647.83363329</DistanceMeters>
          </Trackpoint>
          <Trackpoint>
            <Time>2021-07-28T08:58:00.000Z</Time>
            <Position>
              <LatitudeDegrees>41.34134142659604549407958984375</LatitudeDegrees>
              <LongitudeDegrees>-2.84420580603182315826416015625</LongitudeDegrees>
            </Position>
            <AltitudeMeters>1090.4000244140625</AltitudeMeters>
            <DistanceMeters>103684.30706008</DistanceMeters>
          </Trackpoint>
          <Trackpoint>
            <Time>2021-07-28T08:58:07.000Z</Time>
            <Position>
              <LatitudeDegrees>41.341896392405033111572265625</LatitudeDegrees>
              <LongitudeDegrees>-2.8440731205046176910400390625</LongitudeDegrees>
            </Position>
            <AltitudeMeters>1089.4000244140625</AltitudeMeters>
            <DistanceMeters>103747.06312241</DistanceMeters>
          </Trackpoint>
          <Trackpoint>
            <Time>2021-07-28T08:58:15.000Z</Time>
            <Position>
              <LatitudeDegrees>41.34249226190149784088134765625</LatitudeDegrees>
              <LongitudeDegrees>-2.8439547680318355560302734375</LongitudeDegrees>
            </Position>
            <AltitudeMeters>1089</AltitudeMeters>
            <DistanceMeters>103814.11792063</DistanceMeters>
          </Trackpoint>
          <Trackpoint>
            <Time>2021-07-28T08:58:17.000Z</Time>
            <Position>
              <LatitudeDegrees>41.34263123385608196258544921875</LatitudeDegrees>
              <LongitudeDegrees>-2.84393825568258762359619140625</LongitudeDegrees>
            </Position>
            <AltitudeMeters>1089.199951171875</AltitudeMeters>
            <DistanceMeters>103829.64744901</DistanceMeters>
          </Trackpoint>
          <Trackpoint>
            <Time>2021-07-28T08:58:26.000Z</Time>
            <Position>
              <LatitudeDegrees>41.3431727886199951171875</LatitudeDegrees>
              <LongitudeDegrees>-2.84402928315103054046630859375</LongitudeDegrees>
            </Position>
            <AltitudeMeters>1089.800048828125</AltitudeMeters>
            <DistanceMeters>103890.40155839</DistanceMeters>
          </Trackpoint>
          <Trackpoint>
            <Time>2021-07-28T08:58:28.000Z</Time>
            <Position>
              <LatitudeDegrees>41.34327127598226070404052734375</LatitudeDegrees>
              <LongitudeDegrees>-2.84405057318508625030517578125</LongitudeDegrees>
            </Position>
            <AltitudeMeters>1090.199951171875</AltitudeMeters>
            <DistanceMeters>103901.50708782</DistanceMeters>
          </Trackpoint>
          <Trackpoint>
            <Time>2021-07-28T08:58:34.000Z</Time>
            <Position>
              <LatitudeDegrees>41.3435132615268230438232421875</LatitudeDegrees>
              <LongitudeDegrees>-2.84409415908157825469970703125</LongitudeDegrees>
            </Position>
            <AltitudeMeters>1091.4000244140625</AltitudeMeters>
            <DistanceMeters>103928.6857249</DistanceMeters>
          </Trackpoint>
          <Trackpoint>
            <Time>2021-07-28T08:58:39.000Z</Time>
            <Position>
              <LatitudeDegrees>41.34364862926304340362548828125</LatitudeDegrees>
              <LongitudeDegrees>-2.8441219031810760498046875</LongitudeDegrees>
            </Position>
            <AltitudeMeters>1092.5999755859375</AltitudeMeters>
            <DistanceMeters>103943.92944351</DistanceMeters>
          </Trackpoint>
          <Trackpoint>
            <Time>2021-07-28T08:58:44.000Z</Time>
            <Position>
              <LatitudeDegrees>41.34376463480293750762939453125</LatitudeDegrees>
              <LongitudeDegrees>-2.84413523040711879730224609375</LongitudeDegrees>
            </Position>
            <AltitudeMeters>1093.800048828125</AltitudeMeters>
            <DistanceMeters>103956.88935948</DistanceMeters>
          </Trackpoint>
          <Trackpoint>
            <Time>2021-07-28T08:58:50.000Z</Time>
            <Position>
              <LatitudeDegrees>41.34390461258590221405029296875</LatitudeDegrees>
              <LongitudeDegrees>-2.844114191830158233642578125</LongitudeDegrees>
            </Position>
            <AltitudeMeters>1094.800048828125</AltitudeMeters>
            <DistanceMeters>103972.56790344</DistanceMeters>
          </Trackpoint>
          <Trackpoint>
            <Time>2021-07-28T08:58:56.000Z</Time>
            <Position>
              <LatitudeDegrees>41.34404425509274005889892578125</LatitudeDegrees>
              <LongitudeDegrees>-2.8440808318555355072021484375</LongitudeDegrees>
            </Position>
            <AltitudeMeters>1096</AltitudeMeters>
            <DistanceMeters>103988.3583585</DistanceMeters>
          </Trackpoint>
          <Trackpoint>
            <Time>2021-07-28T08:59:03.000Z</Time>
            <Position>
              <LatitudeDegrees>41.34420719929039478302001953125</LatitudeDegrees>
              <LongitudeDegrees>-2.8440053947269916534423828125</LongitudeDegrees>
            </Position>
            <AltitudeMeters>1097</AltitudeMeters>
            <DistanceMeters>104007.55845852</DistanceMeters>
          </Trackpoint>
          <Trackpoint>
            <Time>2021-07-28T08:59:10.000Z</Time>
            <Position>
              <LatitudeDegrees>41.34435723535716533660888671875</LatitudeDegrees>
              <LongitudeDegrees>-2.84392685629427433013916015625</LongitudeDegrees>
            </Position>
            <AltitudeMeters>1098</AltitudeMeters>
            <DistanceMeters>104025.50090136</DistanceMeters>
          </Trackpoint>
          <Trackpoint>
            <Time>2021-07-28T08:59:22.000Z</Time>
            <Position>
              <LatitudeDegrees>41.34461539797484874725341796875</LatitudeDegrees>
              <LongitudeDegrees>-2.84380431286990642547607421875</LongitudeDegrees>
            </Position>
            <AltitudeMeters>1099.199951171875</AltitudeMeters>
            <DistanceMeters>104056.00492072</DistanceMeters>
          </Trackpoint>
          <Trackpoint>
            <Time>2021-07-28T08:59:35.000Z</Time>
            <Position>
              <LatitudeDegrees>41.34489149786531925201416015625</LatitudeDegrees>
              <LongitudeDegrees>-2.8436681069433689117431640625</LongitudeDegrees>
            </Position>
            <AltitudeMeters>1100.199951171875</AltitudeMeters>
            <DistanceMeters>104088.77522452</DistanceMeters>
          </Trackpoint>
          <Trackpoint>
            <Time>2021-07-28T08:59:56.000Z</Time>
            <Position>
              <LatitudeDegrees>41.3453794084489345550537109375</LatitudeDegrees>
              <LongitudeDegrees>-2.8434379398822784423828125</LongitudeDegrees>
            </Position>
            <AltitudeMeters>1101.199951171875</AltitudeMeters>
            <DistanceMeters>104146.38579219</DistanceMeters>
          </Trackpoint>
          <Trackpoint>
            <Time>2021-07-28T09:00:08.000Z</Time>
            <Position>
              <LatitudeDegrees>41.3456784747540950775146484375</LatitudeDegrees>
              <LongitudeDegrees>-2.8432952798902988433837890625</LongitudeDegrees>
            </Position>
            <AltitudeMeters>1102.199951171875</AltitudeMeters>
            <DistanceMeters>104181.74262636</DistanceMeters>
          </Trackpoint>
          <Trackpoint>
            <Time>2021-07-28T09:00:19.000Z</Time>
            <Position>
              <LatitudeDegrees>41.34594879113137722015380859375</LatitudeDegrees>
              <LongitudeDegrees>-2.843183465301990509033203125</LongitudeDegrees>
            </Position>
            <AltitudeMeters>1103.4000244140625</AltitudeMeters>
            <DistanceMeters>104213.24652615</DistanceMeters>
          </Trackpoint>
          <Trackpoint>
            <Time>2021-07-28T09:00:34.000Z</Time>
            <Position>
              <LatitudeDegrees>41.34631491266191005706787109375</LatitudeDegrees>
              <LongitudeDegrees>-2.84300652332603931427001953125</LongitudeDegrees>
            </Position>
            <AltitudeMeters>1104.4000244140625</AltitudeMeters>
            <DistanceMeters>104256.59579267</DistanceMeters>
          </Trackpoint>
          <Trackpoint>
            <Time>2021-07-28T09:00:53.000Z</Time>
            <Position>
              <LatitudeDegrees>41.3468164019286632537841796875</LatitudeDegrees>
              <LongitudeDegrees>-2.84266739152371883392333984375</LongitudeDegrees>
            </Position>
            <AltitudeMeters>1104.199951171875</AltitudeMeters>
            <DistanceMeters>104319.19380679</DistanceMeters>
          </Trackpoint>
          <Trackpoint>
            <Time>2021-07-28T09:00:58.000Z</Time>
            <Position>
              <LatitudeDegrees>41.3469977863132953643798828125</LatitudeDegrees>
              <LongitudeDegrees>-2.84251987002789974212646484375</LongitudeDegrees>
            </Position>
            <AltitudeMeters>1103.4000244140625</AltitudeMeters>
            <DistanceMeters>104342.84801565</DistanceMeters>
          </Trackpoint>
          <Trackpoint>
            <Time>2021-07-28T09:01:08.000Z</Time>
            <Position>
              <LatitudeDegrees>41.34738746099174022674560546875</LatitudeDegrees>
              <LongitudeDegrees>-2.84226455725729465484619140625</LongitudeDegrees>
            </Position>
            <AltitudeMeters>1102.199951171875</AltitudeMeters>
            <DistanceMeters>104391.18224955</DistanceMeters>
          </Trackpoint>
          <Trackpoint>
            <Time>2021-07-28T09:01:22.000Z</Time>
            <Position>
              <LatitudeDegrees>41.34795458056032657623291015625</LatitudeDegrees>
              <LongitudeDegrees>-2.84219062887132167816162109375</LongitudeDegrees>
            </Position>
            <AltitudeMeters>1101.4000244140625</AltitudeMeters>
            <DistanceMeters>104454.60530272</DistanceMeters>
          </Trackpoint>
          <Trackpoint>
            <Time>2021-07-28T09:01:24.000Z</Time>
            <Position>
              <LatitudeDegrees>41.348037980496883392333984375</LatitudeDegrees>
              <LongitudeDegrees>-2.84219649620354175567626953125</LongitudeDegrees>
            </Position>
            <AltitudeMeters>1101.199951171875</AltitudeMeters>
            <DistanceMeters>104463.8999647</DistanceMeters>
          </Trackpoint>
          <Trackpoint>
            <Time>2021-07-28T09:01:38.000Z</Time>
            <Position>
              <LatitudeDegrees>41.3486017473042011260986328125</LatitudeDegrees>
              <LongitudeDegrees>-2.84218291752040386199951171875</LongitudeDegrees>
            </Position>
            <AltitudeMeters>1100.5999755859375</AltitudeMeters>
            <DistanceMeters>104526.65861703</DistanceMeters>
          </Trackpoint>
          <Trackpoint>
            <Time>2021-07-28T09:01:44.000Z</Time>
            <Position>
              <LatitudeDegrees>41.34876175783574581146240234375</LatitudeDegrees>
              <LongitudeDegrees>-2.8419823385775089263916015625</LongitudeDegrees>
            </Position>
            <AltitudeMeters>1100</AltitudeMeters>
            <DistanceMeters>104551.11392244</DistanceMeters>
          </Trackpoint>
          <Trackpoint>
            <Time>2021-07-28T09:01:58.000Z</Time>
            <Position>
              <LatitudeDegrees>41.34915319271385669708251953125</LatitudeDegrees>
              <LongitudeDegrees>-2.8415585495531558990478515625</LongitudeDegrees>
            </Position>
            <AltitudeMeters>1101.199951171875</AltitudeMeters>
            <DistanceMeters>104607.25621678</DistanceMeters>
          </Trackpoint>
          <Trackpoint>
            <Time>2021-07-28T09:02:08.000Z</Time>
            <Position>
              <LatitudeDegrees>41.349417306482791900634765625</LatitudeDegrees>
              <LongitudeDegrees>-2.84130415879189968109130859375</LongitudeDegrees>
            </Position>
            <AltitudeMeters>1102.199951171875</AltitudeMeters>
            <DistanceMeters>104643.53215936</DistanceMeters>
          </Trackpoint>
          <Trackpoint>
            <Time>2021-07-28T09:02:12.000Z</Time>
            <Position>
              <LatitudeDegrees>41.34950489737093448638916015625</LatitudeDegrees>
              <LongitudeDegrees>-2.84122419543564319610595703125</LongitudeDegrees>
            </Position>
            <AltitudeMeters>1103.5999755859375</AltitudeMeters>
            <DistanceMeters>104655.35105323</DistanceMeters>
          </Trackpoint>
          <Trackpoint>
            <Time>2021-07-28T09:02:16.000Z</Time>
            <Position>
              <LatitudeDegrees>41.34958326816558837890625</LatitudeDegrees>
              <LongitudeDegrees>-2.841162420809268951416015625</LongitudeDegrees>
            </Position>
            <AltitudeMeters>1104.800048828125</AltitudeMeters>
            <DistanceMeters>104665.48644418</DistanceMeters>
          </Trackpoint>
          <Trackpoint>
            <Time>2021-07-28T09:02:22.000Z</Time>
            <Position>
              <LatitudeDegrees>41.349692903459072113037109375</LatitudeDegrees>
              <LongitudeDegrees>-2.8410593234002590179443359375</LongitudeDegrees>
            </Position>
            <AltitudeMeters>1106</AltitudeMeters>
            <DistanceMeters>104680.423483</DistanceMeters>
          </Trackpoint>
          <Trackpoint>
            <Time>2021-07-28T09:02:32.000Z</Time>
            <Position>
              <LatitudeDegrees>41.349866576492786407470703125</LatitudeDegrees>
              <LongitudeDegrees>-2.8408212773501873016357421875</LongitudeDegrees>
            </Position>
            <AltitudeMeters>1107.4000244140625</AltitudeMeters>
            <DistanceMeters>104708.15875156</DistanceMeters>
          </Trackpoint>
          <Trackpoint>
            <Time>2021-07-28T09:02:49.000Z</Time>
            <Position>
              <LatitudeDegrees>41.35037879459559917449951171875</LatitudeDegrees>
              <LongitudeDegrees>-2.8405671380460262298583984375</LongitudeDegrees>
            </Position>
            <AltitudeMeters>1108</AltitudeMeters>
            <DistanceMeters>104768.99566751</DistanceMeters>
          </Trackpoint>
          <Trackpoint>
            <Time>2021-07-28T09:03:03.000Z</Time>
            <Position>
              <LatitudeDegrees>41.35090149007737636566162109375</LatitudeDegrees>
              <LongitudeDegrees>-2.84032967872917652130126953125</LongitudeDegrees>
            </Position>
            <AltitudeMeters>1107.199951171875</AltitudeMeters>
            <DistanceMeters>104830.46282194</DistanceMeters>
          </Trackpoint>
          <Trackpoint>
            <Time>2021-07-28T09:03:07.000Z</Time>
            <Position>
              <LatitudeDegrees>41.3510915078222751617431640625</LatitudeDegrees>
              <LongitudeDegrees>-2.84024217166006565093994140625</LongitudeDegrees>
            </Position>
            <AltitudeMeters>1106.4000244140625</AltitudeMeters>
            <DistanceMeters>104852.84035217</DistanceMeters>
          </Trackpoint>
          <Trackpoint>
            <Time>2021-07-28T09:03:14.000Z</Time>
            <Position>
              <LatitudeDegrees>41.3514603115618228912353515625</LatitudeDegrees>
              <LongitudeDegrees>-2.84008341841399669647216796875</LongitudeDegrees>
            </Position>
            <AltitudeMeters>1105.4000244140625</AltitudeMeters>
            <DistanceMeters>104895.97871275</DistanceMeters>
          </Trackpoint>
          <Trackpoint>
            <Time>2021-07-28T09:03:20.000Z</Time>
            <Position>
              <LatitudeDegrees>41.35170967318117618560791015625</LatitudeDegrees>
              <LongitudeDegrees>-2.83997244201600551605224609375</LongitudeDegrees>
            </Position>
            <AltitudeMeters>1106.4000244140625</AltitudeMeters>
            <DistanceMeters>104925.24123245</DistanceMeters>
          </Trackpoint>
          <Trackpoint>
            <Time>2021-07-28T09:03:25.000Z</Time>
            <Position>
              <LatitudeDegrees>41.3518666662275791168212890625</LatitudeDegrees>
              <LongitudeDegrees>-2.8398985974490642547607421875</LongitudeDegrees>
            </Position>
            <AltitudeMeters>1107.5999755859375</AltitudeMeters>
            <DistanceMeters>104943.77266</DistanceMeters>
          </Trackpoint>
          <Trackpoint>
            <Time>2021-07-28T09:03:34.000Z</Time>
            <Position>
              <LatitudeDegrees>41.35210731066763401031494140625</LatitudeDegrees>
              <LongitudeDegrees>-2.83979088999330997467041015625</LongitudeDegrees>
            </Position>
            <AltitudeMeters>1108.800048828125</AltitudeMeters>
            <DistanceMeters>104972.02837055</DistanceMeters>
          </Trackpoint>
          <Trackpoint>
            <Time>2021-07-28T09:03:45.000Z</Time>
            <Position>
              <LatitudeDegrees>41.35238357819616794586181640625</LatitudeDegrees>
              <LongitudeDegrees>-2.839662730693817138671875</LongitudeDegrees>
            </Position>
            <AltitudeMeters>1109.800048828125</AltitudeMeters>
            <DistanceMeters>105004.58857778</DistanceMeters>
          </Trackpoint>
          <Trackpoint>
            <Time>2021-07-28T09:03:58.000Z</Time>
            <Position>
              <LatitudeDegrees>41.35269136168062686920166015625</LatitudeDegrees>
              <LongitudeDegrees>-2.83951981924474239349365234375</LongitudeDegrees>
            </Position>
            <AltitudeMeters>1110.800048828125</AltitudeMeters>
            <DistanceMeters>105040.86663618</DistanceMeters>
          </Trackpoint>
          <Trackpoint>
            <Time>2021-07-28T09:04:14.000Z</Time>
            <Position>
              <LatitudeDegrees>41.353131495416164398193359375</LatitudeDegrees>
              <LongitudeDegrees>-2.8392402827739715576171875</LongitudeDegrees>
            </Position>
            <AltitudeMeters>1109.5999755859375</AltitudeMeters>
            <DistanceMeters>105095.13687446</DistanceMeters>
          </Trackpoint>
          <Trackpoint>
            <Time>2021-07-28T09:04:17.000Z</Time>
            <Position>
              <LatitudeDegrees>41.35327205993235111236572265625</LatitudeDegrees>
              <LongitudeDegrees>-2.8391442261636257171630859375</LongitudeDegrees>
            </Position>
            <AltitudeMeters>1108.4000244140625</AltitudeMeters>
            <DistanceMeters>105112.72015508</DistanceMeters>
          </Trackpoint>
          <Trackpoint>
            <Time>2021-07-28T09:04:19.000Z</Time>
            <Position>
              <LatitudeDegrees>41.3533898256719112396240234375</LatitudeDegrees>
              <LongitudeDegrees>-2.83906015567481517791748046875</LongitudeDegrees>
            </Position>
            <AltitudeMeters>1107</AltitudeMeters>
            <DistanceMeters>105127.59054553</DistanceMeters>
          </Trackpoint>
          <Trackpoint>
            <Time>2021-07-28T09:04:21.000Z</Time>
            <Position>
              <LatitudeDegrees>41.353525780141353607177734375</LatitudeDegrees>
              <LongitudeDegrees>-2.83896577544510364532470703125</LongitudeDegrees>
            </Position>
            <AltitudeMeters>1105.5999755859375</AltitudeMeters>
            <DistanceMeters>105144.65359697</DistanceMeters>
          </Trackpoint>
          <Trackpoint>
            <Time>2021-07-28T09:04:23.000Z</Time>
            <Position>
              <LatitudeDegrees>41.35367623530328273773193359375</LatitudeDegrees>
              <LongitudeDegrees>-2.8388602472841739654541015625</LongitudeDegrees>
            </Position>
            <AltitudeMeters>1103.4000244140625</AltitudeMeters>
            <DistanceMeters>105163.57847192</DistanceMeters>
          </Trackpoint>
          <Trackpoint>
            <Time>2021-07-28T09:04:25.000Z</Time>
            <Position>
              <LatitudeDegrees>41.3538360781967639923095703125</LatitudeDegrees>
              <LongitudeDegrees>-2.8387442417442798614501953125</LongitudeDegrees>
            </Position>
            <AltitudeMeters>1101.4000244140625</AltitudeMeters>
            <DistanceMeters>105183.83811394</DistanceMeters>
          </Trackpoint>
          <Trackpoint>
            <Time>2021-07-28T09:04:27.000Z</Time>
            <Position>
              <LatitudeDegrees>41.35400162078440189361572265625</LatitudeDegrees>
              <LongitudeDegrees>-2.838622368872165679931640625</LongitudeDegrees>
            </Position>
            <AltitudeMeters>1099.4000244140625</AltitudeMeters>
            <DistanceMeters>105204.88969492</DistanceMeters>
          </Trackpoint>
          <Trackpoint>
            <Time>2021-07-28T09:04:29.000Z</Time>
            <Position>
              <LatitudeDegrees>41.3541733659803867340087890625</LatitudeDegrees>
              <LongitudeDegrees>-2.838498651981353759765625</LongitudeDegrees>
            </Position>
            <AltitudeMeters>1097.5999755859375</AltitudeMeters>
            <DistanceMeters>105226.62091458</DistanceMeters>
          </Trackpoint>
          <Trackpoint>
            <Time>2021-07-28T09:04:31.000Z</Time>
            <Position>
              <LatitudeDegrees>41.35434779338538646697998046875</LatitudeDegrees>
              <LongitudeDegrees>-2.8383739292621612548828125</LongitudeDegrees>
            </Position>
            <AltitudeMeters>1096</AltitudeMeters>
            <DistanceMeters>105248.65482095</DistanceMeters>
          </Trackpoint>
          <Trackpoint>
            <Time>2021-07-28T09:04:35.000Z</Time>
            <Position>
              <LatitudeDegrees>41.35468189604580402374267578125</LatitudeDegrees>
              <LongitudeDegrees>-2.8381229750812053680419921875</LongitudeDegrees>
            </Position>
            <AltitudeMeters>1095</AltitudeMeters>
            <DistanceMeters>105291.34456102</DistanceMeters>
          </Trackpoint>
          <Trackpoint>
            <Time>2021-07-28T09:04:42.000Z</Time>
            <Position>
              <LatitudeDegrees>41.3552197627723217010498046875</LatitudeDegrees>
              <LongitudeDegrees>-2.8377518244087696075439453125</LongitudeDegrees>
            </Position>
            <AltitudeMeters>1094.199951171875</AltitudeMeters>
            <DistanceMeters>105358.76425695</DistanceMeters>
          </Trackpoint>
          <Trackpoint>
            <Time>2021-07-28T09:04:43.000Z</Time>
            <Position>
              <LatitudeDegrees>41.355296038091182708740234375</LatitudeDegrees>
              <LongitudeDegrees>-2.8376988507807254791259765625</LongitudeDegrees>
            </Position>
            <AltitudeMeters>1093.5999755859375</AltitudeMeters>
            <DistanceMeters>105368.33840474</DistanceMeters>
          </Trackpoint>
          <Trackpoint>
            <Time>2021-07-28T09:04:45.000Z</Time>
            <Position>
              <LatitudeDegrees>41.35544884018599987030029296875</LatitudeDegrees>
              <LongitudeDegrees>-2.83759047277271747589111328125</LongitudeDegrees>
            </Position>
            <AltitudeMeters>1092.4000244140625</AltitudeMeters>
            <DistanceMeters>105387.60587663</DistanceMeters>
          </Trackpoint>
          <Trackpoint>
            <Time>2021-07-28T09:04:48.000Z</Time>
            <Position>
              <LatitudeDegrees>41.3556790910661220550537109375</LatitudeDegrees>
              <LongitudeDegrees>-2.83743088133633136749267578125</LongitudeDegrees>
            </Position>
            <AltitudeMeters>1091.4000244140625</AltitudeMeters>
            <DistanceMeters>105416.49431038</DistanceMeters>
          </Trackpoint>
          <Trackpoint>
            <Time>2021-07-28T09:04:52.000Z</Time>
            <Position>
              <LatitudeDegrees>41.3559865392744541168212890625</LatitudeDegrees>
              <LongitudeDegrees>-2.8372113592922687530517578125</LongitudeDegrees>
            </Position>
            <AltitudeMeters>1089.800048828125</AltitudeMeters>
            <DistanceMeters>105455.31874187</DistanceMeters>
          </Trackpoint>
          <Trackpoint>
            <Time>2021-07-28T09:04:53.000Z</Time>
            <Position>
              <LatitudeDegrees>41.35606943629682064056396484375</LatitudeDegrees>
              <LongitudeDegrees>-2.837154865264892578125</LongitudeDegrees>
            </Position>
            <AltitudeMeters>1088.5999755859375</AltitudeMeters>
            <DistanceMeters>105465.68231892</DistanceMeters>
          </Trackpoint>
          <Trackpoint>
            <Time>2021-07-28T09:04:54.000Z</Time>
            <Position>
              <LatitudeDegrees>41.35615509934723377227783203125</LatitudeDegrees>
              <LongitudeDegrees>-2.83709644339978694915771484375</LongitudeDegrees>
            </Position>
            <AltitudeMeters>1087</AltitudeMeters>
            <DistanceMeters>105476.39339362</DistanceMeters>
          </Trackpoint>
          <Trackpoint>
            <Time>2021-07-28T09:04:55.000Z</Time>
            <Position>
              <LatitudeDegrees>41.3562436960637569427490234375</LatitudeDegrees>
              <LongitudeDegrees>-2.837035842239856719970703125</LongitudeDegrees>
            </Position>
            <AltitudeMeters>1084.5999755859375</AltitudeMeters>
            <DistanceMeters>105487.47776189</DistanceMeters>
          </Trackpoint>
          <Trackpoint>
            <Time>2021-07-28T09:04:56.000Z</Time>
            <Position>
              <LatitudeDegrees>41.356334723532199859619140625</LatitudeDegrees>
              <LongitudeDegrees>-2.83697255887091159820556640625</LongitudeDegrees>
            </Position>
            <AltitudeMeters>1083.4000244140625</AltitudeMeters>
            <DistanceMeters>105498.90548982</DistanceMeters>
          </Trackpoint>
          <Trackpoint>
            <Time>2021-07-28T09:04:57.000Z</Time>
            <Position>
              <LatitudeDegrees>41.3564274273812770843505859375</LatitudeDegrees>
              <LongitudeDegrees>-2.836909778416156768798828125</LongitudeDegrees>
            </Position>
            <AltitudeMeters>1082</AltitudeMeters>
            <DistanceMeters>105510.4800401</DistanceMeters>
          </Trackpoint>
          <Trackpoint>
            <Time>2021-07-28T09:04:58.000Z</Time>
            <Position>
              <LatitudeDegrees>41.35652205906808376312255859375</LatitudeDegrees>
              <LongitudeDegrees>-2.8368492610752582550048828125</LongitudeDegrees>
            </Position>
            <AltitudeMeters>1081</AltitudeMeters>
            <DistanceMeters>105522.16330315</DistanceMeters>
          </Trackpoint>
          <Trackpoint>
            <Time>2021-07-28T09:05:04.000Z</Time>
            <Position>
              <LatitudeDegrees>41.35707509703934192657470703125</LatitudeDegrees>
              <LongitudeDegrees>-2.83659688197076320648193359375</LongitudeDegrees>
            </Position>
            <AltitudeMeters>1081.4000244140625</AltitudeMeters>
            <DistanceMeters>105587.22864337</DistanceMeters>
          </Trackpoint>
          <Trackpoint>
            <Time>2021-07-28T09:05:07.000Z</Time>
            <Position>
              <LatitudeDegrees>41.35730626992881298065185546875</LatitudeDegrees>
              <LongitudeDegrees>-2.8365216962993144989013671875</LongitudeDegrees>
            </Position>
            <AltitudeMeters>1082.4000244140625</AltitudeMeters>
            <DistanceMeters>105613.71434628</DistanceMeters>
          </Trackpoint>
          <Trackpoint>
            <Time>2021-07-28T09:05:09.000Z</Time>
            <Position>
              <LatitudeDegrees>41.3574342615902423858642578125</LatitudeDegrees>
              <LongitudeDegrees>-2.83648406155407428741455078125</LongitudeDegrees>
            </Position>
            <AltitudeMeters>1083.5999755859375</AltitudeMeters>
            <DistanceMeters>105628.30334562</DistanceMeters>
          </Trackpoint>
          <Trackpoint>
            <Time>2021-07-28T09:05:11.000Z</Time>
            <Position>
              <LatitudeDegrees>41.3575365208089351654052734375</LatitudeDegrees>
              <LongitudeDegrees>-2.8364573232829570770263671875</LongitudeDegrees>
            </Position>
            <AltitudeMeters>1085.4000244140625</AltitudeMeters>
            <DistanceMeters>105639.90205584</DistanceMeters>
          </Trackpoint>
          <Trackpoint>
            <Time>2021-07-28T09:05:13.000Z</Time>
            <Position>
              <LatitudeDegrees>41.3576169870793819427490234375</LatitudeDegrees>
              <LongitudeDegrees>-2.83644181676208972930908203125</LongitudeDegrees>
            </Position>
            <AltitudeMeters>1086.5999755859375</AltitudeMeters>
            <DistanceMeters>105648.9510742</DistanceMeters>
          </Trackpoint>
          <Trackpoint>
            <Time>2021-07-28T09:05:16.000Z</Time>
            <Position>
              <LatitudeDegrees>41.357710026204586029052734375</LatitudeDegrees>
              <LongitudeDegrees>-2.836416251957416534423828125</LongitudeDegrees>
            </Position>
            <AltitudeMeters>1087.800048828125</AltitudeMeters>
            <DistanceMeters>105659.52426418</DistanceMeters>
          </Trackpoint>
          <Trackpoint>
            <Time>2021-07-28T09:05:20.000Z</Time>
            <Position>
              <LatitudeDegrees>41.3578055799007415771484375</LatitudeDegrees>
              <LongitudeDegrees>-2.83638247288763523101806640625</LongitudeDegrees>
            </Position>
            <AltitudeMeters>1088.800048828125</AltitudeMeters>
            <DistanceMeters>105670.52768478</DistanceMeters>
          </Trackpoint>
          <Trackpoint>
            <Time>2021-07-28T09:05:25.000Z</Time>
            <Position>
              <LatitudeDegrees>41.35791487991809844970703125</LatitudeDegrees>
              <LongitudeDegrees>-2.83635145984590053558349609375</LongitudeDegrees>
            </Position>
            <AltitudeMeters>1090</AltitudeMeters>
            <DistanceMeters>105682.96566169</DistanceMeters>
          </Trackpoint>
          <Trackpoint>
            <Time>2021-07-28T09:05:30.000Z</Time>
            <Position>
              <LatitudeDegrees>41.35801454074680805206298828125</LatitudeDegrees>
              <LongitudeDegrees>-2.8363215364515781402587890625</LongitudeDegrees>
            </Position>
            <AltitudeMeters>1091.199951171875</AltitudeMeters>
            <DistanceMeters>105694.33595652</DistanceMeters>
          </Trackpoint>
          <Trackpoint>
            <Time>2021-07-28T09:05:38.000Z</Time>
            <Position>
              <LatitudeDegrees>41.35816860012710094451904296875</LatitudeDegrees>
              <LongitudeDegrees>-2.83627602271735668182373046875</LongitudeDegrees>
            </Position>
            <AltitudeMeters>1092.4000244140625</AltitudeMeters>
            <DistanceMeters>105711.899711</DistanceMeters>
          </Trackpoint>
          <Trackpoint>
            <Time>2021-07-28T09:05:42.000Z</Time>
            <Position>
              <LatitudeDegrees>41.3582406006753444671630859375</LatitudeDegrees>
              <LongitudeDegrees>-2.836259342730045318603515625</LongitudeDegrees>
            </Position>
            <AltitudeMeters>1093.4000244140625</AltitudeMeters>
            <DistanceMeters>105720.03324283</DistanceMeters>
          </Trackpoint>
          <Trackpoint>
            <Time>2021-07-28T09:05:48.000Z</Time>
            <Position>
              <LatitudeDegrees>41.35834160260856151580810546875</LatitudeDegrees>
              <LongitudeDegrees>-2.836235873401165008544921875</LongitudeDegrees>
            </Position>
            <AltitudeMeters>1094.4000244140625</AltitudeMeters>
            <DistanceMeters>105731.4443647</DistanceMeters>
          </Trackpoint>
          <Trackpoint>
            <Time>2021-07-28T09:05:55.000Z</Time>
            <Position>
              <LatitudeDegrees>41.35845526121556758880615234375</LatitudeDegrees>
              <LongitudeDegrees>-2.83621651120483875274658203125</LongitudeDegrees>
            </Position>
            <AltitudeMeters>1095.4000244140625</AltitudeMeters>
            <DistanceMeters>105744.19813932</DistanceMeters>
          </Trackpoint>
          <Trackpoint>
            <Time>2021-07-28T09:06:08.000Z</Time>
            <Position>
              <LatitudeDegrees>41.35866933502256870269775390625</LatitudeDegrees>
              <LongitudeDegrees>-2.83621232025325298309326171875</LongitudeDegrees>
            </Position>
            <AltitudeMeters>1096.5999755859375</AltitudeMeters>
            <DistanceMeters>105768.02768667</DistanceMeters>
          </Trackpoint>
          <Trackpoint>
            <Time>2021-07-28T09:06:15.000Z</Time>
            <Position>
              <LatitudeDegrees>41.3587928004562854766845703125</LatitudeDegrees>
              <LongitudeDegrees>-2.8362149186432361602783203125</LongitudeDegrees>
            </Position>
            <AltitudeMeters>1097.5999755859375</AltitudeMeters>
            <DistanceMeters>105781.77112543</DistanceMeters>
          </Trackpoint>
          <Trackpoint>
            <Time>2021-07-28T09:06:24.000Z</Time>
            <Position>
              <LatitudeDegrees>41.35894618928432464599609375</LatitudeDegrees>
              <LongitudeDegrees>-2.83621952868998050689697265625</LongitudeDegrees>
            </Position>
            <AltitudeMeters>1098.5999755859375</AltitudeMeters>
            <DistanceMeters>105798.84793101</DistanceMeters>
          </Trackpoint>
          <Trackpoint>
            <Time>2021-07-28T09:06:34.000Z</Time>
            <Position>
              <LatitudeDegrees>41.35911491699516773223876953125</LatitudeDegrees>
              <LongitudeDegrees>-2.83622455783188343048095703125</LongitudeDegrees>
            </Position>
            <AltitudeMeters>1100</AltitudeMeters>
            <DistanceMeters>105817.63247964</DistanceMeters>
          </Trackpoint>
          <Trackpoint>
            <Time>2021-07-28T09:06:47.000Z</Time>
            <Position>
              <LatitudeDegrees>41.3594375364482402801513671875</LatitudeDegrees>
              <LongitudeDegrees>-2.83617024309933185577392578125</LongitudeDegrees>
            </Position>
            <AltitudeMeters>1098.199951171875</AltitudeMeters>
            <DistanceMeters>105853.82618295</DistanceMeters>
          </Trackpoint>
          <Trackpoint>
            <Time>2021-07-28T09:06:49.000Z</Time>
            <Position>
              <LatitudeDegrees>41.3595347665250301361083984375</LatitudeDegrees>
              <LongitudeDegrees>-2.83614635467529296875</LongitudeDegrees>
            </Position>
            <AltitudeMeters>1097</AltitudeMeters>
            <DistanceMeters>105864.83042419</DistanceMeters>
          </Trackpoint>
          <Trackpoint>
            <Time>2021-07-28T09:06:52.000Z</Time>
            <Position>
              <LatitudeDegrees>41.359706930816173553466796875</LatitudeDegrees>
              <LongitudeDegrees>-2.83610369078814983367919921875</LongitudeDegrees>
            </Position>
            <AltitudeMeters>1095.5999755859375</AltitudeMeters>
            <DistanceMeters>105884.3213276</DistanceMeters>
          </Trackpoint>
          <Trackpoint>
            <Time>2021-07-28T09:06:55.000Z</Time>
            <Position>
              <LatitudeDegrees>41.3599109463393688201904296875</LatitudeDegrees>
              <LongitudeDegrees>-2.8360529802739620208740234375</LongitudeDegrees>
            </Position>
            <AltitudeMeters>1094.199951171875</AltitudeMeters>
            <DistanceMeters>105907.420639</DistanceMeters>
          </Trackpoint>
          <Trackpoint>
            <Time>2021-07-28T09:06:56.000Z</Time>
            <Position>
              <LatitudeDegrees>41.359987556934356689453125</LatitudeDegrees>
              <LongitudeDegrees>-2.83603311516344547271728515625</LongitudeDegrees>
            </Position>
            <AltitudeMeters>1093</AltitudeMeters>
            <DistanceMeters>105916.10818059</DistanceMeters>
          </Trackpoint>
          <Trackpoint>
            <Time>2021-07-28T09:06:57.000Z</Time>
            <Position>
              <LatitudeDegrees>41.36006793938577175140380859375</LatitudeDegrees>
              <LongitudeDegrees>-2.83601224422454833984375</LongitudeDegrees>
            </Position>
            <AltitudeMeters>1091.5999755859375</AltitudeMeters>
            <DistanceMeters>105925.22381351</DistanceMeters>
          </Trackpoint>
          <Trackpoint>
            <Time>2021-07-28T09:06:58.000Z</Time>
            <Position>
              <LatitudeDegrees>41.3601489923894405364990234375</LatitudeDegrees>
              <LongitudeDegrees>-2.835991121828556060791015625</LongitudeDegrees>
            </Position>
            <AltitudeMeters>1090.199951171875</AltitudeMeters>
            <DistanceMeters>105934.41638961</DistanceMeters>
          </Trackpoint>
          <Trackpoint>
            <Time>2021-07-28T09:06:59.000Z</Time>
            <Position>
              <LatitudeDegrees>41.36022937484085559844970703125</LatitudeDegrees>
              <LongitudeDegrees>-2.83597175963222980499267578125</LongitudeDegrees>
            </Position>
            <AltitudeMeters>1089</AltitudeMeters>
            <DistanceMeters>105943.50821669</DistanceMeters>
          </Trackpoint>
          <Trackpoint>
            <Time>2021-07-28T09:07:01.000Z</Time>
            <Position>
              <LatitudeDegrees>41.36038410477340221405029296875</LatitudeDegrees>
              <LongitudeDegrees>-2.8359359689056873321533203125</LongitudeDegrees>
            </Position>
            <AltitudeMeters>1087.800048828125</AltitudeMeters>
            <DistanceMeters>105960.98745027</DistanceMeters>
          </Trackpoint>
          <Trackpoint>
            <Time>2021-07-28T09:07:03.000Z</Time>
            <Position>
              <LatitudeDegrees>41.36053296737372875213623046875</LatitudeDegrees>
              <LongitudeDegrees>-2.83590503968298435211181640625</LongitudeDegrees>
            </Position>
            <AltitudeMeters>1086.5999755859375</AltitudeMeters>
            <DistanceMeters>105977.75636736</DistanceMeters>
          </Trackpoint>
          <Trackpoint>
            <Time>2021-07-28T09:07:04.000Z</Time>
            <Position>
              <LatitudeDegrees>41.360607147216796875</LatitudeDegrees>
              <LongitudeDegrees>-2.835890538990497589111328125</LongitudeDegrees>
            </Position>
            <AltitudeMeters>1085.5999755859375</AltitudeMeters>
            <DistanceMeters>105986.10088169</DistanceMeters>
          </Trackpoint>
          <Trackpoint>
            <Time>2021-07-28T09:07:06.000Z</Time>
            <Position>
              <LatitudeDegrees>41.360765062272548675537109375</LatitudeDegrees>
              <LongitudeDegrees>-2.83587268553674221038818359375</LongitudeDegrees>
            </Position>
            <AltitudeMeters>1083.800048828125</AltitudeMeters>
            <DistanceMeters>106003.74005157</DistanceMeters>
          </Trackpoint>
          <Trackpoint>
            <Time>2021-07-28T09:07:08.000Z</Time>
            <Position>
              <LatitudeDegrees>41.36093731038272380828857421875</LatitudeDegrees>
              <LongitudeDegrees>-2.8358829952776432037353515625</LongitudeDegrees>
            </Position>
            <AltitudeMeters>1082.199951171875</AltitudeMeters>
            <DistanceMeters>106022.930743</DistanceMeters>
          </Trackpoint>
          <Trackpoint>
            <Time>2021-07-28T09:07:10.000Z</Time>
            <Position>
              <LatitudeDegrees>41.36112137697637081146240234375</LatitudeDegrees>
              <LongitudeDegrees>-2.83592549152672290802001953125</LongitudeDegrees>
            </Position>
            <AltitudeMeters>1080</AltitudeMeters>
            <DistanceMeters>106043.72292687</DistanceMeters>
          </Trackpoint>
          <Trackpoint>
            <Time>2021-07-28T09:07:11.000Z</Time>
            <Position>
              <LatitudeDegrees>41.36121693067252635955810546875</LatitudeDegrees>
              <LongitudeDegrees>-2.83595683984458446502685546875</LongitudeDegrees>
            </Position>
            <AltitudeMeters>1078.800048828125</AltitudeMeters>
            <DistanceMeters>106054.67534831</DistanceMeters>
          </Trackpoint>
          <Trackpoint>
            <Time>2021-07-28T09:07:13.000Z</Time>
            <Position>
              <LatitudeDegrees>41.3614109717309474945068359375</LatitudeDegrees>
              <LongitudeDegrees>-2.83602590672671794891357421875</LongitudeDegrees>
            </Position>
            <AltitudeMeters>1076.800048828125</AltitudeMeters>
            <DistanceMeters>106077.02986531</DistanceMeters>
          </Trackpoint>
          <Trackpoint>
            <Time>2021-07-28T09:07:16.000Z</Time>
            <Position>
              <LatitudeDegrees>41.36170190759003162384033203125</LatitudeDegrees>
              <LongitudeDegrees>-2.8361401520669460296630859375</LongitudeDegrees>
            </Position>
            <AltitudeMeters>1075.800048828125</AltitudeMeters>
            <DistanceMeters>106110.78883283</DistanceMeters>
          </Trackpoint>
          <Trackpoint>
            <Time>2021-07-28T09:07:21.000Z</Time>
            <Position>
              <LatitudeDegrees>41.3620949350297451019287109375</LatitudeDegrees>
              <LongitudeDegrees>-2.8363071195781230926513671875</LongitudeDegrees>
            </Position>
            <AltitudeMeters>1078.4000244140625</AltitudeMeters>
            <DistanceMeters>106156.70335762</DistanceMeters>
          </Trackpoint>
          <Trackpoint>
            <Time>2021-07-28T09:07:22.000Z</Time>
            <Position>
              <LatitudeDegrees>41.36214648373425006866455078125</LatitudeDegrees>
              <LongitudeDegrees>-2.8363274037837982177734375</LongitudeDegrees>
            </Position>
            <AltitudeMeters>1079.800048828125</AltitudeMeters>
            <DistanceMeters>106162.68551383</DistanceMeters>
          </Trackpoint>
          <Trackpoint>
            <Time>2021-07-28T09:07:23.000Z</Time>
            <Position>
              <LatitudeDegrees>41.3621874712407588958740234375</LatitudeDegrees>
              <LongitudeDegrees>-2.83634282648563385009765625</LongitudeDegrees>
            </Position>
            <AltitudeMeters>1081.199951171875</AltitudeMeters>
            <DistanceMeters>106167.42638509</DistanceMeters>
          </Trackpoint>
          <Trackpoint>
            <Time>2021-07-28T09:07:24.000Z</Time>
            <Position>
              <LatitudeDegrees>41.36221722699701786041259765625</LatitudeDegrees>
              <LongitudeDegrees>-2.83635489642620086669921875</LongitudeDegrees>
            </Position>
            <AltitudeMeters>1082.4000244140625</AltitudeMeters>
            <DistanceMeters>106170.88932336</DistanceMeters>
          </Trackpoint>
          <Trackpoint>
            <Time>2021-07-28T09:07:26.000Z</Time>
            <Position>
              <LatitudeDegrees>41.36225041933357715606689453125</LatitudeDegrees>
              <LongitudeDegrees>-2.8363724984228610992431640625</LongitudeDegrees>
            </Position>
            <AltitudeMeters>1083.5999755859375</AltitudeMeters>
            <DistanceMeters>106174.86684696</DistanceMeters>
          </Trackpoint>
          <Trackpoint>
            <Time>2021-07-28T09:07:29.000Z</Time>
            <Position>
              <LatitudeDegrees>41.36228713206946849822998046875</LatitudeDegrees>
              <LongitudeDegrees>-2.8363852389156818389892578125</LongitudeDegrees>
            </Position>
            <AltitudeMeters>1084.4000244140625</AltitudeMeters>
            <DistanceMeters>106179.09099552</DistanceMeters>
          </Trackpoint>
          <Trackpoint>
            <Time>2021-07-28T09:07:30.000Z</Time>
            <Position>
              <LatitudeDegrees>41.362299956381320953369140625</LatitudeDegrees>
              <LongitudeDegrees>-2.836385071277618408203125</LongitudeDegrees>
            </Position>
            <AltitudeMeters>1084.800048828125</AltitudeMeters>
            <DistanceMeters>106180.51956028</DistanceMeters>
          </Trackpoint>
          <Trackpoint>
            <Time>2021-07-28T09:07:33.000Z</Time>
            <Position>
              <LatitudeDegrees>41.362340860068798065185546875</LatitudeDegrees>
              <LongitudeDegrees>-2.83638599328696727752685546875</LongitudeDegrees>
            </Position>
            <AltitudeMeters>1085.199951171875</AltitudeMeters>
            <DistanceMeters>106185.07390827</DistanceMeters>
          </Trackpoint>
          <Trackpoint>
            <Time>2021-07-28T09:07:37.000Z</Time>
            <Position>
              <LatitudeDegrees>41.362390816211700439453125</LatitudeDegrees>
              <LongitudeDegrees>-2.8363983146846294403076171875</LongitudeDegrees>
            </Position>
            <AltitudeMeters>1086</AltitudeMeters>
            <DistanceMeters>106190.72859665</DistanceMeters>
          </Trackpoint>
          <Trackpoint>
            <Time>2021-07-28T09:07:43.000Z</Time>
            <Position>
              <LatitudeDegrees>41.3624640740454196929931640625</LatitudeDegrees>
              <LongitudeDegrees>-2.83641281537711620330810546875</LongitudeDegrees>
            </Position>
            <AltitudeMeters>1087</AltitudeMeters>
            <DistanceMeters>106198.97130829</DistanceMeters>
          </Trackpoint>
          <Trackpoint>
            <Time>2021-07-28T09:07:48.000Z</Time>
            <Position>
              <LatitudeDegrees>41.36252333410084247589111328125</LatitudeDegrees>
              <LongitudeDegrees>-2.836412228643894195556640625</LongitudeDegrees>
            </Position>
            <AltitudeMeters>1088.199951171875</AltitudeMeters>
            <DistanceMeters>106205.56591579</DistanceMeters>
          </Trackpoint>
          <Trackpoint>
            <Time>2021-07-28T09:07:55.000Z</Time>
            <Position>
              <LatitudeDegrees>41.3626055605709552764892578125</LatitudeDegrees>
              <LongitudeDegrees>-2.83640493638813495635986328125</LongitudeDegrees>
            </Position>
            <AltitudeMeters>1089.199951171875</AltitudeMeters>
            <DistanceMeters>106214.73783992</DistanceMeters>
          </Trackpoint>
          <Trackpoint>
            <Time>2021-07-28T09:08:03.000Z</Time>
            <Position>
              <LatitudeDegrees>41.36268963105976581573486328125</LatitudeDegrees>
              <LongitudeDegrees>-2.83637325279414653778076171875</LongitudeDegrees>
            </Position>
            <AltitudeMeters>1090.4000244140625</AltitudeMeters>
            <DistanceMeters>106224.46265306</DistanceMeters>
          </Trackpoint>
          <Trackpoint>
            <Time>2021-07-28T09:08:11.000Z</Time>
            <Position>
              <LatitudeDegrees>41.36277504265308380126953125</LatitudeDegrees>
              <LongitudeDegrees>-2.83634525723755359649658203125</LongitudeDegrees>
            </Position>
            <AltitudeMeters>1091.4000244140625</AltitudeMeters>
            <DistanceMeters>106234.25271084</DistanceMeters>
          </Trackpoint>
          <Trackpoint>
            <Time>2021-07-28T09:08:22.000Z</Time>
            <Position>
              <LatitudeDegrees>41.36289347894489765167236328125</LatitudeDegrees>
              <LongitudeDegrees>-2.83639169298112392425537109375</LongitudeDegrees>
            </Position>
            <AltitudeMeters>1092.5999755859375</AltitudeMeters>
            <DistanceMeters>106247.99319257</DistanceMeters>
          </Trackpoint>
          <Trackpoint>
            <Time>2021-07-28T09:08:32.000Z</Time>
            <Position>
              <LatitudeDegrees>41.36298802681267261505126953125</LatitudeDegrees>
              <LongitudeDegrees>-2.83647383563220500946044921875</LongitudeDegrees>
            </Position>
            <AltitudeMeters>1093.5999755859375</AltitudeMeters>
            <DistanceMeters>106260.55614111</DistanceMeters>
          </Trackpoint>
          <Trackpoint>
            <Time>2021-07-28T09:08:42.000Z</Time>
            <Position>
              <LatitudeDegrees>41.3630575127899646759033203125</LatitudeDegrees>
              <LongitudeDegrees>-2.8366058506071567535400390625</LongitudeDegrees>
            </Position>
            <AltitudeMeters>1094.800048828125</AltitudeMeters>
            <DistanceMeters>106274.02582173</DistanceMeters>
          </Trackpoint>
          <Trackpoint>
            <Time>2021-07-28T09:08:44.000Z</Time>
            <Position>
              <LatitudeDegrees>41.363071762025356292724609375</LatitudeDegrees>
              <LongitudeDegrees>-2.83663024194538593292236328125</LongitudeDegrees>
            </Position>
            <AltitudeMeters>1095.199951171875</AltitudeMeters>
            <DistanceMeters>106276.60733222</DistanceMeters>
          </Trackpoint>
          <Trackpoint>
            <Time>2021-07-28T09:08:51.000Z</Time>
            <Position>
              <LatitudeDegrees>41.3631178624927997589111328125</LatitudeDegrees>
              <LongitudeDegrees>-2.83671992830932140350341796875</LongitudeDegrees>
            </Position>
            <AltitudeMeters>1095.800048828125</AltitudeMeters>
            <DistanceMeters>106285.68822745</DistanceMeters>
          </Trackpoint>
          <Trackpoint>
            <Time>2021-07-28T09:09:01.000Z</Time>
            <Position>
              <LatitudeDegrees>41.3631936348974704742431640625</LatitudeDegrees>
              <LongitudeDegrees>-2.836841382086277008056640625</LongitudeDegrees>
            </Position>
            <AltitudeMeters>1096.800048828125</AltitudeMeters>
            <DistanceMeters>106298.88189197</DistanceMeters>
          </Trackpoint>
          <Trackpoint>
            <Time>2021-07-28T09:09:10.000Z</Time>
            <Position>
              <LatitudeDegrees>41.36325775645673274993896484375</LatitudeDegrees>
              <LongitudeDegrees>-2.83695395104587078094482421875</LongitudeDegrees>
            </Position>
            <AltitudeMeters>1098</AltitudeMeters>
            <DistanceMeters>106310.6866427</DistanceMeters>
          </Trackpoint>
          <Trackpoint>
            <Time>2021-07-28T09:09:20.000Z</Time>
            <Position>
              <LatitudeDegrees>41.3633351214230060577392578125</LatitudeDegrees>
              <LongitudeDegrees>-2.8370809368789196014404296875</LongitudeDegrees>
            </Position>
            <AltitudeMeters>1099</AltitudeMeters>
            <DistanceMeters>106324.3493562</DistanceMeters>
          </Trackpoint>
          <Trackpoint>
            <Time>2021-07-28T09:09:28.000Z</Time>
            <Position>
              <LatitudeDegrees>41.36339974589645862579345703125</LatitudeDegrees>
              <LongitudeDegrees>-2.83718830905854701995849609375</LongitudeDegrees>
            </Position>
            <AltitudeMeters>1100.4000244140625</AltitudeMeters>
            <DistanceMeters>106335.84680327</DistanceMeters>
          </Trackpoint>
          <Trackpoint>
            <Time>2021-07-28T09:09:38.000Z</Time>
            <Position>
              <LatitudeDegrees>41.3634918630123138427734375</LatitudeDegrees>
              <LongitudeDegrees>-2.8373117744922637939453125</LongitudeDegrees>
            </Position>
            <AltitudeMeters>1101.4000244140625</AltitudeMeters>
            <DistanceMeters>106350.38992709</DistanceMeters>
          </Trackpoint>
          <Trackpoint>
            <Time>2021-07-28T09:09:46.000Z</Time>
            <Position>
              <LatitudeDegrees>41.36356872506439685821533203125</LatitudeDegrees>
              <LongitudeDegrees>-2.83739383332431316375732421875</LongitudeDegrees>
            </Position>
            <AltitudeMeters>1102.4000244140625</AltitudeMeters>
            <DistanceMeters>106361.35264972</DistanceMeters>
          </Trackpoint>
          <Trackpoint>
            <Time>2021-07-28T09:09:55.000Z</Time>
            <Position>
              <LatitudeDegrees>41.36366159655153751373291015625</LatitudeDegrees>
              <LongitudeDegrees>-2.837474383413791656494140625</LongitudeDegrees>
            </Position>
            <AltitudeMeters>1103.4000244140625</AltitudeMeters>
            <DistanceMeters>106373.68673654</DistanceMeters>
          </Trackpoint>
          <Trackpoint>
            <Time>2021-07-28T09:10:07.000Z</Time>
            <Position>
              <LatitudeDegrees>41.36380291543900966644287109375</LatitudeDegrees>
              <LongitudeDegrees>-2.8375238366425037384033203125</LongitudeDegrees>
            </Position>
            <AltitudeMeters>1104.5999755859375</AltitudeMeters>
            <DistanceMeters>106389.94935868</DistanceMeters>
          </Trackpoint>
          <Trackpoint>
            <Time>2021-07-28T09:10:18.000Z</Time>
            <Position>
              <LatitudeDegrees>41.36393367312848567962646484375</LatitudeDegrees>
              <LongitudeDegrees>-2.83757890574634075164794921875</LongitudeDegrees>
            </Position>
            <AltitudeMeters>1105.5999755859375</AltitudeMeters>
            <DistanceMeters>106405.21290913</DistanceMeters>
          </Trackpoint>
          <Trackpoint>
            <Time>2021-07-28T09:10:19.000Z</Time>
            <Position>
              <LatitudeDegrees>41.36394582688808441162109375</LatitudeDegrees>
              <LongitudeDegrees>-2.83758225850760936737060546875</LongitudeDegrees>
            </Position>
            <AltitudeMeters>1105.5999755859375</AltitudeMeters>
            <DistanceMeters>106406.59325189</DistanceMeters>
          </Trackpoint>
          <Trackpoint>
            <Time>2021-07-28T09:10:28.000Z</Time>
            <Position>
              <LatitudeDegrees>41.364054121077060699462890625</LatitudeDegrees>
              <LongitudeDegrees>-2.8376284427940845489501953125</LongitudeDegrees>
            </Position>
            <AltitudeMeters>1106.5999755859375</AltitudeMeters>
            <DistanceMeters>106419.24894096</DistanceMeters>
          </Trackpoint>
          <Trackpoint>
            <Time>2021-07-28T09:10:38.000Z</Time>
            <Position>
              <LatitudeDegrees>41.3641726411879062652587890625</LatitudeDegrees>
              <LongitudeDegrees>-2.8376790694892406463623046875</LongitudeDegrees>
            </Position>
            <AltitudeMeters>1108</AltitudeMeters>
            <DistanceMeters>106433.10199783</DistanceMeters>
          </Trackpoint>
          <Trackpoint>
            <Time>2021-07-28T09:10:48.000Z</Time>
            <Position>
              <LatitudeDegrees>41.3642883114516735076904296875</LatitudeDegrees>
              <LongitudeDegrees>-2.83771921880543231964111328125</LongitudeDegrees>
            </Position>
            <AltitudeMeters>1109</AltitudeMeters>
            <DistanceMeters>106446.40573784</DistanceMeters>
          </Trackpoint>
          <Trackpoint>
            <Time>2021-07-28T09:10:58.000Z</Time>
            <Position>
              <LatitudeDegrees>41.36440305970609188079833984375</LatitudeDegrees>
              <LongitudeDegrees>-2.83776707947254180908203125</LongitudeDegrees>
            </Position>
            <AltitudeMeters>1110.199951171875</AltitudeMeters>
            <DistanceMeters>106459.78865741</DistanceMeters>
          </Trackpoint>
          <Trackpoint>
            <Time>2021-07-28T09:11:04.000Z</Time>
            <Position>
              <LatitudeDegrees>41.36446994729340076446533203125</LatitudeDegrees>
              <LongitudeDegrees>-2.8377920575439929962158203125</LongitudeDegrees>
            </Position>
            <AltitudeMeters>1111.199951171875</AltitudeMeters>
            <DistanceMeters>106467.52093625</DistanceMeters>
          </Trackpoint>
          <Trackpoint>
            <Time>2021-07-28T09:11:12.000Z</Time>
            <Position>
              <LatitudeDegrees>41.364561058580875396728515625</LatitudeDegrees>
              <LongitudeDegrees>-2.8378326259553432464599609375</LongitudeDegrees>
            </Position>
            <AltitudeMeters>1112.4000244140625</AltitudeMeters>
            <DistanceMeters>106478.21302528</DistanceMeters>
          </Trackpoint>
          <Trackpoint>
            <Time>2021-07-28T09:11:21.000Z</Time>
            <Position>
              <LatitudeDegrees>41.3646654970943927764892578125</LatitudeDegrees>
              <LongitudeDegrees>-2.83787512220442295074462890625</LongitudeDegrees>
            </Position>
            <AltitudeMeters>1113.4000244140625</AltitudeMeters>
            <DistanceMeters>106490.36716123</DistanceMeters>
          </Trackpoint>
          <Trackpoint>
            <Time>2021-07-28T09:11:32.000Z</Time>
            <Position>
              <LatitudeDegrees>41.36478544212877750396728515625</LatitudeDegrees>
              <LongitudeDegrees>-2.83792893402278423309326171875</LongitudeDegrees>
            </Position>
            <AltitudeMeters>1114.4000244140625</AltitudeMeters>
            <DistanceMeters>106504.45389008</DistanceMeters>
          </Trackpoint>
          <Trackpoint>
            <Time>2021-07-28T09:11:42.000Z</Time>
            <Position>
              <LatitudeDegrees>41.3649018667638301849365234375</LatitudeDegrees>
              <LongitudeDegrees>-2.83797352574765682220458984375</LongitudeDegrees>
            </Position>
            <AltitudeMeters>1115.4000244140625</AltitudeMeters>
            <DistanceMeters>106517.93697203</DistanceMeters>
          </Trackpoint>
          <Trackpoint>
            <Time>2021-07-28T09:11:52.000Z</Time>
            <Position>
              <LatitudeDegrees>41.36502264998853206634521484375</LatitudeDegrees>
              <LongitudeDegrees>-2.838042676448822021484375</LongitudeDegrees>
            </Position>
            <AltitudeMeters>1116.4000244140625</AltitudeMeters>
            <DistanceMeters>106532.56892619</DistanceMeters>
          </Trackpoint>
          <Trackpoint>
            <Time>2021-07-28T09:11:58.000Z</Time>
            <Position>
              <LatitudeDegrees>41.36509842239320278167724609375</LatitudeDegrees>
              <LongitudeDegrees>-2.8380907885730266571044921875</LongitudeDegrees>
            </Position>
            <AltitudeMeters>1116.800048828125</AltitudeMeters>
            <DistanceMeters>106541.91155531</DistanceMeters>
          </Trackpoint>
          <Trackpoint>
            <Time>2021-07-28T09:12:07.000Z</Time>
            <Position>
              <LatitudeDegrees>41.3652218878269195556640625</LatitudeDegrees>
              <LongitudeDegrees>-2.838197909295558929443359375</LongitudeDegrees>
            </Position>
            <AltitudeMeters>1117.4000244140625</AltitudeMeters>
            <DistanceMeters>106558.31020393</DistanceMeters>
          </Trackpoint>
          <Trackpoint>
            <Time>2021-07-28T09:12:21.000Z</Time>
            <Position>
              <LatitudeDegrees>41.3655053637921810150146484375</LatitudeDegrees>
              <LongitudeDegrees>-2.83847920596599578857421875</LongitudeDegrees>
            </Position>
            <AltitudeMeters>1116.199951171875</AltitudeMeters>
            <DistanceMeters>106597.650116</DistanceMeters>
          </Trackpoint>
          <Trackpoint>
            <Time>2021-07-28T09:12:24.000Z</Time>
            <Position>
              <LatitudeDegrees>41.36564877815544605255126953125</LatitudeDegrees>
              <LongitudeDegrees>-2.83859948627650737762451171875</LongitudeDegrees>
            </Position>
            <AltitudeMeters>1114.4000244140625</AltitudeMeters>
            <DistanceMeters>106616.51142273</DistanceMeters>
          </Trackpoint>
          <Trackpoint>
            <Time>2021-07-28T09:12:25.000Z</Time>
            <Position>
              <LatitudeDegrees>41.36571197770535945892333984375</LatitudeDegrees>
              <LongitudeDegrees>-2.8386376239359378814697265625</LongitudeDegrees>
            </Position>
            <AltitudeMeters>1113.4000244140625</AltitudeMeters>
            <DistanceMeters>106624.23376854</DistanceMeters>
          </Trackpoint>
          <Trackpoint>
            <Time>2021-07-28T09:12:27.000Z</Time>
            <Position>
              <LatitudeDegrees>41.36585463769733905792236328125</LatitudeDegrees>
              <LongitudeDegrees>-2.83870761282742023468017578125</LongitudeDegrees>
            </Position>
            <AltitudeMeters>1111.199951171875</AltitudeMeters>
            <DistanceMeters>106641.15439512</DistanceMeters>
          </Trackpoint>
          <Trackpoint>
            <Time>2021-07-28T09:12:29.000Z</Time>
            <Position>
              <LatitudeDegrees>41.366006098687648773193359375</LatitudeDegrees>
              <LongitudeDegrees>-2.838750444352626800537109375</LongitudeDegrees>
            </Position>
            <AltitudeMeters>1109.5999755859375</AltitudeMeters>
            <DistanceMeters>106658.38779827</DistanceMeters>
          </Trackpoint>
          <Trackpoint>
            <Time>2021-07-28T09:12:32.000Z</Time>
            <Position>
              <LatitudeDegrees>41.3662330806255340576171875</LatitudeDegrees>
              <LongitudeDegrees>-2.838777266442775726318359375</LongitudeDegrees>
            </Position>
            <AltitudeMeters>1107.5999755859375</AltitudeMeters>
            <DistanceMeters>106683.75049776</DistanceMeters>
          </Trackpoint>
          <Trackpoint>
            <Time>2021-07-28T09:12:33.000Z</Time>
            <Position>
              <LatitudeDegrees>41.3663090206682682037353515625</LatitudeDegrees>
              <LongitudeDegrees>-2.8387881629168987274169921875</LongitudeDegrees>
            </Position>
            <AltitudeMeters>1106.5999755859375</AltitudeMeters>
            <DistanceMeters>106692.25207008</DistanceMeters>
          </Trackpoint>
          <Trackpoint>
            <Time>2021-07-28T09:12:34.000Z</Time>
            <Position>
              <LatitudeDegrees>41.36638655327260494232177734375</LatitudeDegrees>
              <LongitudeDegrees>-2.8387998975813388824462890625</LongitudeDegrees>
            </Position>
            <AltitudeMeters>1105.4000244140625</AltitudeMeters>
            <DistanceMeters>106700.93701271</DistanceMeters>
          </Trackpoint>
          <Trackpoint>
            <Time>2021-07-28T09:12:36.000Z</Time>
            <Position>
              <LatitudeDegrees>41.36654949747025966644287109375</LatitudeDegrees>
              <LongitudeDegrees>-2.83881573937833309173583984375</LongitudeDegrees>
            </Position>
            <AltitudeMeters>1103.800048828125</AltitudeMeters>
            <DistanceMeters>106719.12116348</DistanceMeters>
          </Trackpoint>
          <Trackpoint>
            <Time>2021-07-28T09:12:38.000Z</Time>
            <Position>
              <LatitudeDegrees>41.36670506559312343597412109375</LatitudeDegrees>
              <LongitudeDegrees>-2.83883417956531047821044921875</LongitudeDegrees>
            </Position>
            <AltitudeMeters>1102.199951171875</AltitudeMeters>
            <DistanceMeters>106736.50404063</DistanceMeters>
          </Trackpoint>
          <Trackpoint>
            <Time>2021-07-28T09:12:41.000Z</Time>
            <Position>
              <LatitudeDegrees>41.36690673418343067169189453125</LatitudeDegrees>
              <LongitudeDegrees>-2.83888229168951511383056640625</LongitudeDegrees>
            </Position>
            <AltitudeMeters>1100.800048828125</AltitudeMeters>
            <DistanceMeters>106759.3068883</DistanceMeters>
          </Trackpoint>
          <Trackpoint>
            <Time>2021-07-28T09:12:42.000Z</Time>
            <Position>
              <LatitudeDegrees>41.3669775612652301788330078125</LatitudeDegrees>
              <LongitudeDegrees>-2.83891313709318637847900390625</LongitudeDegrees>
            </Position>
            <AltitudeMeters>1100.199951171875</AltitudeMeters>
            <DistanceMeters>106767.59984086</DistanceMeters>
          </Trackpoint>
          <Trackpoint>
            <Time>2021-07-28T09:12:43.000Z</Time>
            <Position>
              <LatitudeDegrees>41.36705073527991771697998046875</LatitudeDegrees>
              <LongitudeDegrees>-2.8389608301222324371337890625</LongitudeDegrees>
            </Position>
            <AltitudeMeters>1099.199951171875</AltitudeMeters>
            <DistanceMeters>106776.66630576</DistanceMeters>
          </Trackpoint>
          <Trackpoint>
            <Time>2021-07-28T09:12:44.000Z</Time>
            <Position>
              <LatitudeDegrees>41.36712399311363697052001953125</LatitudeDegrees>
              <LongitudeDegrees>-2.83902327530086040496826171875</LongitudeDegrees>
            </Position>
            <AltitudeMeters>1098</AltitudeMeters>
            <DistanceMeters>106786.3455125</DistanceMeters>
          </Trackpoint>
          <Trackpoint>
            <Time>2021-07-28T09:12:46.000Z</Time>
            <Position>
              <LatitudeDegrees>41.3672565110027790069580078125</LatitudeDegrees>
              <LongitudeDegrees>-2.8391687013208866119384765625</LongitudeDegrees>
            </Position>
            <AltitudeMeters>1096.199951171875</AltitudeMeters>
            <DistanceMeters>106805.45320862</DistanceMeters>
          </Trackpoint>
          <Trackpoint>
            <Time>2021-07-28T09:12:47.000Z</Time>
            <Position>
              <LatitudeDegrees>41.36732247658073902130126953125</LatitudeDegrees>
              <LongitudeDegrees>-2.83925344236195087432861328125</LongitudeDegrees>
            </Position>
            <AltitudeMeters>1094.800048828125</AltitudeMeters>
            <DistanceMeters>106815.65166048</DistanceMeters>
          </Trackpoint>
          <Trackpoint>
            <Time>2021-07-28T09:12:48.000Z</Time>
            <Position>
              <LatitudeDegrees>41.3673906214535236358642578125</LatitudeDegrees>
              <LongitudeDegrees>-2.83934681676328182220458984375</LongitudeDegrees>
            </Position>
            <AltitudeMeters>1093.5999755859375</AltitudeMeters>
            <DistanceMeters>106826.53128557</DistanceMeters>
          </Trackpoint>
          <Trackpoint>
            <Time>2021-07-28T09:12:49.000Z</Time>
            <Position>
              <LatitudeDegrees>41.3674603588879108428955078125</LatitudeDegrees>
              <LongitudeDegrees>-2.839448489248752593994140625</LongitudeDegrees>
            </Position>
            <AltitudeMeters>1091.800048828125</AltitudeMeters>
            <DistanceMeters>106838.03658394</DistanceMeters>
          </Trackpoint>
          <Trackpoint>
            <Time>2021-07-28T09:12:50.000Z</Time>
            <Position>
              <LatitudeDegrees>41.36752984486520290374755859375</LatitudeDegrees>
              <LongitudeDegrees>-2.839555777609348297119140625</LongitudeDegrees>
            </Position>
            <AltitudeMeters>1090.5999755859375</AltitudeMeters>
            <DistanceMeters>106849.87418193</DistanceMeters>
          </Trackpoint>
          <Trackpoint>
            <Time>2021-07-28T09:12:56.000Z</Time>
            <Position>
              <LatitudeDegrees>41.3678569905459880828857421875</LatitudeDegrees>
              <LongitudeDegrees>-2.84020512364804744720458984375</LongitudeDegrees>
            </Position>
            <AltitudeMeters>1091</AltitudeMeters>
            <DistanceMeters>106915.20268099</DistanceMeters>
          </Trackpoint>
          <Trackpoint>
            <Time>2021-07-28T09:12:57.000Z</Time>
            <Position>
              <LatitudeDegrees>41.3678945414721965789794921875</LatitudeDegrees>
              <LongitudeDegrees>-2.84029883332550525665283203125</LongitudeDegrees>
            </Position>
            <AltitudeMeters>1091.800048828125</AltitudeMeters>
            <DistanceMeters>106924.0758561</DistanceMeters>
          </Trackpoint>
          <Trackpoint>
            <Time>2021-07-28T09:12:59.000Z</Time>
            <Position>
              <LatitudeDegrees>41.367961429059505462646484375</LatitudeDegrees>
              <LongitudeDegrees>-2.840463034808635711669921875</LongitudeDegrees>
            </Position>
            <AltitudeMeters>1093.199951171875</AltitudeMeters>
            <DistanceMeters>106939.68166149</DistanceMeters>
          </Trackpoint>
          <Trackpoint>
            <Time>2021-07-28T09:13:01.000Z</Time>
            <Position>
              <LatitudeDegrees>41.36801666580140590667724609375</LatitudeDegrees>
              <LongitudeDegrees>-2.8405974805355072021484375</LongitudeDegrees>
            </Position>
            <AltitudeMeters>1094.4000244140625</AltitudeMeters>
            <DistanceMeters>106952.48454974</DistanceMeters>
          </Trackpoint>
          <Trackpoint>
            <Time>2021-07-28T09:13:03.000Z</Time>
            <Position>
              <LatitudeDegrees>41.36806209571659564971923828125</LatitudeDegrees>
              <LongitudeDegrees>-2.840702421963214874267578125</LongitudeDegrees>
            </Position>
            <AltitudeMeters>1095.5999755859375</AltitudeMeters>
            <DistanceMeters>106962.60389097</DistanceMeters>
          </Trackpoint>
          <Trackpoint>
            <Time>2021-07-28T09:13:08.000Z</Time>
            <Position>
              <LatitudeDegrees>41.36813602410256862640380859375</LatitudeDegrees>
              <LongitudeDegrees>-2.8408764302730560302734375</LongitudeDegrees>
            </Position>
            <AltitudeMeters>1096.800048828125</AltitudeMeters>
            <DistanceMeters>106979.30644112</DistanceMeters>
          </Trackpoint>
          <Trackpoint>
            <Time>2021-07-28T09:13:13.000Z</Time>
            <Position>
              <LatitudeDegrees>41.36819654144346714019775390625</LatitudeDegrees>
              <LongitudeDegrees>-2.8409998118877410888671875</LongitudeDegrees>
            </Position>
            <AltitudeMeters>1097.800048828125</AltitudeMeters>
            <DistanceMeters>106991.61817793</DistanceMeters>
          </Trackpoint>
          <Trackpoint>
            <Time>2021-07-28T09:13:18.000Z</Time>
            <Position>
              <LatitudeDegrees>41.36826309375464916229248046875</LatitudeDegrees>
              <LongitudeDegrees>-2.84109704196453094482421875</LongitudeDegrees>
            </Position>
            <AltitudeMeters>1099</AltitudeMeters>
            <DistanceMeters>107002.61010327</DistanceMeters>
          </Trackpoint>
          <Trackpoint>
            <Time>2021-07-28T09:13:25.000Z</Time>
            <Position>
              <LatitudeDegrees>41.36836837045848369598388671875</LatitudeDegrees>
              <LongitudeDegrees>-2.8412212617695331573486328125</LongitudeDegrees>
            </Position>
            <AltitudeMeters>1100.199951171875</AltitudeMeters>
            <DistanceMeters>107018.26126565</DistanceMeters>
          </Trackpoint>
          <Trackpoint>
            <Time>2021-07-28T09:13:36.000Z</Time>
            <Position>
              <LatitudeDegrees>41.36865084059536457061767578125</LatitudeDegrees>
              <LongitudeDegrees>-2.8413002192974090576171875</LongitudeDegrees>
            </Position>
            <AltitudeMeters>1098.800048828125</AltitudeMeters>
            <DistanceMeters>107050.3850742</DistanceMeters>
          </Trackpoint>
          <Trackpoint>
            <Time>2021-07-28T09:13:37.000Z</Time>
            <Position>
              <LatitudeDegrees>41.3687049038708209991455078125</LatitudeDegrees>
              <LongitudeDegrees>-2.84130491316318511962890625</LongitudeDegrees>
            </Position>
            <AltitudeMeters>1097.800048828125</AltitudeMeters>
            <DistanceMeters>107056.41534101</DistanceMeters>
          </Trackpoint>
          <Trackpoint>
            <Time>2021-07-28T09:13:38.000Z</Time>
            <Position>
              <LatitudeDegrees>41.36876416392624378204345703125</LatitudeDegrees>
              <LongitudeDegrees>-2.841308601200580596923828125</LongitudeDegrees>
            </Position>
            <AltitudeMeters>1096.800048828125</AltitudeMeters>
            <DistanceMeters>107063.01815928</DistanceMeters>
          </Trackpoint>
          <Trackpoint>
            <Time>2021-07-28T09:13:39.000Z</Time>
            <Position>
              <LatitudeDegrees>41.36882769875228404998779296875</LatitudeDegrees>
              <LongitudeDegrees>-2.84131203778088092803955078125</LongitudeDegrees>
            </Position>
            <AltitudeMeters>1095.5999755859375</AltitudeMeters>
            <DistanceMeters>107070.09493849</DistanceMeters>
          </Trackpoint>
          <Trackpoint>
            <Time>2021-07-28T09:13:41.000Z</Time>
            <Position>
              <LatitudeDegrees>41.36896465905010700225830078125</LatitudeDegrees>
              <LongitudeDegrees>-2.8413402847945690155029296875</LongitudeDegrees>
            </Position>
            <AltitudeMeters>1094.199951171875</AltitudeMeters>
            <DistanceMeters>107085.52032387</DistanceMeters>
          </Trackpoint>
          <Trackpoint>
            <Time>2021-07-28T09:13:43.000Z</Time>
            <Position>
              <LatitudeDegrees>41.369103379547595977783203125</LatitudeDegrees>
              <LongitudeDegrees>-2.84142100252211093902587890625</LongitudeDegrees>
            </Position>
            <AltitudeMeters>1093.199951171875</AltitudeMeters>
            <DistanceMeters>107102.36821463</DistanceMeters>
          </Trackpoint>
          <Trackpoint>
            <Time>2021-07-28T09:13:47.000Z</Time>
            <Position>
              <LatitudeDegrees>41.36932139284908771514892578125</LatitudeDegrees>
              <LongitudeDegrees>-2.84169006161391735076904296875</LongitudeDegrees>
            </Position>
            <AltitudeMeters>1092.4000244140625</AltitudeMeters>
            <DistanceMeters>107135.44242604</DistanceMeters>
          </Trackpoint>
          <Trackpoint>
            <Time>2021-07-28T09:13:51.000Z</Time>
            <Position>
              <LatitudeDegrees>41.36949674226343631744384765625</LatitudeDegrees>
              <LongitudeDegrees>-2.8419001959264278411865234375</LongitudeDegrees>
            </Position>
            <AltitudeMeters>1094.199951171875</AltitudeMeters>
            <DistanceMeters>107161.69079309</DistanceMeters>
          </Trackpoint>
          <Trackpoint>
            <Time>2021-07-28T09:13:53.000Z</Time>
            <Position>
              <LatitudeDegrees>41.36956907808780670166015625</LatitudeDegrees>
              <LongitudeDegrees>-2.8419581986963748931884765625</LongitudeDegrees>
            </Position>
            <AltitudeMeters>1095.4000244140625</AltitudeMeters>
            <DistanceMeters>107171.08643182</DistanceMeters>
          </Trackpoint>
          <Trackpoint>
            <Time>2021-07-28T09:13:57.000Z</Time>
            <Position>
              <LatitudeDegrees>41.369664967060089111328125</LatitudeDegrees>
              <LongitudeDegrees>-2.84202483482658863067626953125</LongitudeDegrees>
            </Position>
            <AltitudeMeters>1096.5999755859375</AltitudeMeters>
            <DistanceMeters>107183.12298226</DistanceMeters>
          </Trackpoint>
          <Trackpoint>
            <Time>2021-07-28T09:14:06.000Z</Time>
            <Position>
              <LatitudeDegrees>41.36981793679296970367431640625</LatitudeDegrees>
              <LongitudeDegrees>-2.84210731275379657745361328125</LongitudeDegrees>
            </Position>
            <AltitudeMeters>1098</AltitudeMeters>
            <DistanceMeters>107201.48970668</DistanceMeters>
          </Trackpoint>
          <Trackpoint>
            <Time>2021-07-28T09:14:13.000Z</Time>
            <Position>
              <LatitudeDegrees>41.3699209503829479217529296875</LatitudeDegrees>
              <LongitudeDegrees>-2.84218224696815013885498046875</LongitudeDegrees>
            </Position>
            <AltitudeMeters>1099</AltitudeMeters>
            <DistanceMeters>107214.55233752</DistanceMeters>
          </Trackpoint>
          <Trackpoint>
            <Time>2021-07-28T09:14:22.000Z</Time>
            <Position>
              <LatitudeDegrees>41.370029412209987640380859375</LatitudeDegrees>
              <LongitudeDegrees>-2.84229171462357044219970703125</LongitudeDegrees>
            </Position>
            <AltitudeMeters>1100</AltitudeMeters>
            <DistanceMeters>107229.69591112</DistanceMeters>
          </Trackpoint>
          <Trackpoint>
            <Time>2021-07-28T09:14:30.000Z</Time>
            <Position>
              <LatitudeDegrees>41.37010526843369007110595703125</LatitudeDegrees>
              <LongitudeDegrees>-2.8423937223851680755615234375</LongitudeDegrees>
            </Position>
            <AltitudeMeters>1101</AltitudeMeters>
            <DistanceMeters>107241.69075201</DistanceMeters>
          </Trackpoint>
          <Trackpoint>
            <Time>2021-07-28T09:14:36.000Z</Time>
            <Position>
              <LatitudeDegrees>41.37015623040497303009033203125</LatitudeDegrees>
              <LongitudeDegrees>-2.84247024916112422943115234375</LongitudeDegrees>
            </Position>
            <AltitudeMeters>1101.4000244140625</AltitudeMeters>
            <DistanceMeters>107250.23681884</DistanceMeters>
          </Trackpoint>
          <Trackpoint>
            <Time>2021-07-28T09:14:40.000Z</Time>
            <Position>
              <LatitudeDegrees>41.37018338777124881744384765625</LatitudeDegrees>
              <LongitudeDegrees>-2.84252934157848358154296875</LongitudeDegrees>
            </Position>
            <AltitudeMeters>1102</AltitudeMeters>
            <DistanceMeters>107256.02487409</DistanceMeters>
          </Trackpoint>
          <Trackpoint>
            <Time>2021-07-28T09:14:49.000Z</Time>
            <Position>
              <LatitudeDegrees>41.37023971416056156158447265625</LatitudeDegrees>
              <LongitudeDegrees>-2.84266118891537189483642578125</LongitudeDegrees>
            </Position>
            <AltitudeMeters>1103.199951171875</AltitudeMeters>
            <DistanceMeters>107268.69731977</DistanceMeters>
          </Trackpoint>
          <Trackpoint>
            <Time>2021-07-28T09:14:57.000Z</Time>
            <Position>
              <LatitudeDegrees>41.37028413824737071990966796875</LatitudeDegrees>
              <LongitudeDegrees>-2.84276881255209445953369140625</LongitudeDegrees>
            </Position>
            <AltitudeMeters>1104.199951171875</AltitudeMeters>
            <DistanceMeters>107278.95668481</DistanceMeters>
          </Trackpoint>
          <Trackpoint>
            <Time>2021-07-28T09:15:06.000Z</Time>
            <Position>
              <LatitudeDegrees>41.37032814323902130126953125</LatitudeDegrees>
              <LongitudeDegrees>-2.84288867376744747161865234375</LongitudeDegrees>
            </Position>
            <AltitudeMeters>1105.4000244140625</AltitudeMeters>
            <DistanceMeters>107290.10198568</DistanceMeters>
          </Trackpoint>
          <Trackpoint>
            <Time>2021-07-28T09:15:15.000Z</Time>
            <Position>
              <LatitudeDegrees>41.37035270221531391143798828125</LatitudeDegrees>
              <LongitudeDegrees>-2.84300937317311763763427734375</LongitudeDegrees>
            </Position>
            <AltitudeMeters>1106.5999755859375</AltitudeMeters>
            <DistanceMeters>107300.54801095</DistanceMeters>
          </Trackpoint>
          <Trackpoint>
            <Time>2021-07-28T09:15:23.000Z</Time>
            <Position>
              <LatitudeDegrees>41.37036611326038837432861328125</LatitudeDegrees>
              <LongitudeDegrees>-2.8431179188191890716552734375</LongitudeDegrees>
            </Position>
            <AltitudeMeters>1107.5999755859375</AltitudeMeters>
            <DistanceMeters>107309.73665691</DistanceMeters>
          </Trackpoint>
          <Trackpoint>
            <Time>2021-07-28T09:15:32.000Z</Time>
            <Position>
              <LatitudeDegrees>41.37036460451781749725341796875</LatitudeDegrees>
              <LongitudeDegrees>-2.843240797519683837890625</LongitudeDegrees>
            </Position>
            <AltitudeMeters>1108.800048828125</AltitudeMeters>
            <DistanceMeters>107320.00174152</DistanceMeters>
          </Trackpoint>
          <Trackpoint>
            <Time>2021-07-28T09:15:39.000Z</Time>
            <Position>
              <LatitudeDegrees>41.37035387568175792694091796875</LatitudeDegrees>
              <LongitudeDegrees>-2.8433386981487274169921875</LongitudeDegrees>
            </Position>
            <AltitudeMeters>1109.800048828125</AltitudeMeters>
            <DistanceMeters>107328.26524188</DistanceMeters>
          </Trackpoint>
          <Trackpoint>
            <Time>2021-07-28T09:15:49.000Z</Time>
            <Position>
              <LatitudeDegrees>41.370337866246700286865234375</LatitudeDegrees>
              <LongitudeDegrees>-2.84347607754170894622802734375</LongitudeDegrees>
            </Position>
            <AltitudeMeters>1110.800048828125</AltitudeMeters>
            <DistanceMeters>107339.87756858</DistanceMeters>
          </Trackpoint>
          <Trackpoint>
            <Time>2021-07-28T09:15:55.000Z</Time>
            <Position>
              <LatitudeDegrees>41.37030777521431446075439453125</LatitudeDegrees>
              <LongitudeDegrees>-2.843553610146045684814453125</LongitudeDegrees>
            </Position>
            <AltitudeMeters>1112</AltitudeMeters>
            <DistanceMeters>107347.16866315</DistanceMeters>
          </Trackpoint>
          <Trackpoint>
            <Time>2021-07-28T09:16:04.000Z</Time>
            <Position>
              <LatitudeDegrees>41.3702954538166522979736328125</LatitudeDegrees>
              <LongitudeDegrees>-2.8436798416078090667724609375</LongitudeDegrees>
            </Position>
            <AltitudeMeters>1113</AltitudeMeters>
            <DistanceMeters>107357.80104421</DistanceMeters>
          </Trackpoint>
          <Trackpoint>
            <Time>2021-07-28T09:16:14.000Z</Time>
            <Position>
              <LatitudeDegrees>41.37030878104269504547119140625</LatitudeDegrees>
              <LongitudeDegrees>-2.84380850382149219512939453125</LongitudeDegrees>
            </Position>
            <AltitudeMeters>1114.199951171875</AltitudeMeters>
            <DistanceMeters>107368.64991588</DistanceMeters>
          </Trackpoint>
          <Trackpoint>
            <Time>2021-07-28T09:16:24.000Z</Time>
            <Position>
              <LatitudeDegrees>41.3703685440123081207275390625</LatitudeDegrees>
              <LongitudeDegrees>-2.8439115174114704132080078125</LongitudeDegrees>
            </Position>
            <AltitudeMeters>1115.4000244140625</AltitudeMeters>
            <DistanceMeters>107379.52622046</DistanceMeters>
          </Trackpoint>
          <Trackpoint>
            <Time>2021-07-28T09:16:38.000Z</Time>
            <Position>
              <LatitudeDegrees>41.37049552984535694122314453125</LatitudeDegrees>
              <LongitudeDegrees>-2.84402676858007907867431640625</LongitudeDegrees>
            </Position>
            <AltitudeMeters>1116.4000244140625</AltitudeMeters>
            <DistanceMeters>107396.62680512</DistanceMeters>
          </Trackpoint>
          <Trackpoint>
            <Time>2021-07-28T09:16:48.000Z</Time>
            <Position>
              <LatitudeDegrees>41.3706086017191410064697265625</LatitudeDegrees>
              <LongitudeDegrees>-2.84406649880111217498779296875</LongitudeDegrees>
            </Position>
            <AltitudeMeters>1117.4000244140625</AltitudeMeters>
            <DistanceMeters>107409.64199639</DistanceMeters>
          </Trackpoint>
          <Trackpoint>
            <Time>2021-07-28T09:16:58.000Z</Time>
            <Position>
              <LatitudeDegrees>41.37072703801095485687255859375</LatitudeDegrees>
              <LongitudeDegrees>-2.84409181214869022369384765625</LongitudeDegrees>
            </Position>
            <AltitudeMeters>1118.5999755859375</AltitudeMeters>
            <DistanceMeters>107422.99282704</DistanceMeters>
          </Trackpoint>
          <Trackpoint>
            <Time>2021-07-28T09:17:10.000Z</Time>
            <Position>
              <LatitudeDegrees>41.37086969800293445587158203125</LatitudeDegrees>
              <LongitudeDegrees>-2.84409306943416595458984375</LongitudeDegrees>
            </Position>
            <AltitudeMeters>1119.5999755859375</AltitudeMeters>
            <DistanceMeters>107438.87167443</DistanceMeters>
          </Trackpoint>
          <Trackpoint>
            <Time>2021-07-28T09:17:24.000Z</Time>
            <Position>
              <LatitudeDegrees>41.37104119174182415008544921875</LatitudeDegrees>
              <LongitudeDegrees>-2.844084687530994415283203125</LongitudeDegrees>
            </Position>
            <AltitudeMeters>1120.5999755859375</AltitudeMeters>
            <DistanceMeters>107457.97180763</DistanceMeters>
          </Trackpoint>
          <Trackpoint>
            <Time>2021-07-28T09:17:38.000Z</Time>
            <Position>
              <LatitudeDegrees>41.3712157867848873138427734375</LatitudeDegrees>
              <LongitudeDegrees>-2.8440456278622150421142578125</LongitudeDegrees>
            </Position>
            <AltitudeMeters>1121.800048828125</AltitudeMeters>
            <DistanceMeters>107477.67650826</DistanceMeters>
          </Trackpoint>
          <Trackpoint>
            <Time>2021-07-28T09:17:47.000Z</Time>
            <Position>
              <LatitudeDegrees>41.3713227398693561553955078125</LatitudeDegrees>
              <LongitudeDegrees>-2.84401151351630687713623046875</LongitudeDegrees>
            </Position>
            <AltitudeMeters>1122.800048828125</AltitudeMeters>
            <DistanceMeters>107489.91652453</DistanceMeters>
          </Trackpoint>
          <Trackpoint>
            <Time>2021-07-28T09:17:52.000Z</Time>
            <Position>
              <LatitudeDegrees>41.37137948535382747650146484375</LatitudeDegrees>
              <LongitudeDegrees>-2.84396692179143428802490234375</LongitudeDegrees>
            </Position>
            <AltitudeMeters>1123.4000244140625</AltitudeMeters>
            <DistanceMeters>107497.24899173</DistanceMeters>
          </Trackpoint>
          <Trackpoint>
            <Time>2021-07-28T09:17:55.000Z</Time>
            <Position>
              <LatitudeDegrees>41.3714146055281162261962890625</LatitudeDegrees>
              <LongitudeDegrees>-2.84393624402582645416259765625</LongitudeDegrees>
            </Position>
            <AltitudeMeters>1124</AltitudeMeters>
            <DistanceMeters>107501.92272203</DistanceMeters>
          </Trackpoint>
          <Trackpoint>
            <Time>2021-07-28T09:17:57.000Z</Time>
            <Position>
              <LatitudeDegrees>41.3714394159615039825439453125</LatitudeDegrees>
              <LongitudeDegrees>-2.84391763620078563690185546875</LongitudeDegrees>
            </Position>
            <AltitudeMeters>1124.199951171875</AltitudeMeters>
            <DistanceMeters>107505.09154594</DistanceMeters>
          </Trackpoint>
          <Trackpoint>
            <Time>2021-07-28T09:18:08.000Z</Time>
            <Position>
              <LatitudeDegrees>41.37157981283962726593017578125</LatitudeDegrees>
              <LongitudeDegrees>-2.84379140473902225494384765625</LongitudeDegrees>
            </Position>
            <AltitudeMeters>1125</AltitudeMeters>
            <DistanceMeters>107523.94255648</DistanceMeters>
          </Trackpoint>
          <Trackpoint>
            <Time>2021-07-28T09:18:21.000Z</Time>
            <Position>
              <LatitudeDegrees>41.37175633572041988372802734375</LatitudeDegrees>
              <LongitudeDegrees>-2.8435785882174968719482421875</LongitudeDegrees>
            </Position>
            <AltitudeMeters>1126</AltitudeMeters>
            <DistanceMeters>107550.43780403</DistanceMeters>
          </Trackpoint>
          <Trackpoint>
            <Time>2021-07-28T09:18:33.000Z</Time>
            <Position>
              <LatitudeDegrees>41.3719369657337665557861328125</LatitudeDegrees>
              <LongitudeDegrees>-2.84337691962718963623046875</LongitudeDegrees>
            </Position>
            <AltitudeMeters>1127.199951171875</AltitudeMeters>
            <DistanceMeters>107576.66603793</DistanceMeters>
          </Trackpoint>
          <Trackpoint>
            <Time>2021-07-28T09:19:02.000Z</Time>
            <Position>
              <LatitudeDegrees>41.37235664762556552886962890625</LatitudeDegrees>
              <LongitudeDegrees>-2.842894457280635833740234375</LongitudeDegrees>
            </Position>
            <AltitudeMeters>1128.199951171875</AltitudeMeters>
            <DistanceMeters>107638.35755362</DistanceMeters>
          </Trackpoint>
          <Trackpoint>
            <Time>2021-07-28T09:19:03.000Z</Time>
            <Position>
              <LatitudeDegrees>41.3723704777657985687255859375</LatitudeDegrees>
              <LongitudeDegrees>-2.8428805433213710784912109375</LongitudeDegrees>
            </Position>
            <AltitudeMeters>1128.4000244140625</AltitudeMeters>
            <DistanceMeters>107640.28638526</DistanceMeters>
          </Trackpoint>
          <Trackpoint>
            <Time>2021-07-28T09:19:14.000Z</Time>
            <Position>
              <LatitudeDegrees>41.37251858599483966827392578125</LatitudeDegrees>
              <LongitudeDegrees>-2.84273662604391574859619140625</LongitudeDegrees>
            </Position>
            <AltitudeMeters>1129.800048828125</AltitudeMeters>
            <DistanceMeters>107660.68815831</DistanceMeters>
          </Trackpoint>
          <Trackpoint>
            <Time>2021-07-28T09:19:20.000Z</Time>
            <Position>
              <LatitudeDegrees>41.3726018182933330535888671875</LatitudeDegrees>
              <LongitudeDegrees>-2.84267141483724117279052734375</LongitudeDegrees>
            </Position>
            <AltitudeMeters>1130.800048828125</AltitudeMeters>
            <DistanceMeters>107671.43416304</DistanceMeters>
          </Trackpoint>
          <Trackpoint>
            <Time>2021-07-28T09:19:41.000Z</Time>
            <Position>
              <LatitudeDegrees>41.37293499894440174102783203125</LatitudeDegrees>
              <LongitudeDegrees>-2.84254266880452632904052734375</LongitudeDegrees>
            </Position>
            <AltitudeMeters>1131.800048828125</AltitudeMeters>
            <DistanceMeters>107710.04554129</DistanceMeters>
          </Trackpoint>
          <Trackpoint>
            <Time>2021-07-28T09:19:48.000Z</Time>
            <Position>
              <LatitudeDegrees>41.3730477355420589447021484375</LatitudeDegrees>
              <LongitudeDegrees>-2.84254015423357486724853515625</LongitudeDegrees>
            </Position>
            <AltitudeMeters>1133</AltitudeMeters>
            <DistanceMeters>107722.59518524</DistanceMeters>
          </Trackpoint>
          <Trackpoint>
            <Time>2021-07-28T09:20:03.000Z</Time>
            <Position>
              <LatitudeDegrees>41.37326692230999469757080078125</LatitudeDegrees>
              <LongitudeDegrees>-2.84251324832439422607421875</LongitudeDegrees>
            </Position>
            <AltitudeMeters>1133.800048828125</AltitudeMeters>
            <DistanceMeters>107747.09439178</DistanceMeters>
          </Trackpoint>
          <Trackpoint>
            <Time>2021-07-28T09:20:16.000Z</Time>
            <Position>
              <LatitudeDegrees>41.3734353147447109222412109375</LatitudeDegrees>
              <LongitudeDegrees>-2.84248366020619869232177734375</LongitudeDegrees>
            </Position>
            <AltitudeMeters>1134.800048828125</AltitudeMeters>
            <DistanceMeters>107765.99873798</DistanceMeters>
          </Trackpoint>
          <Trackpoint>
            <Time>2021-07-28T09:20:26.000Z</Time>
            <Position>
              <LatitudeDegrees>41.37357034720480442047119140625</LatitudeDegrees>
              <LongitudeDegrees>-2.84246773459017276763916015625</LongitudeDegrees>
            </Position>
            <AltitudeMeters>1136</AltitudeMeters>
            <DistanceMeters>107781.086754</DistanceMeters>
          </Trackpoint>
          <Trackpoint>
            <Time>2021-07-28T09:20:35.000Z</Time>
            <Position>
              <LatitudeDegrees>41.373689956963062286376953125</LatitudeDegrees>
              <LongitudeDegrees>-2.8424550779163837432861328125</LongitudeDegrees>
            </Position>
            <AltitudeMeters>1137</AltitudeMeters>
            <DistanceMeters>107794.44164223</DistanceMeters>
          </Trackpoint>
          <Trackpoint>
            <Time>2021-07-28T09:20:41.000Z</Time>
            <Position>
              <LatitudeDegrees>41.3737628795206546783447265625</LatitudeDegrees>
              <LongitudeDegrees>-2.8424483723938465118408203125</LongitudeDegrees>
            </Position>
            <AltitudeMeters>1138</AltitudeMeters>
            <DistanceMeters>107802.57739422</DistanceMeters>
          </Trackpoint>
          <Trackpoint>
            <Time>2021-07-28T09:20:52.000Z</Time>
            <Position>
              <LatitudeDegrees>41.3738906197249889373779296875</LatitudeDegrees>
              <LongitudeDegrees>-2.8424403257668018341064453125</LongitudeDegrees>
            </Position>
            <AltitudeMeters>1139.199951171875</AltitudeMeters>
            <DistanceMeters>107816.81111457</DistanceMeters>
          </Trackpoint>
          <Trackpoint>
            <Time>2021-07-28T09:21:03.000Z</Time>
            <Position>
              <LatitudeDegrees>41.374015510082244873046875</LatitudeDegrees>
              <LongitudeDegrees>-2.84242364577949047088623046875</LongitudeDegrees>
            </Position>
            <AltitudeMeters>1140.4000244140625</AltitudeMeters>
            <DistanceMeters>107830.78165759</DistanceMeters>
          </Trackpoint>
          <Trackpoint>
            <Time>2021-07-28T09:21:19.000Z</Time>
            <Position>
              <LatitudeDegrees>41.3742191903293132781982421875</LatitudeDegrees>
              <LongitudeDegrees>-2.84241962246596813201904296875</LongitudeDegrees>
            </Position>
            <AltitudeMeters>1141.5999755859375</AltitudeMeters>
            <DistanceMeters>107853.45404391</DistanceMeters>
          </Trackpoint>
          <Trackpoint>
            <Time>2021-07-28T09:21:37.000Z</Time>
            <Position>
              <LatitudeDegrees>41.37463049031794071197509765625</LatitudeDegrees>
              <LongitudeDegrees>-2.8423662297427654266357421875</LongitudeDegrees>
            </Position>
            <AltitudeMeters>1139.800048828125</AltitudeMeters>
            <DistanceMeters>107899.44913332</DistanceMeters>
          </Trackpoint>
          <Trackpoint>
            <Time>2021-07-28T09:21:40.000Z</Time>
            <Position>
              <LatitudeDegrees>41.37478555552661418914794921875</LatitudeDegrees>
              <LongitudeDegrees>-2.84234636463224887847900390625</LongitudeDegrees>
            </Position>
            <AltitudeMeters>1138.4000244140625</AltitudeMeters>
            <DistanceMeters>107916.78779834</DistanceMeters>
          </Trackpoint>
          <Trackpoint>
            <Time>2021-07-28T09:21:42.000Z</Time>
            <Position>
              <LatitudeDegrees>41.374900974333286285400390625</LatitudeDegrees>
              <LongitudeDegrees>-2.8423216380178928375244140625</LongitudeDegrees>
            </Position>
            <AltitudeMeters>1137</AltitudeMeters>
            <DistanceMeters>107929.7991731</DistanceMeters>
          </Trackpoint>
          <Trackpoint>
            <Time>2021-07-28T09:21:43.000Z</Time>
            <Position>
              <LatitudeDegrees>41.37496006675064563751220703125</LatitudeDegrees>
              <LongitudeDegrees>-2.84231099300086498260498046875</LongitudeDegrees>
            </Position>
            <AltitudeMeters>1136.800048828125</AltitudeMeters>
            <DistanceMeters>107936.43609354</DistanceMeters>
          </Trackpoint>
          <Trackpoint>
            <Time>2021-07-28T09:21:50.000Z</Time>
            <Position>
              <LatitudeDegrees>41.37528218328952789306640625</LatitudeDegrees>
              <LongitudeDegrees>-2.8423248231410980224609375</LongitudeDegrees>
            </Position>
            <AltitudeMeters>1138.199951171875</AltitudeMeters>
            <DistanceMeters>107972.30688462</DistanceMeters>
          </Trackpoint>
          <Trackpoint>
            <Time>2021-07-28T09:21:55.000Z</Time>
            <Position>
              <LatitudeDegrees>41.3754365779459476470947265625</LatitudeDegrees>
              <LongitudeDegrees>-2.8423417545855045318603515625</LongitudeDegrees>
            </Position>
            <AltitudeMeters>1139.4000244140625</AltitudeMeters>
            <DistanceMeters>107989.54893139</DistanceMeters>
          </Trackpoint>
          <Trackpoint>
            <Time>2021-07-28T09:22:10.000Z</Time>
            <Position>
              <LatitudeDegrees>41.37599405832588672637939453125</LatitudeDegrees>
              <LongitudeDegrees>-2.84251031465828418731689453125</LongitudeDegrees>
            </Position>
            <AltitudeMeters>1138</AltitudeMeters>
            <DistanceMeters>108053.17462133</DistanceMeters>
          </Trackpoint>
          <Trackpoint>
            <Time>2021-07-28T09:22:12.000Z</Time>
            <Position>
              <LatitudeDegrees>41.37611635029315948486328125</LatitudeDegrees>
              <LongitudeDegrees>-2.84255792386829853057861328125</LongitudeDegrees>
            </Position>
            <AltitudeMeters>1136.5999755859375</AltitudeMeters>
            <DistanceMeters>108067.35495074</DistanceMeters>
          </Trackpoint>
          <Trackpoint>
            <Time>2021-07-28T09:22:14.000Z</Time>
            <Position>
              <LatitudeDegrees>41.376259513199329376220703125</LatitudeDegrees>
              <LongitudeDegrees>-2.8426294215023517608642578125</LongitudeDegrees>
            </Position>
            <AltitudeMeters>1134.5999755859375</AltitudeMeters>
            <DistanceMeters>108084.37136726</DistanceMeters>
          </Trackpoint>
          <Trackpoint>
            <Time>2021-07-28T09:22:15.000Z</Time>
            <Position>
              <LatitudeDegrees>41.3763369619846343994140625</LatitudeDegrees>
              <LongitudeDegrees>-2.8426793776452541351318359375</LongitudeDegrees>
            </Position>
            <AltitudeMeters>1133.4000244140625</AltitudeMeters>
            <DistanceMeters>108093.94881559</DistanceMeters>
          </Trackpoint>
          <Trackpoint>
            <Time>2021-07-28T09:22:17.000Z</Time>
            <Position>
              <LatitudeDegrees>41.3765005767345428466796875</LatitudeDegrees>
              <LongitudeDegrees>-2.84280636347830295562744140625</LongitudeDegrees>
            </Position>
            <AltitudeMeters>1131.4000244140625</AltitudeMeters>
            <DistanceMeters>108115.02269017</DistanceMeters>
          </Trackpoint>
          <Trackpoint>
            <Time>2021-07-28T09:22:18.000Z</Time>
            <Position>
              <LatitudeDegrees>41.3765879161655902862548828125</LatitudeDegrees>
              <LongitudeDegrees>-2.842880375683307647705078125</LongitudeDegrees>
            </Position>
            <AltitudeMeters>1130</AltitudeMeters>
            <DistanceMeters>108126.5421074</DistanceMeters>
          </Trackpoint>
          <Trackpoint>
            <Time>2021-07-28T09:22:19.000Z</Time>
            <Position>
              <LatitudeDegrees>41.376677937805652618408203125</LatitudeDegrees>
              <LongitudeDegrees>-2.84295983612537384033203125</LongitudeDegrees>
            </Position>
            <AltitudeMeters>1128.199951171875</AltitudeMeters>
            <DistanceMeters>108138.55988767</DistanceMeters>
          </Trackpoint>
          <Trackpoint>
            <Time>2021-07-28T09:22:20.000Z</Time>
            <Position>
              <LatitudeDegrees>41.37676955200731754302978515625</LatitudeDegrees>
              <LongitudeDegrees>-2.84304424189031124114990234375</LongitudeDegrees>
            </Position>
            <AltitudeMeters>1127.199951171875</AltitudeMeters>
            <DistanceMeters>108150.9560488</DistanceMeters>
          </Trackpoint>
          <Trackpoint>
            <Time>2021-07-28T09:22:21.000Z</Time>
            <Position>
              <LatitudeDegrees>41.3768618367612361907958984375</LatitudeDegrees>
              <LongitudeDegrees>-2.84312956966459751129150390625</LongitudeDegrees>
            </Position>
            <AltitudeMeters>1125.800048828125</AltitudeMeters>
            <DistanceMeters>108163.45739005</DistanceMeters>
          </Trackpoint>
          <Trackpoint>
            <Time>2021-07-28T09:22:23.000Z</Time>
            <Position>
              <LatitudeDegrees>41.37704179622232913970947265625</LatitudeDegrees>
              <LongitudeDegrees>-2.8432996384799480438232421875</LongitudeDegrees>
            </Position>
            <AltitudeMeters>1124.800048828125</AltitudeMeters>
            <DistanceMeters>108188.01255782</DistanceMeters>
          </Trackpoint>
          <Trackpoint>
            <Time>2021-07-28T09:22:28.000Z</Time>
            <Position>
              <LatitudeDegrees>41.37742686085402965545654296875</LatitudeDegrees>
              <LongitudeDegrees>-2.84366190433502197265625</LongitudeDegrees>
            </Position>
            <AltitudeMeters>1126.199951171875</AltitudeMeters>
            <DistanceMeters>108240.47453395</DistanceMeters>
          </Trackpoint>
          <Trackpoint>
            <Time>2021-07-28T09:22:30.000Z</Time>
            <Position>
              <LatitudeDegrees>41.37754772789776325225830078125</LatitudeDegrees>
              <LongitudeDegrees>-2.8437750600278377532958984375</LongitudeDegrees>
            </Position>
            <AltitudeMeters>1128.199951171875</AltitudeMeters>
            <DistanceMeters>108256.91497945</DistanceMeters>
          </Trackpoint>
          <Trackpoint>
            <Time>2021-07-28T09:22:33.000Z</Time>
            <Position>
              <LatitudeDegrees>41.37770363129675388336181640625</LatitudeDegrees>
              <LongitudeDegrees>-2.843914367258548736572265625</LongitudeDegrees>
            </Position>
            <AltitudeMeters>1129.5999755859375</AltitudeMeters>
            <DistanceMeters>108277.80681385</DistanceMeters>
          </Trackpoint>
          <Trackpoint>
            <Time>2021-07-28T09:22:36.000Z</Time>
            <Position>
              <LatitudeDegrees>41.377835981547832489013671875</LatitudeDegrees>
              <LongitudeDegrees>-2.844033055007457733154296875</LongitudeDegrees>
            </Position>
            <AltitudeMeters>1130.5999755859375</AltitudeMeters>
            <DistanceMeters>108295.56206656</DistanceMeters>
          </Trackpoint>
          <Trackpoint>
            <Time>2021-07-28T09:22:44.000Z</Time>
            <Position>
              <LatitudeDegrees>41.37810328043997287750244140625</LatitudeDegrees>
              <LongitudeDegrees>-2.84428417682647705078125</LongitudeDegrees>
            </Position>
            <AltitudeMeters>1131.800048828125</AltitudeMeters>
            <DistanceMeters>108331.9623841</DistanceMeters>
          </Trackpoint>
          <Trackpoint>
            <Time>2021-07-28T09:23:01.000Z</Time>
            <Position>
              <LatitudeDegrees>41.37858641333878040313720703125</LatitudeDegrees>
              <LongitudeDegrees>-2.844682149589061737060546875</LongitudeDegrees>
            </Position>
            <AltitudeMeters>1132.199951171875</AltitudeMeters>
            <DistanceMeters>108395.17879424</DistanceMeters>
          </Trackpoint>
          <Trackpoint>
            <Time>2021-07-28T09:23:15.000Z</Time>
            <Position>
              <LatitudeDegrees>41.37905579991638660430908203125</LatitudeDegrees>
              <LongitudeDegrees>-2.84509579651057720184326171875</LongitudeDegrees>
            </Position>
            <AltitudeMeters>1131.5999755859375</AltitudeMeters>
            <DistanceMeters>108457.81141999</DistanceMeters>
          </Trackpoint>
          <Trackpoint>
            <Time>2021-07-28T09:23:19.000Z</Time>
            <Position>
              <LatitudeDegrees>41.37920768000185489654541015625</LatitudeDegrees>
              <LongitudeDegrees>-2.84523158334195613861083984375</LongitudeDegrees>
            </Position>
            <AltitudeMeters>1130.5999755859375</AltitudeMeters>
            <DistanceMeters>108478.16755292</DistanceMeters>
          </Trackpoint>
          <Trackpoint>
            <Time>2021-07-28T09:23:20.000Z</Time>
            <Position>
              <LatitudeDegrees>41.379252187907695770263671875</LatitudeDegrees>
              <LongitudeDegrees>-2.845270223915576934814453125</LongitudeDegrees>
            </Position>
            <AltitudeMeters>1130.199951171875</AltitudeMeters>
            <DistanceMeters>108484.0798643</DistanceMeters>
          </Trackpoint>
          <Trackpoint>
            <Time>2021-07-28T09:23:22.000Z</Time>
            <Position>
              <LatitudeDegrees>41.37935050763189792633056640625</LatitudeDegrees>
              <LongitudeDegrees>-2.845350690186023712158203125</LongitudeDegrees>
            </Position>
            <AltitudeMeters>1129.4000244140625</AltitudeMeters>
            <DistanceMeters>108496.92148632</DistanceMeters>
          </Trackpoint>
          <Trackpoint>
            <Time>2021-07-28T09:23:25.000Z</Time>
            <Position>
              <LatitudeDegrees>41.3795158825814723968505859375</LatitudeDegrees>
              <LongitudeDegrees>-2.8454873152077198028564453125</LongitudeDegrees>
            </Position>
            <AltitudeMeters>1127.800048828125</AltitudeMeters>
            <DistanceMeters>108518.57778056</DistanceMeters>
          </Trackpoint>
          <Trackpoint>
            <Time>2021-07-28T09:23:28.000Z</Time>
            <Position>
              <LatitudeDegrees>41.3796937465667724609375</LatitudeDegrees>
              <LongitudeDegrees>-2.84564095549285411834716796875</LongitudeDegrees>
            </Position>
            <AltitudeMeters>1126.4000244140625</AltitudeMeters>
            <DistanceMeters>108542.168916</DistanceMeters>
          </Trackpoint>
          <Trackpoint>
            <Time>2021-07-28T09:23:36.000Z</Time>
            <Position>
              <LatitudeDegrees>41.38016087003052234649658203125</LatitudeDegrees>
              <LongitudeDegrees>-2.84604228101670742034912109375</LongitudeDegrees>
            </Position>
            <AltitudeMeters>1126.199951171875</AltitudeMeters>
            <DistanceMeters>108604.0275847</DistanceMeters>
          </Trackpoint>
          <Trackpoint>
            <Time>2021-07-28T09:23:39.000Z</Time>
            <Position>
              <LatitudeDegrees>41.38027922250330448150634765625</LatitudeDegrees>
              <LongitudeDegrees>-2.84613682888448238372802734375</LongitudeDegrees>
            </Position>
            <AltitudeMeters>1127.5999755859375</AltitudeMeters>
            <DistanceMeters>108619.38608909</DistanceMeters>
          </Trackpoint>
          <Trackpoint>
            <Time>2021-07-28T09:23:43.000Z</Time>
            <Position>
              <LatitudeDegrees>41.3804067112505435943603515625</LatitudeDegrees>
              <LongitudeDegrees>-2.84622970037162303924560546875</LongitudeDegrees>
            </Position>
            <AltitudeMeters>1128.800048828125</AltitudeMeters>
            <DistanceMeters>108635.55739125</DistanceMeters>
          </Trackpoint>
          <Trackpoint>
            <Time>2021-07-28T09:23:58.000Z</Time>
            <Position>
              <LatitudeDegrees>41.38091909699141979217529296875</LatitudeDegrees>
              <LongitudeDegrees>-2.84651133231818675994873046875</LongitudeDegrees>
            </Position>
            <AltitudeMeters>1129</AltitudeMeters>
            <DistanceMeters>108697.2466381</DistanceMeters>
          </Trackpoint>
          <Trackpoint>
            <Time>2021-07-28T09:24:05.000Z</Time>
            <Position>
              <LatitudeDegrees>41.38124498538672924041748046875</LatitudeDegrees>
              <LongitudeDegrees>-2.84665432758629322052001953125</LongitudeDegrees>
            </Position>
            <AltitudeMeters>1127.5999755859375</AltitudeMeters>
            <DistanceMeters>108735.43401919</DistanceMeters>
          </Trackpoint>
          <Trackpoint>
            <Time>2021-07-28T09:24:07.000Z</Time>
            <Position>
              <LatitudeDegrees>41.3813572190701961517333984375</LatitudeDegrees>
              <LongitudeDegrees>-2.84670495428144931793212890625</LongitudeDegrees>
            </Position>
            <AltitudeMeters>1126.4000244140625</AltitudeMeters>
            <DistanceMeters>108748.62152245</DistanceMeters>
          </Trackpoint>
          <Trackpoint>
            <Time>2021-07-28T09:24:11.000Z</Time>
            <Position>
              <LatitudeDegrees>41.38160280883312225341796875</LatitudeDegrees>
              <LongitudeDegrees>-2.84681375138461589813232421875</LongitudeDegrees>
            </Position>
            <AltitudeMeters>1125</AltitudeMeters>
            <DistanceMeters>108777.42668873</DistanceMeters>
          </Trackpoint>
          <Trackpoint>
            <Time>2021-07-28T09:24:13.000Z</Time>
            <Position>
              <LatitudeDegrees>41.38173935003578662872314453125</LatitudeDegrees>
              <LongitudeDegrees>-2.846877537667751312255859375</LongitudeDegrees>
            </Position>
            <AltitudeMeters>1123.800048828125</AltitudeMeters>
            <DistanceMeters>108793.53084333</DistanceMeters>
          </Trackpoint>
          <Trackpoint>
            <Time>2021-07-28T09:24:14.000Z</Time>
            <Position>
              <LatitudeDegrees>41.3818111829459667205810546875</LatitudeDegrees>
              <LongitudeDegrees>-2.84691198728978633880615234375</LongitudeDegrees>
            </Position>
            <AltitudeMeters>1122.800048828125</AltitudeMeters>
            <DistanceMeters>108802.02816592</DistanceMeters>
          </Trackpoint>
          <Trackpoint>
            <Time>2021-07-28T09:24:16.000Z</Time>
            <Position>
              <LatitudeDegrees>41.3819657452404499053955078125</LatitudeDegrees>
              <LongitudeDegrees>-2.84698046743869781494140625</LongitudeDegrees>
            </Position>
            <AltitudeMeters>1121.199951171875</AltitudeMeters>
            <DistanceMeters>108820.15711135</DistanceMeters>
          </Trackpoint>
          <Trackpoint>
            <Time>2021-07-28T09:24:18.000Z</Time>
            <Position>
              <LatitudeDegrees>41.38213681988418102264404296875</LatitudeDegrees>
              <LongitudeDegrees>-2.8470547311007976531982421875</LongitudeDegrees>
            </Position>
            <AltitudeMeters>1119.4000244140625</AltitudeMeters>
            <DistanceMeters>108840.1827373</DistanceMeters>
          </Trackpoint>
          <Trackpoint>
            <Time>2021-07-28T09:24:20.000Z</Time>
            <Position>
              <LatitudeDegrees>41.3823134265840053558349609375</LatitudeDegrees>
              <LongitudeDegrees>-2.847128994762897491455078125</LongitudeDegrees>
            </Position>
            <AltitudeMeters>1117.800048828125</AltitudeMeters>
            <DistanceMeters>108860.79433614</DistanceMeters>
          </Trackpoint>
          <Trackpoint>
            <Time>2021-07-28T09:24:26.000Z</Time>
            <Position>
              <LatitudeDegrees>41.382805444300174713134765625</LatitudeDegrees>
              <LongitudeDegrees>-2.847346924245357513427734375</LongitudeDegrees>
            </Position>
            <AltitudeMeters>1116.800048828125</AltitudeMeters>
            <DistanceMeters>108918.50184641</DistanceMeters>
          </Trackpoint>
          <Trackpoint>
            <Time>2021-07-28T09:24:33.000Z</Time>
            <Position>
              <LatitudeDegrees>41.38333291746675968170166015625</LatitudeDegrees>
              <LongitudeDegrees>-2.84759938716888427734375</LongitudeDegrees>
            </Position>
            <AltitudeMeters>1116.199951171875</AltitudeMeters>
            <DistanceMeters>108980.88158279</DistanceMeters>
          </Trackpoint>
          <Trackpoint>
            <Time>2021-07-28T09:24:39.000Z</Time>
            <Position>
              <LatitudeDegrees>41.38370356522500514984130859375</LatitudeDegrees>
              <LongitudeDegrees>-2.84784807823598384857177734375</LongitudeDegrees>
            </Position>
            <AltitudeMeters>1117</AltitudeMeters>
            <DistanceMeters>109027.06808535</DistanceMeters>
          </Trackpoint>
          <Trackpoint>
            <Time>2021-07-28T09:24:49.000Z</Time>
            <Position>
              <LatitudeDegrees>41.38419826515018939971923828125</LatitudeDegrees>
              <LongitudeDegrees>-2.84827463328838348388671875</LongitudeDegrees>
            </Position>
            <AltitudeMeters>1116.800048828125</AltitudeMeters>
            <DistanceMeters>109092.64698414</DistanceMeters>
          </Trackpoint>
          <Trackpoint>
            <Time>2021-07-28T09:24:59.000Z</Time>
            <Position>
              <LatitudeDegrees>41.38466815464198589324951171875</LatitudeDegrees>
              <LongitudeDegrees>-2.8486801497638225555419921875</LongitudeDegrees>
            </Position>
            <AltitudeMeters>1115.800048828125</AltitudeMeters>
            <DistanceMeters>109154.95299423</DistanceMeters>
          </Trackpoint>
          <Trackpoint>
            <Time>2021-07-28T09:25:00.000Z</Time>
            <Position>
              <LatitudeDegrees>41.38471819460391998291015625</LatitudeDegrees>
              <LongitudeDegrees>-2.84872449003159999847412109375</LongitudeDegrees>
            </Position>
            <AltitudeMeters>1115.5999755859375</AltitudeMeters>
            <DistanceMeters>109161.64074188</DistanceMeters>
          </Trackpoint>
          <Trackpoint>
            <Time>2021-07-28T09:25:04.000Z</Time>
            <Position>
              <LatitudeDegrees>41.38492765836417675018310546875</LatitudeDegrees>
              <LongitudeDegrees>-2.84890134818851947784423828125</LongitudeDegrees>
            </Position>
            <AltitudeMeters>1114.800048828125</AltitudeMeters>
            <DistanceMeters>109189.23892765</DistanceMeters>
          </Trackpoint>
          <Trackpoint>
            <Time>2021-07-28T09:25:13.000Z</Time>
            <Position>
              <LatitudeDegrees>41.3853840529918670654296875</LatitudeDegrees>
              <LongitudeDegrees>-2.84929077140986919403076171875</LongitudeDegrees>
            </Position>
            <AltitudeMeters>1114.199951171875</AltitudeMeters>
            <DistanceMeters>109249.55424798</DistanceMeters>
          </Trackpoint>
          <Trackpoint>
            <Time>2021-07-28T09:25:23.000Z</Time>
            <Position>
              <LatitudeDegrees>41.3858395256102085113525390625</LatitudeDegrees>
              <LongitudeDegrees>-2.849681787192821502685546875</LongitudeDegrees>
            </Position>
            <AltitudeMeters>1114.199951171875</AltitudeMeters>
            <DistanceMeters>109309.85504426</DistanceMeters>
          </Trackpoint>
          <Trackpoint>
            <Time>2021-07-28T09:25:35.000Z</Time>
            <Position>
              <LatitudeDegrees>41.386315114796161651611328125</LatitudeDegrees>
              <LongitudeDegrees>-2.85008780658245086669921875</LongitudeDegrees>
            </Position>
            <AltitudeMeters>1115.800048828125</AltitudeMeters>
            <DistanceMeters>109372.7167062</DistanceMeters>
          </Trackpoint>
          <Trackpoint>
            <Time>2021-07-28T09:25:36.000Z</Time>
            <Position>
              <LatitudeDegrees>41.38635165989398956298828125</LatitudeDegrees>
              <LongitudeDegrees>-2.85011840052902698516845703125</LongitudeDegrees>
            </Position>
            <AltitudeMeters>1115.800048828125</AltitudeMeters>
            <DistanceMeters>109377.52096217</DistanceMeters>
          </Trackpoint>
          <Trackpoint>
            <Time>2021-07-28T09:25:47.000Z</Time>
            <Position>
              <LatitudeDegrees>41.38673898763954639434814453125</LatitudeDegrees>
              <LongitudeDegrees>-2.85044931806623935699462890625</LongitudeDegrees>
            </Position>
            <AltitudeMeters>1116.800048828125</AltitudeMeters>
            <DistanceMeters>109428.72766591</DistanceMeters>
          </Trackpoint>
          <Trackpoint>
            <Time>2021-07-28T09:25:51.000Z</Time>
            <Position>
              <LatitudeDegrees>41.38685666956007480621337890625</LatitudeDegrees>
              <LongitudeDegrees>-2.85054956562817096710205078125</LongitudeDegrees>
            </Position>
            <AltitudeMeters>1117.800048828125</AltitudeMeters>
            <DistanceMeters>109444.27259581</DistanceMeters>
          </Trackpoint>
          <Trackpoint>
            <Time>2021-07-28T09:25:57.000Z</Time>
            <Position>
              <LatitudeDegrees>41.38704098761081695556640625</LatitudeDegrees>
              <LongitudeDegrees>-2.85070111043751239776611328125</LongitudeDegrees>
            </Position>
            <AltitudeMeters>1119</AltitudeMeters>
            <DistanceMeters>109468.37662345</DistanceMeters>
          </Trackpoint>
          <Trackpoint>
            <Time>2021-07-28T09:26:12.000Z</Time>
            <Position>
              <LatitudeDegrees>41.3875065185129642486572265625</LatitudeDegrees>
              <LongitudeDegrees>-2.85109908320009708404541015625</LongitudeDegrees>
            </Position>
            <AltitudeMeters>1119.4000244140625</AltitudeMeters>
            <DistanceMeters>109529.93288704</DistanceMeters>
          </Trackpoint>
          <Trackpoint>
            <Time>2021-07-28T09:26:27.000Z</Time>
            <Position>
              <LatitudeDegrees>41.3879849575459957122802734375</LatitudeDegrees>
              <LongitudeDegrees>-2.85151314921677112579345703125</LongitudeDegrees>
            </Position>
            <AltitudeMeters>1119.199951171875</AltitudeMeters>
            <DistanceMeters>109593.42481398</DistanceMeters>
          </Trackpoint>
          <Trackpoint>
            <Time>2021-07-28T09:26:42.000Z</Time>
            <Position>
              <LatitudeDegrees>41.38843062333762645721435546875</LatitudeDegrees>
              <LongitudeDegrees>-2.851926796138286590576171875</LongitudeDegrees>
            </Position>
            <AltitudeMeters>1118.800048828125</AltitudeMeters>
            <DistanceMeters>109653.86979739</DistanceMeters>
          </Trackpoint>
          <Trackpoint>
            <Time>2021-07-28T09:26:46.000Z</Time>
            <Position>
              <LatitudeDegrees>41.388566829264163970947265625</LatitudeDegrees>
              <LongitudeDegrees>-2.8520786762237548828125</LongitudeDegrees>
            </Position>
            <AltitudeMeters>1117.800048828125</AltitudeMeters>
            <DistanceMeters>109673.63512554</DistanceMeters>
          </Trackpoint>
          <Trackpoint>
            <Time>2021-07-28T09:26:50.000Z</Time>
            <Position>
              <LatitudeDegrees>41.3886766321957111358642578125</LatitudeDegrees>
              <LongitudeDegrees>-2.85221488215029239654541015625</LongitudeDegrees>
            </Position>
            <AltitudeMeters>1117</AltitudeMeters>
            <DistanceMeters>109690.32983457</DistanceMeters>
          </Trackpoint>
          <Trackpoint>
            <Time>2021-07-28T09:26:53.000Z</Time>
            <Position>
              <LatitudeDegrees>41.3887765444815158843994140625</LatitudeDegrees>
              <LongitudeDegrees>-2.852273471653461456298828125</LongitudeDegrees>
            </Position>
            <AltitudeMeters>1115.800048828125</AltitudeMeters>
            <DistanceMeters>109702.47914029</DistanceMeters>
          </Trackpoint>
          <Trackpoint>
            <Time>2021-07-28T09:26:55.000Z</Time>
            <Position>
              <LatitudeDegrees>41.3888808153569698333740234375</LatitudeDegrees>
              <LongitudeDegrees>-2.8523058257997035980224609375</LongitudeDegrees>
            </Position>
            <AltitudeMeters>1114</AltitudeMeters>
            <DistanceMeters>109714.39505075</DistanceMeters>
          </Trackpoint>
          <Trackpoint>
            <Time>2021-07-28T09:26:57.000Z</Time>
            <Position>
              <LatitudeDegrees>41.38901551254093647003173828125</LatitudeDegrees>
              <LongitudeDegrees>-2.85233289934694766998291015625</LongitudeDegrees>
            </Position>
            <AltitudeMeters>1111.5999755859375</AltitudeMeters>
            <DistanceMeters>109729.55650272</DistanceMeters>
          </Trackpoint>
          <Trackpoint>
            <Time>2021-07-28T09:26:58.000Z</Time>
            <Position>
              <LatitudeDegrees>41.3890908658504486083984375</LatitudeDegrees>
              <LongitudeDegrees>-2.85234756767749786376953125</LongitudeDegrees>
            </Position>
            <AltitudeMeters>1110.4000244140625</AltitudeMeters>
            <DistanceMeters>109738.03254474</DistanceMeters>
          </Trackpoint>
          <Trackpoint>
            <Time>2021-07-28T09:26:59.000Z</Time>
            <Position>
              <LatitudeDegrees>41.38916856609284877777099609375</LatitudeDegrees>
              <LongitudeDegrees>-2.852367348968982696533203125</LongitudeDegrees>
            </Position>
            <AltitudeMeters>1109.199951171875</AltitudeMeters>
            <DistanceMeters>109746.83675828</DistanceMeters>
          </Trackpoint>
          <Trackpoint>
            <Time>2021-07-28T09:27:00.000Z</Time>
            <Position>
              <LatitudeDegrees>41.38924576342105865478515625</LatitudeDegrees>
              <LongitudeDegrees>-2.85239777527749538421630859375</LongitudeDegrees>
            </Position>
            <AltitudeMeters>1108.5999755859375</AltitudeMeters>
            <DistanceMeters>109755.79652277</DistanceMeters>
          </Trackpoint>
          <Trackpoint>
            <Time>2021-07-28T09:27:01.000Z</Time>
            <Position>
              <LatitudeDegrees>41.3893188536167144775390625</LatitudeDegrees>
              <LongitudeDegrees>-2.85244354046881198883056640625</LongitudeDegrees>
            </Position>
            <AltitudeMeters>1108</AltitudeMeters>
            <DistanceMeters>109764.78446268</DistanceMeters>
          </Trackpoint>
          <Trackpoint>
            <Time>2021-07-28T09:27:04.000Z</Time>
            <Position>
              <LatitudeDegrees>41.389497220516204833984375</LatitudeDegrees>
              <LongitudeDegrees>-2.85265375860035419464111328125</LongitudeDegrees>
            </Position>
            <AltitudeMeters>1106.5999755859375</AltitudeMeters>
            <DistanceMeters>109791.28465164</DistanceMeters>
          </Trackpoint>
          <Trackpoint>
            <Time>2021-07-28T09:27:06.000Z</Time>
            <Position>
              <LatitudeDegrees>41.38957827351987361907958984375</LatitudeDegrees>
              <LongitudeDegrees>-2.85283078439533710479736328125</LongitudeDegrees>
            </Position>
            <AltitudeMeters>1105</AltitudeMeters>
            <DistanceMeters>109808.60195047</DistanceMeters>
          </Trackpoint>
          <Trackpoint>
            <Time>2021-07-28T09:27:07.000Z</Time>
            <Position>
              <LatitudeDegrees>41.38961188495159149169921875</LatitudeDegrees>
              <LongitudeDegrees>-2.852920554578304290771484375</LongitudeDegrees>
            </Position>
            <AltitudeMeters>1104.5999755859375</AltitudeMeters>
            <DistanceMeters>109816.97940558</DistanceMeters>
          </Trackpoint>
          <Trackpoint>
            <Time>2021-07-28T09:27:09.000Z</Time>
            <Position>
              <LatitudeDegrees>41.3896755874156951904296875</LatitudeDegrees>
              <LongitudeDegrees>-2.853090874850749969482421875</LongitudeDegrees>
            </Position>
            <AltitudeMeters>1103.5999755859375</AltitudeMeters>
            <DistanceMeters>109832.87075913</DistanceMeters>
          </Trackpoint>
          <Trackpoint>
            <Time>2021-07-28T09:27:12.000Z</Time>
            <Position>
              <LatitudeDegrees>41.38976368121802806854248046875</LatitudeDegrees>
              <LongitudeDegrees>-2.85331844352185726165771484375</LongitudeDegrees>
            </Position>
            <AltitudeMeters>1102.4000244140625</AltitudeMeters>
            <DistanceMeters>109854.25388147</DistanceMeters>
          </Trackpoint>
          <Trackpoint>
            <Time>2021-07-28T09:27:14.000Z</Time>
            <Position>
              <LatitudeDegrees>41.3898316584527492523193359375</LatitudeDegrees>
              <LongitudeDegrees>-2.8534434176981449127197265625</LongitudeDegrees>
            </Position>
            <AltitudeMeters>1101.4000244140625</AltitudeMeters>
            <DistanceMeters>109867.14358187</DistanceMeters>
          </Trackpoint>
          <Trackpoint>
            <Time>2021-07-28T09:27:15.000Z</Time>
            <Position>
              <LatitudeDegrees>41.38987197540700435638427734375</LatitudeDegrees>
              <LongitudeDegrees>-2.85350024700164794921875</LongitudeDegrees>
            </Position>
            <AltitudeMeters>1100.199951171875</AltitudeMeters>
            <DistanceMeters>109873.67489729</DistanceMeters>
          </Trackpoint>
          <Trackpoint>
            <Time>2021-07-28T09:27:17.000Z</Time>
            <Position>
              <LatitudeDegrees>41.3899630866944789886474609375</LatitudeDegrees>
              <LongitudeDegrees>-2.85358272492885589599609375</LongitudeDegrees>
            </Position>
            <AltitudeMeters>1098.5999755859375</AltitudeMeters>
            <DistanceMeters>109885.93334344</DistanceMeters>
          </Trackpoint>
          <Trackpoint>
            <Time>2021-07-28T09:27:19.000Z</Time>
            <Position>
              <LatitudeDegrees>41.39006693847477436065673828125</LatitudeDegrees>
              <LongitudeDegrees>-2.85361750982701778411865234375</LongitudeDegrees>
            </Position>
            <AltitudeMeters>1097</AltitudeMeters>
            <DistanceMeters>109897.85152713</DistanceMeters>
          </Trackpoint>
          <Trackpoint>
            <Time>2021-07-28T09:27:21.000Z</Time>
            <Position>
              <LatitudeDegrees>41.39018512330949306488037109375</LatitudeDegrees>
              <LongitudeDegrees>-2.85362295806407928466796875</LongitudeDegrees>
            </Position>
            <AltitudeMeters>1094.800048828125</AltitudeMeters>
            <DistanceMeters>109911.01367045</DistanceMeters>
          </Trackpoint>
          <Trackpoint>
            <Time>2021-07-28T09:27:22.000Z</Time>
            <Position>
              <LatitudeDegrees>41.39024714939296245574951171875</LatitudeDegrees>
              <LongitudeDegrees>-2.85361885093152523040771484375</LongitudeDegrees>
            </Position>
            <AltitudeMeters>1093.800048828125</AltitudeMeters>
            <DistanceMeters>109917.92584337</DistanceMeters>
          </Trackpoint>
          <Trackpoint>
            <Time>2021-07-28T09:27:23.000Z</Time>
            <Position>
              <LatitudeDegrees>41.39030783437192440032958984375</LatitudeDegrees>
              <LongitudeDegrees>-2.8536128997802734375</LongitudeDegrees>
            </Position>
            <AltitudeMeters>1092.199951171875</AltitudeMeters>
            <DistanceMeters>109924.69945528</DistanceMeters>
          </Trackpoint>
          <Trackpoint>
            <Time>2021-07-28T09:27:25.000Z</Time>
            <Position>
              <LatitudeDegrees>41.3904224149882793426513671875</LatitudeDegrees>
              <LongitudeDegrees>-2.853605188429355621337890625</LongitudeDegrees>
            </Position>
            <AltitudeMeters>1090.800048828125</AltitudeMeters>
            <DistanceMeters>109937.46915068</DistanceMeters>
          </Trackpoint>
          <Trackpoint>
            <Time>2021-07-28T09:27:26.000Z</Time>
            <Position>
              <LatitudeDegrees>41.39047195203602313995361328125</LatitudeDegrees>
              <LongitudeDegrees>-2.853604517877101898193359375</LongitudeDegrees>
            </Position>
            <AltitudeMeters>1090.199951171875</AltitudeMeters>
            <DistanceMeters>109942.98397592</DistanceMeters>
          </Trackpoint>
          <Trackpoint>
            <Time>2021-07-28T09:27:27.000Z</Time>
            <Position>
              <LatitudeDegrees>41.3905159570276737213134765625</LatitudeDegrees>
              <LongitudeDegrees>-2.85361097194254398345947265625</LongitudeDegrees>
            </Position>
            <AltitudeMeters>1089.800048828125</AltitudeMeters>
            <DistanceMeters>109947.91072388</DistanceMeters>
          </Trackpoint>
          <Trackpoint>
            <Time>2021-07-28T09:27:29.000Z</Time>
            <Position>
              <LatitudeDegrees>41.39059960842132568359375</LatitudeDegrees>
              <LongitudeDegrees>-2.85365908406674861907958984375</LongitudeDegrees>
            </Position>
            <AltitudeMeters>1088.199951171875</AltitudeMeters>
            <DistanceMeters>109958.05145909</DistanceMeters>
          </Trackpoint>
          <Trackpoint>
            <Time>2021-07-28T09:27:31.000Z</Time>
            <Position>
              <LatitudeDegrees>41.39064948074519634246826171875</LatitudeDegrees>
              <LongitudeDegrees>-2.85375312902033329010009765625</LongitudeDegrees>
            </Position>
            <AltitudeMeters>1086.800048828125</AltitudeMeters>
            <DistanceMeters>109967.6684255</DistanceMeters>
          </Trackpoint>
          <Trackpoint>
            <Time>2021-07-28T09:27:32.000Z</Time>
            <Position>
              <LatitudeDegrees>41.39066062867641448974609375</LatitudeDegrees>
              <LongitudeDegrees>-2.8538098745048046112060546875</LongitudeDegrees>
            </Position>
            <AltitudeMeters>1085.5999755859375</AltitudeMeters>
            <DistanceMeters>109972.56760331</DistanceMeters>
          </Trackpoint>
          <Trackpoint>
            <Time>2021-07-28T09:27:34.000Z</Time>
            <Position>
              <LatitudeDegrees>41.39066859148442745208740234375</LatitudeDegrees>
              <LongitudeDegrees>-2.853937111794948577880859375</LongitudeDegrees>
            </Position>
            <AltitudeMeters>1083.800048828125</AltitudeMeters>
            <DistanceMeters>109983.22882145</DistanceMeters>
          </Trackpoint>
          <Trackpoint>
            <Time>2021-07-28T09:27:35.000Z</Time>
            <Position>
              <LatitudeDegrees>41.390666998922824859619140625</LatitudeDegrees>
              <LongitudeDegrees>-2.85400793887674808502197265625</LongitudeDegrees>
            </Position>
            <AltitudeMeters>1083</AltitudeMeters>
            <DistanceMeters>109989.14494993</DistanceMeters>
          </Trackpoint>
          <Trackpoint>
            <Time>2021-07-28T09:27:36.000Z</Time>
            <Position>
              <LatitudeDegrees>41.39066406525671482086181640625</LatitudeDegrees>
              <LongitudeDegrees>-2.85408119671046733856201171875</LongitudeDegrees>
            </Position>
            <AltitudeMeters>1081.800048828125</AltitudeMeters>
            <DistanceMeters>109995.27104149</DistanceMeters>
          </Trackpoint>
          <Trackpoint>
            <Time>2021-07-28T09:27:38.000Z</Time>
            <Position>
              <LatitudeDegrees>41.3906547613441944122314453125</LatitudeDegrees>
              <LongitudeDegrees>-2.854221761226654052734375</LongitudeDegrees>
            </Position>
            <AltitudeMeters>1080.4000244140625</AltitudeMeters>
            <DistanceMeters>110007.05435407</DistanceMeters>
          </Trackpoint>
          <Trackpoint>
            <Time>2021-07-28T09:27:39.000Z</Time>
            <Position>
              <LatitudeDegrees>41.39064914546906948089599609375</LatitudeDegrees>
              <LongitudeDegrees>-2.85428890027105808258056640625</LongitudeDegrees>
            </Position>
            <AltitudeMeters>1079.199951171875</AltitudeMeters>
            <DistanceMeters>110012.69545231</DistanceMeters>
          </Trackpoint>
          <Trackpoint>
            <Time>2021-07-28T09:27:40.000Z</Time>
            <Position>
              <LatitudeDegrees>41.39064612798392772674560546875</LatitudeDegrees>
              <LongitudeDegrees>-2.85435914061963558197021484375</LongitudeDegrees>
            </Position>
            <AltitudeMeters>1078.4000244140625</AltitudeMeters>
            <DistanceMeters>110018.57022483</DistanceMeters>
          </Trackpoint>
          <Trackpoint>
            <Time>2021-07-28T09:27:41.000Z</Time>
            <Position>
              <LatitudeDegrees>41.390646882355213165283203125</LatitudeDegrees>
              <LongitudeDegrees>-2.85443122498691082000732421875</LongitudeDegrees>
            </Position>
            <AltitudeMeters>1077.199951171875</AltitudeMeters>
            <DistanceMeters>110024.59000031</DistanceMeters>
          </Trackpoint>
          <Trackpoint>
            <Time>2021-07-28T09:27:43.000Z</Time>
            <Position>
              <LatitudeDegrees>41.39065518043935298919677734375</LatitudeDegrees>
              <LongitudeDegrees>-2.8545887209475040435791015625</LongitudeDegrees>
            </Position>
            <AltitudeMeters>1075.4000244140625</AltitudeMeters>
            <DistanceMeters>110037.77339446</DistanceMeters>
          </Trackpoint>
          <Trackpoint>
            <Time>2021-07-28T09:27:45.000Z</Time>
            <Position>
              <LatitudeDegrees>41.390673033893108367919921875</LatitudeDegrees>
              <LongitudeDegrees>-2.85475560463964939117431640625</LongitudeDegrees>
            </Position>
            <AltitudeMeters>1074</AltitudeMeters>
            <DistanceMeters>110051.84954227</DistanceMeters>
          </Trackpoint>
          <Trackpoint>
            <Time>2021-07-28T09:27:47.000Z</Time>
            <Position>
              <LatitudeDegrees>41.390699185431003570556640625</LatitudeDegrees>
              <LongitudeDegrees>-2.85489826463162899017333984375</LongitudeDegrees>
            </Position>
            <AltitudeMeters>1072.4000244140625</AltitudeMeters>
            <DistanceMeters>110064.11203928</DistanceMeters>
          </Trackpoint>
          <Trackpoint>
            <Time>2021-07-28T09:27:49.000Z</Time>
            <Position>
              <LatitudeDegrees>41.39073648490011692047119140625</LatitudeDegrees>
              <LongitudeDegrees>-2.8550151921808719635009765625</LongitudeDegrees>
            </Position>
            <AltitudeMeters>1070.800048828125</AltitudeMeters>
            <DistanceMeters>110074.72146447</DistanceMeters>
          </Trackpoint>
          <Trackpoint>
            <Time>2021-07-28T09:27:52.000Z</Time>
            <Position>
              <LatitudeDegrees>41.39085567556321620941162109375</LatitudeDegrees>
              <LongitudeDegrees>-2.85515508614480495452880859375</LongitudeDegrees>
            </Position>
            <AltitudeMeters>1069.199951171875</AltitudeMeters>
            <DistanceMeters>110092.39745511</DistanceMeters>
          </Trackpoint>
          <Trackpoint>
            <Time>2021-07-28T09:27:54.000Z</Time>
            <Position>
              <LatitudeDegrees>41.39097117818892002105712890625</LatitudeDegrees>
              <LongitudeDegrees>-2.8551995940506458282470703125</LongitudeDegrees>
            </Position>
            <AltitudeMeters>1067.4000244140625</AltitudeMeters>
            <DistanceMeters>110105.77969992</DistanceMeters>
          </Trackpoint>
          <Trackpoint>
            <Time>2021-07-28T09:27:56.000Z</Time>
            <Position>
              <LatitudeDegrees>41.39110193587839603424072265625</LatitudeDegrees>
              <LongitudeDegrees>-2.8551965765655040740966796875</LongitudeDegrees>
            </Position>
            <AltitudeMeters>1065.5999755859375</AltitudeMeters>
            <DistanceMeters>110120.33554698</DistanceMeters>
          </Trackpoint>
          <Trackpoint>
            <Time>2021-07-28T09:27:58.000Z</Time>
            <Position>
              <LatitudeDegrees>41.39123998582363128662109375</LatitudeDegrees>
              <LongitudeDegrees>-2.85516866482794284820556640625</LongitudeDegrees>
            </Position>
            <AltitudeMeters>1064.5999755859375</AltitudeMeters>
            <DistanceMeters>110135.87699108</DistanceMeters>
          </Trackpoint>
          <Trackpoint>
            <Time>2021-07-28T09:28:04.000Z</Time>
            <Position>
              <LatitudeDegrees>41.39165564440190792083740234375</LatitudeDegrees>
              <LongitudeDegrees>-2.8550312854349613189697265625</LongitudeDegrees>
            </Position>
            <AltitudeMeters>1063.4000244140625</AltitudeMeters>
            <DistanceMeters>110183.54158016</DistanceMeters>
          </Trackpoint>
          <Trackpoint>
            <Time>2021-07-28T09:28:06.000Z</Time>
            <Position>
              <LatitudeDegrees>41.391796879470348358154296875</LatitudeDegrees>
              <LongitudeDegrees>-2.8549628891050815582275390625</LongitudeDegrees>
            </Position>
            <AltitudeMeters>1062</AltitudeMeters>
            <DistanceMeters>110200.26682181</DistanceMeters>
          </Trackpoint>
          <Trackpoint>
            <Time>2021-07-28T09:28:08.000Z</Time>
            <Position>
              <LatitudeDegrees>41.391937695443630218505859375</LatitudeDegrees>
              <LongitudeDegrees>-2.8548592887818813323974609375</LongitudeDegrees>
            </Position>
            <AltitudeMeters>1060.4000244140625</AltitudeMeters>
            <DistanceMeters>110218.16870475</DistanceMeters>
          </Trackpoint>
          <Trackpoint>
            <Time>2021-07-28T09:28:10.000Z</Time>
            <Position>
              <LatitudeDegrees>41.39206501655280590057373046875</LatitudeDegrees>
              <LongitudeDegrees>-2.8547667525708675384521484375</LongitudeDegrees>
            </Position>
            <AltitudeMeters>1059.5999755859375</AltitudeMeters>
            <DistanceMeters>110234.30954536</DistanceMeters>
          </Trackpoint>
          <Trackpoint>
            <Time>2021-07-28T09:28:13.000Z</Time>
            <Position>
              <LatitudeDegrees>41.39222326688468456268310546875</LatitudeDegrees>
              <LongitudeDegrees>-2.854758203029632568359375</LongitudeDegrees>
            </Position>
            <AltitudeMeters>1059.199951171875</AltitudeMeters>
            <DistanceMeters>110251.93770524</DistanceMeters>
          </Trackpoint>
          <Trackpoint>
            <Time>2021-07-28T09:28:14.000Z</Time>
            <Position>
              <LatitudeDegrees>41.3922719657421112060546875</LatitudeDegrees>
              <LongitudeDegrees>-2.85478561185300350189208984375</LongitudeDegrees>
            </Position>
            <AltitudeMeters>1059.199951171875</AltitudeMeters>
            <DistanceMeters>110257.82169309</DistanceMeters>
          </Trackpoint>
          <Trackpoint>
            <Time>2021-07-28T09:28:15.000Z</Time>
            <Position>
              <LatitudeDegrees>41.39232158660888671875</LatitudeDegrees>
              <LongitudeDegrees>-2.85481494851410388946533203125</LongitudeDegrees>
            </Position>
            <AltitudeMeters>1059.199951171875</AltitudeMeters>
            <DistanceMeters>110263.8639277</DistanceMeters>
          </Trackpoint>
          <Trackpoint>
            <Time>2021-07-28T09:28:16.000Z</Time>
            <Position>
              <LatitudeDegrees>41.39237380586564540863037109375</LatitudeDegrees>
              <LongitudeDegrees>-2.85483623854815959930419921875</LongitudeDegrees>
            </Position>
            <AltitudeMeters>1059</AltitudeMeters>
            <DistanceMeters>110269.94118141</DistanceMeters>
          </Trackpoint>
          <Trackpoint>
            <Time>2021-07-28T09:28:20.000Z</Time>
            <Position>
              <LatitudeDegrees>41.39258704148232936859130859375</LatitudeDegrees>
              <LongitudeDegrees>-2.8548049740493297576904296875</LongitudeDegrees>
            </Position>
            <AltitudeMeters>1058.199951171875</AltitudeMeters>
            <DistanceMeters>110293.81786075</DistanceMeters>
          </Trackpoint>
          <Trackpoint>
            <Time>2021-07-28T09:28:25.000Z</Time>
            <Position>
              <LatitudeDegrees>41.39287789352238178253173828125</LatitudeDegrees>
              <LongitudeDegrees>-2.85470732487738132476806640625</LongitudeDegrees>
            </Position>
            <AltitudeMeters>1057.4000244140625</AltitudeMeters>
            <DistanceMeters>110327.20119318</DistanceMeters>
          </Trackpoint>
          <Trackpoint>
            <Time>2021-07-28T09:28:26.000Z</Time>
            <Position>
              <LatitudeDegrees>41.39294226653873920440673828125</LatitudeDegrees>
              <LongitudeDegrees>-2.85471193492412567138671875</LongitudeDegrees>
            </Position>
            <AltitudeMeters>1057</AltitudeMeters>
            <DistanceMeters>110334.37618209</DistanceMeters>
          </Trackpoint>
          <Trackpoint>
            <Time>2021-07-28T09:28:29.000Z</Time>
            <Position>
              <LatitudeDegrees>41.393119208514690399169921875</LatitudeDegrees>
              <LongitudeDegrees>-2.85480556078255176544189453125</LongitudeDegrees>
            </Position>
            <AltitudeMeters>1056.4000244140625</AltitudeMeters>
            <DistanceMeters>110355.56522173</DistanceMeters>
          </Trackpoint>
          <Trackpoint>
            <Time>2021-07-28T09:28:39.000Z</Time>
            <Position>
              <LatitudeDegrees>41.39356940053403377532958984375</LatitudeDegrees>
              <LongitudeDegrees>-2.85519867204129695892333984375</LongitudeDegrees>
            </Position>
            <AltitudeMeters>1057.199951171875</AltitudeMeters>
            <DistanceMeters>110415.46635715</DistanceMeters>
          </Trackpoint>
          <Trackpoint>
            <Time>2021-07-28T09:28:45.000Z</Time>
            <Position>
              <LatitudeDegrees>41.3938911817967891693115234375</LatitudeDegrees>
              <LongitudeDegrees>-2.85515156574547290802001953125</LongitudeDegrees>
            </Position>
            <AltitudeMeters>1055.5999755859375</AltitudeMeters>
            <DistanceMeters>110451.49652256</DistanceMeters>
          </Trackpoint>
          <Trackpoint>
            <Time>2021-07-28T09:28:47.000Z</Time>
            <Position>
              <LatitudeDegrees>41.39401950873434543609619140625</LatitudeDegrees>
              <LongitudeDegrees>-2.85508601926267147064208984375</LongitudeDegrees>
            </Position>
            <AltitudeMeters>1054.4000244140625</AltitudeMeters>
            <DistanceMeters>110466.79198661</DistanceMeters>
          </Trackpoint>
          <Trackpoint>
            <Time>2021-07-28T09:28:49.000Z</Time>
            <Position>
              <LatitudeDegrees>41.39416015706956386566162109375</LatitudeDegrees>
              <LongitudeDegrees>-2.8550172038376331329345703125</LongitudeDegrees>
            </Position>
            <AltitudeMeters>1052.5999755859375</AltitudeMeters>
            <DistanceMeters>110483.46748283</DistanceMeters>
          </Trackpoint>
          <Trackpoint>
            <Time>2021-07-28T09:28:51.000Z</Time>
            <Position>
              <LatitudeDegrees>41.3942998833954334259033203125</LatitudeDegrees>
              <LongitudeDegrees>-2.85496406257152557373046875</LongitudeDegrees>
            </Position>
            <AltitudeMeters>1051.800048828125</AltitudeMeters>
            <DistanceMeters>110499.63990176</DistanceMeters>
          </Trackpoint>
          <Trackpoint>
            <Time>2021-07-28T09:28:52.000Z</Time>
            <Position>
              <LatitudeDegrees>41.3943659327924251556396484375</LatitudeDegrees>
              <LongitudeDegrees>-2.8549524955451488494873046875</LongitudeDegrees>
            </Position>
            <AltitudeMeters>1051.4000244140625</AltitudeMeters>
            <DistanceMeters>110507.05442167</DistanceMeters>
          </Trackpoint>
          <Trackpoint>
            <Time>2021-07-28T09:28:56.000Z</Time>
            <Position>
              <LatitudeDegrees>41.3946398533880710601806640625</LatitudeDegrees>
              <LongitudeDegrees>-2.85497604869306087493896484375</LongitudeDegrees>
            </Position>
            <AltitudeMeters>1049.5999755859375</AltitudeMeters>
            <DistanceMeters>110537.60547339</DistanceMeters>
          </Trackpoint>
          <Trackpoint>
            <Time>2021-07-28T09:28:58.000Z</Time>
            <Position>
              <LatitudeDegrees>41.394788213074207305908203125</LatitudeDegrees>
              <LongitudeDegrees>-2.8550061397254467010498046875</LongitudeDegrees>
            </Position>
            <AltitudeMeters>1047.800048828125</AltitudeMeters>
            <DistanceMeters>110554.30802354</DistanceMeters>
          </Trackpoint>
          <Trackpoint>
            <Time>2021-07-28T09:29:00.000Z</Time>
            <Position>
              <LatitudeDegrees>41.39494721777737140655517578125</LatitudeDegrees>
              <LongitudeDegrees>-2.85504444502294063568115234375</LongitudeDegrees>
            </Position>
            <AltitudeMeters>1045.5999755859375</AltitudeMeters>
            <DistanceMeters>110572.29244119</DistanceMeters>
          </Trackpoint>
          <Trackpoint>
            <Time>2021-07-28T09:29:01.000Z</Time>
            <Position>
              <LatitudeDegrees>41.39503187499940395355224609375</LatitudeDegrees>
              <LongitudeDegrees>-2.85505651496350765228271484375</LongitudeDegrees>
            </Position>
            <AltitudeMeters>1044.4000244140625</AltitudeMeters>
            <DistanceMeters>110581.76846779</DistanceMeters>
          </Trackpoint>
          <Trackpoint>
            <Time>2021-07-28T09:29:02.000Z</Time>
            <Position>
              <LatitudeDegrees>41.39511753804981708526611328125</LatitudeDegrees>
              <LongitudeDegrees>-2.85506137646734714508056640625</LongitudeDegrees>
            </Position>
            <AltitudeMeters>1043.199951171875</AltitudeMeters>
            <DistanceMeters>110591.31144012</DistanceMeters>
          </Trackpoint>
          <Trackpoint>
            <Time>2021-07-28T09:29:03.000Z</Time>
            <Position>
              <LatitudeDegrees>41.39520227909088134765625</LatitudeDegrees>
              <LongitudeDegrees>-2.8550597839057445526123046875</LongitudeDegrees>
            </Position>
            <AltitudeMeters>1041.4000244140625</AltitudeMeters>
            <DistanceMeters>110600.74448699</DistanceMeters>
          </Trackpoint>
          <Trackpoint>
            <Time>2021-07-28T09:29:04.000Z</Time>
            <Position>
              <LatitudeDegrees>41.39528743922710418701171875</LatitudeDegrees>
              <LongitudeDegrees>-2.855052240192890167236328125</LongitudeDegrees>
            </Position>
            <AltitudeMeters>1040.199951171875</AltitudeMeters>
            <DistanceMeters>110610.2443072</DistanceMeters>
          </Trackpoint>
          <Trackpoint>
            <Time>2021-07-28T09:29:05.000Z</Time>
            <Position>
              <LatitudeDegrees>41.39537461102008819580078125</LatitudeDegrees>
              <LongitudeDegrees>-2.85503790713846683502197265625</LongitudeDegrees>
            </Position>
            <AltitudeMeters>1039.199951171875</AltitudeMeters>
            <DistanceMeters>110620.02005776</DistanceMeters>
          </Trackpoint>
          <Trackpoint>
            <Time>2021-07-28T09:29:06.000Z</Time>
            <Position>
              <LatitudeDegrees>41.39546371065080165863037109375</LatitudeDegrees>
              <LongitudeDegrees>-2.85501779057085514068603515625</LongitudeDegrees>
            </Position>
            <AltitudeMeters>1038</AltitudeMeters>
            <DistanceMeters>110630.07763781</DistanceMeters>
          </Trackpoint>
          <Trackpoint>
            <Time>2021-07-28T09:29:07.000Z</Time>
            <Position>
              <LatitudeDegrees>41.3955551572144031524658203125</LatitudeDegrees>
              <LongitudeDegrees>-2.85499465651810169219970703125</LongitudeDegrees>
            </Position>
            <AltitudeMeters>1036.5999755859375</AltitudeMeters>
            <DistanceMeters>110640.43772895</DistanceMeters>
          </Trackpoint>
          <Trackpoint>
            <Time>2021-07-28T09:29:08.000Z</Time>
            <Position>
              <LatitudeDegrees>41.39564844779670238494873046875</LatitudeDegrees>
              <LongitudeDegrees>-2.85497051663696765899658203125</LongitudeDegrees>
            </Position>
            <AltitudeMeters>1035.5999755859375</AltitudeMeters>
            <DistanceMeters>110651.01518834</DistanceMeters>
          </Trackpoint>
          <Trackpoint>
            <Time>2021-07-28T09:29:10.000Z</Time>
            <Position>
              <LatitudeDegrees>41.3958317600190639495849609375</LatitudeDegrees>
              <LongitudeDegrees>-2.85491670481860637664794921875</LongitudeDegrees>
            </Position>
            <AltitudeMeters>1033.800048828125</AltitudeMeters>
            <DistanceMeters>110671.90723887</DistanceMeters>
          </Trackpoint>
          <Trackpoint>
            <Time>2021-07-28T09:29:12.000Z</Time>
            <Position>
              <LatitudeDegrees>41.396007277071475982666015625</LatitudeDegrees>
              <LongitudeDegrees>-2.85485451109707355499267578125</LongitudeDegrees>
            </Position>
            <AltitudeMeters>1032.4000244140625</AltitudeMeters>
            <DistanceMeters>110692.12091985</DistanceMeters>
          </Trackpoint>
          <Trackpoint>
            <Time>2021-07-28T09:29:14.000Z</Time>
            <Position>
              <LatitudeDegrees>41.39616795815527439117431640625</LatitudeDegrees>
              <LongitudeDegrees>-2.8547734580934047698974609375</LongitudeDegrees>
            </Position>
            <AltitudeMeters>1030.5999755859375</AltitudeMeters>
            <DistanceMeters>110711.24278836</DistanceMeters>
          </Trackpoint>
          <Trackpoint>
            <Time>2021-07-28T09:29:15.000Z</Time>
            <Position>
              <LatitudeDegrees>41.39623736031353473663330078125</LatitudeDegrees>
              <LongitudeDegrees>-2.8547221608459949493408203125</LongitudeDegrees>
            </Position>
            <AltitudeMeters>1029.5999755859375</AltitudeMeters>
            <DistanceMeters>110720.07465115</DistanceMeters>
          </Trackpoint>
          <Trackpoint>
            <Time>2021-07-28T09:29:17.000Z</Time>
            <Position>
              <LatitudeDegrees>41.396358646452426910400390625</LatitudeDegrees>
              <LongitudeDegrees>-2.85458880476653575897216796875</LongitudeDegrees>
            </Position>
            <AltitudeMeters>1028</AltitudeMeters>
            <DistanceMeters>110737.57324716</DistanceMeters>
          </Trackpoint>
          <Trackpoint>
            <Time>2021-07-28T09:29:18.000Z</Time>
            <Position>
              <LatitudeDegrees>41.3964186608791351318359375</LatitudeDegrees>
              <LongitudeDegrees>-2.85451236180961132049560546875</LongitudeDegrees>
            </Position>
            <AltitudeMeters>1027.5999755859375</AltitudeMeters>
            <DistanceMeters>110746.81187706</DistanceMeters>
          </Trackpoint>
          <Trackpoint>
            <Time>2021-07-28T09:29:20.000Z</Time>
            <Position>
              <LatitudeDegrees>41.39654246158897876739501953125</LatitudeDegrees>
              <LongitudeDegrees>-2.854372970759868621826171875</LongitudeDegrees>
            </Position>
            <AltitudeMeters>1026.5999755859375</AltitudeMeters>
            <DistanceMeters>110764.8484381</DistanceMeters>
          </Trackpoint>
          <Trackpoint>
            <Time>2021-07-28T09:29:22.000Z</Time>
            <Position>
              <LatitudeDegrees>41.39665670692920684814453125</LatitudeDegrees>
              <LongitudeDegrees>-2.854260317981243133544921875</LongitudeDegrees>
            </Position>
            <AltitudeMeters>1025</AltitudeMeters>
            <DistanceMeters>110780.66460633</DistanceMeters>
          </Trackpoint>
          <Trackpoint>
            <Time>2021-07-28T09:29:23.000Z</Time>
            <Position>
              <LatitudeDegrees>41.39671395532786846160888671875</LatitudeDegrees>
              <LongitudeDegrees>-2.854216732084751129150390625</LongitudeDegrees>
            </Position>
            <AltitudeMeters>1024</AltitudeMeters>
            <DistanceMeters>110788.00199795</DistanceMeters>
          </Trackpoint>
          <Trackpoint>
            <Time>2021-07-28T09:29:25.000Z</Time>
            <Position>
              <LatitudeDegrees>41.396848820149898529052734375</LatitudeDegrees>
              <LongitudeDegrees>-2.854163087904453277587890625</LongitudeDegrees>
            </Position>
            <AltitudeMeters>1021.79998779296875</AltitudeMeters>
            <DistanceMeters>110803.66700122</DistanceMeters>
          </Trackpoint>
          <Trackpoint>
            <Time>2021-07-28T09:29:26.000Z</Time>
            <Position>
              <LatitudeDegrees>41.3969267718493938446044921875</LatitudeDegrees>
              <LongitudeDegrees>-2.85414858721196651458740234375</LongitudeDegrees>
            </Position>
            <AltitudeMeters>1020.5999755859375</AltitudeMeters>
            <DistanceMeters>110812.42700063</DistanceMeters>
          </Trackpoint>
          <Trackpoint>
            <Time>2021-07-28T09:29:27.000Z</Time>
            <Position>
              <LatitudeDegrees>41.3970126025378704071044921875</LatitudeDegrees>
              <LongitudeDegrees>-2.85413794219493865966796875</LongitudeDegrees>
            </Position>
            <AltitudeMeters>1019.4000244140625</AltitudeMeters>
            <DistanceMeters>110822.02140521</DistanceMeters>
          </Trackpoint>
          <Trackpoint>
            <Time>2021-07-28T09:29:28.000Z</Time>
            <Position>
              <LatitudeDegrees>41.3971058093011379241943359375</LatitudeDegrees>
              <LongitudeDegrees>-2.8541300632059574127197265625</LongitudeDegrees>
            </Position>
            <AltitudeMeters>1017.4000244140625</AltitudeMeters>
            <DistanceMeters>110832.41630274</DistanceMeters>
          </Trackpoint>
          <Trackpoint>
            <Time>2021-07-28T09:29:29.000Z</Time>
            <Position>
              <LatitudeDegrees>41.3972047157585620880126953125</LatitudeDegrees>
              <LongitudeDegrees>-2.85412645898759365081787109375</LongitudeDegrees>
            </Position>
            <AltitudeMeters>1015.5999755859375</AltitudeMeters>
            <DistanceMeters>110843.4291569</DistanceMeters>
          </Trackpoint>
          <Trackpoint>
            <Time>2021-07-28T09:29:30.000Z</Time>
            <Position>
              <LatitudeDegrees>41.3973063044250011444091796875</LatitudeDegrees>
              <LongitudeDegrees>-2.85412880592048168182373046875</LongitudeDegrees>
            </Position>
            <AltitudeMeters>1014</AltitudeMeters>
            <DistanceMeters>110854.73853366</DistanceMeters>
          </Trackpoint>
          <Trackpoint>
            <Time>2021-07-28T09:29:32.000Z</Time>
            <Position>
              <LatitudeDegrees>41.39749665744602680206298828125</LatitudeDegrees>
              <LongitudeDegrees>-2.8541421331465244293212890625</LongitudeDegrees>
            </Position>
            <AltitudeMeters>1012.5999755859375</AltitudeMeters>
            <DistanceMeters>110875.95440485</DistanceMeters>
          </Trackpoint>
          <Trackpoint>
            <Time>2021-07-28T09:29:33.000Z</Time>
            <Position>
              <LatitudeDegrees>41.3975829072296619415283203125</LatitudeDegrees>
              <LongitudeDegrees>-2.8541565500199794769287109375</LongitudeDegrees>
            </Position>
            <AltitudeMeters>1012.20001220703125</AltitudeMeters>
            <DistanceMeters>110885.62941247</DistanceMeters>
          </Trackpoint>
          <Trackpoint>
            <Time>2021-07-28T09:29:37.000Z</Time>
            <Position>
              <LatitudeDegrees>41.397928409278392791748046875</LatitudeDegrees>
              <LongitudeDegrees>-2.8543315641582012176513671875</LongitudeDegrees>
            </Position>
            <AltitudeMeters>1011</AltitudeMeters>
            <DistanceMeters>110926.76709065</DistanceMeters>
          </Trackpoint>
          <Trackpoint>
            <Time>2021-07-28T09:29:39.000Z</Time>
            <Position>
              <LatitudeDegrees>41.398100741207599639892578125</LatitudeDegrees>
              <LongitudeDegrees>-2.85447992384433746337890625</LongitudeDegrees>
            </Position>
            <AltitudeMeters>1009</AltitudeMeters>
            <DistanceMeters>110949.59981724</DistanceMeters>
          </Trackpoint>
          <Trackpoint>
            <Time>2021-07-28T09:29:40.000Z</Time>
            <Position>
              <LatitudeDegrees>41.39818849973380565643310546875</LatitudeDegrees>
              <LongitudeDegrees>-2.85456147976219654083251953125</LongitudeDegrees>
            </Position>
            <AltitudeMeters>1007.4000244140625</AltitudeMeters>
            <DistanceMeters>110961.50663042</DistanceMeters>
          </Trackpoint>
          <Trackpoint>
            <Time>2021-07-28T09:29:41.000Z</Time>
            <Position>
              <LatitudeDegrees>41.398277096450328826904296875</LatitudeDegrees>
              <LongitudeDegrees>-2.8546443767845630645751953125</LongitudeDegrees>
            </Position>
            <AltitudeMeters>1005.79998779296875</AltitudeMeters>
            <DistanceMeters>110973.55367938</DistanceMeters>
          </Trackpoint>
          <Trackpoint>
            <Time>2021-07-28T09:29:42.000Z</Time>
            <Position>
              <LatitudeDegrees>41.39836569316685199737548828125</LatitudeDegrees>
              <LongitudeDegrees>-2.8547292016446590423583984375</LongitudeDegrees>
            </Position>
            <AltitudeMeters>1004.5999755859375</AltitudeMeters>
            <DistanceMeters>110985.69406272</DistanceMeters>
          </Trackpoint>
          <Trackpoint>
            <Time>2021-07-28T09:29:45.000Z</Time>
            <Position>
              <LatitudeDegrees>41.39862318523228168487548828125</LatitudeDegrees>
              <LongitudeDegrees>-2.8549794852733612060546875</LongitudeDegrees>
            </Position>
            <AltitudeMeters>1003.4000244140625</AltitudeMeters>
            <DistanceMeters>111021.16245766</DistanceMeters>
          </Trackpoint>
          <Trackpoint>
            <Time>2021-07-28T09:29:48.000Z</Time>
            <Position>
              <LatitudeDegrees>41.3988911546766757965087890625</LatitudeDegrees>
              <LongitudeDegrees>-2.8551860153675079345703125</LongitudeDegrees>
            </Position>
            <AltitudeMeters>1002.4000244140625</AltitudeMeters>
            <DistanceMeters>111055.61380289</DistanceMeters>
          </Trackpoint>
          <Trackpoint>
            <Time>2021-07-28T09:29:49.000Z</Time>
            <Position>
              <LatitudeDegrees>41.3989857025444507598876953125</LatitudeDegrees>
              <LongitudeDegrees>-2.85523370839655399322509765625</LongitudeDegrees>
            </Position>
            <AltitudeMeters>1002.20001220703125</AltitudeMeters>
            <DistanceMeters>111066.86554372</DistanceMeters>
          </Trackpoint>
          <Trackpoint>
            <Time>2021-07-28T09:29:53.000Z</Time>
            <Position>
              <LatitudeDegrees>41.39937202446162700653076171875</LatitudeDegrees>
              <LongitudeDegrees>-2.85532959736883640289306640625</LongitudeDegrees>
            </Position>
            <AltitudeMeters>1002.20001220703125</AltitudeMeters>
            <DistanceMeters>111110.60282134</DistanceMeters>
          </Trackpoint>
          <Trackpoint>
            <Time>2021-07-28T09:29:59.000Z</Time>
            <Position>
              <LatitudeDegrees>41.39991550706326961517333984375</LatitudeDegrees>
              <LongitudeDegrees>-2.85541660152375698089599609375</LongitudeDegrees>
            </Position>
            <AltitudeMeters>1002</AltitudeMeters>
            <DistanceMeters>111171.52806375</DistanceMeters>
          </Trackpoint>
          <Trackpoint>
            <Time>2021-07-28T09:30:06.000Z</Time>
            <Position>
              <LatitudeDegrees>41.4004431478679180145263671875</LatitudeDegrees>
              <LongitudeDegrees>-2.8555700741708278656005859375</LongitudeDegrees>
            </Position>
            <AltitudeMeters>1003</AltitudeMeters>
            <DistanceMeters>111231.63709907</DistanceMeters>
          </Trackpoint>
          <Trackpoint>
            <Time>2021-07-28T09:30:11.000Z</Time>
            <Position>
              <LatitudeDegrees>41.40073626302182674407958984375</LatitudeDegrees>
              <LongitudeDegrees>-2.85572715103626251220703125</LongitudeDegrees>
            </Position>
            <AltitudeMeters>1003.5999755859375</AltitudeMeters>
            <DistanceMeters>111266.79852433</DistanceMeters>
          </Trackpoint>
          <Trackpoint>
            <Time>2021-07-28T09:30:21.000Z</Time>
            <Position>
              <LatitudeDegrees>41.4012189768254756927490234375</LatitudeDegrees>
              <LongitudeDegrees>-2.856080867350101470947265625</LongitudeDegrees>
            </Position>
            <AltitudeMeters>1004.5999755859375</AltitudeMeters>
            <DistanceMeters>111328.10644355</DistanceMeters>
          </Trackpoint>
          <Trackpoint>
            <Time>2021-07-28T09:30:22.000Z</Time>
            <Position>
              <LatitudeDegrees>41.40125761739909648895263671875</LatitudeDegrees>
              <LongitudeDegrees>-2.85611213184893131256103515625</LongitudeDegrees>
            </Position>
            <AltitudeMeters>1004.79998779296875</AltitudeMeters>
            <DistanceMeters>111333.13837502</DistanceMeters>
          </Trackpoint>
          <Trackpoint>
            <Time>2021-07-28T09:30:27.000Z</Time>
            <Position>
              <LatitudeDegrees>41.40142860822379589080810546875</LatitudeDegrees>
              <LongitudeDegrees>-2.85625076852738857269287109375</LongitudeDegrees>
            </Position>
            <AltitudeMeters>1005.79998779296875</AltitudeMeters>
            <DistanceMeters>111355.41337469</DistanceMeters>
          </Trackpoint>
          <Trackpoint>
            <Time>2021-07-28T09:30:38.000Z</Time>
            <Position>
              <LatitudeDegrees>41.40176639892160892486572265625</LatitudeDegrees>
              <LongitudeDegrees>-2.85654011182487010955810546875</LongitudeDegrees>
            </Position>
            <AltitudeMeters>1006.79998779296875</AltitudeMeters>
            <DistanceMeters>111400.10180257</DistanceMeters>
          </Trackpoint>
          <Trackpoint>
            <Time>2021-07-28T09:30:49.000Z</Time>
            <Position>
              <LatitudeDegrees>41.402079127728939056396484375</LatitudeDegrees>
              <LongitudeDegrees>-2.85678402520716190338134765625</LongitudeDegrees>
            </Position>
            <AltitudeMeters>1007.79998779296875</AltitudeMeters>
            <DistanceMeters>111440.42830089</DistanceMeters>
          </Trackpoint>
          <Trackpoint>
            <Time>2021-07-28T09:31:04.000Z</Time>
            <Position>
              <LatitudeDegrees>41.40258883126080036163330078125</LatitudeDegrees>
              <LongitudeDegrees>-2.8570885397493839263916015625</LongitudeDegrees>
            </Position>
            <AltitudeMeters>1007.20001220703125</AltitudeMeters>
            <DistanceMeters>111502.59516671</DistanceMeters>
          </Trackpoint>
          <Trackpoint>
            <Time>2021-07-28T09:31:05.000Z</Time>
            <Position>
              <LatitudeDegrees>41.40263208188116550445556640625</LatitudeDegrees>
              <LongitudeDegrees>-2.857118546962738037109375</LongitudeDegrees>
            </Position>
            <AltitudeMeters>1007</AltitudeMeters>
            <DistanceMeters>111508.02168303</DistanceMeters>
          </Trackpoint>
          <Trackpoint>
            <Time>2021-07-28T09:31:10.000Z</Time>
            <Position>
              <LatitudeDegrees>41.4028715528547763824462890625</LatitudeDegrees>
              <LongitudeDegrees>-2.85730605013668537139892578125</LongitudeDegrees>
            </Position>
            <AltitudeMeters>1005.79998779296875</AltitudeMeters>
            <DistanceMeters>111538.93210729</DistanceMeters>
          </Trackpoint>
          <Trackpoint>
            <Time>2021-07-28T09:31:13.000Z</Time>
            <Position>
              <LatitudeDegrees>41.403044722974300384521484375</LatitudeDegrees>
              <LongitudeDegrees>-2.85742591135203838348388671875</LongitudeDegrees>
            </Position>
            <AltitudeMeters>1004.20001220703125</AltitudeMeters>
            <DistanceMeters>111560.64919417</DistanceMeters>
          </Trackpoint>
          <Trackpoint>
            <Time>2021-07-28T09:31:16.000Z</Time>
            <Position>
              <LatitudeDegrees>41.4032339863479137420654296875</LatitudeDegrees>
              <LongitudeDegrees>-2.8575428389012813568115234375</LongitudeDegrees>
            </Position>
            <AltitudeMeters>1003.20001220703125</AltitudeMeters>
            <DistanceMeters>111583.86626447</DistanceMeters>
          </Trackpoint>
          <Trackpoint>
            <Time>2021-07-28T09:31:25.000Z</Time>
            <Position>
              <LatitudeDegrees>41.40376330353319644927978515625</LatitudeDegrees>
              <LongitudeDegrees>-2.85780460573732852935791015625</LongitudeDegrees>
            </Position>
            <AltitudeMeters>1003.4000244140625</AltitudeMeters>
            <DistanceMeters>111646.70285449</DistanceMeters>
          </Trackpoint>
          <Trackpoint>
            <Time>2021-07-28T09:31:32.000Z</Time>
            <Position>
              <LatitudeDegrees>41.40418977476656436920166015625</LatitudeDegrees>
              <LongitudeDegrees>-2.8579240478575229644775390625</LongitudeDegrees>
            </Position>
            <AltitudeMeters>1002</AltitudeMeters>
            <DistanceMeters>111695.20596404</DistanceMeters>
          </Trackpoint>
          <Trackpoint>
            <Time>2021-07-28T09:31:34.000Z</Time>
            <Position>
              <LatitudeDegrees>41.40432572923600673675537109375</LatitudeDegrees>
              <LongitudeDegrees>-2.857965119183063507080078125</LongitudeDegrees>
            </Position>
            <AltitudeMeters>1001.20001220703125</AltitudeMeters>
            <DistanceMeters>111710.72153067</DistanceMeters>
          </Trackpoint>
          <Trackpoint>
            <Time>2021-07-28T09:31:38.000Z</Time>
            <Position>
              <LatitudeDegrees>41.40460870228707790374755859375</LatitudeDegrees>
              <LongitudeDegrees>-2.85805203951895236968994140625</LongitudeDegrees>
            </Position>
            <AltitudeMeters>1000</AltitudeMeters>
            <DistanceMeters>111743.04221032</DistanceMeters>
          </Trackpoint>
          <Trackpoint>
            <Time>2021-07-28T09:31:43.000Z</Time>
            <Position>
              <LatitudeDegrees>41.40496644191443920135498046875</LatitudeDegrees>
              <LongitudeDegrees>-2.8581654466688632965087890625</LongitudeDegrees>
            </Position>
            <AltitudeMeters>999</AltitudeMeters>
            <DistanceMeters>111783.96950024</DistanceMeters>
          </Trackpoint>
          <Trackpoint>
            <Time>2021-07-28T09:31:52.000Z</Time>
            <Position>
              <LatitudeDegrees>41.405519731342792510986328125</LatitudeDegrees>
              <LongitudeDegrees>-2.85835898481309413909912109375</LongitudeDegrees>
            </Position>
            <AltitudeMeters>999.5999755859375</AltitudeMeters>
            <DistanceMeters>111847.63598054</DistanceMeters>
          </Trackpoint>
          <Trackpoint>
            <Time>2021-07-28T09:32:03.000Z</Time>
            <Position>
              <LatitudeDegrees>41.40608525834977626800537109375</LatitudeDegrees>
              <LongitudeDegrees>-2.85855981521308422088623046875</LongitudeDegrees>
            </Position>
            <AltitudeMeters>999.4000244140625</AltitudeMeters>
            <DistanceMeters>111912.77483515</DistanceMeters>
          </Trackpoint>
          <Trackpoint>
            <Time>2021-07-28T09:32:11.000Z</Time>
            <Position>
              <LatitudeDegrees>41.406581215560436248779296875</LatitudeDegrees>
              <LongitudeDegrees>-2.858607508242130279541015625</LongitudeDegrees>
            </Position>
            <AltitudeMeters>998</AltitudeMeters>
            <DistanceMeters>111968.11939216</DistanceMeters>
          </Trackpoint>
          <Trackpoint>
            <Time>2021-07-28T09:32:15.000Z</Time>
            <Position>
              <LatitudeDegrees>41.40683711506426334381103515625</LatitudeDegrees>
              <LongitudeDegrees>-2.85858479328453540802001953125</LongitudeDegrees>
            </Position>
            <AltitudeMeters>996.79998779296875</AltitudeMeters>
            <DistanceMeters>111996.66475917</DistanceMeters>
          </Trackpoint>
          <Trackpoint>
            <Time>2021-07-28T09:32:25.000Z</Time>
            <Position>
              <LatitudeDegrees>41.407401971518993377685546875</LatitudeDegrees>
              <LongitudeDegrees>-2.85853140056133270263671875</LongitudeDegrees>
            </Position>
            <AltitudeMeters>997.20001220703125</AltitudeMeters>
            <DistanceMeters>112059.69226173</DistanceMeters>
          </Trackpoint>
          <Trackpoint>
            <Time>2021-07-28T09:32:31.000Z</Time>
            <Position>
              <LatitudeDegrees>41.40772542916238307952880859375</LatitudeDegrees>
              <LongitudeDegrees>-2.8584829531610012054443359375</LongitudeDegrees>
            </Position>
            <AltitudeMeters>996</AltitudeMeters>
            <DistanceMeters>112095.92012946</DistanceMeters>
          </Trackpoint>
          <Trackpoint>
            <Time>2021-07-28T09:32:42.000Z</Time>
            <Position>
              <LatitudeDegrees>41.40829539857804775238037109375</LatitudeDegrees>
              <LongitudeDegrees>-2.8584614954888820648193359375</LongitudeDegrees>
            </Position>
            <AltitudeMeters>995.20001220703125</AltitudeMeters>
            <DistanceMeters>112159.38417437</DistanceMeters>
          </Trackpoint>
          <Trackpoint>
            <Time>2021-07-28T09:32:53.000Z</Time>
            <Position>
              <LatitudeDegrees>41.40885346569120883941650390625</LatitudeDegrees>
              <LongitudeDegrees>-2.8585034050047397613525390625</LongitudeDegrees>
            </Position>
            <AltitudeMeters>995</AltitudeMeters>
            <DistanceMeters>112221.5966337</DistanceMeters>
          </Trackpoint>
          <Trackpoint>
            <Time>2021-07-28T09:32:55.000Z</Time>
            <Position>
              <LatitudeDegrees>41.40895421616733074188232421875</LatitudeDegrees>
              <LongitudeDegrees>-2.85852611996233463287353515625</LongitudeDegrees>
            </Position>
            <AltitudeMeters>995</AltitudeMeters>
            <DistanceMeters>112232.96970782</DistanceMeters>
          </Trackpoint>
          <Trackpoint>
            <Time>2021-07-28T09:33:03.000Z</Time>
            <Position>
              <LatitudeDegrees>41.4093415439128875732421875</LatitudeDegrees>
              <LongitudeDegrees>-2.85863324068486690521240234375</LongitudeDegrees>
            </Position>
            <AltitudeMeters>996.20001220703125</AltitudeMeters>
            <DistanceMeters>112276.99774945</DistanceMeters>
          </Trackpoint>
          <Trackpoint>
            <Time>2021-07-28T09:33:15.000Z</Time>
            <Position>
              <LatitudeDegrees>41.409892737865447998046875</LatitudeDegrees>
              <LongitudeDegrees>-2.85884027369320392608642578125</LongitudeDegrees>
            </Position>
            <AltitudeMeters>996.5999755859375</AltitudeMeters>
            <DistanceMeters>112340.73454063</DistanceMeters>
          </Trackpoint>
          <Trackpoint>
            <Time>2021-07-28T09:33:27.000Z</Time>
            <Position>
              <LatitudeDegrees>41.41043378971517086029052734375</LatitudeDegrees>
              <LongitudeDegrees>-2.8590022958815097808837890625</LongitudeDegrees>
            </Position>
            <AltitudeMeters>996.4000244140625</AltitudeMeters>
            <DistanceMeters>112402.45481225</DistanceMeters>
          </Trackpoint>
          <Trackpoint>
            <Time>2021-07-28T09:33:37.000Z</Time>
            <Position>
              <LatitudeDegrees>41.41097492538392543792724609375</LatitudeDegrees>
              <LongitudeDegrees>-2.85909491591155529022216796875</LongitudeDegrees>
            </Position>
            <AltitudeMeters>995.5999755859375</AltitudeMeters>
            <DistanceMeters>112463.17844418</DistanceMeters>
          </Trackpoint>
          <Trackpoint>
            <Time>2021-07-28T09:33:44.000Z</Time>
            <Position>
              <LatitudeDegrees>41.4113775081932544708251953125</LatitudeDegrees>
              <LongitudeDegrees>-2.85915660671889781951904296875</LongitudeDegrees>
            </Position>
            <AltitudeMeters>995.20001220703125</AltitudeMeters>
            <DistanceMeters>112508.28181081</DistanceMeters>
          </Trackpoint>
          <Trackpoint>
            <Time>2021-07-28T09:33:55.000Z</Time>
            <Position>
              <LatitudeDegrees>41.4119588769972324371337890625</LatitudeDegrees>
              <LongitudeDegrees>-2.8590939939022064208984375</LongitudeDegrees>
            </Position>
            <AltitudeMeters>995.20001220703125</AltitudeMeters>
            <DistanceMeters>112573.20015073</DistanceMeters>
          </Trackpoint>
          <Trackpoint>
            <Time>2021-07-28T09:34:01.000Z</Time>
            <Position>
              <LatitudeDegrees>41.41226322390139102935791015625</LatitudeDegrees>
              <LongitudeDegrees>-2.8589657507836818695068359375</LongitudeDegrees>
            </Position>
            <AltitudeMeters>993.79998779296875</AltitudeMeters>
            <DistanceMeters>112608.72578336</DistanceMeters>
          </Trackpoint>
          <Trackpoint>
            <Time>2021-07-28T09:34:06.000Z</Time>
            <Position>
              <LatitudeDegrees>41.41253345645964145660400390625</LatitudeDegrees>
              <LongitudeDegrees>-2.858858294785022735595703125</LongitudeDegrees>
            </Position>
            <AltitudeMeters>992.5999755859375</AltitudeMeters>
            <DistanceMeters>112640.11223106</DistanceMeters>
          </Trackpoint>
          <Trackpoint>
            <Time>2021-07-28T09:34:17.000Z</Time>
            <Position>
              <LatitudeDegrees>41.4130790345370769500732421875</LatitudeDegrees>
              <LongitudeDegrees>-2.858656458556652069091796875</LongitudeDegrees>
            </Position>
            <AltitudeMeters>992.20001220703125</AltitudeMeters>
            <DistanceMeters>112703.13006202</DistanceMeters>
          </Trackpoint>
          <Trackpoint>
            <Time>2021-07-28T09:34:29.000Z</Time>
            <Position>
              <LatitudeDegrees>41.4136117883026599884033203125</LatitudeDegrees>
              <LongitudeDegrees>-2.85844917409121990203857421875</LongitudeDegrees>
            </Position>
            <AltitudeMeters>993</AltitudeMeters>
            <DistanceMeters>112764.89939996</DistanceMeters>
          </Trackpoint>
          <Trackpoint>
            <Time>2021-07-28T09:34:40.000Z</Time>
            <Position>
              <LatitudeDegrees>41.4141063205897808074951171875</LatitudeDegrees>
              <LongitudeDegrees>-2.85827667452394962310791015625</LongitudeDegrees>
            </Position>
            <AltitudeMeters>991.79998779296875</AltitudeMeters>
            <DistanceMeters>112821.79390244</DistanceMeters>
          </Trackpoint>
          <Trackpoint>
            <Time>2021-07-28T09:34:50.000Z</Time>
            <Position>
              <LatitudeDegrees>41.41458434052765369415283203125</LatitudeDegrees>
              <LongitudeDegrees>-2.8581309132277965545654296875</LongitudeDegrees>
            </Position>
            <AltitudeMeters>990.5999755859375</AltitudeMeters>
            <DistanceMeters>112876.37184044</DistanceMeters>
          </Trackpoint>
          <Trackpoint>
            <Time>2021-07-28T09:35:02.000Z</Time>
            <Position>
              <LatitudeDegrees>41.41516017727553844451904296875</LatitudeDegrees>
              <LongitudeDegrees>-2.85798800177872180938720703125</LongitudeDegrees>
            </Position>
            <AltitudeMeters>990.79998779296875</AltitudeMeters>
            <DistanceMeters>112941.56432206</DistanceMeters>
          </Trackpoint>
          <Trackpoint>
            <Time>2021-07-28T09:35:08.000Z</Time>
            <Position>
              <LatitudeDegrees>41.41547433100640773773193359375</LatitudeDegrees>
              <LongitudeDegrees>-2.85796009004116058349609375</LongitudeDegrees>
            </Position>
            <AltitudeMeters>989.5999755859375</AltitudeMeters>
            <DistanceMeters>112976.60779857</DistanceMeters>
          </Trackpoint>
          <Trackpoint>
            <Time>2021-07-28T09:35:14.000Z</Time>
            <Position>
              <LatitudeDegrees>41.4158309809863567352294921875</LatitudeDegrees>
              <LongitudeDegrees>-2.8579780273139476776123046875</LongitudeDegrees>
            </Position>
            <AltitudeMeters>988.20001220703125</AltitudeMeters>
            <DistanceMeters>113016.33169312</DistanceMeters>
          </Trackpoint>
          <Trackpoint>
            <Time>2021-07-28T09:35:23.000Z</Time>
            <Position>
              <LatitudeDegrees>41.416375301778316497802734375</LatitudeDegrees>
              <LongitudeDegrees>-2.85805664956569671630859375</LongitudeDegrees>
            </Position>
            <AltitudeMeters>988.5999755859375</AltitudeMeters>
            <DistanceMeters>113077.26997712</DistanceMeters>
          </Trackpoint>
          <Trackpoint>
            <Time>2021-07-28T09:35:33.000Z</Time>
            <Position>
              <LatitudeDegrees>41.41693965531885623931884765625</LatitudeDegrees>
              <LongitudeDegrees>-2.85813837312161922454833984375</LongitudeDegrees>
            </Position>
            <AltitudeMeters>988</AltitudeMeters>
            <DistanceMeters>113140.45288149</DistanceMeters>
          </Trackpoint>
          <Trackpoint>
            <Time>2021-07-28T09:35:43.000Z</Time>
            <Position>
              <LatitudeDegrees>41.41748179681599140167236328125</LatitudeDegrees>
              <LongitudeDegrees>-2.85820811055600643157958984375</LongitudeDegrees>
            </Position>
            <AltitudeMeters>988</AltitudeMeters>
            <DistanceMeters>113201.07441405</DistanceMeters>
          </Trackpoint>
          <Trackpoint>
            <Time>2021-07-28T09:35:54.000Z</Time>
            <Position>
              <LatitudeDegrees>41.4180558733642101287841796875</LatitudeDegrees>
              <LongitudeDegrees>-2.858219258487224578857421875</LongitudeDegrees>
            </Position>
            <AltitudeMeters>989.20001220703125</AltitudeMeters>
            <DistanceMeters>113264.97703567</DistanceMeters>
          </Trackpoint>
          <Trackpoint>
            <Time>2021-07-28T09:35:57.000Z</Time>
            <Position>
              <LatitudeDegrees>41.418187133967876434326171875</LatitudeDegrees>
              <LongitudeDegrees>-2.85821297205984592437744140625</LongitudeDegrees>
            </Position>
            <AltitudeMeters>989.79998779296875</AltitudeMeters>
            <DistanceMeters>113279.59602398</DistanceMeters>
          </Trackpoint>
          <Trackpoint>
            <Time>2021-07-28T09:36:00.000Z</Time>
            <Position>
              <LatitudeDegrees>41.41830540262162685394287109375</LatitudeDegrees>
              <LongitudeDegrees>-2.85820593126118183135986328125</LongitudeDegrees>
            </Position>
            <AltitudeMeters>990.79998779296875</AltitudeMeters>
            <DistanceMeters>113292.77290942</DistanceMeters>
          </Trackpoint>
          <Trackpoint>
            <Time>2021-07-28T09:36:05.000Z</Time>
            <Position>
              <LatitudeDegrees>41.41847706399857997894287109375</LatitudeDegrees>
              <LongitudeDegrees>-2.85819905810058116912841796875</LongitudeDegrees>
            </Position>
            <AltitudeMeters>992</AltitudeMeters>
            <DistanceMeters>113311.88792925</DistanceMeters>
          </Trackpoint>
          <Trackpoint>
            <Time>2021-07-28T09:36:20.000Z</Time>
            <Position>
              <LatitudeDegrees>41.41902775503695011138916015625</LatitudeDegrees>
              <LongitudeDegrees>-2.85810752771794795989990234375</LongitudeDegrees>
            </Position>
            <AltitudeMeters>992.5999755859375</AltitudeMeters>
            <DistanceMeters>113373.65514739</DistanceMeters>
          </Trackpoint>
          <Trackpoint>
            <Time>2021-07-28T09:36:30.000Z</Time>
            <Position>
              <LatitudeDegrees>41.41949211247265338897705078125</LatitudeDegrees>
              <LongitudeDegrees>-2.85798515193164348602294921875</LongitudeDegrees>
            </Position>
            <AltitudeMeters>990.79998779296875</AltitudeMeters>
            <DistanceMeters>113426.3386983</DistanceMeters>
          </Trackpoint>
          <Trackpoint>
            <Time>2021-07-28T09:36:41.000Z</Time>
            <Position>
              <LatitudeDegrees>41.42003274522721767425537109375</LatitudeDegrees>
              <LongitudeDegrees>-2.857869230210781097412109375</LongitudeDegrees>
            </Position>
            <AltitudeMeters>991.79998779296875</AltitudeMeters>
            <DistanceMeters>113487.28513187</DistanceMeters>
          </Trackpoint>
          <Trackpoint>
            <Time>2021-07-28T09:36:42.000Z</Time>
            <Position>
              <LatitudeDegrees>41.42007163725793361663818359375</LatitudeDegrees>
              <LongitudeDegrees>-2.85786227323114871978759765625</LongitudeDegrees>
            </Position>
            <AltitudeMeters>992.20001220703125</AltitudeMeters>
            <DistanceMeters>113491.65222718</DistanceMeters>
          </Trackpoint>
          <Trackpoint>
            <Time>2021-07-28T09:36:45.000Z</Time>
            <Position>
              <LatitudeDegrees>41.42017691396176815032958984375</LatitudeDegrees>
              <LongitudeDegrees>-2.857847101986408233642578125</LongitudeDegrees>
            </Position>
            <AltitudeMeters>993.4000244140625</AltitudeMeters>
            <DistanceMeters>113503.43822166</DistanceMeters>
          </Trackpoint>
          <Trackpoint>
            <Time>2021-07-28T09:36:49.000Z</Time>
            <Position>
              <LatitudeDegrees>41.42029761336743831634521484375</LatitudeDegrees>
              <LongitudeDegrees>-2.8578301705420017242431640625</LongitudeDegrees>
            </Position>
            <AltitudeMeters>994.4000244140625</AltitudeMeters>
            <DistanceMeters>113516.94672953</DistanceMeters>
          </Trackpoint>
          <Trackpoint>
            <Time>2021-07-28T09:37:00.000Z</Time>
            <Position>
              <LatitudeDegrees>41.4205344021320343017578125</LatitudeDegrees>
              <LongitudeDegrees>-2.8578023426234722137451171875</LongitudeDegrees>
            </Position>
            <AltitudeMeters>995</AltitudeMeters>
            <DistanceMeters>113543.40377785</DistanceMeters>
          </Trackpoint>
          <Trackpoint>
            <Time>2021-07-28T09:39:31.000Z</Time>
            <Position>
              <LatitudeDegrees>41.420560888946056365966796875</LatitudeDegrees>
              <LongitudeDegrees>-2.85779915750026702880859375</LongitudeDegrees>
            </Position>
            <AltitudeMeters>995</AltitudeMeters>
            <DistanceMeters>113546.36336805</DistanceMeters>
          </Trackpoint>
          <Trackpoint>
            <Time>2021-07-28T09:39:37.000Z</Time>
            <Position>
              <LatitudeDegrees>41.42072140239179134368896484375</LatitudeDegrees>
              <LongitudeDegrees>-2.8577939607203006744384765625</LongitudeDegrees>
            </Position>
            <AltitudeMeters>994.20001220703125</AltitudeMeters>
            <DistanceMeters>113564.23420221</DistanceMeters>
          </Trackpoint>
          <Trackpoint>
            <Time>2021-07-28T09:39:40.000Z</Time>
            <Position>
              <LatitudeDegrees>41.42084729857742786407470703125</LatitudeDegrees>
              <LongitudeDegrees>-2.85776856355369091033935546875</LongitudeDegrees>
            </Position>
            <AltitudeMeters>993.20001220703125</AltitudeMeters>
            <DistanceMeters>113578.40625076</DistanceMeters>
          </Trackpoint>
          <Trackpoint>
            <Time>2021-07-28T09:39:44.000Z</Time>
            <Position>
              <LatitudeDegrees>41.42107562161982059478759765625</LatitudeDegrees>
              <LongitudeDegrees>-2.857737131416797637939453125</LongitudeDegrees>
            </Position>
            <AltitudeMeters>992</AltitudeMeters>
            <DistanceMeters>113603.95412593</DistanceMeters>
          </Trackpoint>
          <Trackpoint>
            <Time>2021-07-28T09:39:46.000Z</Time>
            <Position>
              <LatitudeDegrees>41.42121576704084873199462890625</LatitudeDegrees>
              <LongitudeDegrees>-2.85772263072431087493896484375</LongitudeDegrees>
            </Position>
            <AltitudeMeters>989.79998779296875</AltitudeMeters>
            <DistanceMeters>113619.59951765</DistanceMeters>
          </Trackpoint>
          <Trackpoint>
            <Time>2021-07-28T09:39:48.000Z</Time>
            <Position>
              <LatitudeDegrees>41.42136630602180957794189453125</LatitudeDegrees>
              <LongitudeDegrees>-2.85770419053733348846435546875</LongitudeDegrees>
            </Position>
            <AltitudeMeters>988.4000244140625</AltitudeMeters>
            <DistanceMeters>113636.42541901</DistanceMeters>
          </Trackpoint>
          <Trackpoint>
            <Time>2021-07-28T09:39:50.000Z</Time>
            <Position>
              <LatitudeDegrees>41.4215172640979290008544921875</LatitudeDegrees>
              <LongitudeDegrees>-2.8576873429119586944580078125</LongitudeDegrees>
            </Position>
            <AltitudeMeters>987.20001220703125</AltitudeMeters>
            <DistanceMeters>113653.2861683</DistanceMeters>
          </Trackpoint>
          <Trackpoint>
            <Time>2021-07-28T09:39:58.000Z</Time>
            <Position>
              <LatitudeDegrees>41.42205714248120784759521484375</LatitudeDegrees>
              <LongitudeDegrees>-2.857632525265216827392578125</LongitudeDegrees>
            </Position>
            <AltitudeMeters>987.20001220703125</AltitudeMeters>
            <DistanceMeters>113713.54966517</DistanceMeters>
          </Trackpoint>
          <Trackpoint>
            <Time>2021-07-28T09:40:04.000Z</Time>
            <Position>
              <LatitudeDegrees>41.42240348272025585174560546875</LatitudeDegrees>
              <LongitudeDegrees>-2.8575927950441837310791015625</LongitudeDegrees>
            </Position>
            <AltitudeMeters>988.4000244140625</AltitudeMeters>
            <DistanceMeters>113752.24036111</DistanceMeters>
          </Trackpoint>
          <Trackpoint>
            <Time>2021-07-28T09:40:12.000Z</Time>
            <Position>
              <LatitudeDegrees>41.42281897366046905517578125</LatitudeDegrees>
              <LongitudeDegrees>-2.85755884833633899688720703125</LongitudeDegrees>
            </Position>
            <AltitudeMeters>989.5999755859375</AltitudeMeters>
            <DistanceMeters>113798.57209723</DistanceMeters>
          </Trackpoint>
          <Trackpoint>
            <Time>2021-07-28T09:40:16.000Z</Time>
            <Position>
              <LatitudeDegrees>41.42301904968917369842529296875</LatitudeDegrees>
              <LongitudeDegrees>-2.85754376091063022613525390625</LongitudeDegrees>
            </Position>
            <AltitudeMeters>988.5999755859375</AltitudeMeters>
            <DistanceMeters>113820.87646836</DistanceMeters>
          </Trackpoint>
          <Trackpoint>
            <Time>2021-07-28T09:40:27.000Z</Time>
            <Position>
              <LatitudeDegrees>41.42358449287712574005126953125</LatitudeDegrees>
              <LongitudeDegrees>-2.85751408897340297698974609375</LongitudeDegrees>
            </Position>
            <AltitudeMeters>987.4000244140625</AltitudeMeters>
            <DistanceMeters>113883.86011443</DistanceMeters>
          </Trackpoint>
          <Trackpoint>
            <Time>2021-07-28T09:40:38.000Z</Time>
            <Position>
              <LatitudeDegrees>41.42414423637092113494873046875</LatitudeDegrees>
              <LongitudeDegrees>-2.85749179311096668243408203125</LongitudeDegrees>
            </Position>
            <AltitudeMeters>987.20001220703125</AltitudeMeters>
            <DistanceMeters>113946.18836747</DistanceMeters>
          </Trackpoint>
          <Trackpoint>
            <Time>2021-07-28T09:40:42.000Z</Time>
            <Position>
              <LatitudeDegrees>41.4243684522807598114013671875</LatitudeDegrees>
              <LongitudeDegrees>-2.85747000016272068023681640625</LongitudeDegrees>
            </Position>
            <AltitudeMeters>986.4000244140625</AltitudeMeters>
            <DistanceMeters>113971.21018435</DistanceMeters>
          </Trackpoint>
          <Trackpoint>
            <Time>2021-07-28T09:40:51.000Z</Time>
            <Position>
              <LatitudeDegrees>41.4248371683061122894287109375</LatitudeDegrees>
              <LongitudeDegrees>-2.85743244923651218414306640625</LongitudeDegrees>
            </Position>
            <AltitudeMeters>987.79998779296875</AltitudeMeters>
            <DistanceMeters>114023.47323586</DistanceMeters>
          </Trackpoint>
          <Trackpoint>
            <Time>2021-07-28T09:40:54.000Z</Time>
            <Position>
              <LatitudeDegrees>41.42493582330644130706787109375</LatitudeDegrees>
              <LongitudeDegrees>-2.857428006827831268310546875</LongitudeDegrees>
            </Position>
            <AltitudeMeters>989.20001220703125</AltitudeMeters>
            <DistanceMeters>114034.46023099</DistanceMeters>
          </Trackpoint>
          <Trackpoint>
            <Time>2021-07-28T09:40:59.000Z</Time>
            <Position>
              <LatitudeDegrees>41.4250866137444972991943359375</LatitudeDegrees>
              <LongitudeDegrees>-2.85742658190429210662841796875</LongitudeDegrees>
            </Position>
            <AltitudeMeters>990.20001220703125</AltitudeMeters>
            <DistanceMeters>114051.24421933</DistanceMeters>
          </Trackpoint>
          <Trackpoint>
            <Time>2021-07-28T09:41:09.000Z</Time>
            <Position>
              <LatitudeDegrees>41.425470672547817230224609375</LatitudeDegrees>
              <LongitudeDegrees>-2.857405878603458404541015625</LongitudeDegrees>
            </Position>
            <AltitudeMeters>989</AltitudeMeters>
            <DistanceMeters>114094.02576961</DistanceMeters>
          </Trackpoint>
          <Trackpoint>
            <Time>2021-07-28T09:41:11.000Z</Time>
            <Position>
              <LatitudeDegrees>41.4255821518599987030029296875</LatitudeDegrees>
              <LongitudeDegrees>-2.85739640705287456512451171875</LongitudeDegrees>
            </Position>
            <AltitudeMeters>987.79998779296875</AltitudeMeters>
            <DistanceMeters>114106.45866342</DistanceMeters>
          </Trackpoint>
          <Trackpoint>
            <Time>2021-07-28T09:41:13.000Z</Time>
            <Position>
              <LatitudeDegrees>41.4257065393030643463134765625</LatitudeDegrees>
              <LongitudeDegrees>-2.85738475620746612548828125</LongitudeDegrees>
            </Position>
            <AltitudeMeters>986.5999755859375</AltitudeMeters>
            <DistanceMeters>114120.33744437</DistanceMeters>
          </Trackpoint>
          <Trackpoint>
            <Time>2021-07-28T09:41:17.000Z</Time>
            <Position>
              <LatitudeDegrees>41.42597316764295101165771484375</LatitudeDegrees>
              <LongitudeDegrees>-2.8573718480765819549560546875</LongitudeDegrees>
            </Position>
            <AltitudeMeters>985.5999755859375</AltitudeMeters>
            <DistanceMeters>114150.03355868</DistanceMeters>
          </Trackpoint>
          <Trackpoint>
            <Time>2021-07-28T09:41:26.000Z</Time>
            <Position>
              <LatitudeDegrees>41.42652084119617938995361328125</LatitudeDegrees>
              <LongitudeDegrees>-2.8573517315089702606201171875</LongitudeDegrees>
            </Position>
            <AltitudeMeters>985.5999755859375</AltitudeMeters>
            <DistanceMeters>114211.01376432</DistanceMeters>
          </Trackpoint>
          <Trackpoint>
            <Time>2021-07-28T09:41:30.000Z</Time>
            <Position>
              <LatitudeDegrees>41.4267624914646148681640625</LatitudeDegrees>
              <LongitudeDegrees>-2.85734091885387897491455078125</LongitudeDegrees>
            </Position>
            <AltitudeMeters>984.79998779296875</AltitudeMeters>
            <DistanceMeters>114237.92512179</DistanceMeters>
          </Trackpoint>
          <Trackpoint>
            <Time>2021-07-28T09:41:39.000Z</Time>
            <Position>
              <LatitudeDegrees>41.4273048005998134613037109375</LatitudeDegrees>
              <LongitudeDegrees>-2.85730160772800445556640625</LongitudeDegrees>
            </Position>
            <AltitudeMeters>984.5999755859375</AltitudeMeters>
            <DistanceMeters>114298.37436276</DistanceMeters>
          </Trackpoint>
          <Trackpoint>
            <Time>2021-07-28T09:41:43.000Z</Time>
            <Position>
              <LatitudeDegrees>41.42747453413903713226318359375</LatitudeDegrees>
              <LongitudeDegrees>-2.8572957403957843780517578125</LongitudeDegrees>
            </Position>
            <AltitudeMeters>986</AltitudeMeters>
            <DistanceMeters>114317.27249821</DistanceMeters>
          </Trackpoint>
          <Trackpoint>
            <Time>2021-07-28T09:41:55.000Z</Time>
            <Position>
              <LatitudeDegrees>41.4280283264815807342529296875</LatitudeDegrees>
              <LongitudeDegrees>-2.8572947345674037933349609375</LongitudeDegrees>
            </Position>
            <AltitudeMeters>985.79998779296875</AltitudeMeters>
            <DistanceMeters>114378.91078373</DistanceMeters>
          </Trackpoint>
          <Trackpoint>
            <Time>2021-07-28T09:42:00.000Z</Time>
            <Position>
              <LatitudeDegrees>41.42832010053098201751708984375</LatitudeDegrees>
              <LongitudeDegrees>-2.85729800350964069366455078125</LongitudeDegrees>
            </Position>
            <AltitudeMeters>984.79998779296875</AltitudeMeters>
            <DistanceMeters>114411.38698885</DistanceMeters>
          </Trackpoint>
          <Trackpoint>
            <Time>2021-07-28T09:42:03.000Z</Time>
            <Position>
              <LatitudeDegrees>41.42851330339908599853515625</LatitudeDegrees>
              <LongitudeDegrees>-2.857300937175750732421875</LongitudeDegrees>
            </Position>
            <AltitudeMeters>983.79998779296875</AltitudeMeters>
            <DistanceMeters>114432.89222926</DistanceMeters>
          </Trackpoint>
          <Trackpoint>
            <Time>2021-07-28T09:42:13.000Z</Time>
            <Position>
              <LatitudeDegrees>41.42909676767885684967041015625</LatitudeDegrees>
              <LongitudeDegrees>-2.85730353556573390960693359375</LongitudeDegrees>
            </Position>
            <AltitudeMeters>984.20001220703125</AltitudeMeters>
            <DistanceMeters>114497.83323835</DistanceMeters>
          </Trackpoint>
          <Trackpoint>
            <Time>2021-07-28T09:42:16.000Z</Time>
            <Position>
              <LatitudeDegrees>41.429237164556980133056640625</LatitudeDegrees>
              <LongitudeDegrees>-2.8573081456124782562255859375</LongitudeDegrees>
            </Position>
            <AltitudeMeters>984.79998779296875</AltitudeMeters>
            <DistanceMeters>114513.46448297</DistanceMeters>
          </Trackpoint>
          <Trackpoint>
            <Time>2021-07-28T09:42:28.000Z</Time>
            <Position>
              <LatitudeDegrees>41.42979380674660205841064453125</LatitudeDegrees>
              <LongitudeDegrees>-2.8573183715343475341796875</LongitudeDegrees>
            </Position>
            <AltitudeMeters>985.20001220703125</AltitudeMeters>
            <DistanceMeters>114575.42569003</DistanceMeters>
          </Trackpoint>
          <Trackpoint>
            <Time>2021-07-28T09:42:39.000Z</Time>
            <Position>
              <LatitudeDegrees>41.43025917001068592071533203125</LatitudeDegrees>
              <LongitudeDegrees>-2.8573249094188213348388671875</LongitudeDegrees>
            </Position>
            <AltitudeMeters>986</AltitudeMeters>
            <DistanceMeters>114627.22440251</DistanceMeters>
          </Trackpoint>
          <Trackpoint>
            <Time>2021-07-28T09:42:52.000Z</Time>
            <Position>
              <LatitudeDegrees>41.43074934370815753936767578125</LatitudeDegrees>
              <LongitudeDegrees>-2.8573342971503734588623046875</LongitudeDegrees>
            </Position>
            <AltitudeMeters>987.20001220703125</AltitudeMeters>
            <DistanceMeters>114681.78728222</DistanceMeters>
          </Trackpoint>
          <Trackpoint>
            <Time>2021-07-28T09:43:02.000Z</Time>
            <Position>
              <LatitudeDegrees>41.43110155127942562103271484375</LatitudeDegrees>
              <LongitudeDegrees>-2.85733555443584918975830078125</LongitudeDegrees>
            </Position>
            <AltitudeMeters>988.20001220703125</AltitudeMeters>
            <DistanceMeters>114720.98876777</DistanceMeters>
          </Trackpoint>
          <Trackpoint>
            <Time>2021-07-28T09:43:16.000Z</Time>
            <Position>
              <LatitudeDegrees>41.43166489899158477783203125</LatitudeDegrees>
              <LongitudeDegrees>-2.8573641367256641387939453125</LongitudeDegrees>
            </Position>
            <AltitudeMeters>987.4000244140625</AltitudeMeters>
            <DistanceMeters>114783.73576427</DistanceMeters>
          </Trackpoint>
          <Trackpoint>
            <Time>2021-07-28T09:43:18.000Z</Time>
            <Position>
              <LatitudeDegrees>41.43179657869040966033935546875</LatitudeDegrees>
              <LongitudeDegrees>-2.8573748655617237091064453125</LongitudeDegrees>
            </Position>
            <AltitudeMeters>986</AltitudeMeters>
            <DistanceMeters>114798.41946732</DistanceMeters>
          </Trackpoint>
          <Trackpoint>
            <Time>2021-07-28T09:43:19.000Z</Time>
            <Position>
              <LatitudeDegrees>41.43187151290476322174072265625</LatitudeDegrees>
              <LongitudeDegrees>-2.8573842532932758331298828125</LongitudeDegrees>
            </Position>
            <AltitudeMeters>985</AltitudeMeters>
            <DistanceMeters>114806.79638347</DistanceMeters>
          </Trackpoint>
          <Trackpoint>
            <Time>2021-07-28T09:43:20.000Z</Time>
            <Position>
              <LatitudeDegrees>41.4319525659084320068359375</LatitudeDegrees>
              <LongitudeDegrees>-2.85739791579544544219970703125</LongitudeDegrees>
            </Position>
            <AltitudeMeters>984</AltitudeMeters>
            <DistanceMeters>114815.88920371</DistanceMeters>
          </Trackpoint>
          <Trackpoint>
            <Time>2021-07-28T09:43:21.000Z</Time>
            <Position>
              <LatitudeDegrees>41.4320392347872257232666015625</LatitudeDegrees>
              <LongitudeDegrees>-2.8574150986969470977783203125</LongitudeDegrees>
            </Position>
            <AltitudeMeters>983</AltitudeMeters>
            <DistanceMeters>114825.64183387</DistanceMeters>
          </Trackpoint>
          <Trackpoint>
            <Time>2021-07-28T09:43:22.000Z</Time>
            <Position>
              <LatitudeDegrees>41.432129256427288055419921875</LatitudeDegrees>
              <LongitudeDegrees>-2.85743831656873226165771484375</LongitudeDegrees>
            </Position>
            <AltitudeMeters>981.79998779296875</AltitudeMeters>
            <DistanceMeters>114835.84736677</DistanceMeters>
          </Trackpoint>
          <Trackpoint>
            <Time>2021-07-28T09:43:23.000Z</Time>
            <Position>
              <LatitudeDegrees>41.432219445705413818359375</LatitudeDegrees>
              <LongitudeDegrees>-2.85746932961046695709228515625</LongitudeDegrees>
            </Position>
            <AltitudeMeters>979.79998779296875</AltitudeMeters>
            <DistanceMeters>114846.21355747</DistanceMeters>
          </Trackpoint>
          <Trackpoint>
            <Time>2021-07-28T09:43:25.000Z</Time>
            <Position>
              <LatitudeDegrees>41.43239588476717472076416015625</LatitudeDegrees>
              <LongitudeDegrees>-2.857535295188426971435546875</LongitudeDegrees>
            </Position>
            <AltitudeMeters>978.4000244140625</AltitudeMeters>
            <DistanceMeters>114866.60869026</DistanceMeters>
          </Trackpoint>
          <Trackpoint>
            <Time>2021-07-28T09:43:32.000Z</Time>
            <Position>
              <LatitudeDegrees>41.43294137902557849884033203125</LatitudeDegrees>
              <LongitudeDegrees>-2.85778130404651165008544921875</LongitudeDegrees>
            </Position>
            <AltitudeMeters>978.20001220703125</AltitudeMeters>
            <DistanceMeters>114930.69996481</DistanceMeters>
          </Trackpoint>
          <Trackpoint>
            <Time>2021-07-28T09:43:39.000Z</Time>
            <Position>
              <LatitudeDegrees>41.4334557764232158660888671875</LatitudeDegrees>
              <LongitudeDegrees>-2.85802085883915424346923828125</LongitudeDegrees>
            </Position>
            <AltitudeMeters>978</AltitudeMeters>
            <DistanceMeters>114991.34279466</DistanceMeters>
          </Trackpoint>
          <Trackpoint>
            <Time>2021-07-28T09:43:42.000Z</Time>
            <Position>
              <LatitudeDegrees>41.4336773939430713653564453125</LatitudeDegrees>
              <LongitudeDegrees>-2.8581289015710353851318359375</LongitudeDegrees>
            </Position>
            <AltitudeMeters>977.20001220703125</AltitudeMeters>
            <DistanceMeters>115017.60526291</DistanceMeters>
          </Trackpoint>
          <Trackpoint>
            <Time>2021-07-28T09:43:46.000Z</Time>
            <Position>
              <LatitudeDegrees>41.4339630492031574249267578125</LatitudeDegrees>
              <LongitudeDegrees>-2.85827231593430042266845703125</LongitudeDegrees>
            </Position>
            <AltitudeMeters>976</AltitudeMeters>
            <DistanceMeters>115051.57701426</DistanceMeters>
          </Trackpoint>
          <Trackpoint>
            <Time>2021-07-28T09:43:55.000Z</Time>
            <Position>
              <LatitudeDegrees>41.43450963310897350311279296875</LatitudeDegrees>
              <LongitudeDegrees>-2.858538441359996795654296875</LongitudeDegrees>
            </Position>
            <AltitudeMeters>976.79998779296875</AltitudeMeters>
            <DistanceMeters>115116.33923647</DistanceMeters>
          </Trackpoint>
          <Trackpoint>
            <Time>2021-07-28T09:43:56.000Z</Time>
            <Position>
              <LatitudeDegrees>41.43456126563251018524169921875</LatitudeDegrees>
              <LongitudeDegrees>-2.8585650958120822906494140625</LongitudeDegrees>
            </Position>
            <AltitudeMeters>977</AltitudeMeters>
            <DistanceMeters>115122.50133607</DistanceMeters>
          </Trackpoint>
          <Trackpoint>
            <Time>2021-07-28T09:44:07.000Z</Time>
            <Position>
              <LatitudeDegrees>41.43511229194700717926025390625</LatitudeDegrees>
              <LongitudeDegrees>-2.858834154903888702392578125</LongitudeDegrees>
            </Position>
            <AltitudeMeters>977</AltitudeMeters>
            <DistanceMeters>115187.81200158</DistanceMeters>
          </Trackpoint>
          <Trackpoint>
            <Time>2021-07-28T09:44:18.000Z</Time>
            <Position>
              <LatitudeDegrees>41.4356639049947261810302734375</LatitudeDegrees>
              <LongitudeDegrees>-2.85910497419536113739013671875</LongitudeDegrees>
            </Position>
            <AltitudeMeters>976.4000244140625</AltitudeMeters>
            <DistanceMeters>115253.2344956</DistanceMeters>
          </Trackpoint>
          <Trackpoint>
            <Time>2021-07-28T09:44:20.000Z</Time>
            <Position>
              <LatitudeDegrees>41.43576624803245067596435546875</LatitudeDegrees>
              <LongitudeDegrees>-2.8591585345566272735595703125</LongitudeDegrees>
            </Position>
            <AltitudeMeters>976.20001220703125</AltitudeMeters>
            <DistanceMeters>115265.47045357</DistanceMeters>
          </Trackpoint>
          <Trackpoint>
            <Time>2021-07-28T09:44:31.000Z</Time>
            <Position>
              <LatitudeDegrees>41.43629196099936962127685546875</LatitudeDegrees>
              <LongitudeDegrees>-2.85942231304943561553955078125</LongitudeDegrees>
            </Position>
            <AltitudeMeters>976.5999755859375</AltitudeMeters>
            <DistanceMeters>115327.98611604</DistanceMeters>
          </Trackpoint>
          <Trackpoint>
            <Time>2021-07-28T09:44:37.000Z</Time>
            <Position>
              <LatitudeDegrees>41.43654174171388149261474609375</LatitudeDegrees>
              <LongitudeDegrees>-2.8595548309385776519775390625</LongitudeDegrees>
            </Position>
            <AltitudeMeters>977.20001220703125</AltitudeMeters>
            <DistanceMeters>115357.90550003</DistanceMeters>
          </Trackpoint>
          <Trackpoint>
            <Time>2021-07-28T09:44:41.000Z</Time>
            <Position>
              <LatitudeDegrees>41.43667886964976787567138671875</LatitudeDegrees>
              <LongitudeDegrees>-2.85963001661002635955810546875</LongitudeDegrees>
            </Position>
            <AltitudeMeters>978.4000244140625</AltitudeMeters>
            <DistanceMeters>115374.40734796</DistanceMeters>
          </Trackpoint>
          <Trackpoint>
            <Time>2021-07-28T09:44:56.000Z</Time>
            <Position>
              <LatitudeDegrees>41.4371672831475734710693359375</LatitudeDegrees>
              <LongitudeDegrees>-2.859977781772613525390625</LongitudeDegrees>
            </Position>
            <AltitudeMeters>978.4000244140625</AltitudeMeters>
            <DistanceMeters>115436.02885683</DistanceMeters>
          </Trackpoint>
          <Trackpoint>
            <Time>2021-07-28T09:45:01.000Z</Time>
            <Position>
              <LatitudeDegrees>41.437360905110836029052734375</LatitudeDegrees>
              <LongitudeDegrees>-2.8601345233619213104248046875</LongitudeDegrees>
            </Position>
            <AltitudeMeters>978.20001220703125</AltitudeMeters>
            <DistanceMeters>115461.23745793</DistanceMeters>
          </Trackpoint>
          <Trackpoint>
            <Time>2021-07-28T09:45:06.000Z</Time>
            <Position>
              <LatitudeDegrees>41.43756081350147724151611328125</LatitudeDegrees>
              <LongitudeDegrees>-2.86030559800565242767333984375</LongitudeDegrees>
            </Position>
            <AltitudeMeters>977.4000244140625</AltitudeMeters>
            <DistanceMeters>115487.67282413</DistanceMeters>
          </Trackpoint>
          <Trackpoint>
            <Time>2021-07-28T09:45:14.000Z</Time>
            <Position>
              <LatitudeDegrees>41.43791117705404758453369140625</LatitudeDegrees>
              <LongitudeDegrees>-2.860594354569911956787109375</LongitudeDegrees>
            </Position>
            <AltitudeMeters>976.20001220703125</AltitudeMeters>
            <DistanceMeters>115533.51196186</DistanceMeters>
          </Trackpoint>
          <Trackpoint>
            <Time>2021-07-28T09:45:21.000Z</Time>
            <Position>
              <LatitudeDegrees>41.43826120533049106597900390625</LatitudeDegrees>
              <LongitudeDegrees>-2.86088428460061550140380859375</LongitudeDegrees>
            </Position>
            <AltitudeMeters>975</AltitudeMeters>
            <DistanceMeters>115579.37079485</DistanceMeters>
          </Trackpoint>
          <Trackpoint>
            <Time>2021-07-28T09:45:31.000Z</Time>
            <Position>
              <LatitudeDegrees>41.43875691108405590057373046875</LatitudeDegrees>
              <LongitudeDegrees>-2.86130622960627079010009765625</LongitudeDegrees>
            </Position>
            <AltitudeMeters>974.5999755859375</AltitudeMeters>
            <DistanceMeters>115644.81992267</DistanceMeters>
          </Trackpoint>
          <Trackpoint>
            <Time>2021-07-28T09:45:37.000Z</Time>
            <Position>
              <LatitudeDegrees>41.4390354417264461517333984375</LatitudeDegrees>
              <LongitudeDegrees>-2.8615359775722026824951171875</LongitudeDegrees>
            </Position>
            <AltitudeMeters>974.20001220703125</AltitudeMeters>
            <DistanceMeters>115681.26932633</DistanceMeters>
          </Trackpoint>
          <Trackpoint>
            <Time>2021-07-28T09:45:42.000Z</Time>
            <Position>
              <LatitudeDegrees>41.43927793018519878387451171875</LatitudeDegrees>
              <LongitudeDegrees>-2.86173789761960506439208984375</LongitudeDegrees>
            </Position>
            <AltitudeMeters>973</AltitudeMeters>
            <DistanceMeters>115713.08568375</DistanceMeters>
          </Trackpoint>
          <Trackpoint>
            <Time>2021-07-28T09:45:52.000Z</Time>
            <Position>
              <LatitudeDegrees>41.43977732397615909576416015625</LatitudeDegrees>
              <LongitudeDegrees>-2.86213737912476062774658203125</LongitudeDegrees>
            </Position>
            <AltitudeMeters>972</AltitudeMeters>
            <DistanceMeters>115777.89724691</DistanceMeters>
          </Trackpoint>
          <Trackpoint>
            <Time>2021-07-28T09:46:02.000Z</Time>
            <Position>
              <LatitudeDegrees>41.44025065004825592041015625</LatitudeDegrees>
              <LongitudeDegrees>-2.8625285625457763671875</LongitudeDegrees>
            </Position>
            <AltitudeMeters>971.5999755859375</AltitudeMeters>
            <DistanceMeters>115839.87091328</DistanceMeters>
          </Trackpoint>
          <Trackpoint>
            <Time>2021-07-28T09:46:13.000Z</Time>
            <Position>
              <LatitudeDegrees>41.44073504023253917694091796875</LatitudeDegrees>
              <LongitudeDegrees>-2.862941287457942962646484375</LongitudeDegrees>
            </Position>
            <AltitudeMeters>970.79998779296875</AltitudeMeters>
            <DistanceMeters>115903.84393913</DistanceMeters>
          </Trackpoint>
          <Trackpoint>
            <Time>2021-07-28T09:46:24.000Z</Time>
            <Position>
              <LatitudeDegrees>41.44119738601148128509521484375</LatitudeDegrees>
              <LongitudeDegrees>-2.863375805318355560302734375</LongitudeDegrees>
            </Position>
            <AltitudeMeters>970.20001220703125</AltitudeMeters>
            <DistanceMeters>115966.79252104</DistanceMeters>
          </Trackpoint>
          <Trackpoint>
            <Time>2021-07-28T09:46:36.000Z</Time>
            <Position>
              <LatitudeDegrees>41.4416405372321605682373046875</LatitudeDegrees>
              <LongitudeDegrees>-2.8638306073844432830810546875</LongitudeDegrees>
            </Position>
            <AltitudeMeters>970.20001220703125</AltitudeMeters>
            <DistanceMeters>116029.02420963</DistanceMeters>
          </Trackpoint>
          <Trackpoint>
            <Time>2021-07-28T09:46:48.000Z</Time>
            <Position>
              <LatitudeDegrees>41.44208930432796478271484375</LatitudeDegrees>
              <LongitudeDegrees>-2.86429454572498798370361328125</LongitudeDegrees>
            </Position>
            <AltitudeMeters>970.4000244140625</AltitudeMeters>
            <DistanceMeters>116092.21633165</DistanceMeters>
          </Trackpoint>
          <Trackpoint>
            <Time>2021-07-28T09:46:54.000Z</Time>
            <Position>
              <LatitudeDegrees>41.44231083802878856658935546875</LatitudeDegrees>
              <LongitudeDegrees>-2.8645241260528564453125</LongitudeDegrees>
            </Position>
            <AltitudeMeters>970.20001220703125</AltitudeMeters>
            <DistanceMeters>116123.43951298</DistanceMeters>
          </Trackpoint>
          <Trackpoint>
            <Time>2021-07-28T09:47:01.000Z</Time>
            <Position>
              <LatitudeDegrees>41.44258241169154644012451171875</LatitudeDegrees>
              <LongitudeDegrees>-2.864804752171039581298828125</LongitudeDegrees>
            </Position>
            <AltitudeMeters>969.20001220703125</AltitudeMeters>
            <DistanceMeters>116161.67380408</DistanceMeters>
          </Trackpoint>
          <Trackpoint>
            <Time>2021-07-28T09:47:12.000Z</Time>
            <Position>
              <LatitudeDegrees>41.44304760731756687164306640625</LatitudeDegrees>
              <LongitudeDegrees>-2.86529383622109889984130859375</LongitudeDegrees>
            </Position>
            <AltitudeMeters>968.20001220703125</AltitudeMeters>
            <DistanceMeters>116227.59817196</DistanceMeters>
          </Trackpoint>
          <Trackpoint>
            <Time>2021-07-28T09:47:13.000Z</Time>
            <Position>
              <LatitudeDegrees>41.4430916123092174530029296875</LatitudeDegrees>
              <LongitudeDegrees>-2.86533893086016178131103515625</LongitudeDegrees>
            </Position>
            <AltitudeMeters>968</AltitudeMeters>
            <DistanceMeters>116233.7749084</DistanceMeters>
          </Trackpoint>
          <Trackpoint>
            <Time>2021-07-28T09:47:24.000Z</Time>
            <Position>
              <LatitudeDegrees>41.44354633055627346038818359375</LatitudeDegrees>
              <LongitudeDegrees>-2.865815274417400360107421875</LongitudeDegrees>
            </Position>
            <AltitudeMeters>967.5999755859375</AltitudeMeters>
            <DistanceMeters>116298.12525653</DistanceMeters>
          </Trackpoint>
          <Trackpoint>
            <Time>2021-07-28T09:47:35.000Z</Time>
            <Position>
              <LatitudeDegrees>41.44398168660700321197509765625</LatitudeDegrees>
              <LongitudeDegrees>-2.866265885531902313232421875</LongitudeDegrees>
            </Position>
            <AltitudeMeters>967.20001220703125</AltitudeMeters>
            <DistanceMeters>116359.45555983</DistanceMeters>
          </Trackpoint>
          <Trackpoint>
            <Time>2021-07-28T09:47:48.000Z</Time>
            <Position>
              <LatitudeDegrees>41.44442726857960224151611328125</LatitudeDegrees>
              <LongitudeDegrees>-2.86672345362603664398193359375</LongitudeDegrees>
            </Position>
            <AltitudeMeters>968.5999755859375</AltitudeMeters>
            <DistanceMeters>116422.04131108</DistanceMeters>
          </Trackpoint>
          <Trackpoint>
            <Time>2021-07-28T09:48:00.000Z</Time>
            <Position>
              <LatitudeDegrees>41.44488408230245113372802734375</LatitudeDegrees>
              <LongitudeDegrees>-2.86719049327075481414794921875</LongitudeDegrees>
            </Position>
            <AltitudeMeters>967.20001220703125</AltitudeMeters>
            <DistanceMeters>116486.09974891</DistanceMeters>
          </Trackpoint>
          <Trackpoint>
            <Time>2021-07-28T09:48:01.000Z</Time>
            <Position>
              <LatitudeDegrees>41.44492708146572113037109375</LatitudeDegrees>
              <LongitudeDegrees>-2.8672336600720882415771484375</LongitudeDegrees>
            </Position>
            <AltitudeMeters>967</AltitudeMeters>
            <DistanceMeters>116492.08944788</DistanceMeters>
          </Trackpoint>
          <Trackpoint>
            <Time>2021-07-28T09:48:11.000Z</Time>
            <Position>
              <LatitudeDegrees>41.44536319188773632049560546875</LatitudeDegrees>
              <LongitudeDegrees>-2.8676903061568737030029296875</LongitudeDegrees>
            </Position>
            <AltitudeMeters>966.79998779296875</AltitudeMeters>
            <DistanceMeters>116553.79537979</DistanceMeters>
          </Trackpoint>
          <Trackpoint>
            <Time>2021-07-28T09:48:23.000Z</Time>
            <Position>
              <LatitudeDegrees>41.44579066894948482513427734375</LatitudeDegrees>
              <LongitudeDegrees>-2.86810177378356456756591796875</LongitudeDegrees>
            </Position>
            <AltitudeMeters>968.4000244140625</AltitudeMeters>
            <DistanceMeters>116612.46604606</DistanceMeters>
          </Trackpoint>
          <Trackpoint>
            <Time>2021-07-28T09:48:37.000Z</Time>
            <Position>
              <LatitudeDegrees>41.446293331682682037353515625</LatitudeDegrees>
              <LongitudeDegrees>-2.86847929470241069793701171875</LongitudeDegrees>
            </Position>
            <AltitudeMeters>968.79998779296875</AltitudeMeters>
            <DistanceMeters>116676.66993688</DistanceMeters>
          </Trackpoint>
          <Trackpoint>
            <Time>2021-07-28T09:48:43.000Z</Time>
            <Position>
              <LatitudeDegrees>41.446512602269649505615234375</LatitudeDegrees>
              <LongitudeDegrees>-2.8686153329908847808837890625</LongitudeDegrees>
            </Position>
            <AltitudeMeters>969.4000244140625</AltitudeMeters>
            <DistanceMeters>116703.58515288</DistanceMeters>
          </Trackpoint>
          <Trackpoint>
            <Time>2021-07-28T09:48:56.000Z</Time>
            <Position>
              <LatitudeDegrees>41.44700889475643634796142578125</LatitudeDegrees>
              <LongitudeDegrees>-2.86892361938953399658203125</LongitudeDegrees>
            </Position>
            <AltitudeMeters>970.20001220703125</AltitudeMeters>
            <DistanceMeters>116764.51780563</DistanceMeters>
          </Trackpoint>
          <Trackpoint>
            <Time>2021-07-28T09:49:08.000Z</Time>
            <Position>
              <LatitudeDegrees>41.44751817919313907623291015625</LatitudeDegrees>
              <LongitudeDegrees>-2.86922670900821685791015625</LongitudeDegrees>
            </Position>
            <AltitudeMeters>969.20001220703125</AltitudeMeters>
            <DistanceMeters>116826.58632835</DistanceMeters>
          </Trackpoint>
          <Trackpoint>
            <Time>2021-07-28T09:49:11.000Z</Time>
            <Position>
              <LatitudeDegrees>41.44766855053603649139404296875</LatitudeDegrees>
              <LongitudeDegrees>-2.8693190775811672210693359375</LongitudeDegrees>
            </Position>
            <AltitudeMeters>968.4000244140625</AltitudeMeters>
            <DistanceMeters>116845.01171177</DistanceMeters>
          </Trackpoint>
          <Trackpoint>
            <Time>2021-07-28T09:49:14.000Z</Time>
            <Position>
              <LatitudeDegrees>41.44783887080848217010498046875</LatitudeDegrees>
              <LongitudeDegrees>-2.869427539408206939697265625</LongitudeDegrees>
            </Position>
            <AltitudeMeters>966.79998779296875</AltitudeMeters>
            <DistanceMeters>116866.01777483</DistanceMeters>
          </Trackpoint>
          <Trackpoint>
            <Time>2021-07-28T09:49:16.000Z</Time>
            <Position>
              <LatitudeDegrees>41.44796761684119701385498046875</LatitudeDegrees>
              <LongitudeDegrees>-2.8695068322122097015380859375</LongitudeDegrees>
            </Position>
            <AltitudeMeters>965.5999755859375</AltitudeMeters>
            <DistanceMeters>116881.80079383</DistanceMeters>
          </Trackpoint>
          <Trackpoint>
            <Time>2021-07-28T09:49:18.000Z</Time>
            <Position>
              <LatitudeDegrees>41.4481048285961151123046875</LatitudeDegrees>
              <LongitudeDegrees>-2.8695881366729736328125</LongitudeDegrees>
            </Position>
            <AltitudeMeters>964.4000244140625</AltitudeMeters>
            <DistanceMeters>116898.51118144</DistanceMeters>
          </Trackpoint>
          <Trackpoint>
            <Time>2021-07-28T09:49:20.000Z</Time>
            <Position>
              <LatitudeDegrees>41.4482454769313335418701171875</LatitudeDegrees>
              <LongitudeDegrees>-2.869676649570465087890625</LongitudeDegrees>
            </Position>
            <AltitudeMeters>962.79998779296875</AltitudeMeters>
            <DistanceMeters>116915.82013508</DistanceMeters>
          </Trackpoint>
          <Trackpoint>
            <Time>2021-07-28T09:49:23.000Z</Time>
            <Position>
              <LatitudeDegrees>41.448464579880237579345703125</LatitudeDegrees>
              <LongitudeDegrees>-2.86981386132538318634033203125</LongitudeDegrees>
            </Position>
            <AltitudeMeters>961.4000244140625</AltitudeMeters>
            <DistanceMeters>116942.75983151</DistanceMeters>
          </Trackpoint>
          <Trackpoint>
            <Time>2021-07-28T09:49:26.000Z</Time>
            <Position>
              <LatitudeDegrees>41.4486949145793914794921875</LatitudeDegrees>
              <LongitudeDegrees>-2.86995082162320613861083984375</LongitudeDegrees>
            </Position>
            <AltitudeMeters>959.79998779296875</AltitudeMeters>
            <DistanceMeters>116970.82764099</DistanceMeters>
          </Trackpoint>
          <Trackpoint>
            <Time>2021-07-28T09:49:28.000Z</Time>
            <Position>
              <LatitudeDegrees>41.448849141597747802734375</LatitudeDegrees>
              <LongitudeDegrees>-2.87004671059548854827880859375</LongitudeDegrees>
            </Position>
            <AltitudeMeters>958.4000244140625</AltitudeMeters>
            <DistanceMeters>116989.76587154</DistanceMeters>
          </Trackpoint>
          <Trackpoint>
            <Time>2021-07-28T09:49:35.000Z</Time>
            <Position>
              <LatitudeDegrees>41.449371166527271270751953125</LatitudeDegrees>
              <LongitudeDegrees>-2.8703557513654232025146484375</LongitudeDegrees>
            </Position>
            <AltitudeMeters>957.79998779296875</AltitudeMeters>
            <DistanceMeters>117053.33156988</DistanceMeters>
          </Trackpoint>
          <Trackpoint>
            <Time>2021-07-28T09:49:43.000Z</Time>
            <Position>
              <LatitudeDegrees>41.4498638547956943511962890625</LatitudeDegrees>
              <LongitudeDegrees>-2.87065909244120121002197265625</LongitudeDegrees>
            </Position>
            <AltitudeMeters>958.4000244140625</AltitudeMeters>
            <DistanceMeters>117113.72626152</DistanceMeters>
          </Trackpoint>
          <Trackpoint>
            <Time>2021-07-28T09:49:53.000Z</Time>
            <Position>
              <LatitudeDegrees>41.45035830326378345489501953125</LatitudeDegrees>
              <LongitudeDegrees>-2.870959080755710601806640625</LongitudeDegrees>
            </Position>
            <AltitudeMeters>959</AltitudeMeters>
            <DistanceMeters>117174.18244839</DistanceMeters>
          </Trackpoint>
          <Trackpoint>
            <Time>2021-07-28T09:50:04.000Z</Time>
            <Position>
              <LatitudeDegrees>41.45089273341000080108642578125</LatitudeDegrees>
              <LongitudeDegrees>-2.87128932774066925048828125</LongitudeDegrees>
            </Position>
            <AltitudeMeters>958.5999755859375</AltitudeMeters>
            <DistanceMeters>117239.73600587</DistanceMeters>
          </Trackpoint>
          <Trackpoint>
            <Time>2021-07-28T09:50:11.000Z</Time>
            <Position>
              <LatitudeDegrees>41.45124971866607666015625</LatitudeDegrees>
              <LongitudeDegrees>-2.87150549702346324920654296875</LongitudeDegrees>
            </Position>
            <AltitudeMeters>957.20001220703125</AltitudeMeters>
            <DistanceMeters>117283.37013744</DistanceMeters>
          </Trackpoint>
          <Trackpoint>
            <Time>2021-07-28T09:50:21.000Z</Time>
            <Position>
              <LatitudeDegrees>41.4517526328563690185546875</LatitudeDegrees>
              <LongitudeDegrees>-2.87181847728788852691650390625</LongitudeDegrees>
            </Position>
            <AltitudeMeters>957</AltitudeMeters>
            <DistanceMeters>117345.13545502</DistanceMeters>
          </Trackpoint>
          <Trackpoint>
            <Time>2021-07-28T09:50:32.000Z</Time>
            <Position>
              <LatitudeDegrees>41.45228278823196887969970703125</LatitudeDegrees>
              <LongitudeDegrees>-2.87214067764580249786376953125</LongitudeDegrees>
            </Position>
            <AltitudeMeters>957</AltitudeMeters>
            <DistanceMeters>117409.97627049</DistanceMeters>
          </Trackpoint>
          <Trackpoint>
            <Time>2021-07-28T09:50:44.000Z</Time>
            <Position>
              <LatitudeDegrees>41.452815122902393341064453125</LatitudeDegrees>
              <LongitudeDegrees>-2.87246413528919219970703125</LongitudeDegrees>
            </Position>
            <AltitudeMeters>957.4000244140625</AltitudeMeters>
            <DistanceMeters>117475.08101366</DistanceMeters>
          </Trackpoint>
          <Trackpoint>
            <Time>2021-07-28T09:50:46.000Z</Time>
            <Position>
              <LatitudeDegrees>41.45289366133511066436767578125</LatitudeDegrees>
              <LongitudeDegrees>-2.87251115776598453521728515625</LongitudeDegrees>
            </Position>
            <AltitudeMeters>957.79998779296875</AltitudeMeters>
            <DistanceMeters>117484.66176138</DistanceMeters>
          </Trackpoint>
          <Trackpoint>
            <Time>2021-07-28T09:50:53.000Z</Time>
            <Position>
              <LatitudeDegrees>41.45313388668000698089599609375</LatitudeDegrees>
              <LongitudeDegrees>-2.872671671211719512939453125</LongitudeDegrees>
            </Position>
            <AltitudeMeters>958.5999755859375</AltitudeMeters>
            <DistanceMeters>117514.564843</DistanceMeters>
          </Trackpoint>
          <Trackpoint>
            <Time>2021-07-28T09:51:08.000Z</Time>
            <Position>
              <LatitudeDegrees>41.45364685915410518646240234375</LatitudeDegrees>
              <LongitudeDegrees>-2.872989177703857421875</LongitudeDegrees>
            </Position>
            <AltitudeMeters>958.4000244140625</AltitudeMeters>
            <DistanceMeters>117577.50409986</DistanceMeters>
          </Trackpoint>
          <Trackpoint>
            <Time>2021-07-28T09:51:22.000Z</Time>
            <Position>
              <LatitudeDegrees>41.4541708119213581085205078125</LatitudeDegrees>
              <LongitudeDegrees>-2.87329293787479400634765625</LongitudeDegrees>
            </Position>
            <AltitudeMeters>958.5999755859375</AltitudeMeters>
            <DistanceMeters>117641.0884052</DistanceMeters>
          </Trackpoint>
          <Trackpoint>
            <Time>2021-07-28T09:51:32.000Z</Time>
            <Position>
              <LatitudeDegrees>41.45449644885957241058349609375</LatitudeDegrees>
              <LongitudeDegrees>-2.87348781712353229522705078125</LongitudeDegrees>
            </Position>
            <AltitudeMeters>960</AltitudeMeters>
            <DistanceMeters>117680.8112768</DistanceMeters>
          </Trackpoint>
          <Trackpoint>
            <Time>2021-07-28T09:51:41.000Z</Time>
            <Position>
              <LatitudeDegrees>41.45475394092500209808349609375</LatitudeDegrees>
              <LongitudeDegrees>-2.87364489398896694183349609375</LongitudeDegrees>
            </Position>
            <AltitudeMeters>961.20001220703125</AltitudeMeters>
            <DistanceMeters>117712.32406097</DistanceMeters>
          </Trackpoint>
          <Trackpoint>
            <Time>2021-07-28T09:51:48.000Z</Time>
            <Position>
              <LatitudeDegrees>41.45494454540312290191650390625</LatitudeDegrees>
              <LongitudeDegrees>-2.8737547807395458221435546875</LongitudeDegrees>
            </Position>
            <AltitudeMeters>962.20001220703125</AltitudeMeters>
            <DistanceMeters>117735.43451102</DistanceMeters>
          </Trackpoint>
          <Trackpoint>
            <Time>2021-07-28T09:52:05.000Z</Time>
            <Position>
              <LatitudeDegrees>41.45545550622045993804931640625</LatitudeDegrees>
              <LongitudeDegrees>-2.874068431556224822998046875</LongitudeDegrees>
            </Position>
            <AltitudeMeters>962.4000244140625</AltitudeMeters>
            <DistanceMeters>117798.03533805</DistanceMeters>
          </Trackpoint>
          <Trackpoint>
            <Time>2021-07-28T09:52:10.000Z</Time>
            <Position>
              <LatitudeDegrees>41.4556393213570117950439453125</LatitudeDegrees>
              <LongitudeDegrees>-2.87416423670947551727294921875</LongitudeDegrees>
            </Position>
            <AltitudeMeters>961.4000244140625</AltitudeMeters>
            <DistanceMeters>117819.99987456</DistanceMeters>
          </Trackpoint>
          <Trackpoint>
            <Time>2021-07-28T09:52:11.000Z</Time>
            <Position>
              <LatitudeDegrees>41.4556832425296306610107421875</LatitudeDegrees>
              <LongitudeDegrees>-2.87416465580463409423828125</LongitudeDegrees>
            </Position>
            <AltitudeMeters>961.20001220703125</AltitudeMeters>
            <DistanceMeters>117824.88890436</DistanceMeters>
          </Trackpoint>
          <Trackpoint>
            <Time>2021-07-28T09:52:15.000Z</Time>
            <Position>
              <LatitudeDegrees>41.455807127058506011962890625</LatitudeDegrees>
              <LongitudeDegrees>-2.87406113930046558380126953125</LongitudeDegrees>
            </Position>
            <AltitudeMeters>961</AltitudeMeters>
            <DistanceMeters>117841.15818832</DistanceMeters>
          </Trackpoint>
          <Trackpoint>
            <Time>2021-07-28T09:52:22.000Z</Time>
            <Position>
              <LatitudeDegrees>41.455967389047145843505859375</LatitudeDegrees>
              <LongitudeDegrees>-2.87388009019196033477783203125</LongitudeDegrees>
            </Position>
            <AltitudeMeters>962.20001220703125</AltitudeMeters>
            <DistanceMeters>117864.53031733</DistanceMeters>
          </Trackpoint>
          <Trackpoint>
            <Time>2021-07-28T09:52:27.000Z</Time>
            <Position>
              <LatitudeDegrees>41.456064619123935699462890625</LatitudeDegrees>
              <LongitudeDegrees>-2.873761318624019622802734375</LongitudeDegrees>
            </Position>
            <AltitudeMeters>963.20001220703125</AltitudeMeters>
            <DistanceMeters>117879.20263898</DistanceMeters>
          </Trackpoint>
          <Trackpoint>
            <Time>2021-07-28T09:52:35.000Z</Time>
            <Position>
              <LatitudeDegrees>41.45621742121875286102294921875</LatitudeDegrees>
              <LongitudeDegrees>-2.87359426729381084442138671875</LongitudeDegrees>
            </Position>
            <AltitudeMeters>964.4000244140625</AltitudeMeters>
            <DistanceMeters>117901.1893648</DistanceMeters>
          </Trackpoint>
          <Trackpoint>
            <Time>2021-07-28T09:52:43.000Z</Time>
            <Position>
              <LatitudeDegrees>41.4563537947833538055419921875</LatitudeDegrees>
              <LongitudeDegrees>-2.87343584932386875152587890625</LongitudeDegrees>
            </Position>
            <AltitudeMeters>965.4000244140625</AltitudeMeters>
            <DistanceMeters>117921.31417433</DistanceMeters>
          </Trackpoint>
          <Trackpoint>
            <Time>2021-07-28T09:52:50.000Z</Time>
            <Position>
              <LatitudeDegrees>41.456455551087856292724609375</LatitudeDegrees>
              <LongitudeDegrees>-2.8733231127262115478515625</LongitudeDegrees>
            </Position>
            <AltitudeMeters>966.5999755859375</AltitudeMeters>
            <DistanceMeters>117936.03534291</DistanceMeters>
          </Trackpoint>
          <Trackpoint>
            <Time>2021-07-28T09:53:02.000Z</Time>
            <Position>
              <LatitudeDegrees>41.45662193186581134796142578125</LatitudeDegrees>
              <LongitudeDegrees>-2.873125970363616943359375</LongitudeDegrees>
            </Position>
            <AltitudeMeters>968</AltitudeMeters>
            <DistanceMeters>117960.80160913</DistanceMeters>
          </Trackpoint>
          <Trackpoint>
            <Time>2021-07-28T09:53:11.000Z</Time>
            <Position>
              <LatitudeDegrees>41.4567467384040355682373046875</LatitudeDegrees>
              <LongitudeDegrees>-2.87297702394425868988037109375</LongitudeDegrees>
            </Position>
            <AltitudeMeters>969</AltitudeMeters>
            <DistanceMeters>117979.4387197</DistanceMeters>
          </Trackpoint>
          <Trackpoint>
            <Time>2021-07-28T09:53:19.000Z</Time>
            <Position>
              <LatitudeDegrees>41.4568647556006908416748046875</LatitudeDegrees>
              <LongitudeDegrees>-2.8728632815182209014892578125</LongitudeDegrees>
            </Position>
            <AltitudeMeters>970.20001220703125</AltitudeMeters>
            <DistanceMeters>117995.64237678</DistanceMeters>
          </Trackpoint>
          <Trackpoint>
            <Time>2021-07-28T09:53:28.000Z</Time>
            <Position>
              <LatitudeDegrees>41.45697799511253833770751953125</LatitudeDegrees>
              <LongitudeDegrees>-2.87272942252457141876220703125</LongitudeDegrees>
            </Position>
            <AltitudeMeters>971.20001220703125</AltitudeMeters>
            <DistanceMeters>118012.48115347</DistanceMeters>
          </Trackpoint>
          <Trackpoint>
            <Time>2021-07-28T09:53:35.000Z</Time>
            <Position>
              <LatitudeDegrees>41.45706634037196636199951171875</LatitudeDegrees>
              <LongitudeDegrees>-2.8726265765726566314697265625</LongitudeDegrees>
            </Position>
            <AltitudeMeters>972.5999755859375</AltitudeMeters>
            <DistanceMeters>118025.53064317</DistanceMeters>
          </Trackpoint>
          <Trackpoint>
            <Time>2021-07-28T09:53:46.000Z</Time>
            <Position>
              <LatitudeDegrees>41.4572037197649478912353515625</LatitudeDegrees>
              <LongitudeDegrees>-2.87246790714561939239501953125</LongitudeDegrees>
            </Position>
            <AltitudeMeters>973.5999755859375</AltitudeMeters>
            <DistanceMeters>118045.75392659</DistanceMeters>
          </Trackpoint>
          <Trackpoint>
            <Time>2021-07-28T09:53:55.000Z</Time>
            <Position>
              <LatitudeDegrees>41.45731645636260509490966796875</LatitudeDegrees>
              <LongitudeDegrees>-2.87233362905681133270263671875</LongitudeDegrees>
            </Position>
            <AltitudeMeters>974.5999755859375</AltitudeMeters>
            <DistanceMeters>118062.57392347</DistanceMeters>
          </Trackpoint>
          <Trackpoint>
            <Time>2021-07-28T09:54:03.000Z</Time>
            <Position>
              <LatitudeDegrees>41.457424163818359375</LatitudeDegrees>
              <LongitudeDegrees>-2.87220018915832042694091796875</LongitudeDegrees>
            </Position>
            <AltitudeMeters>975.79998779296875</AltitudeMeters>
            <DistanceMeters>118078.93342853</DistanceMeters>
          </Trackpoint>
          <Trackpoint>
            <Time>2021-07-28T09:54:11.000Z</Time>
            <Position>
              <LatitudeDegrees>41.45753371529281139373779296875</LatitudeDegrees>
              <LongitudeDegrees>-2.8720700182020664215087890625</LongitudeDegrees>
            </Position>
            <AltitudeMeters>977</AltitudeMeters>
            <DistanceMeters>118095.26088751</DistanceMeters>
          </Trackpoint>
          <Trackpoint>
            <Time>2021-07-28T09:54:21.000Z</Time>
            <Position>
              <LatitudeDegrees>41.457671262323856353759765625</LatitudeDegrees>
              <LongitudeDegrees>-2.87192501127719879150390625</LongitudeDegrees>
            </Position>
            <AltitudeMeters>978</AltitudeMeters>
            <DistanceMeters>118114.77216534</DistanceMeters>
          </Trackpoint>
          <Trackpoint>
            <Time>2021-07-28T09:54:30.000Z</Time>
            <Position>
              <LatitudeDegrees>41.45778651349246501922607421875</LatitudeDegrees>
              <LongitudeDegrees>-2.87180355750024318695068359375</LongitudeDegrees>
            </Position>
            <AltitudeMeters>979.20001220703125</AltitudeMeters>
            <DistanceMeters>118131.11814136</DistanceMeters>
          </Trackpoint>
          <Trackpoint>
            <Time>2021-07-28T09:54:36.000Z</Time>
            <Position>
              <LatitudeDegrees>41.457855999469757080078125</LatitudeDegrees>
              <LongitudeDegrees>-2.87171336822211742401123046875</LongitudeDegrees>
            </Position>
            <AltitudeMeters>980.20001220703125</AltitudeMeters>
            <DistanceMeters>118141.90775421</DistanceMeters>
          </Trackpoint>
          <Trackpoint>
            <Time>2021-07-28T09:54:47.000Z</Time>
            <Position>
              <LatitudeDegrees>41.4579875953495502471923828125</LatitudeDegrees>
              <LongitudeDegrees>-2.87154950201511383056640625</LongitudeDegrees>
            </Position>
            <AltitudeMeters>981.4000244140625</AltitudeMeters>
            <DistanceMeters>118161.94217129</DistanceMeters>
          </Trackpoint>
          <Trackpoint>
            <Time>2021-07-28T09:54:52.000Z</Time>
            <Position>
              <LatitudeDegrees>41.4580492861568927764892578125</LatitudeDegrees>
              <LongitudeDegrees>-2.8714789263904094696044921875</LongitudeDegrees>
            </Position>
            <AltitudeMeters>982.79998779296875</AltitudeMeters>
            <DistanceMeters>118170.98719714</DistanceMeters>
          </Trackpoint>
          <Trackpoint>
            <Time>2021-07-28T09:55:00.000Z</Time>
            <Position>
              <LatitudeDegrees>41.4581408165395259857177734375</LatitudeDegrees>
              <LongitudeDegrees>-2.8713877312839031219482421875</LongitudeDegrees>
            </Position>
            <AltitudeMeters>983.79998779296875</AltitudeMeters>
            <DistanceMeters>118183.70126016</DistanceMeters>
          </Trackpoint>
          <Trackpoint>
            <Time>2021-07-28T09:55:10.000Z</Time>
            <Position>
              <LatitudeDegrees>41.45824248902499675750732421875</LatitudeDegrees>
              <LongitudeDegrees>-2.871266864240169525146484375</LongitudeDegrees>
            </Position>
            <AltitudeMeters>984.79998779296875</AltitudeMeters>
            <DistanceMeters>118198.85705293</DistanceMeters>
          </Trackpoint>
          <Trackpoint>
            <Time>2021-07-28T09:55:19.000Z</Time>
            <Position>
              <LatitudeDegrees>41.4583369530737400054931640625</LatitudeDegrees>
              <LongitudeDegrees>-2.8711627610027790069580078125</LongitudeDegrees>
            </Position>
            <AltitudeMeters>986</AltitudeMeters>
            <DistanceMeters>118212.49363477</DistanceMeters>
          </Trackpoint>
          <Trackpoint>
            <Time>2021-07-28T09:55:32.000Z</Time>
            <Position>
              <LatitudeDegrees>41.45846243016421794891357421875</LatitudeDegrees>
              <LongitudeDegrees>-2.87100275047123432159423828125</LongitudeDegrees>
            </Position>
            <AltitudeMeters>987</AltitudeMeters>
            <DistanceMeters>118231.81165664</DistanceMeters>
          </Trackpoint>
          <Trackpoint>
            <Time>2021-07-28T09:55:41.000Z</Time>
            <Position>
              <LatitudeDegrees>41.45855513401329517364501953125</LatitudeDegrees>
              <LongitudeDegrees>-2.8708915226161479949951171875</LongitudeDegrees>
            </Position>
            <AltitudeMeters>988.20001220703125</AltitudeMeters>
            <DistanceMeters>118245.68718402</DistanceMeters>
          </Trackpoint>
          <Trackpoint>
            <Time>2021-07-28T09:55:52.000Z</Time>
            <Position>
              <LatitudeDegrees>41.4586785994470119476318359375</LatitudeDegrees>
              <LongitudeDegrees>-2.87075766362249851226806640625</LongitudeDegrees>
            </Position>
            <AltitudeMeters>989.4000244140625</AltitudeMeters>
            <DistanceMeters>118263.39329014</DistanceMeters>
          </Trackpoint>
          <Trackpoint>
            <Time>2021-07-28T09:56:06.000Z</Time>
            <Position>
              <LatitudeDegrees>41.458840034902095794677734375</LatitudeDegrees>
              <LongitudeDegrees>-2.87057510577142238616943359375</LongitudeDegrees>
            </Position>
            <AltitudeMeters>990.5999755859375</AltitudeMeters>
            <DistanceMeters>118286.94611706</DistanceMeters>
          </Trackpoint>
          <Trackpoint>
            <Time>2021-07-28T09:56:12.000Z</Time>
            <Position>
              <LatitudeDegrees>41.45890046842396259307861328125</LatitudeDegrees>
              <LongitudeDegrees>-2.870490364730358123779296875</LongitudeDegrees>
            </Position>
            <AltitudeMeters>991.5999755859375</AltitudeMeters>
            <DistanceMeters>118296.70291294</DistanceMeters>
          </Trackpoint>
          <Trackpoint>
            <Time>2021-07-28T09:56:17.000Z</Time>
            <Position>
              <LatitudeDegrees>41.458955369889736175537109375</LatitudeDegrees>
              <LongitudeDegrees>-2.8704238124191761016845703125</LongitudeDegrees>
            </Position>
            <AltitudeMeters>992.5999755859375</AltitudeMeters>
            <DistanceMeters>118304.95876038</DistanceMeters>
          </Trackpoint>
          <Trackpoint>
            <Time>2021-07-28T09:56:30.000Z</Time>
            <Position>
              <LatitudeDegrees>41.45910599268972873687744140625</LatitudeDegrees>
              <LongitudeDegrees>-2.87023966200649738311767578125</LongitudeDegrees>
            </Position>
            <AltitudeMeters>993.79998779296875</AltitudeMeters>
            <DistanceMeters>118327.69617309</DistanceMeters>
          </Trackpoint>
          <Trackpoint>
            <Time>2021-07-28T09:56:38.000Z</Time>
            <Position>
              <LatitudeDegrees>41.459197103977203369140625</LatitudeDegrees>
              <LongitudeDegrees>-2.87012097425758838653564453125</LongitudeDegrees>
            </Position>
            <AltitudeMeters>994.79998779296875</AltitudeMeters>
            <DistanceMeters>118341.86822165</DistanceMeters>
          </Trackpoint>
          <Trackpoint>
            <Time>2021-07-28T09:56:46.000Z</Time>
            <Position>
              <LatitudeDegrees>41.4592938311398029327392578125</LatitudeDegrees>
              <LongitudeDegrees>-2.86999423988163471221923828125</LongitudeDegrees>
            </Position>
            <AltitudeMeters>996</AltitudeMeters>
            <DistanceMeters>118356.95683614</DistanceMeters>
          </Trackpoint>
          <Trackpoint>
            <Time>2021-07-28T09:56:56.000Z</Time>
            <Position>
              <LatitudeDegrees>41.4594225771725177764892578125</LatitudeDegrees>
              <LongitudeDegrees>-2.869819812476634979248046875</LongitudeDegrees>
            </Position>
            <AltitudeMeters>997.20001220703125</AltitudeMeters>
            <DistanceMeters>118377.37807485</DistanceMeters>
          </Trackpoint>
          <Trackpoint>
            <Time>2021-07-28T09:57:22.000Z</Time>
            <Position>
              <LatitudeDegrees>41.45981510169804096221923828125</LatitudeDegrees>
              <LongitudeDegrees>-2.86930608563125133514404296875</LongitudeDegrees>
            </Position>
            <AltitudeMeters>996.20001220703125</AltitudeMeters>
            <DistanceMeters>118438.57395087</DistanceMeters>
          </Trackpoint>
          <Trackpoint>
            <Time>2021-07-28T09:57:25.000Z</Time>
            <Position>
              <LatitudeDegrees>41.45989514887332916259765625</LatitudeDegrees>
              <LongitudeDegrees>-2.8692104481160640716552734375</LongitudeDegrees>
            </Position>
            <AltitudeMeters>995</AltitudeMeters>
            <DistanceMeters>118450.53260133</DistanceMeters>
          </Trackpoint>
          <Trackpoint>
            <Time>2021-07-28T09:57:29.000Z</Time>
            <Position>
              <LatitudeDegrees>41.4600138366222381591796875</LatitudeDegrees>
              <LongitudeDegrees>-2.869035266339778900146484375</LongitudeDegrees>
            </Position>
            <AltitudeMeters>994</AltitudeMeters>
            <DistanceMeters>118470.23088513</DistanceMeters>
          </Trackpoint>
          <Trackpoint>
            <Time>2021-07-28T09:57:31.000Z</Time>
            <Position>
              <LatitudeDegrees>41.4600780420005321502685546875</LatitudeDegrees>
              <LongitudeDegrees>-2.86892487667500972747802734375</LongitudeDegrees>
            </Position>
            <AltitudeMeters>992.79998779296875</AltitudeMeters>
            <DistanceMeters>118481.88667768</DistanceMeters>
          </Trackpoint>
          <Trackpoint>
            <Time>2021-07-28T09:57:33.000Z</Time>
            <Position>
              <LatitudeDegrees>41.46015138365328311920166015625</LatitudeDegrees>
              <LongitudeDegrees>-2.8688020817935466766357421875</LongitudeDegrees>
            </Position>
            <AltitudeMeters>991.5999755859375</AltitudeMeters>
            <DistanceMeters>118494.98451691</DistanceMeters>
          </Trackpoint>
          <Trackpoint>
            <Time>2021-07-28T09:57:36.000Z</Time>
            <Position>
              <LatitudeDegrees>41.460280716419219970703125</LatitudeDegrees>
              <LongitudeDegrees>-2.8686077892780303955078125</LongitudeDegrees>
            </Position>
            <AltitudeMeters>990.20001220703125</AltitudeMeters>
            <DistanceMeters>118516.66060829</DistanceMeters>
          </Trackpoint>
          <Trackpoint>
            <Time>2021-07-28T09:57:38.000Z</Time>
            <Position>
              <LatitudeDegrees>41.46036881022155284881591796875</LatitudeDegrees>
              <LongitudeDegrees>-2.86845984868705272674560546875</LongitudeDegrees>
            </Position>
            <AltitudeMeters>989.20001220703125</AltitudeMeters>
            <DistanceMeters>118532.42187102</DistanceMeters>
          </Trackpoint>
          <Trackpoint>
            <Time>2021-07-28T09:57:41.000Z</Time>
            <Position>
              <LatitudeDegrees>41.46051063202321529388427734375</LatitudeDegrees>
              <LongitudeDegrees>-2.8682170249521732330322265625</LongitudeDegrees>
            </Position>
            <AltitudeMeters>987.79998779296875</AltitudeMeters>
            <DistanceMeters>118558.10054392</DistanceMeters>
          </Trackpoint>
          <Trackpoint>
            <Time>2021-07-28T09:57:43.000Z</Time>
            <Position>
              <LatitudeDegrees>41.46061289124190807342529296875</LatitudeDegrees>
              <LongitudeDegrees>-2.86804745905101299285888671875</LongitudeDegrees>
            </Position>
            <AltitudeMeters>986</AltitudeMeters>
            <DistanceMeters>118576.25487481</DistanceMeters>
          </Trackpoint>
          <Trackpoint>
            <Time>2021-07-28T09:57:44.000Z</Time>
            <Position>
              <LatitudeDegrees>41.4606637693941593170166015625</LatitudeDegrees>
              <LongitudeDegrees>-2.86796179600059986114501953125</LongitudeDegrees>
            </Position>
            <AltitudeMeters>984.4000244140625</AltitudeMeters>
            <DistanceMeters>118585.37149829</DistanceMeters>
          </Trackpoint>
          <Trackpoint>
            <Time>2021-07-28T09:57:45.000Z</Time>
            <Position>
              <LatitudeDegrees>41.46071456372737884521484375</LatitudeDegrees>
              <LongitudeDegrees>-2.8678753785789012908935546875</LongitudeDegrees>
            </Position>
            <AltitudeMeters>983.20001220703125</AltitudeMeters>
            <DistanceMeters>118594.53209327</DistanceMeters>
          </Trackpoint>
          <Trackpoint>
            <Time>2021-07-28T09:57:47.000Z</Time>
            <Position>
              <LatitudeDegrees>41.46081958897411823272705078125</LatitudeDegrees>
              <LongitudeDegrees>-2.86770514212548732757568359375</LongitudeDegrees>
            </Position>
            <AltitudeMeters>981.79998779296875</AltitudeMeters>
            <DistanceMeters>118612.92461142</DistanceMeters>
          </Trackpoint>
          <Trackpoint>
            <Time>2021-07-28T09:57:49.000Z</Time>
            <Position>
              <LatitudeDegrees>41.46092453040182590484619140625</LatitudeDegrees>
              <LongitudeDegrees>-2.867533899843692779541015625</LongitudeDegrees>
            </Position>
            <AltitudeMeters>980.20001220703125</AltitudeMeters>
            <DistanceMeters>118631.37570656</DistanceMeters>
          </Trackpoint>
          <Trackpoint>
            <Time>2021-07-28T09:57:51.000Z</Time>
            <Position>
              <LatitudeDegrees>41.46102863363921642303466796875</LatitudeDegrees>
              <LongitudeDegrees>-2.867358215153217315673828125</LongitudeDegrees>
            </Position>
            <AltitudeMeters>979</AltitudeMeters>
            <DistanceMeters>118650.05709822</DistanceMeters>
          </Trackpoint>
          <Trackpoint>
            <Time>2021-07-28T09:57:55.000Z</Time>
            <Position>
              <LatitudeDegrees>41.461246646940708160400390625</LatitudeDegrees>
              <LongitudeDegrees>-2.86700625903904438018798828125</LongitudeDegrees>
            </Position>
            <AltitudeMeters>977.5999755859375</AltitudeMeters>
            <DistanceMeters>118688.14420365</DistanceMeters>
          </Trackpoint>
          <Trackpoint>
            <Time>2021-07-28T09:57:59.000Z</Time>
            <Position>
              <LatitudeDegrees>41.4614783227443695068359375</LatitudeDegrees>
              <LongitudeDegrees>-2.86665715277194976806640625</LongitudeDegrees>
            </Position>
            <AltitudeMeters>976.4000244140625</AltitudeMeters>
            <DistanceMeters>118727.03927747</DistanceMeters>
          </Trackpoint>
          <Trackpoint>
            <Time>2021-07-28T09:58:02.000Z</Time>
            <Position>
              <LatitudeDegrees>41.461666412651538848876953125</LatitudeDegrees>
              <LongitudeDegrees>-2.86640779115259647369384765625</LongitudeDegrees>
            </Position>
            <AltitudeMeters>974.79998779296875</AltitudeMeters>
            <DistanceMeters>118756.54977733</DistanceMeters>
          </Trackpoint>
          <Trackpoint>
            <Time>2021-07-28T09:58:04.000Z</Time>
            <Position>
              <LatitudeDegrees>41.46179708652198314666748046875</LatitudeDegrees>
              <LongitudeDegrees>-2.86624250002205371856689453125</LongitudeDegrees>
            </Position>
            <AltitudeMeters>973.79998779296875</AltitudeMeters>
            <DistanceMeters>118776.59027832</DistanceMeters>
          </Trackpoint>
          <Trackpoint>
            <Time>2021-07-28T09:58:07.000Z</Time>
            <Position>
              <LatitudeDegrees>41.46200336515903472900390625</LatitudeDegrees>
              <LongitudeDegrees>-2.86598986946046352386474609375</LongitudeDegrees>
            </Position>
            <AltitudeMeters>972.4000244140625</AltitudeMeters>
            <DistanceMeters>118807.75353555</DistanceMeters>
          </Trackpoint>
          <Trackpoint>
            <Time>2021-07-28T09:58:09.000Z</Time>
            <Position>
              <LatitudeDegrees>41.46214610897004604339599609375</LatitudeDegrees>
              <LongitudeDegrees>-2.865813933312892913818359375</LongitudeDegrees>
            </Position>
            <AltitudeMeters>971</AltitudeMeters>
            <DistanceMeters>118829.38124833</DistanceMeters>
          </Trackpoint>
          <Trackpoint>
            <Time>2021-07-28T09:58:11.000Z</Time>
            <Position>
              <LatitudeDegrees>41.4622911997139453887939453125</LatitudeDegrees>
              <LongitudeDegrees>-2.8656305372714996337890625</LongitudeDegrees>
            </Position>
            <AltitudeMeters>969.5999755859375</AltitudeMeters>
            <DistanceMeters>118851.62480803</DistanceMeters>
          </Trackpoint>
          <Trackpoint>
            <Time>2021-07-28T09:58:13.000Z</Time>
            <Position>
              <LatitudeDegrees>41.46243964321911334991455078125</LatitudeDegrees>
              <LongitudeDegrees>-2.86544236354529857635498046875</LongitudeDegrees>
            </Position>
            <AltitudeMeters>966.20001220703125</AltitudeMeters>
            <DistanceMeters>118874.41339501</DistanceMeters>
          </Trackpoint>
          <Trackpoint>
            <Time>2021-07-28T09:58:14.000Z</Time>
            <Position>
              <LatitudeDegrees>41.46251440979540348052978515625</LatitudeDegrees>
              <LongitudeDegrees>-2.86534714512526988983154296875</LongitudeDegrees>
            </Position>
            <AltitudeMeters>965.20001220703125</AltitudeMeters>
            <DistanceMeters>118885.91673106</DistanceMeters>
          </Trackpoint>
          <Trackpoint>
            <Time>2021-07-28T09:58:16.000Z</Time>
            <Position>
              <LatitudeDegrees>41.4626673795282840728759765625</LatitudeDegrees>
              <LongitudeDegrees>-2.865155450999736785888671875</LongitudeDegrees>
            </Position>
            <AltitudeMeters>964.20001220703125</AltitudeMeters>
            <DistanceMeters>118909.27340051</DistanceMeters>
          </Trackpoint>
          <Trackpoint>
            <Time>2021-07-28T09:58:18.000Z</Time>
            <Position>
              <LatitudeDegrees>41.46282386966049671173095703125</LatitudeDegrees>
              <LongitudeDegrees>-2.8649626672267913818359375</LongitudeDegrees>
            </Position>
            <AltitudeMeters>962.5999755859375</AltitudeMeters>
            <DistanceMeters>118932.97851868</DistanceMeters>
          </Trackpoint>
          <Trackpoint>
            <Time>2021-07-28T09:58:20.000Z</Time>
            <Position>
              <LatitudeDegrees>41.46298195235431194305419921875</LatitudeDegrees>
              <LongitudeDegrees>-2.86476963199675083160400390625</LongitudeDegrees>
            </Position>
            <AltitudeMeters>960.5999755859375</AltitudeMeters>
            <DistanceMeters>118956.82833095</DistanceMeters>
          </Trackpoint>
          <Trackpoint>
            <Time>2021-07-28T09:58:22.000Z</Time>
            <Position>
              <LatitudeDegrees>41.46314204670488834381103515625</LatitudeDegrees>
              <LongitudeDegrees>-2.86458020098507404327392578125</LongitudeDegrees>
            </Position>
            <AltitudeMeters>958.79998779296875</AltitudeMeters>
            <DistanceMeters>118980.64309488</DistanceMeters>
          </Trackpoint>
          <Trackpoint>
            <Time>2021-07-28T09:58:24.000Z</Time>
            <Position>
              <LatitudeDegrees>41.46329459734261035919189453125</LatitudeDegrees>
              <LongitudeDegrees>-2.86437928676605224609375</LongitudeDegrees>
            </Position>
            <AltitudeMeters>957.79998779296875</AltitudeMeters>
            <DistanceMeters>119004.4991536</DistanceMeters>
          </Trackpoint>
          <Trackpoint>
            <Time>2021-07-28T09:58:28.000Z</Time>
            <Position>
              <LatitudeDegrees>41.46354940719902515411376953125</LatitudeDegrees>
              <LongitudeDegrees>-2.8639311902225017547607421875</LongitudeDegrees>
            </Position>
            <AltitudeMeters>956.5999755859375</AltitudeMeters>
            <DistanceMeters>119051.41598954</DistanceMeters>
          </Trackpoint>
          <Trackpoint>
            <Time>2021-07-28T09:58:34.000Z</Time>
            <Position>
              <LatitudeDegrees>41.46385014988481998443603515625</LatitudeDegrees>
              <LongitudeDegrees>-2.86328670568764209747314453125</LongitudeDegrees>
            </Position>
            <AltitudeMeters>955.5999755859375</AltitudeMeters>
            <DistanceMeters>119114.74051146</DistanceMeters>
          </Trackpoint>
          <Trackpoint>
            <Time>2021-07-28T09:58:35.000Z</Time>
            <Position>
              <LatitudeDegrees>41.46388887427747249603271484375</LatitudeDegrees>
              <LongitudeDegrees>-2.8631845302879810333251953125</LongitudeDegrees>
            </Position>
            <AltitudeMeters>955.4000244140625</AltitudeMeters>
            <DistanceMeters>119124.29057806</DistanceMeters>
          </Trackpoint>
          <Trackpoint>
            <Time>2021-07-28T09:58:43.000Z</Time>
            <Position>
              <LatitudeDegrees>41.46410143934190273284912109375</LatitudeDegrees>
              <LongitudeDegrees>-2.862486653029918670654296875</LongitudeDegrees>
            </Position>
            <AltitudeMeters>955.20001220703125</AltitudeMeters>
            <DistanceMeters>119187.12256928</DistanceMeters>
          </Trackpoint>
          <Trackpoint>
            <Time>2021-07-28T09:58:45.000Z</Time>
            <Position>
              <LatitudeDegrees>41.46412842907011508941650390625</LatitudeDegrees>
              <LongitudeDegrees>-2.86238213069736957550048828125</LongitudeDegrees>
            </Position>
            <AltitudeMeters>956.79998779296875</AltitudeMeters>
            <DistanceMeters>119196.34358873</DistanceMeters>
          </Trackpoint>
          <Trackpoint>
            <Time>2021-07-28T09:58:46.000Z</Time>
            <Position>
              <LatitudeDegrees>41.46414821036159992218017578125</LatitudeDegrees>
              <LongitudeDegrees>-2.86233619786798954010009765625</LongitudeDegrees>
            </Position>
            <AltitudeMeters>957.4000244140625</AltitudeMeters>
            <DistanceMeters>119200.76207549</DistanceMeters>
          </Trackpoint>
          <Trackpoint>
            <Time>2021-07-28T09:58:47.000Z</Time>
            <Position>
              <LatitudeDegrees>41.46417520008981227874755859375</LatitudeDegrees>
              <LongitudeDegrees>-2.862304933369159698486328125</LongitudeDegrees>
            </Position>
            <AltitudeMeters>957.79998779296875</AltitudeMeters>
            <DistanceMeters>119204.73959909</DistanceMeters>
          </Trackpoint>
          <Trackpoint>
            <Time>2021-07-28T09:58:50.000Z</Time>
            <Position>
              <LatitudeDegrees>41.464264802634716033935546875</LatitudeDegrees>
              <LongitudeDegrees>-2.8623389638960361480712890625</LongitudeDegrees>
            </Position>
            <AltitudeMeters>958.4000244140625</AltitudeMeters>
            <DistanceMeters>119215.10840279</DistanceMeters>
          </Trackpoint>
          <Trackpoint>
            <Time>2021-07-28T09:59:05.000Z</Time>
            <Position>
              <LatitudeDegrees>41.46476109512150287628173828125</LatitudeDegrees>
              <LongitudeDegrees>-2.86266828887164592742919921875</LongitudeDegrees>
            </Position>
            <AltitudeMeters>958.4000244140625</AltitudeMeters>
            <DistanceMeters>119276.79911341</DistanceMeters>
          </Trackpoint>
          <Trackpoint>
            <Time>2021-07-28T09:59:19.000Z</Time>
            <Position>
              <LatitudeDegrees>41.46527591161429882049560546875</LatitudeDegrees>
              <LongitudeDegrees>-2.86288403905928134918212890625</LongitudeDegrees>
            </Position>
            <AltitudeMeters>958.4000244140625</AltitudeMeters>
            <DistanceMeters>119336.85825223</DistanceMeters>
          </Trackpoint>
          <Trackpoint>
            <Time>2021-07-28T09:59:21.000Z</Time>
            <Position>
              <LatitudeDegrees>41.46536056883633136749267578125</LatitudeDegrees>
              <LongitudeDegrees>-2.86290633492171764373779296875</LongitudeDegrees>
            </Position>
            <AltitudeMeters>958</AltitudeMeters>
            <DistanceMeters>119346.46300423</DistanceMeters>
          </Trackpoint>
          <Trackpoint>
            <Time>2021-07-28T09:59:34.000Z</Time>
            <Position>
              <LatitudeDegrees>41.465925760567188262939453125</LatitudeDegrees>
              <LongitudeDegrees>-2.86296333186328411102294921875</LongitudeDegrees>
            </Position>
            <AltitudeMeters>957.5999755859375</AltitudeMeters>
            <DistanceMeters>119409.54943567</DistanceMeters>
          </Trackpoint>
          <Trackpoint>
            <Time>2021-07-28T09:59:46.000Z</Time>
            <Position>
              <LatitudeDegrees>41.466396152973175048828125</LatitudeDegrees>
              <LongitudeDegrees>-2.8628857992589473724365234375</LongitudeDegrees>
            </Position>
            <AltitudeMeters>957.5999755859375</AltitudeMeters>
            <DistanceMeters>119462.30295791</DistanceMeters>
          </Trackpoint>
          <Trackpoint>
            <Time>2021-07-28T09:59:51.000Z</Time>
            <Position>
              <LatitudeDegrees>41.46638886071741580963134765625</LatitudeDegrees>
              <LongitudeDegrees>-2.86266476847231388092041015625</LongitudeDegrees>
            </Position>
            <AltitudeMeters>957</AltitudeMeters>
            <DistanceMeters>119480.7557659</DistanceMeters>
          </Trackpoint>
          <Trackpoint>
            <Time>2021-07-28T09:59:53.000Z</Time>
            <Position>
              <LatitudeDegrees>41.46639104001224040985107421875</LatitudeDegrees>
              <LongitudeDegrees>-2.86256602965295314788818359375</LongitudeDegrees>
            </Position>
            <AltitudeMeters>956.5999755859375</AltitudeMeters>
            <DistanceMeters>119488.99519031</DistanceMeters>
          </Trackpoint>
          <Trackpoint>
            <Time>2021-07-28T09:59:57.000Z</Time>
            <Position>
              <LatitudeDegrees>41.46639707498252391815185546875</LatitudeDegrees>
              <LongitudeDegrees>-2.86234541796147823333740234375</LongitudeDegrees>
            </Position>
            <AltitudeMeters>955.4000244140625</AltitudeMeters>
            <DistanceMeters>119507.40709135</DistanceMeters>
          </Trackpoint>
          <Trackpoint>
            <Time>2021-07-28T10:00:10.000Z</Time>
            <Position>
              <LatitudeDegrees>41.46641886793076992034912109375</LatitudeDegrees>
              <LongitudeDegrees>-2.8620122373104095458984375</LongitudeDegrees>
            </Position>
            <AltitudeMeters>955</AltitudeMeters>
            <DistanceMeters>119535.30111467</DistanceMeters>
          </Trackpoint>
          <Trackpoint>
            <Time>2021-07-28T10:00:15.000Z</Time>
            <Position>
              <LatitudeDegrees>41.46642490290105342864990234375</LatitudeDegrees>
              <LongitudeDegrees>-2.8618702478706836700439453125</LongitudeDegrees>
            </Position>
            <AltitudeMeters>954.4000244140625</AltitudeMeters>
            <DistanceMeters>119547.16233682</DistanceMeters>
          </Trackpoint>
          <Trackpoint>
            <Time>2021-07-28T10:00:21.000Z</Time>
            <Position>
              <LatitudeDegrees>41.4664905332028865814208984375</LatitudeDegrees>
              <LongitudeDegrees>-2.861688695847988128662109375</LongitudeDegrees>
            </Position>
            <AltitudeMeters>954.20001220703125</AltitudeMeters>
            <DistanceMeters>119563.97427879</DistanceMeters>
          </Trackpoint>
          <Trackpoint>
            <Time>2021-07-28T10:00:33.000Z</Time>
            <Position>
              <LatitudeDegrees>41.4666105620563030242919921875</LatitudeDegrees>
              <LongitudeDegrees>-2.8613341413438320159912109375</LongitudeDegrees>
            </Position>
            <AltitudeMeters>953.79998779296875</AltitudeMeters>
            <DistanceMeters>119596.42308421</DistanceMeters>
          </Trackpoint>
          <Trackpoint>
            <Time>2021-07-28T10:00:51.000Z</Time>
            <Position>
              <LatitudeDegrees>41.46643311716616153717041015625</LatitudeDegrees>
              <LongitudeDegrees>-2.86119483411312103271484375</LongitudeDegrees>
            </Position>
            <AltitudeMeters>952</AltitudeMeters>
            <DistanceMeters>119619.33693951</DistanceMeters>
          </Trackpoint>
          <Trackpoint>
            <Time>2021-07-28T10:01:02.000Z</Time>
            <Position>
              <LatitudeDegrees>41.4661837555468082427978515625</LatitudeDegrees>
              <LongitudeDegrees>-2.86104722879827022552490234375</LongitudeDegrees>
            </Position>
            <AltitudeMeters>953</AltitudeMeters>
            <DistanceMeters>119649.69912725</DistanceMeters>
          </Trackpoint>
          <Trackpoint>
            <Time>2021-07-28T10:01:11.000Z</Time>
            <Position>
              <LatitudeDegrees>41.466016955673694610595703125</LatitudeDegrees>
              <LongitudeDegrees>-2.86102761514484882354736328125</LongitudeDegrees>
            </Position>
            <AltitudeMeters>953.20001220703125</AltitudeMeters>
            <DistanceMeters>119668.33623782</DistanceMeters>
          </Trackpoint>
          <Trackpoint>
            <Time>2021-07-28T10:01:16.000Z</Time>
            <Position>
              <LatitudeDegrees>41.4660285227000713348388671875</LatitudeDegrees>
              <LongitudeDegrees>-2.86094178445637226104736328125</LongitudeDegrees>
            </Position>
            <AltitudeMeters>952.79998779296875</AltitudeMeters>
            <DistanceMeters>119675.60935186</DistanceMeters>
          </Trackpoint>
          <Trackpoint>
            <Time>2021-07-28T10:31:45.000Z</Time>
            <Position>
              <LatitudeDegrees>41.4661136828362941741943359375</LatitudeDegrees>
              <LongitudeDegrees>-2.86089551635086536407470703125</LongitudeDegrees>
            </Position>
            <AltitudeMeters>953.79998779296875</AltitudeMeters>
            <DistanceMeters>119685.84315988</DistanceMeters>
          </Trackpoint>
          <Trackpoint>
            <Time>2021-07-28T10:31:50.000Z</Time>
            <Position>
              <LatitudeDegrees>41.4662028662860393524169921875</LatitudeDegrees>
              <LongitudeDegrees>-2.860863246023654937744140625</LongitudeDegrees>
            </Position>
            <AltitudeMeters>954</AltitudeMeters>
            <DistanceMeters>119696.12801843</DistanceMeters>
          </Trackpoint>
          <Trackpoint>
            <Time>2021-07-28T10:32:15.000Z</Time>
            <Position>
              <LatitudeDegrees>41.46666613407433032989501953125</LatitudeDegrees>
              <LongitudeDegrees>-2.8612325526773929595947265625</LongitudeDegrees>
            </Position>
            <AltitudeMeters>954.5999755859375</AltitudeMeters>
            <DistanceMeters>119756.19001389</DistanceMeters>
          </Trackpoint>
          <Trackpoint>
            <Time>2021-07-28T10:32:22.000Z</Time>
            <Position>
              <LatitudeDegrees>41.46680460311472415924072265625</LatitudeDegrees>
              <LongitudeDegrees>-2.861294411122798919677734375</LongitudeDegrees>
            </Position>
            <AltitudeMeters>954.79998779296875</AltitudeMeters>
            <DistanceMeters>119772.44236037</DistanceMeters>
          </Trackpoint>
          <Trackpoint>
            <Time>2021-07-28T10:32:24.000Z</Time>
            <Position>
              <LatitudeDegrees>41.46681784652173519134521484375</LatitudeDegrees>
              <LongitudeDegrees>-2.861295081675052642822265625</LongitudeDegrees>
            </Position>
            <AltitudeMeters>955</AltitudeMeters>
            <DistanceMeters>119773.92062912</DistanceMeters>
          </Trackpoint>
          <Trackpoint>
            <Time>2021-07-28T10:32:42.000Z</Time>
            <Position>
              <LatitudeDegrees>41.46698615513741970062255859375</LatitudeDegrees>
              <LongitudeDegrees>-2.8613918088376522064208984375</LongitudeDegrees>
            </Position>
            <AltitudeMeters>955.4000244140625</AltitudeMeters>
            <DistanceMeters>119794.31686877</DistanceMeters>
          </Trackpoint>
          <Trackpoint>
            <Time>2021-07-28T10:32:54.000Z</Time>
            <Position>
              <LatitudeDegrees>41.46723903715610504150390625</LatitudeDegrees>
              <LongitudeDegrees>-2.86142458207905292510986328125</LongitudeDegrees>
            </Position>
            <AltitudeMeters>956</AltitudeMeters>
            <DistanceMeters>119822.59558001</DistanceMeters>
          </Trackpoint>
          <Trackpoint>
            <Time>2021-07-28T10:32:59.000Z</Time>
            <Position>
              <LatitudeDegrees>41.4673458226025104522705078125</LatitudeDegrees>
              <LongitudeDegrees>-2.86145576275885105133056640625</LongitudeDegrees>
            </Position>
            <AltitudeMeters>956</AltitudeMeters>
            <DistanceMeters>119834.76196867</DistanceMeters>
          </Trackpoint>
          <Trackpoint>
            <Time>2021-07-28T10:33:06.000Z</Time>
            <Position>
              <LatitudeDegrees>41.46749577485024929046630859375</LatitudeDegrees>
              <LongitudeDegrees>-2.86147688515484333038330078125</LongitudeDegrees>
            </Position>
            <AltitudeMeters>956.20001220703125</AltitudeMeters>
            <DistanceMeters>119851.54488095</DistanceMeters>
          </Trackpoint>
          <Trackpoint>
            <Time>2021-07-28T10:33:14.000Z</Time>
            <Position>
              <LatitudeDegrees>41.46770096383988857269287109375</LatitudeDegrees>
              <LongitudeDegrees>-2.86150018684566020965576171875</LongitudeDegrees>
            </Position>
            <AltitudeMeters>957</AltitudeMeters>
            <DistanceMeters>119874.46543477</DistanceMeters>
          </Trackpoint>
          <Trackpoint>
            <Time>2021-07-28T10:33:26.000Z</Time>
            <Position>
              <LatitudeDegrees>41.46804009564220905303955078125</LatitudeDegrees>
              <LongitudeDegrees>-2.8615938127040863037109375</LongitudeDegrees>
            </Position>
            <AltitudeMeters>958.20001220703125</AltitudeMeters>
            <DistanceMeters>119913.01057074</DistanceMeters>
          </Trackpoint>
          <Trackpoint>
            <Time>2021-07-28T10:33:43.000Z</Time>
            <Position>
              <LatitudeDegrees>41.4685186184942722320556640625</LatitudeDegrees>
              <LongitudeDegrees>-2.8616345487534999847412109375</LongitudeDegrees>
            </Position>
            <AltitudeMeters>959.20001220703125</AltitudeMeters>
            <DistanceMeters>119966.3793874</DistanceMeters>
          </Trackpoint>
          <Trackpoint>
            <Time>2021-07-28T10:33:58.000Z</Time>
            <Position>
              <LatitudeDegrees>41.46897065453231334686279296875</LatitudeDegrees>
              <LongitudeDegrees>-2.86161367781460285186767578125</LongitudeDegrees>
            </Position>
            <AltitudeMeters>960.20001220703125</AltitudeMeters>
            <DistanceMeters>120016.72202594</DistanceMeters>
          </Trackpoint>
          <Trackpoint>
            <Time>2021-07-28T10:34:12.000Z</Time>
            <Position>
              <LatitudeDegrees>41.46942906081676483154296875</LatitudeDegrees>
              <LongitudeDegrees>-2.86165994592010974884033203125</LongitudeDegrees>
            </Position>
            <AltitudeMeters>961</AltitudeMeters>
            <DistanceMeters>120067.88921302</DistanceMeters>
          </Trackpoint>
          <Trackpoint>
            <Time>2021-07-28T10:34:29.000Z</Time>
            <Position>
              <LatitudeDegrees>41.4699660055339336395263671875</LatitudeDegrees>
              <LongitudeDegrees>-2.86173940636217594146728515625</LongitudeDegrees>
            </Position>
            <AltitudeMeters>960.79998779296875</AltitudeMeters>
            <DistanceMeters>120128.01845064</DistanceMeters>
          </Trackpoint>
          <Trackpoint>
            <Time>2021-07-28T10:34:44.000Z</Time>
            <Position>
              <LatitudeDegrees>41.47053371183574199676513671875</LatitudeDegrees>
              <LongitudeDegrees>-2.8616556711494922637939453125</LongitudeDegrees>
            </Position>
            <AltitudeMeters>960.4000244140625</AltitudeMeters>
            <DistanceMeters>120191.59011518</DistanceMeters>
          </Trackpoint>
          <Trackpoint>
            <Time>2021-07-28T10:34:50.000Z</Time>
            <Position>
              <LatitudeDegrees>41.4707840792834758758544921875</LatitudeDegrees>
              <LongitudeDegrees>-2.86162935197353363037109375</LongitudeDegrees>
            </Position>
            <AltitudeMeters>960</AltitudeMeters>
            <DistanceMeters>120219.54283337</DistanceMeters>
          </Trackpoint>
          <Trackpoint>
            <Time>2021-07-28T10:34:57.000Z</Time>
            <Position>
              <LatitudeDegrees>41.4711056090891361236572265625</LatitudeDegrees>
              <LongitudeDegrees>-2.86158350296318531036376953125</LongitudeDegrees>
            </Position>
            <AltitudeMeters>958.5999755859375</AltitudeMeters>
            <DistanceMeters>120255.53350363</DistanceMeters>
          </Trackpoint>
          <Trackpoint>
            <Time>2021-07-28T10:35:01.000Z</Time>
            <Position>
              <LatitudeDegrees>41.47131255827844142913818359375</LatitudeDegrees>
              <LongitudeDegrees>-2.861561290919780731201171875</LongitudeDegrees>
            </Position>
            <AltitudeMeters>957.4000244140625</AltitudeMeters>
            <DistanceMeters>120278.64199992</DistanceMeters>
          </Trackpoint>
          <Trackpoint>
            <Time>2021-07-28T10:35:07.000Z</Time>
            <Position>
              <LatitudeDegrees>41.471638195216655731201171875</LatitudeDegrees>
              <LongitudeDegrees>-2.86151477135717868804931640625</LongitudeDegrees>
            </Position>
            <AltitudeMeters>956.20001220703125</AltitudeMeters>
            <DistanceMeters>120315.09313773</DistanceMeters>
          </Trackpoint>
          <Trackpoint>
            <Time>2021-07-28T10:35:12.000Z</Time>
            <Position>
              <LatitudeDegrees>41.47191680967807769775390625</LatitudeDegrees>
              <LongitudeDegrees>-2.86147386766970157623291015625</LongitudeDegrees>
            </Position>
            <AltitudeMeters>955.20001220703125</AltitudeMeters>
            <DistanceMeters>120346.29027925</DistanceMeters>
          </Trackpoint>
          <Trackpoint>
            <Time>2021-07-28T10:35:21.000Z</Time>
            <Position>
              <LatitudeDegrees>41.47237555123865604400634765625</LatitudeDegrees>
              <LongitudeDegrees>-2.86141351796686649322509765625</LongitudeDegrees>
            </Position>
            <AltitudeMeters>956.20001220703125</AltitudeMeters>
            <DistanceMeters>120397.5964335</DistanceMeters>
          </Trackpoint>
          <Trackpoint>
            <Time>2021-07-28T10:35:33.000Z</Time>
            <Position>
              <LatitudeDegrees>41.47294434718787670135498046875</LatitudeDegrees>
              <LongitudeDegrees>-2.86135098896920680999755859375</LongitudeDegrees>
            </Position>
            <AltitudeMeters>957</AltitudeMeters>
            <DistanceMeters>120461.11886017</DistanceMeters>
          </Trackpoint>
          <Trackpoint>
            <Time>2021-07-28T10:35:35.000Z</Time>
            <Position>
              <LatitudeDegrees>41.47303503938019275665283203125</LatitudeDegrees>
              <LongitudeDegrees>-2.86134160123765468597412109375</LongitudeDegrees>
            </Position>
            <AltitudeMeters>957.20001220703125</AltitudeMeters>
            <DistanceMeters>120471.24355413</DistanceMeters>
          </Trackpoint>
          <Trackpoint>
            <Time>2021-07-28T10:35:48.000Z</Time>
            <Position>
              <LatitudeDegrees>41.473590843379497528076171875</LatitudeDegrees>
              <LongitudeDegrees>-2.8612761385738849639892578125</LongitudeDegrees>
            </Position>
            <AltitudeMeters>958</AltitudeMeters>
            <DistanceMeters>120533.34611115</DistanceMeters>
          </Trackpoint>
          <Trackpoint>
            <Time>2021-07-28T10:36:01.000Z</Time>
            <Position>
              <LatitudeDegrees>41.47414438426494598388671875</LatitudeDegrees>
              <LongitudeDegrees>-2.8612074069678783416748046875</LongitudeDegrees>
            </Position>
            <AltitudeMeters>957.79998779296875</AltitudeMeters>
            <DistanceMeters>120595.22229487</DistanceMeters>
          </Trackpoint>
          <Trackpoint>
            <Time>2021-07-28T10:36:14.000Z</Time>
            <Position>
              <LatitudeDegrees>41.47471041418612003326416015625</LatitudeDegrees>
              <LongitudeDegrees>-2.86112668924033641815185546875</LongitudeDegrees>
            </Position>
            <AltitudeMeters>957.79998779296875</AltitudeMeters>
            <DistanceMeters>120658.58110281</DistanceMeters>
          </Trackpoint>
          <Trackpoint>
            <Time>2021-07-28T10:36:22.000Z</Time>
            <Position>
              <LatitudeDegrees>41.475082151591777801513671875</LatitudeDegrees>
              <LongitudeDegrees>-2.86100347526371479034423828125</LongitudeDegrees>
            </Position>
            <AltitudeMeters>955.5999755859375</AltitudeMeters>
            <DistanceMeters>120701.21295071</DistanceMeters>
          </Trackpoint>
          <Trackpoint>
            <Time>2021-07-28T10:36:25.000Z</Time>
            <Position>
              <LatitudeDegrees>41.47523595951497554779052734375</LatitudeDegrees>
              <LongitudeDegrees>-2.8609458915889263153076171875</LongitudeDegrees>
            </Position>
            <AltitudeMeters>954.4000244140625</AltitudeMeters>
            <DistanceMeters>120718.99285274</DistanceMeters>
          </Trackpoint>
          <Trackpoint>
            <Time>2021-07-28T10:36:28.000Z</Time>
            <Position>
              <LatitudeDegrees>41.47539890371263027191162109375</LatitudeDegrees>
              <LongitudeDegrees>-2.86088177002966403961181640625</LongitudeDegrees>
            </Position>
            <AltitudeMeters>953.4000244140625</AltitudeMeters>
            <DistanceMeters>120737.90078114</DistanceMeters>
          </Trackpoint>
          <Trackpoint>
            <Time>2021-07-28T10:36:32.000Z</Time>
            <Position>
              <LatitudeDegrees>41.4756311662495136260986328125</LatitudeDegrees>
              <LongitudeDegrees>-2.86079292185604572296142578125</LongitudeDegrees>
            </Position>
            <AltitudeMeters>952.20001220703125</AltitudeMeters>
            <DistanceMeters>120764.79317342</DistanceMeters>
          </Trackpoint>
          <Trackpoint>
            <Time>2021-07-28T10:36:36.000Z</Time>
            <Position>
              <LatitudeDegrees>41.47587281651794910430908203125</LatitudeDegrees>
              <LongitudeDegrees>-2.860699631273746490478515625</LongitudeDegrees>
            </Position>
            <AltitudeMeters>951.20001220703125</AltitudeMeters>
            <DistanceMeters>120792.7920494</DistanceMeters>
          </Trackpoint>
          <Trackpoint>
            <Time>2021-07-28T10:36:39.000Z</Time>
            <Position>
              <LatitudeDegrees>41.47606216371059417724609375</LatitudeDegrees>
              <LongitudeDegrees>-2.8606273792684078216552734375</LongitudeDegrees>
            </Position>
            <AltitudeMeters>950.5999755859375</AltitudeMeters>
            <DistanceMeters>120814.71110999</DistanceMeters>
          </Trackpoint>
          <Trackpoint>
            <Time>2021-07-28T10:36:40.000Z</Time>
            <Position>
              <LatitudeDegrees>41.4761267043650150299072265625</LatitudeDegrees>
              <LongitudeDegrees>-2.86060332320630550384521484375</LongitudeDegrees>
            </Position>
            <AltitudeMeters>950</AltitudeMeters>
            <DistanceMeters>120822.1693451</DistanceMeters>
          </Trackpoint>
          <Trackpoint>
            <Time>2021-07-28T10:36:43.000Z</Time>
            <Position>
              <LatitudeDegrees>41.47631973959505558013916015625</LatitudeDegrees>
              <LongitudeDegrees>-2.86052939482033252716064453125</LongitudeDegrees>
            </Position>
            <AltitudeMeters>949</AltitudeMeters>
            <DistanceMeters>120844.52143828</DistanceMeters>
          </Trackpoint>
          <Trackpoint>
            <Time>2021-07-28T10:36:52.000Z</Time>
            <Position>
              <LatitudeDegrees>41.47689289413392543792724609375</LatitudeDegrees>
              <LongitudeDegrees>-2.86032672040164470672607421875</LongitudeDegrees>
            </Position>
            <AltitudeMeters>948.79998779296875</AltitudeMeters>
            <DistanceMeters>120910.51555869</DistanceMeters>
          </Trackpoint>
          <Trackpoint>
            <Time>2021-07-28T10:36:59.000Z</Time>
            <Position>
              <LatitudeDegrees>41.4773454330861568450927734375</LatitudeDegrees>
              <LongitudeDegrees>-2.86019445396959781646728515625</LongitudeDegrees>
            </Position>
            <AltitudeMeters>947.79998779296875</AltitudeMeters>
            <DistanceMeters>120962.07742519</DistanceMeters>
          </Trackpoint>
          <Trackpoint>
            <Time>2021-07-28T10:37:01.000Z</Time>
            <Position>
              <LatitudeDegrees>41.47748281247913837432861328125</LatitudeDegrees>
              <LongitudeDegrees>-2.8601586632430553436279296875</LongitudeDegrees>
            </Position>
            <AltitudeMeters>946.79998779296875</AltitudeMeters>
            <DistanceMeters>120977.65630078</DistanceMeters>
          </Trackpoint>
          <Trackpoint>
            <Time>2021-07-28T10:37:06.000Z</Time>
            <Position>
              <LatitudeDegrees>41.47783116437494754791259765625</LatitudeDegrees>
              <LongitudeDegrees>-2.86007543094456195831298828125</LongitudeDegrees>
            </Position>
            <AltitudeMeters>945.5999755859375</AltitudeMeters>
            <DistanceMeters>121017.04484523</DistanceMeters>
          </Trackpoint>
          <Trackpoint>
            <Time>2021-07-28T10:37:14.000Z</Time>
            <Position>
              <LatitudeDegrees>41.4783673547208309173583984375</LatitudeDegrees>
              <LongitudeDegrees>-2.8598986566066741943359375</LongitudeDegrees>
            </Position>
            <AltitudeMeters>944.79998779296875</AltitudeMeters>
            <DistanceMeters>121078.5175085</DistanceMeters>
          </Trackpoint>
          <Trackpoint>
            <Time>2021-07-28T10:37:15.000Z</Time>
            <Position>
              <LatitudeDegrees>41.47843130864202976226806640625</LatitudeDegrees>
              <LongitudeDegrees>-2.85986621864140033721923828125</LongitudeDegrees>
            </Position>
            <AltitudeMeters>944.5999755859375</AltitudeMeters>
            <DistanceMeters>121086.13270062</DistanceMeters>
          </Trackpoint>
          <Trackpoint>
            <Time>2021-07-28T10:37:19.000Z</Time>
            <Position>
              <LatitudeDegrees>41.478669941425323486328125</LatitudeDegrees>
              <LongitudeDegrees>-2.85971232689917087554931640625</LongitudeDegrees>
            </Position>
            <AltitudeMeters>943.4000244140625</AltitudeMeters>
            <DistanceMeters>121115.63049894</DistanceMeters>
          </Trackpoint>
          <Trackpoint>
            <Time>2021-07-28T10:37:22.000Z</Time>
            <Position>
              <LatitudeDegrees>41.47882944904267787933349609375</LatitudeDegrees>
              <LongitudeDegrees>-2.8595813177525997161865234375</LongitudeDegrees>
            </Position>
            <AltitudeMeters>942.4000244140625</AltitudeMeters>
            <DistanceMeters>121136.47581684</DistanceMeters>
          </Trackpoint>
          <Trackpoint>
            <Time>2021-07-28T10:37:32.000Z</Time>
            <Position>
              <LatitudeDegrees>41.47924887947738170623779296875</LatitudeDegrees>
              <LongitudeDegrees>-2.85909407772123813629150390625</LongitudeDegrees>
            </Position>
            <AltitudeMeters>942.4000244140625</AltitudeMeters>
            <DistanceMeters>121198.36367449</DistanceMeters>
          </Trackpoint>
          <Trackpoint>
            <Time>2021-07-28T10:37:43.000Z</Time>
            <Position>
              <LatitudeDegrees>41.47964450530707836151123046875</LatitudeDegrees>
              <LongitudeDegrees>-2.85852192901074886322021484375</LongitudeDegrees>
            </Position>
            <AltitudeMeters>941.79998779296875</AltitudeMeters>
            <DistanceMeters>121263.28813447</DistanceMeters>
          </Trackpoint>
          <Trackpoint>
            <Time>2021-07-28T10:37:53.000Z</Time>
            <Position>
              <LatitudeDegrees>41.4800185896456241607666015625</LatitudeDegrees>
              <LongitudeDegrees>-2.85798632539808750152587890625</LongitudeDegrees>
            </Position>
            <AltitudeMeters>942</AltitudeMeters>
            <DistanceMeters>121324.34773446</DistanceMeters>
          </Trackpoint>
          <Trackpoint>
            <Time>2021-07-28T10:37:56.000Z</Time>
            <Position>
              <LatitudeDegrees>41.48013216443359851837158203125</LatitudeDegrees>
              <LongitudeDegrees>-2.8578217886388301849365234375</LongitudeDegrees>
            </Position>
            <AltitudeMeters>941.4000244140625</AltitudeMeters>
            <DistanceMeters>121343.00348978</DistanceMeters>
          </Trackpoint>
          <Trackpoint>
            <Time>2021-07-28T10:37:59.000Z</Time>
            <Position>
              <LatitudeDegrees>41.48024615831673145294189453125</LatitudeDegrees>
              <LongitudeDegrees>-2.8576585091650485992431640625</LongitudeDegrees>
            </Position>
            <AltitudeMeters>940.20001220703125</AltitudeMeters>
            <DistanceMeters>121361.6139326</DistanceMeters>
          </Trackpoint>
          <Trackpoint>
            <Time>2021-07-28T10:38:05.000Z</Time>
            <Position>
              <LatitudeDegrees>41.48047062568366527557373046875</LatitudeDegrees>
              <LongitudeDegrees>-2.857336141169071197509765625</LongitudeDegrees>
            </Position>
            <AltitudeMeters>939</AltitudeMeters>
            <DistanceMeters>121398.31221132</DistanceMeters>
          </Trackpoint>
          <Trackpoint>
            <Time>2021-07-28T10:38:07.000Z</Time>
            <Position>
              <LatitudeDegrees>41.48054924793541431427001953125</LatitudeDegrees>
              <LongitudeDegrees>-2.85722122527658939361572265625</LongitudeDegrees>
            </Position>
            <AltitudeMeters>938</AltitudeMeters>
            <DistanceMeters>121411.28953483</DistanceMeters>
          </Trackpoint>
          <Trackpoint>
            <Time>2021-07-28T10:38:12.000Z</Time>
            <Position>
              <LatitudeDegrees>41.48075359873473644256591796875</LatitudeDegrees>
              <LongitudeDegrees>-2.85692618228495121002197265625</LongitudeDegrees>
            </Position>
            <AltitudeMeters>936.79998779296875</AltitudeMeters>
            <DistanceMeters>121444.79463912</DistanceMeters>
          </Trackpoint>
          <Trackpoint>
            <Time>2021-07-28T10:38:18.000Z</Time>
            <Position>
              <LatitudeDegrees>41.48101042024791240692138671875</LatitudeDegrees>
              <LongitudeDegrees>-2.8565594740211963653564453125</LongitudeDegrees>
            </Position>
            <AltitudeMeters>935.79998779296875</AltitudeMeters>
            <DistanceMeters>121486.65269333</DistanceMeters>
          </Trackpoint>
          <Trackpoint>
            <Time>2021-07-28T10:38:20.000Z</Time>
            <Position>
              <LatitudeDegrees>41.48110396228730678558349609375</LatitudeDegrees>
              <LongitudeDegrees>-2.8564278781414031982421875</LongitudeDegrees>
            </Position>
            <AltitudeMeters>934.79998779296875</AltitudeMeters>
            <DistanceMeters>121501.77866592</DistanceMeters>
          </Trackpoint>
          <Trackpoint>
            <Time>2021-07-28T10:38:23.000Z</Time>
            <Position>
              <LatitudeDegrees>41.48124544881284236907958984375</LatitudeDegrees>
              <LongitudeDegrees>-2.85622444935142993927001953125</LongitudeDegrees>
            </Position>
            <AltitudeMeters>933.5999755859375</AltitudeMeters>
            <DistanceMeters>121524.92425546</DistanceMeters>
          </Trackpoint>
          <Trackpoint>
            <Time>2021-07-28T10:38:28.000Z</Time>
            <Position>
              <LatitudeDegrees>41.48148299194872379302978515625</LatitudeDegrees>
              <LongitudeDegrees>-2.855889089405536651611328125</LongitudeDegrees>
            </Position>
            <AltitudeMeters>932.4000244140625</AltitudeMeters>
            <DistanceMeters>121563.4078457</DistanceMeters>
          </Trackpoint>
          <Trackpoint>
            <Time>2021-07-28T10:38:31.000Z</Time>
            <Position>
              <LatitudeDegrees>41.481625735759735107421875</LatitudeDegrees>
              <LongitudeDegrees>-2.8556830622255802154541015625</LongitudeDegrees>
            </Position>
            <AltitudeMeters>931.20001220703125</AltitudeMeters>
            <DistanceMeters>121586.8075832</DistanceMeters>
          </Trackpoint>
          <Trackpoint>
            <Time>2021-07-28T10:38:34.000Z</Time>
            <Position>
              <LatitudeDegrees>41.4817787893116474151611328125</LatitudeDegrees>
              <LongitudeDegrees>-2.85547259263694286346435546875</LongitudeDegrees>
            </Position>
            <AltitudeMeters>930.20001220703125</AltitudeMeters>
            <DistanceMeters>121611.26565782</DistanceMeters>
          </Trackpoint>
          <Trackpoint>
            <Time>2021-07-28T10:38:38.000Z</Time>
            <Position>
              <LatitudeDegrees>41.481987498700618743896484375</LatitudeDegrees>
              <LongitudeDegrees>-2.855173610150814056396484375</LongitudeDegrees>
            </Position>
            <AltitudeMeters>928.79998779296875</AltitudeMeters>
            <DistanceMeters>121645.3411829</DistanceMeters>
          </Trackpoint>
          <Trackpoint>
            <Time>2021-07-28T10:38:46.000Z</Time>
            <Position>
              <LatitudeDegrees>41.482363007962703704833984375</LatitudeDegrees>
              <LongitudeDegrees>-2.85463674925267696380615234375</LongitudeDegrees>
            </Position>
            <AltitudeMeters>929.4000244140625</AltitudeMeters>
            <DistanceMeters>121706.58440744</DistanceMeters>
          </Trackpoint>
          <Trackpoint>
            <Time>2021-07-28T10:38:54.000Z</Time>
            <Position>
              <LatitudeDegrees>41.48266576230525970458984375</LatitudeDegrees>
              <LongitudeDegrees>-2.8542068414390087127685546875</LongitudeDegrees>
            </Position>
            <AltitudeMeters>930.20001220703125</AltitudeMeters>
            <DistanceMeters>121755.78292297</DistanceMeters>
          </Trackpoint>
          <Trackpoint>
            <Time>2021-07-28T10:39:05.000Z</Time>
            <Position>
              <LatitudeDegrees>41.48304722271859645843505859375</LatitudeDegrees>
              <LongitudeDegrees>-2.85367115400731563568115234375</LongitudeDegrees>
            </Position>
            <AltitudeMeters>929.5999755859375</AltitudeMeters>
            <DistanceMeters>121817.40882791</DistanceMeters>
          </Trackpoint>
          <Trackpoint>
            <Time>2021-07-28T10:39:17.000Z</Time>
            <Position>
              <LatitudeDegrees>41.48343983106315135955810546875</LatitudeDegrees>
              <LongitudeDegrees>-2.85311677493155002593994140625</LongitudeDegrees>
            </Position>
            <AltitudeMeters>929.4000244140625</AltitudeMeters>
            <DistanceMeters>121881.01925909</DistanceMeters>
          </Trackpoint>
          <Trackpoint>
            <Time>2021-07-28T10:39:19.000Z</Time>
            <Position>
              <LatitudeDegrees>41.48350386880338191986083984375</LatitudeDegrees>
              <LongitudeDegrees>-2.85302591510117053985595703125</LongitudeDegrees>
            </Position>
            <AltitudeMeters>929</AltitudeMeters>
            <DistanceMeters>121891.42110392</DistanceMeters>
          </Trackpoint>
          <Trackpoint>
            <Time>2021-07-28T10:39:31.000Z</Time>
            <Position>
              <LatitudeDegrees>41.4838853292167186737060546875</LatitudeDegrees>
              <LongitudeDegrees>-2.852488718926906585693359375</LongitudeDegrees>
            </Position>
            <AltitudeMeters>927.79998779296875</AltitudeMeters>
            <DistanceMeters>121953.13786408</DistanceMeters>
          </Trackpoint>
          <Trackpoint>
            <Time>2021-07-28T10:39:35.000Z</Time>
            <Position>
              <LatitudeDegrees>41.484010219573974609375</LatitudeDegrees>
              <LongitudeDegrees>-2.85231093876063823699951171875</LongitudeDegrees>
            </Position>
            <AltitudeMeters>927.79998779296875</AltitudeMeters>
            <DistanceMeters>121973.45936638</DistanceMeters>
          </Trackpoint>
          <Trackpoint>
            <Time>2021-07-28T10:39:48.000Z</Time>
            <Position>
              <LatitudeDegrees>41.48440056480467319488525390625</LatitudeDegrees>
              <LongitudeDegrees>-2.8517539612948894500732421875</LongitudeDegrees>
            </Position>
            <AltitudeMeters>928.20001220703125</AltitudeMeters>
            <DistanceMeters>122037.05453513</DistanceMeters>
          </Trackpoint>
          <Trackpoint>
            <Time>2021-07-28T10:40:01.000Z</Time>
            <Position>
              <LatitudeDegrees>41.48478881455957889556884765625</LatitudeDegrees>
              <LongitudeDegrees>-2.85120368935167789459228515625</LongitudeDegrees>
            </Position>
            <AltitudeMeters>928.4000244140625</AltitudeMeters>
            <DistanceMeters>122100.08225259</DistanceMeters>
          </Trackpoint>
          <Trackpoint>
            <Time>2021-07-28T10:40:14.000Z</Time>
            <Position>
              <LatitudeDegrees>41.4851697720587253570556640625</LatitudeDegrees>
              <LongitudeDegrees>-2.85066607408225536346435546875</LongitudeDegrees>
            </Position>
            <AltitudeMeters>928.79998779296875</AltitudeMeters>
            <DistanceMeters>122161.78525763</DistanceMeters>
          </Trackpoint>
          <Trackpoint>
            <Time>2021-07-28T10:40:24.000Z</Time>
            <Position>
              <LatitudeDegrees>41.48545819334685802459716796875</LatitudeDegrees>
              <LongitudeDegrees>-2.85025904886424541473388671875</LongitudeDegrees>
            </Position>
            <AltitudeMeters>928.79998779296875</AltitudeMeters>
            <DistanceMeters>122208.50014299</DistanceMeters>
          </Trackpoint>
          <Trackpoint>
            <Time>2021-07-28T10:40:38.000Z</Time>
            <Position>
              <LatitudeDegrees>41.48583076894283294677734375</LatitudeDegrees>
              <LongitudeDegrees>-2.8497355990111827850341796875</LongitudeDegrees>
            </Position>
            <AltitudeMeters>929.20001220703125</AltitudeMeters>
            <DistanceMeters>122268.70374772</DistanceMeters>
          </Trackpoint>
          <Trackpoint>
            <Time>2021-07-28T10:40:46.000Z</Time>
            <Position>
              <LatitudeDegrees>41.48602397181093692779541015625</LatitudeDegrees>
              <LongitudeDegrees>-2.84945589490234851837158203125</LongitudeDegrees>
            </Position>
            <AltitudeMeters>930</AltitudeMeters>
            <DistanceMeters>122300.42602205</DistanceMeters>
          </Trackpoint>
          <Trackpoint>
            <Time>2021-07-28T10:40:59.000Z</Time>
            <Position>
              <LatitudeDegrees>41.486342065036296844482421875</LatitudeDegrees>
              <LongitudeDegrees>-2.84900821745395660400390625</LongitudeDegrees>
            </Position>
            <AltitudeMeters>931</AltitudeMeters>
            <DistanceMeters>122351.87243559</DistanceMeters>
          </Trackpoint>
          <Trackpoint>
            <Time>2021-07-28T10:41:14.000Z</Time>
            <Position>
              <LatitudeDegrees>41.48671715520322322845458984375</LatitudeDegrees>
              <LongitudeDegrees>-2.84847152419388294219970703125</LongitudeDegrees>
            </Position>
            <AltitudeMeters>930.79998779296875</AltitudeMeters>
            <DistanceMeters>122413.0714103</DistanceMeters>
          </Trackpoint>
          <Trackpoint>
            <Time>2021-07-28T10:41:29.000Z</Time>
            <Position>
              <LatitudeDegrees>41.48709920234978199005126953125</LatitudeDegrees>
              <LongitudeDegrees>-2.847945392131805419921875</LongitudeDegrees>
            </Position>
            <AltitudeMeters>931.5999755859375</AltitudeMeters>
            <DistanceMeters>122474.16575446</DistanceMeters>
          </Trackpoint>
          <Trackpoint>
            <Time>2021-07-28T10:41:38.000Z</Time>
            <Position>
              <LatitudeDegrees>41.48731981404125690460205078125</LatitudeDegrees>
              <LongitudeDegrees>-2.84762813709676265716552734375</LongitudeDegrees>
            </Position>
            <AltitudeMeters>932.20001220703125</AltitudeMeters>
            <DistanceMeters>122510.25739597</DistanceMeters>
          </Trackpoint>
          <Trackpoint>
            <Time>2021-07-28T10:41:45.000Z</Time>
            <Position>
              <LatitudeDegrees>41.4874918945133686065673828125</LatitudeDegrees>
              <LongitudeDegrees>-2.8473869897425174713134765625</LongitudeDegrees>
            </Position>
            <AltitudeMeters>933.4000244140625</AltitudeMeters>
            <DistanceMeters>122538.02569134</DistanceMeters>
          </Trackpoint>
          <Trackpoint>
            <Time>2021-07-28T10:42:03.000Z</Time>
            <Position>
              <LatitudeDegrees>41.487875282764434814453125</LatitudeDegrees>
              <LongitudeDegrees>-2.8468475304543972015380859375</LongitudeDegrees>
            </Position>
            <AltitudeMeters>934.5999755859375</AltitudeMeters>
            <DistanceMeters>122600.02506989</DistanceMeters>
          </Trackpoint>
          <Trackpoint>
            <Time>2021-07-28T10:42:08.000Z</Time>
            <Position>
              <LatitudeDegrees>41.48797846399247646331787109375</LatitudeDegrees>
              <LongitudeDegrees>-2.846705205738544464111328125</LongitudeDegrees>
            </Position>
            <AltitudeMeters>935.5999755859375</AltitudeMeters>
            <DistanceMeters>122616.53895219</DistanceMeters>
          </Trackpoint>
          <Trackpoint>
            <Time>2021-07-28T10:42:24.000Z</Time>
            <Position>
              <LatitudeDegrees>41.4882982335984706878662109375</LatitudeDegrees>
              <LongitudeDegrees>-2.84625828266143798828125</LongitudeDegrees>
            </Position>
            <AltitudeMeters>936.79998779296875</AltitudeMeters>
            <DistanceMeters>122668.06770831</DistanceMeters>
          </Trackpoint>
          <Trackpoint>
            <Time>2021-07-28T10:42:29.000Z</Time>
            <Position>
              <LatitudeDegrees>41.488395631313323974609375</LatitudeDegrees>
              <LongitudeDegrees>-2.84612081944942474365234375</LongitudeDegrees>
            </Position>
            <AltitudeMeters>937.79998779296875</AltitudeMeters>
            <DistanceMeters>122683.84328776</DistanceMeters>
          </Trackpoint>
          <Trackpoint>
            <Time>2021-07-28T10:42:39.000Z</Time>
            <Position>
              <LatitudeDegrees>41.48858682252466678619384765625</LatitudeDegrees>
              <LongitudeDegrees>-2.84583918750286102294921875</LongitudeDegrees>
            </Position>
            <AltitudeMeters>939</AltitudeMeters>
            <DistanceMeters>122715.53223932</DistanceMeters>
          </Trackpoint>
          <Trackpoint>
            <Time>2021-07-28T10:42:49.000Z</Time>
            <Position>
              <LatitudeDegrees>41.4887813664972782135009765625</LatitudeDegrees>
              <LongitudeDegrees>-2.845560573041439056396484375</LongitudeDegrees>
            </Position>
            <AltitudeMeters>940.20001220703125</AltitudeMeters>
            <DistanceMeters>122747.28851235</DistanceMeters>
          </Trackpoint>
          <Trackpoint>
            <Time>2021-07-28T10:42:57.000Z</Time>
            <Position>
              <LatitudeDegrees>41.4889409579336643218994140625</LatitudeDegrees>
              <LongitudeDegrees>-2.84533551894128322601318359375</LongitudeDegrees>
            </Position>
            <AltitudeMeters>941.20001220703125</AltitudeMeters>
            <DistanceMeters>122773.12651889</DistanceMeters>
          </Trackpoint>
          <Trackpoint>
            <Time>2021-07-28T10:43:04.000Z</Time>
            <Position>
              <LatitudeDegrees>41.4890767447650432586669921875</LatitudeDegrees>
              <LongitudeDegrees>-2.845141477882862091064453125</LongitudeDegrees>
            </Position>
            <AltitudeMeters>942.4000244140625</AltitudeMeters>
            <DistanceMeters>122795.26590798</DistanceMeters>
          </Trackpoint>
          <Trackpoint>
            <Time>2021-07-28T10:43:12.000Z</Time>
            <Position>
              <LatitudeDegrees>41.48923046886920928955078125</LatitudeDegrees>
              <LongitudeDegrees>-2.84492866136133670806884765625</LongitudeDegrees>
            </Position>
            <AltitudeMeters>943.4000244140625</AltitudeMeters>
            <DistanceMeters>122819.91485589</DistanceMeters>
          </Trackpoint>
          <Trackpoint>
            <Time>2021-07-28T10:43:20.000Z</Time>
            <Position>
              <LatitudeDegrees>41.48937555961310863494873046875</LatitudeDegrees>
              <LongitudeDegrees>-2.84471877850592136383056640625</LongitudeDegrees>
            </Position>
            <AltitudeMeters>944.5999755859375</AltitudeMeters>
            <DistanceMeters>122843.7265862</DistanceMeters>
          </Trackpoint>
          <Trackpoint>
            <Time>2021-07-28T10:43:40.000Z</Time>
            <Position>
              <LatitudeDegrees>41.48968535475432872772216796875</LatitudeDegrees>
              <LongitudeDegrees>-2.8442528285086154937744140625</LongitudeDegrees>
            </Position>
            <AltitudeMeters>945.5999755859375</AltitudeMeters>
            <DistanceMeters>122895.66979115</DistanceMeters>
          </Trackpoint>
          <Trackpoint>
            <Time>2021-07-28T10:43:46.000Z</Time>
            <Position>
              <LatitudeDegrees>41.4897648990154266357421875</LatitudeDegrees>
              <LongitudeDegrees>-2.84412517212331295013427734375</LongitudeDegrees>
            </Position>
            <AltitudeMeters>946.5999755859375</AltitudeMeters>
            <DistanceMeters>122909.51371915</DistanceMeters>
          </Trackpoint>
          <Trackpoint>
            <Time>2021-07-28T10:44:00.000Z</Time>
            <Position>
              <LatitudeDegrees>41.4899407513439655303955078125</LatitudeDegrees>
              <LongitudeDegrees>-2.84381051547825336456298828125</LongitudeDegrees>
            </Position>
            <AltitudeMeters>947.79998779296875</AltitudeMeters>
            <DistanceMeters>122942.24459462</DistanceMeters>
          </Trackpoint>
          <Trackpoint>
            <Time>2021-07-28T10:44:05.000Z</Time>
            <Position>
              <LatitudeDegrees>41.49000336416065692901611328125</LatitudeDegrees>
              <LongitudeDegrees>-2.84369467757642269134521484375</LongitudeDegrees>
            </Position>
            <AltitudeMeters>948.79998779296875</AltitudeMeters>
            <DistanceMeters>122954.15406189</DistanceMeters>
          </Trackpoint>
          <Trackpoint>
            <Time>2021-07-28T10:44:20.000Z</Time>
            <Position>
              <LatitudeDegrees>41.490191705524921417236328125</LatitudeDegrees>
              <LongitudeDegrees>-2.8433413803577423095703125</LongitudeDegrees>
            </Position>
            <AltitudeMeters>950</AltitudeMeters>
            <DistanceMeters>122990.30744963</DistanceMeters>
          </Trackpoint>
          <Trackpoint>
            <Time>2021-07-28T10:44:30.000Z</Time>
            <Position>
              <LatitudeDegrees>41.4903206191956996917724609375</LatitudeDegrees>
              <LongitudeDegrees>-2.84310073591768741607666015625</LongitudeDegrees>
            </Position>
            <AltitudeMeters>951.20001220703125</AltitudeMeters>
            <DistanceMeters>123014.97342681</DistanceMeters>
          </Trackpoint>
          <Trackpoint>
            <Time>2021-07-28T10:44:41.000Z</Time>
            <Position>
              <LatitudeDegrees>41.4904590882360935211181640625</LatitudeDegrees>
              <LongitudeDegrees>-2.842836789786815643310546875</LongitudeDegrees>
            </Position>
            <AltitudeMeters>952.4000244140625</AltitudeMeters>
            <DistanceMeters>123041.83944699</DistanceMeters>
          </Trackpoint>
          <Trackpoint>
            <Time>2021-07-28T10:44:54.000Z</Time>
            <Position>
              <LatitudeDegrees>41.49063862860202789306640625</LatitudeDegrees>
              <LongitudeDegrees>-2.8425003401935100555419921875</LongitudeDegrees>
            </Position>
            <AltitudeMeters>953.5999755859375</AltitudeMeters>
            <DistanceMeters>123076.28030618</DistanceMeters>
          </Trackpoint>
          <Trackpoint>
            <Time>2021-07-28T10:45:10.000Z</Time>
            <Position>
              <LatitudeDegrees>41.490848176181316375732421875</LatitudeDegrees>
              <LongitudeDegrees>-2.842104546725749969482421875</LongitudeDegrees>
            </Position>
            <AltitudeMeters>954.5999755859375</AltitudeMeters>
            <DistanceMeters>123116.68890109</DistanceMeters>
          </Trackpoint>
          <Trackpoint>
            <Time>2021-07-28T10:45:25.000Z</Time>
            <Position>
              <LatitudeDegrees>41.49104297161102294921875</LatitudeDegrees>
              <LongitudeDegrees>-2.841742448508739471435546875</LongitudeDegrees>
            </Position>
            <AltitudeMeters>955.5999755859375</AltitudeMeters>
            <DistanceMeters>123153.85661766</DistanceMeters>
          </Trackpoint>
          <Trackpoint>
            <Time>2021-07-28T10:45:29.000Z</Time>
            <Position>
              <LatitudeDegrees>41.49109820835292339324951171875</LatitudeDegrees>
              <LongitudeDegrees>-2.84164915792644023895263671875</LongitudeDegrees>
            </Position>
            <AltitudeMeters>956.79998779296875</AltitudeMeters>
            <DistanceMeters>123163.7704137</DistanceMeters>
          </Trackpoint>
          <Trackpoint>
            <Time>2021-07-28T10:45:40.000Z</Time>
            <Position>
              <LatitudeDegrees>41.4912711270153522491455078125</LatitudeDegrees>
              <LongitudeDegrees>-2.84141094423830509185791015625</LongitudeDegrees>
            </Position>
            <AltitudeMeters>957.79998779296875</AltitudeMeters>
            <DistanceMeters>123191.42645291</DistanceMeters>
          </Trackpoint>
          <Trackpoint>
            <Time>2021-07-28T10:45:58.000Z</Time>
            <Position>
              <LatitudeDegrees>41.491630040109157562255859375</LatitudeDegrees>
              <LongitudeDegrees>-2.8410398773849010467529296875</LongitudeDegrees>
            </Position>
            <AltitudeMeters>959</AltitudeMeters>
            <DistanceMeters>123241.95243486</DistanceMeters>
          </Trackpoint>
          <Trackpoint>
            <Time>2021-07-28T10:46:18.000Z</Time>
            <Position>
              <LatitudeDegrees>41.49202289991080760955810546875</LatitudeDegrees>
              <LongitudeDegrees>-2.8405403159558773040771484375</LongitudeDegrees>
            </Position>
            <AltitudeMeters>958.4000244140625</AltitudeMeters>
            <DistanceMeters>123302.33942584</DistanceMeters>
          </Trackpoint>
          <Trackpoint>
            <Time>2021-07-28T10:46:30.000Z</Time>
            <Position>
              <LatitudeDegrees>41.49217125959694385528564453125</LatitudeDegrees>
              <LongitudeDegrees>-2.840166650712490081787109375</LongitudeDegrees>
            </Position>
            <AltitudeMeters>960.20001220703125</AltitudeMeters>
            <DistanceMeters>123337.59779455</DistanceMeters>
          </Trackpoint>
          <Trackpoint>
            <Time>2021-07-28T10:46:49.000Z</Time>
            <Position>
              <LatitudeDegrees>41.492705605924129486083984375</LatitudeDegrees>
              <LongitudeDegrees>-2.83997378312051296234130859375</LongitudeDegrees>
            </Position>
            <AltitudeMeters>959.79998779296875</AltitudeMeters>
            <DistanceMeters>123399.20691946</DistanceMeters>
          </Trackpoint>
          <Trackpoint>
            <Time>2021-07-28T10:47:05.000Z</Time>
            <Position>
              <LatitudeDegrees>41.493180356919765472412109375</LatitudeDegrees>
              <LongitudeDegrees>-2.839570529758930206298828125</LongitudeDegrees>
            </Position>
            <AltitudeMeters>960.4000244140625</AltitudeMeters>
            <DistanceMeters>123461.83579654</DistanceMeters>
          </Trackpoint>
          <Trackpoint>
            <Time>2021-07-28T10:47:20.000Z</Time>
            <Position>
              <LatitudeDegrees>41.49362250231206417083740234375</LatitudeDegrees>
              <LongitudeDegrees>-2.83915453590452671051025390625</LongitudeDegrees>
            </Position>
            <AltitudeMeters>961</AltitudeMeters>
            <DistanceMeters>123522.04000124</DistanceMeters>
          </Trackpoint>
          <Trackpoint>
            <Time>2021-07-28T10:47:27.000Z</Time>
            <Position>
              <LatitudeDegrees>41.49384395219385623931884765625</LatitudeDegrees>
              <LongitudeDegrees>-2.83895052038133144378662109375</LongitudeDegrees>
            </Position>
            <AltitudeMeters>961.20001220703125</AltitudeMeters>
            <DistanceMeters>123551.98683767</DistanceMeters>
          </Trackpoint>
          <Trackpoint>
            <Time>2021-07-28T10:47:32.000Z</Time>
            <Position>
              <LatitudeDegrees>41.49400622583925724029541015625</LatitudeDegrees>
              <LongitudeDegrees>-2.8387975506484508514404296875</LongitudeDegrees>
            </Position>
            <AltitudeMeters>962.20001220703125</AltitudeMeters>
            <DistanceMeters>123574.09684035</DistanceMeters>
          </Trackpoint>
          <Trackpoint>
            <Time>2021-07-28T10:47:46.000Z</Time>
            <Position>
              <LatitudeDegrees>41.49447410367429256439208984375</LatitudeDegrees>
              <LongitudeDegrees>-2.83835674636065959930419921875</LongitudeDegrees>
            </Position>
            <AltitudeMeters>961.79998779296875</AltitudeMeters>
            <DistanceMeters>123637.83348985</DistanceMeters>
          </Trackpoint>
          <Trackpoint>
            <Time>2021-07-28T10:47:59.000Z</Time>
            <Position>
              <LatitudeDegrees>41.49490526877343654632568359375</LatitudeDegrees>
              <LongitudeDegrees>-2.837904207408428192138671875</LongitudeDegrees>
            </Position>
            <AltitudeMeters>962.20001220703125</AltitudeMeters>
            <DistanceMeters>123698.87704172</DistanceMeters>
          </Trackpoint>
          <Trackpoint>
            <Time>2021-07-28T10:48:08.000Z</Time>
            <Position>
              <LatitudeDegrees>41.495207436382770538330078125</LatitudeDegrees>
              <LongitudeDegrees>-2.8375580348074436187744140625</LongitudeDegrees>
            </Position>
            <AltitudeMeters>961</AltitudeMeters>
            <DistanceMeters>123743.19363405</DistanceMeters>
          </Trackpoint>
          <Trackpoint>
            <Time>2021-07-28T10:48:11.000Z</Time>
            <Position>
              <LatitudeDegrees>41.49531732313334941864013671875</LatitudeDegrees>
              <LongitudeDegrees>-2.83743205480277538299560546875</LongitudeDegrees>
            </Position>
            <AltitudeMeters>960</AltitudeMeters>
            <DistanceMeters>123759.31460177</DistanceMeters>
          </Trackpoint>
          <Trackpoint>
            <Time>2021-07-28T10:48:15.000Z</Time>
            <Position>
              <LatitudeDegrees>41.495466269552707672119140625</LatitudeDegrees>
              <LongitudeDegrees>-2.83724899403750896453857421875</LongitudeDegrees>
            </Position>
            <AltitudeMeters>958.79998779296875</AltitudeMeters>
            <DistanceMeters>123781.84755781</DistanceMeters>
          </Trackpoint>
          <Trackpoint>
            <Time>2021-07-28T10:48:26.000Z</Time>
            <Position>
              <LatitudeDegrees>41.49590439163148403167724609375</LatitudeDegrees>
              <LongitudeDegrees>-2.8367255441844463348388671875</LongitudeDegrees>
            </Position>
            <AltitudeMeters>958.5999755859375</AltitudeMeters>
            <DistanceMeters>123847.28585402</DistanceMeters>
          </Trackpoint>
          <Trackpoint>
            <Time>2021-07-28T10:48:29.000Z</Time>
            <Position>
              <LatitudeDegrees>41.49603095836937427520751953125</LatitudeDegrees>
              <LongitudeDegrees>-2.8365746699273586273193359375</LongitudeDegrees>
            </Position>
            <AltitudeMeters>957.4000244140625</AltitudeMeters>
            <DistanceMeters>123866.17060552</DistanceMeters>
          </Trackpoint>
          <Trackpoint>
            <Time>2021-07-28T10:48:39.000Z</Time>
            <Position>
              <LatitudeDegrees>41.496447287499904632568359375</LatitudeDegrees>
              <LongitudeDegrees>-2.836079634726047515869140625</LongitudeDegrees>
            </Position>
            <AltitudeMeters>956.4000244140625</AltitudeMeters>
            <DistanceMeters>123928.22166752</DistanceMeters>
          </Trackpoint>
          <Trackpoint>
            <Time>2021-07-28T10:48:40.000Z</Time>
            <Position>
              <LatitudeDegrees>41.4964856766164302825927734375</LatitudeDegrees>
              <LongitudeDegrees>-2.83603437244892120361328125</LongitudeDegrees>
            </Position>
            <AltitudeMeters>956.20001220703125</AltitudeMeters>
            <DistanceMeters>123933.92247843</DistanceMeters>
          </Trackpoint>
          <Trackpoint>
            <Time>2021-07-28T10:48:53.000Z</Time>
            <Position>
              <LatitudeDegrees>41.49691876955330371856689453125</LatitudeDegrees>
              <LongitudeDegrees>-2.83551729284226894378662109375</LongitudeDegrees>
            </Position>
            <AltitudeMeters>956.4000244140625</AltitudeMeters>
            <DistanceMeters>123998.5891176</DistanceMeters>
          </Trackpoint>
          <Trackpoint>
            <Time>2021-07-28T10:49:00.000Z</Time>
            <Position>
              <LatitudeDegrees>41.49713904596865177154541015625</LatitudeDegrees>
              <LongitudeDegrees>-2.8352620638906955718994140625</LongitudeDegrees>
            </Position>
            <AltitudeMeters>957.4000244140625</AltitudeMeters>
            <DistanceMeters>124031.05155622</DistanceMeters>
          </Trackpoint>
          <Trackpoint>
            <Time>2021-07-28T10:49:10.000Z</Time>
            <Position>
              <LatitudeDegrees>41.49743475951254367828369140625</LatitudeDegrees>
              <LongitudeDegrees>-2.83490784466266632080078125</LongitudeDegrees>
            </Position>
            <AltitudeMeters>958.5999755859375</AltitudeMeters>
            <DistanceMeters>124075.26992788</DistanceMeters>
          </Trackpoint>
          <Trackpoint>
            <Time>2021-07-28T10:49:16.000Z</Time>
            <Position>
              <LatitudeDegrees>41.4976157248020172119140625</LatitudeDegrees>
              <LongitudeDegrees>-2.834697626531124114990234375</LongitudeDegrees>
            </Position>
            <AltitudeMeters>957.4000244140625</AltitudeMeters>
            <DistanceMeters>124101.96820711</DistanceMeters>
          </Trackpoint>
          <Trackpoint>
            <Time>2021-07-28T10:49:21.000Z</Time>
            <Position>
              <LatitudeDegrees>41.4977657608687877655029296875</LatitudeDegrees>
              <LongitudeDegrees>-2.8345157392323017120361328125</LongitudeDegrees>
            </Position>
            <AltitudeMeters>956.20001220703125</AltitudeMeters>
            <DistanceMeters>124124.5241945</DistanceMeters>
          </Trackpoint>
          <Trackpoint>
            <Time>2021-07-28T10:49:32.000Z</Time>
            <Position>
              <LatitudeDegrees>41.49819315411150455474853515625</LatitudeDegrees>
              <LongitudeDegrees>-2.83399966545403003692626953125</LongitudeDegrees>
            </Position>
            <AltitudeMeters>955.5999755859375</AltitudeMeters>
            <DistanceMeters>124188.66243999</DistanceMeters>
          </Trackpoint>
          <Trackpoint>
            <Time>2021-07-28T10:49:33.000Z</Time>
            <Position>
              <LatitudeDegrees>41.49824269115924835205078125</LatitudeDegrees>
              <LongitudeDegrees>-2.83393814228475093841552734375</LongitudeDegrees>
            </Position>
            <AltitudeMeters>954.5999755859375</AltitudeMeters>
            <DistanceMeters>124196.19177063</DistanceMeters>
          </Trackpoint>
          <Trackpoint>
            <Time>2021-07-28T10:49:35.000Z</Time>
            <Position>
              <LatitudeDegrees>41.49834930896759033203125</LatitudeDegrees>
              <LongitudeDegrees>-2.83381191082298755645751953125</LongitudeDegrees>
            </Position>
            <AltitudeMeters>952.5999755859375</AltitudeMeters>
            <DistanceMeters>124212.05184029</DistanceMeters>
          </Trackpoint>
          <Trackpoint>
            <Time>2021-07-28T10:49:37.000Z</Time>
            <Position>
              <LatitudeDegrees>41.49846120737493038177490234375</LatitudeDegrees>
              <LongitudeDegrees>-2.83367712981998920440673828125</LongitudeDegrees>
            </Position>
            <AltitudeMeters>951.4000244140625</AltitudeMeters>
            <DistanceMeters>124228.82560319</DistanceMeters>
          </Trackpoint>
          <Trackpoint>
            <Time>2021-07-28T10:49:40.000Z</Time>
            <Position>
              <LatitudeDegrees>41.49863890372216701507568359375</LatitudeDegrees>
              <LongitudeDegrees>-2.83346406184136867523193359375</LongitudeDegrees>
            </Position>
            <AltitudeMeters>950</AltitudeMeters>
            <DistanceMeters>124255.40863654</DistanceMeters>
          </Trackpoint>
          <Trackpoint>
            <Time>2021-07-28T10:49:45.000Z</Time>
            <Position>
              <LatitudeDegrees>41.49895071052014827728271484375</LatitudeDegrees>
              <LongitudeDegrees>-2.833087630569934844970703125</LongitudeDegrees>
            </Position>
            <AltitudeMeters>948.4000244140625</AltitudeMeters>
            <DistanceMeters>124302.19672596</DistanceMeters>
          </Trackpoint>
          <Trackpoint>
            <Time>2021-07-28T10:49:47.000Z</Time>
            <Position>
              <LatitudeDegrees>41.49907995946705341339111328125</LatitudeDegrees>
              <LongitudeDegrees>-2.83293373882770538330078125</LongitudeDegrees>
            </Position>
            <AltitudeMeters>946.79998779296875</AltitudeMeters>
            <DistanceMeters>124321.47146085</DistanceMeters>
          </Trackpoint>
          <Trackpoint>
            <Time>2021-07-28T10:49:49.000Z</Time>
            <Position>
              <LatitudeDegrees>41.49920786730945110321044921875</LatitudeDegrees>
              <LongitudeDegrees>-2.8327783383429050445556640625</LongitudeDegrees>
            </Position>
            <AltitudeMeters>945.5999755859375</AltitudeMeters>
            <DistanceMeters>124340.71947312</DistanceMeters>
          </Trackpoint>
          <Trackpoint>
            <Time>2021-07-28T10:49:52.000Z</Time>
            <Position>
              <LatitudeDegrees>41.49940006434917449951171875</LatitudeDegrees>
              <LongitudeDegrees>-2.83254825510084629058837890625</LongitudeDegrees>
            </Position>
            <AltitudeMeters>944.5999755859375</AltitudeMeters>
            <DistanceMeters>124369.45087525</DistanceMeters>
          </Trackpoint>
          <Trackpoint>
            <Time>2021-07-28T10:49:58.000Z</Time>
            <Position>
              <LatitudeDegrees>41.49978588335216045379638671875</LatitudeDegrees>
              <LongitudeDegrees>-2.8320886753499507904052734375</LongitudeDegrees>
            </Position>
            <AltitudeMeters>943.4000244140625</AltitudeMeters>
            <DistanceMeters>124426.99886831</DistanceMeters>
          </Trackpoint>
          <Trackpoint>
            <Time>2021-07-28T10:50:05.000Z</Time>
            <Position>
              <LatitudeDegrees>41.50022241286933422088623046875</LatitudeDegrees>
              <LongitudeDegrees>-2.83156405203044414520263671875</LongitudeDegrees>
            </Position>
            <AltitudeMeters>943</AltitudeMeters>
            <DistanceMeters>124492.36861472</DistanceMeters>
          </Trackpoint>
          <Trackpoint>
            <Time>2021-07-28T10:50:07.000Z</Time>
            <Position>
              <LatitudeDegrees>41.50033674202859401702880859375</LatitudeDegrees>
              <LongitudeDegrees>-2.83142725937068462371826171875</LongitudeDegrees>
            </Position>
            <AltitudeMeters>942.20001220703125</AltitudeMeters>
            <DistanceMeters>124509.45546439</DistanceMeters>
          </Trackpoint>
          <Trackpoint>
            <Time>2021-07-28T10:50:16.000Z</Time>
            <Position>
              <LatitudeDegrees>41.50076841004192829132080078125</LatitudeDegrees>
              <LongitudeDegrees>-2.830909676849842071533203125</LongitudeDegrees>
            </Position>
            <AltitudeMeters>943.20001220703125</AltitudeMeters>
            <DistanceMeters>124574.03029462</DistanceMeters>
          </Trackpoint>
          <Trackpoint>
            <Time>2021-07-28T10:50:17.000Z</Time>
            <Position>
              <LatitudeDegrees>41.50081048719584941864013671875</LatitudeDegrees>
              <LongitudeDegrees>-2.8308598883450031280517578125</LongitudeDegrees>
            </Position>
            <AltitudeMeters>943.5999755859375</AltitudeMeters>
            <DistanceMeters>124580.28836474</DistanceMeters>
          </Trackpoint>
          <Trackpoint>
            <Time>2021-07-28T10:50:26.000Z</Time>
            <Position>
              <LatitudeDegrees>41.50116227567195892333984375</LatitudeDegrees>
              <LongitudeDegrees>-2.83043526113033294677734375</LongitudeDegrees>
            </Position>
            <AltitudeMeters>944.5999755859375</AltitudeMeters>
            <DistanceMeters>124633.07106422</DistanceMeters>
          </Trackpoint>
          <Trackpoint>
            <Time>2021-07-28T10:50:37.000Z</Time>
            <Position>
              <LatitudeDegrees>41.50157843716442584991455078125</LatitudeDegrees>
              <LongitudeDegrees>-2.82993595115840435028076171875</LongitudeDegrees>
            </Position>
            <AltitudeMeters>943.79998779296875</AltitudeMeters>
            <DistanceMeters>124695.34358624</DistanceMeters>
          </Trackpoint>
          <Trackpoint>
            <Time>2021-07-28T10:50:39.000Z</Time>
            <Position>
              <LatitudeDegrees>41.50165311992168426513671875</LatitudeDegrees>
              <LongitudeDegrees>-2.829846180975437164306640625</LongitudeDegrees>
            </Position>
            <AltitudeMeters>943.4000244140625</AltitudeMeters>
            <DistanceMeters>124706.52770976</DistanceMeters>
          </Trackpoint>
          <Trackpoint>
            <Time>2021-07-28T10:50:45.000Z</Time>
            <Position>
              <LatitudeDegrees>41.50186710990965366363525390625</LatitudeDegrees>
              <LongitudeDegrees>-2.82958759926259517669677734375</LongitudeDegrees>
            </Position>
            <AltitudeMeters>944.5999755859375</AltitudeMeters>
            <DistanceMeters>124738.65067499</DistanceMeters>
          </Trackpoint>
          <Trackpoint>
            <Time>2021-07-28T10:50:57.000Z</Time>
            <Position>
              <LatitudeDegrees>41.50229282677173614501953125</LatitudeDegrees>
              <LongitudeDegrees>-2.82908149994909763336181640625</LongitudeDegrees>
            </Position>
            <AltitudeMeters>944.5999755859375</AltitudeMeters>
            <DistanceMeters>124802.09308867</DistanceMeters>
          </Trackpoint>
          <Trackpoint>
            <Time>2021-07-28T10:51:08.000Z</Time>
            <Position>
              <LatitudeDegrees>41.50270747952163219451904296875</LatitudeDegrees>
              <LongitudeDegrees>-2.82859249971807003021240234375</LongitudeDegrees>
            </Position>
            <AltitudeMeters>944.5999755859375</AltitudeMeters>
            <DistanceMeters>124863.66819985</DistanceMeters>
          </Trackpoint>
          <Trackpoint>
            <Time>2021-07-28T10:51:12.000Z</Time>
            <Position>
              <LatitudeDegrees>41.50287880562245845794677734375</LatitudeDegrees>
              <LongitudeDegrees>-2.828397452831268310546875</LongitudeDegrees>
            </Position>
            <AltitudeMeters>943.5999755859375</AltitudeMeters>
            <DistanceMeters>124888.72752099</DistanceMeters>
          </Trackpoint>
          <Trackpoint>
            <Time>2021-07-28T10:51:14.000Z</Time>
            <Position>
              <LatitudeDegrees>41.5029699169099330902099609375</LatitudeDegrees>
              <LongitudeDegrees>-2.82829192467033863067626953125</LongitudeDegrees>
            </Position>
            <AltitudeMeters>942.4000244140625</AltitudeMeters>
            <DistanceMeters>124902.15220965</DistanceMeters>
          </Trackpoint>
          <Trackpoint>
            <Time>2021-07-28T10:51:16.000Z</Time>
            <Position>
              <LatitudeDegrees>41.50306538678705692291259765625</LatitudeDegrees>
              <LongitudeDegrees>-2.8281796909868717193603515625</LongitudeDegrees>
            </Position>
            <AltitudeMeters>941</AltitudeMeters>
            <DistanceMeters>124916.30991451</DistanceMeters>
          </Trackpoint>
          <Trackpoint>
            <Time>2021-07-28T10:51:18.000Z</Time>
            <Position>
              <LatitudeDegrees>41.50316647253930568695068359375</LatitudeDegrees>
              <LongitudeDegrees>-2.82806309871375560760498046875</LongitudeDegrees>
            </Position>
            <AltitudeMeters>940</AltitudeMeters>
            <DistanceMeters>124931.17757207</DistanceMeters>
          </Trackpoint>
          <Trackpoint>
            <Time>2021-07-28T10:51:22.000Z</Time>
            <Position>
              <LatitudeDegrees>41.50338037870824337005615234375</LatitudeDegrees>
              <LongitudeDegrees>-2.82781415618956089019775390625</LongitudeDegrees>
            </Position>
            <AltitudeMeters>939</AltitudeMeters>
            <DistanceMeters>124962.75962589</DistanceMeters>
          </Trackpoint>
          <Trackpoint>
            <Time>2021-07-28T10:51:25.000Z</Time>
            <Position>
              <LatitudeDegrees>41.503556482493877410888671875</LatitudeDegrees>
              <LongitudeDegrees>-2.82761366106569766998291015625</LongitudeDegrees>
            </Position>
            <AltitudeMeters>937.5999755859375</AltitudeMeters>
            <DistanceMeters>124988.51800116</DistanceMeters>
          </Trackpoint>
          <Trackpoint>
            <Time>2021-07-28T10:51:27.000Z</Time>
            <Position>
              <LatitudeDegrees>41.50367642752826213836669921875</LatitudeDegrees>
              <LongitudeDegrees>-2.82746882177889347076416015625</LongitudeDegrees>
            </Position>
            <AltitudeMeters>936.4000244140625</AltitudeMeters>
            <DistanceMeters>125006.51797735</DistanceMeters>
          </Trackpoint>
          <Trackpoint>
            <Time>2021-07-28T10:51:29.000Z</Time>
            <Position>
              <LatitudeDegrees>41.50379997678101062774658203125</LatitudeDegrees>
              <LongitudeDegrees>-2.82732255756855010986328125</LongitudeDegrees>
            </Position>
            <AltitudeMeters>935.20001220703125</AltitudeMeters>
            <DistanceMeters>125024.89576066</DistanceMeters>
          </Trackpoint>
          <Trackpoint>
            <Time>2021-07-28T10:51:31.000Z</Time>
            <Position>
              <LatitudeDegrees>41.5039269626140594482421875</LatitudeDegrees>
              <LongitudeDegrees>-2.8271757066249847412109375</LongitudeDegrees>
            </Position>
            <AltitudeMeters>933.5999755859375</AltitudeMeters>
            <DistanceMeters>125043.59333829</DistanceMeters>
          </Trackpoint>
          <Trackpoint>
            <Time>2021-07-28T10:51:37.000Z</Time>
            <Position>
              <LatitudeDegrees>41.50431429035961627960205078125</LatitudeDegrees>
              <LongitudeDegrees>-2.82673154957592487335205078125</LongitudeDegrees>
            </Position>
            <AltitudeMeters>932.5999755859375</AltitudeMeters>
            <DistanceMeters>125100.41923403</DistanceMeters>
          </Trackpoint>
          <Trackpoint>
            <Time>2021-07-28T10:51:44.000Z</Time>
            <Position>
              <LatitudeDegrees>41.50474696420133113861083984375</LatitudeDegrees>
              <LongitudeDegrees>-2.82622327096760272979736328125</LongitudeDegrees>
            </Position>
            <AltitudeMeters>932.4000244140625</AltitudeMeters>
            <DistanceMeters>125164.56078802</DistanceMeters>
          </Trackpoint>
          <Trackpoint>
            <Time>2021-07-28T10:51:47.000Z</Time>
            <Position>
              <LatitudeDegrees>41.5049198828637599945068359375</LatitudeDegrees>
              <LongitudeDegrees>-2.82601975835859775543212890625</LongitudeDegrees>
            </Position>
            <AltitudeMeters>931.4000244140625</AltitudeMeters>
            <DistanceMeters>125190.21588911</DistanceMeters>
          </Trackpoint>
          <Trackpoint>
            <Time>2021-07-28T10:51:55.000Z</Time>
            <Position>
              <LatitudeDegrees>41.50534979067742824554443359375</LatitudeDegrees>
              <LongitudeDegrees>-2.825523801147937774658203125</LongitudeDegrees>
            </Position>
            <AltitudeMeters>931.4000244140625</AltitudeMeters>
            <DistanceMeters>125253.45015221</DistanceMeters>
          </Trackpoint>
          <Trackpoint>
            <Time>2021-07-28T10:52:03.000Z</Time>
            <Position>
              <LatitudeDegrees>41.5057570673525333404541015625</LatitudeDegrees>
              <LongitudeDegrees>-2.82504829578101634979248046875</LongitudeDegrees>
            </Position>
            <AltitudeMeters>931</AltitudeMeters>
            <DistanceMeters>125313.66470539</DistanceMeters>
          </Trackpoint>
          <Trackpoint>
            <Time>2021-07-28T10:52:10.000Z</Time>
            <Position>
              <LatitudeDegrees>41.506102569401264190673828125</LatitudeDegrees>
              <LongitudeDegrees>-2.82465015538036823272705078125</LongitudeDegrees>
            </Position>
            <AltitudeMeters>930.5999755859375</AltitudeMeters>
            <DistanceMeters>125364.45948427</DistanceMeters>
          </Trackpoint>
          <Trackpoint>
            <Time>2021-07-28T10:52:17.000Z</Time>
            <Position>
              <LatitudeDegrees>41.50643994100391864776611328125</LatitudeDegrees>
              <LongitudeDegrees>-2.82425452955067157745361328125</LongitudeDegrees>
            </Position>
            <AltitudeMeters>929.5999755859375</AltitudeMeters>
            <DistanceMeters>125414.43396018</DistanceMeters>
          </Trackpoint>
          <Trackpoint>
            <Time>2021-07-28T10:52:26.000Z</Time>
            <Position>
              <LatitudeDegrees>41.50686255656182765960693359375</LatitudeDegrees>
              <LongitudeDegrees>-2.82376837916672229766845703125</LongitudeDegrees>
            </Position>
            <AltitudeMeters>928.79998779296875</AltitudeMeters>
            <DistanceMeters>125476.51906605</DistanceMeters>
          </Trackpoint>
          <Trackpoint>
            <Time>2021-07-28T10:52:27.000Z</Time>
            <Position>
              <LatitudeDegrees>41.506909243762493133544921875</LatitudeDegrees>
              <LongitudeDegrees>-2.82371364533901214599609375</LongitudeDegrees>
            </Position>
            <AltitudeMeters>928.20001220703125</AltitudeMeters>
            <DistanceMeters>125483.43385128</DistanceMeters>
          </Trackpoint>
          <Trackpoint>
            <Time>2021-07-28T10:52:31.000Z</Time>
            <Position>
              <LatitudeDegrees>41.50709263980388641357421875</LatitudeDegrees>
              <LongitudeDegrees>-2.82350015826523303985595703125</LongitudeDegrees>
            </Position>
            <AltitudeMeters>927</AltitudeMeters>
            <DistanceMeters>125510.51329713</DistanceMeters>
          </Trackpoint>
          <Trackpoint>
            <Time>2021-07-28T10:52:41.000Z</Time>
            <Position>
              <LatitudeDegrees>41.50751265697181224822998046875</LatitudeDegrees>
              <LongitudeDegrees>-2.82300554215908050537109375</LongitudeDegrees>
            </Position>
            <AltitudeMeters>927</AltitudeMeters>
            <DistanceMeters>125572.84372332</DistanceMeters>
          </Trackpoint>
          <Trackpoint>
            <Time>2021-07-28T10:52:52.000Z</Time>
            <Position>
              <LatitudeDegrees>41.50794533081352710723876953125</LatitudeDegrees>
              <LongitudeDegrees>-2.822498269379138946533203125</LongitudeDegrees>
            </Position>
            <AltitudeMeters>926.4000244140625</AltitudeMeters>
            <DistanceMeters>125636.92844597</DistanceMeters>
          </Trackpoint>
          <Trackpoint>
            <Time>2021-07-28T10:52:56.000Z</Time>
            <Position>
              <LatitudeDegrees>41.50810274295508861541748046875</LatitudeDegrees>
              <LongitudeDegrees>-2.8223190642893314361572265625</LongitudeDegrees>
            </Position>
            <AltitudeMeters>926</AltitudeMeters>
            <DistanceMeters>125659.95159708</DistanceMeters>
          </Trackpoint>
          <Trackpoint>
            <Time>2021-07-28T10:53:06.000Z</Time>
            <Position>
              <LatitudeDegrees>41.508484371006488800048828125</LatitudeDegrees>
              <LongitudeDegrees>-2.82187390141189098358154296875</LongitudeDegrees>
            </Position>
            <AltitudeMeters>924.79998779296875</AltitudeMeters>
            <DistanceMeters>125716.35137304</DistanceMeters>
          </Trackpoint>
          <Trackpoint>
            <Time>2021-07-28T10:53:12.000Z</Time>
            <Position>
              <LatitudeDegrees>41.50871110148727893829345703125</LatitudeDegrees>
              <LongitudeDegrees>-2.8216126374900341033935546875</LongitudeDegrees>
            </Position>
            <AltitudeMeters>926</AltitudeMeters>
            <DistanceMeters>125749.68367787</DistanceMeters>
          </Trackpoint>
          <Trackpoint>
            <Time>2021-07-28T10:53:23.000Z</Time>
            <Position>
              <LatitudeDegrees>41.5091519057750701904296875</LatitudeDegrees>
              <LongitudeDegrees>-2.821102179586887359619140625</LongitudeDegrees>
            </Position>
            <AltitudeMeters>926</AltitudeMeters>
            <DistanceMeters>125814.62440886</DistanceMeters>
          </Trackpoint>
          <Trackpoint>
            <Time>2021-07-28T10:53:28.000Z</Time>
            <Position>
              <LatitudeDegrees>41.509365141391754150390625</LatitudeDegrees>
              <LongitudeDegrees>-2.8208485431969165802001953125</LongitudeDegrees>
            </Position>
            <AltitudeMeters>924.79998779296875</AltitudeMeters>
            <DistanceMeters>125846.40796832</DistanceMeters>
          </Trackpoint>
          <Trackpoint>
            <Time>2021-07-28T10:53:35.000Z</Time>
            <Position>
              <LatitudeDegrees>41.50967485271394252777099609375</LatitudeDegrees>
              <LongitudeDegrees>-2.8204864449799060821533203125</LongitudeDegrees>
            </Position>
            <AltitudeMeters>923.79998779296875</AltitudeMeters>
            <DistanceMeters>125892.22424894</DistanceMeters>
          </Trackpoint>
          <Trackpoint>
            <Time>2021-07-28T10:53:38.000Z</Time>
            <Position>
              <LatitudeDegrees>41.5098065324127674102783203125</LatitudeDegrees>
              <LongitudeDegrees>-2.8203322179615497589111328125</LongitudeDegrees>
            </Position>
            <AltitudeMeters>922.79998779296875</AltitudeMeters>
            <DistanceMeters>125911.71885838</DistanceMeters>
          </Trackpoint>
          <Trackpoint>
            <Time>2021-07-28T10:53:48.000Z</Time>
            <Position>
              <LatitudeDegrees>41.5102273039519786834716796875</LatitudeDegrees>
              <LongitudeDegrees>-2.819842882454395294189453125</LongitudeDegrees>
            </Position>
            <AltitudeMeters>922</AltitudeMeters>
            <DistanceMeters>125973.82127</DistanceMeters>
          </Trackpoint>
          <Trackpoint>
            <Time>2021-07-28T10:53:56.000Z</Time>
            <Position>
              <LatitudeDegrees>41.5105468221008777618408203125</LatitudeDegrees>
              <LongitudeDegrees>-2.81947298906743526458740234375</LongitudeDegrees>
            </Position>
            <AltitudeMeters>921.5999755859375</AltitudeMeters>
            <DistanceMeters>126020.88684184</DistanceMeters>
          </Trackpoint>
          <Trackpoint>
            <Time>2021-07-28T10:54:07.000Z</Time>
            <Position>
              <LatitudeDegrees>41.510984860360622406005859375</LatitudeDegrees>
              <LongitudeDegrees>-2.8189683146774768829345703125</LongitudeDegrees>
            </Position>
            <AltitudeMeters>921.79998779296875</AltitudeMeters>
            <DistanceMeters>126085.27850295</DistanceMeters>
          </Trackpoint>
          <Trackpoint>
            <Time>2021-07-28T10:54:19.000Z</Time>
            <Position>
              <LatitudeDegrees>41.51142843067646026611328125</LatitudeDegrees>
              <LongitudeDegrees>-2.81845861114561557769775390625</LongitudeDegrees>
            </Position>
            <AltitudeMeters>922</AltitudeMeters>
            <DistanceMeters>126150.41000985</DistanceMeters>
          </Trackpoint>
          <Trackpoint>
            <Time>2021-07-28T10:54:22.000Z</Time>
            <Position>
              <LatitudeDegrees>41.51153110899031162261962890625</LatitudeDegrees>
              <LongitudeDegrees>-2.81834277324378490447998046875</LongitudeDegrees>
            </Position>
            <AltitudeMeters>923</AltitudeMeters>
            <DistanceMeters>126165.37060726</DistanceMeters>
          </Trackpoint>
          <Trackpoint>
            <Time>2021-07-28T10:54:33.000Z</Time>
            <Position>
              <LatitudeDegrees>41.51190578006207942962646484375</LatitudeDegrees>
              <LongitudeDegrees>-2.81797531060874462127685546875</LongitudeDegrees>
            </Position>
            <AltitudeMeters>924</AltitudeMeters>
            <DistanceMeters>126217.1103626</DistanceMeters>
          </Trackpoint>
          <Trackpoint>
            <Time>2021-07-28T10:54:46.000Z</Time>
            <Position>
              <LatitudeDegrees>41.51239880360662937164306640625</LatitudeDegrees>
              <LongitudeDegrees>-2.81765461899340152740478515625</LongitudeDegrees>
            </Position>
            <AltitudeMeters>924.4000244140625</AltitudeMeters>
            <DistanceMeters>126278.14799704</DistanceMeters>
          </Trackpoint>
          <Trackpoint>
            <Time>2021-07-28T10:55:00.000Z</Time>
            <Position>
              <LatitudeDegrees>41.51294848881661891937255859375</LatitudeDegrees>
              <LongitudeDegrees>-2.81745328567922115325927734375</LongitudeDegrees>
            </Position>
            <AltitudeMeters>924.5999755859375</AltitudeMeters>
            <DistanceMeters>126341.588418</DistanceMeters>
          </Trackpoint>
          <Trackpoint>
            <Time>2021-07-28T10:55:08.000Z</Time>
            <Position>
              <LatitudeDegrees>41.5132632292807102203369140625</LatitudeDegrees>
              <LongitudeDegrees>-2.81735940836369991302490234375</LongitudeDegrees>
            </Position>
            <AltitudeMeters>925.20001220703125</AltitudeMeters>
            <DistanceMeters>126377.48273895</DistanceMeters>
          </Trackpoint>
          <Trackpoint>
            <Time>2021-07-28T10:55:21.000Z</Time>
            <Position>
              <LatitudeDegrees>41.51379874907433986663818359375</LatitudeDegrees>
              <LongitudeDegrees>-2.817210294306278228759765625</LongitudeDegrees>
            </Position>
            <AltitudeMeters>925</AltitudeMeters>
            <DistanceMeters>126438.36898816</DistanceMeters>
          </Trackpoint>
          <Trackpoint>
            <Time>2021-07-28T10:55:34.000Z</Time>
            <Position>
              <LatitudeDegrees>41.51434524916112422943115234375</LatitudeDegrees>
              <LongitudeDegrees>-2.8170411475002765655517578125</LongitudeDegrees>
            </Position>
            <AltitudeMeters>925.4000244140625</AltitudeMeters>
            <DistanceMeters>126500.80768629</DistanceMeters>
          </Trackpoint>
          <Trackpoint>
            <Time>2021-07-28T10:55:47.000Z</Time>
            <Position>
              <LatitudeDegrees>41.5148956887423992156982421875</LatitudeDegrees>
              <LongitudeDegrees>-2.816858589649200439453125</LongitudeDegrees>
            </Position>
            <AltitudeMeters>925</AltitudeMeters>
            <DistanceMeters>126563.9336115</DistanceMeters>
          </Trackpoint>
          <Trackpoint>
            <Time>2021-07-28T10:56:00.000Z</Time>
            <Position>
              <LatitudeDegrees>41.51541762985289096832275390625</LatitudeDegrees>
              <LongitudeDegrees>-2.8165462799370288848876953125</LongitudeDegrees>
            </Position>
            <AltitudeMeters>925</AltitudeMeters>
            <DistanceMeters>126627.59101378</DistanceMeters>
          </Trackpoint>
          <Trackpoint>
            <Time>2021-07-28T10:56:13.000Z</Time>
            <Position>
              <LatitudeDegrees>41.51587880216538906097412109375</LatitudeDegrees>
              <LongitudeDegrees>-2.81607932411134243011474609375</LongitudeDegrees>
            </Position>
            <AltitudeMeters>924.79998779296875</AltitudeMeters>
            <DistanceMeters>126692.00510885</DistanceMeters>
          </Trackpoint>
          <Trackpoint>
            <Time>2021-07-28T10:56:25.000Z</Time>
            <Position>
              <LatitudeDegrees>41.516284905374050140380859375</LatitudeDegrees>
              <LongitudeDegrees>-2.815564759075641632080078125</LongitudeDegrees>
            </Position>
            <AltitudeMeters>924.5999755859375</AltitudeMeters>
            <DistanceMeters>126754.31119141</DistanceMeters>
          </Trackpoint>
          <Trackpoint>
            <Time>2021-07-28T10:56:36.000Z</Time>
            <Position>
              <LatitudeDegrees>41.51667977683246135711669921875</LatitudeDegrees>
              <LongitudeDegrees>-2.81506679020822048187255859375</LongitudeDegrees>
            </Position>
            <AltitudeMeters>925</AltitudeMeters>
            <DistanceMeters>126814.75849037</DistanceMeters>
          </Trackpoint>
          <Trackpoint>
            <Time>2021-07-28T10:56:48.000Z</Time>
            <Position>
              <LatitudeDegrees>41.5170944295823574066162109375</LatitudeDegrees>
              <LongitudeDegrees>-2.814546190202236175537109375</LongitudeDegrees>
            </Position>
            <AltitudeMeters>924.79998779296875</AltitudeMeters>
            <DistanceMeters>126878.10140502</DistanceMeters>
          </Trackpoint>
          <Trackpoint>
            <Time>2021-07-28T10:57:00.000Z</Time>
            <Position>
              <LatitudeDegrees>41.51750673539936542510986328125</LatitudeDegrees>
              <LongitudeDegrees>-2.81403212808072566986083984375</LongitudeDegrees>
            </Position>
            <AltitudeMeters>924.79998779296875</AltitudeMeters>
            <DistanceMeters>126940.88091732</DistanceMeters>
          </Trackpoint>
          <Trackpoint>
            <Time>2021-07-28T10:57:03.000Z</Time>
            <Position>
              <LatitudeDegrees>41.517607234418392181396484375</LatitudeDegrees>
              <LongitudeDegrees>-2.81390455551445484161376953125</LongitudeDegrees>
            </Position>
            <AltitudeMeters>924.4000244140625</AltitudeMeters>
            <DistanceMeters>126956.31332595</DistanceMeters>
          </Trackpoint>
          <Trackpoint>
            <Time>2021-07-28T10:57:15.000Z</Time>
            <Position>
              <LatitudeDegrees>41.51803110726177692413330078125</LatitudeDegrees>
              <LongitudeDegrees>-2.81342494301497936248779296875</LongitudeDegrees>
            </Position>
            <AltitudeMeters>924.5999755859375</AltitudeMeters>
            <DistanceMeters>127018.14644302</DistanceMeters>
          </Trackpoint>
          <Trackpoint>
            <Time>2021-07-28T10:57:27.000Z</Time>
            <Position>
              <LatitudeDegrees>41.5185126475989818572998046875</LatitudeDegrees>
              <LongitudeDegrees>-2.81303174793720245361328125</LongitudeDegrees>
            </Position>
            <AltitudeMeters>924</AltitudeMeters>
            <DistanceMeters>127080.96592955</DistanceMeters>
          </Trackpoint>
          <Trackpoint>
            <Time>2021-07-28T10:57:34.000Z</Time>
            <Position>
              <LatitudeDegrees>41.518802829086780548095703125</LatitudeDegrees>
              <LongitudeDegrees>-2.81286167912185192108154296875</LongitudeDegrees>
            </Position>
            <AltitudeMeters>925.5999755859375</AltitudeMeters>
            <DistanceMeters>127116.23658947</DistanceMeters>
          </Trackpoint>
          <Trackpoint>
            <Time>2021-07-28T10:57:46.000Z</Time>
            <Position>
              <LatitudeDegrees>41.51932376436889171600341796875</LatitudeDegrees>
              <LongitudeDegrees>-2.8126188553869724273681640625</LongitudeDegrees>
            </Position>
            <AltitudeMeters>925.20001220703125</AltitudeMeters>
            <DistanceMeters>127177.64745199</DistanceMeters>
          </Trackpoint>
          <Trackpoint>
            <Time>2021-07-28T10:57:58.000Z</Time>
            <Position>
              <LatitudeDegrees>41.519840173423290252685546875</LatitudeDegrees>
              <LongitudeDegrees>-2.81238575465977191925048828125</LongitudeDegrees>
            </Position>
            <AltitudeMeters>926</AltitudeMeters>
            <DistanceMeters>127238.31856737</DistanceMeters>
          </Trackpoint>
          <Trackpoint>
            <Time>2021-07-28T10:58:09.000Z</Time>
            <Position>
              <LatitudeDegrees>41.5202936343848705291748046875</LatitudeDegrees>
              <LongitudeDegrees>-2.81219716183841228485107421875</LongitudeDegrees>
            </Position>
            <AltitudeMeters>926.5999755859375</AltitudeMeters>
            <DistanceMeters>127291.17999059</DistanceMeters>
          </Trackpoint>
          <Trackpoint>
            <Time>2021-07-28T10:58:22.000Z</Time>
            <Position>
              <LatitudeDegrees>41.52083954773843288421630859375</LatitudeDegrees>
              <LongitudeDegrees>-2.8120042942464351654052734375</LongitudeDegrees>
            </Position>
            <AltitudeMeters>927.20001220703125</AltitudeMeters>
            <DistanceMeters>127354.03102154</DistanceMeters>
          </Trackpoint>
          <Trackpoint>
            <Time>2021-07-28T10:58:35.000Z</Time>
            <Position>
              <LatitudeDegrees>41.52138210833072662353515625</LatitudeDegrees>
              <LongitudeDegrees>-2.811831124126911163330078125</LongitudeDegrees>
            </Position>
            <AltitudeMeters>926</AltitudeMeters>
            <DistanceMeters>127416.11947259</DistanceMeters>
          </Trackpoint>
          <Trackpoint>
            <Time>2021-07-28T10:58:47.000Z</Time>
            <Position>
              <LatitudeDegrees>41.521956436336040496826171875</LatitudeDegrees>
              <LongitudeDegrees>-2.81172207556664943695068359375</LongitudeDegrees>
            </Position>
            <AltitudeMeters>927.20001220703125</AltitudeMeters>
            <DistanceMeters>127480.68605181</DistanceMeters>
          </Trackpoint>
          <Trackpoint>
            <Time>2021-07-28T10:58:59.000Z</Time>
            <Position>
              <LatitudeDegrees>41.52250000275671482086181640625</LatitudeDegrees>
              <LongitudeDegrees>-2.81160741113126277923583984375</LongitudeDegrees>
            </Position>
            <AltitudeMeters>927.5999755859375</AltitudeMeters>
            <DistanceMeters>127541.93605849</DistanceMeters>
          </Trackpoint>
          <Trackpoint>
            <Time>2021-07-28T10:59:00.000Z</Time>
            <Position>
              <LatitudeDegrees>41.522538475692272186279296875</LatitudeDegrees>
              <LongitudeDegrees>-2.811594419181346893310546875</LongitudeDegrees>
            </Position>
            <AltitudeMeters>927.79998779296875</AltitudeMeters>
            <DistanceMeters>127546.35352328</DistanceMeters>
          </Trackpoint>
          <Trackpoint>
            <Time>2021-07-28T10:59:14.000Z</Time>
            <Position>
              <LatitudeDegrees>41.52309444732964038848876953125</LatitudeDegrees>
              <LongitudeDegrees>-2.811417393386363983154296875</LongitudeDegrees>
            </Position>
            <AltitudeMeters>928.4000244140625</AltitudeMeters>
            <DistanceMeters>127609.96835503</DistanceMeters>
          </Trackpoint>
          <Trackpoint>
            <Time>2021-07-28T10:59:25.000Z</Time>
            <Position>
              <LatitudeDegrees>41.5236277878284454345703125</LatitudeDegrees>
              <LongitudeDegrees>-2.8111966140568256378173828125</LongitudeDegrees>
            </Position>
            <AltitudeMeters>929</AltitudeMeters>
            <DistanceMeters>127672.11575358</DistanceMeters>
          </Trackpoint>
          <Trackpoint>
            <Time>2021-07-28T10:59:36.000Z</Time>
            <Position>
              <LatitudeDegrees>41.524110920727252960205078125</LatitudeDegrees>
              <LongitudeDegrees>-2.81085111200809478759765625</LongitudeDegrees>
            </Position>
            <AltitudeMeters>929.79998779296875</AltitudeMeters>
            <DistanceMeters>127733.1116539</DistanceMeters>
          </Trackpoint>
          <Trackpoint>
            <Time>2021-07-28T10:59:37.000Z</Time>
            <Position>
              <LatitudeDegrees>41.52415551245212554931640625</LatitudeDegrees>
              <LongitudeDegrees>-2.81081817112863063812255859375</LongitudeDegrees>
            </Position>
            <AltitudeMeters>930</AltitudeMeters>
            <DistanceMeters>127738.78467712</DistanceMeters>
          </Trackpoint>
          <Trackpoint>
            <Time>2021-07-28T10:59:48.000Z</Time>
            <Position>
              <LatitudeDegrees>41.52466052211821079254150390625</LatitudeDegrees>
              <LongitudeDegrees>-2.810440398752689361572265625</LongitudeDegrees>
            </Position>
            <AltitudeMeters>929.79998779296875</AltitudeMeters>
            <DistanceMeters>127803.20788377</DistanceMeters>
          </Trackpoint>
          <Trackpoint>
            <Time>2021-07-28T10:59:52.000Z</Time>
            <Position>
              <LatitudeDegrees>41.5248362906277179718017578125</LatitudeDegrees>
              <LongitudeDegrees>-2.81030519865453243255615234375</LongitudeDegrees>
            </Position>
            <AltitudeMeters>929.20001220703125</AltitudeMeters>
            <DistanceMeters>127825.78347932</DistanceMeters>
          </Trackpoint>
          <Trackpoint>
            <Time>2021-07-28T11:00:04.000Z</Time>
            <Position>
              <LatitudeDegrees>41.52532939799129962921142578125</LatitudeDegrees>
              <LongitudeDegrees>-2.8098977543413639068603515625</LongitudeDegrees>
            </Position>
            <AltitudeMeters>928.79998779296875</AltitudeMeters>
            <DistanceMeters>127890.31984239</DistanceMeters>
          </Trackpoint>
          <Trackpoint>
            <Time>2021-07-28T11:00:14.000Z</Time>
            <Position>
              <LatitudeDegrees>41.5257306396961212158203125</LatitudeDegrees>
              <LongitudeDegrees>-2.8095215745270252227783203125</LongitudeDegrees>
            </Position>
            <AltitudeMeters>928.4000244140625</AltitudeMeters>
            <DistanceMeters>127944.8817291</DistanceMeters>
          </Trackpoint>
          <Trackpoint>
            <Time>2021-07-28T11:00:24.000Z</Time>
            <Position>
              <LatitudeDegrees>41.5260845236480236053466796875</LatitudeDegrees>
              <LongitudeDegrees>-2.809131480753421783447265625</LongitudeDegrees>
            </Position>
            <AltitudeMeters>929.4000244140625</AltitudeMeters>
            <DistanceMeters>127995.95043281</DistanceMeters>
          </Trackpoint>
          <Trackpoint>
            <Time>2021-07-28T11:00:36.000Z</Time>
            <Position>
              <LatitudeDegrees>41.5265123359858989715576171875</LatitudeDegrees>
              <LongitudeDegrees>-2.8086498565971851348876953125</LongitudeDegrees>
            </Position>
            <AltitudeMeters>929</AltitudeMeters>
            <DistanceMeters>128058.22317234</DistanceMeters>
          </Trackpoint>
          <Trackpoint>
            <Time>2021-07-28T11:00:48.000Z</Time>
            <Position>
              <LatitudeDegrees>41.5269284136593341827392578125</LatitudeDegrees>
              <LongitudeDegrees>-2.80817233957350254058837890625</LongitudeDegrees>
            </Position>
            <AltitudeMeters>929.4000244140625</AltitudeMeters>
            <DistanceMeters>128119.27929683</DistanceMeters>
          </Trackpoint>
          <Trackpoint>
            <Time>2021-07-28T11:00:57.000Z</Time>
            <Position>
              <LatitudeDegrees>41.5272422321140766143798828125</LatitudeDegrees>
              <LongitudeDegrees>-2.80781979672610759735107421875</LongitudeDegrees>
            </Position>
            <AltitudeMeters>930.4000244140625</AltitudeMeters>
            <DistanceMeters>128164.91854138</DistanceMeters>
          </Trackpoint>
          <Trackpoint>
            <Time>2021-07-28T11:01:09.000Z</Time>
            <Position>
              <LatitudeDegrees>41.52766711078584194183349609375</LatitudeDegrees>
              <LongitudeDegrees>-2.8073362447321414947509765625</LongitudeDegrees>
            </Position>
            <AltitudeMeters>930.4000244140625</AltitudeMeters>
            <DistanceMeters>128227.04552179</DistanceMeters>
          </Trackpoint>
          <Trackpoint>
            <Time>2021-07-28T11:01:21.000Z</Time>
            <Position>
              <LatitudeDegrees>41.52807958424091339111328125</LatitudeDegrees>
              <LongitudeDegrees>-2.80685596168041229248046875</LongitudeDegrees>
            </Position>
            <AltitudeMeters>930.5999755859375</AltitudeMeters>
            <DistanceMeters>128287.94860192</DistanceMeters>
          </Trackpoint>
          <Trackpoint>
            <Time>2021-07-28T11:01:30.000Z</Time>
            <Position>
              <LatitudeDegrees>41.5284096635878086090087890625</LatitudeDegrees>
              <LongitudeDegrees>-2.80652940273284912109375</LongitudeDegrees>
            </Position>
            <AltitudeMeters>931.4000244140625</AltitudeMeters>
            <DistanceMeters>128333.66622975</DistanceMeters>
          </Trackpoint>
          <Trackpoint>
            <Time>2021-07-28T11:01:42.000Z</Time>
            <Position>
              <LatitudeDegrees>41.52886169962584972381591796875</LatitudeDegrees>
              <LongitudeDegrees>-2.806128077208995819091796875</LongitudeDegrees>
            </Position>
            <AltitudeMeters>932.4000244140625</AltitudeMeters>
            <DistanceMeters>128394.07781452</DistanceMeters>
          </Trackpoint>
          <Trackpoint>
            <Time>2021-07-28T11:01:54.000Z</Time>
            <Position>
              <LatitudeDegrees>41.52934181503951549530029296875</LatitudeDegrees>
              <LongitudeDegrees>-2.805712334811687469482421875</LongitudeDegrees>
            </Position>
            <AltitudeMeters>932.20001220703125</AltitudeMeters>
            <DistanceMeters>128457.76138354</DistanceMeters>
          </Trackpoint>
          <Trackpoint>
            <Time>2021-07-28T11:02:03.000Z</Time>
            <Position>
              <LatitudeDegrees>41.52968010865151882171630859375</LatitudeDegrees>
              <LongitudeDegrees>-2.80541871674358844757080078125</LongitudeDegrees>
            </Position>
            <AltitudeMeters>932.79998779296875</AltitudeMeters>
            <DistanceMeters>128502.66429646</DistanceMeters>
          </Trackpoint>
          <Trackpoint>
            <Time>2021-07-28T11:02:16.000Z</Time>
            <Position>
              <LatitudeDegrees>41.5301661752164363861083984375</LatitudeDegrees>
              <LongitudeDegrees>-2.804996855556964874267578125</LongitudeDegrees>
            </Position>
            <AltitudeMeters>933.5999755859375</AltitudeMeters>
            <DistanceMeters>128567.1807875</DistanceMeters>
          </Trackpoint>
          <Trackpoint>
            <Time>2021-07-28T11:02:17.000Z</Time>
            <Position>
              <LatitudeDegrees>41.53020297177135944366455078125</LatitudeDegrees>
              <LongitudeDegrees>-2.80496274121105670928955078125</LongitudeDegrees>
            </Position>
            <AltitudeMeters>933.79998779296875</AltitudeMeters>
            <DistanceMeters>128572.1658422</DistanceMeters>
          </Trackpoint>
          <Trackpoint>
            <Time>2021-07-28T11:02:30.000Z</Time>
            <Position>
              <LatitudeDegrees>41.53068996034562587738037109375</LatitudeDegrees>
              <LongitudeDegrees>-2.8045346774160861968994140625</LongitudeDegrees>
            </Position>
            <AltitudeMeters>933.5999755859375</AltitudeMeters>
            <DistanceMeters>128637.05078977</DistanceMeters>
          </Trackpoint>
          <Trackpoint>
            <Time>2021-07-28T11:02:39.000Z</Time>
            <Position>
              <LatitudeDegrees>41.531015597283840179443359375</LatitudeDegrees>
              <LongitudeDegrees>-2.80422739684581756591796875</LongitudeDegrees>
            </Position>
            <AltitudeMeters>934.79998779296875</AltitudeMeters>
            <DistanceMeters>128681.42572176</DistanceMeters>
          </Trackpoint>
          <Trackpoint>
            <Time>2021-07-28T11:02:51.000Z</Time>
            <Position>
              <LatitudeDegrees>41.53143645264208316802978515625</LatitudeDegrees>
              <LongitudeDegrees>-2.803763039410114288330078125</LongitudeDegrees>
            </Position>
            <AltitudeMeters>935</AltitudeMeters>
            <DistanceMeters>128742.18012841</DistanceMeters>
          </Trackpoint>
          <Trackpoint>
            <Time>2021-07-28T11:03:03.000Z</Time>
            <Position>
              <LatitudeDegrees>41.5318620018661022186279296875</LatitudeDegrees>
              <LongitudeDegrees>-2.803271524608135223388671875</LongitudeDegrees>
            </Position>
            <AltitudeMeters>935.4000244140625</AltitudeMeters>
            <DistanceMeters>128804.79415279</DistanceMeters>
          </Trackpoint>
          <Trackpoint>
            <Time>2021-07-28T11:03:04.000Z</Time>
            <Position>
              <LatitudeDegrees>41.5318975411355495452880859375</LatitudeDegrees>
              <LongitudeDegrees>-2.80322986654937267303466796875</LongitudeDegrees>
            </Position>
            <AltitudeMeters>935.4000244140625</AltitudeMeters>
            <DistanceMeters>128810.05677993</DistanceMeters>
          </Trackpoint>
          <Trackpoint>
            <Time>2021-07-28T11:03:13.000Z</Time>
            <Position>
              <LatitudeDegrees>41.5322173945605754852294921875</LatitudeDegrees>
              <LongitudeDegrees>-2.8028586320579051971435546875</LongitudeDegrees>
            </Position>
            <AltitudeMeters>936.20001220703125</AltitudeMeters>
            <DistanceMeters>128857.21713191</DistanceMeters>
          </Trackpoint>
          <Trackpoint>
            <Time>2021-07-28T11:03:25.000Z</Time>
            <Position>
              <LatitudeDegrees>41.532645709812641143798828125</LatitudeDegrees>
              <LongitudeDegrees>-2.802365608513355255126953125</LongitudeDegrees>
            </Position>
            <AltitudeMeters>935.79998779296875</AltitudeMeters>
            <DistanceMeters>128920.14605788</DistanceMeters>
          </Trackpoint>
          <Trackpoint>
            <Time>2021-07-28T11:03:37.000Z</Time>
            <Position>
              <LatitudeDegrees>41.533062122762203216552734375</LatitudeDegrees>
              <LongitudeDegrees>-2.80188205651938915252685546875</LongitudeDegrees>
            </Position>
            <AltitudeMeters>936</AltitudeMeters>
            <DistanceMeters>128981.55669983</DistanceMeters>
          </Trackpoint>
          <Trackpoint>
            <Time>2021-07-28T11:03:49.000Z</Time>
            <Position>
              <LatitudeDegrees>41.5335055254399776458740234375</LatitudeDegrees>
              <LongitudeDegrees>-2.80141183175146579742431640625</LongitudeDegrees>
            </Position>
            <AltitudeMeters>936</AltitudeMeters>
            <DistanceMeters>129044.56851216</DistanceMeters>
          </Trackpoint>
          <Trackpoint>
            <Time>2021-07-28T11:04:00.000Z</Time>
            <Position>
              <LatitudeDegrees>41.53398941271007061004638671875</LatitudeDegrees>
              <LongitudeDegrees>-2.801094911992549896240234375</LongitudeDegrees>
            </Position>
            <AltitudeMeters>935.20001220703125</AltitudeMeters>
            <DistanceMeters>129104.5506208</DistanceMeters>
          </Trackpoint>
          <Trackpoint>
            <Time>2021-07-28T11:04:12.000Z</Time>
            <Position>
              <LatitudeDegrees>41.534523926675319671630859375</LatitudeDegrees>
              <LongitudeDegrees>-2.80079819262027740478515625</LongitudeDegrees>
            </Position>
            <AltitudeMeters>935.5999755859375</AltitudeMeters>
            <DistanceMeters>129168.97508895</DistanceMeters>
          </Trackpoint>
          <Trackpoint>
            <Time>2021-07-28T11:04:24.000Z</Time>
            <Position>
              <LatitudeDegrees>41.5350513160228729248046875</LatitudeDegrees>
              <LongitudeDegrees>-2.80047657899558544158935546875</LongitudeDegrees>
            </Position>
            <AltitudeMeters>935.4000244140625</AltitudeMeters>
            <DistanceMeters>129233.50109694</DistanceMeters>
          </Trackpoint>
          <Trackpoint>
            <Time>2021-07-28T11:04:28.000Z</Time>
            <Position>
              <LatitudeDegrees>41.53522230684757232666015625</LatitudeDegrees>
              <LongitudeDegrees>-2.80036241747438907623291015625</LongitudeDegrees>
            </Position>
            <AltitudeMeters>935.20001220703125</AltitudeMeters>
            <DistanceMeters>129254.77689709</DistanceMeters>
          </Trackpoint>
          <Trackpoint>
            <Time>2021-07-28T11:04:39.000Z</Time>
            <Position>
              <LatitudeDegrees>41.53570854105055332183837890625</LatitudeDegrees>
              <LongitudeDegrees>-2.800036780536174774169921875</LongitudeDegrees>
            </Position>
            <AltitudeMeters>934.4000244140625</AltitudeMeters>
            <DistanceMeters>129315.3152539</DistanceMeters>
          </Trackpoint>
          <Trackpoint>
            <Time>2021-07-28T11:04:50.000Z</Time>
            <Position>
              <LatitudeDegrees>41.53620642609894275665283203125</LatitudeDegrees>
              <LongitudeDegrees>-2.799703180789947509765625</LongitudeDegrees>
            </Position>
            <AltitudeMeters>934.4000244140625</AltitudeMeters>
            <DistanceMeters>129377.3101172</DistanceMeters>
          </Trackpoint>
          <Trackpoint>
            <Time>2021-07-28T11:04:54.000Z</Time>
            <Position>
              <LatitudeDegrees>41.53639015741646289825439453125</LatitudeDegrees>
              <LongitudeDegrees>-2.79958189465105533599853515625</LongitudeDegrees>
            </Position>
            <AltitudeMeters>934.20001220703125</AltitudeMeters>
            <DistanceMeters>129400.12009187</DistanceMeters>
          </Trackpoint>
          <Trackpoint>
            <Time>2021-07-28T11:05:05.000Z</Time>
            <Position>
              <LatitudeDegrees>41.5368763916194438934326171875</LatitudeDegrees>
              <LongitudeDegrees>-2.79925734736025333404541015625</LongitudeDegrees>
            </Position>
            <AltitudeMeters>934.5999755859375</AltitudeMeters>
            <DistanceMeters>129460.6177135</DistanceMeters>
          </Trackpoint>
          <Trackpoint>
            <Time>2021-07-28T11:05:16.000Z</Time>
            <Position>
              <LatitudeDegrees>41.537376455962657928466796875</LatitudeDegrees>
              <LongitudeDegrees>-2.79892475344240665435791015625</LongitudeDegrees>
            </Position>
            <AltitudeMeters>934.5999755859375</AltitudeMeters>
            <DistanceMeters>129522.7919143</DistanceMeters>
          </Trackpoint>
          <Trackpoint>
            <Time>2021-07-28T11:05:27.000Z</Time>
            <Position>
              <LatitudeDegrees>41.53788976371288299560546875</LatitudeDegrees>
              <LongitudeDegrees>-2.79859836213290691375732421875</LongitudeDegrees>
            </Position>
            <AltitudeMeters>934.20001220703125</AltitudeMeters>
            <DistanceMeters>129586.06515076</DistanceMeters>
          </Trackpoint>
          <Trackpoint>
            <Time>2021-07-28T11:05:38.000Z</Time>
            <Position>
              <LatitudeDegrees>41.5383687056601047515869140625</LatitudeDegrees>
              <LongitudeDegrees>-2.7982656843960285186767578125</LongitudeDegrees>
            </Position>
            <AltitudeMeters>934</AltitudeMeters>
            <DistanceMeters>129646.14683831</DistanceMeters>
          </Trackpoint>
          <Trackpoint>
            <Time>2021-07-28T11:05:49.000Z</Time>
            <Position>
              <LatitudeDegrees>41.53885276056826114654541015625</LatitudeDegrees>
              <LongitudeDegrees>-2.7979451604187488555908203125</LongitudeDegrees>
            </Position>
            <AltitudeMeters>934.4000244140625</AltitudeMeters>
            <DistanceMeters>129706.2775026</DistanceMeters>
          </Trackpoint>
          <Trackpoint>
            <Time>2021-07-28T11:06:00.000Z</Time>
            <Position>
              <LatitudeDegrees>41.53934477828443050384521484375</LatitudeDegrees>
              <LongitudeDegrees>-2.797618098556995391845703125</LongitudeDegrees>
            </Position>
            <AltitudeMeters>934.20001220703125</AltitudeMeters>
            <DistanceMeters>129767.44415473</DistanceMeters>
          </Trackpoint>
          <Trackpoint>
            <Time>2021-07-28T11:06:11.000Z</Time>
            <Position>
              <LatitudeDegrees>41.539832688868045806884765625</LatitudeDegrees>
              <LongitudeDegrees>-2.79729380272328853607177734375</LongitudeDegrees>
            </Position>
            <AltitudeMeters>934.5999755859375</AltitudeMeters>
            <DistanceMeters>129828.09882144</DistanceMeters>
          </Trackpoint>
          <Trackpoint>
            <Time>2021-07-28T11:06:23.000Z</Time>
            <Position>
              <LatitudeDegrees>41.54035429470241069793701171875</LatitudeDegrees>
              <LongitudeDegrees>-2.7969386614859104156494140625</LongitudeDegrees>
            </Position>
            <AltitudeMeters>934.5999755859375</AltitudeMeters>
            <DistanceMeters>129893.2588827</DistanceMeters>
          </Trackpoint>
          <Trackpoint>
            <Time>2021-07-28T11:06:35.000Z</Time>
            <Position>
              <LatitudeDegrees>41.540820412337779998779296875</LatitudeDegrees>
              <LongitudeDegrees>-2.79647505842149257659912109375</LongitudeDegrees>
            </Position>
            <AltitudeMeters>935</AltitudeMeters>
            <DistanceMeters>129957.93634309</DistanceMeters>
          </Trackpoint>
          <Trackpoint>
            <Time>2021-07-28T11:06:39.000Z</Time>
            <Position>
              <LatitudeDegrees>41.5409556962549686431884765625</LatitudeDegrees>
              <LongitudeDegrees>-2.796313203871250152587890625</LongitudeDegrees>
            </Position>
            <AltitudeMeters>935.4000244140625</AltitudeMeters>
            <DistanceMeters>129978.14890722</DistanceMeters>
          </Trackpoint>
          <Trackpoint>
            <Time>2021-07-28T11:06:51.000Z</Time>
            <Position>
              <LatitudeDegrees>41.541371606290340423583984375</LatitudeDegrees>
              <LongitudeDegrees>-2.79582730494439601898193359375</LongitudeDegrees>
            </Position>
            <AltitudeMeters>936</AltitudeMeters>
            <DistanceMeters>130039.64242616</DistanceMeters>
          </Trackpoint>
          <Trackpoint>
            <Time>2021-07-28T11:06:57.000Z</Time>
            <Position>
              <LatitudeDegrees>41.54157922603189945220947265625</LatitudeDegrees>
              <LongitudeDegrees>-2.79557853005826473236083984375</LongitudeDegrees>
            </Position>
            <AltitudeMeters>936.4000244140625</AltitudeMeters>
            <DistanceMeters>130070.68287005</DistanceMeters>
          </Trackpoint>
          <Trackpoint>
            <Time>2021-07-28T11:07:09.000Z</Time>
            <Position>
              <LatitudeDegrees>41.54199044220149517059326171875</LatitudeDegrees>
              <LongitudeDegrees>-2.7951030246913433074951171875</LongitudeDegrees>
            </Position>
            <AltitudeMeters>937.20001220703125</AltitudeMeters>
            <DistanceMeters>130131.21369366</DistanceMeters>
          </Trackpoint>
          <Trackpoint>
            <Time>2021-07-28T11:07:19.000Z</Time>
            <Position>
              <LatitudeDegrees>41.5423323400318622589111328125</LatitudeDegrees>
              <LongitudeDegrees>-2.79471653513610363006591796875</LongitudeDegrees>
            </Position>
            <AltitudeMeters>937.79998779296875</AltitudeMeters>
            <DistanceMeters>130181.06088941</DistanceMeters>
          </Trackpoint>
          <Trackpoint>
            <Time>2021-07-28T11:07:31.000Z</Time>
            <Position>
              <LatitudeDegrees>41.54274213127791881561279296875</LatitudeDegrees>
              <LongitudeDegrees>-2.794234491884708404541015625</LongitudeDegrees>
            </Position>
            <AltitudeMeters>938</AltitudeMeters>
            <DistanceMeters>130241.83000889</DistanceMeters>
          </Trackpoint>
          <Trackpoint>
            <Time>2021-07-28T11:07:43.000Z</Time>
            <Position>
              <LatitudeDegrees>41.54313473962247371673583984375</LatitudeDegrees>
              <LongitudeDegrees>-2.7937250398099422454833984375</LongitudeDegrees>
            </Position>
            <AltitudeMeters>938.5999755859375</AltitudeMeters>
            <DistanceMeters>130302.7451718</DistanceMeters>
          </Trackpoint>
          <Trackpoint>
            <Time>2021-07-28T11:07:51.000Z</Time>
            <Position>
              <LatitudeDegrees>41.54338468797504901885986328125</LatitudeDegrees>
              <LongitudeDegrees>-2.7933461777865886688232421875</LongitudeDegrees>
            </Position>
            <AltitudeMeters>938</AltitudeMeters>
            <DistanceMeters>130344.81700875</DistanceMeters>
          </Trackpoint>
          <Trackpoint>
            <Time>2021-07-28T11:08:03.000Z</Time>
            <Position>
              <LatitudeDegrees>41.5437684953212738037109375</LatitudeDegrees>
              <LongitudeDegrees>-2.79275366105139255523681640625</LongitudeDegrees>
            </Position>
            <AltitudeMeters>937.5999755859375</AltitudeMeters>
            <DistanceMeters>130410.0948976</DistanceMeters>
          </Trackpoint>
          <Trackpoint>
            <Time>2021-07-28T11:08:14.000Z</Time>
            <Position>
              <LatitudeDegrees>41.5441196970641613006591796875</LatitudeDegrees>
              <LongitudeDegrees>-2.79219995252788066864013671875</LongitudeDegrees>
            </Position>
            <AltitudeMeters>937</AltitudeMeters>
            <DistanceMeters>130470.55638672</DistanceMeters>
          </Trackpoint>
          <Trackpoint>
            <Time>2021-07-28T11:08:21.000Z</Time>
            <Position>
              <LatitudeDegrees>41.544353552162647247314453125</LatitudeDegrees>
              <LongitudeDegrees>-2.79184305109083652496337890625</LongitudeDegrees>
            </Position>
            <AltitudeMeters>936.5999755859375</AltitudeMeters>
            <DistanceMeters>130510.07127807</DistanceMeters>
          </Trackpoint>
          <Trackpoint>
            <Time>2021-07-28T11:08:32.000Z</Time>
            <Position>
              <LatitudeDegrees>41.54471104033291339874267578125</LatitudeDegrees>
              <LongitudeDegrees>-2.79128498397767543792724609375</LongitudeDegrees>
            </Position>
            <AltitudeMeters>936.20001220703125</AltitudeMeters>
            <DistanceMeters>130571.26257956</DistanceMeters>
          </Trackpoint>
          <Trackpoint>
            <Time>2021-07-28T11:08:44.000Z</Time>
            <Position>
              <LatitudeDegrees>41.5450849570333957672119140625</LatitudeDegrees>
              <LongitudeDegrees>-2.7907110750675201416015625</LongitudeDegrees>
            </Position>
            <AltitudeMeters>935.79998779296875</AltitudeMeters>
            <DistanceMeters>130634.64739258</DistanceMeters>
          </Trackpoint>
          <Trackpoint>
            <Time>2021-07-28T11:08:56.000Z</Time>
            <Position>
              <LatitudeDegrees>41.54546272940933704376220703125</LatitudeDegrees>
              <LongitudeDegrees>-2.7901278622448444366455078125</LongitudeDegrees>
            </Position>
            <AltitudeMeters>936.79998779296875</AltitudeMeters>
            <DistanceMeters>130698.89866391</DistanceMeters>
          </Trackpoint>
          <Trackpoint>
            <Time>2021-07-28T11:09:08.000Z</Time>
            <Position>
              <LatitudeDegrees>41.54584494419395923614501953125</LatitudeDegrees>
              <LongitudeDegrees>-2.789537273347377777099609375</LongitudeDegrees>
            </Position>
            <AltitudeMeters>936.5999755859375</AltitudeMeters>
            <DistanceMeters>130763.93790737</DistanceMeters>
          </Trackpoint>
          <Trackpoint>
            <Time>2021-07-28T11:09:20.000Z</Time>
            <Position>
              <LatitudeDegrees>41.54620603658258914947509765625</LatitudeDegrees>
              <LongitudeDegrees>-2.78897660784423351287841796875</LongitudeDegrees>
            </Position>
            <AltitudeMeters>936.4000244140625</AltitudeMeters>
            <DistanceMeters>130825.55377415</DistanceMeters>
          </Trackpoint>
          <Trackpoint>
            <Time>2021-07-28T11:09:32.000Z</Time>
            <Position>
              <LatitudeDegrees>41.54658305458724498748779296875</LatitudeDegrees>
              <LongitudeDegrees>-2.788398675620555877685546875</LongitudeDegrees>
            </Position>
            <AltitudeMeters>936.4000244140625</AltitudeMeters>
            <DistanceMeters>130889.41717021</DistanceMeters>
          </Trackpoint>
          <Trackpoint>
            <Time>2021-07-28T11:09:44.000Z</Time>
            <Position>
              <LatitudeDegrees>41.54694079421460628509521484375</LatitudeDegrees>
              <LongitudeDegrees>-2.7878411114215850830078125</LongitudeDegrees>
            </Position>
            <AltitudeMeters>937.20001220703125</AltitudeMeters>
            <DistanceMeters>130950.59356519</DistanceMeters>
          </Trackpoint>
          <Trackpoint>
            <Time>2021-07-28T11:09:57.000Z</Time>
            <Position>
              <LatitudeDegrees>41.54732166789472103118896484375</LatitudeDegrees>
              <LongitudeDegrees>-2.78725764714181423187255859375</LongitudeDegrees>
            </Position>
            <AltitudeMeters>937.5999755859375</AltitudeMeters>
            <DistanceMeters>131015.08590768</DistanceMeters>
          </Trackpoint>
          <Trackpoint>
            <Time>2021-07-28T11:09:59.000Z</Time>
            <Position>
              <LatitudeDegrees>41.5473815985023975372314453125</LatitudeDegrees>
              <LongitudeDegrees>-2.7871730737388134002685546875</LongitudeDegrees>
            </Position>
            <AltitudeMeters>938</AltitudeMeters>
            <DistanceMeters>131024.78747904</DistanceMeters>
          </Trackpoint>
          <Trackpoint>
            <Time>2021-07-28T11:10:11.000Z</Time>
            <Position>
              <LatitudeDegrees>41.54782072640955448150634765625</LatitudeDegrees>
              <LongitudeDegrees>-2.78670310042798519134521484375</LongitudeDegrees>
            </Position>
            <AltitudeMeters>937.5999755859375</AltitudeMeters>
            <DistanceMeters>131087.40885811</DistanceMeters>
          </Trackpoint>
          <Trackpoint>
            <Time>2021-07-28T11:10:22.000Z</Time>
            <Position>
              <LatitudeDegrees>41.54829530976712703704833984375</LatitudeDegrees>
              <LongitudeDegrees>-2.78633303940296173095703125</LongitudeDegrees>
            </Position>
            <AltitudeMeters>937.79998779296875</AltitudeMeters>
            <DistanceMeters>131148.56753766</DistanceMeters>
          </Trackpoint>
          <Trackpoint>
            <Time>2021-07-28T11:10:33.000Z</Time>
            <Position>
              <LatitudeDegrees>41.54880593530833721160888671875</LatitudeDegrees>
              <LongitudeDegrees>-2.7859546802937984466552734375</LongitudeDegrees>
            </Position>
            <AltitudeMeters>937.20001220703125</AltitudeMeters>
            <DistanceMeters>131213.55483406</DistanceMeters>
          </Trackpoint>
          <Trackpoint>
            <Time>2021-07-28T11:10:44.000Z</Time>
            <Position>
              <LatitudeDegrees>41.54931203462183475494384765625</LatitudeDegrees>
              <LongitudeDegrees>-2.7855778299272060394287109375</LongitudeDegrees>
            </Position>
            <AltitudeMeters>938.20001220703125</AltitudeMeters>
            <DistanceMeters>131278.04059538</DistanceMeters>
          </Trackpoint>
          <Trackpoint>
            <Time>2021-07-28T11:10:55.000Z</Time>
            <Position>
              <LatitudeDegrees>41.54981394298374652862548828125</LatitudeDegrees>
              <LongitudeDegrees>-2.7852023206651210784912109375</LongitudeDegrees>
            </Position>
            <AltitudeMeters>938.20001220703125</AltitudeMeters>
            <DistanceMeters>131342.06462821</DistanceMeters>
          </Trackpoint>
          <Trackpoint>
            <Time>2021-07-28T11:11:06.000Z</Time>
            <Position>
              <LatitudeDegrees>41.55032875947654247283935546875</LatitudeDegrees>
              <LongitudeDegrees>-2.78481935150921344757080078125</LongitudeDegrees>
            </Position>
            <AltitudeMeters>937.79998779296875</AltitudeMeters>
            <DistanceMeters>131407.64586783</DistanceMeters>
          </Trackpoint>
          <Trackpoint>
            <Time>2021-07-28T11:11:17.000Z</Time>
            <Position>
              <LatitudeDegrees>41.5508382953703403472900390625</LatitudeDegrees>
              <LongitudeDegrees>-2.78443680144846439361572265625</LongitudeDegrees>
            </Position>
            <AltitudeMeters>937</AltitudeMeters>
            <DistanceMeters>131472.69691165</DistanceMeters>
          </Trackpoint>
          <Trackpoint>
            <Time>2021-07-28T11:11:28.000Z</Time>
            <Position>
              <LatitudeDegrees>41.55134179629385471343994140625</LatitudeDegrees>
              <LongitudeDegrees>-2.78405659832060337066650390625</LongitudeDegrees>
            </Position>
            <AltitudeMeters>937.20001220703125</AltitudeMeters>
            <DistanceMeters>131537.06669211</DistanceMeters>
          </Trackpoint>
          <Trackpoint>
            <Time>2021-07-28T11:11:39.000Z</Time>
            <Position>
              <LatitudeDegrees>41.55184068717062473297119140625</LatitudeDegrees>
              <LongitudeDegrees>-2.7836768142879009246826171875</LongitudeDegrees>
            </Position>
            <AltitudeMeters>937.5999755859375</AltitudeMeters>
            <DistanceMeters>131600.97291703</DistanceMeters>
          </Trackpoint>
          <Trackpoint>
            <Time>2021-07-28T11:11:50.000Z</Time>
            <Position>
              <LatitudeDegrees>41.5523346327245235443115234375</LatitudeDegrees>
              <LongitudeDegrees>-2.7833054959774017333984375</LongitudeDegrees>
            </Position>
            <AltitudeMeters>937.79998779296875</AltitudeMeters>
            <DistanceMeters>131664.05262062</DistanceMeters>
          </Trackpoint>
          <Trackpoint>
            <Time>2021-07-28T11:12:01.000Z</Time>
            <Position>
              <LatitudeDegrees>41.55284768901765346527099609375</LatitudeDegrees>
              <LongitudeDegrees>-2.7829184196889400482177734375</LongitudeDegrees>
            </Position>
            <AltitudeMeters>938.20001220703125</AltitudeMeters>
            <DistanceMeters>131729.62966046</DistanceMeters>
          </Trackpoint>
          <Trackpoint>
            <Time>2021-07-28T11:12:11.000Z</Time>
            <Position>
              <LatitudeDegrees>41.5533233620226383209228515625</LatitudeDegrees>
              <LongitudeDegrees>-2.78256042860448360443115234375</LongitudeDegrees>
            </Position>
            <AltitudeMeters>938</AltitudeMeters>
            <DistanceMeters>131790.39231565</DistanceMeters>
          </Trackpoint>
          <Trackpoint>
            <Time>2021-07-28T11:12:16.000Z</Time>
            <Position>
              <LatitudeDegrees>41.55356048606336116790771484375</LatitudeDegrees>
              <LongitudeDegrees>-2.7823816426098346710205078125</LongitudeDegrees>
            </Position>
            <AltitudeMeters>939</AltitudeMeters>
            <DistanceMeters>131820.69600559</DistanceMeters>
          </Trackpoint>
          <Trackpoint>
            <Time>2021-07-28T11:12:26.000Z</Time>
            <Position>
              <LatitudeDegrees>41.5540361590683460235595703125</LatitudeDegrees>
              <LongitudeDegrees>-2.7820225618779659271240234375</LongitudeDegrees>
            </Position>
            <AltitudeMeters>939.4000244140625</AltitudeMeters>
            <DistanceMeters>131881.50315386</DistanceMeters>
          </Trackpoint>
          <Trackpoint>
            <Time>2021-07-28T11:12:36.000Z</Time>
            <Position>
              <LatitudeDegrees>41.5545078925788402557373046875</LatitudeDegrees>
              <LongitudeDegrees>-2.7816715277731418609619140625</LongitudeDegrees>
            </Position>
            <AltitudeMeters>938.20001220703125</AltitudeMeters>
            <DistanceMeters>131941.5998692</DistanceMeters>
          </Trackpoint>
          <Trackpoint>
            <Time>2021-07-28T11:12:42.000Z</Time>
            <Position>
              <LatitudeDegrees>41.55477804131805896759033203125</LatitudeDegrees>
              <LongitudeDegrees>-2.78146742843091487884521484375</LongitudeDegrees>
            </Position>
            <AltitudeMeters>938.79998779296875</AltitudeMeters>
            <DistanceMeters>131976.14074006</DistanceMeters>
          </Trackpoint>
          <Trackpoint>
            <Time>2021-07-28T11:12:53.000Z</Time>
            <Position>
              <LatitudeDegrees>41.5552686341106891632080078125</LatitudeDegrees>
              <LongitudeDegrees>-2.7810998819768428802490234375</LongitudeDegrees>
            </Position>
            <AltitudeMeters>939.5999755859375</AltitudeMeters>
            <DistanceMeters>132038.74055734</DistanceMeters>
          </Trackpoint>
          <Trackpoint>
            <Time>2021-07-28T11:13:01.000Z</Time>
            <Position>
              <LatitudeDegrees>41.55562075786292552947998046875</LatitudeDegrees>
              <LongitudeDegrees>-2.78082420118153095245361328125</LongitudeDegrees>
            </Position>
            <AltitudeMeters>940.20001220703125</AltitudeMeters>
            <DistanceMeters>132084.16342621</DistanceMeters>
          </Trackpoint>
          <Trackpoint>
            <Time>2021-07-28T11:13:12.000Z</Time>
            <Position>
              <LatitudeDegrees>41.556076817214488983154296875</LatitudeDegrees>
              <LongitudeDegrees>-2.780408374965190887451171875</LongitudeDegrees>
            </Position>
            <AltitudeMeters>941</AltitudeMeters>
            <DistanceMeters>132145.61324294</DistanceMeters>
          </Trackpoint>
          <Trackpoint>
            <Time>2021-07-28T11:13:15.000Z</Time>
            <Position>
              <LatitudeDegrees>41.55617815442383289337158203125</LatitudeDegrees>
              <LongitudeDegrees>-2.78027258813381195068359375</LongitudeDegrees>
            </Position>
            <AltitudeMeters>941.20001220703125</AltitudeMeters>
            <DistanceMeters>132161.58564789</DistanceMeters>
          </Trackpoint>
          <Trackpoint>
            <Time>2021-07-28T11:13:23.000Z</Time>
            <Position>
              <LatitudeDegrees>41.5563936531543731689453125</LatitudeDegrees>
              <LongitudeDegrees>-2.7798959054052829742431640625</LongitudeDegrees>
            </Position>
            <AltitudeMeters>942.4000244140625</AltitudeMeters>
            <DistanceMeters>132201.07722297</DistanceMeters>
          </Trackpoint>
          <Trackpoint>
            <Time>2021-07-28T11:13:32.000Z</Time>
            <Position>
              <LatitudeDegrees>41.55658534727990627288818359375</LatitudeDegrees>
              <LongitudeDegrees>-2.7794815041124820709228515625</LongitudeDegrees>
            </Position>
            <AltitudeMeters>943.4000244140625</AltitudeMeters>
            <DistanceMeters>132241.65396382</DistanceMeters>
          </Trackpoint>
          <Trackpoint>
            <Time>2021-07-28T11:13:38.000Z</Time>
            <Position>
              <LatitudeDegrees>41.55670638196170330047607421875</LatitudeDegrees>
              <LongitudeDegrees>-2.77920909225940704345703125</LongitudeDegrees>
            </Position>
            <AltitudeMeters>944.5999755859375</AltitudeMeters>
            <DistanceMeters>132268.04026622</DistanceMeters>
          </Trackpoint>
          <Trackpoint>
            <Time>2021-07-28T11:13:47.000Z</Time>
            <Position>
              <LatitudeDegrees>41.556892208755016326904296875</LatitudeDegrees>
              <LongitudeDegrees>-2.77879997156560420989990234375</LongitudeDegrees>
            </Position>
            <AltitudeMeters>945.5999755859375</AltitudeMeters>
            <DistanceMeters>132307.90054658</DistanceMeters>
          </Trackpoint>
          <Trackpoint>
            <Time>2021-07-28T11:13:53.000Z</Time>
            <Position>
              <LatitudeDegrees>41.5570184402167797088623046875</LatitudeDegrees>
              <LongitudeDegrees>-2.778526134788990020751953125</LongitudeDegrees>
            </Position>
            <AltitudeMeters>946.5999755859375</AltitudeMeters>
            <DistanceMeters>132334.68780035</DistanceMeters>
          </Trackpoint>
          <Trackpoint>
            <Time>2021-07-28T11:14:00.000Z</Time>
            <Position>
              <LatitudeDegrees>41.55715498141944408416748046875</LatitudeDegrees>
              <LongitudeDegrees>-2.7782213687896728515625</LongitudeDegrees>
            </Position>
            <AltitudeMeters>947.79998779296875</AltitudeMeters>
            <DistanceMeters>132364.27241103</DistanceMeters>
          </Trackpoint>
          <Trackpoint>
            <Time>2021-07-28T11:14:05.000Z</Time>
            <Position>
              <LatitudeDegrees>41.5572527982294559478759765625</LatitudeDegrees>
              <LongitudeDegrees>-2.77800654061138629913330078125</LongitudeDegrees>
            </Position>
            <AltitudeMeters>948.79998779296875</AltitudeMeters>
            <DistanceMeters>132385.21669554</DistanceMeters>
          </Trackpoint>
          <Trackpoint>
            <Time>2021-07-28T11:14:20.000Z</Time>
            <Position>
              <LatitudeDegrees>41.557537950575351715087890625</LatitudeDegrees>
              <LongitudeDegrees>-2.7773803286254405975341796875</LongitudeDegrees>
            </Position>
            <AltitudeMeters>948.20001220703125</AltitudeMeters>
            <DistanceMeters>132446.26949224</DistanceMeters>
          </Trackpoint>
          <Trackpoint>
            <Time>2021-07-28T11:14:35.000Z</Time>
            <Position>
              <LatitudeDegrees>41.55781128443777561187744140625</LatitudeDegrees>
              <LongitudeDegrees>-2.77676819823682308197021484375</LongitudeDegrees>
            </Position>
            <AltitudeMeters>949.79998779296875</AltitudeMeters>
            <DistanceMeters>132505.63860608</DistanceMeters>
          </Trackpoint>
          <Trackpoint>
            <Time>2021-07-28T11:14:39.000Z</Time>
            <Position>
              <LatitudeDegrees>41.5578847937285900115966796875</LatitudeDegrees>
              <LongitudeDegrees>-2.77660558931529521942138671875</LongitudeDegrees>
            </Position>
            <AltitudeMeters>951</AltitudeMeters>
            <DistanceMeters>132521.46133876</DistanceMeters>
          </Trackpoint>
          <Trackpoint>
            <Time>2021-07-28T11:14:52.000Z</Time>
            <Position>
              <LatitudeDegrees>41.558133400976657867431640625</LatitudeDegrees>
              <LongitudeDegrees>-2.77606311254203319549560546875</LongitudeDegrees>
            </Position>
            <AltitudeMeters>952.20001220703125</AltitudeMeters>
            <DistanceMeters>132574.44186397</DistanceMeters>
          </Trackpoint>
          <Trackpoint>
            <Time>2021-07-28T11:15:02.000Z</Time>
            <Position>
              <LatitudeDegrees>41.558321155607700347900390625</LatitudeDegrees>
              <LongitudeDegrees>-2.775659859180450439453125</LongitudeDegrees>
            </Position>
            <AltitudeMeters>953.4000244140625</AltitudeMeters>
            <DistanceMeters>132613.99763985</DistanceMeters>
          </Trackpoint>
          <Trackpoint>
            <Time>2021-07-28T11:15:14.000Z</Time>
            <Position>
              <LatitudeDegrees>41.55856649391353130340576171875</LatitudeDegrees>
              <LongitudeDegrees>-2.77519977651536464691162109375</LongitudeDegrees>
            </Position>
            <AltitudeMeters>954.4000244140625</AltitudeMeters>
            <DistanceMeters>132661.04997138</DistanceMeters>
          </Trackpoint>
          <Trackpoint>
            <Time>2021-07-28T11:15:25.000Z</Time>
            <Position>
              <LatitudeDegrees>41.5588252432644367218017578125</LatitudeDegrees>
              <LongitudeDegrees>-2.7747846208512783050537109375</LongitudeDegrees>
            </Position>
            <AltitudeMeters>955.4000244140625</AltitudeMeters>
            <DistanceMeters>132706.0489085</DistanceMeters>
          </Trackpoint>
          <Trackpoint>
            <Time>2021-07-28T11:15:39.000Z</Time>
            <Position>
              <LatitudeDegrees>41.55918926931917667388916015625</LatitudeDegrees>
              <LongitudeDegrees>-2.77424356900155544281005859375</LongitudeDegrees>
            </Position>
            <AltitudeMeters>956.4000244140625</AltitudeMeters>
            <DistanceMeters>132766.64690109</DistanceMeters>
          </Trackpoint>
          <Trackpoint>
            <Time>2021-07-28T11:15:40.000Z</Time>
            <Position>
              <LatitudeDegrees>41.55921542085707187652587890625</LatitudeDegrees>
              <LongitudeDegrees>-2.77420341968536376953125</LongitudeDegrees>
            </Position>
            <AltitudeMeters>956.5999755859375</AltitudeMeters>
            <DistanceMeters>132771.07967069</DistanceMeters>
          </Trackpoint>
          <Trackpoint>
            <Time>2021-07-28T11:15:54.000Z</Time>
            <Position>
              <LatitudeDegrees>41.55960031785070896148681640625</LatitudeDegrees>
              <LongitudeDegrees>-2.77364082634449005126953125</LongitudeDegrees>
            </Position>
            <AltitudeMeters>956.4000244140625</AltitudeMeters>
            <DistanceMeters>132834.56690406</DistanceMeters>
          </Trackpoint>
          <Trackpoint>
            <Time>2021-07-28T11:16:02.000Z</Time>
            <Position>
              <LatitudeDegrees>41.5598094463348388671875</LatitudeDegrees>
              <LongitudeDegrees>-2.77333195321261882781982421875</LongitudeDegrees>
            </Position>
            <AltitudeMeters>957.5999755859375</AltitudeMeters>
            <DistanceMeters>132869.25855332</DistanceMeters>
          </Trackpoint>
          <Trackpoint>
            <Time>2021-07-28T11:16:16.000Z</Time>
            <Position>
              <LatitudeDegrees>41.56018436886370182037353515625</LatitudeDegrees>
              <LongitudeDegrees>-2.77278930880129337310791015625</LongitudeDegrees>
            </Position>
            <AltitudeMeters>958.20001220703125</AltitudeMeters>
            <DistanceMeters>132930.77093908</DistanceMeters>
          </Trackpoint>
          <Trackpoint>
            <Time>2021-07-28T11:16:25.000Z</Time>
            <Position>
              <LatitudeDegrees>41.560431383550167083740234375</LatitudeDegrees>
              <LongitudeDegrees>-2.77243089862167835235595703125</LongitudeDegrees>
            </Position>
            <AltitudeMeters>958.5999755859375</AltitudeMeters>
            <DistanceMeters>132971.35235307</DistanceMeters>
          </Trackpoint>
          <Trackpoint>
            <Time>2021-07-28T11:16:34.000Z</Time>
            <Position>
              <LatitudeDegrees>41.56067118979990482330322265625</LatitudeDegrees>
              <LongitudeDegrees>-2.77207181788980960845947265625</LongitudeDegrees>
            </Position>
            <AltitudeMeters>959.5999755859375</AltitudeMeters>
            <DistanceMeters>133011.43628378</DistanceMeters>
          </Trackpoint>
          <Trackpoint>
            <Time>2021-07-28T11:16:48.000Z</Time>
            <Position>
              <LatitudeDegrees>41.56106002628803253173828125</LatitudeDegrees>
              <LongitudeDegrees>-2.77150905691087245941162109375</LongitudeDegrees>
            </Position>
            <AltitudeMeters>959.4000244140625</AltitudeMeters>
            <DistanceMeters>133075.22972084</DistanceMeters>
          </Trackpoint>
          <Trackpoint>
            <Time>2021-07-28T11:17:01.000Z</Time>
            <Position>
              <LatitudeDegrees>41.56142204068601131439208984375</LatitudeDegrees>
              <LongitudeDegrees>-2.7709685079753398895263671875</LongitudeDegrees>
            </Position>
            <AltitudeMeters>960.4000244140625</AltitudeMeters>
            <DistanceMeters>133135.64593919</DistanceMeters>
          </Trackpoint>
          <Trackpoint>
            <Time>2021-07-28T11:17:05.000Z</Time>
            <Position>
              <LatitudeDegrees>41.56153636984527111053466796875</LatitudeDegrees>
              <LongitudeDegrees>-2.77080246247351169586181640625</LongitudeDegrees>
            </Position>
            <AltitudeMeters>960.5999755859375</AltitudeMeters>
            <DistanceMeters>133154.43865825</DistanceMeters>
          </Trackpoint>
          <Trackpoint>
            <Time>2021-07-28T11:17:17.000Z</Time>
            <Position>
              <LatitudeDegrees>41.56187265180051326751708984375</LatitudeDegrees>
              <LongitudeDegrees>-2.77030793018639087677001953125</LongitudeDegrees>
            </Position>
            <AltitudeMeters>961.5999755859375</AltitudeMeters>
            <DistanceMeters>133210.09057303</DistanceMeters>
          </Trackpoint>
          <Trackpoint>
            <Time>2021-07-28T11:17:31.000Z</Time>
            <Position>
              <LatitudeDegrees>41.5622596442699432373046875</LatitudeDegrees>
              <LongitudeDegrees>-2.76973226107656955718994140625</LongitudeDegrees>
            </Position>
            <AltitudeMeters>962</AltitudeMeters>
            <DistanceMeters>133274.53984567</DistanceMeters>
          </Trackpoint>
          <Trackpoint>
            <Time>2021-07-28T11:17:43.000Z</Time>
            <Position>
              <LatitudeDegrees>41.56257321126759052276611328125</LatitudeDegrees>
              <LongitudeDegrees>-2.76922884397208690643310546875</LongitudeDegrees>
            </Position>
            <AltitudeMeters>962.79998779296875</AltitudeMeters>
            <DistanceMeters>133329.08998051</DistanceMeters>
          </Trackpoint>
          <Trackpoint>
            <Time>2021-07-28T11:17:54.000Z</Time>
            <Position>
              <LatitudeDegrees>41.5628589503467082977294921875</LatitudeDegrees>
              <LongitudeDegrees>-2.7687285281717777252197265625</LongitudeDegrees>
            </Position>
            <AltitudeMeters>963.79998779296875</AltitudeMeters>
            <DistanceMeters>133381.50666792</DistanceMeters>
          </Trackpoint>
          <Trackpoint>
            <Time>2021-07-28T11:18:06.000Z</Time>
            <Position>
              <LatitudeDegrees>41.5631881915032863616943359375</LatitudeDegrees>
              <LongitudeDegrees>-2.768131233751773834228515625</LongitudeDegrees>
            </Position>
            <AltitudeMeters>963.79998779296875</AltitudeMeters>
            <DistanceMeters>133443.28981929</DistanceMeters>
          </Trackpoint>
          <Trackpoint>
            <Time>2021-07-28T11:18:18.000Z</Time>
            <Position>
              <LatitudeDegrees>41.5635264851152896881103515625</LatitudeDegrees>
              <LongitudeDegrees>-2.7675211988389492034912109375</LongitudeDegrees>
            </Position>
            <AltitudeMeters>963.20001220703125</AltitudeMeters>
            <DistanceMeters>133506.52479641</DistanceMeters>
          </Trackpoint>
          <Trackpoint>
            <Time>2021-07-28T11:18:30.000Z</Time>
            <Position>
              <LatitudeDegrees>41.56384860165417194366455078125</LatitudeDegrees>
              <LongitudeDegrees>-2.76688274927437305450439453125</LongitudeDegrees>
            </Position>
            <AltitudeMeters>963.79998779296875</AltitudeMeters>
            <DistanceMeters>133570.65212968</DistanceMeters>
          </Trackpoint>
          <Trackpoint>
            <Time>2021-07-28T11:18:41.000Z</Time>
            <Position>
              <LatitudeDegrees>41.5640833787620067596435546875</LatitudeDegrees>
              <LongitudeDegrees>-2.76622560806572437286376953125</LongitudeDegrees>
            </Position>
            <AltitudeMeters>964</AltitudeMeters>
            <DistanceMeters>133631.29615077</DistanceMeters>
          </Trackpoint>
          <Trackpoint>
            <Time>2021-07-28T11:18:53.000Z</Time>
            <Position>
              <LatitudeDegrees>41.56428244896233081817626953125</LatitudeDegrees>
              <LongitudeDegrees>-2.7655169181525707244873046875</LongitudeDegrees>
            </Position>
            <AltitudeMeters>964.5999755859375</AltitudeMeters>
            <DistanceMeters>133694.33626</DistanceMeters>
          </Trackpoint>
          <Trackpoint>
            <Time>2021-07-28T11:18:57.000Z</Time>
            <Position>
              <LatitudeDegrees>41.5643442235887050628662109375</LatitudeDegrees>
              <LongitudeDegrees>-2.76528297923505306243896484375</LongitudeDegrees>
            </Position>
            <AltitudeMeters>964.5999755859375</AltitudeMeters>
            <DistanceMeters>133714.9957758</DistanceMeters>
          </Trackpoint>
          <Trackpoint>
            <Time>2021-07-28T11:19:03.000Z</Time>
            <Position>
              <LatitudeDegrees>41.5644424594938755035400390625</LatitudeDegrees>
              <LongitudeDegrees>-2.76493839919567108154296875</LongitudeDegrees>
            </Position>
            <AltitudeMeters>964.79998779296875</AltitudeMeters>
            <DistanceMeters>133745.70396401</DistanceMeters>
          </Trackpoint>
          <Trackpoint>
            <Time>2021-07-28T11:19:15.000Z</Time>
            <Position>
              <LatitudeDegrees>41.5646253526210784912109375</LatitudeDegrees>
              <LongitudeDegrees>-2.76425804011523723602294921875</LongitudeDegrees>
            </Position>
            <AltitudeMeters>964.79998779296875</AltitudeMeters>
            <DistanceMeters>133805.9083187</DistanceMeters>
          </Trackpoint>
          <Trackpoint>
            <Time>2021-07-28T11:19:22.000Z</Time>
            <Position>
              <LatitudeDegrees>41.56473104842007160186767578125</LatitudeDegrees>
              <LongitudeDegrees>-2.7638573013246059417724609375</LongitudeDegrees>
            </Position>
            <AltitudeMeters>965.5999755859375</AltitudeMeters>
            <DistanceMeters>133841.29336314</DistanceMeters>
          </Trackpoint>
          <Trackpoint>
            <Time>2021-07-28T11:19:34.000Z</Time>
            <Position>
              <LatitudeDegrees>41.56489952467381954193115234375</LatitudeDegrees>
              <LongitudeDegrees>-2.76316621340811252593994140625</LongitudeDegrees>
            </Position>
            <AltitudeMeters>966</AltitudeMeters>
            <DistanceMeters>133901.82276951</DistanceMeters>
          </Trackpoint>
          <Trackpoint>
            <Time>2021-07-28T11:19:42.000Z</Time>
            <Position>
              <LatitudeDegrees>41.56498837284743785858154296875</LatitudeDegrees>
              <LongitudeDegrees>-2.7627156861126422882080078125</LongitudeDegrees>
            </Position>
            <AltitudeMeters>966.5999755859375</AltitudeMeters>
            <DistanceMeters>133940.62230616</DistanceMeters>
          </Trackpoint>
          <Trackpoint>
            <Time>2021-07-28T11:19:47.000Z</Time>
            <Position>
              <LatitudeDegrees>41.56506867147982120513916015625</LatitudeDegrees>
              <LongitudeDegrees>-2.76250027120113372802734375</LongitudeDegrees>
            </Position>
            <AltitudeMeters>967</AltitudeMeters>
            <DistanceMeters>133960.66415887</DistanceMeters>
          </Trackpoint>
          <Trackpoint>
            <Time>2021-07-28T11:19:53.000Z</Time>
            <Position>
              <LatitudeDegrees>41.56533638946712017059326171875</LatitudeDegrees>
              <LongitudeDegrees>-2.76265877299010753631591796875</LongitudeDegrees>
            </Position>
            <AltitudeMeters>965.4000244140625</AltitudeMeters>
            <DistanceMeters>133993.25430449</DistanceMeters>
          </Trackpoint>
          <Trackpoint>
            <Time>2021-07-28T11:19:56.000Z</Time>
            <Position>
              <LatitudeDegrees>41.565532945096492767333984375</LatitudeDegrees>
              <LongitudeDegrees>-2.76270135305821895599365234375</LongitudeDegrees>
            </Position>
            <AltitudeMeters>964.20001220703125</AltitudeMeters>
            <DistanceMeters>134015.41672647</DistanceMeters>
          </Trackpoint>
          <Trackpoint>
            <Time>2021-07-28T11:19:59.000Z</Time>
            <Position>
              <LatitudeDegrees>41.565757580101490020751953125</LatitudeDegrees>
              <LongitudeDegrees>-2.76272968389093875885009765625</LongitudeDegrees>
            </Position>
            <AltitudeMeters>963.20001220703125</AltitudeMeters>
            <DistanceMeters>134040.52986186</DistanceMeters>
          </Trackpoint>
          <Trackpoint>
            <Time>2021-07-28T11:20:01.000Z</Time>
            <Position>
              <LatitudeDegrees>41.56592396087944507598876953125</LatitudeDegrees>
              <LongitudeDegrees>-2.7627409994602203369140625</LongitudeDegrees>
            </Position>
            <AltitudeMeters>961.79998779296875</AltitudeMeters>
            <DistanceMeters>134059.07249357</DistanceMeters>
          </Trackpoint>
          <Trackpoint>
            <Time>2021-07-28T11:20:03.000Z</Time>
            <Position>
              <LatitudeDegrees>41.56609931029379367828369140625</LatitudeDegrees>
              <LongitudeDegrees>-2.7627596072852611541748046875</LongitudeDegrees>
            </Position>
            <AltitudeMeters>960.4000244140625</AltitudeMeters>
            <DistanceMeters>134078.6507643</DistanceMeters>
          </Trackpoint>
          <Trackpoint>
            <Time>2021-07-28T11:20:05.000Z</Time>
            <Position>
              <LatitudeDegrees>41.5662801079452037811279296875</LatitudeDegrees>
              <LongitudeDegrees>-2.7627941407263278961181640625</LongitudeDegrees>
            </Position>
            <AltitudeMeters>958.4000244140625</AltitudeMeters>
            <DistanceMeters>134098.9784867</DistanceMeters>
          </Trackpoint>
          <Trackpoint>
            <Time>2021-07-28T11:20:06.000Z</Time>
            <Position>
              <LatitudeDegrees>41.56637054868042469024658203125</LatitudeDegrees>
              <LongitudeDegrees>-2.76282054372131824493408203125</LongitudeDegrees>
            </Position>
            <AltitudeMeters>957.4000244140625</AltitudeMeters>
            <DistanceMeters>134109.2817667</DistanceMeters>
          </Trackpoint>
          <Trackpoint>
            <Time>2021-07-28T11:20:07.000Z</Time>
            <Position>
              <LatitudeDegrees>41.56645772047340869903564453125</LatitudeDegrees>
              <LongitudeDegrees>-2.76286178268492221832275390625</LongitudeDegrees>
            </Position>
            <AltitudeMeters>956.79998779296875</AltitudeMeters>
            <DistanceMeters>134119.57364683</DistanceMeters>
          </Trackpoint>
          <Trackpoint>
            <Time>2021-07-28T11:20:10.000Z</Time>
            <Position>
              <LatitudeDegrees>41.56668336130678653717041015625</LatitudeDegrees>
              <LongitudeDegrees>-2.7630937099456787109375</LongitudeDegrees>
            </Position>
            <AltitudeMeters>955.79998779296875</AltitudeMeters>
            <DistanceMeters>134151.25533108</DistanceMeters>
          </Trackpoint>
          <Trackpoint>
            <Time>2021-07-28T11:20:11.000Z</Time>
            <Position>
              <LatitudeDegrees>41.5667577087879180908203125</LatitudeDegrees>
              <LongitudeDegrees>-2.76317375712096691131591796875</LongitudeDegrees>
            </Position>
            <AltitudeMeters>955.4000244140625</AltitudeMeters>
            <DistanceMeters>134161.88049064</DistanceMeters>
          </Trackpoint>
          <Trackpoint>
            <Time>2021-07-28T11:20:15.000Z</Time>
            <Position>
              <LatitudeDegrees>41.567083261907100677490234375</LatitudeDegrees>
              <LongitudeDegrees>-2.7633986435830593109130859375</LongitudeDegrees>
            </Position>
            <AltitudeMeters>955.20001220703125</AltitudeMeters>
            <DistanceMeters>134202.66854237</DistanceMeters>
          </Trackpoint>
          <Trackpoint>
            <Time>2021-07-28T11:20:18.000Z</Time>
            <Position>
              <LatitudeDegrees>41.56730345450341701507568359375</LatitudeDegrees>
              <LongitudeDegrees>-2.76354675181210041046142578125</LongitudeDegrees>
            </Position>
            <AltitudeMeters>955.79998779296875</AltitudeMeters>
            <DistanceMeters>134230.10494524</DistanceMeters>
          </Trackpoint>
          <Trackpoint>
            <Time>2021-07-28T11:20:26.000Z</Time>
            <Position>
              <LatitudeDegrees>41.56774367205798625946044921875</LatitudeDegrees>
              <LongitudeDegrees>-2.76406877674162387847900390625</LongitudeDegrees>
            </Position>
            <AltitudeMeters>956.20001220703125</AltitudeMeters>
            <DistanceMeters>134295.60620531</DistanceMeters>
          </Trackpoint>
          <Trackpoint>
            <Time>2021-07-28T11:20:27.000Z</Time>
            <Position>
              <LatitudeDegrees>41.56780846416950225830078125</LatitudeDegrees>
              <LongitudeDegrees>-2.7641142904758453369140625</LongitudeDegrees>
            </Position>
            <AltitudeMeters>956</AltitudeMeters>
            <DistanceMeters>134303.75304899</DistanceMeters>
          </Trackpoint>
          <Trackpoint>
            <Time>2021-07-28T11:20:30.000Z</Time>
            <Position>
              <LatitudeDegrees>41.56804357655346393585205078125</LatitudeDegrees>
              <LongitudeDegrees>-2.76409107260406017303466796875</LongitudeDegrees>
            </Position>
            <AltitudeMeters>954</AltitudeMeters>
            <DistanceMeters>134329.99281401</DistanceMeters>
          </Trackpoint>
          <Trackpoint>
            <Time>2021-07-28T11:20:31.000Z</Time>
            <Position>
              <LatitudeDegrees>41.5681093744933605194091796875</LatitudeDegrees>
              <LongitudeDegrees>-2.764020748436450958251953125</LongitudeDegrees>
            </Position>
            <AltitudeMeters>952.4000244140625</AltitudeMeters>
            <DistanceMeters>134339.37017422</DistanceMeters>
          </Trackpoint>
          <Trackpoint>
            <Time>2021-07-28T11:20:32.000Z</Time>
            <Position>
              <LatitudeDegrees>41.56816662289202213287353515625</LatitudeDegrees>
              <LongitudeDegrees>-2.7639344148337841033935546875</LongitudeDegrees>
            </Position>
            <AltitudeMeters>951</AltitudeMeters>
            <DistanceMeters>134348.97680637</DistanceMeters>
          </Trackpoint>
          <Trackpoint>
            <Time>2021-07-28T11:20:33.000Z</Time>
            <Position>
              <LatitudeDegrees>41.56821959652006626129150390625</LatitudeDegrees>
              <LongitudeDegrees>-2.76384363882243633270263671875</LongitudeDegrees>
            </Position>
            <AltitudeMeters>949.5999755859375</AltitudeMeters>
            <DistanceMeters>134358.56367854</DistanceMeters>
          </Trackpoint>
          <Trackpoint>
            <Time>2021-07-28T11:20:35.000Z</Time>
            <Position>
              <LatitudeDegrees>41.5683236159384250640869140625</LatitudeDegrees>
              <LongitudeDegrees>-2.76365404017269611358642578125</LongitudeDegrees>
            </Position>
            <AltitudeMeters>948</AltitudeMeters>
            <DistanceMeters>134378.14194927</DistanceMeters>
          </Trackpoint>
          <Trackpoint>
            <Time>2021-07-28T11:20:37.000Z</Time>
            <Position>
              <LatitudeDegrees>41.568435765802860260009765625</LatitudeDegrees>
              <LongitudeDegrees>-2.7634670399129390716552734375</LongitudeDegrees>
            </Position>
            <AltitudeMeters>946.5999755859375</AltitudeMeters>
            <DistanceMeters>134398.09936924</DistanceMeters>
          </Trackpoint>
          <Trackpoint>
            <Time>2021-07-28T11:20:39.000Z</Time>
            <Position>
              <LatitudeDegrees>41.56854808330535888671875</LatitudeDegrees>
              <LongitudeDegrees>-2.7632720768451690673828125</LongitudeDegrees>
            </Position>
            <AltitudeMeters>945.5999755859375</AltitudeMeters>
            <DistanceMeters>134418.58991424</DistanceMeters>
          </Trackpoint>
          <Trackpoint>
            <Time>2021-07-28T11:20:42.000Z</Time>
            <Position>
              <LatitudeDegrees>41.56872921623289585113525390625</LatitudeDegrees>
              <LongitudeDegrees>-2.76297845877707004547119140625</LongitudeDegrees>
            </Position>
            <AltitudeMeters>945</AltitudeMeters>
            <DistanceMeters>134450.27986314</DistanceMeters>
          </Trackpoint>
          <Trackpoint>
            <Time>2021-07-28T11:20:48.000Z</Time>
            <Position>
              <LatitudeDegrees>41.56923011876642704010009765625</LatitudeDegrees>
              <LongitudeDegrees>-2.76281970553100109100341796875</LongitudeDegrees>
            </Position>
            <AltitudeMeters>944.5999755859375</AltitudeMeters>
            <DistanceMeters>134507.57711082</DistanceMeters>
          </Trackpoint>
          <Trackpoint>
            <Time>2021-07-28T11:20:55.000Z</Time>
            <Position>
              <LatitudeDegrees>41.56976706348359584808349609375</LatitudeDegrees>
              <LongitudeDegrees>-2.7629435062408447265625</LongitudeDegrees>
            </Position>
            <AltitudeMeters>945.5999755859375</AltitudeMeters>
            <DistanceMeters>134568.22276982</DistanceMeters>
          </Trackpoint>
          <Trackpoint>
            <Time>2021-07-28T11:21:03.000Z</Time>
            <Position>
              <LatitudeDegrees>41.57029059715569019317626953125</LatitudeDegrees>
              <LongitudeDegrees>-2.76312095113098621368408203125</LongitudeDegrees>
            </Position>
            <AltitudeMeters>946.4000244140625</AltitudeMeters>
            <DistanceMeters>134628.33736333</DistanceMeters>
          </Trackpoint>
          <Trackpoint>
            <Time>2021-07-28T11:21:05.000Z</Time>
            <Position>
              <LatitudeDegrees>41.57040576450526714324951171875</LatitudeDegrees>
              <LongitudeDegrees>-2.76315967552363872528076171875</LongitudeDegrees>
            </Position>
            <AltitudeMeters>946.79998779296875</AltitudeMeters>
            <DistanceMeters>134641.55461943</DistanceMeters>
          </Trackpoint>
          <Trackpoint>
            <Time>2021-07-28T11:21:15.000Z</Time>
            <Position>
              <LatitudeDegrees>41.57094262540340423583984375</LatitudeDegrees>
              <LongitudeDegrees>-2.76333502493798732757568359375</LongitudeDegrees>
            </Position>
            <AltitudeMeters>947</AltitudeMeters>
            <DistanceMeters>134703.06641798</DistanceMeters>
          </Trackpoint>
          <Trackpoint>
            <Time>2021-07-28T11:21:26.000Z</Time>
            <Position>
              <LatitudeDegrees>41.57148619182407855987548828125</LatitudeDegrees>
              <LongitudeDegrees>-2.76352311484515666961669921875</LongitudeDegrees>
            </Position>
            <AltitudeMeters>947.20001220703125</AltitudeMeters>
            <DistanceMeters>134765.56084343</DistanceMeters>
          </Trackpoint>
          <Trackpoint>
            <Time>2021-07-28T11:21:37.000Z</Time>
            <Position>
              <LatitudeDegrees>41.5720203705132007598876953125</LatitudeDegrees>
              <LongitudeDegrees>-2.7636806108057498931884765625</LongitudeDegrees>
            </Position>
            <AltitudeMeters>947</AltitudeMeters>
            <DistanceMeters>134826.44516457</DistanceMeters>
          </Trackpoint>
          <Trackpoint>
            <Time>2021-07-28T11:21:43.000Z</Time>
            <Position>
              <LatitudeDegrees>41.57230895943939685821533203125</LatitudeDegrees>
              <LongitudeDegrees>-2.76375713758170604705810546875</LongitudeDegrees>
            </Position>
            <AltitudeMeters>947.20001220703125</AltitudeMeters>
            <DistanceMeters>134859.19162404</DistanceMeters>
          </Trackpoint>
          <Trackpoint>
            <Time>2021-07-28T11:21:47.000Z</Time>
            <Position>
              <LatitudeDegrees>41.57249436713755130767822265625</LatitudeDegrees>
              <LongitudeDegrees>-2.76379737071692943572998046875</LongitudeDegrees>
            </Position>
            <AltitudeMeters>947.5999755859375</AltitudeMeters>
            <DistanceMeters>134880.09793314</DistanceMeters>
          </Trackpoint>
          <Trackpoint>
            <Time>2021-07-28T11:22:00.000Z</Time>
            <Position>
              <LatitudeDegrees>41.57304639928042888641357421875</LatitudeDegrees>
              <LongitudeDegrees>-2.76392896659672260284423828125</LongitudeDegrees>
            </Position>
            <AltitudeMeters>948.4000244140625</AltitudeMeters>
            <DistanceMeters>134942.50958089</DistanceMeters>
          </Trackpoint>
          <Trackpoint>
            <Time>2021-07-28T11:22:01.000Z</Time>
            <Position>
              <LatitudeDegrees>41.57308713532984256744384765625</LatitudeDegrees>
              <LongitudeDegrees>-2.76393768377602100372314453125</LongitudeDegrees>
            </Position>
            <AltitudeMeters>948.5999755859375</AltitudeMeters>
            <DistanceMeters>134947.10242952</DistanceMeters>
          </Trackpoint>
          <Trackpoint>
            <Time>2021-07-28T11:22:08.000Z</Time>
            <Position>
              <LatitudeDegrees>41.57337597571313381195068359375</LatitudeDegrees>
              <LongitudeDegrees>-2.76400272734463214874267578125</LongitudeDegrees>
            </Position>
            <AltitudeMeters>949.79998779296875</AltitudeMeters>
            <DistanceMeters>134979.70393344</DistanceMeters>
          </Trackpoint>
          <Trackpoint>
            <Time>2021-07-28T11:22:18.000Z</Time>
            <Position>
              <LatitudeDegrees>41.57378937117755413055419921875</LatitudeDegrees>
              <LongitudeDegrees>-2.76410498656332492828369140625</LongitudeDegrees>
            </Position>
            <AltitudeMeters>950.79998779296875</AltitudeMeters>
            <DistanceMeters>135026.49694409</DistanceMeters>
          </Trackpoint>
          <Trackpoint>
            <Time>2021-07-28T11:22:31.000Z</Time>
            <Position>
              <LatitudeDegrees>41.57436789013445377349853515625</LatitudeDegrees>
              <LongitudeDegrees>-2.764250747859477996826171875</LongitudeDegrees>
            </Position>
            <AltitudeMeters>950.20001220703125</AltitudeMeters>
            <DistanceMeters>135092.0210162</DistanceMeters>
          </Trackpoint>
          <Trackpoint>
            <Time>2021-07-28T11:22:36.000Z</Time>
            <Position>
              <LatitudeDegrees>41.57461456954479217529296875</LatitudeDegrees>
              <LongitudeDegrees>-2.76431486941874027252197265625</LongitudeDegrees>
            </Position>
            <AltitudeMeters>949.79998779296875</AltitudeMeters>
            <DistanceMeters>135119.99117356</DistanceMeters>
          </Trackpoint>
          <Trackpoint>
            <Time>2021-07-28T11:22:48.000Z</Time>
            <Position>
              <LatitudeDegrees>41.57516852952539920806884765625</LatitudeDegrees>
              <LongitudeDegrees>-2.76445132680237293243408203125</LongitudeDegrees>
            </Position>
            <AltitudeMeters>949.79998779296875</AltitudeMeters>
            <DistanceMeters>135182.68619613</DistanceMeters>
          </Trackpoint>
          <Trackpoint>
            <Time>2021-07-28T11:23:01.000Z</Time>
            <Position>
              <LatitudeDegrees>41.5757405944168567657470703125</LatitudeDegrees>
              <LongitudeDegrees>-2.76459080167114734649658203125</LongitudeDegrees>
            </Position>
            <AltitudeMeters>950.79998779296875</AltitudeMeters>
            <DistanceMeters>135247.40852784</DistanceMeters>
          </Trackpoint>
          <Trackpoint>
            <Time>2021-07-28T11:23:11.000Z</Time>
            <Position>
              <LatitudeDegrees>41.5761459432542324066162109375</LatitudeDegrees>
              <LongitudeDegrees>-2.76468903757631778717041015625</LongitudeDegrees>
            </Position>
            <AltitudeMeters>951.79998779296875</AltitudeMeters>
            <DistanceMeters>135293.26007457</DistanceMeters>
          </Trackpoint>
          <Trackpoint>
            <Time>2021-07-28T11:23:20.000Z</Time>
            <Position>
              <LatitudeDegrees>41.576500497758388519287109375</LatitudeDegrees>
              <LongitudeDegrees>-2.76477503590285778045654296875</LongitudeDegrees>
            </Position>
            <AltitudeMeters>953</AltitudeMeters>
            <DistanceMeters>135333.36697718</DistanceMeters>
          </Trackpoint>
          <Trackpoint>
            <Time>2021-07-28T11:23:33.000Z</Time>
            <Position>
              <LatitudeDegrees>41.57704892568290233612060546875</LatitudeDegrees>
              <LongitudeDegrees>-2.7649083919823169708251953125</LongitudeDegrees>
            </Position>
            <AltitudeMeters>952.4000244140625</AltitudeMeters>
            <DistanceMeters>135395.40974361</DistanceMeters>
          </Trackpoint>
          <Trackpoint>
            <Time>2021-07-28T11:23:45.000Z</Time>
            <Position>
              <LatitudeDegrees>41.5776144526898860931396484375</LatitudeDegrees>
              <LongitudeDegrees>-2.765048034489154815673828125</LongitudeDegrees>
            </Position>
            <AltitudeMeters>952.20001220703125</AltitudeMeters>
            <DistanceMeters>135459.41882425</DistanceMeters>
          </Trackpoint>
          <Trackpoint>
            <Time>2021-07-28T11:23:57.000Z</Time>
            <Position>
              <LatitudeDegrees>41.5781817398965358734130859375</LatitudeDegrees>
              <LongitudeDegrees>-2.76518759317696094512939453125</LongitudeDegrees>
            </Position>
            <AltitudeMeters>952.4000244140625</AltitudeMeters>
            <DistanceMeters>135523.61926913</DistanceMeters>
          </Trackpoint>
          <Trackpoint>
            <Time>2021-07-28T11:23:58.000Z</Time>
            <Position>
              <LatitudeDegrees>41.5782293491065502166748046875</LatitudeDegrees>
              <LongitudeDegrees>-2.76519857347011566162109375</LongitudeDegrees>
            </Position>
            <AltitudeMeters>952.4000244140625</AltitudeMeters>
            <DistanceMeters>135528.99563172</DistanceMeters>
          </Trackpoint>
          <Trackpoint>
            <Time>2021-07-28T11:24:10.000Z</Time>
            <Position>
              <LatitudeDegrees>41.57879621721804141998291015625</LatitudeDegrees>
              <LongitudeDegrees>-2.7653358690440654754638671875</LongitudeDegrees>
            </Position>
            <AltitudeMeters>952.5999755859375</AltitudeMeters>
            <DistanceMeters>135593.11641677</DistanceMeters>
          </Trackpoint>
          <Trackpoint>
            <Time>2021-07-28T11:24:22.000Z</Time>
            <Position>
              <LatitudeDegrees>41.57934975810348987579345703125</LatitudeDegrees>
              <LongitudeDegrees>-2.765473164618015289306640625</LongitudeDegrees>
            </Position>
            <AltitudeMeters>953</AltitudeMeters>
            <DistanceMeters>135655.77815916</DistanceMeters>
          </Trackpoint>
          <Trackpoint>
            <Time>2021-07-28T11:24:34.000Z</Time>
            <Position>
              <LatitudeDegrees>41.579900197684764862060546875</LatitudeDegrees>
              <LongitudeDegrees>-2.7656067721545696258544921875</LongitudeDegrees>
            </Position>
            <AltitudeMeters>953.20001220703125</AltitudeMeters>
            <DistanceMeters>135718.04488055</DistanceMeters>
          </Trackpoint>
          <Trackpoint>
            <Time>2021-07-28T11:24:46.000Z</Time>
            <Position>
              <LatitudeDegrees>41.580463461577892303466796875</LatitudeDegrees>
              <LongitudeDegrees>-2.7657412178814411163330078125</LongitudeDegrees>
            </Position>
            <AltitudeMeters>953.4000244140625</AltitudeMeters>
            <DistanceMeters>135781.72880405</DistanceMeters>
          </Trackpoint>
          <Trackpoint>
            <Time>2021-07-28T11:24:58.000Z</Time>
            <Position>
              <LatitudeDegrees>41.5810136497020721435546875</LatitudeDegrees>
              <LongitudeDegrees>-2.76587692089378833770751953125</LongitudeDegrees>
            </Position>
            <AltitudeMeters>953.5999755859375</AltitudeMeters>
            <DistanceMeters>135843.99936841</DistanceMeters>
          </Trackpoint>
          <Trackpoint>
            <Time>2021-07-28T11:25:10.000Z</Time>
            <Position>
              <LatitudeDegrees>41.5815474092960357666015625</LatitudeDegrees>
              <LongitudeDegrees>-2.76600499637424945831298828125</LongitudeDegrees>
            </Position>
            <AltitudeMeters>953.79998779296875</AltitudeMeters>
            <DistanceMeters>135904.35726749</DistanceMeters>
          </Trackpoint>
          <Trackpoint>
            <Time>2021-07-28T11:25:22.000Z</Time>
            <Position>
              <LatitudeDegrees>41.58208628185093402862548828125</LatitudeDegrees>
              <LongitudeDegrees>-2.76614262722432613372802734375</LongitudeDegrees>
            </Position>
            <AltitudeMeters>954.20001220703125</AltitudeMeters>
            <DistanceMeters>135965.41960338</DistanceMeters>
          </Trackpoint>
          <Trackpoint>
            <Time>2021-07-28T11:25:34.000Z</Time>
            <Position>
              <LatitudeDegrees>41.58262289129197597503662109375</LatitudeDegrees>
              <LongitudeDegrees>-2.76627288199961185455322265625</LongitudeDegrees>
            </Position>
            <AltitudeMeters>954.5999755859375</AltitudeMeters>
            <DistanceMeters>136026.12174323</DistanceMeters>
          </Trackpoint>
          <Trackpoint>
            <Time>2021-07-28T11:25:46.000Z</Time>
            <Position>
              <LatitudeDegrees>41.58315849490463733673095703125</LatitudeDegrees>
              <LongitudeDegrees>-2.76640556752681732177734375</LongitudeDegrees>
            </Position>
            <AltitudeMeters>954.79998779296875</AltitudeMeters>
            <DistanceMeters>136086.75027643</DistanceMeters>
          </Trackpoint>
          <Trackpoint>
            <Time>2021-07-28T11:25:58.000Z</Time>
            <Position>
              <LatitudeDegrees>41.58369694836437702178955078125</LatitudeDegrees>
              <LongitudeDegrees>-2.76653406210243701934814453125</LongitudeDegrees>
            </Position>
            <AltitudeMeters>955</AltitudeMeters>
            <DistanceMeters>136147.62851634</DistanceMeters>
          </Trackpoint>
          <Trackpoint>
            <Time>2021-07-28T11:26:02.000Z</Time>
            <Position>
              <LatitudeDegrees>41.5838723815977573394775390625</LatitudeDegrees>
              <LongitudeDegrees>-2.76657949201762676239013671875</LongitudeDegrees>
            </Position>
            <AltitudeMeters>955.20001220703125</AltitudeMeters>
            <DistanceMeters>136167.51772343</DistanceMeters>
          </Trackpoint>
          <Trackpoint>
            <Time>2021-07-28T11:26:15.000Z</Time>
            <Position>
              <LatitudeDegrees>41.58442935906350612640380859375</LatitudeDegrees>
              <LongitudeDegrees>-2.766714356839656829833984375</LongitudeDegrees>
            </Position>
            <AltitudeMeters>955.5999755859375</AltitudeMeters>
            <DistanceMeters>136230.51907343</DistanceMeters>
          </Trackpoint>
          <Trackpoint>
            <Time>2021-07-28T11:26:27.000Z</Time>
            <Position>
              <LatitudeDegrees>41.58494912087917327880859375</LatitudeDegrees>
              <LongitudeDegrees>-2.766839750111103057861328125</LongitudeDegrees>
            </Position>
            <AltitudeMeters>956.20001220703125</AltitudeMeters>
            <DistanceMeters>136289.30398453</DistanceMeters>
          </Trackpoint>
          <Trackpoint>
            <Time>2021-07-28T11:26:40.000Z</Time>
            <Position>
              <LatitudeDegrees>41.58548019826412200927734375</LatitudeDegrees>
              <LongitudeDegrees>-2.76697344146668910980224609375</LongitudeDegrees>
            </Position>
            <AltitudeMeters>957</AltitudeMeters>
            <DistanceMeters>136349.45266704</DistanceMeters>
          </Trackpoint>
          <Trackpoint>
            <Time>2021-07-28T11:26:44.000Z</Time>
            <Position>
              <LatitudeDegrees>41.5856436453759670257568359375</LatitudeDegrees>
              <LongitudeDegrees>-2.76701300404965877532958984375</LongitudeDegrees>
            </Position>
            <AltitudeMeters>957.20001220703125</AltitudeMeters>
            <DistanceMeters>136367.94018697</DistanceMeters>
          </Trackpoint>
          <Trackpoint>
            <Time>2021-07-28T11:26:58.000Z</Time>
            <Position>
              <LatitudeDegrees>41.58617916516959667205810546875</LatitudeDegrees>
              <LongitudeDegrees>-2.767142839729785919189453125</LongitudeDegrees>
            </Position>
            <AltitudeMeters>958</AltitudeMeters>
            <DistanceMeters>136428.51671745</DistanceMeters>
          </Trackpoint>
          <Trackpoint>
            <Time>2021-07-28T11:27:05.000Z</Time>
            <Position>
              <LatitudeDegrees>41.58643162809312343597412109375</LatitudeDegrees>
              <LongitudeDegrees>-2.76722121052443981170654296875</LongitudeDegrees>
            </Position>
            <AltitudeMeters>958.20001220703125</AltitudeMeters>
            <DistanceMeters>136457.36386054</DistanceMeters>
          </Trackpoint>
          <Trackpoint>
            <Time>2021-07-28T11:27:16.000Z</Time>
            <Position>
              <LatitudeDegrees>41.58682557754218578338623046875</LatitudeDegrees>
              <LongitudeDegrees>-2.76730142533779144287109375</LongitudeDegrees>
            </Position>
            <AltitudeMeters>959.4000244140625</AltitudeMeters>
            <DistanceMeters>136501.71680963</DistanceMeters>
          </Trackpoint>
          <Trackpoint>
            <Time>2021-07-28T11:27:32.000Z</Time>
            <Position>
              <LatitudeDegrees>41.58738850615918636322021484375</LatitudeDegrees>
              <LongitudeDegrees>-2.7674388885498046875</LongitudeDegrees>
            </Position>
            <AltitudeMeters>960.20001220703125</AltitudeMeters>
            <DistanceMeters>136565.40838962</DistanceMeters>
          </Trackpoint>
          <Trackpoint>
            <Time>2021-07-28T11:27:33.000Z</Time>
            <Position>
              <LatitudeDegrees>41.58742354251444339752197265625</LatitudeDegrees>
              <LongitudeDegrees>-2.7674484439194202423095703125</LongitudeDegrees>
            </Position>
            <AltitudeMeters>960.4000244140625</AltitudeMeters>
            <DistanceMeters>136569.38818284</DistanceMeters>
          </Trackpoint>
          <Trackpoint>
            <Time>2021-07-28T11:27:48.000Z</Time>
            <Position>
              <LatitudeDegrees>41.58795596100389957427978515625</LatitudeDegrees>
              <LongitudeDegrees>-2.76757811196148395538330078125</LongitudeDegrees>
            </Position>
            <AltitudeMeters>961</AltitudeMeters>
            <DistanceMeters>136629.62245319</DistanceMeters>
          </Trackpoint>
          <Trackpoint>
            <Time>2021-07-28T11:27:54.000Z</Time>
            <Position>
              <LatitudeDegrees>41.588165424764156341552734375</LatitudeDegrees>
              <LongitudeDegrees>-2.76762337423861026763916015625</LongitudeDegrees>
            </Position>
            <AltitudeMeters>961.4000244140625</AltitudeMeters>
            <DistanceMeters>136653.23864703</DistanceMeters>
          </Trackpoint>
          <Trackpoint>
            <Time>2021-07-28T11:28:09.000Z</Time>
            <Position>
              <LatitudeDegrees>41.58869289793074131011962890625</LatitudeDegrees>
              <LongitudeDegrees>-2.7677540481090545654296875</LongitudeDegrees>
            </Position>
            <AltitudeMeters>962.5999755859375</AltitudeMeters>
            <DistanceMeters>136712.94681355</DistanceMeters>
          </Trackpoint>
          <Trackpoint>
            <Time>2021-07-28T11:28:23.000Z</Time>
            <Position>
              <LatitudeDegrees>41.5891918726265430450439453125</LatitudeDegrees>
              <LongitudeDegrees>-2.76788053102791309356689453125</LongitudeDegrees>
            </Position>
            <AltitudeMeters>963.5999755859375</AltitudeMeters>
            <DistanceMeters>136769.47293361</DistanceMeters>
          </Trackpoint>
          <Trackpoint>
            <Time>2021-07-28T11:28:38.000Z</Time>
            <Position>
              <LatitudeDegrees>41.58974197693169116973876953125</LatitudeDegrees>
              <LongitudeDegrees>-2.76801296509802341461181640625</LongitudeDegrees>
            </Position>
            <AltitudeMeters>964.20001220703125</AltitudeMeters>
            <DistanceMeters>136831.68517521</DistanceMeters>
          </Trackpoint>
          <Trackpoint>
            <Time>2021-07-28T11:28:41.000Z</Time>
            <Position>
              <LatitudeDegrees>41.58985312096774578094482421875</LatitudeDegrees>
              <LongitudeDegrees>-2.7680408768355846405029296875</LongitudeDegrees>
            </Position>
            <AltitudeMeters>964.5999755859375</AltitudeMeters>
            <DistanceMeters>136844.27218006</DistanceMeters>
          </Trackpoint>
          <Trackpoint>
            <Time>2021-07-28T11:28:55.000Z</Time>
            <Position>
              <LatitudeDegrees>41.5903878025710582733154296875</LatitudeDegrees>
              <LongitudeDegrees>-2.768168784677982330322265625</LongitudeDegrees>
            </Position>
            <AltitudeMeters>964.79998779296875</AltitudeMeters>
            <DistanceMeters>136904.72829225</DistanceMeters>
          </Trackpoint>
          <Trackpoint>
            <Time>2021-07-28T11:29:04.000Z</Time>
            <Position>
              <LatitudeDegrees>41.5907420217990875244140625</LatitudeDegrees>
              <LongitudeDegrees>-2.76826023124158382415771484375</LongitudeDegrees>
            </Position>
            <AltitudeMeters>965.5999755859375</AltitudeMeters>
            <DistanceMeters>136944.88166146</DistanceMeters>
          </Trackpoint>
          <Trackpoint>
            <Time>2021-07-28T11:29:13.000Z</Time>
            <Position>
              <LatitudeDegrees>41.59106212668120861053466796875</LatitudeDegrees>
              <LongitudeDegrees>-2.76833600364625453948974609375</LongitudeDegrees>
            </Position>
            <AltitudeMeters>966.5999755859375</AltitudeMeters>
            <DistanceMeters>136981.06401106</DistanceMeters>
          </Trackpoint>
          <Trackpoint>
            <Time>2021-07-28T11:29:24.000Z</Time>
            <Position>
              <LatitudeDegrees>41.5914442576467990875244140625</LatitudeDegrees>
              <LongitudeDegrees>-2.76843474246561527252197265625</LongitudeDegrees>
            </Position>
            <AltitudeMeters>967.5999755859375</AltitudeMeters>
            <DistanceMeters>137024.38285368</DistanceMeters>
          </Trackpoint>
          <Trackpoint>
            <Time>2021-07-28T11:29:39.000Z</Time>
            <Position>
              <LatitudeDegrees>41.59198966808617115020751953125</LatitudeDegrees>
              <LongitudeDegrees>-2.76857589371502399444580078125</LongitudeDegrees>
            </Position>
            <AltitudeMeters>968.4000244140625</AltitudeMeters>
            <DistanceMeters>137086.21487544</DistanceMeters>
          </Trackpoint>
          <Trackpoint>
            <Time>2021-07-28T11:29:45.000Z</Time>
            <Position>
              <LatitudeDegrees>41.592207513749599456787109375</LatitudeDegrees>
              <LongitudeDegrees>-2.76862065307796001434326171875</LongitudeDegrees>
            </Position>
            <AltitudeMeters>968.79998779296875</AltitudeMeters>
            <DistanceMeters>137110.74612805</DistanceMeters>
          </Trackpoint>
          <Trackpoint>
            <Time>2021-07-28T11:30:00.000Z</Time>
            <Position>
              <LatitudeDegrees>41.59275191836059093475341796875</LatitudeDegrees>
              <LongitudeDegrees>-2.76875694282352924346923828125</LongitudeDegrees>
            </Position>
            <AltitudeMeters>969.5999755859375</AltitudeMeters>
            <DistanceMeters>137172.39232413</DistanceMeters>
          </Trackpoint>
          <Trackpoint>
            <Time>2021-07-28T11:30:11.000Z</Time>
            <Position>
              <LatitudeDegrees>41.5931809879839420318603515625</LatitudeDegrees>
              <LongitudeDegrees>-2.76885844767093658447265625</LongitudeDegrees>
            </Position>
            <AltitudeMeters>969.5999755859375</AltitudeMeters>
            <DistanceMeters>137220.89040668</DistanceMeters>
          </Trackpoint>
          <Trackpoint>
            <Time>2021-07-28T11:30:24.000Z</Time>
            <Position>
              <LatitudeDegrees>41.59372170455753803253173828125</LatitudeDegrees>
              <LongitudeDegrees>-2.7690027840435504913330078125</LongitudeDegrees>
            </Position>
            <AltitudeMeters>969.79998779296875</AltitudeMeters>
            <DistanceMeters>137282.26074531</DistanceMeters>
          </Trackpoint>
          <Trackpoint>
            <Time>2021-07-28T11:30:25.000Z</Time>
            <Position>
              <LatitudeDegrees>41.593762524425983428955078125</LatitudeDegrees>
              <LongitudeDegrees>-2.76901644654572010040283203125</LongitudeDegrees>
            </Position>
            <AltitudeMeters>969.79998779296875</AltitudeMeters>
            <DistanceMeters>137286.94412611</DistanceMeters>
          </Trackpoint>
          <Trackpoint>
            <Time>2021-07-28T11:30:39.000Z</Time>
            <Position>
              <LatitudeDegrees>41.5943209268152713775634765625</LatitudeDegrees>
              <LongitudeDegrees>-2.7691446058452129364013671875</LongitudeDegrees>
            </Position>
            <AltitudeMeters>970.4000244140625</AltitudeMeters>
            <DistanceMeters>137350.00435782</DistanceMeters>
          </Trackpoint>
          <Trackpoint>
            <Time>2021-07-28T11:30:46.000Z</Time>
            <Position>
              <LatitudeDegrees>41.59458227455615997314453125</LatitudeDegrees>
              <LongitudeDegrees>-2.7692039497196674346923828125</LongitudeDegrees>
            </Position>
            <AltitudeMeters>970.79998779296875</AltitudeMeters>
            <DistanceMeters>137379.50919623</DistanceMeters>
          </Trackpoint>
          <Trackpoint>
            <Time>2021-07-28T11:31:01.000Z</Time>
            <Position>
              <LatitudeDegrees>41.5951416827738285064697265625</LatitudeDegrees>
              <LongitudeDegrees>-2.769344933331012725830078125</LongitudeDegrees>
            </Position>
            <AltitudeMeters>971.5999755859375</AltitudeMeters>
            <DistanceMeters>137442.86871678</DistanceMeters>
          </Trackpoint>
          <Trackpoint>
            <Time>2021-07-28T11:31:06.000Z</Time>
            <Position>
              <LatitudeDegrees>41.59532533027231693267822265625</LatitudeDegrees>
              <LongitudeDegrees>-2.769380472600460052490234375</LongitudeDegrees>
            </Position>
            <AltitudeMeters>971.79998779296875</AltitudeMeters>
            <DistanceMeters>137463.52211241</DistanceMeters>
          </Trackpoint>
          <Trackpoint>
            <Time>2021-07-28T11:31:14.000Z</Time>
            <Position>
              <LatitudeDegrees>41.5956171043217182159423828125</LatitudeDegrees>
              <LongitudeDegrees>-2.7694560773670673370361328125</LongitudeDegrees>
            </Position>
            <AltitudeMeters>972.79998779296875</AltitudeMeters>
            <DistanceMeters>137496.6012379</DistanceMeters>
          </Trackpoint>
          <Trackpoint>
            <Time>2021-07-28T11:31:28.000Z</Time>
            <Position>
              <LatitudeDegrees>41.59613066352903842926025390625</LatitudeDegrees>
              <LongitudeDegrees>-2.76957920752465724945068359375</LongitudeDegrees>
            </Position>
            <AltitudeMeters>974</AltitudeMeters>
            <DistanceMeters>137554.67290197</DistanceMeters>
          </Trackpoint>
          <Trackpoint>
            <Time>2021-07-28T11:31:36.000Z</Time>
            <Position>
              <LatitudeDegrees>41.59639972262084484100341796875</LatitudeDegrees>
              <LongitudeDegrees>-2.76964643038809299468994140625</LongitudeDegrees>
            </Position>
            <AltitudeMeters>975.20001220703125</AltitudeMeters>
            <DistanceMeters>137585.13811684</DistanceMeters>
          </Trackpoint>
          <Trackpoint>
            <Time>2021-07-28T11:31:42.000Z</Time>
            <Position>
              <LatitudeDegrees>41.5965783409774303436279296875</LatitudeDegrees>
              <LongitudeDegrees>-2.76968884281814098358154296875</LongitudeDegrees>
            </Position>
            <AltitudeMeters>976.20001220703125</AltitudeMeters>
            <DistanceMeters>137605.32944893</DistanceMeters>
          </Trackpoint>
          <Trackpoint>
            <Time>2021-07-28T11:31:49.000Z</Time>
            <Position>
              <LatitudeDegrees>41.59677498042583465576171875</LatitudeDegrees>
              <LongitudeDegrees>-2.76973661966621875762939453125</LongitudeDegrees>
            </Position>
            <AltitudeMeters>977.4000244140625</AltitudeMeters>
            <DistanceMeters>137627.57422649</DistanceMeters>
          </Trackpoint>
          <Trackpoint>
            <Time>2021-07-28T11:31:54.000Z</Time>
            <Position>
              <LatitudeDegrees>41.5969099290668964385986328125</LatitudeDegrees>
              <LongitudeDegrees>-2.7697702310979366302490234375</LongitudeDegrees>
            </Position>
            <AltitudeMeters>978.4000244140625</AltitudeMeters>
            <DistanceMeters>137642.85256004</DistanceMeters>
          </Trackpoint>
          <Trackpoint>
            <Time>2021-07-28T11:32:01.000Z</Time>
            <Position>
              <LatitudeDegrees>41.5970960073173046112060546875</LatitudeDegrees>
              <LongitudeDegrees>-2.7698151580989360809326171875</LongitudeDegrees>
            </Position>
            <AltitudeMeters>979.4000244140625</AltitudeMeters>
            <DistanceMeters>137663.8983494</DistanceMeters>
          </Trackpoint>
          <Trackpoint>
            <Time>2021-07-28T11:32:06.000Z</Time>
            <Position>
              <LatitudeDegrees>41.5972257591784000396728515625</LatitudeDegrees>
              <LongitudeDegrees>-2.76984273456037044525146484375</LongitudeDegrees>
            </Position>
            <AltitudeMeters>980.4000244140625</AltitudeMeters>
            <DistanceMeters>137678.52104341</DistanceMeters>
          </Trackpoint>
          <Trackpoint>
            <Time>2021-07-28T11:32:13.000Z</Time>
            <Position>
              <LatitudeDegrees>41.597407646477222442626953125</LatitudeDegrees>
              <LongitudeDegrees>-2.7698926068842411041259765625</LongitudeDegrees>
            </Position>
            <AltitudeMeters>981.5999755859375</AltitudeMeters>
            <DistanceMeters>137699.18645909</DistanceMeters>
          </Trackpoint>
          <Trackpoint>
            <Time>2021-07-28T11:32:20.000Z</Time>
            <Position>
              <LatitudeDegrees>41.597593389451503753662109375</LatitudeDegrees>
              <LongitudeDegrees>-2.76993661187589168548583984375</LongitudeDegrees>
            </Position>
            <AltitudeMeters>982.79998779296875</AltitudeMeters>
            <DistanceMeters>137720.18198746</DistanceMeters>
          </Trackpoint>
          <Trackpoint>
            <Time>2021-07-28T11:32:25.000Z</Time>
            <Position>
              <LatitudeDegrees>41.597727835178375244140625</LatitudeDegrees>
              <LongitudeDegrees>-2.7699646912515163421630859375</LongitudeDegrees>
            </Position>
            <AltitudeMeters>983.79998779296875</AltitudeMeters>
            <DistanceMeters>137735.32764796</DistanceMeters>
          </Trackpoint>
          <Trackpoint>
            <Time>2021-07-28T11:32:32.000Z</Time>
            <Position>
              <LatitudeDegrees>41.59791466780006885528564453125</LatitudeDegrees>
              <LongitudeDegrees>-2.77001439593732357025146484375</LongitudeDegrees>
            </Position>
            <AltitudeMeters>985</AltitudeMeters>
            <DistanceMeters>137756.52989467</DistanceMeters>
          </Trackpoint>
          <Trackpoint>
            <Time>2021-07-28T11:32:39.000Z</Time>
            <Position>
              <LatitudeDegrees>41.59811030142009258270263671875</LatitudeDegrees>
              <LongitudeDegrees>-2.77005999349057674407958984375</LongitudeDegrees>
            </Position>
            <AltitudeMeters>986</AltitudeMeters>
            <DistanceMeters>137778.63254464</DistanceMeters>
          </Trackpoint>
          <Trackpoint>
            <Time>2021-07-28T11:32:56.000Z</Time>
            <Position>
              <LatitudeDegrees>41.59867725335061550140380859375</LatitudeDegrees>
              <LongitudeDegrees>-2.770202569663524627685546875</LongitudeDegrees>
            </Position>
            <AltitudeMeters>986.4000244140625</AltitudeMeters>
            <DistanceMeters>137842.84163918</DistanceMeters>
          </Trackpoint>
          <Trackpoint>
            <Time>2021-07-28T11:33:00.000Z</Time>
            <Position>
              <LatitudeDegrees>41.5988313965499401092529296875</LatitudeDegrees>
              <LongitudeDegrees>-2.77023752219974994659423828125</LongitudeDegrees>
            </Position>
            <AltitudeMeters>986.4000244140625</AltitudeMeters>
            <DistanceMeters>137860.2432076</DistanceMeters>
          </Trackpoint>
          <Trackpoint>
            <Time>2021-07-28T11:33:14.000Z</Time>
            <Position>
              <LatitudeDegrees>41.5993812493979930877685546875</LatitudeDegrees>
              <LongitudeDegrees>-2.7704759873449802398681640625</LongitudeDegrees>
            </Position>
            <AltitudeMeters>986.4000244140625</AltitudeMeters>
            <DistanceMeters>137924.58113562</DistanceMeters>
          </Trackpoint>
          <Trackpoint>
            <Time>2021-07-28T11:33:27.000Z</Time>
            <Position>
              <LatitudeDegrees>41.59989061765372753143310546875</LatitudeDegrees>
              <LongitudeDegrees>-2.770798690617084503173828125</LongitudeDegrees>
            </Position>
            <AltitudeMeters>986.20001220703125</AltitudeMeters>
            <DistanceMeters>137987.31546654</DistanceMeters>
          </Trackpoint>
          <Trackpoint>
            <Time>2021-07-28T11:33:39.000Z</Time>
            <Position>
              <LatitudeDegrees>41.60039101727306842803955078125</LatitudeDegrees>
              <LongitudeDegrees>-2.77111376635730266571044921875</LongitudeDegrees>
            </Position>
            <AltitudeMeters>986</AltitudeMeters>
            <DistanceMeters>138048.87591084</DistanceMeters>
          </Trackpoint>
          <Trackpoint>
            <Time>2021-07-28T11:33:51.000Z</Time>
            <Position>
              <LatitudeDegrees>41.6008799336850643157958984375</LatitudeDegrees>
              <LongitudeDegrees>-2.7714308537542819976806640625</LongitudeDegrees>
            </Position>
            <AltitudeMeters>986.20001220703125</AltitudeMeters>
            <DistanceMeters>138109.35517029</DistanceMeters>
          </Trackpoint>
          <Trackpoint>
            <Time>2021-07-28T11:34:03.000Z</Time>
            <Position>
              <LatitudeDegrees>41.601407825946807861328125</LatitudeDegrees>
              <LongitudeDegrees>-2.7717674709856510162353515625</LongitudeDegrees>
            </Position>
            <AltitudeMeters>985.5999755859375</AltitudeMeters>
            <DistanceMeters>138174.44840027</DistanceMeters>
          </Trackpoint>
          <Trackpoint>
            <Time>2021-07-28T11:34:07.000Z</Time>
            <Position>
              <LatitudeDegrees>41.6015977598726749420166015625</LatitudeDegrees>
              <LongitudeDegrees>-2.77189336717128753662109375</LongitudeDegrees>
            </Position>
            <AltitudeMeters>985</AltitudeMeters>
            <DistanceMeters>138198.04259771</DistanceMeters>
          </Trackpoint>
          <Trackpoint>
            <Time>2021-07-28T11:34:15.000Z</Time>
            <Position>
              <LatitudeDegrees>41.6019803099334239959716796875</LatitudeDegrees>
              <LongitudeDegrees>-2.77214725501835346221923828125</LongitudeDegrees>
            </Position>
            <AltitudeMeters>983.79998779296875</AltitudeMeters>
            <DistanceMeters>138245.57609629</DistanceMeters>
          </Trackpoint>
          <Trackpoint>
            <Time>2021-07-28T11:34:26.000Z</Time>
            <Position>
              <LatitudeDegrees>41.60247827880084514617919921875</LatitudeDegrees>
              <LongitudeDegrees>-2.7724567987024784088134765625</LongitudeDegrees>
            </Position>
            <AltitudeMeters>984</AltitudeMeters>
            <DistanceMeters>138306.69607931</DistanceMeters>
          </Trackpoint>
          <Trackpoint>
            <Time>2021-07-28T11:34:39.000Z</Time>
            <Position>
              <LatitudeDegrees>41.60300650633871555328369140625</LatitudeDegrees>
              <LongitudeDegrees>-2.7727377600967884063720703125</LongitudeDegrees>
            </Position>
            <AltitudeMeters>984.5999755859375</AltitudeMeters>
            <DistanceMeters>138369.96860218</DistanceMeters>
          </Trackpoint>
          <Trackpoint>
            <Time>2021-07-28T11:34:40.000Z</Time>
            <Position>
              <LatitudeDegrees>41.6030411235988140106201171875</LatitudeDegrees>
              <LongitudeDegrees>-2.77275997214019298553466796875</LongitudeDegrees>
            </Position>
            <AltitudeMeters>985</AltitudeMeters>
            <DistanceMeters>138374.24374835</DistanceMeters>
          </Trackpoint>
          <Trackpoint>
            <Time>2021-07-28T11:34:46.000Z</Time>
            <Position>
              <LatitudeDegrees>41.60324513912200927734375</LatitudeDegrees>
              <LongitudeDegrees>-2.7728983573615550994873046875</LongitudeDegrees>
            </Position>
            <AltitudeMeters>986</AltitudeMeters>
            <DistanceMeters>138399.70487927</DistanceMeters>
          </Trackpoint>
          <Trackpoint>
            <Time>2021-07-28T11:34:52.000Z</Time>
            <Position>
              <LatitudeDegrees>41.60344571806490421295166015625</LatitudeDegrees>
              <LongitudeDegrees>-2.77300958521664142608642578125</LongitudeDegrees>
            </Position>
            <AltitudeMeters>987</AltitudeMeters>
            <DistanceMeters>138423.87288363</DistanceMeters>
          </Trackpoint>
          <Trackpoint>
            <Time>2021-07-28T11:34:58.000Z</Time>
            <Position>
              <LatitudeDegrees>41.6036595404148101806640625</LatitudeDegrees>
              <LongitudeDegrees>-2.7730245888233184814453125</LongitudeDegrees>
            </Position>
            <AltitudeMeters>988.20001220703125</AltitudeMeters>
            <DistanceMeters>138447.70451508</DistanceMeters>
          </Trackpoint>
          <Trackpoint>
            <Time>2021-07-28T11:35:02.000Z</Time>
            <Position>
              <LatitudeDegrees>41.60381636582314968109130859375</LatitudeDegrees>
              <LongitudeDegrees>-2.773009501397609710693359375</LongitudeDegrees>
            </Position>
            <AltitudeMeters>988.20001220703125</AltitudeMeters>
            <DistanceMeters>138465.20440116</DistanceMeters>
          </Trackpoint>
          <Trackpoint>
            <Time>2021-07-28T11:35:07.000Z</Time>
            <Position>
              <LatitudeDegrees>41.60407327115535736083984375</LatitudeDegrees>
              <LongitudeDegrees>-2.77296700514853000640869140625</LongitudeDegrees>
            </Position>
            <AltitudeMeters>986.79998779296875</AltitudeMeters>
            <DistanceMeters>138494.01646334</DistanceMeters>
          </Trackpoint>
          <Trackpoint>
            <Time>2021-07-28T11:35:09.000Z</Time>
            <Position>
              <LatitudeDegrees>41.60420729778707027435302734375</LatitudeDegrees>
              <LongitudeDegrees>-2.77297739870846271514892578125</LongitudeDegrees>
            </Position>
            <AltitudeMeters>985.79998779296875</AltitudeMeters>
            <DistanceMeters>138508.95894206</DistanceMeters>
          </Trackpoint>
          <Trackpoint>
            <Time>2021-07-28T11:35:11.000Z</Time>
            <Position>
              <LatitudeDegrees>41.60435565747320652008056640625</LatitudeDegrees>
              <LongitudeDegrees>-2.77300036512315273284912109375</LongitudeDegrees>
            </Position>
            <AltitudeMeters>984.20001220703125</AltitudeMeters>
            <DistanceMeters>138525.58209968</DistanceMeters>
          </Trackpoint>
          <Trackpoint>
            <Time>2021-07-28T11:35:14.000Z</Time>
            <Position>
              <LatitudeDegrees>41.6045911051332950592041015625</LatitudeDegrees>
              <LongitudeDegrees>-2.7730415202677249908447265625</LongitudeDegrees>
            </Position>
            <AltitudeMeters>983.20001220703125</AltitudeMeters>
            <DistanceMeters>138552.01080402</DistanceMeters>
          </Trackpoint>
          <Trackpoint>
            <Time>2021-07-28T11:35:22.000Z</Time>
            <Position>
              <LatitudeDegrees>41.60517456941306591033935546875</LatitudeDegrees>
              <LongitudeDegrees>-2.77314369566738605499267578125</LongitudeDegrees>
            </Position>
            <AltitudeMeters>982.79998779296875</AltitudeMeters>
            <DistanceMeters>138617.50592898</DistanceMeters>
          </Trackpoint>
          <Trackpoint>
            <Time>2021-07-28T11:35:31.000Z</Time>
            <Position>
              <LatitudeDegrees>41.60572685301303863525390625</LatitudeDegrees>
              <LongitudeDegrees>-2.77323505841195583343505859375</LongitudeDegrees>
            </Position>
            <AltitudeMeters>984.20001220703125</AltitudeMeters>
            <DistanceMeters>138679.44468839</DistanceMeters>
          </Trackpoint>
          <Trackpoint>
            <Time>2021-07-28T11:35:38.000Z</Time>
            <Position>
              <LatitudeDegrees>41.60610236227512359619140625</LatitudeDegrees>
              <LongitudeDegrees>-2.77329842559993267059326171875</LongitudeDegrees>
            </Position>
            <AltitudeMeters>984.20001220703125</AltitudeMeters>
            <DistanceMeters>138721.5709001</DistanceMeters>
          </Trackpoint>
          <Trackpoint>
            <Time>2021-07-28T11:35:50.000Z</Time>
            <Position>
              <LatitudeDegrees>41.60668012686073780059814453125</LatitudeDegrees>
              <LongitudeDegrees>-2.77339716441929340362548828125</LongitudeDegrees>
            </Position>
            <AltitudeMeters>985</AltitudeMeters>
            <DistanceMeters>138786.40015552</DistanceMeters>
          </Trackpoint>
          <Trackpoint>
            <Time>2021-07-28T11:35:56.000Z</Time>
            <Position>
              <LatitudeDegrees>41.60694633610546588897705078125</LatitudeDegrees>
              <LongitudeDegrees>-2.77343572117388248443603515625</LongitudeDegrees>
            </Position>
            <AltitudeMeters>985.20001220703125</AltitudeMeters>
            <DistanceMeters>138816.20296326</DistanceMeters>
          </Trackpoint>
          <Trackpoint>
            <Time>2021-07-28T11:36:08.000Z</Time>
            <Position>
              <LatitudeDegrees>41.60745243541896343231201171875</LatitudeDegrees>
              <LongitudeDegrees>-2.77352557517588138580322265625</LongitudeDegrees>
            </Position>
            <AltitudeMeters>986.20001220703125</AltitudeMeters>
            <DistanceMeters>138873.02687262</DistanceMeters>
          </Trackpoint>
          <Trackpoint>
            <Time>2021-07-28T11:36:22.000Z</Time>
            <Position>
              <LatitudeDegrees>41.60801670514047145843505859375</LatitudeDegrees>
              <LongitudeDegrees>-2.77362205088138580322265625</LongitudeDegrees>
            </Position>
            <AltitudeMeters>987.20001220703125</AltitudeMeters>
            <DistanceMeters>138936.34233879</DistanceMeters>
          </Trackpoint>
          <Trackpoint>
            <Time>2021-07-28T11:36:23.000Z</Time>
            <Position>
              <LatitudeDegrees>41.608054339885711669921875</LatitudeDegrees>
              <LongitudeDegrees>-2.77362875640392303466796875</LongitudeDegrees>
            </Position>
            <AltitudeMeters>987.20001220703125</AltitudeMeters>
            <DistanceMeters>138940.56862454</DistanceMeters>
          </Trackpoint>
          <Trackpoint>
            <Time>2021-07-28T11:36:28.000Z</Time>
            <Position>
              <LatitudeDegrees>41.60824268124997615814208984375</LatitudeDegrees>
              <LongitudeDegrees>-2.77366102673113346099853515625</LongitudeDegrees>
            </Position>
            <AltitudeMeters>988.4000244140625</AltitudeMeters>
            <DistanceMeters>138961.70304436</DistanceMeters>
          </Trackpoint>
          <Trackpoint>
            <Time>2021-07-28T11:36:37.000Z</Time>
            <Position>
              <LatitudeDegrees>41.60856924019753932952880859375</LatitudeDegrees>
              <LongitudeDegrees>-2.77371467091143131256103515625</LongitudeDegrees>
            </Position>
            <AltitudeMeters>989.4000244140625</AltitudeMeters>
            <DistanceMeters>138998.32299155</DistanceMeters>
          </Trackpoint>
          <Trackpoint>
            <Time>2021-07-28T11:36:45.000Z</Time>
            <Position>
              <LatitudeDegrees>41.6088444180786609649658203125</LatitudeDegrees>
              <LongitudeDegrees>-2.77376353740692138671875</LongitudeDegrees>
            </Position>
            <AltitudeMeters>990.5999755859375</AltitudeMeters>
            <DistanceMeters>139029.21968233</DistanceMeters>
          </Trackpoint>
          <Trackpoint>
            <Time>2021-07-28T11:36:54.000Z</Time>
            <Position>
              <LatitudeDegrees>41.60911372862756252288818359375</LatitudeDegrees>
              <LongitudeDegrees>-2.773816846311092376708984375</LongitudeDegrees>
            </Position>
            <AltitudeMeters>991.5999755859375</AltitudeMeters>
            <DistanceMeters>139059.5211373</DistanceMeters>
          </Trackpoint>
          <Trackpoint>
            <Time>2021-07-28T11:37:05.000Z</Time>
            <Position>
              <LatitudeDegrees>41.6094358451664447784423828125</LatitudeDegrees>
              <LongitudeDegrees>-2.7738689817488193511962890625</LongitudeDegrees>
            </Position>
            <AltitudeMeters>992.5999755859375</AltitudeMeters>
            <DistanceMeters>139095.63491459</DistanceMeters>
          </Trackpoint>
          <Trackpoint>
            <Time>2021-07-28T11:37:15.000Z</Time>
            <Position>
              <LatitudeDegrees>41.6097215004265308380126953125</LatitudeDegrees>
              <LongitudeDegrees>-2.7739471010863780975341796875</LongitudeDegrees>
            </Position>
            <AltitudeMeters>993.79998779296875</AltitudeMeters>
            <DistanceMeters>139128.0866419</DistanceMeters>
          </Trackpoint>
          <Trackpoint>
            <Time>2021-07-28T11:37:26.000Z</Time>
            <Position>
              <LatitudeDegrees>41.61004931665956974029541015625</LatitudeDegrees>
              <LongitudeDegrees>-2.77402765117585659027099609375</LongitudeDegrees>
            </Position>
            <AltitudeMeters>994.79998779296875</AltitudeMeters>
            <DistanceMeters>139165.18383465</DistanceMeters>
          </Trackpoint>
          <Trackpoint>
            <Time>2021-07-28T11:37:40.000Z</Time>
            <Position>
              <LatitudeDegrees>41.61045868881046772003173828125</LatitudeDegrees>
              <LongitudeDegrees>-2.77412957511842250823974609375</LongitudeDegrees>
            </Position>
            <AltitudeMeters>995.79998779296875</AltitudeMeters>
            <DistanceMeters>139211.53057568</DistanceMeters>
          </Trackpoint>
          <Trackpoint>
            <Time>2021-07-28T11:37:51.000Z</Time>
            <Position>
              <LatitudeDegrees>41.6107719205319881439208984375</LatitudeDegrees>
              <LongitudeDegrees>-2.77420467697083950042724609375</LongitudeDegrees>
            </Position>
            <AltitudeMeters>997</AltitudeMeters>
            <DistanceMeters>139246.94967223</DistanceMeters>
          </Trackpoint>
          <Trackpoint>
            <Time>2021-07-28T11:38:04.000Z</Time>
            <Position>
              <LatitudeDegrees>41.61114449612796306610107421875</LatitudeDegrees>
              <LongitudeDegrees>-2.77427759952843189239501953125</LongitudeDegrees>
            </Position>
            <AltitudeMeters>998</AltitudeMeters>
            <DistanceMeters>139288.85968534</DistanceMeters>
          </Trackpoint>
          <Trackpoint>
            <Time>2021-07-28T11:38:11.000Z</Time>
            <Position>
              <LatitudeDegrees>41.611341051757335662841796875</LatitudeDegrees>
              <LongitudeDegrees>-2.774272821843624114990234375</LongitudeDegrees>
            </Position>
            <AltitudeMeters>999.20001220703125</AltitudeMeters>
            <DistanceMeters>139310.74019249</DistanceMeters>
          </Trackpoint>
          <Trackpoint>
            <Time>2021-07-28T11:38:22.000Z</Time>
            <Position>
              <LatitudeDegrees>41.61164003424346446990966796875</LatitudeDegrees>
              <LongitudeDegrees>-2.774250023066997528076171875</LongitudeDegrees>
            </Position>
            <AltitudeMeters>1000.20001220703125</AltitudeMeters>
            <DistanceMeters>139344.07168458</DistanceMeters>
          </Trackpoint>
          <Trackpoint>
            <Time>2021-07-28T11:38:30.000Z</Time>
            <Position>
              <LatitudeDegrees>41.6118644177913665771484375</LatitudeDegrees>
              <LongitudeDegrees>-2.7742186747491359710693359375</LongitudeDegrees>
            </Position>
            <AltitudeMeters>1001.20001220703125</AltitudeMeters>
            <DistanceMeters>139369.18176338</DistanceMeters>
          </Trackpoint>
          <Trackpoint>
            <Time>2021-07-28T11:38:48.000Z</Time>
            <Position>
              <LatitudeDegrees>41.612384431064128875732421875</LatitudeDegrees>
              <LongitudeDegrees>-2.77415069751441478729248046875</LongitudeDegrees>
            </Position>
            <AltitudeMeters>1002.20001220703125</AltitudeMeters>
            <DistanceMeters>139427.33593872</DistanceMeters>
          </Trackpoint>
          <Trackpoint>
            <Time>2021-07-28T11:38:57.000Z</Time>
            <Position>
              <LatitudeDegrees>41.61265323869884014129638671875</LatitudeDegrees>
              <LongitudeDegrees>-2.7741113863885402679443359375</LongitudeDegrees>
            </Position>
            <AltitudeMeters>1002.79998779296875</AltitudeMeters>
            <DistanceMeters>139457.43286595</DistanceMeters>
          </Trackpoint>
          <Trackpoint>
            <Time>2021-07-28T11:39:08.000Z</Time>
            <Position>
              <LatitudeDegrees>41.61299220286309719085693359375</LatitudeDegrees>
              <LongitudeDegrees>-2.7740704827010631561279296875</LongitudeDegrees>
            </Position>
            <AltitudeMeters>1003.4000244140625</AltitudeMeters>
            <DistanceMeters>139495.31337977</DistanceMeters>
          </Trackpoint>
          <Trackpoint>
            <Time>2021-07-28T11:39:23.000Z</Time>
            <Position>
              <LatitudeDegrees>41.613449268043041229248046875</LatitudeDegrees>
              <LongitudeDegrees>-2.77400669641792774200439453125</LongitudeDegrees>
            </Position>
            <AltitudeMeters>1004.4000244140625</AltitudeMeters>
            <DistanceMeters>139546.46176808</DistanceMeters>
          </Trackpoint>
          <Trackpoint>
            <Time>2021-07-28T11:39:35.000Z</Time>
            <Position>
              <LatitudeDegrees>41.61379217170178890228271484375</LatitudeDegrees>
              <LongitudeDegrees>-2.77396847493946552276611328125</LongitudeDegrees>
            </Position>
            <AltitudeMeters>1005.4000244140625</AltitudeMeters>
            <DistanceMeters>139584.75989188</DistanceMeters>
          </Trackpoint>
          <Trackpoint>
            <Time>2021-07-28T11:39:46.000Z</Time>
            <Position>
              <LatitudeDegrees>41.61408939398825168609619140625</LatitudeDegrees>
              <LongitudeDegrees>-2.77397434227168560028076171875</LongitudeDegrees>
            </Position>
            <AltitudeMeters>1006.5999755859375</AltitudeMeters>
            <DistanceMeters>139617.84474954</DistanceMeters>
          </Trackpoint>
          <Trackpoint>
            <Time>2021-07-28T11:39:56.000Z</Time>
            <Position>
              <LatitudeDegrees>41.61436968483030796051025390625</LatitudeDegrees>
              <LongitudeDegrees>-2.77401440776884555816650390625</LongitudeDegrees>
            </Position>
            <AltitudeMeters>1007.5999755859375</AltitudeMeters>
            <DistanceMeters>139649.21925517</DistanceMeters>
          </Trackpoint>
          <Trackpoint>
            <Time>2021-07-28T11:40:04.000Z</Time>
            <Position>
              <LatitudeDegrees>41.61459214054048061370849609375</LatitudeDegrees>
              <LongitudeDegrees>-2.77406997978687286376953125</LongitudeDegrees>
            </Position>
            <AltitudeMeters>1008.5999755859375</AltitudeMeters>
            <DistanceMeters>139674.40707128</DistanceMeters>
          </Trackpoint>
          <Trackpoint>
            <Time>2021-07-28T11:40:06.000Z</Time>
            <Position>
              <LatitudeDegrees>41.614640168845653533935546875</LatitudeDegrees>
              <LongitudeDegrees>-2.77408741414546966552734375</LongitudeDegrees>
            </Position>
            <AltitudeMeters>1009</AltitudeMeters>
            <DistanceMeters>139679.9455882</DistanceMeters>
          </Trackpoint>
          <Trackpoint>
            <Time>2021-07-28T11:40:13.000Z</Time>
            <Position>
              <LatitudeDegrees>41.61478978581726551055908203125</LatitudeDegrees>
              <LongitudeDegrees>-2.77413242496550083160400390625</LongitudeDegrees>
            </Position>
            <AltitudeMeters>1009.5999755859375</AltitudeMeters>
            <DistanceMeters>139697.01393101</DistanceMeters>
          </Trackpoint>
          <Trackpoint>
            <Time>2021-07-28T11:40:24.000Z</Time>
            <Position>
              <LatitudeDegrees>41.61501727066934108734130859375</LatitudeDegrees>
              <LongitudeDegrees>-2.77418003417551517486572265625</LongitudeDegrees>
            </Position>
            <AltitudeMeters>1010.79998779296875</AltitudeMeters>
            <DistanceMeters>139722.64156297</DistanceMeters>
          </Trackpoint>
          <Trackpoint>
            <Time>2021-07-28T11:40:32.000Z</Time>
            <Position>
              <LatitudeDegrees>41.6151777841150760650634765625</LatitudeDegrees>
              <LongitudeDegrees>-2.7742143161594867706298828125</LongitudeDegrees>
            </Position>
            <AltitudeMeters>1011.79998779296875</AltitudeMeters>
            <DistanceMeters>139740.73361125</DistanceMeters>
          </Trackpoint>
          <Trackpoint>
            <Time>2021-07-28T11:40:41.000Z</Time>
            <Position>
              <LatitudeDegrees>41.61535120569169521331787109375</LatitudeDegrees>
              <LongitudeDegrees>-2.77426050044596195220947265625</LongitudeDegrees>
            </Position>
            <AltitudeMeters>1012.79998779296875</AltitudeMeters>
            <DistanceMeters>139760.41492623</DistanceMeters>
          </Trackpoint>
          <Trackpoint>
            <Time>2021-07-28T11:40:52.000Z</Time>
            <Position>
              <LatitudeDegrees>41.61557751707732677459716796875</LatitudeDegrees>
              <LongitudeDegrees>-2.77429805137217044830322265625</LongitudeDegrees>
            </Position>
            <AltitudeMeters>1014</AltitudeMeters>
            <DistanceMeters>139785.79702236</DistanceMeters>
          </Trackpoint>
          <Trackpoint>
            <Time>2021-07-28T11:41:01.000Z</Time>
            <Position>
              <LatitudeDegrees>41.61576627753674983978271484375</LatitudeDegrees>
              <LongitudeDegrees>-2.7743514440953731536865234375</LongitudeDegrees>
            </Position>
            <AltitudeMeters>1015</AltitudeMeters>
            <DistanceMeters>139807.27095734</DistanceMeters>
          </Trackpoint>
          <Trackpoint>
            <Time>2021-07-28T11:41:10.000Z</Time>
            <Position>
              <LatitudeDegrees>41.61594632081687450408935546875</LatitudeDegrees>
              <LongitudeDegrees>-2.774402238428592681884765625</LongitudeDegrees>
            </Position>
            <AltitudeMeters>1016</AltitudeMeters>
            <DistanceMeters>139827.75092293</DistanceMeters>
          </Trackpoint>
          <Trackpoint>
            <Time>2021-07-28T11:41:17.000Z</Time>
            <Position>
              <LatitudeDegrees>41.61609015427529811859130859375</LatitudeDegrees>
              <LongitudeDegrees>-2.7744327485561370849609375</LongitudeDegrees>
            </Position>
            <AltitudeMeters>1017</AltitudeMeters>
            <DistanceMeters>139843.95987336</DistanceMeters>
          </Trackpoint>
          <Trackpoint>
            <Time>2021-07-28T11:41:26.000Z</Time>
            <Position>
              <LatitudeDegrees>41.6162701137363910675048828125</LatitudeDegrees>
              <LongitudeDegrees>-2.77446501888334751129150390625</LongitudeDegrees>
            </Position>
            <AltitudeMeters>1018.20001220703125</AltitudeMeters>
            <DistanceMeters>139864.16908655</DistanceMeters>
          </Trackpoint>
          <Trackpoint>
            <Time>2021-07-28T11:41:38.000Z</Time>
            <Position>
              <LatitudeDegrees>41.6165007837116718292236328125</LatitudeDegrees>
              <LongitudeDegrees>-2.77451832778751850128173828125</LongitudeDegrees>
            </Position>
            <AltitudeMeters>1019.20001220703125</AltitudeMeters>
            <DistanceMeters>139890.22356786</DistanceMeters>
          </Trackpoint>
          <Trackpoint>
            <Time>2021-07-28T11:41:45.000Z</Time>
            <Position>
              <LatitudeDegrees>41.61663816310465335845947265625</LatitudeDegrees>
              <LongitudeDegrees>-2.77454867027699947357177734375</LongitudeDegrees>
            </Position>
            <AltitudeMeters>1020.20001220703125</AltitudeMeters>
            <DistanceMeters>139905.72108196</DistanceMeters>
          </Trackpoint>
          <Trackpoint>
            <Time>2021-07-28T11:41:54.000Z</Time>
            <Position>
              <LatitudeDegrees>41.61681669764220714569091796875</LatitudeDegrees>
              <LongitudeDegrees>-2.77460063807666301727294921875</LongitudeDegrees>
            </Position>
            <AltitudeMeters>1021.4000244140625</AltitudeMeters>
            <DistanceMeters>139926.05724288</DistanceMeters>
          </Trackpoint>
          <Trackpoint>
            <Time>2021-07-28T11:42:03.000Z</Time>
            <Position>
              <LatitudeDegrees>41.6170003451406955718994140625</LatitudeDegrees>
              <LongitudeDegrees>-2.77464020065963268280029296875</LongitudeDegrees>
            </Position>
            <AltitudeMeters>1022.4000244140625</AltitudeMeters>
            <DistanceMeters>139946.76085775</DistanceMeters>
          </Trackpoint>
          <Trackpoint>
            <Time>2021-07-28T11:42:12.000Z</Time>
            <Position>
              <LatitudeDegrees>41.61718918941915035247802734375</LatitudeDegrees>
              <LongitudeDegrees>-2.77468546293675899505615234375</LongitudeDegrees>
            </Position>
            <AltitudeMeters>1023.4000244140625</AltitudeMeters>
            <DistanceMeters>139968.11418723</DistanceMeters>
          </Trackpoint>
          <Trackpoint>
            <Time>2021-07-28T11:42:22.000Z</Time>
            <Position>
              <LatitudeDegrees>41.61740125156939029693603515625</LatitudeDegrees>
              <LongitudeDegrees>-2.77472502551972866058349609375</LongitudeDegrees>
            </Position>
            <AltitudeMeters>1024.5999755859375</AltitudeMeters>
            <DistanceMeters>139991.94562923</DistanceMeters>
          </Trackpoint>
          <Trackpoint>
            <Time>2021-07-28T11:42:28.000Z</Time>
            <Position>
              <LatitudeDegrees>41.61752991378307342529296875</LatitudeDegrees>
              <LongitudeDegrees>-2.7747430466115474700927734375</LongitudeDegrees>
            </Position>
            <AltitudeMeters>1025.4000244140625</AltitudeMeters>
            <DistanceMeters>140006.3446068</DistanceMeters>
          </Trackpoint>
          <Trackpoint>
            <Time>2021-07-28T11:42:36.000Z</Time>
            <Position>
              <LatitudeDegrees>41.6176940314471721649169921875</LatitudeDegrees>
              <LongitudeDegrees>-2.77479685842990875244140625</LongitudeDegrees>
            </Position>
            <AltitudeMeters>1026.4000244140625</AltitudeMeters>
            <DistanceMeters>140025.15197569</DistanceMeters>
          </Trackpoint>
          <Trackpoint>
            <Time>2021-07-28T11:42:44.000Z</Time>
            <Position>
              <LatitudeDegrees>41.617860496044158935546875</LatitudeDegrees>
              <LongitudeDegrees>-2.7748379297554492950439453125</LongitudeDegrees>
            </Position>
            <AltitudeMeters>1027.5999755859375</AltitudeMeters>
            <DistanceMeters>140043.99244476</DistanceMeters>
          </Trackpoint>
          <Trackpoint>
            <Time>2021-07-28T11:42:52.000Z</Time>
            <Position>
              <LatitudeDegrees>41.6180279664695262908935546875</LatitudeDegrees>
              <LongitudeDegrees>-2.77489341795444488525390625</LongitudeDegrees>
            </Position>
            <AltitudeMeters>1028.5999755859375</AltitudeMeters>
            <DistanceMeters>140063.1958367</DistanceMeters>
          </Trackpoint>
          <Trackpoint>
            <Time>2021-07-28T11:43:06.000Z</Time>
            <Position>
              <LatitudeDegrees>41.61832116544246673583984375</LatitudeDegrees>
              <LongitudeDegrees>-2.77504923753440380096435546875</LongitudeDegrees>
            </Position>
            <AltitudeMeters>1029.5999755859375</AltitudeMeters>
            <DistanceMeters>140098.31074719</DistanceMeters>
          </Trackpoint>
          <Trackpoint>
            <Time>2021-07-28T11:43:28.000Z</Time>
            <Position>
              <LatitudeDegrees>41.6188289411365985870361328125</LatitudeDegrees>
              <LongitudeDegrees>-2.775357775390148162841796875</LongitudeDegrees>
            </Position>
            <AltitudeMeters>1030.5999755859375</AltitudeMeters>
            <DistanceMeters>140160.38487085</DistanceMeters>
          </Trackpoint>
          <Trackpoint>
            <Time>2021-07-28T11:43:36.000Z</Time>
            <Position>
              <LatitudeDegrees>41.619019210338592529296875</LatitudeDegrees>
              <LongitudeDegrees>-2.77546766214072704315185546875</LongitudeDegrees>
            </Position>
            <AltitudeMeters>1031.800048828125</AltitudeMeters>
            <DistanceMeters>140183.45171273</DistanceMeters>
          </Trackpoint>
          <Trackpoint>
            <Time>2021-07-28T11:43:53.000Z</Time>
            <Position>
              <LatitudeDegrees>41.6194139979779720306396484375</LatitudeDegrees>
              <LongitudeDegrees>-2.7757099829614162445068359375</LongitudeDegrees>
            </Position>
            <AltitudeMeters>1032.800048828125</AltitudeMeters>
            <DistanceMeters>140231.79743505</DistanceMeters>
          </Trackpoint>
          <Trackpoint>
            <Time>2021-07-28T11:44:06.000Z</Time>
            <Position>
              <LatitudeDegrees>41.61966369487345218658447265625</LatitudeDegrees>
              <LongitudeDegrees>-2.775890529155731201171875</LongitudeDegrees>
            </Position>
            <AltitudeMeters>1033.800048828125</AltitudeMeters>
            <DistanceMeters>140263.38949464</DistanceMeters>
          </Trackpoint>
          <Trackpoint>
            <Time>2021-07-28T11:44:29.000Z</Time>
            <Position>
              <LatitudeDegrees>41.62017063237726688385009765625</LatitudeDegrees>
              <LongitudeDegrees>-2.77618951164186000823974609375</LongitudeDegrees>
            </Position>
            <AltitudeMeters>1034.4000244140625</AltitudeMeters>
            <DistanceMeters>140325.05341253</DistanceMeters>
          </Trackpoint>
          <Trackpoint>
            <Time>2021-07-28T11:44:45.000Z</Time>
            <Position>
              <LatitudeDegrees>41.6205173917114734649658203125</LatitudeDegrees>
              <LongitudeDegrees>-2.77639788575470447540283203125</LongitudeDegrees>
            </Position>
            <AltitudeMeters>1034.5999755859375</AltitudeMeters>
            <DistanceMeters>140367.36378365</DistanceMeters>
          </Trackpoint>
          <Trackpoint>
            <Time>2021-07-28T11:45:07.000Z</Time>
            <Position>
              <LatitudeDegrees>41.62102927453815937042236328125</LatitudeDegrees>
              <LongitudeDegrees>-2.776705585420131683349609375</LongitudeDegrees>
            </Position>
            <AltitudeMeters>1035</AltitudeMeters>
            <DistanceMeters>140429.82540033</DistanceMeters>
          </Trackpoint>
          <Trackpoint>
            <Time>2021-07-28T11:45:24.000Z</Time>
            <Position>
              <LatitudeDegrees>41.6215466894209384918212890625</LatitudeDegrees>
              <LongitudeDegrees>-2.777026109397411346435546875</LongitudeDegrees>
            </Position>
            <AltitudeMeters>1035.199951171875</AltitudeMeters>
            <DistanceMeters>140493.29001438</DistanceMeters>
          </Trackpoint>
          <Trackpoint>
            <Time>2021-07-28T11:45:29.000Z</Time>
            <Position>
              <LatitudeDegrees>41.621703095734119415283203125</LatitudeDegrees>
              <LongitudeDegrees>-2.777118645608425140380859375</LongitudeDegrees>
            </Position>
            <AltitudeMeters>1035.800048828125</AltitudeMeters>
            <DistanceMeters>140512.32526714</DistanceMeters>
          </Trackpoint>
          <Trackpoint>
            <Time>2021-07-28T11:45:38.000Z</Time>
            <Position>
              <LatitudeDegrees>41.6219688020646572113037109375</LatitudeDegrees>
              <LongitudeDegrees>-2.7772824279963970184326171875</LongitudeDegrees>
            </Position>
            <AltitudeMeters>1036.800048828125</AltitudeMeters>
            <DistanceMeters>140544.88755431</DistanceMeters>
          </Trackpoint>
          <Trackpoint>
            <Time>2021-07-28T11:45:55.000Z</Time>
            <Position>
              <LatitudeDegrees>41.62248236127197742462158203125</LatitudeDegrees>
              <LongitudeDegrees>-2.77759230695664882659912109375</LongitudeDegrees>
            </Position>
            <AltitudeMeters>1037.5999755859375</AltitudeMeters>
            <DistanceMeters>140607.59345034</DistanceMeters>
          </Trackpoint>
          <Trackpoint>
            <Time>2021-07-28T11:45:58.000Z</Time>
            <Position>
              <LatitudeDegrees>41.62257154472172260284423828125</LatitudeDegrees>
              <LongitudeDegrees>-2.777650058269500732421875</LongitudeDegrees>
            </Position>
            <AltitudeMeters>1037.5999755859375</AltitudeMeters>
            <DistanceMeters>140618.62187269</DistanceMeters>
          </Trackpoint>
          <Trackpoint>
            <Time>2021-07-28T11:46:14.000Z</Time>
            <Position>
              <LatitudeDegrees>41.62306758575141429901123046875</LatitudeDegrees>
              <LongitudeDegrees>-2.77794971130788326263427734375</LongitudeDegrees>
            </Position>
            <AltitudeMeters>1038.4000244140625</AltitudeMeters>
            <DistanceMeters>140679.20049009</DistanceMeters>
          </Trackpoint>
          <Trackpoint>
            <Time>2021-07-28T11:46:16.000Z</Time>
            <Position>
              <LatitudeDegrees>41.62312810309231281280517578125</LatitudeDegrees>
              <LongitudeDegrees>-2.7779881842434406280517578125</LongitudeDegrees>
            </Position>
            <AltitudeMeters>1038.5999755859375</AltitudeMeters>
            <DistanceMeters>140686.6587252</DistanceMeters>
          </Trackpoint>
          <Trackpoint>
            <Time>2021-07-28T11:46:26.000Z</Time>
            <Position>
              <LatitudeDegrees>41.6234527342021465301513671875</LatitudeDegrees>
              <LongitudeDegrees>-2.77818608097732067108154296875</LongitudeDegrees>
            </Position>
            <AltitudeMeters>1039</AltitudeMeters>
            <DistanceMeters>140726.36556702</DistanceMeters>
          </Trackpoint>
          <Trackpoint>
            <Time>2021-07-28T11:46:44.000Z</Time>
            <Position>
              <LatitudeDegrees>41.6239667125046253204345703125</LatitudeDegrees>
              <LongitudeDegrees>-2.7785081975162029266357421875</LongitudeDegrees>
            </Position>
            <AltitudeMeters>1039.199951171875</AltitudeMeters>
            <DistanceMeters>140789.53896652</DistanceMeters>
          </Trackpoint>
          <Trackpoint>
            <Time>2021-07-28T11:47:00.000Z</Time>
            <Position>
              <LatitudeDegrees>41.624480523169040679931640625</LatitudeDegrees>
              <LongitudeDegrees>-2.77881606481969356536865234375</LongitudeDegrees>
            </Position>
            <AltitudeMeters>1039</AltitudeMeters>
            <DistanceMeters>140852.20142945</DistanceMeters>
          </Trackpoint>
          <Trackpoint>
            <Time>2021-07-28T11:47:10.000Z</Time>
            <Position>
              <LatitudeDegrees>41.6247924976050853729248046875</LatitudeDegrees>
              <LongitudeDegrees>-2.779010944068431854248046875</LongitudeDegrees>
            </Position>
            <AltitudeMeters>1039.5999755859375</AltitudeMeters>
            <DistanceMeters>140890.52371347</DistanceMeters>
          </Trackpoint>
          <Trackpoint>
            <Time>2021-07-28T11:47:20.000Z</Time>
            <Position>
              <LatitudeDegrees>41.62508460693061351776123046875</LatitudeDegrees>
              <LongitudeDegrees>-2.77919073589146137237548828125</LongitudeDegrees>
            </Position>
            <AltitudeMeters>1040.800048828125</AltitudeMeters>
            <DistanceMeters>140926.31209123</DistanceMeters>
          </Trackpoint>
          <Trackpoint>
            <Time>2021-07-28T11:47:28.000Z</Time>
            <Position>
              <LatitudeDegrees>41.62530303932726383209228515625</LatitudeDegrees>
              <LongitudeDegrees>-2.7793356589972972869873046875</LongitudeDegrees>
            </Position>
            <AltitudeMeters>1041.800048828125</AltitudeMeters>
            <DistanceMeters>140953.4498309</DistanceMeters>
          </Trackpoint>
          <Trackpoint>
            <Time>2021-07-28T11:47:34.000Z</Time>
            <Position>
              <LatitudeDegrees>41.62546196021139621734619140625</LatitudeDegrees>
              <LongitudeDegrees>-2.77943582274019718170166015625</LongitudeDegrees>
            </Position>
            <AltitudeMeters>1043</AltitudeMeters>
            <DistanceMeters>140973.00271755</DistanceMeters>
          </Trackpoint>
          <Trackpoint>
            <Time>2021-07-28T11:47:42.000Z</Time>
            <Position>
              <LatitudeDegrees>41.62565994076430797576904296875</LatitudeDegrees>
              <LongitudeDegrees>-2.77954612858593463897705078125</LongitudeDegrees>
            </Position>
            <AltitudeMeters>1044</AltitudeMeters>
            <DistanceMeters>140996.87315583</DistanceMeters>
          </Trackpoint>
          <Trackpoint>
            <Time>2021-07-28T11:47:51.000Z</Time>
            <Position>
              <LatitudeDegrees>41.62587225437164306640625</LatitudeDegrees>
              <LongitudeDegrees>-2.77962307445704936981201171875</LongitudeDegrees>
            </Position>
            <AltitudeMeters>1045</AltitudeMeters>
            <DistanceMeters>141021.35595478</DistanceMeters>
          </Trackpoint>
          <Trackpoint>
            <Time>2021-07-28T11:47:58.000Z</Time>
            <Position>
              <LatitudeDegrees>41.62603729404509067535400390625</LatitudeDegrees>
              <LongitudeDegrees>-2.779670096933841705322265625</LongitudeDegrees>
            </Position>
            <AltitudeMeters>1046.199951171875</AltitudeMeters>
            <DistanceMeters>141040.13737847</DistanceMeters>
          </Trackpoint>
          <Trackpoint>
            <Time>2021-07-28T11:48:08.000Z</Time>
            <Position>
              <LatitudeDegrees>41.62628464400768280029296875</LatitudeDegrees>
              <LongitudeDegrees>-2.77972633950412273406982421875</LongitudeDegrees>
            </Position>
            <AltitudeMeters>1047</AltitudeMeters>
            <DistanceMeters>141068.06262407</DistanceMeters>
          </Trackpoint>
          <Trackpoint>
            <Time>2021-07-28T11:48:17.000Z</Time>
            <Position>
              <LatitudeDegrees>41.6265040822327136993408203125</LatitudeDegrees>
              <LongitudeDegrees>-2.77976539917290210723876953125</LongitudeDegrees>
            </Position>
            <AltitudeMeters>1048</AltitudeMeters>
            <DistanceMeters>141092.70167862</DistanceMeters>
          </Trackpoint>
          <Trackpoint>
            <Time>2021-07-28T11:48:26.000Z</Time>
            <Position>
              <LatitudeDegrees>41.62672276608645915985107421875</LatitudeDegrees>
              <LongitudeDegrees>-2.779811918735504150390625</LongitudeDegrees>
            </Position>
            <AltitudeMeters>1049.199951171875</AltitudeMeters>
            <DistanceMeters>141117.34751239</DistanceMeters>
          </Trackpoint>
          <Trackpoint>
            <Time>2021-07-28T11:48:46.000Z</Time>
            <Position>
              <LatitudeDegrees>41.627282761037349700927734375</LatitudeDegrees>
              <LongitudeDegrees>-2.7799746952950954437255859375</LongitudeDegrees>
            </Position>
            <AltitudeMeters>1049.5999755859375</AltitudeMeters>
            <DistanceMeters>141181.13033217</DistanceMeters>
          </Trackpoint>
          <Trackpoint>
            <Time>2021-07-28T11:49:02.000Z</Time>
            <Position>
              <LatitudeDegrees>41.62783588282763957977294921875</LatitudeDegrees>
              <LongitudeDegrees>-2.78015457093715667724609375</LongitudeDegrees>
            </Position>
            <AltitudeMeters>1050</AltitudeMeters>
            <DistanceMeters>141244.48657465</DistanceMeters>
          </Trackpoint>
          <Trackpoint>
            <Time>2021-07-28T11:49:17.000Z</Time>
            <Position>
              <LatitudeDegrees>41.62838883697986602783203125</LatitudeDegrees>
              <LongitudeDegrees>-2.78032086789608001708984375</LongitudeDegrees>
            </Position>
            <AltitudeMeters>1050</AltitudeMeters>
            <DistanceMeters>141307.56735188</DistanceMeters>
          </Trackpoint>
          <Trackpoint>
            <Time>2021-07-28T11:49:21.000Z</Time>
            <Position>
              <LatitudeDegrees>41.6285328380763530731201171875</LatitudeDegrees>
              <LongitudeDegrees>-2.78036520816385746002197265625</LongitudeDegrees>
            </Position>
            <AltitudeMeters>1050.4000244140625</AltitudeMeters>
            <DistanceMeters>141324.01411265</DistanceMeters>
          </Trackpoint>
          <Trackpoint>
            <Time>2021-07-28T11:49:32.000Z</Time>
            <Position>
              <LatitudeDegrees>41.62889636121690273284912109375</LatitudeDegrees>
              <LongitudeDegrees>-2.7804851531982421875</LongitudeDegrees>
            </Position>
            <AltitudeMeters>1051.199951171875</AltitudeMeters>
            <DistanceMeters>141365.68730873</DistanceMeters>
          </Trackpoint>
          <Trackpoint>
            <Time>2021-07-28T11:49:45.000Z</Time>
            <Position>
              <LatitudeDegrees>41.62932316772639751434326171875</LatitudeDegrees>
              <LongitudeDegrees>-2.78062739409506320953369140625</LongitudeDegrees>
            </Position>
            <AltitudeMeters>1052.199951171875</AltitudeMeters>
            <DistanceMeters>141414.64350047</DistanceMeters>
          </Trackpoint>
          <Trackpoint>
            <Time>2021-07-28T11:49:59.000Z</Time>
            <Position>
              <LatitudeDegrees>41.62989062257111072540283203125</LatitudeDegrees>
              <LongitudeDegrees>-2.7808045037090778350830078125</LongitudeDegrees>
            </Position>
            <AltitudeMeters>1051.5999755859375</AltitudeMeters>
            <DistanceMeters>141479.49824098</DistanceMeters>
          </Trackpoint>
          <Trackpoint>
            <Time>2021-07-28T11:50:02.000Z</Time>
            <Position>
              <LatitudeDegrees>41.63003026507794857025146484375</LatitudeDegrees>
              <LongitudeDegrees>-2.78084515593945980072021484375</LongitudeDegrees>
            </Position>
            <AltitudeMeters>1051.199951171875</AltitudeMeters>
            <DistanceMeters>141495.40436187</DistanceMeters>
          </Trackpoint>
          <Trackpoint>
            <Time>2021-07-28T11:50:06.000Z</Time>
            <Position>
              <LatitudeDegrees>41.63021131418645381927490234375</LatitudeDegrees>
              <LongitudeDegrees>-2.7808973751962184906005859375</LongitudeDegrees>
            </Position>
            <AltitudeMeters>1050.800048828125</AltitudeMeters>
            <DistanceMeters>141516.01837015</DistanceMeters>
          </Trackpoint>
          <Trackpoint>
            <Time>2021-07-28T11:50:18.000Z</Time>
            <Position>
              <LatitudeDegrees>41.63073853589594364166259765625</LatitudeDegrees>
              <LongitudeDegrees>-2.7810636721551418304443359375</LongitudeDegrees>
            </Position>
            <AltitudeMeters>1050.800048828125</AltitudeMeters>
            <DistanceMeters>141576.30800898</DistanceMeters>
          </Trackpoint>
          <Trackpoint>
            <Time>2021-07-28T11:50:28.000Z</Time>
            <Position>
              <LatitudeDegrees>41.6310956887900829315185546875</LatitudeDegrees>
              <LongitudeDegrees>-2.781182192265987396240234375</LongitudeDegrees>
            </Position>
            <AltitudeMeters>1052.199951171875</AltitudeMeters>
            <DistanceMeters>141617.26419216</DistanceMeters>
          </Trackpoint>
          <Trackpoint>
            <Time>2021-07-28T11:50:36.000Z</Time>
            <Position>
              <LatitudeDegrees>41.631357036530971527099609375</LatitudeDegrees>
              <LongitudeDegrees>-2.7812628261744976043701171875</LongitudeDegrees>
            </Position>
            <AltitudeMeters>1053.4000244140625</AltitudeMeters>
            <DistanceMeters>141647.11604459</DistanceMeters>
          </Trackpoint>
          <Trackpoint>
            <Time>2021-07-28T11:50:45.000Z</Time>
            <Position>
              <LatitudeDegrees>41.63163472898304462432861328125</LatitudeDegrees>
              <LongitudeDegrees>-2.7813496626913547515869140625</LongitudeDegrees>
            </Position>
            <AltitudeMeters>1054.5999755859375</AltitudeMeters>
            <DistanceMeters>141678.85667421</DistanceMeters>
          </Trackpoint>
          <Trackpoint>
            <Time>2021-07-28T11:50:55.000Z</Time>
            <Position>
              <LatitudeDegrees>41.6319573484361171722412109375</LatitudeDegrees>
              <LongitudeDegrees>-2.78144865296781063079833984375</LongitudeDegrees>
            </Position>
            <AltitudeMeters>1055.5999755859375</AltitudeMeters>
            <DistanceMeters>141715.69714774</DistanceMeters>
          </Trackpoint>
          <Trackpoint>
            <Time>2021-07-28T11:51:08.000Z</Time>
            <Position>
              <LatitudeDegrees>41.63234752602875232696533203125</LatitudeDegrees>
              <LongitudeDegrees>-2.78154923580586910247802734375</LongitudeDegrees>
            </Position>
            <AltitudeMeters>1056.5999755859375</AltitudeMeters>
            <DistanceMeters>141759.923381</DistanceMeters>
          </Trackpoint>
          <Trackpoint>
            <Time>2021-07-28T11:51:25.000Z</Time>
            <Position>
              <LatitudeDegrees>41.632912047207355499267578125</LatitudeDegrees>
              <LongitudeDegrees>-2.7815806679427623748779296875</LongitudeDegrees>
            </Position>
            <AltitudeMeters>1057</AltitudeMeters>
            <DistanceMeters>141822.81010486</DistanceMeters>
          </Trackpoint>
          <Trackpoint>
            <Time>2021-07-28T11:51:35.000Z</Time>
            <Position>
              <LatitudeDegrees>41.633277833461761474609375</LatitudeDegrees>
              <LongitudeDegrees>-2.78158762492239475250244140625</LongitudeDegrees>
            </Position>
            <AltitudeMeters>1056.199951171875</AltitudeMeters>
            <DistanceMeters>141863.52691742</DistanceMeters>
          </Trackpoint>
          <Trackpoint>
            <Time>2021-07-28T11:51:47.000Z</Time>
            <Position>
              <LatitudeDegrees>41.63376876153051853179931640625</LatitudeDegrees>
              <LongitudeDegrees>-2.7816022932529449462890625</LongitudeDegrees>
            </Position>
            <AltitudeMeters>1055.4000244140625</AltitudeMeters>
            <DistanceMeters>141918.18173685</DistanceMeters>
          </Trackpoint>
          <Trackpoint>
            <Time>2021-07-28T11:52:00.000Z</Time>
            <Position>
              <LatitudeDegrees>41.6343190334737300872802734375</LatitudeDegrees>
              <LongitudeDegrees>-2.781598269939422607421875</LongitudeDegrees>
            </Position>
            <AltitudeMeters>1055.5999755859375</AltitudeMeters>
            <DistanceMeters>141979.42908974</DistanceMeters>
          </Trackpoint>
          <Trackpoint>
            <Time>2021-07-28T11:52:01.000Z</Time>
            <Position>
              <LatitudeDegrees>41.63435918278992176055908203125</LatitudeDegrees>
              <LongitudeDegrees>-2.78159013949334621429443359375</LongitudeDegrees>
            </Position>
            <AltitudeMeters>1055.5999755859375</AltitudeMeters>
            <DistanceMeters>141983.94960553</DistanceMeters>
          </Trackpoint>
          <Trackpoint>
            <Time>2021-07-28T11:52:02.000Z</Time>
            <Position>
              <LatitudeDegrees>41.6343994997441768646240234375</LatitudeDegrees>
              <LongitudeDegrees>-2.7815786562860012054443359375</LongitudeDegrees>
            </Position>
            <AltitudeMeters>1055.5999755859375</AltitudeMeters>
            <DistanceMeters>141988.53655202</DistanceMeters>
          </Trackpoint>
          <Trackpoint>
            <Time>2021-07-28T11:52:15.000Z</Time>
            <Position>
              <LatitudeDegrees>41.63492512889206409454345703125</LatitudeDegrees>
              <LongitudeDegrees>-2.78133030049502849578857421875</LongitudeDegrees>
            </Position>
            <AltitudeMeters>1054.800048828125</AltitudeMeters>
            <DistanceMeters>142050.5807739</DistanceMeters>
          </Trackpoint>
          <Trackpoint>
            <Time>2021-07-28T11:52:28.000Z</Time>
            <Position>
              <LatitudeDegrees>41.63546458818018436431884765625</LatitudeDegrees>
              <LongitudeDegrees>-2.78107213787734508514404296875</LongitudeDegrees>
            </Position>
            <AltitudeMeters>1054.5999755859375</AltitudeMeters>
            <DistanceMeters>142114.34872654</DistanceMeters>
          </Trackpoint>
          <Trackpoint>
            <Time>2021-07-28T11:52:42.000Z</Time>
            <Position>
              <LatitudeDegrees>41.6360034607350826263427734375</LatitudeDegrees>
              <LongitudeDegrees>-2.780803330242633819580078125</LongitudeDegrees>
            </Position>
            <AltitudeMeters>1055.5999755859375</AltitudeMeters>
            <DistanceMeters>142178.35907684</DistanceMeters>
          </Trackpoint>
          <Trackpoint>
            <Time>2021-07-28T11:52:46.000Z</Time>
            <Position>
              <LatitudeDegrees>41.6361384093761444091796875</LatitudeDegrees>
              <LongitudeDegrees>-2.78073719702661037445068359375</LongitudeDegrees>
            </Position>
            <AltitudeMeters>1056.4000244140625</AltitudeMeters>
            <DistanceMeters>142194.35464454</DistanceMeters>
          </Trackpoint>
          <Trackpoint>
            <Time>2021-07-28T11:52:52.000Z</Time>
            <Position>
              <LatitudeDegrees>41.63631082512438297271728515625</LatitudeDegrees>
              <LongitudeDegrees>-2.78065874241292476654052734375</LongitudeDegrees>
            </Position>
            <AltitudeMeters>1057.4000244140625</AltitudeMeters>
            <DistanceMeters>142214.62408997</DistanceMeters>
          </Trackpoint>
          <Trackpoint>
            <Time>2021-07-28T11:52:58.000Z</Time>
            <Position>
              <LatitudeDegrees>41.63646697998046875</LatitudeDegrees>
              <LongitudeDegrees>-2.78058364056050777435302734375</LongitudeDegrees>
            </Position>
            <AltitudeMeters>1058.4000244140625</AltitudeMeters>
            <DistanceMeters>142233.09303979</DistanceMeters>
          </Trackpoint>
          <Trackpoint>
            <Time>2021-07-28T11:53:08.000Z</Time>
            <Position>
              <LatitudeDegrees>41.636722125113010406494140625</LatitudeDegrees>
              <LongitudeDegrees>-2.7804650366306304931640625</LongitudeDegrees>
            </Position>
            <AltitudeMeters>1059.5999755859375</AltitudeMeters>
            <DistanceMeters>142263.15619433</DistanceMeters>
          </Trackpoint>
          <Trackpoint>
            <Time>2021-07-28T11:53:20.000Z</Time>
            <Position>
              <LatitudeDegrees>41.6370072774589061737060546875</LatitudeDegrees>
              <LongitudeDegrees>-2.78032849542796611785888671875</LongitudeDegrees>
            </Position>
            <AltitudeMeters>1060.5999755859375</AltitudeMeters>
            <DistanceMeters>142296.8653726</DistanceMeters>
          </Trackpoint>
          <Trackpoint>
            <Time>2021-07-28T11:53:28.000Z</Time>
            <Position>
              <LatitudeDegrees>41.63719628937542438507080078125</LatitudeDegrees>
              <LongitudeDegrees>-2.78023310936987400054931640625</LongitudeDegrees>
            </Position>
            <AltitudeMeters>1061.800048828125</AltitudeMeters>
            <DistanceMeters>142319.34958483</DistanceMeters>
          </Trackpoint>
          <Trackpoint>
            <Time>2021-07-28T11:53:38.000Z</Time>
            <Position>
              <LatitudeDegrees>41.63743752054870128631591796875</LatitudeDegrees>
              <LongitudeDegrees>-2.7801324427127838134765625</LongitudeDegrees>
            </Position>
            <AltitudeMeters>1062.800048828125</AltitudeMeters>
            <DistanceMeters>142347.47460281</DistanceMeters>
          </Trackpoint>
          <Trackpoint>
            <Time>2021-07-28T11:53:45.000Z</Time>
            <Position>
              <LatitudeDegrees>41.63759660907089710235595703125</LatitudeDegrees>
              <LongitudeDegrees>-2.78006765060126781463623046875</LongitudeDegrees>
            </Position>
            <AltitudeMeters>1064</AltitudeMeters>
            <DistanceMeters>142365.9836017</DistanceMeters>
          </Trackpoint>
          <Trackpoint>
            <Time>2021-07-28T11:53:54.000Z</Time>
            <Position>
              <LatitudeDegrees>41.6377951763570308685302734375</LatitudeDegrees>
              <LongitudeDegrees>-2.7799505554139614105224609375</LongitudeDegrees>
            </Position>
            <AltitudeMeters>1065</AltitudeMeters>
            <DistanceMeters>142390.13572124</DistanceMeters>
          </Trackpoint>
          <Trackpoint>
            <Time>2021-07-28T11:54:02.000Z</Time>
            <Position>
              <LatitudeDegrees>41.637981422245502471923828125</LatitudeDegrees>
              <LongitudeDegrees>-2.77986832894384860992431640625</LongitudeDegrees>
            </Position>
            <AltitudeMeters>1066</AltitudeMeters>
            <DistanceMeters>142411.96457998</DistanceMeters>
          </Trackpoint>
          <Trackpoint>
            <Time>2021-07-28T11:54:04.000Z</Time>
            <Position>
              <LatitudeDegrees>41.63803045637905597686767578125</LatitudeDegrees>
              <LongitudeDegrees>-2.77984687127172946929931640625</LongitudeDegrees>
            </Position>
            <AltitudeMeters>1066.199951171875</AltitudeMeters>
            <DistanceMeters>142417.70642716</DistanceMeters>
          </Trackpoint>
          <Trackpoint>
            <Time>2021-07-28T11:54:15.000Z</Time>
            <Position>
              <LatitudeDegrees>41.63829314522445201873779296875</LatitudeDegrees>
              <LongitudeDegrees>-2.77970890514552593231201171875</LongitudeDegrees>
            </Position>
            <AltitudeMeters>1067.199951171875</AltitudeMeters>
            <DistanceMeters>142449.11588293</DistanceMeters>
          </Trackpoint>
          <Trackpoint>
            <Time>2021-07-28T11:54:24.000Z</Time>
            <Position>
              <LatitudeDegrees>41.6385093145072460174560546875</LatitudeDegrees>
              <LongitudeDegrees>-2.77962760068476200103759765625</LongitudeDegrees>
            </Position>
            <AltitudeMeters>1068.199951171875</AltitudeMeters>
            <DistanceMeters>142474.10827013</DistanceMeters>
          </Trackpoint>
          <Trackpoint>
            <Time>2021-07-28T11:54:30.000Z</Time>
            <Position>
              <LatitudeDegrees>41.63864560425281524658203125</LatitudeDegrees>
              <LongitudeDegrees>-2.779586948454380035400390625</LongitudeDegrees>
            </Position>
            <AltitudeMeters>1069.4000244140625</AltitudeMeters>
            <DistanceMeters>142489.64971423</DistanceMeters>
          </Trackpoint>
          <Trackpoint>
            <Time>2021-07-28T11:54:36.000Z</Time>
            <Position>
              <LatitudeDegrees>41.6387872584164142608642578125</LatitudeDegrees>
              <LongitudeDegrees>-2.7795897983014583587646484375</LongitudeDegrees>
            </Position>
            <AltitudeMeters>1070.4000244140625</AltitudeMeters>
            <DistanceMeters>142505.4178506</DistanceMeters>
          </Trackpoint>
          <Trackpoint>
            <Time>2021-07-28T11:54:46.000Z</Time>
            <Position>
              <LatitudeDegrees>41.639028489589691162109375</LatitudeDegrees>
              <LongitudeDegrees>-2.77964771725237369537353515625</LongitudeDegrees>
            </Position>
            <AltitudeMeters>1071.4000244140625</AltitudeMeters>
            <DistanceMeters>142532.69598029</DistanceMeters>
          </Trackpoint>
          <Trackpoint>
            <Time>2021-07-28T11:54:52.000Z</Time>
            <Position>
              <LatitudeDegrees>41.6391604207456111907958984375</LatitudeDegrees>
              <LongitudeDegrees>-2.7797104977071285247802734375</LongitudeDegrees>
            </Position>
            <AltitudeMeters>1072</AltitudeMeters>
            <DistanceMeters>142548.28094087</DistanceMeters>
          </Trackpoint>
          <Trackpoint>
            <Time>2021-07-28T11:54:56.000Z</Time>
            <Position>
              <LatitudeDegrees>41.639242060482501983642578125</LatitudeDegrees>
              <LongitudeDegrees>-2.77975098229944705963134765625</LongitudeDegrees>
            </Position>
            <AltitudeMeters>1072.5999755859375</AltitudeMeters>
            <DistanceMeters>142557.97180229</DistanceMeters>
          </Trackpoint>
          <Trackpoint>
            <Time>2021-07-28T11:54:59.000Z</Time>
            <Position>
              <LatitudeDegrees>41.63930282928049564361572265625</LatitudeDegrees>
              <LongitudeDegrees>-2.7797778882086277008056640625</LongitudeDegrees>
            </Position>
            <AltitudeMeters>1073.800048828125</AltitudeMeters>
            <DistanceMeters>142565.09627137</DistanceMeters>
          </Trackpoint>
          <Trackpoint>
            <Time>2021-07-28T11:55:12.000Z</Time>
            <Position>
              <LatitudeDegrees>41.63956987671554088592529296875</LatitudeDegrees>
              <LongitudeDegrees>-2.77989934198558330535888671875</LongitudeDegrees>
            </Position>
            <AltitudeMeters>1074.800048828125</AltitudeMeters>
            <DistanceMeters>142596.48933562</DistanceMeters>
          </Trackpoint>
          <Trackpoint>
            <Time>2021-07-28T11:55:21.000Z</Time>
            <Position>
              <LatitudeDegrees>41.6397642530500888824462890625</LatitudeDegrees>
              <LongitudeDegrees>-2.77998098172247409820556640625</LongitudeDegrees>
            </Position>
            <AltitudeMeters>1075.800048828125</AltitudeMeters>
            <DistanceMeters>142619.16470888</DistanceMeters>
          </Trackpoint>
          <Trackpoint>
            <Time>2021-07-28T11:55:32.000Z</Time>
            <Position>
              <LatitudeDegrees>41.64001260884106159210205078125</LatitudeDegrees>
              <LongitudeDegrees>-2.78009061701595783233642578125</LongitudeDegrees>
            </Position>
            <AltitudeMeters>1076.800048828125</AltitudeMeters>
            <DistanceMeters>142648.27268051</DistanceMeters>
          </Trackpoint>
          <Trackpoint>
            <Time>2021-07-28T11:55:52.000Z</Time>
            <Position>
              <LatitudeDegrees>41.64052843116223812103271484375</LatitudeDegrees>
              <LongitudeDegrees>-2.78034911490976810455322265625</LongitudeDegrees>
            </Position>
            <AltitudeMeters>1077</AltitudeMeters>
            <DistanceMeters>142709.57905316</DistanceMeters>
          </Trackpoint>
          <Trackpoint>
            <Time>2021-07-28T11:56:06.000Z</Time>
            <Position>
              <LatitudeDegrees>41.64091081358492374420166015625</LatitudeDegrees>
              <LongitudeDegrees>-2.78051340021193027496337890625</LongitudeDegrees>
            </Position>
            <AltitudeMeters>1078</AltitudeMeters>
            <DistanceMeters>142754.2789974</DistanceMeters>
          </Trackpoint>
          <Trackpoint>
            <Time>2021-07-28T11:56:15.000Z</Time>
            <Position>
              <LatitudeDegrees>41.64115321822464466094970703125</LatitudeDegrees>
              <LongitudeDegrees>-2.7806311659514904022216796875</LongitudeDegrees>
            </Position>
            <AltitudeMeters>1079.199951171875</AltitudeMeters>
            <DistanceMeters>142782.98225653</DistanceMeters>
          </Trackpoint>
          <Trackpoint>
            <Time>2021-07-28T11:56:23.000Z</Time>
            <Position>
              <LatitudeDegrees>41.64138070307672023773193359375</LatitudeDegrees>
              <LongitudeDegrees>-2.78072655200958251953125</LongitudeDegrees>
            </Position>
            <AltitudeMeters>1080.199951171875</AltitudeMeters>
            <DistanceMeters>142809.51564832</DistanceMeters>
          </Trackpoint>
          <Trackpoint>
            <Time>2021-07-28T11:56:30.000Z</Time>
            <Position>
              <LatitudeDegrees>41.64157952181994915008544921875</LatitudeDegrees>
              <LongitudeDegrees>-2.7807887457311153411865234375</LongitudeDegrees>
            </Position>
            <AltitudeMeters>1081.4000244140625</AltitudeMeters>
            <DistanceMeters>142832.24114351</DistanceMeters>
          </Trackpoint>
          <Trackpoint>
            <Time>2021-07-28T11:56:37.000Z</Time>
            <Position>
              <LatitudeDegrees>41.6417893208563327789306640625</LatitudeDegrees>
              <LongitudeDegrees>-2.78081573545932769775390625</LongitudeDegrees>
            </Position>
            <AltitudeMeters>1082.4000244140625</AltitudeMeters>
            <DistanceMeters>142855.69985018</DistanceMeters>
          </Trackpoint>
          <Trackpoint>
            <Time>2021-07-28T11:56:45.000Z</Time>
            <Position>
              <LatitudeDegrees>41.642005406320095062255859375</LatitudeDegrees>
              <LongitudeDegrees>-2.78083912096917629241943359375</LongitudeDegrees>
            </Position>
            <AltitudeMeters>1083.5999755859375</AltitudeMeters>
            <DistanceMeters>142879.82915206</DistanceMeters>
          </Trackpoint>
          <Trackpoint>
            <Time>2021-07-28T11:57:06.000Z</Time>
            <Position>
              <LatitudeDegrees>41.6425514034926891326904296875</LatitudeDegrees>
              <LongitudeDegrees>-2.78085974045097827911376953125</LongitudeDegrees>
            </Position>
            <AltitudeMeters>1083.800048828125</AltitudeMeters>
            <DistanceMeters>142940.62382475</DistanceMeters>
          </Trackpoint>
          <Trackpoint>
            <Time>2021-07-28T11:57:24.000Z</Time>
            <Position>
              <LatitudeDegrees>41.64309538900852203369140625</LatitudeDegrees>
              <LongitudeDegrees>-2.7808588184416294097900390625</LongitudeDegrees>
            </Position>
            <AltitudeMeters>1084</AltitudeMeters>
            <DistanceMeters>143001.17053411</DistanceMeters>
          </Trackpoint>
          <Trackpoint>
            <Time>2021-07-28T11:57:28.000Z</Time>
            <Position>
              <LatitudeDegrees>41.64314760826528072357177734375</LatitudeDegrees>
              <LongitudeDegrees>-2.78086678124964237213134765625</LongitudeDegrees>
            </Position>
            <AltitudeMeters>1084</AltitudeMeters>
            <DistanceMeters>143007.02066143</DistanceMeters>
          </Trackpoint>
          <Trackpoint>
            <Time>2021-07-28T11:58:26.000Z</Time>
            <Position>
              <LatitudeDegrees>41.64316806010901927947998046875</LatitudeDegrees>
              <LongitudeDegrees>-2.78086560778319835662841796875</LongitudeDegrees>
            </Position>
            <AltitudeMeters>1085</AltitudeMeters>
            <DistanceMeters>143009.30130258</DistanceMeters>
          </Trackpoint>
          <Trackpoint>
            <Time>2021-07-28T11:58:47.000Z</Time>
            <Position>
              <LatitudeDegrees>41.6437344253063201904296875</LatitudeDegrees>
              <LongitudeDegrees>-2.78089754283428192138671875</LongitudeDegrees>
            </Position>
            <AltitudeMeters>1085</AltitudeMeters>
            <DistanceMeters>143072.3947474</DistanceMeters>
          </Trackpoint>
          <Trackpoint>
            <Time>2021-07-28T11:59:00.000Z</Time>
            <Position>
              <LatitudeDegrees>41.64415041916072368621826171875</LatitudeDegrees>
              <LongitudeDegrees>-2.780925370752811431884765625</LongitudeDegrees>
            </Position>
            <AltitudeMeters>1086</AltitudeMeters>
            <DistanceMeters>143118.75337198</DistanceMeters>
          </Trackpoint>
          <Trackpoint>
            <Time>2021-07-28T11:59:14.000Z</Time>
            <Position>
              <LatitudeDegrees>41.64461729116737842559814453125</LatitudeDegrees>
              <LongitudeDegrees>-2.780936099588871002197265625</LongitudeDegrees>
            </Position>
            <AltitudeMeters>1087</AltitudeMeters>
            <DistanceMeters>143170.72473223</DistanceMeters>
          </Trackpoint>
          <Trackpoint>
            <Time>2021-07-28T11:59:30.000Z</Time>
            <Position>
              <LatitudeDegrees>41.64516580291092395782470703125</LatitudeDegrees>
              <LongitudeDegrees>-2.780963592231273651123046875</LongitudeDegrees>
            </Position>
            <AltitudeMeters>1088</AltitudeMeters>
            <DistanceMeters>143231.81796783</DistanceMeters>
          </Trackpoint>
          <Trackpoint>
            <Time>2021-07-28T11:59:44.000Z</Time>
            <Position>
              <LatitudeDegrees>41.645734347403049468994140625</LatitudeDegrees>
              <LongitudeDegrees>-2.7809946052730083465576171875</LongitudeDegrees>
            </Position>
            <AltitudeMeters>1087.800048828125</AltitudeMeters>
            <DistanceMeters>143295.15068872</DistanceMeters>
          </Trackpoint>
          <Trackpoint>
            <Time>2021-07-28T11:59:56.000Z</Time>
            <Position>
              <LatitudeDegrees>41.64629803039133548736572265625</LatitudeDegrees>
              <LongitudeDegrees>-2.78102788142859935760498046875</LongitudeDegrees>
            </Position>
            <AltitudeMeters>1087.800048828125</AltitudeMeters>
            <DistanceMeters>143357.95076648</DistanceMeters>
          </Trackpoint>
          <Trackpoint>
            <Time>2021-07-28T12:00:07.000Z</Time>
            <Position>
              <LatitudeDegrees>41.64684243500232696533203125</LatitudeDegrees>
              <LongitudeDegrees>-2.78104565106332302093505859375</LongitudeDegrees>
            </Position>
            <AltitudeMeters>1087.4000244140625</AltitudeMeters>
            <DistanceMeters>143418.56209454</DistanceMeters>
          </Trackpoint>
          <Trackpoint>
            <Time>2021-07-28T12:00:18.000Z</Time>
            <Position>
              <LatitudeDegrees>41.64740075357258319854736328125</LatitudeDegrees>
              <LongitudeDegrees>-2.7810754068195819854736328125</LongitudeDegrees>
            </Position>
            <AltitudeMeters>1087.199951171875</AltitudeMeters>
            <DistanceMeters>143480.7532859</DistanceMeters>
          </Trackpoint>
          <Trackpoint>
            <Time>2021-07-28T12:00:29.000Z</Time>
            <Position>
              <LatitudeDegrees>41.64796167053282260894775390625</LatitudeDegrees>
              <LongitudeDegrees>-2.78110633604228496551513671875</LongitudeDegrees>
            </Position>
            <AltitudeMeters>1086.800048828125</AltitudeMeters>
            <DistanceMeters>143543.23745143</DistanceMeters>
          </Trackpoint>
          <Trackpoint>
            <Time>2021-07-28T12:00:40.000Z</Time>
            <Position>
              <LatitudeDegrees>41.64850448258221149444580078125</LatitudeDegrees>
              <LongitudeDegrees>-2.7811248600482940673828125</LongitudeDegrees>
            </Position>
            <AltitudeMeters>1087.5999755859375</AltitudeMeters>
            <DistanceMeters>143603.67324645</DistanceMeters>
          </Trackpoint>
          <Trackpoint>
            <Time>2021-07-28T12:00:47.000Z</Time>
            <Position>
              <LatitudeDegrees>41.64883724413812160491943359375</LatitudeDegrees>
              <LongitudeDegrees>-2.78113332577049732208251953125</LongitudeDegrees>
            </Position>
            <AltitudeMeters>1088</AltitudeMeters>
            <DistanceMeters>143640.71709259</DistanceMeters>
          </Trackpoint>
          <Trackpoint>
            <Time>2021-07-28T12:00:59.000Z</Time>
            <Position>
              <LatitudeDegrees>41.649404279887676239013671875</LatitudeDegrees>
              <LongitudeDegrees>-2.78116903267800807952880859375</LongitudeDegrees>
            </Position>
            <AltitudeMeters>1088.4000244140625</AltitudeMeters>
            <DistanceMeters>143703.89913944</DistanceMeters>
          </Trackpoint>
          <Trackpoint>
            <Time>2021-07-28T12:01:11.000Z</Time>
            <Position>
              <LatitudeDegrees>41.64996628649532794952392578125</LatitudeDegrees>
              <LongitudeDegrees>-2.78119526803493499755859375</LongitudeDegrees>
            </Position>
            <AltitudeMeters>1088.5999755859375</AltitudeMeters>
            <DistanceMeters>143766.48965185</DistanceMeters>
          </Trackpoint>
          <Trackpoint>
            <Time>2021-07-28T12:01:14.000Z</Time>
            <Position>
              <LatitudeDegrees>41.6501011513173580169677734375</LatitudeDegrees>
              <LongitudeDegrees>-2.78120608069002628326416015625</LongitudeDegrees>
            </Position>
            <AltitudeMeters>1088.800048828125</AltitudeMeters>
            <DistanceMeters>143781.52701014</DistanceMeters>
          </Trackpoint>
          <Trackpoint>
            <Time>2021-07-28T12:01:26.000Z</Time>
            <Position>
              <LatitudeDegrees>41.65064253844320774078369140625</LatitudeDegrees>
              <LongitudeDegrees>-2.78123759664595127105712890625</LongitudeDegrees>
            </Position>
            <AltitudeMeters>1089</AltitudeMeters>
            <DistanceMeters>143841.84135732</DistanceMeters>
          </Trackpoint>
          <Trackpoint>
            <Time>2021-07-28T12:01:39.000Z</Time>
            <Position>
              <LatitudeDegrees>41.65120362304151058197021484375</LatitudeDegrees>
              <LongitudeDegrees>-2.781257294118404388427734375</LongitudeDegrees>
            </Position>
            <AltitudeMeters>1088.800048828125</AltitudeMeters>
            <DistanceMeters>143904.31273171</DistanceMeters>
          </Trackpoint>
          <Trackpoint>
            <Time>2021-07-28T12:01:53.000Z</Time>
            <Position>
              <LatitudeDegrees>41.65176101960241794586181640625</LatitudeDegrees>
              <LongitudeDegrees>-2.78129450976848602294921875</LongitudeDegrees>
            </Position>
            <AltitudeMeters>1088.4000244140625</AltitudeMeters>
            <DistanceMeters>143966.42924613</DistanceMeters>
          </Trackpoint>
          <Trackpoint>
            <Time>2021-07-28T12:01:58.000Z</Time>
            <Position>
              <LatitudeDegrees>41.65199889801442623138427734375</LatitudeDegrees>
              <LongitudeDegrees>-2.7813127823173999786376953125</LongitudeDegrees>
            </Position>
            <AltitudeMeters>1087.800048828125</AltitudeMeters>
            <DistanceMeters>143992.94936178</DistanceMeters>
          </Trackpoint>
          <Trackpoint>
            <Time>2021-07-28T12:02:09.000Z</Time>
            <Position>
              <LatitudeDegrees>41.65257004089653491973876953125</LatitudeDegrees>
              <LongitudeDegrees>-2.7813287079334259033203125</LongitudeDegrees>
            </Position>
            <AltitudeMeters>1087.199951171875</AltitudeMeters>
            <DistanceMeters>144056.53253097</DistanceMeters>
          </Trackpoint>
          <Trackpoint>
            <Time>2021-07-28T12:02:13.000Z</Time>
            <Position>
              <LatitudeDegrees>41.65278947912156581878662109375</LatitudeDegrees>
              <LongitudeDegrees>-2.78135192580521106719970703125</LongitudeDegrees>
            </Position>
            <AltitudeMeters>1086.5999755859375</AltitudeMeters>
            <DistanceMeters>144081.03284324</DistanceMeters>
          </Trackpoint>
          <Trackpoint>
            <Time>2021-07-28T12:02:18.000Z</Time>
            <Position>
              <LatitudeDegrees>41.6530713625252246856689453125</LatitudeDegrees>
              <LongitudeDegrees>-2.78136148117482662200927734375</LongitudeDegrees>
            </Position>
            <AltitudeMeters>1086.199951171875</AltitudeMeters>
            <DistanceMeters>144112.41713307</DistanceMeters>
          </Trackpoint>
          <Trackpoint>
            <Time>2021-07-28T12:02:22.000Z</Time>
            <Position>
              <LatitudeDegrees>41.65329876355826854705810546875</LatitudeDegrees>
              <LongitudeDegrees>-2.78140255250036716461181640625</LongitudeDegrees>
            </Position>
            <AltitudeMeters>1085.5999755859375</AltitudeMeters>
            <DistanceMeters>144137.95670065</DistanceMeters>
          </Trackpoint>
          <Trackpoint>
            <Time>2021-07-28T12:02:27.000Z</Time>
            <Position>
              <LatitudeDegrees>41.65361476130783557891845703125</LatitudeDegrees>
              <LongitudeDegrees>-2.7815119363367557525634765625</LongitudeDegrees>
            </Position>
            <AltitudeMeters>1084</AltitudeMeters>
            <DistanceMeters>144174.28525322</DistanceMeters>
          </Trackpoint>
          <Trackpoint>
            <Time>2021-07-28T12:02:29.000Z</Time>
            <Position>
              <LatitudeDegrees>41.6537603549659252166748046875</LatitudeDegrees>
              <LongitudeDegrees>-2.7815702743828296661376953125</LongitudeDegrees>
            </Position>
            <AltitudeMeters>1083</AltitudeMeters>
            <DistanceMeters>144191.20107606</DistanceMeters>
          </Trackpoint>
          <Trackpoint>
            <Time>2021-07-28T12:02:31.000Z</Time>
            <Position>
              <LatitudeDegrees>41.65391810238361358642578125</LatitudeDegrees>
              <LongitudeDegrees>-2.78161796741187572479248046875</LongitudeDegrees>
            </Position>
            <AltitudeMeters>1081.800048828125</AltitudeMeters>
            <DistanceMeters>144209.20105225</DistanceMeters>
          </Trackpoint>
          <Trackpoint>
            <Time>2021-07-28T12:02:34.000Z</Time>
            <Position>
              <LatitudeDegrees>41.65417081676423549652099609375</LatitudeDegrees>
              <LongitudeDegrees>-2.7817003615200519561767578125</LongitudeDegrees>
            </Position>
            <AltitudeMeters>1080.800048828125</AltitudeMeters>
            <DistanceMeters>144238.15115562</DistanceMeters>
          </Trackpoint>
          <Trackpoint>
            <Time>2021-07-28T12:02:36.000Z</Time>
            <Position>
              <LatitudeDegrees>41.65434189140796661376953125</LatitudeDegrees>
              <LongitudeDegrees>-2.78178895823657512664794921875</LongitudeDegrees>
            </Position>
            <AltitudeMeters>1079.800048828125</AltitudeMeters>
            <DistanceMeters>144258.56752965</DistanceMeters>
          </Trackpoint>
          <Trackpoint>
            <Time>2021-07-28T12:02:37.000Z</Time>
            <Position>
              <LatitudeDegrees>41.65441875346004962921142578125</LatitudeDegrees>
              <LongitudeDegrees>-2.7818612940609455108642578125</LongitudeDegrees>
            </Position>
            <AltitudeMeters>1079.4000244140625</AltitudeMeters>
            <DistanceMeters>144269.02521849</DistanceMeters>
          </Trackpoint>
          <Trackpoint>
            <Time>2021-07-28T12:02:39.000Z</Time>
            <Position>
              <LatitudeDegrees>41.6545281372964382171630859375</LatitudeDegrees>
              <LongitudeDegrees>-2.78207059018313884735107421875</LongitudeDegrees>
            </Position>
            <AltitudeMeters>1077.5999755859375</AltitudeMeters>
            <DistanceMeters>144290.26618691</DistanceMeters>
          </Trackpoint>
          <Trackpoint>
            <Time>2021-07-28T12:02:41.000Z</Time>
            <Position>
              <LatitudeDegrees>41.65455604903399944305419921875</LatitudeDegrees>
              <LongitudeDegrees>-2.78233646415174007415771484375</LongitudeDegrees>
            </Position>
            <AltitudeMeters>1075.800048828125</AltitudeMeters>
            <DistanceMeters>144312.59382517</DistanceMeters>
          </Trackpoint>
          <Trackpoint>
            <Time>2021-07-28T12:02:42.000Z</Time>
            <Position>
              <LatitudeDegrees>41.65455185808241367340087890625</LatitudeDegrees>
              <LongitudeDegrees>-2.78247493319213390350341796875</LongitudeDegrees>
            </Position>
            <AltitudeMeters>1074.4000244140625</AltitudeMeters>
            <DistanceMeters>144324.11833663</DistanceMeters>
          </Trackpoint>
          <Trackpoint>
            <Time>2021-07-28T12:02:43.000Z</Time>
            <Position>
              <LatitudeDegrees>41.65455001406371593475341796875</LatitudeDegrees>
              <LongitudeDegrees>-2.7826099656522274017333984375</LongitudeDegrees>
            </Position>
            <AltitudeMeters>1073.199951171875</AltitudeMeters>
            <DistanceMeters>144335.3491918</DistanceMeters>
          </Trackpoint>
          <Trackpoint>
            <Time>2021-07-28T12:02:44.000Z</Time>
            <Position>
              <LatitudeDegrees>41.65455873124301433563232421875</LatitudeDegrees>
              <LongitudeDegrees>-2.78273879550397396087646484375</LongitudeDegrees>
            </Position>
            <AltitudeMeters>1072.5999755859375</AltitudeMeters>
            <DistanceMeters>144346.10695456</DistanceMeters>
          </Trackpoint>
          <Trackpoint>
            <Time>2021-07-28T12:02:46.000Z</Time>
            <Position>
              <LatitudeDegrees>41.65463048033416271209716796875</LatitudeDegrees>
              <LongitudeDegrees>-2.78297114185988903045654296875</LongitudeDegrees>
            </Position>
            <AltitudeMeters>1072</AltitudeMeters>
            <DistanceMeters>144367.0141275</DistanceMeters>
          </Trackpoint>
          <Trackpoint>
            <Time>2021-07-28T12:02:48.000Z</Time>
            <Position>
              <LatitudeDegrees>41.65478185750544071197509765625</LatitudeDegrees>
              <LongitudeDegrees>-2.78313123621046543121337890625</LongitudeDegrees>
            </Position>
            <AltitudeMeters>1070.800048828125</AltitudeMeters>
            <DistanceMeters>144388.48806248</DistanceMeters>
          </Trackpoint>
          <Trackpoint>
            <Time>2021-07-28T12:02:54.000Z</Time>
            <Position>
              <LatitudeDegrees>41.655164659023284912109375</LatitudeDegrees>
              <LongitudeDegrees>-2.78290593065321445465087890625</LongitudeDegrees>
            </Position>
            <AltitudeMeters>1069.5999755859375</AltitudeMeters>
            <DistanceMeters>144435.03243432</DistanceMeters>
          </Trackpoint>
          <Trackpoint>
            <Time>2021-07-28T12:02:56.000Z</Time>
            <Position>
              <LatitudeDegrees>41.655207574367523193359375</LatitudeDegrees>
              <LongitudeDegrees>-2.7827028371393680572509765625</LongitudeDegrees>
            </Position>
            <AltitudeMeters>1068.5999755859375</AltitudeMeters>
            <DistanceMeters>144452.5843598</DistanceMeters>
          </Trackpoint>
          <Trackpoint>
            <Time>2021-07-28T12:02:57.000Z</Time>
            <Position>
              <LatitudeDegrees>41.65523095987737178802490234375</LatitudeDegrees>
              <LongitudeDegrees>-2.78260149993002414703369140625</LongitudeDegrees>
            </Position>
            <AltitudeMeters>1068</AltitudeMeters>
            <DistanceMeters>144461.40496854</DistanceMeters>
          </Trackpoint>
          <Trackpoint>
            <Time>2021-07-28T12:02:59.000Z</Time>
            <Position>
              <LatitudeDegrees>41.6552855260670185089111328125</LatitudeDegrees>
              <LongitudeDegrees>-2.7824031002819538116455078125</LongitudeDegrees>
            </Position>
            <AltitudeMeters>1066.800048828125</AltitudeMeters>
            <DistanceMeters>144478.9861948</DistanceMeters>
          </Trackpoint>
          <Trackpoint>
            <Time>2021-07-28T12:03:07.000Z</Time>
            <Position>
              <LatitudeDegrees>41.65548258461058139801025390625</LatitudeDegrees>
              <LongitudeDegrees>-2.7816711924970149993896484375</LongitudeDegrees>
            </Position>
            <AltitudeMeters>1067.199951171875</AltitudeMeters>
            <DistanceMeters>144543.68284969</DistanceMeters>
          </Trackpoint>
          <Trackpoint>
            <Time>2021-07-28T12:03:11.000Z</Time>
            <Position>
              <LatitudeDegrees>41.65556623600423336029052734375</LatitudeDegrees>
              <LongitudeDegrees>-2.781372964382171630859375</LongitudeDegrees>
            </Position>
            <AltitudeMeters>1068.199951171875</AltitudeMeters>
            <DistanceMeters>144570.17383666</DistanceMeters>
          </Trackpoint>
          <Trackpoint>
            <Time>2021-07-28T12:03:22.000Z</Time>
            <Position>
              <LatitudeDegrees>41.6557596065104007720947265625</LatitudeDegrees>
              <LongitudeDegrees>-2.78066511265933513641357421875</LongitudeDegrees>
            </Position>
            <AltitudeMeters>1068</AltitudeMeters>
            <DistanceMeters>144632.84970007</DistanceMeters>
          </Trackpoint>
          <Trackpoint>
            <Time>2021-07-28T12:03:33.000Z</Time>
            <Position>
              <LatitudeDegrees>41.65599170140922069549560546875</LatitudeDegrees>
              <LongitudeDegrees>-2.779975198209285736083984375</LongitudeDegrees>
            </Position>
            <AltitudeMeters>1068.800048828125</AltitudeMeters>
            <DistanceMeters>144695.77001567</DistanceMeters>
          </Trackpoint>
          <Trackpoint>
            <Time>2021-07-28T12:03:44.000Z</Time>
            <Position>
              <LatitudeDegrees>41.65636830031871795654296875</LatitudeDegrees>
              <LongitudeDegrees>-2.779427357017993927001953125</LongitudeDegrees>
            </Position>
            <AltitudeMeters>1068.4000244140625</AltitudeMeters>
            <DistanceMeters>144757.67713048</DistanceMeters>
          </Trackpoint>
          <Trackpoint>
            <Time>2021-07-28T12:03:55.000Z</Time>
            <Position>
              <LatitudeDegrees>41.65678513236343860626220703125</LatitudeDegrees>
              <LongitudeDegrees>-2.77886518277227878570556640625</LongitudeDegrees>
            </Position>
            <AltitudeMeters>1067.800048828125</AltitudeMeters>
            <DistanceMeters>144823.54017294</DistanceMeters>
          </Trackpoint>
          <Trackpoint>
            <Time>2021-07-28T12:04:06.000Z</Time>
            <Position>
              <LatitudeDegrees>41.65719509124755859375</LatitudeDegrees>
              <LongitudeDegrees>-2.7783090434968471527099609375</LongitudeDegrees>
            </Position>
            <AltitudeMeters>1067.4000244140625</AltitudeMeters>
            <DistanceMeters>144888.50829121</DistanceMeters>
          </Trackpoint>
          <Trackpoint>
            <Time>2021-07-28T12:04:16.000Z</Time>
            <Position>
              <LatitudeDegrees>41.6575560159981250762939453125</LatitudeDegrees>
              <LongitudeDegrees>-2.7778295986354351043701171875</LongitudeDegrees>
            </Position>
            <AltitudeMeters>1067</AltitudeMeters>
            <DistanceMeters>144945.10625335</DistanceMeters>
          </Trackpoint>
          <Trackpoint>
            <Time>2021-07-28T12:04:20.000Z</Time>
            <Position>
              <LatitudeDegrees>41.65771351195871829986572265625</LatitudeDegrees>
              <LongitudeDegrees>-2.7776192128658294677734375</LongitudeDegrees>
            </Position>
            <AltitudeMeters>1065.800048828125</AltitudeMeters>
            <DistanceMeters>144969.87233726</DistanceMeters>
          </Trackpoint>
          <Trackpoint>
            <Time>2021-07-28T12:04:22.000Z</Time>
            <Position>
              <LatitudeDegrees>41.65780336596071720123291015625</LatitudeDegrees>
              <LongitudeDegrees>-2.7774959988892078399658203125</LongitudeDegrees>
            </Position>
            <AltitudeMeters>1064.800048828125</AltitudeMeters>
            <DistanceMeters>144984.1901861</DistanceMeters>
          </Trackpoint>
          <Trackpoint>
            <Time>2021-07-28T12:04:25.000Z</Time>
            <Position>
              <LatitudeDegrees>41.6579539887607097625732421875</LatitudeDegrees>
              <LongitudeDegrees>-2.77729399502277374267578125</LongitudeDegrees>
            </Position>
            <AltitudeMeters>1063.4000244140625</AltitudeMeters>
            <DistanceMeters>145007.92252539</DistanceMeters>
          </Trackpoint>
          <Trackpoint>
            <Time>2021-07-28T12:04:27.000Z</Time>
            <Position>
              <LatitudeDegrees>41.65806421078741550445556640625</LatitudeDegrees>
              <LongitudeDegrees>-2.77715074829757213592529296875</LongitudeDegrees>
            </Position>
            <AltitudeMeters>1062.199951171875</AltitudeMeters>
            <DistanceMeters>145025.0220539</DistanceMeters>
          </Trackpoint>
          <Trackpoint>
            <Time>2021-07-28T12:04:29.000Z</Time>
            <Position>
              <LatitudeDegrees>41.6581732593476772308349609375</LatitudeDegrees>
              <LongitudeDegrees>-2.77699149213731288909912109375</LongitudeDegrees>
            </Position>
            <AltitudeMeters>1061</AltitudeMeters>
            <DistanceMeters>145042.98587342</DistanceMeters>
          </Trackpoint>
          <Trackpoint>
            <Time>2021-07-28T12:04:32.000Z</Time>
            <Position>
              <LatitudeDegrees>41.658356823027133941650390625</LatitudeDegrees>
              <LongitudeDegrees>-2.77674607001245021820068359375</LongitudeDegrees>
            </Position>
            <AltitudeMeters>1059.4000244140625</AltitudeMeters>
            <DistanceMeters>145071.86367734</DistanceMeters>
          </Trackpoint>
          <Trackpoint>
            <Time>2021-07-28T12:04:34.000Z</Time>
            <Position>
              <LatitudeDegrees>41.65848531760275363922119140625</LatitudeDegrees>
              <LongitudeDegrees>-2.77657239697873592376708984375</LongitudeDegrees>
            </Position>
            <AltitudeMeters>1058</AltitudeMeters>
            <DistanceMeters>145092.18873422</DistanceMeters>
          </Trackpoint>
          <Trackpoint>
            <Time>2021-07-28T12:04:36.000Z</Time>
            <Position>
              <LatitudeDegrees>41.65861842222511768341064453125</LatitudeDegrees>
              <LongitudeDegrees>-2.7763969637453556060791015625</LongitudeDegrees>
            </Position>
            <AltitudeMeters>1056.800048828125</AltitudeMeters>
            <DistanceMeters>145112.98070093</DistanceMeters>
          </Trackpoint>
          <Trackpoint>
            <Time>2021-07-28T12:04:40.000Z</Time>
            <Position>
              <LatitudeDegrees>41.65887616574764251708984375</LatitudeDegrees>
              <LongitudeDegrees>-2.776051796972751617431640625</LongitudeDegrees>
            </Position>
            <AltitudeMeters>1055.800048828125</AltitudeMeters>
            <DistanceMeters>145153.56144736</DistanceMeters>
          </Trackpoint>
          <Trackpoint>
            <Time>2021-07-28T12:04:46.000Z</Time>
            <Position>
              <LatitudeDegrees>41.6592054069042205810546875</LatitudeDegrees>
              <LongitudeDegrees>-2.7756030298769474029541015625</LongitudeDegrees>
            </Position>
            <AltitudeMeters>1057</AltitudeMeters>
            <DistanceMeters>145205.86292858</DistanceMeters>
          </Trackpoint>
          <Trackpoint>
            <Time>2021-07-28T12:04:49.000Z</Time>
            <Position>
              <LatitudeDegrees>41.6593395173549652099609375</LatitudeDegrees>
              <LongitudeDegrees>-2.77541720308363437652587890625</LongitudeDegrees>
            </Position>
            <AltitudeMeters>1058.199951171875</AltitudeMeters>
            <DistanceMeters>145227.34737382</DistanceMeters>
          </Trackpoint>
          <Trackpoint>
            <Time>2021-07-28T12:04:51.000Z</Time>
            <Position>
              <LatitudeDegrees>41.6594146192073822021484375</LatitudeDegrees>
              <LongitudeDegrees>-2.775304801762104034423828125</LongitudeDegrees>
            </Position>
            <AltitudeMeters>1058.800048828125</AltitudeMeters>
            <DistanceMeters>145239.88657998</DistanceMeters>
          </Trackpoint>
          <Trackpoint>
            <Time>2021-07-28T12:04:52.000Z</Time>
            <Position>
              <LatitudeDegrees>41.65944135747849941253662109375</LatitudeDegrees>
              <LongitudeDegrees>-2.77524470351636409759521484375</LongitudeDegrees>
            </Position>
            <AltitudeMeters>1059.199951171875</AltitudeMeters>
            <DistanceMeters>145245.70264964</DistanceMeters>
          </Trackpoint>
          <Trackpoint>
            <Time>2021-07-28T12:04:55.000Z</Time>
            <Position>
              <LatitudeDegrees>41.65947354398667812347412109375</LatitudeDegrees>
              <LongitudeDegrees>-2.7750662527978420257568359375</LongitudeDegrees>
            </Position>
            <AltitudeMeters>1059.4000244140625</AltitudeMeters>
            <DistanceMeters>145260.96797482</DistanceMeters>
          </Trackpoint>
          <Trackpoint>
            <Time>2021-07-28T12:05:01.000Z</Time>
            <Position>
              <LatitudeDegrees>41.6594499908387660980224609375</LatitudeDegrees>
              <LongitudeDegrees>-2.77483466081321239471435546875</LongitudeDegrees>
            </Position>
            <AltitudeMeters>1060.4000244140625</AltitudeMeters>
            <DistanceMeters>145280.4036677</DistanceMeters>
          </Trackpoint>
          <Trackpoint>
            <Time>2021-07-28T12:05:04.000Z</Time>
            <Position>
              <LatitudeDegrees>41.6594332270324230194091796875</LatitudeDegrees>
              <LongitudeDegrees>-2.7747497521340847015380859375</LongitudeDegrees>
            </Position>
            <AltitudeMeters>1061.4000244140625</AltitudeMeters>
            <DistanceMeters>145287.70651862</DistanceMeters>
          </Trackpoint>
          <Trackpoint>
            <Time>2021-07-28T12:05:08.000Z</Time>
            <Position>
              <LatitudeDegrees>41.65942132472991943359375</LatitudeDegrees>
              <LongitudeDegrees>-2.77464221231639385223388671875</LongitudeDegrees>
            </Position>
            <AltitudeMeters>1062.5999755859375</AltitudeMeters>
            <DistanceMeters>145296.74655135</DistanceMeters>
          </Trackpoint>
          <Trackpoint>
            <Time>2021-07-28T12:05:16.000Z</Time>
            <Position>
              <LatitudeDegrees>41.65945895947515964508056640625</LatitudeDegrees>
              <LongitudeDegrees>-2.774439789354801177978515625</LongitudeDegrees>
            </Position>
            <AltitudeMeters>1063.5999755859375</AltitudeMeters>
            <DistanceMeters>145314.09250613</DistanceMeters>
          </Trackpoint>
          <Trackpoint>
            <Time>2021-07-28T12:05:25.000Z</Time>
            <Position>
              <LatitudeDegrees>41.65957127697765827178955078125</LatitudeDegrees>
              <LongitudeDegrees>-2.774272151291370391845703125</LongitudeDegrees>
            </Position>
            <AltitudeMeters>1064.5999755859375</AltitudeMeters>
            <DistanceMeters>145332.81686855</DistanceMeters>
          </Trackpoint>
          <Trackpoint>
            <Time>2021-07-28T12:05:32.000Z</Time>
            <Position>
              <LatitudeDegrees>41.65968493558466434478759765625</LatitudeDegrees>
              <LongitudeDegrees>-2.77417835779488086700439453125</LongitudeDegrees>
            </Position>
            <AltitudeMeters>1065.5999755859375</AltitudeMeters>
            <DistanceMeters>145347.67845122</DistanceMeters>
          </Trackpoint>
          <Trackpoint>
            <Time>2021-07-28T12:05:46.000Z</Time>
            <Position>
              <LatitudeDegrees>41.65994393639266490936279296875</LatitudeDegrees>
              <LongitudeDegrees>-2.774071656167507171630859375</LongitudeDegrees>
            </Position>
            <AltitudeMeters>1066.800048828125</AltitudeMeters>
            <DistanceMeters>145377.84041538</DistanceMeters>
          </Trackpoint>
          <Trackpoint>
            <Time>2021-07-28T12:05:53.000Z</Time>
            <Position>
              <LatitudeDegrees>41.6600756160914897918701171875</LatitudeDegrees>
              <LongitudeDegrees>-2.77400451712310314178466796875</LongitudeDegrees>
            </Position>
            <AltitudeMeters>1067.800048828125</AltitudeMeters>
            <DistanceMeters>145393.52385416</DistanceMeters>
          </Trackpoint>
          <Trackpoint>
            <Time>2021-07-28T12:06:04.000Z</Time>
            <Position>
              <LatitudeDegrees>41.66027225553989410400390625</LatitudeDegrees>
              <LongitudeDegrees>-2.77390041388571262359619140625</LongitudeDegrees>
            </Position>
            <AltitudeMeters>1068.800048828125</AltitudeMeters>
            <DistanceMeters>145417.05999742</DistanceMeters>
          </Trackpoint>
          <Trackpoint>
            <Time>2021-07-28T12:06:08.000Z</Time>
            <Position>
              <LatitudeDegrees>41.66034475900232791900634765625</LatitudeDegrees>
              <LongitudeDegrees>-2.7738713286817073822021484375</LongitudeDegrees>
            </Position>
            <AltitudeMeters>1069.4000244140625</AltitudeMeters>
            <DistanceMeters>145425.48474673</DistanceMeters>
          </Trackpoint>
          <Trackpoint>
            <Time>2021-07-28T12:06:12.000Z</Time>
            <Position>
              <LatitudeDegrees>41.66041332297027111053466796875</LatitudeDegrees>
              <LongitudeDegrees>-2.77383939363062381744384765625</LongitudeDegrees>
            </Position>
            <AltitudeMeters>1069.800048828125</AltitudeMeters>
            <DistanceMeters>145433.56481187</DistanceMeters>
          </Trackpoint>
          <Trackpoint>
            <Time>2021-07-28T12:06:19.000Z</Time>
            <Position>
              <LatitudeDegrees>41.6605317592620849609375</LatitudeDegrees>
              <LongitudeDegrees>-2.77377217076718807220458984375</LongitudeDegrees>
            </Position>
            <AltitudeMeters>1071</AltitudeMeters>
            <DistanceMeters>145447.88297605</DistanceMeters>
          </Trackpoint>
          <Trackpoint>
            <Time>2021-07-28T12:06:32.000Z</Time>
            <Position>
              <LatitudeDegrees>41.66075765155255794525146484375</LatitudeDegrees>
              <LongitudeDegrees>-2.77365616522729396820068359375</LongitudeDegrees>
            </Position>
            <AltitudeMeters>1072</AltitudeMeters>
            <DistanceMeters>145474.81244706</DistanceMeters>
          </Trackpoint>
          <Trackpoint>
            <Time>2021-07-28T12:06:42.000Z</Time>
            <Position>
              <LatitudeDegrees>41.66093920357525348663330078125</LatitudeDegrees>
              <LongitudeDegrees>-2.773587517440319061279296875</LongitudeDegrees>
            </Position>
            <AltitudeMeters>1073.199951171875</AltitudeMeters>
            <DistanceMeters>145495.81034083</DistanceMeters>
          </Trackpoint>
          <Trackpoint>
            <Time>2021-07-28T12:06:53.000Z</Time>
            <Position>
              <LatitudeDegrees>41.661132909357547760009765625</LatitudeDegrees>
              <LongitudeDegrees>-2.7734844200313091278076171875</LongitudeDegrees>
            </Position>
            <AltitudeMeters>1074.4000244140625</AltitudeMeters>
            <DistanceMeters>145519.01204286</DistanceMeters>
          </Trackpoint>
          <Trackpoint>
            <Time>2021-07-28T12:07:04.000Z</Time>
            <Position>
              <LatitudeDegrees>41.6613191552460193634033203125</LatitudeDegrees>
              <LongitudeDegrees>-2.7734049595892429351806640625</LongitudeDegrees>
            </Position>
            <AltitudeMeters>1075.4000244140625</AltitudeMeters>
            <DistanceMeters>145540.76921794</DistanceMeters>
          </Trackpoint>
          <Trackpoint>
            <Time>2021-07-28T12:07:18.000Z</Time>
            <Position>
              <LatitudeDegrees>41.6615764796733856201171875</LatitudeDegrees>
              <LongitudeDegrees>-2.77328719384968280792236328125</LongitudeDegrees>
            </Position>
            <AltitudeMeters>1076.4000244140625</AltitudeMeters>
            <DistanceMeters>145571.0377251</DistanceMeters>
          </Trackpoint>
          <Trackpoint>
            <Time>2021-07-28T12:07:22.000Z</Time>
            <Position>
              <LatitudeDegrees>41.661650575697422027587890625</LatitudeDegrees>
              <LongitudeDegrees>-2.7732500620186328887939453125</LongitudeDegrees>
            </Position>
            <AltitudeMeters>1077</AltitudeMeters>
            <DistanceMeters>145579.84398972</DistanceMeters>
          </Trackpoint>
          <Trackpoint>
            <Time>2021-07-28T12:07:26.000Z</Time>
            <Position>
              <LatitudeDegrees>41.66172333061695098876953125</LatitudeDegrees>
              <LongitudeDegrees>-2.77321075089275836944580078125</LongitudeDegrees>
            </Position>
            <AltitudeMeters>1077.4000244140625</AltitudeMeters>
            <DistanceMeters>145588.5771464</DistanceMeters>
          </Trackpoint>
          <Trackpoint>
            <Time>2021-07-28T12:07:39.000Z</Time>
            <Position>
              <LatitudeDegrees>41.6619756259024143218994140625</LatitudeDegrees>
              <LongitudeDegrees>-2.77307127602398395538330078125</LongitudeDegrees>
            </Position>
            <AltitudeMeters>1078.5999755859375</AltitudeMeters>
            <DistanceMeters>145618.95880837</DistanceMeters>
          </Trackpoint>
          <Trackpoint>
            <Time>2021-07-28T12:07:49.000Z</Time>
            <Position>
              <LatitudeDegrees>41.6621784679591655731201171875</LatitudeDegrees>
              <LongitudeDegrees>-2.7729533426463603973388671875</LongitudeDegrees>
            </Position>
            <AltitudeMeters>1079.5999755859375</AltitudeMeters>
            <DistanceMeters>145643.57329555</DistanceMeters>
          </Trackpoint>
          <Trackpoint>
            <Time>2021-07-28T12:07:58.000Z</Time>
            <Position>
              <LatitudeDegrees>41.6623618640005588531494140625</LatitudeDegrees>
              <LongitudeDegrees>-2.77285150252282619476318359375</LongitudeDegrees>
            </Position>
            <AltitudeMeters>1080.5999755859375</AltitudeMeters>
            <DistanceMeters>145665.67267686</DistanceMeters>
          </Trackpoint>
          <Trackpoint>
            <Time>2021-07-28T12:08:10.000Z</Time>
            <Position>
              <LatitudeDegrees>41.66259194724261760711669921875</LatitudeDegrees>
              <LongitudeDegrees>-2.77271387167274951934814453125</LongitudeDegrees>
            </Position>
            <AltitudeMeters>1081.800048828125</AltitudeMeters>
            <DistanceMeters>145693.72198113</DistanceMeters>
          </Trackpoint>
          <Trackpoint>
            <Time>2021-07-28T12:08:24.000Z</Time>
            <Position>
              <LatitudeDegrees>41.66287559084594249725341796875</LatitudeDegrees>
              <LongitudeDegrees>-2.77254740707576274871826171875</LongitudeDegrees>
            </Position>
            <AltitudeMeters>1082.800048828125</AltitudeMeters>
            <DistanceMeters>145728.19324104</DistanceMeters>
          </Trackpoint>
          <Trackpoint>
            <Time>2021-07-28T12:08:28.000Z</Time>
            <Position>
              <LatitudeDegrees>41.66296326555311679840087890625</LatitudeDegrees>
              <LongitudeDegrees>-2.77250625193119049072265625</LongitudeDegrees>
            </Position>
            <AltitudeMeters>1083</AltitudeMeters>
            <DistanceMeters>145738.53457535</DistanceMeters>
          </Trackpoint>
          <Trackpoint>
            <Time>2021-07-28T12:08:45.000Z</Time>
            <Position>
              <LatitudeDegrees>41.66336794383823871612548828125</LatitudeDegrees>
              <LongitudeDegrees>-2.7723129652440547943115234375</LongitudeDegrees>
            </Position>
            <AltitudeMeters>1083.800048828125</AltitudeMeters>
            <DistanceMeters>145786.35766037</DistanceMeters>
          </Trackpoint>
          <Trackpoint>
            <Time>2021-07-28T12:09:06.000Z</Time>
            <Position>
              <LatitudeDegrees>41.66390304453670978546142578125</LatitudeDegrees>
              <LongitudeDegrees>-2.77207919396460056304931640625</LongitudeDegrees>
            </Position>
            <AltitudeMeters>1084.5999755859375</AltitudeMeters>
            <DistanceMeters>145849.00715236</DistanceMeters>
          </Trackpoint>
          <Trackpoint>
            <Time>2021-07-28T12:09:08.000Z</Time>
            <Position>
              <LatitudeDegrees>41.66395132429897785186767578125</LatitudeDegrees>
              <LongitudeDegrees>-2.77205522172152996063232421875</LongitudeDegrees>
            </Position>
            <AltitudeMeters>1084.800048828125</AltitudeMeters>
            <DistanceMeters>145854.73876802</DistanceMeters>
          </Trackpoint>
          <Trackpoint>
            <Time>2021-07-28T12:09:29.000Z</Time>
            <Position>
              <LatitudeDegrees>41.6644808091223239898681640625</LatitudeDegrees>
              <LongitudeDegrees>-2.7718256413936614990234375</LongitudeDegrees>
            </Position>
            <AltitudeMeters>1085.4000244140625</AltitudeMeters>
            <DistanceMeters>145916.6859827</DistanceMeters>
          </Trackpoint>
          <Trackpoint>
            <Time>2021-07-28T12:09:43.000Z</Time>
            <Position>
              <LatitudeDegrees>41.664826311171054840087890625</LatitudeDegrees>
              <LongitudeDegrees>-2.77166546322405338287353515625</LongitudeDegrees>
            </Position>
            <AltitudeMeters>1085.800048828125</AltitudeMeters>
            <DistanceMeters>145957.38205376</DistanceMeters>
          </Trackpoint>
          <Trackpoint>
            <Time>2021-07-28T12:09:50.000Z</Time>
            <Position>
              <LatitudeDegrees>41.6649880819022655487060546875</LatitudeDegrees>
              <LongitudeDegrees>-2.77159337885677814483642578125</LongitudeDegrees>
            </Position>
            <AltitudeMeters>1086.800048828125</AltitudeMeters>
            <DistanceMeters>145976.35886721</DistanceMeters>
          </Trackpoint>
          <Trackpoint>
            <Time>2021-07-28T12:10:04.000Z</Time>
            <Position>
              <LatitudeDegrees>41.6653179936110973358154296875</LatitudeDegrees>
              <LongitudeDegrees>-2.7714415825903415679931640625</LongitudeDegrees>
            </Position>
            <AltitudeMeters>1087.800048828125</AltitudeMeters>
            <DistanceMeters>146015.18725248</DistanceMeters>
          </Trackpoint>
          <Trackpoint>
            <Time>2021-07-28T12:10:15.000Z</Time>
            <Position>
              <LatitudeDegrees>41.66557037271559238433837890625</LatitudeDegrees>
              <LongitudeDegrees>-2.7713322825729846954345703125</LongitudeDegrees>
            </Position>
            <AltitudeMeters>1088.800048828125</AltitudeMeters>
            <DistanceMeters>146044.71106015</DistanceMeters>
          </Trackpoint>
          <Trackpoint>
            <Time>2021-07-28T12:10:24.000Z</Time>
            <Position>
              <LatitudeDegrees>41.665778495371341705322265625</LatitudeDegrees>
              <LongitudeDegrees>-2.77124226093292236328125</LongitudeDegrees>
            </Position>
            <AltitudeMeters>1090</AltitudeMeters>
            <DistanceMeters>146069.05496815</DistanceMeters>
          </Trackpoint>
          <Trackpoint>
            <Time>2021-07-28T12:10:35.000Z</Time>
            <Position>
              <LatitudeDegrees>41.66603238321840763092041015625</LatitudeDegrees>
              <LongitudeDegrees>-2.7711304463446140289306640625</LongitudeDegrees>
            </Position>
            <AltitudeMeters>1091</AltitudeMeters>
            <DistanceMeters>146098.80333872</DistanceMeters>
          </Trackpoint>
          <Trackpoint>
            <Time>2021-07-28T12:10:44.000Z</Time>
            <Position>
              <LatitudeDegrees>41.666233800351619720458984375</LatitudeDegrees>
              <LongitudeDegrees>-2.7710405923426151275634765625</LongitudeDegrees>
            </Position>
            <AltitudeMeters>1092</AltitudeMeters>
            <DistanceMeters>146122.43386701</DistanceMeters>
          </Trackpoint>
          <Trackpoint>
            <Time>2021-07-28T12:10:56.000Z</Time>
            <Position>
              <LatitudeDegrees>41.66650436818599700927734375</LatitudeDegrees>
              <LongitudeDegrees>-2.77092215605080127716064453125</LongitudeDegrees>
            </Position>
            <AltitudeMeters>1093.199951171875</AltitudeMeters>
            <DistanceMeters>146154.11768888</DistanceMeters>
          </Trackpoint>
          <Trackpoint>
            <Time>2021-07-28T12:11:05.000Z</Time>
            <Position>
              <LatitudeDegrees>41.6667073778808116912841796875</LatitudeDegrees>
              <LongitudeDegrees>-2.77082945220172405242919921875</LongitudeDegrees>
            </Position>
            <AltitudeMeters>1094.199951171875</AltitudeMeters>
            <DistanceMeters>146177.99134245</DistanceMeters>
          </Trackpoint>
          <Trackpoint>
            <Time>2021-07-28T12:11:13.000Z</Time>
            <Position>
              <LatitudeDegrees>41.6668894328176975250244140625</LatitudeDegrees>
              <LongitudeDegrees>-2.770753763616085052490234375</LongitudeDegrees>
            </Position>
            <AltitudeMeters>1095.199951171875</AltitudeMeters>
            <DistanceMeters>146199.20934168</DistanceMeters>
          </Trackpoint>
          <Trackpoint>
            <Time>2021-07-28T12:11:23.000Z</Time>
            <Position>
              <LatitudeDegrees>41.667108871042728424072265625</LatitudeDegrees>
              <LongitudeDegrees>-2.77065242640674114227294921875</LongitudeDegrees>
            </Position>
            <AltitudeMeters>1096.199951171875</AltitudeMeters>
            <DistanceMeters>146225.04577547</DistanceMeters>
          </Trackpoint>
          <Trackpoint>
            <Time>2021-07-28T12:11:32.000Z</Time>
            <Position>
              <LatitudeDegrees>41.667308025062084197998046875</LatitudeDegrees>
              <LongitudeDegrees>-2.7705611474812030792236328125</LongitudeDegrees>
            </Position>
            <AltitudeMeters>1097.4000244140625</AltitudeMeters>
            <DistanceMeters>146248.47520882</DistanceMeters>
          </Trackpoint>
          <Trackpoint>
            <Time>2021-07-28T12:11:41.000Z</Time>
            <Position>
              <LatitudeDegrees>41.66751028038561344146728515625</LatitudeDegrees>
              <LongitudeDegrees>-2.7704733051359653472900390625</LongitudeDegrees>
            </Position>
            <AltitudeMeters>1098.4000244140625</AltitudeMeters>
            <DistanceMeters>146272.14163063</DistanceMeters>
          </Trackpoint>
          <Trackpoint>
            <Time>2021-07-28T12:11:50.000Z</Time>
            <Position>
              <LatitudeDegrees>41.66772284545004367828369140625</LatitudeDegrees>
              <LongitudeDegrees>-2.77038319967687129974365234375</LongitudeDegrees>
            </Position>
            <AltitudeMeters>1099.4000244140625</AltitudeMeters>
            <DistanceMeters>146296.95834422</DistanceMeters>
          </Trackpoint>
          <Trackpoint>
            <Time>2021-07-28T12:11:59.000Z</Time>
            <Position>
              <LatitudeDegrees>41.66793541051447391510009765625</LatitudeDegrees>
              <LongitudeDegrees>-2.7702872268855571746826171875</LongitudeDegrees>
            </Position>
            <AltitudeMeters>1100.4000244140625</AltitudeMeters>
            <DistanceMeters>146321.92669254</DistanceMeters>
          </Trackpoint>
          <Trackpoint>
            <Time>2021-07-28T12:12:07.000Z</Time>
            <Position>
              <LatitudeDegrees>41.66812970302999019622802734375</LatitudeDegrees>
              <LongitudeDegrees>-2.7702000550925731658935546875</LongitudeDegrees>
            </Position>
            <AltitudeMeters>1101.5999755859375</AltitudeMeters>
            <DistanceMeters>146344.73389586</DistanceMeters>
          </Trackpoint>
          <Trackpoint>
            <Time>2021-07-28T12:12:17.000Z</Time>
            <Position>
              <LatitudeDegrees>41.6683737002313137054443359375</LatitudeDegrees>
              <LongitudeDegrees>-2.77009050361812114715576171875</LongitudeDegrees>
            </Position>
            <AltitudeMeters>1102.5999755859375</AltitudeMeters>
            <DistanceMeters>146373.37810655</DistanceMeters>
          </Trackpoint>
          <Trackpoint>
            <Time>2021-07-28T12:12:29.000Z</Time>
            <Position>
              <LatitudeDegrees>41.66867067106068134307861328125</LatitudeDegrees>
              <LongitudeDegrees>-2.76994097046554088592529296875</LongitudeDegrees>
            </Position>
            <AltitudeMeters>1103.5999755859375</AltitudeMeters>
            <DistanceMeters>146408.6923913</DistanceMeters>
          </Trackpoint>
          <Trackpoint>
            <Time>2021-07-28T12:12:40.000Z</Time>
            <Position>
              <LatitudeDegrees>41.66895615868270397186279296875</LatitudeDegrees>
              <LongitudeDegrees>-2.76980602182447910308837890625</LongitudeDegrees>
            </Position>
            <AltitudeMeters>1104.5999755859375</AltitudeMeters>
            <DistanceMeters>146442.39058462</DistanceMeters>
          </Trackpoint>
          <Trackpoint>
            <Time>2021-07-28T12:12:50.000Z</Time>
            <Position>
              <LatitudeDegrees>41.6692310012876987457275390625</LatitudeDegrees>
              <LongitudeDegrees>-2.76968188583850860595703125</LongitudeDegrees>
            </Position>
            <AltitudeMeters>1105.5999755859375</AltitudeMeters>
            <DistanceMeters>146474.67534269</DistanceMeters>
          </Trackpoint>
          <Trackpoint>
            <Time>2021-07-28T12:13:07.000Z</Time>
            <Position>
              <LatitudeDegrees>41.66974246501922607421875</LatitudeDegrees>
              <LongitudeDegrees>-2.76944182813167572021484375</LongitudeDegrees>
            </Position>
            <AltitudeMeters>1105.5999755859375</AltitudeMeters>
            <DistanceMeters>146534.99972007</DistanceMeters>
          </Trackpoint>
          <Trackpoint>
            <Time>2021-07-28T12:13:22.000Z</Time>
            <Position>
              <LatitudeDegrees>41.67019802145659923553466796875</LatitudeDegrees>
              <LongitudeDegrees>-2.76900789700448513031005859375</LongitudeDegrees>
            </Position>
            <AltitudeMeters>1104.800048828125</AltitudeMeters>
            <DistanceMeters>146597.22923206</DistanceMeters>
          </Trackpoint>
          <Trackpoint>
            <Time>2021-07-28T12:13:24.000Z</Time>
            <Position>
              <LatitudeDegrees>41.6702602989971637725830078125</LatitudeDegrees>
              <LongitudeDegrees>-2.76894587092101573944091796875</LongitudeDegrees>
            </Position>
            <AltitudeMeters>1104.5999755859375</AltitudeMeters>
            <DistanceMeters>146605.86830503</DistanceMeters>
          </Trackpoint>
          <Trackpoint>
            <Time>2021-07-28T12:13:37.000Z</Time>
            <Position>
              <LatitudeDegrees>41.670712418854236602783203125</LatitudeDegrees>
              <LongitudeDegrees>-2.76844966225326061248779296875</LongitudeDegrees>
            </Position>
            <AltitudeMeters>1104.5999755859375</AltitudeMeters>
            <DistanceMeters>146670.93954334</DistanceMeters>
          </Trackpoint>
          <Trackpoint>
            <Time>2021-07-28T12:13:50.000Z</Time>
            <Position>
              <LatitudeDegrees>41.6711626946926116943359375</LatitudeDegrees>
              <LongitudeDegrees>-2.76796066202223300933837890625</LongitudeDegrees>
            </Position>
            <AltitudeMeters>1104.5999755859375</AltitudeMeters>
            <DistanceMeters>146735.47282805</DistanceMeters>
          </Trackpoint>
          <Trackpoint>
            <Time>2021-07-28T12:14:02.000Z</Time>
            <Position>
              <LatitudeDegrees>41.671580113470554351806640625</LatitudeDegrees>
              <LongitudeDegrees>-2.7675342746078968048095703125</LongitudeDegrees>
            </Position>
            <AltitudeMeters>1105.5999755859375</AltitudeMeters>
            <DistanceMeters>146793.9121714</DistanceMeters>
          </Trackpoint>
          <Trackpoint>
            <Time>2021-07-28T12:14:06.000Z</Time>
            <Position>
              <LatitudeDegrees>41.671747080981731414794921875</LatitudeDegrees>
              <LongitudeDegrees>-2.76741516776382923126220703125</LongitudeDegrees>
            </Position>
            <AltitudeMeters>1105.800048828125</AltitudeMeters>
            <DistanceMeters>146814.9695424</DistanceMeters>
          </Trackpoint>
          <Trackpoint>
            <Time>2021-07-28T12:14:17.000Z</Time>
            <Position>
              <LatitudeDegrees>41.67229936458170413970947265625</LatitudeDegrees>
              <LongitudeDegrees>-2.76723797433078289031982421875</LongitudeDegrees>
            </Position>
            <AltitudeMeters>1105.4000244140625</AltitudeMeters>
            <DistanceMeters>146878.18038138</DistanceMeters>
          </Trackpoint>
          <Trackpoint>
            <Time>2021-07-28T12:14:21.000Z</Time>
            <Position>
              <LatitudeDegrees>41.67252726852893829345703125</LatitudeDegrees>
              <LongitudeDegrees>-2.76717846281826496124267578125</LongitudeDegrees>
            </Position>
            <AltitudeMeters>1104.5999755859375</AltitudeMeters>
            <DistanceMeters>146904.02450323</DistanceMeters>
          </Trackpoint>
          <Trackpoint>
            <Time>2021-07-28T12:14:27.000Z</Time>
            <Position>
              <LatitudeDegrees>41.67289397679269313812255859375</LatitudeDegrees>
              <LongitudeDegrees>-2.76707804761826992034912109375</LongitudeDegrees>
            </Position>
            <AltitudeMeters>1103.4000244140625</AltitudeMeters>
            <DistanceMeters>146945.68480439</DistanceMeters>
          </Trackpoint>
          <Trackpoint>
            <Time>2021-07-28T12:14:31.000Z</Time>
            <Position>
              <LatitudeDegrees>41.67315733619034290313720703125</LatitudeDegrees>
              <LongitudeDegrees>-2.76700562797486782073974609375</LongitudeDegrees>
            </Position>
            <AltitudeMeters>1102.199951171875</AltitudeMeters>
            <DistanceMeters>146975.60901701</DistanceMeters>
          </Trackpoint>
          <Trackpoint>
            <Time>2021-07-28T12:14:36.000Z</Time>
            <Position>
              <LatitudeDegrees>41.6734930314123630523681640625</LatitudeDegrees>
              <LongitudeDegrees>-2.76691761799156665802001953125</LongitudeDegrees>
            </Position>
            <AltitudeMeters>1101.199951171875</AltitudeMeters>
            <DistanceMeters>147013.68225014</DistanceMeters>
          </Trackpoint>
          <Trackpoint>
            <Time>2021-07-28T12:14:43.000Z</Time>
            <Position>
              <LatitudeDegrees>41.67396551929414272308349609375</LatitudeDegrees>
              <LongitudeDegrees>-2.76679851114749908447265625</LongitudeDegrees>
            </Position>
            <AltitudeMeters>1100</AltitudeMeters>
            <DistanceMeters>147067.19520093</DistanceMeters>
          </Trackpoint>
          <Trackpoint>
            <Time>2021-07-28T12:14:52.000Z</Time>
            <Position>
              <LatitudeDegrees>41.67454018257558345794677734375</LatitudeDegrees>
              <LongitudeDegrees>-2.76664922945201396942138671875</LongitudeDegrees>
            </Position>
            <AltitudeMeters>1099.199951171875</AltitudeMeters>
            <DistanceMeters>147132.34930284</DistanceMeters>
          </Trackpoint>
          <Trackpoint>
            <Time>2021-07-28T12:15:02.000Z</Time>
            <Position>
              <LatitudeDegrees>41.6751020215451717376708984375</LatitudeDegrees>
              <LongitudeDegrees>-2.76650740765035152435302734375</LongitudeDegrees>
            </Position>
            <AltitudeMeters>1099.5999755859375</AltitudeMeters>
            <DistanceMeters>147195.98485581</DistanceMeters>
          </Trackpoint>
          <Trackpoint>
            <Time>2021-07-28T12:15:11.000Z</Time>
            <Position>
              <LatitudeDegrees>41.6755358688533306121826171875</LatitudeDegrees>
              <LongitudeDegrees>-2.7663933299481868743896484375</LongitudeDegrees>
            </Position>
            <AltitudeMeters>1101</AltitudeMeters>
            <DistanceMeters>147245.19530023</DistanceMeters>
          </Trackpoint>
          <Trackpoint>
            <Time>2021-07-28T12:15:20.000Z</Time>
            <Position>
              <LatitudeDegrees>41.6759868152439594268798828125</LatitudeDegrees>
              <LongitudeDegrees>-2.76626315899193286895751953125</LongitudeDegrees>
            </Position>
            <AltitudeMeters>1099.800048828125</AltitudeMeters>
            <DistanceMeters>147296.5398969</DistanceMeters>
          </Trackpoint>
          <Trackpoint>
            <Time>2021-07-28T12:15:22.000Z</Time>
            <Position>
              <LatitudeDegrees>41.6760957799851894378662109375</LatitudeDegrees>
              <LongitudeDegrees>-2.76621487922966480255126953125</LongitudeDegrees>
            </Position>
            <AltitudeMeters>1099.4000244140625</AltitudeMeters>
            <DistanceMeters>147309.31454138</DistanceMeters>
          </Trackpoint>
          <Trackpoint>
            <Time>2021-07-28T12:15:26.000Z</Time>
            <Position>
              <LatitudeDegrees>41.67629987932741641998291015625</LatitudeDegrees>
              <LongitudeDegrees>-2.766061238944530487060546875</LongitudeDegrees>
            </Position>
            <AltitudeMeters>1098.5999755859375</AltitudeMeters>
            <DistanceMeters>147335.37578022</DistanceMeters>
          </Trackpoint>
          <Trackpoint>
            <Time>2021-07-28T12:15:33.000Z</Time>
            <Position>
              <LatitudeDegrees>41.6766422800719738006591796875</LatitudeDegrees>
              <LongitudeDegrees>-2.76572755537927150726318359375</LongitudeDegrees>
            </Position>
            <AltitudeMeters>1097.5999755859375</AltitudeMeters>
            <DistanceMeters>147382.51247897</DistanceMeters>
          </Trackpoint>
          <Trackpoint>
            <Time>2021-07-28T12:15:35.000Z</Time>
            <Position>
              <LatitudeDegrees>41.67673557065427303314208984375</LatitudeDegrees>
              <LongitudeDegrees>-2.765641473233699798583984375</LongitudeDegrees>
            </Position>
            <AltitudeMeters>1097.800048828125</AltitudeMeters>
            <DistanceMeters>147395.12313622</DistanceMeters>
          </Trackpoint>
          <Trackpoint>
            <Time>2021-07-28T12:15:38.000Z</Time>
            <Position>
              <LatitudeDegrees>41.67688208632171154022216796875</LatitudeDegrees>
              <LongitudeDegrees>-2.7655480988323688507080078125</LongitudeDegrees>
            </Position>
            <AltitudeMeters>1098.800048828125</AltitudeMeters>
            <DistanceMeters>147413.18396265</DistanceMeters>
          </Trackpoint>
          <Trackpoint>
            <Time>2021-07-28T12:15:45.000Z</Time>
            <Position>
              <LatitudeDegrees>41.677202023565769195556640625</LatitudeDegrees>
              <LongitudeDegrees>-2.76544961147010326385498046875</LongitudeDegrees>
            </Position>
            <AltitudeMeters>1100.199951171875</AltitudeMeters>
            <DistanceMeters>147449.72269199</DistanceMeters>
          </Trackpoint>
          <Trackpoint>
            <Time>2021-07-28T12:15:48.000Z</Time>
            <Position>
              <LatitudeDegrees>41.6773161850869655609130859375</LatitudeDegrees>
              <LongitudeDegrees>-2.76543402113020420074462890625</LongitudeDegrees>
            </Position>
            <AltitudeMeters>1101.199951171875</AltitudeMeters>
            <DistanceMeters>147462.49521567</DistanceMeters>
          </Trackpoint>
          <Trackpoint>
            <Time>2021-07-28T12:15:53.000Z</Time>
            <Position>
              <LatitudeDegrees>41.6775022633373737335205078125</LatitudeDegrees>
              <LongitudeDegrees>-2.7654039300978183746337890625</LongitudeDegrees>
            </Position>
            <AltitudeMeters>1102.199951171875</AltitudeMeters>
            <DistanceMeters>147483.35677204</DistanceMeters>
          </Trackpoint>
          <Trackpoint>
            <Time>2021-07-28T12:15:57.000Z</Time>
            <Position>
              <LatitudeDegrees>41.67764903046190738677978515625</LatitudeDegrees>
              <LongitudeDegrees>-2.76537962257862091064453125</LongitudeDegrees>
            </Position>
            <AltitudeMeters>1103.4000244140625</AltitudeMeters>
            <DistanceMeters>147499.81697901</DistanceMeters>
          </Trackpoint>
          <Trackpoint>
            <Time>2021-07-28T12:16:01.000Z</Time>
            <Position>
              <LatitudeDegrees>41.6777956299483776092529296875</LatitudeDegrees>
              <LongitudeDegrees>-2.76535808108747005462646484375</LongitudeDegrees>
            </Position>
            <AltitudeMeters>1104.4000244140625</AltitudeMeters>
            <DistanceMeters>147516.23186406</DistanceMeters>
          </Trackpoint>
          <Trackpoint>
            <Time>2021-07-28T12:16:07.000Z</Time>
            <Position>
              <LatitudeDegrees>41.678010709583759307861328125</LatitudeDegrees>
              <LongitudeDegrees>-2.7653117291629314422607421875</LongitudeDegrees>
            </Position>
            <AltitudeMeters>1105.5999755859375</AltitudeMeters>
            <DistanceMeters>147540.478764</DistanceMeters>
          </Trackpoint>
          <Trackpoint>
            <Time>2021-07-28T12:16:11.000Z</Time>
            <Position>
              <LatitudeDegrees>41.67815395630896091461181640625</LatitudeDegrees>
              <LongitudeDegrees>-2.7652725018560886383056640625</LongitudeDegrees>
            </Position>
            <AltitudeMeters>1106.5999755859375</AltitudeMeters>
            <DistanceMeters>147556.75248767</DistanceMeters>
          </Trackpoint>
          <Trackpoint>
            <Time>2021-07-28T12:16:18.000Z</Time>
            <Position>
              <LatitudeDegrees>41.6783563792705535888671875</LatitudeDegrees>
              <LongitudeDegrees>-2.76517736725509166717529296875</LongitudeDegrees>
            </Position>
            <AltitudeMeters>1107.5999755859375</AltitudeMeters>
            <DistanceMeters>147580.63030157</DistanceMeters>
          </Trackpoint>
          <Trackpoint>
            <Time>2021-07-28T12:16:25.000Z</Time>
            <Position>
              <LatitudeDegrees>41.67851856909692287445068359375</LatitudeDegrees>
              <LongitudeDegrees>-2.765082903206348419189453125</LongitudeDegrees>
            </Position>
            <AltitudeMeters>1108.5999755859375</AltitudeMeters>
            <DistanceMeters>147600.31643351</DistanceMeters>
          </Trackpoint>
          <Trackpoint>
            <Time>2021-07-28T12:16:32.000Z</Time>
            <Position>
              <LatitudeDegrees>41.6786686889827251434326171875</LatitudeDegrees>
              <LongitudeDegrees>-2.764989696443080902099609375</LongitudeDegrees>
            </Position>
            <AltitudeMeters>1109.199951171875</AltitudeMeters>
            <DistanceMeters>147618.73397383</DistanceMeters>
          </Trackpoint>
          <Trackpoint>
            <Time>2021-07-28T12:16:38.000Z</Time>
            <Position>
              <LatitudeDegrees>41.67879383079707622528076171875</LatitudeDegrees>
              <LongitudeDegrees>-2.7649140916764736175537109375</LongitudeDegrees>
            </Position>
            <AltitudeMeters>1109.5999755859375</AltitudeMeters>
            <DistanceMeters>147634.01467135</DistanceMeters>
          </Trackpoint>
          <Trackpoint>
            <Time>2021-07-28T12:16:46.000Z</Time>
            <Position>
              <LatitudeDegrees>41.6789630614221096038818359375</LatitudeDegrees>
              <LongitudeDegrees>-2.76481191627681255340576171875</LongitudeDegrees>
            </Position>
            <AltitudeMeters>1110.800048828125</AltitudeMeters>
            <DistanceMeters>147654.67680953</DistanceMeters>
          </Trackpoint>
          <Trackpoint>
            <Time>2021-07-28T12:16:55.000Z</Time>
            <Position>
              <LatitudeDegrees>41.67915509082376956939697265625</LatitudeDegrees>
              <LongitudeDegrees>-2.76470546610653400421142578125</LongitudeDegrees>
            </Position>
            <AltitudeMeters>1111.800048828125</AltitudeMeters>
            <DistanceMeters>147677.80952078</DistanceMeters>
          </Trackpoint>
          <Trackpoint>
            <Time>2021-07-28T12:17:06.000Z</Time>
            <Position>
              <LatitudeDegrees>41.67939363978803157806396484375</LatitudeDegrees>
              <LongitudeDegrees>-2.7645570226013660430908203125</LongitudeDegrees>
            </Position>
            <AltitudeMeters>1112.800048828125</AltitudeMeters>
            <DistanceMeters>147707.08792847</DistanceMeters>
          </Trackpoint>
          <Trackpoint>
            <Time>2021-07-28T12:17:15.000Z</Time>
            <Position>
              <LatitudeDegrees>41.6795987449586391448974609375</LatitudeDegrees>
              <LongitudeDegrees>-2.76444747112691402435302734375</LongitudeDegrees>
            </Position>
            <AltitudeMeters>1114</AltitudeMeters>
            <DistanceMeters>147731.66606965</DistanceMeters>
          </Trackpoint>
          <Trackpoint>
            <Time>2021-07-28T12:17:23.000Z</Time>
            <Position>
              <LatitudeDegrees>41.6797771118581295013427734375</LatitudeDegrees>
              <LongitudeDegrees>-2.7643404342234134674072265625</LongitudeDegrees>
            </Position>
            <AltitudeMeters>1115</AltitudeMeters>
            <DistanceMeters>147753.42116944</DistanceMeters>
          </Trackpoint>
          <Trackpoint>
            <Time>2021-07-28T12:17:32.000Z</Time>
            <Position>
              <LatitudeDegrees>41.6799789480865001678466796875</LatitudeDegrees>
              <LongitudeDegrees>-2.76421512477099895477294921875</LongitudeDegrees>
            </Position>
            <AltitudeMeters>1116.199951171875</AltitudeMeters>
            <DistanceMeters>147778.18378927</DistanceMeters>
          </Trackpoint>
          <Trackpoint>
            <Time>2021-07-28T12:17:41.000Z</Time>
            <Position>
              <LatitudeDegrees>41.68019293807446956634521484375</LatitudeDegrees>
              <LongitudeDegrees>-2.7640955150127410888671875</LongitudeDegrees>
            </Position>
            <AltitudeMeters>1117.199951171875</AltitudeMeters>
            <DistanceMeters>147803.9932968</DistanceMeters>
          </Trackpoint>
          <Trackpoint>
            <Time>2021-07-28T12:17:50.000Z</Time>
            <Position>
              <LatitudeDegrees>41.68039980344474315643310546875</LatitudeDegrees>
              <LongitudeDegrees>-2.76396333239972591400146484375</LongitudeDegrees>
            </Position>
            <AltitudeMeters>1118.4000244140625</AltitudeMeters>
            <DistanceMeters>147829.50544783</DistanceMeters>
          </Trackpoint>
          <Trackpoint>
            <Time>2021-07-28T12:17:59.000Z</Time>
            <Position>
              <LatitudeDegrees>41.6806085966527462005615234375</LatitudeDegrees>
              <LongitudeDegrees>-2.76384280063211917877197265625</LongitudeDegrees>
            </Position>
            <AltitudeMeters>1119.4000244140625</AltitudeMeters>
            <DistanceMeters>147854.81254449</DistanceMeters>
          </Trackpoint>
          <Trackpoint>
            <Time>2021-07-28T12:18:11.000Z</Time>
            <Position>
              <LatitudeDegrees>41.68089978396892547607421875</LatitudeDegrees>
              <LongitudeDegrees>-2.76367717422544956207275390625</LongitudeDegrees>
            </Position>
            <AltitudeMeters>1120.4000244140625</AltitudeMeters>
            <DistanceMeters>147890.02555227</DistanceMeters>
          </Trackpoint>
          <Trackpoint>
            <Time>2021-07-28T12:18:29.000Z</Time>
            <Position>
              <LatitudeDegrees>41.68141476809978485107421875</LatitudeDegrees>
              <LongitudeDegrees>-2.76343577541410923004150390625</LongitudeDegrees>
            </Position>
            <AltitudeMeters>1120.5999755859375</AltitudeMeters>
            <DistanceMeters>147950.75535527</DistanceMeters>
          </Trackpoint>
          <Trackpoint>
            <Time>2021-07-28T12:18:43.000Z</Time>
            <Position>
              <LatitudeDegrees>41.68195716105401515960693359375</LatitudeDegrees>
              <LongitudeDegrees>-2.763246595859527587890625</LongitudeDegrees>
            </Position>
            <AltitudeMeters>1120.199951171875</AltitudeMeters>
            <DistanceMeters>148013.13936192</DistanceMeters>
          </Trackpoint>
          <Trackpoint>
            <Time>2021-07-28T12:18:49.000Z</Time>
            <Position>
              <LatitudeDegrees>41.68223476968705654144287109375</LatitudeDegrees>
              <LongitudeDegrees>-2.7631518803536891937255859375</LongitudeDegrees>
            </Position>
            <AltitudeMeters>1119</AltitudeMeters>
            <DistanceMeters>148045.02503749</DistanceMeters>
          </Trackpoint>
          <Trackpoint>
            <Time>2021-07-28T12:19:01.000Z</Time>
            <Position>
              <LatitudeDegrees>41.68277204968035221099853515625</LatitudeDegrees>
              <LongitudeDegrees>-2.7629701606929302215576171875</LongitudeDegrees>
            </Position>
            <AltitudeMeters>1118.800048828125</AltitudeMeters>
            <DistanceMeters>148106.70359766</DistanceMeters>
          </Trackpoint>
          <Trackpoint>
            <Time>2021-07-28T12:19:14.000Z</Time>
            <Position>
              <LatitudeDegrees>41.68330580927431583404541015625</LatitudeDegrees>
              <LongitudeDegrees>-2.76281635276973247528076171875</LongitudeDegrees>
            </Position>
            <AltitudeMeters>1118.5999755859375</AltitudeMeters>
            <DistanceMeters>148167.47227135</DistanceMeters>
          </Trackpoint>
          <Trackpoint>
            <Time>2021-07-28T12:19:28.000Z</Time>
            <Position>
              <LatitudeDegrees>41.68385826051235198974609375</LatitudeDegrees>
              <LongitudeDegrees>-2.76263262145221233367919921875</LongitudeDegrees>
            </Position>
            <AltitudeMeters>1119</AltitudeMeters>
            <DistanceMeters>148230.82951152</DistanceMeters>
          </Trackpoint>
          <Trackpoint>
            <Time>2021-07-28T12:19:41.000Z</Time>
            <Position>
              <LatitudeDegrees>41.68442227877676486968994140625</LatitudeDegrees>
              <LongitudeDegrees>-2.76245391927659511566162109375</LongitudeDegrees>
            </Position>
            <AltitudeMeters>1118</AltitudeMeters>
            <DistanceMeters>148295.33942385</DistanceMeters>
          </Trackpoint>
          <Trackpoint>
            <Time>2021-07-28T12:19:52.000Z</Time>
            <Position>
              <LatitudeDegrees>41.68497674167156219482421875</LatitudeDegrees>
              <LongitudeDegrees>-2.7622872032225131988525390625</LongitudeDegrees>
            </Position>
            <AltitudeMeters>1117.199951171875</AltitudeMeters>
            <DistanceMeters>148358.58896508</DistanceMeters>
          </Trackpoint>
          <Trackpoint>
            <Time>2021-07-28T12:19:53.000Z</Time>
            <Position>
              <LatitudeDegrees>41.68503080494701862335205078125</LatitudeDegrees>
              <LongitudeDegrees>-2.76227052323520183563232421875</LongitudeDegrees>
            </Position>
            <AltitudeMeters>1116.5999755859375</AltitudeMeters>
            <DistanceMeters>148364.7635082</DistanceMeters>
          </Trackpoint>
          <Trackpoint>
            <Time>2021-07-28T12:19:59.000Z</Time>
            <Position>
              <LatitudeDegrees>41.68536306358873844146728515625</LatitudeDegrees>
              <LongitudeDegrees>-2.7621641568839550018310546875</LongitudeDegrees>
            </Position>
            <AltitudeMeters>1115.4000244140625</AltitudeMeters>
            <DistanceMeters>148402.78666416</DistanceMeters>
          </Trackpoint>
          <Trackpoint>
            <Time>2021-07-28T12:20:06.000Z</Time>
            <Position>
              <LatitudeDegrees>41.6857634671032428741455078125</LatitudeDegrees>
              <LongitudeDegrees>-2.7620414458215236663818359375</LongitudeDegrees>
            </Position>
            <AltitudeMeters>1114.4000244140625</AltitudeMeters>
            <DistanceMeters>148448.50468702</DistanceMeters>
          </Trackpoint>
          <Trackpoint>
            <Time>2021-07-28T12:20:10.000Z</Time>
            <Position>
              <LatitudeDegrees>41.6860236413776874542236328125</LatitudeDegrees>
              <LongitudeDegrees>-2.76196290738880634307861328125</LongitudeDegrees>
            </Position>
            <AltitudeMeters>1113.199951171875</AltitudeMeters>
            <DistanceMeters>148478.18924394</DistanceMeters>
          </Trackpoint>
          <Trackpoint>
            <Time>2021-07-28T12:20:12.000Z</Time>
            <Position>
              <LatitudeDegrees>41.686163283884525299072265625</LatitudeDegrees>
              <LongitudeDegrees>-2.76193491183221340179443359375</LongitudeDegrees>
            </Position>
            <AltitudeMeters>1112.5999755859375</AltitudeMeters>
            <DistanceMeters>148493.90518015</DistanceMeters>
          </Trackpoint>
          <Trackpoint>
            <Time>2021-07-28T12:20:13.000Z</Time>
            <Position>
              <LatitudeDegrees>41.68623696081340312957763671875</LatitudeDegrees>
              <LongitudeDegrees>-2.7619415335357189178466796875</LongitudeDegrees>
            </Position>
            <AltitudeMeters>1112</AltitudeMeters>
            <DistanceMeters>148502.12375495</DistanceMeters>
          </Trackpoint>
          <Trackpoint>
            <Time>2021-07-28T12:20:16.000Z</Time>
            <Position>
              <LatitudeDegrees>41.68644198216497898101806640625</LatitudeDegrees>
              <LongitudeDegrees>-2.7621014602482318878173828125</LongitudeDegrees>
            </Position>
            <AltitudeMeters>1110</AltitudeMeters>
            <DistanceMeters>148528.5326346</DistanceMeters>
          </Trackpoint>
          <Trackpoint>
            <Time>2021-07-28T12:20:17.000Z</Time>
            <Position>
              <LatitudeDegrees>41.68649981729686260223388671875</LatitudeDegrees>
              <LongitudeDegrees>-2.76218854822218418121337890625</LongitudeDegrees>
            </Position>
            <AltitudeMeters>1109</AltitudeMeters>
            <DistanceMeters>148538.21976804</DistanceMeters>
          </Trackpoint>
          <Trackpoint>
            <Time>2021-07-28T12:20:19.000Z</Time>
            <Position>
              <LatitudeDegrees>41.6866291500627994537353515625</LatitudeDegrees>
              <LongitudeDegrees>-2.76236490346491336822509765625</LongitudeDegrees>
            </Position>
            <AltitudeMeters>1107.199951171875</AltitudeMeters>
            <DistanceMeters>148558.76466676</DistanceMeters>
          </Trackpoint>
          <Trackpoint>
            <Time>2021-07-28T12:20:21.000Z</Time>
            <Position>
              <LatitudeDegrees>41.68679636903107166290283203125</LatitudeDegrees>
              <LongitudeDegrees>-2.76249624788761138916015625</LongitudeDegrees>
            </Position>
            <AltitudeMeters>1106.199951171875</AltitudeMeters>
            <DistanceMeters>148580.3420093</DistanceMeters>
          </Trackpoint>
          <Trackpoint>
            <Time>2021-07-28T12:20:23.000Z</Time>
            <Position>
              <LatitudeDegrees>41.686991415917873382568359375</LatitudeDegrees>
              <LongitudeDegrees>-2.76256171055138111114501953125</LongitudeDegrees>
            </Position>
            <AltitudeMeters>1104.800048828125</AltitudeMeters>
            <DistanceMeters>148602.72276757</DistanceMeters>
          </Trackpoint>
          <Trackpoint>
            <Time>2021-07-28T12:20:24.000Z</Time>
            <Position>
              <LatitudeDegrees>41.6870931722223758697509765625</LatitudeDegrees>
              <LongitudeDegrees>-2.762578390538692474365234375</LongitudeDegrees>
            </Position>
            <AltitudeMeters>1104</AltitudeMeters>
            <DistanceMeters>148614.13309807</DistanceMeters>
          </Trackpoint>
          <Trackpoint>
            <Time>2021-07-28T12:20:25.000Z</Time>
            <Position>
              <LatitudeDegrees>41.68719534762203693389892578125</LatitudeDegrees>
              <LongitudeDegrees>-2.76259473524987697601318359375</LongitudeDegrees>
            </Position>
            <AltitudeMeters>1102</AltitudeMeters>
            <DistanceMeters>148625.58608416</DistanceMeters>
          </Trackpoint>
          <Trackpoint>
            <Time>2021-07-28T12:20:26.000Z</Time>
            <Position>
              <LatitudeDegrees>41.68729760684072971343994140625</LatitudeDegrees>
              <LongitudeDegrees>-2.762610912322998046875</LongitudeDegrees>
            </Position>
            <AltitudeMeters>1101</AltitudeMeters>
            <DistanceMeters>148637.04695201</DistanceMeters>
          </Trackpoint>
          <Trackpoint>
            <Time>2021-07-28T12:20:32.000Z</Time>
            <Position>
              <LatitudeDegrees>41.68790705502033233642578125</LatitudeDegrees>
              <LongitudeDegrees>-2.76268911547958850860595703125</LongitudeDegrees>
            </Position>
            <AltitudeMeters>1100.800048828125</AltitudeMeters>
            <DistanceMeters>148705.19044921</DistanceMeters>
          </Trackpoint>
          <Trackpoint>
            <Time>2021-07-28T12:20:36.000Z</Time>
            <Position>
              <LatitudeDegrees>41.68827342800796031951904296875</LatitudeDegrees>
              <LongitudeDegrees>-2.76274628005921840667724609375</LongitudeDegrees>
            </Position>
            <AltitudeMeters>1102</AltitudeMeters>
            <DistanceMeters>148746.24429943</DistanceMeters>
          </Trackpoint>
          <Trackpoint>
            <Time>2021-07-28T12:20:40.000Z</Time>
            <Position>
              <LatitudeDegrees>41.6886099614202976226806640625</LatitudeDegrees>
              <LongitudeDegrees>-2.76279925368726253509521484375</LongitudeDegrees>
            </Position>
            <AltitudeMeters>1103.199951171875</AltitudeMeters>
            <DistanceMeters>148783.95901249</DistanceMeters>
          </Trackpoint>
          <Trackpoint>
            <Time>2021-07-28T12:20:45.000Z</Time>
            <Position>
              <LatitudeDegrees>41.6889697127044200897216796875</LatitudeDegrees>
              <LongitudeDegrees>-2.7628504671156406402587890625</LongitudeDegrees>
            </Position>
            <AltitudeMeters>1104.4000244140625</AltitudeMeters>
            <DistanceMeters>148824.22545442</DistanceMeters>
          </Trackpoint>
          <Trackpoint>
            <Time>2021-07-28T12:20:46.000Z</Time>
            <Position>
              <LatitudeDegrees>41.68902712874114513397216796875</LatitudeDegrees>
              <LongitudeDegrees>-2.76284937746822834014892578125</LongitudeDegrees>
            </Position>
            <AltitudeMeters>1104.800048828125</AltitudeMeters>
            <DistanceMeters>148830.61631006</DistanceMeters>
          </Trackpoint>
          <Trackpoint>
            <Time>2021-07-28T12:20:48.000Z</Time>
            <Position>
              <LatitudeDegrees>41.68912285007536411285400390625</LatitudeDegrees>
              <LongitudeDegrees>-2.76283085346221923828125</LongitudeDegrees>
            </Position>
            <AltitudeMeters>1105.5999755859375</AltitudeMeters>
            <DistanceMeters>148841.38078593</DistanceMeters>
          </Trackpoint>
          <Trackpoint>
            <Time>2021-07-28T12:20:50.000Z</Time>
            <Position>
              <LatitudeDegrees>41.6891956888139247894287109375</LatitudeDegrees>
              <LongitudeDegrees>-2.762801684439182281494140625</LongitudeDegrees>
            </Position>
            <AltitudeMeters>1106.5999755859375</AltitudeMeters>
            <DistanceMeters>148849.8424333</DistanceMeters>
          </Trackpoint>
          <Trackpoint>
            <Time>2021-07-28T12:20:52.000Z</Time>
            <Position>
              <LatitudeDegrees>41.68925126083195209503173828125</LatitudeDegrees>
              <LongitudeDegrees>-2.7627706713974475860595703125</LongitudeDegrees>
            </Position>
            <AltitudeMeters>1107.5999755859375</AltitudeMeters>
            <DistanceMeters>148856.54434349</DistanceMeters>
          </Trackpoint>
          <Trackpoint>
            <Time>2021-07-28T12:20:57.000Z</Time>
            <Position>
              <LatitudeDegrees>41.68932485394179821014404296875</LatitudeDegrees>
              <LongitudeDegrees>-2.76271023787558078765869140625</LongitudeDegrees>
            </Position>
            <AltitudeMeters>1108.800048828125</AltitudeMeters>
            <DistanceMeters>148866.15379518</DistanceMeters>
          </Trackpoint>
          <Trackpoint>
            <Time>2021-07-28T12:21:06.000Z</Time>
            <Position>
              <LatitudeDegrees>41.68938922695815563201904296875</LatitudeDegrees>
              <LongitudeDegrees>-2.76260563172399997711181640625</LongitudeDegrees>
            </Position>
            <AltitudeMeters>1109.800048828125</AltitudeMeters>
            <DistanceMeters>148877.41997264</DistanceMeters>
          </Trackpoint>
          <Trackpoint>
            <Time>2021-07-28T12:21:10.000Z</Time>
            <Position>
              <LatitudeDegrees>41.68941034935414791107177734375</LatitudeDegrees>
              <LongitudeDegrees>-2.76257948018610477447509765625</LongitudeDegrees>
            </Position>
            <AltitudeMeters>1110.199951171875</AltitudeMeters>
            <DistanceMeters>148880.61998931</DistanceMeters>
          </Trackpoint>
          <Trackpoint>
            <Time>2021-07-28T12:22:40.000Z</Time>
            <Position>
              <LatitudeDegrees>41.6895001195371150970458984375</LatitudeDegrees>
              <LongitudeDegrees>-2.7624888718128204345703125</LongitudeDegrees>
            </Position>
            <AltitudeMeters>1110.199951171875</AltitudeMeters>
            <DistanceMeters>148893.13179994</DistanceMeters>
          </Trackpoint>
          <Trackpoint>
            <Time>2021-07-28T12:22:43.000Z</Time>
            <Position>
              <LatitudeDegrees>41.689536832273006439208984375</LatitudeDegrees>
              <LongitudeDegrees>-2.762443609535694122314453125</LongitudeDegrees>
            </Position>
            <AltitudeMeters>1110.5999755859375</AltitudeMeters>
            <DistanceMeters>148898.68659707</DistanceMeters>
          </Trackpoint>
          <Trackpoint>
            <Time>2021-07-28T12:22:51.000Z</Time>
            <Position>
              <LatitudeDegrees>41.689647473394870758056640625</LatitudeDegrees>
              <LongitudeDegrees>-2.76233707554638385772705078125</LongitudeDegrees>
            </Position>
            <AltitudeMeters>1111.800048828125</AltitudeMeters>
            <DistanceMeters>148913.85400382</DistanceMeters>
          </Trackpoint>
          <Trackpoint>
            <Time>2021-07-28T12:22:58.000Z</Time>
            <Position>
              <LatitudeDegrees>41.68973539955914020538330078125</LatitudeDegrees>
              <LongitudeDegrees>-2.7622278593480587005615234375</LongitudeDegrees>
            </Position>
            <AltitudeMeters>1112.800048828125</AltitudeMeters>
            <DistanceMeters>148927.20246697</DistanceMeters>
          </Trackpoint>
          <Trackpoint>
            <Time>2021-07-28T12:23:06.000Z</Time>
            <Position>
              <LatitudeDegrees>41.6898360662162303924560546875</LatitudeDegrees>
              <LongitudeDegrees>-2.762104310095310211181640625</LongitudeDegrees>
            </Position>
            <AltitudeMeters>1113.800048828125</AltitudeMeters>
            <DistanceMeters>148942.40139507</DistanceMeters>
          </Trackpoint>
          <Trackpoint>
            <Time>2021-07-28T12:23:13.000Z</Time>
            <Position>
              <LatitudeDegrees>41.68992851860821247100830078125</LatitudeDegrees>
              <LongitudeDegrees>-2.76199735701084136962890625</LongitudeDegrees>
            </Position>
            <AltitudeMeters>1115</AltitudeMeters>
            <DistanceMeters>148955.99984739</DistanceMeters>
          </Trackpoint>
          <Trackpoint>
            <Time>2021-07-28T12:23:26.000Z</Time>
            <Position>
              <LatitudeDegrees>41.69010202400386333465576171875</LatitudeDegrees>
              <LongitudeDegrees>-2.76181253604590892791748046875</LongitudeDegrees>
            </Position>
            <AltitudeMeters>1116.199951171875</AltitudeMeters>
            <DistanceMeters>148980.67570714</DistanceMeters>
          </Trackpoint>
          <Trackpoint>
            <Time>2021-07-28T12:23:33.000Z</Time>
            <Position>
              <LatitudeDegrees>41.6902088932693004608154296875</LatitudeDegrees>
              <LongitudeDegrees>-2.76175721548497676849365234375</LongitudeDegrees>
            </Position>
            <AltitudeMeters>1117.199951171875</AltitudeMeters>
            <DistanceMeters>148993.42841967</DistanceMeters>
          </Trackpoint>
          <Trackpoint>
            <Time>2021-07-28T12:23:40.000Z</Time>
            <Position>
              <LatitudeDegrees>41.6903232224285602569580078125</LatitudeDegrees>
              <LongitudeDegrees>-2.7617266215384006500244140625</LongitudeDegrees>
            </Position>
            <AltitudeMeters>1118.199951171875</AltitudeMeters>
            <DistanceMeters>149006.40504733</DistanceMeters>
          </Trackpoint>
          <Trackpoint>
            <Time>2021-07-28T12:23:49.000Z</Time>
            <Position>
              <LatitudeDegrees>41.690471582114696502685546875</LatitudeDegrees>
              <LongitudeDegrees>-2.761694602668285369873046875</LongitudeDegrees>
            </Position>
            <AltitudeMeters>1119.199951171875</AltitudeMeters>
            <DistanceMeters>149023.13082888</DistanceMeters>
          </Trackpoint>
          <Trackpoint>
            <Time>2021-07-28T12:24:01.000Z</Time>
            <Position>
              <LatitudeDegrees>41.69066964648663997650146484375</LatitudeDegrees>
              <LongitudeDegrees>-2.76169569231569766998291015625</LongitudeDegrees>
            </Position>
            <AltitudeMeters>1120.4000244140625</AltitudeMeters>
            <DistanceMeters>149045.17600259</DistanceMeters>
          </Trackpoint>
          <Trackpoint>
            <Time>2021-07-28T12:24:14.000Z</Time>
            <Position>
              <LatitudeDegrees>41.69089579023420810699462890625</LatitudeDegrees>
              <LongitudeDegrees>-2.761695273220539093017578125</LongitudeDegrees>
            </Position>
            <AltitudeMeters>1121.4000244140625</AltitudeMeters>
            <DistanceMeters>149070.3462456</DistanceMeters>
          </Trackpoint>
          <Trackpoint>
            <Time>2021-07-28T12:24:26.000Z</Time>
            <Position>
              <LatitudeDegrees>41.69109494425356388092041015625</LatitudeDegrees>
              <LongitudeDegrees>-2.7616734802722930908203125</LongitudeDegrees>
            </Position>
            <AltitudeMeters>1122.5999755859375</AltitudeMeters>
            <DistanceMeters>149092.58635435</DistanceMeters>
          </Trackpoint>
          <Trackpoint>
            <Time>2021-07-28T12:24:32.000Z</Time>
            <Position>
              <LatitudeDegrees>41.691184379160404205322265625</LatitudeDegrees>
              <LongitudeDegrees>-2.76164523325860500335693359375</LongitudeDegrees>
            </Position>
            <AltitudeMeters>1123.5999755859375</AltitudeMeters>
            <DistanceMeters>149102.81398387</DistanceMeters>
          </Trackpoint>
          <Trackpoint>
            <Time>2021-07-28T12:24:37.000Z</Time>
            <Position>
              <LatitudeDegrees>41.6912455670535564422607421875</LatitudeDegrees>
              <LongitudeDegrees>-2.761604748666286468505859375</LongitudeDegrees>
            </Position>
            <AltitudeMeters>1124.4000244140625</AltitudeMeters>
            <DistanceMeters>149110.41017953</DistanceMeters>
          </Trackpoint>
          <Trackpoint>
            <Time>2021-07-28T12:24:38.000Z</Time>
            <Position>
              <LatitudeDegrees>41.6912556253373622894287109375</LatitudeDegrees>
              <LongitudeDegrees>-2.7615911699831485748291015625</LongitudeDegrees>
            </Position>
            <AltitudeMeters>1124.5999755859375</AltitudeMeters>
            <DistanceMeters>149112.00028059</DistanceMeters>
          </Trackpoint>
          <Trackpoint>
            <Time>2021-07-28T12:24:46.000Z</Time>
            <Position>
              <LatitudeDegrees>41.691333241760730743408203125</LatitudeDegrees>
              <LongitudeDegrees>-2.7614815346896648406982421875</LongitudeDegrees>
            </Position>
            <AltitudeMeters>1125.800048828125</AltitudeMeters>
            <DistanceMeters>149124.55675839</DistanceMeters>
          </Trackpoint>
          <Trackpoint>
            <Time>2021-07-28T12:24:58.000Z</Time>
            <Position>
              <LatitudeDegrees>41.69141630642116069793701171875</LatitudeDegrees>
              <LongitudeDegrees>-2.76128397323191165924072265625</LongitudeDegrees>
            </Position>
            <AltitudeMeters>1126.5999755859375</AltitudeMeters>
            <DistanceMeters>149143.40058221</DistanceMeters>
          </Trackpoint>
          <Trackpoint>
            <Time>2021-07-28T12:25:08.000Z</Time>
            <Position>
              <LatitudeDegrees>41.6914581321179866790771484375</LatitudeDegrees>
              <LongitudeDegrees>-2.7610973082482814788818359375</LongitudeDegrees>
            </Position>
            <AltitudeMeters>1127.800048828125</AltitudeMeters>
            <DistanceMeters>149159.59810798</DistanceMeters>
          </Trackpoint>
          <Trackpoint>
            <Time>2021-07-28T12:25:24.000Z</Time>
            <Position>
              <LatitudeDegrees>41.6914849542081356048583984375</LatitudeDegrees>
              <LongitudeDegrees>-2.760769911110401153564453125</LongitudeDegrees>
            </Position>
            <AltitudeMeters>1128.800048828125</AltitudeMeters>
            <DistanceMeters>149186.9724</DistanceMeters>
          </Trackpoint>
          <Trackpoint>
            <Time>2021-07-28T12:25:32.000Z</Time>
            <Position>
              <LatitudeDegrees>41.69147841632366180419921875</LatitudeDegrees>
              <LongitudeDegrees>-2.760617025196552276611328125</LongitudeDegrees>
            </Position>
            <AltitudeMeters>1129.5999755859375</AltitudeMeters>
            <DistanceMeters>149199.70030522</DistanceMeters>
          </Trackpoint>
          <Trackpoint>
            <Time>2021-07-28T12:25:34.000Z</Time>
            <Position>
              <LatitudeDegrees>41.69147514738142490386962890625</LatitudeDegrees>
              <LongitudeDegrees>-2.7605779655277729034423828125</LongitudeDegrees>
            </Position>
            <AltitudeMeters>1130</AltitudeMeters>
            <DistanceMeters>149202.96734522</DistanceMeters>
          </Trackpoint>
          <Trackpoint>
            <Time>2021-07-28T12:25:44.000Z</Time>
            <Position>
              <LatitudeDegrees>41.69146441854536533355712890625</LatitudeDegrees>
              <LongitudeDegrees>-2.7603875286877155303955078125</LongitudeDegrees>
            </Position>
            <AltitudeMeters>1131</AltitudeMeters>
            <DistanceMeters>149218.83993584</DistanceMeters>
          </Trackpoint>
          <Trackpoint>
            <Time>2021-07-28T12:25:56.000Z</Time>
            <Position>
              <LatitudeDegrees>41.691447235643863677978515625</LatitudeDegrees>
              <LongitudeDegrees>-2.76015576906502246856689453125</LongitudeDegrees>
            </Position>
            <AltitudeMeters>1132.4000244140625</AltitudeMeters>
            <DistanceMeters>149238.19694986</DistanceMeters>
          </Trackpoint>
          <Trackpoint>
            <Time>2021-07-28T12:26:08.000Z</Time>
            <Position>
              <LatitudeDegrees>41.69145561754703521728515625</LatitudeDegrees>
              <LongitudeDegrees>-2.759916968643665313720703125</LongitudeDegrees>
            </Position>
            <AltitudeMeters>1133.4000244140625</AltitudeMeters>
            <DistanceMeters>149258.06639731</DistanceMeters>
          </Trackpoint>
          <Trackpoint>
            <Time>2021-07-28T12:26:14.000Z</Time>
            <Position>
              <LatitudeDegrees>41.69145855121314525604248046875</LatitudeDegrees>
              <LongitudeDegrees>-2.75980389676988124847412109375</LongitudeDegrees>
            </Position>
            <AltitudeMeters>1134.199951171875</AltitudeMeters>
            <DistanceMeters>149267.46972165</DistanceMeters>
          </Trackpoint>
          <Trackpoint>
            <Time>2021-07-28T12:26:23.000Z</Time>
            <Position>
              <LatitudeDegrees>41.691466011106967926025390625</LatitudeDegrees>
              <LongitudeDegrees>-2.75963106192648410797119140625</LongitudeDegrees>
            </Position>
            <AltitudeMeters>1135.199951171875</AltitudeMeters>
            <DistanceMeters>149281.85866159</DistanceMeters>
          </Trackpoint>
          <Trackpoint>
            <Time>2021-07-28T12:26:34.000Z</Time>
            <Position>
              <LatitudeDegrees>41.691487133502960205078125</LatitudeDegrees>
              <LongitudeDegrees>-2.75942537002265453338623046875</LongitudeDegrees>
            </Position>
            <AltitudeMeters>1136.199951171875</AltitudeMeters>
            <DistanceMeters>149299.1153664</DistanceMeters>
          </Trackpoint>
          <Trackpoint>
            <Time>2021-07-28T12:26:46.000Z</Time>
            <Position>
              <LatitudeDegrees>41.691525019705295562744140625</LatitudeDegrees>
              <LongitudeDegrees>-2.7592004835605621337890625</LongitudeDegrees>
            </Position>
            <AltitudeMeters>1137.4000244140625</AltitudeMeters>
            <DistanceMeters>149318.2763906</DistanceMeters>
          </Trackpoint>
          <Trackpoint>
            <Time>2021-07-28T12:26:57.000Z</Time>
            <Position>
              <LatitudeDegrees>41.69159752316772937774658203125</LatitudeDegrees>
              <LongitudeDegrees>-2.7590095438063144683837890625</LongitudeDegrees>
            </Position>
            <AltitudeMeters>1138.4000244140625</AltitudeMeters>
            <DistanceMeters>149336.08014704</DistanceMeters>
          </Trackpoint>
          <Trackpoint>
            <Time>2021-07-28T12:27:08.000Z</Time>
            <Position>
              <LatitudeDegrees>41.69170045293867588043212890625</LatitudeDegrees>
              <LongitudeDegrees>-2.75884903036057949066162109375</LongitudeDegrees>
            </Position>
            <AltitudeMeters>1139.4000244140625</AltitudeMeters>
            <DistanceMeters>149353.66471151</DistanceMeters>
          </Trackpoint>
          <Trackpoint>
            <Time>2021-07-28T12:27:18.000Z</Time>
            <Position>
              <LatitudeDegrees>41.69183338992297649383544921875</LatitudeDegrees>
              <LongitudeDegrees>-2.758751548826694488525390625</LongitudeDegrees>
            </Position>
            <AltitudeMeters>1140.5999755859375</AltitudeMeters>
            <DistanceMeters>149370.53402771</DistanceMeters>
          </Trackpoint>
          <Trackpoint>
            <Time>2021-07-28T12:27:23.000Z</Time>
            <Position>
              <LatitudeDegrees>41.69191536493599414825439453125</LatitudeDegrees>
              <LongitudeDegrees>-2.758726067841053009033203125</LongitudeDegrees>
            </Position>
            <AltitudeMeters>1141.5999755859375</AltitudeMeters>
            <DistanceMeters>149379.90127131</DistanceMeters>
          </Trackpoint>
          <Trackpoint>
            <Time>2021-07-28T12:27:31.000Z</Time>
            <Position>
              <LatitudeDegrees>41.69203723780810832977294921875</LatitudeDegrees>
              <LongitudeDegrees>-2.7586769498884677886962890625</LongitudeDegrees>
            </Position>
            <AltitudeMeters>1142.5999755859375</AltitudeMeters>
            <DistanceMeters>149394.06694669</DistanceMeters>
          </Trackpoint>
          <Trackpoint>
            <Time>2021-07-28T12:27:39.000Z</Time>
            <Position>
              <LatitudeDegrees>41.6921662352979183197021484375</LatitudeDegrees>
              <LongitudeDegrees>-2.7586722560226917266845703125</LongitudeDegrees>
            </Position>
            <AltitudeMeters>1143.4000244140625</AltitudeMeters>
            <DistanceMeters>149408.42981884</DistanceMeters>
          </Trackpoint>
          <Trackpoint>
            <Time>2021-07-28T12:27:45.000Z</Time>
            <Position>
              <LatitudeDegrees>41.69226019643247127532958984375</LatitudeDegrees>
              <LongitudeDegrees>-2.7586719207465648651123046875</LongitudeDegrees>
            </Position>
            <AltitudeMeters>1143.5999755859375</AltitudeMeters>
            <DistanceMeters>149418.88793941</DistanceMeters>
          </Trackpoint>
          <Trackpoint>
            <Time>2021-07-28T12:27:51.000Z</Time>
            <Position>
              <LatitudeDegrees>41.6923534870147705078125</LatitudeDegrees>
              <LongitudeDegrees>-2.75867301039397716522216796875</LongitudeDegrees>
            </Position>
            <AltitudeMeters>1144.4000244140625</AltitudeMeters>
            <DistanceMeters>149429.27153766</DistanceMeters>
          </Trackpoint>
          <Trackpoint>
            <Time>2021-07-28T12:28:02.000Z</Time>
            <Position>
              <LatitudeDegrees>41.6925347037613391876220703125</LatitudeDegrees>
              <LongitudeDegrees>-2.75864191353321075439453125</LongitudeDegrees>
            </Position>
            <AltitudeMeters>1145.5999755859375</AltitudeMeters>
            <DistanceMeters>149449.60592234</DistanceMeters>
          </Trackpoint>
          <Trackpoint>
            <Time>2021-07-28T12:28:13.000Z</Time>
            <Position>
              <LatitudeDegrees>41.69270644895732402801513671875</LatitudeDegrees>
              <LongitudeDegrees>-2.75859095156192779541015625</LongitudeDegrees>
            </Position>
            <AltitudeMeters>1146.5999755859375</AltitudeMeters>
            <DistanceMeters>149469.18511551</DistanceMeters>
          </Trackpoint>
          <Trackpoint>
            <Time>2021-07-28T12:28:21.000Z</Time>
            <Position>
              <LatitudeDegrees>41.69282622635364532470703125</LatitudeDegrees>
              <LongitudeDegrees>-2.75854242034256458282470703125</LongitudeDegrees>
            </Position>
            <AltitudeMeters>1147.5999755859375</AltitudeMeters>
            <DistanceMeters>149483.11358141</DistanceMeters>
          </Trackpoint>
          <Trackpoint>
            <Time>2021-07-28T12:28:32.000Z</Time>
            <Position>
              <LatitudeDegrees>41.69298992492258548736572265625</LatitudeDegrees>
              <LongitudeDegrees>-2.7584767900407314300537109375</LongitudeDegrees>
            </Position>
            <AltitudeMeters>1148.800048828125</AltitudeMeters>
            <DistanceMeters>149502.13222338</DistanceMeters>
          </Trackpoint>
          <Trackpoint>
            <Time>2021-07-28T12:28:43.000Z</Time>
            <Position>
              <LatitudeDegrees>41.69314851053059101104736328125</LatitudeDegrees>
              <LongitudeDegrees>-2.758422307670116424560546875</LongitudeDegrees>
            </Position>
            <AltitudeMeters>1149.5999755859375</AltitudeMeters>
            <DistanceMeters>149520.35481927</DistanceMeters>
          </Trackpoint>
          <Trackpoint>
            <Time>2021-07-28T12:28:51.000Z</Time>
            <Position>
              <LatitudeDegrees>41.6932686232030391693115234375</LatitudeDegrees>
              <LongitudeDegrees>-2.7583762072026729583740234375</LongitudeDegrees>
            </Position>
            <AltitudeMeters>1150.800048828125</AltitudeMeters>
            <DistanceMeters>149534.26187421</DistanceMeters>
          </Trackpoint>
          <Trackpoint>
            <Time>2021-07-28T12:29:01.000Z</Time>
            <Position>
              <LatitudeDegrees>41.69342578388750553131103515625</LatitudeDegrees>
              <LongitudeDegrees>-2.75834661908447742462158203125</LongitudeDegrees>
            </Position>
            <AltitudeMeters>1151.800048828125</AltitudeMeters>
            <DistanceMeters>149551.92611101</DistanceMeters>
          </Trackpoint>
          <Trackpoint>
            <Time>2021-07-28T12:29:11.000Z</Time>
            <Position>
              <LatitudeDegrees>41.693589650094509124755859375</LatitudeDegrees>
              <LongitudeDegrees>-2.75835198350250720977783203125</LongitudeDegrees>
            </Position>
            <AltitudeMeters>1152.800048828125</AltitudeMeters>
            <DistanceMeters>149570.17049775</DistanceMeters>
          </Trackpoint>
          <Trackpoint>
            <Time>2021-07-28T12:29:21.000Z</Time>
            <Position>
              <LatitudeDegrees>41.69375033117830753326416015625</LatitudeDegrees>
              <LongitudeDegrees>-2.75836254470050334930419921875</LongitudeDegrees>
            </Position>
            <AltitudeMeters>1154</AltitudeMeters>
            <DistanceMeters>149588.07641561</DistanceMeters>
          </Trackpoint>
          <Trackpoint>
            <Time>2021-07-28T12:29:30.000Z</Time>
            <Position>
              <LatitudeDegrees>41.69389366172254085540771484375</LatitudeDegrees>
              <LongitudeDegrees>-2.7583824098110198974609375</LongitudeDegrees>
            </Position>
            <AltitudeMeters>1155</AltitudeMeters>
            <DistanceMeters>149604.11483067</DistanceMeters>
          </Trackpoint>
          <Trackpoint>
            <Time>2021-07-28T12:29:39.000Z</Time>
            <Position>
              <LatitudeDegrees>41.69403850100934505462646484375</LatitudeDegrees>
              <LongitudeDegrees>-2.75839825160801410675048828125</LongitudeDegrees>
            </Position>
            <AltitudeMeters>1156</AltitudeMeters>
            <DistanceMeters>149620.2894829</DistanceMeters>
          </Trackpoint>
          <Trackpoint>
            <Time>2021-07-28T12:29:47.000Z</Time>
            <Position>
              <LatitudeDegrees>41.694171018898487091064453125</LatitudeDegrees>
              <LongitudeDegrees>-2.75840546004474163055419921875</LongitudeDegrees>
            </Position>
            <AltitudeMeters>1156.800048828125</AltitudeMeters>
            <DistanceMeters>149635.05138673</DistanceMeters>
          </Trackpoint>
          <Trackpoint>
            <Time>2021-07-28T12:29:55.000Z</Time>
            <Position>
              <LatitudeDegrees>41.694303788244724273681640625</LatitudeDegrees>
              <LongitudeDegrees>-2.75841283611953258514404296875</LongitudeDegrees>
            </Position>
            <AltitudeMeters>1157.800048828125</AltitudeMeters>
            <DistanceMeters>149649.84201322</DistanceMeters>
          </Trackpoint>
          <Trackpoint>
            <Time>2021-07-28T12:30:03.000Z</Time>
            <Position>
              <LatitudeDegrees>41.69445659033954143524169921875</LatitudeDegrees>
              <LongitudeDegrees>-2.75842574425041675567626953125</LongitudeDegrees>
            </Position>
            <AltitudeMeters>1159</AltitudeMeters>
            <DistanceMeters>149666.88282301</DistanceMeters>
          </Trackpoint>
          <Trackpoint>
            <Time>2021-07-28T12:30:12.000Z</Time>
            <Position>
              <LatitudeDegrees>41.6946214623749256134033203125</LatitudeDegrees>
              <LongitudeDegrees>-2.75845139287412166595458984375</LongitudeDegrees>
            </Position>
            <AltitudeMeters>1160.199951171875</AltitudeMeters>
            <DistanceMeters>149685.35666151</DistanceMeters>
          </Trackpoint>
          <Trackpoint>
            <Time>2021-07-28T12:30:22.000Z</Time>
            <Position>
              <LatitudeDegrees>41.6948035173118114471435546875</LatitudeDegrees>
              <LongitudeDegrees>-2.7584762871265411376953125</LongitudeDegrees>
            </Position>
            <AltitudeMeters>1161</AltitudeMeters>
            <DistanceMeters>149705.72476825</DistanceMeters>
          </Trackpoint>
          <Trackpoint>
            <Time>2021-07-28T12:30:30.000Z</Time>
            <Position>
              <LatitudeDegrees>41.694938801229000091552734375</LatitudeDegrees>
              <LongitudeDegrees>-2.75851987302303314208984375</LongitudeDegrees>
            </Position>
            <AltitudeMeters>1162</AltitudeMeters>
            <DistanceMeters>149721.21149903</DistanceMeters>
          </Trackpoint>
          <Trackpoint>
            <Time>2021-07-28T12:30:41.000Z</Time>
            <Position>
              <LatitudeDegrees>41.6951495222747325897216796875</LatitudeDegrees>
              <LongitudeDegrees>-2.75860176421701908111572265625</LongitudeDegrees>
            </Position>
            <AltitudeMeters>1162.5999755859375</AltitudeMeters>
            <DistanceMeters>149745.63280999</DistanceMeters>
          </Trackpoint>
          <Trackpoint>
            <Time>2021-07-28T12:30:45.000Z</Time>
            <Position>
              <LatitudeDegrees>41.69521381147205829620361328125</LatitudeDegrees>
              <LongitudeDegrees>-2.758661024272441864013671875</LongitudeDegrees>
            </Position>
            <AltitudeMeters>1162.4000244140625</AltitudeMeters>
            <DistanceMeters>149754.31931209</DistanceMeters>
          </Trackpoint>
          <Trackpoint>
            <Time>2021-07-28T12:31:03.000Z</Time>
            <Position>
              <LatitudeDegrees>41.695683114230632781982421875</LatitudeDegrees>
              <LongitudeDegrees>-2.75910459458827972412109375</LongitudeDegrees>
            </Position>
            <AltitudeMeters>1161.5999755859375</AltitudeMeters>
            <DistanceMeters>149818.25202564</DistanceMeters>
          </Trackpoint>
          <Trackpoint>
            <Time>2021-07-28T12:31:09.000Z</Time>
            <Position>
              <LatitudeDegrees>41.69589458964765071868896484375</LatitudeDegrees>
              <LongitudeDegrees>-2.75931648910045623779296875</LongitudeDegrees>
            </Position>
            <AltitudeMeters>1160.800048828125</AltitudeMeters>
            <DistanceMeters>149847.64801406</DistanceMeters>
          </Trackpoint>
          <Trackpoint>
            <Time>2021-07-28T12:31:21.000Z</Time>
            <Position>
              <LatitudeDegrees>41.6963866911828517913818359375</LatitudeDegrees>
              <LongitudeDegrees>-2.759662158787250518798828125</LongitudeDegrees>
            </Position>
            <AltitudeMeters>1159.800048828125</AltitudeMeters>
            <DistanceMeters>149909.49660938</DistanceMeters>
          </Trackpoint>
          <Trackpoint>
            <Time>2021-07-28T12:31:31.000Z</Time>
            <Position>
              <LatitudeDegrees>41.69665566645562648773193359375</LatitudeDegrees>
              <LongitudeDegrees>-2.7598876319825649261474609375</LongitudeDegrees>
            </Position>
            <AltitudeMeters>1162</AltitudeMeters>
            <DistanceMeters>149944.81485734</DistanceMeters>
          </Trackpoint>
          <Trackpoint>
            <Time>2021-07-28T12:31:40.000Z</Time>
            <Position>
              <LatitudeDegrees>41.6967548243701457977294921875</LatitudeDegrees>
              <LongitudeDegrees>-2.76011981070041656494140625</LongitudeDegrees>
            </Position>
            <AltitudeMeters>1163</AltitudeMeters>
            <DistanceMeters>149967.04379756</DistanceMeters>
          </Trackpoint>
          <Trackpoint>
            <Time>2021-07-28T12:31:46.000Z</Time>
            <Position>
              <LatitudeDegrees>41.6968084685504436492919921875</LatitudeDegrees>
              <LongitudeDegrees>-2.76027227751910686492919921875</LongitudeDegrees>
            </Position>
            <AltitudeMeters>1164</AltitudeMeters>
            <DistanceMeters>149981.05113496</DistanceMeters>
          </Trackpoint>
          <Trackpoint>
            <Time>2021-07-28T12:31:55.000Z</Time>
            <Position>
              <LatitudeDegrees>41.6968413256108760833740234375</LatitudeDegrees>
              <LongitudeDegrees>-2.76052482426166534423828125</LongitudeDegrees>
            </Position>
            <AltitudeMeters>1165</AltitudeMeters>
            <DistanceMeters>150002.3553529</DistanceMeters>
          </Trackpoint>
          <Trackpoint>
            <Time>2021-07-28T12:32:03.000Z</Time>
            <Position>
              <LatitudeDegrees>41.69689706526696681976318359375</LatitudeDegrees>
              <LongitudeDegrees>-2.76074132882058620452880859375</LongitudeDegrees>
            </Position>
            <AltitudeMeters>1166</AltitudeMeters>
            <DistanceMeters>150021.38775912</DistanceMeters>
          </Trackpoint>
          <Trackpoint>
            <Time>2021-07-28T12:32:12.000Z</Time>
            <Position>
              <LatitudeDegrees>41.696992702782154083251953125</LatitudeDegrees>
              <LongitudeDegrees>-2.7609709091484546661376953125</LongitudeDegrees>
            </Position>
            <AltitudeMeters>1167</AltitudeMeters>
            <DistanceMeters>150043.23584533</DistanceMeters>
          </Trackpoint>
          <Trackpoint>
            <Time>2021-07-28T12:32:21.000Z</Time>
            <Position>
              <LatitudeDegrees>41.6971021704375743865966796875</LatitudeDegrees>
              <LongitudeDegrees>-2.76119277812540531158447265625</LongitudeDegrees>
            </Position>
            <AltitudeMeters>1168.199951171875</AltitudeMeters>
            <DistanceMeters>150065.33645244</DistanceMeters>
          </Trackpoint>
          <Trackpoint>
            <Time>2021-07-28T12:32:30.000Z</Time>
            <Position>
              <LatitudeDegrees>41.69724608771502971649169921875</LatitudeDegrees>
              <LongitudeDegrees>-2.76138807646930217742919921875</LongitudeDegrees>
            </Position>
            <AltitudeMeters>1169.199951171875</AltitudeMeters>
            <DistanceMeters>150088.1402901</DistanceMeters>
          </Trackpoint>
          <Trackpoint>
            <Time>2021-07-28T12:32:50.000Z</Time>
            <Position>
              <LatitudeDegrees>41.69776685535907745361328125</LatitudeDegrees>
              <LongitudeDegrees>-2.76171782054007053375244140625</LongitudeDegrees>
            </Position>
            <AltitudeMeters>1168.800048828125</AltitudeMeters>
            <DistanceMeters>150152.25424458</DistanceMeters>
          </Trackpoint>
          <Trackpoint>
            <Time>2021-07-28T12:32:52.000Z</Time>
            <Position>
              <LatitudeDegrees>41.69787607155740261077880859375</LatitudeDegrees>
              <LongitudeDegrees>-2.76176425628364086151123046875</LongitudeDegrees>
            </Position>
            <AltitudeMeters>1167.4000244140625</AltitudeMeters>
            <DistanceMeters>150165.0080192</DistanceMeters>
          </Trackpoint>
          <Trackpoint>
            <Time>2021-07-28T12:32:54.000Z</Time>
            <Position>
              <LatitudeDegrees>41.69799995608627796173095703125</LatitudeDegrees>
              <LongitudeDegrees>-2.76180868037045001983642578125</LongitudeDegrees>
            </Position>
            <AltitudeMeters>1166.4000244140625</AltitudeMeters>
            <DistanceMeters>150179.28228432</DistanceMeters>
          </Trackpoint>
          <Trackpoint>
            <Time>2021-07-28T12:32:57.000Z</Time>
            <Position>
              <LatitudeDegrees>41.6982089169323444366455078125</LatitudeDegrees>
              <LongitudeDegrees>-2.7618738077580928802490234375</LongitudeDegrees>
            </Position>
            <AltitudeMeters>1165</AltitudeMeters>
            <DistanceMeters>150203.16161089</DistanceMeters>
          </Trackpoint>
          <Trackpoint>
            <Time>2021-07-28T12:33:00.000Z</Time>
            <Position>
              <LatitudeDegrees>41.6984466277062892913818359375</LatitudeDegrees>
              <LongitudeDegrees>-2.76194781996309757232666015625</LongitudeDegrees>
            </Position>
            <AltitudeMeters>1163.5999755859375</AltitudeMeters>
            <DistanceMeters>150230.32496021</DistanceMeters>
          </Trackpoint>
          <Trackpoint>
            <Time>2021-07-28T12:33:02.000Z</Time>
            <Position>
              <LatitudeDegrees>41.69861803762614727020263671875</LatitudeDegrees>
              <LongitudeDegrees>-2.76201319880783557891845703125</LongitudeDegrees>
            </Position>
            <AltitudeMeters>1162.5999755859375</AltitudeMeters>
            <DistanceMeters>150250.1616588</DistanceMeters>
          </Trackpoint>
          <Trackpoint>
            <Time>2021-07-28T12:33:04.000Z</Time>
            <Position>
              <LatitudeDegrees>41.6987946443259716033935546875</LatitudeDegrees>
              <LongitudeDegrees>-2.7620987780392169952392578125</LongitudeDegrees>
            </Position>
            <AltitudeMeters>1160.800048828125</AltitudeMeters>
            <DistanceMeters>150271.06537615</DistanceMeters>
          </Trackpoint>
          <Trackpoint>
            <Time>2021-07-28T12:33:07.000Z</Time>
            <Position>
              <LatitudeDegrees>41.69908055104315280914306640625</LatitudeDegrees>
              <LongitudeDegrees>-2.76223749853670597076416015625</LongitudeDegrees>
            </Position>
            <AltitudeMeters>1159.800048828125</AltitudeMeters>
            <DistanceMeters>150304.91103182</DistanceMeters>
          </Trackpoint>
          <Trackpoint>
            <Time>2021-07-28T12:33:09.000Z</Time>
            <Position>
              <LatitudeDegrees>41.6992942057549953460693359375</LatitudeDegrees>
              <LongitudeDegrees>-2.76229382492601871490478515625</LongitudeDegrees>
            </Position>
            <AltitudeMeters>1158.4000244140625</AltitudeMeters>
            <DistanceMeters>150329.14750171</DistanceMeters>
          </Trackpoint>
          <Trackpoint>
            <Time>2021-07-28T12:33:10.000Z</Time>
            <Position>
              <LatitudeDegrees>41.69940593652427196502685546875</LatitudeDegrees>
              <LongitudeDegrees>-2.76230807416141033172607421875</LongitudeDegrees>
            </Position>
            <AltitudeMeters>1156.5999755859375</AltitudeMeters>
            <DistanceMeters>150341.640172</DistanceMeters>
          </Trackpoint>
          <Trackpoint>
            <Time>2021-07-28T12:33:11.000Z</Time>
            <Position>
              <LatitudeDegrees>41.69951967895030975341796875</LatitudeDegrees>
              <LongitudeDegrees>-2.76231729425489902496337890625</LongitudeDegrees>
            </Position>
            <AltitudeMeters>1155</AltitudeMeters>
            <DistanceMeters>150354.32330181</DistanceMeters>
          </Trackpoint>
          <Trackpoint>
            <Time>2021-07-28T12:33:12.000Z</Time>
            <Position>
              <LatitudeDegrees>41.69963501393795013427734375</LatitudeDegrees>
              <LongitudeDegrees>-2.762328274548053741455078125</LongitudeDegrees>
            </Position>
            <AltitudeMeters>1154</AltitudeMeters>
            <DistanceMeters>150367.19266979</DistanceMeters>
          </Trackpoint>
          <Trackpoint>
            <Time>2021-07-28T12:33:13.000Z</Time>
            <Position>
              <LatitudeDegrees>41.69975160621106624603271484375</LatitudeDegrees>
              <LongitudeDegrees>-2.7623455412685871124267578125</LongitudeDegrees>
            </Position>
            <AltitudeMeters>1152.800048828125</AltitudeMeters>
            <DistanceMeters>150380.24838589</DistanceMeters>
          </Trackpoint>
          <Trackpoint>
            <Time>2021-07-28T12:33:15.000Z</Time>
            <Position>
              <LatitudeDegrees>41.699987389147281646728515625</LatitudeDegrees>
              <LongitudeDegrees>-2.7624035440385341644287109375</LongitudeDegrees>
            </Position>
            <AltitudeMeters>1151.5999755859375</AltitudeMeters>
            <DistanceMeters>150406.9304253</DistanceMeters>
          </Trackpoint>
          <Trackpoint>
            <Time>2021-07-28T12:33:16.000Z</Time>
            <Position>
              <LatitudeDegrees>41.70010582543909549713134765625</LatitudeDegrees>
              <LongitudeDegrees>-2.76244251988828182220458984375</LongitudeDegrees>
            </Position>
            <AltitudeMeters>1150.4000244140625</AltitudeMeters>
            <DistanceMeters>150420.5049507</DistanceMeters>
          </Trackpoint>
          <Trackpoint>
            <Time>2021-07-28T12:33:18.000Z</Time>
            <Position>
              <LatitudeDegrees>41.70034579932689666748046875</LatitudeDegrees>
              <LongitudeDegrees>-2.7625286020338535308837890625</LongitudeDegrees>
            </Position>
            <AltitudeMeters>1149</AltitudeMeters>
            <DistanceMeters>150448.15592849</DistanceMeters>
          </Trackpoint>
          <Trackpoint>
            <Time>2021-07-28T12:33:19.000Z</Time>
            <Position>
              <LatitudeDegrees>41.7004686780273914337158203125</LatitudeDegrees>
              <LongitudeDegrees>-2.762566991150379180908203125</LongitudeDegrees>
            </Position>
            <AltitudeMeters>1148</AltitudeMeters>
            <DistanceMeters>150462.19996386</DistanceMeters>
          </Trackpoint>
          <Trackpoint>
            <Time>2021-07-28T12:33:20.000Z</Time>
            <Position>
              <LatitudeDegrees>41.70059449039399623870849609375</LatitudeDegrees>
              <LongitudeDegrees>-2.76259507052600383758544921875</LongitudeDegrees>
            </Position>
            <AltitudeMeters>1147</AltitudeMeters>
            <DistanceMeters>150476.39652247</DistanceMeters>
          </Trackpoint>
          <Trackpoint>
            <Time>2021-07-28T12:33:21.000Z</Time>
            <Position>
              <LatitudeDegrees>41.70072264969348907470703125</LatitudeDegrees>
              <LongitudeDegrees>-2.76260747574269771575927734375</LongitudeDegrees>
            </Position>
            <AltitudeMeters>1145</AltitudeMeters>
            <DistanceMeters>150490.69796405</DistanceMeters>
          </Trackpoint>
          <Trackpoint>
            <Time>2021-07-28T12:33:22.000Z</Time>
            <Position>
              <LatitudeDegrees>41.7008518986403942108154296875</LatitudeDegrees>
              <LongitudeDegrees>-2.7626013569533824920654296875</LongitudeDegrees>
            </Position>
            <AltitudeMeters>1144</AltitudeMeters>
            <DistanceMeters>150505.09255102</DistanceMeters>
          </Trackpoint>
          <Trackpoint>
            <Time>2021-07-28T12:33:24.000Z</Time>
            <Position>
              <LatitudeDegrees>41.701102517545223236083984375</LatitudeDegrees>
              <LongitudeDegrees>-2.762531451880931854248046875</LongitudeDegrees>
            </Position>
            <AltitudeMeters>1142.4000244140625</AltitudeMeters>
            <DistanceMeters>150533.585357</DistanceMeters>
          </Trackpoint>
          <Trackpoint>
            <Time>2021-07-28T12:33:25.000Z</Time>
            <Position>
              <LatitudeDegrees>41.701218523085117340087890625</LatitudeDegrees>
              <LongitudeDegrees>-2.76248476468026638031005859375</LongitudeDegrees>
            </Position>
            <AltitudeMeters>1141.5999755859375</AltitudeMeters>
            <DistanceMeters>150547.06743432</DistanceMeters>
          </Trackpoint>
          <Trackpoint>
            <Time>2021-07-28T12:33:26.000Z</Time>
            <Position>
              <LatitudeDegrees>41.70133377425372600555419921875</LatitudeDegrees>
              <LongitudeDegrees>-2.76244939304888248443603515625</LongitudeDegrees>
            </Position>
            <AltitudeMeters>1140.800048828125</AltitudeMeters>
            <DistanceMeters>150560.22751928</DistanceMeters>
          </Trackpoint>
          <Trackpoint>
            <Time>2021-07-28T12:33:29.000Z</Time>
            <Position>
              <LatitudeDegrees>41.7016870714724063873291015625</LatitudeDegrees>
              <LongitudeDegrees>-2.76249817572534084320068359375</LongitudeDegrees>
            </Position>
            <AltitudeMeters>1139.5999755859375</AltitudeMeters>
            <DistanceMeters>150599.75863246</DistanceMeters>
          </Trackpoint>
          <Trackpoint>
            <Time>2021-07-28T12:33:33.000Z</Time>
            <Position>
              <LatitudeDegrees>41.702071130275726318359375</LatitudeDegrees>
              <LongitudeDegrees>-2.7628323622047901153564453125</LongitudeDegrees>
            </Position>
            <AltitudeMeters>1139.199951171875</AltitudeMeters>
            <DistanceMeters>150650.73406573</DistanceMeters>
          </Trackpoint>
          <Trackpoint>
            <Time>2021-07-28T12:33:39.000Z</Time>
            <Position>
              <LatitudeDegrees>41.70250120572745800018310546875</LatitudeDegrees>
              <LongitudeDegrees>-2.7633704803884029388427734375</LongitudeDegrees>
            </Position>
            <AltitudeMeters>1140.4000244140625</AltitudeMeters>
            <DistanceMeters>150716.23980613</DistanceMeters>
          </Trackpoint>
          <Trackpoint>
            <Time>2021-07-28T12:33:41.000Z</Time>
            <Position>
              <LatitudeDegrees>41.70262970030307769775390625</LatitudeDegrees>
              <LongitudeDegrees>-2.76354088447988033294677734375</LongitudeDegrees>
            </Position>
            <AltitudeMeters>1140.800048828125</AltitudeMeters>
            <DistanceMeters>150736.36596173</DistanceMeters>
          </Trackpoint>
          <Trackpoint>
            <Time>2021-07-28T12:33:47.000Z</Time>
            <Position>
              <LatitudeDegrees>41.70300914905965328216552734375</LatitudeDegrees>
              <LongitudeDegrees>-2.76406492106616497039794921875</LongitudeDegrees>
            </Position>
            <AltitudeMeters>1139.800048828125</AltitudeMeters>
            <DistanceMeters>150797.02874169</DistanceMeters>
          </Trackpoint>
          <Trackpoint>
            <Time>2021-07-28T12:33:53.000Z</Time>
            <Position>
              <LatitudeDegrees>41.7033948004245758056640625</LatitudeDegrees>
              <LongitudeDegrees>-2.7645944058895111083984375</LongitudeDegrees>
            </Position>
            <AltitudeMeters>1138.199951171875</AltitudeMeters>
            <DistanceMeters>150858.49729174</DistanceMeters>
          </Trackpoint>
          <Trackpoint>
            <Time>2021-07-28T12:33:54.000Z</Time>
            <Position>
              <LatitudeDegrees>41.7034606821835041046142578125</LatitudeDegrees>
              <LongitudeDegrees>-2.764685265719890594482421875</LongitudeDegrees>
            </Position>
            <AltitudeMeters>1137</AltitudeMeters>
            <DistanceMeters>150869.02254603</DistanceMeters>
          </Trackpoint>
          <Trackpoint>
            <Time>2021-07-28T12:33:56.000Z</Time>
            <Position>
              <LatitudeDegrees>41.70359437353909015655517578125</LatitudeDegrees>
              <LongitudeDegrees>-2.7648654766380786895751953125</LongitudeDegrees>
            </Position>
            <AltitudeMeters>1135.5999755859375</AltitudeMeters>
            <DistanceMeters>150890.133453</DistanceMeters>
          </Trackpoint>
          <Trackpoint>
            <Time>2021-07-28T12:33:59.000Z</Time>
            <Position>
              <LatitudeDegrees>41.7037952877581119537353515625</LatitudeDegrees>
              <LongitudeDegrees>-2.76513663120567798614501953125</LongitudeDegrees>
            </Position>
            <AltitudeMeters>1134</AltitudeMeters>
            <DistanceMeters>150921.87891868</DistanceMeters>
          </Trackpoint>
          <Trackpoint>
            <Time>2021-07-28T12:34:05.000Z</Time>
            <Position>
              <LatitudeDegrees>41.70418202877044677734375</LatitudeDegrees>
              <LongitudeDegrees>-2.76565211825072765350341796875</LongitudeDegrees>
            </Position>
            <AltitudeMeters>1133.5999755859375</AltitudeMeters>
            <DistanceMeters>150982.60589644</DistanceMeters>
          </Trackpoint>
          <Trackpoint>
            <Time>2021-07-28T12:34:10.000Z</Time>
            <Position>
              <LatitudeDegrees>41.70444631017744541168212890625</LatitudeDegrees>
              <LongitudeDegrees>-2.766017653048038482666015625</LongitudeDegrees>
            </Position>
            <AltitudeMeters>1135.4000244140625</AltitudeMeters>
            <DistanceMeters>151024.88926073</DistanceMeters>
          </Trackpoint>
          <Trackpoint>
            <Time>2021-07-28T12:34:13.000Z</Time>
            <Position>
              <LatitudeDegrees>41.7045910656452178955078125</LatitudeDegrees>
              <LongitudeDegrees>-2.76621102355420589447021484375</LongitudeDegrees>
            </Position>
            <AltitudeMeters>1136.800048828125</AltitudeMeters>
            <DistanceMeters>151047.64374431</DistanceMeters>
          </Trackpoint>
          <Trackpoint>
            <Time>2021-07-28T12:34:22.000Z</Time>
            <Position>
              <LatitudeDegrees>41.7049727775156497955322265625</LatitudeDegrees>
              <LongitudeDegrees>-2.76675417087972164154052734375</LongitudeDegrees>
            </Position>
            <AltitudeMeters>1137.4000244140625</AltitudeMeters>
            <DistanceMeters>151109.62782795</DistanceMeters>
          </Trackpoint>
          <Trackpoint>
            <Time>2021-07-28T12:34:27.000Z</Time>
            <Position>
              <LatitudeDegrees>41.70513697899878025054931640625</LatitudeDegrees>
              <LongitudeDegrees>-2.76710486970841884613037109375</LongitudeDegrees>
            </Position>
            <AltitudeMeters>1135.5999755859375</AltitudeMeters>
            <DistanceMeters>151144.02618601</DistanceMeters>
          </Trackpoint>
          <Trackpoint>
            <Time>2021-07-28T12:34:30.000Z</Time>
            <Position>
              <LatitudeDegrees>41.70523739419877529144287109375</LatitudeDegrees>
              <LongitudeDegrees>-2.76735917665064334869384765625</LongitudeDegrees>
            </Position>
            <AltitudeMeters>1134</AltitudeMeters>
            <DistanceMeters>151167.931591</DistanceMeters>
          </Trackpoint>
          <Trackpoint>
            <Time>2021-07-28T12:34:33.000Z</Time>
            <Position>
              <LatitudeDegrees>41.70533177442848682403564453125</LatitudeDegrees>
              <LongitudeDegrees>-2.7676445804536342620849609375</LongitudeDegrees>
            </Position>
            <AltitudeMeters>1132.199951171875</AltitudeMeters>
            <DistanceMeters>151193.86970668</DistanceMeters>
          </Trackpoint>
          <Trackpoint>
            <Time>2021-07-28T12:34:35.000Z</Time>
            <Position>
              <LatitudeDegrees>41.7053623683750629425048828125</LatitudeDegrees>
              <LongitudeDegrees>-2.76786091737449169158935546875</LongitudeDegrees>
            </Position>
            <AltitudeMeters>1130.800048828125</AltitudeMeters>
            <DistanceMeters>151212.1657427</DistanceMeters>
          </Trackpoint>
          <Trackpoint>
            <Time>2021-07-28T12:34:37.000Z</Time>
            <Position>
              <LatitudeDegrees>41.70535457320511341094970703125</LatitudeDegrees>
              <LongitudeDegrees>-2.7680951915681362152099609375</LongitudeDegrees>
            </Position>
            <AltitudeMeters>1129.800048828125</AltitudeMeters>
            <DistanceMeters>151231.6522443</DistanceMeters>
          </Trackpoint>
          <Trackpoint>
            <Time>2021-07-28T12:34:38.000Z</Time>
            <Position>
              <LatitudeDegrees>41.70534082688391208648681640625</LatitudeDegrees>
              <LongitudeDegrees>-2.76821698062121868133544921875</LongitudeDegrees>
            </Position>
            <AltitudeMeters>1129.199951171875</AltitudeMeters>
            <DistanceMeters>151241.88693465</DistanceMeters>
          </Trackpoint>
          <Trackpoint>
            <Time>2021-07-28T12:34:39.000Z</Time>
            <Position>
              <LatitudeDegrees>41.70532641001045703887939453125</LatitudeDegrees>
              <LongitudeDegrees>-2.76834220625460147857666015625</LongitudeDegrees>
            </Position>
            <AltitudeMeters>1128</AltitudeMeters>
            <DistanceMeters>151252.41562016</DistanceMeters>
          </Trackpoint>
          <Trackpoint>
            <Time>2021-07-28T12:34:41.000Z</Time>
            <Position>
              <LatitudeDegrees>41.70529942028224468231201171875</LatitudeDegrees>
              <LongitudeDegrees>-2.768602631986141204833984375</LongitudeDegrees>
            </Position>
            <AltitudeMeters>1126.5999755859375</AltitudeMeters>
            <DistanceMeters>151274.26349971</DistanceMeters>
          </Trackpoint>
          <Trackpoint>
            <Time>2021-07-28T12:34:43.000Z</Time>
            <Position>
              <LatitudeDegrees>41.705273352563381195068359375</LatitudeDegrees>
              <LongitudeDegrees>-2.76887496002018451690673828125</LongitudeDegrees>
            </Position>
            <AltitudeMeters>1125</AltitudeMeters>
            <DistanceMeters>151297.07822448</DistanceMeters>
          </Trackpoint>
          <Trackpoint>
            <Time>2021-07-28T12:34:45.000Z</Time>
            <Position>
              <LatitudeDegrees>41.70524342916905879974365234375</LatitudeDegrees>
              <LongitudeDegrees>-2.7691563405096530914306640625</LongitudeDegrees>
            </Position>
            <AltitudeMeters>1123.800048828125</AltitudeMeters>
            <DistanceMeters>151320.69575657</DistanceMeters>
          </Trackpoint>
          <Trackpoint>
            <Time>2021-07-28T12:34:47.000Z</Time>
            <Position>
              <LatitudeDegrees>41.7052091471850872039794921875</LatitudeDegrees>
              <LongitudeDegrees>-2.7694436721503734588623046875</LongitudeDegrees>
            </Position>
            <AltitudeMeters>1121</AltitudeMeters>
            <DistanceMeters>151344.87478072</DistanceMeters>
          </Trackpoint>
          <Trackpoint>
            <Time>2021-07-28T12:34:49.000Z</Time>
            <Position>
              <LatitudeDegrees>41.70518073253333568572998046875</LatitudeDegrees>
              <LongitudeDegrees>-2.76973477564752101898193359375</LongitudeDegrees>
            </Position>
            <AltitudeMeters>1119.4000244140625</AltitudeMeters>
            <DistanceMeters>151369.26982444</DistanceMeters>
          </Trackpoint>
          <Trackpoint>
            <Time>2021-07-28T12:34:51.000Z</Time>
            <Position>
              <LatitudeDegrees>41.7051501385867595672607421875</LatitudeDegrees>
              <LongitudeDegrees>-2.7700312435626983642578125</LongitudeDegrees>
            </Position>
            <AltitudeMeters>1118</AltitudeMeters>
            <DistanceMeters>151394.13924333</DistanceMeters>
          </Trackpoint>
          <Trackpoint>
            <Time>2021-07-28T12:34:53.000Z</Time>
            <Position>
              <LatitudeDegrees>41.70511879026889801025390625</LatitudeDegrees>
              <LongitudeDegrees>-2.7703311480581760406494140625</LongitudeDegrees>
            </Position>
            <AltitudeMeters>1116.4000244140625</AltitudeMeters>
            <DistanceMeters>151419.30302783</DistanceMeters>
          </Trackpoint>
          <Trackpoint>
            <Time>2021-07-28T12:34:54.000Z</Time>
            <Position>
              <LatitudeDegrees>41.7051031999289989471435546875</LatitudeDegrees>
              <LongitudeDegrees>-2.7704836986958980560302734375</LongitudeDegrees>
            </Position>
            <AltitudeMeters>1115.199951171875</AltitudeMeters>
            <DistanceMeters>151432.0974495</DistanceMeters>
          </Trackpoint>
          <Trackpoint>
            <Time>2021-07-28T12:34:56.000Z</Time>
            <Position>
              <LatitudeDegrees>41.70507629401981830596923828125</LatitudeDegrees>
              <LongitudeDegrees>-2.77079324238002300262451171875</LongitudeDegrees>
            </Position>
            <AltitudeMeters>1114</AltitudeMeters>
            <DistanceMeters>151457.99288301</DistanceMeters>
          </Trackpoint>
          <Trackpoint>
            <Time>2021-07-28T12:34:58.000Z</Time>
            <Position>
              <LatitudeDegrees>41.70506556518375873565673828125</LatitudeDegrees>
              <LongitudeDegrees>-2.77109331451356410980224609375</LongitudeDegrees>
            </Position>
            <AltitudeMeters>1113.5999755859375</AltitudeMeters>
            <DistanceMeters>151482.95616755</DistanceMeters>
          </Trackpoint>
          <Trackpoint>
            <Time>2021-07-28T12:35:00.000Z</Time>
            <Position>
              <LatitudeDegrees>41.70511518605053424835205078125</LatitudeDegrees>
              <LongitudeDegrees>-2.77135298587381839752197265625</LongitudeDegrees>
            </Position>
            <AltitudeMeters>1113</AltitudeMeters>
            <DistanceMeters>151505.22934289</DistanceMeters>
          </Trackpoint>
          <Trackpoint>
            <Time>2021-07-28T12:35:02.000Z</Time>
            <Position>
              <LatitudeDegrees>41.70524326153099536895751953125</LatitudeDegrees>
              <LongitudeDegrees>-2.77156077325344085693359375</LongitudeDegrees>
            </Position>
            <AltitudeMeters>1112.199951171875</AltitudeMeters>
            <DistanceMeters>151527.61978246</DistanceMeters>
          </Trackpoint>
          <Trackpoint>
            <Time>2021-07-28T12:35:03.000Z</Time>
            <Position>
              <LatitudeDegrees>41.7053224705159664154052734375</LatitudeDegrees>
              <LongitudeDegrees>-2.7716524712741374969482421875</LongitudeDegrees>
            </Position>
            <AltitudeMeters>1111.5999755859375</AltitudeMeters>
            <DistanceMeters>151539.27208822</DistanceMeters>
          </Trackpoint>
          <Trackpoint>
            <Time>2021-07-28T12:35:05.000Z</Time>
            <Position>
              <LatitudeDegrees>41.70548700727522373199462890625</LatitudeDegrees>
              <LongitudeDegrees>-2.77184248901903629302978515625</LongitudeDegrees>
            </Position>
            <AltitudeMeters>1110.199951171875</AltitudeMeters>
            <DistanceMeters>151563.4526062</DistanceMeters>
          </Trackpoint>
          <Trackpoint>
            <Time>2021-07-28T12:35:06.000Z</Time>
            <Position>
              <LatitudeDegrees>41.70556864701211452484130859375</LatitudeDegrees>
              <LongitudeDegrees>-2.7719428203999996185302734375</LongitudeDegrees>
            </Position>
            <AltitudeMeters>1108.800048828125</AltitudeMeters>
            <DistanceMeters>151575.78413032</DistanceMeters>
          </Trackpoint>
          <Trackpoint>
            <Time>2021-07-28T12:35:07.000Z</Time>
            <Position>
              <LatitudeDegrees>41.7056505382061004638671875</LatitudeDegrees>
              <LongitudeDegrees>-2.77204600162804126739501953125</LongitudeDegrees>
            </Position>
            <AltitudeMeters>1107.800048828125</AltitudeMeters>
            <DistanceMeters>151588.29738432</DistanceMeters>
          </Trackpoint>
          <Trackpoint>
            <Time>2021-07-28T12:35:08.000Z</Time>
            <Position>
              <LatitudeDegrees>41.70573427341878414154052734375</LatitudeDegrees>
              <LongitudeDegrees>-2.7721500210464000701904296875</LongitudeDegrees>
            </Position>
            <AltitudeMeters>1106.800048828125</AltitudeMeters>
            <DistanceMeters>151601.00860605</DistanceMeters>
          </Trackpoint>
          <Trackpoint>
            <Time>2021-07-28T12:35:09.000Z</Time>
            <Position>
              <LatitudeDegrees>41.70582027174532413482666015625</LatitudeDegrees>
              <LongitudeDegrees>-2.77225412428379058837890625</LongitudeDegrees>
            </Position>
            <AltitudeMeters>1105.5999755859375</AltitudeMeters>
            <DistanceMeters>151613.91056052</DistanceMeters>
          </Trackpoint>
          <Trackpoint>
            <Time>2021-07-28T12:35:10.000Z</Time>
            <Position>
              <LatitudeDegrees>41.7059105448424816131591796875</LatitudeDegrees>
              <LongitudeDegrees>-2.77235479094088077545166015625</LongitudeDegrees>
            </Position>
            <AltitudeMeters>1104.199951171875</AltitudeMeters>
            <DistanceMeters>151626.98424733</DistanceMeters>
          </Trackpoint>
          <Trackpoint>
            <Time>2021-07-28T12:35:11.000Z</Time>
            <Position>
              <LatitudeDegrees>41.70600567944347858428955078125</LatitudeDegrees>
              <LongitudeDegrees>-2.77244724333286285400390625</LongitudeDegrees>
            </Position>
            <AltitudeMeters>1103.5999755859375</AltitudeMeters>
            <DistanceMeters>151640.06621999</DistanceMeters>
          </Trackpoint>
          <Trackpoint>
            <Time>2021-07-28T12:35:16.000Z</Time>
            <Position>
              <LatitudeDegrees>41.7064940929412841796875</LatitudeDegrees>
              <LongitudeDegrees>-2.77277656830847263336181640625</LongitudeDegrees>
            </Position>
            <AltitudeMeters>1104.199951171875</AltitudeMeters>
            <DistanceMeters>151700.92680606</DistanceMeters>
          </Trackpoint>
          <Trackpoint>
            <Time>2021-07-28T12:35:22.000Z</Time>
            <Position>
              <LatitudeDegrees>41.706942357122898101806640625</LatitudeDegrees>
              <LongitudeDegrees>-2.773323990404605865478515625</LongitudeDegrees>
            </Position>
            <AltitudeMeters>1104.199951171875</AltitudeMeters>
            <DistanceMeters>151768.44260117</DistanceMeters>
          </Trackpoint>
          <Trackpoint>
            <Time>2021-07-28T12:35:28.000Z</Time>
            <Position>
              <LatitudeDegrees>41.707430519163608551025390625</LatitudeDegrees>
              <LongitudeDegrees>-2.77364795096218585968017578125</LongitudeDegrees>
            </Position>
            <AltitudeMeters>1104.4000244140625</AltitudeMeters>
            <DistanceMeters>151829.07880434</DistanceMeters>
          </Trackpoint>
          <Trackpoint>
            <Time>2021-07-28T12:35:30.000Z</Time>
            <Position>
              <LatitudeDegrees>41.70756706036627292633056640625</LatitudeDegrees>
              <LongitudeDegrees>-2.77373646385967731475830078125</LongitudeDegrees>
            </Position>
            <AltitudeMeters>1105.800048828125</AltitudeMeters>
            <DistanceMeters>151845.96229993</DistanceMeters>
          </Trackpoint>
          <Trackpoint>
            <Time>2021-07-28T12:35:32.000Z</Time>
            <Position>
              <LatitudeDegrees>41.7076955549418926239013671875</LatitudeDegrees>
              <LongitudeDegrees>-2.7738019265234470367431640625</LongitudeDegrees>
            </Position>
            <AltitudeMeters>1106.5999755859375</AltitudeMeters>
            <DistanceMeters>151861.2636666</DistanceMeters>
          </Trackpoint>
          <Trackpoint>
            <Time>2021-07-28T12:35:33.000Z</Time>
            <Position>
              <LatitudeDegrees>41.70776101760566234588623046875</LatitudeDegrees>
              <LongitudeDegrees>-2.77381357736885547637939453125</LongitudeDegrees>
            </Position>
            <AltitudeMeters>1107</AltitudeMeters>
            <DistanceMeters>151868.61335484</DistanceMeters>
          </Trackpoint>
          <Trackpoint>
            <Time>2021-07-28T12:35:42.000Z</Time>
            <Position>
              <LatitudeDegrees>41.70823752880096435546875</LatitudeDegrees>
              <LongitudeDegrees>-2.7740170061588287353515625</LongitudeDegrees>
            </Position>
            <AltitudeMeters>1107.5999755859375</AltitudeMeters>
            <DistanceMeters>151924.27841113</DistanceMeters>
          </Trackpoint>
          <Trackpoint>
            <Time>2021-07-28T12:35:45.000Z</Time>
            <Position>
              <LatitudeDegrees>41.70823308639228343963623046875</LatitudeDegrees>
              <LongitudeDegrees>-2.7742280624806880950927734375</LongitudeDegrees>
            </Position>
            <AltitudeMeters>1108.199951171875</AltitudeMeters>
            <DistanceMeters>151941.82236039</DistanceMeters>
          </Trackpoint>
          <Trackpoint>
            <Time>2021-07-28T12:35:48.000Z</Time>
            <Position>
              <LatitudeDegrees>41.70817055739462375640869140625</LatitudeDegrees>
              <LongitudeDegrees>-2.774398885667324066162109375</LongitudeDegrees>
            </Position>
            <AltitudeMeters>1109</AltitudeMeters>
            <DistanceMeters>151957.63053345</DistanceMeters>
          </Trackpoint>
          <Trackpoint>
            <Time>2021-07-28T12:35:50.000Z</Time>
            <Position>
              <LatitudeDegrees>41.7081340961158275604248046875</LatitudeDegrees>
              <LongitudeDegrees>-2.77451028116047382354736328125</LongitudeDegrees>
            </Position>
            <AltitudeMeters>1109.199951171875</AltitudeMeters>
            <DistanceMeters>151967.73737394</DistanceMeters>
          </Trackpoint>
          <Trackpoint>
            <Time>2021-07-28T12:35:52.000Z</Time>
            <Position>
              <LatitudeDegrees>41.70810551382601261138916015625</LatitudeDegrees>
              <LongitudeDegrees>-2.774624526500701904296875</LongitudeDegrees>
            </Position>
            <AltitudeMeters>1109.5999755859375</AltitudeMeters>
            <DistanceMeters>151977.74905954</DistanceMeters>
          </Trackpoint>
          <Trackpoint>
            <Time>2021-07-28T12:35:53.000Z</Time>
            <Position>
              <LatitudeDegrees>41.70809713192284107208251953125</LatitudeDegrees>
              <LongitudeDegrees>-2.774683870375156402587890625</LongitudeDegrees>
            </Position>
            <AltitudeMeters>1109.800048828125</AltitudeMeters>
            <DistanceMeters>151982.76661403</DistanceMeters>
          </Trackpoint>
          <Trackpoint>
            <Time>2021-07-28T12:35:58.000Z</Time>
            <Position>
              <LatitudeDegrees>41.70805773697793483734130859375</LatitudeDegrees>
              <LongitudeDegrees>-2.77496994473040103912353515625</LongitudeDegrees>
            </Position>
            <AltitudeMeters>1110.4000244140625</AltitudeMeters>
            <DistanceMeters>152006.9379809</DistanceMeters>
          </Trackpoint>
          <Trackpoint>
            <Time>2021-07-28T12:36:04.000Z</Time>
            <Position>
              <LatitudeDegrees>41.7080093733966350555419921875</LatitudeDegrees>
              <LongitudeDegrees>-2.77527940459549427032470703125</LongitudeDegrees>
            </Position>
            <AltitudeMeters>1111.199951171875</AltitudeMeters>
            <DistanceMeters>152033.20904373</DistanceMeters>
          </Trackpoint>
          <Trackpoint>
            <Time>2021-07-28T12:36:05.000Z</Time>
            <Position>
              <LatitudeDegrees>41.7080013267695903778076171875</LatitudeDegrees>
              <LongitudeDegrees>-2.77532952837646007537841796875</LongitudeDegrees>
            </Position>
            <AltitudeMeters>1111.199951171875</AltitudeMeters>
            <DistanceMeters>152037.46937866</DistanceMeters>
          </Trackpoint>
          <Trackpoint>
            <Time>2021-07-28T12:36:20.000Z</Time>
            <Position>
              <LatitudeDegrees>41.707879789173603057861328125</LatitudeDegrees>
              <LongitudeDegrees>-2.77604970149695873260498046875</LongitudeDegrees>
            </Position>
            <AltitudeMeters>1111.5999755859375</AltitudeMeters>
            <DistanceMeters>152098.81999726</DistanceMeters>
          </Trackpoint>
          <Trackpoint>
            <Time>2021-07-28T12:36:25.000Z</Time>
            <Position>
              <LatitudeDegrees>41.707848608493804931640625</LatitudeDegrees>
              <LongitudeDegrees>-2.7762920223176479339599609375</LongitudeDegrees>
            </Position>
            <AltitudeMeters>1112.199951171875</AltitudeMeters>
            <DistanceMeters>152119.25184578</DistanceMeters>
          </Trackpoint>
          <Trackpoint>
            <Time>2021-07-28T12:36:40.000Z</Time>
            <Position>
              <LatitudeDegrees>41.707713492214679718017578125</LatitudeDegrees>
              <LongitudeDegrees>-2.77703247964382171630859375</LongitudeDegrees>
            </Position>
            <AltitudeMeters>1113.199951171875</AltitudeMeters>
            <DistanceMeters>152182.58927169</DistanceMeters>
          </Trackpoint>
          <Trackpoint>
            <Time>2021-07-28T12:36:41.000Z</Time>
            <Position>
              <LatitudeDegrees>41.70770301483571529388427734375</LatitudeDegrees>
              <LongitudeDegrees>-2.7770846150815486907958984375</LongitudeDegrees>
            </Position>
            <AltitudeMeters>1113.199951171875</AltitudeMeters>
            <DistanceMeters>152187.07469367</DistanceMeters>
          </Trackpoint>
          <Trackpoint>
            <Time>2021-07-28T12:36:43.000Z</Time>
            <Position>
              <LatitudeDegrees>41.70768893323838710784912109375</LatitudeDegrees>
              <LongitudeDegrees>-2.77719349600374698638916015625</LongitudeDegrees>
            </Position>
            <AltitudeMeters>1113.199951171875</AltitudeMeters>
            <DistanceMeters>152196.25694959</DistanceMeters>
          </Trackpoint>
          <Trackpoint>
            <Time>2021-07-28T12:36:56.000Z</Time>
            <Position>
              <LatitudeDegrees>41.7075624503195285797119140625</LatitudeDegrees>
              <LongitudeDegrees>-2.7779486216604709625244140625</LongitudeDegrees>
            </Position>
            <AltitudeMeters>1113.199951171875</AltitudeMeters>
            <DistanceMeters>152260.56216684</DistanceMeters>
          </Trackpoint>
          <Trackpoint>
            <Time>2021-07-28T12:37:08.000Z</Time>
            <Position>
              <LatitudeDegrees>41.70744250528514385223388671875</LatitudeDegrees>
              <LongitudeDegrees>-2.77865362353622913360595703125</LongitudeDegrees>
            </Position>
            <AltitudeMeters>1113.4000244140625</AltitudeMeters>
            <DistanceMeters>152320.64460587</DistanceMeters>
          </Trackpoint>
          <Trackpoint>
            <Time>2021-07-28T12:37:14.000Z</Time>
            <Position>
              <LatitudeDegrees>41.7073901183903217315673828125</LatitudeDegrees>
              <LongitudeDegrees>-2.7789940126240253448486328125</LongitudeDegrees>
            </Position>
            <AltitudeMeters>1112.199951171875</AltitudeMeters>
            <DistanceMeters>152349.52319153</DistanceMeters>
          </Trackpoint>
          <Trackpoint>
            <Time>2021-07-28T12:37:27.000Z</Time>
            <Position>
              <LatitudeDegrees>41.70726313255727291107177734375</LatitudeDegrees>
              <LongitudeDegrees>-2.77972483076155185699462890625</LongitudeDegrees>
            </Position>
            <AltitudeMeters>1112.5999755859375</AltitudeMeters>
            <DistanceMeters>152411.87208646</DistanceMeters>
          </Trackpoint>
          <Trackpoint>
            <Time>2021-07-28T12:37:38.000Z</Time>
            <Position>
              <LatitudeDegrees>41.7071597836911678314208984375</LatitudeDegrees>
              <LongitudeDegrees>-2.780352719128131866455078125</LongitudeDegrees>
            </Position>
            <AltitudeMeters>1113</AltitudeMeters>
            <DistanceMeters>152465.29823159</DistanceMeters>
          </Trackpoint>
          <Trackpoint>
            <Time>2021-07-28T12:37:50.000Z</Time>
            <Position>
              <LatitudeDegrees>41.70706045813858509063720703125</LatitudeDegrees>
              <LongitudeDegrees>-2.78095386922359466552734375</LongitudeDegrees>
            </Position>
            <AltitudeMeters>1114</AltitudeMeters>
            <DistanceMeters>152516.45844716</DistanceMeters>
          </Trackpoint>
          <Trackpoint>
            <Time>2021-07-28T12:37:59.000Z</Time>
            <Position>
              <LatitudeDegrees>41.70699591748416423797607421875</LatitudeDegrees>
              <LongitudeDegrees>-2.7813486568629741668701171875</LongitudeDegrees>
            </Position>
            <AltitudeMeters>1115.4000244140625</AltitudeMeters>
            <DistanceMeters>152550.03987159</DistanceMeters>
          </Trackpoint>
          <Trackpoint>
            <Time>2021-07-28T12:38:04.000Z</Time>
            <Position>
              <LatitudeDegrees>41.7069592885673046112060546875</LatitudeDegrees>
              <LongitudeDegrees>-2.78155828826129436492919921875</LongitudeDegrees>
            </Position>
            <AltitudeMeters>1116.5999755859375</AltitudeMeters>
            <DistanceMeters>152567.92964435</DistanceMeters>
          </Trackpoint>
          <Trackpoint>
            <Time>2021-07-28T12:38:12.000Z</Time>
            <Position>
              <LatitudeDegrees>41.70690715312957763671875</LatitudeDegrees>
              <LongitudeDegrees>-2.7818914689123630523681640625</LongitudeDegrees>
            </Position>
            <AltitudeMeters>1117.5999755859375</AltitudeMeters>
            <DistanceMeters>152596.21633757</DistanceMeters>
          </Trackpoint>
          <Trackpoint>
            <Time>2021-07-28T12:38:25.000Z</Time>
            <Position>
              <LatitudeDegrees>41.7067923210561275482177734375</LatitudeDegrees>
              <LongitudeDegrees>-2.7825975604355335235595703125</LongitudeDegrees>
            </Position>
            <AltitudeMeters>1116.800048828125</AltitudeMeters>
            <DistanceMeters>152656.2638229</DistanceMeters>
          </Trackpoint>
          <Trackpoint>
            <Time>2021-07-28T12:38:38.000Z</Time>
            <Position>
              <LatitudeDegrees>41.7066696099936962127685546875</LatitudeDegrees>
              <LongitudeDegrees>-2.78333843685686588287353515625</LongitudeDegrees>
            </Position>
            <AltitudeMeters>1117.4000244140625</AltitudeMeters>
            <DistanceMeters>152719.32276582</DistanceMeters>
          </Trackpoint>
          <Trackpoint>
            <Time>2021-07-28T12:38:51.000Z</Time>
            <Position>
              <LatitudeDegrees>41.70655217953026294708251953125</LatitudeDegrees>
              <LongitudeDegrees>-2.7840436063706874847412109375</LongitudeDegrees>
            </Position>
            <AltitudeMeters>1118</AltitudeMeters>
            <DistanceMeters>152779.35791853</DistanceMeters>
          </Trackpoint>
          <Trackpoint>
            <Time>2021-07-28T12:39:01.000Z</Time>
            <Position>
              <LatitudeDegrees>41.7064798437058925628662109375</LatitudeDegrees>
              <LongitudeDegrees>-2.7844922058284282684326171875</LongitudeDegrees>
            </Position>
            <AltitudeMeters>1118.800048828125</AltitudeMeters>
            <DistanceMeters>152817.49335968</DistanceMeters>
          </Trackpoint>
          <Trackpoint>
            <Time>2021-07-28T12:39:05.000Z</Time>
            <Position>
              <LatitudeDegrees>41.7064489983022212982177734375</LatitudeDegrees>
              <LongitudeDegrees>-2.78466143645346164703369140625</LongitudeDegrees>
            </Position>
            <AltitudeMeters>1120.199951171875</AltitudeMeters>
            <DistanceMeters>152831.96833339</DistanceMeters>
          </Trackpoint>
          <Trackpoint>
            <Time>2021-07-28T12:39:10.000Z</Time>
            <Position>
              <LatitudeDegrees>41.7064134590327739715576171875</LatitudeDegrees>
              <LongitudeDegrees>-2.78487282805144786834716796875</LongitudeDegrees>
            </Position>
            <AltitudeMeters>1121.800048828125</AltitudeMeters>
            <DistanceMeters>152849.97332559</DistanceMeters>
          </Trackpoint>
          <Trackpoint>
            <Time>2021-07-28T12:39:14.000Z</Time>
            <Position>
              <LatitudeDegrees>41.7063842900097370147705078125</LatitudeDegrees>
              <LongitudeDegrees>-2.7850363589823246002197265625</LongitudeDegrees>
            </Position>
            <AltitudeMeters>1122.800048828125</AltitudeMeters>
            <DistanceMeters>152863.94419179</DistanceMeters>
          </Trackpoint>
          <Trackpoint>
            <Time>2021-07-28T12:39:22.000Z</Time>
            <Position>
              <LatitudeDegrees>41.70632989145815372467041015625</LatitudeDegrees>
              <LongitudeDegrees>-2.7853669412434101104736328125</LongitudeDegrees>
            </Position>
            <AltitudeMeters>1123.800048828125</AltitudeMeters>
            <DistanceMeters>152892.07306234</DistanceMeters>
          </Trackpoint>
          <Trackpoint>
            <Time>2021-07-28T12:39:28.000Z</Time>
            <Position>
              <LatitudeDegrees>41.70628764666616916656494140625</LatitudeDegrees>
              <LongitudeDegrees>-2.7856153808534145355224609375</LongitudeDegrees>
            </Position>
            <AltitudeMeters>1124.800048828125</AltitudeMeters>
            <DistanceMeters>152913.24590142</DistanceMeters>
          </Trackpoint>
          <Trackpoint>
            <Time>2021-07-28T12:39:44.000Z</Time>
            <Position>
              <LatitudeDegrees>41.70614230446517467498779296875</LatitudeDegrees>
              <LongitudeDegrees>-2.78635449707508087158203125</LongitudeDegrees>
            </Position>
            <AltitudeMeters>1124.5999755859375</AltitudeMeters>
            <DistanceMeters>152976.75695461</DistanceMeters>
          </Trackpoint>
          <Trackpoint>
            <Time>2021-07-28T12:39:45.000Z</Time>
            <Position>
              <LatitudeDegrees>41.7061170749366283416748046875</LatitudeDegrees>
              <LongitudeDegrees>-2.7864606119692325592041015625</LongitudeDegrees>
            </Position>
            <AltitudeMeters>1124.4000244140625</AltitudeMeters>
            <DistanceMeters>152986.01023429</DistanceMeters>
          </Trackpoint>
          <Trackpoint>
            <Time>2021-07-28T12:39:51.000Z</Time>
            <Position>
              <LatitudeDegrees>41.70603275299072265625</LatitudeDegrees>
              <LongitudeDegrees>-2.7867516316473484039306640625</LongitudeDegrees>
            </Position>
            <AltitudeMeters>1123.5999755859375</AltitudeMeters>
            <DistanceMeters>153011.94956844</DistanceMeters>
          </Trackpoint>
          <Trackpoint>
            <Time>2021-07-28T12:39:52.000Z</Time>
            <Position>
              <LatitudeDegrees>41.706013977527618408203125</LatitudeDegrees>
              <LongitudeDegrees>-2.786812819540500640869140625</LongitudeDegrees>
            </Position>
            <AltitudeMeters>1123.4000244140625</AltitudeMeters>
            <DistanceMeters>153017.44635257</DistanceMeters>
          </Trackpoint>
          <Trackpoint>
            <Time>2021-07-28T12:39:56.000Z</Time>
            <Position>
              <LatitudeDegrees>41.70594113878905773162841796875</LatitudeDegrees>
              <LongitudeDegrees>-2.78705187141895294189453125</LongitudeDegrees>
            </Position>
            <AltitudeMeters>1122.4000244140625</AltitudeMeters>
            <DistanceMeters>153038.9013561</DistanceMeters>
          </Trackpoint>
          <Trackpoint>
            <Time>2021-07-28T12:40:08.000Z</Time>
            <Position>
              <LatitudeDegrees>41.70568448491394519805908203125</LatitudeDegrees>
              <LongitudeDegrees>-2.78770674951374530792236328125</LongitudeDegrees>
            </Position>
            <AltitudeMeters>1122</AltitudeMeters>
            <DistanceMeters>153100.36065041</DistanceMeters>
          </Trackpoint>
          <Trackpoint>
            <Time>2021-07-28T12:40:21.000Z</Time>
            <Position>
              <LatitudeDegrees>41.70540905557572841644287109375</LatitudeDegrees>
              <LongitudeDegrees>-2.78837663121521472930908203125</LongitudeDegrees>
            </Position>
            <AltitudeMeters>1121.4000244140625</AltitudeMeters>
            <DistanceMeters>153163.9080205</DistanceMeters>
          </Trackpoint>
          <Trackpoint>
            <Time>2021-07-28T12:40:34.000Z</Time>
            <Position>
              <LatitudeDegrees>41.70515039004385471343994140625</LatitudeDegrees>
              <LongitudeDegrees>-2.7890274859964847564697265625</LongitudeDegrees>
            </Position>
            <AltitudeMeters>1122.4000244140625</AltitudeMeters>
            <DistanceMeters>153225.17660053</DistanceMeters>
          </Trackpoint>
          <Trackpoint>
            <Time>2021-07-28T12:40:46.000Z</Time>
            <Position>
              <LatitudeDegrees>41.7048936523497104644775390625</LatitudeDegrees>
              <LongitudeDegrees>-2.78966560028493404388427734375</LongitudeDegrees>
            </Position>
            <AltitudeMeters>1123</AltitudeMeters>
            <DistanceMeters>153285.41087087</DistanceMeters>
          </Trackpoint>
          <Trackpoint>
            <Time>2021-07-28T12:40:50.000Z</Time>
            <Position>
              <LatitudeDegrees>41.70480539090931415557861328125</LatitudeDegrees>
              <LongitudeDegrees>-2.78987783007323741912841796875</LongitudeDegrees>
            </Position>
            <AltitudeMeters>1123.4000244140625</AltitudeMeters>
            <DistanceMeters>153305.59750654</DistanceMeters>
          </Trackpoint>
          <Trackpoint>
            <Time>2021-07-28T12:41:02.000Z</Time>
            <Position>
              <LatitudeDegrees>41.70454102568328380584716796875</LatitudeDegrees>
              <LongitudeDegrees>-2.79052357189357280731201171875</LongitudeDegrees>
            </Position>
            <AltitudeMeters>1123.4000244140625</AltitudeMeters>
            <DistanceMeters>153366.79426792</DistanceMeters>
          </Trackpoint>
          <Trackpoint>
            <Time>2021-07-28T12:41:14.000Z</Time>
            <Position>
              <LatitudeDegrees>41.70427079312503337860107421875</LatitudeDegrees>
              <LongitudeDegrees>-2.7911853231489658355712890625</LongitudeDegrees>
            </Position>
            <AltitudeMeters>1123.199951171875</AltitudeMeters>
            <DistanceMeters>153429.47186022</DistanceMeters>
          </Trackpoint>
          <Trackpoint>
            <Time>2021-07-28T12:41:25.000Z</Time>
            <Position>
              <LatitudeDegrees>41.7040185816586017608642578125</LatitudeDegrees>
              <LongitudeDegrees>-2.79180197976529598236083984375</LongitudeDegrees>
            </Position>
            <AltitudeMeters>1123.5999755859375</AltitudeMeters>
            <DistanceMeters>153487.89953611</DistanceMeters>
          </Trackpoint>
          <Trackpoint>
            <Time>2021-07-28T12:41:37.000Z</Time>
            <Position>
              <LatitudeDegrees>41.703740470111370086669921875</LatitudeDegrees>
              <LongitudeDegrees>-2.792477309703826904296875</LongitudeDegrees>
            </Position>
            <AltitudeMeters>1122.800048828125</AltitudeMeters>
            <DistanceMeters>153551.98869722</DistanceMeters>
          </Trackpoint>
          <Trackpoint>
            <Time>2021-07-28T12:41:49.000Z</Time>
            <Position>
              <LatitudeDegrees>41.70347115956246852874755859375</LatitudeDegrees>
              <LongitudeDegrees>-2.7931359596550464630126953125</LongitudeDegrees>
            </Position>
            <AltitudeMeters>1123.199951171875</AltitudeMeters>
            <DistanceMeters>153614.39151851</DistanceMeters>
          </Trackpoint>
          <Trackpoint>
            <Time>2021-07-28T12:42:02.000Z</Time>
            <Position>
              <LatitudeDegrees>41.70319489203393459320068359375</LatitudeDegrees>
              <LongitudeDegrees>-2.793818414211273193359375</LongitudeDegrees>
            </Position>
            <AltitudeMeters>1123.199951171875</AltitudeMeters>
            <DistanceMeters>153678.90213074</DistanceMeters>
          </Trackpoint>
          <Trackpoint>
            <Time>2021-07-28T12:42:14.000Z</Time>
            <Position>
              <LatitudeDegrees>41.70292650349438190460205078125</LatitudeDegrees>
              <LongitudeDegrees>-2.7944703586399555206298828125</LongitudeDegrees>
            </Position>
            <AltitudeMeters>1123.4000244140625</AltitudeMeters>
            <DistanceMeters>153740.76751412</DistanceMeters>
          </Trackpoint>
          <Trackpoint>
            <Time>2021-07-28T12:42:23.000Z</Time>
            <Position>
              <LatitudeDegrees>41.7026965878903865814208984375</LatitudeDegrees>
              <LongitudeDegrees>-2.79502146877348423004150390625</LongitudeDegrees>
            </Position>
            <AltitudeMeters>1122</AltitudeMeters>
            <DistanceMeters>153793.22862961</DistanceMeters>
          </Trackpoint>
          <Trackpoint>
            <Time>2021-07-28T12:42:31.000Z</Time>
            <Position>
              <LatitudeDegrees>41.70247756876051425933837890625</LatitudeDegrees>
              <LongitudeDegrees>-2.7955549769103527069091796875</LongitudeDegrees>
            </Position>
            <AltitudeMeters>1121</AltitudeMeters>
            <DistanceMeters>153843.8226586</DistanceMeters>
          </Trackpoint>
          <Trackpoint>
            <Time>2021-07-28T12:42:37.000Z</Time>
            <Position>
              <LatitudeDegrees>41.70231110416352748870849609375</LatitudeDegrees>
              <LongitudeDegrees>-2.795963846147060394287109375</LongitudeDegrees>
            </Position>
            <AltitudeMeters>1119.4000244140625</AltitudeMeters>
            <DistanceMeters>153882.52280574</DistanceMeters>
          </Trackpoint>
          <Trackpoint>
            <Time>2021-07-28T12:42:39.000Z</Time>
            <Position>
              <LatitudeDegrees>41.70225628651678562164306640625</LatitudeDegrees>
              <LongitudeDegrees>-2.79609569348394870758056640625</LongitudeDegrees>
            </Position>
            <AltitudeMeters>1118</AltitudeMeters>
            <DistanceMeters>153895.06381213</DistanceMeters>
          </Trackpoint>
          <Trackpoint>
            <Time>2021-07-28T12:42:49.000Z</Time>
            <Position>
              <LatitudeDegrees>41.70199410058557987213134765625</LatitudeDegrees>
              <LongitudeDegrees>-2.7967299520969390869140625</LongitudeDegrees>
            </Position>
            <AltitudeMeters>1118.800048828125</AltitudeMeters>
            <DistanceMeters>153955.30969985</DistanceMeters>
          </Trackpoint>
          <Trackpoint>
            <Time>2021-07-28T12:42:59.000Z</Time>
            <Position>
              <LatitudeDegrees>41.70171900652348995208740234375</LatitudeDegrees>
              <LongitudeDegrees>-2.79739857651293277740478515625</LongitudeDegrees>
            </Position>
            <AltitudeMeters>1118</AltitudeMeters>
            <DistanceMeters>154018.75019197</DistanceMeters>
          </Trackpoint>
          <Trackpoint>
            <Time>2021-07-28T12:43:09.000Z</Time>
            <Position>
              <LatitudeDegrees>41.7014386318624019622802734375</LatitudeDegrees>
              <LongitudeDegrees>-2.79807717539370059967041015625</LongitudeDegrees>
            </Position>
            <AltitudeMeters>1117.5999755859375</AltitudeMeters>
            <DistanceMeters>154083.20058549</DistanceMeters>
          </Trackpoint>
          <Trackpoint>
            <Time>2021-07-28T12:43:16.000Z</Time>
            <Position>
              <LatitudeDegrees>41.7012391425669193267822265625</LatitudeDegrees>
              <LongitudeDegrees>-2.79856131412088871002197265625</LongitudeDegrees>
            </Position>
            <AltitudeMeters>1116.800048828125</AltitudeMeters>
            <DistanceMeters>154129.15305219</DistanceMeters>
          </Trackpoint>
          <Trackpoint>
            <Time>2021-07-28T12:43:25.000Z</Time>
            <Position>
              <LatitudeDegrees>41.70098173432052135467529296875</LatitudeDegrees>
              <LongitudeDegrees>-2.7991843409836292266845703125</LongitudeDegrees>
            </Position>
            <AltitudeMeters>1115.800048828125</AltitudeMeters>
            <DistanceMeters>154188.32547838</DistanceMeters>
          </Trackpoint>
          <Trackpoint>
            <Time>2021-07-28T12:43:29.000Z</Time>
            <Position>
              <LatitudeDegrees>41.70086924917995929718017578125</LatitudeDegrees>
              <LongitudeDegrees>-2.79945650137960910797119140625</LongitudeDegrees>
            </Position>
            <AltitudeMeters>1114.4000244140625</AltitudeMeters>
            <DistanceMeters>154214.17641273</DistanceMeters>
          </Trackpoint>
          <Trackpoint>
            <Time>2021-07-28T12:43:35.000Z</Time>
            <Position>
              <LatitudeDegrees>41.7007013596594333648681640625</LatitudeDegrees>
              <LongitudeDegrees>-2.79986210167407989501953125</LongitudeDegrees>
            </Position>
            <AltitudeMeters>1115.4000244140625</AltitudeMeters>
            <DistanceMeters>154252.71557429</DistanceMeters>
          </Trackpoint>
          <Trackpoint>
            <Time>2021-07-28T12:43:45.000Z</Time>
            <Position>
              <LatitudeDegrees>41.700417213141918182373046875</LatitudeDegrees>
              <LongitudeDegrees>-2.80055117793381214141845703125</LongitudeDegrees>
            </Position>
            <AltitudeMeters>1115.4000244140625</AltitudeMeters>
            <DistanceMeters>154318.13192581</DistanceMeters>
          </Trackpoint>
          <Trackpoint>
            <Time>2021-07-28T12:43:51.000Z</Time>
            <Position>
              <LatitudeDegrees>41.70025988481938838958740234375</LatitudeDegrees>
              <LongitudeDegrees>-2.8009267710149288177490234375</LongitudeDegrees>
            </Position>
            <AltitudeMeters>1116.5999755859375</AltitudeMeters>
            <DistanceMeters>154353.92080821</DistanceMeters>
          </Trackpoint>
          <Trackpoint>
            <Time>2021-07-28T12:44:03.000Z</Time>
            <Position>
              <LatitudeDegrees>41.699977330863475799560546875</LatitudeDegrees>
              <LongitudeDegrees>-2.801609896123409271240234375</LongitudeDegrees>
            </Position>
            <AltitudeMeters>1116.800048828125</AltitudeMeters>
            <DistanceMeters>154418.81897563</DistanceMeters>
          </Trackpoint>
          <Trackpoint>
            <Time>2021-07-28T12:44:06.000Z</Time>
            <Position>
              <LatitudeDegrees>41.69991253875195980072021484375</LatitudeDegrees>
              <LongitudeDegrees>-2.80176579952239990234375</LongitudeDegrees>
            </Position>
            <AltitudeMeters>1117.5999755859375</AltitudeMeters>
            <DistanceMeters>154433.64679749</DistanceMeters>
          </Trackpoint>
          <Trackpoint>
            <Time>2021-07-28T12:44:17.000Z</Time>
            <Position>
              <LatitudeDegrees>41.69964917935431003570556640625</LatitudeDegrees>
              <LongitudeDegrees>-2.80239720828831195831298828125</LongitudeDegrees>
            </Position>
            <AltitudeMeters>1116.4000244140625</AltitudeMeters>
            <DistanceMeters>154493.75087507</DistanceMeters>
          </Trackpoint>
          <Trackpoint>
            <Time>2021-07-28T12:44:28.000Z</Time>
            <Position>
              <LatitudeDegrees>41.699378527700901031494140625</LatitudeDegrees>
              <LongitudeDegrees>-2.803028784692287445068359375</LongitudeDegrees>
            </Position>
            <AltitudeMeters>1116</AltitudeMeters>
            <DistanceMeters>154554.26715175</DistanceMeters>
          </Trackpoint>
          <Trackpoint>
            <Time>2021-07-28T12:44:39.000Z</Time>
            <Position>
              <LatitudeDegrees>41.69907066039741039276123046875</LatitudeDegrees>
              <LongitudeDegrees>-2.803667150437831878662109375</LongitudeDegrees>
            </Position>
            <AltitudeMeters>1115.800048828125</AltitudeMeters>
            <DistanceMeters>154617.42189468</DistanceMeters>
          </Trackpoint>
          <Trackpoint>
            <Time>2021-07-28T12:44:47.000Z</Time>
            <Position>
              <LatitudeDegrees>41.698801182210445404052734375</LatitudeDegrees>
              <LongitudeDegrees>-2.80411566607654094696044921875</LongitudeDegrees>
            </Position>
            <AltitudeMeters>1115</AltitudeMeters>
            <DistanceMeters>154665.26442447</DistanceMeters>
          </Trackpoint>
          <Trackpoint>
            <Time>2021-07-28T12:44:50.000Z</Time>
            <Position>
              <LatitudeDegrees>41.6986950673162937164306640625</LatitudeDegrees>
              <LongitudeDegrees>-2.8042791970074176788330078125</LongitudeDegrees>
            </Position>
            <AltitudeMeters>1113.800048828125</AltitudeMeters>
            <DistanceMeters>154683.26966744</DistanceMeters>
          </Trackpoint>
          <Trackpoint>
            <Time>2021-07-28T12:44:53.000Z</Time>
            <Position>
              <LatitudeDegrees>41.69859725050628185272216796875</LatitudeDegrees>
              <LongitudeDegrees>-2.80444004572927951812744140625</LongitudeDegrees>
            </Position>
            <AltitudeMeters>1113</AltitudeMeters>
            <DistanceMeters>154700.50988107</DistanceMeters>
          </Trackpoint>
          <Trackpoint>
            <Time>2021-07-28T12:45:02.000Z</Time>
            <Position>
              <LatitudeDegrees>41.69862172566354274749755859375</LatitudeDegrees>
              <LongitudeDegrees>-2.8049455583095550537109375</LongitudeDegrees>
            </Position>
            <AltitudeMeters>1114</AltitudeMeters>
            <DistanceMeters>154742.60832431</DistanceMeters>
          </Trackpoint>
          <Trackpoint>
            <Time>2021-07-28T12:45:04.000Z</Time>
            <Position>
              <LatitudeDegrees>41.6986950673162937164306640625</LatitudeDegrees>
              <LongitudeDegrees>-2.80506902374327182769775390625</LongitudeDegrees>
            </Position>
            <AltitudeMeters>1112.800048828125</AltitudeMeters>
            <DistanceMeters>154755.71960058</DistanceMeters>
          </Trackpoint>
          <Trackpoint>
            <Time>2021-07-28T12:45:08.000Z</Time>
            <Position>
              <LatitudeDegrees>41.69885943643748760223388671875</LatitudeDegrees>
              <LongitudeDegrees>-2.8053393401205539703369140625</LongitudeDegrees>
            </Position>
            <AltitudeMeters>1111.5999755859375</AltitudeMeters>
            <DistanceMeters>154784.69106249</DistanceMeters>
          </Trackpoint>
          <Trackpoint>
            <Time>2021-07-28T12:45:11.000Z</Time>
            <Position>
              <LatitudeDegrees>41.69899941422045230865478515625</LatitudeDegrees>
              <LongitudeDegrees>-2.805570177733898162841796875</LongitudeDegrees>
            </Position>
            <AltitudeMeters>1110.4000244140625</AltitudeMeters>
            <DistanceMeters>154809.40422073</DistanceMeters>
          </Trackpoint>
          <Trackpoint>
            <Time>2021-07-28T12:45:14.000Z</Time>
            <Position>
              <LatitudeDegrees>41.69917275197803974151611328125</LatitudeDegrees>
              <LongitudeDegrees>-2.8058087266981601715087890625</LongitudeDegrees>
            </Position>
            <AltitudeMeters>1108.800048828125</AltitudeMeters>
            <DistanceMeters>154837.06662623</DistanceMeters>
          </Trackpoint>
          <Trackpoint>
            <Time>2021-07-28T12:45:16.000Z</Time>
            <Position>
              <LatitudeDegrees>41.69931474141776561737060546875</LatitudeDegrees>
              <LongitudeDegrees>-2.8059599362313747406005859375</LongitudeDegrees>
            </Position>
            <AltitudeMeters>1106.5999755859375</AltitudeMeters>
            <DistanceMeters>154857.25728746</DistanceMeters>
          </Trackpoint>
          <Trackpoint>
            <Time>2021-07-28T12:45:17.000Z</Time>
            <Position>
              <LatitudeDegrees>41.69939093291759490966796875</LatitudeDegrees>
              <LongitudeDegrees>-2.8060373850166797637939453125</LongitudeDegrees>
            </Position>
            <AltitudeMeters>1105.800048828125</AltitudeMeters>
            <DistanceMeters>154867.90367274</DistanceMeters>
          </Trackpoint>
          <Trackpoint>
            <Time>2021-07-28T12:45:18.000Z</Time>
            <Position>
              <LatitudeDegrees>41.6994707286357879638671875</LatitudeDegrees>
              <LongitudeDegrees>-2.80611567199230194091796875</LongitudeDegrees>
            </Position>
            <AltitudeMeters>1105</AltitudeMeters>
            <DistanceMeters>154878.91283647</DistanceMeters>
          </Trackpoint>
          <Trackpoint>
            <Time>2021-07-28T12:45:20.000Z</Time>
            <Position>
              <LatitudeDegrees>41.6996388696134090423583984375</LatitudeDegrees>
              <LongitudeDegrees>-2.8062761016190052032470703125</LongitudeDegrees>
            </Position>
            <AltitudeMeters>1103.199951171875</AltitudeMeters>
            <DistanceMeters>154901.89044534</DistanceMeters>
          </Trackpoint>
          <Trackpoint>
            <Time>2021-07-28T12:45:22.000Z</Time>
            <Position>
              <LatitudeDegrees>41.69981631450355052947998046875</LatitudeDegrees>
              <LongitudeDegrees>-2.80644181184470653533935546875</LongitudeDegrees>
            </Position>
            <AltitudeMeters>1101.800048828125</AltitudeMeters>
            <DistanceMeters>154925.96748456</DistanceMeters>
          </Trackpoint>
          <Trackpoint>
            <Time>2021-07-28T12:45:24.000Z</Time>
            <Position>
              <LatitudeDegrees>41.69999719597399234771728515625</LatitudeDegrees>
              <LongitudeDegrees>-2.80661950819194316864013671875</LongitudeDegrees>
            </Position>
            <AltitudeMeters>1100.199951171875</AltitudeMeters>
            <DistanceMeters>154950.93510954</DistanceMeters>
          </Trackpoint>
          <Trackpoint>
            <Time>2021-07-28T12:45:26.000Z</Time>
            <Position>
              <LatitudeDegrees>41.7001833580434322357177734375</LatitudeDegrees>
              <LongitudeDegrees>-2.80681028030812740325927734375</LongitudeDegrees>
            </Position>
            <AltitudeMeters>1098.4000244140625</AltitudeMeters>
            <DistanceMeters>154977.02439934</DistanceMeters>
          </Trackpoint>
          <Trackpoint>
            <Time>2021-07-28T12:45:27.000Z</Time>
            <Position>
              <LatitudeDegrees>41.70028033666312694549560546875</LatitudeDegrees>
              <LongitudeDegrees>-2.80690499581396579742431640625</LongitudeDegrees>
            </Position>
            <AltitudeMeters>1097</AltitudeMeters>
            <DistanceMeters>154990.38334394</DistanceMeters>
          </Trackpoint>
          <Trackpoint>
            <Time>2021-07-28T12:45:28.000Z</Time>
            <Position>
              <LatitudeDegrees>41.7003773152828216552734375</LatitudeDegrees>
              <LongitudeDegrees>-2.80700348317623138427734375</LongitudeDegrees>
            </Position>
            <AltitudeMeters>1095.5999755859375</AltitudeMeters>
            <DistanceMeters>155003.92923458</DistanceMeters>
          </Trackpoint>
          <Trackpoint>
            <Time>2021-07-28T12:45:29.000Z</Time>
            <Position>
              <LatitudeDegrees>41.70046918094158172607421875</LatitudeDegrees>
              <LongitudeDegrees>-2.807112447917461395263671875</LongitudeDegrees>
            </Position>
            <AltitudeMeters>1094</AltitudeMeters>
            <DistanceMeters>155017.58665963</DistanceMeters>
          </Trackpoint>
          <Trackpoint>
            <Time>2021-07-28T12:45:30.000Z</Time>
            <Position>
              <LatitudeDegrees>41.70055174268782138824462890625</LatitudeDegrees>
              <LongitudeDegrees>-2.80723641626536846160888671875</LongitudeDegrees>
            </Position>
            <AltitudeMeters>1092.800048828125</AltitudeMeters>
            <DistanceMeters>155031.39172259</DistanceMeters>
          </Trackpoint>
          <Trackpoint>
            <Time>2021-07-28T12:45:31.000Z</Time>
            <Position>
              <LatitudeDegrees>41.70062349177896976470947265625</LatitudeDegrees>
              <LongitudeDegrees>-2.8073734603822231292724609375</LongitudeDegrees>
            </Position>
            <AltitudeMeters>1091</AltitudeMeters>
            <DistanceMeters>155045.30104996</DistanceMeters>
          </Trackpoint>
          <Trackpoint>
            <Time>2021-07-28T12:45:32.000Z</Time>
            <Position>
              <LatitudeDegrees>41.7006835900247097015380859375</LatitudeDegrees>
              <LongitudeDegrees>-2.807521484792232513427734375</LongitudeDegrees>
            </Position>
            <AltitudeMeters>1089.800048828125</AltitudeMeters>
            <DistanceMeters>155059.30322907</DistanceMeters>
          </Trackpoint>
          <Trackpoint>
            <Time>2021-07-28T12:45:34.000Z</Time>
            <Position>
              <LatitudeDegrees>41.7007560096681118011474609375</LatitudeDegrees>
              <LongitudeDegrees>-2.807846702635288238525390625</LongitudeDegrees>
            </Position>
            <AltitudeMeters>1088</AltitudeMeters>
            <DistanceMeters>155087.50551857</DistanceMeters>
          </Trackpoint>
          <Trackpoint>
            <Time>2021-07-28T12:45:36.000Z</Time>
            <Position>
              <LatitudeDegrees>41.70076631940901279449462890625</LatitudeDegrees>
              <LongitudeDegrees>-2.80819413252174854278564453125</LongitudeDegrees>
            </Position>
            <AltitudeMeters>1086.4000244140625</AltitudeMeters>
            <DistanceMeters>155116.40020334</DistanceMeters>
          </Trackpoint>
          <Trackpoint>
            <Time>2021-07-28T12:45:38.000Z</Time>
            <Position>
              <LatitudeDegrees>41.70072776265442371368408203125</LatitudeDegrees>
              <LongitudeDegrees>-2.80854650773108005523681640625</LongitudeDegrees>
            </Position>
            <AltitudeMeters>1084.4000244140625</AltitudeMeters>
            <DistanceMeters>155145.99580022</DistanceMeters>
          </Trackpoint>
          <Trackpoint>
            <Time>2021-07-28T12:45:39.000Z</Time>
            <Position>
              <LatitudeDegrees>41.70070789754390716552734375</LatitudeDegrees>
              <LongitudeDegrees>-2.80871783383190631866455078125</LongitudeDegrees>
            </Position>
            <AltitudeMeters>1082.199951171875</AltitudeMeters>
            <DistanceMeters>155160.40418172</DistanceMeters>
          </Trackpoint>
          <Trackpoint>
            <Time>2021-07-28T12:45:40.000Z</Time>
            <Position>
              <LatitudeDegrees>41.7006919719278812408447265625</LatitudeDegrees>
              <LongitudeDegrees>-2.808878012001514434814453125</LongitudeDegrees>
            </Position>
            <AltitudeMeters>1080.4000244140625</AltitudeMeters>
            <DistanceMeters>155173.83290566</DistanceMeters>
          </Trackpoint>
          <Trackpoint>
            <Time>2021-07-28T12:45:41.000Z</Time>
            <Position>
              <LatitudeDegrees>41.70066959224641323089599609375</LatitudeDegrees>
              <LongitudeDegrees>-2.80902544967830181121826171875</LongitudeDegrees>
            </Position>
            <AltitudeMeters>1079.199951171875</AltitudeMeters>
            <DistanceMeters>155186.33533035</DistanceMeters>
          </Trackpoint>
          <Trackpoint>
            <Time>2021-07-28T12:45:43.000Z</Time>
            <Position>
              <LatitudeDegrees>41.70058409683406352996826171875</LatitudeDegrees>
              <LongitudeDegrees>-2.80928612686693668365478515625</LongitudeDegrees>
            </Position>
            <AltitudeMeters>1077.5999755859375</AltitudeMeters>
            <DistanceMeters>155209.9958373</DistanceMeters>
          </Trackpoint>
          <Trackpoint>
            <Time>2021-07-28T12:45:48.000Z</Time>
            <Position>
              <LatitudeDegrees>41.70018528588116168975830078125</LatitudeDegrees>
              <LongitudeDegrees>-2.80967705883085727691650390625</LongitudeDegrees>
            </Position>
            <AltitudeMeters>1078.5999755859375</AltitudeMeters>
            <DistanceMeters>155265.0026811</DistanceMeters>
          </Trackpoint>
          <Trackpoint>
            <Time>2021-07-28T12:45:53.000Z</Time>
            <Position>
              <LatitudeDegrees>41.7000807635486125946044921875</LatitudeDegrees>
              <LongitudeDegrees>-2.8102186135947704315185546875</LongitudeDegrees>
            </Position>
            <AltitudeMeters>1077</AltitudeMeters>
            <DistanceMeters>155311.48628812</DistanceMeters>
          </Trackpoint>
          <Trackpoint>
            <Time>2021-07-28T12:45:54.000Z</Time>
            <Position>
              <LatitudeDegrees>41.7001052387058734893798828125</LatitudeDegrees>
              <LongitudeDegrees>-2.8103426657617092132568359375</LongitudeDegrees>
            </Position>
            <AltitudeMeters>1076.199951171875</AltitudeMeters>
            <DistanceMeters>155322.14877669</DistanceMeters>
          </Trackpoint>
          <Trackpoint>
            <Time>2021-07-28T12:45:55.000Z</Time>
            <Position>
              <LatitudeDegrees>41.70013214461505413055419921875</LatitudeDegrees>
              <LongitudeDegrees>-2.81046780757606029510498046875</LongitudeDegrees>
            </Position>
            <AltitudeMeters>1074.800048828125</AltitudeMeters>
            <DistanceMeters>155332.97098032</DistanceMeters>
          </Trackpoint>
          <Trackpoint>
            <Time>2021-07-28T12:45:56.000Z</Time>
            <Position>
              <LatitudeDegrees>41.70015946961939334869384765625</LatitudeDegrees>
              <LongitudeDegrees>-2.81059470959007740020751953125</LongitudeDegrees>
            </Position>
            <AltitudeMeters>1073.800048828125</AltitudeMeters>
            <DistanceMeters>155343.94646299</DistanceMeters>
          </Trackpoint>
          <Trackpoint>
            <Time>2021-07-28T12:45:58.000Z</Time>
            <Position>
              <LatitudeDegrees>41.7002101801335811614990234375</LatitudeDegrees>
              <LongitudeDegrees>-2.810858823359012603759765625</LongitudeDegrees>
            </Position>
            <AltitudeMeters>1072.5999755859375</AltitudeMeters>
            <DistanceMeters>155366.60908922</DistanceMeters>
          </Trackpoint>
          <Trackpoint>
            <Time>2021-07-28T12:46:00.000Z</Time>
            <Position>
              <LatitudeDegrees>41.70028083957731723785400390625</LatitudeDegrees>
              <LongitudeDegrees>-2.81112276948988437652587890625</LongitudeDegrees>
            </Position>
            <AltitudeMeters>1070.800048828125</AltitudeMeters>
            <DistanceMeters>155389.91079445</DistanceMeters>
          </Trackpoint>
          <Trackpoint>
            <Time>2021-07-28T12:46:03.000Z</Time>
            <Position>
              <LatitudeDegrees>41.70049893669784069061279296875</LatitudeDegrees>
              <LongitudeDegrees>-2.81143457628786563873291015625</LongitudeDegrees>
            </Position>
            <AltitudeMeters>1069.5999755859375</AltitudeMeters>
            <DistanceMeters>155425.41659513</DistanceMeters>
          </Trackpoint>
          <Trackpoint>
            <Time>2021-07-28T12:46:04.000Z</Time>
            <Position>
              <LatitudeDegrees>41.70057554729282855987548828125</LatitudeDegrees>
              <LongitudeDegrees>-2.8115372546017169952392578125</LongitudeDegrees>
            </Position>
            <AltitudeMeters>1069.199951171875</AltitudeMeters>
            <DistanceMeters>155437.47937474</DistanceMeters>
          </Trackpoint>
          <Trackpoint>
            <Time>2021-07-28T12:46:05.000Z</Time>
            <Position>
              <LatitudeDegrees>41.70064293779432773590087890625</LatitudeDegrees>
              <LongitudeDegrees>-2.811652757227420806884765625</LongitudeDegrees>
            </Position>
            <AltitudeMeters>1068</AltitudeMeters>
            <DistanceMeters>155449.6609693</DistanceMeters>
          </Trackpoint>
          <Trackpoint>
            <Time>2021-07-28T12:46:06.000Z</Time>
            <Position>
              <LatitudeDegrees>41.700703538954257965087890625</LatitudeDegrees>
              <LongitudeDegrees>-2.81177672557532787322998046875</LongitudeDegrees>
            </Position>
            <AltitudeMeters>1066.800048828125</AltitudeMeters>
            <DistanceMeters>155461.9745396</DistanceMeters>
          </Trackpoint>
          <Trackpoint>
            <Time>2021-07-28T12:46:08.000Z</Time>
            <Position>
              <LatitudeDegrees>41.70080889947712421417236328125</LatitudeDegrees>
              <LongitudeDegrees>-2.81204209662973880767822265625</LongitudeDegrees>
            </Position>
            <AltitudeMeters>1065.5999755859375</AltitudeMeters>
            <DistanceMeters>155486.95120474</DistanceMeters>
          </Trackpoint>
          <Trackpoint>
            <Time>2021-07-28T12:46:12.000Z</Time>
            <Position>
              <LatitudeDegrees>41.7009300179779529571533203125</LatitudeDegrees>
              <LongitudeDegrees>-2.81264014542102813720703125</LongitudeDegrees>
            </Position>
            <AltitudeMeters>1063.5999755859375</AltitudeMeters>
            <DistanceMeters>155538.44568937</DistanceMeters>
          </Trackpoint>
          <Trackpoint>
            <Time>2021-07-28T12:46:13.000Z</Time>
            <Position>
              <LatitudeDegrees>41.7009310238063335418701171875</LatitudeDegrees>
              <LongitudeDegrees>-2.81279998831450939178466796875</LongitudeDegrees>
            </Position>
            <AltitudeMeters>1062</AltitudeMeters>
            <DistanceMeters>155551.72905091</DistanceMeters>
          </Trackpoint>
          <Trackpoint>
            <Time>2021-07-28T12:46:14.000Z</Time>
            <Position>
              <LatitudeDegrees>41.7009216360747814178466796875</LatitudeDegrees>
              <LongitudeDegrees>-2.812961675226688385009765625</LongitudeDegrees>
            </Position>
            <AltitudeMeters>1060.800048828125</AltitudeMeters>
            <DistanceMeters>155565.20576889</DistanceMeters>
          </Trackpoint>
          <Trackpoint>
            <Time>2021-07-28T12:46:16.000Z</Time>
            <Position>
              <LatitudeDegrees>41.70087930746376514434814453125</LatitudeDegrees>
              <LongitudeDegrees>-2.81328697688877582550048828125</LongitudeDegrees>
            </Position>
            <AltitudeMeters>1059</AltitudeMeters>
            <DistanceMeters>155592.646121</DistanceMeters>
          </Trackpoint>
          <Trackpoint>
            <Time>2021-07-28T12:46:17.000Z</Time>
            <Position>
              <LatitudeDegrees>41.70084066689014434814453125</LatitudeDegrees>
              <LongitudeDegrees>-2.81344573013484477996826171875</LongitudeDegrees>
            </Position>
            <AltitudeMeters>1057.5999755859375</AltitudeMeters>
            <DistanceMeters>155606.52197377</DistanceMeters>
          </Trackpoint>
          <Trackpoint>
            <Time>2021-07-28T12:46:18.000Z</Time>
            <Position>
              <LatitudeDegrees>41.70079180039465427398681640625</LatitudeDegrees>
              <LongitudeDegrees>-2.8136005438864231109619140625</LongitudeDegrees>
            </Position>
            <AltitudeMeters>1056</AltitudeMeters>
            <DistanceMeters>155620.48993109</DistanceMeters>
          </Trackpoint>
          <Trackpoint>
            <Time>2021-07-28T12:46:19.000Z</Time>
            <Position>
              <LatitudeDegrees>41.700738407671451568603515625</LatitudeDegrees>
              <LongitudeDegrees>-2.81375200487673282623291015625</LongitudeDegrees>
            </Position>
            <AltitudeMeters>1054.5999755859375</AltitudeMeters>
            <DistanceMeters>155634.4089932</DistanceMeters>
          </Trackpoint>
          <Trackpoint>
            <Time>2021-07-28T12:46:21.000Z</Time>
            <Position>
              <LatitudeDegrees>41.7006286047399044036865234375</LatitudeDegrees>
              <LongitudeDegrees>-2.81405408866703510284423828125</LongitudeDegrees>
            </Position>
            <AltitudeMeters>1053</AltitudeMeters>
            <DistanceMeters>155662.32938788</DistanceMeters>
          </Trackpoint>
          <Trackpoint>
            <Time>2021-07-28T12:46:22.000Z</Time>
            <Position>
              <LatitudeDegrees>41.7005731165409088134765625</LatitudeDegrees>
              <LongitudeDegrees>-2.8142057172954082489013671875</LongitudeDegrees>
            </Position>
            <AltitudeMeters>1052</AltitudeMeters>
            <DistanceMeters>155676.36216655</DistanceMeters>
          </Trackpoint>
          <Trackpoint>
            <Time>2021-07-28T12:46:24.000Z</Time>
            <Position>
              <LatitudeDegrees>41.70046524144709110260009765625</LatitudeDegrees>
              <LongitudeDegrees>-2.81450939364731311798095703125</LongitudeDegrees>
            </Position>
            <AltitudeMeters>1050.199951171875</AltitudeMeters>
            <DistanceMeters>155704.30890771</DistanceMeters>
          </Trackpoint>
          <Trackpoint>
            <Time>2021-07-28T12:46:25.000Z</Time>
            <Position>
              <LatitudeDegrees>41.7004103399813175201416015625</LatitudeDegrees>
              <LongitudeDegrees>-2.8146590106189250946044921875</LongitudeDegrees>
            </Position>
            <AltitudeMeters>1049</AltitudeMeters>
            <DistanceMeters>155718.16326821</DistanceMeters>
          </Trackpoint>
          <Trackpoint>
            <Time>2021-07-28T12:46:26.000Z</Time>
            <Position>
              <LatitudeDegrees>41.7003486491739749908447265625</LatitudeDegrees>
              <LongitudeDegrees>-2.814800329506397247314453125</LongitudeDegrees>
            </Position>
            <AltitudeMeters>1048</AltitudeMeters>
            <DistanceMeters>155731.7670319</DistanceMeters>
          </Trackpoint>
          <Trackpoint>
            <Time>2021-07-28T12:46:27.000Z</Time>
            <Position>
              <LatitudeDegrees>41.70027648098766803741455078125</LatitudeDegrees>
              <LongitudeDegrees>-2.8149282373487949371337890625</LongitudeDegrees>
            </Position>
            <AltitudeMeters>1047.199951171875</AltitudeMeters>
            <DistanceMeters>155745.09044148</DistanceMeters>
          </Trackpoint>
          <Trackpoint>
            <Time>2021-07-28T12:46:29.000Z</Time>
            <Position>
              <LatitudeDegrees>41.70010264031589031219482421875</LatitudeDegrees>
              <LongitudeDegrees>-2.81514130532741546630859375</LongitudeDegrees>
            </Position>
            <AltitudeMeters>1045.800048828125</AltitudeMeters>
            <DistanceMeters>155771.31815894</DistanceMeters>
          </Trackpoint>
          <Trackpoint>
            <Time>2021-07-28T12:46:32.000Z</Time>
            <Position>
              <LatitudeDegrees>41.69982218183577060699462890625</LatitudeDegrees>
              <LongitudeDegrees>-2.815337441861629486083984375</LongitudeDegrees>
            </Position>
            <AltitudeMeters>1044.5999755859375</AltitudeMeters>
            <DistanceMeters>155806.53296177</DistanceMeters>
          </Trackpoint>
          <Trackpoint>
            <Time>2021-07-28T12:46:34.000Z</Time>
            <Position>
              <LatitudeDegrees>41.69964037835597991943359375</LatitudeDegrees>
              <LongitudeDegrees>-2.8153845481574535369873046875</LongitudeDegrees>
            </Position>
            <AltitudeMeters>1044.5999755859375</AltitudeMeters>
            <DistanceMeters>155827.14346531</DistanceMeters>
          </Trackpoint>
          <Trackpoint>
            <Time>2021-07-28T12:46:35.000Z</Time>
            <Position>
              <LatitudeDegrees>41.6995617561042308807373046875</LatitudeDegrees>
              <LongitudeDegrees>-2.8154120407998561859130859375</LongitudeDegrees>
            </Position>
            <AltitudeMeters>1045.199951171875</AltitudeMeters>
            <DistanceMeters>155836.18799197</DistanceMeters>
          </Trackpoint>
          <Trackpoint>
            <Time>2021-07-28T12:46:36.000Z</Time>
            <Position>
              <LatitudeDegrees>41.69949713163077831268310546875</LatitudeDegrees>
              <LongitudeDegrees>-2.81546426005661487579345703125</LongitudeDegrees>
            </Position>
            <AltitudeMeters>1046</AltitudeMeters>
            <DistanceMeters>155844.58912745</DistanceMeters>
          </Trackpoint>
          <Trackpoint>
            <Time>2021-07-28T12:46:39.000Z</Time>
            <Position>
              <LatitudeDegrees>41.699465699493885040283203125</LatitudeDegrees>
              <LongitudeDegrees>-2.8157261945307254791259765625</LongitudeDegrees>
            </Position>
            <AltitudeMeters>1047.199951171875</AltitudeMeters>
            <DistanceMeters>155866.63614437</DistanceMeters>
          </Trackpoint>
          <Trackpoint>
            <Time>2021-07-28T12:46:44.000Z</Time>
            <Position>
              <LatitudeDegrees>41.69965521432459354400634765625</LatitudeDegrees>
              <LongitudeDegrees>-2.8160343132913112640380859375</LongitudeDegrees>
            </Position>
            <AltitudeMeters>1048.5999755859375</AltitudeMeters>
            <DistanceMeters>155899.81108501</DistanceMeters>
          </Trackpoint>
          <Trackpoint>
            <Time>2021-07-28T12:46:45.000Z</Time>
            <Position>
              <LatitudeDegrees>41.6996975429356098175048828125</LatitudeDegrees>
              <LongitudeDegrees>-2.8160621412098407745361328125</LongitudeDegrees>
            </Position>
            <AltitudeMeters>1049.199951171875</AltitudeMeters>
            <DistanceMeters>155905.05910685</DistanceMeters>
          </Trackpoint>
          <Trackpoint>
            <Time>2021-07-28T12:46:46.000Z</Time>
            <Position>
              <LatitudeDegrees>41.699733920395374298095703125</LatitudeDegrees>
              <LongitudeDegrees>-2.81608619727194309234619140625</LongitudeDegrees>
            </Position>
            <AltitudeMeters>1049.800048828125</AltitudeMeters>
            <DistanceMeters>155909.57462593</DistanceMeters>
          </Trackpoint>
          <Trackpoint>
            <Time>2021-07-28T12:46:48.000Z</Time>
            <Position>
              <LatitudeDegrees>41.699792928993701934814453125</LatitudeDegrees>
              <LongitudeDegrees>-2.81612609513103961944580078125</LongitudeDegrees>
            </Position>
            <AltitudeMeters>1051.199951171875</AltitudeMeters>
            <DistanceMeters>155916.93168229</DistanceMeters>
          </Trackpoint>
          <Trackpoint>
            <Time>2021-07-28T12:46:52.000Z</Time>
            <Position>
              <LatitudeDegrees>41.69989191927015781402587890625</LatitudeDegrees>
              <LongitudeDegrees>-2.8161895461380481719970703125</LongitudeDegrees>
            </Position>
            <AltitudeMeters>1052.4000244140625</AltitudeMeters>
            <DistanceMeters>155929.14585</DistanceMeters>
          </Trackpoint>
          <Trackpoint>
            <Time>2021-07-28T12:46:56.000Z</Time>
            <Position>
              <LatitudeDegrees>41.699980683624744415283203125</LatitudeDegrees>
              <LongitudeDegrees>-2.81624771654605865478515625</LongitudeDegrees>
            </Position>
            <AltitudeMeters>1053.4000244140625</AltitudeMeters>
            <DistanceMeters>155940.14434554</DistanceMeters>
          </Trackpoint>
          <Trackpoint>
            <Time>2021-07-28T12:47:02.000Z</Time>
            <Position>
              <LatitudeDegrees>41.7000891454517841339111328125</LatitudeDegrees>
              <LongitudeDegrees>-2.81635961495339870452880859375</LongitudeDegrees>
            </Position>
            <AltitudeMeters>1054.5999755859375</AltitudeMeters>
            <DistanceMeters>155955.38302809</DistanceMeters>
          </Trackpoint>
          <Trackpoint>
            <Time>2021-07-28T12:47:10.000Z</Time>
            <Position>
              <LatitudeDegrees>41.70023540966212749481201171875</LatitudeDegrees>
              <LongitudeDegrees>-2.81649741344153881072998046875</LongitudeDegrees>
            </Position>
            <AltitudeMeters>1055.800048828125</AltitudeMeters>
            <DistanceMeters>155975.28653164</DistanceMeters>
          </Trackpoint>
          <Trackpoint>
            <Time>2021-07-28T12:47:16.000Z</Time>
            <Position>
              <LatitudeDegrees>41.70034110546112060546875</LatitudeDegrees>
              <LongitudeDegrees>-2.81658877618610858917236328125</LongitudeDegrees>
            </Position>
            <AltitudeMeters>1056.800048828125</AltitudeMeters>
            <DistanceMeters>155989.28774335</DistanceMeters>
          </Trackpoint>
          <Trackpoint>
            <Time>2021-07-28T12:47:31.000Z</Time>
            <Position>
              <LatitudeDegrees>41.7004899680614471435546875</LatitudeDegrees>
              <LongitudeDegrees>-2.81687744893133640289306640625</LongitudeDegrees>
            </Position>
            <AltitudeMeters>1058</AltitudeMeters>
            <DistanceMeters>156018.44252162</DistanceMeters>
          </Trackpoint>
          <Trackpoint>
            <Time>2021-07-28T12:47:32.000Z</Time>
            <Position>
              <LatitudeDegrees>41.700479574501514434814453125</LatitudeDegrees>
              <LongitudeDegrees>-2.81689438037574291229248046875</LongitudeDegrees>
            </Position>
            <AltitudeMeters>1058</AltitudeMeters>
            <DistanceMeters>156020.26545007</DistanceMeters>
          </Trackpoint>
          <Trackpoint>
            <Time>2021-07-28T12:47:37.000Z</Time>
            <Position>
              <LatitudeDegrees>41.700405143201351165771484375</LatitudeDegrees>
              <LongitudeDegrees>-2.81689538620412349700927734375</LongitudeDegrees>
            </Position>
            <AltitudeMeters>1058.5999755859375</AltitudeMeters>
            <DistanceMeters>156028.54968696</DistanceMeters>
          </Trackpoint>
          <Trackpoint>
            <Time>2021-07-28T12:47:40.000Z</Time>
            <Position>
              <LatitudeDegrees>41.70035979710519313812255859375</LatitudeDegrees>
              <LongitudeDegrees>-2.816865630447864532470703125</LongitudeDegrees>
            </Position>
            <AltitudeMeters>1059.199951171875</AltitudeMeters>
            <DistanceMeters>156034.16913332</DistanceMeters>
          </Trackpoint>
          <Trackpoint>
            <Time>2021-07-28T12:47:46.000Z</Time>
            <Position>
              <LatitudeDegrees>41.70027044601738452911376953125</LatitudeDegrees>
              <LongitudeDegrees>-2.816799581050872802734375</LongitudeDegrees>
            </Position>
            <AltitudeMeters>1060.4000244140625</AltitudeMeters>
            <DistanceMeters>156045.52790668</DistanceMeters>
          </Trackpoint>
          <Trackpoint>
            <Time>2021-07-28T12:47:52.000Z</Time>
            <Position>
              <LatitudeDegrees>41.70017941854894161224365234375</LatitudeDegrees>
              <LongitudeDegrees>-2.8167471103370189666748046875</LongitudeDegrees>
            </Position>
            <AltitudeMeters>1061.4000244140625</AltitudeMeters>
            <DistanceMeters>156056.55837584</DistanceMeters>
          </Trackpoint>
          <Trackpoint>
            <Time>2021-07-28T12:48:02.000Z</Time>
            <Position>
              <LatitudeDegrees>41.7000351659953594207763671875</LatitudeDegrees>
              <LongitudeDegrees>-2.816660441458225250244140625</LongitudeDegrees>
            </Position>
            <AltitudeMeters>1062.5999755859375</AltitudeMeters>
            <DistanceMeters>156074.15551713</DistanceMeters>
          </Trackpoint>
          <Trackpoint>
            <Time>2021-07-28T12:48:19.000Z</Time>
            <Position>
              <LatitudeDegrees>41.69984422624111175537109375</LatitudeDegrees>
              <LongitudeDegrees>-2.81653043814003467559814453125</LongitudeDegrees>
            </Position>
            <AltitudeMeters>1063.5999755859375</AltitudeMeters>
            <DistanceMeters>156097.99586195</DistanceMeters>
          </Trackpoint>
          <Trackpoint>
            <Time>2021-07-28T12:48:28.000Z</Time>
            <Position>
              <LatitudeDegrees>41.6997523605823516845703125</LatitudeDegrees>
              <LongitudeDegrees>-2.81646405346691608428955078125</LongitudeDegrees>
            </Position>
            <AltitudeMeters>1064.5999755859375</AltitudeMeters>
            <DistanceMeters>156109.61401941</DistanceMeters>
          </Trackpoint>
          <Trackpoint>
            <Time>2021-07-28T12:48:33.000Z</Time>
            <Position>
              <LatitudeDegrees>41.69969477690756320953369140625</LatitudeDegrees>
              <LongitudeDegrees>-2.81644963659346103668212890625</LongitudeDegrees>
            </Position>
            <AltitudeMeters>1065.5999755859375</AltitudeMeters>
            <DistanceMeters>156116.13495723</DistanceMeters>
          </Trackpoint>
          <Trackpoint>
            <Time>2021-07-28T12:48:39.000Z</Time>
            <Position>
              <LatitudeDegrees>41.69962503947317600250244140625</LatitudeDegrees>
              <LongitudeDegrees>-2.81647494994103908538818359375</LongitudeDegrees>
            </Position>
            <AltitudeMeters>1066.800048828125</AltitudeMeters>
            <DistanceMeters>156124.17693506</DistanceMeters>
          </Trackpoint>
          <Trackpoint>
            <Time>2021-07-28T12:48:46.000Z</Time>
            <Position>
              <LatitudeDegrees>41.69955362565815448760986328125</LatitudeDegrees>
              <LongitudeDegrees>-2.81653010286390781402587890625</LongitudeDegrees>
            </Position>
            <AltitudeMeters>1068</AltitudeMeters>
            <DistanceMeters>156133.35181231</DistanceMeters>
          </Trackpoint>
          <Trackpoint>
            <Time>2021-07-28T12:48:54.000Z</Time>
            <Position>
              <LatitudeDegrees>41.69948271475732326507568359375</LatitudeDegrees>
              <LongitudeDegrees>-2.81659531407058238983154296875</LongitudeDegrees>
            </Position>
            <AltitudeMeters>1069</AltitudeMeters>
            <DistanceMeters>156142.92548851</DistanceMeters>
          </Trackpoint>
          <Trackpoint>
            <Time>2021-07-28T12:49:04.000Z</Time>
            <Position>
              <LatitudeDegrees>41.69939629733562469482421875</LatitudeDegrees>
              <LongitudeDegrees>-2.81666873954236507415771484375</LongitudeDegrees>
            </Position>
            <AltitudeMeters>1070.199951171875</AltitudeMeters>
            <DistanceMeters>156154.31601696</DistanceMeters>
          </Trackpoint>
          <Trackpoint>
            <Time>2021-07-28T12:49:13.000Z</Time>
            <Position>
              <LatitudeDegrees>41.6993270628154277801513671875</LatitudeDegrees>
              <LongitudeDegrees>-2.81675255857408046722412109375</LongitudeDegrees>
            </Position>
            <AltitudeMeters>1071.199951171875</AltitudeMeters>
            <DistanceMeters>156164.70352789</DistanceMeters>
          </Trackpoint>
          <Trackpoint>
            <Time>2021-07-28T12:49:21.000Z</Time>
            <Position>
              <LatitudeDegrees>41.69927987270057201385498046875</LatitudeDegrees>
              <LongitudeDegrees>-2.816850207746028900146484375</LongitudeDegrees>
            </Position>
            <AltitudeMeters>1072.199951171875</AltitudeMeters>
            <DistanceMeters>156174.3701318</DistanceMeters>
          </Trackpoint>
          <Trackpoint>
            <Time>2021-07-28T12:49:32.000Z</Time>
            <Position>
              <LatitudeDegrees>41.69920812360942363739013671875</LatitudeDegrees>
              <LongitudeDegrees>-2.8169524669647216796875</LongitudeDegrees>
            </Position>
            <AltitudeMeters>1073.199951171875</AltitudeMeters>
            <DistanceMeters>156186.03173337</DistanceMeters>
          </Trackpoint>
          <Trackpoint>
            <Time>2021-07-28T12:49:35.000Z</Time>
            <Position>
              <LatitudeDegrees>41.69919471256434917449951171875</LatitudeDegrees>
              <LongitudeDegrees>-2.8169724158942699432373046875</LongitudeDegrees>
            </Position>
            <AltitudeMeters>1073.5999755859375</AltitudeMeters>
            <DistanceMeters>156188.26233242</DistanceMeters>
          </Trackpoint>
          <Trackpoint>
            <Time>2021-07-28T12:49:51.000Z</Time>
            <Position>
              <LatitudeDegrees>41.69905825518071651458740234375</LatitudeDegrees>
              <LongitudeDegrees>-2.8170763514935970306396484375</LongitudeDegrees>
            </Position>
            <AltitudeMeters>1074.800048828125</AltitudeMeters>
            <DistanceMeters>156205.73484868</DistanceMeters>
          </Trackpoint>
          <Trackpoint>
            <Time>2021-07-28T12:49:55.000Z</Time>
            <Position>
              <LatitudeDegrees>41.6990169323980808258056640625</LatitudeDegrees>
              <LongitudeDegrees>-2.81712220050394535064697265625</LongitudeDegrees>
            </Position>
            <AltitudeMeters>1075.5999755859375</AltitudeMeters>
            <DistanceMeters>156211.70794101</DistanceMeters>
          </Trackpoint>
          <Trackpoint>
            <Time>2021-07-28T12:49:57.000Z</Time>
            <Position>
              <LatitudeDegrees>41.69900326989591121673583984375</LatitudeDegrees>
              <LongitudeDegrees>-2.81715204007923603057861328125</LongitudeDegrees>
            </Position>
            <AltitudeMeters>1075.800048828125</AltitudeMeters>
            <DistanceMeters>156214.61675205</DistanceMeters>
          </Trackpoint>
          <Trackpoint>
            <Time>2021-07-28T12:50:03.000Z</Time>
            <Position>
              <LatitudeDegrees>41.6989649645984172821044921875</LatitudeDegrees>
              <LongitudeDegrees>-2.8172372840344905853271484375</LongitudeDegrees>
            </Position>
            <AltitudeMeters>1076.800048828125</AltitudeMeters>
            <DistanceMeters>156222.88462231</DistanceMeters>
          </Trackpoint>
          <Trackpoint>
            <Time>2021-07-28T12:50:19.000Z</Time>
            <Position>
              <LatitudeDegrees>41.6988523118197917938232421875</LatitudeDegrees>
              <LongitudeDegrees>-2.81746317632496356964111328125</LongitudeDegrees>
            </Position>
            <AltitudeMeters>1077.800048828125</AltitudeMeters>
            <DistanceMeters>156245.45941786</DistanceMeters>
          </Trackpoint>
          <Trackpoint>
            <Time>2021-07-28T12:50:20.000Z</Time>
            <Position>
              <LatitudeDegrees>41.698854826390743255615234375</LatitudeDegrees>
              <LongitudeDegrees>-2.8174817003309726715087890625</LongitudeDegrees>
            </Position>
            <AltitudeMeters>1077.800048828125</AltitudeMeters>
            <DistanceMeters>156247.02663858</DistanceMeters>
          </Trackpoint>
          <Trackpoint>
            <Time>2021-07-28T12:50:27.000Z</Time>
            <Position>
              <LatitudeDegrees>41.69883747585117816925048828125</LatitudeDegrees>
              <LongitudeDegrees>-2.817603908479213714599609375</LongitudeDegrees>
            </Position>
            <AltitudeMeters>1077.800048828125</AltitudeMeters>
            <DistanceMeters>156257.36447949</DistanceMeters>
          </Trackpoint>
          <Trackpoint>
            <Time>2021-07-28T12:50:32.000Z</Time>
            <Position>
              <LatitudeDegrees>41.698839403688907623291015625</LatitudeDegrees>
              <LongitudeDegrees>-2.817693091928958892822265625</LongitudeDegrees>
            </Position>
            <AltitudeMeters>1078.5999755859375</AltitudeMeters>
            <DistanceMeters>156264.7789994</DistanceMeters>
          </Trackpoint>
          <Trackpoint>
            <Time>2021-07-28T12:50:36.000Z</Time>
            <Position>
              <LatitudeDegrees>41.698838733136653900146484375</LatitudeDegrees>
              <LongitudeDegrees>-2.81776576302945613861083984375</LongitudeDegrees>
            </Position>
            <AltitudeMeters>1078.800048828125</AltitudeMeters>
            <DistanceMeters>156270.81899185</DistanceMeters>
          </Trackpoint>
          <Trackpoint>
            <Time>2021-07-28T12:50:37.000Z</Time>
            <Position>
              <LatitudeDegrees>41.69883294962346553802490234375</LatitudeDegrees>
              <LongitudeDegrees>-2.81778185628354549407958984375</LongitudeDegrees>
            </Position>
            <AltitudeMeters>1078.800048828125</AltitudeMeters>
            <DistanceMeters>156272.30335658</DistanceMeters>
          </Trackpoint>
          <Trackpoint>
            <Time>2021-07-28T12:50:38.000Z</Time>
            <Position>
              <LatitudeDegrees>41.69883043505251407623291015625</LatitudeDegrees>
              <LongitudeDegrees>-2.81779778189957141876220703125</LongitudeDegrees>
            </Position>
            <AltitudeMeters>1078.800048828125</AltitudeMeters>
            <DistanceMeters>156273.65393995</DistanceMeters>
          </Trackpoint>
          <Trackpoint>
            <Time>2021-07-28T12:50:40.000Z</Time>
            <Position>
              <LatitudeDegrees>41.69882808811962604522705078125</LatitudeDegrees>
              <LongitudeDegrees>-2.81782695092260837554931640625</LongitudeDegrees>
            </Position>
            <AltitudeMeters>1079</AltitudeMeters>
            <DistanceMeters>156276.09151873</DistanceMeters>
          </Trackpoint>
          <Trackpoint>
            <Time>2021-07-28T12:51:03.000Z</Time>
            <Position>
              <LatitudeDegrees>41.69875214807689189910888671875</LatitudeDegrees>
              <LongitudeDegrees>-2.8182236663997173309326171875</LongitudeDegrees>
            </Position>
            <AltitudeMeters>1079.5999755859375</AltitudeMeters>
            <DistanceMeters>156310.12647438</DistanceMeters>
          </Trackpoint>
          <Trackpoint>
            <Time>2021-07-28T12:51:07.000Z</Time>
            <Position>
              <LatitudeDegrees>41.69874829240143299102783203125</LatitudeDegrees>
              <LongitudeDegrees>-2.81829885207116603851318359375</LongitudeDegrees>
            </Position>
            <AltitudeMeters>1079.800048828125</AltitudeMeters>
            <DistanceMeters>156316.38959278</DistanceMeters>
          </Trackpoint>
          <Trackpoint>
            <Time>2021-07-28T12:51:09.000Z</Time>
            <Position>
              <LatitudeDegrees>41.69874745421111583709716796875</LatitudeDegrees>
              <LongitudeDegrees>-2.8183309547603130340576171875</LongitudeDegrees>
            </Position>
            <AltitudeMeters>1080</AltitudeMeters>
            <DistanceMeters>156319.05711977</DistanceMeters>
          </Trackpoint>
          <Trackpoint>
            <Time>2021-07-28T12:51:10.000Z</Time>
            <Position>
              <LatitudeDegrees>41.6987480409443378448486328125</LatitudeDegrees>
              <LongitudeDegrees>-2.8183550946414470672607421875</LongitudeDegrees>
            </Position>
            <AltitudeMeters>1080</AltitudeMeters>
            <DistanceMeters>156321.06396159</DistanceMeters>
          </Trackpoint>
          <Trackpoint>
            <Time>2021-07-28T12:51:14.000Z</Time>
            <Position>
              <LatitudeDegrees>41.698720045387744903564453125</LatitudeDegrees>
              <LongitudeDegrees>-2.81841552816331386566162109375</LongitudeDegrees>
            </Position>
            <AltitudeMeters>1079.800048828125</AltitudeMeters>
            <DistanceMeters>156326.97398153</DistanceMeters>
          </Trackpoint>
          <Trackpoint>
            <Time>2021-07-28T12:51:16.000Z</Time>
            <Position>
              <LatitudeDegrees>41.6987036168575286865234375</LatitudeDegrees>
              <LongitudeDegrees>-2.818444110453128814697265625</LongitudeDegrees>
            </Position>
            <AltitudeMeters>1079.5999755859375</AltitudeMeters>
            <DistanceMeters>156329.9699615</DistanceMeters>
          </Trackpoint>
          <Trackpoint>
            <Time>2021-07-28T12:51:20.000Z</Time>
            <Position>
              <LatitudeDegrees>41.69871040619909763336181640625</LatitudeDegrees>
              <LongitudeDegrees>-2.818398177623748779296875</LongitudeDegrees>
            </Position>
            <AltitudeMeters>1079.5999755859375</AltitudeMeters>
            <DistanceMeters>156333.86025816</DistanceMeters>
          </Trackpoint>
          <Trackpoint>
            <Time>2021-07-28T12:51:28.000Z</Time>
            <Position>
              <LatitudeDegrees>41.6987277567386627197265625</LatitudeDegrees>
              <LongitudeDegrees>-2.818344533443450927734375</LongitudeDegrees>
            </Position>
            <AltitudeMeters>1079</AltitudeMeters>
            <DistanceMeters>156338.72057502</DistanceMeters>
          </Trackpoint>
          <Trackpoint>
            <Time>2021-07-28T12:52:12.000Z</Time>
            <Position>
              <LatitudeDegrees>41.69875281862914562225341796875</LatitudeDegrees>
              <LongitudeDegrees>-2.81825610436499118804931640625</LongitudeDegrees>
            </Position>
            <AltitudeMeters>1079</AltitudeMeters>
            <DistanceMeters>156346.58198986</DistanceMeters>
          </Trackpoint>
          <Trackpoint>
            <Time>2021-07-28T12:52:16.000Z</Time>
            <Position>
              <LatitudeDegrees>41.69875717721879482269287109375</LatitudeDegrees>
              <LongitudeDegrees>-2.8182005323469638824462890625</LongitudeDegrees>
            </Position>
            <AltitudeMeters>1079.199951171875</AltitudeMeters>
            <DistanceMeters>156351.22567617</DistanceMeters>
          </Trackpoint>
          <Trackpoint>
            <Time>2021-07-28T12:52:20.000Z</Time>
            <Position>
              <LatitudeDegrees>41.6987698338925838470458984375</LatitudeDegrees>
              <LongitudeDegrees>-2.81815753318369388580322265625</LongitudeDegrees>
            </Position>
            <AltitudeMeters>1079.199951171875</AltitudeMeters>
            <DistanceMeters>156355.06691879</DistanceMeters>
          </Trackpoint>
          <Trackpoint>
            <Time>2021-07-28T12:52:26.000Z</Time>
            <Position>
              <LatitudeDegrees>41.6987946443259716033935546875</LatitudeDegrees>
              <LongitudeDegrees>-2.81803674995899200439453125</LongitudeDegrees>
            </Position>
            <AltitudeMeters>1079.4000244140625</AltitudeMeters>
            <DistanceMeters>156365.47744123</DistanceMeters>
          </Trackpoint>
          <Trackpoint>
            <Time>2021-07-28T12:52:36.000Z</Time>
            <Position>
              <LatitudeDegrees>41.698846109211444854736328125</LatitudeDegrees>
              <LongitudeDegrees>-2.8177214227616786956787109375</LongitudeDegrees>
            </Position>
            <AltitudeMeters>1078.5999755859375</AltitudeMeters>
            <DistanceMeters>156392.30090915</DistanceMeters>
          </Trackpoint>
          <Trackpoint>
            <Time>2021-07-28T12:52:42.000Z</Time>
            <Position>
              <LatitudeDegrees>41.69886521995067596435546875</LatitudeDegrees>
              <LongitudeDegrees>-2.8174877353012561798095703125</LongitudeDegrees>
            </Position>
            <AltitudeMeters>1077.5999755859375</AltitudeMeters>
            <DistanceMeters>156411.83762512</DistanceMeters>
          </Trackpoint>
          <Trackpoint>
            <Time>2021-07-28T12:52:48.000Z</Time>
            <Position>
              <LatitudeDegrees>41.6989237256348133087158203125</LatitudeDegrees>
              <LongitudeDegrees>-2.81727366149425506591796875</LongitudeDegrees>
            </Position>
            <AltitudeMeters>1076.5999755859375</AltitudeMeters>
            <DistanceMeters>156430.78229161</DistanceMeters>
          </Trackpoint>
          <Trackpoint>
            <Time>2021-07-28T12:52:52.000Z</Time>
            <Position>
              <LatitudeDegrees>41.69897896237671375274658203125</LatitudeDegrees>
              <LongitudeDegrees>-2.81714893877506256103515625</LongitudeDegrees>
            </Position>
            <AltitudeMeters>1075.4000244140625</AltitudeMeters>
            <DistanceMeters>156442.83346248</DistanceMeters>
          </Trackpoint>
          <Trackpoint>
            <Time>2021-07-28T12:52:55.000Z</Time>
            <Position>
              <LatitudeDegrees>41.6990370489656925201416015625</LatitudeDegrees>
              <LongitudeDegrees>-2.81707140617072582244873046875</LongitudeDegrees>
            </Position>
            <AltitudeMeters>1074.199951171875</AltitudeMeters>
            <DistanceMeters>156451.96097503</DistanceMeters>
          </Trackpoint>
          <Trackpoint>
            <Time>2021-07-28T12:52:58.000Z</Time>
            <Position>
              <LatitudeDegrees>41.69908356852829456329345703125</LatitudeDegrees>
              <LongitudeDegrees>-2.81699462793767452239990234375</LongitudeDegrees>
            </Position>
            <AltitudeMeters>1073.199951171875</AltitudeMeters>
            <DistanceMeters>156460.17735206</DistanceMeters>
          </Trackpoint>
          <Trackpoint>
            <Time>2021-07-28T12:53:07.000Z</Time>
            <Position>
              <LatitudeDegrees>41.69917794875800609588623046875</LatitudeDegrees>
              <LongitudeDegrees>-2.8168691508471965789794921875</LongitudeDegrees>
            </Position>
            <AltitudeMeters>1072.800048828125</AltitudeMeters>
            <DistanceMeters>156474.97896395</DistanceMeters>
          </Trackpoint>
          <Trackpoint>
            <Time>2021-07-28T13:13:43.000Z</Time>
            <Position>
              <LatitudeDegrees>41.69896689243614673614501953125</LatitudeDegrees>
              <LongitudeDegrees>-2.81728967092931270599365234375</LongitudeDegrees>
            </Position>
            <AltitudeMeters>1079</AltitudeMeters>
            <DistanceMeters>156517.08716577</DistanceMeters>
          </Trackpoint>
          <Trackpoint>
            <Time>2021-07-28T13:13:49.000Z</Time>
            <Position>
              <LatitudeDegrees>41.698929928243160247802734375</LatitudeDegrees>
              <LongitudeDegrees>-2.81740098260343074798583984375</LongitudeDegrees>
            </Position>
            <AltitudeMeters>1079.800048828125</AltitudeMeters>
            <DistanceMeters>156527.2109678</DistanceMeters>
          </Trackpoint>
          <Trackpoint>
            <Time>2021-07-28T13:13:57.000Z</Time>
            <Position>
              <LatitudeDegrees>41.69890017248690128326416015625</LatitudeDegrees>
              <LongitudeDegrees>-2.81754179857671260833740234375</LongitudeDegrees>
            </Position>
            <AltitudeMeters>1080.199951171875</AltitudeMeters>
            <DistanceMeters>156539.37253111</DistanceMeters>
          </Trackpoint>
          <Trackpoint>
            <Time>2021-07-28T13:14:12.000Z</Time>
            <Position>
              <LatitudeDegrees>41.69884803704917430877685546875</LatitudeDegrees>
              <LongitudeDegrees>-2.8178282082080841064453125</LongitudeDegrees>
            </Position>
            <AltitudeMeters>1081.199951171875</AltitudeMeters>
            <DistanceMeters>156563.87136906</DistanceMeters>
          </Trackpoint>
          <Trackpoint>
            <Time>2021-07-28T13:14:41.000Z</Time>
            <Position>
              <LatitudeDegrees>41.6987185366451740264892578125</LatitudeDegrees>
              <LongitudeDegrees>-2.81844218261539936065673828125</LongitudeDegrees>
            </Position>
            <AltitudeMeters>1082.199951171875</AltitudeMeters>
            <DistanceMeters>156616.89176257</DistanceMeters>
          </Trackpoint>
          <Trackpoint>
            <Time>2021-07-28T13:14:50.000Z</Time>
            <Position>
              <LatitudeDegrees>41.6987068019807338714599609375</LatitudeDegrees>
              <LongitudeDegrees>-2.81866371631622314453125</LongitudeDegrees>
            </Position>
            <AltitudeMeters>1083.199951171875</AltitudeMeters>
            <DistanceMeters>156635.34848502</DistanceMeters>
          </Trackpoint>
          <Trackpoint>
            <Time>2021-07-28T13:14:51.000Z</Time>
            <Position>
              <LatitudeDegrees>41.69871292077004909515380859375</LatitudeDegrees>
              <LongitudeDegrees>-2.8186799772083759307861328125</LongitudeDegrees>
            </Position>
            <AltitudeMeters>1083.5999755859375</AltitudeMeters>
            <DistanceMeters>156636.85997745</DistanceMeters>
          </Trackpoint>
          <Trackpoint>
            <Time>2021-07-28T13:14:55.000Z</Time>
            <Position>
              <LatitudeDegrees>41.698760278522968292236328125</LatitudeDegrees>
              <LongitudeDegrees>-2.81867436133325099945068359375</LongitudeDegrees>
            </Position>
            <AltitudeMeters>1084.4000244140625</AltitudeMeters>
            <DistanceMeters>156642.15169428</DistanceMeters>
          </Trackpoint>
          <Trackpoint>
            <Time>2021-07-28T13:14:59.000Z</Time>
            <Position>
              <LatitudeDegrees>41.6988150961697101593017578125</LatitudeDegrees>
              <LongitudeDegrees>-2.8186360560357570648193359375</LongitudeDegrees>
            </Position>
            <AltitudeMeters>1084.5999755859375</AltitudeMeters>
            <DistanceMeters>156649.03441039</DistanceMeters>
          </Trackpoint>
          <Trackpoint>
            <Time>2021-07-28T13:15:19.000Z</Time>
            <Position>
              <LatitudeDegrees>41.69906864874064922332763671875</LatitudeDegrees>
              <LongitudeDegrees>-2.81843313015997409820556640625</LongitudeDegrees>
            </Position>
            <AltitudeMeters>1085.4000244140625</AltitudeMeters>
            <DistanceMeters>156681.91022034</DistanceMeters>
          </Trackpoint>
          <Trackpoint>
            <Time>2021-07-28T13:15:23.000Z</Time>
            <Position>
              <LatitudeDegrees>41.6991134919226169586181640625</LatitudeDegrees>
              <LongitudeDegrees>-2.8183835931122303009033203125</LongitudeDegrees>
            </Position>
            <AltitudeMeters>1086.4000244140625</AltitudeMeters>
            <DistanceMeters>156688.37971833</DistanceMeters>
          </Trackpoint>
          <Trackpoint>
            <Time>2021-07-28T13:15:35.000Z</Time>
            <Position>
              <LatitudeDegrees>41.69921667315065860748291015625</LatitudeDegrees>
              <LongitudeDegrees>-2.8182216547429561614990234375</LongitudeDegrees>
            </Position>
            <AltitudeMeters>1087.5999755859375</AltitudeMeters>
            <DistanceMeters>156706.07153875</DistanceMeters>
          </Trackpoint>
          <Trackpoint>
            <Time>2021-07-28T13:15:36.000Z</Time>
            <Position>
              <LatitudeDegrees>41.69922321103513240814208984375</LatitudeDegrees>
              <LongitudeDegrees>-2.8182102553546428680419921875</LongitudeDegrees>
            </Position>
            <AltitudeMeters>1087.5999755859375</AltitudeMeters>
            <DistanceMeters>156707.26600603</DistanceMeters>
          </Trackpoint>
          <Trackpoint>
            <Time>2021-07-28T13:15:42.000Z</Time>
            <Position>
              <LatitudeDegrees>41.699262522161006927490234375</LatitudeDegrees>
              <LongitudeDegrees>-2.8181250952184200286865234375</LongitudeDegrees>
            </Position>
            <AltitudeMeters>1087.5999755859375</AltitudeMeters>
            <DistanceMeters>156715.58667884</DistanceMeters>
          </Trackpoint>
          <Trackpoint>
            <Time>2021-07-28T13:15:43.000Z</Time>
            <Position>
              <LatitudeDegrees>41.699269227683544158935546875</LatitudeDegrees>
              <LongitudeDegrees>-2.81811327673494815826416015625</LongitudeDegrees>
            </Position>
            <AltitudeMeters>1087.5999755859375</AltitudeMeters>
            <DistanceMeters>156716.82567561</DistanceMeters>
          </Trackpoint>
          <Trackpoint>
            <Time>2021-07-28T13:15:45.000Z</Time>
            <Position>
              <LatitudeDegrees>41.6992776095867156982421875</LatitudeDegrees>
              <LongitudeDegrees>-2.81809081323444843292236328125</LongitudeDegrees>
            </Position>
            <AltitudeMeters>1087.800048828125</AltitudeMeters>
            <DistanceMeters>156718.91193946</DistanceMeters>
          </Trackpoint>
          <Trackpoint>
            <Time>2021-07-28T13:15:48.000Z</Time>
            <Position>
              <LatitudeDegrees>41.6993044316768646240234375</LatitudeDegrees>
              <LongitudeDegrees>-2.81806197948753833770751953125</LongitudeDegrees>
            </Position>
            <AltitudeMeters>1088.5999755859375</AltitudeMeters>
            <DistanceMeters>156722.74140994</DistanceMeters>
          </Trackpoint>
          <Trackpoint>
            <Time>2021-07-28T13:15:52.000Z</Time>
            <Position>
              <LatitudeDegrees>41.69933955185115337371826171875</LatitudeDegrees>
              <LongitudeDegrees>-2.8180288709700107574462890625</LongitudeDegrees>
            </Position>
            <AltitudeMeters>1089.199951171875</AltitudeMeters>
            <DistanceMeters>156727.52116866</DistanceMeters>
          </Trackpoint>
          <Trackpoint>
            <Time>2021-07-28T13:16:02.000Z</Time>
            <Position>
              <LatitudeDegrees>41.6994289867579936981201171875</LatitudeDegrees>
              <LongitudeDegrees>-2.817868106067180633544921875</LongitudeDegrees>
            </Position>
            <AltitudeMeters>1089.4000244140625</AltitudeMeters>
            <DistanceMeters>156744.18203748</DistanceMeters>
          </Trackpoint>
          <Trackpoint>
            <Time>2021-07-28T13:16:13.000Z</Time>
            <Position>
              <LatitudeDegrees>41.6995416395366191864013671875</LatitudeDegrees>
              <LongitudeDegrees>-2.81768814660608768463134765625</LongitudeDegrees>
            </Position>
            <AltitudeMeters>1088.4000244140625</AltitudeMeters>
            <DistanceMeters>156763.6979429</DistanceMeters>
          </Trackpoint>
          <Trackpoint>
            <Time>2021-07-29T07:46:50.000Z</Time>
            <Position>
              <LatitudeDegrees>41.699493862688541412353515625</LatitudeDegrees>
              <LongitudeDegrees>-2.81783516518771648406982421875</LongitudeDegrees>
            </Position>
            <AltitudeMeters>1095</AltitudeMeters>
            <DistanceMeters>156777.02270792</DistanceMeters>
          </Trackpoint>
          <Trackpoint>
            <Time>2021-07-29T07:46:51.000Z</Time>
            <Position>
              <LatitudeDegrees>41.69948623515665531158447265625</LatitudeDegrees>
              <LongitudeDegrees>-2.817854024469852447509765625</LongitudeDegrees>
            </Position>
            <AltitudeMeters>1094.5999755859375</AltitudeMeters>
            <DistanceMeters>156778.80556712</DistanceMeters>
          </Trackpoint>
          <Trackpoint>
            <Time>2021-07-29T07:46:52.000Z</Time>
            <Position>
              <LatitudeDegrees>41.69948078691959381103515625</LatitudeDegrees>
              <LongitudeDegrees>-2.817874141037464141845703125</LongitudeDegrees>
            </Position>
            <AltitudeMeters>1094.5999755859375</AltitudeMeters>
            <DistanceMeters>156780.58335416</DistanceMeters>
          </Trackpoint>
          <Trackpoint>
            <Time>2021-07-29T07:46:53.000Z</Time>
            <Position>
              <LatitudeDegrees>41.6994729079306125640869140625</LatitudeDegrees>
              <LongitudeDegrees>-2.81789383850991725921630859375</LongitudeDegrees>
            </Position>
            <AltitudeMeters>1094</AltitudeMeters>
            <DistanceMeters>156782.44063421</DistanceMeters>
          </Trackpoint>
          <Trackpoint>
            <Time>2021-07-29T07:47:00.000Z</Time>
            <Position>
              <LatitudeDegrees>41.6994189284741878509521484375</LatitudeDegrees>
              <LongitudeDegrees>-2.81797698698937892913818359375</LongitudeDegrees>
            </Position>
            <AltitudeMeters>1094.5999755859375</AltitudeMeters>
            <DistanceMeters>156791.59777841</DistanceMeters>
          </Trackpoint>
          <Trackpoint>
            <Time>2021-07-29T07:47:45.000Z</Time>
            <Position>
              <LatitudeDegrees>41.6993552260100841522216796875</LatitudeDegrees>
              <LongitudeDegrees>-2.81806851737201213836669921875</LongitudeDegrees>
            </Position>
            <AltitudeMeters>1092.4000244140625</AltitudeMeters>
            <DistanceMeters>156801.99615017</DistanceMeters>
          </Trackpoint>
          <Trackpoint>
            <Time>2021-07-29T07:47:49.000Z</Time>
            <Position>
              <LatitudeDegrees>41.699246428906917572021484375</LatitudeDegrees>
              <LongitudeDegrees>-2.81821285374462604522705078125</LongitudeDegrees>
            </Position>
            <AltitudeMeters>1091.199951171875</AltitudeMeters>
            <DistanceMeters>156819.04066892</DistanceMeters>
          </Trackpoint>
          <Trackpoint>
            <Time>2021-07-29T07:47:51.000Z</Time>
            <Position>
              <LatitudeDegrees>41.69917811639606952667236328125</LatitudeDegrees>
              <LongitudeDegrees>-2.8182917274534702301025390625</LongitudeDegrees>
            </Position>
            <AltitudeMeters>1090.199951171875</AltitudeMeters>
            <DistanceMeters>156829.07937666</DistanceMeters>
          </Trackpoint>
          <Trackpoint>
            <Time>2021-07-29T07:47:53.000Z</Time>
            <Position>
              <LatitudeDegrees>41.6991086304187774658203125</LatitudeDegrees>
              <LongitudeDegrees>-2.81835056841373443603515625</LongitudeDegrees>
            </Position>
            <AltitudeMeters>1088.800048828125</AltitudeMeters>
            <DistanceMeters>156838.22961539</DistanceMeters>
          </Trackpoint>
          <Trackpoint>
            <Time>2021-07-29T07:48:01.000Z</Time>
            <Position>
              <LatitudeDegrees>41.69880109839141368865966796875</LatitudeDegrees>
              <LongitudeDegrees>-2.818621806800365447998046875</LongitudeDegrees>
            </Position>
            <AltitudeMeters>1088.4000244140625</AltitudeMeters>
            <DistanceMeters>156879.21401047</DistanceMeters>
          </Trackpoint>
          <Trackpoint>
            <Time>2021-07-29T07:48:04.000Z</Time>
            <Position>
              <LatitudeDegrees>41.6987671516835689544677734375</LatitudeDegrees>
              <LongitudeDegrees>-2.81855667941272258758544921875</LongitudeDegrees>
            </Position>
            <AltitudeMeters>1087.800048828125</AltitudeMeters>
            <DistanceMeters>156885.81546098</DistanceMeters>
          </Trackpoint>
          <Trackpoint>
            <Time>2021-07-29T07:48:06.000Z</Time>
            <Position>
              <LatitudeDegrees>41.6987725161015987396240234375</LatitudeDegrees>
              <LongitudeDegrees>-2.81844637356698513031005859375</LongitudeDegrees>
            </Position>
            <AltitudeMeters>1086.5999755859375</AltitudeMeters>
            <DistanceMeters>156895.00214126</DistanceMeters>
          </Trackpoint>
          <Trackpoint>
            <Time>2021-07-29T07:48:07.000Z</Time>
            <Position>
              <LatitudeDegrees>41.69878114946186542510986328125</LatitudeDegrees>
              <LongitudeDegrees>-2.81838870607316493988037109375</LongitudeDegrees>
            </Position>
            <AltitudeMeters>1086.199951171875</AltitudeMeters>
            <DistanceMeters>156899.89024746</DistanceMeters>
          </Trackpoint>
          <Trackpoint>
            <Time>2021-07-29T07:48:09.000Z</Time>
            <Position>
              <LatitudeDegrees>41.6988030262291431427001953125</LatitudeDegrees>
              <LongitudeDegrees>-2.81827135942876338958740234375</LongitudeDegrees>
            </Position>
            <AltitudeMeters>1085.199951171875</AltitudeMeters>
            <DistanceMeters>156909.94198986</DistanceMeters>
          </Trackpoint>
          <Trackpoint>
            <Time>2021-07-29T07:48:10.000Z</Time>
            <Position>
              <LatitudeDegrees>41.6988104023039340972900390625</LatitudeDegrees>
              <LongitudeDegrees>-2.8182162903249263763427734375</LongitudeDegrees>
            </Position>
            <AltitudeMeters>1085.199951171875</AltitudeMeters>
            <DistanceMeters>156914.59150629</DistanceMeters>
          </Trackpoint>
          <Trackpoint>
            <Time>2021-07-29T07:48:15.000Z</Time>
            <Position>
              <LatitudeDegrees>41.69883043505251407623291015625</LatitudeDegrees>
              <LongitudeDegrees>-2.81799995340406894683837890625</LongitudeDegrees>
            </Position>
            <AltitudeMeters>1085.5999755859375</AltitudeMeters>
            <DistanceMeters>156932.70749642</DistanceMeters>
          </Trackpoint>
          <Trackpoint>
            <Time>2021-07-29T07:48:25.000Z</Time>
            <Position>
              <LatitudeDegrees>41.69889740645885467529296875</LatitudeDegrees>
              <LongitudeDegrees>-2.8176396153867244720458984375</LongitudeDegrees>
            </Position>
            <AltitudeMeters>1084.199951171875</AltitudeMeters>
            <DistanceMeters>156963.56675437</DistanceMeters>
          </Trackpoint>
          <Trackpoint>
            <Time>2021-07-29T07:48:27.000Z</Time>
            <Position>
              <LatitudeDegrees>41.69891207478940486907958984375</LatitudeDegrees>
              <LongitudeDegrees>-2.81754230149090290069580078125</LongitudeDegrees>
            </Position>
            <AltitudeMeters>1083.4000244140625</AltitudeMeters>
            <DistanceMeters>156971.81713111</DistanceMeters>
          </Trackpoint>
          <Trackpoint>
            <Time>2021-07-29T07:48:29.000Z</Time>
            <Position>
              <LatitudeDegrees>41.6989277489483356475830078125</LatitudeDegrees>
              <LongitudeDegrees>-2.8174397908151149749755859375</LongitudeDegrees>
            </Position>
            <AltitudeMeters>1083</AltitudeMeters>
            <DistanceMeters>156980.51298415</DistanceMeters>
          </Trackpoint>
          <Trackpoint>
            <Time>2021-07-29T07:48:32.000Z</Time>
            <Position>
              <LatitudeDegrees>41.69896781444549560546875</LatitudeDegrees>
              <LongitudeDegrees>-2.81728967092931270599365234375</LongitudeDegrees>
            </Position>
            <AltitudeMeters>1081.800048828125</AltitudeMeters>
            <DistanceMeters>156993.76163034</DistanceMeters>
          </Trackpoint>
          <Trackpoint>
            <Time>2021-07-29T07:48:36.000Z</Time>
            <Position>
              <LatitudeDegrees>41.6990521363914012908935546875</LatitudeDegrees>
              <LongitudeDegrees>-2.8171400539577007293701171875</LongitudeDegrees>
            </Position>
            <AltitudeMeters>1080.4000244140625</AltitudeMeters>
            <DistanceMeters>157009.33963645</DistanceMeters>
          </Trackpoint>
          <Trackpoint>
            <Time>2021-07-29T07:48:43.000Z</Time>
            <Position>
              <LatitudeDegrees>41.69923008419573307037353515625</LatitudeDegrees>
              <LongitudeDegrees>-2.81690494157373905181884765625</LongitudeDegrees>
            </Position>
            <AltitudeMeters>1079.4000244140625</AltitudeMeters>
            <DistanceMeters>157037.16105019</DistanceMeters>
          </Trackpoint>
          <Trackpoint>
            <Time>2021-07-29T07:48:46.000Z</Time>
            <Position>
              <LatitudeDegrees>41.699316836893558502197265625</LatitudeDegrees>
              <LongitudeDegrees>-2.81680217944085597991943359375</LongitudeDegrees>
            </Position>
            <AltitudeMeters>1078.199951171875</AltitudeMeters>
            <DistanceMeters>157050.05145114</DistanceMeters>
          </Trackpoint>
          <Trackpoint>
            <Time>2021-07-29T07:48:48.000Z</Time>
            <Position>
              <LatitudeDegrees>41.69937483966350555419921875</LatitudeDegrees>
              <LongitudeDegrees>-2.81672406010329723358154296875</LongitudeDegrees>
            </Position>
            <AltitudeMeters>1076.800048828125</AltitudeMeters>
            <DistanceMeters>157059.20711603</DistanceMeters>
          </Trackpoint>
          <Trackpoint>
            <Time>2021-07-29T07:48:51.000Z</Time>
            <Position>
              <LatitudeDegrees>41.69946444220840930938720703125</LatitudeDegrees>
              <LongitudeDegrees>-2.816614173352718353271484375</LongitudeDegrees>
            </Position>
            <AltitudeMeters>1075.5999755859375</AltitudeMeters>
            <DistanceMeters>157072.72965455</DistanceMeters>
          </Trackpoint>
          <Trackpoint>
            <Time>2021-07-29T07:48:53.000Z</Time>
            <Position>
              <LatitudeDegrees>41.699517332017421722412109375</LatitudeDegrees>
              <LongitudeDegrees>-2.8165472857654094696044921875</LongitudeDegrees>
            </Position>
            <AltitudeMeters>1074.5999755859375</AltitudeMeters>
            <DistanceMeters>157080.82646596</DistanceMeters>
          </Trackpoint>
          <Trackpoint>
            <Time>2021-07-29T07:48:55.000Z</Time>
            <Position>
              <LatitudeDegrees>41.69958028011023998260498046875</LatitudeDegrees>
              <LongitudeDegrees>-2.81648953445255756378173828125</LongitudeDegrees>
            </Position>
            <AltitudeMeters>1073.199951171875</AltitudeMeters>
            <DistanceMeters>157089.31847341</DistanceMeters>
          </Trackpoint>
          <Trackpoint>
            <Time>2021-07-29T07:48:58.000Z</Time>
            <Position>
              <LatitudeDegrees>41.69966929592192173004150390625</LatitudeDegrees>
              <LongitudeDegrees>-2.816428430378437042236328125</LongitudeDegrees>
            </Position>
            <AltitudeMeters>1072</AltitudeMeters>
            <DistanceMeters>157100.45120889</DistanceMeters>
          </Trackpoint>
          <Trackpoint>
            <Time>2021-07-29T07:49:01.000Z</Time>
            <Position>
              <LatitudeDegrees>41.69977222569286823272705078125</LatitudeDegrees>
              <LongitudeDegrees>-2.8164825774729251861572265625</LongitudeDegrees>
            </Position>
            <AltitudeMeters>1070.5999755859375</AltitudeMeters>
            <DistanceMeters>157112.75927788</DistanceMeters>
          </Trackpoint>
          <Trackpoint>
            <Time>2021-07-29T07:49:03.000Z</Time>
            <Position>
              <LatitudeDegrees>41.6998676955699920654296875</LatitudeDegrees>
              <LongitudeDegrees>-2.81656513921916484832763671875</LongitudeDegrees>
            </Position>
            <AltitudeMeters>1069.5999755859375</AltitudeMeters>
            <DistanceMeters>157125.40747278</DistanceMeters>
          </Trackpoint>
          <Trackpoint>
            <Time>2021-07-29T07:49:05.000Z</Time>
            <Position>
              <LatitudeDegrees>41.69999082572758197784423828125</LatitudeDegrees>
              <LongitudeDegrees>-2.81663638539612293243408203125</LongitudeDegrees>
            </Position>
            <AltitudeMeters>1068.4000244140625</AltitudeMeters>
            <DistanceMeters>157140.33634805</DistanceMeters>
          </Trackpoint>
          <Trackpoint>
            <Time>2021-07-29T07:49:07.000Z</Time>
            <Position>
              <LatitudeDegrees>41.70014102943241596221923828125</LatitudeDegrees>
              <LongitudeDegrees>-2.81671299599111080169677734375</LongitudeDegrees>
            </Position>
            <AltitudeMeters>1067</AltitudeMeters>
            <DistanceMeters>157158.22561604</DistanceMeters>
          </Trackpoint>
          <Trackpoint>
            <Time>2021-07-29T07:49:09.000Z</Time>
            <Position>
              <LatitudeDegrees>41.70029215514659881591796875</LatitudeDegrees>
              <LongitudeDegrees>-2.8167940489947795867919921875</LongitudeDegrees>
            </Position>
            <AltitudeMeters>1065.5999755859375</AltitudeMeters>
            <DistanceMeters>157176.34459667</DistanceMeters>
          </Trackpoint>
          <Trackpoint>
            <Time>2021-07-29T07:49:11.000Z</Time>
            <Position>
              <LatitudeDegrees>41.70042199082672595977783203125</LatitudeDegrees>
              <LongitudeDegrees>-2.816860266029834747314453125</LongitudeDegrees>
            </Position>
            <AltitudeMeters>1064.800048828125</AltitudeMeters>
            <DistanceMeters>157191.80769449</DistanceMeters>
          </Trackpoint>
          <Trackpoint>
            <Time>2021-07-29T07:49:12.000Z</Time>
            <Position>
              <LatitudeDegrees>41.7004792392253875732421875</LatitudeDegrees>
              <LongitudeDegrees>-2.8168684802949428558349609375</LongitudeDegrees>
            </Position>
            <AltitudeMeters>1064.5999755859375</AltitudeMeters>
            <DistanceMeters>157198.21618789</DistanceMeters>
          </Trackpoint>
          <Trackpoint>
            <Time>2021-07-29T07:49:16.000Z</Time>
            <Position>
              <LatitudeDegrees>41.70066556893289089202880859375</LatitudeDegrees>
              <LongitudeDegrees>-2.8168657980859279632568359375</LongitudeDegrees>
            </Position>
            <AltitudeMeters>1063.4000244140625</AltitudeMeters>
            <DistanceMeters>157218.95640779</DistanceMeters>
          </Trackpoint>
          <Trackpoint>
            <Time>2021-07-29T07:49:19.000Z</Time>
            <Position>
              <LatitudeDegrees>41.70080655254423618316650390625</LatitudeDegrees>
              <LongitudeDegrees>-2.81698406673967838287353515625</LongitudeDegrees>
            </Position>
            <AltitudeMeters>1062.199951171875</AltitudeMeters>
            <DistanceMeters>157237.47174798</DistanceMeters>
          </Trackpoint>
          <Trackpoint>
            <Time>2021-07-29T07:49:22.000Z</Time>
            <Position>
              <LatitudeDegrees>41.70091333799064159393310546875</LatitudeDegrees>
              <LongitudeDegrees>-2.817201577126979827880859375</LongitudeDegrees>
            </Position>
            <AltitudeMeters>1060.800048828125</AltitudeMeters>
            <DistanceMeters>157259.10447045</DistanceMeters>
          </Trackpoint>
          <Trackpoint>
            <Time>2021-07-29T07:49:24.000Z</Time>
            <Position>
              <LatitudeDegrees>41.7009645514190196990966796875</LatitudeDegrees>
              <LongitudeDegrees>-2.8173941932618618011474609375</LongitudeDegrees>
            </Position>
            <AltitudeMeters>1059.199951171875</AltitudeMeters>
            <DistanceMeters>157276.09592725</DistanceMeters>
          </Trackpoint>
          <Trackpoint>
            <Time>2021-07-29T07:49:26.000Z</Time>
            <Position>
              <LatitudeDegrees>41.70099749229848384857177734375</LatitudeDegrees>
              <LongitudeDegrees>-2.81761857680976390838623046875</LongitudeDegrees>
            </Position>
            <AltitudeMeters>1057.4000244140625</AltitudeMeters>
            <DistanceMeters>157295.09960708</DistanceMeters>
          </Trackpoint>
          <Trackpoint>
            <Time>2021-07-29T07:49:27.000Z</Time>
            <Position>
              <LatitudeDegrees>41.70100637711584568023681640625</LatitudeDegrees>
              <LongitudeDegrees>-2.81774095259606838226318359375</LongitudeDegrees>
            </Position>
            <AltitudeMeters>1056</AltitudeMeters>
            <DistanceMeters>157305.31707809</DistanceMeters>
          </Trackpoint>
          <Trackpoint>
            <Time>2021-07-29T07:49:29.000Z</Time>
            <Position>
              <LatitudeDegrees>41.7010017670691013336181640625</LatitudeDegrees>
              <LongitudeDegrees>-2.81799928285181522369384765625</LongitudeDegrees>
            </Position>
            <AltitudeMeters>1054.199951171875</AltitudeMeters>
            <DistanceMeters>157326.79059255</DistanceMeters>
          </Trackpoint>
          <Trackpoint>
            <Time>2021-07-29T07:49:30.000Z</Time>
            <Position>
              <LatitudeDegrees>41.700982488691806793212890625</LatitudeDegrees>
              <LongitudeDegrees>-2.8181341476738452911376953125</LongitudeDegrees>
            </Position>
            <AltitudeMeters>1053.199951171875</AltitudeMeters>
            <DistanceMeters>157338.20171442</DistanceMeters>
          </Trackpoint>
          <Trackpoint>
            <Time>2021-07-29T07:49:31.000Z</Time>
            <Position>
              <LatitudeDegrees>41.700951643288135528564453125</LatitudeDegrees>
              <LongitudeDegrees>-2.818267755210399627685546875</LongitudeDegrees>
            </Position>
            <AltitudeMeters>1051.800048828125</AltitudeMeters>
            <DistanceMeters>157349.82298042</DistanceMeters>
          </Trackpoint>
          <Trackpoint>
            <Time>2021-07-29T07:49:32.000Z</Time>
            <Position>
              <LatitudeDegrees>41.70091132633388042449951171875</LatitudeDegrees>
              <LongitudeDegrees>-2.8183968365192413330078125</LongitudeDegrees>
            </Position>
            <AltitudeMeters>1050.4000244140625</AltitudeMeters>
            <DistanceMeters>157361.45007268</DistanceMeters>
          </Trackpoint>
          <Trackpoint>
            <Time>2021-07-29T07:49:34.000Z</Time>
            <Position>
              <LatitudeDegrees>41.7008109949529170989990234375</LatitudeDegrees>
              <LongitudeDegrees>-2.81864435411989688873291015625</LongitudeDegrees>
            </Position>
            <AltitudeMeters>1049</AltitudeMeters>
            <DistanceMeters>157384.85482641</DistanceMeters>
          </Trackpoint>
          <Trackpoint>
            <Time>2021-07-29T07:49:37.000Z</Time>
            <Position>
              <LatitudeDegrees>41.7006420157849788665771484375</LatitudeDegrees>
              <LongitudeDegrees>-2.81900578178465366363525390625</LongitudeDegrees>
            </Position>
            <AltitudeMeters>1047.5999755859375</AltitudeMeters>
            <DistanceMeters>157420.29265678</DistanceMeters>
          </Trackpoint>
          <Trackpoint>
            <Time>2021-07-29T07:49:40.000Z</Time>
            <Position>
              <LatitudeDegrees>41.7004951648414134979248046875</LatitudeDegrees>
              <LongitudeDegrees>-2.8193867392838001251220703125</LongitudeDegrees>
            </Position>
            <AltitudeMeters>1046.4000244140625</AltitudeMeters>
            <DistanceMeters>157455.92121226</DistanceMeters>
          </Trackpoint>
          <Trackpoint>
            <Time>2021-07-29T07:49:44.000Z</Time>
            <Position>
              <LatitudeDegrees>41.70043456368148326873779296875</LatitudeDegrees>
              <LongitudeDegrees>-2.819927036762237548828125</LongitudeDegrees>
            </Position>
            <AltitudeMeters>1046.5999755859375</AltitudeMeters>
            <DistanceMeters>157501.32469397</DistanceMeters>
          </Trackpoint>
          <Trackpoint>
            <Time>2021-07-29T07:49:50.000Z</Time>
            <Position>
              <LatitudeDegrees>41.70043171383440494537353515625</LatitudeDegrees>
              <LongitudeDegrees>-2.8207053802907466888427734375</LongitudeDegrees>
            </Position>
            <AltitudeMeters>1046.5999755859375</AltitudeMeters>
            <DistanceMeters>157566.00725019</DistanceMeters>
          </Trackpoint>
          <Trackpoint>
            <Time>2021-07-29T07:49:56.000Z</Time>
            <Position>
              <LatitudeDegrees>41.70042819343507289886474609375</LatitudeDegrees>
              <LongitudeDegrees>-2.8214460052549839019775390625</LongitudeDegrees>
            </Position>
            <AltitudeMeters>1046</AltitudeMeters>
            <DistanceMeters>157627.55566502</DistanceMeters>
          </Trackpoint>
          <Trackpoint>
            <Time>2021-07-29T07:50:03.000Z</Time>
            <Position>
              <LatitudeDegrees>41.70045845210552215576171875</LatitudeDegrees>
              <LongitudeDegrees>-2.822242788970470428466796875</LongitudeDegrees>
            </Position>
            <AltitudeMeters>1046.5999755859375</AltitudeMeters>
            <DistanceMeters>157693.85544339</DistanceMeters>
          </Trackpoint>
          <Trackpoint>
            <Time>2021-07-29T07:50:07.000Z</Time>
            <Position>
              <LatitudeDegrees>41.70060538686811923980712890625</LatitudeDegrees>
              <LongitudeDegrees>-2.82259793020784854888916015625</LongitudeDegrees>
            </Position>
            <AltitudeMeters>1046.199951171875</AltitudeMeters>
            <DistanceMeters>157727.59661835</DistanceMeters>
          </Trackpoint>
          <Trackpoint>
            <Time>2021-07-29T07:50:14.000Z</Time>
            <Position>
              <LatitudeDegrees>41.70086371712386608123779296875</LatitudeDegrees>
              <LongitudeDegrees>-2.82307066954672336578369140625</LongitudeDegrees>
            </Position>
            <AltitudeMeters>1047.5999755859375</AltitudeMeters>
            <DistanceMeters>157776.27979741</DistanceMeters>
          </Trackpoint>
          <Trackpoint>
            <Time>2021-07-29T07:50:22.000Z</Time>
            <Position>
              <LatitudeDegrees>41.70109807513654232025146484375</LatitudeDegrees>
              <LongitudeDegrees>-2.8234921954572200775146484375</LongitudeDegrees>
            </Position>
            <AltitudeMeters>1048.800048828125</AltitudeMeters>
            <DistanceMeters>157819.95416218</DistanceMeters>
          </Trackpoint>
          <Trackpoint>
            <Time>2021-07-29T07:50:34.000Z</Time>
            <Position>
              <LatitudeDegrees>41.70138859190046787261962890625</LatitudeDegrees>
              <LongitudeDegrees>-2.82410315237939357757568359375</LongitudeDegrees>
            </Position>
            <AltitudeMeters>1049.800048828125</AltitudeMeters>
            <DistanceMeters>157880.14756657</DistanceMeters>
          </Trackpoint>
          <Trackpoint>
            <Time>2021-07-29T07:50:44.000Z</Time>
            <Position>
              <LatitudeDegrees>41.701559834182262420654296875</LatitudeDegrees>
              <LongitudeDegrees>-2.824666835367679595947265625</LongitudeDegrees>
            </Position>
            <AltitudeMeters>1051</AltitudeMeters>
            <DistanceMeters>157930.71901267</DistanceMeters>
          </Trackpoint>
          <Trackpoint>
            <Time>2021-07-29T07:50:56.000Z</Time>
            <Position>
              <LatitudeDegrees>41.701738871634006500244140625</LatitudeDegrees>
              <LongitudeDegrees>-2.82536429353058338165283203125</LongitudeDegrees>
            </Position>
            <AltitudeMeters>1051.4000244140625</AltitudeMeters>
            <DistanceMeters>157992.00792846</DistanceMeters>
          </Trackpoint>
          <Trackpoint>
            <Time>2021-07-29T07:51:03.000Z</Time>
            <Position>
              <LatitudeDegrees>41.70183576643466949462890625</LatitudeDegrees>
              <LongitudeDegrees>-2.82575723715126514434814453125</LongitudeDegrees>
            </Position>
            <AltitudeMeters>1052</AltitudeMeters>
            <DistanceMeters>158026.3965721</DistanceMeters>
          </Trackpoint>
          <Trackpoint>
            <Time>2021-07-29T07:51:09.000Z</Time>
            <Position>
              <LatitudeDegrees>41.7019160650670528411865234375</LatitudeDegrees>
              <LongitudeDegrees>-2.82606250606477260589599609375</LongitudeDegrees>
            </Position>
            <AltitudeMeters>1053</AltitudeMeters>
            <DistanceMeters>158053.29282563</DistanceMeters>
          </Trackpoint>
          <Trackpoint>
            <Time>2021-07-29T07:51:15.000Z</Time>
            <Position>
              <LatitudeDegrees>41.70198940671980381011962890625</LatitudeDegrees>
              <LongitudeDegrees>-2.82633692957460880279541015625</LongitudeDegrees>
            </Position>
            <AltitudeMeters>1054.199951171875</AltitudeMeters>
            <DistanceMeters>158077.51438764</DistanceMeters>
          </Trackpoint>
          <Trackpoint>
            <Time>2021-07-29T07:51:24.000Z</Time>
            <Position>
              <LatitudeDegrees>41.70208781026303768157958984375</LatitudeDegrees>
              <LongitudeDegrees>-2.82674177549779415130615234375</LongitudeDegrees>
            </Position>
            <AltitudeMeters>1055.199951171875</AltitudeMeters>
            <DistanceMeters>158112.89483828</DistanceMeters>
          </Trackpoint>
          <Trackpoint>
            <Time>2021-07-29T07:51:39.000Z</Time>
            <Position>
              <LatitudeDegrees>41.70231663621962070465087890625</LatitudeDegrees>
              <LongitudeDegrees>-2.827434204518795013427734375</LongitudeDegrees>
            </Position>
            <AltitudeMeters>1056.199951171875</AltitudeMeters>
            <DistanceMeters>158175.81996148</DistanceMeters>
          </Trackpoint>
          <Trackpoint>
            <Time>2021-07-29T07:51:52.000Z</Time>
            <Position>
              <LatitudeDegrees>41.70260497368872165679931640625</LatitudeDegrees>
              <LongitudeDegrees>-2.8280941955745220184326171875</LongitudeDegrees>
            </Position>
            <AltitudeMeters>1055.199951171875</AltitudeMeters>
            <DistanceMeters>158239.3642053</DistanceMeters>
          </Trackpoint>
          <Trackpoint>
            <Time>2021-07-29T07:52:04.000Z</Time>
            <Position>
              <LatitudeDegrees>41.702892892062664031982421875</LatitudeDegrees>
              <LongitudeDegrees>-2.828756868839263916015625</LongitudeDegrees>
            </Position>
            <AltitudeMeters>1055.4000244140625</AltitudeMeters>
            <DistanceMeters>158303.07726106</DistanceMeters>
          </Trackpoint>
          <Trackpoint>
            <Time>2021-07-29T07:52:16.000Z</Time>
            <Position>
              <LatitudeDegrees>41.70317829586565494537353515625</LatitudeDegrees>
              <LongitudeDegrees>-2.829408310353755950927734375</LongitudeDegrees>
            </Position>
            <AltitudeMeters>1055.5999755859375</AltitudeMeters>
            <DistanceMeters>158365.84310726</DistanceMeters>
          </Trackpoint>
          <Trackpoint>
            <Time>2021-07-29T07:52:28.000Z</Time>
            <Position>
              <LatitudeDegrees>41.70350611209869384765625</LatitudeDegrees>
              <LongitudeDegrees>-2.8299915231764316558837890625</LongitudeDegrees>
            </Position>
            <AltitudeMeters>1055.4000244140625</AltitudeMeters>
            <DistanceMeters>158426.50618494</DistanceMeters>
          </Trackpoint>
          <Trackpoint>
            <Time>2021-07-29T07:52:33.000Z</Time>
            <Position>
              <LatitudeDegrees>41.70369193889200687408447265625</LatitudeDegrees>
              <LongitudeDegrees>-2.8301544673740863800048828125</LongitudeDegrees>
            </Position>
            <AltitudeMeters>1055.4000244140625</AltitudeMeters>
            <DistanceMeters>158451.2270153</DistanceMeters>
          </Trackpoint>
          <Trackpoint>
            <Time>2021-07-29T07:52:46.000Z</Time>
            <Position>
              <LatitudeDegrees>41.70420424081385135650634765625</LatitudeDegrees>
              <LongitudeDegrees>-2.8305123746395111083984375</LongitudeDegrees>
            </Position>
            <AltitudeMeters>1055.800048828125</AltitudeMeters>
            <DistanceMeters>158515.53742807</DistanceMeters>
          </Trackpoint>
          <Trackpoint>
            <Time>2021-07-29T07:52:54.000Z</Time>
            <Position>
              <LatitudeDegrees>41.704527698457241058349609375</LatitudeDegrees>
              <LongitudeDegrees>-2.8306815214455127716064453125</LongitudeDegrees>
            </Position>
            <AltitudeMeters>1056.5999755859375</AltitudeMeters>
            <DistanceMeters>158554.18538979</DistanceMeters>
          </Trackpoint>
          <Trackpoint>
            <Time>2021-07-29T07:53:04.000Z</Time>
            <Position>
              <LatitudeDegrees>41.70490421354770660400390625</LatitudeDegrees>
              <LongitudeDegrees>-2.83084186725318431854248046875</LongitudeDegrees>
            </Position>
            <AltitudeMeters>1057.5999755859375</AltitudeMeters>
            <DistanceMeters>158598.15925213</DistanceMeters>
          </Trackpoint>
          <Trackpoint>
            <Time>2021-07-29T07:53:08.000Z</Time>
            <Position>
              <LatitudeDegrees>41.7050314508378505706787109375</LatitudeDegrees>
              <LongitudeDegrees>-2.83088880591094493865966796875</LongitudeDegrees>
            </Position>
            <AltitudeMeters>1058.5999755859375</AltitudeMeters>
            <DistanceMeters>158612.84818152</DistanceMeters>
          </Trackpoint>
          <Trackpoint>
            <Time>2021-07-29T07:53:18.000Z</Time>
            <Position>
              <LatitudeDegrees>41.70531668700277805328369140625</LatitudeDegrees>
              <LongitudeDegrees>-2.83101864159107208251953125</LongitudeDegrees>
            </Position>
            <AltitudeMeters>1059.800048828125</AltitudeMeters>
            <DistanceMeters>158646.37874516</DistanceMeters>
          </Trackpoint>
          <Trackpoint>
            <Time>2021-07-29T07:53:25.000Z</Time>
            <Position>
              <LatitudeDegrees>41.7055162601172924041748046875</LatitudeDegrees>
              <LongitudeDegrees>-2.8310892172157764434814453125</LongitudeDegrees>
            </Position>
            <AltitudeMeters>1061</AltitudeMeters>
            <DistanceMeters>158669.35281681</DistanceMeters>
          </Trackpoint>
          <Trackpoint>
            <Time>2021-07-29T07:53:31.000Z</Time>
            <Position>
              <LatitudeDegrees>41.7056781984865665435791015625</LatitudeDegrees>
              <LongitudeDegrees>-2.8311507403850555419921875</LongitudeDegrees>
            </Position>
            <AltitudeMeters>1062.199951171875</AltitudeMeters>
            <DistanceMeters>158688.08778602</DistanceMeters>
          </Trackpoint>
          <Trackpoint>
            <Time>2021-07-29T07:53:36.000Z</Time>
            <Position>
              <LatitudeDegrees>41.70581524260342121124267578125</LatitudeDegrees>
              <LongitudeDegrees>-2.83119072206318378448486328125</LongitudeDegrees>
            </Position>
            <AltitudeMeters>1063.4000244140625</AltitudeMeters>
            <DistanceMeters>158703.69879826</DistanceMeters>
          </Trackpoint>
          <Trackpoint>
            <Time>2021-07-29T07:53:42.000Z</Time>
            <Position>
              <LatitudeDegrees>41.70596661977469921112060546875</LatitudeDegrees>
              <LongitudeDegrees>-2.83124034292995929718017578125</LongitudeDegrees>
            </Position>
            <AltitudeMeters>1064.4000244140625</AltitudeMeters>
            <DistanceMeters>158721.04475303</DistanceMeters>
          </Trackpoint>
          <Trackpoint>
            <Time>2021-07-29T07:53:48.000Z</Time>
            <Position>
              <LatitudeDegrees>41.70609804801642894744873046875</LatitudeDegrees>
              <LongitudeDegrees>-2.83129314891993999481201171875</LongitudeDegrees>
            </Position>
            <AltitudeMeters>1065.5999755859375</AltitudeMeters>
            <DistanceMeters>158736.31717506</DistanceMeters>
          </Trackpoint>
          <Trackpoint>
            <Time>2021-07-29T07:53:53.000Z</Time>
            <Position>
              <LatitudeDegrees>41.70621003024280071258544921875</LatitudeDegrees>
              <LongitudeDegrees>-2.83133204095065593719482421875</LongitudeDegrees>
            </Position>
            <AltitudeMeters>1066.5999755859375</AltitudeMeters>
            <DistanceMeters>158749.19320719</DistanceMeters>
          </Trackpoint>
          <Trackpoint>
            <Time>2021-07-29T07:53:59.000Z</Time>
            <Position>
              <LatitudeDegrees>41.70634514652192592620849609375</LatitudeDegrees>
              <LongitudeDegrees>-2.8313728608191013336181640625</LongitudeDegrees>
            </Position>
            <AltitudeMeters>1067.800048828125</AltitudeMeters>
            <DistanceMeters>158764.60951615</DistanceMeters>
          </Trackpoint>
          <Trackpoint>
            <Time>2021-07-29T07:54:08.000Z</Time>
            <Position>
              <LatitudeDegrees>41.70655134133994579315185546875</LatitudeDegrees>
              <LongitudeDegrees>-2.8314335457980632781982421875</LongitudeDegrees>
            </Position>
            <AltitudeMeters>1069</AltitudeMeters>
            <DistanceMeters>158788.10706909</DistanceMeters>
          </Trackpoint>
          <Trackpoint>
            <Time>2021-07-29T07:54:17.000Z</Time>
            <Position>
              <LatitudeDegrees>41.7067571170628070831298828125</LatitudeDegrees>
              <LongitudeDegrees>-2.83150085248053073883056640625</LongitudeDegrees>
            </Position>
            <AltitudeMeters>1070.199951171875</AltitudeMeters>
            <DistanceMeters>158811.68346312</DistanceMeters>
          </Trackpoint>
          <Trackpoint>
            <Time>2021-07-29T07:54:24.000Z</Time>
            <Position>
              <LatitudeDegrees>41.706916876137256622314453125</LatitudeDegrees>
              <LongitudeDegrees>-2.83155416138470172882080078125</LongitudeDegrees>
            </Position>
            <AltitudeMeters>1071.199951171875</AltitudeMeters>
            <DistanceMeters>158830.00859567</DistanceMeters>
          </Trackpoint>
          <Trackpoint>
            <Time>2021-07-29T07:54:31.000Z</Time>
            <Position>
              <LatitudeDegrees>41.70708141289651393890380859375</LatitudeDegrees>
              <LongitudeDegrees>-2.83161384053528308868408203125</LongitudeDegrees>
            </Position>
            <AltitudeMeters>1072.199951171875</AltitudeMeters>
            <DistanceMeters>158848.98160195</DistanceMeters>
          </Trackpoint>
          <Trackpoint>
            <Time>2021-07-29T07:54:44.000Z</Time>
            <Position>
              <LatitudeDegrees>41.70740311034023761749267578125</LatitudeDegrees>
              <LongitudeDegrees>-2.8317634575068950653076171875</LongitudeDegrees>
            </Position>
            <AltitudeMeters>1072.5999755859375</AltitudeMeters>
            <DistanceMeters>158886.88404068</DistanceMeters>
          </Trackpoint>
          <Trackpoint>
            <Time>2021-07-29T07:55:01.000Z</Time>
            <Position>
              <LatitudeDegrees>41.70787584967911243438720703125</LatitudeDegrees>
              <LongitudeDegrees>-2.8321359492838382720947265625</LongitudeDegrees>
            </Position>
            <AltitudeMeters>1071.5999755859375</AltitudeMeters>
            <DistanceMeters>158947.92921974</DistanceMeters>
          </Trackpoint>
          <Trackpoint>
            <Time>2021-07-29T07:55:06.000Z</Time>
            <Position>
              <LatitudeDegrees>41.70801733620464801788330078125</LatitudeDegrees>
              <LongitudeDegrees>-2.8323045931756496429443359375</LongitudeDegrees>
            </Position>
            <AltitudeMeters>1071.199951171875</AltitudeMeters>
            <DistanceMeters>158969.00909241</DistanceMeters>
          </Trackpoint>
          <Trackpoint>
            <Time>2021-07-29T07:55:19.000Z</Time>
            <Position>
              <LatitudeDegrees>41.70838463120162487030029296875</LatitudeDegrees>
              <LongitudeDegrees>-2.832873724400997161865234375</LongitudeDegrees>
            </Position>
            <AltitudeMeters>1070.4000244140625</AltitudeMeters>
            <DistanceMeters>159031.51977133</DistanceMeters>
          </Trackpoint>
          <Trackpoint>
            <Time>2021-07-29T07:55:23.000Z</Time>
            <Position>
              <LatitudeDegrees>41.708458475768566131591796875</LatitudeDegrees>
              <LongitudeDegrees>-2.83302769996225833892822265625</LongitudeDegrees>
            </Position>
            <AltitudeMeters>1070.4000244140625</AltitudeMeters>
            <DistanceMeters>159046.72671802</DistanceMeters>
          </Trackpoint>
          <Trackpoint>
            <Time>2021-07-29T07:55:25.000Z</Time>
            <Position>
              <LatitudeDegrees>41.7084626667201519012451171875</LatitudeDegrees>
              <LongitudeDegrees>-2.83304236829280853271484375</LongitudeDegrees>
            </Position>
            <AltitudeMeters>1070.4000244140625</AltitudeMeters>
            <DistanceMeters>159048.03657089</DistanceMeters>
          </Trackpoint>
          <Trackpoint>
            <Time>2021-07-29T07:56:00.000Z</Time>
            <Position>
              <LatitudeDegrees>41.708476245403289794921875</LatitudeDegrees>
              <LongitudeDegrees>-2.83307212404906749725341796875</LongitudeDegrees>
            </Position>
            <AltitudeMeters>1070.199951171875</AltitudeMeters>
            <DistanceMeters>159050.9360538</DistanceMeters>
          </Trackpoint>
          <Trackpoint>
            <Time>2021-07-29T07:56:09.000Z</Time>
            <Position>
              <LatitudeDegrees>41.7085940949618816375732421875</LatitudeDegrees>
              <LongitudeDegrees>-2.8334224037826061248779296875</LongitudeDegrees>
            </Position>
            <AltitudeMeters>1069.4000244140625</AltitudeMeters>
            <DistanceMeters>159082.860363</DistanceMeters>
          </Trackpoint>
          <Trackpoint>
            <Time>2021-07-29T07:56:16.000Z</Time>
            <Position>
              <LatitudeDegrees>41.7087231762707233428955078125</LatitudeDegrees>
              <LongitudeDegrees>-2.83383973874151706695556640625</LongitudeDegrees>
            </Position>
            <AltitudeMeters>1068.199951171875</AltitudeMeters>
            <DistanceMeters>159120.39555431</DistanceMeters>
          </Trackpoint>
          <Trackpoint>
            <Time>2021-07-29T07:56:20.000Z</Time>
            <Position>
              <LatitudeDegrees>41.70881780795753002166748046875</LatitudeDegrees>
              <LongitudeDegrees>-2.834130339324474334716796875</LongitudeDegrees>
            </Position>
            <AltitudeMeters>1067</AltitudeMeters>
            <DistanceMeters>159146.73904373</DistanceMeters>
          </Trackpoint>
          <Trackpoint>
            <Time>2021-07-29T07:56:23.000Z</Time>
            <Position>
              <LatitudeDegrees>41.70889534056186676025390625</LatitudeDegrees>
              <LongitudeDegrees>-2.8343752585351467132568359375</LongitudeDegrees>
            </Position>
            <AltitudeMeters>1065.5999755859375</AltitudeMeters>
            <DistanceMeters>159168.84373636</DistanceMeters>
          </Trackpoint>
          <Trackpoint>
            <Time>2021-07-29T07:56:26.000Z</Time>
            <Position>
              <LatitudeDegrees>41.70897672884166240692138671875</LatitudeDegrees>
              <LongitudeDegrees>-2.83464624546468257904052734375</LongitudeDegrees>
            </Position>
            <AltitudeMeters>1064.199951171875</AltitudeMeters>
            <DistanceMeters>159193.11408755</DistanceMeters>
          </Trackpoint>
          <Trackpoint>
            <Time>2021-07-29T07:56:28.000Z</Time>
            <Position>
              <LatitudeDegrees>41.70902836136519908905029296875</LatitudeDegrees>
              <LongitudeDegrees>-2.8348422981798648834228515625</LongitudeDegrees>
            </Position>
            <AltitudeMeters>1063</AltitudeMeters>
            <DistanceMeters>159210.38805195</DistanceMeters>
          </Trackpoint>
          <Trackpoint>
            <Time>2021-07-29T07:56:30.000Z</Time>
            <Position>
              <LatitudeDegrees>41.709078736603260040283203125</LatitudeDegrees>
              <LongitudeDegrees>-2.8350528515875339508056640625</LongitudeDegrees>
            </Position>
            <AltitudeMeters>1061.4000244140625</AltitudeMeters>
            <DistanceMeters>159228.75944648</DistanceMeters>
          </Trackpoint>
          <Trackpoint>
            <Time>2021-07-29T07:56:32.000Z</Time>
            <Position>
              <LatitudeDegrees>41.7091291956603527069091796875</LatitudeDegrees>
              <LongitudeDegrees>-2.8352791629731655120849609375</LongitudeDegrees>
            </Position>
            <AltitudeMeters>1059.800048828125</AltitudeMeters>
            <DistanceMeters>159248.38424611</DistanceMeters>
          </Trackpoint>
          <Trackpoint>
            <Time>2021-07-29T07:56:34.000Z</Time>
            <Position>
              <LatitudeDegrees>41.709184348583221435546875</LatitudeDegrees>
              <LongitudeDegrees>-2.8355141915380954742431640625</LongitudeDegrees>
            </Position>
            <AltitudeMeters>1058.4000244140625</AltitudeMeters>
            <DistanceMeters>159268.85495023</DistanceMeters>
          </Trackpoint>
          <Trackpoint>
            <Time>2021-07-29T07:56:37.000Z</Time>
            <Position>
              <LatitudeDegrees>41.70926422812044620513916015625</LatitudeDegrees>
              <LongitudeDegrees>-2.8358769603073596954345703125</LongitudeDegrees>
            </Position>
            <AltitudeMeters>1057.199951171875</AltitudeMeters>
            <DistanceMeters>159300.28150733</DistanceMeters>
          </Trackpoint>
          <Trackpoint>
            <Time>2021-07-29T07:56:41.000Z</Time>
            <Position>
              <LatitudeDegrees>41.70936447568237781524658203125</LatitudeDegrees>
              <LongitudeDegrees>-2.83638574182987213134765625</LongitudeDegrees>
            </Position>
            <AltitudeMeters>1056.199951171875</AltitudeMeters>
            <DistanceMeters>159344.00402044</DistanceMeters>
          </Trackpoint>
          <Trackpoint>
            <Time>2021-07-29T07:56:43.000Z</Time>
            <Position>
              <LatitudeDegrees>41.70941091142594814300537109375</LatitudeDegrees>
              <LongitudeDegrees>-2.83665262162685394287109375</LongitudeDegrees>
            </Position>
            <AltitudeMeters>1053.800048828125</AltitudeMeters>
            <DistanceMeters>159366.77357926</DistanceMeters>
          </Trackpoint>
          <Trackpoint>
            <Time>2021-07-29T07:56:45.000Z</Time>
            <Position>
              <LatitudeDegrees>41.7094587720930576324462890625</LatitudeDegrees>
              <LongitudeDegrees>-2.83692528493702411651611328125</LongitudeDegrees>
            </Position>
            <AltitudeMeters>1052.4000244140625</AltitudeMeters>
            <DistanceMeters>159390.04717171</DistanceMeters>
          </Trackpoint>
          <Trackpoint>
            <Time>2021-07-29T07:56:48.000Z</Time>
            <Position>
              <LatitudeDegrees>41.709540076553821563720703125</LatitudeDegrees>
              <LongitudeDegrees>-2.83734303899109363555908203125</LongitudeDegrees>
            </Position>
            <AltitudeMeters>1051.199951171875</AltitudeMeters>
            <DistanceMeters>159425.91846627</DistanceMeters>
          </Trackpoint>
          <Trackpoint>
            <Time>2021-07-29T07:56:51.000Z</Time>
            <Position>
              <LatitudeDegrees>41.70965708792209625244140625</LatitudeDegrees>
              <LongitudeDegrees>-2.83776280470192432403564453125</LongitudeDegrees>
            </Position>
            <AltitudeMeters>1049.800048828125</AltitudeMeters>
            <DistanceMeters>159463.14881241</DistanceMeters>
          </Trackpoint>
          <Trackpoint>
            <Time>2021-07-29T07:56:53.000Z</Time>
            <Position>
              <LatitudeDegrees>41.7097625322639942169189453125</LatitudeDegrees>
              <LongitudeDegrees>-2.83803085796535015106201171875</LongitudeDegrees>
            </Position>
            <AltitudeMeters>1048.4000244140625</AltitudeMeters>
            <DistanceMeters>159488.3242569</DistanceMeters>
          </Trackpoint>
          <Trackpoint>
            <Time>2021-07-29T07:56:55.000Z</Time>
            <Position>
              <LatitudeDegrees>41.70987040735781192779541015625</LatitudeDegrees>
              <LongitudeDegrees>-2.83829857595264911651611328125</LongitudeDegrees>
            </Position>
            <AltitudeMeters>1046.800048828125</AltitudeMeters>
            <DistanceMeters>159513.60243463</DistanceMeters>
          </Trackpoint>
          <Trackpoint>
            <Time>2021-07-29T07:56:57.000Z</Time>
            <Position>
              <LatitudeDegrees>41.70998205430805683135986328125</LatitudeDegrees>
              <LongitudeDegrees>-2.83856780268251895904541015625</LongitudeDegrees>
            </Position>
            <AltitudeMeters>1045.5999755859375</AltitudeMeters>
            <DistanceMeters>159539.19198374</DistanceMeters>
          </Trackpoint>
          <Trackpoint>
            <Time>2021-07-29T07:57:00.000Z</Time>
            <Position>
              <LatitudeDegrees>41.7101514525711536407470703125</LatitudeDegrees>
              <LongitudeDegrees>-2.83897080458700656890869140625</LongitudeDegrees>
            </Position>
            <AltitudeMeters>1044.4000244140625</AltitudeMeters>
            <DistanceMeters>159577.62039226</DistanceMeters>
          </Trackpoint>
          <Trackpoint>
            <Time>2021-07-29T07:57:03.000Z</Time>
            <Position>
              <LatitudeDegrees>41.710317246615886688232421875</LatitudeDegrees>
              <LongitudeDegrees>-2.839373052120208740234375</LongitudeDegrees>
            </Position>
            <AltitudeMeters>1043.199951171875</AltitudeMeters>
            <DistanceMeters>159615.79855001</DistanceMeters>
          </Trackpoint>
          <Trackpoint>
            <Time>2021-07-29T07:57:06.000Z</Time>
            <Position>
              <LatitudeDegrees>41.7104811966419219970703125</LatitudeDegrees>
              <LongitudeDegrees>-2.8397795744240283966064453125</LongitudeDegrees>
            </Position>
            <AltitudeMeters>1042.199951171875</AltitudeMeters>
            <DistanceMeters>159654.19004825</DistanceMeters>
          </Trackpoint>
          <Trackpoint>
            <Time>2021-07-29T07:57:08.000Z</Time>
            <Position>
              <LatitudeDegrees>41.7105889879167079925537109375</LatitudeDegrees>
              <LongitudeDegrees>-2.84005441702902317047119140625</LongitudeDegrees>
            </Position>
            <AltitudeMeters>1040</AltitudeMeters>
            <DistanceMeters>159679.98590709</DistanceMeters>
          </Trackpoint>
          <Trackpoint>
            <Time>2021-07-29T07:57:09.000Z</Time>
            <Position>
              <LatitudeDegrees>41.7106433026492595672607421875</LatitudeDegrees>
              <LongitudeDegrees>-2.840191461145877838134765625</LongitudeDegrees>
            </Position>
            <AltitudeMeters>1039</AltitudeMeters>
            <DistanceMeters>159692.87770901</DistanceMeters>
          </Trackpoint>
          <Trackpoint>
            <Time>2021-07-29T07:57:11.000Z</Time>
            <Position>
              <LatitudeDegrees>41.71075503341853618621826171875</LatitudeDegrees>
              <LongitudeDegrees>-2.8404645435512065887451171875</LongitudeDegrees>
            </Position>
            <AltitudeMeters>1037.4000244140625</AltitudeMeters>
            <DistanceMeters>159718.75221128</DistanceMeters>
          </Trackpoint>
          <Trackpoint>
            <Time>2021-07-29T07:57:14.000Z</Time>
            <Position>
              <LatitudeDegrees>41.7109222523868083953857421875</LatitudeDegrees>
              <LongitudeDegrees>-2.84086394123733043670654296875</LongitudeDegrees>
            </Position>
            <AltitudeMeters>1035.800048828125</AltitudeMeters>
            <DistanceMeters>159756.80041407</DistanceMeters>
          </Trackpoint>
          <Trackpoint>
            <Time>2021-07-29T07:57:16.000Z</Time>
            <Position>
              <LatitudeDegrees>41.71106197871267795562744140625</LatitudeDegrees>
              <LongitudeDegrees>-2.84112294204533100128173828125</LongitudeDegrees>
            </Position>
            <AltitudeMeters>1034.5999755859375</AltitudeMeters>
            <DistanceMeters>159783.35183715</DistanceMeters>
          </Trackpoint>
          <Trackpoint>
            <Time>2021-07-29T07:57:18.000Z</Time>
            <Position>
              <LatitudeDegrees>41.7112255096435546875</LatitudeDegrees>
              <LongitudeDegrees>-2.84136467613279819488525390625</LongitudeDegrees>
            </Position>
            <AltitudeMeters>1033</AltitudeMeters>
            <DistanceMeters>159810.45728088</DistanceMeters>
          </Trackpoint>
          <Trackpoint>
            <Time>2021-07-29T07:57:20.000Z</Time>
            <Position>
              <LatitudeDegrees>41.71139557845890522003173828125</LatitudeDegrees>
              <LongitudeDegrees>-2.84160976298153400421142578125</LongitudeDegrees>
            </Position>
            <AltitudeMeters>1031</AltitudeMeters>
            <DistanceMeters>159838.26002542</DistanceMeters>
          </Trackpoint>
          <Trackpoint>
            <Time>2021-07-29T07:57:21.000Z</Time>
            <Position>
              <LatitudeDegrees>41.71148157678544521331787109375</LatitudeDegrees>
              <LongitudeDegrees>-2.8417342342436313629150390625</LongitudeDegrees>
            </Position>
            <AltitudeMeters>1029.4000244140625</AltitudeMeters>
            <DistanceMeters>159852.35220201</DistanceMeters>
          </Trackpoint>
          <Trackpoint>
            <Time>2021-07-29T07:57:22.000Z</Time>
            <Position>
              <LatitudeDegrees>41.71156816184520721435546875</LatitudeDegrees>
              <LongitudeDegrees>-2.84185878932476043701171875</LongitudeDegrees>
            </Position>
            <AltitudeMeters>1028.4000244140625</AltitudeMeters>
            <DistanceMeters>159866.49331381</DistanceMeters>
          </Trackpoint>
          <Trackpoint>
            <Time>2021-07-29T07:57:24.000Z</Time>
            <Position>
              <LatitudeDegrees>41.7117406614124774932861328125</LatitudeDegrees>
              <LongitudeDegrees>-2.84210865385830402374267578125</LongitudeDegrees>
            </Position>
            <AltitudeMeters>1027</AltitudeMeters>
            <DistanceMeters>159894.7709074</DistanceMeters>
          </Trackpoint>
          <Trackpoint>
            <Time>2021-07-29T07:57:26.000Z</Time>
            <Position>
              <LatitudeDegrees>41.7119108140468597412109375</LatitudeDegrees>
              <LongitudeDegrees>-2.84236078150570392608642578125</LongitudeDegrees>
            </Position>
            <AltitudeMeters>1025.800048828125</AltitudeMeters>
            <DistanceMeters>159923.01095398</DistanceMeters>
          </Trackpoint>
          <Trackpoint>
            <Time>2021-07-29T07:57:28.000Z</Time>
            <Position>
              <LatitudeDegrees>41.7120893485844135284423828125</LatitudeDegrees>
              <LongitudeDegrees>-2.8425982408225536346435546875</LongitudeDegrees>
            </Position>
            <AltitudeMeters>1024.5999755859375</AltitudeMeters>
            <DistanceMeters>159951.01305494</DistanceMeters>
          </Trackpoint>
          <Trackpoint>
            <Time>2021-07-29T07:57:29.000Z</Time>
            <Position>
              <LatitudeDegrees>41.71219068579375743865966796875</LatitudeDegrees>
              <LongitudeDegrees>-2.84269823692739009857177734375</LongitudeDegrees>
            </Position>
            <AltitudeMeters>1024.199951171875</AltitudeMeters>
            <DistanceMeters>159965.02168161</DistanceMeters>
          </Trackpoint>
          <Trackpoint>
            <Time>2021-07-29T07:57:31.000Z</Time>
            <Position>
              <LatitudeDegrees>41.71242051757872104644775390625</LatitudeDegrees>
              <LongitudeDegrees>-2.8428325988352298736572265625</LongitudeDegrees>
            </Position>
            <AltitudeMeters>1023</AltitudeMeters>
            <DistanceMeters>159992.93237194</DistanceMeters>
          </Trackpoint>
          <Trackpoint>
            <Time>2021-07-29T07:57:33.000Z</Time>
            <Position>
              <LatitudeDegrees>41.71265906654298305511474609375</LatitudeDegrees>
              <LongitudeDegrees>-2.84289856441318988800048828125</LongitudeDegrees>
            </Position>
            <AltitudeMeters>1022.4000244140625</AltitudeMeters>
            <DistanceMeters>160020.04314549</DistanceMeters>
          </Trackpoint>
          <Trackpoint>
            <Time>2021-07-29T07:57:38.000Z</Time>
            <Position>
              <LatitudeDegrees>41.71319919638335704803466796875</LatitudeDegrees>
              <LongitudeDegrees>-2.84302898682653903961181640625</LongitudeDegrees>
            </Position>
            <AltitudeMeters>1023</AltitudeMeters>
            <DistanceMeters>160081.12950762</DistanceMeters>
          </Trackpoint>
          <Trackpoint>
            <Time>2021-07-29T07:57:42.000Z</Time>
            <Position>
              <LatitudeDegrees>41.71357445418834686279296875</LatitudeDegrees>
              <LongitudeDegrees>-2.843117415904998779296875</LongitudeDegrees>
            </Position>
            <AltitudeMeters>1024.4000244140625</AltitudeMeters>
            <DistanceMeters>160123.53762106</DistanceMeters>
          </Trackpoint>
          <Trackpoint>
            <Time>2021-07-29T07:57:46.000Z</Time>
            <Position>
              <LatitudeDegrees>41.71390880830585956573486328125</LatitudeDegrees>
              <LongitudeDegrees>-2.84320316277444362640380859375</LongitudeDegrees>
            </Position>
            <AltitudeMeters>1025.4000244140625</AltitudeMeters>
            <DistanceMeters>160161.427669</DistanceMeters>
          </Trackpoint>
          <Trackpoint>
            <Time>2021-07-29T07:57:54.000Z</Time>
            <Position>
              <LatitudeDegrees>41.71449369750916957855224609375</LatitudeDegrees>
              <LongitudeDegrees>-2.84334917552769184112548828125</LongitudeDegrees>
            </Position>
            <AltitudeMeters>1026.4000244140625</AltitudeMeters>
            <DistanceMeters>160227.64772202</DistanceMeters>
          </Trackpoint>
          <Trackpoint>
            <Time>2021-07-29T07:58:00.000Z</Time>
            <Position>
              <LatitudeDegrees>41.71484808437526226043701171875</LatitudeDegrees>
              <LongitudeDegrees>-2.8434384427964687347412109375</LongitudeDegrees>
            </Position>
            <AltitudeMeters>1027.5999755859375</AltitudeMeters>
            <DistanceMeters>160267.78275854</DistanceMeters>
          </Trackpoint>
          <Trackpoint>
            <Time>2021-07-29T07:58:11.000Z</Time>
            <Position>
              <LatitudeDegrees>41.7154084146022796630859375</LatitudeDegrees>
              <LongitudeDegrees>-2.8435836173593997955322265625</LongitudeDegrees>
            </Position>
            <AltitudeMeters>1028.199951171875</AltitudeMeters>
            <DistanceMeters>160331.30433227</DistanceMeters>
          </Trackpoint>
          <Trackpoint>
            <Time>2021-07-29T07:58:17.000Z</Time>
            <Position>
              <LatitudeDegrees>41.71568141318857669830322265625</LatitudeDegrees>
              <LongitudeDegrees>-2.84367598593235015869140625</LongitudeDegrees>
            </Position>
            <AltitudeMeters>1028.5999755859375</AltitudeMeters>
            <DistanceMeters>160362.64356063</DistanceMeters>
          </Trackpoint>
          <Trackpoint>
            <Time>2021-07-29T07:58:27.000Z</Time>
            <Position>
              <LatitudeDegrees>41.71606580726802349090576171875</LatitudeDegrees>
              <LongitudeDegrees>-2.84392534755170345306396484375</LongitudeDegrees>
            </Position>
            <AltitudeMeters>1029.800048828125</AltitudeMeters>
            <DistanceMeters>160410.17943381</DistanceMeters>
          </Trackpoint>
          <Trackpoint>
            <Time>2021-07-29T07:58:34.000Z</Time>
            <Position>
              <LatitudeDegrees>41.7162870056927204132080078125</LatitudeDegrees>
              <LongitudeDegrees>-2.8441458754241466522216796875</LongitudeDegrees>
            </Position>
            <AltitudeMeters>1030.800048828125</AltitudeMeters>
            <DistanceMeters>160440.86850211</DistanceMeters>
          </Trackpoint>
          <Trackpoint>
            <Time>2021-07-29T07:58:48.000Z</Time>
            <Position>
              <LatitudeDegrees>41.71666779555380344390869140625</LatitudeDegrees>
              <LongitudeDegrees>-2.8447212092578411102294921875</LongitudeDegrees>
            </Position>
            <AltitudeMeters>1031.5999755859375</AltitudeMeters>
            <DistanceMeters>160504.75169065</DistanceMeters>
          </Trackpoint>
          <Trackpoint>
            <Time>2021-07-29T07:58:49.000Z</Time>
            <Position>
              <LatitudeDegrees>41.71669277362525463104248046875</LatitudeDegrees>
              <LongitudeDegrees>-2.8447644598782062530517578125</LongitudeDegrees>
            </Position>
            <AltitudeMeters>1032</AltitudeMeters>
            <DistanceMeters>160509.29512049</DistanceMeters>
          </Trackpoint>
          <Trackpoint>
            <Time>2021-07-29T07:59:00.000Z</Time>
            <Position>
              <LatitudeDegrees>41.71697541140019893646240234375</LatitudeDegrees>
              <LongitudeDegrees>-2.8452234528958797454833984375</LongitudeDegrees>
            </Position>
            <AltitudeMeters>1033.199951171875</AltitudeMeters>
            <DistanceMeters>160558.72965769</DistanceMeters>
          </Trackpoint>
          <Trackpoint>
            <Time>2021-07-29T07:59:08.000Z</Time>
            <Position>
              <LatitudeDegrees>41.71717531979084014892578125</LatitudeDegrees>
              <LongitudeDegrees>-2.84556417725980281829833984375</LongitudeDegrees>
            </Position>
            <AltitudeMeters>1034.4000244140625</AltitudeMeters>
            <DistanceMeters>160594.73487723</DistanceMeters>
          </Trackpoint>
          <Trackpoint>
            <Time>2021-07-29T07:59:18.000Z</Time>
            <Position>
              <LatitudeDegrees>41.71741948463022708892822265625</LatitudeDegrees>
              <LongitudeDegrees>-2.84596969373524188995361328125</LongitudeDegrees>
            </Position>
            <AltitudeMeters>1035.4000244140625</AltitudeMeters>
            <DistanceMeters>160638.01972817</DistanceMeters>
          </Trackpoint>
          <Trackpoint>
            <Time>2021-07-29T07:59:27.000Z</Time>
            <Position>
              <LatitudeDegrees>41.71763188205659389495849609375</LatitudeDegrees>
              <LongitudeDegrees>-2.8463298641145229339599609375</LongitudeDegrees>
            </Position>
            <AltitudeMeters>1036.4000244140625</AltitudeMeters>
            <DistanceMeters>160676.15422215</DistanceMeters>
          </Trackpoint>
          <Trackpoint>
            <Time>2021-07-29T07:59:34.000Z</Time>
            <Position>
              <LatitudeDegrees>41.71779583208262920379638671875</LatitudeDegrees>
              <LongitudeDegrees>-2.84659984521567821502685546875</LongitudeDegrees>
            </Position>
            <AltitudeMeters>1037.5999755859375</AltitudeMeters>
            <DistanceMeters>160705.06952567</DistanceMeters>
          </Trackpoint>
          <Trackpoint>
            <Time>2021-07-29T07:59:43.000Z</Time>
            <Position>
              <LatitudeDegrees>41.7180120013654232025146484375</LatitudeDegrees>
              <LongitudeDegrees>-2.84694517962634563446044921875</LongitudeDegrees>
            </Position>
            <AltitudeMeters>1038.5999755859375</AltitudeMeters>
            <DistanceMeters>160742.51294524</DistanceMeters>
          </Trackpoint>
          <Trackpoint>
            <Time>2021-07-29T07:59:51.000Z</Time>
            <Position>
              <LatitudeDegrees>41.718200258910655975341796875</LatitudeDegrees>
              <LongitudeDegrees>-2.84725447185337543487548828125</LongitudeDegrees>
            </Position>
            <AltitudeMeters>1039.800048828125</AltitudeMeters>
            <DistanceMeters>160775.66896288</DistanceMeters>
          </Trackpoint>
          <Trackpoint>
            <Time>2021-07-29T07:59:59.000Z</Time>
            <Position>
              <LatitudeDegrees>41.71838675625622272491455078125</LatitudeDegrees>
              <LongitudeDegrees>-2.84756074659526348114013671875</LongitudeDegrees>
            </Position>
            <AltitudeMeters>1040.800048828125</AltitudeMeters>
            <DistanceMeters>160808.50670867</DistanceMeters>
          </Trackpoint>
          <Trackpoint>
            <Time>2021-07-29T08:00:13.000Z</Time>
            <Position>
              <LatitudeDegrees>41.71874650754034519195556640625</LatitudeDegrees>
              <LongitudeDegrees>-2.848159633576869964599609375</LongitudeDegrees>
            </Position>
            <AltitudeMeters>1040.800048828125</AltitudeMeters>
            <DistanceMeters>160872.37222565</DistanceMeters>
          </Trackpoint>
          <Trackpoint>
            <Time>2021-07-29T08:00:19.000Z</Time>
            <Position>
              <LatitudeDegrees>41.7189521156251430511474609375</LatitudeDegrees>
              <LongitudeDegrees>-2.84849784336984157562255859375</LongitudeDegrees>
            </Position>
            <AltitudeMeters>1039.800048828125</AltitudeMeters>
            <DistanceMeters>160908.61018692</DistanceMeters>
          </Trackpoint>
          <Trackpoint>
            <Time>2021-07-29T08:00:23.000Z</Time>
            <Position>
              <LatitudeDegrees>41.7191073484718799591064453125</LatitudeDegrees>
              <LongitudeDegrees>-2.8487487137317657470703125</LongitudeDegrees>
            </Position>
            <AltitudeMeters>1038.800048828125</AltitudeMeters>
            <DistanceMeters>160935.68229553</DistanceMeters>
          </Trackpoint>
          <Trackpoint>
            <Time>2021-07-29T08:00:28.000Z</Time>
            <Position>
              <LatitudeDegrees>41.719308681786060333251953125</LatitudeDegrees>
              <LongitudeDegrees>-2.84907820634543895721435546875</LongitudeDegrees>
            </Position>
            <AltitudeMeters>1037.800048828125</AltitudeMeters>
            <DistanceMeters>160971.05827939</DistanceMeters>
          </Trackpoint>
          <Trackpoint>
            <Time>2021-07-29T08:00:37.000Z</Time>
            <Position>
              <LatitudeDegrees>41.71964965760707855224609375</LatitudeDegrees>
              <LongitudeDegrees>-2.84963828511536121368408203125</LongitudeDegrees>
            </Position>
            <AltitudeMeters>1037.4000244140625</AltitudeMeters>
            <DistanceMeters>161031.10253141</DistanceMeters>
          </Trackpoint>
          <Trackpoint>
            <Time>2021-07-29T08:00:47.000Z</Time>
            <Position>
              <LatitudeDegrees>41.71999700367450714111328125</LatitudeDegrees>
              <LongitudeDegrees>-2.85019920207560062408447265625</LongitudeDegrees>
            </Position>
            <AltitudeMeters>1037.5999755859375</AltitudeMeters>
            <DistanceMeters>161091.65088131</DistanceMeters>
          </Trackpoint>
          <Trackpoint>
            <Time>2021-07-29T08:00:58.000Z</Time>
            <Position>
              <LatitudeDegrees>41.720374524593353271484375</LatitudeDegrees>
              <LongitudeDegrees>-2.85080437548458576202392578125</LongitudeDegrees>
            </Position>
            <AltitudeMeters>1037.4000244140625</AltitudeMeters>
            <DistanceMeters>161157.17343745</DistanceMeters>
          </Trackpoint>
          <Trackpoint>
            <Time>2021-07-29T08:01:09.000Z</Time>
            <Position>
              <LatitudeDegrees>41.72073402442038059234619140625</LatitudeDegrees>
              <LongitudeDegrees>-2.85139806568622589111328125</LongitudeDegrees>
            </Position>
            <AltitudeMeters>1037.5999755859375</AltitudeMeters>
            <DistanceMeters>161220.68427737</DistanceMeters>
          </Trackpoint>
          <Trackpoint>
            <Time>2021-07-29T08:01:14.000Z</Time>
            <Position>
              <LatitudeDegrees>41.7208866588771343231201171875</LatitudeDegrees>
              <LongitudeDegrees>-2.85163720138370990753173828125</LongitudeDegrees>
            </Position>
            <AltitudeMeters>1037.5999755859375</AltitudeMeters>
            <DistanceMeters>161246.82405213</DistanceMeters>
          </Trackpoint>
          <Trackpoint>
            <Time>2021-07-29T08:01:21.000Z</Time>
            <Position>
              <LatitudeDegrees>41.72105924226343631744384765625</LatitudeDegrees>
              <LongitudeDegrees>-2.85147048532962799072265625</LongitudeDegrees>
            </Position>
            <AltitudeMeters>1039</AltitudeMeters>
            <DistanceMeters>161270.50534997</DistanceMeters>
          </Trackpoint>
          <Trackpoint>
            <Time>2021-07-29T08:01:23.000Z</Time>
            <Position>
              <LatitudeDegrees>41.7210965417325496673583984375</LatitudeDegrees>
              <LongitudeDegrees>-2.85139940679073333740234375</LongitudeDegrees>
            </Position>
            <AltitudeMeters>1039.800048828125</AltitudeMeters>
            <DistanceMeters>161277.72362823</DistanceMeters>
          </Trackpoint>
          <Trackpoint>
            <Time>2021-07-29T08:01:25.000Z</Time>
            <Position>
              <LatitudeDegrees>41.72113384120166301727294921875</LatitudeDegrees>
              <LongitudeDegrees>-2.85133092664182186126708984375</LongitudeDegrees>
            </Position>
            <AltitudeMeters>1040.199951171875</AltitudeMeters>
            <DistanceMeters>161284.76587076</DistanceMeters>
          </Trackpoint>
          <Trackpoint>
            <Time>2021-07-29T08:01:30.000Z</Time>
            <Position>
              <LatitudeDegrees>41.72123157419264316558837890625</LatitudeDegrees>
              <LongitudeDegrees>-2.85116110928356647491455078125</LongitudeDegrees>
            </Position>
            <AltitudeMeters>1041.4000244140625</AltitudeMeters>
            <DistanceMeters>161302.58027523</DistanceMeters>
          </Trackpoint>
          <Trackpoint>
            <Time>2021-07-29T08:01:40.000Z</Time>
            <Position>
              <LatitudeDegrees>41.72142787836492061614990234375</LatitudeDegrees>
              <LongitudeDegrees>-2.850810326635837554931640625</LongitudeDegrees>
            </Position>
            <AltitudeMeters>1042.4000244140625</AltitudeMeters>
            <DistanceMeters>161339.00266491</DistanceMeters>
          </Trackpoint>
          <Trackpoint>
            <Time>2021-07-29T08:01:50.000Z</Time>
            <Position>
              <LatitudeDegrees>41.721609346568584442138671875</LatitudeDegrees>
              <LongitudeDegrees>-2.850463651120662689208984375</LongitudeDegrees>
            </Position>
            <AltitudeMeters>1043.5999755859375</AltitudeMeters>
            <DistanceMeters>161374.17923915</DistanceMeters>
          </Trackpoint>
          <Trackpoint>
            <Time>2021-07-29T08:02:03.000Z</Time>
            <Position>
              <LatitudeDegrees>41.7218375019729137420654296875</LatitudeDegrees>
              <LongitudeDegrees>-2.84999887458980083465576171875</LongitudeDegrees>
            </Position>
            <AltitudeMeters>1044.5999755859375</AltitudeMeters>
            <DistanceMeters>161420.39271467</DistanceMeters>
          </Trackpoint>
          <Trackpoint>
            <Time>2021-07-29T08:02:21.000Z</Time>
            <Position>
              <LatitudeDegrees>41.72183607704937458038330078125</LatitudeDegrees>
              <LongitudeDegrees>-2.84926847554743289947509765625</LongitudeDegrees>
            </Position>
            <AltitudeMeters>1046</AltitudeMeters>
            <DistanceMeters>161481.07008086</DistanceMeters>
          </Trackpoint>
          <Trackpoint>
            <Time>2021-07-29T08:02:32.000Z</Time>
            <Position>
              <LatitudeDegrees>41.72179182060062885284423828125</LatitudeDegrees>
              <LongitudeDegrees>-2.8488746099174022674560546875</LongitudeDegrees>
            </Position>
            <AltitudeMeters>1047.199951171875</AltitudeMeters>
            <DistanceMeters>161514.15875941</DistanceMeters>
          </Trackpoint>
          <Trackpoint>
            <Time>2021-07-29T08:02:41.000Z</Time>
            <Position>
              <LatitudeDegrees>41.7217518389225006103515625</LatitudeDegrees>
              <LongitudeDegrees>-2.8485594503581523895263671875</LongitudeDegrees>
            </Position>
            <AltitudeMeters>1048.199951171875</AltitudeMeters>
            <DistanceMeters>161540.7156235</DistanceMeters>
          </Trackpoint>
          <Trackpoint>
            <Time>2021-07-29T08:02:48.000Z</Time>
            <Position>
              <LatitudeDegrees>41.72171990387141704559326171875</LatitudeDegrees>
              <LongitudeDegrees>-2.8483063168823719024658203125</LongitudeDegrees>
            </Position>
            <AltitudeMeters>1049.199951171875</AltitudeMeters>
            <DistanceMeters>161562.04271779</DistanceMeters>
          </Trackpoint>
          <Trackpoint>
            <Time>2021-07-29T08:03:02.000Z</Time>
            <Position>
              <LatitudeDegrees>41.72166827134788036346435546875</LatitudeDegrees>
              <LongitudeDegrees>-2.8477903269231319427490234375</LongitudeDegrees>
            </Position>
            <AltitudeMeters>1050.4000244140625</AltitudeMeters>
            <DistanceMeters>161605.29177563</DistanceMeters>
          </Trackpoint>
          <Trackpoint>
            <Time>2021-07-29T08:03:15.000Z</Time>
            <Position>
              <LatitudeDegrees>41.7216165550053119659423828125</LatitudeDegrees>
              <LongitudeDegrees>-2.84731666557490825653076171875</LongitudeDegrees>
            </Position>
            <AltitudeMeters>1051.5999755859375</AltitudeMeters>
            <DistanceMeters>161645.05963248</DistanceMeters>
          </Trackpoint>
          <Trackpoint>
            <Time>2021-07-29T08:03:25.000Z</Time>
            <Position>
              <LatitudeDegrees>41.72157724387943744659423828125</LatitudeDegrees>
              <LongitudeDegrees>-2.84696093760430812835693359375</LongitudeDegrees>
            </Position>
            <AltitudeMeters>1052.5999755859375</AltitudeMeters>
            <DistanceMeters>161674.93371012</DistanceMeters>
          </Trackpoint>
          <Trackpoint>
            <Time>2021-07-29T08:03:34.000Z</Time>
            <Position>
              <LatitudeDegrees>41.72154891304671764373779296875</LatitudeDegrees>
              <LongitudeDegrees>-2.846677042543888092041015625</LongitudeDegrees>
            </Position>
            <AltitudeMeters>1053.5999755859375</AltitudeMeters>
            <DistanceMeters>161698.72798954</DistanceMeters>
          </Trackpoint>
          <Trackpoint>
            <Time>2021-07-29T08:03:40.000Z</Time>
            <Position>
              <LatitudeDegrees>41.721535585820674896240234375</LatitudeDegrees>
              <LongitudeDegrees>-2.84651736728847026824951171875</LongitudeDegrees>
            </Position>
            <AltitudeMeters>1055</AltitudeMeters>
            <DistanceMeters>161712.07577618</DistanceMeters>
          </Trackpoint>
          <Trackpoint>
            <Time>2021-07-29T08:03:47.000Z</Time>
            <Position>
              <LatitudeDegrees>41.72151287086308002471923828125</LatitudeDegrees>
              <LongitudeDegrees>-2.84633363597095012664794921875</LongitudeDegrees>
            </Position>
            <AltitudeMeters>1056.199951171875</AltitudeMeters>
            <DistanceMeters>161727.54733933</DistanceMeters>
          </Trackpoint>
          <Trackpoint>
            <Time>2021-07-29T08:03:54.000Z</Time>
            <Position>
              <LatitudeDegrees>41.7214871384203433990478515625</LatitudeDegrees>
              <LongitudeDegrees>-2.8461571969091892242431640625</LongitudeDegrees>
            </Position>
            <AltitudeMeters>1057.199951171875</AltitudeMeters>
            <DistanceMeters>161742.48195979</DistanceMeters>
          </Trackpoint>
          <Trackpoint>
            <Time>2021-07-29T08:04:00.000Z</Time>
            <Position>
              <LatitudeDegrees>41.72146593220531940460205078125</LatitudeDegrees>
              <LongitudeDegrees>-2.84601462073624134063720703125</LongitudeDegrees>
            </Position>
            <AltitudeMeters>1058.4000244140625</AltitudeMeters>
            <DistanceMeters>161754.55895423</DistanceMeters>
          </Trackpoint>
          <Trackpoint>
            <Time>2021-07-29T08:04:07.000Z</Time>
            <Position>
              <LatitudeDegrees>41.72143693082034587860107421875</LatitudeDegrees>
              <LongitudeDegrees>-2.84586877562105655670166015625</LongitudeDegrees>
            </Position>
            <AltitudeMeters>1059.5999755859375</AltitudeMeters>
            <DistanceMeters>161767.09780031</DistanceMeters>
          </Trackpoint>
          <Trackpoint>
            <Time>2021-07-29T08:04:13.000Z</Time>
            <Position>
              <LatitudeDegrees>41.72141044400632381439208984375</LatitudeDegrees>
              <LongitudeDegrees>-2.845751009881496429443359375</LongitudeDegrees>
            </Position>
            <AltitudeMeters>1060.800048828125</AltitudeMeters>
            <DistanceMeters>161777.3157132</DistanceMeters>
          </Trackpoint>
          <Trackpoint>
            <Time>2021-07-29T08:04:20.000Z</Time>
            <Position>
              <LatitudeDegrees>41.7213751561939716339111328125</LatitudeDegrees>
              <LongitudeDegrees>-2.84563257358968257904052734375</LongitudeDegrees>
            </Position>
            <AltitudeMeters>1061.800048828125</AltitudeMeters>
            <DistanceMeters>161787.90938065</DistanceMeters>
          </Trackpoint>
          <Trackpoint>
            <Time>2021-07-29T08:04:28.000Z</Time>
            <Position>
              <LatitudeDegrees>41.72133140265941619873046875</LatitudeDegrees>
              <LongitudeDegrees>-2.84551723860204219818115234375</LongitudeDegrees>
            </Position>
            <AltitudeMeters>1062.800048828125</AltitudeMeters>
            <DistanceMeters>161798.65706588</DistanceMeters>
          </Trackpoint>
          <Trackpoint>
            <Time>2021-07-29T08:04:35.000Z</Time>
            <Position>
              <LatitudeDegrees>41.7212853021919727325439453125</LatitudeDegrees>
              <LongitudeDegrees>-2.84542202018201351165771484375</LongitudeDegrees>
            </Position>
            <AltitudeMeters>1064</AltitudeMeters>
            <DistanceMeters>161808.08532513</DistanceMeters>
          </Trackpoint>
          <Trackpoint>
            <Time>2021-07-29T08:04:42.000Z</Time>
            <Position>
              <LatitudeDegrees>41.7212403751909732818603515625</LatitudeDegrees>
              <LongitudeDegrees>-2.84532126970589160919189453125</LongitudeDegrees>
            </Position>
            <AltitudeMeters>1065</AltitudeMeters>
            <DistanceMeters>161817.83471407</DistanceMeters>
          </Trackpoint>
          <Trackpoint>
            <Time>2021-07-29T08:04:48.000Z</Time>
            <Position>
              <LatitudeDegrees>41.72120173461735248565673828125</LatitudeDegrees>
              <LongitudeDegrees>-2.845240719616413116455078125</LongitudeDegrees>
            </Position>
            <AltitudeMeters>1066</AltitudeMeters>
            <DistanceMeters>161825.78919366</DistanceMeters>
          </Trackpoint>
          <Trackpoint>
            <Time>2021-07-29T08:04:57.000Z</Time>
            <Position>
              <LatitudeDegrees>41.72114440239965915679931640625</LatitudeDegrees>
              <LongitudeDegrees>-2.845116667449474334716796875</LongitudeDegrees>
            </Position>
            <AltitudeMeters>1067.199951171875</AltitudeMeters>
            <DistanceMeters>161837.91059514</DistanceMeters>
          </Trackpoint>
          <Trackpoint>
            <Time>2021-07-29T08:05:05.000Z</Time>
            <Position>
              <LatitudeDegrees>41.721088327467441558837890625</LatitudeDegrees>
              <LongitudeDegrees>-2.8450118936598300933837890625</LongitudeDegrees>
            </Position>
            <AltitudeMeters>1068.199951171875</AltitudeMeters>
            <DistanceMeters>161848.6212483</DistanceMeters>
          </Trackpoint>
          <Trackpoint>
            <Time>2021-07-29T08:05:10.000Z</Time>
            <Position>
              <LatitudeDegrees>41.7210542969405651092529296875</LatitudeDegrees>
              <LongitudeDegrees>-2.84494492225348949432373046875</LongitudeDegrees>
            </Position>
            <AltitudeMeters>1069.199951171875</AltitudeMeters>
            <DistanceMeters>161855.35206501</DistanceMeters>
          </Trackpoint>
          <Trackpoint>
            <Time>2021-07-29T08:05:16.000Z</Time>
            <Position>
              <LatitudeDegrees>41.72101783566176891326904296875</LatitudeDegrees>
              <LongitudeDegrees>-2.84486261196434497833251953125</LongitudeDegrees>
            </Position>
            <AltitudeMeters>1070.4000244140625</AltitudeMeters>
            <DistanceMeters>161863.30370605</DistanceMeters>
          </Trackpoint>
          <Trackpoint>
            <Time>2021-07-29T08:05:24.000Z</Time>
            <Position>
              <LatitudeDegrees>41.720958910882472991943359375</LatitudeDegrees>
              <LongitudeDegrees>-2.84476035274565219879150390625</LongitudeDegrees>
            </Position>
            <AltitudeMeters>1071.4000244140625</AltitudeMeters>
            <DistanceMeters>161874.03625725</DistanceMeters>
          </Trackpoint>
          <Trackpoint>
            <Time>2021-07-29T08:05:31.000Z</Time>
            <Position>
              <LatitudeDegrees>41.7209123075008392333984375</LatitudeDegrees>
              <LongitudeDegrees>-2.8446702472865581512451171875</LongitudeDegrees>
            </Position>
            <AltitudeMeters>1072.4000244140625</AltitudeMeters>
            <DistanceMeters>161883.1439618</DistanceMeters>
          </Trackpoint>
          <Trackpoint>
            <Time>2021-07-29T08:05:38.000Z</Time>
            <Position>
              <LatitudeDegrees>41.72085874713957309722900390625</LatitudeDegrees>
              <LongitudeDegrees>-2.8445859253406524658203125</LongitudeDegrees>
            </Position>
            <AltitudeMeters>1073.800048828125</AltitudeMeters>
            <DistanceMeters>161892.34242995</DistanceMeters>
          </Trackpoint>
          <Trackpoint>
            <Time>2021-07-29T08:05:46.000Z</Time>
            <Position>
              <LatitudeDegrees>41.7208085395395755767822265625</LatitudeDegrees>
              <LongitudeDegrees>-2.84448408521711826324462890625</LongitudeDegrees>
            </Position>
            <AltitudeMeters>1074.800048828125</AltitudeMeters>
            <DistanceMeters>161902.48227464</DistanceMeters>
          </Trackpoint>
          <Trackpoint>
            <Time>2021-07-29T08:05:54.000Z</Time>
            <Position>
              <LatitudeDegrees>41.72075715847313404083251953125</LatitudeDegrees>
              <LongitudeDegrees>-2.84438936971127986907958984375</LongitudeDegrees>
            </Position>
            <AltitudeMeters>1076</AltitudeMeters>
            <DistanceMeters>161912.2094089</DistanceMeters>
          </Trackpoint>
          <Trackpoint>
            <Time>2021-07-29T08:06:02.000Z</Time>
            <Position>
              <LatitudeDegrees>41.72069379128515720367431640625</LatitudeDegrees>
              <LongitudeDegrees>-2.84430253319442272186279296875</LongitudeDegrees>
            </Position>
            <AltitudeMeters>1077</AltitudeMeters>
            <DistanceMeters>161922.29836433</DistanceMeters>
          </Trackpoint>
          <Trackpoint>
            <Time>2021-07-29T08:06:07.000Z</Time>
            <Position>
              <LatitudeDegrees>41.7206680588424205780029296875</LatitudeDegrees>
              <LongitudeDegrees>-2.84422961063683032989501953125</LongitudeDegrees>
            </Position>
            <AltitudeMeters>1078</AltitudeMeters>
            <DistanceMeters>161928.998927</DistanceMeters>
          </Trackpoint>
          <Trackpoint>
            <Time>2021-07-29T08:06:17.000Z</Time>
            <Position>
              <LatitudeDegrees>41.72061315737664699554443359375</LatitudeDegrees>
              <LongitudeDegrees>-2.84408896230161190032958984375</LongitudeDegrees>
            </Position>
            <AltitudeMeters>1079.199951171875</AltitudeMeters>
            <DistanceMeters>161942.18471829</DistanceMeters>
          </Trackpoint>
          <Trackpoint>
            <Time>2021-07-29T08:06:27.000Z</Time>
            <Position>
              <LatitudeDegrees>41.72056470997631549835205078125</LatitudeDegrees>
              <LongitudeDegrees>-2.8439457155764102935791015625</LongitudeDegrees>
            </Position>
            <AltitudeMeters>1080.4000244140625</AltitudeMeters>
            <DistanceMeters>161955.24976842</DistanceMeters>
          </Trackpoint>
          <Trackpoint>
            <Time>2021-07-29T08:06:35.000Z</Time>
            <Position>
              <LatitudeDegrees>41.72052782960236072540283203125</LatitudeDegrees>
              <LongitudeDegrees>-2.8438260219991207122802734375</LongitudeDegrees>
            </Position>
            <AltitudeMeters>1081.4000244140625</AltitudeMeters>
            <DistanceMeters>161966.00753119</DistanceMeters>
          </Trackpoint>
          <Trackpoint>
            <Time>2021-07-29T08:06:43.000Z</Time>
            <Position>
              <LatitudeDegrees>41.7205094732344150543212890625</LatitudeDegrees>
              <LongitudeDegrees>-2.8436976112425327301025390625</LongitudeDegrees>
            </Position>
            <AltitudeMeters>1082.4000244140625</AltitudeMeters>
            <DistanceMeters>161976.86888095</DistanceMeters>
          </Trackpoint>
          <Trackpoint>
            <Time>2021-07-29T08:06:53.000Z</Time>
            <Position>
              <LatitudeDegrees>41.7204977385699748992919921875</LatitudeDegrees>
              <LongitudeDegrees>-2.8435370139777660369873046875</LongitudeDegrees>
            </Position>
            <AltitudeMeters>1083.4000244140625</AltitudeMeters>
            <DistanceMeters>161990.27404866</DistanceMeters>
          </Trackpoint>
          <Trackpoint>
            <Time>2021-07-29T08:06:59.000Z</Time>
            <Position>
              <LatitudeDegrees>41.72050905413925647735595703125</LatitudeDegrees>
              <LongitudeDegrees>-2.84343651495873928070068359375</LongitudeDegrees>
            </Position>
            <AltitudeMeters>1084.5999755859375</AltitudeMeters>
            <DistanceMeters>161998.71699977</DistanceMeters>
          </Trackpoint>
          <Trackpoint>
            <Time>2021-07-29T08:07:08.000Z</Time>
            <Position>
              <LatitudeDegrees>41.7205252312123775482177734375</LatitudeDegrees>
              <LongitudeDegrees>-2.843284718692302703857421875</LongitudeDegrees>
            </Position>
            <AltitudeMeters>1085.5999755859375</AltitudeMeters>
            <DistanceMeters>162011.45554261</DistanceMeters>
          </Trackpoint>
          <Trackpoint>
            <Time>2021-07-29T08:07:15.000Z</Time>
            <Position>
              <LatitudeDegrees>41.720541827380657196044921875</LatitudeDegrees>
              <LongitudeDegrees>-2.84317080862820148468017578125</LongitudeDegrees>
            </Position>
            <AltitudeMeters>1087</AltitudeMeters>
            <DistanceMeters>162021.09689142</DistanceMeters>
          </Trackpoint>
          <Trackpoint>
            <Time>2021-07-29T08:07:25.000Z</Time>
            <Position>
              <LatitudeDegrees>41.72057845629751682281494140625</LatitudeDegrees>
              <LongitudeDegrees>-2.84300736151635646820068359375</LongitudeDegrees>
            </Position>
            <AltitudeMeters>1088.199951171875</AltitudeMeters>
            <DistanceMeters>162035.27403646</DistanceMeters>
          </Trackpoint>
          <Trackpoint>
            <Time>2021-07-29T08:07:28.000Z</Time>
            <Position>
              <LatitudeDegrees>41.7205889336764812469482421875</LatitudeDegrees>
              <LongitudeDegrees>-2.84295757301151752471923828125</LongitudeDegrees>
            </Position>
            <AltitudeMeters>1088.800048828125</AltitudeMeters>
            <DistanceMeters>162039.57235432</DistanceMeters>
          </Trackpoint>
          <Trackpoint>
            <Time>2021-07-29T08:07:34.000Z</Time>
            <Position>
              <LatitudeDegrees>41.7206144146621227264404296875</LatitudeDegrees>
              <LongitudeDegrees>-2.8428617678582668304443359375</LongitudeDegrees>
            </Position>
            <AltitudeMeters>1089.199951171875</AltitudeMeters>
            <DistanceMeters>162048.02225458</DistanceMeters>
          </Trackpoint>
          <Trackpoint>
            <Time>2021-07-29T08:07:44.000Z</Time>
            <Position>
              <LatitudeDegrees>41.720653474330902099609375</LatitudeDegrees>
              <LongitudeDegrees>-2.8427005000412464141845703125</LongitudeDegrees>
            </Position>
            <AltitudeMeters>1090.199951171875</AltitudeMeters>
            <DistanceMeters>162062.10802185</DistanceMeters>
          </Trackpoint>
          <Trackpoint>
            <Time>2021-07-29T08:07:54.000Z</Time>
            <Position>
              <LatitudeDegrees>41.7207030951976776123046875</LatitudeDegrees>
              <LongitudeDegrees>-2.84253797493875026702880859375</LongitudeDegrees>
            </Position>
            <AltitudeMeters>1091.4000244140625</AltitudeMeters>
            <DistanceMeters>162076.69578321</DistanceMeters>
          </Trackpoint>
          <Trackpoint>
            <Time>2021-07-29T08:08:09.000Z</Time>
            <Position>
              <LatitudeDegrees>41.72079630196094512939453125</LatitudeDegrees>
              <LongitudeDegrees>-2.842309735715389251708984375</LongitudeDegrees>
            </Position>
            <AltitudeMeters>1092.4000244140625</AltitudeMeters>
            <DistanceMeters>162098.30929553</DistanceMeters>
          </Trackpoint>
          <Trackpoint>
            <Time>2021-07-29T08:08:12.000Z</Time>
            <Position>
              <LatitudeDegrees>41.72081507742404937744140625</LatitudeDegrees>
              <LongitudeDegrees>-2.84226472489535808563232421875</LongitudeDegrees>
            </Position>
            <AltitudeMeters>1093.5999755859375</AltitudeMeters>
            <DistanceMeters>162102.59288226</DistanceMeters>
          </Trackpoint>
          <Trackpoint>
            <Time>2021-07-29T08:08:25.000Z</Time>
            <Position>
              <LatitudeDegrees>41.72088808380067348480224609375</LatitudeDegrees>
              <LongitudeDegrees>-2.8420617990195751190185546875</LongitudeDegrees>
            </Position>
            <AltitudeMeters>1094.5999755859375</AltitudeMeters>
            <DistanceMeters>162121.30711441</DistanceMeters>
          </Trackpoint>
          <Trackpoint>
            <Time>2021-07-29T08:08:33.000Z</Time>
            <Position>
              <LatitudeDegrees>41.720940135419368743896484375</LatitudeDegrees>
              <LongitudeDegrees>-2.84194403328001499176025390625</LongitudeDegrees>
            </Position>
            <AltitudeMeters>1095.800048828125</AltitudeMeters>
            <DistanceMeters>162132.67701214</DistanceMeters>
          </Trackpoint>
          <Trackpoint>
            <Time>2021-07-29T08:08:47.000Z</Time>
            <Position>
              <LatitudeDegrees>41.72102320007979869842529296875</LatitudeDegrees>
              <LongitudeDegrees>-2.8417211584746837615966796875</LongitudeDegrees>
            </Position>
            <AltitudeMeters>1096.800048828125</AltitudeMeters>
            <DistanceMeters>162153.37233832</DistanceMeters>
          </Trackpoint>
          <Trackpoint>
            <Time>2021-07-29T08:09:02.000Z</Time>
            <Position>
              <LatitudeDegrees>41.7210724018514156341552734375</LatitudeDegrees>
              <LongitudeDegrees>-2.8414745628833770751953125</LongitudeDegrees>
            </Position>
            <AltitudeMeters>1097.800048828125</AltitudeMeters>
            <DistanceMeters>162174.57756613</DistanceMeters>
          </Trackpoint>
          <Trackpoint>
            <Time>2021-07-29T08:09:08.000Z</Time>
            <Position>
              <LatitudeDegrees>41.7210797779262065887451171875</LatitudeDegrees>
              <LongitudeDegrees>-2.84137473441660404205322265625</LongitudeDegrees>
            </Position>
            <AltitudeMeters>1099</AltitudeMeters>
            <DistanceMeters>162182.91179363</DistanceMeters>
          </Trackpoint>
          <Trackpoint>
            <Time>2021-07-29T08:09:16.000Z</Time>
            <Position>
              <LatitudeDegrees>41.72107785008847713470458984375</LatitudeDegrees>
              <LongitudeDegrees>-2.84124330617487430572509765625</LongitudeDegrees>
            </Position>
            <AltitudeMeters>1100</AltitudeMeters>
            <DistanceMeters>162193.83201293</DistanceMeters>
          </Trackpoint>
          <Trackpoint>
            <Time>2021-07-29T08:09:26.000Z</Time>
            <Position>
              <LatitudeDegrees>41.7210462503135204315185546875</LatitudeDegrees>
              <LongitudeDegrees>-2.84108094871044158935546875</LongitudeDegrees>
            </Position>
            <AltitudeMeters>1101.199951171875</AltitudeMeters>
            <DistanceMeters>162207.77084806</DistanceMeters>
          </Trackpoint>
          <Trackpoint>
            <Time>2021-07-29T08:09:38.000Z</Time>
            <Position>
              <LatitudeDegrees>41.721000485122203826904296875</LatitudeDegrees>
              <LongitudeDegrees>-2.8408916853368282318115234375</LongitudeDegrees>
            </Position>
            <AltitudeMeters>1102.199951171875</AltitudeMeters>
            <DistanceMeters>162224.29894149</DistanceMeters>
          </Trackpoint>
          <Trackpoint>
            <Time>2021-07-29T08:09:43.000Z</Time>
            <Position>
              <LatitudeDegrees>41.72097575850784778594970703125</LatitudeDegrees>
              <LongitudeDegrees>-2.84081675112247467041015625</LongitudeDegrees>
            </Position>
            <AltitudeMeters>1103.199951171875</AltitudeMeters>
            <DistanceMeters>162231.10513662</DistanceMeters>
          </Trackpoint>
          <Trackpoint>
            <Time>2021-07-29T08:09:50.000Z</Time>
            <Position>
              <LatitudeDegrees>41.72092865221202373504638671875</LatitudeDegrees>
              <LongitudeDegrees>-2.84071742556989192962646484375</LongitudeDegrees>
            </Position>
            <AltitudeMeters>1104.4000244140625</AltitudeMeters>
            <DistanceMeters>162240.88134903</DistanceMeters>
          </Trackpoint>
          <Trackpoint>
            <Time>2021-07-29T08:09:59.000Z</Time>
            <Position>
              <LatitudeDegrees>41.72082823701202869415283203125</LatitudeDegrees>
              <LongitudeDegrees>-2.84064508974552154541015625</LongitudeDegrees>
            </Position>
            <AltitudeMeters>1105.5999755859375</AltitudeMeters>
            <DistanceMeters>162253.570885</DistanceMeters>
          </Trackpoint>
          <Trackpoint>
            <Time>2021-07-29T08:10:06.000Z</Time>
            <Position>
              <LatitudeDegrees>41.72074592672288417816162109375</LatitudeDegrees>
              <LongitudeDegrees>-2.8406596742570400238037109375</LongitudeDegrees>
            </Position>
            <AltitudeMeters>1106.800048828125</AltitudeMeters>
            <DistanceMeters>162262.81195815</DistanceMeters>
          </Trackpoint>
          <Trackpoint>
            <Time>2021-07-29T08:10:11.000Z</Time>
            <Position>
              <LatitudeDegrees>41.72069110907614231109619140625</LatitudeDegrees>
              <LongitudeDegrees>-2.84070451743900775909423828125</LongitudeDegrees>
            </Position>
            <AltitudeMeters>1107.800048828125</AltitudeMeters>
            <DistanceMeters>162269.96110025</DistanceMeters>
          </Trackpoint>
          <Trackpoint>
            <Time>2021-07-29T08:10:17.000Z</Time>
            <Position>
              <LatitudeDegrees>41.72063377685844898223876953125</LatitudeDegrees>
              <LongitudeDegrees>-2.8407703153789043426513671875</LongitudeDegrees>
            </Position>
            <AltitudeMeters>1109</AltitudeMeters>
            <DistanceMeters>162278.36331053</DistanceMeters>
          </Trackpoint>
          <Trackpoint>
            <Time>2021-07-29T08:10:24.000Z</Time>
            <Position>
              <LatitudeDegrees>41.72055758535861968994140625</LatitudeDegrees>
              <LongitudeDegrees>-2.84083661623299121856689453125</LongitudeDegrees>
            </Position>
            <AltitudeMeters>1110.199951171875</AltitudeMeters>
            <DistanceMeters>162288.47551037</DistanceMeters>
          </Trackpoint>
          <Trackpoint>
            <Time>2021-07-29T08:10:25.000Z</Time>
            <Position>
              <LatitudeDegrees>41.72054744325578212738037109375</LatitudeDegrees>
              <LongitudeDegrees>-2.84084499813616275787353515625</LongitudeDegrees>
            </Position>
            <AltitudeMeters>1110.4000244140625</AltitudeMeters>
            <DistanceMeters>162289.79907935</DistanceMeters>
          </Trackpoint>
          <Trackpoint>
            <Time>2021-07-29T08:10:31.000Z</Time>
            <Position>
              <LatitudeDegrees>41.7204917035996913909912109375</LatitudeDegrees>
              <LongitudeDegrees>-2.84091389738023281097412109375</LongitudeDegrees>
            </Position>
            <AltitudeMeters>1111.199951171875</AltitudeMeters>
            <DistanceMeters>162298.2398911</DistanceMeters>
          </Trackpoint>
          <Trackpoint>
            <Time>2021-07-29T08:10:40.000Z</Time>
            <Position>
              <LatitudeDegrees>41.72037812881171703338623046875</LatitudeDegrees>
              <LongitudeDegrees>-2.840950191020965576171875</LongitudeDegrees>
            </Position>
            <AltitudeMeters>1112.4000244140625</AltitudeMeters>
            <DistanceMeters>162311.23564117</DistanceMeters>
          </Trackpoint>
          <Trackpoint>
            <Time>2021-07-29T08:10:47.000Z</Time>
            <Position>
              <LatitudeDegrees>41.72029347158968448638916015625</LatitudeDegrees>
              <LongitudeDegrees>-2.84098413772881031036376953125</LongitudeDegrees>
            </Position>
            <AltitudeMeters>1113.4000244140625</AltitudeMeters>
            <DistanceMeters>162321.0712504</DistanceMeters>
          </Trackpoint>
          <Trackpoint>
            <Time>2021-07-29T08:10:57.000Z</Time>
            <Position>
              <LatitudeDegrees>41.7201666533946990966796875</LatitudeDegrees>
              <LongitudeDegrees>-2.841008193790912628173828125</LongitudeDegrees>
            </Position>
            <AltitudeMeters>1114.4000244140625</AltitudeMeters>
            <DistanceMeters>162335.32715796</DistanceMeters>
          </Trackpoint>
          <Trackpoint>
            <Time>2021-07-29T08:11:07.000Z</Time>
            <Position>
              <LatitudeDegrees>41.72003882937133312225341796875</LatitudeDegrees>
              <LongitudeDegrees>-2.8410190902650356292724609375</LongitudeDegrees>
            </Position>
            <AltitudeMeters>1115.4000244140625</AltitudeMeters>
            <DistanceMeters>162349.58306552</DistanceMeters>
          </Trackpoint>
          <Trackpoint>
            <Time>2021-07-29T08:11:12.000Z</Time>
            <Position>
              <LatitudeDegrees>41.7199780605733394622802734375</LatitudeDegrees>
              <LongitudeDegrees>-2.84102168865501880645751953125</LongitudeDegrees>
            </Position>
            <AltitudeMeters>1116.5999755859375</AltitudeMeters>
            <DistanceMeters>162356.35000853</DistanceMeters>
          </Trackpoint>
          <Trackpoint>
            <Time>2021-07-29T08:11:21.000Z</Time>
            <Position>
              <LatitudeDegrees>41.719870269298553466796875</LatitudeDegrees>
              <LongitudeDegrees>-2.84103577025234699249267578125</LongitudeDegrees>
            </Position>
            <AltitudeMeters>1117.5999755859375</AltitudeMeters>
            <DistanceMeters>162368.40417628</DistanceMeters>
          </Trackpoint>
          <Trackpoint>
            <Time>2021-07-29T08:11:28.000Z</Time>
            <Position>
              <LatitudeDegrees>41.7197869531810283660888671875</LatitudeDegrees>
              <LongitudeDegrees>-2.841042391955852508544921875</LongitudeDegrees>
            </Position>
            <AltitudeMeters>1118.800048828125</AltitudeMeters>
            <DistanceMeters>162377.69349329</DistanceMeters>
          </Trackpoint>
          <Trackpoint>
            <Time>2021-07-29T08:11:35.000Z</Time>
            <Position>
              <LatitudeDegrees>41.7197048105299472808837890625</LatitudeDegrees>
              <LongitudeDegrees>-2.84102671779692173004150390625</LongitudeDegrees>
            </Position>
            <AltitudeMeters>1119.800048828125</AltitudeMeters>
            <DistanceMeters>162386.92919045</DistanceMeters>
          </Trackpoint>
          <Trackpoint>
            <Time>2021-07-29T08:11:44.000Z</Time>
            <Position>
              <LatitudeDegrees>41.7196035571396350860595703125</LatitudeDegrees>
              <LongitudeDegrees>-2.84095622599124908447265625</LongitudeDegrees>
            </Position>
            <AltitudeMeters>1121</AltitudeMeters>
            <DistanceMeters>162399.62975168</DistanceMeters>
          </Trackpoint>
          <Trackpoint>
            <Time>2021-07-29T08:11:52.000Z</Time>
            <Position>
              <LatitudeDegrees>41.71954278834164142608642578125</LatitudeDegrees>
              <LongitudeDegrees>-2.84084918908774852752685546875</LongitudeDegrees>
            </Position>
            <AltitudeMeters>1122</AltitudeMeters>
            <DistanceMeters>162410.80175761</DistanceMeters>
          </Trackpoint>
          <Trackpoint>
            <Time>2021-07-29T08:11:58.000Z</Time>
            <Position>
              <LatitudeDegrees>41.719523258507251739501953125</LatitudeDegrees>
              <LongitudeDegrees>-2.840746678411960601806640625</LongitudeDegrees>
            </Position>
            <AltitudeMeters>1123</AltitudeMeters>
            <DistanceMeters>162419.5910866</DistanceMeters>
          </Trackpoint>
          <Trackpoint>
            <Time>2021-07-29T08:12:05.000Z</Time>
            <Position>
              <LatitudeDegrees>41.71954345889389514923095703125</LatitudeDegrees>
              <LongitudeDegrees>-2.84061801619827747344970703125</LongitudeDegrees>
            </Position>
            <AltitudeMeters>1124.199951171875</AltitudeMeters>
            <DistanceMeters>162430.51378635</DistanceMeters>
          </Trackpoint>
          <Trackpoint>
            <Time>2021-07-29T08:12:12.000Z</Time>
            <Position>
              <LatitudeDegrees>41.7195877991616725921630859375</LatitudeDegrees>
              <LongitudeDegrees>-2.8404875099658966064453125</LongitudeDegrees>
            </Position>
            <AltitudeMeters>1125.199951171875</AltitudeMeters>
            <DistanceMeters>162442.42590712</DistanceMeters>
          </Trackpoint>
          <Trackpoint>
            <Time>2021-07-29T08:12:14.000Z</Time>
            <Position>
              <LatitudeDegrees>41.71960481442511081695556640625</LatitudeDegrees>
              <LongitudeDegrees>-2.84045398235321044921875</LongitudeDegrees>
            </Position>
            <AltitudeMeters>1125.4000244140625</AltitudeMeters>
            <DistanceMeters>162445.79366246</DistanceMeters>
          </Trackpoint>
          <Trackpoint>
            <Time>2021-07-29T08:12:22.000Z</Time>
            <Position>
              <LatitudeDegrees>41.71967941336333751678466796875</LatitudeDegrees>
              <LongitudeDegrees>-2.84033789299428462982177734375</LongitudeDegrees>
            </Position>
            <AltitudeMeters>1126.4000244140625</AltitudeMeters>
            <DistanceMeters>162458.5194391</DistanceMeters>
          </Trackpoint>
          <Trackpoint>
            <Time>2021-07-29T08:12:31.000Z</Time>
            <Position>
              <LatitudeDegrees>41.7197561077773571014404296875</LatitudeDegrees>
              <LongitudeDegrees>-2.84019288606941699981689453125</LongitudeDegrees>
            </Position>
            <AltitudeMeters>1127.5999755859375</AltitudeMeters>
            <DistanceMeters>162473.28440118</DistanceMeters>
          </Trackpoint>
          <Trackpoint>
            <Time>2021-07-29T08:12:57.000Z</Time>
            <Position>
              <LatitudeDegrees>41.72005509026348590850830078125</LatitudeDegrees>
              <LongitudeDegrees>-2.83962450921535491943359375</LongitudeDegrees>
            </Position>
            <AltitudeMeters>1128.5999755859375</AltitudeMeters>
            <DistanceMeters>162531.05118696</DistanceMeters>
          </Trackpoint>
          <Trackpoint>
            <Time>2021-07-29T08:13:10.000Z</Time>
            <Position>
              <LatitudeDegrees>41.72022658400237560272216796875</LatitudeDegrees>
              <LongitudeDegrees>-2.83930373378098011016845703125</LongitudeDegrees>
            </Position>
            <AltitudeMeters>1129.800048828125</AltitudeMeters>
            <DistanceMeters>162563.83085835</DistanceMeters>
          </Trackpoint>
          <Trackpoint>
            <Time>2021-07-29T08:13:18.000Z</Time>
            <Position>
              <LatitudeDegrees>41.7203334532678127288818359375</LatitudeDegrees>
              <LongitudeDegrees>-2.839119918644428253173828125</LongitudeDegrees>
            </Position>
            <AltitudeMeters>1131</AltitudeMeters>
            <DistanceMeters>162583.18740587</DistanceMeters>
          </Trackpoint>
          <Trackpoint>
            <Time>2021-07-29T08:13:40.000Z</Time>
            <Position>
              <LatitudeDegrees>41.720833517611026763916015625</LatitudeDegrees>
              <LongitudeDegrees>-2.83888916485011577606201171875</LongitudeDegrees>
            </Position>
            <AltitudeMeters>1131.199951171875</AltitudeMeters>
            <DistanceMeters>162642.05428871</DistanceMeters>
          </Trackpoint>
          <Trackpoint>
            <Time>2021-07-29T08:13:57.000Z</Time>
            <Position>
              <LatitudeDegrees>41.7213724739849567413330078125</LatitudeDegrees>
              <LongitudeDegrees>-2.8389672003686428070068359375</LongitudeDegrees>
            </Position>
            <AltitudeMeters>1131.800048828125</AltitudeMeters>
            <DistanceMeters>162702.3904906</DistanceMeters>
          </Trackpoint>
          <Trackpoint>
            <Time>2021-07-29T08:14:14.000Z</Time>
            <Position>
              <LatitudeDegrees>41.72194135375320911407470703125</LatitudeDegrees>
              <LongitudeDegrees>-2.83904917538166046142578125</LongitudeDegrees>
            </Position>
            <AltitudeMeters>1132</AltitudeMeters>
            <DistanceMeters>162766.07313793</DistanceMeters>
          </Trackpoint>
          <Trackpoint>
            <Time>2021-07-29T08:14:27.000Z</Time>
            <Position>
              <LatitudeDegrees>41.72248148359358310699462890625</LatitudeDegrees>
              <LongitudeDegrees>-2.83914414234459400177001953125</LongitudeDegrees>
            </Position>
            <AltitudeMeters>1130.800048828125</AltitudeMeters>
            <DistanceMeters>162826.7061392</DistanceMeters>
          </Trackpoint>
          <Trackpoint>
            <Time>2021-07-29T08:14:39.000Z</Time>
            <Position>
              <LatitudeDegrees>41.7230572365224361419677734375</LatitudeDegrees>
              <LongitudeDegrees>-2.8392377682030200958251953125</LongitudeDegrees>
            </Position>
            <AltitudeMeters>1130</AltitudeMeters>
            <DistanceMeters>162891.2588711</DistanceMeters>
          </Trackpoint>
          <Trackpoint>
            <Time>2021-07-29T08:14:46.000Z</Time>
            <Position>
              <LatitudeDegrees>41.723394356667995452880859375</LatitudeDegrees>
              <LongitudeDegrees>-2.83929526805877685546875</LongitudeDegrees>
            </Position>
            <AltitudeMeters>1129.5999755859375</AltitudeMeters>
            <DistanceMeters>162929.0840396</DistanceMeters>
          </Trackpoint>
          <Trackpoint>
            <Time>2021-07-29T08:14:58.000Z</Time>
            <Position>
              <LatitudeDegrees>41.72390473075211048126220703125</LatitudeDegrees>
              <LongitudeDegrees>-2.83953457139432430267333984375</LongitudeDegrees>
            </Position>
            <AltitudeMeters>1130.199951171875</AltitudeMeters>
            <DistanceMeters>162989.26776707</DistanceMeters>
          </Trackpoint>
          <Trackpoint>
            <Time>2021-07-29T08:15:11.000Z</Time>
            <Position>
              <LatitudeDegrees>41.7244090698659420013427734375</LatitudeDegrees>
              <LongitudeDegrees>-2.83986431546509265899658203125</LongitudeDegrees>
            </Position>
            <AltitudeMeters>1130.4000244140625</AltitudeMeters>
            <DistanceMeters>163051.72851632</DistanceMeters>
          </Trackpoint>
          <Trackpoint>
            <Time>2021-07-29T08:15:22.000Z</Time>
            <Position>
              <LatitudeDegrees>41.72490770928561687469482421875</LatitudeDegrees>
              <LongitudeDegrees>-2.84018802456557750701904296875</LongitudeDegrees>
            </Position>
            <AltitudeMeters>1128.5999755859375</AltitudeMeters>
            <DistanceMeters>163113.39953615</DistanceMeters>
          </Trackpoint>
          <Trackpoint>
            <Time>2021-07-29T08:15:24.000Z</Time>
            <Position>
              <LatitudeDegrees>41.72501902095973491668701171875</LatitudeDegrees>
              <LongitudeDegrees>-2.84025692380964756011962890625</LongitudeDegrees>
            </Position>
            <AltitudeMeters>1127.4000244140625</AltitudeMeters>
            <DistanceMeters>163127.04637815</DistanceMeters>
          </Trackpoint>
          <Trackpoint>
            <Time>2021-07-29T08:15:34.000Z</Time>
            <Position>
              <LatitudeDegrees>41.72556166537106037139892578125</LatitudeDegrees>
              <LongitudeDegrees>-2.8406043536961078643798828125</LongitudeDegrees>
            </Position>
            <AltitudeMeters>1127.199951171875</AltitudeMeters>
            <DistanceMeters>163193.98512756</DistanceMeters>
          </Trackpoint>
          <Trackpoint>
            <Time>2021-07-29T08:15:39.000Z</Time>
            <Position>
              <LatitudeDegrees>41.7258507572114467620849609375</LatitudeDegrees>
              <LongitudeDegrees>-2.84077475778758525848388671875</LongitudeDegrees>
            </Position>
            <AltitudeMeters>1126.4000244140625</AltitudeMeters>
            <DistanceMeters>163229.13769149</DistanceMeters>
          </Trackpoint>
          <Trackpoint>
            <Time>2021-07-29T08:15:49.000Z</Time>
            <Position>
              <LatitudeDegrees>41.726362891495227813720703125</LatitudeDegrees>
              <LongitudeDegrees>-2.84108371473848819732666015625</LongitudeDegrees>
            </Position>
            <AltitudeMeters>1127</AltitudeMeters>
            <DistanceMeters>163291.650465</DistanceMeters>
          </Trackpoint>
          <Trackpoint>
            <Time>2021-07-29T08:15:51.000Z</Time>
            <Position>
              <LatitudeDegrees>41.72644327394664287567138671875</LatitudeDegrees>
              <LongitudeDegrees>-2.841131575405597686767578125</LongitudeDegrees>
            </Position>
            <AltitudeMeters>1127.5999755859375</AltitudeMeters>
            <DistanceMeters>163301.44052278</DistanceMeters>
          </Trackpoint>
          <Trackpoint>
            <Time>2021-07-29T08:15:55.000Z</Time>
            <Position>
              <LatitudeDegrees>41.726592220366001129150390625</LatitudeDegrees>
              <LongitudeDegrees>-2.84123073332011699676513671875</LongitudeDegrees>
            </Position>
            <AltitudeMeters>1129</AltitudeMeters>
            <DistanceMeters>163319.95196089</DistanceMeters>
          </Trackpoint>
          <Trackpoint>
            <Time>2021-07-29T08:15:58.000Z</Time>
            <Position>
              <LatitudeDegrees>41.7266973294317722320556640625</LatitudeDegrees>
              <LongitudeDegrees>-2.8412933461368083953857421875</LongitudeDegrees>
            </Position>
            <AltitudeMeters>1130</AltitudeMeters>
            <DistanceMeters>163332.75484914</DistanceMeters>
          </Trackpoint>
          <Trackpoint>
            <Time>2021-07-29T08:16:03.000Z</Time>
            <Position>
              <LatitudeDegrees>41.72685566358268260955810546875</LatitudeDegrees>
              <LongitudeDegrees>-2.84139887429773807525634765625</LongitudeDegrees>
            </Position>
            <AltitudeMeters>1131.199951171875</AltitudeMeters>
            <DistanceMeters>163352.43754052</DistanceMeters>
          </Trackpoint>
          <Trackpoint>
            <Time>2021-07-29T08:16:09.000Z</Time>
            <Position>
              <LatitudeDegrees>41.727056242525577545166015625</LatitudeDegrees>
              <LongitudeDegrees>-2.84153767861425876617431640625</LongitudeDegrees>
            </Position>
            <AltitudeMeters>1132.199951171875</AltitudeMeters>
            <DistanceMeters>163377.56415638</DistanceMeters>
          </Trackpoint>
          <Trackpoint>
            <Time>2021-07-29T08:16:21.000Z</Time>
            <Position>
              <LatitudeDegrees>41.72754968516528606414794921875</LatitudeDegrees>
              <LongitudeDegrees>-2.8418334759771823883056640625</LongitudeDegrees>
            </Position>
            <AltitudeMeters>1132.4000244140625</AltitudeMeters>
            <DistanceMeters>163437.73107682</DistanceMeters>
          </Trackpoint>
          <Trackpoint>
            <Time>2021-07-29T08:16:33.000Z</Time>
            <Position>
              <LatitudeDegrees>41.72807539813220500946044921875</LatitudeDegrees>
              <LongitudeDegrees>-2.84214486368000507354736328125</LongitudeDegrees>
            </Position>
            <AltitudeMeters>1132.800048828125</AltitudeMeters>
            <DistanceMeters>163501.70600822</DistanceMeters>
          </Trackpoint>
          <Trackpoint>
            <Time>2021-07-29T08:16:44.000Z</Time>
            <Position>
              <LatitudeDegrees>41.728568337857723236083984375</LatitudeDegrees>
              <LongitudeDegrees>-2.842446863651275634765625</LongitudeDegrees>
            </Position>
            <AltitudeMeters>1132</AltitudeMeters>
            <DistanceMeters>163562.03412778</DistanceMeters>
          </Trackpoint>
          <Trackpoint>
            <Time>2021-07-29T08:16:55.000Z</Time>
            <Position>
              <LatitudeDegrees>41.72909296117722988128662109375</LatitudeDegrees>
              <LongitudeDegrees>-2.84277342259883880615234375</LongitudeDegrees>
            </Position>
            <AltitudeMeters>1104.4000244140625</AltitudeMeters>
            <DistanceMeters>163626.41877667</DistanceMeters>
          </Trackpoint>
          <Trackpoint>
            <Time>2021-07-29T08:16:56.000Z</Time>
            <Position>
              <LatitudeDegrees>41.7291440069675445556640625</LatitudeDegrees>
              <LongitudeDegrees>-2.84280426800251007080078125</LongitudeDegrees>
            </Position>
            <AltitudeMeters>1131</AltitudeMeters>
            <DistanceMeters>163632.65154402</DistanceMeters>
          </Trackpoint>
          <Trackpoint>
            <Time>2021-07-29T08:17:06.000Z</Time>
            <Position>
              <LatitudeDegrees>41.72964566387236118316650390625</LatitudeDegrees>
              <LongitudeDegrees>-2.8431216068565845489501953125</LongitudeDegrees>
            </Position>
            <AltitudeMeters>1130.800048828125</AltitudeMeters>
            <DistanceMeters>163694.39639024</DistanceMeters>
          </Trackpoint>
          <Trackpoint>
            <Time>2021-07-29T08:17:17.000Z</Time>
            <Position>
              <LatitudeDegrees>41.73014204017817974090576171875</LatitudeDegrees>
              <LongitudeDegrees>-2.84342528320848941802978515625</LongitudeDegrees>
            </Position>
            <AltitudeMeters>1131.5999755859375</AltitudeMeters>
            <DistanceMeters>163755.12998478</DistanceMeters>
          </Trackpoint>
          <Trackpoint>
            <Time>2021-07-29T08:17:22.000Z</Time>
            <Position>
              <LatitudeDegrees>41.730353347957134246826171875</LatitudeDegrees>
              <LongitudeDegrees>-2.84355989657342433929443359375</LongitudeDegrees>
            </Position>
            <AltitudeMeters>1132.4000244140625</AltitudeMeters>
            <DistanceMeters>163781.17146594</DistanceMeters>
          </Trackpoint>
          <Trackpoint>
            <Time>2021-07-29T08:17:29.000Z</Time>
            <Position>
              <LatitudeDegrees>41.730653084814548492431640625</LatitudeDegrees>
              <LongitudeDegrees>-2.84373692236840724945068359375</LongitudeDegrees>
            </Position>
            <AltitudeMeters>1133.5999755859375</AltitudeMeters>
            <DistanceMeters>163817.62953956</DistanceMeters>
          </Trackpoint>
          <Trackpoint>
            <Time>2021-07-29T08:17:41.000Z</Time>
            <Position>
              <LatitudeDegrees>41.7311518080532550811767578125</LatitudeDegrees>
              <LongitudeDegrees>-2.84404344856739044189453125</LongitudeDegrees>
            </Position>
            <AltitudeMeters>1134.4000244140625</AltitudeMeters>
            <DistanceMeters>163878.69912128</DistanceMeters>
          </Trackpoint>
          <Trackpoint>
            <Time>2021-07-29T08:17:42.000Z</Time>
            <Position>
              <LatitudeDegrees>41.7311905324459075927734375</LatitudeDegrees>
              <LongitudeDegrees>-2.8440690971910953521728515625</LongitudeDegrees>
            </Position>
            <AltitudeMeters>1134.5999755859375</AltitudeMeters>
            <DistanceMeters>163883.50713498</DistanceMeters>
          </Trackpoint>
          <Trackpoint>
            <Time>2021-07-29T08:17:52.000Z</Time>
            <Position>
              <LatitudeDegrees>41.73157148994505405426025390625</LatitudeDegrees>
              <LongitudeDegrees>-2.8442984260618686676025390625</LongitudeDegrees>
            </Position>
            <AltitudeMeters>1135.5999755859375</AltitudeMeters>
            <DistanceMeters>163929.99064487</DistanceMeters>
          </Trackpoint>
          <Trackpoint>
            <Time>2021-07-29T08:18:04.000Z</Time>
            <Position>
              <LatitudeDegrees>41.732073985040187835693359375</LatitudeDegrees>
              <LongitudeDegrees>-2.84456505440175533294677734375</LongitudeDegrees>
            </Position>
            <AltitudeMeters>1134.800048828125</AltitudeMeters>
            <DistanceMeters>163990.14435649</DistanceMeters>
          </Trackpoint>
          <Trackpoint>
            <Time>2021-07-29T08:18:06.000Z</Time>
            <Position>
              <LatitudeDegrees>41.7321676947176456451416015625</LatitudeDegrees>
              <LongitudeDegrees>-2.84461299888789653778076171875</LongitudeDegrees>
            </Position>
            <AltitudeMeters>1134.5999755859375</AltitudeMeters>
            <DistanceMeters>164001.30827673</DistanceMeters>
          </Trackpoint>
          <Trackpoint>
            <Time>2021-07-29T08:18:09.000Z</Time>
            <Position>
              <LatitudeDegrees>41.7323152162134647369384765625</LatitudeDegrees>
              <LongitudeDegrees>-2.84466044045984745025634765625</LongitudeDegrees>
            </Position>
            <AltitudeMeters>1134.199951171875</AltitudeMeters>
            <DistanceMeters>164018.19417895</DistanceMeters>
          </Trackpoint>
          <Trackpoint>
            <Time>2021-07-29T08:18:16.000Z</Time>
            <Position>
              <LatitudeDegrees>41.73264470882713794708251953125</LatitudeDegrees>
              <LongitudeDegrees>-2.84467921592295169830322265625</LongitudeDegrees>
            </Position>
            <AltitudeMeters>1135.5999755859375</AltitudeMeters>
            <DistanceMeters>164054.90057684</DistanceMeters>
          </Trackpoint>
          <Trackpoint>
            <Time>2021-07-29T08:18:22.000Z</Time>
            <Position>
              <LatitudeDegrees>41.73291460610926151275634765625</LatitudeDegrees>
              <LongitudeDegrees>-2.8446668945252895355224609375</LongitudeDegrees>
            </Position>
            <AltitudeMeters>1136.800048828125</AltitudeMeters>
            <DistanceMeters>164084.95817402</DistanceMeters>
          </Trackpoint>
          <Trackpoint>
            <Time>2021-07-29T08:18:28.000Z</Time>
            <Position>
              <LatitudeDegrees>41.73317209817469120025634765625</LatitudeDegrees>
              <LongitudeDegrees>-2.84465976990759372711181640625</LongitudeDegrees>
            </Position>
            <AltitudeMeters>1138</AltitudeMeters>
            <DistanceMeters>164113.62365615</DistanceMeters>
          </Trackpoint>
          <Trackpoint>
            <Time>2021-07-29T08:18:33.000Z</Time>
            <Position>
              <LatitudeDegrees>41.73336605541408061981201171875</LatitudeDegrees>
              <LongitudeDegrees>-2.84465306438505649566650390625</LongitudeDegrees>
            </Position>
            <AltitudeMeters>1139</AltitudeMeters>
            <DistanceMeters>164135.21898662</DistanceMeters>
          </Trackpoint>
          <Trackpoint>
            <Time>2021-07-29T08:18:47.000Z</Time>
            <Position>
              <LatitudeDegrees>41.73392211087048053741455078125</LatitudeDegrees>
              <LongitudeDegrees>-2.84464233554899692535400390625</LongitudeDegrees>
            </Position>
            <AltitudeMeters>1140</AltitudeMeters>
            <DistanceMeters>164197.11545237</DistanceMeters>
          </Trackpoint>
          <Trackpoint>
            <Time>2021-07-29T08:18:53.000Z</Time>
            <Position>
              <LatitudeDegrees>41.73418630845844745635986328125</LatitudeDegrees>
              <LongitudeDegrees>-2.84463713876903057098388671875</LongitudeDegrees>
            </Position>
            <AltitudeMeters>1138.800048828125</AltitudeMeters>
            <DistanceMeters>164226.52433983</DistanceMeters>
          </Trackpoint>
          <Trackpoint>
            <Time>2021-07-29T08:18:58.000Z</Time>
            <Position>
              <LatitudeDegrees>41.73443424515426158905029296875</LatitudeDegrees>
              <LongitudeDegrees>-2.84462724812328815460205078125</LongitudeDegrees>
            </Position>
            <AltitudeMeters>1137.5999755859375</AltitudeMeters>
            <DistanceMeters>164254.13250335</DistanceMeters>
          </Trackpoint>
          <Trackpoint>
            <Time>2021-07-29T08:19:04.000Z</Time>
            <Position>
              <LatitudeDegrees>41.73475309275090694427490234375</LatitudeDegrees>
              <LongitudeDegrees>-2.844603359699249267578125</LongitudeDegrees>
            </Position>
            <AltitudeMeters>1136.4000244140625</AltitudeMeters>
            <DistanceMeters>164289.67630555</DistanceMeters>
          </Trackpoint>
          <Trackpoint>
            <Time>2021-07-29T08:19:08.000Z</Time>
            <Position>
              <LatitudeDegrees>41.734986864030361175537109375</LatitudeDegrees>
              <LongitudeDegrees>-2.844586260616779327392578125</LongitudeDegrees>
            </Position>
            <AltitudeMeters>1135.4000244140625</AltitudeMeters>
            <DistanceMeters>164315.73407921</DistanceMeters>
          </Trackpoint>
          <Trackpoint>
            <Time>2021-07-29T08:19:13.000Z</Time>
            <Position>
              <LatitudeDegrees>41.7353179492056369781494140625</LatitudeDegrees>
              <LongitudeDegrees>-2.844560779631137847900390625</LongitudeDegrees>
            </Position>
            <AltitudeMeters>1134</AltitudeMeters>
            <DistanceMeters>164352.64507775</DistanceMeters>
          </Trackpoint>
          <Trackpoint>
            <Time>2021-07-29T08:19:15.000Z</Time>
            <Position>
              <LatitudeDegrees>41.7354668118059635162353515625</LatitudeDegrees>
              <LongitudeDegrees>-2.8445508889853954315185546875</LongitudeDegrees>
            </Position>
            <AltitudeMeters>1133</AltitudeMeters>
            <DistanceMeters>164369.23397704</DistanceMeters>
          </Trackpoint>
          <Trackpoint>
            <Time>2021-07-29T08:19:17.000Z</Time>
            <Position>
              <LatitudeDegrees>41.7356267385184764862060546875</LatitudeDegrees>
              <LongitudeDegrees>-2.8445394895970821380615234375</LongitudeDegrees>
            </Position>
            <AltitudeMeters>1131.800048828125</AltitudeMeters>
            <DistanceMeters>164387.05902318</DistanceMeters>
          </Trackpoint>
          <Trackpoint>
            <Time>2021-07-29T08:19:19.000Z</Time>
            <Position>
              <LatitudeDegrees>41.73579395748674869537353515625</LatitudeDegrees>
              <LongitudeDegrees>-2.8445317782461643218994140625</LongitudeDegrees>
            </Position>
            <AltitudeMeters>1130.199951171875</AltitudeMeters>
            <DistanceMeters>164405.68207733</DistanceMeters>
          </Trackpoint>
          <Trackpoint>
            <Time>2021-07-29T08:19:21.000Z</Time>
            <Position>
              <LatitudeDegrees>41.73596997745335102081298828125</LatitudeDegrees>
              <LongitudeDegrees>-2.84452633000910282135009765625</LongitudeDegrees>
            </Position>
            <AltitudeMeters>1128.4000244140625</AltitudeMeters>
            <DistanceMeters>164425.27878856</DistanceMeters>
          </Trackpoint>
          <Trackpoint>
            <Time>2021-07-29T08:19:23.000Z</Time>
            <Position>
              <LatitudeDegrees>41.736154295504093170166015625</LatitudeDegrees>
              <LongitudeDegrees>-2.84451778046786785125732421875</LongitudeDegrees>
            </Position>
            <AltitudeMeters>1126.800048828125</AltitudeMeters>
            <DistanceMeters>164445.80587864</DistanceMeters>
          </Trackpoint>
          <Trackpoint>
            <Time>2021-07-29T08:19:30.000Z</Time>
            <Position>
              <LatitudeDegrees>41.73671521246433258056640625</LatitudeDegrees>
              <LongitudeDegrees>-2.84434393979609012603759765625</LongitudeDegrees>
            </Position>
            <AltitudeMeters>1127.4000244140625</AltitudeMeters>
            <DistanceMeters>164509.88489424</DistanceMeters>
          </Trackpoint>
          <Trackpoint>
            <Time>2021-07-29T08:19:32.000Z</Time>
            <Position>
              <LatitudeDegrees>41.7368417792022228240966796875</LatitudeDegrees>
              <LongitudeDegrees>-2.84427671693265438079833984375</LongitudeDegrees>
            </Position>
            <AltitudeMeters>1128</AltitudeMeters>
            <DistanceMeters>164525.03830355</DistanceMeters>
          </Trackpoint>
          <Trackpoint>
            <Time>2021-07-29T08:19:35.000Z</Time>
            <Position>
              <LatitudeDegrees>41.73700983636081218719482421875</LatitudeDegrees>
              <LongitudeDegrees>-2.8441750444471836090087890625</LongitudeDegrees>
            </Position>
            <AltitudeMeters>1129.199951171875</AltitudeMeters>
            <DistanceMeters>164545.56099406</DistanceMeters>
          </Trackpoint>
          <Trackpoint>
            <Time>2021-07-29T08:19:38.000Z</Time>
            <Position>
              <LatitudeDegrees>41.7371555976569652557373046875</LatitudeDegrees>
              <LongitudeDegrees>-2.8440815024077892303466796875</LongitudeDegrees>
            </Position>
            <AltitudeMeters>1130.4000244140625</AltitudeMeters>
            <DistanceMeters>164563.5489261</DistanceMeters>
          </Trackpoint>
          <Trackpoint>
            <Time>2021-07-29T08:19:40.000Z</Time>
            <Position>
              <LatitudeDegrees>41.73724285326898097991943359375</LatitudeDegrees>
              <LongitudeDegrees>-2.8440275229513645172119140625</LongitudeDegrees>
            </Position>
            <AltitudeMeters>1131.800048828125</AltitudeMeters>
            <DistanceMeters>164574.24523708</DistanceMeters>
          </Trackpoint>
          <Trackpoint>
            <Time>2021-07-29T08:19:43.000Z</Time>
            <Position>
              <LatitudeDegrees>41.7373688332736492156982421875</LatitudeDegrees>
              <LongitudeDegrees>-2.843962647020816802978515625</LongitudeDegrees>
            </Position>
            <AltitudeMeters>1133</AltitudeMeters>
            <DistanceMeters>164589.26667343</DistanceMeters>
          </Trackpoint>
          <Trackpoint>
            <Time>2021-07-29T08:19:50.000Z</Time>
            <Position>
              <LatitudeDegrees>41.73771031200885772705078125</LatitudeDegrees>
              <LongitudeDegrees>-2.8438441269099712371826171875</LongitudeDegrees>
            </Position>
            <AltitudeMeters>1131.5999755859375</AltitudeMeters>
            <DistanceMeters>164628.5277744</DistanceMeters>
          </Trackpoint>
          <Trackpoint>
            <Time>2021-07-29T08:19:51.000Z</Time>
            <Position>
              <LatitudeDegrees>41.7377699911594390869140625</LatitudeDegrees>
              <LongitudeDegrees>-2.84382375888526439666748046875</LongitudeDegrees>
            </Position>
            <AltitudeMeters>1130</AltitudeMeters>
            <DistanceMeters>164635.38222461</DistanceMeters>
          </Trackpoint>
          <Trackpoint>
            <Time>2021-07-29T08:20:00.000Z</Time>
            <Position>
              <LatitudeDegrees>41.73825756646692752838134765625</LatitudeDegrees>
              <LongitudeDegrees>-2.84364287741482257843017578125</LongitudeDegrees>
            </Position>
            <AltitudeMeters>1131.199951171875</AltitudeMeters>
            <DistanceMeters>164691.69114594</DistanceMeters>
          </Trackpoint>
          <Trackpoint>
            <Time>2021-07-29T08:20:02.000Z</Time>
            <Position>
              <LatitudeDegrees>41.73833585344254970550537109375</LatitudeDegrees>
              <LongitudeDegrees>-2.84360733814537525177001953125</LongitudeDegrees>
            </Position>
            <AltitudeMeters>1132.199951171875</AltitudeMeters>
            <DistanceMeters>164700.89108651</DistanceMeters>
          </Trackpoint>
          <Trackpoint>
            <Time>2021-07-29T08:20:06.000Z</Time>
            <Position>
              <LatitudeDegrees>41.7384739033877849578857421875</LatitudeDegrees>
              <LongitudeDegrees>-2.8435403667390346527099609375</LongitudeDegrees>
            </Position>
            <AltitudeMeters>1133.5999755859375</AltitudeMeters>
            <DistanceMeters>164717.23236616</DistanceMeters>
          </Trackpoint>
          <Trackpoint>
            <Time>2021-07-29T08:20:12.000Z</Time>
            <Position>
              <LatitudeDegrees>41.73870348371565341949462890625</LatitudeDegrees>
              <LongitudeDegrees>-2.84345378167927265167236328125</LongitudeDegrees>
            </Position>
            <AltitudeMeters>1134.800048828125</AltitudeMeters>
            <DistanceMeters>164743.77766679</DistanceMeters>
          </Trackpoint>
          <Trackpoint>
            <Time>2021-07-29T08:20:25.000Z</Time>
            <Position>
              <LatitudeDegrees>41.73923003487288951873779296875</LatitudeDegrees>
              <LongitudeDegrees>-2.84325663931667804718017578125</LongitudeDegrees>
            </Position>
            <AltitudeMeters>1135.800048828125</AltitudeMeters>
            <DistanceMeters>164804.62786585</DistanceMeters>
          </Trackpoint>
          <Trackpoint>
            <Time>2021-07-29T08:20:33.000Z</Time>
            <Position>
              <LatitudeDegrees>41.73955944366753101348876953125</LatitudeDegrees>
              <LongitudeDegrees>-2.84312546253204345703125</LongitudeDegrees>
            </Position>
            <AltitudeMeters>1137</AltitudeMeters>
            <DistanceMeters>164842.87608887</DistanceMeters>
          </Trackpoint>
          <Trackpoint>
            <Time>2021-07-29T08:20:45.000Z</Time>
            <Position>
              <LatitudeDegrees>41.740120612084865570068359375</LatitudeDegrees>
              <LongitudeDegrees>-2.84292169846594333648681640625</LongitudeDegrees>
            </Position>
            <AltitudeMeters>1136.5999755859375</AltitudeMeters>
            <DistanceMeters>164907.58718822</DistanceMeters>
          </Trackpoint>
          <Trackpoint>
            <Time>2021-07-29T08:20:57.000Z</Time>
            <Position>
              <LatitudeDegrees>41.7406726442277431488037109375</LatitudeDegrees>
              <LongitudeDegrees>-2.842723466455936431884765625</LongitudeDegrees>
            </Position>
            <AltitudeMeters>1137</AltitudeMeters>
            <DistanceMeters>164971.1969096</DistanceMeters>
          </Trackpoint>
          <Trackpoint>
            <Time>2021-07-29T08:21:09.000Z</Time>
            <Position>
              <LatitudeDegrees>41.74120347015559673309326171875</LatitudeDegrees>
              <LongitudeDegrees>-2.84253797493875026702880859375</LongitudeDegrees>
            </Position>
            <AltitudeMeters>1137.5999755859375</AltitudeMeters>
            <DistanceMeters>165032.25421726</DistanceMeters>
          </Trackpoint>
          <Trackpoint>
            <Time>2021-07-29T08:21:11.000Z</Time>
            <Position>
              <LatitudeDegrees>41.74130313098430633544921875</LatitudeDegrees>
              <LongitudeDegrees>-2.84252129495143890380859375</LongitudeDegrees>
            </Position>
            <AltitudeMeters>1137.199951171875</AltitudeMeters>
            <DistanceMeters>165043.43268754</DistanceMeters>
          </Trackpoint>
          <Trackpoint>
            <Time>2021-07-29T08:21:14.000Z</Time>
            <Position>
              <LatitudeDegrees>41.74148619174957275390625</LatitudeDegrees>
              <LongitudeDegrees>-2.84253428690135478973388671875</LongitudeDegrees>
            </Position>
            <AltitudeMeters>1135.4000244140625</AltitudeMeters>
            <DistanceMeters>165063.83623097</DistanceMeters>
          </Trackpoint>
          <Trackpoint>
            <Time>2021-07-29T08:21:15.000Z</Time>
            <Position>
              <LatitudeDegrees>41.74155802465975284576416015625</LatitudeDegrees>
              <LongitudeDegrees>-2.84254669211804866790771484375</LongitudeDegrees>
            </Position>
            <AltitudeMeters>1134.4000244140625</AltitudeMeters>
            <DistanceMeters>165071.89671482</DistanceMeters>
          </Trackpoint>
          <Trackpoint>
            <Time>2021-07-29T08:21:17.000Z</Time>
            <Position>
              <LatitudeDegrees>41.74172247759997844696044921875</LatitudeDegrees>
              <LongitudeDegrees>-2.842581979930400848388671875</LongitudeDegrees>
            </Position>
            <AltitudeMeters>1131.5999755859375</AltitudeMeters>
            <DistanceMeters>165090.43350173</DistanceMeters>
          </Trackpoint>
          <Trackpoint>
            <Time>2021-07-29T08:21:18.000Z</Time>
            <Position>
              <LatitudeDegrees>41.74181451089680194854736328125</LatitudeDegrees>
              <LongitudeDegrees>-2.84260184504091739654541015625</LongitudeDegrees>
            </Position>
            <AltitudeMeters>1130.199951171875</AltitudeMeters>
            <DistanceMeters>165100.80839986</DistanceMeters>
          </Trackpoint>
          <Trackpoint>
            <Time>2021-07-29T08:21:19.000Z</Time>
            <Position>
              <LatitudeDegrees>41.74191241152584552764892578125</LatitudeDegrees>
              <LongitudeDegrees>-2.84262263216078281402587890625</LongitudeDegrees>
            </Position>
            <AltitudeMeters>1128</AltitudeMeters>
            <DistanceMeters>165111.8405062</DistanceMeters>
          </Trackpoint>
          <Trackpoint>
            <Time>2021-07-29T08:21:20.000Z</Time>
            <Position>
              <LatitudeDegrees>41.74201400019228458404541015625</LatitudeDegrees>
              <LongitudeDegrees>-2.84264660440385341644287109375</LongitudeDegrees>
            </Position>
            <AltitudeMeters>1126.800048828125</AltitudeMeters>
            <DistanceMeters>165123.32105478</DistanceMeters>
          </Trackpoint>
          <Trackpoint>
            <Time>2021-07-29T08:21:21.000Z</Time>
            <Position>
              <LatitudeDegrees>41.7421183548867702484130859375</LatitudeDegrees>
              <LongitudeDegrees>-2.8426720015704631805419921875</LongitudeDegrees>
            </Position>
            <AltitudeMeters>1125.5999755859375</AltitudeMeters>
            <DistanceMeters>165135.12580551</DistanceMeters>
          </Trackpoint>
          <Trackpoint>
            <Time>2021-07-29T08:21:22.000Z</Time>
            <Position>
              <LatitudeDegrees>41.74222472123801708221435546875</LatitudeDegrees>
              <LongitudeDegrees>-2.8426974825561046600341796875</LongitudeDegrees>
            </Position>
            <AltitudeMeters>1124.4000244140625</AltitudeMeters>
            <DistanceMeters>165147.1522237</DistanceMeters>
          </Trackpoint>
          <Trackpoint>
            <Time>2021-07-29T08:21:25.000Z</Time>
            <Position>
              <LatitudeDegrees>41.7425454966723918914794921875</LatitudeDegrees>
              <LongitudeDegrees>-2.8427660465240478515625</LongitudeDegrees>
            </Position>
            <AltitudeMeters>1123</AltitudeMeters>
            <DistanceMeters>165183.30636074</DistanceMeters>
          </Trackpoint>
          <Trackpoint>
            <Time>2021-07-29T08:21:28.000Z</Time>
            <Position>
              <LatitudeDegrees>41.742847748100757598876953125</LatitudeDegrees>
              <LongitudeDegrees>-2.842822372913360595703125</LongitudeDegrees>
            </Position>
            <AltitudeMeters>1121.5999755859375</AltitudeMeters>
            <DistanceMeters>165217.27120029</DistanceMeters>
          </Trackpoint>
          <Trackpoint>
            <Time>2021-07-29T08:21:32.000Z</Time>
            <Position>
              <LatitudeDegrees>41.74320205114781856536865234375</LatitudeDegrees>
              <LongitudeDegrees>-2.84289638511836528778076171875</LongitudeDegrees>
            </Position>
            <AltitudeMeters>1123.199951171875</AltitudeMeters>
            <DistanceMeters>165257.18196782</DistanceMeters>
          </Trackpoint>
          <Trackpoint>
            <Time>2021-07-29T08:21:34.000Z</Time>
            <Position>
              <LatitudeDegrees>41.7433501593768596649169921875</LatitudeDegrees>
              <LongitudeDegrees>-2.84292630851268768310546875</LongitudeDegrees>
            </Position>
            <AltitudeMeters>1124.4000244140625</AltitudeMeters>
            <DistanceMeters>165273.8528605</DistanceMeters>
          </Trackpoint>
          <Trackpoint>
            <Time>2021-07-29T08:21:36.000Z</Time>
            <Position>
              <LatitudeDegrees>41.743476390838623046875</LatitudeDegrees>
              <LongitudeDegrees>-2.84295447170734405517578125</LongitudeDegrees>
            </Position>
            <AltitudeMeters>1126</AltitudeMeters>
            <DistanceMeters>165288.09609389</DistanceMeters>
          </Trackpoint>
          <Trackpoint>
            <Time>2021-07-29T08:21:38.000Z</Time>
            <Position>
              <LatitudeDegrees>41.74358912743628025054931640625</LatitudeDegrees>
              <LongitudeDegrees>-2.8429781086742877960205078125</LongitudeDegrees>
            </Position>
            <AltitudeMeters>1127.5999755859375</AltitudeMeters>
            <DistanceMeters>165300.79629961</DistanceMeters>
          </Trackpoint>
          <Trackpoint>
            <Time>2021-07-29T08:21:40.000Z</Time>
            <Position>
              <LatitudeDegrees>41.743693649768829345703125</LatitudeDegrees>
              <LongitudeDegrees>-2.8429945372045040130615234375</LongitudeDegrees>
            </Position>
            <AltitudeMeters>1129</AltitudeMeters>
            <DistanceMeters>165312.50966725</DistanceMeters>
          </Trackpoint>
          <Trackpoint>
            <Time>2021-07-29T08:21:43.000Z</Time>
            <Position>
              <LatitudeDegrees>41.7438356392085552215576171875</LatitudeDegrees>
              <LongitudeDegrees>-2.84301817417144775390625</LongitudeDegrees>
            </Position>
            <AltitudeMeters>1130</AltitudeMeters>
            <DistanceMeters>165328.43451158</DistanceMeters>
          </Trackpoint>
          <Trackpoint>
            <Time>2021-07-29T08:21:47.000Z</Time>
            <Position>
              <LatitudeDegrees>41.743988692760467529296875</LatitudeDegrees>
              <LongitudeDegrees>-2.84305111505091190338134765625</LongitudeDegrees>
            </Position>
            <AltitudeMeters>1131.199951171875</AltitudeMeters>
            <DistanceMeters>165345.68807643</DistanceMeters>
          </Trackpoint>
          <Trackpoint>
            <Time>2021-07-29T08:21:51.000Z</Time>
            <Position>
              <LatitudeDegrees>41.744131855666637420654296875</LatitudeDegrees>
              <LongitudeDegrees>-2.84307709895074367523193359375</LongitudeDegrees>
            </Position>
            <AltitudeMeters>1132.4000244140625</AltitudeMeters>
            <DistanceMeters>165361.76810158</DistanceMeters>
          </Trackpoint>
          <Trackpoint>
            <Time>2021-07-29T08:21:59.000Z</Time>
            <Position>
              <LatitudeDegrees>41.744424887001514434814453125</LatitudeDegrees>
              <LongitudeDegrees>-2.843134514987468719482421875</LongitudeDegrees>
            </Position>
            <AltitudeMeters>1133.4000244140625</AltitudeMeters>
            <DistanceMeters>165394.72990884</DistanceMeters>
          </Trackpoint>
          <Trackpoint>
            <Time>2021-07-29T08:22:04.000Z</Time>
            <Position>
              <LatitudeDegrees>41.74461171962320804595947265625</LatitudeDegrees>
              <LongitudeDegrees>-2.84316904842853546142578125</LongitudeDegrees>
            </Position>
            <AltitudeMeters>1134.5999755859375</AltitudeMeters>
            <DistanceMeters>165415.721566</DistanceMeters>
          </Trackpoint>
          <Trackpoint>
            <Time>2021-07-29T08:22:13.000Z</Time>
            <Position>
              <LatitudeDegrees>41.74494096077978610992431640625</LatitudeDegrees>
              <LongitudeDegrees>-2.84323166124522686004638671875</LongitudeDegrees>
            </Position>
            <AltitudeMeters>1135.5999755859375</AltitudeMeters>
            <DistanceMeters>165452.73370883</DistanceMeters>
          </Trackpoint>
          <Trackpoint>
            <Time>2021-07-29T08:22:18.000Z</Time>
            <Position>
              <LatitudeDegrees>41.74511580727994441986083984375</LatitudeDegrees>
              <LongitudeDegrees>-2.84326636232435703277587890625</LongitudeDegrees>
            </Position>
            <AltitudeMeters>1136.800048828125</AltitudeMeters>
            <DistanceMeters>165472.4067634</DistanceMeters>
          </Trackpoint>
          <Trackpoint>
            <Time>2021-07-29T08:22:33.000Z</Time>
            <Position>
              <LatitudeDegrees>41.74566633068025112152099609375</LatitudeDegrees>
              <LongitudeDegrees>-2.84336996264755725860595703125</LongitudeDegrees>
            </Position>
            <AltitudeMeters>1137.4000244140625</AltitudeMeters>
            <DistanceMeters>165534.28221743</DistanceMeters>
          </Trackpoint>
          <Trackpoint>
            <Time>2021-07-29T08:22:46.000Z</Time>
            <Position>
              <LatitudeDegrees>41.74621584825217723846435546875</LatitudeDegrees>
              <LongitudeDegrees>-2.84348680637776851654052734375</LongitudeDegrees>
            </Position>
            <AltitudeMeters>1136.4000244140625</AltitudeMeters>
            <DistanceMeters>165596.20960414</DistanceMeters>
          </Trackpoint>
          <Trackpoint>
            <Time>2021-07-29T08:22:54.000Z</Time>
            <Position>
              <LatitudeDegrees>41.74655632115900516510009765625</LatitudeDegrees>
              <LongitudeDegrees>-2.84355218522250652313232421875</LongitudeDegrees>
            </Position>
            <AltitudeMeters>1137.800048828125</AltitudeMeters>
            <DistanceMeters>165634.49204511</DistanceMeters>
          </Trackpoint>
          <Trackpoint>
            <Time>2021-07-29T08:22:58.000Z</Time>
            <Position>
              <LatitudeDegrees>41.74671272747218608856201171875</LatitudeDegrees>
              <LongitudeDegrees>-2.84358906559646129608154296875</LongitudeDegrees>
            </Position>
            <AltitudeMeters>1139</AltitudeMeters>
            <DistanceMeters>165652.16803575</DistanceMeters>
          </Trackpoint>
          <Trackpoint>
            <Time>2021-07-29T08:23:12.000Z</Time>
            <Position>
              <LatitudeDegrees>41.7472792603075504302978515625</LatitudeDegrees>
              <LongitudeDegrees>-2.843684367835521697998046875</LongitudeDegrees>
            </Position>
            <AltitudeMeters>1138.199951171875</AltitudeMeters>
            <DistanceMeters>165715.71895824</DistanceMeters>
          </Trackpoint>
          <Trackpoint>
            <Time>2021-07-29T08:23:24.000Z</Time>
            <Position>
              <LatitudeDegrees>41.74782534129917621612548828125</LatitudeDegrees>
              <LongitudeDegrees>-2.8437170572578907012939453125</LongitudeDegrees>
            </Position>
            <AltitudeMeters>1138.5999755859375</AltitudeMeters>
            <DistanceMeters>165776.55951064</DistanceMeters>
          </Trackpoint>
          <Trackpoint>
            <Time>2021-07-29T08:23:36.000Z</Time>
            <Position>
              <LatitudeDegrees>41.7483655549585819244384765625</LatitudeDegrees>
              <LongitudeDegrees>-2.843758799135684967041015625</LongitudeDegrees>
            </Position>
            <AltitudeMeters>1139.4000244140625</AltitudeMeters>
            <DistanceMeters>165836.78620975</DistanceMeters>
          </Trackpoint>
          <Trackpoint>
            <Time>2021-07-29T08:23:39.000Z</Time>
            <Position>
              <LatitudeDegrees>41.748495139181613922119140625</LatitudeDegrees>
              <LongitudeDegrees>-2.84376315772533416748046875</LongitudeDegrees>
            </Position>
            <AltitudeMeters>1139.800048828125</AltitudeMeters>
            <DistanceMeters>165851.21338072</DistanceMeters>
          </Trackpoint>
          <Trackpoint>
            <Time>2021-07-29T08:23:50.000Z</Time>
            <Position>
              <LatitudeDegrees>41.74901909194886684417724609375</LatitudeDegrees>
              <LongitudeDegrees>-2.8437571227550506591796875</LongitudeDegrees>
            </Position>
            <AltitudeMeters>1138.800048828125</AltitudeMeters>
            <DistanceMeters>165909.53253805</DistanceMeters>
          </Trackpoint>
          <Trackpoint>
            <Time>2021-07-29T08:24:01.000Z</Time>
            <Position>
              <LatitudeDegrees>41.7495842836797237396240234375</LatitudeDegrees>
              <LongitudeDegrees>-2.84361287020146846771240234375</LongitudeDegrees>
            </Position>
            <AltitudeMeters>1138</AltitudeMeters>
            <DistanceMeters>165973.56982746</DistanceMeters>
          </Trackpoint>
          <Trackpoint>
            <Time>2021-07-29T08:24:02.000Z</Time>
            <Position>
              <LatitudeDegrees>41.7496375925838947296142578125</LatitudeDegrees>
              <LongitudeDegrees>-2.84359753131866455078125</LongitudeDegrees>
            </Position>
            <AltitudeMeters>1137.5999755859375</AltitudeMeters>
            <DistanceMeters>165979.63815934</DistanceMeters>
          </Trackpoint>
          <Trackpoint>
            <Time>2021-07-29T08:24:07.000Z</Time>
            <Position>
              <LatitudeDegrees>41.74990832805633544921875</LatitudeDegrees>
              <LongitudeDegrees>-2.8435076773166656494140625</LongitudeDegrees>
            </Position>
            <AltitudeMeters>1136.199951171875</AltitudeMeters>
            <DistanceMeters>166010.68151222</DistanceMeters>
          </Trackpoint>
          <Trackpoint>
            <Time>2021-07-29T08:24:11.000Z</Time>
            <Position>
              <LatitudeDegrees>41.7501395009458065032958984375</LatitudeDegrees>
              <LongitudeDegrees>-2.84343483857810497283935546875</LongitudeDegrees>
            </Position>
            <AltitudeMeters>1135.199951171875</AltitudeMeters>
            <DistanceMeters>166037.11294983</DistanceMeters>
          </Trackpoint>
          <Trackpoint>
            <Time>2021-07-29T08:24:20.000Z</Time>
            <Position>
              <LatitudeDegrees>41.75067150034010410308837890625</LatitudeDegrees>
              <LongitudeDegrees>-2.84326753579080104827880859375</LongitudeDegrees>
            </Position>
            <AltitudeMeters>1134.5999755859375</AltitudeMeters>
            <DistanceMeters>166097.93346195</DistanceMeters>
          </Trackpoint>
          <Trackpoint>
            <Time>2021-07-29T08:24:29.000Z</Time>
            <Position>
              <LatitudeDegrees>41.7512033320963382720947265625</LatitudeDegrees>
              <LongitudeDegrees>-2.84312806092202663421630859375</LongitudeDegrees>
            </Position>
            <AltitudeMeters>1134</AltitudeMeters>
            <DistanceMeters>166158.24975542</DistanceMeters>
          </Trackpoint>
          <Trackpoint>
            <Time>2021-07-29T08:24:30.000Z</Time>
            <Position>
              <LatitudeDegrees>41.7512616701424121856689453125</LatitudeDegrees>
              <LongitudeDegrees>-2.84311330877244472503662109375</LongitudeDegrees>
            </Position>
            <AltitudeMeters>1134</AltitudeMeters>
            <DistanceMeters>166164.85667524</DistanceMeters>
          </Trackpoint>
          <Trackpoint>
            <Time>2021-07-29T08:24:40.000Z</Time>
            <Position>
              <LatitudeDegrees>41.75181713886559009552001953125</LatitudeDegrees>
              <LongitudeDegrees>-2.84298774786293506622314453125</LongitudeDegrees>
            </Position>
            <AltitudeMeters>1134.4000244140625</AltitudeMeters>
            <DistanceMeters>166227.55443436</DistanceMeters>
          </Trackpoint>
          <Trackpoint>
            <Time>2021-07-29T08:24:44.000Z</Time>
            <Position>
              <LatitudeDegrees>41.75202819518744945526123046875</LatitudeDegrees>
              <LongitudeDegrees>-2.842941395938396453857421875</LongitudeDegrees>
            </Position>
            <AltitudeMeters>1135</AltitudeMeters>
            <DistanceMeters>166251.35857889</DistanceMeters>
          </Trackpoint>
          <Trackpoint>
            <Time>2021-07-29T08:24:50.000Z</Time>
            <Position>
              <LatitudeDegrees>41.75233346410095691680908203125</LatitudeDegrees>
              <LongitudeDegrees>-2.8428778611123561859130859375</LongitudeDegrees>
            </Position>
            <AltitudeMeters>1136.199951171875</AltitudeMeters>
            <DistanceMeters>166285.74275822</DistanceMeters>
          </Trackpoint>
          <Trackpoint>
            <Time>2021-07-29T08:24:57.000Z</Time>
            <Position>
              <LatitudeDegrees>41.7526721768081188201904296875</LatitudeDegrees>
              <LongitudeDegrees>-2.84279613755643367767333984375</LongitudeDegrees>
            </Position>
            <AltitudeMeters>1137.199951171875</AltitudeMeters>
            <DistanceMeters>166324.04795488</DistanceMeters>
          </Trackpoint>
          <Trackpoint>
            <Time>2021-07-29T08:25:09.000Z</Time>
            <Position>
              <LatitudeDegrees>41.75322957336902618408203125</LatitudeDegrees>
              <LongitudeDegrees>-2.84267426468431949615478515625</LongitudeDegrees>
            </Position>
            <AltitudeMeters>1138</AltitudeMeters>
            <DistanceMeters>166386.90717473</DistanceMeters>
          </Trackpoint>
          <Trackpoint>
            <Time>2021-07-29T08:25:13.000Z</Time>
            <Position>
              <LatitudeDegrees>41.7534126341342926025390625</LatitudeDegrees>
              <LongitudeDegrees>-2.84263168461620807647705078125</LongitudeDegrees>
            </Position>
            <AltitudeMeters>1138.4000244140625</AltitudeMeters>
            <DistanceMeters>166407.58678692</DistanceMeters>
          </Trackpoint>
          <Trackpoint>
            <Time>2021-07-29T08:25:19.000Z</Time>
            <Position>
              <LatitudeDegrees>41.7536780051887035369873046875</LatitudeDegrees>
              <LongitudeDegrees>-2.84257384948432445526123046875</LongitudeDegrees>
            </Position>
            <AltitudeMeters>1139.4000244140625</AltitudeMeters>
            <DistanceMeters>166437.51099953</DistanceMeters>
          </Trackpoint>
          <Trackpoint>
            <Time>2021-07-29T08:25:31.000Z</Time>
            <Position>
              <LatitudeDegrees>41.7542387545108795166015625</LatitudeDegrees>
              <LongitudeDegrees>-2.842452563345432281494140625</LongitudeDegrees>
            </Position>
            <AltitudeMeters>1138.800048828125</AltitudeMeters>
            <DistanceMeters>166500.73076641</DistanceMeters>
          </Trackpoint>
          <Trackpoint>
            <Time>2021-07-29T08:25:34.000Z</Time>
            <Position>
              <LatitudeDegrees>41.7544011957943439483642578125</LatitudeDegrees>
              <LongitudeDegrees>-2.84241710789501667022705078125</LongitudeDegrees>
            </Position>
            <AltitudeMeters>1138.4000244140625</AltitudeMeters>
            <DistanceMeters>166519.04899887</DistanceMeters>
          </Trackpoint>
          <Trackpoint>
            <Time>2021-07-29T08:25:44.000Z</Time>
            <Position>
              <LatitudeDegrees>41.75494350492954254150390625</LatitudeDegrees>
              <LongitudeDegrees>-2.842305712401866912841796875</LongitudeDegrees>
            </Position>
            <AltitudeMeters>1138.4000244140625</AltitudeMeters>
            <DistanceMeters>166580.11362691</DistanceMeters>
          </Trackpoint>
          <Trackpoint>
            <Time>2021-07-29T08:25:55.000Z</Time>
            <Position>
              <LatitudeDegrees>41.7555280588567256927490234375</LatitudeDegrees>
              <LongitudeDegrees>-2.84217755310237407684326171875</LongitudeDegrees>
            </Position>
            <AltitudeMeters>1138.199951171875</AltitudeMeters>
            <DistanceMeters>166646.04011789</DistanceMeters>
          </Trackpoint>
          <Trackpoint>
            <Time>2021-07-29T08:26:06.000Z</Time>
            <Position>
              <LatitudeDegrees>41.756074726581573486328125</LatitudeDegrees>
              <LongitudeDegrees>-2.8420624695718288421630859375</LongitudeDegrees>
            </Position>
            <AltitudeMeters>1139</AltitudeMeters>
            <DistanceMeters>166707.63106539</DistanceMeters>
          </Trackpoint>
          <Trackpoint>
            <Time>2021-07-29T08:26:18.000Z</Time>
            <Position>
              <LatitudeDegrees>41.75665014423429965972900390625</LatitudeDegrees>
              <LongitudeDegrees>-2.8421318717300891876220703125</LongitudeDegrees>
            </Position>
            <AltitudeMeters>1139.199951171875</AltitudeMeters>
            <DistanceMeters>166771.93487838</DistanceMeters>
          </Trackpoint>
          <Trackpoint>
            <Time>2021-07-29T08:26:22.000Z</Time>
            <Position>
              <LatitudeDegrees>41.7568383179605007171630859375</LatitudeDegrees>
              <LongitudeDegrees>-2.84220278263092041015625</LongitudeDegrees>
            </Position>
            <AltitudeMeters>1139.4000244140625</AltitudeMeters>
            <DistanceMeters>166793.6908083</DistanceMeters>
          </Trackpoint>
          <Trackpoint>
            <Time>2021-07-29T08:26:23.000Z</Time>
            <Position>
              <LatitudeDegrees>41.75688349641859531402587890625</LatitudeDegrees>
              <LongitudeDegrees>-2.84221912734210491180419921875</LongitudeDegrees>
            </Position>
            <AltitudeMeters>1139.4000244140625</AltitudeMeters>
            <DistanceMeters>166798.89997135</DistanceMeters>
          </Trackpoint>
          <Trackpoint>
            <Time>2021-07-29T08:26:35.000Z</Time>
            <Position>
              <LatitudeDegrees>41.75741658546030521392822265625</LatitudeDegrees>
              <LongitudeDegrees>-2.84240889362990856170654296875</LongitudeDegrees>
            </Position>
            <AltitudeMeters>1140.199951171875</AltitudeMeters>
            <DistanceMeters>166860.29024432</DistanceMeters>
          </Trackpoint>
          <Trackpoint>
            <Time>2021-07-29T08:26:38.000Z</Time>
            <Position>
              <LatitudeDegrees>41.7575512826442718505859375</LatitudeDegrees>
              <LongitudeDegrees>-2.842461951076984405517578125</LongitudeDegrees>
            </Position>
            <AltitudeMeters>1140.4000244140625</AltitudeMeters>
            <DistanceMeters>166875.91599988</DistanceMeters>
          </Trackpoint>
          <Trackpoint>
            <Time>2021-07-29T08:26:50.000Z</Time>
            <Position>
              <LatitudeDegrees>41.75809107720851898193359375</LatitudeDegrees>
              <LongitudeDegrees>-2.8426663018763065338134765625</LongitudeDegrees>
            </Position>
            <AltitudeMeters>1141.199951171875</AltitudeMeters>
            <DistanceMeters>166938.3459477</DistanceMeters>
          </Trackpoint>
          <Trackpoint>
            <Time>2021-07-29T08:27:02.000Z</Time>
            <Position>
              <LatitudeDegrees>41.7586447857320308685302734375</LatitudeDegrees>
              <LongitudeDegrees>-2.8428708203136920928955078125</LongitudeDegrees>
            </Position>
            <AltitudeMeters>1141</AltitudeMeters>
            <DistanceMeters>167002.27131616</DistanceMeters>
          </Trackpoint>
          <Trackpoint>
            <Time>2021-07-29T08:27:14.000Z</Time>
            <Position>
              <LatitudeDegrees>41.759206540882587432861328125</LatitudeDegrees>
              <LongitudeDegrees>-2.8430783562362194061279296875</LongitudeDegrees>
            </Position>
            <AltitudeMeters>1141</AltitudeMeters>
            <DistanceMeters>167067.12661362</DistanceMeters>
          </Trackpoint>
          <Trackpoint>
            <Time>2021-07-29T08:27:20.000Z</Time>
            <Position>
              <LatitudeDegrees>41.7594786174595355987548828125</LatitudeDegrees>
              <LongitudeDegrees>-2.84317902289330959320068359375</LongitudeDegrees>
            </Position>
            <AltitudeMeters>1141.199951171875</AltitudeMeters>
            <DistanceMeters>167098.54153132</DistanceMeters>
          </Trackpoint>
          <Trackpoint>
            <Time>2021-07-29T08:27:32.000Z</Time>
            <Position>
              <LatitudeDegrees>41.76000843755900859832763671875</LatitudeDegrees>
              <LongitudeDegrees>-2.8433697111904621124267578125</LongitudeDegrees>
            </Position>
            <AltitudeMeters>1141.800048828125</AltitudeMeters>
            <DistanceMeters>167159.59987425</DistanceMeters>
          </Trackpoint>
          <Trackpoint>
            <Time>2021-07-29T08:27:44.000Z</Time>
            <Position>
              <LatitudeDegrees>41.76055736839771270751953125</LatitudeDegrees>
              <LongitudeDegrees>-2.8435765765607357025146484375</LongitudeDegrees>
            </Position>
            <AltitudeMeters>1141.5999755859375</AltitudeMeters>
            <DistanceMeters>167223.06505744</DistanceMeters>
          </Trackpoint>
          <Trackpoint>
            <Time>2021-07-29T08:27:56.000Z</Time>
            <Position>
              <LatitudeDegrees>41.76112188957631587982177734375</LatitudeDegrees>
              <LongitudeDegrees>-2.843783609569072723388671875</LongitudeDegrees>
            </Position>
            <AltitudeMeters>1142.199951171875</AltitudeMeters>
            <DistanceMeters>167288.20606075</DistanceMeters>
          </Trackpoint>
          <Trackpoint>
            <Time>2021-07-29T08:27:57.000Z</Time>
            <Position>
              <LatitudeDegrees>41.76116664893925189971923828125</LatitudeDegrees>
              <LongitudeDegrees>-2.84380163066089153289794921875</LongitudeDegrees>
            </Position>
            <AltitudeMeters>1142.199951171875</AltitudeMeters>
            <DistanceMeters>167293.40741721</DistanceMeters>
          </Trackpoint>
          <Trackpoint>
            <Time>2021-07-29T08:28:09.000Z</Time>
            <Position>
              <LatitudeDegrees>41.76170761696994304656982421875</LatitudeDegrees>
              <LongitudeDegrees>-2.8439896367490291595458984375</LongitudeDegrees>
            </Position>
            <AltitudeMeters>1143.199951171875</AltitudeMeters>
            <DistanceMeters>167355.60848129</DistanceMeters>
          </Trackpoint>
          <Trackpoint>
            <Time>2021-07-29T08:28:11.000Z</Time>
            <Position>
              <LatitudeDegrees>41.7617999017238616943359375</LatitudeDegrees>
              <LongitudeDegrees>-2.84402442164719104766845703125</LongitudeDegrees>
            </Position>
            <AltitudeMeters>1143.199951171875</AltitudeMeters>
            <DistanceMeters>167366.27774291</DistanceMeters>
          </Trackpoint>
          <Trackpoint>
            <Time>2021-07-29T08:28:22.000Z</Time>
            <Position>
              <LatitudeDegrees>41.7623267881572246551513671875</LatitudeDegrees>
              <LongitudeDegrees>-2.8441996872425079345703125</LongitudeDegrees>
            </Position>
            <AltitudeMeters>1142.800048828125</AltitudeMeters>
            <DistanceMeters>167426.6994912</DistanceMeters>
          </Trackpoint>
          <Trackpoint>
            <Time>2021-07-29T08:28:33.000Z</Time>
            <Position>
              <LatitudeDegrees>41.76286649890244007110595703125</LatitudeDegrees>
              <LongitudeDegrees>-2.84439481794834136962890625</LongitudeDegrees>
            </Position>
            <AltitudeMeters>1143</AltitudeMeters>
            <DistanceMeters>167488.91637741</DistanceMeters>
          </Trackpoint>
          <Trackpoint>
            <Time>2021-07-29T08:28:43.000Z</Time>
            <Position>
              <LatitudeDegrees>41.7633245699107646942138671875</LatitudeDegrees>
              <LongitudeDegrees>-2.84457427449524402618408203125</LongitudeDegrees>
            </Position>
            <AltitudeMeters>1144.4000244140625</AltitudeMeters>
            <DistanceMeters>167542.03282574</DistanceMeters>
          </Trackpoint>
          <Trackpoint>
            <Time>2021-07-29T08:28:55.000Z</Time>
            <Position>
              <LatitudeDegrees>41.76388733088970184326171875</LatitudeDegrees>
              <LongitudeDegrees>-2.84478868357837200164794921875</LongitudeDegrees>
            </Position>
            <AltitudeMeters>1144</AltitudeMeters>
            <DistanceMeters>167607.1493574</DistanceMeters>
          </Trackpoint>
          <Trackpoint>
            <Time>2021-07-29T08:29:06.000Z</Time>
            <Position>
              <LatitudeDegrees>41.76446425728499889373779296875</LatitudeDegrees>
              <LongitudeDegrees>-2.84496772103011608123779296875</LongitudeDegrees>
            </Position>
            <AltitudeMeters>1143.4000244140625</AltitudeMeters>
            <DistanceMeters>167673.06023174</DistanceMeters>
          </Trackpoint>
          <Trackpoint>
            <Time>2021-07-29T08:29:17.000Z</Time>
            <Position>
              <LatitudeDegrees>41.765027940273284912109375</LatitudeDegrees>
              <LongitudeDegrees>-2.8450876660645008087158203125</LongitudeDegrees>
            </Position>
            <AltitudeMeters>1143.5999755859375</AltitudeMeters>
            <DistanceMeters>167736.58457748</DistanceMeters>
          </Trackpoint>
          <Trackpoint>
            <Time>2021-07-29T08:29:29.000Z</Time>
            <Position>
              <LatitudeDegrees>41.76560017280280590057373046875</LatitudeDegrees>
              <LongitudeDegrees>-2.84521062858402729034423828125</LongitudeDegrees>
            </Position>
            <AltitudeMeters>1145.199951171875</AltitudeMeters>
            <DistanceMeters>167801.08805042</DistanceMeters>
          </Trackpoint>
          <Trackpoint>
            <Time>2021-07-29T08:29:40.000Z</Time>
            <Position>
              <LatitudeDegrees>41.76614616997539997100830078125</LatitudeDegrees>
              <LongitudeDegrees>-2.84531640820205211639404296875</LongitudeDegrees>
            </Position>
            <AltitudeMeters>1145.199951171875</AltitudeMeters>
            <DistanceMeters>167862.4898691</DistanceMeters>
          </Trackpoint>
          <Trackpoint>
            <Time>2021-07-29T08:29:51.000Z</Time>
            <Position>
              <LatitudeDegrees>41.76668998785316944122314453125</LatitudeDegrees>
              <LongitudeDegrees>-2.84551120363175868988037109375</LongitudeDegrees>
            </Position>
            <AltitudeMeters>1145.199951171875</AltitudeMeters>
            <DistanceMeters>167925.14094657</DistanceMeters>
          </Trackpoint>
          <Trackpoint>
            <Time>2021-07-29T08:30:01.000Z</Time>
            <Position>
              <LatitudeDegrees>41.7671634815633296966552734375</LatitudeDegrees>
              <LongitudeDegrees>-2.84571840427815914154052734375</LongitudeDegrees>
            </Position>
            <AltitudeMeters>1146.199951171875</AltitudeMeters>
            <DistanceMeters>167980.57777581</DistanceMeters>
          </Trackpoint>
          <Trackpoint>
            <Time>2021-07-29T08:30:13.000Z</Time>
            <Position>
              <LatitudeDegrees>41.76774032413959503173828125</LatitudeDegrees>
              <LongitudeDegrees>-2.8458393551409244537353515625</LongitudeDegrees>
            </Position>
            <AltitudeMeters>1147</AltitudeMeters>
            <DistanceMeters>168045.56187625</DistanceMeters>
          </Trackpoint>
          <Trackpoint>
            <Time>2021-07-29T08:30:14.000Z</Time>
            <Position>
              <LatitudeDegrees>41.7677874304354190826416015625</LatitudeDegrees>
              <LongitudeDegrees>-2.8458477370440959930419921875</LongitudeDegrees>
            </Position>
            <AltitudeMeters>1147.199951171875</AltitudeMeters>
            <DistanceMeters>168050.85017907</DistanceMeters>
          </Trackpoint>
          <Trackpoint>
            <Time>2021-07-29T08:30:20.000Z</Time>
            <Position>
              <LatitudeDegrees>41.768069565296173095703125</LatitudeDegrees>
              <LongitudeDegrees>-2.84589224494993686676025390625</LongitudeDegrees>
            </Position>
            <AltitudeMeters>1148.4000244140625</AltitudeMeters>
            <DistanceMeters>168082.46909561</DistanceMeters>
          </Trackpoint>
          <Trackpoint>
            <Time>2021-07-29T08:30:32.000Z</Time>
            <Position>
              <LatitudeDegrees>41.76861480809748172760009765625</LatitudeDegrees>
              <LongitudeDegrees>-2.846028618514537811279296875</LongitudeDegrees>
            </Position>
            <AltitudeMeters>1148.5999755859375</AltitudeMeters>
            <DistanceMeters>168144.20267969</DistanceMeters>
          </Trackpoint>
          <Trackpoint>
            <Time>2021-07-29T08:30:42.000Z</Time>
            <Position>
              <LatitudeDegrees>41.76904253661632537841796875</LatitudeDegrees>
              <LongitudeDegrees>-2.84619432874023914337158203125</LongitudeDegrees>
            </Position>
            <AltitudeMeters>1149.5999755859375</AltitudeMeters>
            <DistanceMeters>168193.75726624</DistanceMeters>
          </Trackpoint>
          <Trackpoint>
            <Time>2021-07-29T08:30:54.000Z</Time>
            <Position>
              <LatitudeDegrees>41.7695573531091213226318359375</LatitudeDegrees>
              <LongitudeDegrees>-2.84640605561435222625732421875</LongitudeDegrees>
            </Position>
            <AltitudeMeters>1150.800048828125</AltitudeMeters>
            <DistanceMeters>168253.69238607</DistanceMeters>
          </Trackpoint>
          <Trackpoint>
            <Time>2021-07-29T08:31:03.000Z</Time>
            <Position>
              <LatitudeDegrees>41.7699388973414897918701171875</LatitudeDegrees>
              <LongitudeDegrees>-2.84655240364372730255126953125</LongitudeDegrees>
            </Position>
            <AltitudeMeters>1151.800048828125</AltitudeMeters>
            <DistanceMeters>168297.86253659</DistanceMeters>
          </Trackpoint>
          <Trackpoint>
            <Time>2021-07-29T08:31:15.000Z</Time>
            <Position>
              <LatitudeDegrees>41.77047994919121265411376953125</LatitudeDegrees>
              <LongitudeDegrees>-2.84677393734455108642578125</LongitudeDegrees>
            </Position>
            <AltitudeMeters>1151.5999755859375</AltitudeMeters>
            <DistanceMeters>168360.82804351</DistanceMeters>
          </Trackpoint>
          <Trackpoint>
            <Time>2021-07-29T08:31:27.000Z</Time>
            <Position>
              <LatitudeDegrees>41.77097246982157230377197265625</LatitudeDegrees>
              <LongitudeDegrees>-2.84708951599895954132080078125</LongitudeDegrees>
            </Position>
            <AltitudeMeters>1152</AltitudeMeters>
            <DistanceMeters>168421.58438235</DistanceMeters>
          </Trackpoint>
          <Trackpoint>
            <Time>2021-07-29T08:31:31.000Z</Time>
            <Position>
              <LatitudeDegrees>41.77116692997515201568603515625</LatitudeDegrees>
              <LongitudeDegrees>-2.8472709842026233673095703125</LongitudeDegrees>
            </Position>
            <AltitudeMeters>1150.4000244140625</AltitudeMeters>
            <DistanceMeters>168447.95425278</DistanceMeters>
          </Trackpoint>
          <Trackpoint>
            <Time>2021-07-29T08:31:33.000Z</Time>
            <Position>
              <LatitudeDegrees>41.77128008566796779632568359375</LatitudeDegrees>
              <LongitudeDegrees>-2.84738481044769287109375</LongitudeDegrees>
            </Position>
            <AltitudeMeters>1149</AltitudeMeters>
            <DistanceMeters>168463.69889183</DistanceMeters>
          </Trackpoint>
          <Trackpoint>
            <Time>2021-07-29T08:31:35.000Z</Time>
            <Position>
              <LatitudeDegrees>41.7714007012546062469482421875</LatitudeDegrees>
              <LongitudeDegrees>-2.84750022925436496734619140625</LongitudeDegrees>
            </Position>
            <AltitudeMeters>1147</AltitudeMeters>
            <DistanceMeters>168480.19198198</DistanceMeters>
          </Trackpoint>
          <Trackpoint>
            <Time>2021-07-29T08:31:37.000Z</Time>
            <Position>
              <LatitudeDegrees>41.77151880227029323577880859375</LatitudeDegrees>
              <LongitudeDegrees>-2.84763450734317302703857421875</LongitudeDegrees>
            </Position>
            <AltitudeMeters>1145.4000244140625</AltitudeMeters>
            <DistanceMeters>168497.42669505</DistanceMeters>
          </Trackpoint>
          <Trackpoint>
            <Time>2021-07-29T08:31:38.000Z</Time>
            <Position>
              <LatitudeDegrees>41.7715757153928279876708984375</LatitudeDegrees>
              <LongitudeDegrees>-2.847715727984905242919921875</LongitudeDegrees>
            </Position>
            <AltitudeMeters>1144.800048828125</AltitudeMeters>
            <DistanceMeters>168506.67802276</DistanceMeters>
          </Trackpoint>
          <Trackpoint>
            <Time>2021-07-29T08:31:39.000Z</Time>
            <Position>
              <LatitudeDegrees>41.7716263420879840850830078125</LatitudeDegrees>
              <LongitudeDegrees>-2.8478104434907436370849609375</LongitudeDegrees>
            </Position>
            <AltitudeMeters>1144</AltitudeMeters>
            <DistanceMeters>168516.35022996</DistanceMeters>
          </Trackpoint>
          <Trackpoint>
            <Time>2021-07-29T08:31:41.000Z</Time>
            <Position>
              <LatitudeDegrees>41.77169926464557647705078125</LatitudeDegrees>
              <LongitudeDegrees>-2.84802787005901336669921875</LongitudeDegrees>
            </Position>
            <AltitudeMeters>1142</AltitudeMeters>
            <DistanceMeters>168536.13952896</DistanceMeters>
          </Trackpoint>
          <Trackpoint>
            <Time>2021-07-29T08:31:43.000Z</Time>
            <Position>
              <LatitudeDegrees>41.77174310199916362762451171875</LatitudeDegrees>
              <LongitudeDegrees>-2.848250828683376312255859375</LongitudeDegrees>
            </Position>
            <AltitudeMeters>1139.800048828125</AltitudeMeters>
            <DistanceMeters>168555.2798059</DistanceMeters>
          </Trackpoint>
          <Trackpoint>
            <Time>2021-07-29T08:31:45.000Z</Time>
            <Position>
              <LatitudeDegrees>41.771761961281299591064453125</LatitudeDegrees>
              <LongitudeDegrees>-2.848478816449642181396484375</LongitudeDegrees>
            </Position>
            <AltitudeMeters>1138.4000244140625</AltitudeMeters>
            <DistanceMeters>168574.32122469</DistanceMeters>
          </Trackpoint>
          <Trackpoint>
            <Time>2021-07-29T08:31:46.000Z</Time>
            <Position>
              <LatitudeDegrees>41.77175684832036495208740234375</LatitudeDegrees>
              <LongitudeDegrees>-2.8486038744449615478515625</LongitudeDegrees>
            </Position>
            <AltitudeMeters>1137.4000244140625</AltitudeMeters>
            <DistanceMeters>168584.71785948</DistanceMeters>
          </Trackpoint>
          <Trackpoint>
            <Time>2021-07-29T08:31:47.000Z</Time>
            <Position>
              <LatitudeDegrees>41.771731115877628326416015625</LatitudeDegrees>
              <LongitudeDegrees>-2.84873136319220066070556640625</LongitudeDegrees>
            </Position>
            <AltitudeMeters>1136.4000244140625</AltitudeMeters>
            <DistanceMeters>168595.6818176</DistanceMeters>
          </Trackpoint>
          <Trackpoint>
            <Time>2021-07-29T08:31:48.000Z</Time>
            <Position>
              <LatitudeDegrees>41.771686859428882598876953125</LatitudeDegrees>
              <LongitudeDegrees>-2.84885038621723651885986328125</LongitudeDegrees>
            </Position>
            <AltitudeMeters>1135</AltitudeMeters>
            <DistanceMeters>168606.72128823</DistanceMeters>
          </Trackpoint>
          <Trackpoint>
            <Time>2021-07-29T08:31:49.000Z</Time>
            <Position>
              <LatitudeDegrees>41.77163111977279186248779296875</LatitudeDegrees>
              <LongitudeDegrees>-2.848962284624576568603515625</LongitudeDegrees>
            </Position>
            <AltitudeMeters>1133.800048828125</AltitudeMeters>
            <DistanceMeters>168617.89127329</DistanceMeters>
          </Trackpoint>
          <Trackpoint>
            <Time>2021-07-29T08:31:50.000Z</Time>
            <Position>
              <LatitudeDegrees>41.7715726979076862335205078125</LatitudeDegrees>
              <LongitudeDegrees>-2.84907083027064800262451171875</LongitudeDegrees>
            </Position>
            <AltitudeMeters>1133</AltitudeMeters>
            <DistanceMeters>168629.00249307</DistanceMeters>
          </Trackpoint>
          <Trackpoint>
            <Time>2021-07-29T08:31:51.000Z</Time>
            <Position>
              <LatitudeDegrees>41.771515198051929473876953125</LatitudeDegrees>
              <LongitudeDegrees>-2.84918013028800487518310546875</LongitudeDegrees>
            </Position>
            <AltitudeMeters>1131.5999755859375</AltitudeMeters>
            <DistanceMeters>168640.1055829</DistanceMeters>
          </Trackpoint>
          <Trackpoint>
            <Time>2021-07-29T08:31:53.000Z</Time>
            <Position>
              <LatitudeDegrees>41.771410591900348663330078125</LatitudeDegrees>
              <LongitudeDegrees>-2.84940116107463836669921875</LongitudeDegrees>
            </Position>
            <AltitudeMeters>1130.5999755859375</AltitudeMeters>
            <DistanceMeters>168661.83576369</DistanceMeters>
          </Trackpoint>
          <Trackpoint>
            <Time>2021-07-29T08:31:55.000Z</Time>
            <Position>
              <LatitudeDegrees>41.7713396809995174407958984375</LatitudeDegrees>
              <LongitudeDegrees>-2.84962101839482784271240234375</LongitudeDegrees>
            </Position>
            <AltitudeMeters>1129.5999755859375</AltitudeMeters>
            <DistanceMeters>168681.71974888</DistanceMeters>
          </Trackpoint>
          <Trackpoint>
            <Time>2021-07-29T08:31:59.000Z</Time>
            <Position>
              <LatitudeDegrees>41.77136926911771297454833984375</LatitudeDegrees>
              <LongitudeDegrees>-2.85001379437744617462158203125</LongitudeDegrees>
            </Position>
            <AltitudeMeters>1128.4000244140625</AltitudeMeters>
            <DistanceMeters>168714.49005268</DistanceMeters>
          </Trackpoint>
          <Trackpoint>
            <Time>2021-07-29T08:32:02.000Z</Time>
            <Position>
              <LatitudeDegrees>41.77154109813272953033447265625</LatitudeDegrees>
              <LongitudeDegrees>-2.85015695728361606597900390625</LongitudeDegrees>
            </Position>
            <AltitudeMeters>1128.5999755859375</AltitudeMeters>
            <DistanceMeters>168737.00677251</DistanceMeters>
          </Trackpoint>
          <Trackpoint>
            <Time>2021-07-29T08:32:05.000Z</Time>
            <Position>
              <LatitudeDegrees>41.77169281058013439178466796875</LatitudeDegrees>
              <LongitudeDegrees>-2.8502650000154972076416015625</LongitudeDegrees>
            </Position>
            <AltitudeMeters>1129.800048828125</AltitudeMeters>
            <DistanceMeters>168756.12675198</DistanceMeters>
          </Trackpoint>
          <Trackpoint>
            <Time>2021-07-29T08:32:09.000Z</Time>
            <Position>
              <LatitudeDegrees>41.7718610353767871856689453125</LatitudeDegrees>
              <LongitudeDegrees>-2.8504036366939544677734375</LongitudeDegrees>
            </Position>
            <AltitudeMeters>1130.800048828125</AltitudeMeters>
            <DistanceMeters>168778.10464585</DistanceMeters>
          </Trackpoint>
          <Trackpoint>
            <Time>2021-07-29T08:32:10.000Z</Time>
            <Position>
              <LatitudeDegrees>41.77189649082720279693603515625</LatitudeDegrees>
              <LongitudeDegrees>-2.85044227726757526397705078125</LongitudeDegrees>
            </Position>
            <AltitudeMeters>1131</AltitudeMeters>
            <DistanceMeters>168783.19012901</DistanceMeters>
          </Trackpoint>
          <Trackpoint>
            <Time>2021-07-29T08:32:14.000Z</Time>
            <Position>
              <LatitudeDegrees>41.772034876048564910888671875</LatitudeDegrees>
              <LongitudeDegrees>-2.85057286731898784637451171875</LongitudeDegrees>
            </Position>
            <AltitudeMeters>1132.199951171875</AltitudeMeters>
            <DistanceMeters>168802.02508542</DistanceMeters>
          </Trackpoint>
          <Trackpoint>
            <Time>2021-07-29T08:32:17.000Z</Time>
            <Position>
              <LatitudeDegrees>41.77212464623153209686279296875</LatitudeDegrees>
              <LongitudeDegrees>-2.85067764110863208770751953125</LongitudeDegrees>
            </Position>
            <AltitudeMeters>1133.4000244140625</AltitudeMeters>
            <DistanceMeters>168815.27236837</DistanceMeters>
          </Trackpoint>
          <Trackpoint>
            <Time>2021-07-29T08:32:23.000Z</Time>
            <Position>
              <LatitudeDegrees>41.77231407724320888519287109375</LatitudeDegrees>
              <LongitudeDegrees>-2.850875370204448699951171875</LongitudeDegrees>
            </Position>
            <AltitudeMeters>1134.4000244140625</AltitudeMeters>
            <DistanceMeters>168841.99194741</DistanceMeters>
          </Trackpoint>
          <Trackpoint>
            <Time>2021-07-29T08:32:31.000Z</Time>
            <Position>
              <LatitudeDegrees>41.7726033367216587066650390625</LatitudeDegrees>
              <LongitudeDegrees>-2.8511112369596958160400390625</LongitudeDegrees>
            </Position>
            <AltitudeMeters>1135</AltitudeMeters>
            <DistanceMeters>168879.67300538</DistanceMeters>
          </Trackpoint>
          <Trackpoint>
            <Time>2021-07-29T08:32:39.000Z</Time>
            <Position>
              <LatitudeDegrees>41.772930733859539031982421875</LatitudeDegrees>
              <LongitudeDegrees>-2.85127275623381137847900390625</LongitudeDegrees>
            </Position>
            <AltitudeMeters>1135.4000244140625</AltitudeMeters>
            <DistanceMeters>168918.50115809</DistanceMeters>
          </Trackpoint>
          <Trackpoint>
            <Time>2021-07-29T08:32:50.000Z</Time>
            <Position>
              <LatitudeDegrees>41.77340053953230381011962890625</LatitudeDegrees>
              <LongitudeDegrees>-2.8513610176742076873779296875</LongitudeDegrees>
            </Position>
            <AltitudeMeters>1136.5999755859375</AltitudeMeters>
            <DistanceMeters>168971.30215999</DistanceMeters>
          </Trackpoint>
          <Trackpoint>
            <Time>2021-07-29T08:33:02.000Z</Time>
            <Position>
              <LatitudeDegrees>41.7738850973546504974365234375</LatitudeDegrees>
              <LongitudeDegrees>-2.85132539458572864532470703125</LongitudeDegrees>
            </Position>
            <AltitudeMeters>1137.5999755859375</AltitudeMeters>
            <DistanceMeters>169025.31538121</DistanceMeters>
          </Trackpoint>
          <Trackpoint>
            <Time>2021-07-29T08:33:15.000Z</Time>
            <Position>
              <LatitudeDegrees>41.7744252271950244903564453125</LatitudeDegrees>
              <LongitudeDegrees>-2.85126605071127414703369140625</LongitudeDegrees>
            </Position>
            <AltitudeMeters>1138</AltitudeMeters>
            <DistanceMeters>169085.63436944</DistanceMeters>
          </Trackpoint>
          <Trackpoint>
            <Time>2021-07-29T08:33:28.000Z</Time>
            <Position>
              <LatitudeDegrees>41.7749945260584354400634765625</LatitudeDegrees>
              <LongitudeDegrees>-2.85120503045618534088134765625</LongitudeDegrees>
            </Position>
            <AltitudeMeters>1138.5999755859375</AltitudeMeters>
            <DistanceMeters>169149.20063602</DistanceMeters>
          </Trackpoint>
          <Trackpoint>
            <Time>2021-07-29T08:33:40.000Z</Time>
            <Position>
              <LatitudeDegrees>41.77557329647243022918701171875</LatitudeDegrees>
              <LongitudeDegrees>-2.85116211511194705963134765625</LongitudeDegrees>
            </Position>
            <AltitudeMeters>1138</AltitudeMeters>
            <DistanceMeters>169213.71733701</DistanceMeters>
          </Trackpoint>
          <Trackpoint>
            <Time>2021-07-29T08:33:51.000Z</Time>
            <Position>
              <LatitudeDegrees>41.77612549625337123870849609375</LatitudeDegrees>
              <LongitudeDegrees>-2.851248867809772491455078125</LongitudeDegrees>
            </Position>
            <AltitudeMeters>1138.5999755859375</AltitudeMeters>
            <DistanceMeters>169275.59862834</DistanceMeters>
          </Trackpoint>
          <Trackpoint>
            <Time>2021-07-29T08:34:00.000Z</Time>
            <Position>
              <LatitudeDegrees>41.776543669402599334716796875</LatitudeDegrees>
              <LongitudeDegrees>-2.85149487666785717010498046875</LongitudeDegrees>
            </Position>
            <AltitudeMeters>1138.800048828125</AltitudeMeters>
            <DistanceMeters>169326.42433078</DistanceMeters>
          </Trackpoint>
          <Trackpoint>
            <Time>2021-07-29T08:34:10.000Z</Time>
            <Position>
              <LatitudeDegrees>41.77696100436151027679443359375</LatitudeDegrees>
              <LongitudeDegrees>-2.851773239672183990478515625</LongitudeDegrees>
            </Position>
            <AltitudeMeters>1139.800048828125</AltitudeMeters>
            <DistanceMeters>169378.30369531</DistanceMeters>
          </Trackpoint>
          <Trackpoint>
            <Time>2021-07-29T08:34:22.000Z</Time>
            <Position>
              <LatitudeDegrees>41.77751253359019756317138671875</LatitudeDegrees>
              <LongitudeDegrees>-2.851937524974346160888671875</LongitudeDegrees>
            </Position>
            <AltitudeMeters>1140.4000244140625</AltitudeMeters>
            <DistanceMeters>169441.18625485</DistanceMeters>
          </Trackpoint>
          <Trackpoint>
            <Time>2021-07-29T08:34:25.000Z</Time>
            <Position>
              <LatitudeDegrees>41.7776515893638134002685546875</LatitudeDegrees>
              <LongitudeDegrees>-2.8519698791205883026123046875</LongitudeDegrees>
            </Position>
            <AltitudeMeters>1140.800048828125</AltitudeMeters>
            <DistanceMeters>169456.89471973</DistanceMeters>
          </Trackpoint>
          <Trackpoint>
            <Time>2021-07-29T08:34:36.000Z</Time>
            <Position>
              <LatitudeDegrees>41.7781357280910015106201171875</LatitudeDegrees>
              <LongitudeDegrees>-2.852161489427089691162109375</LongitudeDegrees>
            </Position>
            <AltitudeMeters>1141.800048828125</AltitudeMeters>
            <DistanceMeters>169513.07833543</DistanceMeters>
          </Trackpoint>
          <Trackpoint>
            <Time>2021-07-29T08:34:43.000Z</Time>
            <Position>
              <LatitudeDegrees>41.77841409109532833099365234375</LatitudeDegrees>
              <LongitudeDegrees>-2.8523053228855133056640625</LongitudeDegrees>
            </Position>
            <AltitudeMeters>1143</AltitudeMeters>
            <DistanceMeters>169546.28116441</DistanceMeters>
          </Trackpoint>
          <Trackpoint>
            <Time>2021-07-29T08:34:48.000Z</Time>
            <Position>
              <LatitudeDegrees>41.77861827425658702850341796875</LatitudeDegrees>
              <LongitudeDegrees>-2.852370031177997589111328125</LongitudeDegrees>
            </Position>
            <AltitudeMeters>1144.199951171875</AltitudeMeters>
            <DistanceMeters>169569.63319401</DistanceMeters>
          </Trackpoint>
          <Trackpoint>
            <Time>2021-07-29T08:35:00.000Z</Time>
            <Position>
              <LatitudeDegrees>41.77916678600013256072998046875</LatitudeDegrees>
              <LongitudeDegrees>-2.852366007864475250244140625</LongitudeDegrees>
            </Position>
            <AltitudeMeters>1144.4000244140625</AltitudeMeters>
            <DistanceMeters>169630.68451163</DistanceMeters>
          </Trackpoint>
          <Trackpoint>
            <Time>2021-07-29T08:35:08.000Z</Time>
            <Position>
              <LatitudeDegrees>41.77951790392398834228515625</LatitudeDegrees>
              <LongitudeDegrees>-2.8523316420614719390869140625</LongitudeDegrees>
            </Position>
            <AltitudeMeters>1145.199951171875</AltitudeMeters>
            <DistanceMeters>169669.86848664</DistanceMeters>
          </Trackpoint>
          <Trackpoint>
            <Time>2021-07-29T08:35:14.000Z</Time>
            <Position>
              <LatitudeDegrees>41.77976869046688079833984375</LatitudeDegrees>
              <LongitudeDegrees>-2.85230406560003757476806640625</LongitudeDegrees>
            </Position>
            <AltitudeMeters>1146.199951171875</AltitudeMeters>
            <DistanceMeters>169697.87510193</DistanceMeters>
          </Trackpoint>
          <Trackpoint>
            <Time>2021-07-29T08:35:27.000Z</Time>
            <Position>
              <LatitudeDegrees>41.78035450167953968048095703125</LatitudeDegrees>
              <LongitudeDegrees>-2.8522655926644802093505859375</LongitudeDegrees>
            </Position>
            <AltitudeMeters>1146.5999755859375</AltitudeMeters>
            <DistanceMeters>169763.15520407</DistanceMeters>
          </Trackpoint>
          <Trackpoint>
            <Time>2021-07-29T08:35:38.000Z</Time>
            <Position>
              <LatitudeDegrees>41.78091399371623992919921875</LatitudeDegrees>
              <LongitudeDegrees>-2.85224824212491512298583984375</LongitudeDegrees>
            </Position>
            <AltitudeMeters>1146</AltitudeMeters>
            <DistanceMeters>169825.44432741</DistanceMeters>
          </Trackpoint>
          <Trackpoint>
            <Time>2021-07-29T08:35:50.000Z</Time>
            <Position>
              <LatitudeDegrees>41.78146828897297382354736328125</LatitudeDegrees>
              <LongitudeDegrees>-2.85244270227849483489990234375</LongitudeDegrees>
            </Position>
            <AltitudeMeters>1147</AltitudeMeters>
            <DistanceMeters>169889.21468734</DistanceMeters>
          </Trackpoint>
          <Trackpoint>
            <Time>2021-07-29T08:36:00.000Z</Time>
            <Position>
              <LatitudeDegrees>41.78190708160400390625</LatitudeDegrees>
              <LongitudeDegrees>-2.85264395177364349365234375</LongitudeDegrees>
            </Position>
            <AltitudeMeters>1147.199951171875</AltitudeMeters>
            <DistanceMeters>169940.83055345</DistanceMeters>
          </Trackpoint>
          <Trackpoint>
            <Time>2021-07-29T08:36:05.000Z</Time>
            <Position>
              <LatitudeDegrees>41.78213314153254032135009765625</LatitudeDegrees>
              <LongitudeDegrees>-2.85269466228783130645751953125</LongitudeDegrees>
            </Position>
            <AltitudeMeters>1148.199951171875</AltitudeMeters>
            <DistanceMeters>169966.34128862</DistanceMeters>
          </Trackpoint>
          <Trackpoint>
            <Time>2021-07-29T08:36:12.000Z</Time>
            <Position>
              <LatitudeDegrees>41.78244310431182384490966796875</LatitudeDegrees>
              <LongitudeDegrees>-2.8527138568460941314697265625</LongitudeDegrees>
            </Position>
            <AltitudeMeters>1149.199951171875</AltitudeMeters>
            <DistanceMeters>170000.8774534</DistanceMeters>
          </Trackpoint>
          <Trackpoint>
            <Time>2021-07-29T08:36:24.000Z</Time>
            <Position>
              <LatitudeDegrees>41.78298574872314929962158203125</LatitudeDegrees>
              <LongitudeDegrees>-2.85272198729217052459716796875</LongitudeDegrees>
            </Position>
            <AltitudeMeters>1150.199951171875</AltitudeMeters>
            <DistanceMeters>170061.27864871</DistanceMeters>
          </Trackpoint>
          <Trackpoint>
            <Time>2021-07-29T08:36:33.000Z</Time>
            <Position>
              <LatitudeDegrees>41.78339109756052494049072265625</LatitudeDegrees>
              <LongitudeDegrees>-2.85279558040201663970947265625</LongitudeDegrees>
            </Position>
            <AltitudeMeters>1150.4000244140625</AltitudeMeters>
            <DistanceMeters>170106.80636309</DistanceMeters>
          </Trackpoint>
          <Trackpoint>
            <Time>2021-07-29T08:36:46.000Z</Time>
            <Position>
              <LatitudeDegrees>41.78394363261759281158447265625</LatitudeDegrees>
              <LongitudeDegrees>-2.85295517183840274810791015625</LongitudeDegrees>
            </Position>
            <AltitudeMeters>1151.199951171875</AltitudeMeters>
            <DistanceMeters>170169.71476572</DistanceMeters>
          </Trackpoint>
          <Trackpoint>
            <Time>2021-07-29T08:36:47.000Z</Time>
            <Position>
              <LatitudeDegrees>41.78398621268570423126220703125</LatitudeDegrees>
              <LongitudeDegrees>-2.8529653139412403106689453125</LongitudeDegrees>
            </Position>
            <AltitudeMeters>1151.4000244140625</AltitudeMeters>
            <DistanceMeters>170174.52747245</DistanceMeters>
          </Trackpoint>
          <Trackpoint>
            <Time>2021-07-29T08:36:54.000Z</Time>
            <Position>
              <LatitudeDegrees>41.7842913977801799774169921875</LatitudeDegrees>
              <LongitudeDegrees>-2.853003703057765960693359375</LongitudeDegrees>
            </Position>
            <AltitudeMeters>1152.4000244140625</AltitudeMeters>
            <DistanceMeters>170208.64404809</DistanceMeters>
          </Trackpoint>
          <Trackpoint>
            <Time>2021-07-29T08:37:06.000Z</Time>
            <Position>
              <LatitudeDegrees>41.784834377467632293701171875</LatitudeDegrees>
              <LongitudeDegrees>-2.85308324731886386871337890625</LongitudeDegrees>
            </Position>
            <AltitudeMeters>1153</AltitudeMeters>
            <DistanceMeters>170269.43827519</DistanceMeters>
          </Trackpoint>
          <Trackpoint>
            <Time>2021-07-29T08:37:18.000Z</Time>
            <Position>
              <LatitudeDegrees>41.7853857390582561492919921875</LatitudeDegrees>
              <LongitudeDegrees>-2.85332950763404369354248046875</LongitudeDegrees>
            </Position>
            <AltitudeMeters>1152.199951171875</AltitudeMeters>
            <DistanceMeters>170334.11971454</DistanceMeters>
          </Trackpoint>
          <Trackpoint>
            <Time>2021-07-29T08:37:29.000Z</Time>
            <Position>
              <LatitudeDegrees>41.78590315394103527069091796875</LatitudeDegrees>
              <LongitudeDegrees>-2.85356537438929080963134765625</LongitudeDegrees>
            </Position>
            <AltitudeMeters>1152.5999755859375</AltitudeMeters>
            <DistanceMeters>170394.94497755</DistanceMeters>
          </Trackpoint>
          <Trackpoint>
            <Time>2021-07-29T08:37:40.000Z</Time>
            <Position>
              <LatitudeDegrees>41.78645703010261058807373046875</LatitudeDegrees>
              <LongitudeDegrees>-2.853611223399639129638671875</LongitudeDegrees>
            </Position>
            <AltitudeMeters>1152.5999755859375</AltitudeMeters>
            <DistanceMeters>170456.70978342</DistanceMeters>
          </Trackpoint>
          <Trackpoint>
            <Time>2021-07-29T08:37:42.000Z</Time>
            <Position>
              <LatitudeDegrees>41.78655576892197132110595703125</LatitudeDegrees>
              <LongitudeDegrees>-2.85360376350581645965576171875</LongitudeDegrees>
            </Position>
            <AltitudeMeters>1152.800048828125</AltitudeMeters>
            <DistanceMeters>170467.71689638</DistanceMeters>
          </Trackpoint>
          <Trackpoint>
            <Time>2021-07-29T08:37:46.000Z</Time>
            <Position>
              <LatitudeDegrees>41.78674888797104358673095703125</LatitudeDegrees>
              <LongitudeDegrees>-2.85355984233319759368896484375</LongitudeDegrees>
            </Position>
            <AltitudeMeters>1153.199951171875</AltitudeMeters>
            <DistanceMeters>170489.5180212</DistanceMeters>
          </Trackpoint>
          <Trackpoint>
            <Time>2021-07-29T08:37:58.000Z</Time>
            <Position>
              <LatitudeDegrees>41.7873303405940532684326171875</LatitudeDegrees>
              <LongitudeDegrees>-2.853482477366924285888671875</LongitudeDegrees>
            </Position>
            <AltitudeMeters>1153.800048828125</AltitudeMeters>
            <DistanceMeters>170554.55254392</DistanceMeters>
          </Trackpoint>
          <Trackpoint>
            <Time>2021-07-29T08:38:05.000Z</Time>
            <Position>
              <LatitudeDegrees>41.7876736633479595184326171875</LatitudeDegrees>
              <LongitudeDegrees>-2.853425480425357818603515625</LongitudeDegrees>
            </Position>
            <AltitudeMeters>1154.199951171875</AltitudeMeters>
            <DistanceMeters>170593.05666033</DistanceMeters>
          </Trackpoint>
          <Trackpoint>
            <Time>2021-07-29T08:38:16.000Z</Time>
            <Position>
              <LatitudeDegrees>41.788217313587665557861328125</LatitudeDegrees>
              <LongitudeDegrees>-2.85330570302903652191162109375</LongitudeDegrees>
            </Position>
            <AltitudeMeters>1155.199951171875</AltitudeMeters>
            <DistanceMeters>170654.37709797</DistanceMeters>
          </Trackpoint>
          <Trackpoint>
            <Time>2021-07-29T08:38:27.000Z</Time>
            <Position>
              <LatitudeDegrees>41.7887747101485729217529296875</LatitudeDegrees>
              <LongitudeDegrees>-2.85324485041201114654541015625</LongitudeDegrees>
            </Position>
            <AltitudeMeters>1153.800048828125</AltitudeMeters>
            <DistanceMeters>170716.62169949</DistanceMeters>
          </Trackpoint>
          <Trackpoint>
            <Time>2021-07-29T08:38:28.000Z</Time>
            <Position>
              <LatitudeDegrees>41.78882257081568241119384765625</LatitudeDegrees>
              <LongitudeDegrees>-2.85322724841535091400146484375</LongitudeDegrees>
            </Position>
            <AltitudeMeters>1153.800048828125</AltitudeMeters>
            <DistanceMeters>170722.14470576</DistanceMeters>
          </Trackpoint>
          <Trackpoint>
            <Time>2021-07-29T08:38:40.000Z</Time>
            <Position>
              <LatitudeDegrees>41.789352558553218841552734375</LatitudeDegrees>
              <LongitudeDegrees>-2.85290471278131008148193359375</LongitudeDegrees>
            </Position>
            <AltitudeMeters>1155.199951171875</AltitudeMeters>
            <DistanceMeters>170786.92198512</DistanceMeters>
          </Trackpoint>
          <Trackpoint>
            <Time>2021-07-29T08:38:43.000Z</Time>
            <Position>
              <LatitudeDegrees>41.78948926739394664764404296875</LatitudeDegrees>
              <LongitudeDegrees>-2.85283648408949375152587890625</LongitudeDegrees>
            </Position>
            <AltitudeMeters>1155.4000244140625</AltitudeMeters>
            <DistanceMeters>170803.15737644</DistanceMeters>
          </Trackpoint>
          <Trackpoint>
            <Time>2021-07-29T08:38:50.000Z</Time>
            <Position>
              <LatitudeDegrees>41.7897994816303253173828125</LatitudeDegrees>
              <LongitudeDegrees>-2.85271796397864818572998046875</LongitudeDegrees>
            </Position>
            <AltitudeMeters>1156.4000244140625</AltitudeMeters>
            <DistanceMeters>170839.05848926</DistanceMeters>
          </Trackpoint>
          <Trackpoint>
            <Time>2021-07-29T08:38:54.000Z</Time>
            <Position>
              <LatitudeDegrees>41.789977513253688812255859375</LatitudeDegrees>
              <LongitudeDegrees>-2.85266649909317493438720703125</LongitudeDegrees>
            </Position>
            <AltitudeMeters>1157.199951171875</AltitudeMeters>
            <DistanceMeters>170859.32882567</DistanceMeters>
          </Trackpoint>
          <Trackpoint>
            <Time>2021-07-29T08:39:06.000Z</Time>
            <Position>
              <LatitudeDegrees>41.79052971303462982177734375</LatitudeDegrees>
              <LongitudeDegrees>-2.8526474721729755401611328125</LongitudeDegrees>
            </Position>
            <AltitudeMeters>1157</AltitudeMeters>
            <DistanceMeters>170920.81000831</DistanceMeters>
          </Trackpoint>
          <Trackpoint>
            <Time>2021-07-29T08:39:16.000Z</Time>
            <Position>
              <LatitudeDegrees>41.790977306663990020751953125</LatitudeDegrees>
              <LongitudeDegrees>-2.85255937837064266204833984375</LongitudeDegrees>
            </Position>
            <AltitudeMeters>1157.5999755859375</AltitudeMeters>
            <DistanceMeters>170971.16161467</DistanceMeters>
          </Trackpoint>
          <Trackpoint>
            <Time>2021-07-29T08:39:24.000Z</Time>
            <Position>
              <LatitudeDegrees>41.79130428470671176910400390625</LatitudeDegrees>
              <LongitudeDegrees>-2.852480672299861907958984375</LongitudeDegrees>
            </Position>
            <AltitudeMeters>1158.4000244140625</AltitudeMeters>
            <DistanceMeters>171008.13641032</DistanceMeters>
          </Trackpoint>
          <Trackpoint>
            <Time>2021-07-29T08:39:36.000Z</Time>
            <Position>
              <LatitudeDegrees>41.7918589152395725250244140625</LatitudeDegrees>
              <LongitudeDegrees>-2.8523648343980312347412109375</LongitudeDegrees>
            </Position>
            <AltitudeMeters>1158</AltitudeMeters>
            <DistanceMeters>171070.61190417</DistanceMeters>
          </Trackpoint>
          <Trackpoint>
            <Time>2021-07-29T08:39:48.000Z</Time>
            <Position>
              <LatitudeDegrees>41.792415641248226165771484375</LatitudeDegrees>
              <LongitudeDegrees>-2.85221471451222896575927734375</LongitudeDegrees>
            </Position>
            <AltitudeMeters>1158.800048828125</AltitudeMeters>
            <DistanceMeters>171133.81645716</DistanceMeters>
          </Trackpoint>
          <Trackpoint>
            <Time>2021-07-29T08:39:53.000Z</Time>
            <Position>
              <LatitudeDegrees>41.79263784550130367279052734375</LatitudeDegrees>
              <LongitudeDegrees>-2.852164171636104583740234375</LongitudeDegrees>
            </Position>
            <AltitudeMeters>1159.5999755859375</AltitudeMeters>
            <DistanceMeters>171158.90134996</DistanceMeters>
          </Trackpoint>
          <Trackpoint>
            <Time>2021-07-29T08:40:02.000Z</Time>
            <Position>
              <LatitudeDegrees>41.793007738888263702392578125</LatitudeDegrees>
              <LongitudeDegrees>-2.85213156603276729583740234375</LongitudeDegrees>
            </Position>
            <AltitudeMeters>1160.5999755859375</AltitudeMeters>
            <DistanceMeters>171200.160019</DistanceMeters>
          </Trackpoint>
          <Trackpoint>
            <Time>2021-07-29T08:40:07.000Z</Time>
            <Position>
              <LatitudeDegrees>41.79314847104251384735107421875</LatitudeDegrees>
              <LongitudeDegrees>-2.8520946018397808074951171875</LongitudeDegrees>
            </Position>
            <AltitudeMeters>1161.800048828125</AltitudeMeters>
            <DistanceMeters>171216.12111284</DistanceMeters>
          </Trackpoint>
          <Trackpoint>
            <Time>2021-07-29T08:40:08.000Z</Time>
            <Position>
              <LatitudeDegrees>41.7931685037910938262939453125</LatitudeDegrees>
              <LongitudeDegrees>-2.85206736065447330474853515625</LongitudeDegrees>
            </Position>
            <AltitudeMeters>1161.800048828125</AltitudeMeters>
            <DistanceMeters>171219.29563096</DistanceMeters>
          </Trackpoint>
          <Trackpoint>
            <Time>2021-07-29T08:40:17.000Z</Time>
            <Position>
              <LatitudeDegrees>41.79328409023582935333251953125</LatitudeDegrees>
              <LongitudeDegrees>-2.85170526243746280670166015625</LongitudeDegrees>
            </Position>
            <AltitudeMeters>1162.800048828125</AltitudeMeters>
            <DistanceMeters>171251.98136752</DistanceMeters>
          </Trackpoint>
          <Trackpoint>
            <Time>2021-07-29T08:40:31.000Z</Time>
            <Position>
              <LatitudeDegrees>41.79357578046619892120361328125</LatitudeDegrees>
              <LongitudeDegrees>-2.85108583979308605194091796875</LongitudeDegrees>
            </Position>
            <AltitudeMeters>1163</AltitudeMeters>
            <DistanceMeters>171312.77641155</DistanceMeters>
          </Trackpoint>
          <Trackpoint>
            <Time>2021-07-29T08:40:40.000Z</Time>
            <Position>
              <LatitudeDegrees>41.79381600581109523773193359375</LatitudeDegrees>
              <LongitudeDegrees>-2.85077202133834362030029296875</LongitudeDegrees>
            </Position>
            <AltitudeMeters>1163.800048828125</AltitudeMeters>
            <DistanceMeters>171350.0997792</DistanceMeters>
          </Trackpoint>
          <Trackpoint>
            <Time>2021-07-29T08:40:52.000Z</Time>
            <Position>
              <LatitudeDegrees>41.794134266674518585205078125</LatitudeDegrees>
              <LongitudeDegrees>-2.85036700777709484100341796875</LongitudeDegrees>
            </Position>
            <AltitudeMeters>1165.199951171875</AltitudeMeters>
            <DistanceMeters>171398.92927279</DistanceMeters>
          </Trackpoint>
          <Trackpoint>
            <Time>2021-07-29T08:41:06.000Z</Time>
            <Position>
              <LatitudeDegrees>41.794476248323917388916015625</LatitudeDegrees>
              <LongitudeDegrees>-2.84978530369699001312255859375</LongitudeDegrees>
            </Position>
            <AltitudeMeters>1166.199951171875</AltitudeMeters>
            <DistanceMeters>171460.40120158</DistanceMeters>
          </Trackpoint>
          <Trackpoint>
            <Time>2021-07-29T08:41:07.000Z</Time>
            <Position>
              <LatitudeDegrees>41.7944995500147342681884765625</LatitudeDegrees>
              <LongitudeDegrees>-2.84974423237144947052001953125</LongitudeDegrees>
            </Position>
            <AltitudeMeters>1166.5999755859375</AltitudeMeters>
            <DistanceMeters>171464.68373416</DistanceMeters>
          </Trackpoint>
          <Trackpoint>
            <Time>2021-07-29T08:41:21.000Z</Time>
            <Position>
              <LatitudeDegrees>41.7948432080447673797607421875</LatitudeDegrees>
              <LongitudeDegrees>-2.84916286356747150421142578125</LongitudeDegrees>
            </Position>
            <AltitudeMeters>1165.800048828125</AltitudeMeters>
            <DistanceMeters>171526.24931226</DistanceMeters>
          </Trackpoint>
          <Trackpoint>
            <Time>2021-07-29T08:41:29.000Z</Time>
            <Position>
              <LatitudeDegrees>41.795014701783657073974609375</LatitudeDegrees>
              <LongitudeDegrees>-2.8487272560596466064453125</LongitudeDegrees>
            </Position>
            <AltitudeMeters>1165.199951171875</AltitudeMeters>
            <DistanceMeters>171567.12604506</DistanceMeters>
          </Trackpoint>
          <Trackpoint>
            <Time>2021-07-29T08:41:42.000Z</Time>
            <Position>
              <LatitudeDegrees>41.79537654854357242584228515625</LatitudeDegrees>
              <LongitudeDegrees>-2.84817941486835479736328125</LongitudeDegrees>
            </Position>
            <AltitudeMeters>1166.199951171875</AltitudeMeters>
            <DistanceMeters>171627.85971394</DistanceMeters>
          </Trackpoint>
          <Trackpoint>
            <Time>2021-07-29T08:41:43.000Z</Time>
            <Position>
              <LatitudeDegrees>41.79541124962270259857177734375</LatitudeDegrees>
              <LongitudeDegrees>-2.8481500782072544097900390625</LongitudeDegrees>
            </Position>
            <AltitudeMeters>1166.4000244140625</AltitudeMeters>
            <DistanceMeters>171632.42495396</DistanceMeters>
          </Trackpoint>
          <Trackpoint>
            <Time>2021-07-29T08:41:57.000Z</Time>
            <Position>
              <LatitudeDegrees>41.79595942609012126922607421875</LatitudeDegrees>
              <LongitudeDegrees>-2.84800507128238677978515625</LongitudeDegrees>
            </Position>
            <AltitudeMeters>1166.199951171875</AltitudeMeters>
            <DistanceMeters>171694.61324128</DistanceMeters>
          </Trackpoint>
          <Trackpoint>
            <Time>2021-07-29T08:42:12.000Z</Time>
            <Position>
              <LatitudeDegrees>41.79647625423967838287353515625</LatitudeDegrees>
              <LongitudeDegrees>-2.84824001602828502655029296875</LongitudeDegrees>
            </Position>
            <AltitudeMeters>1167.199951171875</AltitudeMeters>
            <DistanceMeters>171755.35092447</DistanceMeters>
          </Trackpoint>
          <Trackpoint>
            <Time>2021-07-29T08:42:19.000Z</Time>
            <Position>
              <LatitudeDegrees>41.796688400208950042724609375</LatitudeDegrees>
              <LongitudeDegrees>-2.8483364917337894439697265625</LongitudeDegrees>
            </Position>
            <AltitudeMeters>1168.199951171875</AltitudeMeters>
            <DistanceMeters>171780.28308046</DistanceMeters>
          </Trackpoint>
          <Trackpoint>
            <Time>2021-07-29T08:42:28.000Z</Time>
            <Position>
              <LatitudeDegrees>41.79694480262696743011474609375</LatitudeDegrees>
              <LongitudeDegrees>-2.8484722785651683807373046875</LongitudeDegrees>
            </Position>
            <AltitudeMeters>1169.4000244140625</AltitudeMeters>
            <DistanceMeters>171810.96493893</DistanceMeters>
          </Trackpoint>
          <Trackpoint>
            <Time>2021-07-29T08:42:36.000Z</Time>
            <Position>
              <LatitudeDegrees>41.79717781953513622283935546875</LatitudeDegrees>
              <LongitudeDegrees>-2.84855299629271030426025390625</LongitudeDegrees>
            </Position>
            <AltitudeMeters>1170.199951171875</AltitudeMeters>
            <DistanceMeters>171837.75101281</DistanceMeters>
          </Trackpoint>
          <Trackpoint>
            <Time>2021-07-29T08:42:42.000Z</Time>
            <Position>
              <LatitudeDegrees>41.7973416857421398162841796875</LatitudeDegrees>
              <LongitudeDegrees>-2.8485822491347789764404296875</LongitudeDegrees>
            </Position>
            <AltitudeMeters>1171.4000244140625</AltitudeMeters>
            <DistanceMeters>171856.15040318</DistanceMeters>
          </Trackpoint>
          <Trackpoint>
            <Time>2021-07-29T08:42:48.000Z</Time>
            <Position>
              <LatitudeDegrees>41.79747336544096469879150390625</LatitudeDegrees>
              <LongitudeDegrees>-2.8486306965351104736328125</LongitudeDegrees>
            </Position>
            <AltitudeMeters>1172.4000244140625</AltitudeMeters>
            <DistanceMeters>171871.34814299</DistanceMeters>
          </Trackpoint>
          <Trackpoint>
            <Time>2021-07-29T08:42:52.000Z</Time>
            <Position>
              <LatitudeDegrees>41.79756380617618560791015625</LatitudeDegrees>
              <LongitudeDegrees>-2.84866581670939922332763671875</LongitudeDegrees>
            </Position>
            <AltitudeMeters>1173.4000244140625</AltitudeMeters>
            <DistanceMeters>171881.82782761</DistanceMeters>
          </Trackpoint>
          <Trackpoint>
            <Time>2021-07-29T08:42:58.000Z</Time>
            <Position>
              <LatitudeDegrees>41.79768810980021953582763671875</LatitudeDegrees>
              <LongitudeDegrees>-2.84873823635280132293701171875</LongitudeDegrees>
            </Position>
            <AltitudeMeters>1174.5999755859375</AltitudeMeters>
            <DistanceMeters>171896.91165358</DistanceMeters>
          </Trackpoint>
          <Trackpoint>
            <Time>2021-07-29T08:43:05.000Z</Time>
            <Position>
              <LatitudeDegrees>41.79782691411674022674560546875</LatitudeDegrees>
              <LongitudeDegrees>-2.84884988330304622650146484375</LongitudeDegrees>
            </Position>
            <AltitudeMeters>1175.800048828125</AltitudeMeters>
            <DistanceMeters>171914.92542046</DistanceMeters>
          </Trackpoint>
          <Trackpoint>
            <Time>2021-07-29T08:43:14.000Z</Time>
            <Position>
              <LatitudeDegrees>41.79802556522190570831298828125</LatitudeDegrees>
              <LongitudeDegrees>-2.84900151193141937255859375</LongitudeDegrees>
            </Position>
            <AltitudeMeters>1177</AltitudeMeters>
            <DistanceMeters>171940.36473036</DistanceMeters>
          </Trackpoint>
          <Trackpoint>
            <Time>2021-07-29T08:43:22.000Z</Time>
            <Position>
              <LatitudeDegrees>41.79818071424961090087890625</LatitudeDegrees>
              <LongitudeDegrees>-2.84916353411972522735595703125</LongitudeDegrees>
            </Position>
            <AltitudeMeters>1178</AltitudeMeters>
            <DistanceMeters>171962.24936412</DistanceMeters>
          </Trackpoint>
          <Trackpoint>
            <Time>2021-07-29T08:43:29.000Z</Time>
            <Position>
              <LatitudeDegrees>41.79832966066896915435791015625</LatitudeDegrees>
              <LongitudeDegrees>-2.8492824733257293701171875</LongitudeDegrees>
            </Position>
            <AltitudeMeters>1178.800048828125</AltitudeMeters>
            <DistanceMeters>171981.5425956</DistanceMeters>
          </Trackpoint>
          <Trackpoint>
            <Time>2021-07-29T08:43:39.000Z</Time>
            <Position>
              <LatitudeDegrees>41.79852210916578769683837890625</LatitudeDegrees>
              <LongitudeDegrees>-2.8494978882372379302978515625</LongitudeDegrees>
            </Position>
            <AltitudeMeters>1179.4000244140625</AltitudeMeters>
            <DistanceMeters>172009.44050338</DistanceMeters>
          </Trackpoint>
          <Trackpoint>
            <Time>2021-07-29T08:43:43.000Z</Time>
            <Position>
              <LatitudeDegrees>41.79862252436578273773193359375</LatitudeDegrees>
              <LongitudeDegrees>-2.84948037005960941314697265625</LongitudeDegrees>
            </Position>
            <AltitudeMeters>1180</AltitudeMeters>
            <DistanceMeters>172020.71108834</DistanceMeters>
          </Trackpoint>
          <Trackpoint>
            <Time>2021-07-29T08:44:02.000Z</Time>
            <Position>
              <LatitudeDegrees>41.799186207354068756103515625</LatitudeDegrees>
              <LongitudeDegrees>-2.84939638338983058929443359375</LongitudeDegrees>
            </Position>
            <AltitudeMeters>1180.199951171875</AltitudeMeters>
            <DistanceMeters>172083.83594068</DistanceMeters>
          </Trackpoint>
          <Trackpoint>
            <Time>2021-07-29T08:44:12.000Z</Time>
            <Position>
              <LatitudeDegrees>41.7995680868625640869140625</LatitudeDegrees>
              <LongitudeDegrees>-2.849404849112033843994140625</LongitudeDegrees>
            </Position>
            <AltitudeMeters>1178.5999755859375</AltitudeMeters>
            <DistanceMeters>172126.34571412</DistanceMeters>
          </Trackpoint>
          <Trackpoint>
            <Time>2021-07-29T08:44:14.000Z</Time>
            <Position>
              <LatitudeDegrees>41.7996701784431934356689453125</LatitudeDegrees>
              <LongitudeDegrees>-2.84943929873406887054443359375</LongitudeDegrees>
            </Position>
            <AltitudeMeters>1177.4000244140625</AltitudeMeters>
            <DistanceMeters>172138.06293573</DistanceMeters>
          </Trackpoint>
          <Trackpoint>
            <Time>2021-07-29T08:44:16.000Z</Time>
            <Position>
              <LatitudeDegrees>41.79978895001113414764404296875</LatitudeDegrees>
              <LongitudeDegrees>-2.84949763678014278411865234375</LongitudeDegrees>
            </Position>
            <AltitudeMeters>1176</AltitudeMeters>
            <DistanceMeters>172152.14100796</DistanceMeters>
          </Trackpoint>
          <Trackpoint>
            <Time>2021-07-29T08:44:17.000Z</Time>
            <Position>
              <LatitudeDegrees>41.79985307157039642333984375</LatitudeDegrees>
              <LongitudeDegrees>-2.84954130649566650390625</LongitudeDegrees>
            </Position>
            <AltitudeMeters>1174.800048828125</AltitudeMeters>
            <DistanceMeters>172160.1458454</DistanceMeters>
          </Trackpoint>
          <Trackpoint>
            <Time>2021-07-29T08:44:18.000Z</Time>
            <Position>
              <LatitudeDegrees>41.7999206297099590301513671875</LatitudeDegrees>
              <LongitudeDegrees>-2.84959570504724979400634765625</LongitudeDegrees>
            </Position>
            <AltitudeMeters>1173.5999755859375</AltitudeMeters>
            <DistanceMeters>172168.91614706</DistanceMeters>
          </Trackpoint>
          <Trackpoint>
            <Time>2021-07-29T08:44:19.000Z</Time>
            <Position>
              <LatitudeDegrees>41.79999120533466339111328125</LatitudeDegrees>
              <LongitudeDegrees>-2.8496581502258777618408203125</LongitudeDegrees>
            </Position>
            <AltitudeMeters>1172.4000244140625</AltitudeMeters>
            <DistanceMeters>172178.32619114</DistanceMeters>
          </Trackpoint>
          <Trackpoint>
            <Time>2021-07-29T08:44:20.000Z</Time>
            <Position>
              <LatitudeDegrees>41.80006521753966808319091796875</LatitudeDegrees>
              <LongitudeDegrees>-2.84972948022186756134033203125</LongitudeDegrees>
            </Position>
            <AltitudeMeters>1171</AltitudeMeters>
            <DistanceMeters>172188.46959742</DistanceMeters>
          </Trackpoint>
          <Trackpoint>
            <Time>2021-07-29T08:44:21.000Z</Time>
            <Position>
              <LatitudeDegrees>41.80014367215335369110107421875</LatitudeDegrees>
              <LongitudeDegrees>-2.84980827011168003082275390625</LongitudeDegrees>
            </Position>
            <AltitudeMeters>1169.4000244140625</AltitudeMeters>
            <DistanceMeters>172199.37823379</DistanceMeters>
          </Trackpoint>
          <Trackpoint>
            <Time>2021-07-29T08:44:22.000Z</Time>
            <Position>
              <LatitudeDegrees>41.80022631771862506866455078125</LatitudeDegrees>
              <LongitudeDegrees>-2.84989275969564914703369140625</LongitudeDegrees>
            </Position>
            <AltitudeMeters>1167.5999755859375</AltitudeMeters>
            <DistanceMeters>172210.94380867</DistanceMeters>
          </Trackpoint>
          <Trackpoint>
            <Time>2021-07-29T08:44:23.000Z</Time>
            <Position>
              <LatitudeDegrees>41.8003142438828945159912109375</LatitudeDegrees>
              <LongitudeDegrees>-2.849980182945728302001953125</LongitudeDegrees>
            </Position>
            <AltitudeMeters>1165.800048828125</AltitudeMeters>
            <DistanceMeters>172223.12540324</DistanceMeters>
          </Trackpoint>
          <Trackpoint>
            <Time>2021-07-29T08:44:24.000Z</Time>
            <Position>
              <LatitudeDegrees>41.80041206069290637969970703125</LatitudeDegrees>
              <LongitudeDegrees>-2.85006098449230194091796875</LongitudeDegrees>
            </Position>
            <AltitudeMeters>1163.199951171875</AltitudeMeters>
            <DistanceMeters>172235.91135271</DistanceMeters>
          </Trackpoint>
          <Trackpoint>
            <Time>2021-07-29T08:44:25.000Z</Time>
            <Position>
              <LatitudeDegrees>41.8005214445292949676513671875</LatitudeDegrees>
              <LongitudeDegrees>-2.85012803971767425537109375</LongitudeDegrees>
            </Position>
            <AltitudeMeters>1160.800048828125</AltitudeMeters>
            <DistanceMeters>172249.296971</DistanceMeters>
          </Trackpoint>
          <Trackpoint>
            <Time>2021-07-29T08:44:26.000Z</Time>
            <Position>
              <LatitudeDegrees>41.80064206011593341827392578125</LatitudeDegrees>
              <LongitudeDegrees>-2.850181348621845245361328125</LongitudeDegrees>
            </Position>
            <AltitudeMeters>1159.199951171875</AltitudeMeters>
            <DistanceMeters>172263.43201508</DistanceMeters>
          </Trackpoint>
          <Trackpoint>
            <Time>2021-07-29T08:44:27.000Z</Time>
            <Position>
              <LatitudeDegrees>41.8007722310721874237060546875</LatitudeDegrees>
              <LongitudeDegrees>-2.85021982155740261077880859375</LongitudeDegrees>
            </Position>
            <AltitudeMeters>1157.4000244140625</AltitudeMeters>
            <DistanceMeters>172278.26775178</DistanceMeters>
          </Trackpoint>
          <Trackpoint>
            <Time>2021-07-29T08:44:28.000Z</Time>
            <Position>
              <LatitudeDegrees>41.800910197198390960693359375</LatitudeDegrees>
              <LongitudeDegrees>-2.85023876465857028961181640625</LongitudeDegrees>
            </Position>
            <AltitudeMeters>1155</AltitudeMeters>
            <DistanceMeters>172293.70367083</DistanceMeters>
          </Trackpoint>
          <Trackpoint>
            <Time>2021-07-29T08:44:29.000Z</Time>
            <Position>
              <LatitudeDegrees>41.801051683723926544189453125</LatitudeDegrees>
              <LongitudeDegrees>-2.85023893229663372039794921875</LongitudeDegrees>
            </Position>
            <AltitudeMeters>1152.199951171875</AltitudeMeters>
            <DistanceMeters>172309.45117728</DistanceMeters>
          </Trackpoint>
          <Trackpoint>
            <Time>2021-07-29T08:44:30.000Z</Time>
            <Position>
              <LatitudeDegrees>41.80119425989687442779541015625</LatitudeDegrees>
              <LongitudeDegrees>-2.85022795200347900390625</LongitudeDegrees>
            </Position>
            <AltitudeMeters>1150</AltitudeMeters>
            <DistanceMeters>172325.34622396</DistanceMeters>
          </Trackpoint>
          <Trackpoint>
            <Time>2021-07-29T08:44:31.000Z</Time>
            <Position>
              <LatitudeDegrees>41.80133691988885402679443359375</LatitudeDegrees>
              <LongitudeDegrees>-2.8502131998538970947265625</LongitudeDegrees>
            </Position>
            <AltitudeMeters>1148.5999755859375</AltitudeMeters>
            <DistanceMeters>172341.27163532</DistanceMeters>
          </Trackpoint>
          <Trackpoint>
            <Time>2021-07-29T08:44:32.000Z</Time>
            <Position>
              <LatitudeDegrees>41.80147991515696048736572265625</LatitudeDegrees>
              <LongitudeDegrees>-2.85019819624722003936767578125</LongitudeDegrees>
            </Position>
            <AltitudeMeters>1147.199951171875</AltitudeMeters>
            <DistanceMeters>172357.23612333</DistanceMeters>
          </Trackpoint>
          <Trackpoint>
            <Time>2021-07-29T08:44:33.000Z</Time>
            <Position>
              <LatitudeDegrees>41.80162274278700351715087890625</LatitudeDegrees>
              <LongitudeDegrees>-2.85018444992601871490478515625</LongitudeDegrees>
            </Position>
            <AltitudeMeters>1145.800048828125</AltitudeMeters>
            <DistanceMeters>172373.17400432</DistanceMeters>
          </Trackpoint>
          <Trackpoint>
            <Time>2021-07-29T08:44:35.000Z</Time>
            <Position>
              <LatitudeDegrees>41.80190437473356723785400390625</LatitudeDegrees>
              <LongitudeDegrees>-2.850154526531696319580078125</LongitudeDegrees>
            </Position>
            <AltitudeMeters>1144.4000244140625</AltitudeMeters>
            <DistanceMeters>172404.6182278</DistanceMeters>
          </Trackpoint>
          <Trackpoint>
            <Time>2021-07-29T08:44:40.000Z</Time>
            <Position>
              <LatitudeDegrees>41.80255715735256671905517578125</LatitudeDegrees>
              <LongitudeDegrees>-2.85012728534638881683349609375</LongitudeDegrees>
            </Position>
            <AltitudeMeters>1144</AltitudeMeters>
            <DistanceMeters>172477.30937864</DistanceMeters>
          </Trackpoint>
          <Trackpoint>
            <Time>2021-07-29T08:44:45.000Z</Time>
            <Position>
              <LatitudeDegrees>41.80311103351414203643798828125</LatitudeDegrees>
              <LongitudeDegrees>-2.85014807246625423431396484375</LongitudeDegrees>
            </Position>
            <AltitudeMeters>1145.4000244140625</AltitudeMeters>
            <DistanceMeters>172538.98105738</DistanceMeters>
          </Trackpoint>
          <Trackpoint>
            <Time>2021-07-29T08:44:46.000Z</Time>
            <Position>
              <LatitudeDegrees>41.80321144871413707733154296875</LatitudeDegrees>
              <LongitudeDegrees>-2.8501402772963047027587890625</LongitudeDegrees>
            </Position>
            <AltitudeMeters>1145.5999755859375</AltitudeMeters>
            <DistanceMeters>172550.17567219</DistanceMeters>
          </Trackpoint>
          <Trackpoint>
            <Time>2021-07-29T08:44:50.000Z</Time>
            <Position>
              <LatitudeDegrees>41.8035831861197948455810546875</LatitudeDegrees>
              <LongitudeDegrees>-2.85010666586458683013916015625</LongitudeDegrees>
            </Position>
            <AltitudeMeters>1146.800048828125</AltitudeMeters>
            <DistanceMeters>172591.64457256</DistanceMeters>
          </Trackpoint>
          <Trackpoint>
            <Time>2021-07-29T08:44:53.000Z</Time>
            <Position>
              <LatitudeDegrees>41.80384227074682712554931640625</LatitudeDegrees>
              <LongitudeDegrees>-2.85007665865123271942138671875</LongitudeDegrees>
            </Position>
            <AltitudeMeters>1148</AltitudeMeters>
            <DistanceMeters>172620.58859288</DistanceMeters>
          </Trackpoint>
          <Trackpoint>
            <Time>2021-07-29T08:45:00.000Z</Time>
            <Position>
              <LatitudeDegrees>41.80441081523895263671875</LatitudeDegrees>
              <LongitudeDegrees>-2.8500737249851226806640625</LongitudeDegrees>
            </Position>
            <AltitudeMeters>1147.4000244140625</AltitudeMeters>
            <DistanceMeters>172683.86925011</DistanceMeters>
          </Trackpoint>
          <Trackpoint>
            <Time>2021-07-29T08:45:08.000Z</Time>
            <Position>
              <LatitudeDegrees>41.804969720542430877685546875</LatitudeDegrees>
              <LongitudeDegrees>-2.850120328366756439208984375</LongitudeDegrees>
            </Position>
            <AltitudeMeters>1148.199951171875</AltitudeMeters>
            <DistanceMeters>172746.19663386</DistanceMeters>
          </Trackpoint>
          <Trackpoint>
            <Time>2021-07-29T08:45:12.000Z</Time>
            <Position>
              <LatitudeDegrees>41.80520919151604175567626953125</LatitudeDegrees>
              <LongitudeDegrees>-2.85014689899981021881103515625</LongitudeDegrees>
            </Position>
            <AltitudeMeters>1149</AltitudeMeters>
            <DistanceMeters>172772.94121005</DistanceMeters>
          </Trackpoint>
          <Trackpoint>
            <Time>2021-07-29T08:45:22.000Z</Time>
            <Position>
              <LatitudeDegrees>41.8057597987353801727294921875</LatitudeDegrees>
              <LongitudeDegrees>-2.850202806293964385986328125</LongitudeDegrees>
            </Position>
            <AltitudeMeters>1148.5999755859375</AltitudeMeters>
            <DistanceMeters>172834.40021049</DistanceMeters>
          </Trackpoint>
          <Trackpoint>
            <Time>2021-07-29T08:45:34.000Z</Time>
            <Position>
              <LatitudeDegrees>41.8063398264348506927490234375</LatitudeDegrees>
              <LongitudeDegrees>-2.85026474855840206146240234375</LongitudeDegrees>
            </Position>
            <AltitudeMeters>1148.800048828125</AltitudeMeters>
            <DistanceMeters>172899.16271157</DistanceMeters>
          </Trackpoint>
          <Trackpoint>
            <Time>2021-07-29T08:45:46.000Z</Time>
            <Position>
              <LatitudeDegrees>41.80688305757939815521240234375</LatitudeDegrees>
              <LongitudeDegrees>-2.85031520761549472808837890625</LongitudeDegrees>
            </Position>
            <AltitudeMeters>1149</AltitudeMeters>
            <DistanceMeters>172959.77024044</DistanceMeters>
          </Trackpoint>
          <Trackpoint>
            <Time>2021-07-29T08:45:52.000Z</Time>
            <Position>
              <LatitudeDegrees>41.80713166482746601104736328125</LatitudeDegrees>
              <LongitudeDegrees>-2.85034127533435821533203125</LongitudeDegrees>
            </Position>
            <AltitudeMeters>1150</AltitudeMeters>
            <DistanceMeters>172987.52519966</DistanceMeters>
          </Trackpoint>
          <Trackpoint>
            <Time>2021-07-29T08:46:05.000Z</Time>
            <Position>
              <LatitudeDegrees>41.80759015493094921112060546875</LatitudeDegrees>
              <LongitudeDegrees>-2.8503860346972942352294921875</LongitudeDegrees>
            </Position>
            <AltitudeMeters>1151</AltitudeMeters>
            <DistanceMeters>173038.69106311</DistanceMeters>
          </Trackpoint>
          <Trackpoint>
            <Time>2021-07-29T08:46:22.000Z</Time>
            <Position>
              <LatitudeDegrees>41.80814654566347599029541015625</LatitudeDegrees>
              <LongitudeDegrees>-2.85045451484620571136474609375</LongitudeDegrees>
            </Position>
            <AltitudeMeters>1152.199951171875</AltitudeMeters>
            <DistanceMeters>173100.87847919</DistanceMeters>
          </Trackpoint>
          <Trackpoint>
            <Time>2021-07-29T08:46:35.000Z</Time>
            <Position>
              <LatitudeDegrees>41.808703355491161346435546875</LatitudeDegrees>
              <LongitudeDegrees>-2.8504939936101436614990234375</LongitudeDegrees>
            </Position>
            <AltitudeMeters>1151.5999755859375</AltitudeMeters>
            <DistanceMeters>173162.93899969</DistanceMeters>
          </Trackpoint>
          <Trackpoint>
            <Time>2021-07-29T08:46:47.000Z</Time>
            <Position>
              <LatitudeDegrees>41.80927894078195095062255859375</LatitudeDegrees>
              <LongitudeDegrees>-2.85054269246757030487060546875</LongitudeDegrees>
            </Position>
            <AltitudeMeters>1151.4000244140625</AltitudeMeters>
            <DistanceMeters>173227.1301607</DistanceMeters>
          </Trackpoint>
          <Trackpoint>
            <Time>2021-07-29T08:46:57.000Z</Time>
            <Position>
              <LatitudeDegrees>41.80977313779294490814208984375</LatitudeDegrees>
              <LongitudeDegrees>-2.8505845181643962860107421875</LongitudeDegrees>
            </Position>
            <AltitudeMeters>1150.800048828125</AltitudeMeters>
            <DistanceMeters>173282.24467199</DistanceMeters>
          </Trackpoint>
          <Trackpoint>
            <Time>2021-07-29T08:47:08.000Z</Time>
            <Position>
              <LatitudeDegrees>41.81032114662230014801025390625</LatitudeDegrees>
              <LongitudeDegrees>-2.85063774324953556060791015625</LongitudeDegrees>
            </Position>
            <AltitudeMeters>1150.4000244140625</AltitudeMeters>
            <DistanceMeters>173343.39877422</DistanceMeters>
          </Trackpoint>
          <Trackpoint>
            <Time>2021-07-29T08:47:11.000Z</Time>
            <Position>
              <LatitudeDegrees>41.81048744358122348785400390625</LatitudeDegrees>
              <LongitudeDegrees>-2.8506448678672313690185546875</LongitudeDegrees>
            </Position>
            <AltitudeMeters>1149.4000244140625</AltitudeMeters>
            <DistanceMeters>173361.91752804</DistanceMeters>
          </Trackpoint>
          <Trackpoint>
            <Time>2021-07-29T08:47:15.000Z</Time>
            <Position>
              <LatitudeDegrees>41.81071643717586994171142578125</LatitudeDegrees>
              <LongitudeDegrees>-2.8506663255393505096435546875</LongitudeDegrees>
            </Position>
            <AltitudeMeters>1148.199951171875</AltitudeMeters>
            <DistanceMeters>173387.46717043</DistanceMeters>
          </Trackpoint>
          <Trackpoint>
            <Time>2021-07-29T08:47:18.000Z</Time>
            <Position>
              <LatitudeDegrees>41.81089949794113636016845703125</LatitudeDegrees>
              <LongitudeDegrees>-2.850675880908966064453125</LongitudeDegrees>
            </Position>
            <AltitudeMeters>1147</AltitudeMeters>
            <DistanceMeters>173407.85743231</DistanceMeters>
          </Trackpoint>
          <Trackpoint>
            <Time>2021-07-29T08:47:27.000Z</Time>
            <Position>
              <LatitudeDegrees>41.81148472242057323455810546875</LatitudeDegrees>
              <LongitudeDegrees>-2.850723154842853546142578125</LongitudeDegrees>
            </Position>
            <AltitudeMeters>1146.199951171875</AltitudeMeters>
            <DistanceMeters>173473.11200792</DistanceMeters>
          </Trackpoint>
          <Trackpoint>
            <Time>2021-07-29T08:47:37.000Z</Time>
            <Position>
              <LatitudeDegrees>41.812030971050262451171875</LatitudeDegrees>
              <LongitudeDegrees>-2.8507632203400135040283203125</LongitudeDegrees>
            </Position>
            <AltitudeMeters>1146.5999755859375</AltitudeMeters>
            <DistanceMeters>173534.00137157</DistanceMeters>
          </Trackpoint>
          <Trackpoint>
            <Time>2021-07-29T08:47:49.000Z</Time>
            <Position>
              <LatitudeDegrees>41.81260521523654460906982421875</LatitudeDegrees>
              <LongitudeDegrees>-2.85081074573099613189697265625</LongitudeDegrees>
            </Position>
            <AltitudeMeters>1147.800048828125</AltitudeMeters>
            <DistanceMeters>173598.03739185</DistanceMeters>
          </Trackpoint>
          <Trackpoint>
            <Time>2021-07-29T08:47:50.000Z</Time>
            <Position>
              <LatitudeDegrees>41.81265165098011493682861328125</LatitudeDegrees>
              <LongitudeDegrees>-2.8508084826171398162841796875</LongitudeDegrees>
            </Position>
            <AltitudeMeters>1147.800048828125</AltitudeMeters>
            <DistanceMeters>173603.2091504</DistanceMeters>
          </Trackpoint>
          <Trackpoint>
            <Time>2021-07-29T08:47:59.000Z</Time>
            <Position>
              <LatitudeDegrees>41.8130349554121494293212890625</LatitudeDegrees>
              <LongitudeDegrees>-2.85073044709861278533935546875</LongitudeDegrees>
            </Position>
            <AltitudeMeters>1149.199951171875</AltitudeMeters>
            <DistanceMeters>173646.36006884</DistanceMeters>
          </Trackpoint>
          <Trackpoint>
            <Time>2021-07-29T08:48:06.000Z</Time>
            <Position>
              <LatitudeDegrees>41.813279874622821807861328125</LatitudeDegrees>
              <LongitudeDegrees>-2.8506629727780818939208984375</LongitudeDegrees>
            </Position>
            <AltitudeMeters>1150.4000244140625</AltitudeMeters>
            <DistanceMeters>173674.18878452</DistanceMeters>
          </Trackpoint>
          <Trackpoint>
            <Time>2021-07-29T08:48:12.000Z</Time>
            <Position>
              <LatitudeDegrees>41.8134688027203083038330078125</LatitudeDegrees>
              <LongitudeDegrees>-2.8505932353436946868896484375</LongitudeDegrees>
            </Position>
            <AltitudeMeters>1151.4000244140625</AltitudeMeters>
            <DistanceMeters>173695.99819181</DistanceMeters>
          </Trackpoint>
          <Trackpoint>
            <Time>2021-07-29T08:48:18.000Z</Time>
            <Position>
              <LatitudeDegrees>41.8136562220752239227294921875</LatitudeDegrees>
              <LongitudeDegrees>-2.8505315445363521575927734375</LongitudeDegrees>
            </Position>
            <AltitudeMeters>1152.4000244140625</AltitudeMeters>
            <DistanceMeters>173717.47696216</DistanceMeters>
          </Trackpoint>
          <Trackpoint>
            <Time>2021-07-29T08:48:26.000Z</Time>
            <Position>
              <LatitudeDegrees>41.81390340439975261688232421875</LatitudeDegrees>
              <LongitudeDegrees>-2.8504473902285099029541015625</LongitudeDegrees>
            </Position>
            <AltitudeMeters>1153.4000244140625</AltitudeMeters>
            <DistanceMeters>173745.86085477</DistanceMeters>
          </Trackpoint>
          <Trackpoint>
            <Time>2021-07-29T08:48:32.000Z</Time>
            <Position>
              <LatitudeDegrees>41.81409585289657115936279296875</LatitudeDegrees>
              <LongitudeDegrees>-2.8503984399139881134033203125</LongitudeDegrees>
            </Position>
            <AltitudeMeters>1154.4000244140625</AltitudeMeters>
            <DistanceMeters>173767.6623938</DistanceMeters>
          </Trackpoint>
          <Trackpoint>
            <Time>2021-07-29T08:48:42.000Z</Time>
            <Position>
              <LatitudeDegrees>41.8144347332417964935302734375</LatitudeDegrees>
              <LongitudeDegrees>-2.85041612572968006134033203125</LongitudeDegrees>
            </Position>
            <AltitudeMeters>1155.5999755859375</AltitudeMeters>
            <DistanceMeters>173805.40905738</DistanceMeters>
          </Trackpoint>
          <Trackpoint>
            <Time>2021-07-29T08:48:58.000Z</Time>
            <Position>
              <LatitudeDegrees>41.81498416699469089508056640625</LatitudeDegrees>
              <LongitudeDegrees>-2.8505771420896053314208984375</LongitudeDegrees>
            </Position>
            <AltitudeMeters>1156.4000244140625</AltitudeMeters>
            <DistanceMeters>173868.00389781</DistanceMeters>
          </Trackpoint>
          <Trackpoint>
            <Time>2021-07-29T08:49:04.000Z</Time>
            <Position>
              <LatitudeDegrees>41.8152005039155483245849609375</LatitudeDegrees>
              <LongitudeDegrees>-2.85064729861915111541748046875</LongitudeDegrees>
            </Position>
            <AltitudeMeters>1156.5999755859375</AltitudeMeters>
            <DistanceMeters>173892.77599714</DistanceMeters>
          </Trackpoint>
          <Trackpoint>
            <Time>2021-07-29T08:49:18.000Z</Time>
            <Position>
              <LatitudeDegrees>41.81573401205241680145263671875</LatitudeDegrees>
              <LongitudeDegrees>-2.85081091336905956268310546875</LongitudeDegrees>
            </Position>
            <AltitudeMeters>1157.5999755859375</AltitudeMeters>
            <DistanceMeters>173953.68782455</DistanceMeters>
          </Trackpoint>
          <Trackpoint>
            <Time>2021-07-29T08:49:19.000Z</Time>
            <Position>
              <LatitudeDegrees>41.81577407754957675933837890625</LatitudeDegrees>
              <LongitudeDegrees>-2.85082398913800716400146484375</LongitudeDegrees>
            </Position>
            <AltitudeMeters>1157.5999755859375</AltitudeMeters>
            <DistanceMeters>173958.27673927</DistanceMeters>
          </Trackpoint>
          <Trackpoint>
            <Time>2021-07-29T08:49:32.000Z</Time>
            <Position>
              <LatitudeDegrees>41.8163035623729228973388671875</LatitudeDegrees>
              <LongitudeDegrees>-2.85098575986921787261962890625</LongitudeDegrees>
            </Position>
            <AltitudeMeters>1157.4000244140625</AltitudeMeters>
            <DistanceMeters>174018.71791303</DistanceMeters>
          </Trackpoint>
          <Trackpoint>
            <Time>2021-07-29T08:49:46.000Z</Time>
            <Position>
              <LatitudeDegrees>41.81684629060328006744384765625</LatitudeDegrees>
              <LongitudeDegrees>-2.85117435269057750701904296875</LongitudeDegrees>
            </Position>
            <AltitudeMeters>1158.4000244140625</AltitudeMeters>
            <DistanceMeters>174081.11740599</DistanceMeters>
          </Trackpoint>
          <Trackpoint>
            <Time>2021-07-29T08:49:58.000Z</Time>
            <Position>
              <LatitudeDegrees>41.81737753562629222869873046875</LatitudeDegrees>
              <LongitudeDegrees>-2.851398400962352752685546875</LongitudeDegrees>
            </Position>
            <AltitudeMeters>1156.4000244140625</AltitudeMeters>
            <DistanceMeters>174143.09799312</DistanceMeters>
          </Trackpoint>
          <Trackpoint>
            <Time>2021-07-29T08:49:59.000Z</Time>
            <Position>
              <LatitudeDegrees>41.81743629276752471923828125</LatitudeDegrees>
              <LongitudeDegrees>-2.8514309227466583251953125</LongitudeDegrees>
            </Position>
            <AltitudeMeters>1155.5999755859375</AltitudeMeters>
            <DistanceMeters>174150.17221984</DistanceMeters>
          </Trackpoint>
          <Trackpoint>
            <Time>2021-07-29T08:50:00.000Z</Time>
            <Position>
              <LatitudeDegrees>41.81749974377453327178955078125</LatitudeDegrees>
              <LongitudeDegrees>-2.851460762321949005126953125</LongitudeDegrees>
            </Position>
            <AltitudeMeters>1154.5999755859375</AltitudeMeters>
            <DistanceMeters>174157.65583755</DistanceMeters>
          </Trackpoint>
          <Trackpoint>
            <Time>2021-07-29T08:50:02.000Z</Time>
            <Position>
              <LatitudeDegrees>41.81763854809105396270751953125</LatitudeDegrees>
              <LongitudeDegrees>-2.8515185974538326263427734375</LongitudeDegrees>
            </Position>
            <AltitudeMeters>1153.4000244140625</AltitudeMeters>
            <DistanceMeters>174173.83272277</DistanceMeters>
          </Trackpoint>
          <Trackpoint>
            <Time>2021-07-29T08:50:05.000Z</Time>
            <Position>
              <LatitudeDegrees>41.81787349283695220947265625</LatitudeDegrees>
              <LongitudeDegrees>-2.851614654064178466796875</LongitudeDegrees>
            </Position>
            <AltitudeMeters>1152.199951171875</AltitudeMeters>
            <DistanceMeters>174201.16971358</DistanceMeters>
          </Trackpoint>
          <Trackpoint>
            <Time>2021-07-29T08:50:07.000Z</Time>
            <Position>
              <LatitudeDegrees>41.818044148385524749755859375</LatitudeDegrees>
              <LongitudeDegrees>-2.8516818769276142120361328125</LongitudeDegrees>
            </Position>
            <AltitudeMeters>1149.800048828125</AltitudeMeters>
            <DistanceMeters>174220.96539991</DistanceMeters>
          </Trackpoint>
          <Trackpoint>
            <Time>2021-07-29T08:50:09.000Z</Time>
            <Position>
              <LatitudeDegrees>41.8182282149791717529296875</LatitudeDegrees>
              <LongitudeDegrees>-2.8517469204962253570556640625</LongitudeDegrees>
            </Position>
            <AltitudeMeters>1148.199951171875</AltitudeMeters>
            <DistanceMeters>174242.15102993</DistanceMeters>
          </Trackpoint>
          <Trackpoint>
            <Time>2021-07-29T08:50:11.000Z</Time>
            <Position>
              <LatitudeDegrees>41.81841270066797733306884765625</LatitudeDegrees>
              <LongitudeDegrees>-2.85179746337234973907470703125</LongitudeDegrees>
            </Position>
            <AltitudeMeters>1147</AltitudeMeters>
            <DistanceMeters>174263.10824488</DistanceMeters>
          </Trackpoint>
          <Trackpoint>
            <Time>2021-07-29T08:50:15.000Z</Time>
            <Position>
              <LatitudeDegrees>41.81876599788665771484375</LatitudeDegrees>
              <LongitudeDegrees>-2.85182579420506954193115234375</LongitudeDegrees>
            </Position>
            <AltitudeMeters>1146</AltitudeMeters>
            <DistanceMeters>174302.50114496</DistanceMeters>
          </Trackpoint>
          <Trackpoint>
            <Time>2021-07-29T08:50:22.000Z</Time>
            <Position>
              <LatitudeDegrees>41.81937628425657749176025390625</LatitudeDegrees>
              <LongitudeDegrees>-2.851845324039459228515625</LongitudeDegrees>
            </Position>
            <AltitudeMeters>1145.5999755859375</AltitudeMeters>
            <DistanceMeters>174370.44650831</DistanceMeters>
          </Trackpoint>
          <Trackpoint>
            <Time>2021-07-29T08:50:29.000Z</Time>
            <Position>
              <LatitudeDegrees>41.81994323618710041046142578125</LatitudeDegrees>
              <LongitudeDegrees>-2.8518679551780223846435546875</LongitudeDegrees>
            </Position>
            <AltitudeMeters>1145</AltitudeMeters>
            <DistanceMeters>174433.57736851</DistanceMeters>
          </Trackpoint>
          <Trackpoint>
            <Time>2021-07-29T08:50:30.000Z</Time>
            <Position>
              <LatitudeDegrees>41.82002554647624492645263671875</LatitudeDegrees>
              <LongitudeDegrees>-2.85187256522476673126220703125</LongitudeDegrees>
            </Position>
            <AltitudeMeters>1144.4000244140625</AltitudeMeters>
            <DistanceMeters>174442.74683097</DistanceMeters>
          </Trackpoint>
          <Trackpoint>
            <Time>2021-07-29T08:50:32.000Z</Time>
            <Position>
              <LatitudeDegrees>41.82019938714802265167236328125</LatitudeDegrees>
              <LongitudeDegrees>-2.85188195295631885528564453125</LongitudeDegrees>
            </Position>
            <AltitudeMeters>1142.800048828125</AltitudeMeters>
            <DistanceMeters>174462.11130758</DistanceMeters>
          </Trackpoint>
          <Trackpoint>
            <Time>2021-07-29T08:50:34.000Z</Time>
            <Position>
              <LatitudeDegrees>41.8203761614859104156494140625</LatitudeDegrees>
              <LongitudeDegrees>-2.8518914245069026947021484375</LongitudeDegrees>
            </Position>
            <AltitudeMeters>1141.800048828125</AltitudeMeters>
            <DistanceMeters>174481.8022553</DistanceMeters>
          </Trackpoint>
          <Trackpoint>
            <Time>2021-07-29T08:50:36.000Z</Time>
            <Position>
              <LatitudeDegrees>41.82055226527154445648193359375</LatitudeDegrees>
              <LongitudeDegrees>-2.8518922626972198486328125</LongitudeDegrees>
            </Position>
            <AltitudeMeters>1140.5999755859375</AltitudeMeters>
            <DistanceMeters>174501.4033436</DistanceMeters>
          </Trackpoint>
          <Trackpoint>
            <Time>2021-07-29T08:50:39.000Z</Time>
            <Position>
              <LatitudeDegrees>41.82082333602011203765869140625</LatitudeDegrees>
              <LongitudeDegrees>-2.85189033485949039459228515625</LongitudeDegrees>
            </Position>
            <AltitudeMeters>1139.4000244140625</AltitudeMeters>
            <DistanceMeters>174531.5745873</DistanceMeters>
          </Trackpoint>
          <Trackpoint>
            <Time>2021-07-29T08:50:41.000Z</Time>
            <Position>
              <LatitudeDegrees>41.821012683212757110595703125</LatitudeDegrees>
              <LongitudeDegrees>-2.85189050249755382537841796875</LongitudeDegrees>
            </Position>
            <AltitudeMeters>1138.199951171875</AltitudeMeters>
            <DistanceMeters>174552.64910461</DistanceMeters>
          </Trackpoint>
          <Trackpoint>
            <Time>2021-07-29T08:50:48.000Z</Time>
            <Position>
              <LatitudeDegrees>41.82161961682140827178955078125</LatitudeDegrees>
              <LongitudeDegrees>-2.85191732458770275115966796875</LongitudeDegrees>
            </Position>
            <AltitudeMeters>1139.199951171875</AltitudeMeters>
            <DistanceMeters>174620.23855447</DistanceMeters>
          </Trackpoint>
          <Trackpoint>
            <Time>2021-07-29T08:50:49.000Z</Time>
            <Position>
              <LatitudeDegrees>41.821681894361972808837890625</LatitudeDegrees>
              <LongitudeDegrees>-2.85192067734897136688232421875</LongitudeDegrees>
            </Position>
            <AltitudeMeters>1140.4000244140625</AltitudeMeters>
            <DistanceMeters>174627.17485372</DistanceMeters>
          </Trackpoint>
          <Trackpoint>
            <Time>2021-07-29T08:50:51.000Z</Time>
            <Position>
              <LatitudeDegrees>41.82179488241672515869140625</LatitudeDegrees>
              <LongitudeDegrees>-2.8519249521195888519287109375</LongitudeDegrees>
            </Position>
            <AltitudeMeters>1142</AltitudeMeters>
            <DistanceMeters>174639.75575909</DistanceMeters>
          </Trackpoint>
          <Trackpoint>
            <Time>2021-07-29T08:50:53.000Z</Time>
            <Position>
              <LatitudeDegrees>41.8218947947025299072265625</LatitudeDegrees>
              <LongitudeDegrees>-2.85192537121474742889404296875</LongitudeDegrees>
            </Position>
            <AltitudeMeters>1143.199951171875</AltitudeMeters>
            <DistanceMeters>174650.87591497</DistanceMeters>
          </Trackpoint>
          <Trackpoint>
            <Time>2021-07-29T08:50:56.000Z</Time>
            <Position>
              <LatitudeDegrees>41.82201976887881755828857421875</LatitudeDegrees>
              <LongitudeDegrees>-2.85193727351725101470947265625</LongitudeDegrees>
            </Position>
            <AltitudeMeters>1144.5999755859375</AltitudeMeters>
            <DistanceMeters>174664.82090319</DistanceMeters>
          </Trackpoint>
          <Trackpoint>
            <Time>2021-07-29T08:51:01.000Z</Time>
            <Position>
              <LatitudeDegrees>41.8222014047205448150634765625</LatitudeDegrees>
              <LongitudeDegrees>-2.85194850526750087738037109375</LongitudeDegrees>
            </Position>
            <AltitudeMeters>1145.5999755859375</AltitudeMeters>
            <DistanceMeters>174685.05891636</DistanceMeters>
          </Trackpoint>
          <Trackpoint>
            <Time>2021-07-29T08:51:05.000Z</Time>
            <Position>
              <LatitudeDegrees>41.82234029285609722137451171875</LatitudeDegrees>
              <LongitudeDegrees>-2.85195001401007175445556640625</LongitudeDegrees>
            </Position>
            <AltitudeMeters>1147</AltitudeMeters>
            <DistanceMeters>174700.51821787</DistanceMeters>
          </Trackpoint>
          <Trackpoint>
            <Time>2021-07-29T08:51:10.000Z</Time>
            <Position>
              <LatitudeDegrees>41.82250591926276683807373046875</LatitudeDegrees>
              <LongitudeDegrees>-2.851956300437450408935546875</LongitudeDegrees>
            </Position>
            <AltitudeMeters>1147.800048828125</AltitudeMeters>
            <DistanceMeters>174718.96025678</DistanceMeters>
          </Trackpoint>
          <Trackpoint>
            <Time>2021-07-29T08:51:16.000Z</Time>
            <Position>
              <LatitudeDegrees>41.8227009661495685577392578125</LatitudeDegrees>
              <LongitudeDegrees>-2.85197214223444461822509765625</LongitudeDegrees>
            </Position>
            <AltitudeMeters>1148.800048828125</AltitudeMeters>
            <DistanceMeters>174740.70912949</DistanceMeters>
          </Trackpoint>
          <Trackpoint>
            <Time>2021-07-29T08:51:21.000Z</Time>
            <Position>
              <LatitudeDegrees>41.82286432944238185882568359375</LatitudeDegrees>
              <LongitudeDegrees>-2.851993851363658905029296875</LongitudeDegrees>
            </Position>
            <AltitudeMeters>1150</AltitudeMeters>
            <DistanceMeters>174758.98096537</DistanceMeters>
          </Trackpoint>
          <Trackpoint>
            <Time>2021-07-29T08:51:26.000Z</Time>
            <Position>
              <LatitudeDegrees>41.8230224959552288055419921875</LatitudeDegrees>
              <LongitudeDegrees>-2.8520322404801845550537109375</LongitudeDegrees>
            </Position>
            <AltitudeMeters>1151.199951171875</AltitudeMeters>
            <DistanceMeters>174776.87099051</DistanceMeters>
          </Trackpoint>
          <Trackpoint>
            <Time>2021-07-29T08:51:33.000Z</Time>
            <Position>
              <LatitudeDegrees>41.82322273962199687957763671875</LatitudeDegrees>
              <LongitudeDegrees>-2.852144725620746612548828125</LongitudeDegrees>
            </Position>
            <AltitudeMeters>1152.199951171875</AltitudeMeters>
            <DistanceMeters>174801.03226845</DistanceMeters>
          </Trackpoint>
          <Trackpoint>
            <Time>2021-07-29T08:51:48.000Z</Time>
            <Position>
              <LatitudeDegrees>41.823703944683074951171875</LatitudeDegrees>
              <LongitudeDegrees>-2.85249534063041210174560546875</LongitudeDegrees>
            </Position>
            <AltitudeMeters>1152.800048828125</AltitudeMeters>
            <DistanceMeters>174861.97714628</DistanceMeters>
          </Trackpoint>
          <Trackpoint>
            <Time>2021-07-29T08:52:01.000Z</Time>
            <Position>
              <LatitudeDegrees>41.82417911477386951446533203125</LatitudeDegrees>
              <LongitudeDegrees>-2.85268913023173809051513671875</LongitudeDegrees>
            </Position>
            <AltitudeMeters>1153</AltitudeMeters>
            <DistanceMeters>174917.25296979</DistanceMeters>
          </Trackpoint>
          <Trackpoint>
            <Time>2021-07-29T08:52:08.000Z</Time>
            <Position>
              <LatitudeDegrees>41.8244112096726894378662109375</LatitudeDegrees>
              <LongitudeDegrees>-2.85274595953524112701416015625</LongitudeDegrees>
            </Position>
            <AltitudeMeters>1154.199951171875</AltitudeMeters>
            <DistanceMeters>174943.51217137</DistanceMeters>
          </Trackpoint>
          <Trackpoint>
            <Time>2021-07-29T08:52:23.000Z</Time>
            <Position>
              <LatitudeDegrees>41.82494781911373138427734375</LatitudeDegrees>
              <LongitudeDegrees>-2.85267370752990245819091796875</LongitudeDegrees>
            </Position>
            <AltitudeMeters>1154.4000244140625</AltitudeMeters>
            <DistanceMeters>175003.53769687</DistanceMeters>
          </Trackpoint>
          <Trackpoint>
            <Time>2021-07-29T08:52:30.000Z</Time>
            <Position>
              <LatitudeDegrees>41.8252095021307468414306640625</LatitudeDegrees>
              <LongitudeDegrees>-2.85259407944977283477783203125</LongitudeDegrees>
            </Position>
            <AltitudeMeters>1154.199951171875</AltitudeMeters>
            <DistanceMeters>175033.40300736</DistanceMeters>
          </Trackpoint>
          <Trackpoint>
            <Time>2021-07-29T08:52:35.000Z</Time>
            <Position>
              <LatitudeDegrees>41.8254656530916690826416015625</LatitudeDegrees>
              <LongitudeDegrees>-2.85261721350252628326416015625</LongitudeDegrees>
            </Position>
            <AltitudeMeters>1152.800048828125</AltitudeMeters>
            <DistanceMeters>175061.97762096</DistanceMeters>
          </Trackpoint>
          <Trackpoint>
            <Time>2021-07-29T08:52:38.000Z</Time>
            <Position>
              <LatitudeDegrees>41.8256383202970027923583984375</LatitudeDegrees>
              <LongitudeDegrees>-2.852662391960620880126953125</LongitudeDegrees>
            </Position>
            <AltitudeMeters>1151.5999755859375</AltitudeMeters>
            <DistanceMeters>175081.55773652</DistanceMeters>
          </Trackpoint>
          <Trackpoint>
            <Time>2021-07-29T08:52:41.000Z</Time>
            <Position>
              <LatitudeDegrees>41.82582666166126728057861328125</LatitudeDegrees>
              <LongitudeDegrees>-2.85270757041871547698974609375</LongitudeDegrees>
            </Position>
            <AltitudeMeters>1150.4000244140625</AltitudeMeters>
            <DistanceMeters>175102.85262743</DistanceMeters>
          </Trackpoint>
          <Trackpoint>
            <Time>2021-07-29T08:52:45.000Z</Time>
            <Position>
              <LatitudeDegrees>41.826073341071605682373046875</LatitudeDegrees>
              <LongitudeDegrees>-2.85275266505777835845947265625</LongitudeDegrees>
            </Position>
            <AltitudeMeters>1150</AltitudeMeters>
            <DistanceMeters>175130.56200021</DistanceMeters>
          </Trackpoint>
          <Trackpoint>
            <Time>2021-07-29T08:52:50.000Z</Time>
            <Position>
              <LatitudeDegrees>41.82631901465356349945068359375</LatitudeDegrees>
              <LongitudeDegrees>-2.85275601781904697418212890625</LongitudeDegrees>
            </Position>
            <AltitudeMeters>1151.4000244140625</AltitudeMeters>
            <DistanceMeters>175157.90724788</DistanceMeters>
          </Trackpoint>
          <Trackpoint>
            <Time>2021-07-29T08:52:54.000Z</Time>
            <Position>
              <LatitudeDegrees>41.82648179121315479278564453125</LatitudeDegrees>
              <LongitudeDegrees>-2.8527222387492656707763671875</LongitudeDegrees>
            </Position>
            <AltitudeMeters>1152.4000244140625</AltitudeMeters>
            <DistanceMeters>175176.24001677</DistanceMeters>
          </Trackpoint>
          <Trackpoint>
            <Time>2021-07-29T08:52:58.000Z</Time>
            <Position>
              <LatitudeDegrees>41.8266263790428638458251953125</LatitudeDegrees>
              <LongitudeDegrees>-2.85268292762339115142822265625</LongitudeDegrees>
            </Position>
            <AltitudeMeters>1153.5999755859375</AltitudeMeters>
            <DistanceMeters>175192.66012708</DistanceMeters>
          </Trackpoint>
          <Trackpoint>
            <Time>2021-07-29T08:53:03.000Z</Time>
            <Position>
              <LatitudeDegrees>41.82679862715303897857666015625</LatitudeDegrees>
              <LongitudeDegrees>-2.8526260145008563995361328125</LongitudeDegrees>
            </Position>
            <AltitudeMeters>1154.800048828125</AltitudeMeters>
            <DistanceMeters>175212.40442828</DistanceMeters>
          </Trackpoint>
          <Trackpoint>
            <Time>2021-07-29T08:53:17.000Z</Time>
            <Position>
              <LatitudeDegrees>41.82736021466553211212158203125</LatitudeDegrees>
              <LongitudeDegrees>-2.85241940058767795562744140625</LongitudeDegrees>
            </Position>
            <AltitudeMeters>1154.199951171875</AltitudeMeters>
            <DistanceMeters>175277.21661842</DistanceMeters>
          </Trackpoint>
          <Trackpoint>
            <Time>2021-07-29T08:53:20.000Z</Time>
            <Position>
              <LatitudeDegrees>41.8275131843984127044677734375</LatitudeDegrees>
              <LongitudeDegrees>-2.85235502757132053375244140625</LongitudeDegrees>
            </Position>
            <AltitudeMeters>1153.5999755859375</AltitudeMeters>
            <DistanceMeters>175295.05989265</DistanceMeters>
          </Trackpoint>
          <Trackpoint>
            <Time>2021-07-29T08:53:23.000Z</Time>
            <Position>
              <LatitudeDegrees>41.82767755351960659027099609375</LatitudeDegrees>
              <LongitudeDegrees>-2.85228612832725048065185546875</LongitudeDegrees>
            </Position>
            <AltitudeMeters>1152.4000244140625</AltitudeMeters>
            <DistanceMeters>175314.22610015</DistanceMeters>
          </Trackpoint>
          <Trackpoint>
            <Time>2021-07-29T08:53:26.000Z</Time>
            <Position>
              <LatitudeDegrees>41.82784854434430599212646484375</LatitudeDegrees>
              <LongitudeDegrees>-2.85220867954194545745849609375</LongitudeDegrees>
            </Position>
            <AltitudeMeters>1151.199951171875</AltitudeMeters>
            <DistanceMeters>175334.31250887</DistanceMeters>
          </Trackpoint>
          <Trackpoint>
            <Time>2021-07-29T08:53:30.000Z</Time>
            <Position>
              <LatitudeDegrees>41.82809513993561267852783203125</LatitudeDegrees>
              <LongitudeDegrees>-2.85208747722208499908447265625</LongitudeDegrees>
            </Position>
            <AltitudeMeters>1150</AltitudeMeters>
            <DistanceMeters>175363.54183648</DistanceMeters>
          </Trackpoint>
          <Trackpoint>
            <Time>2021-07-29T08:53:34.000Z</Time>
            <Position>
              <LatitudeDegrees>41.8283616006374359130859375</LatitudeDegrees>
              <LongitudeDegrees>-2.851967699825763702392578125</LongitudeDegrees>
            </Position>
            <AltitudeMeters>1148.800048828125</AltitudeMeters>
            <DistanceMeters>175394.8189091</DistanceMeters>
          </Trackpoint>
          <Trackpoint>
            <Time>2021-07-29T08:53:37.000Z</Time>
            <Position>
              <LatitudeDegrees>41.82856880128383636474609375</LatitudeDegrees>
              <LongitudeDegrees>-2.85187222994863986968994140625</LongitudeDegrees>
            </Position>
            <AltitudeMeters>1147.800048828125</AltitudeMeters>
            <DistanceMeters>175419.20247515</DistanceMeters>
          </Trackpoint>
          <Trackpoint>
            <Time>2021-07-29T08:53:40.000Z</Time>
            <Position>
              <LatitudeDegrees>41.82877575047314167022705078125</LatitudeDegrees>
              <LongitudeDegrees>-2.85177801735699176788330078125</LongitudeDegrees>
            </Position>
            <AltitudeMeters>1146.5999755859375</AltitudeMeters>
            <DistanceMeters>175443.52560176</DistanceMeters>
          </Trackpoint>
          <Trackpoint>
            <Time>2021-07-29T08:53:49.000Z</Time>
            <Position>
              <LatitudeDegrees>41.8293421156704425811767578125</LatitudeDegrees>
              <LongitudeDegrees>-2.85153427161276340484619140625</LongitudeDegrees>
            </Position>
            <AltitudeMeters>1146.199951171875</AltitudeMeters>
            <DistanceMeters>175509.72526512</DistanceMeters>
          </Trackpoint>
          <Trackpoint>
            <Time>2021-07-29T08:53:58.000Z</Time>
            <Position>
              <LatitudeDegrees>41.8298138491809368133544921875</LatitudeDegrees>
              <LongitudeDegrees>-2.8513207845389842987060546875</LongitudeDegrees>
            </Position>
            <AltitudeMeters>1147.5999755859375</AltitudeMeters>
            <DistanceMeters>175565.13504811</DistanceMeters>
          </Trackpoint>
          <Trackpoint>
            <Time>2021-07-29T08:54:09.000Z</Time>
            <Position>
              <LatitudeDegrees>41.83032841421663761138916015625</LatitudeDegrees>
              <LongitudeDegrees>-2.8510901145637035369873046875</LongitudeDegrees>
            </Position>
            <AltitudeMeters>1148.4000244140625</AltitudeMeters>
            <DistanceMeters>175625.51777715</DistanceMeters>
          </Trackpoint>
          <Trackpoint>
            <Time>2021-07-29T08:54:12.000Z</Time>
            <Position>
              <LatitudeDegrees>41.8304609321057796478271484375</LatitudeDegrees>
              <LongitudeDegrees>-2.851023562252521514892578125</LongitudeDegrees>
            </Position>
            <AltitudeMeters>1148.5999755859375</AltitudeMeters>
            <DistanceMeters>175641.26585701</DistanceMeters>
          </Trackpoint>
          <Trackpoint>
            <Time>2021-07-29T08:54:24.000Z</Time>
            <Position>
              <LatitudeDegrees>41.8309732340276241302490234375</LatitudeDegrees>
              <LongitudeDegrees>-2.8507952392101287841796875</LongitudeDegrees>
            </Position>
            <AltitudeMeters>1149.5999755859375</AltitudeMeters>
            <DistanceMeters>175701.34799545</DistanceMeters>
          </Trackpoint>
          <Trackpoint>
            <Time>2021-07-29T08:54:38.000Z</Time>
            <Position>
              <LatitudeDegrees>41.83151118457317352294921875</LatitudeDegrees>
              <LongitudeDegrees>-2.85054168663918972015380859375</LongitudeDegrees>
            </Position>
            <AltitudeMeters>1149.4000244140625</AltitudeMeters>
            <DistanceMeters>175764.80805622</DistanceMeters>
          </Trackpoint>
          <Trackpoint>
            <Time>2021-07-29T08:54:46.000Z</Time>
            <Position>
              <LatitudeDegrees>41.83179625310003757476806640625</LatitudeDegrees>
              <LongitudeDegrees>-2.8503365814685821533203125</LongitudeDegrees>
            </Position>
            <AltitudeMeters>1149.800048828125</AltitudeMeters>
            <DistanceMeters>175800.80863568</DistanceMeters>
          </Trackpoint>
          <Trackpoint>
            <Time>2021-07-29T08:54:52.000Z</Time>
            <Position>
              <LatitudeDegrees>41.83199624530971050262451171875</LatitudeDegrees>
              <LongitudeDegrees>-2.85016383044421672821044921875</LongitudeDegrees>
            </Position>
            <AltitudeMeters>1151</AltitudeMeters>
            <DistanceMeters>175827.28001517</DistanceMeters>
          </Trackpoint>
          <Trackpoint>
            <Time>2021-07-29T08:54:57.000Z</Time>
            <Position>
              <LatitudeDegrees>41.8321480415761470794677734375</LatitudeDegrees>
              <LongitudeDegrees>-2.850031144917011260986328125</LongitudeDegrees>
            </Position>
            <AltitudeMeters>1152.199951171875</AltitudeMeters>
            <DistanceMeters>175847.44270451</DistanceMeters>
          </Trackpoint>
          <Trackpoint>
            <Time>2021-07-29T08:55:04.000Z</Time>
            <Position>
              <LatitudeDegrees>41.8323317728936672210693359375</LatitudeDegrees>
              <LongitudeDegrees>-2.84987901337444782257080078125</LongitudeDegrees>
            </Position>
            <AltitudeMeters>1153.199951171875</AltitudeMeters>
            <DistanceMeters>175871.47112576</DistanceMeters>
          </Trackpoint>
          <Trackpoint>
            <Time>2021-07-29T08:55:12.000Z</Time>
            <Position>
              <LatitudeDegrees>41.832522042095661163330078125</LatitudeDegrees>
              <LongitudeDegrees>-2.84971036948263645172119140625</LongitudeDegrees>
            </Position>
            <AltitudeMeters>1154.4000244140625</AltitudeMeters>
            <DistanceMeters>175896.84984189</DistanceMeters>
          </Trackpoint>
          <Trackpoint>
            <Time>2021-07-29T08:55:16.000Z</Time>
            <Position>
              <LatitudeDegrees>41.83262153528630733489990234375</LatitudeDegrees>
              <LongitudeDegrees>-2.84963225014507770538330078125</LongitudeDegrees>
            </Position>
            <AltitudeMeters>1155.4000244140625</AltitudeMeters>
            <DistanceMeters>175909.67950414</DistanceMeters>
          </Trackpoint>
          <Trackpoint>
            <Time>2021-07-29T08:55:22.000Z</Time>
            <Position>
              <LatitudeDegrees>41.8327711522579193115234375</LatitudeDegrees>
              <LongitudeDegrees>-2.84950233064591884613037109375</LongitudeDegrees>
            </Position>
            <AltitudeMeters>1156.4000244140625</AltitudeMeters>
            <DistanceMeters>175929.51347122</DistanceMeters>
          </Trackpoint>
          <Trackpoint>
            <Time>2021-07-29T08:55:33.000Z</Time>
            <Position>
              <LatitudeDegrees>41.83303476311266422271728515625</LatitudeDegrees>
              <LongitudeDegrees>-2.8492756001651287078857421875</LongitudeDegrees>
            </Position>
            <AltitudeMeters>1157.4000244140625</AltitudeMeters>
            <DistanceMeters>175964.36172513</DistanceMeters>
          </Trackpoint>
          <Trackpoint>
            <Time>2021-07-29T08:55:48.000Z</Time>
            <Position>
              <LatitudeDegrees>41.83349409140646457672119140625</LatitudeDegrees>
              <LongitudeDegrees>-2.8488964028656482696533203125</LongitudeDegrees>
            </Position>
            <AltitudeMeters>1156.4000244140625</AltitudeMeters>
            <DistanceMeters>176024.38326391</DistanceMeters>
          </Trackpoint>
          <Trackpoint>
            <Time>2021-07-29T08:55:53.000Z</Time>
            <Position>
              <LatitudeDegrees>41.83373632840812206268310546875</LatitudeDegrees>
              <LongitudeDegrees>-2.8486855141818523406982421875</LongitudeDegrees>
            </Position>
            <AltitudeMeters>1155</AltitudeMeters>
            <DistanceMeters>176056.52028155</DistanceMeters>
          </Trackpoint>
          <Trackpoint>
            <Time>2021-07-29T08:55:55.000Z</Time>
            <Position>
              <LatitudeDegrees>41.83386205695569515228271484375</LatitudeDegrees>
              <LongitudeDegrees>-2.84857814200222492218017578125</LongitudeDegrees>
            </Position>
            <AltitudeMeters>1153.199951171875</AltitudeMeters>
            <DistanceMeters>176073.10700332</DistanceMeters>
          </Trackpoint>
          <Trackpoint>
            <Time>2021-07-29T08:55:57.000Z</Time>
            <Position>
              <LatitudeDegrees>41.83400220237672328948974609375</LatitudeDegrees>
              <LongitudeDegrees>-2.84846029244363307952880859375</LongitudeDegrees>
            </Position>
            <AltitudeMeters>1151.800048828125</AltitudeMeters>
            <DistanceMeters>176091.51399923</DistanceMeters>
          </Trackpoint>
          <Trackpoint>
            <Time>2021-07-29T08:55:58.000Z</Time>
            <Position>
              <LatitudeDegrees>41.834078393876552581787109375</LatitudeDegrees>
              <LongitudeDegrees>-2.8483973443508148193359375</LongitudeDegrees>
            </Position>
            <AltitudeMeters>1150.5999755859375</AltitudeMeters>
            <DistanceMeters>176101.47232737</DistanceMeters>
          </Trackpoint>
          <Trackpoint>
            <Time>2021-07-29T08:55:59.000Z</Time>
            <Position>
              <LatitudeDegrees>41.834157519042491912841796875</LatitudeDegrees>
              <LongitudeDegrees>-2.848331294953823089599609375</LongitudeDegrees>
            </Position>
            <AltitudeMeters>1149.4000244140625</AltitudeMeters>
            <DistanceMeters>176111.84374341</DistanceMeters>
          </Trackpoint>
          <Trackpoint>
            <Time>2021-07-29T08:56:00.000Z</Time>
            <Position>
              <LatitudeDegrees>41.83424008078873157501220703125</LatitudeDegrees>
              <LongitudeDegrees>-2.84826247952878475189208984375</LongitudeDegrees>
            </Position>
            <AltitudeMeters>1148.199951171875</AltitudeMeters>
            <DistanceMeters>176122.66093947</DistanceMeters>
          </Trackpoint>
          <Trackpoint>
            <Time>2021-07-29T08:56:02.000Z</Time>
            <Position>
              <LatitudeDegrees>41.83441543020308017730712890625</LatitudeDegrees>
              <LongitudeDegrees>-2.84812300466001033782958984375</LongitudeDegrees>
            </Position>
            <AltitudeMeters>1146.199951171875</AltitudeMeters>
            <DistanceMeters>176145.34746051</DistanceMeters>
          </Trackpoint>
          <Trackpoint>
            <Time>2021-07-29T08:56:03.000Z</Time>
            <Position>
              <LatitudeDegrees>41.83450427837669849395751953125</LatitudeDegrees>
              <LongitudeDegrees>-2.848048992455005645751953125</LongitudeDegrees>
            </Position>
            <AltitudeMeters>1145</AltitudeMeters>
            <DistanceMeters>176156.98658448</DistanceMeters>
          </Trackpoint>
          <Trackpoint>
            <Time>2021-07-29T08:56:04.000Z</Time>
            <Position>
              <LatitudeDegrees>41.834593378007411956787109375</LatitudeDegrees>
              <LongitudeDegrees>-2.84797213040292263031005859375</LongitudeDegrees>
            </Position>
            <AltitudeMeters>1143.800048828125</AltitudeMeters>
            <DistanceMeters>176168.77526025</DistanceMeters>
          </Trackpoint>
          <Trackpoint>
            <Time>2021-07-29T08:56:05.000Z</Time>
            <Position>
              <LatitudeDegrees>41.8346807174384593963623046875</LatitudeDegrees>
              <LongitudeDegrees>-2.84789233468472957611083984375</LongitudeDegrees>
            </Position>
            <AltitudeMeters>1142.4000244140625</AltitudeMeters>
            <DistanceMeters>176180.53479216</DistanceMeters>
          </Trackpoint>
          <Trackpoint>
            <Time>2021-07-29T08:56:06.000Z</Time>
            <Position>
              <LatitudeDegrees>41.83476864360272884368896484375</LatitudeDegrees>
              <LongitudeDegrees>-2.84781329333782196044921875</LongitudeDegrees>
            </Position>
            <AltitudeMeters>1141.199951171875</AltitudeMeters>
            <DistanceMeters>176192.31350578</DistanceMeters>
          </Trackpoint>
          <Trackpoint>
            <Time>2021-07-29T08:56:08.000Z</Time>
            <Position>
              <LatitudeDegrees>41.83494851924479007720947265625</LatitudeDegrees>
              <LongitudeDegrees>-2.84766216762363910675048828125</LongitudeDegrees>
            </Position>
            <AltitudeMeters>1139.5999755859375</AltitudeMeters>
            <DistanceMeters>176215.93314068</DistanceMeters>
          </Trackpoint>
          <Trackpoint>
            <Time>2021-07-29T08:56:11.000Z</Time>
            <Position>
              <LatitudeDegrees>41.83522294275462627410888671875</LatitudeDegrees>
              <LongitudeDegrees>-2.84742705523967742919921875</LongitudeDegrees>
            </Position>
            <AltitudeMeters>1138.5999755859375</AltitudeMeters>
            <DistanceMeters>176252.16948218</DistanceMeters>
          </Trackpoint>
          <Trackpoint>
            <Time>2021-07-29T08:56:14.000Z</Time>
            <Position>
              <LatitudeDegrees>41.83549937792122364044189453125</LatitudeDegrees>
              <LongitudeDegrees>-2.84718506969511508941650390625</LongitudeDegrees>
            </Position>
            <AltitudeMeters>1137.199951171875</AltitudeMeters>
            <DistanceMeters>176288.90293101</DistanceMeters>
          </Trackpoint>
          <Trackpoint>
            <Time>2021-07-29T08:56:16.000Z</Time>
            <Position>
              <LatitudeDegrees>41.835689730942249298095703125</LatitudeDegrees>
              <LongitudeDegrees>-2.8470228798687458038330078125</LongitudeDegrees>
            </Position>
            <AltitudeMeters>1134.4000244140625</AltitudeMeters>
            <DistanceMeters>176313.99826108</DistanceMeters>
          </Trackpoint>
          <Trackpoint>
            <Time>2021-07-29T08:56:17.000Z</Time>
            <Position>
              <LatitudeDegrees>41.83578469790518283843994140625</LatitudeDegrees>
              <LongitudeDegrees>-2.8469420783221721649169921875</LongitudeDegrees>
            </Position>
            <AltitudeMeters>1132.5999755859375</AltitudeMeters>
            <DistanceMeters>176326.51295828</DistanceMeters>
          </Trackpoint>
          <Trackpoint>
            <Time>2021-07-29T08:56:18.000Z</Time>
            <Position>
              <LatitudeDegrees>41.83587689884006977081298828125</LatitudeDegrees>
              <LongitudeDegrees>-2.84686152823269367218017578125</LongitudeDegrees>
            </Position>
            <AltitudeMeters>1131.5999755859375</AltitudeMeters>
            <DistanceMeters>176338.75776899</DistanceMeters>
          </Trackpoint>
          <Trackpoint>
            <Time>2021-07-29T08:56:24.000Z</Time>
            <Position>
              <LatitudeDegrees>41.83640219271183013916015625</LatitudeDegrees>
              <LongitudeDegrees>-2.84641921520233154296875</LongitudeDegrees>
            </Position>
            <AltitudeMeters>1131.5999755859375</AltitudeMeters>
            <DistanceMeters>176407.7771311</DistanceMeters>
          </Trackpoint>
          <Trackpoint>
            <Time>2021-07-29T08:56:25.000Z</Time>
            <Position>
              <LatitudeDegrees>41.8364694155752658843994140625</LatitudeDegrees>
              <LongitudeDegrees>-2.8463476337492465972900390625</LongitudeDegrees>
            </Position>
            <AltitudeMeters>1131.800048828125</AltitudeMeters>
            <DistanceMeters>176417.32814321</DistanceMeters>
          </Trackpoint>
          <Trackpoint>
            <Time>2021-07-29T08:56:30.000Z</Time>
            <Position>
              <LatitudeDegrees>41.836547367274761199951171875</LatitudeDegrees>
              <LongitudeDegrees>-2.8458846174180507659912109375</LongitudeDegrees>
            </Position>
            <AltitudeMeters>1132.5999755859375</AltitudeMeters>
            <DistanceMeters>176456.69214958</DistanceMeters>
          </Trackpoint>
          <Trackpoint>
            <Time>2021-07-29T08:56:31.000Z</Time>
            <Position>
              <LatitudeDegrees>41.8365287594497203826904296875</LatitudeDegrees>
              <LongitudeDegrees>-2.84579987637698650360107421875</LongitudeDegrees>
            </Position>
            <AltitudeMeters>1133</AltitudeMeters>
            <DistanceMeters>176464.01784028</DistanceMeters>
          </Trackpoint>
          <Trackpoint>
            <Time>2021-07-29T08:56:33.000Z</Time>
            <Position>
              <LatitudeDegrees>41.83649397455155849456787109375</LatitudeDegrees>
              <LongitudeDegrees>-2.84563927911221981048583984375</LongitudeDegrees>
            </Position>
            <AltitudeMeters>1134</AltitudeMeters>
            <DistanceMeters>176477.88718376</DistanceMeters>
          </Trackpoint>
          <Trackpoint>
            <Time>2021-07-29T08:56:38.000Z</Time>
            <Position>
              <LatitudeDegrees>41.8364265002310276031494140625</LatitudeDegrees>
              <LongitudeDegrees>-2.84528070129454135894775390625</LongitudeDegrees>
            </Position>
            <AltitudeMeters>1135</AltitudeMeters>
            <DistanceMeters>176508.55623693</DistanceMeters>
          </Trackpoint>
          <Trackpoint>
            <Time>2021-07-29T08:56:44.000Z</Time>
            <Position>
              <LatitudeDegrees>41.836356930434703826904296875</LatitudeDegrees>
              <LongitudeDegrees>-2.8449103049933910369873046875</LongitudeDegrees>
            </Position>
            <AltitudeMeters>1136</AltitudeMeters>
            <DistanceMeters>176540.23250524</DistanceMeters>
          </Trackpoint>
          <Trackpoint>
            <Time>2021-07-29T08:56:56.000Z</Time>
            <Position>
              <LatitudeDegrees>41.83622810058295726776123046875</LatitudeDegrees>
              <LongitudeDegrees>-2.84414696507155895233154296875</LongitudeDegrees>
            </Position>
            <AltitudeMeters>1135.5999755859375</AltitudeMeters>
            <DistanceMeters>176605.13693376</DistanceMeters>
          </Trackpoint>
          <Trackpoint>
            <Time>2021-07-29T08:57:03.000Z</Time>
            <Position>
              <LatitudeDegrees>41.8361426889896392822265625</LatitudeDegrees>
              <LongitudeDegrees>-2.84365176223218441009521484375</LongitudeDegrees>
            </Position>
            <AltitudeMeters>1134.800048828125</AltitudeMeters>
            <DistanceMeters>176647.28821786</DistanceMeters>
          </Trackpoint>
          <Trackpoint>
            <Time>2021-07-29T08:57:07.000Z</Time>
            <Position>
              <LatitudeDegrees>41.83609784580767154693603515625</LatitudeDegrees>
              <LongitudeDegrees>-2.84336225129663944244384765625</LongitudeDegrees>
            </Position>
            <AltitudeMeters>1133.800048828125</AltitudeMeters>
            <DistanceMeters>176671.80971374</DistanceMeters>
          </Trackpoint>
          <Trackpoint>
            <Time>2021-07-29T08:57:17.000Z</Time>
            <Position>
              <LatitudeDegrees>41.835969351232051849365234375</LatitudeDegrees>
              <LongitudeDegrees>-2.84264140762388706207275390625</LongitudeDegrees>
            </Position>
            <AltitudeMeters>1133.199951171875</AltitudeMeters>
            <DistanceMeters>176733.27356263</DistanceMeters>
          </Trackpoint>
          <Trackpoint>
            <Time>2021-07-29T08:57:24.000Z</Time>
            <Position>
              <LatitudeDegrees>41.8358977697789669036865234375</LatitudeDegrees>
              <LongitudeDegrees>-2.84218492917716503143310546875</LongitudeDegrees>
            </Position>
            <AltitudeMeters>1132.800048828125</AltitudeMeters>
            <DistanceMeters>176771.95702277</DistanceMeters>
          </Trackpoint>
          <Trackpoint>
            <Time>2021-07-29T08:57:29.000Z</Time>
            <Position>
              <LatitudeDegrees>41.8358404375612735748291015625</LatitudeDegrees>
              <LongitudeDegrees>-2.84187312237918376922607421875</LongitudeDegrees>
            </Position>
            <AltitudeMeters>1133.4000244140625</AltitudeMeters>
            <DistanceMeters>176798.58960515</DistanceMeters>
          </Trackpoint>
          <Trackpoint>
            <Time>2021-07-29T08:57:41.000Z</Time>
            <Position>
              <LatitudeDegrees>41.8357194028794765472412109375</LatitudeDegrees>
              <LongitudeDegrees>-2.84113434143364429473876953125</LongitudeDegrees>
            </Position>
            <AltitudeMeters>1133.5999755859375</AltitudeMeters>
            <DistanceMeters>176861.31781827</DistanceMeters>
          </Trackpoint>
          <Trackpoint>
            <Time>2021-07-29T08:57:44.000Z</Time>
            <Position>
              <LatitudeDegrees>41.83569266460835933685302734375</LatitudeDegrees>
              <LongitudeDegrees>-2.84096184186637401580810546875</LongitudeDegrees>
            </Position>
            <AltitudeMeters>1134</AltitudeMeters>
            <DistanceMeters>176875.92908335</DistanceMeters>
          </Trackpoint>
          <Trackpoint>
            <Time>2021-07-29T08:57:48.000Z</Time>
            <Position>
              <LatitudeDegrees>41.83565653860569000244140625</LatitudeDegrees>
              <LongitudeDegrees>-2.84074508585035800933837890625</LongitudeDegrees>
            </Position>
            <AltitudeMeters>1135</AltitudeMeters>
            <DistanceMeters>176894.3480945</DistanceMeters>
          </Trackpoint>
          <Trackpoint>
            <Time>2021-07-29T08:57:53.000Z</Time>
            <Position>
              <LatitudeDegrees>41.83566215448081493377685546875</LatitudeDegrees>
              <LongitudeDegrees>-2.84049882553517818450927734375</LongitudeDegrees>
            </Position>
            <AltitudeMeters>1136.4000244140625</AltitudeMeters>
            <DistanceMeters>176914.77905908</DistanceMeters>
          </Trackpoint>
          <Trackpoint>
            <Time>2021-07-29T08:57:55.000Z</Time>
            <Position>
              <LatitudeDegrees>41.83570574037730693817138671875</LatitudeDegrees>
              <LongitudeDegrees>-2.84041014499962329864501953125</LongitudeDegrees>
            </Position>
            <AltitudeMeters>1136.5999755859375</AltitudeMeters>
            <DistanceMeters>176923.58839941</DistanceMeters>
          </Trackpoint>
          <Trackpoint>
            <Time>2021-07-29T08:58:01.000Z</Time>
            <Position>
              <LatitudeDegrees>41.83589818887412548065185546875</LatitudeDegrees>
              <LongitudeDegrees>-2.84015282057225704193115234375</LongitudeDegrees>
            </Position>
            <AltitudeMeters>1135.199951171875</AltitudeMeters>
            <DistanceMeters>176953.82362421</DistanceMeters>
          </Trackpoint>
          <Trackpoint>
            <Time>2021-07-29T08:58:08.000Z</Time>
            <Position>
              <LatitudeDegrees>41.83611787855625152587890625</LatitudeDegrees>
              <LongitudeDegrees>-2.83987035043537616729736328125</LongitudeDegrees>
            </Position>
            <AltitudeMeters>1134.199951171875</AltitudeMeters>
            <DistanceMeters>176987.68488418</DistanceMeters>
          </Trackpoint>
          <Trackpoint>
            <Time>2021-07-29T08:58:09.000Z</Time>
            <Position>
              <LatitudeDegrees>41.83615065179765224456787109375</LatitudeDegrees>
              <LongitudeDegrees>-2.83983145840466022491455078125</LongitudeDegrees>
            </Position>
            <AltitudeMeters>1134.199951171875</AltitudeMeters>
            <DistanceMeters>176992.55355449</DistanceMeters>
          </Trackpoint>
          <Trackpoint>
            <Time>2021-07-29T08:58:20.000Z</Time>
            <Position>
              <LatitudeDegrees>41.83650839142501354217529296875</LatitudeDegrees>
              <LongitudeDegrees>-2.83928026445209980010986328125</LongitudeDegrees>
            </Position>
            <AltitudeMeters>1133.199951171875</AltitudeMeters>
            <DistanceMeters>177053.17240575</DistanceMeters>
          </Trackpoint>
          <Trackpoint>
            <Time>2021-07-29T08:58:24.000Z</Time>
            <Position>
              <LatitudeDegrees>41.8366088904440402984619140625</LatitudeDegrees>
              <LongitudeDegrees>-2.8390417993068695068359375</LongitudeDegrees>
            </Position>
            <AltitudeMeters>1132.800048828125</AltitudeMeters>
            <DistanceMeters>177075.89193985</DistanceMeters>
          </Trackpoint>
          <Trackpoint>
            <Time>2021-07-29T08:58:35.000Z</Time>
            <Position>
              <LatitudeDegrees>41.83687535114586353302001953125</LatitudeDegrees>
              <LongitudeDegrees>-2.8383927047252655029296875</LongitudeDegrees>
            </Position>
            <AltitudeMeters>1132.199951171875</AltitudeMeters>
            <DistanceMeters>177137.34807513</DistanceMeters>
          </Trackpoint>
          <Trackpoint>
            <Time>2021-07-29T08:58:40.000Z</Time>
            <Position>
              <LatitudeDegrees>41.8370705656707286834716796875</LatitudeDegrees>
              <LongitudeDegrees>-2.83812222070991992950439453125</LongitudeDegrees>
            </Position>
            <AltitudeMeters>1131.5999755859375</AltitudeMeters>
            <DistanceMeters>177168.57631724</DistanceMeters>
          </Trackpoint>
          <Trackpoint>
            <Time>2021-07-29T08:58:42.000Z</Time>
            <Position>
              <LatitudeDegrees>41.8371600843966007232666015625</LatitudeDegrees>
              <LongitudeDegrees>-2.8380198776721954345703125</LongitudeDegrees>
            </Position>
            <AltitudeMeters>1130.5999755859375</AltitudeMeters>
            <DistanceMeters>177181.66450085</DistanceMeters>
          </Trackpoint>
          <Trackpoint>
            <Time>2021-07-29T08:58:45.000Z</Time>
            <Position>
              <LatitudeDegrees>41.8373055942356586456298828125</LatitudeDegrees>
              <LongitudeDegrees>-2.8378671593964099884033203125</LongitudeDegrees>
            </Position>
            <AltitudeMeters>1129.4000244140625</AltitudeMeters>
            <DistanceMeters>177202.22367929</DistanceMeters>
          </Trackpoint>
          <Trackpoint>
            <Time>2021-07-29T08:58:49.000Z</Time>
            <Position>
              <LatitudeDegrees>41.83753567747771739959716796875</LatitudeDegrees>
              <LongitudeDegrees>-2.83767990767955780029296875</LongitudeDegrees>
            </Position>
            <AltitudeMeters>1128</AltitudeMeters>
            <DistanceMeters>177232.17247564</DistanceMeters>
          </Trackpoint>
          <Trackpoint>
            <Time>2021-07-29T08:58:53.000Z</Time>
            <Position>
              <LatitudeDegrees>41.83779694139957427978515625</LatitudeDegrees>
              <LongitudeDegrees>-2.83751771785318851470947265625</LongitudeDegrees>
            </Position>
            <AltitudeMeters>1126.5999755859375</AltitudeMeters>
            <DistanceMeters>177264.21156068</DistanceMeters>
          </Trackpoint>
          <Trackpoint>
            <Time>2021-07-29T08:58:55.000Z</Time>
            <Position>
              <LatitudeDegrees>41.837934069335460662841796875</LatitudeDegrees>
              <LongitudeDegrees>-2.837428115308284759521484375</LongitudeDegrees>
            </Position>
            <AltitudeMeters>1125.199951171875</AltitudeMeters>
            <DistanceMeters>177281.18680057</DistanceMeters>
          </Trackpoint>
          <Trackpoint>
            <Time>2021-07-29T08:58:58.000Z</Time>
            <Position>
              <LatitudeDegrees>41.838147975504398345947265625</LatitudeDegrees>
              <LongitudeDegrees>-2.83728989772498607635498046875</LongitudeDegrees>
            </Position>
            <AltitudeMeters>1123.800048828125</AltitudeMeters>
            <DistanceMeters>177307.61003751</DistanceMeters>
          </Trackpoint>
          <Trackpoint>
            <Time>2021-07-29T08:59:00.000Z</Time>
            <Position>
              <LatitudeDegrees>41.83829356916248798370361328125</LatitudeDegrees>
              <LongitudeDegrees>-2.83720909617841243743896484375</LongitudeDegrees>
            </Position>
            <AltitudeMeters>1122.5999755859375</AltitudeMeters>
            <DistanceMeters>177325.14549197</DistanceMeters>
          </Trackpoint>
          <Trackpoint>
            <Time>2021-07-29T08:59:02.000Z</Time>
            <Position>
              <LatitudeDegrees>41.838438324630260467529296875</LatitudeDegrees>
              <LongitudeDegrees>-2.837133072316646575927734375</LongitudeDegrees>
            </Position>
            <AltitudeMeters>1121.4000244140625</AltitudeMeters>
            <DistanceMeters>177342.44661835</DistanceMeters>
          </Trackpoint>
          <Trackpoint>
            <Time>2021-07-29T08:59:06.000Z</Time>
            <Position>
              <LatitudeDegrees>41.83873244561254978179931640625</LatitudeDegrees>
              <LongitudeDegrees>-2.83698697574436664581298828125</LongitudeDegrees>
            </Position>
            <AltitudeMeters>1120</AltitudeMeters>
            <DistanceMeters>177377.35260945</DistanceMeters>
          </Trackpoint>
          <Trackpoint>
            <Time>2021-07-29T08:59:14.000Z</Time>
            <Position>
              <LatitudeDegrees>41.8393102101981639862060546875</LatitudeDegrees>
              <LongitudeDegrees>-2.8367708064615726470947265625</LongitudeDegrees>
            </Position>
            <AltitudeMeters>1119.199951171875</AltitudeMeters>
            <DistanceMeters>177444.11061786</DistanceMeters>
          </Trackpoint>
          <Trackpoint>
            <Time>2021-07-29T08:59:15.000Z</Time>
            <Position>
              <LatitudeDegrees>41.8393792770802974700927734375</LatitudeDegrees>
              <LongitudeDegrees>-2.8367661125957965850830078125</LongitudeDegrees>
            </Position>
            <AltitudeMeters>1118.800048828125</AltitudeMeters>
            <DistanceMeters>177451.80836829</DistanceMeters>
          </Trackpoint>
          <Trackpoint>
            <Time>2021-07-29T08:59:20.000Z</Time>
            <Position>
              <LatitudeDegrees>41.83968831785023212432861328125</LatitudeDegrees>
              <LongitudeDegrees>-2.836783714592456817626953125</LongitudeDegrees>
            </Position>
            <AltitudeMeters>1118.5999755859375</AltitudeMeters>
            <DistanceMeters>177486.23637773</DistanceMeters>
          </Trackpoint>
          <Trackpoint>
            <Time>2021-07-29T08:59:24.000Z</Time>
            <Position>
              <LatitudeDegrees>41.83989115990698337554931640625</LatitudeDegrees>
              <LongitudeDegrees>-2.8366973809897899627685546875</LongitudeDegrees>
            </Position>
            <AltitudeMeters>1120</AltitudeMeters>
            <DistanceMeters>177509.92072591</DistanceMeters>
          </Trackpoint>
          <Trackpoint>
            <Time>2021-07-29T08:59:25.000Z</Time>
            <Position>
              <LatitudeDegrees>41.83993491344153881072998046875</LatitudeDegrees>
              <LongitudeDegrees>-2.836662344634532928466796875</LongitudeDegrees>
            </Position>
            <AltitudeMeters>1120.199951171875</AltitudeMeters>
            <DistanceMeters>177515.59136099</DistanceMeters>
          </Trackpoint>
          <Trackpoint>
            <Time>2021-07-29T08:59:28.000Z</Time>
            <Position>
              <LatitudeDegrees>41.84005158953368663787841796875</LatitudeDegrees>
              <LongitudeDegrees>-2.83655212260782718658447265625</LongitudeDegrees>
            </Position>
            <AltitudeMeters>1121</AltitudeMeters>
            <DistanceMeters>177531.47134571</DistanceMeters>
          </Trackpoint>
          <Trackpoint>
            <Time>2021-07-29T08:59:35.000Z</Time>
            <Position>
              <LatitudeDegrees>41.84026130475103855133056640625</LatitudeDegrees>
              <LongitudeDegrees>-2.8362930379807949066162109375</LongitudeDegrees>
            </Position>
            <AltitudeMeters>1122.199951171875</AltitudeMeters>
            <DistanceMeters>177563.19490099</DistanceMeters>
          </Trackpoint>
          <Trackpoint>
            <Time>2021-07-29T08:59:43.000Z</Time>
            <Position>
              <LatitudeDegrees>41.84046599082648754119873046875</LatitudeDegrees>
              <LongitudeDegrees>-2.83603713847696781158447265625</LongitudeDegrees>
            </Position>
            <AltitudeMeters>1123.4000244140625</AltitudeMeters>
            <DistanceMeters>177594.32829794</DistanceMeters>
          </Trackpoint>
          <Trackpoint>
            <Time>2021-07-29T08:59:52.000Z</Time>
            <Position>
              <LatitudeDegrees>41.84069096110761165618896484375</LatitudeDegrees>
              <LongitudeDegrees>-2.835762463510036468505859375</LongitudeDegrees>
            </Position>
            <AltitudeMeters>1124.4000244140625</AltitudeMeters>
            <DistanceMeters>177628.17702168</DistanceMeters>
          </Trackpoint>
          <Trackpoint>
            <Time>2021-07-29T09:00:01.000Z</Time>
            <Position>
              <LatitudeDegrees>41.84094191528856754302978515625</LatitudeDegrees>
              <LongitudeDegrees>-2.83553338609635829925537109375</LongitudeDegrees>
            </Position>
            <AltitudeMeters>1125.4000244140625</AltitudeMeters>
            <DistanceMeters>177661.95564375</DistanceMeters>
          </Trackpoint>
          <Trackpoint>
            <Time>2021-07-29T09:00:18.000Z</Time>
            <Position>
              <LatitudeDegrees>41.84146360494196414947509765625</LatitudeDegrees>
              <LongitudeDegrees>-2.83522970974445343017578125</LongitudeDegrees>
            </Position>
            <AltitudeMeters>1126.5999755859375</AltitudeMeters>
            <DistanceMeters>177725.24564707</DistanceMeters>
          </Trackpoint>
          <Trackpoint>
            <Time>2021-07-29T09:00:34.000Z</Time>
            <Position>
              <LatitudeDegrees>41.8419813551008701324462890625</LatitudeDegrees>
              <LongitudeDegrees>-2.83492393791675567626953125</LongitudeDegrees>
            </Position>
            <AltitudeMeters>1127.4000244140625</AltitudeMeters>
            <DistanceMeters>177788.20326579</DistanceMeters>
          </Trackpoint>
          <Trackpoint>
            <Time>2021-07-29T09:00:47.000Z</Time>
            <Position>
              <LatitudeDegrees>41.842473037540912628173828125</LatitudeDegrees>
              <LongitudeDegrees>-2.83454063348472118377685546875</LongitudeDegrees>
            </Position>
            <AltitudeMeters>1127.199951171875</AltitudeMeters>
            <DistanceMeters>177851.48834653</DistanceMeters>
          </Trackpoint>
          <Trackpoint>
            <Time>2021-07-29T09:01:01.000Z</Time>
            <Position>
              <LatitudeDegrees>41.8429771251976490020751953125</LatitudeDegrees>
              <LongitudeDegrees>-2.83421860076487064361572265625</LongitudeDegrees>
            </Position>
            <AltitudeMeters>1127.4000244140625</AltitudeMeters>
            <DistanceMeters>177913.6243379</DistanceMeters>
          </Trackpoint>
          <Trackpoint>
            <Time>2021-07-29T09:01:16.000Z</Time>
            <Position>
              <LatitudeDegrees>41.8434906005859375</LatitudeDegrees>
              <LongitudeDegrees>-2.83394652418792247772216796875</LongitudeDegrees>
            </Position>
            <AltitudeMeters>1127.5999755859375</AltitudeMeters>
            <DistanceMeters>177975.06673319</DistanceMeters>
          </Trackpoint>
          <Trackpoint>
            <Time>2021-07-29T09:01:26.000Z</Time>
            <Position>
              <LatitudeDegrees>41.84389754198491573333740234375</LatitudeDegrees>
              <LongitudeDegrees>-2.83384594134986400604248046875</LongitudeDegrees>
            </Position>
            <AltitudeMeters>1127.800048828125</AltitudeMeters>
            <DistanceMeters>178021.12146732</DistanceMeters>
          </Trackpoint>
          <Trackpoint>
            <Time>2021-07-29T09:01:28.000Z</Time>
            <Position>
              <LatitudeDegrees>41.84398354031145572662353515625</LatitudeDegrees>
              <LongitudeDegrees>-2.83384996466338634490966796875</LongitudeDegrees>
            </Position>
            <AltitudeMeters>1127.800048828125</AltitudeMeters>
            <DistanceMeters>178030.69891565</DistanceMeters>
          </Trackpoint>
          <Trackpoint>
            <Time>2021-07-29T09:01:29.000Z</Time>
            <Position>
              <LatitudeDegrees>41.84402628801763057708740234375</LatitudeDegrees>
              <LongitudeDegrees>-2.83384962938725948333740234375</LongitudeDegrees>
            </Position>
            <AltitudeMeters>1128</AltitudeMeters>
            <DistanceMeters>178035.45594955</DistanceMeters>
          </Trackpoint>
          <Trackpoint>
            <Time>2021-07-29T09:01:42.000Z</Time>
            <Position>
              <LatitudeDegrees>41.84457630850374698638916015625</LatitudeDegrees>
              <LongitudeDegrees>-2.8337908722460269927978515625</LongitudeDegrees>
            </Position>
            <AltitudeMeters>1128</AltitudeMeters>
            <DistanceMeters>178096.86784137</DistanceMeters>
          </Trackpoint>
          <Trackpoint>
            <Time>2021-07-29T09:01:45.000Z</Time>
            <Position>
              <LatitudeDegrees>41.8446719460189342498779296875</LatitudeDegrees>
              <LongitudeDegrees>-2.83375843428075313568115234375</LongitudeDegrees>
            </Position>
            <AltitudeMeters>1129</AltitudeMeters>
            <DistanceMeters>178107.84661454</DistanceMeters>
          </Trackpoint>
          <Trackpoint>
            <Time>2021-07-29T09:02:03.000Z</Time>
            <Position>
              <LatitudeDegrees>41.84521735645830631256103515625</LatitudeDegrees>
              <LongitudeDegrees>-2.8334968350827693939208984375</LongitudeDegrees>
            </Position>
            <AltitudeMeters>1129.4000244140625</AltitudeMeters>
            <DistanceMeters>178172.3105972</DistanceMeters>
          </Trackpoint>
          <Trackpoint>
            <Time>2021-07-29T09:02:06.000Z</Time>
            <Position>
              <LatitudeDegrees>41.8453652970492839813232421875</LatitudeDegrees>
              <LongitudeDegrees>-2.83344260416924953460693359375</LongitudeDegrees>
            </Position>
            <AltitudeMeters>1127.800048828125</AltitudeMeters>
            <DistanceMeters>178189.37946905</DistanceMeters>
          </Trackpoint>
          <Trackpoint>
            <Time>2021-07-29T09:02:08.000Z</Time>
            <Position>
              <LatitudeDegrees>41.8454813025891780853271484375</LatitudeDegrees>
              <LongitudeDegrees>-2.8334190510213375091552734375</LongitudeDegrees>
            </Position>
            <AltitudeMeters>1126.800048828125</AltitudeMeters>
            <DistanceMeters>178202.43760573</DistanceMeters>
          </Trackpoint>
          <Trackpoint>
            <Time>2021-07-29T09:02:14.000Z</Time>
            <Position>
              <LatitudeDegrees>41.84581045992672443389892578125</LatitudeDegrees>
              <LongitudeDegrees>-2.8334244154393672943115234375</LongitudeDegrees>
            </Position>
            <AltitudeMeters>1126</AltitudeMeters>
            <DistanceMeters>178239.07628889</DistanceMeters>
          </Trackpoint>
          <Trackpoint>
            <Time>2021-07-29T09:02:15.000Z</Time>
            <Position>
              <LatitudeDegrees>41.84587365947663784027099609375</LatitudeDegrees>
              <LongitudeDegrees>-2.833417542278766632080078125</LongitudeDegrees>
            </Position>
            <AltitudeMeters>1125.4000244140625</AltitudeMeters>
            <DistanceMeters>178246.13326215</DistanceMeters>
          </Trackpoint>
          <Trackpoint>
            <Time>2021-07-29T09:02:20.000Z</Time>
            <Position>
              <LatitudeDegrees>41.84612913988530635833740234375</LatitudeDegrees>
              <LongitudeDegrees>-2.83331151120364665985107421875</LongitudeDegrees>
            </Position>
            <AltitudeMeters>1126.4000244140625</AltitudeMeters>
            <DistanceMeters>178275.89665459</DistanceMeters>
          </Trackpoint>
          <Trackpoint>
            <Time>2021-07-29T09:02:21.000Z</Time>
            <Position>
              <LatitudeDegrees>41.846173144876956939697265625</LatitudeDegrees>
              <LongitudeDegrees>-2.8332933224737644195556640625</LongitudeDegrees>
            </Position>
            <AltitudeMeters>1126.5999755859375</AltitudeMeters>
            <DistanceMeters>178281.02105331</DistanceMeters>
          </Trackpoint>
          <Trackpoint>
            <Time>2021-07-29T09:02:30.000Z</Time>
            <Position>
              <LatitudeDegrees>41.84660187922418117523193359375</LatitudeDegrees>
              <LongitudeDegrees>-2.83329659141600131988525390625</LongitudeDegrees>
            </Position>
            <AltitudeMeters>1125.5999755859375</AltitudeMeters>
            <DistanceMeters>178328.74074063</DistanceMeters>
          </Trackpoint>
          <Trackpoint>
            <Time>2021-07-29T09:02:32.000Z</Time>
            <Position>
              <LatitudeDegrees>41.84672123752534389495849609375</LatitudeDegrees>
              <LongitudeDegrees>-2.8333348967134952545166015625</LongitudeDegrees>
            </Position>
            <AltitudeMeters>1124</AltitudeMeters>
            <DistanceMeters>178342.40014909</DistanceMeters>
          </Trackpoint>
          <Trackpoint>
            <Time>2021-07-29T09:02:33.000Z</Time>
            <Position>
              <LatitudeDegrees>41.84678896330296993255615234375</LatitudeDegrees>
              <LongitudeDegrees>-2.83334814012050628662109375</LongitudeDegrees>
            </Position>
            <AltitudeMeters>1123.4000244140625</AltitudeMeters>
            <DistanceMeters>178350.01771243</DistanceMeters>
          </Trackpoint>
          <Trackpoint>
            <Time>2021-07-29T09:02:35.000Z</Time>
            <Position>
              <LatitudeDegrees>41.8469290249049663543701171875</LatitudeDegrees>
              <LongitudeDegrees>-2.83334889449179172515869140625</LongitudeDegrees>
            </Position>
            <AltitudeMeters>1122.800048828125</AltitudeMeters>
            <DistanceMeters>178365.60730759</DistanceMeters>
          </Trackpoint>
          <Trackpoint>
            <Time>2021-07-29T09:02:37.000Z</Time>
            <Position>
              <LatitudeDegrees>41.84705131687223911285400390625</LatitudeDegrees>
              <LongitudeDegrees>-2.83332265913486480712890625</LongitudeDegrees>
            </Position>
            <AltitudeMeters>1123</AltitudeMeters>
            <DistanceMeters>178379.39142303</DistanceMeters>
          </Trackpoint>
          <Trackpoint>
            <Time>2021-07-29T09:02:39.000Z</Time>
            <Position>
              <LatitudeDegrees>41.847144104540348052978515625</LatitudeDegrees>
              <LongitudeDegrees>-2.8332953341305255889892578125</LongitudeDegrees>
            </Position>
            <AltitudeMeters>1124.4000244140625</AltitudeMeters>
            <DistanceMeters>178389.96461301</DistanceMeters>
          </Trackpoint>
          <Trackpoint>
            <Time>2021-07-29T09:02:41.000Z</Time>
            <Position>
              <LatitudeDegrees>41.84721895493566989898681640625</LatitudeDegrees>
              <LongitudeDegrees>-2.8332742117345333099365234375</LongitudeDegrees>
            </Position>
            <AltitudeMeters>1126</AltitudeMeters>
            <DistanceMeters>178398.47786113</DistanceMeters>
          </Trackpoint>
          <Trackpoint>
            <Time>2021-07-29T09:02:54.000Z</Time>
            <Position>
              <LatitudeDegrees>41.84776176698505878448486328125</LatitudeDegrees>
              <LongitudeDegrees>-2.83313012681901454925537109375</LongitudeDegrees>
            </Position>
            <AltitudeMeters>1124.4000244140625</AltitudeMeters>
            <DistanceMeters>178460.06360362</DistanceMeters>
          </Trackpoint>
          <Trackpoint>
            <Time>2021-07-29T09:02:56.000Z</Time>
            <Position>
              <LatitudeDegrees>41.84787341393530368804931640625</LatitudeDegrees>
              <LongitudeDegrees>-2.8331018798053264617919921875</LongitudeDegrees>
            </Position>
            <AltitudeMeters>1123.199951171875</AltitudeMeters>
            <DistanceMeters>178472.70894243</DistanceMeters>
          </Trackpoint>
          <Trackpoint>
            <Time>2021-07-29T09:03:03.000Z</Time>
            <Position>
              <LatitudeDegrees>41.84822260402143001556396484375</LatitudeDegrees>
              <LongitudeDegrees>-2.8329473175108432769775390625</LongitudeDegrees>
            </Position>
            <AltitudeMeters>1124.4000244140625</AltitudeMeters>
            <DistanceMeters>178513.63270201</DistanceMeters>
          </Trackpoint>
          <Trackpoint>
            <Time>2021-07-29T09:03:05.000Z</Time>
            <Position>
              <LatitudeDegrees>41.8483133800327777862548828125</LatitudeDegrees>
              <LongitudeDegrees>-2.83290834166109561920166015625</LongitudeDegrees>
            </Position>
            <AltitudeMeters>1124.5999755859375</AltitudeMeters>
            <DistanceMeters>178524.23999914</DistanceMeters>
          </Trackpoint>
          <Trackpoint>
            <Time>2021-07-29T09:03:09.000Z</Time>
            <Position>
              <LatitudeDegrees>41.84850297868251800537109375</LatitudeDegrees>
              <LongitudeDegrees>-2.832882441580295562744140625</LongitudeDegrees>
            </Position>
            <AltitudeMeters>1123.5999755859375</AltitudeMeters>
            <DistanceMeters>178545.45161362</DistanceMeters>
          </Trackpoint>
          <Trackpoint>
            <Time>2021-07-29T09:03:11.000Z</Time>
            <Position>
              <LatitudeDegrees>41.84859660454094409942626953125</LatitudeDegrees>
              <LongitudeDegrees>-2.83288411796092987060546875</LongitudeDegrees>
            </Position>
            <AltitudeMeters>1123.4000244140625</AltitudeMeters>
            <DistanceMeters>178555.87340615</DistanceMeters>
          </Trackpoint>
          <Trackpoint>
            <Time>2021-07-29T09:03:16.000Z</Time>
            <Position>
              <LatitudeDegrees>41.8488256819546222686767578125</LatitudeDegrees>
              <LongitudeDegrees>-2.83293910324573516845703125</LongitudeDegrees>
            </Position>
            <AltitudeMeters>1123.199951171875</AltitudeMeters>
            <DistanceMeters>178581.77459278</DistanceMeters>
          </Trackpoint>
          <Trackpoint>
            <Time>2021-07-29T09:03:23.000Z</Time>
            <Position>
              <LatitudeDegrees>41.849155090749263763427734375</LatitudeDegrees>
              <LongitudeDegrees>-2.8330425359308719635009765625</LongitudeDegrees>
            </Position>
            <AltitudeMeters>1123.4000244140625</AltitudeMeters>
            <DistanceMeters>178619.4280815</DistanceMeters>
          </Trackpoint>
          <Trackpoint>
            <Time>2021-07-29T09:03:27.000Z</Time>
            <Position>
              <LatitudeDegrees>41.849341504275798797607421875</LatitudeDegrees>
              <LongitudeDegrees>-2.8330167196691036224365234375</LongitudeDegrees>
            </Position>
            <AltitudeMeters>1123</AltitudeMeters>
            <DistanceMeters>178640.28639119</DistanceMeters>
          </Trackpoint>
          <Trackpoint>
            <Time>2021-07-29T09:03:28.000Z</Time>
            <Position>
              <LatitudeDegrees>41.84938483871519565582275390625</LatitudeDegrees>
              <LongitudeDegrees>-2.83299970440566539764404296875</LongitudeDegrees>
            </Position>
            <AltitudeMeters>1123</AltitudeMeters>
            <DistanceMeters>178645.31024067</DistanceMeters>
          </Trackpoint>
          <Trackpoint>
            <Time>2021-07-29T09:03:35.000Z</Time>
            <Position>
              <LatitudeDegrees>41.849700920283794403076171875</LatitudeDegrees>
              <LongitudeDegrees>-2.8328648395836353302001953125</LongitudeDegrees>
            </Position>
            <AltitudeMeters>1122.4000244140625</AltitudeMeters>
            <DistanceMeters>178682.22478639</DistanceMeters>
          </Trackpoint>
          <Trackpoint>
            <Time>2021-07-29T09:03:41.000Z</Time>
            <Position>
              <LatitudeDegrees>41.8499760143458843231201171875</LatitudeDegrees>
              <LongitudeDegrees>-2.83277138136327266693115234375</LongitudeDegrees>
            </Position>
            <AltitudeMeters>1122.199951171875</AltitudeMeters>
            <DistanceMeters>178713.80869867</DistanceMeters>
          </Trackpoint>
          <Trackpoint>
            <Time>2021-07-29T09:03:43.000Z</Time>
            <Position>
              <LatitudeDegrees>41.8500688858330249786376953125</LatitudeDegrees>
              <LongitudeDegrees>-2.83276199363172054290771484375</LongitudeDegrees>
            </Position>
            <AltitudeMeters>1122.199951171875</AltitudeMeters>
            <DistanceMeters>178724.17488937</DistanceMeters>
          </Trackpoint>
          <Trackpoint>
            <Time>2021-07-29T09:03:47.000Z</Time>
            <Position>
              <LatitudeDegrees>41.85024230740964412689208984375</LatitudeDegrees>
              <LongitudeDegrees>-2.8327788412570953369140625</LongitudeDegrees>
            </Position>
            <AltitudeMeters>1122.4000244140625</AltitudeMeters>
            <DistanceMeters>178743.52723782</DistanceMeters>
          </Trackpoint>
          <Trackpoint>
            <Time>2021-07-29T09:03:51.000Z</Time>
            <Position>
              <LatitudeDegrees>41.8504147231578826904296875</LatitudeDegrees>
              <LongitudeDegrees>-2.8327806852757930755615234375</LongitudeDegrees>
            </Position>
            <AltitudeMeters>1122.800048828125</AltitudeMeters>
            <DistanceMeters>178762.71792925</DistanceMeters>
          </Trackpoint>
          <Trackpoint>
            <Time>2021-07-29T09:04:02.000Z</Time>
            <Position>
              <LatitudeDegrees>41.850961558520793914794921875</LatitudeDegrees>
              <LongitudeDegrees>-2.83272192813456058502197265625</LongitudeDegrees>
            </Position>
            <AltitudeMeters>1121.5999755859375</AltitudeMeters>
            <DistanceMeters>178823.77642007</DistanceMeters>
          </Trackpoint>
          <Trackpoint>
            <Time>2021-07-29T09:04:13.000Z</Time>
            <Position>
              <LatitudeDegrees>41.85147746466100215911865234375</LatitudeDegrees>
              <LongitudeDegrees>-2.8324953652918338775634765625</LongitudeDegrees>
            </Position>
            <AltitudeMeters>1122</AltitudeMeters>
            <DistanceMeters>178884.19204056</DistanceMeters>
          </Trackpoint>
          <Trackpoint>
            <Time>2021-07-29T09:04:16.000Z</Time>
            <Position>
              <LatitudeDegrees>41.85163202695548534393310546875</LatitudeDegrees>
              <LongitudeDegrees>-2.83241112716495990753173828125</LongitudeDegrees>
            </Position>
            <AltitudeMeters>1121.199951171875</AltitudeMeters>
            <DistanceMeters>178902.75876263</DistanceMeters>
          </Trackpoint>
          <Trackpoint>
            <Time>2021-07-29T09:04:19.000Z</Time>
            <Position>
              <LatitudeDegrees>41.85179882682859897613525390625</LatitudeDegrees>
              <LongitudeDegrees>-2.83232747577130794525146484375</LongitudeDegrees>
            </Position>
            <AltitudeMeters>1120</AltitudeMeters>
            <DistanceMeters>178922.5770162</DistanceMeters>
          </Trackpoint>
          <Trackpoint>
            <Time>2021-07-29T09:04:21.000Z</Time>
            <Position>
              <LatitudeDegrees>41.851923465728759765625</LatitudeDegrees>
              <LongitudeDegrees>-2.832268215715885162353515625</LongitudeDegrees>
            </Position>
            <AltitudeMeters>1118.800048828125</AltitudeMeters>
            <DistanceMeters>178937.29389031</DistanceMeters>
          </Trackpoint>
          <Trackpoint>
            <Time>2021-07-29T09:04:23.000Z</Time>
            <Position>
              <LatitudeDegrees>41.85205179266631603240966796875</LatitudeDegrees>
              <LongitudeDegrees>-2.8322090394794940948486328125</LongitudeDegrees>
            </Position>
            <AltitudeMeters>1117</AltitudeMeters>
            <DistanceMeters>178952.3956654</DistanceMeters>
          </Trackpoint>
          <Trackpoint>
            <Time>2021-07-29T09:04:32.000Z</Time>
            <Position>
              <LatitudeDegrees>41.85253442265093326568603515625</LatitudeDegrees>
              <LongitudeDegrees>-2.83185071311891078948974609375</LongitudeDegrees>
            </Position>
            <AltitudeMeters>1117</AltitudeMeters>
            <DistanceMeters>179013.78056923</DistanceMeters>
          </Trackpoint>
          <Trackpoint>
            <Time>2021-07-29T09:04:36.000Z</Time>
            <Position>
              <LatitudeDegrees>41.8526712991297245025634765625</LatitudeDegrees>
              <LongitudeDegrees>-2.83166413195431232452392578125</LongitudeDegrees>
            </Position>
            <AltitudeMeters>1118.199951171875</AltitudeMeters>
            <DistanceMeters>179035.4916261</DistanceMeters>
          </Trackpoint>
          <Trackpoint>
            <Time>2021-07-29T09:04:39.000Z</Time>
            <Position>
              <LatitudeDegrees>41.8527638353407382965087890625</LatitudeDegrees>
              <LongitudeDegrees>-2.8315512277185916900634765625</LongitudeDegrees>
            </Position>
            <AltitudeMeters>1119.199951171875</AltitudeMeters>
            <DistanceMeters>179049.40939064</DistanceMeters>
          </Trackpoint>
          <Trackpoint>
            <Time>2021-07-29T09:04:52.000Z</Time>
            <Position>
              <LatitudeDegrees>41.85322207398712635040283203125</LatitudeDegrees>
              <LongitudeDegrees>-2.831114865839481353759765625</LongitudeDegrees>
            </Position>
            <AltitudeMeters>1118</AltitudeMeters>
            <DistanceMeters>179111.93942375</DistanceMeters>
          </Trackpoint>
          <Trackpoint>
            <Time>2021-07-29T09:05:01.000Z</Time>
            <Position>
              <LatitudeDegrees>41.853598169982433319091796875</LatitudeDegrees>
              <LongitudeDegrees>-2.8308917395770549774169921875</LongitudeDegrees>
            </Position>
            <AltitudeMeters>1118.199951171875</AltitudeMeters>
            <DistanceMeters>179157.70462877</DistanceMeters>
          </Trackpoint>
          <Trackpoint>
            <Time>2021-07-29T09:05:06.000Z</Time>
            <Position>
              <LatitudeDegrees>41.85382590629160404205322265625</LatitudeDegrees>
              <LongitudeDegrees>-2.830826528370380401611328125</LongitudeDegrees>
            </Position>
            <AltitudeMeters>1117.800048828125</AltitudeMeters>
            <DistanceMeters>179183.62237031</DistanceMeters>
          </Trackpoint>
          <Trackpoint>
            <Time>2021-07-29T09:05:19.000Z</Time>
            <Position>
              <LatitudeDegrees>41.85440442524850368499755859375</LatitudeDegrees>
              <LongitudeDegrees>-2.83086617477238178253173828125</LongitudeDegrees>
            </Position>
            <AltitudeMeters>1118</AltitudeMeters>
            <DistanceMeters>179248.09643789</DistanceMeters>
          </Trackpoint>
          <Trackpoint>
            <Time>2021-07-29T09:05:28.000Z</Time>
            <Position>
              <LatitudeDegrees>41.854756884276866912841796875</LatitudeDegrees>
              <LongitudeDegrees>-2.83098519779741764068603515625</LongitudeDegrees>
            </Position>
            <AltitudeMeters>1118.800048828125</AltitudeMeters>
            <DistanceMeters>179288.5476929</DistanceMeters>
          </Trackpoint>
          <Trackpoint>
            <Time>2021-07-29T09:05:33.000Z</Time>
            <Position>
              <LatitudeDegrees>41.85493516735732555389404296875</LatitudeDegrees>
              <LongitudeDegrees>-2.83096591942012310028076171875</LongitudeDegrees>
            </Position>
            <AltitudeMeters>1118.800048828125</AltitudeMeters>
            <DistanceMeters>179308.45527927</DistanceMeters>
          </Trackpoint>
          <Trackpoint>
            <Time>2021-07-29T09:05:35.000Z</Time>
            <Position>
              <LatitudeDegrees>41.85496601276099681854248046875</LatitudeDegrees>
              <LongitudeDegrees>-2.8308696113526821136474609375</LongitudeDegrees>
            </Position>
            <AltitudeMeters>1117.800048828125</AltitudeMeters>
            <DistanceMeters>179317.1464581</DistanceMeters>
          </Trackpoint>
          <Trackpoint>
            <Time>2021-07-29T09:05:38.000Z</Time>
            <Position>
              <LatitudeDegrees>41.8548914976418018341064453125</LatitudeDegrees>
              <LongitudeDegrees>-2.83075771294534206390380859375</LongitudeDegrees>
            </Position>
            <AltitudeMeters>1116.4000244140625</AltitudeMeters>
            <DistanceMeters>179329.59024172</DistanceMeters>
          </Trackpoint>
          <Trackpoint>
            <Time>2021-07-29T09:05:40.000Z</Time>
            <Position>
              <LatitudeDegrees>41.85480625368654727935791015625</LatitudeDegrees>
              <LongitudeDegrees>-2.830750085413455963134765625</LongitudeDegrees>
            </Position>
            <AltitudeMeters>1116</AltitudeMeters>
            <DistanceMeters>179339.09908789</DistanceMeters>
          </Trackpoint>
          <Trackpoint>
            <Time>2021-07-29T09:05:43.000Z</Time>
            <Position>
              <LatitudeDegrees>41.85466962866485118865966796875</LatitudeDegrees>
              <LongitudeDegrees>-2.83073910512030124664306640625</LongitudeDegrees>
            </Position>
            <AltitudeMeters>1115.4000244140625</AltitudeMeters>
            <DistanceMeters>179354.33302909</DistanceMeters>
          </Trackpoint>
          <Trackpoint>
            <Time>2021-07-29T09:05:54.000Z</Time>
            <Position>
              <LatitudeDegrees>41.85413829982280731201171875</LatitudeDegrees>
              <LongitudeDegrees>-2.83052167855203151702880859375</LongitudeDegrees>
            </Position>
            <AltitudeMeters>1115</AltitudeMeters>
            <DistanceMeters>179416.15694499</DistanceMeters>
          </Trackpoint>
          <Trackpoint>
            <Time>2021-07-29T09:05:58.000Z</Time>
            <Position>
              <LatitudeDegrees>41.853954903781414031982421875</LatitudeDegrees>
              <LongitudeDegrees>-2.8303594887256622314453125</LongitudeDegrees>
            </Position>
            <AltitudeMeters>1114.5999755859375</AltitudeMeters>
            <DistanceMeters>179440.60006217</DistanceMeters>
          </Trackpoint>
          <Trackpoint>
            <Time>2021-07-29T09:06:02.000Z</Time>
            <Position>
              <LatitudeDegrees>41.85383713804185390472412109375</LatitudeDegrees>
              <LongitudeDegrees>-2.830100990831851959228515625</LongitudeDegrees>
            </Position>
            <AltitudeMeters>1114.199951171875</AltitudeMeters>
            <DistanceMeters>179465.72092725</DistanceMeters>
          </Trackpoint>
          <Trackpoint>
            <Time>2021-07-29T09:06:04.000Z</Time>
            <Position>
              <LatitudeDegrees>41.85380562208592891693115234375</LatitudeDegrees>
              <LongitudeDegrees>-2.82994735054671764373779296875</LongitudeDegrees>
            </Position>
            <AltitudeMeters>1114</AltitudeMeters>
            <DistanceMeters>179478.93271659</DistanceMeters>
          </Trackpoint>
          <Trackpoint>
            <Time>2021-07-29T09:06:11.000Z</Time>
            <Position>
              <LatitudeDegrees>41.85374912805855274200439453125</LatitudeDegrees>
              <LongitudeDegrees>-2.8293726034462451934814453125</LongitudeDegrees>
            </Position>
            <AltitudeMeters>1113.4000244140625</AltitudeMeters>
            <DistanceMeters>179526.99416252</DistanceMeters>
          </Trackpoint>
          <Trackpoint>
            <Time>2021-07-29T09:06:14.000Z</Time>
            <Position>
              <LatitudeDegrees>41.85378424823284149169921875</LatitudeDegrees>
              <LongitudeDegrees>-2.8291338868439197540283203125</LongitudeDegrees>
            </Position>
            <AltitudeMeters>1113.199951171875</AltitudeMeters>
            <DistanceMeters>179547.16670239</DistanceMeters>
          </Trackpoint>
          <Trackpoint>
            <Time>2021-07-29T09:06:15.000Z</Time>
            <Position>
              <LatitudeDegrees>41.853804029524326324462890625</LatitudeDegrees>
              <LongitudeDegrees>-2.82905794680118560791015625</LongitudeDegrees>
            </Position>
            <AltitudeMeters>1113</AltitudeMeters>
            <DistanceMeters>179553.83619687</DistanceMeters>
          </Trackpoint>
          <Trackpoint>
            <Time>2021-07-29T09:06:22.000Z</Time>
            <Position>
              <LatitudeDegrees>41.853970326483249664306640625</LatitudeDegrees>
              <LongitudeDegrees>-2.82854204066097736358642578125</LongitudeDegrees>
            </Position>
            <AltitudeMeters>1112</AltitudeMeters>
            <DistanceMeters>179600.43960732</DistanceMeters>
          </Trackpoint>
          <Trackpoint>
            <Time>2021-07-29T09:06:25.000Z</Time>
            <Position>
              <LatitudeDegrees>41.85406395234167575836181640625</LatitudeDegrees>
              <LongitudeDegrees>-2.8283453173935413360595703125</LongitudeDegrees>
            </Position>
            <AltitudeMeters>1111.800048828125</AltitudeMeters>
            <DistanceMeters>179619.79335556</DistanceMeters>
          </Trackpoint>
          <Trackpoint>
            <Time>2021-07-29T09:06:35.000Z</Time>
            <Position>
              <LatitudeDegrees>41.8544995598495006561279296875</LatitudeDegrees>
              <LongitudeDegrees>-2.82792278565466403961181640625</LongitudeDegrees>
            </Position>
            <AltitudeMeters>1112.5999755859375</AltitudeMeters>
            <DistanceMeters>179679.60752067</DistanceMeters>
          </Trackpoint>
          <Trackpoint>
            <Time>2021-07-29T09:06:39.000Z</Time>
            <Position>
              <LatitudeDegrees>41.8546879850327968597412109375</LatitudeDegrees>
              <LongitudeDegrees>-2.8278222866356372833251953125</LongitudeDegrees>
            </Position>
            <AltitudeMeters>1113.4000244140625</AltitudeMeters>
            <DistanceMeters>179702.17391451</DistanceMeters>
          </Trackpoint>
          <Trackpoint>
            <Time>2021-07-29T09:06:51.000Z</Time>
            <Position>
              <LatitudeDegrees>41.855247728526592254638671875</LatitudeDegrees>
              <LongitudeDegrees>-2.8276103921234607696533203125</LongitudeDegrees>
            </Position>
            <AltitudeMeters>1114.4000244140625</AltitudeMeters>
            <DistanceMeters>179766.90364037</DistanceMeters>
          </Trackpoint>
          <Trackpoint>
            <Time>2021-07-29T09:07:05.000Z</Time>
            <Position>
              <LatitudeDegrees>41.85567210428416728973388671875</LatitudeDegrees>
              <LongitudeDegrees>-2.827093899250030517578125</LongitudeDegrees>
            </Position>
            <AltitudeMeters>1115.199951171875</AltitudeMeters>
            <DistanceMeters>179830.65629747</DistanceMeters>
          </Trackpoint>
          <Trackpoint>
            <Time>2021-07-29T09:07:08.000Z</Time>
            <Position>
              <LatitudeDegrees>41.855737231671810150146484375</LatitudeDegrees>
              <LongitudeDegrees>-2.82697780989110469818115234375</LongitudeDegrees>
            </Position>
            <AltitudeMeters>1115.800048828125</AltitudeMeters>
            <DistanceMeters>179842.70484547</DistanceMeters>
          </Trackpoint>
          <Trackpoint>
            <Time>2021-07-29T09:07:12.000Z</Time>
            <Position>
              <LatitudeDegrees>41.85582079924643039703369140625</LatitudeDegrees>
              <LongitudeDegrees>-2.826817966997623443603515625</LongitudeDegrees>
            </Position>
            <AltitudeMeters>1116.800048828125</AltitudeMeters>
            <DistanceMeters>179858.89456439</DistanceMeters>
          </Trackpoint>
          <Trackpoint>
            <Time>2021-07-29T09:07:26.000Z</Time>
            <Position>
              <LatitudeDegrees>41.856194548308849334716796875</LatitudeDegrees>
              <LongitudeDegrees>-2.82626819796860218048095703125</LongitudeDegrees>
            </Position>
            <AltitudeMeters>1117.199951171875</AltitudeMeters>
            <DistanceMeters>179920.60078898</DistanceMeters>
          </Trackpoint>
          <Trackpoint>
            <Time>2021-07-29T09:07:32.000Z</Time>
            <Position>
              <LatitudeDegrees>41.85636294074356555938720703125</LatitudeDegrees>
              <LongitudeDegrees>-2.826043479144573211669921875</LongitudeDegrees>
            </Position>
            <AltitudeMeters>1118</AltitudeMeters>
            <DistanceMeters>179947.02710148</DistanceMeters>
          </Trackpoint>
          <Trackpoint>
            <Time>2021-07-29T09:07:47.000Z</Time>
            <Position>
              <LatitudeDegrees>41.85676275752484798431396484375</LatitudeDegrees>
              <LongitudeDegrees>-2.8255095519125461578369140625</LongitudeDegrees>
            </Position>
            <AltitudeMeters>1118.4000244140625</AltitudeMeters>
            <DistanceMeters>180009.79222833</DistanceMeters>
          </Trackpoint>
          <Trackpoint>
            <Time>2021-07-29T09:07:53.000Z</Time>
            <Position>
              <LatitudeDegrees>41.8569199182093143463134765625</LatitudeDegrees>
              <LongitudeDegrees>-2.82529707066714763641357421875</LongitudeDegrees>
            </Position>
            <AltitudeMeters>1119</AltitudeMeters>
            <DistanceMeters>180034.61658204</DistanceMeters>
          </Trackpoint>
          <Trackpoint>
            <Time>2021-07-29T09:07:58.000Z</Time>
            <Position>
              <LatitudeDegrees>41.85704790987074375152587890625</LatitudeDegrees>
              <LongitudeDegrees>-2.82512046396732330322265625</LongitudeDegrees>
            </Position>
            <AltitudeMeters>1120.199951171875</AltitudeMeters>
            <DistanceMeters>180055.0442315</DistanceMeters>
          </Trackpoint>
          <Trackpoint>
            <Time>2021-07-29T09:08:11.000Z</Time>
            <Position>
              <LatitudeDegrees>41.8573457188904285430908203125</LatitudeDegrees>
              <LongitudeDegrees>-2.8245069086551666259765625</LongitudeDegrees>
            </Position>
            <AltitudeMeters>1119</AltitudeMeters>
            <DistanceMeters>180115.754627</DistanceMeters>
          </Trackpoint>
          <Trackpoint>
            <Time>2021-07-29T09:08:17.000Z</Time>
            <Position>
              <LatitudeDegrees>41.85748008079826831817626953125</LatitudeDegrees>
              <LongitudeDegrees>-2.82410734333097934722900390625</LongitudeDegrees>
            </Position>
            <AltitudeMeters>1117.800048828125</AltitudeMeters>
            <DistanceMeters>180152.09746937</DistanceMeters>
          </Trackpoint>
          <Trackpoint>
            <Time>2021-07-29T09:08:22.000Z</Time>
            <Position>
              <LatitudeDegrees>41.85760698281228542327880859375</LatitudeDegrees>
              <LongitudeDegrees>-2.82373267225921154022216796875</LongitudeDegrees>
            </Position>
            <AltitudeMeters>1116.800048828125</AltitudeMeters>
            <DistanceMeters>180186.21801502</DistanceMeters>
          </Trackpoint>
          <Trackpoint>
            <Time>2021-07-29T09:08:25.000Z</Time>
            <Position>
              <LatitudeDegrees>41.85768275521695613861083984375</LatitudeDegrees>
              <LongitudeDegrees>-2.8235052712261676788330078125</LongitudeDegrees>
            </Position>
            <AltitudeMeters>1115.5999755859375</AltitudeMeters>
            <DistanceMeters>180206.86966169</DistanceMeters>
          </Trackpoint>
          <Trackpoint>
            <Time>2021-07-29T09:08:34.000Z</Time>
            <Position>
              <LatitudeDegrees>41.857873611152172088623046875</LatitudeDegrees>
              <LongitudeDegrees>-2.82281577587127685546875</LongitudeDegrees>
            </Position>
            <AltitudeMeters>1114.800048828125</AltitudeMeters>
            <DistanceMeters>180267.8472018</DistanceMeters>
          </Trackpoint>
          <Trackpoint>
            <Time>2021-07-29T09:08:36.000Z</Time>
            <Position>
              <LatitudeDegrees>41.85790118761360645294189453125</LatitudeDegrees>
              <LongitudeDegrees>-2.8226529993116855621337890625</LongitudeDegrees>
            </Position>
            <AltitudeMeters>1114.4000244140625</AltitudeMeters>
            <DistanceMeters>180281.6859106</DistanceMeters>
          </Trackpoint>
          <Trackpoint>
            <Time>2021-07-29T09:08:45.000Z</Time>
            <Position>
              <LatitudeDegrees>41.8580088950693607330322265625</LatitudeDegrees>
              <LongitudeDegrees>-2.82193626277148723602294921875</LongitudeDegrees>
            </Position>
            <AltitudeMeters>1113.4000244140625</AltitudeMeters>
            <DistanceMeters>180342.29910092</DistanceMeters>
          </Trackpoint>
          <Trackpoint>
            <Time>2021-07-29T09:08:46.000Z</Time>
            <Position>
              <LatitudeDegrees>41.8580202944576740264892578125</LatitudeDegrees>
              <LongitudeDegrees>-2.82185914926230907440185546875</LongitudeDegrees>
            </Position>
            <AltitudeMeters>1113.199951171875</AltitudeMeters>
            <DistanceMeters>180348.81588307</DistanceMeters>
          </Trackpoint>
          <Trackpoint>
            <Time>2021-07-29T09:08:56.000Z</Time>
            <Position>
              <LatitudeDegrees>41.8581369705498218536376953125</LatitudeDegrees>
              <LongitudeDegrees>-2.8211058676242828369140625</LongitudeDegrees>
            </Position>
            <AltitudeMeters>1113</AltitudeMeters>
            <DistanceMeters>180412.59728708</DistanceMeters>
          </Trackpoint>
          <Trackpoint>
            <Time>2021-07-29T09:09:06.000Z</Time>
            <Position>
              <LatitudeDegrees>41.85825272463262081146240234375</LatitudeDegrees>
              <LongitudeDegrees>-2.8203345648944377899169921875</LongitudeDegrees>
            </Position>
            <AltitudeMeters>1112.4000244140625</AltitudeMeters>
            <DistanceMeters>180477.82154993</DistanceMeters>
          </Trackpoint>
          <Trackpoint>
            <Time>2021-07-29T09:09:08.000Z</Time>
            <Position>
              <LatitudeDegrees>41.858274936676025390625</LatitudeDegrees>
              <LongitudeDegrees>-2.82018394209444522857666015625</LongitudeDegrees>
            </Position>
            <AltitudeMeters>1112.199951171875</AltitudeMeters>
            <DistanceMeters>180490.55087402</DistanceMeters>
          </Trackpoint>
          <Trackpoint>
            <Time>2021-07-29T09:09:18.000Z</Time>
            <Position>
              <LatitudeDegrees>41.858371831476688385009765625</LatitudeDegrees>
              <LongitudeDegrees>-2.819459997117519378662109375</LongitudeDegrees>
            </Position>
            <AltitudeMeters>1111.199951171875</AltitudeMeters>
            <DistanceMeters>180551.52537823</DistanceMeters>
          </Trackpoint>
          <Trackpoint>
            <Time>2021-07-29T09:09:29.000Z</Time>
            <Position>
              <LatitudeDegrees>41.85837560333311557769775390625</LatitudeDegrees>
              <LongitudeDegrees>-2.81866648234426975250244140625</LongitudeDegrees>
            </Position>
            <AltitudeMeters>1111.4000244140625</AltitudeMeters>
            <DistanceMeters>180617.30699923</DistanceMeters>
          </Trackpoint>
          <Trackpoint>
            <Time>2021-07-29T09:09:39.000Z</Time>
            <Position>
              <LatitudeDegrees>41.85835598967969417572021484375</LatitudeDegrees>
              <LongitudeDegrees>-2.81794153153896331787109375</LongitudeDegrees>
            </Position>
            <AltitudeMeters>1111.199951171875</AltitudeMeters>
            <DistanceMeters>180677.44306956</DistanceMeters>
          </Trackpoint>
          <Trackpoint>
            <Time>2021-07-29T09:09:49.000Z</Time>
            <Position>
              <LatitudeDegrees>41.858332268893718719482421875</LatitudeDegrees>
              <LongitudeDegrees>-2.817204259335994720458984375</LongitudeDegrees>
            </Position>
            <AltitudeMeters>1110.800048828125</AltitudeMeters>
            <DistanceMeters>180738.61798845</DistanceMeters>
          </Trackpoint>
          <Trackpoint>
            <Time>2021-07-29T09:09:59.000Z</Time>
            <Position>
              <LatitudeDegrees>41.85826085507869720458984375</LatitudeDegrees>
              <LongitudeDegrees>-2.8164658136665821075439453125</LongitudeDegrees>
            </Position>
            <AltitudeMeters>1110.5999755859375</AltitudeMeters>
            <DistanceMeters>180800.34718411</DistanceMeters>
          </Trackpoint>
          <Trackpoint>
            <Time>2021-07-29T09:10:10.000Z</Time>
            <Position>
              <LatitudeDegrees>41.8581368029117584228515625</LatitudeDegrees>
              <LongitudeDegrees>-2.81570331193506717681884765625</LongitudeDegrees>
            </Position>
            <AltitudeMeters>1110.800048828125</AltitudeMeters>
            <DistanceMeters>180865.04718873</DistanceMeters>
          </Trackpoint>
          <Trackpoint>
            <Time>2021-07-29T09:10:21.000Z</Time>
            <Position>
              <LatitudeDegrees>41.85796849429607391357421875</LatitudeDegrees>
              <LongitudeDegrees>-2.81497593037784099578857421875</LongitudeDegrees>
            </Position>
            <AltitudeMeters>1111</AltitudeMeters>
            <DistanceMeters>180928.18841829</DistanceMeters>
          </Trackpoint>
          <Trackpoint>
            <Time>2021-07-29T09:10:32.000Z</Time>
            <Position>
              <LatitudeDegrees>41.8577212281525135040283203125</LatitudeDegrees>
              <LongitudeDegrees>-2.8142989240586757659912109375</LongitudeDegrees>
            </Position>
            <AltitudeMeters>1111.4000244140625</AltitudeMeters>
            <DistanceMeters>180990.69563016</DistanceMeters>
          </Trackpoint>
          <Trackpoint>
            <Time>2021-07-29T09:10:43.000Z</Time>
            <Position>
              <LatitudeDegrees>41.8574788235127925872802734375</LatitudeDegrees>
              <LongitudeDegrees>-2.8136317245662212371826171875</LongitudeDegrees>
            </Position>
            <AltitudeMeters>1111.5999755859375</AltitudeMeters>
            <DistanceMeters>181052.234948</DistanceMeters>
          </Trackpoint>
          <Trackpoint>
            <Time>2021-07-29T09:10:54.000Z</Time>
            <Position>
              <LatitudeDegrees>41.85724161565303802490234375</LatitudeDegrees>
              <LongitudeDegrees>-2.81297818757593631744384765625</LongitudeDegrees>
            </Position>
            <AltitudeMeters>1112</AltitudeMeters>
            <DistanceMeters>181112.5030149</DistanceMeters>
          </Trackpoint>
          <Trackpoint>
            <Time>2021-07-29T09:10:58.000Z</Time>
            <Position>
              <LatitudeDegrees>41.85715310275554656982421875</LatitudeDegrees>
              <LongitudeDegrees>-2.8127429075539112091064453125</LongitudeDegrees>
            </Position>
            <AltitudeMeters>1112.199951171875</AltitudeMeters>
            <DistanceMeters>181134.35420073</DistanceMeters>
          </Trackpoint>
          <Trackpoint>
            <Time>2021-07-29T09:11:09.000Z</Time>
            <Position>
              <LatitudeDegrees>41.8568317405879497528076171875</LatitudeDegrees>
              <LongitudeDegrees>-2.812141589820384979248046875</LongitudeDegrees>
            </Position>
            <AltitudeMeters>1111.800048828125</AltitudeMeters>
            <DistanceMeters>181195.70783662</DistanceMeters>
          </Trackpoint>
          <Trackpoint>
            <Time>2021-07-29T09:11:20.000Z</Time>
            <Position>
              <LatitudeDegrees>41.856411136686801910400390625</LatitudeDegrees>
              <LongitudeDegrees>-2.811650075018405914306640625</LongitudeDegrees>
            </Position>
            <AltitudeMeters>1112</AltitudeMeters>
            <DistanceMeters>181257.77083064</DistanceMeters>
          </Trackpoint>
          <Trackpoint>
            <Time>2021-07-29T09:11:31.000Z</Time>
            <Position>
              <LatitudeDegrees>41.855977959930896759033203125</LatitudeDegrees>
              <LongitudeDegrees>-2.81114615499973297119140625</LongitudeDegrees>
            </Position>
            <AltitudeMeters>1112</AltitudeMeters>
            <DistanceMeters>181321.56490468</DistanceMeters>
          </Trackpoint>
          <Trackpoint>
            <Time>2021-07-29T09:11:34.000Z</Time>
            <Position>
              <LatitudeDegrees>41.85588575899600982666015625</LatitudeDegrees>
              <LongitudeDegrees>-2.8109832108020782470703125</LongitudeDegrees>
            </Position>
            <AltitudeMeters>1111.800048828125</AltitudeMeters>
            <DistanceMeters>181338.52896982</DistanceMeters>
          </Trackpoint>
          <Trackpoint>
            <Time>2021-07-29T09:11:40.000Z</Time>
            <Position>
              <LatitudeDegrees>41.85580051504075527191162109375</LatitudeDegrees>
              <LongitudeDegrees>-2.8105964697897434234619140625</LongitudeDegrees>
            </Position>
            <AltitudeMeters>1111.199951171875</AltitudeMeters>
            <DistanceMeters>181371.96433229</DistanceMeters>
          </Trackpoint>
          <Trackpoint>
            <Time>2021-07-29T09:11:43.000Z</Time>
            <Position>
              <LatitudeDegrees>41.855804622173309326171875</LatitudeDegrees>
              <LongitudeDegrees>-2.8104003332555294036865234375</LongitudeDegrees>
            </Position>
            <AltitudeMeters>1111</AltitudeMeters>
            <DistanceMeters>181388.23056326</DistanceMeters>
          </Trackpoint>
          <Trackpoint>
            <Time>2021-07-29T09:11:53.000Z</Time>
            <Position>
              <LatitudeDegrees>41.85597360134124755859375</LatitudeDegrees>
              <LongitudeDegrees>-2.80986246652901172637939453125</LongitudeDegrees>
            </Position>
            <AltitudeMeters>1112.4000244140625</AltitudeMeters>
            <DistanceMeters>181436.62426456</DistanceMeters>
          </Trackpoint>
          <Trackpoint>
            <Time>2021-07-29T09:11:57.000Z</Time>
            <Position>
              <LatitudeDegrees>41.8560606054961681365966796875</LatitudeDegrees>
              <LongitudeDegrees>-2.8096811659634113311767578125</LongitudeDegrees>
            </Position>
            <AltitudeMeters>1113.4000244140625</AltitudeMeters>
            <DistanceMeters>181454.50393923</DistanceMeters>
          </Trackpoint>
          <Trackpoint>
            <Time>2021-07-29T09:12:07.000Z</Time>
            <Position>
              <LatitudeDegrees>41.85630074702203273773193359375</LatitudeDegrees>
              <LongitudeDegrees>-2.80925896950066089630126953125</LongitudeDegrees>
            </Position>
            <AltitudeMeters>1114.4000244140625</AltitudeMeters>
            <DistanceMeters>181498.54274721</DistanceMeters>
          </Trackpoint>
          <Trackpoint>
            <Time>2021-07-29T09:12:20.000Z</Time>
            <Position>
              <LatitudeDegrees>41.85668983496725559234619140625</LatitudeDegrees>
              <LongitudeDegrees>-2.808756642043590545654296875</LongitudeDegrees>
            </Position>
            <AltitudeMeters>1114.800048828125</AltitudeMeters>
            <DistanceMeters>181558.62240572</DistanceMeters>
          </Trackpoint>
          <Trackpoint>
            <Time>2021-07-29T09:12:32.000Z</Time>
            <Position>
              <LatitudeDegrees>41.85710457153618335723876953125</LatitudeDegrees>
              <LongitudeDegrees>-2.80826185829937458038330078125</LongitudeDegrees>
            </Position>
            <AltitudeMeters>1114.4000244140625</AltitudeMeters>
            <DistanceMeters>181620.37397899</DistanceMeters>
          </Trackpoint>
          <Trackpoint>
            <Time>2021-07-29T09:12:39.000Z</Time>
            <Position>
              <LatitudeDegrees>41.857285201549530029296875</LatitudeDegrees>
              <LongitudeDegrees>-2.80784443952143192291259765625</LongitudeDegrees>
            </Position>
            <AltitudeMeters>1113.4000244140625</AltitudeMeters>
            <DistanceMeters>181660.39399209</DistanceMeters>
          </Trackpoint>
          <Trackpoint>
            <Time>2021-07-29T09:12:46.000Z</Time>
            <Position>
              <LatitudeDegrees>41.85736457817256450653076171875</LatitudeDegrees>
              <LongitudeDegrees>-2.80733867548406124114990234375</LongitudeDegrees>
            </Position>
            <AltitudeMeters>1112.4000244140625</AltitudeMeters>
            <DistanceMeters>181703.24197911</DistanceMeters>
          </Trackpoint>
          <Trackpoint>
            <Time>2021-07-29T09:12:57.000Z</Time>
            <Position>
              <LatitudeDegrees>41.857349239289760589599609375</LatitudeDegrees>
              <LongitudeDegrees>-2.80655295588076114654541015625</LongitudeDegrees>
            </Position>
            <AltitudeMeters>1113.199951171875</AltitudeMeters>
            <DistanceMeters>181768.39947653</DistanceMeters>
          </Trackpoint>
          <Trackpoint>
            <Time>2021-07-29T09:13:08.000Z</Time>
            <Position>
              <LatitudeDegrees>41.857312358915805816650390625</LatitudeDegrees>
              <LongitudeDegrees>-2.80578349716961383819580078125</LongitudeDegrees>
            </Position>
            <AltitudeMeters>1113</AltitudeMeters>
            <DistanceMeters>181832.31855864</DistanceMeters>
          </Trackpoint>
          <Trackpoint>
            <Time>2021-07-29T09:13:19.000Z</Time>
            <Position>
              <LatitudeDegrees>41.85727648437023162841796875</LatitudeDegrees>
              <LongitudeDegrees>-2.80502610839903354644775390625</LongitudeDegrees>
            </Position>
            <AltitudeMeters>1112.800048828125</AltitudeMeters>
            <DistanceMeters>181895.23198509</DistanceMeters>
          </Trackpoint>
          <Trackpoint>
            <Time>2021-07-29T09:13:30.000Z</Time>
            <Position>
              <LatitudeDegrees>41.85723750852048397064208984375</LatitudeDegrees>
              <LongitudeDegrees>-2.80427156947553157806396484375</LongitudeDegrees>
            </Position>
            <AltitudeMeters>1112.5999755859375</AltitudeMeters>
            <DistanceMeters>181957.93262464</DistanceMeters>
          </Trackpoint>
          <Trackpoint>
            <Time>2021-07-29T09:13:41.000Z</Time>
            <Position>
              <LatitudeDegrees>41.857124604284763336181640625</LatitudeDegrees>
              <LongitudeDegrees>-2.8035204671323299407958984375</LongitudeDegrees>
            </Position>
            <AltitudeMeters>1112.800048828125</AltitudeMeters>
            <DistanceMeters>182021.45362973</DistanceMeters>
          </Trackpoint>
          <Trackpoint>
            <Time>2021-07-29T09:13:51.000Z</Time>
            <Position>
              <LatitudeDegrees>41.85697138309478759765625</LatitudeDegrees>
              <LongitudeDegrees>-2.802826277911663055419921875</LongitudeDegrees>
            </Position>
            <AltitudeMeters>1111.800048828125</AltitudeMeters>
            <DistanceMeters>182081.47501807</DistanceMeters>
          </Trackpoint>
          <Trackpoint>
            <Time>2021-07-29T09:13:55.000Z</Time>
            <Position>
              <LatitudeDegrees>41.8569222651422023773193359375</LatitudeDegrees>
              <LongitudeDegrees>-2.8025369346141815185546875</LongitudeDegrees>
            </Position>
            <AltitudeMeters>1111.199951171875</AltitudeMeters>
            <DistanceMeters>182106.07647826</DistanceMeters>
          </Trackpoint>
          <Trackpoint>
            <Time>2021-07-29T09:14:05.000Z</Time>
            <Position>
              <LatitudeDegrees>41.8569968640804290771484375</LatitudeDegrees>
              <LongitudeDegrees>-2.80182489193975925445556640625</LongitudeDegrees>
            </Position>
            <AltitudeMeters>1111.4000244140625</AltitudeMeters>
            <DistanceMeters>182165.68535083</DistanceMeters>
          </Trackpoint>
          <Trackpoint>
            <Time>2021-07-29T09:14:12.000Z</Time>
            <Position>
              <LatitudeDegrees>41.8572059087455272674560546875</LatitudeDegrees>
              <LongitudeDegrees>-2.80145357362926006317138671875</LongitudeDegrees>
            </Position>
            <AltitudeMeters>1112.4000244140625</AltitudeMeters>
            <DistanceMeters>182204.27146277</DistanceMeters>
          </Trackpoint>
          <Trackpoint>
            <Time>2021-07-29T09:14:23.000Z</Time>
            <Position>
              <LatitudeDegrees>41.85760128311812877655029296875</LatitudeDegrees>
              <LongitudeDegrees>-2.80105878598988056182861328125</LongitudeDegrees>
            </Position>
            <AltitudeMeters>1111.4000244140625</AltitudeMeters>
            <DistanceMeters>182259.1130748</DistanceMeters>
          </Trackpoint>
          <Trackpoint>
            <Time>2021-07-29T09:14:32.000Z</Time>
            <Position>
              <LatitudeDegrees>41.85792130418121814727783203125</LatitudeDegrees>
              <LongitudeDegrees>-2.80078100971877574920654296875</LongitudeDegrees>
            </Position>
            <AltitudeMeters>1112.5999755859375</AltitudeMeters>
            <DistanceMeters>182301.52714993</DistanceMeters>
          </Trackpoint>
          <Trackpoint>
            <Time>2021-07-29T09:14:38.000Z</Time>
            <Position>
              <LatitudeDegrees>41.85813856311142444610595703125</LatitudeDegrees>
              <LongitudeDegrees>-2.8005904890596866607666015625</LongitudeDegrees>
            </Position>
            <AltitudeMeters>1113.800048828125</AltitudeMeters>
            <DistanceMeters>182330.40901867</DistanceMeters>
          </Trackpoint>
          <Trackpoint>
            <Time>2021-07-29T09:14:51.000Z</Time>
            <Position>
              <LatitudeDegrees>41.85853586532175540924072265625</LatitudeDegrees>
              <LongitudeDegrees>-2.80004843138158321380615234375</LongitudeDegrees>
            </Position>
            <AltitudeMeters>1114.5999755859375</AltitudeMeters>
            <DistanceMeters>182393.45363991</DistanceMeters>
          </Trackpoint>
          <Trackpoint>
            <Time>2021-07-29T09:15:03.000Z</Time>
            <Position>
              <LatitudeDegrees>41.8586667068302631378173828125</LatitudeDegrees>
              <LongitudeDegrees>-2.7993439324200153350830078125</LongitudeDegrees>
            </Position>
            <AltitudeMeters>1114.4000244140625</AltitudeMeters>
            <DistanceMeters>182453.64284366</DistanceMeters>
          </Trackpoint>
          <Trackpoint>
            <Time>2021-07-29T09:15:12.000Z</Time>
            <Position>
              <LatitudeDegrees>41.85870920307934284210205078125</LatitudeDegrees>
              <LongitudeDegrees>-2.79871738515794277191162109375</LongitudeDegrees>
            </Position>
            <AltitudeMeters>1113</AltitudeMeters>
            <DistanceMeters>182505.79666966</DistanceMeters>
          </Trackpoint>
          <Trackpoint>
            <Time>2021-07-29T09:15:23.000Z</Time>
            <Position>
              <LatitudeDegrees>41.85883618891239166259765625</LatitudeDegrees>
              <LongitudeDegrees>-2.797956727445125579833984375</LongitudeDegrees>
            </Position>
            <AltitudeMeters>1113.800048828125</AltitudeMeters>
            <DistanceMeters>182570.41742066</DistanceMeters>
          </Trackpoint>
          <Trackpoint>
            <Time>2021-07-29T09:15:36.000Z</Time>
            <Position>
              <LatitudeDegrees>41.859069876372814178466796875</LatitudeDegrees>
              <LongitudeDegrees>-2.7972776256501674652099609375</LongitudeDegrees>
            </Position>
            <AltitudeMeters>1113.5999755859375</AltitudeMeters>
            <DistanceMeters>182632.43085264</DistanceMeters>
          </Trackpoint>
          <Trackpoint>
            <Time>2021-07-29T09:15:37.000Z</Time>
            <Position>
              <LatitudeDegrees>41.85908840037882328033447265625</LatitudeDegrees>
              <LongitudeDegrees>-2.7972259931266307830810546875</LongitudeDegrees>
            </Position>
            <AltitudeMeters>1114</AltitudeMeters>
            <DistanceMeters>182637.181238</DistanceMeters>
          </Trackpoint>
          <Trackpoint>
            <Time>2021-07-29T09:15:43.000Z</Time>
            <Position>
              <LatitudeDegrees>41.85918747447431087493896484375</LatitudeDegrees>
              <LongitudeDegrees>-2.7968695946037769317626953125</LongitudeDegrees>
            </Position>
            <AltitudeMeters>1114.4000244140625</AltitudeMeters>
            <DistanceMeters>182668.71607902</DistanceMeters>
          </Trackpoint>
          <Trackpoint>
            <Time>2021-07-29T09:15:47.000Z</Time>
            <Position>
              <LatitudeDegrees>41.85918998904526233673095703125</LatitudeDegrees>
              <LongitudeDegrees>-2.796591818332672119140625</LongitudeDegrees>
            </Position>
            <AltitudeMeters>1113.4000244140625</AltitudeMeters>
            <DistanceMeters>182691.74432839</DistanceMeters>
          </Trackpoint>
          <Trackpoint>
            <Time>2021-07-29T09:15:50.000Z</Time>
            <Position>
              <LatitudeDegrees>41.85916735790669918060302734375</LatitudeDegrees>
              <LongitudeDegrees>-2.7963821031153202056884765625</LongitudeDegrees>
            </Position>
            <AltitudeMeters>1112.800048828125</AltitudeMeters>
            <DistanceMeters>182709.31065334</DistanceMeters>
          </Trackpoint>
          <Trackpoint>
            <Time>2021-07-29T09:15:55.000Z</Time>
            <Position>
              <LatitudeDegrees>41.859109103679656982421875</LatitudeDegrees>
              <LongitudeDegrees>-2.7960324101150035858154296875</LongitudeDegrees>
            </Position>
            <AltitudeMeters>1111.800048828125</AltitudeMeters>
            <DistanceMeters>182739.01528076</DistanceMeters>
          </Trackpoint>
          <Trackpoint>
            <Time>2021-07-29T09:16:06.000Z</Time>
            <Position>
              <LatitudeDegrees>41.8590080179274082183837890625</LatitudeDegrees>
              <LongitudeDegrees>-2.79526337049901485443115234375</LongitudeDegrees>
            </Position>
            <AltitudeMeters>1112.4000244140625</AltitudeMeters>
            <DistanceMeters>182803.75114451</DistanceMeters>
          </Trackpoint>
          <Trackpoint>
            <Time>2021-07-29T09:16:13.000Z</Time>
            <Position>
              <LatitudeDegrees>41.8590603210031986236572265625</LatitudeDegrees>
              <LongitudeDegrees>-2.794790379703044891357421875</LongitudeDegrees>
            </Position>
            <AltitudeMeters>1112.800048828125</AltitudeMeters>
            <DistanceMeters>182843.39015764</DistanceMeters>
          </Trackpoint>
          <Trackpoint>
            <Time>2021-07-29T09:16:21.000Z</Time>
            <Position>
              <LatitudeDegrees>41.8592722155153751373291015625</LatitudeDegrees>
              <LongitudeDegrees>-2.7943427860736846923828125</LongitudeDegrees>
            </Position>
            <AltitudeMeters>1114</AltitudeMeters>
            <DistanceMeters>182887.35518901</DistanceMeters>
          </Trackpoint>
          <Trackpoint>
            <Time>2021-07-29T09:16:34.000Z</Time>
            <Position>
              <LatitudeDegrees>41.859606318175792694091796875</LatitudeDegrees>
              <LongitudeDegrees>-2.79372143559157848358154296875</LongitudeDegrees>
            </Position>
            <AltitudeMeters>1115.4000244140625</AltitudeMeters>
            <DistanceMeters>182950.88337271</DistanceMeters>
          </Trackpoint>
          <Trackpoint>
            <Time>2021-07-29T09:16:48.000Z</Time>
            <Position>
              <LatitudeDegrees>41.8599055521190166473388671875</LatitudeDegrees>
              <LongitudeDegrees>-2.79306530021131038665771484375</LongitudeDegrees>
            </Position>
            <AltitudeMeters>1116.199951171875</AltitudeMeters>
            <DistanceMeters>183014.66109558</DistanceMeters>
          </Trackpoint>
          <Trackpoint>
            <Time>2021-07-29T09:16:53.000Z</Time>
            <Position>
              <LatitudeDegrees>41.86000873334705829620361328125</LatitudeDegrees>
              <LongitudeDegrees>-2.79279523529112339019775390625</LongitudeDegrees>
            </Position>
            <AltitudeMeters>1116</AltitudeMeters>
            <DistanceMeters>183039.82182966</DistanceMeters>
          </Trackpoint>
          <Trackpoint>
            <Time>2021-07-29T09:17:00.000Z</Time>
            <Position>
              <LatitudeDegrees>41.85993916355073451995849609375</LatitudeDegrees>
              <LongitudeDegrees>-2.7923668362200260162353515625</LongitudeDegrees>
            </Position>
            <AltitudeMeters>1115.5999755859375</AltitudeMeters>
            <DistanceMeters>183076.16839887</DistanceMeters>
          </Trackpoint>
          <Trackpoint>
            <Time>2021-07-29T09:17:11.000Z</Time>
            <Position>
              <LatitudeDegrees>41.859608329832553863525390625</LatitudeDegrees>
              <LongitudeDegrees>-2.7917599864304065704345703125</LongitudeDegrees>
            </Position>
            <AltitudeMeters>1114.4000244140625</AltitudeMeters>
            <DistanceMeters>183138.51019665</DistanceMeters>
          </Trackpoint>
          <Trackpoint>
            <Time>2021-07-29T09:17:14.000Z</Time>
            <Position>
              <LatitudeDegrees>41.8595176376402378082275390625</LatitudeDegrees>
              <LongitudeDegrees>-2.791592516005039215087890625</LongitudeDegrees>
            </Position>
            <AltitudeMeters>1114.199951171875</AltitudeMeters>
            <DistanceMeters>183155.67455723</DistanceMeters>
          </Trackpoint>
          <Trackpoint>
            <Time>2021-07-29T09:17:25.000Z</Time>
            <Position>
              <LatitudeDegrees>41.85914774425327777862548828125</LatitudeDegrees>
              <LongitudeDegrees>-2.791066132485866546630859375</LongitudeDegrees>
            </Position>
            <AltitudeMeters>1115</AltitudeMeters>
            <DistanceMeters>183215.66599901</DistanceMeters>
          </Trackpoint>
          <Trackpoint>
            <Time>2021-07-29T09:17:26.000Z</Time>
            <Position>
              <LatitudeDegrees>41.85911304317414760589599609375</LatitudeDegrees>
              <LongitudeDegrees>-2.79102514497935771942138671875</LongitudeDegrees>
            </Position>
            <AltitudeMeters>1115.4000244140625</AltitudeMeters>
            <DistanceMeters>183220.80974512</DistanceMeters>
          </Trackpoint>
          <Trackpoint>
            <Time>2021-07-29T09:17:31.000Z</Time>
            <Position>
              <LatitudeDegrees>41.8589480035006999969482421875</LatitudeDegrees>
              <LongitudeDegrees>-2.79082565568387508392333984375</LongitudeDegrees>
            </Position>
            <AltitudeMeters>1116.4000244140625</AltitudeMeters>
            <DistanceMeters>183245.5261917</DistanceMeters>
          </Trackpoint>
          <Trackpoint>
            <Time>2021-07-29T09:17:44.000Z</Time>
            <Position>
              <LatitudeDegrees>41.85856654308736324310302734375</LatitudeDegrees>
              <LongitudeDegrees>-2.79035442508757114410400390625</LongitudeDegrees>
            </Position>
            <AltitudeMeters>1117.5999755859375</AltitudeMeters>
            <DistanceMeters>183303.22000834</DistanceMeters>
          </Trackpoint>
          <Trackpoint>
            <Time>2021-07-29T09:17:46.000Z</Time>
            <Position>
              <LatitudeDegrees>41.85855078510940074920654296875</LatitudeDegrees>
              <LongitudeDegrees>-2.7902623079717159271240234375</LongitudeDegrees>
            </Position>
            <AltitudeMeters>1118</AltitudeMeters>
            <DistanceMeters>183311.05380687</DistanceMeters>
          </Trackpoint>
          <Trackpoint>
            <Time>2021-07-29T09:17:59.000Z</Time>
            <Position>
              <LatitudeDegrees>41.85888723470270633697509765625</LatitudeDegrees>
              <LongitudeDegrees>-2.78968219645321369171142578125</LongitudeDegrees>
            </Position>
            <AltitudeMeters>1117</AltitudeMeters>
            <DistanceMeters>183372.00379628</DistanceMeters>
          </Trackpoint>
          <Trackpoint>
            <Time>2021-07-29T09:18:11.000Z</Time>
            <Position>
              <LatitudeDegrees>41.85930247418582439422607421875</LatitudeDegrees>
              <LongitudeDegrees>-2.789212055504322052001953125</LongitudeDegrees>
            </Position>
            <AltitudeMeters>1117.800048828125</AltitudeMeters>
            <DistanceMeters>183432.45960973</DistanceMeters>
          </Trackpoint>
          <Trackpoint>
            <Time>2021-07-29T09:18:23.000Z</Time>
            <Position>
              <LatitudeDegrees>41.85977957211434841156005859375</LatitudeDegrees>
              <LongitudeDegrees>-2.78887183405458927154541015625</LongitudeDegrees>
            </Position>
            <AltitudeMeters>1118.4000244140625</AltitudeMeters>
            <DistanceMeters>183492.58636937</DistanceMeters>
          </Trackpoint>
          <Trackpoint>
            <Time>2021-07-29T09:18:24.000Z</Time>
            <Position>
              <LatitudeDegrees>41.859820224344730377197265625</LatitudeDegrees>
              <LongitudeDegrees>-2.7888471074402332305908203125</LongitudeDegrees>
            </Position>
            <AltitudeMeters>1118.5999755859375</AltitudeMeters>
            <DistanceMeters>183497.55327674</DistanceMeters>
          </Trackpoint>
          <Trackpoint>
            <Time>2021-07-29T09:18:30.000Z</Time>
            <Position>
              <LatitudeDegrees>41.8600715138018131256103515625</LatitudeDegrees>
              <LongitudeDegrees>-2.78871484100818634033203125</LongitudeDegrees>
            </Position>
            <AltitudeMeters>1119.5999755859375</AltitudeMeters>
            <DistanceMeters>183527.59464655</DistanceMeters>
          </Trackpoint>
          <Trackpoint>
            <Time>2021-07-29T09:18:39.000Z</Time>
            <Position>
              <LatitudeDegrees>41.8604560755193233489990234375</LatitudeDegrees>
              <LongitudeDegrees>-2.78853513300418853759765625</LongitudeDegrees>
            </Position>
            <AltitudeMeters>1118.5999755859375</AltitudeMeters>
            <DistanceMeters>183572.91541616</DistanceMeters>
          </Trackpoint>
          <Trackpoint>
            <Time>2021-07-29T09:18:49.000Z</Time>
            <Position>
              <LatitudeDegrees>41.86090358532965183258056640625</LatitudeDegrees>
              <LongitudeDegrees>-2.7883203886449337005615234375</LongitudeDegrees>
            </Position>
            <AltitudeMeters>1117.4000244140625</AltitudeMeters>
            <DistanceMeters>183625.80954234</DistanceMeters>
          </Trackpoint>
          <Trackpoint>
            <Time>2021-07-29T09:18:52.000Z</Time>
            <Position>
              <LatitudeDegrees>41.8610532023012638092041015625</LatitudeDegrees>
              <LongitudeDegrees>-2.78825291432440280914306640625</LongitudeDegrees>
            </Position>
            <AltitudeMeters>1116.4000244140625</AltitudeMeters>
            <DistanceMeters>183643.37689538</DistanceMeters>
          </Trackpoint>
          <Trackpoint>
            <Time>2021-07-29T09:18:56.000Z</Time>
            <Position>
              <LatitudeDegrees>41.86128227971494197845458984375</LatitudeDegrees>
              <LongitudeDegrees>-2.78813322074711322784423828125</LongitudeDegrees>
            </Position>
            <AltitudeMeters>1114.800048828125</AltitudeMeters>
            <DistanceMeters>183670.73633902</DistanceMeters>
          </Trackpoint>
          <Trackpoint>
            <Time>2021-07-29T09:18:58.000Z</Time>
            <Position>
              <LatitudeDegrees>41.8614119477570056915283203125</LatitudeDegrees>
              <LongitudeDegrees>-2.78806432150304317474365234375</LongitudeDegrees>
            </Position>
            <AltitudeMeters>1113.5999755859375</AltitudeMeters>
            <DistanceMeters>183686.25743368</DistanceMeters>
          </Trackpoint>
          <Trackpoint>
            <Time>2021-07-29T09:19:01.000Z</Time>
            <Position>
              <LatitudeDegrees>41.8616211600601673126220703125</LatitudeDegrees>
              <LongitudeDegrees>-2.7879603020846843719482421875</LongitudeDegrees>
            </Position>
            <AltitudeMeters>1112.4000244140625</AltitudeMeters>
            <DistanceMeters>183711.08815235</DistanceMeters>
          </Trackpoint>
          <Trackpoint>
            <Time>2021-07-29T09:19:04.000Z</Time>
            <Position>
              <LatitudeDegrees>41.86184118501842021942138671875</LatitudeDegrees>
              <LongitudeDegrees>-2.78785108588635921478271484375</LongitudeDegrees>
            </Position>
            <AltitudeMeters>1111.199951171875</AltitudeMeters>
            <DistanceMeters>183737.19716364</DistanceMeters>
          </Trackpoint>
          <Trackpoint>
            <Time>2021-07-29T09:19:06.000Z</Time>
            <Position>
              <LatitudeDegrees>41.86199055053293704986572265625</LatitudeDegrees>
              <LongitudeDegrees>-2.7877748943865299224853515625</LongitudeDegrees>
            </Position>
            <AltitudeMeters>1110</AltitudeMeters>
            <DistanceMeters>183754.98062048</DistanceMeters>
          </Trackpoint>
          <Trackpoint>
            <Time>2021-07-29T09:19:14.000Z</Time>
            <Position>
              <LatitudeDegrees>41.8625341169536113739013671875</LatitudeDegrees>
              <LongitudeDegrees>-2.7875150553882122039794921875</LongitudeDegrees>
            </Position>
            <AltitudeMeters>1111</AltitudeMeters>
            <DistanceMeters>183819.20026182</DistanceMeters>
          </Trackpoint>
          <Trackpoint>
            <Time>2021-07-29T09:19:15.000Z</Time>
            <Position>
              <LatitudeDegrees>41.862593628466129302978515625</LatitudeDegrees>
              <LongitudeDegrees>-2.78749133460223674774169921875</LongitudeDegrees>
            </Position>
            <AltitudeMeters>1111.199951171875</AltitudeMeters>
            <DistanceMeters>183826.10916796</DistanceMeters>
          </Trackpoint>
          <Trackpoint>
            <Time>2021-07-29T09:19:25.000Z</Time>
            <Position>
              <LatitudeDegrees>41.86316929757595062255859375</LatitudeDegrees>
              <LongitudeDegrees>-2.787373065948486328125</LongitudeDegrees>
            </Position>
            <AltitudeMeters>1111.199951171875</AltitudeMeters>
            <DistanceMeters>183890.92783647</DistanceMeters>
          </Trackpoint>
          <Trackpoint>
            <Time>2021-07-29T09:19:36.000Z</Time>
            <Position>
              <LatitudeDegrees>41.8637447990477085113525390625</LatitudeDegrees>
              <LongitudeDegrees>-2.78734398074448108673095703125</LongitudeDegrees>
            </Position>
            <AltitudeMeters>1111.5999755859375</AltitudeMeters>
            <DistanceMeters>183955.02770498</DistanceMeters>
          </Trackpoint>
          <Trackpoint>
            <Time>2021-07-29T09:19:47.000Z</Time>
            <Position>
              <LatitudeDegrees>41.86429850757122039794921875</LatitudeDegrees>
              <LongitudeDegrees>-2.787308357656002044677734375</LongitudeDegrees>
            </Position>
            <AltitudeMeters>1111.5999755859375</AltitudeMeters>
            <DistanceMeters>184016.72734393</DistanceMeters>
          </Trackpoint>
          <Trackpoint>
            <Time>2021-07-29T09:19:59.000Z</Time>
            <Position>
              <LatitudeDegrees>41.864875517785549163818359375</LatitudeDegrees>
              <LongitudeDegrees>-2.78723367489874362945556640625</LongitudeDegrees>
            </Position>
            <AltitudeMeters>1112</AltitudeMeters>
            <DistanceMeters>184081.24733401</DistanceMeters>
          </Trackpoint>
          <Trackpoint>
            <Time>2021-07-29T09:20:01.000Z</Time>
            <Position>
              <LatitudeDegrees>41.86496436595916748046875</LatitudeDegrees>
              <LongitudeDegrees>-2.78720215894281864166259765625</LongitudeDegrees>
            </Position>
            <AltitudeMeters>1112.199951171875</AltitudeMeters>
            <DistanceMeters>184091.4758464</DistanceMeters>
          </Trackpoint>
          <Trackpoint>
            <Time>2021-07-29T09:20:13.000Z</Time>
            <Position>
              <LatitudeDegrees>41.865423023700714111328125</LatitudeDegrees>
              <LongitudeDegrees>-2.7867982350289821624755859375</LongitudeDegrees>
            </Position>
            <AltitudeMeters>1112.800048828125</AltitudeMeters>
            <DistanceMeters>184152.52509325</DistanceMeters>
          </Trackpoint>
          <Trackpoint>
            <Time>2021-07-29T09:20:19.000Z</Time>
            <Position>
              <LatitudeDegrees>41.86559133231639862060546875</LatitudeDegrees>
              <LongitudeDegrees>-2.78649221174418926239013671875</LongitudeDegrees>
            </Position>
            <AltitudeMeters>1113.199951171875</AltitudeMeters>
            <DistanceMeters>184184.0583593</DistanceMeters>
          </Trackpoint>
          <Trackpoint>
            <Time>2021-07-29T09:20:31.000Z</Time>
            <Position>
              <LatitudeDegrees>41.86582510359585285186767578125</LatitudeDegrees>
              <LongitudeDegrees>-2.7857843600213527679443359375</LongitudeDegrees>
            </Position>
            <AltitudeMeters>1113.4000244140625</AltitudeMeters>
            <DistanceMeters>184248.24129031</DistanceMeters>
          </Trackpoint>
          <Trackpoint>
            <Time>2021-07-29T09:20:43.000Z</Time>
            <Position>
              <LatitudeDegrees>41.86604554764926433563232421875</LatitudeDegrees>
              <LongitudeDegrees>-2.785065360367298126220703125</LongitudeDegrees>
            </Position>
            <AltitudeMeters>1113</AltitudeMeters>
            <DistanceMeters>184312.69056295</DistanceMeters>
          </Trackpoint>
          <Trackpoint>
            <Time>2021-07-29T09:20:51.000Z</Time>
            <Position>
              <LatitudeDegrees>41.86619441024959087371826171875</LatitudeDegrees>
              <LongitudeDegrees>-2.7846058644354343414306640625</LongitudeDegrees>
            </Position>
            <AltitudeMeters>1114.4000244140625</AltitudeMeters>
            <DistanceMeters>184354.22473856</DistanceMeters>
          </Trackpoint>
          <Trackpoint>
            <Time>2021-07-29T09:20:57.000Z</Time>
            <Position>
              <LatitudeDegrees>41.86632382683455944061279296875</LatitudeDegrees>
              <LongitudeDegrees>-2.784338481724262237548828125</LongitudeDegrees>
            </Position>
            <AltitudeMeters>1115.4000244140625</AltitudeMeters>
            <DistanceMeters>184380.65703026</DistanceMeters>
          </Trackpoint>
          <Trackpoint>
            <Time>2021-07-29T09:21:01.000Z</Time>
            <Position>
              <LatitudeDegrees>41.86641653068363666534423828125</LatitudeDegrees>
              <LongitudeDegrees>-2.78418199159204959869384765625</LongitudeDegrees>
            </Position>
            <AltitudeMeters>1116.5999755859375</AltitudeMeters>
            <DistanceMeters>184397.23149814</DistanceMeters>
          </Trackpoint>
          <Trackpoint>
            <Time>2021-07-29T09:21:07.000Z</Time>
            <Position>
              <LatitudeDegrees>41.86658400110900402069091796875</LatitudeDegrees>
              <LongitudeDegrees>-2.7839849330484867095947265625</LongitudeDegrees>
            </Position>
            <AltitudeMeters>1117.800048828125</AltitudeMeters>
            <DistanceMeters>184422.01507738</DistanceMeters>
          </Trackpoint>
          <Trackpoint>
            <Time>2021-07-29T09:21:16.000Z</Time>
            <Position>
              <LatitudeDegrees>41.86684928834438323974609375</LatitudeDegrees>
              <LongitudeDegrees>-2.78373205102980136871337890625</LongitudeDegrees>
            </Position>
            <AltitudeMeters>1118.800048828125</AltitudeMeters>
            <DistanceMeters>184458.22536818</DistanceMeters>
          </Trackpoint>
          <Trackpoint>
            <Time>2021-07-29T09:21:24.000Z</Time>
            <Position>
              <LatitudeDegrees>41.86714793555438518524169921875</LatitudeDegrees>
              <LongitudeDegrees>-2.783486880362033843994140625</LongitudeDegrees>
            </Position>
            <AltitudeMeters>1117.5999755859375</AltitudeMeters>
            <DistanceMeters>184497.18493041</DistanceMeters>
          </Trackpoint>
          <Trackpoint>
            <Time>2021-07-29T09:21:28.000Z</Time>
            <Position>
              <LatitudeDegrees>41.86733074486255645751953125</LatitudeDegrees>
              <LongitudeDegrees>-2.7833412028849124908447265625</LongitudeDegrees>
            </Position>
            <AltitudeMeters>1116.4000244140625</AltitudeMeters>
            <DistanceMeters>184520.84524653</DistanceMeters>
          </Trackpoint>
          <Trackpoint>
            <Time>2021-07-29T09:21:35.000Z</Time>
            <Position>
              <LatitudeDegrees>41.86766325496137142181396484375</LatitudeDegrees>
              <LongitudeDegrees>-2.7830300666391849517822265625</LongitudeDegrees>
            </Position>
            <AltitudeMeters>1115.199951171875</AltitudeMeters>
            <DistanceMeters>184565.95321772</DistanceMeters>
          </Trackpoint>
          <Trackpoint>
            <Time>2021-07-29T09:21:45.000Z</Time>
            <Position>
              <LatitudeDegrees>41.86807262711226940155029296875</LatitudeDegrees>
              <LongitudeDegrees>-2.782454900443553924560546875</LongitudeDegrees>
            </Position>
            <AltitudeMeters>1114.5999755859375</AltitudeMeters>
            <DistanceMeters>184631.89833425</DistanceMeters>
          </Trackpoint>
          <Trackpoint>
            <Time>2021-07-29T09:21:53.000Z</Time>
            <Position>
              <LatitudeDegrees>41.86837722547352313995361328125</LatitudeDegrees>
              <LongitudeDegrees>-2.7820560894906520843505859375</LongitudeDegrees>
            </Position>
            <AltitudeMeters>1114.199951171875</AltitudeMeters>
            <DistanceMeters>184679.24834481</DistanceMeters>
          </Trackpoint>
          <Trackpoint>
            <Time>2021-07-29T09:22:04.000Z</Time>
            <Position>
              <LatitudeDegrees>41.86885893344879150390625</LatitudeDegrees>
              <LongitudeDegrees>-2.78168217279016971588134765625</LongitudeDegrees>
            </Position>
            <AltitudeMeters>1114</AltitudeMeters>
            <DistanceMeters>184741.17616898</DistanceMeters>
          </Trackpoint>
          <Trackpoint>
            <Time>2021-07-29T09:22:14.000Z</Time>
            <Position>
              <LatitudeDegrees>41.86932840384542942047119140625</LatitudeDegrees>
              <LongitudeDegrees>-2.78143188916146755218505859375</LongitudeDegrees>
            </Position>
            <AltitudeMeters>1113.199951171875</AltitudeMeters>
            <DistanceMeters>184797.39633757</DistanceMeters>
          </Trackpoint>
          <Trackpoint>
            <Time>2021-07-29T09:22:22.000Z</Time>
            <Position>
              <LatitudeDegrees>41.86969771049916744232177734375</LatitudeDegrees>
              <LongitudeDegrees>-2.78116417117416858673095703125</LongitudeDegrees>
            </Position>
            <AltitudeMeters>1112</AltitudeMeters>
            <DistanceMeters>184844.10774337</DistanceMeters>
          </Trackpoint>
          <Trackpoint>
            <Time>2021-07-29T09:22:30.000Z</Time>
            <Position>
              <LatitudeDegrees>41.8699990399181842803955078125</LatitudeDegrees>
              <LongitudeDegrees>-2.78076636604964733123779296875</LongitudeDegrees>
            </Position>
            <AltitudeMeters>1111</AltitudeMeters>
            <DistanceMeters>184891.13886344</DistanceMeters>
          </Trackpoint>
          <Trackpoint>
            <Time>2021-07-29T09:22:41.000Z</Time>
            <Position>
              <LatitudeDegrees>41.8703292869031429290771484375</LatitudeDegrees>
              <LongitudeDegrees>-2.78011475689709186553955078125</LongitudeDegrees>
            </Position>
            <AltitudeMeters>1110.800048828125</AltitudeMeters>
            <DistanceMeters>184956.46736249</DistanceMeters>
          </Trackpoint>
          <Trackpoint>
            <Time>2021-07-29T09:22:52.000Z</Time>
            <Position>
              <LatitudeDegrees>41.87070873565971851348876953125</LatitudeDegrees>
              <LongitudeDegrees>-2.7795294485986232757568359375</LongitudeDegrees>
            </Position>
            <AltitudeMeters>1110.4000244140625</AltitudeMeters>
            <DistanceMeters>185020.78690153</DistanceMeters>
          </Trackpoint>
          <Trackpoint>
            <Time>2021-07-29T09:23:03.000Z</Time>
            <Position>
              <LatitudeDegrees>41.87119421549141407012939453125</LatitudeDegrees>
              <LongitudeDegrees>-2.77919257991015911102294921875</LongitudeDegrees>
            </Position>
            <AltitudeMeters>1111.5999755859375</AltitudeMeters>
            <DistanceMeters>185081.60874988</DistanceMeters>
          </Trackpoint>
          <Trackpoint>
            <Time>2021-07-29T09:23:15.000Z</Time>
            <Position>
              <LatitudeDegrees>41.87173937447369098663330078125</LatitudeDegrees>
              <LongitudeDegrees>-2.77911429293453693389892578125</LongitudeDegrees>
            </Position>
            <AltitudeMeters>1112</AltitudeMeters>
            <DistanceMeters>185142.63188421</DistanceMeters>
          </Trackpoint>
          <Trackpoint>
            <Time>2021-07-29T09:23:17.000Z</Time>
            <Position>
              <LatitudeDegrees>41.8718259595334529876708984375</LatitudeDegrees>
              <LongitudeDegrees>-2.77911630459129810333251953125</LongitudeDegrees>
            </Position>
            <AltitudeMeters>1112.4000244140625</AltitudeMeters>
            <DistanceMeters>185152.27042282</DistanceMeters>
          </Trackpoint>
          <Trackpoint>
            <Time>2021-07-29T09:23:29.000Z</Time>
            <Position>
              <LatitudeDegrees>41.87238109298050403594970703125</LatitudeDegrees>
              <LongitudeDegrees>-2.7791346609592437744140625</LongitudeDegrees>
            </Position>
            <AltitudeMeters>1112.5999755859375</AltitudeMeters>
            <DistanceMeters>185214.07666278</DistanceMeters>
          </Trackpoint>
          <Trackpoint>
            <Time>2021-07-29T09:23:40.000Z</Time>
            <Position>
              <LatitudeDegrees>41.8729226477444171905517578125</LatitudeDegrees>
              <LongitudeDegrees>-2.779311351478099822998046875</LongitudeDegrees>
            </Position>
            <AltitudeMeters>1112.4000244140625</AltitudeMeters>
            <DistanceMeters>185276.10618311</DistanceMeters>
          </Trackpoint>
          <Trackpoint>
            <Time>2021-07-29T09:23:49.000Z</Time>
            <Position>
              <LatitudeDegrees>41.87327996827661991119384765625</LatitudeDegrees>
              <LongitudeDegrees>-2.77957932092249393463134765625</LongitudeDegrees>
            </Position>
            <AltitudeMeters>1113.4000244140625</AltitudeMeters>
            <DistanceMeters>185321.65749412</DistanceMeters>
          </Trackpoint>
          <Trackpoint>
            <Time>2021-07-29T09:23:54.000Z</Time>
            <Position>
              <LatitudeDegrees>41.87343268655240535736083984375</LatitudeDegrees>
              <LongitudeDegrees>-2.77971410192549228668212890625</LongitudeDegrees>
            </Position>
            <AltitudeMeters>1115</AltitudeMeters>
            <DistanceMeters>185341.99720706</DistanceMeters>
          </Trackpoint>
          <Trackpoint>
            <Time>2021-07-29T09:23:58.000Z</Time>
            <Position>
              <LatitudeDegrees>41.8735449202358722686767578125</LatitudeDegrees>
              <LongitudeDegrees>-2.77981082908809185028076171875</LongitudeDegrees>
            </Position>
            <AltitudeMeters>1116</AltitudeMeters>
            <DistanceMeters>185356.83963762</DistanceMeters>
          </Trackpoint>
          <Trackpoint>
            <Time>2021-07-29T09:24:09.000Z</Time>
            <Position>
              <LatitudeDegrees>41.87382462434470653533935546875</LatitudeDegrees>
              <LongitudeDegrees>-2.78002180159091949462890625</LongitudeDegrees>
            </Position>
            <AltitudeMeters>1117.199951171875</AltitudeMeters>
            <DistanceMeters>185392.54541184</DistanceMeters>
          </Trackpoint>
          <Trackpoint>
            <Time>2021-07-29T09:24:15.000Z</Time>
            <Position>
              <LatitudeDegrees>41.8739760853350162506103515625</LatitudeDegrees>
              <LongitudeDegrees>-2.78010553680360317230224609375</LongitudeDegrees>
            </Position>
            <AltitudeMeters>1118.199951171875</AltitudeMeters>
            <DistanceMeters>185410.77568703</DistanceMeters>
          </Trackpoint>
          <Trackpoint>
            <Time>2021-07-29T09:24:22.000Z</Time>
            <Position>
              <LatitudeDegrees>41.87415202148258686065673828125</LatitudeDegrees>
              <LongitudeDegrees>-2.7801728434860706329345703125</LongitudeDegrees>
            </Position>
            <AltitudeMeters>1119.199951171875</AltitudeMeters>
            <DistanceMeters>185431.13669902</DistanceMeters>
          </Trackpoint>
          <Trackpoint>
            <Time>2021-07-29T09:24:28.000Z</Time>
            <Position>
              <LatitudeDegrees>41.87430926598608493804931640625</LatitudeDegrees>
              <LongitudeDegrees>-2.7802006714046001434326171875</LongitudeDegrees>
            </Position>
            <AltitudeMeters>1120.199951171875</AltitudeMeters>
            <DistanceMeters>185448.78942992</DistanceMeters>
          </Trackpoint>
          <Trackpoint>
            <Time>2021-07-29T09:24:36.000Z</Time>
            <Position>
              <LatitudeDegrees>41.8745229206979274749755859375</LatitudeDegrees>
              <LongitudeDegrees>-2.78021357953548431396484375</LongitudeDegrees>
            </Position>
            <AltitudeMeters>1121.4000244140625</AltitudeMeters>
            <DistanceMeters>185472.59357445</DistanceMeters>
          </Trackpoint>
          <Trackpoint>
            <Time>2021-07-29T09:24:43.000Z</Time>
            <Position>
              <LatitudeDegrees>41.87471159733831882476806640625</LatitudeDegrees>
              <LongitudeDegrees>-2.78020092286169528961181640625</LongitudeDegrees>
            </Position>
            <AltitudeMeters>1122.4000244140625</AltitudeMeters>
            <DistanceMeters>185493.62004687</DistanceMeters>
          </Trackpoint>
          <Trackpoint>
            <Time>2021-07-29T09:24:50.000Z</Time>
            <Position>
              <LatitudeDegrees>41.8748980946838855743408203125</LatitudeDegrees>
              <LongitudeDegrees>-2.780181728303432464599609375</LongitudeDegrees>
            </Position>
            <AltitudeMeters>1123.4000244140625</AltitudeMeters>
            <DistanceMeters>185514.4384894</DistanceMeters>
          </Trackpoint>
          <Trackpoint>
            <Time>2021-07-29T09:24:57.000Z</Time>
            <Position>
              <LatitudeDegrees>41.87508459202945232391357421875</LatitudeDegrees>
              <LongitudeDegrees>-2.78016068972647190093994140625</LongitudeDegrees>
            </Position>
            <AltitudeMeters>1124.800048828125</AltitudeMeters>
            <DistanceMeters>185535.26907348</DistanceMeters>
          </Trackpoint>
          <Trackpoint>
            <Time>2021-07-29T09:25:03.000Z</Time>
            <Position>
              <LatitudeDegrees>41.87524451874196529388427734375</LatitudeDegrees>
              <LongitudeDegrees>-2.78014208190143108367919921875</LongitudeDegrees>
            </Position>
            <AltitudeMeters>1125.800048828125</AltitudeMeters>
            <DistanceMeters>185553.13611751</DistanceMeters>
          </Trackpoint>
          <Trackpoint>
            <Time>2021-07-29T09:25:12.000Z</Time>
            <Position>
              <LatitudeDegrees>41.8754871748387813568115234375</LatitudeDegrees>
              <LongitudeDegrees>-2.7801134996116161346435546875</LongitudeDegrees>
            </Position>
            <AltitudeMeters>1126.800048828125</AltitudeMeters>
            <DistanceMeters>185580.24805681</DistanceMeters>
          </Trackpoint>
          <Trackpoint>
            <Time>2021-07-29T09:25:20.000Z</Time>
            <Position>
              <LatitudeDegrees>41.8756937049329280853271484375</LatitudeDegrees>
              <LongitudeDegrees>-2.780090533196926116943359375</LongitudeDegrees>
            </Position>
            <AltitudeMeters>1128</AltitudeMeters>
            <DistanceMeters>185603.31391999</DistanceMeters>
          </Trackpoint>
          <Trackpoint>
            <Time>2021-07-29T09:25:24.000Z</Time>
            <Position>
              <LatitudeDegrees>41.87579722143709659576416015625</LatitudeDegrees>
              <LongitudeDegrees>-2.780079804360866546630859375</LongitudeDegrees>
            </Position>
            <AltitudeMeters>1128.4000244140625</AltitudeMeters>
            <DistanceMeters>185614.87012181</DistanceMeters>
          </Trackpoint>
          <Trackpoint>
            <Time>2021-07-29T09:25:30.000Z</Time>
            <Position>
              <LatitudeDegrees>41.87595513649284839630126953125</LatitudeDegrees>
              <LongitudeDegrees>-2.780065722763538360595703125</LongitudeDegrees>
            </Position>
            <AltitudeMeters>1129</AltitudeMeters>
            <DistanceMeters>185632.48521439</DistanceMeters>
          </Trackpoint>
          <Trackpoint>
            <Time>2021-07-29T09:25:43.000Z</Time>
            <Position>
              <LatitudeDegrees>41.876316480338573455810546875</LatitudeDegrees>
              <LongitudeDegrees>-2.78002540580928325653076171875</LongitudeDegrees>
            </Position>
            <AltitudeMeters>1130</AltitudeMeters>
            <DistanceMeters>185672.8421549</DistanceMeters>
          </Trackpoint>
          <Trackpoint>
            <Time>2021-07-29T09:26:02.000Z</Time>
            <Position>
              <LatitudeDegrees>41.87685200013220310211181640625</LatitudeDegrees>
              <LongitudeDegrees>-2.77993865311145782470703125</LongitudeDegrees>
            </Position>
            <AltitudeMeters>1131</AltitudeMeters>
            <DistanceMeters>185732.87858612</DistanceMeters>
          </Trackpoint>
          <Trackpoint>
            <Time>2021-07-29T09:26:18.000Z</Time>
            <Position>
              <LatitudeDegrees>41.877299845218658447265625</LatitudeDegrees>
              <LongitudeDegrees>-2.77981217019259929656982421875</LongitudeDegrees>
            </Position>
            <AltitudeMeters>1132</AltitudeMeters>
            <DistanceMeters>185783.81467788</DistanceMeters>
          </Trackpoint>
          <Trackpoint>
            <Time>2021-07-29T09:26:28.000Z</Time>
            <Position>
              <LatitudeDegrees>41.87756580300629138946533203125</LatitudeDegrees>
              <LongitudeDegrees>-2.7797275967895984649658203125</LongitudeDegrees>
            </Position>
            <AltitudeMeters>1133</AltitudeMeters>
            <DistanceMeters>185814.23480565</DistanceMeters>
          </Trackpoint>
          <Trackpoint>
            <Time>2021-07-29T09:26:36.000Z</Time>
            <Position>
              <LatitudeDegrees>41.8777787871658802032470703125</LatitudeDegrees>
              <LongitudeDegrees>-2.779642604291439056396484375</LongitudeDegrees>
            </Position>
            <AltitudeMeters>1134</AltitudeMeters>
            <DistanceMeters>185838.9645838</DistanceMeters>
          </Trackpoint>
          <Trackpoint>
            <Time>2021-07-29T09:26:44.000Z</Time>
            <Position>
              <LatitudeDegrees>41.87800250016152858734130859375</LatitudeDegrees>
              <LongitudeDegrees>-2.7795482240617275238037109375</LongitudeDegrees>
            </Position>
            <AltitudeMeters>1135.199951171875</AltitudeMeters>
            <DistanceMeters>185865.0639092</DistanceMeters>
          </Trackpoint>
          <Trackpoint>
            <Time>2021-07-29T09:26:55.000Z</Time>
            <Position>
              <LatitudeDegrees>41.87829821370542049407958984375</LatitudeDegrees>
              <LongitudeDegrees>-2.77947521768510341644287109375</LongitudeDegrees>
            </Position>
            <AltitudeMeters>1136.199951171875</AltitudeMeters>
            <DistanceMeters>185898.5289668</DistanceMeters>
          </Trackpoint>
          <Trackpoint>
            <Time>2021-07-29T09:27:02.000Z</Time>
            <Position>
              <LatitudeDegrees>41.8784654326736927032470703125</LatitudeDegrees>
              <LongitudeDegrees>-2.77945158071815967559814453125</LongitudeDegrees>
            </Position>
            <AltitudeMeters>1137.5999755859375</AltitudeMeters>
            <DistanceMeters>185917.24344021</DistanceMeters>
          </Trackpoint>
          <Trackpoint>
            <Time>2021-07-29T09:27:11.000Z</Time>
            <Position>
              <LatitudeDegrees>41.87868931330740451812744140625</LatitudeDegrees>
              <LongitudeDegrees>-2.7794580347836017608642578125</LongitudeDegrees>
            </Position>
            <AltitudeMeters>1138.800048828125</AltitudeMeters>
            <DistanceMeters>185942.16762684</DistanceMeters>
          </Trackpoint>
          <Trackpoint>
            <Time>2021-07-29T09:27:18.000Z</Time>
            <Position>
              <LatitudeDegrees>41.87886382453143596649169921875</LatitudeDegrees>
              <LongitudeDegrees>-2.77947857044637203216552734375</LongitudeDegrees>
            </Position>
            <AltitudeMeters>1139.800048828125</AltitudeMeters>
            <DistanceMeters>185961.66547847</DistanceMeters>
          </Trackpoint>
          <Trackpoint>
            <Time>2021-07-29T09:27:26.000Z</Time>
            <Position>
              <LatitudeDegrees>41.8790706060826778411865234375</LatitudeDegrees>
              <LongitudeDegrees>-2.77951310388743877410888671875</LongitudeDegrees>
            </Position>
            <AltitudeMeters>1140.800048828125</AltitudeMeters>
            <DistanceMeters>185984.85803252</DistanceMeters>
          </Trackpoint>
          <Trackpoint>
            <Time>2021-07-29T09:27:35.000Z</Time>
            <Position>
              <LatitudeDegrees>41.87931627966463565826416015625</LatitudeDegrees>
              <LongitudeDegrees>-2.7795676700770854949951171875</LongitudeDegrees>
            </Position>
            <AltitudeMeters>1141.800048828125</AltitudeMeters>
            <DistanceMeters>186012.57359643</DistanceMeters>
          </Trackpoint>
          <Trackpoint>
            <Time>2021-07-29T09:27:55.000Z</Time>
            <Position>
              <LatitudeDegrees>41.8798626959323883056640625</LatitudeDegrees>
              <LongitudeDegrees>-2.7796830050647258758544921875</LongitudeDegrees>
            </Position>
            <AltitudeMeters>1142.800048828125</AltitudeMeters>
            <DistanceMeters>186074.13726774</DistanceMeters>
          </Trackpoint>
          <Trackpoint>
            <Time>2021-07-29T09:28:13.000Z</Time>
            <Position>
              <LatitudeDegrees>41.88039980828762054443359375</LatitudeDegrees>
              <LongitudeDegrees>-2.7798442728817462921142578125</LongitudeDegrees>
            </Position>
            <AltitudeMeters>1143.199951171875</AltitudeMeters>
            <DistanceMeters>186135.39442435</DistanceMeters>
          </Trackpoint>
          <Trackpoint>
            <Time>2021-07-29T09:28:25.000Z</Time>
            <Position>
              <LatitudeDegrees>41.8808224238455295562744140625</LatitudeDegrees>
              <LongitudeDegrees>-2.78000964783132076263427734375</LongitudeDegrees>
            </Position>
            <AltitudeMeters>1142.199951171875</AltitudeMeters>
            <DistanceMeters>186184.38804557</DistanceMeters>
          </Trackpoint>
          <Trackpoint>
            <Time>2021-07-29T09:28:31.000Z</Time>
            <Position>
              <LatitudeDegrees>41.8810671754181385040283203125</LatitudeDegrees>
              <LongitudeDegrees>-2.7801433391869068145751953125</LongitudeDegrees>
            </Position>
            <AltitudeMeters>1141.4000244140625</AltitudeMeters>
            <DistanceMeters>186213.79601186</DistanceMeters>
          </Trackpoint>
          <Trackpoint>
            <Time>2021-07-29T09:28:36.000Z</Time>
            <Position>
              <LatitudeDegrees>41.88129994086921215057373046875</LatitudeDegrees>
              <LongitudeDegrees>-2.78025574050843715667724609375</LongitudeDegrees>
            </Position>
            <AltitudeMeters>1140.4000244140625</AltitudeMeters>
            <DistanceMeters>186241.32687629</DistanceMeters>
          </Trackpoint>
          <Trackpoint>
            <Time>2021-07-29T09:28:41.000Z</Time>
            <Position>
              <LatitudeDegrees>41.88155642710626125335693359375</LatitudeDegrees>
              <LongitudeDegrees>-2.78039119206368923187255859375</LongitudeDegrees>
            </Position>
            <AltitudeMeters>1139.800048828125</AltitudeMeters>
            <DistanceMeters>186272.00167043</DistanceMeters>
          </Trackpoint>
          <Trackpoint>
            <Time>2021-07-29T09:28:44.000Z</Time>
            <Position>
              <LatitudeDegrees>41.88165382482111454010009765625</LatitudeDegrees>
              <LongitudeDegrees>-2.7805952914059162139892578125</LongitudeDegrees>
            </Position>
            <AltitudeMeters>1139.4000244140625</AltitudeMeters>
            <DistanceMeters>186292.09077635</DistanceMeters>
          </Trackpoint>
          <Trackpoint>
            <Time>2021-07-29T09:28:47.000Z</Time>
            <Position>
              <LatitudeDegrees>41.88168869353830814361572265625</LatitudeDegrees>
              <LongitudeDegrees>-2.7808244526386260986328125</LongitudeDegrees>
            </Position>
            <AltitudeMeters>1139.4000244140625</AltitudeMeters>
            <DistanceMeters>186311.47319803</DistanceMeters>
          </Trackpoint>
          <Trackpoint>
            <Time>2021-07-29T09:28:49.000Z</Time>
            <Position>
              <LatitudeDegrees>41.88170059584081172943115234375</LatitudeDegrees>
              <LongitudeDegrees>-2.78095789253711700439453125</LongitudeDegrees>
            </Position>
            <AltitudeMeters>1139.5999755859375</AltitudeMeters>
            <DistanceMeters>186322.60998841</DistanceMeters>
          </Trackpoint>
          <Trackpoint>
            <Time>2021-07-29T09:28:53.000Z</Time>
            <Position>
              <LatitudeDegrees>41.88175105489790439605712890625</LatitudeDegrees>
              <LongitudeDegrees>-2.7811887301504611968994140625</LongitudeDegrees>
            </Position>
            <AltitudeMeters>1140.4000244140625</AltitudeMeters>
            <DistanceMeters>186342.54635755</DistanceMeters>
          </Trackpoint>
          <Trackpoint>
            <Time>2021-07-29T09:29:00.000Z</Time>
            <Position>
              <LatitudeDegrees>41.88189656473696231842041015625</LatitudeDegrees>
              <LongitudeDegrees>-2.78154529631137847900390625</LongitudeDegrees>
            </Position>
            <AltitudeMeters>1141.199951171875</AltitudeMeters>
            <DistanceMeters>186376.24133509</DistanceMeters>
          </Trackpoint>
          <Trackpoint>
            <Time>2021-07-29T09:29:02.000Z</Time>
            <Position>
              <LatitudeDegrees>41.88195339404046535491943359375</LatitudeDegrees>
              <LongitudeDegrees>-2.781638838350772857666015625</LongitudeDegrees>
            </Position>
            <AltitudeMeters>1141.199951171875</AltitudeMeters>
            <DistanceMeters>186386.24580246</DistanceMeters>
          </Trackpoint>
          <Trackpoint>
            <Time>2021-07-29T09:29:14.000Z</Time>
            <Position>
              <LatitudeDegrees>41.88229705207049846649169921875</LatitudeDegrees>
              <LongitudeDegrees>-2.78223973698914051055908203125</LongitudeDegrees>
            </Position>
            <AltitudeMeters>1140.5999755859375</AltitudeMeters>
            <DistanceMeters>186449.03538261</DistanceMeters>
          </Trackpoint>
          <Trackpoint>
            <Time>2021-07-29T09:29:20.000Z</Time>
            <Position>
              <LatitudeDegrees>41.88249193131923675537109375</LatitudeDegrees>
              <LongitudeDegrees>-2.782605104148387908935546875</LongitudeDegrees>
            </Position>
            <AltitudeMeters>1139.4000244140625</AltitudeMeters>
            <DistanceMeters>186486.27967255</DistanceMeters>
          </Trackpoint>
          <Trackpoint>
            <Time>2021-07-29T09:29:26.000Z</Time>
            <Position>
              <LatitudeDegrees>41.88269686885178089141845703125</LatitudeDegrees>
              <LongitudeDegrees>-2.7830290608108043670654296875</LongitudeDegrees>
            </Position>
            <AltitudeMeters>1138.4000244140625</AltitudeMeters>
            <DistanceMeters>186528.16673252</DistanceMeters>
          </Trackpoint>
          <Trackpoint>
            <Time>2021-07-29T09:29:32.000Z</Time>
            <Position>
              <LatitudeDegrees>41.8829230964183807373046875</LatitudeDegrees>
              <LongitudeDegrees>-2.78347221203148365020751953125</LongitudeDegrees>
            </Position>
            <AltitudeMeters>1137.199951171875</AltitudeMeters>
            <DistanceMeters>186572.69219897</DistanceMeters>
          </Trackpoint>
          <Trackpoint>
            <Time>2021-07-29T09:29:35.000Z</Time>
            <Position>
              <LatitudeDegrees>41.88303968869149684906005859375</LatitudeDegrees>
              <LongitudeDegrees>-2.78371713124215602874755859375</LongitudeDegrees>
            </Position>
            <AltitudeMeters>1135.800048828125</AltitudeMeters>
            <DistanceMeters>186596.78161163</DistanceMeters>
          </Trackpoint>
          <Trackpoint>
            <Time>2021-07-29T09:29:38.000Z</Time>
            <Position>
              <LatitudeDegrees>41.88315820880234241485595703125</LatitudeDegrees>
              <LongitudeDegrees>-2.78397663496434688568115234375</LongitudeDegrees>
            </Position>
            <AltitudeMeters>1134.4000244140625</AltitudeMeters>
            <DistanceMeters>186622.00919094</DistanceMeters>
          </Trackpoint>
          <Trackpoint>
            <Time>2021-07-29T09:29:41.000Z</Time>
            <Position>
              <LatitudeDegrees>41.8832830153405666351318359375</LatitudeDegrees>
              <LongitudeDegrees>-2.78424284420907497406005859375</LongitudeDegrees>
            </Position>
            <AltitudeMeters>1133</AltitudeMeters>
            <DistanceMeters>186648.07805154</DistanceMeters>
          </Trackpoint>
          <Trackpoint>
            <Time>2021-07-29T09:29:44.000Z</Time>
            <Position>
              <LatitudeDegrees>41.88342324458062648773193359375</LatitudeDegrees>
              <LongitudeDegrees>-2.78451408259570598602294921875</LongitudeDegrees>
            </Position>
            <AltitudeMeters>1132</AltitudeMeters>
            <DistanceMeters>186675.44178555</DistanceMeters>
          </Trackpoint>
          <Trackpoint>
            <Time>2021-07-29T09:29:48.000Z</Time>
            <Position>
              <LatitudeDegrees>41.88364067114889621734619140625</LatitudeDegrees>
              <LongitudeDegrees>-2.78487123548984527587890625</LongitudeDegrees>
            </Position>
            <AltitudeMeters>1131</AltitudeMeters>
            <DistanceMeters>186713.67158901</DistanceMeters>
          </Trackpoint>
          <Trackpoint>
            <Time>2021-07-29T09:29:50.000Z</Time>
            <Position>
              <LatitudeDegrees>41.88376070000231266021728515625</LatitudeDegrees>
              <LongitudeDegrees>-2.78506494127213954925537109375</LongitudeDegrees>
            </Position>
            <AltitudeMeters>1129.5999755859375</AltitudeMeters>
            <DistanceMeters>186734.55499323</DistanceMeters>
          </Trackpoint>
          <Trackpoint>
            <Time>2021-07-29T09:29:52.000Z</Time>
            <Position>
              <LatitudeDegrees>41.88388341106474399566650390625</LatitudeDegrees>
              <LongitudeDegrees>-2.785272561013698577880859375</LongitudeDegrees>
            </Position>
            <AltitudeMeters>1128.199951171875</AltitudeMeters>
            <DistanceMeters>186756.52158525</DistanceMeters>
          </Trackpoint>
          <Trackpoint>
            <Time>2021-07-29T09:29:53.000Z</Time>
            <Position>
              <LatitudeDegrees>41.88394426368176937103271484375</LatitudeDegrees>
              <LongitudeDegrees>-2.78538194485008716583251953125</LongitudeDegrees>
            </Position>
            <AltitudeMeters>1127.199951171875</AltitudeMeters>
            <DistanceMeters>186767.83694887</DistanceMeters>
          </Trackpoint>
          <Trackpoint>
            <Time>2021-07-29T09:29:54.000Z</Time>
            <Position>
              <LatitudeDegrees>41.88400478102266788482666015625</LatitudeDegrees>
              <LongitudeDegrees>-2.785494513809680938720703125</LongitudeDegrees>
            </Position>
            <AltitudeMeters>1125.5999755859375</AltitudeMeters>
            <DistanceMeters>186779.34303207</DistanceMeters>
          </Trackpoint>
          <Trackpoint>
            <Time>2021-07-29T09:29:55.000Z</Time>
            <Position>
              <LatitudeDegrees>41.884066723287105560302734375</LatitudeDegrees>
              <LongitudeDegrees>-2.785607166588306427001953125</LongitudeDegrees>
            </Position>
            <AltitudeMeters>1124.4000244140625</AltitudeMeters>
            <DistanceMeters>186790.94796896</DistanceMeters>
          </Trackpoint>
          <Trackpoint>
            <Time>2021-07-29T09:29:56.000Z</Time>
            <Position>
              <LatitudeDegrees>41.88412950374186038970947265625</LatitudeDegrees>
              <LongitudeDegrees>-2.7857209928333759307861328125</LongitudeDegrees>
            </Position>
            <AltitudeMeters>1123.4000244140625</AltitudeMeters>
            <DistanceMeters>186802.68674941</DistanceMeters>
          </Trackpoint>
          <Trackpoint>
            <Time>2021-07-29T09:29:58.000Z</Time>
            <Position>
              <LatitudeDegrees>41.884261183440685272216796875</LatitudeDegrees>
              <LongitudeDegrees>-2.785947136580944061279296875</LongitudeDegrees>
            </Position>
            <AltitudeMeters>1122.4000244140625</AltitudeMeters>
            <DistanceMeters>186826.47685389</DistanceMeters>
          </Trackpoint>
          <Trackpoint>
            <Time>2021-07-29T09:30:01.000Z</Time>
            <Position>
              <LatitudeDegrees>41.8844668753445148468017578125</LatitudeDegrees>
              <LongitudeDegrees>-2.78627478517591953277587890625</LongitudeDegrees>
            </Position>
            <AltitudeMeters>1121.199951171875</AltitudeMeters>
            <DistanceMeters>186861.9911735</DistanceMeters>
          </Trackpoint>
          <Trackpoint>
            <Time>2021-07-29T09:30:07.000Z</Time>
            <Position>
              <LatitudeDegrees>41.88490147702395915985107421875</LatitudeDegrees>
              <LongitudeDegrees>-2.78680603019893169403076171875</LongitudeDegrees>
            </Position>
            <AltitudeMeters>1120.5999755859375</AltitudeMeters>
            <DistanceMeters>186927.39510024</DistanceMeters>
          </Trackpoint>
          <Trackpoint>
            <Time>2021-07-29T09:30:08.000Z</Time>
            <Position>
              <LatitudeDegrees>41.88495562411844730377197265625</LatitudeDegrees>
              <LongitudeDegrees>-2.78688917867839336395263671875</LongitudeDegrees>
            </Position>
            <AltitudeMeters>1120.800048828125</AltitudeMeters>
            <DistanceMeters>186936.54928559</DistanceMeters>
          </Trackpoint>
          <Trackpoint>
            <Time>2021-07-29T09:30:12.000Z</Time>
            <Position>
              <LatitudeDegrees>41.88511320389807224273681640625</LatitudeDegrees>
              <LongitudeDegrees>-2.78715237043797969818115234375</LongitudeDegrees>
            </Position>
            <AltitudeMeters>1122</AltitudeMeters>
            <DistanceMeters>186964.53558063</DistanceMeters>
          </Trackpoint>
          <Trackpoint>
            <Time>2021-07-29T09:30:16.000Z</Time>
            <Position>
              <LatitudeDegrees>41.8853161297738552093505859375</LatitudeDegrees>
              <LongitudeDegrees>-2.78724423609673976898193359375</LongitudeDegrees>
            </Position>
            <AltitudeMeters>1120.800048828125</AltitudeMeters>
            <DistanceMeters>186988.36986432</DistanceMeters>
          </Trackpoint>
          <Trackpoint>
            <Time>2021-07-29T09:30:18.000Z</Time>
            <Position>
              <LatitudeDegrees>41.885440684854984283447265625</LatitudeDegrees>
              <LongitudeDegrees>-2.7872698009014129638671875</LongitudeDegrees>
            </Position>
            <AltitudeMeters>1120.4000244140625</AltitudeMeters>
            <DistanceMeters>187002.39395306</DistanceMeters>
          </Trackpoint>
          <Trackpoint>
            <Time>2021-07-29T09:30:19.000Z</Time>
            <Position>
              <LatitudeDegrees>41.8855008669197559356689453125</LatitudeDegrees>
              <LongitudeDegrees>-2.787299640476703643798828125</LongitudeDegrees>
            </Position>
            <AltitudeMeters>1120</AltitudeMeters>
            <DistanceMeters>187009.53361563</DistanceMeters>
          </Trackpoint>
          <Trackpoint>
            <Time>2021-07-29T09:30:21.000Z</Time>
            <Position>
              <LatitudeDegrees>41.88562341034412384033203125</LatitudeDegrees>
              <LongitudeDegrees>-2.78735990636050701141357421875</LongitudeDegrees>
            </Position>
            <AltitudeMeters>1119</AltitudeMeters>
            <DistanceMeters>187024.05809998</DistanceMeters>
          </Trackpoint>
          <Trackpoint>
            <Time>2021-07-29T09:30:23.000Z</Time>
            <Position>
              <LatitudeDegrees>41.8857603706419467926025390625</LatitudeDegrees>
              <LongitudeDegrees>-2.78738404624164104461669921875</LongitudeDegrees>
            </Position>
            <AltitudeMeters>1117.800048828125</AltitudeMeters>
            <DistanceMeters>187039.4324709</DistanceMeters>
          </Trackpoint>
          <Trackpoint>
            <Time>2021-07-29T09:30:25.000Z</Time>
            <Position>
              <LatitudeDegrees>41.8859008513391017913818359375</LatitudeDegrees>
              <LongitudeDegrees>-2.78738521970808506011962890625</LongitudeDegrees>
            </Position>
            <AltitudeMeters>1117.199951171875</AltitudeMeters>
            <DistanceMeters>187055.06862515</DistanceMeters>
          </Trackpoint>
          <Trackpoint>
            <Time>2021-07-29T09:30:27.000Z</Time>
            <Position>
              <LatitudeDegrees>41.8860373087227344512939453125</LatitudeDegrees>
              <LongitudeDegrees>-2.787361331284046173095703125</LongitudeDegrees>
            </Position>
            <AltitudeMeters>1116.800048828125</AltitudeMeters>
            <DistanceMeters>187070.38532799</DistanceMeters>
          </Trackpoint>
          <Trackpoint>
            <Time>2021-07-29T09:30:36.000Z</Time>
            <Position>
              <LatitudeDegrees>41.8865968845784664154052734375</LatitudeDegrees>
              <LongitudeDegrees>-2.787237279117107391357421875</LongitudeDegrees>
            </Position>
            <AltitudeMeters>1117</AltitudeMeters>
            <DistanceMeters>187133.5098227</DistanceMeters>
          </Trackpoint>
          <Trackpoint>
            <Time>2021-07-29T09:30:38.000Z</Time>
            <Position>
              <LatitudeDegrees>41.88669084571301937103271484375</LatitudeDegrees>
              <LongitudeDegrees>-2.7871975488960742950439453125</LongitudeDegrees>
            </Position>
            <AltitudeMeters>1118</AltitudeMeters>
            <DistanceMeters>187144.47378082</DistanceMeters>
          </Trackpoint>
          <Trackpoint>
            <Time>2021-07-29T09:30:42.000Z</Time>
            <Position>
              <LatitudeDegrees>41.88683803193271160125732421875</LatitudeDegrees>
              <LongitudeDegrees>-2.78712370432913303375244140625</LongitudeDegrees>
            </Position>
            <AltitudeMeters>1119.4000244140625</AltitudeMeters>
            <DistanceMeters>187161.96127832</DistanceMeters>
          </Trackpoint>
          <Trackpoint>
            <Time>2021-07-29T09:30:45.000Z</Time>
            <Position>
              <LatitudeDegrees>41.8869298137724399566650390625</LatitudeDegrees>
              <LongitudeDegrees>-2.78705514036118984222412109375</LongitudeDegrees>
            </Position>
            <AltitudeMeters>1120.5999755859375</AltitudeMeters>
            <DistanceMeters>187173.64995047</DistanceMeters>
          </Trackpoint>
          <Trackpoint>
            <Time>2021-07-29T09:30:50.000Z</Time>
            <Position>
              <LatitudeDegrees>41.88704992644488811492919921875</LatitudeDegrees>
              <LongitudeDegrees>-2.78693829663097858428955078125</LongitudeDegrees>
            </Position>
            <AltitudeMeters>1122</AltitudeMeters>
            <DistanceMeters>187190.15617555</DistanceMeters>
          </Trackpoint>
          <Trackpoint>
            <Time>2021-07-29T09:30:52.000Z</Time>
            <Position>
              <LatitudeDegrees>41.887088231742382049560546875</LatitudeDegrees>
              <LongitudeDegrees>-2.7869045175611972808837890625</LongitudeDegrees>
            </Position>
            <AltitudeMeters>1122.800048828125</AltitudeMeters>
            <DistanceMeters>187195.25584419</DistanceMeters>
          </Trackpoint>
          <Trackpoint>
            <Time>2021-07-29T09:30:54.000Z</Time>
            <Position>
              <LatitudeDegrees>41.887102983891963958740234375</LatitudeDegrees>
              <LongitudeDegrees>-2.786902673542499542236328125</LongitudeDegrees>
            </Position>
            <AltitudeMeters>1123.199951171875</AltitudeMeters>
            <DistanceMeters>187196.90723242</DistanceMeters>
          </Trackpoint>
          <Trackpoint>
            <Time>2021-07-29T09:31:05.000Z</Time>
            <Position>
              <LatitudeDegrees>41.88716123811900615692138671875</LatitudeDegrees>
              <LongitudeDegrees>-2.78690309263765811920166015625</LongitudeDegrees>
            </Position>
            <AltitudeMeters>1123</AltitudeMeters>
            <DistanceMeters>187203.39136967</DistanceMeters>
          </Trackpoint>
          <Trackpoint>
            <Time>2021-07-29T09:31:21.000Z</Time>
            <Position>
              <LatitudeDegrees>41.8874558620154857635498046875</LatitudeDegrees>
              <LongitudeDegrees>-2.78751497156918048858642578125</LongitudeDegrees>
            </Position>
            <AltitudeMeters>1123</AltitudeMeters>
            <DistanceMeters>187263.77215456</DistanceMeters>
          </Trackpoint>
          <Trackpoint>
            <Time>2021-07-29T09:31:30.000Z</Time>
            <Position>
              <LatitudeDegrees>41.88767387531697750091552734375</LatitudeDegrees>
              <LongitudeDegrees>-2.78785326518118381500244140625</LongitudeDegrees>
            </Position>
            <AltitudeMeters>1123</AltitudeMeters>
            <DistanceMeters>187300.84670265</DistanceMeters>
          </Trackpoint>
          <Trackpoint>
            <Time>2021-07-29T09:31:45.000Z</Time>
            <Position>
              <LatitudeDegrees>41.8881212174892425537109375</LatitudeDegrees>
              <LongitudeDegrees>-2.7873896621167659759521484375</LongitudeDegrees>
            </Position>
            <AltitudeMeters>1124.199951171875</AltitudeMeters>
            <DistanceMeters>187363.73285214</DistanceMeters>
          </Trackpoint>
          <Trackpoint>
            <Time>2021-07-29T09:31:57.000Z</Time>
            <Position>
              <LatitudeDegrees>41.88848574645817279815673828125</LatitudeDegrees>
              <LongitudeDegrees>-2.78684894554316997528076171875</LongitudeDegrees>
            </Position>
            <AltitudeMeters>1124.5999755859375</AltitudeMeters>
            <DistanceMeters>187424.17671509</DistanceMeters>
          </Trackpoint>
          <Trackpoint>
            <Time>2021-07-29T09:32:09.000Z</Time>
            <Position>
              <LatitudeDegrees>41.8887986429035663604736328125</LatitudeDegrees>
              <LongitudeDegrees>-2.78621862642467021942138671875</LongitudeDegrees>
            </Position>
            <AltitudeMeters>1124.5999755859375</AltitudeMeters>
            <DistanceMeters>187486.95018591</DistanceMeters>
          </Trackpoint>
          <Trackpoint>
            <Time>2021-07-29T09:32:18.000Z</Time>
            <Position>
              <LatitudeDegrees>41.8890189193189144134521484375</LatitudeDegrees>
              <LongitudeDegrees>-2.7857652492821216583251953125</LongitudeDegrees>
            </Position>
            <AltitudeMeters>1125.5999755859375</AltitudeMeters>
            <DistanceMeters>187531.80863322</DistanceMeters>
          </Trackpoint>
          <Trackpoint>
            <Time>2021-07-29T09:32:32.000Z</Time>
            <Position>
              <LatitudeDegrees>41.88931421376764774322509765625</LatitudeDegrees>
              <LongitudeDegrees>-2.78511741198599338531494140625</LongitudeDegrees>
            </Position>
            <AltitudeMeters>1126.4000244140625</AltitudeMeters>
            <DistanceMeters>187594.74954</DistanceMeters>
          </Trackpoint>
          <Trackpoint>
            <Time>2021-07-29T09:32:34.000Z</Time>
            <Position>
              <LatitudeDegrees>41.88935427926480770111083984375</LatitudeDegrees>
              <LongitudeDegrees>-2.78502873145043849945068359375</LongitudeDegrees>
            </Position>
            <AltitudeMeters>1126.5999755859375</AltitudeMeters>
            <DistanceMeters>187603.34459994</DistanceMeters>
          </Trackpoint>
          <Trackpoint>
            <Time>2021-07-29T09:32:38.000Z</Time>
            <Position>
              <LatitudeDegrees>41.88942971639335155487060546875</LatitudeDegrees>
              <LongitudeDegrees>-2.7848522923886775970458984375</LongitudeDegrees>
            </Position>
            <AltitudeMeters>1127.800048828125</AltitudeMeters>
            <DistanceMeters>187620.20374245</DistanceMeters>
          </Trackpoint>
          <Trackpoint>
            <Time>2021-07-29T09:32:51.000Z</Time>
            <Position>
              <LatitudeDegrees>41.889693327248096466064453125</LatitudeDegrees>
              <LongitudeDegrees>-2.78420872986316680908203125</LongitudeDegrees>
            </Position>
            <AltitudeMeters>1128.800048828125</AltitudeMeters>
            <DistanceMeters>187681.06647989</DistanceMeters>
          </Trackpoint>
          <Trackpoint>
            <Time>2021-07-29T09:32:52.000Z</Time>
            <Position>
              <LatitudeDegrees>41.889715455472469329833984375</LatitudeDegrees>
              <LongitudeDegrees>-2.78415114618837833404541015625</LongitudeDegrees>
            </Position>
            <AltitudeMeters>1128.800048828125</AltitudeMeters>
            <DistanceMeters>187686.4369607</DistanceMeters>
          </Trackpoint>
          <Trackpoint>
            <Time>2021-07-29T09:33:04.000Z</Time>
            <Position>
              <LatitudeDegrees>41.88997738994657993316650390625</LatitudeDegrees>
              <LongitudeDegrees>-2.7834914065897464752197265625</LongitudeDegrees>
            </Position>
            <AltitudeMeters>1129.199951171875</AltitudeMeters>
            <DistanceMeters>187748.38913137</DistanceMeters>
          </Trackpoint>
          <Trackpoint>
            <Time>2021-07-29T09:33:16.000Z</Time>
            <Position>
              <LatitudeDegrees>41.89025315456092357635498046875</LatitudeDegrees>
              <LongitudeDegrees>-2.78284910134971141815185546875</LongitudeDegrees>
            </Position>
            <AltitudeMeters>1128.4000244140625</AltitudeMeters>
            <DistanceMeters>187809.82469226</DistanceMeters>
          </Trackpoint>
          <Trackpoint>
            <Time>2021-07-29T09:33:21.000Z</Time>
            <Position>
              <LatitudeDegrees>41.890406794846057891845703125</LatitudeDegrees>
              <LongitudeDegrees>-2.78257702477276325225830078125</LongitudeDegrees>
            </Position>
            <AltitudeMeters>1127.800048828125</AltitudeMeters>
            <DistanceMeters>187838.12000349</DistanceMeters>
          </Trackpoint>
          <Trackpoint>
            <Time>2021-07-29T09:33:32.000Z</Time>
            <Position>
              <LatitudeDegrees>41.89076780341565608978271484375</LatitudeDegrees>
              <LongitudeDegrees>-2.78207478113472461700439453125</LongitudeDegrees>
            </Position>
            <AltitudeMeters>1128.800048828125</AltitudeMeters>
            <DistanceMeters>187895.96637924</DistanceMeters>
          </Trackpoint>
          <Trackpoint>
            <Time>2021-07-29T09:33:44.000Z</Time>
            <Position>
              <LatitudeDegrees>41.8912017345428466796875</LatitudeDegrees>
              <LongitudeDegrees>-2.78154336847364902496337890625</LongitudeDegrees>
            </Position>
            <AltitudeMeters>1127.5999755859375</AltitudeMeters>
            <DistanceMeters>187961.32155041</DistanceMeters>
          </Trackpoint>
          <Trackpoint>
            <Time>2021-07-29T09:33:49.000Z</Time>
            <Position>
              <LatitudeDegrees>41.89142175950109958648681640625</LatitudeDegrees>
              <LongitudeDegrees>-2.78123390860855579376220703125</LongitudeDegrees>
            </Position>
            <AltitudeMeters>1126.199951171875</AltitudeMeters>
            <DistanceMeters>187996.77772268</DistanceMeters>
          </Trackpoint>
          <Trackpoint>
            <Time>2021-07-29T09:33:59.000Z</Time>
            <Position>
              <LatitudeDegrees>41.89177103340625762939453125</LatitudeDegrees>
              <LongitudeDegrees>-2.78065857477486133575439453125</LongitudeDegrees>
            </Position>
            <AltitudeMeters>1127.4000244140625</AltitudeMeters>
            <DistanceMeters>188058.28856701</DistanceMeters>
          </Trackpoint>
          <Trackpoint>
            <Time>2021-07-29T09:34:00.000Z</Time>
            <Position>
              <LatitudeDegrees>41.8918020464479923248291015625</LatitudeDegrees>
              <LongitudeDegrees>-2.78060576878488063812255859375</LongitudeDegrees>
            </Position>
            <AltitudeMeters>1127.4000244140625</AltitudeMeters>
            <DistanceMeters>188063.86121745</DistanceMeters>
          </Trackpoint>
          <Trackpoint>
            <Time>2021-07-29T09:34:09.000Z</Time>
            <Position>
              <LatitudeDegrees>41.89211301505565643310546875</LatitudeDegrees>
              <LongitudeDegrees>-2.780108638107776641845703125</LongitudeDegrees>
            </Position>
            <AltitudeMeters>1126.4000244140625</AltitudeMeters>
            <DistanceMeters>188117.6617816</DistanceMeters>
          </Trackpoint>
          <Trackpoint>
            <Time>2021-07-29T09:34:12.000Z</Time>
            <Position>
              <LatitudeDegrees>41.8922446109354496002197265625</LatitudeDegrees>
              <LongitudeDegrees>-2.7798969112336635589599609375</LongitudeDegrees>
            </Position>
            <AltitudeMeters>1124.800048828125</AltitudeMeters>
            <DistanceMeters>188140.51486676</DistanceMeters>
          </Trackpoint>
          <Trackpoint>
            <Time>2021-07-29T09:34:14.000Z</Time>
            <Position>
              <LatitudeDegrees>41.892350725829601287841796875</LatitudeDegrees>
              <LongitudeDegrees>-2.779743857681751251220703125</LongitudeDegrees>
            </Position>
            <AltitudeMeters>1123.800048828125</AltitudeMeters>
            <DistanceMeters>188157.84415475</DistanceMeters>
          </Trackpoint>
          <Trackpoint>
            <Time>2021-07-29T09:34:16.000Z</Time>
            <Position>
              <LatitudeDegrees>41.892466060817241668701171875</LatitudeDegrees>
              <LongitudeDegrees>-2.7795799076557159423828125</LongitudeDegrees>
            </Position>
            <AltitudeMeters>1122.5999755859375</AltitudeMeters>
            <DistanceMeters>188176.53400352</DistanceMeters>
          </Trackpoint>
          <Trackpoint>
            <Time>2021-07-29T09:34:18.000Z</Time>
            <Position>
              <LatitudeDegrees>41.89259388484060764312744140625</LatitudeDegrees>
              <LongitudeDegrees>-2.7794037200510501861572265625</LongitudeDegrees>
            </Position>
            <AltitudeMeters>1121</AltitudeMeters>
            <DistanceMeters>188196.91784289</DistanceMeters>
          </Trackpoint>
          <Trackpoint>
            <Time>2021-07-29T09:34:20.000Z</Time>
            <Position>
              <LatitudeDegrees>41.892732270061969757080078125</LatitudeDegrees>
              <LongitudeDegrees>-2.7792122773826122283935546875</LongitudeDegrees>
            </Position>
            <AltitudeMeters>1119.4000244140625</AltitudeMeters>
            <DistanceMeters>188219.02743715</DistanceMeters>
          </Trackpoint>
          <Trackpoint>
            <Time>2021-07-29T09:34:22.000Z</Time>
            <Position>
              <LatitudeDegrees>41.89288146793842315673828125</LatitudeDegrees>
              <LongitudeDegrees>-2.77900901623070240020751953125</LongitudeDegrees>
            </Position>
            <AltitudeMeters>1117.199951171875</AltitudeMeters>
            <DistanceMeters>188242.67820997</DistanceMeters>
          </Trackpoint>
          <Trackpoint>
            <Time>2021-07-29T09:34:23.000Z</Time>
            <Position>
              <LatitudeDegrees>41.89295832999050617218017578125</LatitudeDegrees>
              <LongitudeDegrees>-2.77890290133655071258544921875</LongitudeDegrees>
            </Position>
            <AltitudeMeters>1116</AltitudeMeters>
            <DistanceMeters>188254.94512457</DistanceMeters>
          </Trackpoint>
          <Trackpoint>
            <Time>2021-07-29T09:34:24.000Z</Time>
            <Position>
              <LatitudeDegrees>41.8930358625948429107666015625</LatitudeDegrees>
              <LongitudeDegrees>-2.77879469096660614013671875</LongitudeDegrees>
            </Position>
            <AltitudeMeters>1114.800048828125</AltitudeMeters>
            <DistanceMeters>188267.38854536</DistanceMeters>
          </Trackpoint>
          <Trackpoint>
            <Time>2021-07-29T09:34:26.000Z</Time>
            <Position>
              <LatitudeDegrees>41.89319319091737270355224609375</LatitudeDegrees>
              <LongitudeDegrees>-2.7785695530474185943603515625</LongitudeDegrees>
            </Position>
            <AltitudeMeters>1112.4000244140625</AltitudeMeters>
            <DistanceMeters>188292.97315365</DistanceMeters>
          </Trackpoint>
          <Trackpoint>
            <Time>2021-07-29T09:34:27.000Z</Time>
            <Position>
              <LatitudeDegrees>41.89327114261686801910400390625</LatitudeDegrees>
              <LongitudeDegrees>-2.77845497243106365203857421875</LongitudeDegrees>
            </Position>
            <AltitudeMeters>1111</AltitudeMeters>
            <DistanceMeters>188305.83374773</DistanceMeters>
          </Trackpoint>
          <Trackpoint>
            <Time>2021-07-29T09:34:29.000Z</Time>
            <Position>
              <LatitudeDegrees>41.89343626610934734344482421875</LatitudeDegrees>
              <LongitudeDegrees>-2.77823679149150848388671875</LongitudeDegrees>
            </Position>
            <AltitudeMeters>1109.800048828125</AltitudeMeters>
            <DistanceMeters>188331.61244796</DistanceMeters>
          </Trackpoint>
          <Trackpoint>
            <Time>2021-07-29T09:34:34.000Z</Time>
            <Position>
              <LatitudeDegrees>41.893795430660247802734375</LatitudeDegrees>
              <LongitudeDegrees>-2.77778777293860912322998046875</LongitudeDegrees>
            </Position>
            <AltitudeMeters>1111.199951171875</AltitudeMeters>
            <DistanceMeters>188386.22049008</DistanceMeters>
          </Trackpoint>
          <Trackpoint>
            <Time>2021-07-29T09:34:36.000Z</Time>
            <Position>
              <LatitudeDegrees>41.89392124302685260772705078125</LatitudeDegrees>
              <LongitudeDegrees>-2.7776425145566463470458984375</LongitudeDegrees>
            </Position>
            <AltitudeMeters>1113</AltitudeMeters>
            <DistanceMeters>188404.68479446</DistanceMeters>
          </Trackpoint>
          <Trackpoint>
            <Time>2021-07-29T09:34:38.000Z</Time>
            <Position>
              <LatitudeDegrees>41.89403154887259006500244140625</LatitudeDegrees>
              <LongitudeDegrees>-2.77751469053328037261962890625</LongitudeDegrees>
            </Position>
            <AltitudeMeters>1114.5999755859375</AltitudeMeters>
            <DistanceMeters>188420.89847959</DistanceMeters>
          </Trackpoint>
          <Trackpoint>
            <Time>2021-07-29T09:34:40.000Z</Time>
            <Position>
              <LatitudeDegrees>41.8941293656826019287109375</LatitudeDegrees>
              <LongitudeDegrees>-2.777394913136959075927734375</LongitudeDegrees>
            </Position>
            <AltitudeMeters>1115.800048828125</AltitudeMeters>
            <DistanceMeters>188435.62945943</DistanceMeters>
          </Trackpoint>
          <Trackpoint>
            <Time>2021-07-29T09:34:43.000Z</Time>
            <Position>
              <LatitudeDegrees>41.8942581117153167724609375</LatitudeDegrees>
              <LongitudeDegrees>-2.77721663005650043487548828125</LongitudeDegrees>
            </Position>
            <AltitudeMeters>1117</AltitudeMeters>
            <DistanceMeters>188456.20927102</DistanceMeters>
          </Trackpoint>
          <Trackpoint>
            <Time>2021-07-29T09:34:53.000Z</Time>
            <Position>
              <LatitudeDegrees>41.89457838423550128936767578125</LatitudeDegrees>
              <LongitudeDegrees>-2.77656367979943752288818359375</LongitudeDegrees>
            </Position>
            <AltitudeMeters>1116.5999755859375</AltitudeMeters>
            <DistanceMeters>188520.99533212</DistanceMeters>
          </Trackpoint>
          <Trackpoint>
            <Time>2021-07-29T09:34:58.000Z</Time>
            <Position>
              <LatitudeDegrees>41.89472439698874950408935546875</LatitudeDegrees>
              <LongitudeDegrees>-2.77618749998509883880615234375</LongitudeDegrees>
            </Position>
            <AltitudeMeters>1115.800048828125</AltitudeMeters>
            <DistanceMeters>188556.14468487</DistanceMeters>
          </Trackpoint>
          <Trackpoint>
            <Time>2021-07-29T09:35:05.000Z</Time>
            <Position>
              <LatitudeDegrees>41.89492170698940753936767578125</LatitudeDegrees>
              <LongitudeDegrees>-2.77570051141083240509033203125</LongitudeDegrees>
            </Position>
            <AltitudeMeters>1117</AltitudeMeters>
            <DistanceMeters>188602.08123158</DistanceMeters>
          </Trackpoint>
          <Trackpoint>
            <Time>2021-07-29T09:35:16.000Z</Time>
            <Position>
              <LatitudeDegrees>41.8952007405459880828857421875</LatitudeDegrees>
              <LongitudeDegrees>-2.775023169815540313720703125</LongitudeDegrees>
            </Position>
            <AltitudeMeters>1117.199951171875</AltitudeMeters>
            <DistanceMeters>188666.21954746</DistanceMeters>
          </Trackpoint>
          <Trackpoint>
            <Time>2021-07-29T09:35:25.000Z</Time>
            <Position>
              <LatitudeDegrees>41.89546845853328704833984375</LatitudeDegrees>
              <LongitudeDegrees>-2.774415314197540283203125</LongitudeDegrees>
            </Position>
            <AltitudeMeters>1115.800048828125</AltitudeMeters>
            <DistanceMeters>188724.73517415</DistanceMeters>
          </Trackpoint>
          <Trackpoint>
            <Time>2021-07-29T09:35:29.000Z</Time>
            <Position>
              <LatitudeDegrees>41.895613633096218109130859375</LatitudeDegrees>
              <LongitudeDegrees>-2.774133346974849700927734375</LongitudeDegrees>
            </Position>
            <AltitudeMeters>1114.800048828125</AltitudeMeters>
            <DistanceMeters>188753.13957944</DistanceMeters>
          </Trackpoint>
          <Trackpoint>
            <Time>2021-07-29T09:35:33.000Z</Time>
            <Position>
              <LatitudeDegrees>41.8957673572003841400146484375</LatitudeDegrees>
              <LongitudeDegrees>-2.7738351188600063323974609375</LongitudeDegrees>
            </Position>
            <AltitudeMeters>1113.5999755859375</AltitudeMeters>
            <DistanceMeters>188783.19327083</DistanceMeters>
          </Trackpoint>
          <Trackpoint>
            <Time>2021-07-29T09:35:41.000Z</Time>
            <Position>
              <LatitudeDegrees>41.8960825167596340179443359375</LatitudeDegrees>
              <LongitudeDegrees>-2.77323220856487751007080078125</LongitudeDegrees>
            </Position>
            <AltitudeMeters>1113</AltitudeMeters>
            <DistanceMeters>188844.23016556</DistanceMeters>
          </Trackpoint>
          <Trackpoint>
            <Time>2021-07-29T09:35:51.000Z</Time>
            <Position>
              <LatitudeDegrees>41.8964456208050251007080078125</LatitudeDegrees>
              <LongitudeDegrees>-2.77260817587375640869140625</LongitudeDegrees>
            </Position>
            <AltitudeMeters>1113.800048828125</AltitudeMeters>
            <DistanceMeters>188909.85173682</DistanceMeters>
          </Trackpoint>
          <Trackpoint>
            <Time>2021-07-29T09:35:55.000Z</Time>
            <Position>
              <LatitudeDegrees>41.8965716846287250518798828125</LatitudeDegrees>
              <LongitudeDegrees>-2.77240692637860774993896484375</LongitudeDegrees>
            </Position>
            <AltitudeMeters>1114.800048828125</AltitudeMeters>
            <DistanceMeters>188931.64312571</DistanceMeters>
          </Trackpoint>
          <Trackpoint>
            <Time>2021-07-29T09:35:58.000Z</Time>
            <Position>
              <LatitudeDegrees>41.896659694612026214599609375</LatitudeDegrees>
              <LongitudeDegrees>-2.7722794376313686370849609375</LongitudeDegrees>
            </Position>
            <AltitudeMeters>1116</AltitudeMeters>
            <DistanceMeters>188946.04837325</DistanceMeters>
          </Trackpoint>
          <Trackpoint>
            <Time>2021-07-29T09:36:10.000Z</Time>
            <Position>
              <LatitudeDegrees>41.89703009091317653656005859375</LatitudeDegrees>
              <LongitudeDegrees>-2.7717775292694568634033203125</LongitudeDegrees>
            </Position>
            <AltitudeMeters>1117</AltitudeMeters>
            <DistanceMeters>189004.60287543</DistanceMeters>
          </Trackpoint>
          <Trackpoint>
            <Time>2021-07-29T09:36:19.000Z</Time>
            <Position>
              <LatitudeDegrees>41.897318176925182342529296875</LatitudeDegrees>
              <LongitudeDegrees>-2.77141266502439975738525390625</LongitudeDegrees>
            </Position>
            <AltitudeMeters>1118.199951171875</AltitudeMeters>
            <DistanceMeters>189048.66945867</DistanceMeters>
          </Trackpoint>
          <Trackpoint>
            <Time>2021-07-29T09:36:23.000Z</Time>
            <Position>
              <LatitudeDegrees>41.8974286504089832305908203125</LatitudeDegrees>
              <LongitudeDegrees>-2.7712809853255748748779296875</LongitudeDegrees>
            </Position>
            <AltitudeMeters>1119.199951171875</AltitudeMeters>
            <DistanceMeters>189065.10743231</DistanceMeters>
          </Trackpoint>
          <Trackpoint>
            <Time>2021-07-29T09:36:25.000Z</Time>
            <Position>
              <LatitudeDegrees>41.89748346805572509765625</LatitudeDegrees>
              <LongitudeDegrees>-2.7712154388427734375</LongitudeDegrees>
            </Position>
            <AltitudeMeters>1120.4000244140625</AltitudeMeters>
            <DistanceMeters>189073.27530871</DistanceMeters>
          </Trackpoint>
          <Trackpoint>
            <Time>2021-07-29T09:36:29.000Z</Time>
            <Position>
              <LatitudeDegrees>41.89758916385471820831298828125</LatitudeDegrees>
              <LongitudeDegrees>-2.77108359150588512420654296875</LongitudeDegrees>
            </Position>
            <AltitudeMeters>1121.5999755859375</AltitudeMeters>
            <DistanceMeters>189089.32891832</DistanceMeters>
          </Trackpoint>
          <Trackpoint>
            <Time>2021-07-29T09:36:34.000Z</Time>
            <Position>
              <LatitudeDegrees>41.8977235257625579833984375</LatitudeDegrees>
              <LongitudeDegrees>-2.770923413336277008056640625</LongitudeDegrees>
            </Position>
            <AltitudeMeters>1122.5999755859375</AltitudeMeters>
            <DistanceMeters>189109.32272872</DistanceMeters>
          </Trackpoint>
          <Trackpoint>
            <Time>2021-07-29T09:36:41.000Z</Time>
            <Position>
              <LatitudeDegrees>41.897905580699443817138671875</LatitudeDegrees>
              <LongitudeDegrees>-2.77072953991591930389404296875</LongitudeDegrees>
            </Position>
            <AltitudeMeters>1123.800048828125</AltitudeMeters>
            <DistanceMeters>189135.1794261</DistanceMeters>
          </Trackpoint>
          <Trackpoint>
            <Time>2021-07-29T09:36:47.000Z</Time>
            <Position>
              <LatitudeDegrees>41.89805813133716583251953125</LatitudeDegrees>
              <LongitudeDegrees>-2.77058352716267108917236328125</LongitudeDegrees>
            </Position>
            <AltitudeMeters>1124.800048828125</AltitudeMeters>
            <DistanceMeters>189156.02669329</DistanceMeters>
          </Trackpoint>
          <Trackpoint>
            <Time>2021-07-29T09:37:06.000Z</Time>
            <Position>
              <LatitudeDegrees>41.89854872412979602813720703125</LatitudeDegrees>
              <LongitudeDegrees>-2.7702738158404827117919921875</LongitudeDegrees>
            </Position>
            <AltitudeMeters>1126</AltitudeMeters>
            <DistanceMeters>189216.35855481</DistanceMeters>
          </Trackpoint>
          <Trackpoint>
            <Time>2021-07-29T09:37:25.000Z</Time>
            <Position>
              <LatitudeDegrees>41.8990721739828586578369140625</LatitudeDegrees>
              <LongitudeDegrees>-2.7700676210224628448486328125</LongitudeDegrees>
            </Position>
            <AltitudeMeters>1127</AltitudeMeters>
            <DistanceMeters>189277.0722225</DistanceMeters>
          </Trackpoint>
          <Trackpoint>
            <Time>2021-07-29T09:37:26.000Z</Time>
            <Position>
              <LatitudeDegrees>41.89909840933978557586669921875</LatitudeDegrees>
              <LongitudeDegrees>-2.7700575627386569976806640625</LongitudeDegrees>
            </Position>
            <AltitudeMeters>1127.199951171875</AltitudeMeters>
            <DistanceMeters>189280.10861972</DistanceMeters>
          </Trackpoint>
          <Trackpoint>
            <Time>2021-07-29T09:37:34.000Z</Time>
            <Position>
              <LatitudeDegrees>41.8993075378239154815673828125</LatitudeDegrees>
              <LongitudeDegrees>-2.7699802815914154052734375</LongitudeDegrees>
            </Position>
            <AltitudeMeters>1128.4000244140625</AltitudeMeters>
            <DistanceMeters>189304.24952015</DistanceMeters>
          </Trackpoint>
          <Trackpoint>
            <Time>2021-07-29T09:37:40.000Z</Time>
            <Position>
              <LatitudeDegrees>41.8994641117751598358154296875</LatitudeDegrees>
              <LongitudeDegrees>-2.76991213671863079071044921875</LongitudeDegrees>
            </Position>
            <AltitudeMeters>1129.4000244140625</AltitudeMeters>
            <DistanceMeters>189322.56799909</DistanceMeters>
          </Trackpoint>
          <Trackpoint>
            <Time>2021-07-29T09:37:47.000Z</Time>
            <Position>
              <LatitudeDegrees>41.89964742399752140045166015625</LatitudeDegrees>
              <LongitudeDegrees>-2.7698138169944286346435546875</LongitudeDegrees>
            </Position>
            <AltitudeMeters>1130.5999755859375</AltitudeMeters>
            <DistanceMeters>189344.53664642</DistanceMeters>
          </Trackpoint>
          <Trackpoint>
            <Time>2021-07-29T09:38:07.000Z</Time>
            <Position>
              <LatitudeDegrees>41.9001276232302188873291015625</LatitudeDegrees>
              <LongitudeDegrees>-2.76942816562950611114501953125</LongitudeDegrees>
            </Position>
            <AltitudeMeters>1131.800048828125</AltitudeMeters>
            <DistanceMeters>189406.8047455</DistanceMeters>
          </Trackpoint>
          <Trackpoint>
            <Time>2021-07-29T09:38:08.000Z</Time>
            <Position>
              <LatitudeDegrees>41.90015033818781375885009765625</LatitudeDegrees>
              <LongitudeDegrees>-2.76940318755805492401123046875</LongitudeDegrees>
            </Position>
            <AltitudeMeters>1131.800048828125</AltitudeMeters>
            <DistanceMeters>189410.0717855</DistanceMeters>
          </Trackpoint>
          <Trackpoint>
            <Time>2021-07-29T09:38:15.000Z</Time>
            <Position>
              <LatitudeDegrees>41.90031093545258045196533203125</LatitudeDegrees>
              <LongitudeDegrees>-2.76921627111732959747314453125</LongitudeDegrees>
            </Position>
            <AltitudeMeters>1133</AltitudeMeters>
            <DistanceMeters>189433.72084013</DistanceMeters>
          </Trackpoint>
          <Trackpoint>
            <Time>2021-07-29T09:38:31.000Z</Time>
            <Position>
              <LatitudeDegrees>41.900704801082611083984375</LatitudeDegrees>
              <LongitudeDegrees>-2.76870598085224628448486328125</LongitudeDegrees>
            </Position>
            <AltitudeMeters>1133.199951171875</AltitudeMeters>
            <DistanceMeters>189494.62117721</DistanceMeters>
          </Trackpoint>
          <Trackpoint>
            <Time>2021-07-29T09:38:44.000Z</Time>
            <Position>
              <LatitudeDegrees>41.90112255513668060302734375</LatitudeDegrees>
              <LongitudeDegrees>-2.768163420259952545166015625</LongitudeDegrees>
            </Position>
            <AltitudeMeters>1132</AltitudeMeters>
            <DistanceMeters>189559.29088839</DistanceMeters>
          </Trackpoint>
          <Trackpoint>
            <Time>2021-07-29T09:38:45.000Z</Time>
            <Position>
              <LatitudeDegrees>41.90116035751998424530029296875</LatitudeDegrees>
              <LongitudeDegrees>-2.768113128840923309326171875</LongitudeDegrees>
            </Position>
            <AltitudeMeters>1131.5999755859375</AltitudeMeters>
            <DistanceMeters>189565.21159416</DistanceMeters>
          </Trackpoint>
          <Trackpoint>
            <Time>2021-07-29T09:38:47.000Z</Time>
            <Position>
              <LatitudeDegrees>41.90123830921947956085205078125</LatitudeDegrees>
              <LongitudeDegrees>-2.7680103667080402374267578125</LongitudeDegrees>
            </Position>
            <AltitudeMeters>1130.5999755859375</AltitudeMeters>
            <DistanceMeters>189577.36610158</DistanceMeters>
          </Trackpoint>
          <Trackpoint>
            <Time>2021-07-29T09:38:51.000Z</Time>
            <Position>
              <LatitudeDegrees>41.9014080427587032318115234375</LatitudeDegrees>
              <LongitudeDegrees>-2.76779226958751678466796875</LongitudeDegrees>
            </Position>
            <AltitudeMeters>1129.5999755859375</AltitudeMeters>
            <DistanceMeters>189603.50673995</DistanceMeters>
          </Trackpoint>
          <Trackpoint>
            <Time>2021-07-29T09:38:55.000Z</Time>
            <Position>
              <LatitudeDegrees>41.9015964679419994354248046875</LatitudeDegrees>
              <LongitudeDegrees>-2.76754491962492465972900390625</LongitudeDegrees>
            </Position>
            <AltitudeMeters>1128.199951171875</AltitudeMeters>
            <DistanceMeters>189632.82737088</DistanceMeters>
          </Trackpoint>
          <Trackpoint>
            <Time>2021-07-29T09:38:58.000Z</Time>
            <Position>
              <LatitudeDegrees>41.90175195224583148956298828125</LatitudeDegrees>
              <LongitudeDegrees>-2.7673475258052349090576171875</LongitudeDegrees>
            </Position>
            <AltitudeMeters>1127</AltitudeMeters>
            <DistanceMeters>189656.6368257</DistanceMeters>
          </Trackpoint>
          <Trackpoint>
            <Time>2021-07-29T09:39:06.000Z</Time>
            <Position>
              <LatitudeDegrees>41.90219719894230365753173828125</LatitudeDegrees>
              <LongitudeDegrees>-2.7668580226600170135498046875</LongitudeDegrees>
            </Position>
            <AltitudeMeters>1125.800048828125</AltitudeMeters>
            <DistanceMeters>189720.67002561</DistanceMeters>
          </Trackpoint>
          <Trackpoint>
            <Time>2021-07-29T09:39:15.000Z</Time>
            <Position>
              <LatitudeDegrees>41.902734227478504180908203125</LatitudeDegrees>
              <LongitudeDegrees>-2.7665090002119541168212890625</LongitudeDegrees>
            </Position>
            <AltitudeMeters>1125</AltitudeMeters>
            <DistanceMeters>189787.06800007</DistanceMeters>
          </Trackpoint>
          <Trackpoint>
            <Time>2021-07-29T09:39:25.000Z</Time>
            <Position>
              <LatitudeDegrees>41.9032839126884937286376953125</LatitudeDegrees>
              <LongitudeDegrees>-2.76623985730111598968505859375</LongitudeDegrees>
            </Position>
            <AltitudeMeters>1125.5999755859375</AltitudeMeters>
            <DistanceMeters>189852.18494775</DistanceMeters>
          </Trackpoint>
          <Trackpoint>
            <Time>2021-07-29T09:39:36.000Z</Time>
            <Position>
              <LatitudeDegrees>41.90380451269447803497314453125</LatitudeDegrees>
              <LongitudeDegrees>-2.7660077624022960662841796875</LongitudeDegrees>
            </Position>
            <AltitudeMeters>1126.5999755859375</AltitudeMeters>
            <DistanceMeters>189913.23530395</DistanceMeters>
          </Trackpoint>
          <Trackpoint>
            <Time>2021-07-29T09:39:40.000Z</Time>
            <Position>
              <LatitudeDegrees>41.90396795980632305145263671875</LatitudeDegrees>
              <LongitudeDegrees>-2.765950597822666168212890625</LongitudeDegrees>
            </Position>
            <AltitudeMeters>1127.199951171875</AltitudeMeters>
            <DistanceMeters>189932.03330787</DistanceMeters>
          </Trackpoint>
          <Trackpoint>
            <Time>2021-07-29T09:39:45.000Z</Time>
            <Position>
              <LatitudeDegrees>41.904151104390621185302734375</LatitudeDegrees>
              <LongitudeDegrees>-2.76590525172650814056396484375</LongitudeDegrees>
            </Position>
            <AltitudeMeters>1128.199951171875</AltitudeMeters>
            <DistanceMeters>189952.76089762</DistanceMeters>
          </Trackpoint>
          <Trackpoint>
            <Time>2021-07-29T09:39:52.000Z</Time>
            <Position>
              <LatitudeDegrees>41.904374398291110992431640625</LatitudeDegrees>
              <LongitudeDegrees>-2.7658666111528873443603515625</LongitudeDegrees>
            </Position>
            <AltitudeMeters>1129.4000244140625</AltitudeMeters>
            <DistanceMeters>189977.8191377</DistanceMeters>
          </Trackpoint>
          <Trackpoint>
            <Time>2021-07-29T09:39:57.000Z</Time>
            <Position>
              <LatitudeDegrees>41.90451580099761486053466796875</LatitudeDegrees>
              <LongitudeDegrees>-2.765853367745876312255859375</LongitudeDegrees>
            </Position>
            <AltitudeMeters>1130.5999755859375</AltitudeMeters>
            <DistanceMeters>189993.59586192</DistanceMeters>
          </Trackpoint>
          <Trackpoint>
            <Time>2021-07-29T09:40:07.000Z</Time>
            <Position>
              <LatitudeDegrees>41.90479449927806854248046875</LatitudeDegrees>
              <LongitudeDegrees>-2.7658282220363616943359375</LongitudeDegrees>
            </Position>
            <AltitudeMeters>1131.800048828125</AltitudeMeters>
            <DistanceMeters>190024.68528604</DistanceMeters>
          </Trackpoint>
          <Trackpoint>
            <Time>2021-07-29T09:40:12.000Z</Time>
            <Position>
              <LatitudeDegrees>41.90492735244333744049072265625</LatitudeDegrees>
              <LongitudeDegrees>-2.765816487371921539306640625</LongitudeDegrees>
            </Position>
            <AltitudeMeters>1133</AltitudeMeters>
            <DistanceMeters>190039.50397016</DistanceMeters>
          </Trackpoint>
          <Trackpoint>
            <Time>2021-07-29T09:40:16.000Z</Time>
            <Position>
              <LatitudeDegrees>41.90502307377755641937255859375</LatitudeDegrees>
              <LongitudeDegrees>-2.76581305079162120819091796875</LongitudeDegrees>
            </Position>
            <AltitudeMeters>1134</AltitudeMeters>
            <DistanceMeters>190050.16137611</DistanceMeters>
          </Trackpoint>
          <Trackpoint>
            <Time>2021-07-29T09:40:20.000Z</Time>
            <Position>
              <LatitudeDegrees>41.90511309541761875152587890625</LatitudeDegrees>
              <LongitudeDegrees>-2.7658065967261791229248046875</LongitudeDegrees>
            </Position>
            <AltitudeMeters>1135</AltitudeMeters>
            <DistanceMeters>190060.19513524</DistanceMeters>
          </Trackpoint>
          <Trackpoint>
            <Time>2021-07-29T09:40:21.000Z</Time>
            <Position>
              <LatitudeDegrees>41.9051356427371501922607421875</LatitudeDegrees>
              <LongitudeDegrees>-2.76580584235489368438720703125</LongitudeDegrees>
            </Position>
            <AltitudeMeters>1135</AltitudeMeters>
            <DistanceMeters>190062.7075093</DistanceMeters>
          </Trackpoint>
          <Trackpoint>
            <Time>2021-07-29T09:40:27.000Z</Time>
            <Position>
              <LatitudeDegrees>41.90527754835784435272216796875</LatitudeDegrees>
              <LongitudeDegrees>-2.7658002264797687530517578125</LongitudeDegrees>
            </Position>
            <AltitudeMeters>1136.199951171875</AltitudeMeters>
            <DistanceMeters>190078.50882613</DistanceMeters>
          </Trackpoint>
          <Trackpoint>
            <Time>2021-07-29T09:40:43.000Z</Time>
            <Position>
              <LatitudeDegrees>41.9056714139878749847412109375</LatitudeDegrees>
              <LongitudeDegrees>-2.76576720178127288818359375</LongitudeDegrees>
            </Position>
            <AltitudeMeters>1137.199951171875</AltitudeMeters>
            <DistanceMeters>190122.43224588</DistanceMeters>
          </Trackpoint>
          <Trackpoint>
            <Time>2021-07-29T09:40:57.000Z</Time>
            <Position>
              <LatitudeDegrees>41.9060184247791767120361328125</LatitudeDegrees>
              <LongitudeDegrees>-2.765737362205982208251953125</LongitudeDegrees>
            </Position>
            <AltitudeMeters>1138.4000244140625</AltitudeMeters>
            <DistanceMeters>190161.13437631</DistanceMeters>
          </Trackpoint>
          <Trackpoint>
            <Time>2021-07-29T09:41:17.000Z</Time>
            <Position>
              <LatitudeDegrees>41.90656450577080249786376953125</LatitudeDegrees>
              <LongitudeDegrees>-2.76564792729914188385009765625</LongitudeDegrees>
            </Position>
            <AltitudeMeters>1138.800048828125</AltitudeMeters>
            <DistanceMeters>190222.36410804</DistanceMeters>
          </Trackpoint>
          <Trackpoint>
            <Time>2021-07-29T09:41:32.000Z</Time>
            <Position>
              <LatitudeDegrees>41.90710765309631824493408203125</LatitudeDegrees>
              <LongitudeDegrees>-2.7654394693672657012939453125</LongitudeDegrees>
            </Position>
            <AltitudeMeters>1138</AltitudeMeters>
            <DistanceMeters>190285.23517835</DistanceMeters>
          </Trackpoint>
          <Trackpoint>
            <Time>2021-07-29T09:41:35.000Z</Time>
            <Position>
              <LatitudeDegrees>41.90722181461751461029052734375</LatitudeDegrees>
              <LongitudeDegrees>-2.76539429090917110443115234375</LongitudeDegrees>
            </Position>
            <AltitudeMeters>1137.4000244140625</AltitudeMeters>
            <DistanceMeters>190298.48143878</DistanceMeters>
          </Trackpoint>
          <Trackpoint>
            <Time>2021-07-29T09:41:43.000Z</Time>
            <Position>
              <LatitudeDegrees>41.90748148597776889801025390625</LatitudeDegrees>
              <LongitudeDegrees>-2.7653191052377223968505859375</LongitudeDegrees>
            </Position>
            <AltitudeMeters>1138.5999755859375</AltitudeMeters>
            <DistanceMeters>190328.0468138</DistanceMeters>
          </Trackpoint>
          <Trackpoint>
            <Time>2021-07-29T09:41:49.000Z</Time>
            <Position>
              <LatitudeDegrees>41.90765918232500553131103515625</LatitudeDegrees>
              <LongitudeDegrees>-2.7652889303863048553466796875</LongitudeDegrees>
            </Position>
            <AltitudeMeters>1139.5999755859375</AltitudeMeters>
            <DistanceMeters>190347.98205055</DistanceMeters>
          </Trackpoint>
          <Trackpoint>
            <Time>2021-07-29T09:42:06.000Z</Time>
            <Position>
              <LatitudeDegrees>41.90816176123917102813720703125</LatitudeDegrees>
              <LongitudeDegrees>-2.76526688598096370697021484375</LongitudeDegrees>
            </Position>
            <AltitudeMeters>1140.5999755859375</AltitudeMeters>
            <DistanceMeters>190403.9498812</DistanceMeters>
          </Trackpoint>
          <Trackpoint>
            <Time>2021-07-29T09:42:19.000Z</Time>
            <Position>
              <LatitudeDegrees>41.90854146145284175872802734375</LatitudeDegrees>
              <LongitudeDegrees>-2.76528733782470226287841796875</LongitudeDegrees>
            </Position>
            <AltitudeMeters>1141.800048828125</AltitudeMeters>
            <DistanceMeters>190446.24530996</DistanceMeters>
          </Trackpoint>
          <Trackpoint>
            <Time>2021-07-29T09:42:26.000Z</Time>
            <Position>
              <LatitudeDegrees>41.90872418694198131561279296875</LatitudeDegrees>
              <LongitudeDegrees>-2.765277363359928131103515625</LongitudeDegrees>
            </Position>
            <AltitudeMeters>1142.800048828125</AltitudeMeters>
            <DistanceMeters>190466.59966839</DistanceMeters>
          </Trackpoint>
          <Trackpoint>
            <Time>2021-07-29T09:42:34.000Z</Time>
            <Position>
              <LatitudeDegrees>41.9088726304471492767333984375</LatitudeDegrees>
              <LongitudeDegrees>-2.765044011175632476806640625</LongitudeDegrees>
            </Position>
            <AltitudeMeters>1141.4000244140625</AltitudeMeters>
            <DistanceMeters>190492.02779442</DistanceMeters>
          </Trackpoint>
          <Trackpoint>
            <Time>2021-07-29T09:42:36.000Z</Time>
            <Position>
              <LatitudeDegrees>41.90893650054931640625</LatitudeDegrees>
              <LongitudeDegrees>-2.76498424820601940155029296875</LongitudeDegrees>
            </Position>
            <AltitudeMeters>1140.800048828125</AltitudeMeters>
            <DistanceMeters>190500.69087502</DistanceMeters>
          </Trackpoint>
          <Trackpoint>
            <Time>2021-07-29T09:42:39.000Z</Time>
            <Position>
              <LatitudeDegrees>41.90903498791158199310302734375</LatitudeDegrees>
              <LongitudeDegrees>-2.76488768868148326873779296875</LongitudeDegrees>
            </Position>
            <AltitudeMeters>1139.199951171875</AltitudeMeters>
            <DistanceMeters>190514.26041033</DistanceMeters>
          </Trackpoint>
          <Trackpoint>
            <Time>2021-07-29T09:42:41.000Z</Time>
            <Position>
              <LatitudeDegrees>41.9091041386127471923828125</LatitudeDegrees>
              <LongitudeDegrees>-2.7648178674280643463134765625</LongitudeDegrees>
            </Position>
            <AltitudeMeters>1137.4000244140625</AltitudeMeters>
            <DistanceMeters>190523.88769991</DistanceMeters>
          </Trackpoint>
          <Trackpoint>
            <Time>2021-07-29T09:42:42.000Z</Time>
            <Position>
              <LatitudeDegrees>41.90914294682443141937255859375</LatitudeDegrees>
              <LongitudeDegrees>-2.76477788574993610382080078125</LongitudeDegrees>
            </Position>
            <AltitudeMeters>1136.199951171875</AltitudeMeters>
            <DistanceMeters>190529.33166087</DistanceMeters>
          </Trackpoint>
          <Trackpoint>
            <Time>2021-07-29T09:42:44.000Z</Time>
            <Position>
              <LatitudeDegrees>41.909221820533275604248046875</LatitudeDegrees>
              <LongitudeDegrees>-2.7646948210895061492919921875</LongitudeDegrees>
            </Position>
            <AltitudeMeters>1134.5999755859375</AltitudeMeters>
            <DistanceMeters>190540.48587053</DistanceMeters>
          </Trackpoint>
          <Trackpoint>
            <Time>2021-07-29T09:42:46.000Z</Time>
            <Position>
              <LatitudeDegrees>41.9092934019863605499267578125</LatitudeDegrees>
              <LongitudeDegrees>-2.7646212279796600341796875</LongitudeDegrees>
            </Position>
            <AltitudeMeters>1133.4000244140625</AltitudeMeters>
            <DistanceMeters>190550.51782956</DistanceMeters>
          </Trackpoint>
          <Trackpoint>
            <Time>2021-07-29T09:42:49.000Z</Time>
            <Position>
              <LatitudeDegrees>41.90938384272158145904541015625</LatitudeDegrees>
              <LongitudeDegrees>-2.7645553462207317352294921875</LongitudeDegrees>
            </Position>
            <AltitudeMeters>1132</AltitudeMeters>
            <DistanceMeters>190561.96845007</DistanceMeters>
          </Trackpoint>
          <Trackpoint>
            <Time>2021-07-29T09:42:50.000Z</Time>
            <Position>
              <LatitudeDegrees>41.90943011082708835601806640625</LatitudeDegrees>
              <LongitudeDegrees>-2.76454956270754337310791015625</LongitudeDegrees>
            </Position>
            <AltitudeMeters>1131.4000244140625</AltitudeMeters>
            <DistanceMeters>190567.14020861</DistanceMeters>
          </Trackpoint>
          <Trackpoint>
            <Time>2021-07-29T09:42:51.000Z</Time>
            <Position>
              <LatitudeDegrees>41.90947763621807098388671875</LatitudeDegrees>
              <LongitudeDegrees>-2.7645523287355899810791015625</LongitudeDegrees>
            </Position>
            <AltitudeMeters>1130.5999755859375</AltitudeMeters>
            <DistanceMeters>190572.43448451</DistanceMeters>
          </Trackpoint>
          <Trackpoint>
            <Time>2021-07-29T09:43:01.000Z</Time>
            <Position>
              <LatitudeDegrees>41.90997191704809665679931640625</LatitudeDegrees>
              <LongitudeDegrees>-2.7645727805793285369873046875</LongitudeDegrees>
            </Position>
            <AltitudeMeters>1129.4000244140625</AltitudeMeters>
            <DistanceMeters>190627.47505342</DistanceMeters>
          </Trackpoint>
          <Trackpoint>
            <Time>2021-07-29T09:43:06.000Z</Time>
            <Position>
              <LatitudeDegrees>41.91020853817462921142578125</LatitudeDegrees>
              <LongitudeDegrees>-2.7645788155496120452880859375</LongitudeDegrees>
            </Position>
            <AltitudeMeters>1128.800048828125</AltitudeMeters>
            <DistanceMeters>190653.81614326</DistanceMeters>
          </Trackpoint>
          <Trackpoint>
            <Time>2021-07-29T09:43:10.000Z</Time>
            <Position>
              <LatitudeDegrees>41.91024567000567913055419921875</LatitudeDegrees>
              <LongitudeDegrees>-2.76440639980137348175048828125</LongitudeDegrees>
            </Position>
            <AltitudeMeters>1128</AltitudeMeters>
            <DistanceMeters>190668.68349713</DistanceMeters>
          </Trackpoint>
          <Trackpoint>
            <Time>2021-07-29T09:43:11.000Z</Time>
            <Position>
              <LatitudeDegrees>41.91024885512888431549072265625</LatitudeDegrees>
              <LongitudeDegrees>-2.76433247141540050506591796875</LongitudeDegrees>
            </Position>
            <AltitudeMeters>1126.5999755859375</AltitudeMeters>
            <DistanceMeters>190674.81695443</DistanceMeters>
          </Trackpoint>
          <Trackpoint>
            <Time>2021-07-29T09:43:12.000Z</Time>
            <Position>
              <LatitudeDegrees>41.9102512858808040618896484375</LatitudeDegrees>
              <LongitudeDegrees>-2.7642589621245861053466796875</LongitudeDegrees>
            </Position>
            <AltitudeMeters>1125.199951171875</AltitudeMeters>
            <DistanceMeters>190680.91053091</DistanceMeters>
          </Trackpoint>
          <Trackpoint>
            <Time>2021-07-29T09:43:14.000Z</Time>
            <Position>
              <LatitudeDegrees>41.91024868749082088470458984375</LatitudeDegrees>
              <LongitudeDegrees>-2.7641315571963787078857421875</LongitudeDegrees>
            </Position>
            <AltitudeMeters>1124.199951171875</AltitudeMeters>
            <DistanceMeters>190691.46748139</DistanceMeters>
          </Trackpoint>
          <Trackpoint>
            <Time>2021-07-29T09:43:19.000Z</Time>
            <Position>
              <LatitudeDegrees>41.91016989760100841522216796875</LatitudeDegrees>
              <LongitudeDegrees>-2.7639984525740146636962890625</LongitudeDegrees>
            </Position>
            <AltitudeMeters>1123.800048828125</AltitudeMeters>
            <DistanceMeters>190705.55453076</DistanceMeters>
          </Trackpoint>
          <Trackpoint>
            <Time>2021-07-29T09:43:20.000Z</Time>
            <Position>
              <LatitudeDegrees>41.9101406447589397430419921875</LatitudeDegrees>
              <LongitudeDegrees>-2.76400423608720302581787109375</LongitudeDegrees>
            </Position>
            <AltitudeMeters>1123.800048828125</AltitudeMeters>
            <DistanceMeters>190708.84498083</DistanceMeters>
          </Trackpoint>
          <Trackpoint>
            <Time>2021-07-29T09:43:28.000Z</Time>
            <Position>
              <LatitudeDegrees>41.90992380492389202117919921875</LatitudeDegrees>
              <LongitudeDegrees>-2.7640504203736782073974609375</LongitudeDegrees>
            </Position>
            <AltitudeMeters>1123.199951171875</AltitudeMeters>
            <DistanceMeters>190733.28089303</DistanceMeters>
          </Trackpoint>
          <Trackpoint>
            <Time>2021-07-29T09:43:33.000Z</Time>
            <Position>
              <LatitudeDegrees>41.9097580946981906890869140625</LatitudeDegrees>
              <LongitudeDegrees>-2.764035165309906005859375</LongitudeDegrees>
            </Position>
            <AltitudeMeters>1122</AltitudeMeters>
            <DistanceMeters>190751.76816874</DistanceMeters>
          </Trackpoint>
          <Trackpoint>
            <Time>2021-07-29T09:43:59.000Z</Time>
            <Position>
              <LatitudeDegrees>41.90920715220272541046142578125</LatitudeDegrees>
              <LongitudeDegrees>-2.76390499435365200042724609375</LongitudeDegrees>
            </Position>
            <AltitudeMeters>1122.5999755859375</AltitudeMeters>
            <DistanceMeters>190814.02988665</DistanceMeters>
          </Trackpoint>
          <Trackpoint>
            <Time>2021-07-29T09:44:05.000Z</Time>
            <Position>
              <LatitudeDegrees>41.90913456492125988006591796875</LatitudeDegrees>
              <LongitudeDegrees>-2.76387222111225128173828125</LongitudeDegrees>
            </Position>
            <AltitudeMeters>1123.199951171875</AltitudeMeters>
            <DistanceMeters>190822.5526758</DistanceMeters>
          </Trackpoint>
          <Trackpoint>
            <Time>2021-07-29T09:44:08.000Z</Time>
            <Position>
              <LatitudeDegrees>41.90917077474296092987060546875</LatitudeDegrees>
              <LongitudeDegrees>-2.7638807706534862518310546875</LongitudeDegrees>
            </Position>
            <AltitudeMeters>1123.199951171875</AltitudeMeters>
            <DistanceMeters>190826.6443456</DistanceMeters>
          </Trackpoint>
          <Trackpoint>
            <Time>2021-07-29T09:44:33.000Z</Time>
            <Position>
              <LatitudeDegrees>41.9097141735255718231201171875</LatitudeDegrees>
              <LongitudeDegrees>-2.76398085057735443115234375</LongitudeDegrees>
            </Position>
            <AltitudeMeters>1122.4000244140625</AltitudeMeters>
            <DistanceMeters>190887.69115181</DistanceMeters>
          </Trackpoint>
          <Trackpoint>
            <Time>2021-07-29T09:44:47.000Z</Time>
            <Position>
              <LatitudeDegrees>41.91026327200233936309814453125</LatitudeDegrees>
              <LongitudeDegrees>-2.763937599956989288330078125</LongitudeDegrees>
            </Position>
            <AltitudeMeters>1122</AltitudeMeters>
            <DistanceMeters>190948.91173918</DistanceMeters>
          </Trackpoint>
          <Trackpoint>
            <Time>2021-07-29T09:45:03.000Z</Time>
            <Position>
              <LatitudeDegrees>41.9107119552791118621826171875</LatitudeDegrees>
              <LongitudeDegrees>-2.7637637592852115631103515625</LongitudeDegrees>
            </Position>
            <AltitudeMeters>1123.199951171875</AltitudeMeters>
            <DistanceMeters>191000.88553188</DistanceMeters>
          </Trackpoint>
          <Trackpoint>
            <Time>2021-07-29T09:45:13.000Z</Time>
            <Position>
              <LatitudeDegrees>41.9109360873699188232421875</LatitudeDegrees>
              <LongitudeDegrees>-2.7637763321399688720703125</LongitudeDegrees>
            </Position>
            <AltitudeMeters>1124.4000244140625</AltitudeMeters>
            <DistanceMeters>191025.85351853</DistanceMeters>
          </Trackpoint>
          <Trackpoint>
            <Time>2021-07-29T09:45:19.000Z</Time>
            <Position>
              <LatitudeDegrees>41.9110415317118167877197265625</LatitudeDegrees>
              <LongitudeDegrees>-2.7637704648077487945556640625</LongitudeDegrees>
            </Position>
            <AltitudeMeters>1125.199951171875</AltitudeMeters>
            <DistanceMeters>191037.5996046</DistanceMeters>
          </Trackpoint>
          <Trackpoint>
            <Time>2021-07-29T09:45:23.000Z</Time>
            <Position>
              <LatitudeDegrees>41.91110213287174701690673828125</LatitudeDegrees>
              <LongitudeDegrees>-2.7637594006955623626708984375</LongitudeDegrees>
            </Position>
            <AltitudeMeters>1126.4000244140625</AltitudeMeters>
            <DistanceMeters>191044.40712635</DistanceMeters>
          </Trackpoint>
          <Trackpoint>
            <Time>2021-07-29T09:45:30.000Z</Time>
            <Position>
              <LatitudeDegrees>41.91120355390012264251708984375</LatitudeDegrees>
              <LongitudeDegrees>-2.76370198465883731842041015625</LongitudeDegrees>
            </Position>
            <AltitudeMeters>1127.5999755859375</AltitudeMeters>
            <DistanceMeters>191056.6570982</DistanceMeters>
          </Trackpoint>
          <Trackpoint>
            <Time>2021-07-29T09:45:37.000Z</Time>
            <Position>
              <LatitudeDegrees>41.911347471177577972412109375</LatitudeDegrees>
              <LongitudeDegrees>-2.763627469539642333984375</LongitudeDegrees>
            </Position>
            <AltitudeMeters>1128.5999755859375</AltitudeMeters>
            <DistanceMeters>191073.82303699</DistanceMeters>
          </Trackpoint>
          <Trackpoint>
            <Time>2021-07-29T09:45:45.000Z</Time>
            <Position>
              <LatitudeDegrees>41.9115208089351654052734375</LatitudeDegrees>
              <LongitudeDegrees>-2.7634812891483306884765625</LongitudeDegrees>
            </Position>
            <AltitudeMeters>1129.5999755859375</AltitudeMeters>
            <DistanceMeters>191096.60052614</DistanceMeters>
          </Trackpoint>
          <Trackpoint>
            <Time>2021-07-29T09:45:52.000Z</Time>
            <Position>
              <LatitudeDegrees>41.91161929629743099212646484375</LatitudeDegrees>
              <LongitudeDegrees>-2.76335346512496471405029296875</LongitudeDegrees>
            </Position>
            <AltitudeMeters>1130.5999755859375</AltitudeMeters>
            <DistanceMeters>191111.84039379</DistanceMeters>
          </Trackpoint>
          <Trackpoint>
            <Time>2021-07-29T09:46:02.000Z</Time>
            <Position>
              <LatitudeDegrees>41.9116332940757274627685546875</LatitudeDegrees>
              <LongitudeDegrees>-2.76321499608457088470458984375</LongitudeDegrees>
            </Position>
            <AltitudeMeters>1131.800048828125</AltitudeMeters>
            <DistanceMeters>191123.41494407</DistanceMeters>
          </Trackpoint>
          <Trackpoint>
            <Time>2021-07-29T09:46:12.000Z</Time>
            <Position>
              <LatitudeDegrees>41.91162466071546077728271484375</LatitudeDegrees>
              <LongitudeDegrees>-2.7632055245339870452880859375</LongitudeDegrees>
            </Position>
            <AltitudeMeters>1132</AltitudeMeters>
            <DistanceMeters>191124.65394084</DistanceMeters>
          </Trackpoint>
          <Trackpoint>
            <Time>2021-07-29T09:46:14.000Z</Time>
            <Position>
              <LatitudeDegrees>41.91160504706203937530517578125</LatitudeDegrees>
              <LongitudeDegrees>-2.76324181817471981048583984375</LongitudeDegrees>
            </Position>
            <AltitudeMeters>1131.800048828125</AltitudeMeters>
            <DistanceMeters>191128.36971625</DistanceMeters>
          </Trackpoint>
          <Trackpoint>
            <Time>2021-07-29T09:46:21.000Z</Time>
            <Position>
              <LatitudeDegrees>41.9115528278052806854248046875</LatitudeDegrees>
              <LongitudeDegrees>-2.76332261972129344940185546875</LongitudeDegrees>
            </Position>
            <AltitudeMeters>1130.800048828125</AltitudeMeters>
            <DistanceMeters>191137.23423683</DistanceMeters>
          </Trackpoint>
          <Trackpoint>
            <Time>2021-07-29T10:20:11.000Z</Time>
            <Position>
              <LatitudeDegrees>41.9116289354860782623291015625</LatitudeDegrees>
              <LongitudeDegrees>-2.76329713873565196990966796875</LongitudeDegrees>
            </Position>
            <AltitudeMeters>1133.5999755859375</AltitudeMeters>
            <DistanceMeters>191145.96429097</DistanceMeters>
          </Trackpoint>
          <Trackpoint>
            <Time>2021-07-29T10:20:17.000Z</Time>
            <Position>
              <LatitudeDegrees>41.91167059354484081268310546875</LatitudeDegrees>
              <LongitudeDegrees>-2.7633932791650295257568359375</LongitudeDegrees>
            </Position>
            <AltitudeMeters>1134.199951171875</AltitudeMeters>
            <DistanceMeters>191155.17894282</DistanceMeters>
          </Trackpoint>
          <Trackpoint>
            <Time>2021-07-29T10:20:24.000Z</Time>
            <Position>
              <LatitudeDegrees>41.911722980439662933349609375</LatitudeDegrees>
              <LongitudeDegrees>-2.76352998800575733184814453125</LongitudeDegrees>
            </Position>
            <AltitudeMeters>1134.5999755859375</AltitudeMeters>
            <DistanceMeters>191167.91535885</DistanceMeters>
          </Trackpoint>
          <Trackpoint>
            <Time>2021-07-29T10:20:37.000Z</Time>
            <Position>
              <LatitudeDegrees>41.9118223898112773895263671875</LatitudeDegrees>
              <LongitudeDegrees>-2.7638184092938899993896484375</LongitudeDegrees>
            </Position>
            <AltitudeMeters>1135.5999755859375</AltitudeMeters>
            <DistanceMeters>191194.24273258</DistanceMeters>
          </Trackpoint>
          <Trackpoint>
            <Time>2021-07-29T10:20:59.000Z</Time>
            <Position>
              <LatitudeDegrees>41.91206186078488826751708984375</LatitudeDegrees>
              <LongitudeDegrees>-2.76428167708218097686767578125</LongitudeDegrees>
            </Position>
            <AltitudeMeters>1136.800048828125</AltitudeMeters>
            <DistanceMeters>191240.96303008</DistanceMeters>
          </Trackpoint>
          <Trackpoint>
            <Time>2021-07-29T10:21:17.000Z</Time>
            <Position>
              <LatitudeDegrees>41.91225565038621425628662109375</LatitudeDegrees>
              <LongitudeDegrees>-2.76464528404176235198974609375</LongitudeDegrees>
            </Position>
            <AltitudeMeters>1138</AltitudeMeters>
            <DistanceMeters>191278.00687622</DistanceMeters>
          </Trackpoint>
          <Trackpoint>
            <Time>2021-07-29T10:21:38.000Z</Time>
            <Position>
              <LatitudeDegrees>41.9123487733304500579833984375</LatitudeDegrees>
              <LongitudeDegrees>-2.76508566923439502716064453125</LongitudeDegrees>
            </Position>
            <AltitudeMeters>1139.199951171875</AltitudeMeters>
            <DistanceMeters>191315.92670286</DistanceMeters>
          </Trackpoint>
          <Trackpoint>
            <Time>2021-07-29T10:21:50.000Z</Time>
            <Position>
              <LatitudeDegrees>41.912407614290714263916015625</LatitudeDegrees>
              <LongitudeDegrees>-2.76536445133388042449951171875</LongitudeDegrees>
            </Position>
            <AltitudeMeters>1140.4000244140625</AltitudeMeters>
            <DistanceMeters>191339.92805067</DistanceMeters>
          </Trackpoint>
          <Trackpoint>
            <Time>2021-07-29T10:21:59.000Z</Time>
            <Position>
              <LatitudeDegrees>41.9124805368483066558837890625</LatitudeDegrees>
              <LongitudeDegrees>-2.765542566776275634765625</LongitudeDegrees>
            </Position>
            <AltitudeMeters>1141.5999755859375</AltitudeMeters>
            <DistanceMeters>191356.76629108</DistanceMeters>
          </Trackpoint>
          <Trackpoint>
            <Time>2021-07-29T10:22:04.000Z</Time>
            <Position>
              <LatitudeDegrees>41.91255387850105762481689453125</LatitudeDegrees>
              <LongitudeDegrees>-2.76561305858194828033447265625</LongitudeDegrees>
            </Position>
            <AltitudeMeters>1142.4000244140625</AltitudeMeters>
            <DistanceMeters>191366.80229989</DistanceMeters>
          </Trackpoint>
          <Trackpoint>
            <Time>2021-07-29T10:22:10.000Z</Time>
            <Position>
              <LatitudeDegrees>41.9126475043594837188720703125</LatitudeDegrees>
              <LongitudeDegrees>-2.76567541994154453277587890625</LongitudeDegrees>
            </Position>
            <AltitudeMeters>1142.5999755859375</AltitudeMeters>
            <DistanceMeters>191378.43288651</DistanceMeters>
          </Trackpoint>
          <Trackpoint>
            <Time>2021-07-29T10:22:15.000Z</Time>
            <Position>
              <LatitudeDegrees>41.9127197563648223876953125</LatitudeDegrees>
              <LongitudeDegrees>-2.76572026312351226806640625</LongitudeDegrees>
            </Position>
            <AltitudeMeters>1143</AltitudeMeters>
            <DistanceMeters>191387.29129293</DistanceMeters>
          </Trackpoint>
          <Trackpoint>
            <Time>2021-07-29T10:22:18.000Z</Time>
            <Position>
              <LatitudeDegrees>41.9127725623548030853271484375</LatitudeDegrees>
              <LongitudeDegrees>-2.765739373862743377685546875</LongitudeDegrees>
            </Position>
            <AltitudeMeters>1143.199951171875</AltitudeMeters>
            <DistanceMeters>191393.3781972</DistanceMeters>
          </Trackpoint>
          <Trackpoint>
            <Time>2021-07-29T10:22:30.000Z</Time>
            <Position>
              <LatitudeDegrees>41.91301203332841396331787109375</LatitudeDegrees>
              <LongitudeDegrees>-2.76602075435221195220947265625</LongitudeDegrees>
            </Position>
            <AltitudeMeters>1142</AltitudeMeters>
            <DistanceMeters>191428.7840339</DistanceMeters>
          </Trackpoint>
          <Trackpoint>
            <Time>2021-07-29T10:22:31.000Z</Time>
            <Position>
              <LatitudeDegrees>41.91303952597081661224365234375</LatitudeDegrees>
              <LongitudeDegrees>-2.76606626808643341064453125</LongitudeDegrees>
            </Position>
            <AltitudeMeters>1141.800048828125</AltitudeMeters>
            <DistanceMeters>191433.6406335</DistanceMeters>
          </Trackpoint>
          <Trackpoint>
            <Time>2021-07-29T10:22:33.000Z</Time>
            <Position>
              <LatitudeDegrees>41.91311202943325042724609375</LatitudeDegrees>
              <LongitudeDegrees>-2.76616148650646209716796875</LongitudeDegrees>
            </Position>
            <AltitudeMeters>1141</AltitudeMeters>
            <DistanceMeters>191444.92483076</DistanceMeters>
          </Trackpoint>
          <Trackpoint>
            <Time>2021-07-29T10:22:37.000Z</Time>
            <Position>
              <LatitudeDegrees>41.9132838584482669830322265625</LatitudeDegrees>
              <LongitudeDegrees>-2.7663470618426799774169921875</LongitudeDegrees>
            </Position>
            <AltitudeMeters>1139.800048828125</AltitudeMeters>
            <DistanceMeters>191469.46086827</DistanceMeters>
          </Trackpoint>
          <Trackpoint>
            <Time>2021-07-29T10:22:44.000Z</Time>
            <Position>
              <LatitudeDegrees>41.91361351870000362396240234375</LatitudeDegrees>
              <LongitudeDegrees>-2.76669164188206195831298828125</LongitudeDegrees>
            </Position>
            <AltitudeMeters>1138.5999755859375</AltitudeMeters>
            <DistanceMeters>191515.94564085</DistanceMeters>
          </Trackpoint>
          <Trackpoint>
            <Time>2021-07-29T10:22:48.000Z</Time>
            <Position>
              <LatitudeDegrees>41.913831532001495361328125</LatitudeDegrees>
              <LongitudeDegrees>-2.7668684162199497222900390625</LongitudeDegrees>
            </Position>
            <AltitudeMeters>1137.199951171875</AltitudeMeters>
            <DistanceMeters>191544.28607397</DistanceMeters>
          </Trackpoint>
          <Trackpoint>
            <Time>2021-07-29T10:22:51.000Z</Time>
            <Position>
              <LatitudeDegrees>41.9140207953751087188720703125</LatitudeDegrees>
              <LongitudeDegrees>-2.766973190009593963623046875</LongitudeDegrees>
            </Position>
            <AltitudeMeters>1136</AltitudeMeters>
            <DistanceMeters>191567.06911271</DistanceMeters>
          </Trackpoint>
          <Trackpoint>
            <Time>2021-07-29T10:22:57.000Z</Time>
            <Position>
              <LatitudeDegrees>41.91444911062717437744140625</LatitudeDegrees>
              <LongitudeDegrees>-2.767098583281040191650390625</LongitudeDegrees>
            </Position>
            <AltitudeMeters>1134.800048828125</AltitudeMeters>
            <DistanceMeters>191615.8595703</DistanceMeters>
          </Trackpoint>
          <Trackpoint>
            <Time>2021-07-29T10:22:59.000Z</Time>
            <Position>
              <LatitudeDegrees>41.9145991466939449310302734375</LatitudeDegrees>
              <LongitudeDegrees>-2.76714183390140533447265625</LongitudeDegrees>
            </Position>
            <AltitudeMeters>1133.800048828125</AltitudeMeters>
            <DistanceMeters>191632.93875528</DistanceMeters>
          </Trackpoint>
          <Trackpoint>
            <Time>2021-07-29T10:23:04.000Z</Time>
            <Position>
              <LatitudeDegrees>41.91496007144451141357421875</LatitudeDegrees>
              <LongitudeDegrees>-2.76729245670139789581298828125</LongitudeDegrees>
            </Position>
            <AltitudeMeters>1133</AltitudeMeters>
            <DistanceMeters>191675.00307934</DistanceMeters>
          </Trackpoint>
          <Trackpoint>
            <Time>2021-07-29T10:23:06.000Z</Time>
            <Position>
              <LatitudeDegrees>41.9150908291339874267578125</LatitudeDegrees>
              <LongitudeDegrees>-2.76741273701190948486328125</LongitudeDegrees>
            </Position>
            <AltitudeMeters>1132.800048828125</AltitudeMeters>
            <DistanceMeters>191692.63968936</DistanceMeters>
          </Trackpoint>
          <Trackpoint>
            <Time>2021-07-29T10:23:10.000Z</Time>
            <Position>
              <LatitudeDegrees>41.91535846330225467681884765625</LatitudeDegrees>
              <LongitudeDegrees>-2.76768154464662075042724609375</LongitudeDegrees>
            </Position>
            <AltitudeMeters>1131.5999755859375</AltitudeMeters>
            <DistanceMeters>191729.82853699</DistanceMeters>
          </Trackpoint>
          <Trackpoint>
            <Time>2021-07-29T10:23:17.000Z</Time>
            <Position>
              <LatitudeDegrees>41.9158041290938854217529296875</LatitudeDegrees>
              <LongitudeDegrees>-2.7681086026132106781005859375</LongitudeDegrees>
            </Position>
            <AltitudeMeters>1131.5999755859375</AltitudeMeters>
            <DistanceMeters>191790.75111146</DistanceMeters>
          </Trackpoint>
          <Trackpoint>
            <Time>2021-07-29T10:23:26.000Z</Time>
            <Position>
              <LatitudeDegrees>41.91628374159336090087890625</LatitudeDegrees>
              <LongitudeDegrees>-2.76858679018914699554443359375</LongitudeDegrees>
            </Position>
            <AltitudeMeters>1132.199951171875</AltitudeMeters>
            <DistanceMeters>191857.22031134</DistanceMeters>
          </Trackpoint>
          <Trackpoint>
            <Time>2021-07-29T10:23:27.000Z</Time>
            <Position>
              <LatitudeDegrees>41.91633881069719791412353515625</LatitudeDegrees>
              <LongitudeDegrees>-2.76862752623856067657470703125</LongitudeDegrees>
            </Position>
            <AltitudeMeters>1132</AltitudeMeters>
            <DistanceMeters>191864.2168851</DistanceMeters>
          </Trackpoint>
          <Trackpoint>
            <Time>2021-07-29T10:23:32.000Z</Time>
            <Position>
              <LatitudeDegrees>41.916648186743259429931640625</LatitudeDegrees>
              <LongitudeDegrees>-2.76862551458179950714111328125</LongitudeDegrees>
            </Position>
            <AltitudeMeters>1130.5999755859375</AltitudeMeters>
            <DistanceMeters>191898.65145113</DistanceMeters>
          </Trackpoint>
          <Trackpoint>
            <Time>2021-07-29T10:23:34.000Z</Time>
            <Position>
              <LatitudeDegrees>41.9167539663612842559814453125</LatitudeDegrees>
              <LongitudeDegrees>-2.76851512491703033447265625</LongitudeDegrees>
            </Position>
            <AltitudeMeters>1130.199951171875</AltitudeMeters>
            <DistanceMeters>191913.55762639</DistanceMeters>
          </Trackpoint>
          <Trackpoint>
            <Time>2021-07-29T10:23:36.000Z</Time>
            <Position>
              <LatitudeDegrees>41.91685714758932590484619140625</LatitudeDegrees>
              <LongitudeDegrees>-2.7684002928435802459716796875</LongitudeDegrees>
            </Position>
            <AltitudeMeters>1129.4000244140625</AltitudeMeters>
            <DistanceMeters>191928.46864722</DistanceMeters>
          </Trackpoint>
          <Trackpoint>
            <Time>2021-07-29T10:23:39.000Z</Time>
            <Position>
              <LatitudeDegrees>41.9170191697776317596435546875</LatitudeDegrees>
              <LongitudeDegrees>-2.76825117878615856170654296875</LongitudeDegrees>
            </Position>
            <AltitudeMeters>1129.4000244140625</AltitudeMeters>
            <DistanceMeters>191950.32541126</DistanceMeters>
          </Trackpoint>
          <Trackpoint>
            <Time>2021-07-29T10:23:42.000Z</Time>
            <Position>
              <LatitudeDegrees>41.91719569265842437744140625</LatitudeDegrees>
              <LongitudeDegrees>-2.76816216297447681427001953125</LongitudeDegrees>
            </Position>
            <AltitudeMeters>1129.5999755859375</AltitudeMeters>
            <DistanceMeters>191971.3101845</DistanceMeters>
          </Trackpoint>
          <Trackpoint>
            <Time>2021-07-29T10:23:43.000Z</Time>
            <Position>
              <LatitudeDegrees>41.9172555394470691680908203125</LatitudeDegrees>
              <LongitudeDegrees>-2.7681434713304042816162109375</LongitudeDegrees>
            </Position>
            <AltitudeMeters>1129.5999755859375</AltitudeMeters>
            <DistanceMeters>191978.1488076</DistanceMeters>
          </Trackpoint>
          <Trackpoint>
            <Time>2021-07-29T10:23:52.000Z</Time>
            <Position>
              <LatitudeDegrees>41.91772065125405788421630859375</LatitudeDegrees>
              <LongitudeDegrees>-2.7680167369544506072998046875</LongitudeDegrees>
            </Position>
            <AltitudeMeters>1130.4000244140625</AltitudeMeters>
            <DistanceMeters>192030.97015707</DistanceMeters>
          </Trackpoint>
          <Trackpoint>
            <Time>2021-07-29T10:24:01.000Z</Time>
            <Position>
              <LatitudeDegrees>41.9180769659578800201416015625</LatitudeDegrees>
              <LongitudeDegrees>-2.76794515550136566162109375</LongitudeDegrees>
            </Position>
            <AltitudeMeters>1131.5999755859375</AltitudeMeters>
            <DistanceMeters>192071.06929125</DistanceMeters>
          </Trackpoint>
          <Trackpoint>
            <Time>2021-07-29T10:24:10.000Z</Time>
            <Position>
              <LatitudeDegrees>41.91840712912380695343017578125</LatitudeDegrees>
              <LongitudeDegrees>-2.7678769268095493316650390625</LongitudeDegrees>
            </Position>
            <AltitudeMeters>1132.5999755859375</AltitudeMeters>
            <DistanceMeters>192108.24891069</DistanceMeters>
          </Trackpoint>
          <Trackpoint>
            <Time>2021-07-29T10:24:23.000Z</Time>
            <Position>
              <LatitudeDegrees>41.91885874606668949127197265625</LatitudeDegrees>
              <LongitudeDegrees>-2.767865359783172607421875</LongitudeDegrees>
            </Position>
            <AltitudeMeters>1133.800048828125</AltitudeMeters>
            <DistanceMeters>192158.52388038</DistanceMeters>
          </Trackpoint>
          <Trackpoint>
            <Time>2021-07-29T10:24:39.000Z</Time>
            <Position>
              <LatitudeDegrees>41.9193858839571475982666015625</LatitudeDegrees>
              <LongitudeDegrees>-2.7681578882038593292236328125</LongitudeDegrees>
            </Position>
            <AltitudeMeters>1134.5999755859375</AltitudeMeters>
            <DistanceMeters>192222.00044527</DistanceMeters>
          </Trackpoint>
          <Trackpoint>
            <Time>2021-07-29T10:24:41.000Z</Time>
            <Position>
              <LatitudeDegrees>41.919449083507061004638671875</LatitudeDegrees>
              <LongitudeDegrees>-2.76821044273674488067626953125</LongitudeDegrees>
            </Position>
            <AltitudeMeters>1135</AltitudeMeters>
            <DistanceMeters>192230.27213731</DistanceMeters>
          </Trackpoint>
          <Trackpoint>
            <Time>2021-07-29T10:24:56.000Z</Time>
            <Position>
              <LatitudeDegrees>41.9199186377227306365966796875</LatitudeDegrees>
              <LongitudeDegrees>-2.7685917355120182037353515625</LongitudeDegrees>
            </Position>
            <AltitudeMeters>1135.800048828125</AltitudeMeters>
            <DistanceMeters>192291.33373378</DistanceMeters>
          </Trackpoint>
          <Trackpoint>
            <Time>2021-07-29T10:25:00.000Z</Time>
            <Position>
              <LatitudeDegrees>41.92004143260419368743896484375</LatitudeDegrees>
              <LongitudeDegrees>-2.76869483292102813720703125</LongitudeDegrees>
            </Position>
            <AltitudeMeters>1136</AltitudeMeters>
            <DistanceMeters>192307.44909907</DistanceMeters>
          </Trackpoint>
          <Trackpoint>
            <Time>2021-07-29T10:25:03.000Z</Time>
            <Position>
              <LatitudeDegrees>41.92013497464358806610107421875</LatitudeDegrees>
              <LongitudeDegrees>-2.76876859366893768310546875</LongitudeDegrees>
            </Position>
            <AltitudeMeters>1136.199951171875</AltitudeMeters>
            <DistanceMeters>192319.52011036</DistanceMeters>
          </Trackpoint>
          <Trackpoint>
            <Time>2021-07-29T10:25:18.000Z</Time>
            <Position>
              <LatitudeDegrees>41.92060553468763828277587890625</LatitudeDegrees>
              <LongitudeDegrees>-2.7691407501697540283203125</LongitudeDegrees>
            </Position>
            <AltitudeMeters>1137</AltitudeMeters>
            <DistanceMeters>192380.28997281</DistanceMeters>
          </Trackpoint>
          <Trackpoint>
            <Time>2021-07-29T10:25:20.000Z</Time>
            <Position>
              <LatitudeDegrees>41.92066739313304424285888671875</LatitudeDegrees>
              <LongitudeDegrees>-2.7691918797791004180908203125</LongitudeDegrees>
            </Position>
            <AltitudeMeters>1137.199951171875</AltitudeMeters>
            <DistanceMeters>192388.3722728</DistanceMeters>
          </Trackpoint>
          <Trackpoint>
            <Time>2021-07-29T10:25:35.000Z</Time>
            <Position>
              <LatitudeDegrees>41.92113527096807956695556640625</LatitudeDegrees>
              <LongitudeDegrees>-2.7695603482425212860107421875</LongitudeDegrees>
            </Position>
            <AltitudeMeters>1138.199951171875</AltitudeMeters>
            <DistanceMeters>192448.72994745</DistanceMeters>
          </Trackpoint>
          <Trackpoint>
            <Time>2021-07-29T10:25:40.000Z</Time>
            <Position>
              <LatitudeDegrees>41.921291090548038482666015625</LatitudeDegrees>
              <LongitudeDegrees>-2.7696664631366729736328125</LongitudeDegrees>
            </Position>
            <AltitudeMeters>1138.5999755859375</AltitudeMeters>
            <DistanceMeters>192468.17260828</DistanceMeters>
          </Trackpoint>
          <Trackpoint>
            <Time>2021-07-29T10:25:55.000Z</Time>
            <Position>
              <LatitudeDegrees>41.92176491953432559967041015625</LatitudeDegrees>
              <LongitudeDegrees>-2.77005110867321491241455078125</LongitudeDegrees>
            </Position>
            <AltitudeMeters>1138.800048828125</AltitudeMeters>
            <DistanceMeters>192529.78451797</DistanceMeters>
          </Trackpoint>
          <Trackpoint>
            <Time>2021-07-29T10:25:56.000Z</Time>
            <Position>
              <LatitudeDegrees>41.9217955134809017181396484375</LatitudeDegrees>
              <LongitudeDegrees>-2.77007885277271270751953125</LongitudeDegrees>
            </Position>
            <AltitudeMeters>1138.800048828125</AltitudeMeters>
            <DistanceMeters>192533.8916073</DistanceMeters>
          </Trackpoint>
          <Trackpoint>
            <Time>2021-07-29T10:26:09.000Z</Time>
            <Position>
              <LatitudeDegrees>41.9222082383930683135986328125</LatitudeDegrees>
              <LongitudeDegrees>-2.7704139612615108489990234375</LongitudeDegrees>
            </Position>
            <AltitudeMeters>1139.5999755859375</AltitudeMeters>
            <DistanceMeters>192587.56075732</DistanceMeters>
          </Trackpoint>
          <Trackpoint>
            <Time>2021-07-29T10:26:25.000Z</Time>
            <Position>
              <LatitudeDegrees>41.92269212566316127777099609375</LatitudeDegrees>
              <LongitudeDegrees>-2.77080816216766834259033203125</LongitudeDegrees>
            </Position>
            <AltitudeMeters>1140</AltitudeMeters>
            <DistanceMeters>192650.53988702</DistanceMeters>
          </Trackpoint>
          <Trackpoint>
            <Time>2021-07-29T10:26:33.000Z</Time>
            <Position>
              <LatitudeDegrees>41.92294366657733917236328125</LatitudeDegrees>
              <LongitudeDegrees>-2.7710102498531341552734375</LongitudeDegrees>
            </Position>
            <AltitudeMeters>1140.800048828125</AltitudeMeters>
            <DistanceMeters>192683.15772886</DistanceMeters>
          </Trackpoint>
          <Trackpoint>
            <Time>2021-07-29T10:26:48.000Z</Time>
            <Position>
              <LatitudeDegrees>41.923420093953609466552734375</LatitudeDegrees>
              <LongitudeDegrees>-2.77139036916196346282958984375</LongitudeDegrees>
            </Position>
            <AltitudeMeters>1141.5999755859375</AltitudeMeters>
            <DistanceMeters>192744.82472192</DistanceMeters>
          </Trackpoint>
          <Trackpoint>
            <Time>2021-07-29T10:26:52.000Z</Time>
            <Position>
              <LatitudeDegrees>41.92354573868215084075927734375</LatitudeDegrees>
              <LongitudeDegrees>-2.771492712199687957763671875</LongitudeDegrees>
            </Position>
            <AltitudeMeters>1141.800048828125</AltitudeMeters>
            <DistanceMeters>192761.1770497</DistanceMeters>
          </Trackpoint>
          <Trackpoint>
            <Time>2021-07-29T10:27:07.000Z</Time>
            <Position>
              <LatitudeDegrees>41.92402266897261142730712890625</LatitudeDegrees>
              <LongitudeDegrees>-2.77187299914658069610595703125</LongitudeDegrees>
            </Position>
            <AltitudeMeters>1142.199951171875</AltitudeMeters>
            <DistanceMeters>192822.89907697</DistanceMeters>
          </Trackpoint>
          <Trackpoint>
            <Time>2021-07-29T10:27:19.000Z</Time>
            <Position>
              <LatitudeDegrees>41.92439935170114040374755859375</LatitudeDegrees>
              <LongitudeDegrees>-2.772178016602993011474609375</LongitudeDegrees>
            </Position>
            <AltitudeMeters>1143</AltitudeMeters>
            <DistanceMeters>192871.84567625</DistanceMeters>
          </Trackpoint>
          <Trackpoint>
            <Time>2021-07-29T10:27:26.000Z</Time>
            <Position>
              <LatitudeDegrees>41.92462113685905933380126953125</LatitudeDegrees>
              <LongitudeDegrees>-2.77235613204538822174072265625</LongitudeDegrees>
            </Position>
            <AltitudeMeters>1143.5999755859375</AltitudeMeters>
            <DistanceMeters>192900.60173979</DistanceMeters>
          </Trackpoint>
          <Trackpoint>
            <Time>2021-07-29T10:27:41.000Z</Time>
            <Position>
              <LatitudeDegrees>41.92511114291846752166748046875</LatitudeDegrees>
              <LongitudeDegrees>-2.77270750142633914947509765625</LongitudeDegrees>
            </Position>
            <AltitudeMeters>1144</AltitudeMeters>
            <DistanceMeters>192962.41689139</DistanceMeters>
          </Trackpoint>
          <Trackpoint>
            <Time>2021-07-29T10:27:43.000Z</Time>
            <Position>
              <LatitudeDegrees>41.9251784496009349822998046875</LatitudeDegrees>
              <LongitudeDegrees>-2.77274974621832370758056640625</LongitudeDegrees>
            </Position>
            <AltitudeMeters>1144.199951171875</AltitudeMeters>
            <DistanceMeters>192970.68476165</DistanceMeters>
          </Trackpoint>
          <Trackpoint>
            <Time>2021-07-29T10:27:58.000Z</Time>
            <Position>
              <LatitudeDegrees>41.925679855048656463623046875</LatitudeDegrees>
              <LongitudeDegrees>-2.77304244227707386016845703125</LongitudeDegrees>
            </Position>
            <AltitudeMeters>1145.199951171875</AltitudeMeters>
            <DistanceMeters>193031.52850503</DistanceMeters>
          </Trackpoint>
          <Trackpoint>
            <Time>2021-07-29T10:28:00.000Z</Time>
            <Position>
              <LatitudeDegrees>41.9257480837404727935791015625</LatitudeDegrees>
              <LongitudeDegrees>-2.77307881973683834075927734375</LongitudeDegrees>
            </Position>
            <AltitudeMeters>1145.199951171875</AltitudeMeters>
            <DistanceMeters>193039.6980396</DistanceMeters>
          </Trackpoint>
          <Trackpoint>
            <Time>2021-07-29T10:28:08.000Z</Time>
            <Position>
              <LatitudeDegrees>41.92601990886032581329345703125</LatitudeDegrees>
              <LongitudeDegrees>-2.77322315610945224761962890625</LongitudeDegrees>
            </Position>
            <AltitudeMeters>1146.199951171875</AltitudeMeters>
            <DistanceMeters>193072.2280033</DistanceMeters>
          </Trackpoint>
          <Trackpoint>
            <Time>2021-07-29T10:28:23.000Z</Time>
            <Position>
              <LatitudeDegrees>41.9265306182205677032470703125</LatitudeDegrees>
              <LongitudeDegrees>-2.77351618744432926177978515625</LongitudeDegrees>
            </Position>
            <AltitudeMeters>1146.5999755859375</AltitudeMeters>
            <DistanceMeters>193134.0337319</DistanceMeters>
          </Trackpoint>
          <Trackpoint>
            <Time>2021-07-29T10:28:38.000Z</Time>
            <Position>
              <LatitudeDegrees>41.92705255933105945587158203125</LatitudeDegrees>
              <LongitudeDegrees>-2.77381190098822116851806640625</LongitudeDegrees>
            </Position>
            <AltitudeMeters>1147.199951171875</AltitudeMeters>
            <DistanceMeters>193197.07699241</DistanceMeters>
          </Trackpoint>
          <Trackpoint>
            <Time>2021-07-29T10:28:52.000Z</Time>
            <Position>
              <LatitudeDegrees>41.92755245603621006011962890625</LatitudeDegrees>
              <LongitudeDegrees>-2.77410090900957584381103515625</LongitudeDegrees>
            </Position>
            <AltitudeMeters>1147.4000244140625</AltitudeMeters>
            <DistanceMeters>193257.64517445</DistanceMeters>
          </Trackpoint>
          <Trackpoint>
            <Time>2021-07-29T10:28:56.000Z</Time>
            <Position>
              <LatitudeDegrees>41.92769243381917476654052734375</LatitudeDegrees>
              <LongitudeDegrees>-2.774176932871341705322265625</LongitudeDegrees>
            </Position>
            <AltitudeMeters>1147.5999755859375</AltitudeMeters>
            <DistanceMeters>193274.44878895</DistanceMeters>
          </Trackpoint>
          <Trackpoint>
            <Time>2021-07-29T10:29:07.000Z</Time>
            <Position>
              <LatitudeDegrees>41.92808135412633419036865234375</LatitudeDegrees>
              <LongitudeDegrees>-2.774399220943450927734375</LongitudeDegrees>
            </Position>
            <AltitudeMeters>1148</AltitudeMeters>
            <DistanceMeters>193321.48749249</DistanceMeters>
          </Trackpoint>
          <Trackpoint>
            <Time>2021-07-29T10:29:21.000Z</Time>
            <Position>
              <LatitudeDegrees>41.92859952338039875030517578125</LatitudeDegrees>
              <LongitudeDegrees>-2.77465679682791233062744140625</LongitudeDegrees>
            </Position>
            <AltitudeMeters>1148.199951171875</AltitudeMeters>
            <DistanceMeters>193382.97844158</DistanceMeters>
          </Trackpoint>
          <Trackpoint>
            <Time>2021-07-29T10:29:36.000Z</Time>
            <Position>
              <LatitudeDegrees>41.9291430898010730743408203125</LatitudeDegrees>
              <LongitudeDegrees>-2.77467079460620880126953125</LongitudeDegrees>
            </Position>
            <AltitudeMeters>1148.199951171875</AltitudeMeters>
            <DistanceMeters>193443.48964465</DistanceMeters>
          </Trackpoint>
          <Trackpoint>
            <Time>2021-07-29T10:29:42.000Z</Time>
            <Position>
              <LatitudeDegrees>41.92934249527752399444580078125</LatitudeDegrees>
              <LongitudeDegrees>-2.7746193297207355499267578125</LongitudeDegrees>
            </Position>
            <AltitudeMeters>1148.5999755859375</AltitudeMeters>
            <DistanceMeters>193466.08922703</DistanceMeters>
          </Trackpoint>
          <Trackpoint>
            <Time>2021-07-29T10:30:01.000Z</Time>
            <Position>
              <LatitudeDegrees>41.92990441806614398956298828125</LatitudeDegrees>
              <LongitudeDegrees>-2.77461036108434200286865234375</LongitudeDegrees>
            </Position>
            <AltitudeMeters>1149.5999755859375</AltitudeMeters>
            <DistanceMeters>193528.63673152</DistanceMeters>
          </Trackpoint>
          <Trackpoint>
            <Time>2021-07-29T10:30:02.000Z</Time>
            <Position>
              <LatitudeDegrees>41.929949261248111724853515625</LatitudeDegrees>
              <LongitudeDegrees>-2.774619497358798980712890625</LongitudeDegrees>
            </Position>
            <AltitudeMeters>1149.800048828125</AltitudeMeters>
            <DistanceMeters>193533.68478815</DistanceMeters>
          </Trackpoint>
          <Trackpoint>
            <Time>2021-07-29T10:30:16.000Z</Time>
            <Position>
              <LatitudeDegrees>41.93047572858631610870361328125</LatitudeDegrees>
              <LongitudeDegrees>-2.7748972736299037933349609375</LongitudeDegrees>
            </Position>
            <AltitudeMeters>1151</AltitudeMeters>
            <DistanceMeters>193596.63430249</DistanceMeters>
          </Trackpoint>
          <Trackpoint>
            <Time>2021-07-29T10:30:31.000Z</Time>
            <Position>
              <LatitudeDegrees>41.93098668940365314483642578125</LatitudeDegrees>
              <LongitudeDegrees>-2.77527152560651302337646484375</LongitudeDegrees>
            </Position>
            <AltitudeMeters>1151.4000244140625</AltitudeMeters>
            <DistanceMeters>193661.40042874</DistanceMeters>
          </Trackpoint>
          <Trackpoint>
            <Time>2021-07-29T10:30:45.000Z</Time>
            <Position>
              <LatitudeDegrees>41.9314464367926120758056640625</LatitudeDegrees>
              <LongitudeDegrees>-2.7756397426128387451171875</LongitudeDegrees>
            </Position>
            <AltitudeMeters>1152.199951171875</AltitudeMeters>
            <DistanceMeters>193720.96588397</DistanceMeters>
          </Trackpoint>
          <Trackpoint>
            <Time>2021-07-29T10:31:00.000Z</Time>
            <Position>
              <LatitudeDegrees>41.931921355426311492919921875</LatitudeDegrees>
              <LongitudeDegrees>-2.776022292673587799072265625</LongitudeDegrees>
            </Position>
            <AltitudeMeters>1153</AltitudeMeters>
            <DistanceMeters>193782.58951764</DistanceMeters>
          </Trackpoint>
          <Trackpoint>
            <Time>2021-07-29T10:31:01.000Z</Time>
            <Position>
              <LatitudeDegrees>41.93195144645869731903076171875</LatitudeDegrees>
              <LongitudeDegrees>-2.77605020441114902496337890625</LongitudeDegrees>
            </Position>
            <AltitudeMeters>1153.199951171875</AltitudeMeters>
            <DistanceMeters>193786.66127652</DistanceMeters>
          </Trackpoint>
          <Trackpoint>
            <Time>2021-07-29T10:31:12.000Z</Time>
            <Position>
              <LatitudeDegrees>41.93226191215217113494873046875</LatitudeDegrees>
              <LongitudeDegrees>-2.77638581581413745880126953125</LongitudeDegrees>
            </Position>
            <AltitudeMeters>1154.4000244140625</AltitudeMeters>
            <DistanceMeters>193831.00455375</DistanceMeters>
          </Trackpoint>
          <Trackpoint>
            <Time>2021-07-29T10:31:28.000Z</Time>
            <Position>
              <LatitudeDegrees>41.93267874419689178466796875</LatitudeDegrees>
              <LongitudeDegrees>-2.7769122831523418426513671875</LongitudeDegrees>
            </Position>
            <AltitudeMeters>1154.800048828125</AltitudeMeters>
            <DistanceMeters>193894.66543136</DistanceMeters>
          </Trackpoint>
          <Trackpoint>
            <Time>2021-07-29T10:31:43.000Z</Time>
            <Position>
              <LatitudeDegrees>41.93306355737149715423583984375</LatitudeDegrees>
              <LongitudeDegrees>-2.777341268956661224365234375</LongitudeDegrees>
            </Position>
            <AltitudeMeters>1155.4000244140625</AltitudeMeters>
            <DistanceMeters>193950.30842113</DistanceMeters>
          </Trackpoint>
          <Trackpoint>
            <Time>2021-07-29T10:32:00.000Z</Time>
            <Position>
              <LatitudeDegrees>41.93357300944626331329345703125</LatitudeDegrees>
              <LongitudeDegrees>-2.77763991616666316986083984375</LongitudeDegrees>
            </Position>
            <AltitudeMeters>1156.199951171875</AltitudeMeters>
            <DistanceMeters>194012.16884156</DistanceMeters>
          </Trackpoint>
          <Trackpoint>
            <Time>2021-07-29T10:32:16.000Z</Time>
            <Position>
              <LatitudeDegrees>41.93413996137678623199462890625</LatitudeDegrees>
              <LongitudeDegrees>-2.77774670161306858062744140625</LongitudeDegrees>
            </Position>
            <AltitudeMeters>1156.4000244140625</AltitudeMeters>
            <DistanceMeters>194075.88813315</DistanceMeters>
          </Trackpoint>
          <Trackpoint>
            <Time>2021-07-29T10:32:21.000Z</Time>
            <Position>
              <LatitudeDegrees>41.9343222677707672119140625</LatitudeDegrees>
              <LongitudeDegrees>-2.77779330499470233917236328125</LongitudeDegrees>
            </Position>
            <AltitudeMeters>1156.5999755859375</AltitudeMeters>
            <DistanceMeters>194096.5428404</DistanceMeters>
          </Trackpoint>
          <Trackpoint>
            <Time>2021-07-29T10:32:36.000Z</Time>
            <Position>
              <LatitudeDegrees>41.93488393910229206085205078125</LatitudeDegrees>
              <LongitudeDegrees>-2.77795054949820041656494140625</LongitudeDegrees>
            </Position>
            <AltitudeMeters>1157.4000244140625</AltitudeMeters>
            <DistanceMeters>194160.39937835</DistanceMeters>
          </Trackpoint>
          <Trackpoint>
            <Time>2021-07-29T10:32:43.000Z</Time>
            <Position>
              <LatitudeDegrees>41.93516381084918975830078125</LatitudeDegrees>
              <LongitudeDegrees>-2.7780295908451080322265625</LongitudeDegrees>
            </Position>
            <AltitudeMeters>1157.800048828125</AltitudeMeters>
            <DistanceMeters>194192.22978169</DistanceMeters>
          </Trackpoint>
          <Trackpoint>
            <Time>2021-07-29T10:32:51.000Z</Time>
            <Position>
              <LatitudeDegrees>41.93546832539141178131103515625</LatitudeDegrees>
              <LongitudeDegrees>-2.7781176008284091949462890625</LongitudeDegrees>
            </Position>
            <AltitudeMeters>1158.800048828125</AltitudeMeters>
            <DistanceMeters>194226.89708479</DistanceMeters>
          </Trackpoint>
          <Trackpoint>
            <Time>2021-07-29T10:32:53.000Z</Time>
            <Position>
              <LatitudeDegrees>41.93554325960576534271240234375</LatitudeDegrees>
              <LongitudeDegrees>-2.77813595719635486602783203125</LongitudeDegrees>
            </Position>
            <AltitudeMeters>1159</AltitudeMeters>
            <DistanceMeters>194235.3747247</DistanceMeters>
          </Trackpoint>
          <Trackpoint>
            <Time>2021-07-29T10:33:03.000Z</Time>
            <Position>
              <LatitudeDegrees>41.93590946495532989501953125</LatitudeDegrees>
              <LongitudeDegrees>-2.7782319299876689910888671875</LongitudeDegrees>
            </Position>
            <AltitudeMeters>1160</AltitudeMeters>
            <DistanceMeters>194276.90161633</DistanceMeters>
          </Trackpoint>
          <Trackpoint>
            <Time>2021-07-29T10:33:18.000Z</Time>
            <Position>
              <LatitudeDegrees>41.93645931780338287353515625</LatitudeDegrees>
              <LongitudeDegrees>-2.77838624082505702972412109375</LongitudeDegrees>
            </Position>
            <AltitudeMeters>1161</AltitudeMeters>
            <DistanceMeters>194339.42074539</DistanceMeters>
          </Trackpoint>
          <Trackpoint>
            <Time>2021-07-29T10:33:19.000Z</Time>
            <Position>
              <LatitudeDegrees>41.9364956952631473541259765625</LatitudeDegrees>
              <LongitudeDegrees>-2.7783945389091968536376953125</LongitudeDegrees>
            </Position>
            <AltitudeMeters>1161</AltitudeMeters>
            <DistanceMeters>194343.52783473</DistanceMeters>
          </Trackpoint>
          <Trackpoint>
            <Time>2021-07-29T10:33:34.000Z</Time>
            <Position>
              <LatitudeDegrees>41.93703641183674335479736328125</LatitudeDegrees>
              <LongitudeDegrees>-2.77852915227413177490234375</LongitudeDegrees>
            </Position>
            <AltitudeMeters>1161.800048828125</AltitudeMeters>
            <DistanceMeters>194404.73396533</DistanceMeters>
          </Trackpoint>
          <Trackpoint>
            <Time>2021-07-29T10:33:43.000Z</Time>
            <Position>
              <LatitudeDegrees>41.93735626526176929473876953125</LatitudeDegrees>
              <LongitudeDegrees>-2.77861925773322582244873046875</LongitudeDegrees>
            </Position>
            <AltitudeMeters>1162.199951171875</AltitudeMeters>
            <DistanceMeters>194441.1074807</DistanceMeters>
          </Trackpoint>
          <Trackpoint>
            <Time>2021-07-29T10:33:58.000Z</Time>
            <Position>
              <LatitudeDegrees>41.93789036013185977935791015625</LatitudeDegrees>
              <LongitudeDegrees>-2.7787653543055057525634765625</LongitudeDegrees>
            </Position>
            <AltitudeMeters>1163</AltitudeMeters>
            <DistanceMeters>194501.7714515</DistanceMeters>
          </Trackpoint>
          <Trackpoint>
            <Time>2021-07-29T10:34:02.000Z</Time>
            <Position>
              <LatitudeDegrees>41.9380319304764270782470703125</LatitudeDegrees>
              <LongitudeDegrees>-2.77879997156560420989990234375</LongitudeDegrees>
            </Position>
            <AltitudeMeters>1163.199951171875</AltitudeMeters>
            <DistanceMeters>194517.78704769</DistanceMeters>
          </Trackpoint>
          <Trackpoint>
            <Time>2021-07-29T10:34:18.000Z</Time>
            <Position>
              <LatitudeDegrees>41.93858521990478038787841796875</LatitudeDegrees>
              <LongitudeDegrees>-2.7789383567869663238525390625</LongitudeDegrees>
            </Position>
            <AltitudeMeters>1164.199951171875</AltitudeMeters>
            <DistanceMeters>194580.42601684</DistanceMeters>
          </Trackpoint>
          <Trackpoint>
            <Time>2021-07-29T10:34:34.000Z</Time>
            <Position>
              <LatitudeDegrees>41.939135491847991943359375</LatitudeDegrees>
              <LongitudeDegrees>-2.77909568510949611663818359375</LongitudeDegrees>
            </Position>
            <AltitudeMeters>1165</AltitudeMeters>
            <DistanceMeters>194643.04213235</DistanceMeters>
          </Trackpoint>
          <Trackpoint>
            <Time>2021-07-29T10:34:44.000Z</Time>
            <Position>
              <LatitudeDegrees>41.9394709356129169464111328125</LatitudeDegrees>
              <LongitudeDegrees>-2.779173217713832855224609375</LongitudeDegrees>
            </Position>
            <AltitudeMeters>1165.4000244140625</AltitudeMeters>
            <DistanceMeters>194680.92550666</DistanceMeters>
          </Trackpoint>
          <Trackpoint>
            <Time>2021-07-29T10:34:59.000Z</Time>
            <Position>
              <LatitudeDegrees>41.94002372212707996368408203125</LatitudeDegrees>
              <LongitudeDegrees>-2.77928545139729976654052734375</LongitudeDegrees>
            </Position>
            <AltitudeMeters>1166.199951171875</AltitudeMeters>
            <DistanceMeters>194743.14950426</DistanceMeters>
          </Trackpoint>
          <Trackpoint>
            <Time>2021-07-29T10:35:05.000Z</Time>
            <Position>
              <LatitudeDegrees>41.9402219541370868682861328125</LatitudeDegrees>
              <LongitudeDegrees>-2.7793567813932895660400390625</LongitudeDegrees>
            </Position>
            <AltitudeMeters>1166.5999755859375</AltitudeMeters>
            <DistanceMeters>194765.9895462</DistanceMeters>
          </Trackpoint>
          <Trackpoint>
            <Time>2021-07-29T10:35:12.000Z</Time>
            <Position>
              <LatitudeDegrees>41.94050232879817485809326171875</LatitudeDegrees>
              <LongitudeDegrees>-2.77939408086240291595458984375</LongitudeDegrees>
            </Position>
            <AltitudeMeters>1167.5999755859375</AltitudeMeters>
            <DistanceMeters>194797.34807398</DistanceMeters>
          </Trackpoint>
          <Trackpoint>
            <Time>2021-07-29T10:35:27.000Z</Time>
            <Position>
              <LatitudeDegrees>41.94106123410165309906005859375</LatitudeDegrees>
              <LongitudeDegrees>-2.77951545082032680511474609375</LongitudeDegrees>
            </Position>
            <AltitudeMeters>1168</AltitudeMeters>
            <DistanceMeters>194860.36160598</DistanceMeters>
          </Trackpoint>
          <Trackpoint>
            <Time>2021-07-29T10:35:36.000Z</Time>
            <Position>
              <LatitudeDegrees>41.941364072263240814208984375</LatitudeDegrees>
              <LongitudeDegrees>-2.77958569116890430450439453125</LongitudeDegrees>
            </Position>
            <AltitudeMeters>1168.5999755859375</AltitudeMeters>
            <DistanceMeters>194894.56607548</DistanceMeters>
          </Trackpoint>
          <Trackpoint>
            <Time>2021-07-29T10:35:53.000Z</Time>
            <Position>
              <LatitudeDegrees>41.94192406721413135528564453125</LatitudeDegrees>
              <LongitudeDegrees>-2.779713012278079986572265625</LongitudeDegrees>
            </Position>
            <AltitudeMeters>1169.800048828125</AltitudeMeters>
            <DistanceMeters>194957.77962868</DistanceMeters>
          </Trackpoint>
          <Trackpoint>
            <Time>2021-07-29T10:35:56.000Z</Time>
            <Position>
              <LatitudeDegrees>41.94202364422380924224853515625</LatitudeDegrees>
              <LongitudeDegrees>-2.77974285185337066650390625</LongitudeDegrees>
            </Position>
            <AltitudeMeters>1170</AltitudeMeters>
            <DistanceMeters>194969.13442641</DistanceMeters>
          </Trackpoint>
          <Trackpoint>
            <Time>2021-07-29T10:36:10.000Z</Time>
            <Position>
              <LatitudeDegrees>41.9425001554191112518310546875</LatitudeDegrees>
              <LongitudeDegrees>-2.779830358922481536865234375</LongitudeDegrees>
            </Position>
            <AltitudeMeters>1171</AltitudeMeters>
            <DistanceMeters>195022.66348998</DistanceMeters>
          </Trackpoint>
          <Trackpoint>
            <Time>2021-07-29T10:36:21.000Z</Time>
            <Position>
              <LatitudeDegrees>41.942898966372013092041015625</LatitudeDegrees>
              <LongitudeDegrees>-2.779911495745182037353515625</LongitudeDegrees>
            </Position>
            <AltitudeMeters>1172</AltitudeMeters>
            <DistanceMeters>195067.55715124</DistanceMeters>
          </Trackpoint>
          <Trackpoint>
            <Time>2021-07-29T10:36:36.000Z</Time>
            <Position>
              <LatitudeDegrees>41.9434509985148906707763671875</LatitudeDegrees>
              <LongitudeDegrees>-2.78002046048641204833984375</LongitudeDegrees>
            </Position>
            <AltitudeMeters>1172.199951171875</AltitudeMeters>
            <DistanceMeters>195129.65810878</DistanceMeters>
          </Trackpoint>
          <Trackpoint>
            <Time>2021-07-29T10:36:52.000Z</Time>
            <Position>
              <LatitudeDegrees>41.94398651830852031707763671875</LatitudeDegrees>
              <LongitudeDegrees>-2.780148200690746307373046875</LongitudeDegrees>
            </Position>
            <AltitudeMeters>1172.800048828125</AltitudeMeters>
            <DistanceMeters>195190.19348226</DistanceMeters>
          </Trackpoint>
          <Trackpoint>
            <Time>2021-07-29T10:37:02.000Z</Time>
            <Position>
              <LatitudeDegrees>41.94433269090950489044189453125</LatitudeDegrees>
              <LongitudeDegrees>-2.78024065308272838592529296875</LongitudeDegrees>
            </Position>
            <AltitudeMeters>1173.199951171875</AltitudeMeters>
            <DistanceMeters>195229.47608239</DistanceMeters>
          </Trackpoint>
          <Trackpoint>
            <Time>2021-07-29T10:37:16.000Z</Time>
            <Position>
              <LatitudeDegrees>41.94476972334086894989013671875</LatitudeDegrees>
              <LongitudeDegrees>-2.7803027629852294921875</LongitudeDegrees>
            </Position>
            <AltitudeMeters>1174.199951171875</AltitudeMeters>
            <DistanceMeters>195278.38964712</DistanceMeters>
          </Trackpoint>
          <Trackpoint>
            <Time>2021-07-29T10:37:31.000Z</Time>
            <Position>
              <LatitudeDegrees>41.9453030638396739959716796875</LatitudeDegrees>
              <LongitudeDegrees>-2.7804489433765411376953125</LongitudeDegrees>
            </Position>
            <AltitudeMeters>1175.199951171875</AltitudeMeters>
            <DistanceMeters>195338.97243816</DistanceMeters>
          </Trackpoint>
          <Trackpoint>
            <Time>2021-07-29T10:37:32.000Z</Time>
            <Position>
              <LatitudeDegrees>41.9453436322510242462158203125</LatitudeDegrees>
              <LongitudeDegrees>-2.78045137412846088409423828125</LongitudeDegrees>
            </Position>
            <AltitudeMeters>1175.4000244140625</AltitudeMeters>
            <DistanceMeters>195343.49195505</DistanceMeters>
          </Trackpoint>
          <Trackpoint>
            <Time>2021-07-29T10:37:45.000Z</Time>
            <Position>
              <LatitudeDegrees>41.945851407945156097412109375</LatitudeDegrees>
              <LongitudeDegrees>-2.78051398694515228271484375</LongitudeDegrees>
            </Position>
            <AltitudeMeters>1176.4000244140625</AltitudeMeters>
            <DistanceMeters>195400.24558125</DistanceMeters>
          </Trackpoint>
          <Trackpoint>
            <Time>2021-07-29T10:38:01.000Z</Time>
            <Position>
              <LatitudeDegrees>41.9464161805808544158935546875</LatitudeDegrees>
              <LongitudeDegrees>-2.78063896112143993377685546875</LongitudeDegrees>
            </Position>
            <AltitudeMeters>1177.199951171875</AltitudeMeters>
            <DistanceMeters>195463.95162097</DistanceMeters>
          </Trackpoint>
          <Trackpoint>
            <Time>2021-07-29T10:38:08.000Z</Time>
            <Position>
              <LatitudeDegrees>41.94666336290538311004638671875</LatitudeDegrees>
              <LongitudeDegrees>-2.78068020008504390716552734375</LongitudeDegrees>
            </Position>
            <AltitudeMeters>1177.800048828125</AltitudeMeters>
            <DistanceMeters>195491.67467755</DistanceMeters>
          </Trackpoint>
          <Trackpoint>
            <Time>2021-07-29T10:38:23.000Z</Time>
            <Position>
              <LatitudeDegrees>41.94720651023089885711669921875</LatitudeDegrees>
              <LongitudeDegrees>-2.78075697831809520721435546875</LongitudeDegrees>
            </Position>
            <AltitudeMeters>1178.199951171875</AltitudeMeters>
            <DistanceMeters>195552.46125461</DistanceMeters>
          </Trackpoint>
          <Trackpoint>
            <Time>2021-07-29T10:38:33.000Z</Time>
            <Position>
              <LatitudeDegrees>41.9475232623517513275146484375</LatitudeDegrees>
              <LongitudeDegrees>-2.7808105386793613433837890625</LongitudeDegrees>
            </Position>
            <AltitudeMeters>1179</AltitudeMeters>
            <DistanceMeters>195587.99413077</DistanceMeters>
          </Trackpoint>
          <Trackpoint>
            <Time>2021-07-29T10:38:44.000Z</Time>
            <Position>
              <LatitudeDegrees>41.94791276939213275909423828125</LatitudeDegrees>
              <LongitudeDegrees>-2.78086996637284755706787109375</LongitudeDegrees>
            </Position>
            <AltitudeMeters>1180.199951171875</AltitudeMeters>
            <DistanceMeters>195631.62515798</DistanceMeters>
          </Trackpoint>
          <Trackpoint>
            <Time>2021-07-29T10:38:54.000Z</Time>
            <Position>
              <LatitudeDegrees>41.9482270069420337677001953125</LatitudeDegrees>
              <LongitudeDegrees>-2.78095378540456295013427734375</LongitudeDegrees>
            </Position>
            <AltitudeMeters>1181.199951171875</AltitudeMeters>
            <DistanceMeters>195667.28196201</DistanceMeters>
          </Trackpoint>
          <Trackpoint>
            <Time>2021-07-29T10:39:11.000Z</Time>
            <Position>
              <LatitudeDegrees>41.94878063164651393890380859375</LatitudeDegrees>
              <LongitudeDegrees>-2.78106559999287128448486328125</LongitudeDegrees>
            </Position>
            <AltitudeMeters>1181.800048828125</AltitudeMeters>
            <DistanceMeters>195729.59289956</DistanceMeters>
          </Trackpoint>
          <Trackpoint>
            <Time>2021-07-29T10:39:20.000Z</Time>
            <Position>
              <LatitudeDegrees>41.9490035064518451690673828125</LatitudeDegrees>
              <LongitudeDegrees>-2.78110683895647525787353515625</LongitudeDegrees>
            </Position>
            <AltitudeMeters>1182.4000244140625</AltitudeMeters>
            <DistanceMeters>195754.63311497</DistanceMeters>
          </Trackpoint>
          <Trackpoint>
            <Time>2021-07-29T10:39:38.000Z</Time>
            <Position>
              <LatitudeDegrees>41.9495557062327861785888671875</LatitudeDegrees>
              <LongitudeDegrees>-2.78120608069002628326416015625</LongitudeDegrees>
            </Position>
            <AltitudeMeters>1183.4000244140625</AltitudeMeters>
            <DistanceMeters>195816.64064927</DistanceMeters>
          </Trackpoint>
          <Trackpoint>
            <Time>2021-07-29T10:39:43.000Z</Time>
            <Position>
              <LatitudeDegrees>41.94974840618669986724853515625</LatitudeDegrees>
              <LongitudeDegrees>-2.78122385032474994659423828125</LongitudeDegrees>
            </Position>
            <AltitudeMeters>1183.5999755859375</AltitudeMeters>
            <DistanceMeters>195838.13896019</DistanceMeters>
          </Trackpoint>
          <Trackpoint>
            <Time>2021-07-29T10:39:58.000Z</Time>
            <Position>
              <LatitudeDegrees>41.9503117538988590240478515625</LatitudeDegrees>
              <LongitudeDegrees>-2.78127766214311122894287109375</LongitudeDegrees>
            </Position>
            <AltitudeMeters>1184.4000244140625</AltitudeMeters>
            <DistanceMeters>195900.99882648</DistanceMeters>
          </Trackpoint>
          <Trackpoint>
            <Time>2021-07-29T10:40:05.000Z</Time>
            <Position>
              <LatitudeDegrees>41.9505715928971767425537109375</LatitudeDegrees>
              <LongitudeDegrees>-2.78134086169302463531494140625</LongitudeDegrees>
            </Position>
            <AltitudeMeters>1184.800048828125</AltitudeMeters>
            <DistanceMeters>195930.38867051</DistanceMeters>
          </Trackpoint>
          <Trackpoint>
            <Time>2021-07-29T10:40:21.000Z</Time>
            <Position>
              <LatitudeDegrees>41.95114566944539546966552734375</LatitudeDegrees>
              <LongitudeDegrees>-2.7814415283501148223876953125</LongitudeDegrees>
            </Position>
            <AltitudeMeters>1185.800048828125</AltitudeMeters>
            <DistanceMeters>195994.8255421</DistanceMeters>
          </Trackpoint>
          <Trackpoint>
            <Time>2021-07-29T10:40:23.000Z</Time>
            <Position>
              <LatitudeDegrees>41.9512309134006500244140625</LatitudeDegrees>
              <LongitudeDegrees>-2.78145267628133296966552734375</LongitudeDegrees>
            </Position>
            <AltitudeMeters>1186.199951171875</AltitudeMeters>
            <DistanceMeters>196004.35857358</DistanceMeters>
          </Trackpoint>
          <Trackpoint>
            <Time>2021-07-29T10:40:37.000Z</Time>
            <Position>
              <LatitudeDegrees>41.9517708756029605865478515625</LatitudeDegrees>
              <LongitudeDegrees>-2.781526856124401092529296875</LongitudeDegrees>
            </Position>
            <AltitudeMeters>1186.5999755859375</AltitudeMeters>
            <DistanceMeters>196064.77030784</DistanceMeters>
          </Trackpoint>
          <Trackpoint>
            <Time>2021-07-29T10:40:46.000Z</Time>
            <Position>
              <LatitudeDegrees>41.9520823471248149871826171875</LatitudeDegrees>
              <LongitudeDegrees>-2.78154822997748851776123046875</LongitudeDegrees>
            </Position>
            <AltitudeMeters>1187.199951171875</AltitudeMeters>
            <DistanceMeters>196099.48290455</DistanceMeters>
          </Trackpoint>
          <Trackpoint>
            <Time>2021-07-29T10:41:02.000Z</Time>
            <Position>
              <LatitudeDegrees>41.95262323133647441864013671875</LatitudeDegrees>
              <LongitudeDegrees>-2.78161142952740192413330078125</LongitudeDegrees>
            </Position>
            <AltitudeMeters>1187.4000244140625</AltitudeMeters>
            <DistanceMeters>196159.91122831</DistanceMeters>
          </Trackpoint>
          <Trackpoint>
            <Time>2021-07-29T10:41:08.000Z</Time>
            <Position>
              <LatitudeDegrees>41.95282288827002048492431640625</LatitudeDegrees>
              <LongitudeDegrees>-2.781608998775482177734375</LongitudeDegrees>
            </Position>
            <AltitudeMeters>1188.199951171875</AltitudeMeters>
            <DistanceMeters>196182.1342774</DistanceMeters>
          </Trackpoint>
          <Trackpoint>
            <Time>2021-07-29T10:41:23.000Z</Time>
            <Position>
              <LatitudeDegrees>41.9533533789217472076416015625</LatitudeDegrees>
              <LongitudeDegrees>-2.78167538344860076904296875</LongitudeDegrees>
            </Position>
            <AltitudeMeters>1189.199951171875</AltitudeMeters>
            <DistanceMeters>196241.43406895</DistanceMeters>
          </Trackpoint>
          <Trackpoint>
            <Time>2021-07-29T10:41:30.000Z</Time>
            <Position>
              <LatitudeDegrees>41.9535991363227367401123046875</LatitudeDegrees>
              <LongitudeDegrees>-2.78174419887363910675048828125</LongitudeDegrees>
            </Position>
            <AltitudeMeters>1190.199951171875</AltitudeMeters>
            <DistanceMeters>196269.37418543</DistanceMeters>
          </Trackpoint>
          <Trackpoint>
            <Time>2021-07-29T10:41:41.000Z</Time>
            <Position>
              <LatitudeDegrees>41.95394195616245269775390625</LatitudeDegrees>
              <LongitudeDegrees>-2.781848050653934478759765625</LongitudeDegrees>
            </Position>
            <AltitudeMeters>1191.4000244140625</AltitudeMeters>
            <DistanceMeters>196308.48711642</DistanceMeters>
          </Trackpoint>
          <Trackpoint>
            <Time>2021-07-29T10:41:54.000Z</Time>
            <Position>
              <LatitudeDegrees>41.9543878734111785888671875</LatitudeDegrees>
              <LongitudeDegrees>-2.78200370259582996368408203125</LongitudeDegrees>
            </Position>
            <AltitudeMeters>1192.4000244140625</AltitudeMeters>
            <DistanceMeters>196359.76360546</DistanceMeters>
          </Trackpoint>
          <Trackpoint>
            <Time>2021-07-29T10:42:12.000Z</Time>
            <Position>
              <LatitudeDegrees>41.95493412204086780548095703125</LatitudeDegrees>
              <LongitudeDegrees>-2.782180644571781158447265625</LongitudeDegrees>
            </Position>
            <AltitudeMeters>1193.4000244140625</AltitudeMeters>
            <DistanceMeters>196422.30129192</DistanceMeters>
          </Trackpoint>
          <Trackpoint>
            <Time>2021-07-29T10:42:13.000Z</Time>
            <Position>
              <LatitudeDegrees>41.95496530272066593170166015625</LatitudeDegrees>
              <LongitudeDegrees>-2.782189361751079559326171875</LongitudeDegrees>
            </Position>
            <AltitudeMeters>1193.800048828125</AltitudeMeters>
            <DistanceMeters>196425.84669266</DistanceMeters>
          </Trackpoint>
          <Trackpoint>
            <Time>2021-07-29T10:42:20.000Z</Time>
            <Position>
              <LatitudeDegrees>41.9551826454699039459228515625</LatitudeDegrees>
              <LongitudeDegrees>-2.7822616137564182281494140625</LongitudeDegrees>
            </Position>
            <AltitudeMeters>1194.800048828125</AltitudeMeters>
            <DistanceMeters>196450.76580655</DistanceMeters>
          </Trackpoint>
          <Trackpoint>
            <Time>2021-07-29T10:42:37.000Z</Time>
            <Position>
              <LatitudeDegrees>41.95570173673331737518310546875</LatitudeDegrees>
              <LongitudeDegrees>-2.78252421878278255462646484375</LongitudeDegrees>
            </Position>
            <AltitudeMeters>1195.4000244140625</AltitudeMeters>
            <DistanceMeters>196512.4951485</DistanceMeters>
          </Trackpoint>
          <Trackpoint>
            <Time>2021-07-29T10:42:41.000Z</Time>
            <Position>
              <LatitudeDegrees>41.9558210112154483795166015625</LatitudeDegrees>
              <LongitudeDegrees>-2.78260116465389728546142578125</LongitudeDegrees>
            </Position>
            <AltitudeMeters>1196</AltitudeMeters>
            <DistanceMeters>196527.21969044</DistanceMeters>
          </Trackpoint>
          <Trackpoint>
            <Time>2021-07-29T10:42:51.000Z</Time>
            <Position>
              <LatitudeDegrees>41.9561194069683551788330078125</LatitudeDegrees>
              <LongitudeDegrees>-2.78279612772166728973388671875</LongitudeDegrees>
            </Position>
            <AltitudeMeters>1197</AltitudeMeters>
            <DistanceMeters>196564.14463109</DistanceMeters>
          </Trackpoint>
          <Trackpoint>
            <Time>2021-07-29T10:43:06.000Z</Time>
            <Position>
              <LatitudeDegrees>41.9565666653215885162353515625</LatitudeDegrees>
              <LongitudeDegrees>-2.78308195061981678009033203125</LongitudeDegrees>
            </Position>
            <AltitudeMeters>1198</AltitudeMeters>
            <DistanceMeters>196619.26094462</DistanceMeters>
          </Trackpoint>
          <Trackpoint>
            <Time>2021-07-29T10:43:22.000Z</Time>
            <Position>
              <LatitudeDegrees>41.95704535581171512603759765625</LatitudeDegrees>
              <LongitudeDegrees>-2.78338068164885044097900390625</LongitudeDegrees>
            </Position>
            <AltitudeMeters>1199</AltitudeMeters>
            <DistanceMeters>196677.99790918</DistanceMeters>
          </Trackpoint>
          <Trackpoint>
            <Time>2021-07-29T10:43:24.000Z</Time>
            <Position>
              <LatitudeDegrees>41.95710754953324794769287109375</LatitudeDegrees>
              <LongitudeDegrees>-2.7834203280508518218994140625</LongitudeDegrees>
            </Position>
            <AltitudeMeters>1199.199951171875</AltitudeMeters>
            <DistanceMeters>196685.65802907</DistanceMeters>
          </Trackpoint>
          <Trackpoint>
            <Time>2021-07-29T10:43:31.000Z</Time>
            <Position>
              <LatitudeDegrees>41.95731441490352153778076171875</LatitudeDegrees>
              <LongitudeDegrees>-2.7835537679493427276611328125</LongitudeDegrees>
            </Position>
            <AltitudeMeters>1200</AltitudeMeters>
            <DistanceMeters>196711.19459111</DistanceMeters>
          </Trackpoint>
          <Trackpoint>
            <Time>2021-07-29T10:43:45.000Z</Time>
            <Position>
              <LatitudeDegrees>41.95771993137896060943603515625</LatitudeDegrees>
              <LongitudeDegrees>-2.78383548371493816375732421875</LongitudeDegrees>
            </Position>
            <AltitudeMeters>1201.4000244140625</AltitudeMeters>
            <DistanceMeters>196761.99665827</DistanceMeters>
          </Trackpoint>
          <Trackpoint>
            <Time>2021-07-29T10:43:54.000Z</Time>
            <Position>
              <LatitudeDegrees>41.95798329077661037445068359375</LatitudeDegrees>
              <LongitudeDegrees>-2.78400488197803497314453125</LongitudeDegrees>
            </Position>
            <AltitudeMeters>1201.800048828125</AltitudeMeters>
            <DistanceMeters>196794.48968118</DistanceMeters>
          </Trackpoint>
          <Trackpoint>
            <Time>2021-07-29T10:44:04.000Z</Time>
            <Position>
              <LatitudeDegrees>41.9582742266356945037841796875</LatitudeDegrees>
              <LongitudeDegrees>-2.78419674374163150787353515625</LongitudeDegrees>
            </Position>
            <AltitudeMeters>1202.4000244140625</AltitudeMeters>
            <DistanceMeters>196830.55554304</DistanceMeters>
          </Trackpoint>
          <Trackpoint>
            <Time>2021-07-29T10:44:16.000Z</Time>
            <Position>
              <LatitudeDegrees>41.95861830376088619232177734375</LatitudeDegrees>
              <LongitudeDegrees>-2.7844201214611530303955078125</LongitudeDegrees>
            </Position>
            <AltitudeMeters>1203.4000244140625</AltitudeMeters>
            <DistanceMeters>196873.08135143</DistanceMeters>
          </Trackpoint>
          <Trackpoint>
            <Time>2021-07-29T10:44:28.000Z</Time>
            <Position>
              <LatitudeDegrees>41.95897051133215427398681640625</LatitudeDegrees>
              <LongitudeDegrees>-2.78465070761740207672119140625</LongitudeDegrees>
            </Position>
            <AltitudeMeters>1204.4000244140625</AltitudeMeters>
            <DistanceMeters>196916.68173712</DistanceMeters>
          </Trackpoint>
          <Trackpoint>
            <Time>2021-07-29T10:44:45.000Z</Time>
            <Position>
              <LatitudeDegrees>41.95946730673313140869140625</LatitudeDegrees>
              <LongitudeDegrees>-2.7849833853542804718017578125</LongitudeDegrees>
            </Position>
            <AltitudeMeters>1205.4000244140625</AltitudeMeters>
            <DistanceMeters>196978.45231767</DistanceMeters>
          </Trackpoint>
          <Trackpoint>
            <Time>2021-07-29T10:44:59.000Z</Time>
            <Position>
              <LatitudeDegrees>41.95988304913043975830078125</LatitudeDegrees>
              <LongitudeDegrees>-2.7852482534945011138916015625</LongitudeDegrees>
            </Position>
            <AltitudeMeters>1206.4000244140625</AltitudeMeters>
            <DistanceMeters>197029.65540619</DistanceMeters>
          </Trackpoint>
          <Trackpoint>
            <Time>2021-07-29T10:45:14.000Z</Time>
            <Position>
              <LatitudeDegrees>41.96029736660420894622802734375</LatitudeDegrees>
              <LongitudeDegrees>-2.78554975055158138275146484375</LongitudeDegrees>
            </Position>
            <AltitudeMeters>1207.5999755859375</AltitudeMeters>
            <DistanceMeters>197082.08828494</DistanceMeters>
          </Trackpoint>
          <Trackpoint>
            <Time>2021-07-29T10:45:27.000Z</Time>
            <Position>
              <LatitudeDegrees>41.96065058000385761260986328125</LatitudeDegrees>
              <LongitudeDegrees>-2.7858333103358745574951171875</LongitudeDegrees>
            </Position>
            <AltitudeMeters>1208.800048828125</AltitudeMeters>
            <DistanceMeters>197127.8738087</DistanceMeters>
          </Trackpoint>
          <Trackpoint>
            <Time>2021-07-29T10:45:38.000Z</Time>
            <Position>
              <LatitudeDegrees>41.96093908511102199554443359375</LatitudeDegrees>
              <LongitudeDegrees>-2.786067165434360504150390625</LongitudeDegrees>
            </Position>
            <AltitudeMeters>1209.800048828125</AltitudeMeters>
            <DistanceMeters>197165.36711638</DistanceMeters>
          </Trackpoint>
          <Trackpoint>
            <Time>2021-07-29T10:45:45.000Z</Time>
            <Position>
              <LatitudeDegrees>41.9611153565347194671630859375</LatitudeDegrees>
              <LongitudeDegrees>-2.78621745295822620391845703125</LongitudeDegrees>
            </Position>
            <AltitudeMeters>1210.800048828125</AltitudeMeters>
            <DistanceMeters>197188.59701819</DistanceMeters>
          </Trackpoint>
          <Trackpoint>
            <Time>2021-07-29T10:45:59.000Z</Time>
            <Position>
              <LatitudeDegrees>41.9614687375724315643310546875</LatitudeDegrees>
              <LongitudeDegrees>-2.78650931082665920257568359375</LongitudeDegrees>
            </Position>
            <AltitudeMeters>1211.5999755859375</AltitudeMeters>
            <DistanceMeters>197234.75418443</DistanceMeters>
          </Trackpoint>
          <Trackpoint>
            <Time>2021-07-29T10:46:07.000Z</Time>
            <Position>
              <LatitudeDegrees>41.961669065058231353759765625</LatitudeDegrees>
              <LongitudeDegrees>-2.78666119091212749481201171875</LongitudeDegrees>
            </Position>
            <AltitudeMeters>1212.5999755859375</AltitudeMeters>
            <DistanceMeters>197260.35043741</DistanceMeters>
          </Trackpoint>
          <Trackpoint>
            <Time>2021-07-29T10:46:17.000Z</Time>
            <Position>
              <LatitudeDegrees>41.9619200192391872406005859375</LatitudeDegrees>
              <LongitudeDegrees>-2.78687224723398685455322265625</LongitudeDegrees>
            </Position>
            <AltitudeMeters>1214</AltitudeMeters>
            <DistanceMeters>197293.29443273</DistanceMeters>
          </Trackpoint>
          <Trackpoint>
            <Time>2021-07-29T10:46:32.000Z</Time>
            <Position>
              <LatitudeDegrees>41.962265186011791229248046875</LatitudeDegrees>
              <LongitudeDegrees>-2.7871734090149402618408203125</LongitudeDegrees>
            </Position>
            <AltitudeMeters>1215.199951171875</AltitudeMeters>
            <DistanceMeters>197339.08942234</DistanceMeters>
          </Trackpoint>
          <Trackpoint>
            <Time>2021-07-29T10:46:38.000Z</Time>
            <Position>
              <LatitudeDegrees>41.9624061696231365203857421875</LatitudeDegrees>
              <LongitudeDegrees>-2.78728044591844081878662109375</LongitudeDegrees>
            </Position>
            <AltitudeMeters>1216.199951171875</AltitudeMeters>
            <DistanceMeters>197357.1089531</DistanceMeters>
          </Trackpoint>
          <Trackpoint>
            <Time>2021-07-29T10:46:59.000Z</Time>
            <Position>
              <LatitudeDegrees>41.962900198996067047119140625</LatitudeDegrees>
              <LongitudeDegrees>-2.7875782549381256103515625</LongitudeDegrees>
            </Position>
            <AltitudeMeters>1216.800048828125</AltitudeMeters>
            <DistanceMeters>197417.36668072</DistanceMeters>
          </Trackpoint>
          <Trackpoint>
            <Time>2021-07-29T10:47:13.000Z</Time>
            <Position>
              <LatitudeDegrees>41.96345441043376922607421875</LatitudeDegrees>
              <LongitudeDegrees>-2.7877068333327770233154296875</LongitudeDegrees>
            </Position>
            <AltitudeMeters>1216</AltitudeMeters>
            <DistanceMeters>197479.96267524</DistanceMeters>
          </Trackpoint>
          <Trackpoint>
            <Time>2021-07-29T10:47:14.000Z</Time>
            <Position>
              <LatitudeDegrees>41.96349942125380039215087890625</LatitudeDegrees>
              <LongitudeDegrees>-2.78768512420356273651123046875</LongitudeDegrees>
            </Position>
            <AltitudeMeters>1215.800048828125</AltitudeMeters>
            <DistanceMeters>197485.28586788</DistanceMeters>
          </Trackpoint>
          <Trackpoint>
            <Time>2021-07-29T10:47:20.000Z</Time>
            <Position>
              <LatitudeDegrees>41.96372724138200283050537109375</LatitudeDegrees>
              <LongitudeDegrees>-2.78743417002260684967041015625</LongitudeDegrees>
            </Position>
            <AltitudeMeters>1214.800048828125</AltitudeMeters>
            <DistanceMeters>197518.06278437</DistanceMeters>
          </Trackpoint>
          <Trackpoint>
            <Time>2021-07-29T10:47:24.000Z</Time>
            <Position>
              <LatitudeDegrees>41.96382991969585418701171875</LatitudeDegrees>
              <LongitudeDegrees>-2.78723157942295074462890625</LongitudeDegrees>
            </Position>
            <AltitudeMeters>1214.800048828125</AltitudeMeters>
            <DistanceMeters>197538.35360262</DistanceMeters>
          </Trackpoint>
          <Trackpoint>
            <Time>2021-07-29T10:47:31.000Z</Time>
            <Position>
              <LatitudeDegrees>41.9640641100704669952392578125</LatitudeDegrees>
              <LongitudeDegrees>-2.7869001589715480804443359375</LongitudeDegrees>
            </Position>
            <AltitudeMeters>1214.4000244140625</AltitudeMeters>
            <DistanceMeters>197576.19213775</DistanceMeters>
          </Trackpoint>
          <Trackpoint>
            <Time>2021-07-29T10:47:44.000Z</Time>
            <Position>
              <LatitudeDegrees>41.96451681666076183319091796875</LatitudeDegrees>
              <LongitudeDegrees>-2.786501348018646240234375</LongitudeDegrees>
            </Position>
            <AltitudeMeters>1214.800048828125</AltitudeMeters>
            <DistanceMeters>197636.4269328</DistanceMeters>
          </Trackpoint>
          <Trackpoint>
            <Time>2021-07-29T10:47:58.000Z</Time>
            <Position>
              <LatitudeDegrees>41.9649864546954631805419921875</LatitudeDegrees>
              <LongitudeDegrees>-2.786083929240703582763671875</LongitudeDegrees>
            </Position>
            <AltitudeMeters>1215.199951171875</AltitudeMeters>
            <DistanceMeters>197699.08233411</DistanceMeters>
          </Trackpoint>
          <Trackpoint>
            <Time>2021-07-29T10:48:11.000Z</Time>
            <Position>
              <LatitudeDegrees>41.96544838137924671173095703125</LatitudeDegrees>
              <LongitudeDegrees>-2.78568855486810207366943359375</LongitudeDegrees>
            </Position>
            <AltitudeMeters>1214.800048828125</AltitudeMeters>
            <DistanceMeters>197760.02469303</DistanceMeters>
          </Trackpoint>
          <Trackpoint>
            <Time>2021-07-29T10:48:26.000Z</Time>
            <Position>
              <LatitudeDegrees>41.9658623635768890380859375</LatitudeDegrees>
              <LongitudeDegrees>-2.785151191055774688720703125</LongitudeDegrees>
            </Position>
            <AltitudeMeters>1215</AltitudeMeters>
            <DistanceMeters>197824.06198244</DistanceMeters>
          </Trackpoint>
          <Trackpoint>
            <Time>2021-07-29T10:48:36.000Z</Time>
            <Position>
              <LatitudeDegrees>41.96611038409173488616943359375</LatitudeDegrees>
              <LongitudeDegrees>-2.784815914928913116455078125</LongitudeDegrees>
            </Position>
            <AltitudeMeters>1216.199951171875</AltitudeMeters>
            <DistanceMeters>197863.20168541</DistanceMeters>
          </Trackpoint>
          <Trackpoint>
            <Time>2021-07-29T10:48:51.000Z</Time>
            <Position>
              <LatitudeDegrees>41.96649461053311824798583984375</LatitudeDegrees>
              <LongitudeDegrees>-2.7842791378498077392578125</LongitudeDegrees>
            </Position>
            <AltitudeMeters>1216.199951171875</AltitudeMeters>
            <DistanceMeters>197924.86362632</DistanceMeters>
          </Trackpoint>
          <Trackpoint>
            <Time>2021-07-29T10:49:06.000Z</Time>
            <Position>
              <LatitudeDegrees>41.96688168682157993316650390625</LatitudeDegrees>
              <LongitudeDegrees>-2.78375065885484218597412109375</LongitudeDegrees>
            </Position>
            <AltitudeMeters>1216.199951171875</AltitudeMeters>
            <DistanceMeters>197986.25470829</DistanceMeters>
          </Trackpoint>
          <Trackpoint>
            <Time>2021-07-29T10:49:21.000Z</Time>
            <Position>
              <LatitudeDegrees>41.9672512449324131011962890625</LatitudeDegrees>
              <LongitudeDegrees>-2.7832114510238170623779296875</LongitudeDegrees>
            </Position>
            <AltitudeMeters>1216.800048828125</AltitudeMeters>
            <DistanceMeters>198046.94308625</DistanceMeters>
          </Trackpoint>
          <Trackpoint>
            <Time>2021-07-29T10:49:28.000Z</Time>
            <Position>
              <LatitudeDegrees>41.96742550469934940338134765625</LatitudeDegrees>
              <LongitudeDegrees>-2.7829791046679019927978515625</LongitudeDegrees>
            </Position>
            <AltitudeMeters>1217.199951171875</AltitudeMeters>
            <DistanceMeters>198074.25429959</DistanceMeters>
          </Trackpoint>
          <Trackpoint>
            <Time>2021-07-29T10:49:43.000Z</Time>
            <Position>
              <LatitudeDegrees>41.96778777055442333221435546875</LatitudeDegrees>
              <LongitudeDegrees>-2.78295136056840419769287109375</LongitudeDegrees>
            </Position>
            <AltitudeMeters>1218.5999755859375</AltitudeMeters>
            <DistanceMeters>198114.6405414</DistanceMeters>
          </Trackpoint>
          <Trackpoint>
            <Time>2021-07-29T10:50:00.000Z</Time>
            <Position>
              <LatitudeDegrees>41.96822195313870906829833984375</LatitudeDegrees>
              <LongitudeDegrees>-2.78343893587589263916015625</LongitudeDegrees>
            </Position>
            <AltitudeMeters>1219.199951171875</AltitudeMeters>
            <DistanceMeters>198177.59615205</DistanceMeters>
          </Trackpoint>
          <Trackpoint>
            <Time>2021-07-29T10:50:03.000Z</Time>
            <Position>
              <LatitudeDegrees>41.96830225177109241485595703125</LatitudeDegrees>
              <LongitudeDegrees>-2.7835152111947536468505859375</LongitudeDegrees>
            </Position>
            <AltitudeMeters>1219.5999755859375</AltitudeMeters>
            <DistanceMeters>198188.53784998</DistanceMeters>
          </Trackpoint>
          <Trackpoint>
            <Time>2021-07-29T10:50:15.000Z</Time>
            <Position>
              <LatitudeDegrees>41.968628726899623870849609375</LatitudeDegrees>
              <LongitudeDegrees>-2.78381100855767726898193359375</LongitudeDegrees>
            </Position>
            <AltitudeMeters>1220.5999755859375</AltitudeMeters>
            <DistanceMeters>198232.35103966</DistanceMeters>
          </Trackpoint>
          <Trackpoint>
            <Time>2021-07-29T10:50:32.000Z</Time>
            <Position>
              <LatitudeDegrees>41.9690895639359951019287109375</LatitudeDegrees>
              <LongitudeDegrees>-2.78423328883945941925048828125</LongitudeDegrees>
            </Position>
            <AltitudeMeters>1221.5999755859375</AltitudeMeters>
            <DistanceMeters>198294.41607064</DistanceMeters>
          </Trackpoint>
          <Trackpoint>
            <Time>2021-07-29T10:50:35.000Z</Time>
            <Position>
              <LatitudeDegrees>41.9691707007586956024169921875</LatitudeDegrees>
              <LongitudeDegrees>-2.78430755250155925750732421875</LongitudeDegrees>
            </Position>
            <AltitudeMeters>1221.800048828125</AltitudeMeters>
            <DistanceMeters>198305.33959709</DistanceMeters>
          </Trackpoint>
          <Trackpoint>
            <Time>2021-07-29T10:50:45.000Z</Time>
            <Position>
              <LatitudeDegrees>41.96943246759474277496337890625</LatitudeDegrees>
              <LongitudeDegrees>-2.78454761020839214324951171875</LongitudeDegrees>
            </Position>
            <AltitudeMeters>1223</AltitudeMeters>
            <DistanceMeters>198340.60283158</DistanceMeters>
          </Trackpoint>
          <Trackpoint>
            <Time>2021-07-29T10:51:01.000Z</Time>
            <Position>
              <LatitudeDegrees>41.969865225255489349365234375</LatitudeDegrees>
              <LongitudeDegrees>-2.78493334539234638214111328125</LongitudeDegrees>
            </Position>
            <AltitudeMeters>1224</AltitudeMeters>
            <DistanceMeters>198398.38657554</DistanceMeters>
          </Trackpoint>
          <Trackpoint>
            <Time>2021-07-29T10:51:14.000Z</Time>
            <Position>
              <LatitudeDegrees>41.97021919302642345428466796875</LatitudeDegrees>
              <LongitudeDegrees>-2.78524884022772312164306640625</LongitudeDegrees>
            </Position>
            <AltitudeMeters>1225</AltitudeMeters>
            <DistanceMeters>198445.64954275</DistanceMeters>
          </Trackpoint>
          <Trackpoint>
            <Time>2021-07-29T10:51:28.000Z</Time>
            <Position>
              <LatitudeDegrees>41.970618255436420440673828125</LatitudeDegrees>
              <LongitudeDegrees>-2.7855526842176914215087890625</LongitudeDegrees>
            </Position>
            <AltitudeMeters>1226</AltitudeMeters>
            <DistanceMeters>198496.68906247</DistanceMeters>
          </Trackpoint>
          <Trackpoint>
            <Time>2021-07-29T10:51:36.000Z</Time>
            <Position>
              <LatitudeDegrees>41.97084850631654262542724609375</LatitudeDegrees>
              <LongitudeDegrees>-2.78570163063704967498779296875</LongitudeDegrees>
            </Position>
            <AltitudeMeters>1226.4000244140625</AltitudeMeters>
            <DistanceMeters>198525.1265113</DistanceMeters>
          </Trackpoint>
          <Trackpoint>
            <Time>2021-07-29T10:51:46.000Z</Time>
            <Position>
              <LatitudeDegrees>41.97114254347980022430419921875</LatitudeDegrees>
              <LongitudeDegrees>-2.78588050045073032379150390625</LongitudeDegrees>
            </Position>
            <AltitudeMeters>1227.199951171875</AltitudeMeters>
            <DistanceMeters>198561.04497524</DistanceMeters>
          </Trackpoint>
          <Trackpoint>
            <Time>2021-07-29T10:52:04.000Z</Time>
            <Position>
              <LatitudeDegrees>41.971657611429691314697265625</LatitudeDegrees>
              <LongitudeDegrees>-2.78619482181966304779052734375</LongitudeDegrees>
            </Position>
            <AltitudeMeters>1228.199951171875</AltitudeMeters>
            <DistanceMeters>198623.99771711</DistanceMeters>
          </Trackpoint>
          <Trackpoint>
            <Time>2021-07-29T10:52:21.000Z</Time>
            <Position>
              <LatitudeDegrees>41.97217603214085102081298828125</LatitudeDegrees>
              <LongitudeDegrees>-2.7864435128867626190185546875</LongitudeDegrees>
            </Position>
            <AltitudeMeters>1229.199951171875</AltitudeMeters>
            <DistanceMeters>198685.25892743</DistanceMeters>
          </Trackpoint>
          <Trackpoint>
            <Time>2021-07-29T10:52:38.000Z</Time>
            <Position>
              <LatitudeDegrees>41.9727315008640289306640625</LatitudeDegrees>
              <LongitudeDegrees>-2.786547280848026275634765625</LongitudeDegrees>
            </Position>
            <AltitudeMeters>1230.4000244140625</AltitudeMeters>
            <DistanceMeters>198747.67723037</DistanceMeters>
          </Trackpoint>
          <Trackpoint>
            <Time>2021-07-29T10:52:55.000Z</Time>
            <Position>
              <LatitudeDegrees>41.97326567955315113067626953125</LatitudeDegrees>
              <LongitudeDegrees>-2.7863954007625579833984375</LongitudeDegrees>
            </Position>
            <AltitudeMeters>1231.4000244140625</AltitudeMeters>
            <DistanceMeters>198808.44620125</DistanceMeters>
          </Trackpoint>
          <Trackpoint>
            <Time>2021-07-29T10:53:07.000Z</Time>
            <Position>
              <LatitudeDegrees>41.97361730039119720458984375</LatitudeDegrees>
              <LongitudeDegrees>-2.7861887030303478240966796875</LongitudeDegrees>
            </Position>
            <AltitudeMeters>1232.4000244140625</AltitudeMeters>
            <DistanceMeters>198851.15645462</DistanceMeters>
          </Trackpoint>
          <Trackpoint>
            <Time>2021-07-29T10:53:18.000Z</Time>
            <Position>
              <LatitudeDegrees>41.97393572889268398284912109375</LatitudeDegrees>
              <LongitudeDegrees>-2.78600849211215972900390625</LongitudeDegrees>
            </Position>
            <AltitudeMeters>1233.5999755859375</AltitudeMeters>
            <DistanceMeters>198889.60753245</DistanceMeters>
          </Trackpoint>
          <Trackpoint>
            <Time>2021-07-29T10:53:26.000Z</Time>
            <Position>
              <LatitudeDegrees>41.97414829395711421966552734375</LatitudeDegrees>
              <LongitudeDegrees>-2.78589441440999507904052734375</LongitudeDegrees>
            </Position>
            <AltitudeMeters>1234.5999755859375</AltitudeMeters>
            <DistanceMeters>198915.08018725</DistanceMeters>
          </Trackpoint>
          <Trackpoint>
            <Time>2021-07-29T10:53:36.000Z</Time>
            <Position>
              <LatitudeDegrees>41.97439916431903839111328125</LatitudeDegrees>
              <LongitudeDegrees>-2.7857642434537410736083984375</LongitudeDegrees>
            </Position>
            <AltitudeMeters>1235.800048828125</AltitudeMeters>
            <DistanceMeters>198945.00802082</DistanceMeters>
          </Trackpoint>
          <Trackpoint>
            <Time>2021-07-29T10:53:49.000Z</Time>
            <Position>
              <LatitudeDegrees>41.9747061096131801605224609375</LatitudeDegrees>
              <LongitudeDegrees>-2.78558160178363323211669921875</LongitudeDegrees>
            </Position>
            <AltitudeMeters>1236.800048828125</AltitudeMeters>
            <DistanceMeters>198982.36512409</DistanceMeters>
          </Trackpoint>
          <Trackpoint>
            <Time>2021-07-29T10:53:58.000Z</Time>
            <Position>
              <LatitudeDegrees>41.97490467689931392669677734375</LatitudeDegrees>
              <LongitudeDegrees>-2.78547263704240322113037109375</LongitudeDegrees>
            </Position>
            <AltitudeMeters>1237.800048828125</AltitudeMeters>
            <DistanceMeters>199006.23442745</DistanceMeters>
          </Trackpoint>
          <Trackpoint>
            <Time>2021-07-29T10:54:07.000Z</Time>
            <Position>
              <LatitudeDegrees>41.9750998914241790771484375</LatitudeDegrees>
              <LongitudeDegrees>-2.7853669412434101104736328125</LongitudeDegrees>
            </Position>
            <AltitudeMeters>1238.800048828125</AltitudeMeters>
            <DistanceMeters>199029.65615121</DistanceMeters>
          </Trackpoint>
          <Trackpoint>
            <Time>2021-07-29T10:54:19.000Z</Time>
            <Position>
              <LatitudeDegrees>41.975366435945034027099609375</LatitudeDegrees>
              <LongitudeDegrees>-2.78526426292955875396728515625</LongitudeDegrees>
            </Position>
            <AltitudeMeters>1240</AltitudeMeters>
            <DistanceMeters>199060.51570179</DistanceMeters>
          </Trackpoint>
          <Trackpoint>
            <Time>2021-07-29T10:54:29.000Z</Time>
            <Position>
              <LatitudeDegrees>41.975598447024822235107421875</LatitudeDegrees>
              <LongitudeDegrees>-2.7852187491953372955322265625</LongitudeDegrees>
            </Position>
            <AltitudeMeters>1241</AltitudeMeters>
            <DistanceMeters>199086.61225913</DistanceMeters>
          </Trackpoint>
          <Trackpoint>
            <Time>2021-07-29T10:54:30.000Z</Time>
            <Position>
              <LatitudeDegrees>41.975622586905956268310546875</LatitudeDegrees>
              <LongitudeDegrees>-2.78521698899567127227783203125</LongitudeDegrees>
            </Position>
            <AltitudeMeters>1241</AltitudeMeters>
            <DistanceMeters>199089.3033781</DistanceMeters>
          </Trackpoint>
          <Trackpoint>
            <Time>2021-07-29T10:54:40.000Z</Time>
            <Position>
              <LatitudeDegrees>41.9758527539670467376708984375</LatitudeDegrees>
              <LongitudeDegrees>-2.78523241169750690460205078125</LongitudeDegrees>
            </Position>
            <AltitudeMeters>1242.199951171875</AltitudeMeters>
            <DistanceMeters>199114.95337498</DistanceMeters>
          </Trackpoint>
          <Trackpoint>
            <Time>2021-07-29T10:54:52.000Z</Time>
            <Position>
              <LatitudeDegrees>41.9761191308498382568359375</LatitudeDegrees>
              <LongitudeDegrees>-2.78531488962471485137939453125</LongitudeDegrees>
            </Position>
            <AltitudeMeters>1243.199951171875</AltitudeMeters>
            <DistanceMeters>199145.37706469</DistanceMeters>
          </Trackpoint>
          <Trackpoint>
            <Time>2021-07-29T10:55:02.000Z</Time>
            <Position>
              <LatitudeDegrees>41.976348124444484710693359375</LatitudeDegrees>
              <LongitudeDegrees>-2.7854215912520885467529296875</LongitudeDegrees>
            </Position>
            <AltitudeMeters>1244.199951171875</AltitudeMeters>
            <DistanceMeters>199172.35042727</DistanceMeters>
          </Trackpoint>
          <Trackpoint>
            <Time>2021-07-29T10:55:11.000Z</Time>
            <Position>
              <LatitudeDegrees>41.97653747163712978363037109375</LatitudeDegrees>
              <LongitudeDegrees>-2.7855516783893108367919921875</LongitudeDegrees>
            </Position>
            <AltitudeMeters>1245.4000244140625</AltitudeMeters>
            <DistanceMeters>199196.01494123</DistanceMeters>
          </Trackpoint>
          <Trackpoint>
            <Time>2021-07-29T10:55:21.000Z</Time>
            <Position>
              <LatitudeDegrees>41.97671567089855670928955078125</LatitudeDegrees>
              <LongitudeDegrees>-2.785742282867431640625</LongitudeDegrees>
            </Position>
            <AltitudeMeters>1246.199951171875</AltitudeMeters>
            <DistanceMeters>199221.35484407</DistanceMeters>
          </Trackpoint>
          <Trackpoint>
            <Time>2021-07-29T10:55:30.000Z</Time>
            <Position>
              <LatitudeDegrees>41.9768864102661609649658203125</LatitudeDegrees>
              <LongitudeDegrees>-2.78592090122401714324951171875</LongitudeDegrees>
            </Position>
            <AltitudeMeters>1247.199951171875</AltitudeMeters>
            <DistanceMeters>199245.42907025</DistanceMeters>
          </Trackpoint>
          <Trackpoint>
            <Time>2021-07-29T10:55:42.000Z</Time>
            <Position>
              <LatitudeDegrees>41.97711146436631679534912109375</LatitudeDegrees>
              <LongitudeDegrees>-2.78614436276257038116455078125</LongitudeDegrees>
            </Position>
            <AltitudeMeters>1248.199951171875</AltitudeMeters>
            <DistanceMeters>199276.56304728</DistanceMeters>
          </Trackpoint>
          <Trackpoint>
            <Time>2021-07-29T10:55:49.000Z</Time>
            <Position>
              <LatitudeDegrees>41.977245323359966278076171875</LatitudeDegrees>
              <LongitudeDegrees>-2.78627679683268070220947265625</LongitudeDegrees>
            </Position>
            <AltitudeMeters>1249.199951171875</AltitudeMeters>
            <DistanceMeters>199295.05789239</DistanceMeters>
          </Trackpoint>
          <Trackpoint>
            <Time>2021-07-29T10:55:58.000Z</Time>
            <Position>
              <LatitudeDegrees>41.97739644907414913177490234375</LatitudeDegrees>
              <LongitudeDegrees>-2.78644971549510955810546875</LongitudeDegrees>
            </Position>
            <AltitudeMeters>1250</AltitudeMeters>
            <DistanceMeters>199317.14051425</DistanceMeters>
          </Trackpoint>
          <Trackpoint>
            <Time>2021-07-29T10:56:07.000Z</Time>
            <Position>
              <LatitudeDegrees>41.9775479100644588470458984375</LatitudeDegrees>
              <LongitudeDegrees>-2.786633111536502838134765625</LongitudeDegrees>
            </Position>
            <AltitudeMeters>1251</AltitudeMeters>
            <DistanceMeters>199339.82225835</DistanceMeters>
          </Trackpoint>
          <Trackpoint>
            <Time>2021-07-29T10:56:14.000Z</Time>
            <Position>
              <LatitudeDegrees>41.9776682741940021514892578125</LatitudeDegrees>
              <LongitudeDegrees>-2.7867606841027736663818359375</LongitudeDegrees>
            </Position>
            <AltitudeMeters>1252</AltitudeMeters>
            <DistanceMeters>199356.87789913</DistanceMeters>
          </Trackpoint>
          <Trackpoint>
            <Time>2021-07-29T10:56:21.000Z</Time>
            <Position>
              <LatitudeDegrees>41.97779794223606586456298828125</LatitudeDegrees>
              <LongitudeDegrees>-2.786872498691082000732421875</LongitudeDegrees>
            </Position>
            <AltitudeMeters>1253</AltitudeMeters>
            <DistanceMeters>199374.02093964</DistanceMeters>
          </Trackpoint>
          <Trackpoint>
            <Time>2021-07-29T10:56:28.000Z</Time>
            <Position>
              <LatitudeDegrees>41.97790682315826416015625</LatitudeDegrees>
              <LongitudeDegrees>-2.78699579648673534393310546875</LongitudeDegrees>
            </Position>
            <AltitudeMeters>1253.800048828125</AltitudeMeters>
            <DistanceMeters>199389.8622093</DistanceMeters>
          </Trackpoint>
          <Trackpoint>
            <Time>2021-07-29T10:56:35.000Z</Time>
            <Position>
              <LatitudeDegrees>41.9780236668884754180908203125</LatitudeDegrees>
              <LongitudeDegrees>-2.78710953891277313232421875</LongitudeDegrees>
            </Position>
            <AltitudeMeters>1255</AltitudeMeters>
            <DistanceMeters>199405.91525641</DistanceMeters>
          </Trackpoint>
          <Trackpoint>
            <Time>2021-07-29T10:56:42.000Z</Time>
            <Position>
              <LatitudeDegrees>41.97814059443771839141845703125</LatitudeDegrees>
              <LongitudeDegrees>-2.78723216615617275238037109375</LongitudeDegrees>
            </Position>
            <AltitudeMeters>1255.800048828125</AltitudeMeters>
            <DistanceMeters>199422.41737795</DistanceMeters>
          </Trackpoint>
          <Trackpoint>
            <Time>2021-07-29T10:56:49.000Z</Time>
            <Position>
              <LatitudeDegrees>41.97825207374989986419677734375</LatitudeDegrees>
              <LongitudeDegrees>-2.78735504485666751861572265625</LongitudeDegrees>
            </Position>
            <AltitudeMeters>1257</AltitudeMeters>
            <DistanceMeters>199438.4586079</DistanceMeters>
          </Trackpoint>
          <Trackpoint>
            <Time>2021-07-29T10:56:56.000Z</Time>
            <Position>
              <LatitudeDegrees>41.97836137376725673675537109375</LatitudeDegrees>
              <LongitudeDegrees>-2.7874707989394664764404296875</LongitudeDegrees>
            </Position>
            <AltitudeMeters>1257.800048828125</AltitudeMeters>
            <DistanceMeters>199453.94213138</DistanceMeters>
          </Trackpoint>
          <Trackpoint>
            <Time>2021-07-29T10:57:06.000Z</Time>
            <Position>
              <LatitudeDegrees>41.97852708399295806884765625</LatitudeDegrees>
              <LongitudeDegrees>-2.78762988746166229248046875</LongitudeDegrees>
            </Position>
            <AltitudeMeters>1259</AltitudeMeters>
            <DistanceMeters>199476.60156974</DistanceMeters>
          </Trackpoint>
          <Trackpoint>
            <Time>2021-07-29T10:57:15.000Z</Time>
            <Position>
              <LatitudeDegrees>41.9786565005779266357421875</LatitudeDegrees>
              <LongitudeDegrees>-2.7877695299685001373291015625</LongitudeDegrees>
            </Position>
            <AltitudeMeters>1259.800048828125</AltitudeMeters>
            <DistanceMeters>199495.06758573</DistanceMeters>
          </Trackpoint>
          <Trackpoint>
            <Time>2021-07-29T10:57:31.000Z</Time>
            <Position>
              <LatitudeDegrees>41.97887987829744815826416015625</LatitudeDegrees>
              <LongitudeDegrees>-2.78806113637983798980712890625</LongitudeDegrees>
            </Position>
            <AltitudeMeters>1260.800048828125</AltitudeMeters>
            <DistanceMeters>199529.71287143</DistanceMeters>
          </Trackpoint>
          <Trackpoint>
            <Time>2021-07-29T10:57:41.000Z</Time>
            <Position>
              <LatitudeDegrees>41.97902656160295009613037109375</LatitudeDegrees>
              <LongitudeDegrees>-2.78824050910770893096923828125</LongitudeDegrees>
            </Position>
            <AltitudeMeters>1261.800048828125</AltitudeMeters>
            <DistanceMeters>199551.77687948</DistanceMeters>
          </Trackpoint>
          <Trackpoint>
            <Time>2021-07-29T10:57:53.000Z</Time>
            <Position>
              <LatitudeDegrees>41.97920878417789936065673828125</LatitudeDegrees>
              <LongitudeDegrees>-2.788461707532405853271484375</LongitudeDegrees>
            </Position>
            <AltitudeMeters>1262.5999755859375</AltitudeMeters>
            <DistanceMeters>199579.09586167</DistanceMeters>
          </Trackpoint>
          <Trackpoint>
            <Time>2021-07-29T10:58:08.000Z</Time>
            <Position>
              <LatitudeDegrees>41.9794442318379878997802734375</LatitudeDegrees>
              <LongitudeDegrees>-2.78873227536678314208984375</LongitudeDegrees>
            </Position>
            <AltitudeMeters>1263.5999755859375</AltitudeMeters>
            <DistanceMeters>199613.56201298</DistanceMeters>
          </Trackpoint>
          <Trackpoint>
            <Time>2021-07-29T10:58:21.000Z</Time>
            <Position>
              <LatitudeDegrees>41.9796289689838886260986328125</LatitudeDegrees>
              <LongitudeDegrees>-2.78895766474306583404541015625</LongitudeDegrees>
            </Position>
            <AltitudeMeters>1264.5999755859375</AltitudeMeters>
            <DistanceMeters>199641.32087613</DistanceMeters>
          </Trackpoint>
          <Trackpoint>
            <Time>2021-07-29T10:58:28.000Z</Time>
            <Position>
              <LatitudeDegrees>41.9797293841838836669921875</LatitudeDegrees>
              <LongitudeDegrees>-2.7890415675938129425048828125</LongitudeDegrees>
            </Position>
            <AltitudeMeters>1265.800048828125</AltitudeMeters>
            <DistanceMeters>199654.47787295</DistanceMeters>
          </Trackpoint>
          <Trackpoint>
            <Time>2021-07-29T10:58:35.000Z</Time>
            <Position>
              <LatitudeDegrees>41.97982502169907093048095703125</LatitudeDegrees>
              <LongitudeDegrees>-2.78913368470966815948486328125</LongitudeDegrees>
            </Position>
            <AltitudeMeters>1266.800048828125</AltitudeMeters>
            <DistanceMeters>199667.56950581</DistanceMeters>
          </Trackpoint>
          <Trackpoint>
            <Time>2021-07-29T10:58:44.000Z</Time>
            <Position>
              <LatitudeDegrees>41.9799478165805339813232421875</LatitudeDegrees>
              <LongitudeDegrees>-2.789240218698978424072265625</LongitudeDegrees>
            </Position>
            <AltitudeMeters>1267.5999755859375</AltitudeMeters>
            <DistanceMeters>199683.83212795</DistanceMeters>
          </Trackpoint>
          <Trackpoint>
            <Time>2021-07-29T10:58:53.000Z</Time>
            <Position>
              <LatitudeDegrees>41.98009441606700420379638671875</LatitudeDegrees>
              <LongitudeDegrees>-2.7893473394215106964111328125</LongitudeDegrees>
            </Position>
            <AltitudeMeters>1268.800048828125</AltitudeMeters>
            <DistanceMeters>199702.40055219</DistanceMeters>
          </Trackpoint>
          <Trackpoint>
            <Time>2021-07-29T10:59:04.000Z</Time>
            <Position>
              <LatitudeDegrees>41.98027982376515865325927734375</LatitudeDegrees>
              <LongitudeDegrees>-2.78947181068360805511474609375</LongitudeDegrees>
            </Position>
            <AltitudeMeters>1269.800048828125</AltitudeMeters>
            <DistanceMeters>199725.4640663</DistanceMeters>
          </Trackpoint>
          <Trackpoint>
            <Time>2021-07-29T10:59:14.000Z</Time>
            <Position>
              <LatitudeDegrees>41.980437152087688446044921875</LatitudeDegrees>
              <LongitudeDegrees>-2.789596617221832275390625</LongitudeDegrees>
            </Position>
            <AltitudeMeters>1270.800048828125</AltitudeMeters>
            <DistanceMeters>199745.79312133</DistanceMeters>
          </Trackpoint>
          <Trackpoint>
            <Time>2021-07-29T10:59:23.000Z</Time>
            <Position>
              <LatitudeDegrees>41.9805788062512874603271484375</LatitudeDegrees>
              <LongitudeDegrees>-2.7897047437727451324462890625</LongitudeDegrees>
            </Position>
            <AltitudeMeters>1271.800048828125</AltitudeMeters>
            <DistanceMeters>199763.92107053</DistanceMeters>
          </Trackpoint>
          <Trackpoint>
            <Time>2021-07-29T10:59:33.000Z</Time>
            <Position>
              <LatitudeDegrees>41.9807410798966884613037109375</LatitudeDegrees>
              <LongitudeDegrees>-2.78982259333133697509765625</LongitudeDegrees>
            </Position>
            <AltitudeMeters>1273</AltitudeMeters>
            <DistanceMeters>199784.44662086</DistanceMeters>
          </Trackpoint>
          <Trackpoint>
            <Time>2021-07-29T10:59:42.000Z</Time>
            <Position>
              <LatitudeDegrees>41.98088985867798328399658203125</LatitudeDegrees>
              <LongitudeDegrees>-2.78992510400712490081787109375</LongitudeDegrees>
            </Position>
            <AltitudeMeters>1274</AltitudeMeters>
            <DistanceMeters>199803.05148287</DistanceMeters>
          </Trackpoint>
          <Trackpoint>
            <Time>2021-07-29T10:59:52.000Z</Time>
            <Position>
              <LatitudeDegrees>41.98105297051370143890380859375</LatitudeDegrees>
              <LongitudeDegrees>-2.7900400198996067047119140625</LongitudeDegrees>
            </Position>
            <AltitudeMeters>1275</AltitudeMeters>
            <DistanceMeters>199823.5451125</DistanceMeters>
          </Trackpoint>
          <Trackpoint>
            <Time>2021-07-29T11:00:02.000Z</Time>
            <Position>
              <LatitudeDegrees>41.98121876455843448638916015625</LatitudeDegrees>
              <LongitudeDegrees>-2.7901657484471797943115234375</LongitudeDegrees>
            </Position>
            <AltitudeMeters>1276</AltitudeMeters>
            <DistanceMeters>199844.72861124</DistanceMeters>
          </Trackpoint>
          <Trackpoint>
            <Time>2021-07-29T11:00:10.000Z</Time>
            <Position>
              <LatitudeDegrees>41.9813482649624347686767578125</LatitudeDegrees>
              <LongitudeDegrees>-2.79025149531662464141845703125</LongitudeDegrees>
            </Position>
            <AltitudeMeters>1277</AltitudeMeters>
            <DistanceMeters>199860.79346681</DistanceMeters>
          </Trackpoint>
          <Trackpoint>
            <Time>2021-07-29T11:00:18.000Z</Time>
            <Position>
              <LatitudeDegrees>41.98147474788129329681396484375</LatitudeDegrees>
              <LongitudeDegrees>-2.7903404273092746734619140625</LongitudeDegrees>
            </Position>
            <AltitudeMeters>1278</AltitudeMeters>
            <DistanceMeters>199876.67800005</DistanceMeters>
          </Trackpoint>
          <Trackpoint>
            <Time>2021-07-29T11:00:27.000Z</Time>
            <Position>
              <LatitudeDegrees>41.981613971292972564697265625</LatitudeDegrees>
              <LongitudeDegrees>-2.79045081697404384613037109375</LongitudeDegrees>
            </Position>
            <AltitudeMeters>1279</AltitudeMeters>
            <DistanceMeters>199894.66517906</DistanceMeters>
          </Trackpoint>
          <Trackpoint>
            <Time>2021-07-29T11:00:33.000Z</Time>
            <Position>
              <LatitudeDegrees>41.98171354830265045166015625</LatitudeDegrees>
              <LongitudeDegrees>-2.79051887802779674530029296875</LongitudeDegrees>
            </Position>
            <AltitudeMeters>1279.800048828125</AltitudeMeters>
            <DistanceMeters>199907.09734655</DistanceMeters>
          </Trackpoint>
          <Trackpoint>
            <Time>2021-07-29T11:00:35.000Z</Time>
            <Position>
              <LatitudeDegrees>41.9817499257624149322509765625</LatitudeDegrees>
              <LongitudeDegrees>-2.79053899459540843963623046875</LongitudeDegrees>
            </Position>
            <AltitudeMeters>1280.199951171875</AltitudeMeters>
            <DistanceMeters>199911.47579973</DistanceMeters>
          </Trackpoint>
          <Trackpoint>
            <Time>2021-07-29T11:00:46.000Z</Time>
            <Position>
              <LatitudeDegrees>41.9819386862218379974365234375</LatitudeDegrees>
              <LongitudeDegrees>-2.790655754506587982177734375</LongitudeDegrees>
            </Position>
            <AltitudeMeters>1281.199951171875</AltitudeMeters>
            <DistanceMeters>199934.59953097</DistanceMeters>
          </Trackpoint>
          <Trackpoint>
            <Time>2021-07-29T11:00:57.000Z</Time>
            <Position>
              <LatitudeDegrees>41.98213239200413227081298828125</LatitudeDegrees>
              <LongitudeDegrees>-2.7907786332070827484130859375</LongitudeDegrees>
            </Position>
            <AltitudeMeters>1282.199951171875</AltitudeMeters>
            <DistanceMeters>199958.43608777</DistanceMeters>
          </Trackpoint>
          <Trackpoint>
            <Time>2021-07-29T11:01:19.000Z</Time>
            <Position>
              <LatitudeDegrees>41.9825572706758975982666015625</LatitudeDegrees>
              <LongitudeDegrees>-2.7909979037940502166748046875</LongitudeDegrees>
            </Position>
            <AltitudeMeters>1283.199951171875</AltitudeMeters>
            <DistanceMeters>200009.0863071</DistanceMeters>
          </Trackpoint>
          <Trackpoint>
            <Time>2021-07-29T11:01:34.000Z</Time>
            <Position>
              <LatitudeDegrees>41.98285155929625034332275390625</LatitudeDegrees>
              <LongitudeDegrees>-2.79113930650055408477783203125</LongitudeDegrees>
            </Position>
            <AltitudeMeters>1284.199951171875</AltitudeMeters>
            <DistanceMeters>200043.86764234</DistanceMeters>
          </Trackpoint>
          <Trackpoint>
            <Time>2021-07-29T11:01:47.000Z</Time>
            <Position>
              <LatitudeDegrees>41.98311810381710529327392578125</LatitudeDegrees>
              <LongitudeDegrees>-2.79125497676432132720947265625</LongitudeDegrees>
            </Position>
            <AltitudeMeters>1285.199951171875</AltitudeMeters>
            <DistanceMeters>200075.03988104</DistanceMeters>
          </Trackpoint>
          <Trackpoint>
            <Time>2021-07-29T11:02:00.000Z</Time>
            <Position>
              <LatitudeDegrees>41.98336972855031490325927734375</LatitudeDegrees>
              <LongitudeDegrees>-2.79136620461940765380859375</LongitudeDegrees>
            </Position>
            <AltitudeMeters>1286</AltitudeMeters>
            <DistanceMeters>200104.51930602</DistanceMeters>
          </Trackpoint>
          <Trackpoint>
            <Time>2021-07-29T11:02:09.000Z</Time>
            <Position>
              <LatitudeDegrees>41.98352940380573272705078125</LatitudeDegrees>
              <LongitudeDegrees>-2.79144876636564731597900390625</LongitudeDegrees>
            </Position>
            <AltitudeMeters>1287.199951171875</AltitudeMeters>
            <DistanceMeters>200123.55882778</DistanceMeters>
          </Trackpoint>
          <Trackpoint>
            <Time>2021-07-29T11:02:15.000Z</Time>
            <Position>
              <LatitudeDegrees>41.98364113457500934600830078125</LatitudeDegrees>
              <LongitudeDegrees>-2.7914874069392681121826171875</LongitudeDegrees>
            </Position>
            <AltitudeMeters>1288.199951171875</AltitudeMeters>
            <DistanceMeters>200136.39974658</DistanceMeters>
          </Trackpoint>
          <Trackpoint>
            <Time>2021-07-29T11:02:25.000Z</Time>
            <Position>
              <LatitudeDegrees>41.9838098622858524322509765625</LatitudeDegrees>
              <LongitudeDegrees>-2.79156611301004886627197265625</LongitudeDegrees>
            </Position>
            <AltitudeMeters>1289.199951171875</AltitudeMeters>
            <DistanceMeters>200156.27646424</DistanceMeters>
          </Trackpoint>
          <Trackpoint>
            <Time>2021-07-29T11:02:31.000Z</Time>
            <Position>
              <LatitudeDegrees>41.9839243590831756591796875</LatitudeDegrees>
              <LongitudeDegrees>-2.7916107885539531707763671875</LongitudeDegrees>
            </Position>
            <AltitudeMeters>1290</AltitudeMeters>
            <DistanceMeters>200169.54554222</DistanceMeters>
          </Trackpoint>
          <Trackpoint>
            <Time>2021-07-29T11:02:34.000Z</Time>
            <Position>
              <LatitudeDegrees>41.98397221975028514862060546875</LatitudeDegrees>
              <LongitudeDegrees>-2.79164607636630535125732421875</LongitudeDegrees>
            </Position>
            <AltitudeMeters>1290.4000244140625</AltitudeMeters>
            <DistanceMeters>200175.61982344</DistanceMeters>
          </Trackpoint>
          <Trackpoint>
            <Time>2021-07-29T11:02:39.000Z</Time>
            <Position>
              <LatitudeDegrees>41.98406090028584003448486328125</LatitudeDegrees>
              <LongitudeDegrees>-2.79168111272156238555908203125</LongitudeDegrees>
            </Position>
            <AltitudeMeters>1291</AltitudeMeters>
            <DistanceMeters>200185.90643784</DistanceMeters>
          </Trackpoint>
          <Trackpoint>
            <Time>2021-07-29T11:02:52.000Z</Time>
            <Position>
              <LatitudeDegrees>41.984298862516880035400390625</LatitudeDegrees>
              <LongitudeDegrees>-2.7917693741619586944580078125</LongitudeDegrees>
            </Position>
            <AltitudeMeters>1292</AltitudeMeters>
            <DistanceMeters>200213.38017129</DistanceMeters>
          </Trackpoint>
          <Trackpoint>
            <Time>2021-07-29T11:03:01.000Z</Time>
            <Position>
              <LatitudeDegrees>41.98446339927613735198974609375</LatitudeDegrees>
              <LongitudeDegrees>-2.79183735139667987823486328125</LongitudeDegrees>
            </Position>
            <AltitudeMeters>1293.199951171875</AltitudeMeters>
            <DistanceMeters>200232.53766061</DistanceMeters>
          </Trackpoint>
          <Trackpoint>
            <Time>2021-07-29T11:03:17.000Z</Time>
            <Position>
              <LatitudeDegrees>41.98476548306643962860107421875</LatitudeDegrees>
              <LongitudeDegrees>-2.7919802628457546234130859375</LongitudeDegrees>
            </Position>
            <AltitudeMeters>1294.199951171875</AltitudeMeters>
            <DistanceMeters>200268.17850632</DistanceMeters>
          </Trackpoint>
          <Trackpoint>
            <Time>2021-07-29T11:03:32.000Z</Time>
            <Position>
              <LatitudeDegrees>41.98505449108779430389404296875</LatitudeDegrees>
              <LongitudeDegrees>-2.792137004435062408447265625</LongitudeDegrees>
            </Position>
            <AltitudeMeters>1295.199951171875</AltitudeMeters>
            <DistanceMeters>200302.86104405</DistanceMeters>
          </Trackpoint>
          <Trackpoint>
            <Time>2021-07-29T11:03:54.000Z</Time>
            <Position>
              <LatitudeDegrees>41.9855361990630626678466796875</LatitudeDegrees>
              <LongitudeDegrees>-2.79236289672553539276123046875</LongitudeDegrees>
            </Position>
            <AltitudeMeters>1296.4000244140625</AltitudeMeters>
            <DistanceMeters>200359.63996312</DistanceMeters>
          </Trackpoint>
          <Trackpoint>
            <Time>2021-07-29T11:04:05.000Z</Time>
            <Position>
              <LatitudeDegrees>41.9858057610690593719482421875</LatitudeDegrees>
              <LongitudeDegrees>-2.79242911376059055328369140625</LongitudeDegrees>
            </Position>
            <AltitudeMeters>1296.4000244140625</AltitudeMeters>
            <DistanceMeters>200390.13880153</DistanceMeters>
          </Trackpoint>
          <Trackpoint>
            <Time>2021-07-29T11:04:26.000Z</Time>
            <Position>
              <LatitudeDegrees>41.98635385371744632720947265625</LatitudeDegrees>
              <LongitudeDegrees>-2.79230003245174884796142578125</LongitudeDegrees>
            </Position>
            <AltitudeMeters>1297</AltitudeMeters>
            <DistanceMeters>200452.07027099</DistanceMeters>
          </Trackpoint>
          <Trackpoint>
            <Time>2021-07-29T11:04:42.000Z</Time>
            <Position>
              <LatitudeDegrees>41.9867438636720180511474609375</LatitudeDegrees>
              <LongitudeDegrees>-2.7919527702033519744873046875</LongitudeDegrees>
            </Position>
            <AltitudeMeters>1297.199951171875</AltitudeMeters>
            <DistanceMeters>200504.12513838</DistanceMeters>
          </Trackpoint>
          <Trackpoint>
            <Time>2021-07-29T11:05:01.000Z</Time>
            <Position>
              <LatitudeDegrees>41.9871190376579761505126953125</LatitudeDegrees>
              <LongitudeDegrees>-2.791412137448787689208984375</LongitudeDegrees>
            </Position>
            <AltitudeMeters>1296.4000244140625</AltitudeMeters>
            <DistanceMeters>200565.31489035</DistanceMeters>
          </Trackpoint>
          <Trackpoint>
            <Time>2021-07-29T11:05:08.000Z</Time>
            <Position>
              <LatitudeDegrees>41.98726329021155834197998046875</LatitudeDegrees>
              <LongitudeDegrees>-2.7912032604217529296875</LongitudeDegrees>
            </Position>
            <AltitudeMeters>1296.199951171875</AltitudeMeters>
            <DistanceMeters>200588.9029634</DistanceMeters>
          </Trackpoint>
          <Trackpoint>
            <Time>2021-07-29T11:05:27.000Z</Time>
            <Position>
              <LatitudeDegrees>41.98769646696746349334716796875</LatitudeDegrees>
              <LongitudeDegrees>-2.79073043726384639739990234375</LongitudeDegrees>
            </Position>
            <AltitudeMeters>1296.4000244140625</AltitudeMeters>
            <DistanceMeters>200650.98865106</DistanceMeters>
          </Trackpoint>
          <Trackpoint>
            <Time>2021-07-29T11:05:44.000Z</Time>
            <Position>
              <LatitudeDegrees>41.98817230761051177978515625</LatitudeDegrees>
              <LongitudeDegrees>-2.79032508842647075653076171875</LongitudeDegrees>
            </Position>
            <AltitudeMeters>1296.5999755859375</AltitudeMeters>
            <DistanceMeters>200713.67445491</DistanceMeters>
          </Trackpoint>
          <Trackpoint>
            <Time>2021-07-29T11:06:01.000Z</Time>
            <Position>
              <LatitudeDegrees>41.988659799098968505859375</LatitudeDegrees>
              <LongitudeDegrees>-2.78998143039643764495849609375</LongitudeDegrees>
            </Position>
            <AltitudeMeters>1296.800048828125</AltitudeMeters>
            <DistanceMeters>200774.93035851</DistanceMeters>
          </Trackpoint>
          <Trackpoint>
            <Time>2021-07-29T11:06:18.000Z</Time>
            <Position>
              <LatitudeDegrees>41.9891897030174732208251953125</LatitudeDegrees>
              <LongitudeDegrees>-2.78981312178075313568115234375</LongitudeDegrees>
            </Position>
            <AltitudeMeters>1296.4000244140625</AltitudeMeters>
            <DistanceMeters>200835.53103333</DistanceMeters>
          </Trackpoint>
          <Trackpoint>
            <Time>2021-07-29T11:06:29.000Z</Time>
            <Position>
              <LatitudeDegrees>41.9895323552191257476806640625</LatitudeDegrees>
              <LongitudeDegrees>-2.78972025029361248016357421875</LongitudeDegrees>
            </Position>
            <AltitudeMeters>1297.5999755859375</AltitudeMeters>
            <DistanceMeters>200874.43516052</DistanceMeters>
          </Trackpoint>
          <Trackpoint>
            <Time>2021-07-29T11:06:41.000Z</Time>
            <Position>
              <LatitudeDegrees>41.98985480703413486480712890625</LatitudeDegrees>
              <LongitudeDegrees>-2.789635173976421356201171875</LongitudeDegrees>
            </Position>
            <AltitudeMeters>1298.5999755859375</AltitudeMeters>
            <DistanceMeters>200911.0084727</DistanceMeters>
          </Trackpoint>
          <Trackpoint>
            <Time>2021-07-29T11:06:46.000Z</Time>
            <Position>
              <LatitudeDegrees>41.98996729217469692230224609375</LatitudeDegrees>
              <LongitudeDegrees>-2.78958924114704132080078125</LongitudeDegrees>
            </Position>
            <AltitudeMeters>1299.5999755859375</AltitudeMeters>
            <DistanceMeters>200924.09217092</DistanceMeters>
          </Trackpoint>
          <Trackpoint>
            <Time>2021-07-29T11:06:57.000Z</Time>
            <Position>
              <LatitudeDegrees>41.99020676314830780029296875</LatitudeDegrees>
              <LongitudeDegrees>-2.78949192725121974945068359375</LongitudeDegrees>
            </Position>
            <AltitudeMeters>1300.5999755859375</AltitudeMeters>
            <DistanceMeters>200951.93483607</DistanceMeters>
          </Trackpoint>
          <Trackpoint>
            <Time>2021-07-29T11:07:03.000Z</Time>
            <Position>
              <LatitudeDegrees>41.99032536707818508148193359375</LatitudeDegrees>
              <LongitudeDegrees>-2.789430655539035797119140625</LongitudeDegrees>
            </Position>
            <AltitudeMeters>1301.800048828125</AltitudeMeters>
            <DistanceMeters>200966.07530928</DistanceMeters>
          </Trackpoint>
          <Trackpoint>
            <Time>2021-07-29T11:07:11.000Z</Time>
            <Position>
              <LatitudeDegrees>41.990486718714237213134765625</LatitudeDegrees>
              <LongitudeDegrees>-2.789326049387454986572265625</LongitudeDegrees>
            </Position>
            <AltitudeMeters>1302.800048828125</AltitudeMeters>
            <DistanceMeters>200986.01009306</DistanceMeters>
          </Trackpoint>
          <Trackpoint>
            <Time>2021-07-29T11:07:22.000Z</Time>
            <Position>
              <LatitudeDegrees>41.9906669296324253082275390625</LatitudeDegrees>
              <LongitudeDegrees>-2.78916453011333942413330078125</LongitudeDegrees>
            </Position>
            <AltitudeMeters>1303.800048828125</AltitudeMeters>
            <DistanceMeters>201010.11093614</DistanceMeters>
          </Trackpoint>
          <Trackpoint>
            <Time>2021-07-29T11:07:33.000Z</Time>
            <Position>
              <LatitudeDegrees>41.99084512889385223388671875</LatitudeDegrees>
              <LongitudeDegrees>-2.78902756981551647186279296875</LongitudeDegrees>
            </Position>
            <AltitudeMeters>1304.800048828125</AltitudeMeters>
            <DistanceMeters>201032.95295481</DistanceMeters>
          </Trackpoint>
          <Trackpoint>
            <Time>2021-07-29T11:07:42.000Z</Time>
            <Position>
              <LatitudeDegrees>41.99098787270486354827880859375</LatitudeDegrees>
              <LongitudeDegrees>-2.78891508467495441436767578125</LongitudeDegrees>
            </Position>
            <AltitudeMeters>1305.800048828125</AltitudeMeters>
            <DistanceMeters>201051.36485585</DistanceMeters>
          </Trackpoint>
          <Trackpoint>
            <Time>2021-07-29T11:07:54.000Z</Time>
            <Position>
              <LatitudeDegrees>41.991176716983318328857421875</LatitudeDegrees>
              <LongitudeDegrees>-2.788780219852924346923828125</LongitudeDegrees>
            </Position>
            <AltitudeMeters>1306.800048828125</AltitudeMeters>
            <DistanceMeters>201075.16103272</DistanceMeters>
          </Trackpoint>
          <Trackpoint>
            <Time>2021-07-29T11:08:03.000Z</Time>
            <Position>
              <LatitudeDegrees>41.991324238479137420654296875</LatitudeDegrees>
              <LongitudeDegrees>-2.78868944384157657623291015625</LongitudeDegrees>
            </Position>
            <AltitudeMeters>1308</AltitudeMeters>
            <DistanceMeters>201093.21610845</DistanceMeters>
          </Trackpoint>
          <Trackpoint>
            <Time>2021-07-29T11:08:20.000Z</Time>
            <Position>
              <LatitudeDegrees>41.99163026176393032073974609375</LatitudeDegrees>
              <LongitudeDegrees>-2.7885808981955051422119140625</LongitudeDegrees>
            </Position>
            <AltitudeMeters>1309</AltitudeMeters>
            <DistanceMeters>201128.4406542</DistanceMeters>
          </Trackpoint>
          <Trackpoint>
            <Time>2021-07-29T11:08:31.000Z</Time>
            <Position>
              <LatitudeDegrees>41.99183193035423755645751953125</LatitudeDegrees>
              <LongitudeDegrees>-2.78857000172138214111328125</LongitudeDegrees>
            </Position>
            <AltitudeMeters>1310</AltitudeMeters>
            <DistanceMeters>201150.90477653</DistanceMeters>
          </Trackpoint>
          <Trackpoint>
            <Time>2021-07-29T11:08:48.000Z</Time>
            <Position>
              <LatitudeDegrees>41.9921314157545566558837890625</LatitudeDegrees>
              <LongitudeDegrees>-2.78860143385827541351318359375</LongitudeDegrees>
            </Position>
            <AltitudeMeters>1311</AltitudeMeters>
            <DistanceMeters>201184.33932877</DistanceMeters>
          </Trackpoint>
          <Trackpoint>
            <Time>2021-07-29T11:09:04.000Z</Time>
            <Position>
              <LatitudeDegrees>41.9924583099782466888427734375</LatitudeDegrees>
              <LongitudeDegrees>-2.788613252341747283935546875</LongitudeDegrees>
            </Position>
            <AltitudeMeters>1312</AltitudeMeters>
            <DistanceMeters>201220.73642116</DistanceMeters>
          </Trackpoint>
          <Trackpoint>
            <Time>2021-07-29T11:09:16.000Z</Time>
            <Position>
              <LatitudeDegrees>41.992693841457366943359375</LatitudeDegrees>
              <LongitudeDegrees>-2.788634039461612701416015625</LongitudeDegrees>
            </Position>
            <AltitudeMeters>1313</AltitudeMeters>
            <DistanceMeters>201247.00782772</DistanceMeters>
          </Trackpoint>
          <Trackpoint>
            <Time>2021-07-29T11:09:24.000Z</Time>
            <Position>
              <LatitudeDegrees>41.9928207434713840484619140625</LatitudeDegrees>
              <LongitudeDegrees>-2.78864334337413311004638671875</LongitudeDegrees>
            </Position>
            <AltitudeMeters>1314</AltitudeMeters>
            <DistanceMeters>201261.1534088</DistanceMeters>
          </Trackpoint>
          <Trackpoint>
            <Time>2021-07-29T11:09:35.000Z</Time>
            <Position>
              <LatitudeDegrees>41.99297471903264522552490234375</LatitudeDegrees>
              <LongitudeDegrees>-2.78865206055343151092529296875</LongitudeDegrees>
            </Position>
            <AltitudeMeters>1315</AltitudeMeters>
            <DistanceMeters>201278.30619139</DistanceMeters>
          </Trackpoint>
          <Trackpoint>
            <Time>2021-07-29T11:09:42.000Z</Time>
            <Position>
              <LatitudeDegrees>41.99308468960225582122802734375</LatitudeDegrees>
              <LongitudeDegrees>-2.7886580117046833038330078125</LongitudeDegrees>
            </Position>
            <AltitudeMeters>1315.800048828125</AltitudeMeters>
            <DistanceMeters>201290.55616324</DistanceMeters>
          </Trackpoint>
          <Trackpoint>
            <Time>2021-07-29T11:09:49.000Z</Time>
            <Position>
              <LatitudeDegrees>41.9931872002780437469482421875</LatitudeDegrees>
              <LongitudeDegrees>-2.78866262175142765045166015625</LongitudeDegrees>
            </Position>
            <AltitudeMeters>1317</AltitudeMeters>
            <DistanceMeters>201301.97203216</DistanceMeters>
          </Trackpoint>
          <Trackpoint>
            <Time>2021-07-29T11:10:00.000Z</Time>
            <Position>
              <LatitudeDegrees>41.99333128519356250762939453125</LatitudeDegrees>
              <LongitudeDegrees>-2.7886670641601085662841796875</LongitudeDegrees>
            </Position>
            <AltitudeMeters>1318</AltitudeMeters>
            <DistanceMeters>201318.01326211</DistanceMeters>
          </Trackpoint>
          <Trackpoint>
            <Time>2021-07-29T11:10:01.000Z</Time>
            <Position>
              <LatitudeDegrees>41.99334494769573211669921875</LatitudeDegrees>
              <LongitudeDegrees>-2.7886657230556011199951171875</LongitudeDegrees>
            </Position>
            <AltitudeMeters>1318.199951171875</AltitudeMeters>
            <DistanceMeters>201319.53665623</DistanceMeters>
          </Trackpoint>
          <Trackpoint>
            <Time>2021-07-29T11:10:30.000Z</Time>
            <Position>
              <LatitudeDegrees>41.9937048666179180145263671875</LatitudeDegrees>
              <LongitudeDegrees>-2.788682989776134490966796875</LongitudeDegrees>
            </Position>
            <AltitudeMeters>1322.4000244140625</AltitudeMeters>
            <DistanceMeters>201359.62171333</DistanceMeters>
          </Trackpoint>
          <Trackpoint>
            <Time>2021-07-29T11:10:40.000Z</Time>
            <Position>
              <LatitudeDegrees>41.99385465122759342193603515625</LatitudeDegrees>
              <LongitudeDegrees>-2.78871827758848667144775390625</LongitudeDegrees>
            </Position>
            <AltitudeMeters>1323.4000244140625</AltitudeMeters>
            <DistanceMeters>201376.54660875</DistanceMeters>
          </Trackpoint>
          <Trackpoint>
            <Time>2021-07-29T11:10:47.000Z</Time>
            <Position>
              <LatitudeDegrees>41.993938051164150238037109375</LatitudeDegrees>
              <LongitudeDegrees>-2.78872163034975528717041015625</LongitudeDegrees>
            </Position>
            <AltitudeMeters>1324.4000244140625</AltitudeMeters>
            <DistanceMeters>201385.83300902</DistanceMeters>
          </Trackpoint>
          <Trackpoint>
            <Time>2021-07-29T11:10:58.000Z</Time>
            <Position>
              <LatitudeDegrees>41.99408364482223987579345703125</LatitudeDegrees>
              <LongitudeDegrees>-2.7887368015944957733154296875</LongitudeDegrees>
            </Position>
            <AltitudeMeters>1325.4000244140625</AltitudeMeters>
            <DistanceMeters>201402.0864667</DistanceMeters>
          </Trackpoint>
          <Trackpoint>
            <Time>2021-07-29T11:11:06.000Z</Time>
            <Position>
              <LatitudeDegrees>41.9942079484462738037109375</LatitudeDegrees>
              <LongitudeDegrees>-2.78873906470835208892822265625</LongitudeDegrees>
            </Position>
            <AltitudeMeters>1326.5999755859375</AltitudeMeters>
            <DistanceMeters>201415.92321779</DistanceMeters>
          </Trackpoint>
          <Trackpoint>
            <Time>2021-07-29T11:11:21.000Z</Time>
            <Position>
              <LatitudeDegrees>41.99440886266529560089111328125</LatitudeDegrees>
              <LongitudeDegrees>-2.78876370750367641448974609375</LongitudeDegrees>
            </Position>
            <AltitudeMeters>1327.5999755859375</AltitudeMeters>
            <DistanceMeters>201438.37809273</DistanceMeters>
          </Trackpoint>
          <Trackpoint>
            <Time>2021-07-29T11:11:34.000Z</Time>
            <Position>
              <LatitudeDegrees>41.99457314796745777130126953125</LatitudeDegrees>
              <LongitudeDegrees>-2.78877560980618000030517578125</LongitudeDegrees>
            </Position>
            <AltitudeMeters>1328.5999755859375</AltitudeMeters>
            <DistanceMeters>201456.68991565</DistanceMeters>
          </Trackpoint>
          <Trackpoint>
            <Time>2021-07-29T11:11:49.000Z</Time>
            <Position>
              <LatitudeDegrees>41.99477196671068668365478515625</LatitudeDegrees>
              <LongitudeDegrees>-2.78880477882921695709228515625</LongitudeDegrees>
            </Position>
            <AltitudeMeters>1329.5999755859375</AltitudeMeters>
            <DistanceMeters>201478.95011364</DistanceMeters>
          </Trackpoint>
          <Trackpoint>
            <Time>2021-07-29T11:11:51.000Z</Time>
            <Position>
              <LatitudeDegrees>41.994800381362438201904296875</LatitudeDegrees>
              <LongitudeDegrees>-2.78880310244858264923095703125</LongitudeDegrees>
            </Position>
            <AltitudeMeters>1330</AltitudeMeters>
            <DistanceMeters>201482.11608661</DistanceMeters>
          </Trackpoint>
          <Trackpoint>
            <Time>2021-07-29T11:11:54.000Z</Time>
            <Position>
              <LatitudeDegrees>41.99483835138380527496337890625</LatitudeDegrees>
              <LongitudeDegrees>-2.7888040244579315185546875</LongitudeDegrees>
            </Position>
            <AltitudeMeters>1330.4000244140625</AltitudeMeters>
            <DistanceMeters>201486.34450847</DistanceMeters>
          </Trackpoint>
          <Trackpoint>
            <Time>2021-07-29T11:12:06.000Z</Time>
            <Position>
              <LatitudeDegrees>41.99498050846159458160400390625</LatitudeDegrees>
              <LongitudeDegrees>-2.7888129092752933502197265625</LongitudeDegrees>
            </Position>
            <AltitudeMeters>1331.4000244140625</AltitudeMeters>
            <DistanceMeters>201502.18406793</DistanceMeters>
          </Trackpoint>
          <Trackpoint>
            <Time>2021-07-29T11:12:21.000Z</Time>
            <Position>
              <LatitudeDegrees>41.99518955312669277191162109375</LatitudeDegrees>
              <LongitudeDegrees>-2.78881550766527652740478515625</LongitudeDegrees>
            </Position>
            <AltitudeMeters>1332.199951171875</AltitudeMeters>
            <DistanceMeters>201525.45203374</DistanceMeters>
          </Trackpoint>
          <Trackpoint>
            <Time>2021-07-29T11:12:33.000Z</Time>
            <Position>
              <LatitudeDegrees>41.99533942155539989471435546875</LatitudeDegrees>
              <LongitudeDegrees>-2.78882506303489208221435546875</LongitudeDegrees>
            </Position>
            <AltitudeMeters>1333.199951171875</AltitudeMeters>
            <DistanceMeters>201542.15133974</DistanceMeters>
          </Trackpoint>
          <Trackpoint>
            <Time>2021-07-29T11:12:42.000Z</Time>
            <Position>
              <LatitudeDegrees>41.99545660056173801422119140625</LatitudeDegrees>
              <LongitudeDegrees>-2.78883830644190311431884765625</LongitudeDegrees>
            </Position>
            <AltitudeMeters>1334.4000244140625</AltitudeMeters>
            <DistanceMeters>201555.23952335</DistanceMeters>
          </Trackpoint>
          <Trackpoint>
            <Time>2021-07-29T11:12:48.000Z</Time>
            <Position>
              <LatitudeDegrees>41.99555265717208385467529296875</LatitudeDegrees>
              <LongitudeDegrees>-2.78884434141218662261962890625</LongitudeDegrees>
            </Position>
            <AltitudeMeters>1335.4000244140625</AltitudeMeters>
            <DistanceMeters>201565.94258598</DistanceMeters>
          </Trackpoint>
          <Trackpoint>
            <Time>2021-07-29T11:12:57.000Z</Time>
            <Position>
              <LatitudeDegrees>41.99568090029060840606689453125</LatitudeDegrees>
              <LongitudeDegrees>-2.7888350374996662139892578125</LongitudeDegrees>
            </Position>
            <AltitudeMeters>1336.4000244140625</AltitudeMeters>
            <DistanceMeters>201580.23708037</DistanceMeters>
          </Trackpoint>
          <Trackpoint>
            <Time>2021-07-29T11:13:09.000Z</Time>
            <Position>
              <LatitudeDegrees>41.99583747424185276031494140625</LatitudeDegrees>
              <LongitudeDegrees>-2.78883327730000019073486328125</LongitudeDegrees>
            </Position>
            <AltitudeMeters>1337.199951171875</AltitudeMeters>
            <DistanceMeters>201597.66457563</DistanceMeters>
          </Trackpoint>
          <Trackpoint>
            <Time>2021-07-29T11:13:17.000Z</Time>
            <Position>
              <LatitudeDegrees>41.99593193829059600830078125</LatitudeDegrees>
              <LongitudeDegrees>-2.78885356150567531585693359375</LongitudeDegrees>
            </Position>
            <AltitudeMeters>1338.4000244140625</AltitudeMeters>
            <DistanceMeters>201608.31180906</DistanceMeters>
          </Trackpoint>
          <Trackpoint>
            <Time>2021-07-29T11:13:23.000Z</Time>
            <Position>
              <LatitudeDegrees>41.99599564075469970703125</LatitudeDegrees>
              <LongitudeDegrees>-2.78884920291602611541748046875</LongitudeDegrees>
            </Position>
            <AltitudeMeters>1339.199951171875</AltitudeMeters>
            <DistanceMeters>201615.41151938</DistanceMeters>
          </Trackpoint>
          <Trackpoint>
            <Time>2021-07-29T11:13:38.000Z</Time>
            <Position>
              <LatitudeDegrees>41.9962459243834018707275390625</LatitudeDegrees>
              <LongitudeDegrees>-2.78886211104691028594970703125</LongitudeDegrees>
            </Position>
            <AltitudeMeters>1340.199951171875</AltitudeMeters>
            <DistanceMeters>201643.28902768</DistanceMeters>
          </Trackpoint>
          <Trackpoint>
            <Time>2021-07-29T11:13:45.000Z</Time>
            <Position>
              <LatitudeDegrees>41.99634843505918979644775390625</LatitudeDegrees>
              <LongitudeDegrees>-2.78888574801385402679443359375</LongitudeDegrees>
            </Position>
            <AltitudeMeters>1341.199951171875</AltitudeMeters>
            <DistanceMeters>201654.86513819</DistanceMeters>
          </Trackpoint>
          <Trackpoint>
            <Time>2021-07-29T11:13:55.000Z</Time>
            <Position>
              <LatitudeDegrees>41.9965168274939060211181640625</LatitudeDegrees>
              <LongitudeDegrees>-2.7888725884258747100830078125</LongitudeDegrees>
            </Position>
            <AltitudeMeters>1342.199951171875</AltitudeMeters>
            <DistanceMeters>201673.63910803</DistanceMeters>
          </Trackpoint>
          <Trackpoint>
            <Time>2021-07-29T11:14:02.000Z</Time>
            <Position>
              <LatitudeDegrees>41.9966090284287929534912109375</LatitudeDegrees>
              <LongitudeDegrees>-2.78889329172670841217041015625</LongitudeDegrees>
            </Position>
            <AltitudeMeters>1343.199951171875</AltitudeMeters>
            <DistanceMeters>201684.04355691</DistanceMeters>
          </Trackpoint>
          <Trackpoint>
            <Time>2021-07-29T11:14:10.000Z</Time>
            <Position>
              <LatitudeDegrees>41.9966995529830455780029296875</LatitudeDegrees>
              <LongitudeDegrees>-2.78890033252537250518798828125</LongitudeDegrees>
            </Position>
            <AltitudeMeters>1344.4000244140625</AltitudeMeters>
            <DistanceMeters>201694.13609189</DistanceMeters>
          </Trackpoint>
          <Trackpoint>
            <Time>2021-07-29T11:14:21.000Z</Time>
            <Position>
              <LatitudeDegrees>41.99683156795799732208251953125</LatitudeDegrees>
              <LongitudeDegrees>-2.788908965885639190673828125</LongitudeDegrees>
            </Position>
            <AltitudeMeters>1345.199951171875</AltitudeMeters>
            <DistanceMeters>201708.84713577</DistanceMeters>
          </Trackpoint>
          <Trackpoint>
            <Time>2021-07-29T11:14:27.000Z</Time>
            <Position>
              <LatitudeDegrees>41.996901892125606536865234375</LatitudeDegrees>
              <LongitudeDegrees>-2.78891709633171558380126953125</LongitudeDegrees>
            </Position>
            <AltitudeMeters>1346.199951171875</AltitudeMeters>
            <DistanceMeters>201716.70280521</DistanceMeters>
          </Trackpoint>
          <Trackpoint>
            <Time>2021-07-29T11:14:39.000Z</Time>
            <Position>
              <LatitudeDegrees>41.997051425278186798095703125</LatitudeDegrees>
              <LongitudeDegrees>-2.7889208681881427764892578125</LongitudeDegrees>
            </Position>
            <AltitudeMeters>1347</AltitudeMeters>
            <DistanceMeters>201733.34903379</DistanceMeters>
          </Trackpoint>
          <Trackpoint>
            <Time>2021-07-29T11:14:48.000Z</Time>
            <Position>
              <LatitudeDegrees>41.9971575401723384857177734375</LatitudeDegrees>
              <LongitudeDegrees>-2.78892748989164829254150390625</LongitudeDegrees>
            </Position>
            <AltitudeMeters>1348</AltitudeMeters>
            <DistanceMeters>201745.172511</DistanceMeters>
          </Trackpoint>
          <Trackpoint>
            <Time>2021-07-29T11:14:59.000Z</Time>
            <Position>
              <LatitudeDegrees>41.99727497063577175140380859375</LatitudeDegrees>
              <LongitudeDegrees>-2.78895062394440174102783203125</LongitudeDegrees>
            </Position>
            <AltitudeMeters>1348.800048828125</AltitudeMeters>
            <DistanceMeters>201758.38156612</DistanceMeters>
          </Trackpoint>
          <Trackpoint>
            <Time>2021-07-29T11:15:08.000Z</Time>
            <Position>
              <LatitudeDegrees>41.99739600531756877899169921875</LatitudeDegrees>
              <LongitudeDegrees>-2.7889527194201946258544921875</LongitudeDegrees>
            </Position>
            <AltitudeMeters>1349.800048828125</AltitudeMeters>
            <DistanceMeters>201771.85392807</DistanceMeters>
          </Trackpoint>
          <Trackpoint>
            <Time>2021-07-29T11:15:19.000Z</Time>
            <Position>
              <LatitudeDegrees>41.99753598310053348541259765625</LatitudeDegrees>
              <LongitudeDegrees>-2.7889540605247020721435546875</LongitudeDegrees>
            </Position>
            <AltitudeMeters>1350.800048828125</AltitudeMeters>
            <DistanceMeters>201787.43425268</DistanceMeters>
          </Trackpoint>
          <Trackpoint>
            <Time>2021-07-29T11:15:27.000Z</Time>
            <Position>
              <LatitudeDegrees>41.99763673357665538787841796875</LatitudeDegrees>
              <LongitudeDegrees>-2.7889520488679409027099609375</LongitudeDegrees>
            </Position>
            <AltitudeMeters>1351.800048828125</AltitudeMeters>
            <DistanceMeters>201798.64901548</DistanceMeters>
          </Trackpoint>
          <Trackpoint>
            <Time>2021-07-29T11:15:38.000Z</Time>
            <Position>
              <LatitudeDegrees>41.99777939356863498687744140625</LatitudeDegrees>
              <LongitudeDegrees>-2.7889557369053363800048828125</LongitudeDegrees>
            </Position>
            <AltitudeMeters>1352.800048828125</AltitudeMeters>
            <DistanceMeters>201814.52985315</DistanceMeters>
          </Trackpoint>
          <Trackpoint>
            <Time>2021-07-29T11:15:46.000Z</Time>
            <Position>
              <LatitudeDegrees>41.997877545654773712158203125</LatitudeDegrees>
              <LongitudeDegrees>-2.78896856121718883514404296875</LongitudeDegrees>
            </Position>
            <AltitudeMeters>1353.800048828125</AltitudeMeters>
            <DistanceMeters>201825.50533581</DistanceMeters>
          </Trackpoint>
          <Trackpoint>
            <Time>2021-07-29T11:15:54.000Z</Time>
            <Position>
              <LatitudeDegrees>41.99798047542572021484375</LatitudeDegrees>
              <LongitudeDegrees>-2.78896990232169628143310546875</LongitudeDegrees>
            </Position>
            <AltitudeMeters>1355</AltitudeMeters>
            <DistanceMeters>201836.96186937</DistanceMeters>
          </Trackpoint>
          <Trackpoint>
            <Time>2021-07-29T11:16:06.000Z</Time>
            <Position>
              <LatitudeDegrees>41.99813160113990306854248046875</LatitudeDegrees>
              <LongitudeDegrees>-2.78898582793772220611572265625</LongitudeDegrees>
            </Position>
            <AltitudeMeters>1356</AltitudeMeters>
            <DistanceMeters>201853.83386184</DistanceMeters>
          </Trackpoint>
          <Trackpoint>
            <Time>2021-07-29T11:16:15.000Z</Time>
            <Position>
              <LatitudeDegrees>41.99826654978096485137939453125</LatitudeDegrees>
              <LongitudeDegrees>-2.7889832295477390289306640625</LongitudeDegrees>
            </Position>
            <AltitudeMeters>1357</AltitudeMeters>
            <DistanceMeters>201868.85529819</DistanceMeters>
          </Trackpoint>
          <Trackpoint>
            <Time>2021-07-29T11:16:28.000Z</Time>
            <Position>
              <LatitudeDegrees>41.99844508431851863861083984375</LatitudeDegrees>
              <LongitudeDegrees>-2.788986079394817352294921875</LongitudeDegrees>
            </Position>
            <AltitudeMeters>1358</AltitudeMeters>
            <DistanceMeters>201888.72792669</DistanceMeters>
          </Trackpoint>
          <Trackpoint>
            <Time>2021-07-29T11:16:30.000Z</Time>
            <Position>
              <LatitudeDegrees>41.99847760610282421112060546875</LatitudeDegrees>
              <LongitudeDegrees>-2.78898532502353191375732421875</LongitudeDegrees>
            </Position>
            <AltitudeMeters>1358.4000244140625</AltitudeMeters>
            <DistanceMeters>201892.34893083</DistanceMeters>
          </Trackpoint>
          <Trackpoint>
            <Time>2021-07-29T11:16:36.000Z</Time>
            <Position>
              <LatitudeDegrees>41.99855555780231952667236328125</LatitudeDegrees>
              <LongitudeDegrees>-2.78899068944156169891357421875</LongitudeDegrees>
            </Position>
            <AltitudeMeters>1358.800048828125</AltitudeMeters>
            <DistanceMeters>201901.03647242</DistanceMeters>
          </Trackpoint>
          <Trackpoint>
            <Time>2021-07-29T11:16:39.000Z</Time>
            <Position>
              <LatitudeDegrees>41.99859461747109889984130859375</LatitudeDegrees>
              <LongitudeDegrees>-2.7889681421220302581787109375</LongitudeDegrees>
            </Position>
            <AltitudeMeters>1359</AltitudeMeters>
            <DistanceMeters>201905.76685606</DistanceMeters>
          </Trackpoint>
          <Trackpoint>
            <Time>2021-07-29T11:16:49.000Z</Time>
            <Position>
              <LatitudeDegrees>41.99871900491416454315185546875</LatitudeDegrees>
              <LongitudeDegrees>-2.78894341550767421722412109375</LongitudeDegrees>
            </Position>
            <AltitudeMeters>1360</AltitudeMeters>
            <DistanceMeters>201919.76193942</DistanceMeters>
          </Trackpoint>
          <Trackpoint>
            <Time>2021-07-29T11:17:00.000Z</Time>
            <Position>
              <LatitudeDegrees>41.998880691826343536376953125</LatitudeDegrees>
              <LongitudeDegrees>-2.78893184848129749298095703125</LongitudeDegrees>
            </Position>
            <AltitudeMeters>1361</AltitudeMeters>
            <DistanceMeters>201937.78347457</DistanceMeters>
          </Trackpoint>
          <Trackpoint>
            <Time>2021-07-29T11:17:13.000Z</Time>
            <Position>
              <LatitudeDegrees>41.99907272122800350189208984375</LatitudeDegrees>
              <LongitudeDegrees>-2.78888172470033168792724609375</LongitudeDegrees>
            </Position>
            <AltitudeMeters>1362.199951171875</AltitudeMeters>
            <DistanceMeters>201959.55517117</DistanceMeters>
          </Trackpoint>
          <Trackpoint>
            <Time>2021-07-29T11:17:24.000Z</Time>
            <Position>
              <LatitudeDegrees>41.9992251880466938018798828125</LatitudeDegrees>
              <LongitudeDegrees>-2.788860686123371124267578125</LongitudeDegrees>
            </Position>
            <AltitudeMeters>1363</AltitudeMeters>
            <DistanceMeters>201976.61398835</DistanceMeters>
          </Trackpoint>
          <Trackpoint>
            <Time>2021-07-29T11:17:34.000Z</Time>
            <Position>
              <LatitudeDegrees>41.999362818896770477294921875</LatitudeDegrees>
              <LongitudeDegrees>-2.788849286735057830810546875</LongitudeDegrees>
            </Position>
            <AltitudeMeters>1364</AltitudeMeters>
            <DistanceMeters>201991.96131756</DistanceMeters>
          </Trackpoint>
          <Trackpoint>
            <Time>2021-07-29T11:17:41.000Z</Time>
            <Position>
              <LatitudeDegrees>41.99944294989109039306640625</LatitudeDegrees>
              <LongitudeDegrees>-2.78882221318781375885009765625</LongitudeDegrees>
            </Position>
            <AltitudeMeters>1365</AltitudeMeters>
            <DistanceMeters>202001.15684016</DistanceMeters>
          </Trackpoint>
          <Trackpoint>
            <Time>2021-07-29T11:17:48.000Z</Time>
            <Position>
              <LatitudeDegrees>41.9995420239865779876708984375</LatitudeDegrees>
              <LongitudeDegrees>-2.78879396617412567138671875</LongitudeDegrees>
            </Position>
            <AltitudeMeters>1365.4000244140625</AltitudeMeters>
            <DistanceMeters>202012.42862686</DistanceMeters>
          </Trackpoint>
          <Trackpoint>
            <Time>2021-07-29T11:17:57.000Z</Time>
            <Position>
              <LatitudeDegrees>41.99966180138289928436279296875</LatitudeDegrees>
              <LongitudeDegrees>-2.7887716703116893768310546875</LongitudeDegrees>
            </Position>
            <AltitudeMeters>1365.800048828125</AltitudeMeters>
            <DistanceMeters>202025.88690585</DistanceMeters>
          </Trackpoint>
          <Trackpoint>
            <Time>2021-07-29T11:18:08.000Z</Time>
            <Position>
              <LatitudeDegrees>41.999796666204929351806640625</LatitudeDegrees>
              <LongitudeDegrees>-2.788756079971790313720703125</LongitudeDegrees>
            </Position>
            <AltitudeMeters>1367</AltitudeMeters>
            <DistanceMeters>202040.95276134</DistanceMeters>
          </Trackpoint>
          <Trackpoint>
            <Time>2021-07-29T11:18:18.000Z</Time>
            <Position>
              <LatitudeDegrees>41.99992398731410503387451171875</LatitudeDegrees>
              <LongitudeDegrees>-2.788722217082977294921875</LongitudeDegrees>
            </Position>
            <AltitudeMeters>1367.800048828125</AltitudeMeters>
            <DistanceMeters>202055.39807222</DistanceMeters>
          </Trackpoint>
          <Trackpoint>
            <Time>2021-07-29T11:18:31.000Z</Time>
            <Position>
              <LatitudeDegrees>42.0000779628753662109375</LatitudeDegrees>
              <LongitudeDegrees>-2.78869933448731899261474609375</LongitudeDegrees>
            </Position>
            <AltitudeMeters>1369</AltitudeMeters>
            <DistanceMeters>202072.64038084</DistanceMeters>
          </Trackpoint>
          <Trackpoint>
            <Time>2021-07-29T11:18:43.000Z</Time>
            <Position>
              <LatitudeDegrees>42.00023814104497432708740234375</LatitudeDegrees>
              <LongitudeDegrees>-2.78866580687463283538818359375</LongitudeDegrees>
            </Position>
            <AltitudeMeters>1370.199951171875</AltitudeMeters>
            <DistanceMeters>202090.68294873</DistanceMeters>
          </Trackpoint>
          <Trackpoint>
            <Time>2021-07-29T11:18:55.000Z</Time>
            <Position>
              <LatitudeDegrees>42.00039337389171123504638671875</LatitudeDegrees>
              <LongitudeDegrees>-2.7886412478983402252197265625</LongitudeDegrees>
            </Position>
            <AltitudeMeters>1371</AltitudeMeters>
            <DistanceMeters>202108.07932714</DistanceMeters>
          </Trackpoint>
          <Trackpoint>
            <Time>2021-07-29T11:19:08.000Z</Time>
            <Position>
              <LatitudeDegrees>42.00054609216749668121337890625</LatitudeDegrees>
              <LongitudeDegrees>-2.78862037695944309234619140625</LongitudeDegrees>
            </Position>
            <AltitudeMeters>1371.800048828125</AltitudeMeters>
            <DistanceMeters>202125.16459129</DistanceMeters>
          </Trackpoint>
          <Trackpoint>
            <Time>2021-07-29T11:19:16.000Z</Time>
            <Position>
              <LatitudeDegrees>42.000654973089694976806640625</LatitudeDegrees>
              <LongitudeDegrees>-2.78859707526862621307373046875</LongitudeDegrees>
            </Position>
            <AltitudeMeters>1372.800048828125</AltitudeMeters>
            <DistanceMeters>202137.43518601</DistanceMeters>
          </Trackpoint>
          <Trackpoint>
            <Time>2021-07-29T11:19:24.000Z</Time>
            <Position>
              <LatitudeDegrees>42.000772655010223388671875</LatitudeDegrees>
              <LongitudeDegrees>-2.78857964091002941131591796875</LongitudeDegrees>
            </Position>
            <AltitudeMeters>1373.800048828125</AltitudeMeters>
            <DistanceMeters>202150.61241409</DistanceMeters>
          </Trackpoint>
          <Trackpoint>
            <Time>2021-07-29T11:19:31.000Z</Time>
            <Position>
              <LatitudeDegrees>42.000869214534759521484375</LatitudeDegrees>
              <LongitudeDegrees>-2.788550890982151031494140625</LongitudeDegrees>
            </Position>
            <AltitudeMeters>1374.800048828125</AltitudeMeters>
            <DistanceMeters>202161.61911685</DistanceMeters>
          </Trackpoint>
          <Trackpoint>
            <Time>2021-07-29T11:19:39.000Z</Time>
            <Position>
              <LatitudeDegrees>42.0009739883244037628173828125</LatitudeDegrees>
              <LongitudeDegrees>-2.788522057235240936279296875</LongitudeDegrees>
            </Position>
            <AltitudeMeters>1375.800048828125</AltitudeMeters>
            <DistanceMeters>202173.52213745</DistanceMeters>
          </Trackpoint>
          <Trackpoint>
            <Time>2021-07-29T11:19:48.000Z</Time>
            <Position>
              <LatitudeDegrees>42.0011087693274021148681640625</LatitudeDegrees>
              <LongitudeDegrees>-2.7884749509394168853759765625</LongitudeDegrees>
            </Position>
            <AltitudeMeters>1376.5999755859375</AltitudeMeters>
            <DistanceMeters>202189.02110817</DistanceMeters>
          </Trackpoint>
          <Trackpoint>
            <Time>2021-07-29T11:19:59.000Z</Time>
            <Position>
              <LatitudeDegrees>42.001244388520717620849609375</LatitudeDegrees>
              <LongitudeDegrees>-2.78842792846262454986572265625</LongitudeDegrees>
            </Position>
            <AltitudeMeters>1377.5999755859375</AltitudeMeters>
            <DistanceMeters>202204.60867587</DistanceMeters>
          </Trackpoint>
          <Trackpoint>
            <Time>2021-07-29T11:20:09.000Z</Time>
            <Position>
              <LatitudeDegrees>42.0013686083257198333740234375</LatitudeDegrees>
              <LongitudeDegrees>-2.7884070575237274169921875</LongitudeDegrees>
            </Position>
            <AltitudeMeters>1378.800048828125</AltitudeMeters>
            <DistanceMeters>202218.54232735</DistanceMeters>
          </Trackpoint>
          <Trackpoint>
            <Time>2021-07-29T11:20:20.000Z</Time>
            <Position>
              <LatitudeDegrees>42.00150297023355960845947265625</LatitudeDegrees>
              <LongitudeDegrees>-2.7883361466228961944580078125</LongitudeDegrees>
            </Position>
            <AltitudeMeters>1379.5999755859375</AltitudeMeters>
            <DistanceMeters>202234.60605869</DistanceMeters>
          </Trackpoint>
          <Trackpoint>
            <Time>2021-07-29T11:20:30.000Z</Time>
            <Position>
              <LatitudeDegrees>42.00161411426961421966552734375</LatitudeDegrees>
              <LongitudeDegrees>-2.7882845140993595123291015625</LongitudeDegrees>
            </Position>
            <AltitudeMeters>1380.4000244140625</AltitudeMeters>
            <DistanceMeters>202247.69286234</DistanceMeters>
          </Trackpoint>
          <Trackpoint>
            <Time>2021-07-29T11:20:37.000Z</Time>
            <Position>
              <LatitudeDegrees>42.00170162133872509002685546875</LatitudeDegrees>
              <LongitudeDegrees>-2.7882499806582927703857421875</LongitudeDegrees>
            </Position>
            <AltitudeMeters>1381.5999755859375</AltitudeMeters>
            <DistanceMeters>202257.8424984</DistanceMeters>
          </Trackpoint>
          <Trackpoint>
            <Time>2021-07-29T11:20:50.000Z</Time>
            <Position>
              <LatitudeDegrees>42.001873366534709930419921875</LatitudeDegrees>
              <LongitudeDegrees>-2.7881737053394317626953125</LongitudeDegrees>
            </Position>
            <AltitudeMeters>1382.800048828125</AltitudeMeters>
            <DistanceMeters>202277.97201877</DistanceMeters>
          </Trackpoint>
          <Trackpoint>
            <Time>2021-07-29T11:21:00.000Z</Time>
            <Position>
              <LatitudeDegrees>42.00198878534138202667236328125</LatitudeDegrees>
              <LongitudeDegrees>-2.7880924008786678314208984375</LongitudeDegrees>
            </Position>
            <AltitudeMeters>1383.5999755859375</AltitudeMeters>
            <DistanceMeters>202292.472236</DistanceMeters>
          </Trackpoint>
          <Trackpoint>
            <Time>2021-07-29T11:21:12.000Z</Time>
            <Position>
              <LatitudeDegrees>42.0021236501634120941162109375</LatitudeDegrees>
              <LongitudeDegrees>-2.788008414208889007568359375</LongitudeDegrees>
            </Position>
            <AltitudeMeters>1384.800048828125</AltitudeMeters>
            <DistanceMeters>202309.01234471</DistanceMeters>
          </Trackpoint>
          <Trackpoint>
            <Time>2021-07-29T11:21:22.000Z</Time>
            <Position>
              <LatitudeDegrees>42.00221962295472621917724609375</LatitudeDegrees>
              <LongitudeDegrees>-2.787943370640277862548828125</LongitudeDegrees>
            </Position>
            <AltitudeMeters>1385.5999755859375</AltitudeMeters>
            <DistanceMeters>202320.97250528</DistanceMeters>
          </Trackpoint>
          <Trackpoint>
            <Time>2021-07-29T11:21:31.000Z</Time>
            <Position>
              <LatitudeDegrees>42.00231492519378662109375</LatitudeDegrees>
              <LongitudeDegrees>-2.78789450414478778839111328125</LongitudeDegrees>
            </Position>
            <AltitudeMeters>1386.5999755859375</AltitudeMeters>
            <DistanceMeters>202332.3241215</DistanceMeters>
          </Trackpoint>
          <Trackpoint>
            <Time>2021-07-29T11:21:45.000Z</Time>
            <Position>
              <LatitudeDegrees>42.0024830661714076995849609375</LatitudeDegrees>
              <LongitudeDegrees>-2.78781387023627758026123046875</LongitudeDegrees>
            </Position>
            <AltitudeMeters>1387.800048828125</AltitudeMeters>
            <DistanceMeters>202352.19129648</DistanceMeters>
          </Trackpoint>
          <Trackpoint>
            <Time>2021-07-29T11:21:56.000Z</Time>
            <Position>
              <LatitudeDegrees>42.00261508114635944366455078125</LatitudeDegrees>
              <LongitudeDegrees>-2.787745893001556396484375</LongitudeDegrees>
            </Position>
            <AltitudeMeters>1388.800048828125</AltitudeMeters>
            <DistanceMeters>202367.9238867</DistanceMeters>
          </Trackpoint>
          <Trackpoint>
            <Time>2021-07-29T11:22:06.000Z</Time>
            <Position>
              <LatitudeDegrees>42.0027481019496917724609375</LatitudeDegrees>
              <LongitudeDegrees>-2.78769149444997310638427734375</LongitudeDegrees>
            </Position>
            <AltitudeMeters>1390</AltitudeMeters>
            <DistanceMeters>202383.39778431</DistanceMeters>
          </Trackpoint>
          <Trackpoint>
            <Time>2021-07-29T11:22:25.000Z</Time>
            <Position>
              <LatitudeDegrees>42.00299947522580623626708984375</LatitudeDegrees>
              <LongitudeDegrees>-2.7875603176653385162353515625</LongitudeDegrees>
            </Position>
            <AltitudeMeters>1391</AltitudeMeters>
            <DistanceMeters>202413.40607121</DistanceMeters>
          </Trackpoint>
          <Trackpoint>
            <Time>2021-07-29T11:22:36.000Z</Time>
            <Position>
              <LatitudeDegrees>42.00313375331461429595947265625</LatitudeDegrees>
              <LongitudeDegrees>-2.7874557115137577056884765625</LongitudeDegrees>
            </Position>
            <AltitudeMeters>1392</AltitudeMeters>
            <DistanceMeters>202430.67480726</DistanceMeters>
          </Trackpoint>
          <Trackpoint>
            <Time>2021-07-29T11:22:50.000Z</Time>
            <Position>
              <LatitudeDegrees>42.0033088512718677520751953125</LatitudeDegrees>
              <LongitudeDegrees>-2.787300646305084228515625</LongitudeDegrees>
            </Position>
            <AltitudeMeters>1393</AltitudeMeters>
            <DistanceMeters>202454.0053655</DistanceMeters>
          </Trackpoint>
          <Trackpoint>
            <Time>2021-07-29T11:22:51.000Z</Time>
            <Position>
              <LatitudeDegrees>42.0033225975930690765380859375</LatitudeDegrees>
              <LongitudeDegrees>-2.78729134239256381988525390625</LongitudeDegrees>
            </Position>
            <AltitudeMeters>1393</AltitudeMeters>
            <DistanceMeters>202455.71848395</DistanceMeters>
          </Trackpoint>
          <Trackpoint>
            <Time>2021-07-29T11:23:05.000Z</Time>
            <Position>
              <LatitudeDegrees>42.003487050533294677734375</LatitudeDegrees>
              <LongitudeDegrees>-2.7871432341635227203369140625</LongitudeDegrees>
            </Position>
            <AltitudeMeters>1394</AltitudeMeters>
            <DistanceMeters>202477.7433723</DistanceMeters>
          </Trackpoint>
          <Trackpoint>
            <Time>2021-07-29T11:23:13.000Z</Time>
            <Position>
              <LatitudeDegrees>42.0035857893526554107666015625</LatitudeDegrees>
              <LongitudeDegrees>-2.7870778553187847137451171875</LongitudeDegrees>
            </Position>
            <AltitudeMeters>1395</AltitudeMeters>
            <DistanceMeters>202489.9911325</DistanceMeters>
          </Trackpoint>
          <Trackpoint>
            <Time>2021-07-29T11:23:29.000Z</Time>
            <Position>
              <LatitudeDegrees>42.003768347203731536865234375</LatitudeDegrees>
              <LongitudeDegrees>-2.7869430743157863616943359375</LongitudeDegrees>
            </Position>
            <AltitudeMeters>1396</AltitudeMeters>
            <DistanceMeters>202513.16713317</DistanceMeters>
          </Trackpoint>
          <Trackpoint>
            <Time>2021-07-29T11:23:41.000Z</Time>
            <Position>
              <LatitudeDegrees>42.0039113424718379974365234375</LatitudeDegrees>
              <LongitudeDegrees>-2.786847017705440521240234375</LongitudeDegrees>
            </Position>
            <AltitudeMeters>1397</AltitudeMeters>
            <DistanceMeters>202530.95566708</DistanceMeters>
          </Trackpoint>
          <Trackpoint>
            <Time>2021-07-29T11:23:55.000Z</Time>
            <Position>
              <LatitudeDegrees>42.004085518419742584228515625</LatitudeDegrees>
              <LongitudeDegrees>-2.78672598302364349365234375</LongitudeDegrees>
            </Position>
            <AltitudeMeters>1398</AltitudeMeters>
            <DistanceMeters>202552.77376759</DistanceMeters>
          </Trackpoint>
          <Trackpoint>
            <Time>2021-07-29T11:24:07.000Z</Time>
            <Position>
              <LatitudeDegrees>42.00423580594360828399658203125</LatitudeDegrees>
              <LongitudeDegrees>-2.78661877848207950592041015625</LongitudeDegrees>
            </Position>
            <AltitudeMeters>1399</AltitudeMeters>
            <DistanceMeters>202571.70579849</DistanceMeters>
          </Trackpoint>
          <Trackpoint>
            <Time>2021-07-29T11:24:08.000Z</Time>
            <Position>
              <LatitudeDegrees>42.00424871407449245452880859375</LatitudeDegrees>
              <LongitudeDegrees>-2.78660905547440052032470703125</LongitudeDegrees>
            </Position>
            <AltitudeMeters>1399.199951171875</AltitudeMeters>
            <DistanceMeters>202573.35445037</DistanceMeters>
          </Trackpoint>
          <Trackpoint>
            <Time>2021-07-29T11:24:17.000Z</Time>
            <Position>
              <LatitudeDegrees>42.00435734353959560394287109375</LatitudeDegrees>
              <LongitudeDegrees>-2.78651836328208446502685546875</LongitudeDegrees>
            </Position>
            <AltitudeMeters>1400</AltitudeMeters>
            <DistanceMeters>202587.5830945</DistanceMeters>
          </Trackpoint>
          <Trackpoint>
            <Time>2021-07-29T11:24:26.000Z</Time>
            <Position>
              <LatitudeDegrees>42.004448957741260528564453125</LatitudeDegrees>
              <LongitudeDegrees>-2.786405794322490692138671875</LongitudeDegrees>
            </Position>
            <AltitudeMeters>1401</AltitudeMeters>
            <DistanceMeters>202601.39110066</DistanceMeters>
          </Trackpoint>
          <Trackpoint>
            <Time>2021-07-29T11:24:34.000Z</Time>
            <Position>
              <LatitudeDegrees>42.0045398175716400146484375</LatitudeDegrees>
              <LongitudeDegrees>-2.78632909990847110748291015625</LongitudeDegrees>
            </Position>
            <AltitudeMeters>1402</AltitudeMeters>
            <DistanceMeters>202613.32896757</DistanceMeters>
          </Trackpoint>
          <Trackpoint>
            <Time>2021-07-29T11:24:42.000Z</Time>
            <Position>
              <LatitudeDegrees>42.0046244747936725616455078125</LatitudeDegrees>
              <LongitudeDegrees>-2.78626858256757259368896484375</LongitudeDegrees>
            </Position>
            <AltitudeMeters>1403</AltitudeMeters>
            <DistanceMeters>202623.9982292</DistanceMeters>
          </Trackpoint>
          <Trackpoint>
            <Time>2021-07-29T11:24:55.000Z</Time>
            <Position>
              <LatitudeDegrees>42.00475984252989292144775390625</LatitudeDegrees>
              <LongitudeDegrees>-2.7861903794109821319580078125</LongitudeDegrees>
            </Position>
            <AltitudeMeters>1404</AltitudeMeters>
            <DistanceMeters>202640.39439966</DistanceMeters>
          </Trackpoint>
          <Trackpoint>
            <Time>2021-07-29T11:24:57.000Z</Time>
            <Position>
              <LatitudeDegrees>42.0047797076404094696044921875</LatitudeDegrees>
              <LongitudeDegrees>-2.78617939911782741546630859375</LongitudeDegrees>
            </Position>
            <AltitudeMeters>1404.4000244140625</AltitudeMeters>
            <DistanceMeters>202642.78333422</DistanceMeters>
          </Trackpoint>
          <Trackpoint>
            <Time>2021-07-29T11:25:02.000Z</Time>
            <Position>
              <LatitudeDegrees>42.0048346929252147674560546875</LatitudeDegrees>
              <LongitudeDegrees>-2.7861561812460422515869140625</LongitudeDegrees>
            </Position>
            <AltitudeMeters>1405.199951171875</AltitudeMeters>
            <DistanceMeters>202649.19746146</DistanceMeters>
          </Trackpoint>
          <Trackpoint>
            <Time>2021-07-29T11:25:12.000Z</Time>
            <Position>
              <LatitudeDegrees>42.0049396343529224395751953125</LatitudeDegrees>
              <LongitudeDegrees>-2.7861142717301845550537109375</LongitudeDegrees>
            </Position>
            <AltitudeMeters>1406.199951171875</AltitudeMeters>
            <DistanceMeters>202661.38165026</DistanceMeters>
          </Trackpoint>
          <Trackpoint>
            <Time>2021-07-29T11:25:24.000Z</Time>
            <Position>
              <LatitudeDegrees>42.005065865814685821533203125</LatitudeDegrees>
              <LongitudeDegrees>-2.786114774644374847412109375</LongitudeDegrees>
            </Position>
            <AltitudeMeters>1407.199951171875</AltitudeMeters>
            <DistanceMeters>202675.432114</DistanceMeters>
          </Trackpoint>
          <Trackpoint>
            <Time>2021-07-29T11:25:36.000Z</Time>
            <Position>
              <LatitudeDegrees>42.00518966652452945709228515625</LatitudeDegrees>
              <LongitudeDegrees>-2.78613078407943248748779296875</LongitudeDegrees>
            </Position>
            <AltitudeMeters>1408.4000244140625</AltitudeMeters>
            <DistanceMeters>202689.27506355</DistanceMeters>
          </Trackpoint>
          <Trackpoint>
            <Time>2021-07-29T11:25:45.000Z</Time>
            <Position>
              <LatitudeDegrees>42.005278766155242919921875</LatitudeDegrees>
              <LongitudeDegrees>-2.78618677519261837005615234375</LongitudeDegrees>
            </Position>
            <AltitudeMeters>1409.199951171875</AltitudeMeters>
            <DistanceMeters>202700.22006214</DistanceMeters>
          </Trackpoint>
          <Trackpoint>
            <Time>2021-07-29T11:25:55.000Z</Time>
            <Position>
              <LatitudeDegrees>42.005381695926189422607421875</LatitudeDegrees>
              <LongitudeDegrees>-2.7862577699124813079833984375</LongitudeDegrees>
            </Position>
            <AltitudeMeters>1410.199951171875</AltitudeMeters>
            <DistanceMeters>202713.09363945</DistanceMeters>
          </Trackpoint>
          <Trackpoint>
            <Time>2021-07-29T11:26:00.000Z</Time>
            <Position>
              <LatitudeDegrees>42.0054303109645843505859375</LatitudeDegrees>
              <LongitudeDegrees>-2.78629926033318042755126953125</LongitudeDegrees>
            </Position>
            <AltitudeMeters>1410.800048828125</AltitudeMeters>
            <DistanceMeters>202719.50072362</DistanceMeters>
          </Trackpoint>
          <Trackpoint>
            <Time>2021-07-29T11:26:06.000Z</Time>
            <Position>
              <LatitudeDegrees>42.00548085384070873260498046875</LatitudeDegrees>
              <LongitudeDegrees>-2.7863610349595546722412109375</LongitudeDegrees>
            </Position>
            <AltitudeMeters>1411.4000244140625</AltitudeMeters>
            <DistanceMeters>202727.10048473</DistanceMeters>
          </Trackpoint>
          <Trackpoint>
            <Time>2021-07-29T11:26:12.000Z</Time>
            <Position>
              <LatitudeDegrees>42.00553148053586483001708984375</LatitudeDegrees>
              <LongitudeDegrees>-2.7864311076700687408447265625</LongitudeDegrees>
            </Position>
            <AltitudeMeters>1412.4000244140625</AltitudeMeters>
            <DistanceMeters>202735.1839019</DistanceMeters>
          </Trackpoint>
          <Trackpoint>
            <Time>2021-07-29T11:26:14.000Z</Time>
            <Position>
              <LatitudeDegrees>42.0055478252470493316650390625</LatitudeDegrees>
              <LongitudeDegrees>-2.7864535711705684661865234375</LongitudeDegrees>
            </Position>
            <AltitudeMeters>1412.5999755859375</AltitudeMeters>
            <DistanceMeters>202737.78458013</DistanceMeters>
          </Trackpoint>
          <Trackpoint>
            <Time>2021-07-29T11:26:18.000Z</Time>
            <Position>
              <LatitudeDegrees>42.00558093376457691192626953125</LatitudeDegrees>
              <LongitudeDegrees>-2.78649791143834590911865234375</LongitudeDegrees>
            </Position>
            <AltitudeMeters>1412.800048828125</AltitudeMeters>
            <DistanceMeters>202742.98333179</DistanceMeters>
          </Trackpoint>
          <Trackpoint>
            <Time>2021-07-29T11:26:22.000Z</Time>
            <Position>
              <LatitudeDegrees>42.00561345554888248443603515625</LatitudeDegrees>
              <LongitudeDegrees>-2.78654116205871105194091796875</LongitudeDegrees>
            </Position>
            <AltitudeMeters>1413.5999755859375</AltitudeMeters>
            <DistanceMeters>202748.07236502</DistanceMeters>
          </Trackpoint>
          <Trackpoint>
            <Time>2021-07-29T11:26:36.000Z</Time>
            <Position>
              <LatitudeDegrees>42.00570833869278430938720703125</LatitudeDegrees>
              <LongitudeDegrees>-2.78673000633716583251953125</LongitudeDegrees>
            </Position>
            <AltitudeMeters>1414.5999755859375</AltitudeMeters>
            <DistanceMeters>202766.92601</DistanceMeters>
          </Trackpoint>
          <Trackpoint>
            <Time>2021-07-29T11:26:44.000Z</Time>
            <Position>
              <LatitudeDegrees>42.00577807612717151641845703125</LatitudeDegrees>
              <LongitudeDegrees>-2.7868334390223026275634765625</LongitudeDegrees>
            </Position>
            <AltitudeMeters>1415.800048828125</AltitudeMeters>
            <DistanceMeters>202778.4763498</DistanceMeters>
          </Trackpoint>
          <Trackpoint>
            <Time>2021-07-29T11:26:57.000Z</Time>
            <Position>
              <LatitudeDegrees>42.00587279163300991058349609375</LatitudeDegrees>
              <LongitudeDegrees>-2.78702178038656711578369140625</LongitudeDegrees>
            </Position>
            <AltitudeMeters>1416.5999755859375</AltitudeMeters>
            <DistanceMeters>202797.28491898</DistanceMeters>
          </Trackpoint>
          <Trackpoint>
            <Time>2021-07-29T11:27:08.000Z</Time>
            <Position>
              <LatitudeDegrees>42.00596650131046772003173828125</LatitudeDegrees>
              <LongitudeDegrees>-2.7871952019631862640380859375</LongitudeDegrees>
            </Position>
            <AltitudeMeters>1417.5999755859375</AltitudeMeters>
            <DistanceMeters>202815.0193074</DistanceMeters>
          </Trackpoint>
          <Trackpoint>
            <Time>2021-07-29T11:27:20.000Z</Time>
            <Position>
              <LatitudeDegrees>42.006102539598941802978515625</LatitudeDegrees>
              <LongitudeDegrees>-2.78740600682795047760009765625</LongitudeDegrees>
            </Position>
            <AltitudeMeters>1418.5999755859375</AltitudeMeters>
            <DistanceMeters>202838.11099452</DistanceMeters>
          </Trackpoint>
          <Trackpoint>
            <Time>2021-07-29T11:27:35.000Z</Time>
            <Position>
              <LatitudeDegrees>42.006274200975894927978515625</LatitudeDegrees>
              <LongitudeDegrees>-2.78763919137418270111083984375</LongitudeDegrees>
            </Position>
            <AltitudeMeters>1419.800048828125</AltitudeMeters>
            <DistanceMeters>202865.25871485</DistanceMeters>
          </Trackpoint>
          <Trackpoint>
            <Time>2021-07-29T11:27:49.000Z</Time>
            <Position>
              <LatitudeDegrees>42.00644963420927524566650390625</LatitudeDegrees>
              <LongitudeDegrees>-2.7878020517528057098388671875</LongitudeDegrees>
            </Position>
            <AltitudeMeters>1420.5999755859375</AltitudeMeters>
            <DistanceMeters>202888.98001716</DistanceMeters>
          </Trackpoint>
          <Trackpoint>
            <Time>2021-07-29T11:28:09.000Z</Time>
            <Position>
              <LatitudeDegrees>42.00673193670809268951416015625</LatitudeDegrees>
              <LongitudeDegrees>-2.78798385523259639739990234375</LongitudeDegrees>
            </Position>
            <AltitudeMeters>1421.5999755859375</AltitudeMeters>
            <DistanceMeters>202923.81323854</DistanceMeters>
          </Trackpoint>
          <Trackpoint>
            <Time>2021-07-29T11:28:14.000Z</Time>
            <Position>
              <LatitudeDegrees>42.00680888257920742034912109375</LatitudeDegrees>
              <LongitudeDegrees>-2.7880166284739971160888671875</LongitudeDegrees>
            </Position>
            <AltitudeMeters>1423</AltitudeMeters>
            <DistanceMeters>202932.79615361</DistanceMeters>
          </Trackpoint>
          <Trackpoint>
            <Time>2021-07-29T11:28:32.000Z</Time>
            <Position>
              <LatitudeDegrees>42.00706654228270053863525390625</LatitudeDegrees>
              <LongitudeDegrees>-2.78813422657549381256103515625</LongitudeDegrees>
            </Position>
            <AltitudeMeters>1424</AltitudeMeters>
            <DistanceMeters>202963.07853005</DistanceMeters>
          </Trackpoint>
          <Trackpoint>
            <Time>2021-07-29T11:28:50.000Z</Time>
            <Position>
              <LatitudeDegrees>42.00729939155280590057373046875</LatitudeDegrees>
              <LongitudeDegrees>-2.78825224377214908599853515625</LongitudeDegrees>
            </Position>
            <AltitudeMeters>1425</AltitudeMeters>
            <DistanceMeters>202990.77225592</DistanceMeters>
          </Trackpoint>
          <Trackpoint>
            <Time>2021-07-29T11:28:57.000Z</Time>
            <Position>
              <LatitudeDegrees>42.007379941642284393310546875</LatitudeDegrees>
              <LongitudeDegrees>-2.78830236755311489105224609375</LongitudeDegrees>
            </Position>
            <AltitudeMeters>1426.199951171875</AltitudeMeters>
            <DistanceMeters>203000.64955038</DistanceMeters>
          </Trackpoint>
          <Trackpoint>
            <Time>2021-07-29T11:29:01.000Z</Time>
            <Position>
              <LatitudeDegrees>42.0074350945651531219482421875</LatitudeDegrees>
              <LongitudeDegrees>-2.78832365758717060089111328125</LongitudeDegrees>
            </Position>
            <AltitudeMeters>1427.4000244140625</AltitudeMeters>
            <DistanceMeters>203007.03545872</DistanceMeters>
          </Trackpoint>
          <Trackpoint>
            <Time>2021-07-29T11:29:32.000Z</Time>
            <Position>
              <LatitudeDegrees>42.00785695575177669525146484375</LatitudeDegrees>
              <LongitudeDegrees>-2.78850696980953216552734375</LongitudeDegrees>
            </Position>
            <AltitudeMeters>1428.199951171875</AltitudeMeters>
            <DistanceMeters>203056.37638158</DistanceMeters>
          </Trackpoint>
          <Trackpoint>
            <Time>2021-07-29T11:29:36.000Z</Time>
            <Position>
              <LatitudeDegrees>42.00791344977915287017822265625</LatitudeDegrees>
              <LongitudeDegrees>-2.78852750547230243682861328125</LongitudeDegrees>
            </Position>
            <AltitudeMeters>1429.199951171875</AltitudeMeters>
            <DistanceMeters>203062.88969864</DistanceMeters>
          </Trackpoint>
          <Trackpoint>
            <Time>2021-07-29T11:29:51.000Z</Time>
            <Position>
              <LatitudeDegrees>42.00812919996678829193115234375</LatitudeDegrees>
              <LongitudeDegrees>-2.78861350379884243011474609375</LongitudeDegrees>
            </Position>
            <AltitudeMeters>1430.199951171875</AltitudeMeters>
            <DistanceMeters>203087.93424116</DistanceMeters>
          </Trackpoint>
          <Trackpoint>
            <Time>2021-07-29T11:29:54.000Z</Time>
            <Position>
              <LatitudeDegrees>42.00816859491169452667236328125</LatitudeDegrees>
              <LongitudeDegrees>-2.78863948769867420196533203125</LongitudeDegrees>
            </Position>
            <AltitudeMeters>1430</AltitudeMeters>
            <DistanceMeters>203092.81680215</DistanceMeters>
          </Trackpoint>
          <Trackpoint>
            <Time>2021-07-29T11:30:02.000Z</Time>
            <Position>
              <LatitudeDegrees>42.00827236287295818328857421875</LatitudeDegrees>
              <LongitudeDegrees>-2.7886888571083545684814453125</LongitudeDegrees>
            </Position>
            <AltitudeMeters>1431.199951171875</AltitudeMeters>
            <DistanceMeters>203105.066774</DistanceMeters>
          </Trackpoint>
          <Trackpoint>
            <Time>2021-07-29T11:30:13.000Z</Time>
            <Position>
              <LatitudeDegrees>42.00840798206627368927001953125</LatitudeDegrees>
              <LongitudeDegrees>-2.78874970972537994384765625</LongitudeDegrees>
            </Position>
            <AltitudeMeters>1432</AltitudeMeters>
            <DistanceMeters>203120.97857099</DistanceMeters>
          </Trackpoint>
          <Trackpoint>
            <Time>2021-07-29T11:30:29.000Z</Time>
            <Position>
              <LatitudeDegrees>42.00861342251300811767578125</LatitudeDegrees>
              <LongitudeDegrees>-2.788860686123371124267578125</LongitudeDegrees>
            </Position>
            <AltitudeMeters>1433.199951171875</AltitudeMeters>
            <DistanceMeters>203145.61780878</DistanceMeters>
          </Trackpoint>
          <Trackpoint>
            <Time>2021-07-29T11:30:34.000Z</Time>
            <Position>
              <LatitudeDegrees>42.008679471909999847412109375</LatitudeDegrees>
              <LongitudeDegrees>-2.78889060951769351959228515625</LongitudeDegrees>
            </Position>
            <AltitudeMeters>1434</AltitudeMeters>
            <DistanceMeters>203153.37515559</DistanceMeters>
          </Trackpoint>
          <Trackpoint>
            <Time>2021-07-29T11:30:44.000Z</Time>
            <Position>
              <LatitudeDegrees>42.00880796648561954498291015625</LatitudeDegrees>
              <LongitudeDegrees>-2.788957245647907257080078125</LongitudeDegrees>
            </Position>
            <AltitudeMeters>1435</AltitudeMeters>
            <DistanceMeters>203168.70187763</DistanceMeters>
          </Trackpoint>
          <Trackpoint>
            <Time>2021-07-29T11:30:49.000Z</Time>
            <Position>
              <LatitudeDegrees>42.0088777877390384674072265625</LatitudeDegrees>
              <LongitudeDegrees>-2.78897627256810665130615234375</LongitudeDegrees>
            </Position>
            <AltitudeMeters>1435.800048828125</AltitudeMeters>
            <DistanceMeters>203176.63077366</DistanceMeters>
          </Trackpoint>
          <Trackpoint>
            <Time>2021-07-29T11:31:11.000Z</Time>
            <Position>
              <LatitudeDegrees>42.00918850488960742950439453125</LatitudeDegrees>
              <LongitudeDegrees>-2.78908289037644863128662109375</LongitudeDegrees>
            </Position>
            <AltitudeMeters>1437</AltitudeMeters>
            <DistanceMeters>203212.32048496</DistanceMeters>
          </Trackpoint>
          <Trackpoint>
            <Time>2021-07-29T11:31:17.000Z</Time>
            <Position>
              <LatitudeDegrees>42.00928003527224063873291015625</LatitudeDegrees>
              <LongitudeDegrees>-2.7891190163791179656982421875</LongitudeDegrees>
            </Position>
            <AltitudeMeters>1438</AltitudeMeters>
            <DistanceMeters>203222.93714235</DistanceMeters>
          </Trackpoint>
          <Trackpoint>
            <Time>2021-07-29T11:31:24.000Z</Time>
            <Position>
              <LatitudeDegrees>42.00939017347991466522216796875</LatitudeDegrees>
              <LongitudeDegrees>-2.78916453011333942413330078125</LongitudeDegrees>
            </Position>
            <AltitudeMeters>1439.199951171875</AltitudeMeters>
            <DistanceMeters>203235.76082054</DistanceMeters>
          </Trackpoint>
          <Trackpoint>
            <Time>2021-07-29T11:31:30.000Z</Time>
            <Position>
              <LatitudeDegrees>42.00948824174702167510986328125</LatitudeDegrees>
              <LongitudeDegrees>-2.78919537551701068878173828125</LongitudeDegrees>
            </Position>
            <AltitudeMeters>1439.800048828125</AltitudeMeters>
            <DistanceMeters>203246.96994555</DistanceMeters>
          </Trackpoint>
          <Trackpoint>
            <Time>2021-07-29T11:31:33.000Z</Time>
            <Position>
              <LatitudeDegrees>42.0095319114625453948974609375</LatitudeDegrees>
              <LongitudeDegrees>-2.789208702743053436279296875</LongitudeDegrees>
            </Position>
            <AltitudeMeters>1440</AltitudeMeters>
            <DistanceMeters>203251.9531885</DistanceMeters>
          </Trackpoint>
          <Trackpoint>
            <Time>2021-07-29T11:31:46.000Z</Time>
            <Position>
              <LatitudeDegrees>42.0097059197723865509033203125</LatitudeDegrees>
              <LongitudeDegrees>-2.78928481042385101318359375</LongitudeDegrees>
            </Position>
            <AltitudeMeters>1441</AltitudeMeters>
            <DistanceMeters>203272.31752646</DistanceMeters>
          </Trackpoint>
          <Trackpoint>
            <Time>2021-07-29T11:31:56.000Z</Time>
            <Position>
              <LatitudeDegrees>42.00982888229191303253173828125</LatitudeDegrees>
              <LongitudeDegrees>-2.78935127891600131988525390625</LongitudeDegrees>
            </Position>
            <AltitudeMeters>1441.5999755859375</AltitudeMeters>
            <DistanceMeters>203287.06627256</DistanceMeters>
          </Trackpoint>
          <Trackpoint>
            <Time>2021-07-29T11:32:00.000Z</Time>
            <Position>
              <LatitudeDegrees>42.00987942516803741455078125</LatitudeDegrees>
              <LongitudeDegrees>-2.7893785201013088226318359375</LongitudeDegrees>
            </Position>
            <AltitudeMeters>1442</AltitudeMeters>
            <DistanceMeters>203293.12566946</DistanceMeters>
          </Trackpoint>
          <Trackpoint>
            <Time>2021-07-29T11:32:01.000Z</Time>
            <Position>
              <LatitudeDegrees>42.00989191420376300811767578125</LatitudeDegrees>
              <LongitudeDegrees>-2.7893845550715923309326171875</LongitudeDegrees>
            </Position>
            <AltitudeMeters>1442.199951171875</AltitudeMeters>
            <DistanceMeters>203294.60393821</DistanceMeters>
          </Trackpoint>
          <Trackpoint>
            <Time>2021-07-29T11:32:09.000Z</Time>
            <Position>
              <LatitudeDegrees>42.00999098829925060272216796875</LatitudeDegrees>
              <LongitudeDegrees>-2.7894236147403717041015625</LongitudeDegrees>
            </Position>
            <AltitudeMeters>1443</AltitudeMeters>
            <DistanceMeters>203306.09470745</DistanceMeters>
          </Trackpoint>
          <Trackpoint>
            <Time>2021-07-29T11:32:20.000Z</Time>
            <Position>
              <LatitudeDegrees>42.01012744568288326263427734375</LatitudeDegrees>
              <LongitudeDegrees>-2.78947717510163784027099609375</LongitudeDegrees>
            </Position>
            <AltitudeMeters>1444</AltitudeMeters>
            <DistanceMeters>203321.91544254</DistanceMeters>
          </Trackpoint>
          <Trackpoint>
            <Time>2021-07-29T11:32:28.000Z</Time>
            <Position>
              <LatitudeDegrees>42.01022534631192684173583984375</LatitudeDegrees>
              <LongitudeDegrees>-2.78951874934136867523193359375</LongitudeDegrees>
            </Position>
            <AltitudeMeters>1445.199951171875</AltitudeMeters>
            <DistanceMeters>203333.34158998</DistanceMeters>
          </Trackpoint>
          <Trackpoint>
            <Time>2021-07-29T11:32:38.000Z</Time>
            <Position>
              <LatitudeDegrees>42.010355852544307708740234375</LatitudeDegrees>
              <LongitudeDegrees>-2.789566777646541595458984375</LongitudeDegrees>
            </Position>
            <AltitudeMeters>1446.199951171875</AltitudeMeters>
            <DistanceMeters>203348.40085091</DistanceMeters>
          </Trackpoint>
          <Trackpoint>
            <Time>2021-07-29T11:32:48.000Z</Time>
            <Position>
              <LatitudeDegrees>42.0104881189763545989990234375</LatitudeDegrees>
              <LongitudeDegrees>-2.78962335549294948577880859375</LongitudeDegrees>
            </Position>
            <AltitudeMeters>1447</AltitudeMeters>
            <DistanceMeters>203363.84817333</DistanceMeters>
          </Trackpoint>
          <Trackpoint>
            <Time>2021-07-29T11:33:12.000Z</Time>
            <Position>
              <LatitudeDegrees>42.01082079671323299407958984375</LatitudeDegrees>
              <LongitudeDegrees>-2.7897803485393524169921875</LongitudeDegrees>
            </Position>
            <AltitudeMeters>1448.199951171875</AltitudeMeters>
            <DistanceMeters>203403.08603736</DistanceMeters>
          </Trackpoint>
          <Trackpoint>
            <Time>2021-07-29T11:33:34.000Z</Time>
            <Position>
              <LatitudeDegrees>42.0111214555799961090087890625</LatitudeDegrees>
              <LongitudeDegrees>-2.78992812149226665496826171875</LongitudeDegrees>
            </Position>
            <AltitudeMeters>1449.199951171875</AltitudeMeters>
            <DistanceMeters>203438.71142458</DistanceMeters>
          </Trackpoint>
          <Trackpoint>
            <Time>2021-07-29T11:33:42.000Z</Time>
            <Position>
              <LatitudeDegrees>42.01123402453958988189697265625</LatitudeDegrees>
              <LongitudeDegrees>-2.78997271321713924407958984375</LongitudeDegrees>
            </Position>
            <AltitudeMeters>1450.199951171875</AltitudeMeters>
            <DistanceMeters>203451.77198138</DistanceMeters>
          </Trackpoint>
          <Trackpoint>
            <Time>2021-07-29T11:33:51.000Z</Time>
            <Position>
              <LatitudeDegrees>42.0113581605255603790283203125</LatitudeDegrees>
              <LongitudeDegrees>-2.7900272794067859649658203125</LongitudeDegrees>
            </Position>
            <AltitudeMeters>1451.4000244140625</AltitudeMeters>
            <DistanceMeters>203466.30703104</DistanceMeters>
          </Trackpoint>
          <Trackpoint>
            <Time>2021-07-29T11:34:04.000Z</Time>
            <Position>
              <LatitudeDegrees>42.01152755878865718841552734375</LatitudeDegrees>
              <LongitudeDegrees>-2.7901174686849117279052734375</LongitudeDegrees>
            </Position>
            <AltitudeMeters>1452.199951171875</AltitudeMeters>
            <DistanceMeters>203486.58315789</DistanceMeters>
          </Trackpoint>
          <Trackpoint>
            <Time>2021-07-29T11:34:10.000Z</Time>
            <Position>
              <LatitudeDegrees>42.01160014607012271881103515625</LatitudeDegrees>
              <LongitudeDegrees>-2.79014102183282375335693359375</LongitudeDegrees>
            </Position>
            <AltitudeMeters>1453.4000244140625</AltitudeMeters>
            <DistanceMeters>203494.89351436</DistanceMeters>
          </Trackpoint>
          <Trackpoint>
            <Time>2021-07-29T11:34:21.000Z</Time>
            <Position>
              <LatitudeDegrees>42.01172637753188610076904296875</LatitudeDegrees>
              <LongitudeDegrees>-2.79020086862146854400634765625</LongitudeDegrees>
            </Position>
            <AltitudeMeters>1454.4000244140625</AltitudeMeters>
            <DistanceMeters>203509.78938756</DistanceMeters>
          </Trackpoint>
          <Trackpoint>
            <Time>2021-07-29T11:34:31.000Z</Time>
            <Position>
              <LatitudeDegrees>42.0118426345288753509521484375</LatitudeDegrees>
              <LongitudeDegrees>-2.79026088304817676544189453125</LongitudeDegrees>
            </Position>
            <AltitudeMeters>1455.4000244140625</AltitudeMeters>
            <DistanceMeters>203523.64830981</DistanceMeters>
          </Trackpoint>
          <Trackpoint>
            <Time>2021-07-29T11:34:39.000Z</Time>
            <Position>
              <LatitudeDegrees>42.011941038072109222412109375</LatitudeDegrees>
              <LongitudeDegrees>-2.79029927216470241546630859375</LongitudeDegrees>
            </Position>
            <AltitudeMeters>1456.199951171875</AltitudeMeters>
            <DistanceMeters>203535.05151554</DistanceMeters>
          </Trackpoint>
          <Trackpoint>
            <Time>2021-07-29T11:34:51.000Z</Time>
            <Position>
              <LatitudeDegrees>42.012085877358913421630859375</LatitudeDegrees>
              <LongitudeDegrees>-2.79036180116236209869384765625</LongitudeDegrees>
            </Position>
            <AltitudeMeters>1457.4000244140625</AltitudeMeters>
            <DistanceMeters>203551.98121212</DistanceMeters>
          </Trackpoint>
          <Trackpoint>
            <Time>2021-07-29T11:35:04.000Z</Time>
            <Position>
              <LatitudeDegrees>42.012264244258403778076171875</LatitudeDegrees>
              <LongitudeDegrees>-2.7903883717954158782958984375</LongitudeDegrees>
            </Position>
            <AltitudeMeters>1458.199951171875</AltitudeMeters>
            <DistanceMeters>203571.95491426</DistanceMeters>
          </Trackpoint>
          <Trackpoint>
            <Time>2021-07-29T11:35:13.000Z</Time>
            <Position>
              <LatitudeDegrees>42.01238787733018398284912109375</LatitudeDegrees>
              <LongitudeDegrees>-2.79041930101811885833740234375</LongitudeDegrees>
            </Position>
            <AltitudeMeters>1459.199951171875</AltitudeMeters>
            <DistanceMeters>203585.95096543</DistanceMeters>
          </Trackpoint>
          <Trackpoint>
            <Time>2021-07-29T11:35:23.000Z</Time>
            <Position>
              <LatitudeDegrees>42.01252534054219722747802734375</LatitudeDegrees>
              <LongitudeDegrees>-2.7904393337666988372802734375</LongitudeDegrees>
            </Position>
            <AltitudeMeters>1460.199951171875</AltitudeMeters>
            <DistanceMeters>203601.34030638</DistanceMeters>
          </Trackpoint>
          <Trackpoint>
            <Time>2021-07-29T11:35:27.000Z</Time>
            <Position>
              <LatitudeDegrees>42.012572027742862701416015625</LatitudeDegrees>
              <LongitudeDegrees>-2.79044746421277523040771484375</LongitudeDegrees>
            </Position>
            <AltitudeMeters>1460.5999755859375</AltitudeMeters>
            <DistanceMeters>203606.57971784</DistanceMeters>
          </Trackpoint>
          <Trackpoint>
            <Time>2021-07-29T11:35:34.000Z</Time>
            <Position>
              <LatitudeDegrees>42.01269985176622867584228515625</LatitudeDegrees>
              <LongitudeDegrees>-2.7904524095356464385986328125</LongitudeDegrees>
            </Position>
            <AltitudeMeters>1461.199951171875</AltitudeMeters>
            <DistanceMeters>203620.81312098</DistanceMeters>
          </Trackpoint>
          <Trackpoint>
            <Time>2021-07-29T11:35:46.000Z</Time>
            <Position>
              <LatitudeDegrees>42.0128508098423480987548828125</LatitudeDegrees>
              <LongitudeDegrees>-2.79046992771327495574951171875</LongitudeDegrees>
            </Position>
            <AltitudeMeters>1462.199951171875</AltitudeMeters>
            <DistanceMeters>203637.67761883</DistanceMeters>
          </Trackpoint>
          <Trackpoint>
            <Time>2021-07-29T11:35:59.000Z</Time>
            <Position>
              <LatitudeDegrees>42.01303328387439250946044921875</LatitudeDegrees>
              <LongitudeDegrees>-2.7904420159757137298583984375</LongitudeDegrees>
            </Position>
            <AltitudeMeters>1463.4000244140625</AltitudeMeters>
            <DistanceMeters>203658.11786288</DistanceMeters>
          </Trackpoint>
          <Trackpoint>
            <Time>2021-07-29T11:36:09.000Z</Time>
            <Position>
              <LatitudeDegrees>42.01316915452480316162109375</LatitudeDegrees>
              <LongitudeDegrees>-2.79042466543614864349365234375</LongitudeDegrees>
            </Position>
            <AltitudeMeters>1464.4000244140625</AltitudeMeters>
            <DistanceMeters>203673.30847095</DistanceMeters>
          </Trackpoint>
          <Trackpoint>
            <Time>2021-07-29T11:36:20.000Z</Time>
            <Position>
              <LatitudeDegrees>42.013305611908435821533203125</LatitudeDegrees>
              <LongitudeDegrees>-2.7903930656611919403076171875</LongitudeDegrees>
            </Position>
            <AltitudeMeters>1465.4000244140625</AltitudeMeters>
            <DistanceMeters>203688.71950727</DistanceMeters>
          </Trackpoint>
          <Trackpoint>
            <Time>2021-07-29T11:36:35.000Z</Time>
            <Position>
              <LatitudeDegrees>42.0135116390883922576904296875</LatitudeDegrees>
              <LongitudeDegrees>-2.79033330269157886505126953125</LongitudeDegrees>
            </Position>
            <AltitudeMeters>1466.4000244140625</AltitudeMeters>
            <DistanceMeters>203712.17725158</DistanceMeters>
          </Trackpoint>
          <Trackpoint>
            <Time>2021-07-29T11:36:47.000Z</Time>
            <Position>
              <LatitudeDegrees>42.013638876378536224365234375</LatitudeDegrees>
              <LongitudeDegrees>-2.7903038822114467620849609375</LongitudeDegrees>
            </Position>
            <AltitudeMeters>1467.4000244140625</AltitudeMeters>
            <DistanceMeters>203726.54640945</DistanceMeters>
          </Trackpoint>
          <Trackpoint>
            <Time>2021-07-29T11:36:56.000Z</Time>
            <Position>
              <LatitudeDegrees>42.013755552470684051513671875</LatitudeDegrees>
              <LongitudeDegrees>-2.790275551378726959228515625</LongitudeDegrees>
            </Position>
            <AltitudeMeters>1468.4000244140625</AltitudeMeters>
            <DistanceMeters>203739.74246925</DistanceMeters>
          </Trackpoint>
          <Trackpoint>
            <Time>2021-07-29T11:37:09.000Z</Time>
            <Position>
              <LatitudeDegrees>42.0139360986649990081787109375</LatitudeDegrees>
              <LongitudeDegrees>-2.79022366739809513092041015625</LongitudeDegrees>
            </Position>
            <AltitudeMeters>1469.4000244140625</AltitudeMeters>
            <DistanceMeters>203760.29066417</DistanceMeters>
          </Trackpoint>
          <Trackpoint>
            <Time>2021-07-29T11:37:17.000Z</Time>
            <Position>
              <LatitudeDegrees>42.01403743587434291839599609375</LatitudeDegrees>
              <LongitudeDegrees>-2.79018896631896495819091796875</LongitudeDegrees>
            </Position>
            <AltitudeMeters>1470.5999755859375</AltitudeMeters>
            <DistanceMeters>203771.92901227</DistanceMeters>
          </Trackpoint>
          <Trackpoint>
            <Time>2021-07-29T11:37:26.000Z</Time>
            <Position>
              <LatitudeDegrees>42.0141479931771755218505859375</LatitudeDegrees>
              <LongitudeDegrees>-2.790154181420803070068359375</LongitudeDegrees>
            </Position>
            <AltitudeMeters>1471.5999755859375</AltitudeMeters>
            <DistanceMeters>203784.56577894</DistanceMeters>
          </Trackpoint>
          <Trackpoint>
            <Time>2021-07-29T11:37:40.000Z</Time>
            <Position>
              <LatitudeDegrees>42.0143169723451137542724609375</LatitudeDegrees>
              <LongitudeDegrees>-2.79011252336204051971435546875</LongitudeDegrees>
            </Position>
            <AltitudeMeters>1472.5999755859375</AltitudeMeters>
            <DistanceMeters>203803.68623069</DistanceMeters>
          </Trackpoint>
          <Trackpoint>
            <Time>2021-07-29T11:37:43.000Z</Time>
            <Position>
              <LatitudeDegrees>42.0143478177487850189208984375</LatitudeDegrees>
              <LongitudeDegrees>-2.7901171334087848663330078125</LongitudeDegrees>
            </Position>
            <AltitudeMeters>1473</AltitudeMeters>
            <DistanceMeters>203807.1413372</DistanceMeters>
          </Trackpoint>
          <Trackpoint>
            <Time>2021-07-29T11:37:49.000Z</Time>
            <Position>
              <LatitudeDegrees>42.0144135318696498870849609375</LatitudeDegrees>
              <LongitudeDegrees>-2.79009525664150714874267578125</LongitudeDegrees>
            </Position>
            <AltitudeMeters>1473.5999755859375</AltitudeMeters>
            <DistanceMeters>203814.67666206</DistanceMeters>
          </Trackpoint>
          <Trackpoint>
            <Time>2021-07-29T11:37:50.000Z</Time>
            <Position>
              <LatitudeDegrees>42.01442685909569263458251953125</LatitudeDegrees>
              <LongitudeDegrees>-2.7900933288037776947021484375</LongitudeDegrees>
            </Position>
            <AltitudeMeters>1473.5999755859375</AltitudeMeters>
            <DistanceMeters>203816.17314425</DistanceMeters>
          </Trackpoint>
          <Trackpoint>
            <Time>2021-07-29T11:37:59.000Z</Time>
            <Position>
              <LatitudeDegrees>42.01453146524727344512939453125</LatitudeDegrees>
              <LongitudeDegrees>-2.79007472097873687744140625</LongitudeDegrees>
            </Position>
            <AltitudeMeters>1474.800048828125</AltitudeMeters>
            <DistanceMeters>203827.91730824</DistanceMeters>
          </Trackpoint>
          <Trackpoint>
            <Time>2021-07-29T11:38:11.000Z</Time>
            <Position>
              <LatitudeDegrees>42.0146906375885009765625</LatitudeDegrees>
              <LongitudeDegrees>-2.79001344926655292510986328125</LongitudeDegrees>
            </Position>
            <AltitudeMeters>1475.800048828125</AltitudeMeters>
            <DistanceMeters>203846.34391683</DistanceMeters>
          </Trackpoint>
          <Trackpoint>
            <Time>2021-07-29T11:38:24.000Z</Time>
            <Position>
              <LatitudeDegrees>42.014843858778476715087890625</LatitudeDegrees>
              <LongitudeDegrees>-2.78994823805987834930419921875</LongitudeDegrees>
            </Position>
            <AltitudeMeters>1476.5999755859375</AltitudeMeters>
            <DistanceMeters>203864.22990347</DistanceMeters>
          </Trackpoint>
          <Trackpoint>
            <Time>2021-07-29T11:38:35.000Z</Time>
            <Position>
              <LatitudeDegrees>42.01498056761920452117919921875</LatitudeDegrees>
              <LongitudeDegrees>-2.78990565799176692962646484375</LongitudeDegrees>
            </Position>
            <AltitudeMeters>1477.800048828125</AltitudeMeters>
            <DistanceMeters>203879.84785548</DistanceMeters>
          </Trackpoint>
          <Trackpoint>
            <Time>2021-07-29T11:38:43.000Z</Time>
            <Position>
              <LatitudeDegrees>42.0150834135711193084716796875</LatitudeDegrees>
              <LongitudeDegrees>-2.7898646704852581024169921875</LongitudeDegrees>
            </Position>
            <AltitudeMeters>1478.800048828125</AltitudeMeters>
            <DistanceMeters>203891.7861006</DistanceMeters>
          </Trackpoint>
          <Trackpoint>
            <Time>2021-07-29T11:38:50.000Z</Time>
            <Position>
              <LatitudeDegrees>42.015180476009845733642578125</LatitudeDegrees>
              <LongitudeDegrees>-2.78981261886656284332275390625</LongitudeDegrees>
            </Position>
            <AltitudeMeters>1479.800048828125</AltitudeMeters>
            <DistanceMeters>203903.41591079</DistanceMeters>
          </Trackpoint>
          <Trackpoint>
            <Time>2021-07-29T11:38:51.000Z</Time>
            <Position>
              <LatitudeDegrees>42.015193887054920196533203125</LatitudeDegrees>
              <LongitudeDegrees>-2.78980507515370845794677734375</LongitudeDegrees>
            </Position>
            <AltitudeMeters>1479.800048828125</AltitudeMeters>
            <DistanceMeters>203905.03415742</DistanceMeters>
          </Trackpoint>
          <Trackpoint>
            <Time>2021-07-29T11:39:04.000Z</Time>
            <Position>
              <LatitudeDegrees>42.015362866222858428955078125</LatitudeDegrees>
              <LongitudeDegrees>-2.789755202829837799072265625</LongitudeDegrees>
            </Position>
            <AltitudeMeters>1480.800048828125</AltitudeMeters>
            <DistanceMeters>203924.28850208</DistanceMeters>
          </Trackpoint>
          <Trackpoint>
            <Time>2021-07-29T11:39:07.000Z</Time>
            <Position>
              <LatitudeDegrees>42.0153992436826229095458984375</LatitudeDegrees>
              <LongitudeDegrees>-2.7897520177066326141357421875</LongitudeDegrees>
            </Position>
            <AltitudeMeters>1481</AltitudeMeters>
            <DistanceMeters>203928.34693275</DistanceMeters>
          </Trackpoint>
          <Trackpoint>
            <Time>2021-07-29T11:39:12.000Z</Time>
            <Position>
              <LatitudeDegrees>42.0154595933854579925537109375</LatitudeDegrees>
              <LongitudeDegrees>-2.78973869048058986663818359375</LongitudeDegrees>
            </Position>
            <AltitudeMeters>1481.5999755859375</AltitudeMeters>
            <DistanceMeters>203935.15445449</DistanceMeters>
          </Trackpoint>
          <Trackpoint>
            <Time>2021-07-29T11:39:14.000Z</Time>
            <Position>
              <LatitudeDegrees>42.015482895076274871826171875</LatitudeDegrees>
              <LongitudeDegrees>-2.78973181731998920440673828125</LongitudeDegrees>
            </Position>
            <AltitudeMeters>1481.800048828125</AltitudeMeters>
            <DistanceMeters>203937.81180651</DistanceMeters>
          </Trackpoint>
          <Trackpoint>
            <Time>2021-07-29T11:39:26.000Z</Time>
            <Position>
              <LatitudeDegrees>42.01562530361115932464599609375</LatitudeDegrees>
              <LongitudeDegrees>-2.78967104852199554443359375</LongitudeDegrees>
            </Position>
            <AltitudeMeters>1482.800048828125</AltitudeMeters>
            <DistanceMeters>203954.43958089</DistanceMeters>
          </Trackpoint>
          <Trackpoint>
            <Time>2021-07-29T11:39:36.000Z</Time>
            <Position>
              <LatitudeDegrees>42.01574600301682949066162109375</LatitudeDegrees>
              <LongitudeDegrees>-2.78962754644453525543212890625</LongitudeDegrees>
            </Position>
            <AltitudeMeters>1483.800048828125</AltitudeMeters>
            <DistanceMeters>203968.34663583</DistanceMeters>
          </Trackpoint>
          <Trackpoint>
            <Time>2021-07-29T11:39:54.000Z</Time>
            <Position>
              <LatitudeDegrees>42.0159740746021270751953125</LatitudeDegrees>
              <LongitudeDegrees>-2.78954708017408847808837890625</LongitudeDegrees>
            </Position>
            <AltitudeMeters>1484.800048828125</AltitudeMeters>
            <DistanceMeters>203994.58898176</DistanceMeters>
          </Trackpoint>
          <Trackpoint>
            <Time>2021-07-29T11:40:04.000Z</Time>
            <Position>
              <LatitudeDegrees>42.01611380092799663543701171875</LatitudeDegrees>
              <LongitudeDegrees>-2.78948237188160419464111328125</LongitudeDegrees>
            </Position>
            <AltitudeMeters>1485.800048828125</AltitudeMeters>
            <DistanceMeters>204011.03574253</DistanceMeters>
          </Trackpoint>
          <Trackpoint>
            <Time>2021-07-29T11:40:17.000Z</Time>
            <Position>
              <LatitudeDegrees>42.01628898270428180694580078125</LatitudeDegrees>
              <LongitudeDegrees>-2.7894140593707561492919921875</LongitudeDegrees>
            </Position>
            <AltitudeMeters>1486.5999755859375</AltitudeMeters>
            <DistanceMeters>204031.33545949</DistanceMeters>
          </Trackpoint>
          <Trackpoint>
            <Time>2021-07-29T11:40:21.000Z</Time>
            <Position>
              <LatitudeDegrees>42.0163430459797382354736328125</LatitudeDegrees>
              <LongitudeDegrees>-2.78938748873770236968994140625</LongitudeDegrees>
            </Position>
            <AltitudeMeters>1487.199951171875</AltitudeMeters>
            <DistanceMeters>204037.74113411</DistanceMeters>
          </Trackpoint>
          <Trackpoint>
            <Time>2021-07-29T11:40:28.000Z</Time>
            <Position>
              <LatitudeDegrees>42.01643398962914943695068359375</LatitudeDegrees>
              <LongitudeDegrees>-2.78934440575540065765380859375</LongitudeDegrees>
            </Position>
            <AltitudeMeters>1487.5999755859375</AltitudeMeters>
            <DistanceMeters>204048.47116089</DistanceMeters>
          </Trackpoint>
          <Trackpoint>
            <Time>2021-07-29T11:40:39.000Z</Time>
            <Position>
              <LatitudeDegrees>42.016559131443500518798828125</LatitudeDegrees>
              <LongitudeDegrees>-2.78924633748829364776611328125</LongitudeDegrees>
            </Position>
            <AltitudeMeters>1488.800048828125</AltitudeMeters>
            <DistanceMeters>204064.58876738</DistanceMeters>
          </Trackpoint>
          <Trackpoint>
            <Time>2021-07-29T11:40:50.000Z</Time>
            <Position>
              <LatitudeDegrees>42.0166848599910736083984375</LatitudeDegrees>
              <LongitudeDegrees>-2.78915028087794780731201171875</LongitudeDegrees>
            </Position>
            <AltitudeMeters>1489.5999755859375</AltitudeMeters>
            <DistanceMeters>204080.68002004</DistanceMeters>
          </Trackpoint>
          <Trackpoint>
            <Time>2021-07-29T11:40:53.000Z</Time>
            <Position>
              <LatitudeDegrees>42.016726434230804443359375</LatitudeDegrees>
              <LongitudeDegrees>-2.78914189897477626800537109375</LongitudeDegrees>
            </Position>
            <AltitudeMeters>1490</AltitudeMeters>
            <DistanceMeters>204085.35857807</DistanceMeters>
          </Trackpoint>
          <Trackpoint>
            <Time>2021-07-29T11:40:55.000Z</Time>
            <Position>
              <LatitudeDegrees>42.01675049029290676116943359375</LatitudeDegrees>
              <LongitudeDegrees>-2.78912094421684741973876953125</LongitudeDegrees>
            </Position>
            <AltitudeMeters>1490.199951171875</AltitudeMeters>
            <DistanceMeters>204088.54728723</DistanceMeters>
          </Trackpoint>
          <Trackpoint>
            <Time>2021-07-29T11:41:04.000Z</Time>
            <Position>
              <LatitudeDegrees>42.01684554107487201690673828125</LatitudeDegrees>
              <LongitudeDegrees>-2.78900879435241222381591796875</LongitudeDegrees>
            </Position>
            <AltitudeMeters>1491</AltitudeMeters>
            <DistanceMeters>204102.61573474</DistanceMeters>
          </Trackpoint>
          <Trackpoint>
            <Time>2021-07-29T11:41:15.000Z</Time>
            <Position>
              <LatitudeDegrees>42.016969509422779083251953125</LatitudeDegrees>
              <LongitudeDegrees>-2.78889589011669158935546875</LongitudeDegrees>
            </Position>
            <AltitudeMeters>1492.199951171875</AltitudeMeters>
            <DistanceMeters>204119.27551954</DistanceMeters>
          </Trackpoint>
          <Trackpoint>
            <Time>2021-07-29T11:41:24.000Z</Time>
            <Position>
              <LatitudeDegrees>42.01707084663212299346923828125</LatitudeDegrees>
              <LongitudeDegrees>-2.78880863450467586517333984375</LongitudeDegrees>
            </Position>
            <AltitudeMeters>1493</AltitudeMeters>
            <DistanceMeters>204132.66451045</DistanceMeters>
          </Trackpoint>
          <Trackpoint>
            <Time>2021-07-29T11:41:26.000Z</Time>
            <Position>
              <LatitudeDegrees>42.017094902694225311279296875</LatitudeDegrees>
              <LongitudeDegrees>-2.788792960345745086669921875</LongitudeDegrees>
            </Position>
            <AltitudeMeters>1493.199951171875</AltitudeMeters>
            <DistanceMeters>204135.63931716</DistanceMeters>
          </Trackpoint>
          <Trackpoint>
            <Time>2021-07-29T11:41:28.000Z</Time>
            <Position>
              <LatitudeDegrees>42.017119042575359344482421875</LatitudeDegrees>
              <LongitudeDegrees>-2.788781560957431793212890625</LongitudeDegrees>
            </Position>
            <AltitudeMeters>1493.4000244140625</AltitudeMeters>
            <DistanceMeters>204138.48377642</DistanceMeters>
          </Trackpoint>
          <Trackpoint>
            <Time>2021-07-29T11:41:37.000Z</Time>
            <Position>
              <LatitudeDegrees>42.0172119140625</LatitudeDegrees>
              <LongitudeDegrees>-2.7886905334889888763427734375</LongitudeDegrees>
            </Position>
            <AltitudeMeters>1494.4000244140625</AltitudeMeters>
            <DistanceMeters>204151.27043212</DistanceMeters>
          </Trackpoint>
          <Trackpoint>
            <Time>2021-07-29T11:41:50.000Z</Time>
            <Position>
              <LatitudeDegrees>42.0173542387783527374267578125</LatitudeDegrees>
              <LongitudeDegrees>-2.78857058845460414886474609375</LongitudeDegrees>
            </Position>
            <AltitudeMeters>1495.5999755859375</AltitudeMeters>
            <DistanceMeters>204169.96028089</DistanceMeters>
          </Trackpoint>
          <Trackpoint>
            <Time>2021-07-29T11:41:59.000Z</Time>
            <Position>
              <LatitudeDegrees>42.01745172031223773956298828125</LatitudeDegrees>
              <LongitudeDegrees>-2.78849179856479167938232421875</LongitudeDegrees>
            </Position>
            <AltitudeMeters>1496.5999755859375</AltitudeMeters>
            <DistanceMeters>204182.61596996</DistanceMeters>
          </Trackpoint>
          <Trackpoint>
            <Time>2021-07-29T11:42:08.000Z</Time>
            <Position>
              <LatitudeDegrees>42.01753889210522174835205078125</LatitudeDegrees>
              <LongitudeDegrees>-2.788410075008869171142578125</LongitudeDegrees>
            </Position>
            <AltitudeMeters>1497.5999755859375</AltitudeMeters>
            <DistanceMeters>204194.43982904</DistanceMeters>
          </Trackpoint>
          <Trackpoint>
            <Time>2021-07-29T11:42:09.000Z</Time>
            <Position>
              <LatitudeDegrees>42.01754861511290073394775390625</LatitudeDegrees>
              <LongitudeDegrees>-2.7884021960198879241943359375</LongitudeDegrees>
            </Position>
            <AltitudeMeters>1497.5999755859375</AltitudeMeters>
            <DistanceMeters>204195.70407725</DistanceMeters>
          </Trackpoint>
          <Trackpoint>
            <Time>2021-07-29T11:42:19.000Z</Time>
            <Position>
              <LatitudeDegrees>42.01764182187616825103759765625</LatitudeDegrees>
              <LongitudeDegrees>-2.78830991126596927642822265625</LongitudeDegrees>
            </Position>
            <AltitudeMeters>1498.5999755859375</AltitudeMeters>
            <DistanceMeters>204208.58256373</DistanceMeters>
          </Trackpoint>
          <Trackpoint>
            <Time>2021-07-29T11:42:35.000Z</Time>
            <Position>
              <LatitudeDegrees>42.01779688708484172821044921875</LatitudeDegrees>
              <LongitudeDegrees>-2.7881656587123870849609375</LongitudeDegrees>
            </Position>
            <AltitudeMeters>1499.5999755859375</AltitudeMeters>
            <DistanceMeters>204229.56260296</DistanceMeters>
          </Trackpoint>
          <Trackpoint>
            <Time>2021-07-29T11:42:46.000Z</Time>
            <Position>
              <LatitudeDegrees>42.01790082268416881561279296875</LatitudeDegrees>
              <LongitudeDegrees>-2.78806633315980434417724609375</LongitudeDegrees>
            </Position>
            <AltitudeMeters>1500.5999755859375</AltitudeMeters>
            <DistanceMeters>204243.74993548</DistanceMeters>
          </Trackpoint>
          <Trackpoint>
            <Time>2021-07-29T11:42:58.000Z</Time>
            <Position>
              <LatitudeDegrees>42.01802202500402927398681640625</LatitudeDegrees>
              <LongitudeDegrees>-2.7879631519317626953125</LongitudeDegrees>
            </Position>
            <AltitudeMeters>1501.5999755859375</AltitudeMeters>
            <DistanceMeters>204259.71159507</DistanceMeters>
          </Trackpoint>
          <Trackpoint>
            <Time>2021-07-29T11:43:10.000Z</Time>
            <Position>
              <LatitudeDegrees>42.0181359350681304931640625</LatitudeDegrees>
              <LongitudeDegrees>-2.78784085996448993682861328125</LongitudeDegrees>
            </Position>
            <AltitudeMeters>1502.800048828125</AltitudeMeters>
            <DistanceMeters>204275.92889991</DistanceMeters>
          </Trackpoint>
          <Trackpoint>
            <Time>2021-07-29T11:43:30.000Z</Time>
            <Position>
              <LatitudeDegrees>42.0183436386287212371826171875</LatitudeDegrees>
              <LongitudeDegrees>-2.7876340784132480621337890625</LongitudeDegrees>
            </Position>
            <AltitudeMeters>1503.800048828125</AltitudeMeters>
            <DistanceMeters>204304.68292223</DistanceMeters>
          </Trackpoint>
          <Trackpoint>
            <Time>2021-07-29T11:43:34.000Z</Time>
            <Position>
              <LatitudeDegrees>42.01838227920234203338623046875</LatitudeDegrees>
              <LongitudeDegrees>-2.78759141452610492706298828125</LongitudeDegrees>
            </Position>
            <AltitudeMeters>1505</AltitudeMeters>
            <DistanceMeters>204310.2458416</DistanceMeters>
          </Trackpoint>
          <Trackpoint>
            <Time>2021-07-29T11:43:40.000Z</Time>
            <Position>
              <LatitudeDegrees>42.018433995544910430908203125</LatitudeDegrees>
              <LongitudeDegrees>-2.78753190301358699798583984375</LongitudeDegrees>
            </Position>
            <AltitudeMeters>1506</AltitudeMeters>
            <DistanceMeters>204317.81941708</DistanceMeters>
          </Trackpoint>
          <Trackpoint>
            <Time>2021-07-29T11:43:41.000Z</Time>
            <Position>
              <LatitudeDegrees>42.0184355042874813079833984375</LatitudeDegrees>
              <LongitudeDegrees>-2.78753173537552356719970703125</LongitudeDegrees>
            </Position>
            <AltitudeMeters>1506.199951171875</AltitudeMeters>
            <DistanceMeters>204318.00947051</DistanceMeters>
          </Trackpoint>
          <Trackpoint>
            <Time>2021-07-29T11:51:52.000Z</Time>
            <Position>
              <LatitudeDegrees>42.01873498968780040740966796875</LatitudeDegrees>
              <LongitudeDegrees>-2.78724155388772487640380859375</LongitudeDegrees>
            </Position>
            <AltitudeMeters>1508.4000244140625</AltitudeMeters>
            <DistanceMeters>204359.08102344</DistanceMeters>
          </Trackpoint>
          <Trackpoint>
            <Time>2021-07-29T11:52:03.000Z</Time>
            <Position>
              <LatitudeDegrees>42.01883775182068347930908203125</LatitudeDegrees>
              <LongitudeDegrees>-2.78712571598589420318603515625</LongitudeDegrees>
            </Position>
            <AltitudeMeters>1509.4000244140625</AltitudeMeters>
            <DistanceMeters>204373.99961232</DistanceMeters>
          </Trackpoint>
          <Trackpoint>
            <Time>2021-07-29T11:52:14.000Z</Time>
            <Position>
              <LatitudeDegrees>42.01894386671483516693115234375</LatitudeDegrees>
              <LongitudeDegrees>-2.7870242111384868621826171875</LongitudeDegrees>
            </Position>
            <AltitudeMeters>1510.4000244140625</AltitudeMeters>
            <DistanceMeters>204388.48923886</DistanceMeters>
          </Trackpoint>
          <Trackpoint>
            <Time>2021-07-29T11:52:26.000Z</Time>
            <Position>
              <LatitudeDegrees>42.01906020753085613250732421875</LatitudeDegrees>
              <LongitudeDegrees>-2.7869212813675403594970703125</LongitudeDegrees>
            </Position>
            <AltitudeMeters>1511.5999755859375</AltitudeMeters>
            <DistanceMeters>204403.98471345</DistanceMeters>
          </Trackpoint>
          <Trackpoint>
            <Time>2021-07-29T11:52:42.000Z</Time>
            <Position>
              <LatitudeDegrees>42.01920756138861179351806640625</LatitudeDegrees>
              <LongitudeDegrees>-2.7867824770510196685791015625</LongitudeDegrees>
            </Position>
            <AltitudeMeters>1512.5999755859375</AltitudeMeters>
            <DistanceMeters>204424.00267219</DistanceMeters>
          </Trackpoint>
          <Trackpoint>
            <Time>2021-07-29T11:52:55.000Z</Time>
            <Position>
              <LatitudeDegrees>42.019322477281093597412109375</LatitudeDegrees>
              <LongitudeDegrees>-2.78667862527072429656982421875</LongitudeDegrees>
            </Position>
            <AltitudeMeters>1513.800048828125</AltitudeMeters>
            <DistanceMeters>204439.408141</DistanceMeters>
          </Trackpoint>
          <Trackpoint>
            <Time>2021-07-29T11:53:15.000Z</Time>
            <Position>
              <LatitudeDegrees>42.0194902829825878143310546875</LatitudeDegrees>
              <LongitudeDegrees>-2.786501348018646240234375</LongitudeDegrees>
            </Position>
            <AltitudeMeters>1515</AltitudeMeters>
            <DistanceMeters>204463.15075147</DistanceMeters>
          </Trackpoint>
          <Trackpoint>
            <Time>2021-07-29T11:53:26.000Z</Time>
            <Position>
              <LatitudeDegrees>42.01958625577390193939208984375</LatitudeDegrees>
              <LongitudeDegrees>-2.7863975800573825836181640625</LongitudeDegrees>
            </Position>
            <AltitudeMeters>1516</AltitudeMeters>
            <DistanceMeters>204476.85207474</DistanceMeters>
          </Trackpoint>
          <Trackpoint>
            <Time>2021-07-29T11:53:35.000Z</Time>
            <Position>
              <LatitudeDegrees>42.019667141139507293701171875</LatitudeDegrees>
              <LongitudeDegrees>-2.786319963634014129638671875</LongitudeDegrees>
            </Position>
            <AltitudeMeters>1517</AltitudeMeters>
            <DistanceMeters>204487.90870962</DistanceMeters>
          </Trackpoint>
          <Trackpoint>
            <Time>2021-07-29T11:53:49.000Z</Time>
            <Position>
              <LatitudeDegrees>42.01977736316621303558349609375</LatitudeDegrees>
              <LongitudeDegrees>-2.78615743853151798248291015625</LongitudeDegrees>
            </Position>
            <AltitudeMeters>1518</AltitudeMeters>
            <DistanceMeters>204506.10527091</DistanceMeters>
          </Trackpoint>
          <Trackpoint>
            <Time>2021-07-29T11:54:05.000Z</Time>
            <Position>
              <LatitudeDegrees>42.0198983140289783477783203125</LatitudeDegrees>
              <LongitudeDegrees>-2.7859675884246826171875</LongitudeDegrees>
            </Position>
            <AltitudeMeters>1519.199951171875</AltitudeMeters>
            <DistanceMeters>204526.78553809</DistanceMeters>
          </Trackpoint>
          <Trackpoint>
            <Time>2021-07-29T11:54:17.000Z</Time>
            <Position>
              <LatitudeDegrees>42.01997785829007625579833984375</LatitudeDegrees>
              <LongitudeDegrees>-2.78580791316926479339599609375</LongitudeDegrees>
            </Position>
            <AltitudeMeters>1520.199951171875</AltitudeMeters>
            <DistanceMeters>204542.68257301</DistanceMeters>
          </Trackpoint>
          <Trackpoint>
            <Time>2021-07-29T11:54:21.000Z</Time>
            <Position>
              <LatitudeDegrees>42.02000048942863941192626953125</LatitudeDegrees>
              <LongitudeDegrees>-2.7857508324086666107177734375</LongitudeDegrees>
            </Position>
            <AltitudeMeters>1521</AltitudeMeters>
            <DistanceMeters>204548.03199469</DistanceMeters>
          </Trackpoint>
          <Trackpoint>
            <Time>2021-07-29T11:54:28.000Z</Time>
            <Position>
              <LatitudeDegrees>42.0200408063828945159912109375</LatitudeDegrees>
              <LongitudeDegrees>-2.78565041720867156982421875</LongitudeDegrees>
            </Position>
            <AltitudeMeters>1522</AltitudeMeters>
            <DistanceMeters>204557.46982675</DistanceMeters>
          </Trackpoint>
          <Trackpoint>
            <Time>2021-07-29T11:54:41.000Z</Time>
            <Position>
              <LatitudeDegrees>42.0201051793992519378662109375</LatitudeDegrees>
              <LongitudeDegrees>-2.78544665314257144927978515625</LongitudeDegrees>
            </Position>
            <AltitudeMeters>1523.199951171875</AltitudeMeters>
            <DistanceMeters>204575.77869066</DistanceMeters>
          </Trackpoint>
          <Trackpoint>
            <Time>2021-07-29T11:54:57.000Z</Time>
            <Position>
              <LatitudeDegrees>42.02015873976051807403564453125</LatitudeDegrees>
              <LongitudeDegrees>-2.78517541475594043731689453125</LongitudeDegrees>
            </Position>
            <AltitudeMeters>1524.199951171875</AltitudeMeters>
            <DistanceMeters>204598.98525717</DistanceMeters>
          </Trackpoint>
          <Trackpoint>
            <Time>2021-07-29T11:55:10.000Z</Time>
            <Position>
              <LatitudeDegrees>42.02019562013447284698486328125</LatitudeDegrees>
              <LongitudeDegrees>-2.78494642116129398345947265625</LongitudeDegrees>
            </Position>
            <AltitudeMeters>1524.199951171875</AltitudeMeters>
            <DistanceMeters>204618.36022318</DistanceMeters>
          </Trackpoint>
          <Trackpoint>
            <Time>2021-07-29T11:55:16.000Z</Time>
            <Position>
              <LatitudeDegrees>42.02020081691443920135498046875</LatitudeDegrees>
              <LongitudeDegrees>-2.78484500013291835784912109375</LongitudeDegrees>
            </Position>
            <AltitudeMeters>1525</AltitudeMeters>
            <DistanceMeters>204626.76673127</DistanceMeters>
          </Trackpoint>
          <Trackpoint>
            <Time>2021-07-29T11:55:17.000Z</Time>
            <Position>
              <LatitudeDegrees>42.020198889076709747314453125</LatitudeDegrees>
              <LongitudeDegrees>-2.7848284877836704254150390625</LongitudeDegrees>
            </Position>
            <AltitudeMeters>1525.199951171875</AltitudeMeters>
            <DistanceMeters>204628.15034111</DistanceMeters>
          </Trackpoint>
          <Trackpoint>
            <Time>2021-07-29T11:55:40.000Z</Time>
            <Position>
              <LatitudeDegrees>42.020206265151500701904296875</LatitudeDegrees>
              <LongitudeDegrees>-2.7844429202377796173095703125</LongitudeDegrees>
            </Position>
            <AltitudeMeters>1526.199951171875</AltitudeMeters>
            <DistanceMeters>204660.04252966</DistanceMeters>
          </Trackpoint>
          <Trackpoint>
            <Time>2021-07-29T11:55:51.000Z</Time>
            <Position>
              <LatitudeDegrees>42.02021255157887935638427734375</LatitudeDegrees>
              <LongitudeDegrees>-2.78426103293895721435546875</LongitudeDegrees>
            </Position>
            <AltitudeMeters>1527.199951171875</AltitudeMeters>
            <DistanceMeters>204675.09879211</DistanceMeters>
          </Trackpoint>
          <Trackpoint>
            <Time>2021-07-29T11:56:06.000Z</Time>
            <Position>
              <LatitudeDegrees>42.0202503539621829986572265625</LatitudeDegrees>
              <LongitudeDegrees>-2.78401301242411136627197265625</LongitudeDegrees>
            </Position>
            <AltitudeMeters>1528.199951171875</AltitudeMeters>
            <DistanceMeters>204696.03423623</DistanceMeters>
          </Trackpoint>
          <Trackpoint>
            <Time>2021-07-29T11:56:13.000Z</Time>
            <Position>
              <LatitudeDegrees>42.020265944302082061767578125</LatitudeDegrees>
              <LongitudeDegrees>-2.78389801271259784698486328125</LongitudeDegrees>
            </Position>
            <AltitudeMeters>1529.199951171875</AltitudeMeters>
            <DistanceMeters>204705.70037305</DistanceMeters>
          </Trackpoint>
          <Trackpoint>
            <Time>2021-07-29T11:56:25.000Z</Time>
            <Position>
              <LatitudeDegrees>42.0203113742172718048095703125</LatitudeDegrees>
              <LongitudeDegrees>-2.783712185919284820556640625</LongitudeDegrees>
            </Position>
            <AltitudeMeters>1530.199951171875</AltitudeMeters>
            <DistanceMeters>204721.87670005</DistanceMeters>
          </Trackpoint>
          <Trackpoint>
            <Time>2021-07-29T11:56:30.000Z</Time>
            <Position>
              <LatitudeDegrees>42.020343057811260223388671875</LatitudeDegrees>
              <LongitudeDegrees>-2.783635742962360382080078125</LongitudeDegrees>
            </Position>
            <AltitudeMeters>1531</AltitudeMeters>
            <DistanceMeters>204729.11496666</DistanceMeters>
          </Trackpoint>
          <Trackpoint>
            <Time>2021-07-29T11:56:33.000Z</Time>
            <Position>
              <LatitudeDegrees>42.02035655267536640167236328125</LatitudeDegrees>
              <LongitudeDegrees>-2.7835866250097751617431640625</LongitudeDegrees>
            </Position>
            <AltitudeMeters>1531.4000244140625</AltitudeMeters>
            <DistanceMeters>204733.44676754</DistanceMeters>
          </Trackpoint>
          <Trackpoint>
            <Time>2021-07-29T11:56:51.000Z</Time>
            <Position>
              <LatitudeDegrees>42.020463757216930389404296875</LatitudeDegrees>
              <LongitudeDegrees>-2.78331714682281017303466796875</LongitudeDegrees>
            </Position>
            <AltitudeMeters>1532.199951171875</AltitudeMeters>
            <DistanceMeters>204758.72280181</DistanceMeters>
          </Trackpoint>
          <Trackpoint>
            <Time>2021-07-29T11:57:04.000Z</Time>
            <Position>
              <LatitudeDegrees>42.020550929009914398193359375</LatitudeDegrees>
              <LongitudeDegrees>-2.7831272967159748077392578125</LongitudeDegrees>
            </Position>
            <AltitudeMeters>1533.4000244140625</AltitudeMeters>
            <DistanceMeters>204777.17732247</DistanceMeters>
          </Trackpoint>
          <Trackpoint>
            <Time>2021-07-29T11:57:22.000Z</Time>
            <Position>
              <LatitudeDegrees>42.02069132588803768157958984375</LatitudeDegrees>
              <LongitudeDegrees>-2.78289017267525196075439453125</LongitudeDegrees>
            </Position>
            <AltitudeMeters>1534.199951171875</AltitudeMeters>
            <DistanceMeters>204802.24943271</DistanceMeters>
          </Trackpoint>
          <Trackpoint>
            <Time>2021-07-29T11:57:30.000Z</Time>
            <Position>
              <LatitudeDegrees>42.02074505388736724853515625</LatitudeDegrees>
              <LongitudeDegrees>-2.7827910147607326507568359375</LongitudeDegrees>
            </Position>
            <AltitudeMeters>1535.4000244140625</AltitudeMeters>
            <DistanceMeters>204812.39817903</DistanceMeters>
          </Trackpoint>
          <Trackpoint>
            <Time>2021-07-29T11:57:46.000Z</Time>
            <Position>
              <LatitudeDegrees>42.0208518393337726593017578125</LatitudeDegrees>
              <LongitudeDegrees>-2.782597728073596954345703125</LongitudeDegrees>
            </Position>
            <AltitudeMeters>1536.4000244140625</AltitudeMeters>
            <DistanceMeters>204832.31528871</DistanceMeters>
          </Trackpoint>
          <Trackpoint>
            <Time>2021-07-29T11:57:59.000Z</Time>
            <Position>
              <LatitudeDegrees>42.0209366641938686370849609375</LatitudeDegrees>
              <LongitudeDegrees>-2.78244056738913059234619140625</LongitudeDegrees>
            </Position>
            <AltitudeMeters>1537.4000244140625</AltitudeMeters>
            <DistanceMeters>204848.37789573</DistanceMeters>
          </Trackpoint>
          <Trackpoint>
            <Time>2021-07-29T11:58:12.000Z</Time>
            <Position>
              <LatitudeDegrees>42.0210246741771697998046875</LatitudeDegrees>
              <LongitudeDegrees>-2.7822813950479030609130859375</LongitudeDegrees>
            </Position>
            <AltitudeMeters>1538.4000244140625</AltitudeMeters>
            <DistanceMeters>204864.78452697</DistanceMeters>
          </Trackpoint>
          <Trackpoint>
            <Time>2021-07-29T11:58:24.000Z</Time>
            <Position>
              <LatitudeDegrees>42.02111310325562953948974609375</LatitudeDegrees>
              <LongitudeDegrees>-2.7821368910372257232666015625</LongitudeDegrees>
            </Position>
            <AltitudeMeters>1539.4000244140625</AltitudeMeters>
            <DistanceMeters>204880.26455083</DistanceMeters>
          </Trackpoint>
          <Trackpoint>
            <Time>2021-07-29T11:58:25.000Z</Time>
            <Position>
              <LatitudeDegrees>42.02111922204494476318359375</LatitudeDegrees>
              <LongitudeDegrees>-2.78212339617311954498291015625</LongitudeDegrees>
            </Position>
            <AltitudeMeters>1539.4000244140625</AltitudeMeters>
            <DistanceMeters>204881.56749149</DistanceMeters>
          </Trackpoint>
          <Trackpoint>
            <Time>2021-07-29T11:58:38.000Z</Time>
            <Position>
              <LatitudeDegrees>42.02121787704527378082275390625</LatitudeDegrees>
              <LongitudeDegrees>-2.78195994906127452850341796875</LongitudeDegrees>
            </Position>
            <AltitudeMeters>1540.4000244140625</AltitudeMeters>
            <DistanceMeters>204898.98073177</DistanceMeters>
          </Trackpoint>
          <Trackpoint>
            <Time>2021-07-29T11:58:46.000Z</Time>
            <Position>
              <LatitudeDegrees>42.02127621509134769439697265625</LatitudeDegrees>
              <LongitudeDegrees>-2.78186825104057788848876953125</LongitudeDegrees>
            </Position>
            <AltitudeMeters>1541.4000244140625</AltitudeMeters>
            <DistanceMeters>204908.96260852</DistanceMeters>
          </Trackpoint>
          <Trackpoint>
            <Time>2021-07-29T11:58:53.000Z</Time>
            <Position>
              <LatitudeDegrees>42.02133086510002613067626953125</LatitudeDegrees>
              <LongitudeDegrees>-2.7817942388355731964111328125</LongitudeDegrees>
            </Position>
            <AltitudeMeters>1542.4000244140625</AltitudeMeters>
            <DistanceMeters>204917.59069928</DistanceMeters>
          </Trackpoint>
          <Trackpoint>
            <Time>2021-07-29T11:58:57.000Z</Time>
            <Position>
              <LatitudeDegrees>42.0213639736175537109375</LatitudeDegrees>
              <LongitudeDegrees>-2.78175191022455692291259765625</LongitudeDegrees>
            </Position>
            <AltitudeMeters>1542.800048828125</AltitudeMeters>
            <DistanceMeters>204922.67262988</DistanceMeters>
          </Trackpoint>
          <Trackpoint>
            <Time>2021-07-29T11:58:58.000Z</Time>
            <Position>
              <LatitudeDegrees>42.021373696625232696533203125</LatitudeDegrees>
              <LongitudeDegrees>-2.78174336068332195281982421875</LongitudeDegrees>
            </Position>
            <AltitudeMeters>1543</AltitudeMeters>
            <DistanceMeters>204923.96163495</DistanceMeters>
          </Trackpoint>
          <Trackpoint>
            <Time>2021-07-29T11:59:17.000Z</Time>
            <Position>
              <LatitudeDegrees>42.02155499719083309173583984375</LatitudeDegrees>
              <LongitudeDegrees>-2.781566418707370758056640625</LongitudeDegrees>
            </Position>
            <AltitudeMeters>1543.4000244140625</AltitudeMeters>
            <DistanceMeters>204948.88654617</DistanceMeters>
          </Trackpoint>
          <Trackpoint>
            <Time>2021-07-29T11:59:24.000Z</Time>
            <Position>
              <LatitudeDegrees>42.0216172747313976287841796875</LatitudeDegrees>
              <LongitudeDegrees>-2.78148821555078029632568359375</LongitudeDegrees>
            </Position>
            <AltitudeMeters>1544.5999755859375</AltitudeMeters>
            <DistanceMeters>204958.36590747</DistanceMeters>
          </Trackpoint>
          <Trackpoint>
            <Time>2021-07-29T11:59:35.000Z</Time>
            <Position>
              <LatitudeDegrees>42.0217128284275531768798828125</LatitudeDegrees>
              <LongitudeDegrees>-2.7813758142292499542236328125</LongitudeDegrees>
            </Position>
            <AltitudeMeters>1545.5999755859375</AltitudeMeters>
            <DistanceMeters>204972.48976738</DistanceMeters>
          </Trackpoint>
          <Trackpoint>
            <Time>2021-07-29T11:59:47.000Z</Time>
            <Position>
              <LatitudeDegrees>42.0218268223106861114501953125</LatitudeDegrees>
              <LongitudeDegrees>-2.78124161995947360992431640625</LongitudeDegrees>
            </Position>
            <AltitudeMeters>1546.5999755859375</AltitudeMeters>
            <DistanceMeters>204989.34516014</DistanceMeters>
          </Trackpoint>
          <Trackpoint>
            <Time>2021-07-29T11:59:58.000Z</Time>
            <Position>
              <LatitudeDegrees>42.02192430384457111358642578125</LatitudeDegrees>
              <LongitudeDegrees>-2.7811042405664920806884765625</LongitudeDegrees>
            </Position>
            <AltitudeMeters>1547.5999755859375</AltitudeMeters>
            <DistanceMeters>205005.05362502</DistanceMeters>
          </Trackpoint>
          <Trackpoint>
            <Time>2021-07-29T12:00:11.000Z</Time>
            <Position>
              <LatitudeDegrees>42.02202723361551761627197265625</LatitudeDegrees>
              <LongitudeDegrees>-2.78094314038753509521484375</LongitudeDegrees>
            </Position>
            <AltitudeMeters>1548.5999755859375</AltitudeMeters>
            <DistanceMeters>205022.62329102</DistanceMeters>
          </Trackpoint>
          <Trackpoint>
            <Time>2021-07-29T12:00:19.000Z</Time>
            <Position>
              <LatitudeDegrees>42.022082805633544921875</LatitudeDegrees>
              <LongitudeDegrees>-2.7808437310159206390380859375</LongitudeDegrees>
            </Position>
            <AltitudeMeters>1549.800048828125</AltitudeMeters>
            <DistanceMeters>205032.91034433</DistanceMeters>
          </Trackpoint>
          <Trackpoint>
            <Time>2021-07-29T12:00:29.000Z</Time>
            <Position>
              <LatitudeDegrees>42.02214558608829975128173828125</LatitudeDegrees>
              <LongitudeDegrees>-2.7807144820690155029296875</LongitudeDegrees>
            </Position>
            <AltitudeMeters>1551</AltitudeMeters>
            <DistanceMeters>205045.67933255</DistanceMeters>
          </Trackpoint>
          <Trackpoint>
            <Time>2021-07-29T12:00:33.000Z</Time>
            <Position>
              <LatitudeDegrees>42.0221755094826221466064453125</LatitudeDegrees>
              <LongitudeDegrees>-2.78067617677152156829833984375</LongitudeDegrees>
            </Position>
            <AltitudeMeters>1551.4000244140625</AltitudeMeters>
            <DistanceMeters>205050.27611174</DistanceMeters>
          </Trackpoint>
          <Trackpoint>
            <Time>2021-07-29T12:00:38.000Z</Time>
            <Position>
              <LatitudeDegrees>42.02219772152602672576904296875</LatitudeDegrees>
              <LongitudeDegrees>-2.78060652315616607666015625</LongitudeDegrees>
            </Position>
            <AltitudeMeters>1552</AltitudeMeters>
            <DistanceMeters>205056.543554</DistanceMeters>
          </Trackpoint>
          <Trackpoint>
            <Time>2021-07-29T12:00:46.000Z</Time>
            <Position>
              <LatitudeDegrees>42.02224197797477245330810546875</LatitudeDegrees>
              <LongitudeDegrees>-2.780500240623950958251953125</LongitudeDegrees>
            </Position>
            <AltitudeMeters>1553</AltitudeMeters>
            <DistanceMeters>205066.61728216</DistanceMeters>
          </Trackpoint>
          <Trackpoint>
            <Time>2021-07-29T12:00:56.000Z</Time>
            <Position>
              <LatitudeDegrees>42.0222817920148372650146484375</LatitudeDegrees>
              <LongitudeDegrees>-2.7803542278707027435302734375</LongitudeDegrees>
            </Position>
            <AltitudeMeters>1554</AltitudeMeters>
            <DistanceMeters>205079.47787624</DistanceMeters>
          </Trackpoint>
          <Trackpoint>
            <Time>2021-07-29T12:01:06.000Z</Time>
            <Position>
              <LatitudeDegrees>42.02230635099112987518310546875</LatitudeDegrees>
              <LongitudeDegrees>-2.780207879841327667236328125</LongitudeDegrees>
            </Position>
            <AltitudeMeters>1555.199951171875</AltitudeMeters>
            <DistanceMeters>205091.88350371</DistanceMeters>
          </Trackpoint>
          <Trackpoint>
            <Time>2021-07-29T12:01:13.000Z</Time>
            <Position>
              <LatitudeDegrees>42.0223112963140010833740234375</LatitudeDegrees>
              <LongitudeDegrees>-2.7800994180142879486083984375</LongitudeDegrees>
            </Position>
            <AltitudeMeters>1556.199951171875</AltitudeMeters>
            <DistanceMeters>205100.86842905</DistanceMeters>
          </Trackpoint>
          <Trackpoint>
            <Time>2021-07-29T12:01:21.000Z</Time>
            <Position>
              <LatitudeDegrees>42.0223180018365383148193359375</LatitudeDegrees>
              <LongitudeDegrees>-2.77997679077088832855224609375</LongitudeDegrees>
            </Position>
            <AltitudeMeters>1557.199951171875</AltitudeMeters>
            <DistanceMeters>205111.03495525</DistanceMeters>
          </Trackpoint>
          <Trackpoint>
            <Time>2021-07-29T12:01:31.000Z</Time>
            <Position>
              <LatitudeDegrees>42.022310458123683929443359375</LatitudeDegrees>
              <LongitudeDegrees>-2.77982507832348346710205078125</LongitudeDegrees>
            </Position>
            <AltitudeMeters>1558.199951171875</AltitudeMeters>
            <DistanceMeters>205123.60724455</DistanceMeters>
          </Trackpoint>
          <Trackpoint>
            <Time>2021-07-29T12:01:44.000Z</Time>
            <Position>
              <LatitudeDegrees>42.02230450697243213653564453125</LatitudeDegrees>
              <LongitudeDegrees>-2.77963447384536266326904296875</LongitudeDegrees>
            </Position>
            <AltitudeMeters>1559.199951171875</AltitudeMeters>
            <DistanceMeters>205139.3813929</DistanceMeters>
          </Trackpoint>
          <Trackpoint>
            <Time>2021-07-29T12:01:57.000Z</Time>
            <Position>
              <LatitudeDegrees>42.022297047078609466552734375</LatitudeDegrees>
              <LongitudeDegrees>-2.7794281952083110809326171875</LongitudeDegrees>
            </Position>
            <AltitudeMeters>1559.5999755859375</AltitudeMeters>
            <DistanceMeters>205156.45766968</DistanceMeters>
          </Trackpoint>
          <Trackpoint>
            <Time>2021-07-29T12:02:04.000Z</Time>
            <Position>
              <LatitudeDegrees>42.0222858153283596038818359375</LatitudeDegrees>
              <LongitudeDegrees>-2.7793148718774318695068359375</LongitudeDegrees>
            </Position>
            <AltitudeMeters>1560.199951171875</AltitudeMeters>
            <DistanceMeters>205165.91079808</DistanceMeters>
          </Trackpoint>
          <Trackpoint>
            <Time>2021-07-29T12:02:24.000Z</Time>
            <Position>
              <LatitudeDegrees>42.022269554436206817626953125</LatitudeDegrees>
              <LongitudeDegrees>-2.778981439769268035888671875</LongitudeDegrees>
            </Position>
            <AltitudeMeters>1561.199951171875</AltitudeMeters>
            <DistanceMeters>205193.53972336</DistanceMeters>
          </Trackpoint>
          <Trackpoint>
            <Time>2021-07-29T12:02:41.000Z</Time>
            <Position>
              <LatitudeDegrees>42.022256813943386077880859375</LatitudeDegrees>
              <LongitudeDegrees>-2.77868882752954959869384765625</LongitudeDegrees>
            </Position>
            <AltitudeMeters>1562.199951171875</AltitudeMeters>
            <DistanceMeters>205217.77563437</DistanceMeters>
          </Trackpoint>
          <Trackpoint>
            <Time>2021-07-29T12:02:54.000Z</Time>
            <Position>
              <LatitudeDegrees>42.02226997353136539459228515625</LatitudeDegrees>
              <LongitudeDegrees>-2.77846553362905979156494140625</LongitudeDegrees>
            </Position>
            <AltitudeMeters>1563.4000244140625</AltitudeMeters>
            <DistanceMeters>205236.29682612</DistanceMeters>
          </Trackpoint>
          <Trackpoint>
            <Time>2021-07-29T12:03:04.000Z</Time>
            <Position>
              <LatitudeDegrees>42.02228640206158161163330078125</LatitudeDegrees>
              <LongitudeDegrees>-2.77827761135995388031005859375</LongitudeDegrees>
            </Position>
            <AltitudeMeters>1564.5999755859375</AltitudeMeters>
            <DistanceMeters>205251.94221784</DistanceMeters>
          </Trackpoint>
          <Trackpoint>
            <Time>2021-07-29T12:03:17.000Z</Time>
            <Position>
              <LatitudeDegrees>42.02231205068528652191162109375</LatitudeDegrees>
              <LongitudeDegrees>-2.77805264107882976531982421875</LongitudeDegrees>
            </Position>
            <AltitudeMeters>1565.4000244140625</AltitudeMeters>
            <DistanceMeters>205270.76134636</DistanceMeters>
          </Trackpoint>
          <Trackpoint>
            <Time>2021-07-29T12:03:30.000Z</Time>
            <Position>
              <LatitudeDegrees>42.0223411358892917633056640625</LatitudeDegrees>
              <LongitudeDegrees>-2.77783714234828948974609375</LongitudeDegrees>
            </Position>
            <AltitudeMeters>1566.4000244140625</AltitudeMeters>
            <DistanceMeters>205288.87135399</DistanceMeters>
          </Trackpoint>
          <Trackpoint>
            <Time>2021-07-29T12:03:44.000Z</Time>
            <Position>
              <LatitudeDegrees>42.022380530834197998046875</LatitudeDegrees>
              <LongitudeDegrees>-2.77760781347751617431640625</LongitudeDegrees>
            </Position>
            <AltitudeMeters>1567.5999755859375</AltitudeMeters>
            <DistanceMeters>205308.3335118</DistanceMeters>
          </Trackpoint>
          <Trackpoint>
            <Time>2021-07-29T12:03:58.000Z</Time>
            <Position>
              <LatitudeDegrees>42.022423110902309417724609375</LatitudeDegrees>
              <LongitudeDegrees>-2.777377478778362274169921875</LongitudeDegrees>
            </Position>
            <AltitudeMeters>1568.4000244140625</AltitudeMeters>
            <DistanceMeters>205327.95969179</DistanceMeters>
          </Trackpoint>
          <Trackpoint>
            <Time>2021-07-29T12:04:08.000Z</Time>
            <Position>
              <LatitudeDegrees>42.02244699932634830474853515625</LatitudeDegrees>
              <LongitudeDegrees>-2.7772126905620098114013671875</LongitudeDegrees>
            </Position>
            <AltitudeMeters>1569.4000244140625</AltitudeMeters>
            <DistanceMeters>205341.84205079</DistanceMeters>
          </Trackpoint>
          <Trackpoint>
            <Time>2021-07-29T12:04:22.000Z</Time>
            <Position>
              <LatitudeDegrees>42.02249251306056976318359375</LatitudeDegrees>
              <LongitudeDegrees>-2.77698562480509281158447265625</LongitudeDegrees>
            </Position>
            <AltitudeMeters>1570.5999755859375</AltitudeMeters>
            <DistanceMeters>205361.28796247</DistanceMeters>
          </Trackpoint>
          <Trackpoint>
            <Time>2021-07-29T12:04:30.000Z</Time>
            <Position>
              <LatitudeDegrees>42.0225034095346927642822265625</LatitudeDegrees>
              <LongitudeDegrees>-2.77684874832630157470703125</LongitudeDegrees>
            </Position>
            <AltitudeMeters>1571.5999755859375</AltitudeMeters>
            <DistanceMeters>205372.6697671</DistanceMeters>
          </Trackpoint>
          <Trackpoint>
            <Time>2021-07-29T12:04:45.000Z</Time>
            <Position>
              <LatitudeDegrees>42.022544480860233306884765625</LatitudeDegrees>
              <LongitudeDegrees>-2.7765957824885845184326171875</LongitudeDegrees>
            </Position>
            <AltitudeMeters>1572.5999755859375</AltitudeMeters>
            <DistanceMeters>205394.07968864</DistanceMeters>
          </Trackpoint>
          <Trackpoint>
            <Time>2021-07-29T12:04:52.000Z</Time>
            <Position>
              <LatitudeDegrees>42.0225656032562255859375</LatitudeDegrees>
              <LongitudeDegrees>-2.77648321352899074554443359375</LongitudeDegrees>
            </Position>
            <AltitudeMeters>1573.5999755859375</AltitudeMeters>
            <DistanceMeters>205403.67973865</DistanceMeters>
          </Trackpoint>
          <Trackpoint>
            <Time>2021-07-29T12:05:09.000Z</Time>
            <Position>
              <LatitudeDegrees>42.02262251637876033782958984375</LatitudeDegrees>
              <LongitudeDegrees>-2.77621583081781864166259765625</LongitudeDegrees>
            </Position>
            <AltitudeMeters>1574.5999755859375</AltitudeMeters>
            <DistanceMeters>205426.67777417</DistanceMeters>
          </Trackpoint>
          <Trackpoint>
            <Time>2021-07-29T12:05:23.000Z</Time>
            <Position>
              <LatitudeDegrees>42.0226514339447021484375</LatitudeDegrees>
              <LongitudeDegrees>-2.775984741747379302978515625</LongitudeDegrees>
            </Position>
            <AltitudeMeters>1575.800048828125</AltitudeMeters>
            <DistanceMeters>205446.05483737</DistanceMeters>
          </Trackpoint>
          <Trackpoint>
            <Time>2021-07-29T12:05:34.000Z</Time>
            <Position>
              <LatitudeDegrees>42.022680602967739105224609375</LatitudeDegrees>
              <LongitudeDegrees>-2.775807045400142669677734375</LongitudeDegrees>
            </Position>
            <AltitudeMeters>1576.5999755859375</AltitudeMeters>
            <DistanceMeters>205461.10210081</DistanceMeters>
          </Trackpoint>
          <Trackpoint>
            <Time>2021-07-29T12:05:43.000Z</Time>
            <Position>
              <LatitudeDegrees>42.0226978696882724761962890625</LatitudeDegrees>
              <LongitudeDegrees>-2.7756536565721035003662109375</LongitudeDegrees>
            </Position>
            <AltitudeMeters>1577.5999755859375</AltitudeMeters>
            <DistanceMeters>205473.92929936</DistanceMeters>
          </Trackpoint>
          <Trackpoint>
            <Time>2021-07-29T12:05:44.000Z</Time>
            <Position>
              <LatitudeDegrees>42.022697031497955322265625</LatitudeDegrees>
              <LongitudeDegrees>-2.77563613839447498321533203125</LongitudeDegrees>
            </Position>
            <AltitudeMeters>1577.800048828125</AltitudeMeters>
            <DistanceMeters>205475.37981921</DistanceMeters>
          </Trackpoint>
          <Trackpoint>
            <Time>2021-07-29T12:05:57.000Z</Time>
            <Position>
              <LatitudeDegrees>42.02272494323551654815673828125</LatitudeDegrees>
              <LongitudeDegrees>-2.77542122639715671539306640625</LongitudeDegrees>
            </Position>
            <AltitudeMeters>1578.800048828125</AltitudeMeters>
            <DistanceMeters>205493.41938392</DistanceMeters>
          </Trackpoint>
          <Trackpoint>
            <Time>2021-07-29T12:06:05.000Z</Time>
            <Position>
              <LatitudeDegrees>42.02274137176573276519775390625</LatitudeDegrees>
              <LongitudeDegrees>-2.775290049612522125244140625</LongitudeDegrees>
            </Position>
            <AltitudeMeters>1579.800048828125</AltitudeMeters>
            <DistanceMeters>205504.41870045</DistanceMeters>
          </Trackpoint>
          <Trackpoint>
            <Time>2021-07-29T12:06:13.000Z</Time>
            <Position>
              <LatitudeDegrees>42.02276618219912052154541015625</LatitudeDegrees>
              <LongitudeDegrees>-2.77516641654074192047119140625</LongitudeDegrees>
            </Position>
            <AltitudeMeters>1581</AltitudeMeters>
            <DistanceMeters>205515.00725224</DistanceMeters>
          </Trackpoint>
          <Trackpoint>
            <Time>2021-07-29T12:06:22.000Z</Time>
            <Position>
              <LatitudeDegrees>42.022801302373409271240234375</LatitudeDegrees>
              <LongitudeDegrees>-2.77503155171871185302734375</LongitudeDegrees>
            </Position>
            <AltitudeMeters>1582.199951171875</AltitudeMeters>
            <DistanceMeters>205526.82347169</DistanceMeters>
          </Trackpoint>
          <Trackpoint>
            <Time>2021-07-29T12:06:33.000Z</Time>
            <Position>
              <LatitudeDegrees>42.022824771702289581298828125</LatitudeDegrees>
              <LongitudeDegrees>-2.7748664282262325286865234375</LongitudeDegrees>
            </Position>
            <AltitudeMeters>1583</AltitudeMeters>
            <DistanceMeters>205540.72435676</DistanceMeters>
          </Trackpoint>
          <Trackpoint>
            <Time>2021-07-29T12:06:46.000Z</Time>
            <Position>
              <LatitudeDegrees>42.022871039807796478271484375</LatitudeDegrees>
              <LongitudeDegrees>-2.7746619097888469696044921875</LongitudeDegrees>
            </Position>
            <AltitudeMeters>1584</AltitudeMeters>
            <DistanceMeters>205558.4013691</DistanceMeters>
          </Trackpoint>
          <Trackpoint>
            <Time>2021-07-29T12:07:01.000Z</Time>
            <Position>
              <LatitudeDegrees>42.02295728959143161773681640625</LatitudeDegrees>
              <LongitudeDegrees>-2.77445747517049312591552734375</LongitudeDegrees>
            </Position>
            <AltitudeMeters>1585.199951171875</AltitudeMeters>
            <DistanceMeters>205577.840314</DistanceMeters>
          </Trackpoint>
          <Trackpoint>
            <Time>2021-07-29T12:07:11.000Z</Time>
            <Position>
              <LatitudeDegrees>42.02302836813032627105712890625</LatitudeDegrees>
              <LongitudeDegrees>-2.77433996088802814483642578125</LongitudeDegrees>
            </Position>
            <AltitudeMeters>1586</AltitudeMeters>
            <DistanceMeters>205590.37015475</DistanceMeters>
          </Trackpoint>
          <Trackpoint>
            <Time>2021-07-29T12:07:13.000Z</Time>
            <Position>
              <LatitudeDegrees>42.02304747886955738067626953125</LatitudeDegrees>
              <LongitudeDegrees>-2.77432202361524105072021484375</LongitudeDegrees>
            </Position>
            <AltitudeMeters>1586.199951171875</AltitudeMeters>
            <DistanceMeters>205592.96213794</DistanceMeters>
          </Trackpoint>
          <Trackpoint>
            <Time>2021-07-29T12:07:23.000Z</Time>
            <Position>
              <LatitudeDegrees>42.02313347719609737396240234375</LatitudeDegrees>
              <LongitudeDegrees>-2.7742196805775165557861328125</LongitudeDegrees>
            </Position>
            <AltitudeMeters>1587.199951171875</AltitudeMeters>
            <DistanceMeters>205605.73819609</DistanceMeters>
          </Trackpoint>
          <Trackpoint>
            <Time>2021-07-29T12:07:36.000Z</Time>
            <Position>
              <LatitudeDegrees>42.023262642323970794677734375</LatitudeDegrees>
              <LongitudeDegrees>-2.7741412259638309478759765625</LongitudeDegrees>
            </Position>
            <AltitudeMeters>1588.199951171875</AltitudeMeters>
            <DistanceMeters>205621.51034071</DistanceMeters>
          </Trackpoint>
          <Trackpoint>
            <Time>2021-07-29T12:07:46.000Z</Time>
            <Position>
              <LatitudeDegrees>42.023367583751678466796875</LatitudeDegrees>
              <LongitudeDegrees>-2.7740949578583240509033203125</LongitudeDegrees>
            </Position>
            <AltitudeMeters>1589.199951171875</AltitudeMeters>
            <DistanceMeters>205633.80115634</DistanceMeters>
          </Trackpoint>
          <Trackpoint>
            <Time>2021-07-29T12:07:58.000Z</Time>
            <Position>
              <LatitudeDegrees>42.0234998501837253570556640625</LatitudeDegrees>
              <LongitudeDegrees>-2.77409118600189685821533203125</LongitudeDegrees>
            </Position>
            <AltitudeMeters>1590.4000244140625</AltitudeMeters>
            <DistanceMeters>205648.52600491</DistanceMeters>
          </Trackpoint>
          <Trackpoint>
            <Time>2021-07-29T12:08:07.000Z</Time>
            <Position>
              <LatitudeDegrees>42.02359297312796115875244140625</LatitudeDegrees>
              <LongitudeDegrees>-2.7741009928286075592041015625</LongitudeDegrees>
            </Position>
            <AltitudeMeters>1591.199951171875</AltitudeMeters>
            <DistanceMeters>205658.92177111</DistanceMeters>
          </Trackpoint>
          <Trackpoint>
            <Time>2021-07-29T12:08:17.000Z</Time>
            <Position>
              <LatitudeDegrees>42.02369405888020992279052734375</LatitudeDegrees>
              <LongitudeDegrees>-2.77414650656282901763916015625</LongitudeDegrees>
            </Position>
            <AltitudeMeters>1592.199951171875</AltitudeMeters>
            <DistanceMeters>205670.78527698</DistanceMeters>
          </Trackpoint>
          <Trackpoint>
            <Time>2021-07-29T12:08:24.000Z</Time>
            <Position>
              <LatitudeDegrees>42.02377066947519779205322265625</LatitudeDegrees>
              <LongitudeDegrees>-2.77418875135481357574462890625</LongitudeDegrees>
            </Position>
            <AltitudeMeters>1593.199951171875</AltitudeMeters>
            <DistanceMeters>205680.0004188</DistanceMeters>
          </Trackpoint>
          <Trackpoint>
            <Time>2021-07-29T12:08:30.000Z</Time>
            <Position>
              <LatitudeDegrees>42.02383093535900115966796875</LatitudeDegrees>
              <LongitudeDegrees>-2.7742508612573146820068359375</LongitudeDegrees>
            </Position>
            <AltitudeMeters>1593.800048828125</AltitudeMeters>
            <DistanceMeters>205688.44818147</DistanceMeters>
          </Trackpoint>
          <Trackpoint>
            <Time>2021-07-29T12:08:34.000Z</Time>
            <Position>
              <LatitudeDegrees>42.02386806719005107879638671875</LatitudeDegrees>
              <LongitudeDegrees>-2.77430375106632709503173828125</LongitudeDegrees>
            </Position>
            <AltitudeMeters>1594.199951171875</AltitudeMeters>
            <DistanceMeters>205694.46495606</DistanceMeters>
          </Trackpoint>
          <Trackpoint>
            <Time>2021-07-29T12:08:35.000Z</Time>
            <Position>
              <LatitudeDegrees>42.0238758623600006103515625</LatitudeDegrees>
              <LongitudeDegrees>-2.774321101605892181396484375</LongitudeDegrees>
            </Position>
            <AltitudeMeters>1594.5999755859375</AltitudeMeters>
            <DistanceMeters>205696.14077042</DistanceMeters>
          </Trackpoint>
          <Trackpoint>
            <Time>2021-07-29T12:08:43.000Z</Time>
            <Position>
              <LatitudeDegrees>42.0239487849175930023193359375</LatitudeDegrees>
              <LongitudeDegrees>-2.774414308369159698486328125</LongitudeDegrees>
            </Position>
            <AltitudeMeters>1595.5999755859375</AltitudeMeters>
            <DistanceMeters>205707.33336845</DistanceMeters>
          </Trackpoint>
          <Trackpoint>
            <Time>2021-07-29T12:08:53.000Z</Time>
            <Position>
              <LatitudeDegrees>42.0240191929042339324951171875</LatitudeDegrees>
              <LongitudeDegrees>-2.77455152012407779693603515625</LongitudeDegrees>
            </Position>
            <AltitudeMeters>1596.5999755859375</AltitudeMeters>
            <DistanceMeters>205721.12174143</DistanceMeters>
          </Trackpoint>
          <Trackpoint>
            <Time>2021-07-29T12:09:03.000Z</Time>
            <Position>
              <LatitudeDegrees>42.02407711185514926910400390625</LatitudeDegrees>
              <LongitudeDegrees>-2.774699293076992034912109375</LongitudeDegrees>
            </Position>
            <AltitudeMeters>1597.4000244140625</AltitudeMeters>
            <DistanceMeters>205734.93595894</DistanceMeters>
          </Trackpoint>
          <Trackpoint>
            <Time>2021-07-29T12:09:15.000Z</Time>
            <Position>
              <LatitudeDegrees>42.0241449214518070220947265625</LatitudeDegrees>
              <LongitudeDegrees>-2.774878330528736114501953125</LongitudeDegrees>
            </Position>
            <AltitudeMeters>1598.5999755859375</AltitudeMeters>
            <DistanceMeters>205751.55178144</DistanceMeters>
          </Trackpoint>
          <Trackpoint>
            <Time>2021-07-29T12:09:31.000Z</Time>
            <Position>
              <LatitudeDegrees>42.02423200942575931549072265625</LatitudeDegrees>
              <LongitudeDegrees>-2.77512542903423309326171875</LongitudeDegrees>
            </Position>
            <AltitudeMeters>1599.4000244140625</AltitudeMeters>
            <DistanceMeters>205774.16534438</DistanceMeters>
          </Trackpoint>
          <Trackpoint>
            <Time>2021-07-29T12:09:34.000Z</Time>
            <Position>
              <LatitudeDegrees>42.02424743212759494781494140625</LatitudeDegrees>
              <LongitudeDegrees>-2.77517178095877170562744140625</LongitudeDegrees>
            </Position>
            <AltitudeMeters>1600.5999755859375</AltitudeMeters>
            <DistanceMeters>205778.36376185</DistanceMeters>
          </Trackpoint>
          <Trackpoint>
            <Time>2021-07-29T12:09:53.000Z</Time>
            <Position>
              <LatitudeDegrees>42.02434994280338287353515625</LatitudeDegrees>
              <LongitudeDegrees>-2.77545458637177944183349609375</LongitudeDegrees>
            </Position>
            <AltitudeMeters>1601.800048828125</AltitudeMeters>
            <DistanceMeters>205804.38199989</DistanceMeters>
          </Trackpoint>
          <Trackpoint>
            <Time>2021-07-29T12:10:11.000Z</Time>
            <Position>
              <LatitudeDegrees>42.02445195056498050689697265625</LatitudeDegrees>
              <LongitudeDegrees>-2.7757200412452220916748046875</LongitudeDegrees>
            </Position>
            <AltitudeMeters>1602.5999755859375</AltitudeMeters>
            <DistanceMeters>205829.09296566</DistanceMeters>
          </Trackpoint>
          <Trackpoint>
            <Time>2021-07-29T12:10:18.000Z</Time>
            <Position>
              <LatitudeDegrees>42.02449738048017024993896484375</LatitudeDegrees>
              <LongitudeDegrees>-2.77582204900681972503662109375</LongitudeDegrees>
            </Position>
            <AltitudeMeters>1603.5999755859375</AltitudeMeters>
            <DistanceMeters>205838.92719764</DistanceMeters>
          </Trackpoint>
          <Trackpoint>
            <Time>2021-07-29T12:10:34.000Z</Time>
            <Position>
              <LatitudeDegrees>42.0245918445289134979248046875</LatitudeDegrees>
              <LongitudeDegrees>-2.776062190532684326171875</LongitudeDegrees>
            </Position>
            <AltitudeMeters>1604.800048828125</AltitudeMeters>
            <DistanceMeters>205861.39453556</DistanceMeters>
          </Trackpoint>
          <Trackpoint>
            <Time>2021-07-29T12:10:35.000Z</Time>
            <Position>
              <LatitudeDegrees>42.0245965383946895599365234375</LatitudeDegrees>
              <LongitudeDegrees>-2.7760777808725833892822265625</LongitudeDegrees>
            </Position>
            <AltitudeMeters>1605</AltitudeMeters>
            <DistanceMeters>205862.78465655</DistanceMeters>
          </Trackpoint>
          <Trackpoint>
            <Time>2021-07-29T12:10:38.000Z</Time>
            <Position>
              <LatitudeDegrees>42.0246143080294132232666015625</LatitudeDegrees>
              <LongitudeDegrees>-2.77612430043518543243408203125</LongitudeDegrees>
            </Position>
            <AltitudeMeters>1605.800048828125</AltitudeMeters>
            <DistanceMeters>205867.1101991</DistanceMeters>
          </Trackpoint>
          <Trackpoint>
            <Time>2021-07-29T12:10:45.000Z</Time>
            <Position>
              <LatitudeDegrees>42.0246538706123828887939453125</LatitudeDegrees>
              <LongitudeDegrees>-2.776239551603794097900390625</LongitudeDegrees>
            </Position>
            <AltitudeMeters>1607</AltitudeMeters>
            <DistanceMeters>205877.60753318</DistanceMeters>
          </Trackpoint>
          <Trackpoint>
            <Time>2021-07-29T12:10:59.000Z</Time>
            <Position>
              <LatitudeDegrees>42.02473240904510021209716796875</LatitudeDegrees>
              <LongitudeDegrees>-2.7764643542468547821044921875</LongitudeDegrees>
            </Position>
            <AltitudeMeters>1607.800048828125</AltitudeMeters>
            <DistanceMeters>205898.14693705</DistanceMeters>
          </Trackpoint>
          <Trackpoint>
            <Time>2021-07-29T12:11:08.000Z</Time>
            <Position>
              <LatitudeDegrees>42.02479644678533077239990234375</LatitudeDegrees>
              <LongitudeDegrees>-2.7766011469066143035888671875</LongitudeDegrees>
            </Position>
            <AltitudeMeters>1608.800048828125</AltitudeMeters>
            <DistanceMeters>205911.51500396</DistanceMeters>
          </Trackpoint>
          <Trackpoint>
            <Time>2021-07-29T12:11:27.000Z</Time>
            <Position>
              <LatitudeDegrees>42.024936676025390625</LatitudeDegrees>
              <LongitudeDegrees>-2.77688068337738513946533203125</LongitudeDegrees>
            </Position>
            <AltitudeMeters>1609.4000244140625</AltitudeMeters>
            <DistanceMeters>205939.40384715</DistanceMeters>
          </Trackpoint>
          <Trackpoint>
            <Time>2021-07-29T12:11:28.000Z</Time>
            <Position>
              <LatitudeDegrees>42.02494597993791103363037109375</LatitudeDegrees>
              <LongitudeDegrees>-2.776894681155681610107421875</LongitudeDegrees>
            </Position>
            <AltitudeMeters>1609.5999755859375</AltitudeMeters>
            <DistanceMeters>205940.95950151</DistanceMeters>
          </Trackpoint>
          <Trackpoint>
            <Time>2021-07-29T12:11:34.000Z</Time>
            <Position>
              <LatitudeDegrees>42.02499392442405223846435546875</LatitudeDegrees>
              <LongitudeDegrees>-2.77698428370058536529541015625</LongitudeDegrees>
            </Position>
            <AltitudeMeters>1610.800048828125</AltitudeMeters>
            <DistanceMeters>205950.08998155</DistanceMeters>
          </Trackpoint>
          <Trackpoint>
            <Time>2021-07-29T12:11:48.000Z</Time>
            <Position>
              <LatitudeDegrees>42.02513306401669979095458984375</LatitudeDegrees>
              <LongitudeDegrees>-2.7771982736885547637939453125</LongitudeDegrees>
            </Position>
            <AltitudeMeters>1610.4000244140625</AltitudeMeters>
            <DistanceMeters>205973.60309343</DistanceMeters>
          </Trackpoint>
          <Trackpoint>
            <Time>2021-07-29T12:12:07.000Z</Time>
            <Position>
              <LatitudeDegrees>42.02539323829114437103271484375</LatitudeDegrees>
              <LongitudeDegrees>-2.7773670852184295654296875</LongitudeDegrees>
            </Position>
            <AltitudeMeters>1611.4000244140625</AltitudeMeters>
            <DistanceMeters>206005.74924184</DistanceMeters>
          </Trackpoint>
          <Trackpoint>
            <Time>2021-07-29T12:12:20.000Z</Time>
            <Position>
              <LatitudeDegrees>42.02557839453220367431640625</LatitudeDegrees>
              <LongitudeDegrees>-2.7774260938167572021484375</LongitudeDegrees>
            </Position>
            <AltitudeMeters>1612.199951171875</AltitudeMeters>
            <DistanceMeters>206026.92719823</DistanceMeters>
          </Trackpoint>
          <Trackpoint>
            <Time>2021-07-29T12:12:29.000Z</Time>
            <Position>
              <LatitudeDegrees>42.025708816945552825927734375</LatitudeDegrees>
              <LongitudeDegrees>-2.77744880877435207366943359375</LongitudeDegrees>
            </Position>
            <AltitudeMeters>1613.199951171875</AltitudeMeters>
            <DistanceMeters>206041.56470566</DistanceMeters>
          </Trackpoint>
          <Trackpoint>
            <Time>2021-07-29T12:12:40.000Z</Time>
            <Position>
              <LatitudeDegrees>42.02589221298694610595703125</LatitudeDegrees>
              <LongitudeDegrees>-2.77747378684580326080322265625</LongitudeDegrees>
            </Position>
            <AltitudeMeters>1613.4000244140625</AltitudeMeters>
            <DistanceMeters>206062.08123518</DistanceMeters>
          </Trackpoint>
          <Trackpoint>
            <Time>2021-07-29T12:12:44.000Z</Time>
            <Position>
              <LatitudeDegrees>42.0259711705148220062255859375</LatitudeDegrees>
              <LongitudeDegrees>-2.77748652733862400054931640625</LongitudeDegrees>
            </Position>
            <AltitudeMeters>1614.4000244140625</AltitudeMeters>
            <DistanceMeters>206070.93250307</DistanceMeters>
          </Trackpoint>
          <Trackpoint>
            <Time>2021-07-29T12:12:59.000Z</Time>
            <Position>
              <LatitudeDegrees>42.026190944015979766845703125</LatitudeDegrees>
              <LongitudeDegrees>-2.77744780294597148895263671875</LongitudeDegrees>
            </Position>
            <AltitudeMeters>1615.199951171875</AltitudeMeters>
            <DistanceMeters>206095.60250696</DistanceMeters>
          </Trackpoint>
          <Trackpoint>
            <Time>2021-07-29T12:13:09.000Z</Time>
            <Position>
              <LatitudeDegrees>42.02635011635720729827880859375</LatitudeDegrees>
              <LongitudeDegrees>-2.777424752712249755859375</LongitudeDegrees>
            </Position>
            <AltitudeMeters>1616.4000244140625</AltitudeMeters>
            <DistanceMeters>206113.42096615</DistanceMeters>
          </Trackpoint>
          <Trackpoint>
            <Time>2021-07-29T12:13:22.000Z</Time>
            <Position>
              <LatitudeDegrees>42.02655832283198833465576171875</LatitudeDegrees>
              <LongitudeDegrees>-2.77736800722777843475341796875</LongitudeDegrees>
            </Position>
            <AltitudeMeters>1617.4000244140625</AltitudeMeters>
            <DistanceMeters>206137.06524733</DistanceMeters>
          </Trackpoint>
          <Trackpoint>
            <Time>2021-07-29T12:13:34.000Z</Time>
            <Position>
              <LatitudeDegrees>42.0267496816813945770263671875</LatitudeDegrees>
              <LongitudeDegrees>-2.777323164045810699462890625</LongitudeDegrees>
            </Position>
            <AltitudeMeters>1618.199951171875</AltitudeMeters>
            <DistanceMeters>206158.68419033</DistanceMeters>
          </Trackpoint>
          <Trackpoint>
            <Time>2021-07-29T12:13:43.000Z</Time>
            <Position>
              <LatitudeDegrees>42.026885636150836944580078125</LatitudeDegrees>
              <LongitudeDegrees>-2.77726859785616397857666015625</LongitudeDegrees>
            </Position>
            <AltitudeMeters>1619.199951171875</AltitudeMeters>
            <DistanceMeters>206174.47435945</DistanceMeters>
          </Trackpoint>
          <Trackpoint>
            <Time>2021-07-29T12:14:00.000Z</Time>
            <Position>
              <LatitudeDegrees>42.02714086510241031646728515625</LatitudeDegrees>
              <LongitudeDegrees>-2.7771848626434803009033203125</LongitudeDegrees>
            </Position>
            <AltitudeMeters>1620</AltitudeMeters>
            <DistanceMeters>206203.7132626</DistanceMeters>
          </Trackpoint>
          <Trackpoint>
            <Time>2021-07-29T12:14:10.000Z</Time>
            <Position>
              <LatitudeDegrees>42.02729442156851291656494140625</LatitudeDegrees>
              <LongitudeDegrees>-2.77713180519640445709228515625</LongitudeDegrees>
            </Position>
            <AltitudeMeters>1621</AltitudeMeters>
            <DistanceMeters>206221.35831872</DistanceMeters>
          </Trackpoint>
          <Trackpoint>
            <Time>2021-07-29T12:14:19.000Z</Time>
            <Position>
              <LatitudeDegrees>42.02743188478052616119384765625</LatitudeDegrees>
              <LongitudeDegrees>-2.77709844522178173065185546875</LongitudeDegrees>
            </Position>
            <AltitudeMeters>1621.800048828125</AltitudeMeters>
            <DistanceMeters>206236.90499123</DistanceMeters>
          </Trackpoint>
          <Trackpoint>
            <Time>2021-07-29T12:14:30.000Z</Time>
            <Position>
              <LatitudeDegrees>42.0275992713868618011474609375</LatitudeDegrees>
              <LongitudeDegrees>-2.7770403586328029632568359375</LongitudeDegrees>
            </Position>
            <AltitudeMeters>1621.800048828125</AltitudeMeters>
            <DistanceMeters>206256.14455707</DistanceMeters>
          </Trackpoint>
          <Trackpoint>
            <Time>2021-07-29T12:14:39.000Z</Time>
            <Position>
              <LatitudeDegrees>42.02773145399987697601318359375</LatitudeDegrees>
              <LongitudeDegrees>-2.7769920788705348968505859375</LongitudeDegrees>
            </Position>
            <AltitudeMeters>1622.800048828125</AltitudeMeters>
            <DistanceMeters>206271.38886805</DistanceMeters>
          </Trackpoint>
          <Trackpoint>
            <Time>2021-07-29T12:14:49.000Z</Time>
            <Position>
              <LatitudeDegrees>42.02787704765796661376953125</LatitudeDegrees>
              <LongitudeDegrees>-2.7769494988024234771728515625</LongitudeDegrees>
            </Position>
            <AltitudeMeters>1623.5999755859375</AltitudeMeters>
            <DistanceMeters>206287.9715062</DistanceMeters>
          </Trackpoint>
          <Trackpoint>
            <Time>2021-07-29T12:14:57.000Z</Time>
            <Position>
              <LatitudeDegrees>42.02799129299819469451904296875</LatitudeDegrees>
              <LongitudeDegrees>-2.77692527510225772857666015625</LongitudeDegrees>
            </Position>
            <AltitudeMeters>1624.4000244140625</AltitudeMeters>
            <DistanceMeters>206300.84403131</DistanceMeters>
          </Trackpoint>
          <Trackpoint>
            <Time>2021-07-29T12:15:07.000Z</Time>
            <Position>
              <LatitudeDegrees>42.02812858857214450836181640625</LatitudeDegrees>
              <LongitudeDegrees>-2.776903398334980010986328125</LongitudeDegrees>
            </Position>
            <AltitudeMeters>1625.4000244140625</AltitudeMeters>
            <DistanceMeters>206316.23249207</DistanceMeters>
          </Trackpoint>
          <Trackpoint>
            <Time>2021-07-29T12:15:21.000Z</Time>
            <Position>
              <LatitudeDegrees>42.02831969596445560455322265625</LatitudeDegrees>
              <LongitudeDegrees>-2.776918821036815643310546875</LongitudeDegrees>
            </Position>
            <AltitudeMeters>1626</AltitudeMeters>
            <DistanceMeters>206337.541372</DistanceMeters>
          </Trackpoint>
          <Trackpoint>
            <Time>2021-07-29T12:15:31.000Z</Time>
            <Position>
              <LatitudeDegrees>42.0284512080252170562744140625</LatitudeDegrees>
              <LongitudeDegrees>-2.77696198783814907073974609375</LongitudeDegrees>
            </Position>
            <AltitudeMeters>1627.199951171875</AltitudeMeters>
            <DistanceMeters>206352.60782685</DistanceMeters>
          </Trackpoint>
          <Trackpoint>
            <Time>2021-07-29T12:15:36.000Z</Time>
            <Position>
              <LatitudeDegrees>42.0285239629447460174560546875</LatitudeDegrees>
              <LongitudeDegrees>-2.77699518017470836639404296875</LongitudeDegrees>
            </Position>
            <AltitudeMeters>1628.199951171875</AltitudeMeters>
            <DistanceMeters>206361.15811918</DistanceMeters>
          </Trackpoint>
          <Trackpoint>
            <Time>2021-07-29T12:15:50.000Z</Time>
            <Position>
              <LatitudeDegrees>42.02869721688330173492431640625</LatitudeDegrees>
              <LongitudeDegrees>-2.77712744660675525665283203125</LongitudeDegrees>
            </Position>
            <AltitudeMeters>1629.199951171875</AltitudeMeters>
            <DistanceMeters>206383.32644839</DistanceMeters>
          </Trackpoint>
          <Trackpoint>
            <Time>2021-07-29T12:16:02.000Z</Time>
            <Position>
              <LatitudeDegrees>42.028800062835216522216796875</LatitudeDegrees>
              <LongitudeDegrees>-2.77730061672627925872802734375</LongitudeDegrees>
            </Position>
            <AltitudeMeters>1630.199951171875</AltitudeMeters>
            <DistanceMeters>206401.65724692</DistanceMeters>
          </Trackpoint>
          <Trackpoint>
            <Time>2021-07-29T12:16:13.000Z</Time>
            <Position>
              <LatitudeDegrees>42.02886544167995452880859375</LatitudeDegrees>
              <LongitudeDegrees>-2.777495495975017547607421875</LongitudeDegrees>
            </Position>
            <AltitudeMeters>1631</AltitudeMeters>
            <DistanceMeters>206419.33630249</DistanceMeters>
          </Trackpoint>
          <Trackpoint>
            <Time>2021-07-29T12:16:26.000Z</Time>
            <Position>
              <LatitudeDegrees>42.0288830436766147613525390625</LatitudeDegrees>
              <LongitudeDegrees>-2.77773345820605754852294921875</LongitudeDegrees>
            </Position>
            <AltitudeMeters>1632</AltitudeMeters>
            <DistanceMeters>206439.10734063</DistanceMeters>
          </Trackpoint>
          <Trackpoint>
            <Time>2021-07-29T12:16:33.000Z</Time>
            <Position>
              <LatitudeDegrees>42.02888916246592998504638671875</LatitudeDegrees>
              <LongitudeDegrees>-2.77786589227616786956787109375</LongitudeDegrees>
            </Position>
            <AltitudeMeters>1633</AltitudeMeters>
            <DistanceMeters>206450.07788568</DistanceMeters>
          </Trackpoint>
          <Trackpoint>
            <Time>2021-07-29T12:16:49.000Z</Time>
            <Position>
              <LatitudeDegrees>42.02887156046926975250244140625</LatitudeDegrees>
              <LongitudeDegrees>-2.77817384339869022369384765625</LongitudeDegrees>
            </Position>
            <AltitudeMeters>1633.800048828125</AltitudeMeters>
            <DistanceMeters>206475.61303322</DistanceMeters>
          </Trackpoint>
          <Trackpoint>
            <Time>2021-07-29T12:17:02.000Z</Time>
            <Position>
              <LatitudeDegrees>42.0288542099297046661376953125</LatitudeDegrees>
              <LongitudeDegrees>-2.7784267254173755645751953125</LongitudeDegrees>
            </Position>
            <AltitudeMeters>1635</AltitudeMeters>
            <DistanceMeters>206496.60920673</DistanceMeters>
          </Trackpoint>
          <Trackpoint>
            <Time>2021-07-29T12:17:08.000Z</Time>
            <Position>
              <LatitudeDegrees>42.02885395847260951995849609375</LatitudeDegrees>
              <LongitudeDegrees>-2.77853745035827159881591796875</LongitudeDegrees>
            </Position>
            <AltitudeMeters>1636</AltitudeMeters>
            <DistanceMeters>206505.76339208</DistanceMeters>
          </Trackpoint>
          <Trackpoint>
            <Time>2021-07-29T12:17:25.000Z</Time>
            <Position>
              <LatitudeDegrees>42.02882478944957256317138671875</LatitudeDegrees>
              <LongitudeDegrees>-2.77885981835424900054931640625</LongitudeDegrees>
            </Position>
            <AltitudeMeters>1637</AltitudeMeters>
            <DistanceMeters>206532.61243308</DistanceMeters>
          </Trackpoint>
          <Trackpoint>
            <Time>2021-07-29T12:17:31.000Z</Time>
            <Position>
              <LatitudeDegrees>42.028811462223529815673828125</LatitudeDegrees>
              <LongitudeDegrees>-2.7789742313325405120849609375</LongitudeDegrees>
            </Position>
            <AltitudeMeters>1638</AltitudeMeters>
            <DistanceMeters>206542.18705245</DistanceMeters>
          </Trackpoint>
          <Trackpoint>
            <Time>2021-07-29T12:17:43.000Z</Time>
            <Position>
              <LatitudeDegrees>42.02879763208329677581787109375</LatitudeDegrees>
              <LongitudeDegrees>-2.77920247055590152740478515625</LongitudeDegrees>
            </Position>
            <AltitudeMeters>1638.800048828125</AltitudeMeters>
            <DistanceMeters>206561.1197988</DistanceMeters>
          </Trackpoint>
          <Trackpoint>
            <Time>2021-07-29T12:18:00.000Z</Time>
            <Position>
              <LatitudeDegrees>42.02879277057945728302001953125</LatitudeDegrees>
              <LongitudeDegrees>-2.779514528810977935791015625</LongitudeDegrees>
            </Position>
            <AltitudeMeters>1639.800048828125</AltitudeMeters>
            <DistanceMeters>206586.92528247</DistanceMeters>
          </Trackpoint>
          <Trackpoint>
            <Time>2021-07-29T12:18:24.000Z</Time>
            <Position>
              <LatitudeDegrees>42.02880316413938999176025390625</LatitudeDegrees>
              <LongitudeDegrees>-2.7799465321004390716552734375</LongitudeDegrees>
            </Position>
            <AltitudeMeters>1640.5999755859375</AltitudeMeters>
            <DistanceMeters>206622.66063402</DistanceMeters>
          </Trackpoint>
          <Trackpoint>
            <Time>2021-07-29T12:18:29.000Z</Time>
            <Position>
              <LatitudeDegrees>42.02880400232970714569091796875</LatitudeDegrees>
              <LongitudeDegrees>-2.780031524598598480224609375</LongitudeDegrees>
            </Position>
            <AltitudeMeters>1641.800048828125</AltitudeMeters>
            <DistanceMeters>206629.68747243</DistanceMeters>
          </Trackpoint>
          <Trackpoint>
            <Time>2021-07-29T12:18:36.000Z</Time>
            <Position>
              <LatitudeDegrees>42.02880852855741977691650390625</LatitudeDegrees>
              <LongitudeDegrees>-2.7801507152616977691650390625</LongitudeDegrees>
            </Position>
            <AltitudeMeters>1642.5999755859375</AltitudeMeters>
            <DistanceMeters>206639.55379008</DistanceMeters>
          </Trackpoint>
          <Trackpoint>
            <Time>2021-07-29T12:18:48.000Z</Time>
            <Position>
              <LatitudeDegrees>42.0288049243390560150146484375</LatitudeDegrees>
              <LongitudeDegrees>-2.78035246767103672027587890625</LongitudeDegrees>
            </Position>
            <AltitudeMeters>1643.5999755859375</AltitudeMeters>
            <DistanceMeters>206656.23876016</DistanceMeters>
          </Trackpoint>
          <Trackpoint>
            <Time>2021-07-29T12:19:00.000Z</Time>
            <Position>
              <LatitudeDegrees>42.0288111269474029541015625</LatitudeDegrees>
              <LongitudeDegrees>-2.78055162169039249420166015625</LongitudeDegrees>
            </Position>
            <AltitudeMeters>1644.5999755859375</AltitudeMeters>
            <DistanceMeters>206672.71843095</DistanceMeters>
          </Trackpoint>
          <Trackpoint>
            <Time>2021-07-29T12:19:09.000Z</Time>
            <Position>
              <LatitudeDegrees>42.028821520507335662841796875</LatitudeDegrees>
              <LongitudeDegrees>-2.7807064354419708251953125</LongitudeDegrees>
            </Position>
            <AltitudeMeters>1645.5999755859375</AltitudeMeters>
            <DistanceMeters>206685.56989383</DistanceMeters>
          </Trackpoint>
          <Trackpoint>
            <Time>2021-07-29T12:19:18.000Z</Time>
            <Position>
              <LatitudeDegrees>42.0288491807878017425537109375</LatitudeDegrees>
              <LongitudeDegrees>-2.78086133301258087158203125</LongitudeDegrees>
            </Position>
            <AltitudeMeters>1646.800048828125</AltitudeMeters>
            <DistanceMeters>206698.74061015</DistanceMeters>
          </Trackpoint>
          <Trackpoint>
            <Time>2021-07-29T12:19:24.000Z</Time>
            <Position>
              <LatitudeDegrees>42.0288733206689357757568359375</LatitudeDegrees>
              <LongitudeDegrees>-2.78097323141992092132568359375</LongitudeDegrees>
            </Position>
            <AltitudeMeters>1647.5999755859375</AltitudeMeters>
            <DistanceMeters>206708.37399458</DistanceMeters>
          </Trackpoint>
          <Trackpoint>
            <Time>2021-07-29T12:19:33.000Z</Time>
            <Position>
              <LatitudeDegrees>42.028940878808498382568359375</LatitudeDegrees>
              <LongitudeDegrees>-2.78113366104662418365478515625</LongitudeDegrees>
            </Position>
            <AltitudeMeters>1648.800048828125</AltitudeMeters>
            <DistanceMeters>206723.62037867</DistanceMeters>
          </Trackpoint>
          <Trackpoint>
            <Time>2021-07-29T12:19:39.000Z</Time>
            <Position>
              <LatitudeDegrees>42.02899728901684284210205078125</LatitudeDegrees>
              <LongitudeDegrees>-2.781233154237270355224609375</LongitudeDegrees>
            </Position>
            <AltitudeMeters>1649.800048828125</AltitudeMeters>
            <DistanceMeters>206733.96825993</DistanceMeters>
          </Trackpoint>
          <Trackpoint>
            <Time>2021-07-29T12:19:51.000Z</Time>
            <Position>
              <LatitudeDegrees>42.02910390682518482208251953125</LatitudeDegrees>
              <LongitudeDegrees>-2.78139852918684482574462890625</LongitudeDegrees>
            </Position>
            <AltitudeMeters>1651</AltitudeMeters>
            <DistanceMeters>206752.07228309</DistanceMeters>
          </Trackpoint>
          <Trackpoint>
            <Time>2021-07-29T12:20:00.000Z</Time>
            <Position>
              <LatitudeDegrees>42.02917682938277721405029296875</LatitudeDegrees>
              <LongitudeDegrees>-2.7815032191574573516845703125</LongitudeDegrees>
            </Position>
            <AltitudeMeters>1652</AltitudeMeters>
            <DistanceMeters>206763.93769171</DistanceMeters>
          </Trackpoint>
          <Trackpoint>
            <Time>2021-07-29T12:20:01.000Z</Time>
            <Position>
              <LatitudeDegrees>42.02918487600982189178466796875</LatitudeDegrees>
              <LongitudeDegrees>-2.78151453472673892974853515625</LongitudeDegrees>
            </Position>
            <AltitudeMeters>1652.199951171875</AltitudeMeters>
            <DistanceMeters>206765.23368331</DistanceMeters>
          </Trackpoint>
          <Trackpoint>
            <Time>2021-07-29T12:20:12.000Z</Time>
            <Position>
              <LatitudeDegrees>42.0292833633720874786376953125</LatitudeDegrees>
              <LongitudeDegrees>-2.7816282771527767181396484375</LongitudeDegrees>
            </Position>
            <AltitudeMeters>1652.800048828125</AltitudeMeters>
            <DistanceMeters>206779.67649349</DistanceMeters>
          </Trackpoint>
          <Trackpoint>
            <Time>2021-07-29T12:20:21.000Z</Time>
            <Position>
              <LatitudeDegrees>42.02936123125255107879638671875</LatitudeDegrees>
              <LongitudeDegrees>-2.781728692352771759033203125</LongitudeDegrees>
            </Position>
            <AltitudeMeters>1653.800048828125</AltitudeMeters>
            <DistanceMeters>206791.67773173</DistanceMeters>
          </Trackpoint>
          <Trackpoint>
            <Time>2021-07-29T12:20:30.000Z</Time>
            <Position>
              <LatitudeDegrees>42.02942878939211368560791015625</LatitudeDegrees>
              <LongitudeDegrees>-2.7818495593965053558349609375</LongitudeDegrees>
            </Position>
            <AltitudeMeters>1654.800048828125</AltitudeMeters>
            <DistanceMeters>206804.1834062</DistanceMeters>
          </Trackpoint>
          <Trackpoint>
            <Time>2021-07-29T12:20:36.000Z</Time>
            <Position>
              <LatitudeDegrees>42.02948503196239471435546875</LatitudeDegrees>
              <LongitudeDegrees>-2.78191200457513332366943359375</LongitudeDegrees>
            </Position>
            <AltitudeMeters>1655.800048828125</AltitudeMeters>
            <DistanceMeters>206812.29748577</DistanceMeters>
          </Trackpoint>
          <Trackpoint>
            <Time>2021-07-29T12:20:52.000Z</Time>
            <Position>
              <LatitudeDegrees>42.0296357385814189910888671875</LatitudeDegrees>
              <LongitudeDegrees>-2.782075703144073486328125</LongitudeDegrees>
            </Position>
            <AltitudeMeters>1656.5999755859375</AltitudeMeters>
            <DistanceMeters>206833.85033228</DistanceMeters>
          </Trackpoint>
          <Trackpoint>
            <Time>2021-07-29T12:21:04.000Z</Time>
            <Position>
              <LatitudeDegrees>42.0297483913600444793701171875</LatitudeDegrees>
              <LongitudeDegrees>-2.78219363652169704437255859375</LongitudeDegrees>
            </Position>
            <AltitudeMeters>1658</AltitudeMeters>
            <DistanceMeters>206849.7337285</DistanceMeters>
          </Trackpoint>
          <Trackpoint>
            <Time>2021-07-29T12:21:12.000Z</Time>
            <Position>
              <LatitudeDegrees>42.0298338867723941802978515625</LatitudeDegrees>
              <LongitudeDegrees>-2.78225180692970752716064453125</LongitudeDegrees>
            </Position>
            <AltitudeMeters>1658.800048828125</AltitudeMeters>
            <DistanceMeters>206860.39621707</DistanceMeters>
          </Trackpoint>
          <Trackpoint>
            <Time>2021-07-29T12:21:13.000Z</Time>
            <Position>
              <LatitudeDegrees>42.0298446156084537506103515625</LatitudeDegrees>
              <LongitudeDegrees>-2.782260440289974212646484375</LongitudeDegrees>
            </Position>
            <AltitudeMeters>1658.800048828125</AltitudeMeters>
            <DistanceMeters>206861.78633806</DistanceMeters>
          </Trackpoint>
          <Trackpoint>
            <Time>2021-07-29T12:21:30.000Z</Time>
            <Position>
              <LatitudeDegrees>42.03003983013331890106201171875</LatitudeDegrees>
              <LongitudeDegrees>-2.78239094652235507965087890625</LongitudeDegrees>
            </Position>
            <AltitudeMeters>1659.800048828125</AltitudeMeters>
            <DistanceMeters>206886.04552481</DistanceMeters>
          </Trackpoint>
          <Trackpoint>
            <Time>2021-07-29T12:21:39.000Z</Time>
            <Position>
              <LatitudeDegrees>42.0301460288465023040771484375</LatitudeDegrees>
              <LongitudeDegrees>-2.7824688144028186798095703125</LongitudeDegrees>
            </Position>
            <AltitudeMeters>1660.800048828125</AltitudeMeters>
            <DistanceMeters>206899.50481021</DistanceMeters>
          </Trackpoint>
          <Trackpoint>
            <Time>2021-07-29T12:21:51.000Z</Time>
            <Position>
              <LatitudeDegrees>42.03028072603046894073486328125</LatitudeDegrees>
              <LongitudeDegrees>-2.7825596742331981658935546875</LongitudeDegrees>
            </Position>
            <AltitudeMeters>1661.800048828125</AltitudeMeters>
            <DistanceMeters>206916.27345805</DistanceMeters>
          </Trackpoint>
          <Trackpoint>
            <Time>2021-07-29T12:22:03.000Z</Time>
            <Position>
              <LatitudeDegrees>42.03042221255600452423095703125</LatitudeDegrees>
              <LongitudeDegrees>-2.78263100422918796539306640625</LongitudeDegrees>
            </Position>
            <AltitudeMeters>1662.5999755859375</AltitudeMeters>
            <DistanceMeters>206933.08889096</DistanceMeters>
          </Trackpoint>
          <Trackpoint>
            <Time>2021-07-29T12:22:14.000Z</Time>
            <Position>
              <LatitudeDegrees>42.0305652916431427001953125</LatitudeDegrees>
              <LongitudeDegrees>-2.78268498368561267852783203125</LongitudeDegrees>
            </Position>
            <AltitudeMeters>1664</AltitudeMeters>
            <DistanceMeters>206949.62681571</DistanceMeters>
          </Trackpoint>
          <Trackpoint>
            <Time>2021-07-29T12:22:18.000Z</Time>
            <Position>
              <LatitudeDegrees>42.0306157507002353668212890625</LatitudeDegrees>
              <LongitudeDegrees>-2.78270342387259006500244140625</LongitudeDegrees>
            </Position>
            <AltitudeMeters>1665</AltitudeMeters>
            <DistanceMeters>206955.44598977</DistanceMeters>
          </Trackpoint>
          <Trackpoint>
            <Time>2021-07-29T12:22:30.000Z</Time>
            <Position>
              <LatitudeDegrees>42.03076570294797420501708984375</LatitudeDegrees>
              <LongitudeDegrees>-2.78274985961616039276123046875</LongitudeDegrees>
            </Position>
            <AltitudeMeters>1666</AltitudeMeters>
            <DistanceMeters>206972.57190238</DistanceMeters>
          </Trackpoint>
          <Trackpoint>
            <Time>2021-07-29T12:22:38.000Z</Time>
            <Position>
              <LatitudeDegrees>42.03086595050990581512451171875</LatitudeDegrees>
              <LongitudeDegrees>-2.782766036689281463623046875</LongitudeDegrees>
            </Position>
            <AltitudeMeters>1667.199951171875</AltitudeMeters>
            <DistanceMeters>206983.80958983</DistanceMeters>
          </Trackpoint>
          <Trackpoint>
            <Time>2021-07-29T12:22:52.000Z</Time>
            <Position>
              <LatitudeDegrees>42.0310465805232524871826171875</LatitudeDegrees>
              <LongitudeDegrees>-2.7827529609203338623046875</LongitudeDegrees>
            </Position>
            <AltitudeMeters>1668.199951171875</AltitudeMeters>
            <DistanceMeters>207003.94359568</DistanceMeters>
          </Trackpoint>
          <Trackpoint>
            <Time>2021-07-29T12:23:01.000Z</Time>
            <Position>
              <LatitudeDegrees>42.03116216696798801422119140625</LatitudeDegrees>
              <LongitudeDegrees>-2.78272203169763088226318359375</LongitudeDegrees>
            </Position>
            <AltitudeMeters>1669.199951171875</AltitudeMeters>
            <DistanceMeters>207017.06038059</DistanceMeters>
          </Trackpoint>
          <Trackpoint>
            <Time>2021-07-29T12:23:07.000Z</Time>
            <Position>
              <LatitudeDegrees>42.0312345027923583984375</LatitudeDegrees>
              <LongitudeDegrees>-2.7826773561537265777587890625</LongitudeDegrees>
            </Position>
            <AltitudeMeters>1670.4000244140625</AltitudeMeters>
            <DistanceMeters>207025.91878701</DistanceMeters>
          </Trackpoint>
          <Trackpoint>
            <Time>2021-07-29T12:23:19.000Z</Time>
            <Position>
              <LatitudeDegrees>42.03138001263141632080078125</LatitudeDegrees>
              <LongitudeDegrees>-2.782592363655567169189453125</LongitudeDegrees>
            </Position>
            <AltitudeMeters>1671.4000244140625</AltitudeMeters>
            <DistanceMeters>207043.57279671</DistanceMeters>
          </Trackpoint>
          <Trackpoint>
            <Time>2021-07-29T12:23:28.000Z</Time>
            <Position>
              <LatitudeDegrees>42.03149509616196155548095703125</LatitudeDegrees>
              <LongitudeDegrees>-2.7824939601123332977294921875</LongitudeDegrees>
            </Position>
            <AltitudeMeters>1672.5999755859375</AltitudeMeters>
            <DistanceMeters>207058.74675101</DistanceMeters>
          </Trackpoint>
          <Trackpoint>
            <Time>2021-07-29T12:23:38.000Z</Time>
            <Position>
              <LatitudeDegrees>42.031616382300853729248046875</LatitudeDegrees>
              <LongitudeDegrees>-2.78239144943654537200927734375</LongitudeDegrees>
            </Position>
            <AltitudeMeters>1673.5999755859375</AltitudeMeters>
            <DistanceMeters>207074.68633165</DistanceMeters>
          </Trackpoint>
          <Trackpoint>
            <Time>2021-07-29T12:24:00.000Z</Time>
            <Position>
              <LatitudeDegrees>42.03188887797296047210693359375</LatitudeDegrees>
              <LongitudeDegrees>-2.7822433412075042724609375</LongitudeDegrees>
            </Position>
            <AltitudeMeters>1674.4000244140625</AltitudeMeters>
            <DistanceMeters>207107.39402427</DistanceMeters>
          </Trackpoint>
          <Trackpoint>
            <Time>2021-07-29T12:24:22.000Z</Time>
            <Position>
              <LatitudeDegrees>42.0321945659816265106201171875</LatitudeDegrees>
              <LongitudeDegrees>-2.7822870947420597076416015625</LongitudeDegrees>
            </Position>
            <AltitudeMeters>1675.5999755859375</AltitudeMeters>
            <DistanceMeters>207141.60944813</DistanceMeters>
          </Trackpoint>
          <Trackpoint>
            <Time>2021-07-29T12:24:37.000Z</Time>
            <Position>
              <LatitudeDegrees>42.03236245550215244293212890625</LatitudeDegrees>
              <LongitudeDegrees>-2.78237879276275634765625</LongitudeDegrees>
            </Position>
            <AltitudeMeters>1676.4000244140625</AltitudeMeters>
            <DistanceMeters>207161.77504836</DistanceMeters>
          </Trackpoint>
          <Trackpoint>
            <Time>2021-07-29T12:24:54.000Z</Time>
            <Position>
              <LatitudeDegrees>42.03255808912217617034912109375</LatitudeDegrees>
              <LongitudeDegrees>-2.78248381800949573516845703125</LongitudeDegrees>
            </Position>
            <AltitudeMeters>1677.5999755859375</AltitudeMeters>
            <DistanceMeters>207185.21681177</DistanceMeters>
          </Trackpoint>
          <Trackpoint>
            <Time>2021-07-29T12:25:08.000Z</Time>
            <Position>
              <LatitudeDegrees>42.0327175967395305633544921875</LatitudeDegrees>
              <LongitudeDegrees>-2.7825861610472202301025390625</LongitudeDegrees>
            </Position>
            <AltitudeMeters>1678.5999755859375</AltitudeMeters>
            <DistanceMeters>207204.8834392</DistanceMeters>
          </Trackpoint>
          <Trackpoint>
            <Time>2021-07-29T12:25:20.000Z</Time>
            <Position>
              <LatitudeDegrees>42.03284659422934055328369140625</LatitudeDegrees>
              <LongitudeDegrees>-2.7826800383627414703369140625</LongitudeDegrees>
            </Position>
            <AltitudeMeters>1679.5999755859375</AltitudeMeters>
            <DistanceMeters>207221.20481338</DistanceMeters>
          </Trackpoint>
          <Trackpoint>
            <Time>2021-07-29T12:25:31.000Z</Time>
            <Position>
              <LatitudeDegrees>42.03296695835888385772705078125</LatitudeDegrees>
              <LongitudeDegrees>-2.7827615104615688323974609375</LongitudeDegrees>
            </Position>
            <AltitudeMeters>1680.5999755859375</AltitudeMeters>
            <DistanceMeters>207236.19977598</DistanceMeters>
          </Trackpoint>
          <Trackpoint>
            <Time>2021-07-29T12:25:38.000Z</Time>
            <Position>
              <LatitudeDegrees>42.03305362723767757415771484375</LatitudeDegrees>
              <LongitudeDegrees>-2.78281892649829387664794921875</LongitudeDegrees>
            </Position>
            <AltitudeMeters>1681.800048828125</AltitudeMeters>
            <DistanceMeters>207246.95082144</DistanceMeters>
          </Trackpoint>
          <Trackpoint>
            <Time>2021-07-29T12:25:49.000Z</Time>
            <Position>
              <LatitudeDegrees>42.03315421007573604583740234375</LatitudeDegrees>
              <LongitudeDegrees>-2.78292470611631870269775390625</LongitudeDegrees>
            </Position>
            <AltitudeMeters>1682.800048828125</AltitudeMeters>
            <DistanceMeters>207261.15596446</DistanceMeters>
          </Trackpoint>
          <Trackpoint>
            <Time>2021-07-29T12:25:55.000Z</Time>
            <Position>
              <LatitudeDegrees>42.0332010649144649505615234375</LatitudeDegrees>
              <LongitudeDegrees>-2.78298606164753437042236328125</LongitudeDegrees>
            </Position>
            <AltitudeMeters>1683.5999755859375</AltitudeMeters>
            <DistanceMeters>207268.43031996</DistanceMeters>
          </Trackpoint>
          <Trackpoint>
            <Time>2021-07-29T12:26:07.000Z</Time>
            <Position>
              <LatitudeDegrees>42.0332949422299861907958984375</LatitudeDegrees>
              <LongitudeDegrees>-2.7830850519239902496337890625</LongitudeDegrees>
            </Position>
            <AltitudeMeters>1684.5999755859375</AltitudeMeters>
            <DistanceMeters>207281.70211981</DistanceMeters>
          </Trackpoint>
          <Trackpoint>
            <Time>2021-07-29T12:26:17.000Z</Time>
            <Position>
              <LatitudeDegrees>42.03337146900594234466552734375</LatitudeDegrees>
              <LongitudeDegrees>-2.783163674175739288330078125</LongitudeDegrees>
            </Position>
            <AltitudeMeters>1685.800048828125</AltitudeMeters>
            <DistanceMeters>207292.41614481</DistanceMeters>
          </Trackpoint>
          <Trackpoint>
            <Time>2021-07-29T12:26:26.000Z</Time>
            <Position>
              <LatitudeDegrees>42.0334357582032680511474609375</LatitudeDegrees>
              <LongitudeDegrees>-2.78323902748525142669677734375</LongitudeDegrees>
            </Position>
            <AltitudeMeters>1686.800048828125</AltitudeMeters>
            <DistanceMeters>207301.90359979</DistanceMeters>
          </Trackpoint>
          <Trackpoint>
            <Time>2021-07-29T12:26:38.000Z</Time>
            <Position>
              <LatitudeDegrees>42.033520080149173736572265625</LatitudeDegrees>
              <LongitudeDegrees>-2.78334413655102252960205078125</LongitudeDegrees>
            </Position>
            <AltitudeMeters>1687.800048828125</AltitudeMeters>
            <DistanceMeters>207314.69378606</DistanceMeters>
          </Trackpoint>
          <Trackpoint>
            <Time>2021-07-29T12:26:46.000Z</Time>
            <Position>
              <LatitudeDegrees>42.03357934020459651947021484375</LatitudeDegrees>
              <LongitudeDegrees>-2.7834112755954265594482421875</LongitudeDegrees>
            </Position>
            <AltitudeMeters>1688.4000244140625</AltitudeMeters>
            <DistanceMeters>207323.31454758</DistanceMeters>
          </Trackpoint>
          <Trackpoint>
            <Time>2021-07-29T12:26:49.000Z</Time>
            <Position>
              <LatitudeDegrees>42.033597193658351898193359375</LatitudeDegrees>
              <LongitudeDegrees>-2.78344505466520786285400390625</LongitudeDegrees>
            </Position>
            <AltitudeMeters>1688.800048828125</AltitudeMeters>
            <DistanceMeters>207326.74078449</DistanceMeters>
          </Trackpoint>
          <Trackpoint>
            <Time>2021-07-29T12:26:55.000Z</Time>
            <Position>
              <LatitudeDegrees>42.0336449705064296722412109375</LatitudeDegrees>
              <LongitudeDegrees>-2.7834914065897464752197265625</LongitudeDegrees>
            </Position>
            <AltitudeMeters>1689.199951171875</AltitudeMeters>
            <DistanceMeters>207333.29418388</DistanceMeters>
          </Trackpoint>
          <Trackpoint>
            <Time>2021-07-29T12:27:00.000Z</Time>
            <Position>
              <LatitudeDegrees>42.03368310816586017608642578125</LatitudeDegrees>
              <LongitudeDegrees>-2.78354085981845855712890625</LongitudeDegrees>
            </Position>
            <AltitudeMeters>1689.199951171875</AltitudeMeters>
            <DistanceMeters>207339.18737266</DistanceMeters>
          </Trackpoint>
          <Trackpoint>
            <Time>2021-07-29T12:27:03.000Z</Time>
            <Position>
              <LatitudeDegrees>42.0337066613137722015380859375</LatitudeDegrees>
              <LongitudeDegrees>-2.7835698612034320831298828125</LongitudeDegrees>
            </Position>
            <AltitudeMeters>1689.800048828125</AltitudeMeters>
            <DistanceMeters>207342.74040613</DistanceMeters>
          </Trackpoint>
          <Trackpoint>
            <Time>2021-07-29T12:27:11.000Z</Time>
            <Position>
              <LatitudeDegrees>42.03378285281360149383544921875</LatitudeDegrees>
              <LongitudeDegrees>-2.78362912125885486602783203125</LongitudeDegrees>
            </Position>
            <AltitudeMeters>1690.800048828125</AltitudeMeters>
            <DistanceMeters>207352.53415271</DistanceMeters>
          </Trackpoint>
          <Trackpoint>
            <Time>2021-07-29T12:27:20.000Z</Time>
            <Position>
              <LatitudeDegrees>42.0338555239140987396240234375</LatitudeDegrees>
              <LongitudeDegrees>-2.7837113477289676666259765625</LongitudeDegrees>
            </Position>
            <AltitudeMeters>1691.800048828125</AltitudeMeters>
            <DistanceMeters>207363.10050805</DistanceMeters>
          </Trackpoint>
          <Trackpoint>
            <Time>2021-07-29T12:27:36.000Z</Time>
            <Position>
              <LatitudeDegrees>42.0339872874319553375244140625</LatitudeDegrees>
              <LongitudeDegrees>-2.7838608808815479278564453125</LongitudeDegrees>
            </Position>
            <AltitudeMeters>1692.800048828125</AltitudeMeters>
            <DistanceMeters>207382.2813155</DistanceMeters>
          </Trackpoint>
          <Trackpoint>
            <Time>2021-07-29T12:27:45.000Z</Time>
            <Position>
              <LatitudeDegrees>42.03406984917819499969482421875</LatitudeDegrees>
              <LongitudeDegrees>-2.7839517407119274139404296875</LongitudeDegrees>
            </Position>
            <AltitudeMeters>1693.800048828125</AltitudeMeters>
            <DistanceMeters>207394.15014832</DistanceMeters>
          </Trackpoint>
          <Trackpoint>
            <Time>2021-07-29T12:27:51.000Z</Time>
            <Position>
              <LatitudeDegrees>42.034132294356822967529296875</LatitudeDegrees>
              <LongitudeDegrees>-2.78400664217770099639892578125</LongitudeDegrees>
            </Position>
            <AltitudeMeters>1694.800048828125</AltitudeMeters>
            <DistanceMeters>207402.45071958</DistanceMeters>
          </Trackpoint>
          <Trackpoint>
            <Time>2021-07-29T12:27:57.000Z</Time>
            <Position>
              <LatitudeDegrees>42.0341918058693408966064453125</LatitudeDegrees>
              <LongitudeDegrees>-2.78406816534698009490966796875</LongitudeDegrees>
            </Position>
            <AltitudeMeters>1696</AltitudeMeters>
            <DistanceMeters>207410.80226498</DistanceMeters>
          </Trackpoint>
          <Trackpoint>
            <Time>2021-07-29T12:28:25.000Z</Time>
            <Position>
              <LatitudeDegrees>42.034527920186519622802734375</LatitudeDegrees>
              <LongitudeDegrees>-2.78422507457435131072998046875</LongitudeDegrees>
            </Position>
            <AltitudeMeters>1696.5999755859375</AltitudeMeters>
            <DistanceMeters>207450.39751484</DistanceMeters>
          </Trackpoint>
          <Trackpoint>
            <Time>2021-07-29T12:28:27.000Z</Time>
            <Position>
              <LatitudeDegrees>42.0345518924295902252197265625</LatitudeDegrees>
              <LongitudeDegrees>-2.78423798270523548126220703125</LongitudeDegrees>
            </Position>
            <AltitudeMeters>1697</AltitudeMeters>
            <DistanceMeters>207453.27197478</DistanceMeters>
          </Trackpoint>
          <Trackpoint>
            <Time>2021-07-29T12:28:38.000Z</Time>
            <Position>
              <LatitudeDegrees>42.0346628688275814056396484375</LatitudeDegrees>
              <LongitudeDegrees>-2.78434552252292633056640625</LongitudeDegrees>
            </Position>
            <AltitudeMeters>1698</AltitudeMeters>
            <DistanceMeters>207468.49049641</DistanceMeters>
          </Trackpoint>
          <Trackpoint>
            <Time>2021-07-29T12:28:40.000Z</Time>
            <Position>
              <LatitudeDegrees>42.0346799679100513458251953125</LatitudeDegrees>
              <LongitudeDegrees>-2.78437276370823383331298828125</LongitudeDegrees>
            </Position>
            <AltitudeMeters>1698.199951171875</AltitudeMeters>
            <DistanceMeters>207471.44091904</DistanceMeters>
          </Trackpoint>
          <Trackpoint>
            <Time>2021-07-29T12:28:49.000Z</Time>
            <Position>
              <LatitudeDegrees>42.034772336483001708984375</LatitudeDegrees>
              <LongitudeDegrees>-2.78445742093026638031005859375</LongitudeDegrees>
            </Position>
            <AltitudeMeters>1698.800048828125</AltitudeMeters>
            <DistanceMeters>207483.87780689</DistanceMeters>
          </Trackpoint>
          <Trackpoint>
            <Time>2021-07-29T12:28:52.000Z</Time>
            <Position>
              <LatitudeDegrees>42.0348023436963558197021484375</LatitudeDegrees>
              <LongitudeDegrees>-2.784483321011066436767578125</LongitudeDegrees>
            </Position>
            <AltitudeMeters>1698.800048828125</AltitudeMeters>
            <DistanceMeters>207487.84396286</DistanceMeters>
          </Trackpoint>
          <Trackpoint>
            <Time>2021-07-29T12:29:14.000Z</Time>
            <Position>
              <LatitudeDegrees>42.035030834376811981201171875</LatitudeDegrees>
              <LongitudeDegrees>-2.78473787941038608551025390625</LongitudeDegrees>
            </Position>
            <AltitudeMeters>1700</AltitudeMeters>
            <DistanceMeters>207520.85313044</DistanceMeters>
          </Trackpoint>
          <Trackpoint>
            <Time>2021-07-29T12:29:19.000Z</Time>
            <Position>
              <LatitudeDegrees>42.03507685102522373199462890625</LatitudeDegrees>
              <LongitudeDegrees>-2.784795127809047698974609375</LongitudeDegrees>
            </Position>
            <AltitudeMeters>1701.199951171875</AltitudeMeters>
            <DistanceMeters>207527.82643393</DistanceMeters>
          </Trackpoint>
          <Trackpoint>
            <Time>2021-07-29T12:29:22.000Z</Time>
            <Position>
              <LatitudeDegrees>42.035103254020214080810546875</LatitudeDegrees>
              <LongitudeDegrees>-2.7848274819552898406982421875</LongitudeDegrees>
            </Position>
            <AltitudeMeters>1702.4000244140625</AltitudeMeters>
            <DistanceMeters>207531.79941438</DistanceMeters>
          </Trackpoint>
          <Trackpoint>
            <Time>2021-07-29T12:29:35.000Z</Time>
            <Position>
              <LatitudeDegrees>42.03520995564758777618408203125</LatitudeDegrees>
              <LongitudeDegrees>-2.78496284969151020050048828125</LongitudeDegrees>
            </Position>
            <AltitudeMeters>1703.4000244140625</AltitudeMeters>
            <DistanceMeters>207548.11746862</DistanceMeters>
          </Trackpoint>
          <Trackpoint>
            <Time>2021-07-29T12:29:59.000Z</Time>
            <Position>
              <LatitudeDegrees>42.03540466725826263427734375</LatitudeDegrees>
              <LongitudeDegrees>-2.78521480970084667205810546875</LongitudeDegrees>
            </Position>
            <AltitudeMeters>1704.5999755859375</AltitudeMeters>
            <DistanceMeters>207578.17596706</DistanceMeters>
          </Trackpoint>
          <Trackpoint>
            <Time>2021-07-29T12:30:10.000Z</Time>
            <Position>
              <LatitudeDegrees>42.0354930125176906585693359375</LatitudeDegrees>
              <LongitudeDegrees>-2.78532478027045726776123046875</LongitudeDegrees>
            </Position>
            <AltitudeMeters>1705.5999755859375</AltitudeMeters>
            <DistanceMeters>207591.56765546</DistanceMeters>
          </Trackpoint>
          <Trackpoint>
            <Time>2021-07-29T12:30:16.000Z</Time>
            <Position>
              <LatitudeDegrees>42.0355409570038318634033203125</LatitudeDegrees>
              <LongitudeDegrees>-2.78538647107779979705810546875</LongitudeDegrees>
            </Position>
            <AltitudeMeters>1706.5999755859375</AltitudeMeters>
            <DistanceMeters>207598.94921907</DistanceMeters>
          </Trackpoint>
          <Trackpoint>
            <Time>2021-07-29T12:30:22.000Z</Time>
            <Position>
              <LatitudeDegrees>42.03559015877544879913330078125</LatitudeDegrees>
              <LongitudeDegrees>-2.7854474075138568878173828125</LongitudeDegrees>
            </Position>
            <AltitudeMeters>1706.5999755859375</AltitudeMeters>
            <DistanceMeters>207606.39048433</DistanceMeters>
          </Trackpoint>
          <Trackpoint>
            <Time>2021-07-29T12:30:24.000Z</Time>
            <Position>
              <LatitudeDegrees>42.03560155816376209259033203125</LatitudeDegrees>
              <LongitudeDegrees>-2.7854725532233715057373046875</LongitudeDegrees>
            </Position>
            <AltitudeMeters>1706.5999755859375</AltitudeMeters>
            <DistanceMeters>207608.82435577</DistanceMeters>
          </Trackpoint>
          <Trackpoint>
            <Time>2021-07-29T12:30:29.000Z</Time>
            <Position>
              <LatitudeDegrees>42.03564212657511234283447265625</LatitudeDegrees>
              <LongitudeDegrees>-2.785522006452083587646484375</LongitudeDegrees>
            </Position>
            <AltitudeMeters>1707.800048828125</AltitudeMeters>
            <DistanceMeters>207614.91496772</DistanceMeters>
          </Trackpoint>
          <Trackpoint>
            <Time>2021-07-29T12:30:33.000Z</Time>
            <Position>
              <LatitudeDegrees>42.03567280434072017669677734375</LatitudeDegrees>
              <LongitudeDegrees>-2.78555628843605518341064453125</LongitudeDegrees>
            </Position>
            <AltitudeMeters>1708.800048828125</AltitudeMeters>
            <DistanceMeters>207619.35180969</DistanceMeters>
          </Trackpoint>
          <Trackpoint>
            <Time>2021-07-29T12:30:55.000Z</Time>
            <Position>
              <LatitudeDegrees>42.03583993948996067047119140625</LatitudeDegrees>
              <LongitudeDegrees>-2.78573767282068729400634765625</LongitudeDegrees>
            </Position>
            <AltitudeMeters>1709.800048828125</AltitudeMeters>
            <DistanceMeters>207643.24493491</DistanceMeters>
          </Trackpoint>
          <Trackpoint>
            <Time>2021-07-29T12:31:05.000Z</Time>
            <Position>
              <LatitudeDegrees>42.0359178073704242706298828125</LatitudeDegrees>
              <LongitudeDegrees>-2.785841189324855804443359375</LongitudeDegrees>
            </Position>
            <AltitudeMeters>1710.800048828125</AltitudeMeters>
            <DistanceMeters>207655.42467612</DistanceMeters>
          </Trackpoint>
          <Trackpoint>
            <Time>2021-07-29T12:31:16.000Z</Time>
            <Position>
              <LatitudeDegrees>42.0359982736408710479736328125</LatitudeDegrees>
              <LongitudeDegrees>-2.785932384431362152099609375</LongitudeDegrees>
            </Position>
            <AltitudeMeters>1712</AltitudeMeters>
            <DistanceMeters>207667.1314891</DistanceMeters>
          </Trackpoint>
          <Trackpoint>
            <Time>2021-07-29T12:31:27.000Z</Time>
            <Position>
              <LatitudeDegrees>42.03606851398944854736328125</LatitudeDegrees>
              <LongitudeDegrees>-2.786021567881107330322265625</LongitudeDegrees>
            </Position>
            <AltitudeMeters>1712.5999755859375</AltitudeMeters>
            <DistanceMeters>207677.87749382</DistanceMeters>
          </Trackpoint>
          <Trackpoint>
            <Time>2021-07-29T12:31:31.000Z</Time>
            <Position>
              <LatitudeDegrees>42.03609944321215152740478515625</LatitudeDegrees>
              <LongitudeDegrees>-2.78604947961866855621337890625</LongitudeDegrees>
            </Position>
            <AltitudeMeters>1713</AltitudeMeters>
            <DistanceMeters>207682.02288108</DistanceMeters>
          </Trackpoint>
          <Trackpoint>
            <Time>2021-07-29T12:31:41.000Z</Time>
            <Position>
              <LatitudeDegrees>42.03617655672132968902587890625</LatitudeDegrees>
              <LongitudeDegrees>-2.7861203067004680633544921875</LongitudeDegrees>
            </Position>
            <AltitudeMeters>1714</AltitudeMeters>
            <DistanceMeters>207692.41256509</DistanceMeters>
          </Trackpoint>
          <Trackpoint>
            <Time>2021-07-29T12:31:42.000Z</Time>
            <Position>
              <LatitudeDegrees>42.03618519008159637451171875</LatitudeDegrees>
              <LongitudeDegrees>-2.78612558729946613311767578125</LongitudeDegrees>
            </Position>
            <AltitudeMeters>1714.199951171875</AltitudeMeters>
            <DistanceMeters>207693.47073779</DistanceMeters>
          </Trackpoint>
          <Trackpoint>
            <Time>2021-07-29T12:31:51.000Z</Time>
            <Position>
              <LatitudeDegrees>42.03625769354403018951416015625</LatitudeDegrees>
              <LongitudeDegrees>-2.78617478907108306884765625</LongitudeDegrees>
            </Position>
            <AltitudeMeters>1715</AltitudeMeters>
            <DistanceMeters>207702.50777333</DistanceMeters>
          </Trackpoint>
          <Trackpoint>
            <Time>2021-07-29T12:31:57.000Z</Time>
            <Position>
              <LatitudeDegrees>42.0363104157149791717529296875</LatitudeDegrees>
              <LongitudeDegrees>-2.78619817458093166351318359375</LongitudeDegrees>
            </Position>
            <AltitudeMeters>1716.199951171875</AltitudeMeters>
            <DistanceMeters>207708.6852407</DistanceMeters>
          </Trackpoint>
          <Trackpoint>
            <Time>2021-07-29T12:32:09.000Z</Time>
            <Position>
              <LatitudeDegrees>42.03642566688358783721923828125</LatitudeDegrees>
              <LongitudeDegrees>-2.78621795587241649627685546875</LongitudeDegrees>
            </Position>
            <AltitudeMeters>1717.199951171875</AltitudeMeters>
            <DistanceMeters>207721.61655755</DistanceMeters>
          </Trackpoint>
          <Trackpoint>
            <Time>2021-07-29T12:32:20.000Z</Time>
            <Position>
              <LatitudeDegrees>42.0365370623767375946044921875</LatitudeDegrees>
              <LongitudeDegrees>-2.78619566000998020172119140625</LongitudeDegrees>
            </Position>
            <AltitudeMeters>1718.199951171875</AltitudeMeters>
            <DistanceMeters>207734.15144208</DistanceMeters>
          </Trackpoint>
          <Trackpoint>
            <Time>2021-07-29T12:32:29.000Z</Time>
            <Position>
              <LatitudeDegrees>42.0366279222071170806884765625</LatitudeDegrees>
              <LongitudeDegrees>-2.7861548401415348052978515625</LongitudeDegrees>
            </Position>
            <AltitudeMeters>1719.199951171875</AltitudeMeters>
            <DistanceMeters>207744.81223671</DistanceMeters>
          </Trackpoint>
          <Trackpoint>
            <Time>2021-07-29T12:32:35.000Z</Time>
            <Position>
              <LatitudeDegrees>42.03668215312063694000244140625</LatitudeDegrees>
              <LongitudeDegrees>-2.7861193008720874786376953125</LongitudeDegrees>
            </Position>
            <AltitudeMeters>1720.199951171875</AltitudeMeters>
            <DistanceMeters>207751.52491736</DistanceMeters>
          </Trackpoint>
          <Trackpoint>
            <Time>2021-07-29T12:32:38.000Z</Time>
            <Position>
              <LatitudeDegrees>42.03670629300177097320556640625</LatitudeDegrees>
              <LongitudeDegrees>-2.786104381084442138671875</LongitudeDegrees>
            </Position>
            <AltitudeMeters>1720.800048828125</AltitudeMeters>
            <DistanceMeters>207754.47992733</DistanceMeters>
          </Trackpoint>
          <Trackpoint>
            <Time>2021-07-29T12:32:41.000Z</Time>
            <Position>
              <LatitudeDegrees>42.03672959469258785247802734375</LatitudeDegrees>
              <LongitudeDegrees>-2.78607982210814952850341796875</LongitudeDegrees>
            </Position>
            <AltitudeMeters>1721.4000244140625</AltitudeMeters>
            <DistanceMeters>207757.77174927</DistanceMeters>
          </Trackpoint>
          <Trackpoint>
            <Time>2021-07-29T12:32:53.000Z</Time>
            <Position>
              <LatitudeDegrees>42.0368089713156223297119140625</LatitudeDegrees>
              <LongitudeDegrees>-2.78597672469913959503173828125</LongitudeDegrees>
            </Position>
            <AltitudeMeters>1722.4000244140625</AltitudeMeters>
            <DistanceMeters>207770.04749429</DistanceMeters>
          </Trackpoint>
          <Trackpoint>
            <Time>2021-07-29T12:32:57.000Z</Time>
            <Position>
              <LatitudeDegrees>42.03683000989258289337158203125</LatitudeDegrees>
              <LongitudeDegrees>-2.78593816794455051422119140625</LongitudeDegrees>
            </Position>
            <AltitudeMeters>1723.4000244140625</AltitudeMeters>
            <DistanceMeters>207774.00224996</DistanceMeters>
          </Trackpoint>
          <Trackpoint>
            <Time>2021-07-29T12:33:00.000Z</Time>
            <Position>
              <LatitudeDegrees>42.03684442676603794097900390625</LatitudeDegrees>
              <LongitudeDegrees>-2.785909585654735565185546875</LongitudeDegrees>
            </Position>
            <AltitudeMeters>1724.5999755859375</AltitudeMeters>
            <DistanceMeters>207776.85937948</DistanceMeters>
          </Trackpoint>
          <Trackpoint>
            <Time>2021-07-29T12:33:02.000Z</Time>
            <Position>
              <LatitudeDegrees>42.03685733489692211151123046875</LatitudeDegrees>
              <LongitudeDegrees>-2.7858963422477245330810546875</LongitudeDegrees>
            </Position>
            <AltitudeMeters>1724.800048828125</AltitudeMeters>
            <DistanceMeters>207778.66738603</DistanceMeters>
          </Trackpoint>
          <Trackpoint>
            <Time>2021-07-29T12:33:12.000Z</Time>
            <Position>
              <LatitudeDegrees>42.0368904434144496917724609375</LatitudeDegrees>
              <LongitudeDegrees>-2.785783521831035614013671875</LongitudeDegrees>
            </Position>
            <AltitudeMeters>1725</AltitudeMeters>
            <DistanceMeters>207788.69529365</DistanceMeters>
          </Trackpoint>
          <Trackpoint>
            <Time>2021-07-29T12:33:15.000Z</Time>
            <Position>
              <LatitudeDegrees>42.0369015075266361236572265625</LatitudeDegrees>
              <LongitudeDegrees>-2.785746641457080841064453125</LongitudeDegrees>
            </Position>
            <AltitudeMeters>1725.800048828125</AltitudeMeters>
            <DistanceMeters>207791.98437127</DistanceMeters>
          </Trackpoint>
          <Trackpoint>
            <Time>2021-07-29T12:33:29.000Z</Time>
            <Position>
              <LatitudeDegrees>42.036923468112945556640625</LatitudeDegrees>
              <LongitudeDegrees>-2.78557087294757366180419921875</LongitudeDegrees>
            </Position>
            <AltitudeMeters>1726.4000244140625</AltitudeMeters>
            <DistanceMeters>207806.71810935</DistanceMeters>
          </Trackpoint>
          <Trackpoint>
            <Time>2021-07-29T12:33:33.000Z</Time>
            <Position>
              <LatitudeDegrees>42.03692388720810413360595703125</LatitudeDegrees>
              <LongitudeDegrees>-2.78551588766276836395263671875</LongitudeDegrees>
            </Position>
            <AltitudeMeters>1726.800048828125</AltitudeMeters>
            <DistanceMeters>207811.26352626</DistanceMeters>
          </Trackpoint>
          <Trackpoint>
            <Time>2021-07-29T12:33:37.000Z</Time>
            <Position>
              <LatitudeDegrees>42.0369306765496730804443359375</LatitudeDegrees>
              <LongitudeDegrees>-2.7854685299098491668701171875</LongitudeDegrees>
            </Position>
            <AltitudeMeters>1727</AltitudeMeters>
            <DistanceMeters>207815.25012061</DistanceMeters>
          </Trackpoint>
          <Trackpoint>
            <Time>2021-07-29T12:33:40.000Z</Time>
            <Position>
              <LatitudeDegrees>42.03692145645618438720703125</LatitudeDegrees>
              <LongitudeDegrees>-2.78543357737362384796142578125</LongitudeDegrees>
            </Position>
            <AltitudeMeters>1727.199951171875</AltitudeMeters>
            <DistanceMeters>207818.31758531</DistanceMeters>
          </Trackpoint>
          <Trackpoint>
            <Time>2021-07-29T12:33:48.000Z</Time>
            <Position>
              <LatitudeDegrees>42.036908380687236785888671875</LatitudeDegrees>
              <LongitudeDegrees>-2.785329557955265045166015625</LongitudeDegrees>
            </Position>
            <AltitudeMeters>1727.800048828125</AltitudeMeters>
            <DistanceMeters>207827.03884289</DistanceMeters>
          </Trackpoint>
          <Trackpoint>
            <Time>2021-07-29T12:33:58.000Z</Time>
            <Position>
              <LatitudeDegrees>42.036882899701595306396484375</LatitudeDegrees>
              <LongitudeDegrees>-2.7851922623813152313232421875</LongitudeDegrees>
            </Position>
            <AltitudeMeters>1728.800048828125</AltitudeMeters>
            <DistanceMeters>207838.73755387</DistanceMeters>
          </Trackpoint>
          <Trackpoint>
            <Time>2021-07-29T12:34:00.000Z</Time>
            <Position>
              <LatitudeDegrees>42.03688113950192928314208984375</LatitudeDegrees>
              <LongitudeDegrees>-2.78515915386378765106201171875</LongitudeDegrees>
            </Position>
            <AltitudeMeters>1729</AltitudeMeters>
            <DistanceMeters>207841.48183588</DistanceMeters>
          </Trackpoint>
          <Trackpoint>
            <Time>2021-07-29T12:34:08.000Z</Time>
            <Position>
              <LatitudeDegrees>42.03685834072530269622802734375</LatitudeDegrees>
              <LongitudeDegrees>-2.78505488298833370208740234375</LongitudeDegrees>
            </Position>
            <AltitudeMeters>1730</AltitudeMeters>
            <DistanceMeters>207850.46726372</DistanceMeters>
          </Trackpoint>
          <Trackpoint>
            <Time>2021-07-29T12:34:15.000Z</Time>
            <Position>
              <LatitudeDegrees>42.03684727661311626434326171875</LatitudeDegrees>
              <LongitudeDegrees>-2.7849684655666351318359375</LongitudeDegrees>
            </Position>
            <AltitudeMeters>1731</AltitudeMeters>
            <DistanceMeters>207857.71674956</DistanceMeters>
          </Trackpoint>
          <Trackpoint>
            <Time>2021-07-29T12:34:28.000Z</Time>
            <Position>
              <LatitudeDegrees>42.036817185580730438232421875</LatitudeDegrees>
              <LongitudeDegrees>-2.7848070301115512847900390625</LongitudeDegrees>
            </Position>
            <AltitudeMeters>1732.199951171875</AltitudeMeters>
            <DistanceMeters>207871.47562025</DistanceMeters>
          </Trackpoint>
          <Trackpoint>
            <Time>2021-07-29T12:34:31.000Z</Time>
            <Position>
              <LatitudeDegrees>42.03681726939976215362548828125</LatitudeDegrees>
              <LongitudeDegrees>-2.784768976271152496337890625</LongitudeDegrees>
            </Position>
            <AltitudeMeters>1732.4000244140625</AltitudeMeters>
            <DistanceMeters>207874.62012875</DistanceMeters>
          </Trackpoint>
          <Trackpoint>
            <Time>2021-07-29T12:34:35.000Z</Time>
            <Position>
              <LatitudeDegrees>42.03681844286620616912841796875</LatitudeDegrees>
              <LongitudeDegrees>-2.78471725992858409881591796875</LongitudeDegrees>
            </Position>
            <AltitudeMeters>1732.800048828125</AltitudeMeters>
            <DistanceMeters>207878.89738662</DistanceMeters>
          </Trackpoint>
          <Trackpoint>
            <Time>2021-07-29T12:34:40.000Z</Time>
            <Position>
              <LatitudeDegrees>42.0367999188601970672607421875</LatitudeDegrees>
              <LongitudeDegrees>-2.784656323492527008056640625</LongitudeDegrees>
            </Position>
            <AltitudeMeters>1733</AltitudeMeters>
            <DistanceMeters>207884.33968859</DistanceMeters>
          </Trackpoint>
          <Trackpoint>
            <Time>2021-07-29T12:34:41.000Z</Time>
            <Position>
              <LatitudeDegrees>42.0367965660989284515380859375</LatitudeDegrees>
              <LongitudeDegrees>-2.7846430800855159759521484375</LongitudeDegrees>
            </Position>
            <AltitudeMeters>1733</AltitudeMeters>
            <DistanceMeters>207885.49573846</DistanceMeters>
          </Trackpoint>
          <Trackpoint>
            <Time>2021-07-29T12:34:42.000Z</Time>
            <Position>
              <LatitudeDegrees>42.0367955602705478668212890625</LatitudeDegrees>
              <LongitudeDegrees>-2.78462941758334636688232421875</LongitudeDegrees>
            </Position>
            <AltitudeMeters>1733.199951171875</AltitudeMeters>
            <DistanceMeters>207886.62811245</DistanceMeters>
          </Trackpoint>
          <Trackpoint>
            <Time>2021-07-29T12:34:46.000Z</Time>
            <Position>
              <LatitudeDegrees>42.0367838256061077117919921875</LatitudeDegrees>
              <LongitudeDegrees>-2.7845813892781734466552734375</LongitudeDegrees>
            </Position>
            <AltitudeMeters>1733.4000244140625</AltitudeMeters>
            <DistanceMeters>207890.8082079</DistanceMeters>
          </Trackpoint>
          <Trackpoint>
            <Time>2021-07-29T12:34:50.000Z</Time>
            <Position>
              <LatitudeDegrees>42.036775611340999603271484375</LatitudeDegrees>
              <LongitudeDegrees>-2.7845294214785099029541015625</LongitudeDegrees>
            </Position>
            <AltitudeMeters>1734.199951171875</AltitudeMeters>
            <DistanceMeters>207895.20107409</DistanceMeters>
          </Trackpoint>
          <Trackpoint>
            <Time>2021-07-29T12:34:55.000Z</Time>
            <Position>
              <LatitudeDegrees>42.03676831908524036407470703125</LatitudeDegrees>
              <LongitudeDegrees>-2.78446814976632595062255859375</LongitudeDegrees>
            </Position>
            <AltitudeMeters>1735</AltitudeMeters>
            <DistanceMeters>207900.33075661</DistanceMeters>
          </Trackpoint>
          <Trackpoint>
            <Time>2021-07-29T12:34:59.000Z</Time>
            <Position>
              <LatitudeDegrees>42.03676052391529083251953125</LatitudeDegrees>
              <LongitudeDegrees>-2.78441819362342357635498046875</LongitudeDegrees>
            </Position>
            <AltitudeMeters>1735.4000244140625</AltitudeMeters>
            <DistanceMeters>207904.55062755</DistanceMeters>
          </Trackpoint>
          <Trackpoint>
            <Time>2021-07-29T12:35:00.000Z</Time>
            <Position>
              <LatitudeDegrees>42.03675775788724422454833984375</LatitudeDegrees>
              <LongitudeDegrees>-2.78440595604479312896728515625</LongitudeDegrees>
            </Position>
            <AltitudeMeters>1735.4000244140625</AltitudeMeters>
            <DistanceMeters>207905.60880025</DistanceMeters>
          </Trackpoint>
          <Trackpoint>
            <Time>2021-07-29T12:35:04.000Z</Time>
            <Position>
              <LatitudeDegrees>42.036757171154022216796875</LatitudeDegrees>
              <LongitudeDegrees>-2.78435130603611469268798828125</LongitudeDegrees>
            </Position>
            <AltitudeMeters>1735.800048828125</AltitudeMeters>
            <DistanceMeters>207910.12831714</DistanceMeters>
          </Trackpoint>
          <Trackpoint>
            <Time>2021-07-29T12:35:08.000Z</Time>
            <Position>
              <LatitudeDegrees>42.03676630742847919464111328125</LatitudeDegrees>
              <LongitudeDegrees>-2.78430101461708545684814453125</LongitudeDegrees>
            </Position>
            <AltitudeMeters>1736.4000244140625</AltitudeMeters>
            <DistanceMeters>207914.4097953</DistanceMeters>
          </Trackpoint>
          <Trackpoint>
            <Time>2021-07-29T12:35:10.000Z</Time>
            <Position>
              <LatitudeDegrees>42.03677368350327014923095703125</LatitudeDegrees>
              <LongitudeDegrees>-2.78427436016499996185302734375</LongitudeDegrees>
            </Position>
            <AltitudeMeters>1736.4000244140625</AltitudeMeters>
            <DistanceMeters>207916.76062638</DistanceMeters>
          </Trackpoint>
          <Trackpoint>
            <Time>2021-07-29T12:35:16.000Z</Time>
            <Position>
              <LatitudeDegrees>42.0368002541363239288330078125</LatitudeDegrees>
              <LongitudeDegrees>-2.78418836183845996856689453125</LongitudeDegrees>
            </Position>
            <AltitudeMeters>1736.199951171875</AltitudeMeters>
            <DistanceMeters>207924.46013623</DistanceMeters>
          </Trackpoint>
          <Trackpoint>
            <Time>2021-07-29T12:35:23.000Z</Time>
            <Position>
              <LatitudeDegrees>42.03680746257305145263671875</LatitudeDegrees>
              <LongitudeDegrees>-2.78408040292561054229736328125</LongitudeDegrees>
            </Position>
            <AltitudeMeters>1737.4000244140625</AltitudeMeters>
            <DistanceMeters>207933.42040462</DistanceMeters>
          </Trackpoint>
          <Trackpoint>
            <Time>2021-07-29T12:35:28.000Z</Time>
            <Position>
              <LatitudeDegrees>42.03681416809558868408203125</LatitudeDegrees>
              <LongitudeDegrees>-2.78400219976902008056640625</LongitudeDegrees>
            </Position>
            <AltitudeMeters>1738.4000244140625</AltitudeMeters>
            <DistanceMeters>207939.92747988</DistanceMeters>
          </Trackpoint>
          <Trackpoint>
            <Time>2021-07-29T12:35:34.000Z</Time>
            <Position>
              <LatitudeDegrees>42.03686974011361598968505859375</LatitudeDegrees>
              <LongitudeDegrees>-2.78393807820975780487060546875</LongitudeDegrees>
            </Position>
            <AltitudeMeters>1738.5999755859375</AltitudeMeters>
            <DistanceMeters>207948.07321506</DistanceMeters>
          </Trackpoint>
          <Trackpoint>
            <Time>2021-07-29T12:35:39.000Z</Time>
            <Position>
              <LatitudeDegrees>42.0369248092174530029296875</LatitudeDegrees>
              <LongitudeDegrees>-2.78389130719006061553955078125</LongitudeDegrees>
            </Position>
            <AltitudeMeters>1738.4000244140625</AltitudeMeters>
            <DistanceMeters>207955.32020924</DistanceMeters>
          </Trackpoint>
          <Trackpoint>
            <Time>2021-07-29T12:35:46.000Z</Time>
            <Position>
              <LatitudeDegrees>42.0369916968047618865966796875</LatitudeDegrees>
              <LongitudeDegrees>-2.78386364690959453582763671875</LongitudeDegrees>
            </Position>
            <AltitudeMeters>1739.4000244140625</AltitudeMeters>
            <DistanceMeters>207963.10776299</DistanceMeters>
          </Trackpoint>
          <Trackpoint>
            <Time>2021-07-29T12:35:48.000Z</Time>
            <Position>
              <LatitudeDegrees>42.03701005317270755767822265625</LatitudeDegrees>
              <LongitudeDegrees>-2.78386029414832592010498046875</LongitudeDegrees>
            </Position>
            <AltitudeMeters>1739.800048828125</AltitudeMeters>
            <DistanceMeters>207965.16789307</DistanceMeters>
          </Trackpoint>
          <Trackpoint>
            <Time>2021-07-29T12:35:51.000Z</Time>
            <Position>
              <LatitudeDegrees>42.037038467824459075927734375</LatitudeDegrees>
              <LongitudeDegrees>-2.7838605456054210662841796875</LongitudeDegrees>
            </Position>
            <AltitudeMeters>1740.4000244140625</AltitudeMeters>
            <DistanceMeters>207968.33101252</DistanceMeters>
          </Trackpoint>
          <Trackpoint>
            <Time>2021-07-29T12:36:05.000Z</Time>
            <Position>
              <LatitudeDegrees>42.03716126270592212677001953125</LatitudeDegrees>
              <LongitudeDegrees>-2.7838498167693614959716796875</LongitudeDegrees>
            </Position>
            <AltitudeMeters>1740.800048828125</AltitudeMeters>
            <DistanceMeters>207982.02673258</DistanceMeters>
          </Trackpoint>
          <Trackpoint>
            <Time>2021-07-29T12:36:10.000Z</Time>
            <Position>
              <LatitudeDegrees>42.03720853663980960845947265625</LatitudeDegrees>
              <LongitudeDegrees>-2.78387286700308322906494140625</LongitudeDegrees>
            </Position>
            <AltitudeMeters>1741.4000244140625</AltitudeMeters>
            <DistanceMeters>207987.62282989</DistanceMeters>
          </Trackpoint>
          <Trackpoint>
            <Time>2021-07-29T12:36:12.000Z</Time>
            <Position>
              <LatitudeDegrees>42.03722647391259670257568359375</LatitudeDegrees>
              <LongitudeDegrees>-2.78388359583914279937744140625</LongitudeDegrees>
            </Position>
            <AltitudeMeters>1741.4000244140625</AltitudeMeters>
            <DistanceMeters>207989.80637755</DistanceMeters>
          </Trackpoint>
          <Trackpoint>
            <Time>2021-07-29T12:36:14.000Z</Time>
            <Position>
              <LatitudeDegrees>42.03724374063313007354736328125</LatitudeDegrees>
              <LongitudeDegrees>-2.78389625251293182373046875</LongitudeDegrees>
            </Position>
            <AltitudeMeters>1741.4000244140625</AltitudeMeters>
            <DistanceMeters>207991.9940568</DistanceMeters>
          </Trackpoint>
          <Trackpoint>
            <Time>2021-07-29T12:36:21.000Z</Time>
            <Position>
              <LatitudeDegrees>42.037312053143978118896484375</LatitudeDegrees>
              <LongitudeDegrees>-2.78393070213496685028076171875</LongitudeDegrees>
            </Position>
            <AltitudeMeters>1741</AltitudeMeters>
            <DistanceMeters>208000.11314283</DistanceMeters>
          </Trackpoint>
          <Trackpoint>
            <Time>2021-07-29T12:36:25.000Z</Time>
            <Position>
              <LatitudeDegrees>42.0373521186411380767822265625</LatitudeDegrees>
              <LongitudeDegrees>-2.78394042514264583587646484375</LongitudeDegrees>
            </Position>
            <AltitudeMeters>1742.800048828125</AltitudeMeters>
            <DistanceMeters>208004.64463197</DistanceMeters>
          </Trackpoint>
          <Trackpoint>
            <Time>2021-07-29T12:36:38.000Z</Time>
            <Position>
              <LatitudeDegrees>42.03747524879872798919677734375</LatitudeDegrees>
              <LongitudeDegrees>-2.78403497301042079925537109375</LongitudeDegrees>
            </Position>
            <AltitudeMeters>1743.4000244140625</AltitudeMeters>
            <DistanceMeters>208020.42135619</DistanceMeters>
          </Trackpoint>
          <Trackpoint>
            <Time>2021-07-29T12:36:43.000Z</Time>
            <Position>
              <LatitudeDegrees>42.037525959312915802001953125</LatitudeDegrees>
              <LongitudeDegrees>-2.784070260822772979736328125</LongitudeDegrees>
            </Position>
            <AltitudeMeters>1743.800048828125</AltitudeMeters>
            <DistanceMeters>208026.77465783</DistanceMeters>
          </Trackpoint>
          <Trackpoint>
            <Time>2021-07-29T12:36:49.000Z</Time>
            <Position>
              <LatitudeDegrees>42.03758924268186092376708984375</LatitudeDegrees>
              <LongitudeDegrees>-2.784117199480533599853515625</LongitudeDegrees>
            </Position>
            <AltitudeMeters>1744.800048828125</AltitudeMeters>
            <DistanceMeters>208034.81663567</DistanceMeters>
          </Trackpoint>
          <Trackpoint>
            <Time>2021-07-29T12:36:59.000Z</Time>
            <Position>
              <LatitudeDegrees>42.0376947708427906036376953125</LatitudeDegrees>
              <LongitudeDegrees>-2.7842246554791927337646484375</LongitudeDegrees>
            </Position>
            <AltitudeMeters>1745.800048828125</AltitudeMeters>
            <DistanceMeters>208049.54332389</DistanceMeters>
          </Trackpoint>
          <Trackpoint>
            <Time>2021-07-29T12:37:09.000Z</Time>
            <Position>
              <LatitudeDegrees>42.037804909050464630126953125</LatitudeDegrees>
              <LongitudeDegrees>-2.78430805541574954986572265625</LongitudeDegrees>
            </Position>
            <AltitudeMeters>1746.800048828125</AltitudeMeters>
            <DistanceMeters>208063.60727761</DistanceMeters>
          </Trackpoint>
          <Trackpoint>
            <Time>2021-07-29T12:37:19.000Z</Time>
            <Position>
              <LatitudeDegrees>42.0378751493990421295166015625</LatitudeDegrees>
              <LongitudeDegrees>-2.78442556969821453094482421875</LongitudeDegrees>
            </Position>
            <AltitudeMeters>1748</AltitudeMeters>
            <DistanceMeters>208076.07643381</DistanceMeters>
          </Trackpoint>
          <Trackpoint>
            <Time>2021-07-29T12:37:25.000Z</Time>
            <Position>
              <LatitudeDegrees>42.03791580162942409515380859375</LatitudeDegrees>
              <LongitudeDegrees>-2.78449706733226776123046875</LongitudeDegrees>
            </Position>
            <AltitudeMeters>1749</AltitudeMeters>
            <DistanceMeters>208083.52012571</DistanceMeters>
          </Trackpoint>
          <Trackpoint>
            <Time>2021-07-29T12:37:40.000Z</Time>
            <Position>
              <LatitudeDegrees>42.03803130425512790679931640625</LatitudeDegrees>
              <LongitudeDegrees>-2.78466797433793544769287109375</LongitudeDegrees>
            </Position>
            <AltitudeMeters>1750</AltitudeMeters>
            <DistanceMeters>208102.62120444</DistanceMeters>
          </Trackpoint>
          <Trackpoint>
            <Time>2021-07-29T12:37:46.000Z</Time>
            <Position>
              <LatitudeDegrees>42.0380930788815021514892578125</LatitudeDegrees>
              <LongitudeDegrees>-2.78472580946981906890869140625</LongitudeDegrees>
            </Position>
            <AltitudeMeters>1751.199951171875</AltitudeMeters>
            <DistanceMeters>208110.99542522</DistanceMeters>
          </Trackpoint>
          <Trackpoint>
            <Time>2021-07-29T12:37:54.000Z</Time>
            <Position>
              <LatitudeDegrees>42.03818201087415218353271484375</LatitudeDegrees>
              <LongitudeDegrees>-2.78478247113525867462158203125</LongitudeDegrees>
            </Position>
            <AltitudeMeters>1752.199951171875</AltitudeMeters>
            <DistanceMeters>208121.94578526</DistanceMeters>
          </Trackpoint>
          <Trackpoint>
            <Time>2021-07-29T12:37:59.000Z</Time>
            <Position>
              <LatitudeDegrees>42.03824135474860668182373046875</LatitudeDegrees>
              <LongitudeDegrees>-2.7848113887012004852294921875</LongitudeDegrees>
            </Position>
            <AltitudeMeters>1753.199951171875</AltitudeMeters>
            <DistanceMeters>208128.97069578</DistanceMeters>
          </Trackpoint>
          <Trackpoint>
            <Time>2021-07-29T12:38:11.000Z</Time>
            <Position>
              <LatitudeDegrees>42.03838636167347431182861328125</LatitudeDegrees>
              <LongitudeDegrees>-2.78488456271588802337646484375</LongitudeDegrees>
            </Position>
            <AltitudeMeters>1754.4000244140625</AltitudeMeters>
            <DistanceMeters>208146.20645671</DistanceMeters>
          </Trackpoint>
          <Trackpoint>
            <Time>2021-07-29T12:38:15.000Z</Time>
            <Position>
              <LatitudeDegrees>42.038412429392337799072265625</LatitudeDegrees>
              <LongitudeDegrees>-2.78493552468717098236083984375</LongitudeDegrees>
            </Position>
            <AltitudeMeters>1755</AltitudeMeters>
            <DistanceMeters>208151.3211543</DistanceMeters>
          </Trackpoint>
          <Trackpoint>
            <Time>2021-07-29T12:38:17.000Z</Time>
            <Position>
              <LatitudeDegrees>42.0384139381349086761474609375</LatitudeDegrees>
              <LongitudeDegrees>-2.784966118633747100830078125</LongitudeDegrees>
            </Position>
            <AltitudeMeters>1755.4000244140625</AltitudeMeters>
            <DistanceMeters>208153.8567833</DistanceMeters>
          </Trackpoint>
          <Trackpoint>
            <Time>2021-07-29T12:38:35.000Z</Time>
            <Position>
              <LatitudeDegrees>42.03837278299033641815185546875</LatitudeDegrees>
              <LongitudeDegrees>-2.78520223684608936309814453125</LongitudeDegrees>
            </Position>
            <AltitudeMeters>1754.4000244140625</AltitudeMeters>
            <DistanceMeters>208173.90539329</DistanceMeters>
          </Trackpoint>
          <Trackpoint>
            <Time>2021-07-29T12:42:12.000Z</Time>
            <Position>
              <LatitudeDegrees>42.0384172908961772918701171875</LatitudeDegrees>
              <LongitudeDegrees>-2.78510366566479206085205078125</LongitudeDegrees>
            </Position>
            <AltitudeMeters>1755</AltitudeMeters>
            <DistanceMeters>208183.44173955</DistanceMeters>
          </Trackpoint>
          <Trackpoint>
            <Time>2021-07-29T12:42:19.000Z</Time>
            <Position>
              <LatitudeDegrees>42.03846062533557415008544921875</LatitudeDegrees>
              <LongitudeDegrees>-2.78498782776296138763427734375</LongitudeDegrees>
            </Position>
            <AltitudeMeters>1755</AltitudeMeters>
            <DistanceMeters>208194.16334731</DistanceMeters>
          </Trackpoint>
          <Trackpoint>
            <Time>2021-07-29T12:42:24.000Z</Time>
            <Position>
              <LatitudeDegrees>42.0385058037936687469482421875</LatitudeDegrees>
              <LongitudeDegrees>-2.78490836732089519500732421875</LongitudeDegrees>
            </Position>
            <AltitudeMeters>1754.4000244140625</AltitudeMeters>
            <DistanceMeters>208202.43558518</DistanceMeters>
          </Trackpoint>
          <Trackpoint>
            <Time>2021-07-29T12:42:33.000Z</Time>
            <Position>
              <LatitudeDegrees>42.03864066861569881439208984375</LatitudeDegrees>
              <LongitudeDegrees>-2.784860171377658843994140625</LongitudeDegrees>
            </Position>
            <AltitudeMeters>1754.5999755859375</AltitudeMeters>
            <DistanceMeters>208217.96598575</DistanceMeters>
          </Trackpoint>
          <Trackpoint>
            <Time>2021-07-29T12:42:38.000Z</Time>
            <Position>
              <LatitudeDegrees>42.03873035497963428497314453125</LatitudeDegrees>
              <LongitudeDegrees>-2.784869559109210968017578125</LongitudeDegrees>
            </Position>
            <AltitudeMeters>1755</AltitudeMeters>
            <DistanceMeters>208227.97857326</DistanceMeters>
          </Trackpoint>
          <Trackpoint>
            <Time>2021-07-29T12:42:40.000Z</Time>
            <Position>
              <LatitudeDegrees>42.0387693308293819427490234375</LatitudeDegrees>
              <LongitudeDegrees>-2.7848692238330841064453125</LongitudeDegrees>
            </Position>
            <AltitudeMeters>1755.5999755859375</AltitudeMeters>
            <DistanceMeters>208232.31662343</DistanceMeters>
          </Trackpoint>
          <Trackpoint>
            <Time>2021-07-29T12:42:51.000Z</Time>
            <Position>
              <LatitudeDegrees>42.03904098831117153167724609375</LatitudeDegrees>
              <LongitudeDegrees>-2.78495094738900661468505859375</LongitudeDegrees>
            </Position>
            <AltitudeMeters>1754.4000244140625</AltitudeMeters>
            <DistanceMeters>208263.29824711</DistanceMeters>
          </Trackpoint>
          <Trackpoint>
            <Time>2021-07-29T12:42:55.000Z</Time>
            <Position>
              <LatitudeDegrees>42.039206363260746002197265625</LatitudeDegrees>
              <LongitudeDegrees>-2.785049937665462493896484375</LongitudeDegrees>
            </Position>
            <AltitudeMeters>1753.199951171875</AltitudeMeters>
            <DistanceMeters>208283.44166924</DistanceMeters>
          </Trackpoint>
          <Trackpoint>
            <Time>2021-07-29T12:42:58.000Z</Time>
            <Position>
              <LatitudeDegrees>42.0393688045442104339599609375</LatitudeDegrees>
              <LongitudeDegrees>-2.78515261597931385040283203125</LongitudeDegrees>
            </Position>
            <AltitudeMeters>1751.800048828125</AltitudeMeters>
            <DistanceMeters>208303.41491928</DistanceMeters>
          </Trackpoint>
          <Trackpoint>
            <Time>2021-07-29T12:42:59.000Z</Time>
            <Position>
              <LatitudeDegrees>42.03942823223769664764404296875</LatitudeDegrees>
              <LongitudeDegrees>-2.78519502840936183929443359375</LongitudeDegrees>
            </Position>
            <AltitudeMeters>1750.5999755859375</AltitudeMeters>
            <DistanceMeters>208310.90094989</DistanceMeters>
          </Trackpoint>
          <Trackpoint>
            <Time>2021-07-29T12:43:00.000Z</Time>
            <Position>
              <LatitudeDegrees>42.039491347968578338623046875</LatitudeDegrees>
              <LongitudeDegrees>-2.7852366864681243896484375</LongitudeDegrees>
            </Position>
            <AltitudeMeters>1749.4000244140625</AltitudeMeters>
            <DistanceMeters>208318.72436719</DistanceMeters>
          </Trackpoint>
          <Trackpoint>
            <Time>2021-07-29T12:43:01.000Z</Time>
            <Position>
              <LatitudeDegrees>42.039559073746204376220703125</LatitudeDegrees>
              <LongitudeDegrees>-2.78527549467980861663818359375</LongitudeDegrees>
            </Position>
            <AltitudeMeters>1748.199951171875</AltitudeMeters>
            <DistanceMeters>208326.91708091</DistanceMeters>
          </Trackpoint>
          <Trackpoint>
            <Time>2021-07-29T12:43:03.000Z</Time>
            <Position>
              <LatitudeDegrees>42.03970600850880146026611328125</LatitudeDegrees>
              <LongitudeDegrees>-2.7853495068848133087158203125</LongitudeDegrees>
            </Position>
            <AltitudeMeters>1746.4000244140625</AltitudeMeters>
            <DistanceMeters>208344.37770636</DistanceMeters>
          </Trackpoint>
          <Trackpoint>
            <Time>2021-07-29T12:43:06.000Z</Time>
            <Position>
              <LatitudeDegrees>42.03995176590979099273681640625</LatitudeDegrees>
              <LongitudeDegrees>-2.78545134700834751129150390625</LongitudeDegrees>
            </Position>
            <AltitudeMeters>1744.4000244140625</AltitudeMeters>
            <DistanceMeters>208372.99700149</DistanceMeters>
          </Trackpoint>
          <Trackpoint>
            <Time>2021-07-29T12:43:08.000Z</Time>
            <Position>
              <LatitudeDegrees>42.040127702057361602783203125</LatitudeDegrees>
              <LongitudeDegrees>-2.78551253490149974822998046875</LongitudeDegrees>
            </Position>
            <AltitudeMeters>1742.800048828125</AltitudeMeters>
            <DistanceMeters>208393.22184766</DistanceMeters>
          </Trackpoint>
          <Trackpoint>
            <Time>2021-07-29T12:43:10.000Z</Time>
            <Position>
              <LatitudeDegrees>42.0403097569942474365234375</LatitudeDegrees>
              <LongitudeDegrees>-2.785578332841396331787109375</LongitudeDegrees>
            </Position>
            <AltitudeMeters>1741.5999755859375</AltitudeMeters>
            <DistanceMeters>208414.2021021</DistanceMeters>
          </Trackpoint>
          <Trackpoint>
            <Time>2021-07-29T12:43:13.000Z</Time>
            <Position>
              <LatitudeDegrees>42.04059314914047718048095703125</LatitudeDegrees>
              <LongitudeDegrees>-2.78571202419698238372802734375</LongitudeDegrees>
            </Position>
            <AltitudeMeters>1740</AltitudeMeters>
            <DistanceMeters>208447.62409316</DistanceMeters>
          </Trackpoint>
          <Trackpoint>
            <Time>2021-07-29T12:43:14.000Z</Time>
            <Position>
              <LatitudeDegrees>42.040688954293727874755859375</LatitudeDegrees>
              <LongitudeDegrees>-2.785768769681453704833984375</LongitudeDegrees>
            </Position>
            <AltitudeMeters>1738.5999755859375</AltitudeMeters>
            <DistanceMeters>208459.27368623</DistanceMeters>
          </Trackpoint>
          <Trackpoint>
            <Time>2021-07-29T12:43:16.000Z</Time>
            <Position>
              <LatitudeDegrees>42.040886096656322479248046875</LatitudeDegrees>
              <LongitudeDegrees>-2.7858960069715976715087890625</LongitudeDegrees>
            </Position>
            <AltitudeMeters>1737.199951171875</AltitudeMeters>
            <DistanceMeters>208483.60646356</DistanceMeters>
          </Trackpoint>
          <Trackpoint>
            <Time>2021-07-29T12:43:18.000Z</Time>
            <Position>
              <LatitudeDegrees>42.0410875976085662841796875</LatitudeDegrees>
              <LongitudeDegrees>-2.78604344464838504791259765625</LongitudeDegrees>
            </Position>
            <AltitudeMeters>1734.800048828125</AltitudeMeters>
            <DistanceMeters>208509.13135367</DistanceMeters>
          </Trackpoint>
          <Trackpoint>
            <Time>2021-07-29T12:43:19.000Z</Time>
            <Position>
              <LatitudeDegrees>42.04119061119854450225830078125</LatitudeDegrees>
              <LongitudeDegrees>-2.78612122870981693267822265625</LongitudeDegrees>
            </Position>
            <AltitudeMeters>1733.4000244140625</AltitudeMeters>
            <DistanceMeters>208522.27667766</DistanceMeters>
          </Trackpoint>
          <Trackpoint>
            <Time>2021-07-29T12:43:21.000Z</Time>
            <Position>
              <LatitudeDegrees>42.041402757167816162109375</LatitudeDegrees>
              <LongitudeDegrees>-2.7862775512039661407470703125</LongitudeDegrees>
            </Position>
            <AltitudeMeters>1731.800048828125</AltitudeMeters>
            <DistanceMeters>208549.19340338</DistanceMeters>
          </Trackpoint>
          <Trackpoint>
            <Time>2021-07-29T12:43:23.000Z</Time>
            <Position>
              <LatitudeDegrees>42.0416121371090412139892578125</LatitudeDegrees>
              <LongitudeDegrees>-2.78643135912716388702392578125</LongitudeDegrees>
            </Position>
            <AltitudeMeters>1730</AltitudeMeters>
            <DistanceMeters>208575.74040483</DistanceMeters>
          </Trackpoint>
          <Trackpoint>
            <Time>2021-07-29T12:43:24.000Z</Time>
            <Position>
              <LatitudeDegrees>42.0417174138128757476806640625</LatitudeDegrees>
              <LongitudeDegrees>-2.78651149012148380279541015625</LongitudeDegrees>
            </Position>
            <AltitudeMeters>1728.5999755859375</AltitudeMeters>
            <DistanceMeters>208589.20069657</DistanceMeters>
          </Trackpoint>
          <Trackpoint>
            <Time>2021-07-29T12:43:25.000Z</Time>
            <Position>
              <LatitudeDegrees>42.0418247021734714508056640625</LatitudeDegrees>
              <LongitudeDegrees>-2.7865900285542011260986328125</LongitudeDegrees>
            </Position>
            <AltitudeMeters>1727.4000244140625</AltitudeMeters>
            <DistanceMeters>208602.79250675</DistanceMeters>
          </Trackpoint>
          <Trackpoint>
            <Time>2021-07-29T12:43:26.000Z</Time>
            <Position>
              <LatitudeDegrees>42.0419373549520969390869140625</LatitudeDegrees>
              <LongitudeDegrees>-2.7866627834737300872802734375</LongitudeDegrees>
            </Position>
            <AltitudeMeters>1726.4000244140625</AltitudeMeters>
            <DistanceMeters>208616.69858769</DistanceMeters>
          </Trackpoint>
          <Trackpoint>
            <Time>2021-07-29T12:43:27.000Z</Time>
            <Position>
              <LatitudeDegrees>42.042056210339069366455078125</LatitudeDegrees>
              <LongitudeDegrees>-2.7867211215198040008544921875</LongitudeDegrees>
            </Position>
            <AltitudeMeters>1724.4000244140625</AltitudeMeters>
            <DistanceMeters>208630.77890474</DistanceMeters>
          </Trackpoint>
          <Trackpoint>
            <Time>2021-07-29T12:43:28.000Z</Time>
            <Position>
              <LatitudeDegrees>42.04218017868697643280029296875</LatitudeDegrees>
              <LongitudeDegrees>-2.78675355948507785797119140625</LongitudeDegrees>
            </Position>
            <AltitudeMeters>1723.199951171875</AltitudeMeters>
            <DistanceMeters>208644.83515149</DistanceMeters>
          </Trackpoint>
          <Trackpoint>
            <Time>2021-07-29T12:43:29.000Z</Time>
            <Position>
              <LatitudeDegrees>42.04230691306293010711669921875</LatitudeDegrees>
              <LongitudeDegrees>-2.78675674460828304290771484375</LongitudeDegrees>
            </Position>
            <AltitudeMeters>1720.800048828125</AltitudeMeters>
            <DistanceMeters>208658.94333865</DistanceMeters>
          </Trackpoint>
          <Trackpoint>
            <Time>2021-07-29T12:43:30.000Z</Time>
            <Position>
              <LatitudeDegrees>42.04243347980082035064697265625</LatitudeDegrees>
              <LongitudeDegrees>-2.7867435850203037261962890625</LongitudeDegrees>
            </Position>
            <AltitudeMeters>1719.5999755859375</AltitudeMeters>
            <DistanceMeters>208673.07263198</DistanceMeters>
          </Trackpoint>
          <Trackpoint>
            <Time>2021-07-29T12:43:32.000Z</Time>
            <Position>
              <LatitudeDegrees>42.04268443398177623748779296875</LatitudeDegrees>
              <LongitudeDegrees>-2.78669991530478000640869140625</LongitudeDegrees>
            </Position>
            <AltitudeMeters>1718.5999755859375</AltitudeMeters>
            <DistanceMeters>208701.23647254</DistanceMeters>
          </Trackpoint>
          <Trackpoint>
            <Time>2021-07-29T12:43:36.000Z</Time>
            <Position>
              <LatitudeDegrees>42.04317712225019931793212890625</LatitudeDegrees>
              <LongitudeDegrees>-2.78661274351179599761962890625</LongitudeDegrees>
            </Position>
            <AltitudeMeters>1717</AltitudeMeters>
            <DistanceMeters>208756.54512246</DistanceMeters>
          </Trackpoint>
          <Trackpoint>
            <Time>2021-07-29T12:43:37.000Z</Time>
            <Position>
              <LatitudeDegrees>42.043298073112964630126953125</LatitudeDegrees>
              <LongitudeDegrees>-2.7865987457334995269775390625</LongitudeDegrees>
            </Position>
            <AltitudeMeters>1716.4000244140625</AltitudeMeters>
            <DistanceMeters>208770.05697228</DistanceMeters>
          </Trackpoint>
          <Trackpoint>
            <Time>2021-07-29T12:43:38.000Z</Time>
            <Position>
              <LatitudeDegrees>42.0434169284999370574951171875</LatitudeDegrees>
              <LongitudeDegrees>-2.78660000301897525787353515625</LongitudeDegrees>
            </Position>
            <AltitudeMeters>1715.800048828125</AltitudeMeters>
            <DistanceMeters>208783.28583774</DistanceMeters>
          </Trackpoint>
          <Trackpoint>
            <Time>2021-07-29T12:43:40.000Z</Time>
            <Position>
              <LatitudeDegrees>42.0436475984752178192138671875</LatitudeDegrees>
              <LongitudeDegrees>-2.78667778708040714263916015625</LongitudeDegrees>
            </Position>
            <AltitudeMeters>1714.199951171875</AltitudeMeters>
            <DistanceMeters>208809.75278222</DistanceMeters>
          </Trackpoint>
          <Trackpoint>
            <Time>2021-07-29T12:43:42.000Z</Time>
            <Position>
              <LatitudeDegrees>42.0438501052558422088623046875</LatitudeDegrees>
              <LongitudeDegrees>-2.78685984201729297637939453125</LongitudeDegrees>
            </Position>
            <AltitudeMeters>1712.800048828125</AltitudeMeters>
            <DistanceMeters>208836.8537281</DistanceMeters>
          </Trackpoint>
          <Trackpoint>
            <Time>2021-07-29T12:43:44.000Z</Time>
            <Position>
              <LatitudeDegrees>42.044031322002410888671875</LatitudeDegrees>
              <LongitudeDegrees>-2.78709235601127147674560546875</LongitudeDegrees>
            </Position>
            <AltitudeMeters>1711.800048828125</AltitudeMeters>
            <DistanceMeters>208864.71357718</DistanceMeters>
          </Trackpoint>
          <Trackpoint>
            <Time>2021-07-29T12:43:46.000Z</Time>
            <Position>
              <LatitudeDegrees>42.0442219264805316925048828125</LatitudeDegrees>
              <LongitudeDegrees>-2.78732554055750370025634765625</LongitudeDegrees>
            </Position>
            <AltitudeMeters>1709.4000244140625</AltitudeMeters>
            <DistanceMeters>208893.37638156</DistanceMeters>
          </Trackpoint>
          <Trackpoint>
            <Time>2021-07-29T12:43:47.000Z</Time>
            <Position>
              <LatitudeDegrees>42.04432494007050991058349609375</LatitudeDegrees>
              <LongitudeDegrees>-2.787432409822940826416015625</LongitudeDegrees>
            </Position>
            <AltitudeMeters>1707.800048828125</AltitudeMeters>
            <DistanceMeters>208907.85041947</DistanceMeters>
          </Trackpoint>
          <Trackpoint>
            <Time>2021-07-29T12:43:48.000Z</Time>
            <Position>
              <LatitudeDegrees>42.04443206079304218292236328125</LatitudeDegrees>
              <LongitudeDegrees>-2.7875339984893798828125</LongitudeDegrees>
            </Position>
            <AltitudeMeters>1706.4000244140625</AltitudeMeters>
            <DistanceMeters>208922.43322785</DistanceMeters>
          </Trackpoint>
          <Trackpoint>
            <Time>2021-07-29T12:43:49.000Z</Time>
            <Position>
              <LatitudeDegrees>42.04454161226749420166015625</LatitudeDegrees>
              <LongitudeDegrees>-2.78763315640389919281005859375</LongitudeDegrees>
            </Position>
            <AltitudeMeters>1705.199951171875</AltitudeMeters>
            <DistanceMeters>208937.12523069</DistanceMeters>
          </Trackpoint>
          <Trackpoint>
            <Time>2021-07-29T12:43:51.000Z</Time>
            <Position>
              <LatitudeDegrees>42.0447583682835102081298828125</LatitudeDegrees>
              <LongitudeDegrees>-2.78784404508769512176513671875</LongitudeDegrees>
            </Position>
            <AltitudeMeters>1703.5999755859375</AltitudeMeters>
            <DistanceMeters>208966.88907821</DistanceMeters>
          </Trackpoint>
          <Trackpoint>
            <Time>2021-07-29T12:43:53.000Z</Time>
            <Position>
              <LatitudeDegrees>42.04497721977531909942626953125</LatitudeDegrees>
              <LongitudeDegrees>-2.78806482441723346710205078125</LongitudeDegrees>
            </Position>
            <AltitudeMeters>1702</AltitudeMeters>
            <DistanceMeters>208997.32523142</DistanceMeters>
          </Trackpoint>
          <Trackpoint>
            <Time>2021-07-29T12:43:54.000Z</Time>
            <Position>
              <LatitudeDegrees>42.04508635215461254119873046875</LatitudeDegrees>
              <LongitudeDegrees>-2.788174040615558624267578125</LongitudeDegrees>
            </Position>
            <AltitudeMeters>1700.800048828125</AltitudeMeters>
            <DistanceMeters>209012.45926125</DistanceMeters>
          </Trackpoint>
          <Trackpoint>
            <Time>2021-07-29T12:43:56.000Z</Time>
            <Position>
              <LatitudeDegrees>42.0452891103923320770263671875</LatitudeDegrees>
              <LongitudeDegrees>-2.7883740328252315521240234375</LongitudeDegrees>
            </Position>
            <AltitudeMeters>1699.5999755859375</AltitudeMeters>
            <DistanceMeters>209040.4329697</DistanceMeters>
          </Trackpoint>
          <Trackpoint>
            <Time>2021-07-29T12:44:02.000Z</Time>
            <Position>
              <LatitudeDegrees>42.0458138175308704376220703125</LatitudeDegrees>
              <LongitudeDegrees>-2.7887867577373981475830078125</LongitudeDegrees>
            </Position>
            <AltitudeMeters>1699.4000244140625</AltitudeMeters>
            <DistanceMeters>209108.0672949</DistanceMeters>
          </Trackpoint>
          <Trackpoint>
            <Time>2021-07-29T12:44:03.000Z</Time>
            <Position>
              <LatitudeDegrees>42.0459019951522350311279296875</LatitudeDegrees>
              <LongitudeDegrees>-2.78883344493806362152099609375</LongitudeDegrees>
            </Position>
            <AltitudeMeters>1699</AltitudeMeters>
            <DistanceMeters>209118.61311973</DistanceMeters>
          </Trackpoint>
          <Trackpoint>
            <Time>2021-07-29T12:44:04.000Z</Time>
            <Position>
              <LatitudeDegrees>42.04599327407777309417724609375</LatitudeDegrees>
              <LongitudeDegrees>-2.78886244632303714752197265625</LongitudeDegrees>
            </Position>
            <AltitudeMeters>1698.199951171875</AltitudeMeters>
            <DistanceMeters>209129.05136204</DistanceMeters>
          </Trackpoint>
          <Trackpoint>
            <Time>2021-07-29T12:44:05.000Z</Time>
            <Position>
              <LatitudeDegrees>42.0460877381265163421630859375</LatitudeDegrees>
              <LongitudeDegrees>-2.7888662181794643402099609375</LongitudeDegrees>
            </Position>
            <AltitudeMeters>1697</AltitudeMeters>
            <DistanceMeters>209139.56975053</DistanceMeters>
          </Trackpoint>
          <Trackpoint>
            <Time>2021-07-29T12:44:07.000Z</Time>
            <Position>
              <LatitudeDegrees>42.04627255909144878387451171875</LatitudeDegrees>
              <LongitudeDegrees>-2.7888065390288829803466796875</LongitudeDegrees>
            </Position>
            <AltitudeMeters>1695.800048828125</AltitudeMeters>
            <DistanceMeters>209160.72381559</DistanceMeters>
          </Trackpoint>
          <Trackpoint>
            <Time>2021-07-29T12:44:11.000Z</Time>
            <Position>
              <LatitudeDegrees>42.04657548107206821441650390625</LatitudeDegrees>
              <LongitudeDegrees>-2.78847637586295604705810546875</LongitudeDegrees>
            </Position>
            <AltitudeMeters>1694.5999755859375</AltitudeMeters>
            <DistanceMeters>209204.09952938</DistanceMeters>
          </Trackpoint>
          <Trackpoint>
            <Time>2021-07-29T12:44:13.000Z</Time>
            <Position>
              <LatitudeDegrees>42.0467022992670536041259765625</LatitudeDegrees>
              <LongitudeDegrees>-2.7882667444646358489990234375</LongitudeDegrees>
            </Position>
            <AltitudeMeters>1693.4000244140625</AltitudeMeters>
            <DistanceMeters>209226.44798633</DistanceMeters>
          </Trackpoint>
          <Trackpoint>
            <Time>2021-07-29T12:44:14.000Z</Time>
            <Position>
              <LatitudeDegrees>42.046761810779571533203125</LatitudeDegrees>
              <LongitudeDegrees>-2.7881562709808349609375</LongitudeDegrees>
            </Position>
            <AltitudeMeters>1692.800048828125</AltitudeMeters>
            <DistanceMeters>209237.72858194</DistanceMeters>
          </Trackpoint>
          <Trackpoint>
            <Time>2021-07-29T12:44:17.000Z</Time>
            <Position>
              <LatitudeDegrees>42.046906650066375732421875</LatitudeDegrees>
              <LongitudeDegrees>-2.78779157437384128570556640625</LongitudeDegrees>
            </Position>
            <AltitudeMeters>1692.199951171875</AltitudeMeters>
            <DistanceMeters>209271.91179261</DistanceMeters>
          </Trackpoint>
          <Trackpoint>
            <Time>2021-07-29T12:44:21.000Z</Time>
            <Position>
              <LatitudeDegrees>42.0470273494720458984375</LatitudeDegrees>
              <LongitudeDegrees>-2.7872237004339694976806640625</LongitudeDegrees>
            </Position>
            <AltitudeMeters>1690.5999755859375</AltitudeMeters>
            <DistanceMeters>209320.73259369</DistanceMeters>
          </Trackpoint>
          <Trackpoint>
            <Time>2021-07-29T12:44:23.000Z</Time>
            <Position>
              <LatitudeDegrees>42.047090046107769012451171875</LatitudeDegrees>
              <LongitudeDegrees>-2.78691709041595458984375</LongitudeDegrees>
            </Position>
            <AltitudeMeters>1689.4000244140625</AltitudeMeters>
            <DistanceMeters>209347.01774556</DistanceMeters>
          </Trackpoint>
          <Trackpoint>
            <Time>2021-07-29T12:44:24.000Z</Time>
            <Position>
              <LatitudeDegrees>42.047118879854679107666015625</LatitudeDegrees>
              <LongitudeDegrees>-2.7867574989795684814453125</LongitudeDegrees>
            </Position>
            <AltitudeMeters>1688</AltitudeMeters>
            <DistanceMeters>209360.59293617</DistanceMeters>
          </Trackpoint>
          <Trackpoint>
            <Time>2021-07-29T12:44:25.000Z</Time>
            <Position>
              <LatitudeDegrees>42.047142349183559417724609375</LatitudeDegrees>
              <LongitudeDegrees>-2.7865933813154697418212890625</LongitudeDegrees>
            </Position>
            <AltitudeMeters>1686.5999755859375</AltitudeMeters>
            <DistanceMeters>209374.40649998</DistanceMeters>
          </Trackpoint>
          <Trackpoint>
            <Time>2021-07-29T12:44:27.000Z</Time>
            <Position>
              <LatitudeDegrees>42.04716757871210575103759765625</LatitudeDegrees>
              <LongitudeDegrees>-2.78625282458961009979248046875</LongitudeDegrees>
            </Position>
            <AltitudeMeters>1684.800048828125</AltitudeMeters>
            <DistanceMeters>209402.69399128</DistanceMeters>
          </Trackpoint>
          <Trackpoint>
            <Time>2021-07-29T12:44:28.000Z</Time>
            <Position>
              <LatitudeDegrees>42.0471735298633575439453125</LatitudeDegrees>
              <LongitudeDegrees>-2.7860773913562297821044921875</LongitudeDegrees>
            </Position>
            <AltitudeMeters>1683.199951171875</AltitudeMeters>
            <DistanceMeters>209417.20914693</DistanceMeters>
          </Trackpoint>
          <Trackpoint>
            <Time>2021-07-29T12:44:29.000Z</Time>
            <Position>
              <LatitudeDegrees>42.047179900109767913818359375</LatitudeDegrees>
              <LongitudeDegrees>-2.78590078465640544891357421875</LongitudeDegrees>
            </Position>
            <AltitudeMeters>1681.4000244140625</AltitudeMeters>
            <DistanceMeters>209431.82350179</DistanceMeters>
          </Trackpoint>
          <Trackpoint>
            <Time>2021-07-29T12:44:30.000Z</Time>
            <Position>
              <LatitudeDegrees>42.0471944846212863922119140625</LatitudeDegrees>
              <LongitudeDegrees>-2.78572442941367626190185546875</LongitudeDegrees>
            </Position>
            <AltitudeMeters>1679.4000244140625</AltitudeMeters>
            <DistanceMeters>209446.4899755</DistanceMeters>
          </Trackpoint>
          <Trackpoint>
            <Time>2021-07-29T12:44:31.000Z</Time>
            <Position>
              <LatitudeDegrees>42.0472216419875621795654296875</LatitudeDegrees>
              <LongitudeDegrees>-2.7855505049228668212890625</LongitudeDegrees>
            </Position>
            <AltitudeMeters>1677.4000244140625</AltitudeMeters>
            <DistanceMeters>209461.17951963</DistanceMeters>
          </Trackpoint>
          <Trackpoint>
            <Time>2021-07-29T12:44:32.000Z</Time>
            <Position>
              <LatitudeDegrees>42.04726028256118297576904296875</LatitudeDegrees>
              <LongitudeDegrees>-2.7853806875646114349365234375</LongitudeDegrees>
            </Position>
            <AltitudeMeters>1676.199951171875</AltitudeMeters>
            <DistanceMeters>209475.85922481</DistanceMeters>
          </Trackpoint>
          <Trackpoint>
            <Time>2021-07-29T12:44:34.000Z</Time>
            <Position>
              <LatitudeDegrees>42.04735918901860713958740234375</LatitudeDegrees>
              <LongitudeDegrees>-2.78505085967481136322021484375</LongitudeDegrees>
            </Position>
            <AltitudeMeters>1675.199951171875</AltitudeMeters>
            <DistanceMeters>209505.25889925</DistanceMeters>
          </Trackpoint>
          <Trackpoint>
            <Time>2021-07-29T12:44:36.000Z</Time>
            <Position>
              <LatitudeDegrees>42.04749648459255695343017578125</LatitudeDegrees>
              <LongitudeDegrees>-2.78474114835262298583984375</LongitudeDegrees>
            </Position>
            <AltitudeMeters>1674</AltitudeMeters>
            <DistanceMeters>209535.07124978</DistanceMeters>
          </Trackpoint>
          <Trackpoint>
            <Time>2021-07-29T12:44:38.000Z</Time>
            <Position>
              <LatitudeDegrees>42.047682814300060272216796875</LatitudeDegrees>
              <LongitudeDegrees>-2.78447485528886318206787109375</LongitudeDegrees>
            </Position>
            <AltitudeMeters>1672.4000244140625</AltitudeMeters>
            <DistanceMeters>209565.3122979</DistanceMeters>
          </Trackpoint>
          <Trackpoint>
            <Time>2021-07-29T12:44:41.000Z</Time>
            <Position>
              <LatitudeDegrees>42.048036195337772369384765625</LatitudeDegrees>
              <LongitudeDegrees>-2.7842166088521480560302734375</LongitudeDegrees>
            </Position>
            <AltitudeMeters>1671</AltitudeMeters>
            <DistanceMeters>209610.0626166</DistanceMeters>
          </Trackpoint>
          <Trackpoint>
            <Time>2021-07-29T12:44:43.000Z</Time>
            <Position>
              <LatitudeDegrees>42.04829527996480464935302734375</LatitudeDegrees>
              <LongitudeDegrees>-2.7841450273990631103515625</LongitudeDegrees>
            </Position>
            <AltitudeMeters>1669.5999755859375</AltitudeMeters>
            <DistanceMeters>209639.49973934</DistanceMeters>
          </Trackpoint>
          <Trackpoint>
            <Time>2021-07-29T12:44:46.000Z</Time>
            <Position>
              <LatitudeDegrees>42.0486918278038501739501953125</LatitudeDegrees>
              <LongitudeDegrees>-2.78420311398804187774658203125</LongitudeDegrees>
            </Position>
            <AltitudeMeters>1668</AltitudeMeters>
            <DistanceMeters>209683.89664336</DistanceMeters>
          </Trackpoint>
          <Trackpoint>
            <Time>2021-07-29T12:44:47.000Z</Time>
            <Position>
              <LatitudeDegrees>42.04882166348397731781005859375</LatitudeDegrees>
              <LongitudeDegrees>-2.784268073737621307373046875</LongitudeDegrees>
            </Position>
            <AltitudeMeters>1666.5999755859375</AltitudeMeters>
            <DistanceMeters>209699.31265944</DistanceMeters>
          </Trackpoint>
          <Trackpoint>
            <Time>2021-07-29T12:44:48.000Z</Time>
            <Position>
              <LatitudeDegrees>42.048947475850582122802734375</LatitudeDegrees>
              <LongitudeDegrees>-2.78434610925614833831787109375</LongitudeDegrees>
            </Position>
            <AltitudeMeters>1665.800048828125</AltitudeMeters>
            <DistanceMeters>209714.729847</DistanceMeters>
          </Trackpoint>
          <Trackpoint>
            <Time>2021-07-29T12:44:49.000Z</Time>
            <Position>
              <LatitudeDegrees>42.04907295294106006622314453125</LatitudeDegrees>
              <LongitudeDegrees>-2.78442825190722942352294921875</LongitudeDegrees>
            </Position>
            <AltitudeMeters>1665</AltitudeMeters>
            <DistanceMeters>209730.25821238</DistanceMeters>
          </Trackpoint>
          <Trackpoint>
            <Time>2021-07-29T12:44:50.000Z</Time>
            <Position>
              <LatitudeDegrees>42.0491994358599185943603515625</LatitudeDegrees>
              <LongitudeDegrees>-2.784509472548961639404296875</LongitudeDegrees>
            </Position>
            <AltitudeMeters>1663.5999755859375</AltitudeMeters>
            <DistanceMeters>209745.85417785</DistanceMeters>
          </Trackpoint>
          <Trackpoint>
            <Time>2021-07-29T12:44:51.000Z</Time>
            <Position>
              <LatitudeDegrees>42.04932667315006256103515625</LatitudeDegrees>
              <LongitudeDegrees>-2.78458834625780582427978515625</LongitudeDegrees>
            </Position>
            <AltitudeMeters>1662.199951171875</AltitudeMeters>
            <DistanceMeters>209761.44435224</DistanceMeters>
          </Trackpoint>
          <Trackpoint>
            <Time>2021-07-29T12:44:52.000Z</Time>
            <Position>
              <LatitudeDegrees>42.049453742802143096923828125</LatitudeDegrees>
              <LongitudeDegrees>-2.784665711224079132080078125</LongitudeDegrees>
            </Position>
            <AltitudeMeters>1659.4000244140625</AltitudeMeters>
            <DistanceMeters>209776.96573779</DistanceMeters>
          </Trackpoint>
          <Trackpoint>
            <Time>2021-07-29T12:44:53.000Z</Time>
            <Position>
              <LatitudeDegrees>42.049580477178096771240234375</LatitudeDegrees>
              <LongitudeDegrees>-2.78474114835262298583984375</LongitudeDegrees>
            </Position>
            <AltitudeMeters>1657.5999755859375</AltitudeMeters>
            <DistanceMeters>209792.38790312</DistanceMeters>
          </Trackpoint>
          <Trackpoint>
            <Time>2021-07-29T12:44:55.000Z</Time>
            <Position>
              <LatitudeDegrees>42.04982715658843517303466796875</LatitudeDegrees>
              <LongitudeDegrees>-2.78486964292824268341064453125</LongitudeDegrees>
            </Position>
            <AltitudeMeters>1656</AltitudeMeters>
            <DistanceMeters>209821.82625288</DistanceMeters>
          </Trackpoint>
          <Trackpoint>
            <Time>2021-07-29T12:44:56.000Z</Time>
            <Position>
              <LatitudeDegrees>42.04995003528892993927001953125</LatitudeDegrees>
              <LongitudeDegrees>-2.7849072776734828948974609375</LongitudeDegrees>
            </Position>
            <AltitudeMeters>1655.5999755859375</AltitudeMeters>
            <DistanceMeters>209835.85195127</DistanceMeters>
          </Trackpoint>
          <Trackpoint>
            <Time>2021-07-29T12:44:58.000Z</Time>
            <Position>
              <LatitudeDegrees>42.05020199529826641082763671875</LatitudeDegrees>
              <LongitudeDegrees>-2.78493066318333148956298828125</LongitudeDegrees>
            </Position>
            <AltitudeMeters>1654.800048828125</AltitudeMeters>
            <DistanceMeters>209863.96219619</DistanceMeters>
          </Trackpoint>
          <Trackpoint>
            <Time>2021-07-29T12:45:00.000Z</Time>
            <Position>
              <LatitudeDegrees>42.05045454204082489013671875</LatitudeDegrees>
              <LongitudeDegrees>-2.78492085635662078857421875</LongitudeDegrees>
            </Position>
            <AltitudeMeters>1653.5999755859375</AltitudeMeters>
            <DistanceMeters>209892.0828794</DistanceMeters>
          </Trackpoint>
          <Trackpoint>
            <Time>2021-07-29T12:45:01.000Z</Time>
            <Position>
              <LatitudeDegrees>42.05058186315000057220458984375</LatitudeDegrees>
              <LongitudeDegrees>-2.784917838871479034423828125</LongitudeDegrees>
            </Position>
            <AltitudeMeters>1652.4000244140625</AltitudeMeters>
            <DistanceMeters>209906.25620225</DistanceMeters>
          </Trackpoint>
          <Trackpoint>
            <Time>2021-07-29T12:45:02.000Z</Time>
            <Position>
              <LatitudeDegrees>42.0507081784307956695556640625</LatitudeDegrees>
              <LongitudeDegrees>-2.7849304117262363433837890625</LongitudeDegrees>
            </Position>
            <AltitudeMeters>1651.199951171875</AltitudeMeters>
            <DistanceMeters>209920.3535042</DistanceMeters>
          </Trackpoint>
          <Trackpoint>
            <Time>2021-07-29T12:45:04.000Z</Time>
            <Position>
              <LatitudeDegrees>42.05095167271792888641357421875</LatitudeDegrees>
              <LongitudeDegrees>-2.7850125543773174285888671875</LongitudeDegrees>
            </Position>
            <AltitudeMeters>1649.4000244140625</AltitudeMeters>
            <DistanceMeters>209948.29232787</DistanceMeters>
          </Trackpoint>
          <Trackpoint>
            <Time>2021-07-29T12:45:06.000Z</Time>
            <Position>
              <LatitudeDegrees>42.051177732646465301513671875</LatitudeDegrees>
              <LongitudeDegrees>-2.78515152633190155029296875</LongitudeDegrees>
            </Position>
            <AltitudeMeters>1648.4000244140625</AltitudeMeters>
            <DistanceMeters>209975.95065258</DistanceMeters>
          </Trackpoint>
          <Trackpoint>
            <Time>2021-07-29T12:45:09.000Z</Time>
            <Position>
              <LatitudeDegrees>42.05151611007750034332275390625</LatitudeDegrees>
              <LongitudeDegrees>-2.78534808196127414703369140625</LongitudeDegrees>
            </Position>
            <AltitudeMeters>1647</AltitudeMeters>
            <DistanceMeters>210016.96665277</DistanceMeters>
          </Trackpoint>
          <Trackpoint>
            <Time>2021-07-29T12:45:14.000Z</Time>
            <Position>
              <LatitudeDegrees>42.052115164697170257568359375</LatitudeDegrees>
              <LongitudeDegrees>-2.78534020297229290008544921875</LongitudeDegrees>
            </Position>
            <AltitudeMeters>1646.199951171875</AltitudeMeters>
            <DistanceMeters>210083.64575458</DistanceMeters>
          </Trackpoint>
          <Trackpoint>
            <Time>2021-07-29T12:45:16.000Z</Time>
            <Position>
              <LatitudeDegrees>42.05234440974891185760498046875</LatitudeDegrees>
              <LongitudeDegrees>-2.78522302396595478057861328125</LongitudeDegrees>
            </Position>
            <AltitudeMeters>1646</AltitudeMeters>
            <DistanceMeters>210110.93712255</DistanceMeters>
          </Trackpoint>
          <Trackpoint>
            <Time>2021-07-29T12:45:18.000Z</Time>
            <Position>
              <LatitudeDegrees>42.05256015993654727935791015625</LatitudeDegrees>
              <LongitudeDegrees>-2.78511707670986652374267578125</LongitudeDegrees>
            </Position>
            <AltitudeMeters>1645.199951171875</AltitudeMeters>
            <DistanceMeters>210136.49701242</DistanceMeters>
          </Trackpoint>
          <Trackpoint>
            <Time>2021-07-29T12:45:19.000Z</Time>
            <Position>
              <LatitudeDegrees>42.05266895703971385955810546875</LatitudeDegrees>
              <LongitudeDegrees>-2.7850930206477642059326171875</LongitudeDegrees>
            </Position>
            <AltitudeMeters>1644.5999755859375</AltitudeMeters>
            <DistanceMeters>210148.76834303</DistanceMeters>
          </Trackpoint>
          <Trackpoint>
            <Time>2021-07-29T12:45:21.000Z</Time>
            <Position>
              <LatitudeDegrees>42.0528866350650787353515625</LatitudeDegrees>
              <LongitudeDegrees>-2.78512202203273773193359375</LongitudeDegrees>
            </Position>
            <AltitudeMeters>1643.199951171875</AltitudeMeters>
            <DistanceMeters>210173.11466201</DistanceMeters>
          </Trackpoint>
          <Trackpoint>
            <Time>2021-07-29T12:45:22.000Z</Time>
            <Position>
              <LatitudeDegrees>42.052985541522502899169921875</LatitudeDegrees>
              <LongitudeDegrees>-2.78517625294625759124755859375</LongitudeDegrees>
            </Position>
            <AltitudeMeters>1641.5999755859375</AltitudeMeters>
            <DistanceMeters>210185.00098087</DistanceMeters>
          </Trackpoint>
          <Trackpoint>
            <Time>2021-07-29T12:45:23.000Z</Time>
            <Position>
              <LatitudeDegrees>42.05307648517191410064697265625</LatitudeDegrees>
              <LongitudeDegrees>-2.78525453992187976837158203125</LongitudeDegrees>
            </Position>
            <AltitudeMeters>1639.4000244140625</AltitudeMeters>
            <DistanceMeters>210197.01425193</DistanceMeters>
          </Trackpoint>
          <Trackpoint>
            <Time>2021-07-29T12:45:24.000Z</Time>
            <Position>
              <LatitudeDegrees>42.05315829254686832427978515625</LatitudeDegrees>
              <LongitudeDegrees>-2.785353697836399078369140625</LongitudeDegrees>
            </Position>
            <AltitudeMeters>1638</AltitudeMeters>
            <DistanceMeters>210209.26422379</DistanceMeters>
          </Trackpoint>
          <Trackpoint>
            <Time>2021-07-29T12:45:25.000Z</Time>
            <Position>
              <LatitudeDegrees>42.05322660505771636962890625</LatitudeDegrees>
              <LongitudeDegrees>-2.78546878136694431304931640625</LongitudeDegrees>
            </Position>
            <AltitudeMeters>1636.800048828125</AltitudeMeters>
            <DistanceMeters>210221.44062823</DistanceMeters>
          </Trackpoint>
          <Trackpoint>
            <Time>2021-07-29T12:45:27.000Z</Time>
            <Position>
              <LatitudeDegrees>42.0533131062984466552734375</LatitudeDegrees>
              <LongitudeDegrees>-2.78573197312653064727783203125</LongitudeDegrees>
            </Position>
            <AltitudeMeters>1635.4000244140625</AltitudeMeters>
            <DistanceMeters>210245.22769593</DistanceMeters>
          </Trackpoint>
          <Trackpoint>
            <Time>2021-07-29T12:45:31.000Z</Time>
            <Position>
              <LatitudeDegrees>42.053307406604290008544921875</LatitudeDegrees>
              <LongitudeDegrees>-2.7863140963017940521240234375</LongitudeDegrees>
            </Position>
            <AltitudeMeters>1633.800048828125</AltitudeMeters>
            <DistanceMeters>210293.34106431</DistanceMeters>
          </Trackpoint>
          <Trackpoint>
            <Time>2021-07-29T12:45:33.000Z</Time>
            <Position>
              <LatitudeDegrees>42.05326977185904979705810546875</LatitudeDegrees>
              <LongitudeDegrees>-2.7866098098456859588623046875</LongitudeDegrees>
            </Position>
            <AltitudeMeters>1632.199951171875</AltitudeMeters>
            <DistanceMeters>210318.13630024</DistanceMeters>
          </Trackpoint>
          <Trackpoint>
            <Time>2021-07-29T12:45:34.000Z</Time>
            <Position>
              <LatitudeDegrees>42.0532519184052944183349609375</LatitudeDegrees>
              <LongitudeDegrees>-2.7867600135505199432373046875</LongitudeDegrees>
            </Position>
            <AltitudeMeters>1631.4000244140625</AltitudeMeters>
            <DistanceMeters>210330.70787126</DistanceMeters>
          </Trackpoint>
          <Trackpoint>
            <Time>2021-07-29T12:45:35.000Z</Time>
            <Position>
              <LatitudeDegrees>42.05323708243668079376220703125</LatitudeDegrees>
              <LongitudeDegrees>-2.7869118936359882354736328125</LongitudeDegrees>
            </Position>
            <AltitudeMeters>1630.199951171875</AltitudeMeters>
            <DistanceMeters>210343.36819735</DistanceMeters>
          </Trackpoint>
          <Trackpoint>
            <Time>2021-07-29T12:45:36.000Z</Time>
            <Position>
              <LatitudeDegrees>42.0532224141061305999755859375</LatitudeDegrees>
              <LongitudeDegrees>-2.78706452809274196624755859375</LongitudeDegrees>
            </Position>
            <AltitudeMeters>1629</AltitudeMeters>
            <DistanceMeters>210356.0872311</DistanceMeters>
          </Trackpoint>
          <Trackpoint>
            <Time>2021-07-29T12:45:38.000Z</Time>
            <Position>
              <LatitudeDegrees>42.05318863503634929656982421875</LatitudeDegrees>
              <LongitudeDegrees>-2.78736711479723453521728515625</LongitudeDegrees>
            </Position>
            <AltitudeMeters>1626.5999755859375</AltitudeMeters>
            <DistanceMeters>210381.37505215</DistanceMeters>
          </Trackpoint>
          <Trackpoint>
            <Time>2021-07-29T12:45:40.000Z</Time>
            <Position>
              <LatitudeDegrees>42.0531510002911090850830078125</LatitudeDegrees>
              <LongitudeDegrees>-2.7876696176826953887939453125</LongitudeDegrees>
            </Position>
            <AltitudeMeters>1625.4000244140625</AltitudeMeters>
            <DistanceMeters>210406.72350614</DistanceMeters>
          </Trackpoint>
          <Trackpoint>
            <Time>2021-07-29T12:45:42.000Z</Time>
            <Position>
              <LatitudeDegrees>42.05310498364269733428955078125</LatitudeDegrees>
              <LongitudeDegrees>-2.78796457685530185699462890625</LongitudeDegrees>
            </Position>
            <AltitudeMeters>1623.5999755859375</AltitudeMeters>
            <DistanceMeters>210431.63229018</DistanceMeters>
          </Trackpoint>
          <Trackpoint>
            <Time>2021-07-29T12:45:43.000Z</Time>
            <Position>
              <LatitudeDegrees>42.0530755631625652313232421875</LatitudeDegrees>
              <LongitudeDegrees>-2.788104973733425140380859375</LongitudeDegrees>
            </Position>
            <AltitudeMeters>1622</AltitudeMeters>
            <DistanceMeters>210443.68833059</DistanceMeters>
          </Trackpoint>
          <Trackpoint>
            <Time>2021-07-29T12:45:45.000Z</Time>
            <Position>
              <LatitudeDegrees>42.05301026813685894012451171875</LatitudeDegrees>
              <LongitudeDegrees>-2.78837227262556552886962890625</LongitudeDegrees>
            </Position>
            <AltitudeMeters>1620.800048828125</AltitudeMeters>
            <DistanceMeters>210466.9438742</DistanceMeters>
          </Trackpoint>
          <Trackpoint>
            <Time>2021-07-29T12:45:48.000Z</Time>
            <Position>
              <LatitudeDegrees>42.05288940109312534332275390625</LatitudeDegrees>
              <LongitudeDegrees>-2.7887515537440776824951171875</LongitudeDegrees>
            </Position>
            <AltitudeMeters>1622.199951171875</AltitudeMeters>
            <DistanceMeters>210501.05436158</DistanceMeters>
          </Trackpoint>
          <Trackpoint>
            <Time>2021-07-29T12:45:54.000Z</Time>
            <Position>
              <LatitudeDegrees>42.0525957830250263214111328125</LatitudeDegrees>
              <LongitudeDegrees>-2.78946527279913425445556640625</LongitudeDegrees>
            </Position>
            <AltitudeMeters>1622.199951171875</AltitudeMeters>
            <DistanceMeters>210568.48771783</DistanceMeters>
          </Trackpoint>
          <Trackpoint>
            <Time>2021-07-29T12:45:55.000Z</Time>
            <Position>
              <LatitudeDegrees>42.05255362205207347869873046875</LatitudeDegrees>
              <LongitudeDegrees>-2.7895870618522167205810546875</LongitudeDegrees>
            </Position>
            <AltitudeMeters>1622</AltitudeMeters>
            <DistanceMeters>210579.5928407</DistanceMeters>
          </Trackpoint>
          <Trackpoint>
            <Time>2021-07-29T12:45:57.000Z</Time>
            <Position>
              <LatitudeDegrees>42.05250953324139118194580078125</LatitudeDegrees>
              <LongitudeDegrees>-2.7898515947163105010986328125</LongitudeDegrees>
            </Position>
            <AltitudeMeters>1621</AltitudeMeters>
            <DistanceMeters>210601.99920498</DistanceMeters>
          </Trackpoint>
          <Trackpoint>
            <Time>2021-07-29T12:45:59.000Z</Time>
            <Position>
              <LatitudeDegrees>42.0525236986577510833740234375</LatitudeDegrees>
              <LongitudeDegrees>-2.79012593440711498260498046875</LongitudeDegrees>
            </Position>
            <AltitudeMeters>1619.800048828125</AltitudeMeters>
            <DistanceMeters>210624.72668686</DistanceMeters>
          </Trackpoint>
          <Trackpoint>
            <Time>2021-07-29T12:46:00.000Z</Time>
            <Position>
              <LatitudeDegrees>42.0525438152253627777099609375</LatitudeDegrees>
              <LongitudeDegrees>-2.79026457108557224273681640625</LongitudeDegrees>
            </Position>
            <AltitudeMeters>1619.199951171875</AltitudeMeters>
            <DistanceMeters>210636.40144484</DistanceMeters>
          </Trackpoint>
          <Trackpoint>
            <Time>2021-07-29T12:46:02.000Z</Time>
            <Position>
              <LatitudeDegrees>42.0525917597115039825439453125</LatitudeDegrees>
              <LongitudeDegrees>-2.79054553247988224029541015625</LongitudeDegrees>
            </Position>
            <AltitudeMeters>1618.5999755859375</AltitudeMeters>
            <DistanceMeters>210660.22682344</DistanceMeters>
          </Trackpoint>
          <Trackpoint>
            <Time>2021-07-29T12:46:04.000Z</Time>
            <Position>
              <LatitudeDegrees>42.05263962037861347198486328125</LatitudeDegrees>
              <LongitudeDegrees>-2.7908138372004032135009765625</LongitudeDegrees>
            </Position>
            <AltitudeMeters>1616.800048828125</AltitudeMeters>
            <DistanceMeters>210683.03165105</DistanceMeters>
          </Trackpoint>
          <Trackpoint>
            <Time>2021-07-29T12:46:05.000Z</Time>
            <Position>
              <LatitudeDegrees>42.0526628382503986358642578125</LatitudeDegrees>
              <LongitudeDegrees>-2.79093545861542224884033203125</LongitudeDegrees>
            </Position>
            <AltitudeMeters>1615.800048828125</AltitudeMeters>
            <DistanceMeters>210693.41003011</DistanceMeters>
          </Trackpoint>
          <Trackpoint>
            <Time>2021-07-29T12:46:06.000Z</Time>
            <Position>
              <LatitudeDegrees>42.05269460566341876983642578125</LatitudeDegrees>
              <LongitudeDegrees>-2.791047357022762298583984375</LongitudeDegrees>
            </Position>
            <AltitudeMeters>1615</AltitudeMeters>
            <DistanceMeters>210703.31106591</DistanceMeters>
          </Trackpoint>
          <Trackpoint>
            <Time>2021-07-29T12:46:07.000Z</Time>
            <Position>
              <LatitudeDegrees>42.0527406223118305206298828125</LatitudeDegrees>
              <LongitudeDegrees>-2.7911494486033916473388671875</LongitudeDegrees>
            </Position>
            <AltitudeMeters>1614.5999755859375</AltitudeMeters>
            <DistanceMeters>210713.1815013</DistanceMeters>
          </Trackpoint>
          <Trackpoint>
            <Time>2021-07-29T12:46:10.000Z</Time>
            <Position>
              <LatitudeDegrees>42.05295997671782970428466796875</LatitudeDegrees>
              <LongitudeDegrees>-2.79136620461940765380859375</LongitudeDegrees>
            </Position>
            <AltitudeMeters>1613.199951171875</AltitudeMeters>
            <DistanceMeters>210743.46298314</DistanceMeters>
          </Trackpoint>
          <Trackpoint>
            <Time>2021-07-29T12:46:12.000Z</Time>
            <Position>
              <LatitudeDegrees>42.05315058119595050811767578125</LatitudeDegrees>
              <LongitudeDegrees>-2.791398726403713226318359375</LongitudeDegrees>
            </Position>
            <AltitudeMeters>1612</AltitudeMeters>
            <DistanceMeters>210764.84737233</DistanceMeters>
          </Trackpoint>
          <Trackpoint>
            <Time>2021-07-29T12:46:13.000Z</Time>
            <Position>
              <LatitudeDegrees>42.05324982292950153350830078125</LatitudeDegrees>
              <LongitudeDegrees>-2.79137450270354747772216796875</LongitudeDegrees>
            </Position>
            <AltitudeMeters>1610.5999755859375</AltitudeMeters>
            <DistanceMeters>210776.07300001</DistanceMeters>
          </Trackpoint>
          <Trackpoint>
            <Time>2021-07-29T12:46:14.000Z</Time>
            <Position>
              <LatitudeDegrees>42.05334571190178394317626953125</LatitudeDegrees>
              <LongitudeDegrees>-2.79132572002708911895751953125</LongitudeDegrees>
            </Position>
            <AltitudeMeters>1609.5999755859375</AltitudeMeters>
            <DistanceMeters>210787.48174761</DistanceMeters>
          </Trackpoint>
          <Trackpoint>
            <Time>2021-07-29T12:46:16.000Z</Time>
            <Position>
              <LatitudeDegrees>42.05352894030511379241943359375</LatitudeDegrees>
              <LongitudeDegrees>-2.7911759354174137115478515625</LongitudeDegrees>
            </Position>
            <AltitudeMeters>1608.199951171875</AltitudeMeters>
            <DistanceMeters>210811.33856337</DistanceMeters>
          </Trackpoint>
          <Trackpoint>
            <Time>2021-07-29T12:46:17.000Z</Time>
            <Position>
              <LatitudeDegrees>42.05361980013549327850341796875</LatitudeDegrees>
              <LongitudeDegrees>-2.7910901047289371490478515625</LongitudeDegrees>
            </Position>
            <AltitudeMeters>1607.800048828125</AltitudeMeters>
            <DistanceMeters>210823.69130524</DistanceMeters>
          </Trackpoint>
          <Trackpoint>
            <Time>2021-07-29T12:46:19.000Z</Time>
            <Position>
              <LatitudeDegrees>42.0538145117461681365966796875</LatitudeDegrees>
              <LongitudeDegrees>-2.79093344695866107940673828125</LongitudeDegrees>
            </Position>
            <AltitudeMeters>1606.199951171875</AltitudeMeters>
            <DistanceMeters>210848.93588119</DistanceMeters>
          </Trackpoint>
          <Trackpoint>
            <Time>2021-07-29T12:46:20.000Z</Time>
            <Position>
              <LatitudeDegrees>42.05392221920192241668701171875</LatitudeDegrees>
              <LongitudeDegrees>-2.79087603092193603515625</LongitudeDegrees>
            </Position>
            <AltitudeMeters>1605.4000244140625</AltitudeMeters>
            <DistanceMeters>210861.82908395</DistanceMeters>
          </Trackpoint>
          <Trackpoint>
            <Time>2021-07-29T12:46:21.000Z</Time>
            <Position>
              <LatitudeDegrees>42.0540364645421504974365234375</LatitudeDegrees>
              <LongitudeDegrees>-2.79083940200507640838623046875</LongitudeDegrees>
            </Position>
            <AltitudeMeters>1604.4000244140625</AltitudeMeters>
            <DistanceMeters>210874.90000765</DistanceMeters>
          </Trackpoint>
          <Trackpoint>
            <Time>2021-07-29T12:46:22.000Z</Time>
            <Position>
              <LatitudeDegrees>42.05415540374815464019775390625</LatitudeDegrees>
              <LongitudeDegrees>-2.7908237278461456298828125</LongitudeDegrees>
            </Position>
            <AltitudeMeters>1602.199951171875</AltitudeMeters>
            <DistanceMeters>210888.20137178</DistanceMeters>
          </Trackpoint>
          <Trackpoint>
            <Time>2021-07-29T12:46:23.000Z</Time>
            <Position>
              <LatitudeDegrees>42.05427610315382480621337890625</LatitudeDegrees>
              <LongitudeDegrees>-2.79082247056066989898681640625</LongitudeDegrees>
            </Position>
            <AltitudeMeters>1600.4000244140625</AltitudeMeters>
            <DistanceMeters>210901.63614636</DistanceMeters>
          </Trackpoint>
          <Trackpoint>
            <Time>2021-07-29T12:46:24.000Z</Time>
            <Position>
              <LatitudeDegrees>42.05439864657819271087646484375</LatitudeDegrees>
              <LongitudeDegrees>-2.7908259071409702301025390625</LongitudeDegrees>
            </Position>
            <AltitudeMeters>1599.199951171875</AltitudeMeters>
            <DistanceMeters>210915.27835569</DistanceMeters>
          </Trackpoint>
          <Trackpoint>
            <Time>2021-07-29T12:46:25.000Z</Time>
            <Position>
              <LatitudeDegrees>42.0545222796499729156494140625</LatitudeDegrees>
              <LongitudeDegrees>-2.79082448221743106842041015625</LongitudeDegrees>
            </Position>
            <AltitudeMeters>1598</AltitudeMeters>
            <DistanceMeters>210929.03985136</DistanceMeters>
          </Trackpoint>
          <Trackpoint>
            <Time>2021-07-29T12:46:26.000Z</Time>
            <Position>
              <LatitudeDegrees>42.054647170007228851318359375</LatitudeDegrees>
              <LongitudeDegrees>-2.79081442393362522125244140625</LongitudeDegrees>
            </Position>
            <AltitudeMeters>1596.800048828125</AltitudeMeters>
            <DistanceMeters>210942.96572375</DistanceMeters>
          </Trackpoint>
          <Trackpoint>
            <Time>2021-07-29T12:46:28.000Z</Time>
            <Position>
              <LatitudeDegrees>42.05489787273108959197998046875</LatitudeDegrees>
              <LongitudeDegrees>-2.7907628752291202545166015625</LongitudeDegrees>
            </Position>
            <AltitudeMeters>1595.800048828125</AltitudeMeters>
            <DistanceMeters>210971.19281703</DistanceMeters>
          </Trackpoint>
          <Trackpoint>
            <Time>2021-07-29T12:46:31.000Z</Time>
            <Position>
              <LatitudeDegrees>42.05526801757514476776123046875</LatitudeDegrees>
              <LongitudeDegrees>-2.79060554690659046173095703125</LongitudeDegrees>
            </Position>
            <AltitudeMeters>1594.5999755859375</AltitudeMeters>
            <DistanceMeters>211014.39372141</DistanceMeters>
          </Trackpoint>
          <Trackpoint>
            <Time>2021-07-29T12:46:33.000Z</Time>
            <Position>
              <LatitudeDegrees>42.05551327206194400787353515625</LatitudeDegrees>
              <LongitudeDegrees>-2.790473364293575286865234375</LongitudeDegrees>
            </Position>
            <AltitudeMeters>1593.199951171875</AltitudeMeters>
            <DistanceMeters>211043.79554581</DistanceMeters>
          </Trackpoint>
          <Trackpoint>
            <Time>2021-07-29T12:46:34.000Z</Time>
            <Position>
              <LatitudeDegrees>42.05563656985759735107421875</LatitudeDegrees>
              <LongitudeDegrees>-2.7904048003256320953369140625</LongitudeDegrees>
            </Position>
            <AltitudeMeters>1591.800048828125</AltitudeMeters>
            <DistanceMeters>211058.64253864</DistanceMeters>
          </Trackpoint>
          <Trackpoint>
            <Time>2021-07-29T12:46:35.000Z</Time>
            <Position>
              <LatitudeDegrees>42.05575995147228240966796875</LatitudeDegrees>
              <LongitudeDegrees>-2.79033514671027660369873046875</LongitudeDegrees>
            </Position>
            <AltitudeMeters>1590.5999755859375</AltitudeMeters>
            <DistanceMeters>211073.53234847</DistanceMeters>
          </Trackpoint>
          <Trackpoint>
            <Time>2021-07-29T12:46:36.000Z</Time>
            <Position>
              <LatitudeDegrees>42.0558824948966503143310546875</LatitudeDegrees>
              <LongitudeDegrees>-2.79026138596236705780029296875</LongitudeDegrees>
            </Position>
            <AltitudeMeters>1589</AltitudeMeters>
            <DistanceMeters>211088.47180527</DistanceMeters>
          </Trackpoint>
          <Trackpoint>
            <Time>2021-07-29T12:46:37.000Z</Time>
            <Position>
              <LatitudeDegrees>42.0559998415410518646240234375</LatitudeDegrees>
              <LongitudeDegrees>-2.79017555527389049530029296875</LongitudeDegrees>
            </Position>
            <AltitudeMeters>1587.4000244140625</AltitudeMeters>
            <DistanceMeters>211103.33429934</DistanceMeters>
          </Trackpoint>
          <Trackpoint>
            <Time>2021-07-29T12:46:39.000Z</Time>
            <Position>
              <LatitudeDegrees>42.056203186511993408203125</LatitudeDegrees>
              <LongitudeDegrees>-2.78994237072765827178955078125</LongitudeDegrees>
            </Position>
            <AltitudeMeters>1585.800048828125</AltitudeMeters>
            <DistanceMeters>211133.05959127</DistanceMeters>
          </Trackpoint>
          <Trackpoint>
            <Time>2021-07-29T12:46:41.000Z</Time>
            <Position>
              <LatitudeDegrees>42.0563491992652416229248046875</LatitudeDegrees>
              <LongitudeDegrees>-2.78963944874703884124755859375</LongitudeDegrees>
            </Position>
            <AltitudeMeters>1584.5999755859375</AltitudeMeters>
            <DistanceMeters>211162.90569572</DistanceMeters>
          </Trackpoint>
          <Trackpoint>
            <Time>2021-07-29T12:46:42.000Z</Time>
            <Position>
              <LatitudeDegrees>42.05640745349228382110595703125</LatitudeDegrees>
              <LongitudeDegrees>-2.78948036022484302520751953125</LongitudeDegrees>
            </Position>
            <AltitudeMeters>1584.199951171875</AltitudeMeters>
            <DistanceMeters>211177.56447121</DistanceMeters>
          </Trackpoint>
          <Trackpoint>
            <Time>2021-07-29T12:46:44.000Z</Time>
            <Position>
              <LatitudeDegrees>42.05652681179344654083251953125</LatitudeDegrees>
              <LongitudeDegrees>-2.78919386677443981170654296875</LongitudeDegrees>
            </Position>
            <AltitudeMeters>1584.199951171875</AltitudeMeters>
            <DistanceMeters>211204.71285679</DistanceMeters>
          </Trackpoint>
          <Trackpoint>
            <Time>2021-07-29T12:46:49.000Z</Time>
            <Position>
              <LatitudeDegrees>42.05700759775936603546142578125</LatitudeDegrees>
              <LongitudeDegrees>-2.78880192898213863372802734375</LongitudeDegrees>
            </Position>
            <AltitudeMeters>1583.199951171875</AltitudeMeters>
            <DistanceMeters>211267.26425919</DistanceMeters>
          </Trackpoint>
          <Trackpoint>
            <Time>2021-07-29T12:46:51.000Z</Time>
            <Position>
              <LatitudeDegrees>42.05724312923848628997802734375</LatitudeDegrees>
              <LongitudeDegrees>-2.78880695812404155731201171875</LongitudeDegrees>
            </Position>
            <AltitudeMeters>1582.199951171875</AltitudeMeters>
            <DistanceMeters>211293.48267904</DistanceMeters>
          </Trackpoint>
          <Trackpoint>
            <Time>2021-07-29T12:46:52.000Z</Time>
            <Position>
              <LatitudeDegrees>42.0573593862354755401611328125</LatitudeDegrees>
              <LongitudeDegrees>-2.7888269908726215362548828125</LongitudeDegrees>
            </Position>
            <AltitudeMeters>1581.800048828125</AltitudeMeters>
            <DistanceMeters>211306.52801616</DistanceMeters>
          </Trackpoint>
          <Trackpoint>
            <Time>2021-07-29T12:46:57.000Z</Time>
            <Position>
              <LatitudeDegrees>42.0579209737479686737060546875</LatitudeDegrees>
              <LongitudeDegrees>-2.78890519402921199798583984375</LongitudeDegrees>
            </Position>
            <AltitudeMeters>1581.5999755859375</AltitudeMeters>
            <DistanceMeters>211369.36697731</DistanceMeters>
          </Trackpoint>
          <Trackpoint>
            <Time>2021-07-29T12:47:01.000Z</Time>
            <Position>
              <LatitudeDegrees>42.0583507977426052093505859375</LatitudeDegrees>
              <LongitudeDegrees>-2.78900594450533390045166015625</LongitudeDegrees>
            </Position>
            <AltitudeMeters>1581.199951171875</AltitudeMeters>
            <DistanceMeters>211417.92627922</DistanceMeters>
          </Trackpoint>
          <Trackpoint>
            <Time>2021-07-29T12:47:02.000Z</Time>
            <Position>
              <LatitudeDegrees>42.0584570802748203277587890625</LatitudeDegrees>
              <LongitudeDegrees>-2.7890227921307086944580078125</LongitudeDegrees>
            </Position>
            <AltitudeMeters>1580.800048828125</AltitudeMeters>
            <DistanceMeters>211429.83726285</DistanceMeters>
          </Trackpoint>
          <Trackpoint>
            <Time>2021-07-29T12:47:04.000Z</Time>
            <Position>
              <LatitudeDegrees>42.05866386182606220245361328125</LatitudeDegrees>
              <LongitudeDegrees>-2.78898783959448337554931640625</LongitudeDegrees>
            </Position>
            <AltitudeMeters>1580.199951171875</AltitudeMeters>
            <DistanceMeters>211453.03312616</DistanceMeters>
          </Trackpoint>
          <Trackpoint>
            <Time>2021-07-29T12:47:06.000Z</Time>
            <Position>
              <LatitudeDegrees>42.05884289927780628204345703125</LatitudeDegrees>
              <LongitudeDegrees>-2.7888635359704494476318359375</LongitudeDegrees>
            </Position>
            <AltitudeMeters>1579</AltitudeMeters>
            <DistanceMeters>211475.45218178</DistanceMeters>
          </Trackpoint>
          <Trackpoint>
            <Time>2021-07-29T12:47:09.000Z</Time>
            <Position>
              <LatitudeDegrees>42.0589938573539257049560546875</LatitudeDegrees>
              <LongitudeDegrees>-2.78854544274508953094482421875</LongitudeDegrees>
            </Position>
            <AltitudeMeters>1577.4000244140625</AltitudeMeters>
            <DistanceMeters>211506.6493233</DistanceMeters>
          </Trackpoint>
          <Trackpoint>
            <Time>2021-07-29T12:47:13.000Z</Time>
            <Position>
              <LatitudeDegrees>42.05895178020000457763671875</LatitudeDegrees>
              <LongitudeDegrees>-2.78805996291339397430419921875</LongitudeDegrees>
            </Position>
            <AltitudeMeters>1576.5999755859375</AltitudeMeters>
            <DistanceMeters>211547.04026029</DistanceMeters>
          </Trackpoint>
          <Trackpoint>
            <Time>2021-07-29T12:47:15.000Z</Time>
            <Position>
              <LatitudeDegrees>42.05889947712421417236328125</LatitudeDegrees>
              <LongitudeDegrees>-2.78782895766198635101318359375</LongitudeDegrees>
            </Position>
            <AltitudeMeters>1576.4000244140625</AltitudeMeters>
            <DistanceMeters>211566.99768026</DistanceMeters>
          </Trackpoint>
          <Trackpoint>
            <Time>2021-07-29T12:47:18.000Z</Time>
            <Position>
              <LatitudeDegrees>42.0588285662233829498291015625</LatitudeDegrees>
              <LongitudeDegrees>-2.78747825883328914642333984375</LongitudeDegrees>
            </Position>
            <AltitudeMeters>1575.4000244140625</AltitudeMeters>
            <DistanceMeters>211597.03393963</DistanceMeters>
          </Trackpoint>
          <Trackpoint>
            <Time>2021-07-29T12:47:19.000Z</Time>
            <Position>
              <LatitudeDegrees>42.0588154904544353485107421875</LatitudeDegrees>
              <LongitudeDegrees>-2.78735672123730182647705078125</LongitudeDegrees>
            </Position>
            <AltitudeMeters>1575</AltitudeMeters>
            <DistanceMeters>211607.18224106</DistanceMeters>
          </Trackpoint>
          <Trackpoint>
            <Time>2021-07-29T12:47:21.000Z</Time>
            <Position>
              <LatitudeDegrees>42.05882261507213115692138671875</LatitudeDegrees>
              <LongitudeDegrees>-2.78710995800793170928955078125</LongitudeDegrees>
            </Position>
            <AltitudeMeters>1573.199951171875</AltitudeMeters>
            <DistanceMeters>211627.58954602</DistanceMeters>
          </Trackpoint>
          <Trackpoint>
            <Time>2021-07-29T12:47:23.000Z</Time>
            <Position>
              <LatitudeDegrees>42.05887005664408206939697265625</LatitudeDegrees>
              <LongitudeDegrees>-2.78686948120594024658203125</LongitudeDegrees>
            </Position>
            <AltitudeMeters>1571.5999755859375</AltitudeMeters>
            <DistanceMeters>211648.15135963</DistanceMeters>
          </Trackpoint>
          <Trackpoint>
            <Time>2021-07-29T12:47:26.000Z</Time>
            <Position>
              <LatitudeDegrees>42.0589618384838104248046875</LatitudeDegrees>
              <LongitudeDegrees>-2.78650914318859577178955078125</LongitudeDegrees>
            </Position>
            <AltitudeMeters>1570.4000244140625</AltitudeMeters>
            <DistanceMeters>211679.63217696</DistanceMeters>
          </Trackpoint>
          <Trackpoint>
            <Time>2021-07-29T12:47:28.000Z</Time>
            <Position>
              <LatitudeDegrees>42.0590045861899852752685546875</LatitudeDegrees>
              <LongitudeDegrees>-2.78625584207475185394287109375</LongitudeDegrees>
            </Position>
            <AltitudeMeters>1570</AltitudeMeters>
            <DistanceMeters>211701.09833103</DistanceMeters>
          </Trackpoint>
          <Trackpoint>
            <Time>2021-07-29T12:47:30.000Z</Time>
            <Position>
              <LatitudeDegrees>42.05901087261736392974853515625</LatitudeDegrees>
              <LongitudeDegrees>-2.78599248267710208892822265625</LongitudeDegrees>
            </Position>
            <AltitudeMeters>1569.4000244140625</AltitudeMeters>
            <DistanceMeters>211722.87293077</DistanceMeters>
          </Trackpoint>
          <Trackpoint>
            <Time>2021-07-29T12:47:32.000Z</Time>
            <Position>
              <LatitudeDegrees>42.05898388288915157318115234375</LatitudeDegrees>
              <LongitudeDegrees>-2.78572962619364261627197265625</LongitudeDegrees>
            </Position>
            <AltitudeMeters>1568.199951171875</AltitudeMeters>
            <DistanceMeters>211744.80125881</DistanceMeters>
          </Trackpoint>
          <Trackpoint>
            <Time>2021-07-29T12:47:33.000Z</Time>
            <Position>
              <LatitudeDegrees>42.0589626766741275787353515625</LatitudeDegrees>
              <LongitudeDegrees>-2.78559853322803974151611328125</LongitudeDegrees>
            </Position>
            <AltitudeMeters>1567.800048828125</AltitudeMeters>
            <DistanceMeters>211755.88807082</DistanceMeters>
          </Trackpoint>
          <Trackpoint>
            <Time>2021-07-29T12:47:34.000Z</Time>
            <Position>
              <LatitudeDegrees>42.0589398778975009918212890625</LatitudeDegrees>
              <LongitudeDegrees>-2.78546660207211971282958984375</LongitudeDegrees>
            </Position>
            <AltitudeMeters>1567.199951171875</AltitudeMeters>
            <DistanceMeters>211767.08228231</DistanceMeters>
          </Trackpoint>
          <Trackpoint>
            <Time>2021-07-29T12:47:36.000Z</Time>
            <Position>
              <LatitudeDegrees>42.0588942803442478179931640625</LatitudeDegrees>
              <LongitudeDegrees>-2.78519988991320133209228515625</LongitudeDegrees>
            </Position>
            <AltitudeMeters>1565.800048828125</AltitudeMeters>
            <DistanceMeters>211789.69923923</DistanceMeters>
          </Trackpoint>
          <Trackpoint>
            <Time>2021-07-29T12:47:42.000Z</Time>
            <Position>
              <LatitudeDegrees>42.0587735809385776519775390625</LatitudeDegrees>
              <LongitudeDegrees>-2.78444769792258739471435546875</LongitudeDegrees>
            </Position>
            <AltitudeMeters>1565.800048828125</AltitudeMeters>
            <DistanceMeters>211853.29320102</DistanceMeters>
          </Trackpoint>
          <Trackpoint>
            <Time>2021-07-29T12:47:43.000Z</Time>
            <Position>
              <LatitudeDegrees>42.05876938998699188232421875</LatitudeDegrees>
              <LongitudeDegrees>-2.78433001600205898284912109375</LongitudeDegrees>
            </Position>
            <AltitudeMeters>1566</AltitudeMeters>
            <DistanceMeters>211863.02961425</DistanceMeters>
          </Trackpoint>
          <Trackpoint>
            <Time>2021-07-29T12:47:50.000Z</Time>
            <Position>
              <LatitudeDegrees>42.05916224978864192962646484375</LatitudeDegrees>
              <LongitudeDegrees>-2.7838079072535037994384765625</LongitudeDegrees>
            </Position>
            <AltitudeMeters>1564.5999755859375</AltitudeMeters>
            <DistanceMeters>211924.45833997</DistanceMeters>
          </Trackpoint>
          <Trackpoint>
            <Time>2021-07-29T12:47:52.000Z</Time>
            <Position>
              <LatitudeDegrees>42.059367857873439788818359375</LatitudeDegrees>
              <LongitudeDegrees>-2.78383581899106502532958984375</LongitudeDegrees>
            </Position>
            <AltitudeMeters>1563.800048828125</AltitudeMeters>
            <DistanceMeters>211947.45873124</DistanceMeters>
          </Trackpoint>
          <Trackpoint>
            <Time>2021-07-29T12:47:53.000Z</Time>
            <Position>
              <LatitudeDegrees>42.0594739727675914764404296875</LatitudeDegrees>
              <LongitudeDegrees>-2.783862054347991943359375</LongitudeDegrees>
            </Position>
            <AltitudeMeters>1563.4000244140625</AltitudeMeters>
            <DistanceMeters>211959.46673943</DistanceMeters>
          </Trackpoint>
          <Trackpoint>
            <Time>2021-07-29T12:47:55.000Z</Time>
            <Position>
              <LatitudeDegrees>42.05968670547008514404296875</LatitudeDegrees>
              <LongitudeDegrees>-2.783915698528289794921875</LongitudeDegrees>
            </Position>
            <AltitudeMeters>1562.199951171875</AltitudeMeters>
            <DistanceMeters>211983.5555898</DistanceMeters>
          </Trackpoint>
          <Trackpoint>
            <Time>2021-07-29T12:47:56.000Z</Time>
            <Position>
              <LatitudeDegrees>42.059785611927509307861328125</LatitudeDegrees>
              <LongitudeDegrees>-2.7839309535920619964599609375</LongitudeDegrees>
            </Position>
            <AltitudeMeters>1561.199951171875</AltitudeMeters>
            <DistanceMeters>211994.63588399</DistanceMeters>
          </Trackpoint>
          <Trackpoint>
            <Time>2021-07-29T12:47:57.000Z</Time>
            <Position>
              <LatitudeDegrees>42.05987521447241306304931640625</LatitudeDegrees>
              <LongitudeDegrees>-2.7839304506778717041015625</LongitudeDegrees>
            </Position>
            <AltitudeMeters>1560.5999755859375</AltitudeMeters>
            <DistanceMeters>212004.60871017</DistanceMeters>
          </Trackpoint>
          <Trackpoint>
            <Time>2021-07-29T12:47:59.000Z</Time>
            <Position>
              <LatitudeDegrees>42.0600291900336742401123046875</LatitudeDegrees>
              <LongitudeDegrees>-2.78386800549924373626708984375</LongitudeDegrees>
            </Position>
            <AltitudeMeters>1558.800048828125</AltitudeMeters>
            <DistanceMeters>212022.50630503</DistanceMeters>
          </Trackpoint>
          <Trackpoint>
            <Time>2021-07-29T12:48:00.000Z</Time>
            <Position>
              <LatitudeDegrees>42.060097418725490570068359375</LatitudeDegrees>
              <LongitudeDegrees>-2.7838038839399814605712890625</LongitudeDegrees>
            </Position>
            <AltitudeMeters>1557.5999755859375</AltitudeMeters>
            <DistanceMeters>212031.76592574</DistanceMeters>
          </Trackpoint>
          <Trackpoint>
            <Time>2021-07-29T12:48:01.000Z</Time>
            <Position>
              <LatitudeDegrees>42.0601582713425159454345703125</LatitudeDegrees>
              <LongitudeDegrees>-2.78372216038405895233154296875</LongitudeDegrees>
            </Position>
            <AltitudeMeters>1555.800048828125</AltitudeMeters>
            <DistanceMeters>212041.33063716</DistanceMeters>
          </Trackpoint>
          <Trackpoint>
            <Time>2021-07-29T12:48:02.000Z</Time>
            <Position>
              <LatitudeDegrees>42.0602065511047840118408203125</LatitudeDegrees>
              <LongitudeDegrees>-2.7836219966411590576171875</LongitudeDegrees>
            </Position>
            <AltitudeMeters>1554.199951171875</AltitudeMeters>
            <DistanceMeters>212051.19878513</DistanceMeters>
          </Trackpoint>
          <Trackpoint>
            <Time>2021-07-29T12:48:03.000Z</Time>
            <Position>
              <LatitudeDegrees>42.06023848615586757659912109375</LatitudeDegrees>
              <LongitudeDegrees>-2.78350523672997951507568359375</LongitudeDegrees>
            </Position>
            <AltitudeMeters>1553</AltitudeMeters>
            <DistanceMeters>212061.48100935</DistanceMeters>
          </Trackpoint>
          <Trackpoint>
            <Time>2021-07-29T12:48:05.000Z</Time>
            <Position>
              <LatitudeDegrees>42.06024385057389736175537109375</LatitudeDegrees>
              <LongitudeDegrees>-2.78324288316071033477783203125</LongitudeDegrees>
            </Position>
            <AltitudeMeters>1551.800048828125</AltitudeMeters>
            <DistanceMeters>212083.16876216</DistanceMeters>
          </Trackpoint>
          <Trackpoint>
            <Time>2021-07-29T12:48:07.000Z</Time>
            <Position>
              <LatitudeDegrees>42.06018961966037750244140625</LatitudeDegrees>
              <LongitudeDegrees>-2.78296946547925472259521484375</LongitudeDegrees>
            </Position>
            <AltitudeMeters>1551</AltitudeMeters>
            <DistanceMeters>212106.55518215</DistanceMeters>
          </Trackpoint>
          <Trackpoint>
            <Time>2021-07-29T12:48:08.000Z</Time>
            <Position>
              <LatitudeDegrees>42.0601609535515308380126953125</LatitudeDegrees>
              <LongitudeDegrees>-2.7828285656869411468505859375</LongitudeDegrees>
            </Position>
            <AltitudeMeters>1550.5999755859375</AltitudeMeters>
            <DistanceMeters>212118.62731551</DistanceMeters>
          </Trackpoint>
          <Trackpoint>
            <Time>2021-07-29T12:48:09.000Z</Time>
            <Position>
              <LatitudeDegrees>42.06014133989810943603515625</LatitudeDegrees>
              <LongitudeDegrees>-2.7826827205717563629150390625</LongitudeDegrees>
            </Position>
            <AltitudeMeters>1550.4000244140625</AltitudeMeters>
            <DistanceMeters>212130.8750757</DistanceMeters>
          </Trackpoint>
          <Trackpoint>
            <Time>2021-07-29T12:48:11.000Z</Time>
            <Position>
              <LatitudeDegrees>42.06013488583266735076904296875</LatitudeDegrees>
              <LongitudeDegrees>-2.78237921185791492462158203125</LongitudeDegrees>
            </Position>
            <AltitudeMeters>1549.4000244140625</AltitudeMeters>
            <DistanceMeters>212155.96590748</DistanceMeters>
          </Trackpoint>
          <Trackpoint>
            <Time>2021-07-29T12:48:13.000Z</Time>
            <Position>
              <LatitudeDegrees>42.06016271375119686126708984375</LatitudeDegrees>
              <LongitudeDegrees>-2.78206774033606052398681640625</LongitudeDegrees>
            </Position>
            <AltitudeMeters>1547.4000244140625</AltitudeMeters>
            <DistanceMeters>212181.89026802</DistanceMeters>
          </Trackpoint>
          <Trackpoint>
            <Time>2021-07-29T12:48:15.000Z</Time>
            <Position>
              <LatitudeDegrees>42.06019573844969272613525390625</LatitudeDegrees>
              <LongitudeDegrees>-2.7817506529390811920166015625</LongitudeDegrees>
            </Position>
            <AltitudeMeters>1546.199951171875</AltitudeMeters>
            <DistanceMeters>212208.34936413</DistanceMeters>
          </Trackpoint>
          <Trackpoint>
            <Time>2021-07-29T12:48:18.000Z</Time>
            <Position>
              <LatitudeDegrees>42.06026078201830387115478515625</LatitudeDegrees>
              <LongitudeDegrees>-2.78130297549068927764892578125</LongitudeDegrees>
            </Position>
            <AltitudeMeters>1546</AltitudeMeters>
            <DistanceMeters>212246.04479805</DistanceMeters>
          </Trackpoint>
          <Trackpoint>
            <Time>2021-07-29T12:48:24.000Z</Time>
            <Position>
              <LatitudeDegrees>42.06076034344732761383056640625</LatitudeDegrees>
              <LongitudeDegrees>-2.78088706545531749725341796875</LongitudeDegrees>
            </Position>
            <AltitudeMeters>1544.5999755859375</AltitudeMeters>
            <DistanceMeters>212311.41143627</DistanceMeters>
          </Trackpoint>
          <Trackpoint>
            <Time>2021-07-29T12:48:25.000Z</Time>
            <Position>
              <LatitudeDegrees>42.06086629070341587066650390625</LatitudeDegrees>
              <LongitudeDegrees>-2.78087013401091098785400390625</LongitudeDegrees>
            </Position>
            <AltitudeMeters>1543.800048828125</AltitudeMeters>
            <DistanceMeters>212323.28635411</DistanceMeters>
          </Trackpoint>
          <Trackpoint>
            <Time>2021-07-29T12:48:26.000Z</Time>
            <Position>
              <LatitudeDegrees>42.06097290851175785064697265625</LatitudeDegrees>
              <LongitudeDegrees>-2.7808541245758533477783203125</LongitudeDegrees>
            </Position>
            <AltitudeMeters>1543</AltitudeMeters>
            <DistanceMeters>212335.22649008</DistanceMeters>
          </Trackpoint>
          <Trackpoint>
            <Time>2021-07-29T12:48:28.000Z</Time>
            <Position>
              <LatitudeDegrees>42.06118916161358356475830078125</LatitudeDegrees>
              <LongitudeDegrees>-2.78081581927835941314697265625</LongitudeDegrees>
            </Position>
            <AltitudeMeters>1541.5999755859375</AltitudeMeters>
            <DistanceMeters>212359.50316549</DistanceMeters>
          </Trackpoint>
          <Trackpoint>
            <Time>2021-07-29T12:48:30.000Z</Time>
            <Position>
              <LatitudeDegrees>42.0614108629524707794189453125</LatitudeDegrees>
              <LongitudeDegrees>-2.7807934395968914031982421875</LongitudeDegrees>
            </Position>
            <AltitudeMeters>1540.5999755859375</AltitudeMeters>
            <DistanceMeters>212384.24827518</DistanceMeters>
          </Trackpoint>
          <Trackpoint>
            <Time>2021-07-29T12:48:33.000Z</Time>
            <Position>
              <LatitudeDegrees>42.06174035556614398956298828125</LatitudeDegrees>
              <LongitudeDegrees>-2.780908606946468353271484375</LongitudeDegrees>
            </Position>
            <AltitudeMeters>1539</AltitudeMeters>
            <DistanceMeters>212422.13617816</DistanceMeters>
          </Trackpoint>
          <Trackpoint>
            <Time>2021-07-29T12:48:34.000Z</Time>
            <Position>
              <LatitudeDegrees>42.0618393458425998687744140625</LatitudeDegrees>
              <LongitudeDegrees>-2.78098848648369312286376953125</LongitudeDegrees>
            </Position>
            <AltitudeMeters>1537.800048828125</AltitudeMeters>
            <DistanceMeters>212434.97990957</DistanceMeters>
          </Trackpoint>
          <Trackpoint>
            <Time>2021-07-29T12:48:35.000Z</Time>
            <Position>
              <LatitudeDegrees>42.0619337260723114013671875</LatitudeDegrees>
              <LongitudeDegrees>-2.7810780890285968780517578125</LongitudeDegrees>
            </Position>
            <AltitudeMeters>1536.199951171875</AltitudeMeters>
            <DistanceMeters>212447.83172377</DistanceMeters>
          </Trackpoint>
          <Trackpoint>
            <Time>2021-07-29T12:48:36.000Z</Time>
            <Position>
              <LatitudeDegrees>42.0620267651975154876708984375</LatitudeDegrees>
              <LongitudeDegrees>-2.781166769564151763916015625</LongitudeDegrees>
            </Position>
            <AltitudeMeters>1535</AltitudeMeters>
            <DistanceMeters>212460.51770116</DistanceMeters>
          </Trackpoint>
          <Trackpoint>
            <Time>2021-07-29T12:48:38.000Z</Time>
            <Position>
              <LatitudeDegrees>42.0622148551046848297119140625</LatitudeDegrees>
              <LongitudeDegrees>-2.7813325636088848114013671875</LongitudeDegrees>
            </Position>
            <AltitudeMeters>1533.800048828125</AltitudeMeters>
            <DistanceMeters>212485.53681124</DistanceMeters>
          </Trackpoint>
          <Trackpoint>
            <Time>2021-07-29T12:48:41.000Z</Time>
            <Position>
              <LatitudeDegrees>42.06248818896710872650146484375</LatitudeDegrees>
              <LongitudeDegrees>-2.7815833501517772674560546875</LongitudeDegrees>
            </Position>
            <AltitudeMeters>1532.800048828125</AltitudeMeters>
            <DistanceMeters>212522.34687821</DistanceMeters>
          </Trackpoint>
          <Trackpoint>
            <Time>2021-07-29T12:48:44.000Z</Time>
            <Position>
              <LatitudeDegrees>42.06275154836475849151611328125</LatitudeDegrees>
              <LongitudeDegrees>-2.78182290494441986083984375</LongitudeDegrees>
            </Position>
            <AltitudeMeters>1531.800048828125</AltitudeMeters>
            <DistanceMeters>212557.7169906</DistanceMeters>
          </Trackpoint>
          <Trackpoint>
            <Time>2021-07-29T12:48:50.000Z</Time>
            <Position>
              <LatitudeDegrees>42.063280530273914337158203125</LatitudeDegrees>
              <LongitudeDegrees>-2.78218290768563747406005859375</LongitudeDegrees>
            </Position>
            <AltitudeMeters>1531.199951171875</AltitudeMeters>
            <DistanceMeters>212623.68202791</DistanceMeters>
          </Trackpoint>
          <Trackpoint>
            <Time>2021-07-29T12:48:52.000Z</Time>
            <Position>
              <LatitudeDegrees>42.06347138620913028717041015625</LatitudeDegrees>
              <LongitudeDegrees>-2.78223487548530101776123046875</LongitudeDegrees>
            </Position>
            <AltitudeMeters>1530.800048828125</AltitudeMeters>
            <DistanceMeters>212645.35436964</DistanceMeters>
          </Trackpoint>
          <Trackpoint>
            <Time>2021-07-29T12:48:54.000Z</Time>
            <Position>
              <LatitudeDegrees>42.06366844475269317626953125</LatitudeDegrees>
              <LongitudeDegrees>-2.782253734767436981201171875</LongitudeDegrees>
            </Position>
            <AltitudeMeters>1529.4000244140625</AltitudeMeters>
            <DistanceMeters>212667.34273822</DistanceMeters>
          </Trackpoint>
          <Trackpoint>
            <Time>2021-07-29T12:48:56.000Z</Time>
            <Position>
              <LatitudeDegrees>42.06386533565819263458251953125</LatitudeDegrees>
              <LongitudeDegrees>-2.782229594886302947998046875</LongitudeDegrees>
            </Position>
            <AltitudeMeters>1528</AltitudeMeters>
            <DistanceMeters>212689.34752768</DistanceMeters>
          </Trackpoint>
          <Trackpoint>
            <Time>2021-07-29T12:49:01.000Z</Time>
            <Position>
              <LatitudeDegrees>42.06434008665382862091064453125</LatitudeDegrees>
              <LongitudeDegrees>-2.78199347667396068572998046875</LongitudeDegrees>
            </Position>
            <AltitudeMeters>1526.800048828125</AltitudeMeters>
            <DistanceMeters>212745.67520879</DistanceMeters>
          </Trackpoint>
          <Trackpoint>
            <Time>2021-07-29T12:49:05.000Z</Time>
            <Position>
              <LatitudeDegrees>42.06466446630656719207763671875</LatitudeDegrees>
              <LongitudeDegrees>-2.781633473932743072509765625</LongitudeDegrees>
            </Position>
            <AltitudeMeters>1525.5999755859375</AltitudeMeters>
            <DistanceMeters>212792.45538457</DistanceMeters>
          </Trackpoint>
          <Trackpoint>
            <Time>2021-07-29T12:49:08.000Z</Time>
            <Position>
              <LatitudeDegrees>42.06486026756465435028076171875</LatitudeDegrees>
              <LongitudeDegrees>-2.781287133693695068359375</LongitudeDegrees>
            </Position>
            <AltitudeMeters>1524</AltitudeMeters>
            <DistanceMeters>212828.42647927</DistanceMeters>
          </Trackpoint>
          <Trackpoint>
            <Time>2021-07-29T12:49:10.000Z</Time>
            <Position>
              <LatitudeDegrees>42.06497962586581707000732421875</LatitudeDegrees>
              <LongitudeDegrees>-2.78104330413043498992919921875</LongitudeDegrees>
            </Position>
            <AltitudeMeters>1522.4000244140625</AltitudeMeters>
            <DistanceMeters>212852.55952322</DistanceMeters>
          </Trackpoint>
          <Trackpoint>
            <Time>2021-07-29T12:49:11.000Z</Time>
            <Position>
              <LatitudeDegrees>42.06503880210220813751220703125</LatitudeDegrees>
              <LongitudeDegrees>-2.78091891668736934661865234375</LongitudeDegrees>
            </Position>
            <AltitudeMeters>1521.4000244140625</AltitudeMeters>
            <DistanceMeters>212864.76666545</DistanceMeters>
          </Trackpoint>
          <Trackpoint>
            <Time>2021-07-29T12:49:13.000Z</Time>
            <Position>
              <LatitudeDegrees>42.06515841186046600341796875</LatitudeDegrees>
              <LongitudeDegrees>-2.7806646935641765594482421875</LongitudeDegrees>
            </Position>
            <AltitudeMeters>1520</AltitudeMeters>
            <DistanceMeters>212889.63608434</DistanceMeters>
          </Trackpoint>
          <Trackpoint>
            <Time>2021-07-29T12:49:15.000Z</Time>
            <Position>
              <LatitudeDegrees>42.0652806200087070465087890625</LatitudeDegrees>
              <LongitudeDegrees>-2.7804025076329708099365234375</LongitudeDegrees>
            </Position>
            <AltitudeMeters>1518.800048828125</AltitudeMeters>
            <DistanceMeters>212915.21628038</DistanceMeters>
          </Trackpoint>
          <Trackpoint>
            <Time>2021-07-29T12:49:16.000Z</Time>
            <Position>
              <LatitudeDegrees>42.0653433166444301605224609375</LatitudeDegrees>
              <LongitudeDegrees>-2.78026722371578216552734375</LongitudeDegrees>
            </Position>
            <AltitudeMeters>1517.800048828125</AltitudeMeters>
            <DistanceMeters>212928.39385109</DistanceMeters>
          </Trackpoint>
          <Trackpoint>
            <Time>2021-07-29T12:49:18.000Z</Time>
            <Position>
              <LatitudeDegrees>42.06547315232455730438232421875</LatitudeDegrees>
              <LongitudeDegrees>-2.779990620911121368408203125</LongitudeDegrees>
            </Position>
            <AltitudeMeters>1515.800048828125</AltitudeMeters>
            <DistanceMeters>212955.43442024</DistanceMeters>
          </Trackpoint>
          <Trackpoint>
            <Time>2021-07-29T12:49:20.000Z</Time>
            <Position>
              <LatitudeDegrees>42.0656028203666210174560546875</LatitudeDegrees>
              <LongitudeDegrees>-2.7797071449458599090576171875</LongitudeDegrees>
            </Position>
            <AltitudeMeters>1514.4000244140625</AltitudeMeters>
            <DistanceMeters>212982.94691064</DistanceMeters>
          </Trackpoint>
          <Trackpoint>
            <Time>2021-07-29T12:49:21.000Z</Time>
            <Position>
              <LatitudeDegrees>42.06566543318331241607666015625</LatitudeDegrees>
              <LongitudeDegrees>-2.77956943027675151824951171875</LongitudeDegrees>
            </Position>
            <AltitudeMeters>1513.199951171875</AltitudeMeters>
            <DistanceMeters>212996.29063753</DistanceMeters>
          </Trackpoint>
          <Trackpoint>
            <Time>2021-07-29T12:49:23.000Z</Time>
            <Position>
              <LatitudeDegrees>42.06580406986176967620849609375</LatitudeDegrees>
              <LongitudeDegrees>-2.77932082302868366241455078125</LongitudeDegrees>
            </Position>
            <AltitudeMeters>1511.4000244140625</AltitudeMeters>
            <DistanceMeters>213021.98266991</DistanceMeters>
          </Trackpoint>
          <Trackpoint>
            <Time>2021-07-29T12:49:25.000Z</Time>
            <Position>
              <LatitudeDegrees>42.065985538065433502197265625</LatitudeDegrees>
              <LongitudeDegrees>-2.77913575060665607452392578125</LongitudeDegrees>
            </Position>
            <AltitudeMeters>1510</AltitudeMeters>
            <DistanceMeters>213047.31651394</DistanceMeters>
          </Trackpoint>
          <Trackpoint>
            <Time>2021-07-29T12:49:26.000Z</Time>
            <Position>
              <LatitudeDegrees>42.066092155873775482177734375</LatitudeDegrees>
              <LongitudeDegrees>-2.7790687792003154754638671875</LongitudeDegrees>
            </Position>
            <AltitudeMeters>1508.800048828125</AltitudeMeters>
            <DistanceMeters>213060.41021591</DistanceMeters>
          </Trackpoint>
          <Trackpoint>
            <Time>2021-07-29T12:49:27.000Z</Time>
            <Position>
              <LatitudeDegrees>42.06620506010949611663818359375</LatitudeDegrees>
              <LongitudeDegrees>-2.77901505120098590850830078125</LongitudeDegrees>
            </Position>
            <AltitudeMeters>1507.199951171875</AltitudeMeters>
            <DistanceMeters>213073.73769143</DistanceMeters>
          </Trackpoint>
          <Trackpoint>
            <Time>2021-07-29T12:49:28.000Z</Time>
            <Position>
              <LatitudeDegrees>42.06632140092551708221435546875</LatitudeDegrees>
              <LongitudeDegrees>-2.77896911837160587310791015625</LongitudeDegrees>
            </Position>
            <AltitudeMeters>1506.199951171875</AltitudeMeters>
            <DistanceMeters>213087.23148487</DistanceMeters>
          </Trackpoint>
          <Trackpoint>
            <Time>2021-07-29T12:49:29.000Z</Time>
            <Position>
              <LatitudeDegrees>42.0664410106837749481201171875</LatitudeDegrees>
              <LongitudeDegrees>-2.7789296396076679229736328125</LongitudeDegrees>
            </Position>
            <AltitudeMeters>1505.4000244140625</AltitudeMeters>
            <DistanceMeters>213100.93775024</DistanceMeters>
          </Trackpoint>
          <Trackpoint>
            <Time>2021-07-29T12:49:30.000Z</Time>
            <Position>
              <LatitudeDegrees>42.06656388938426971435546875</LatitudeDegrees>
              <LongitudeDegrees>-2.77889301069080829620361328125</LongitudeDegrees>
            </Position>
            <AltitudeMeters>1504.4000244140625</AltitudeMeters>
            <DistanceMeters>213114.94508763</DistanceMeters>
          </Trackpoint>
          <Trackpoint>
            <Time>2021-07-29T12:49:32.000Z</Time>
            <Position>
              <LatitudeDegrees>42.0668165199458599090576171875</LatitudeDegrees>
              <LongitudeDegrees>-2.77880751527845859527587890625</LongitudeDegrees>
            </Position>
            <AltitudeMeters>1502.199951171875</AltitudeMeters>
            <DistanceMeters>213143.9371137</DistanceMeters>
          </Trackpoint>
          <Trackpoint>
            <Time>2021-07-29T12:49:33.000Z</Time>
            <Position>
              <LatitudeDegrees>42.06694551743566989898681640625</LatitudeDegrees>
              <LongitudeDegrees>-2.7787589840590953826904296875</LongitudeDegrees>
            </Position>
            <AltitudeMeters>1500.5999755859375</AltitudeMeters>
            <DistanceMeters>213158.84389475</DistanceMeters>
          </Trackpoint>
          <Trackpoint>
            <Time>2021-07-29T12:49:34.000Z</Time>
            <Position>
              <LatitudeDegrees>42.06707644276320934295654296875</LatitudeDegrees>
              <LongitudeDegrees>-2.77870944701135158538818359375</LongitudeDegrees>
            </Position>
            <AltitudeMeters>1499</AltitudeMeters>
            <DistanceMeters>213173.97971449</DistanceMeters>
          </Trackpoint>
          <Trackpoint>
            <Time>2021-07-29T12:49:35.000Z</Time>
            <Position>
              <LatitudeDegrees>42.0672087930142879486083984375</LatitudeDegrees>
              <LongitudeDegrees>-2.77866133488714694976806640625</LongitudeDegrees>
            </Position>
            <AltitudeMeters>1497</AltitudeMeters>
            <DistanceMeters>213189.23764361</DistanceMeters>
          </Trackpoint>
          <Trackpoint>
            <Time>2021-07-29T12:49:36.000Z</Time>
            <Position>
              <LatitudeDegrees>42.06734013743698596954345703125</LatitudeDegrees>
              <LongitudeDegrees>-2.77861406095325946807861328125</LongitudeDegrees>
            </Position>
            <AltitudeMeters>1494.5999755859375</AltitudeMeters>
            <DistanceMeters>213204.36988331</DistanceMeters>
          </Trackpoint>
          <Trackpoint>
            <Time>2021-07-29T12:49:37.000Z</Time>
            <Position>
              <LatitudeDegrees>42.067468799650669097900390625</LatitudeDegrees>
              <LongitudeDegrees>-2.7785715647041797637939453125</LongitudeDegrees>
            </Position>
            <AltitudeMeters>1493.199951171875</AltitudeMeters>
            <DistanceMeters>213219.11464918</DistanceMeters>
          </Trackpoint>
          <Trackpoint>
            <Time>2021-07-29T12:49:39.000Z</Time>
            <Position>
              <LatitudeDegrees>42.06772327423095703125</LatitudeDegrees>
              <LongitudeDegrees>-2.77851398102939128875732421875</LongitudeDegrees>
            </Position>
            <AltitudeMeters>1492</AltitudeMeters>
            <DistanceMeters>213247.83504895</DistanceMeters>
          </Trackpoint>
          <Trackpoint>
            <Time>2021-07-29T12:49:40.000Z</Time>
            <Position>
              <LatitudeDegrees>42.06785269081592559814453125</LatitudeDegrees>
              <LongitudeDegrees>-2.77850794605910778045654296875</LongitudeDegrees>
            </Position>
            <AltitudeMeters>1491.5999755859375</AltitudeMeters>
            <DistanceMeters>213262.24781684</DistanceMeters>
          </Trackpoint>
          <Trackpoint>
            <Time>2021-07-29T12:49:42.000Z</Time>
            <Position>
              <LatitudeDegrees>42.068115882575511932373046875</LatitudeDegrees>
              <LongitudeDegrees>-2.77854884974658489227294921875</LongitudeDegrees>
            </Position>
            <AltitudeMeters>1490.5999755859375</AltitudeMeters>
            <DistanceMeters>213291.73581747</DistanceMeters>
          </Trackpoint>
          <Trackpoint>
            <Time>2021-07-29T12:49:43.000Z</Time>
            <Position>
              <LatitudeDegrees>42.06824672408401966094970703125</LatitudeDegrees>
              <LongitudeDegrees>-2.77859377674758434295654296875</LongitudeDegrees>
            </Position>
            <AltitudeMeters>1489.4000244140625</AltitudeMeters>
            <DistanceMeters>213306.76446585</DistanceMeters>
          </Trackpoint>
          <Trackpoint>
            <Time>2021-07-29T12:49:44.000Z</Time>
            <Position>
              <LatitudeDegrees>42.06837345845997333526611328125</LatitudeDegrees>
              <LongitudeDegrees>-2.77865379117429256439208984375</LongitudeDegrees>
            </Position>
            <AltitudeMeters>1487.5999755859375</AltitudeMeters>
            <DistanceMeters>213321.7166106</DistanceMeters>
          </Trackpoint>
          <Trackpoint>
            <Time>2021-07-29T12:49:45.000Z</Time>
            <Position>
              <LatitudeDegrees>42.0684942416846752166748046875</LatitudeDegrees>
              <LongitudeDegrees>-2.778728641569614410400390625</LongitudeDegrees>
            </Position>
            <AltitudeMeters>1485</AltitudeMeters>
            <DistanceMeters>213336.5145616</DistanceMeters>
          </Trackpoint>
          <Trackpoint>
            <Time>2021-07-29T12:49:46.000Z</Time>
            <Position>
              <LatitudeDegrees>42.068609409034252166748046875</LatitudeDegrees>
              <LongitudeDegrees>-2.7788109518587589263916015625</LongitudeDegrees>
            </Position>
            <AltitudeMeters>1484</AltitudeMeters>
            <DistanceMeters>213351.0253618</DistanceMeters>
          </Trackpoint>
          <Trackpoint>
            <Time>2021-07-29T12:49:47.000Z</Time>
            <Position>
              <LatitudeDegrees>42.068721391260623931884765625</LatitudeDegrees>
              <LongitudeDegrees>-2.778892926871776580810546875</LongitudeDegrees>
            </Position>
            <AltitudeMeters>1483.5999755859375</AltitudeMeters>
            <DistanceMeters>213365.21078472</DistanceMeters>
          </Trackpoint>
          <Trackpoint>
            <Time>2021-07-29T12:49:52.000Z</Time>
            <Position>
              <LatitudeDegrees>42.069255821406841278076171875</LatitudeDegrees>
              <LongitudeDegrees>-2.77927874587476253509521484375</LongitudeDegrees>
            </Position>
            <AltitudeMeters>1483</AltitudeMeters>
            <DistanceMeters>213432.69734965</DistanceMeters>
          </Trackpoint>
          <Trackpoint>
            <Time>2021-07-29T12:49:53.000Z</Time>
            <Position>
              <LatitudeDegrees>42.06936084665358066558837890625</LatitudeDegrees>
              <LongitudeDegrees>-2.7793567813932895660400390625</LongitudeDegrees>
            </Position>
            <AltitudeMeters>1482.199951171875</AltitudeMeters>
            <DistanceMeters>213446.0471657</DistanceMeters>
          </Trackpoint>
          <Trackpoint>
            <Time>2021-07-29T12:49:54.000Z</Time>
            <Position>
              <LatitudeDegrees>42.06946595571935176849365234375</LatitudeDegrees>
              <LongitudeDegrees>-2.77943364344537258148193359375</LongitudeDegrees>
            </Position>
            <AltitudeMeters>1481</AltitudeMeters>
            <DistanceMeters>213459.35837001</DistanceMeters>
          </Trackpoint>
          <Trackpoint>
            <Time>2021-07-29T12:49:56.000Z</Time>
            <Position>
              <LatitudeDegrees>42.06967902369797229766845703125</LatitudeDegrees>
              <LongitudeDegrees>-2.77959189377725124359130859375</LongitudeDegrees>
            </Position>
            <AltitudeMeters>1479.4000244140625</AltitudeMeters>
            <DistanceMeters>213486.43881624</DistanceMeters>
          </Trackpoint>
          <Trackpoint>
            <Time>2021-07-29T12:49:58.000Z</Time>
            <Position>
              <LatitudeDegrees>42.06989728845655918121337890625</LatitudeDegrees>
              <LongitudeDegrees>-2.77975114993751049041748046875</LongitudeDegrees>
            </Position>
            <AltitudeMeters>1477.4000244140625</AltitudeMeters>
            <DistanceMeters>213514.06659758</DistanceMeters>
          </Trackpoint>
          <Trackpoint>
            <Time>2021-07-29T12:49:59.000Z</Time>
            <Position>
              <LatitudeDegrees>42.07000625319778919219970703125</LatitudeDegrees>
              <LongitudeDegrees>-2.77983144856989383697509765625</LongitudeDegrees>
            </Position>
            <AltitudeMeters>1474.800048828125</AltitudeMeters>
            <DistanceMeters>213527.89094342</DistanceMeters>
          </Trackpoint>
          <Trackpoint>
            <Time>2021-07-29T12:50:00.000Z</Time>
            <Position>
              <LatitudeDegrees>42.07011555321514606475830078125</LatitudeDegrees>
              <LongitudeDegrees>-2.77991040609776973724365234375</LongitudeDegrees>
            </Position>
            <AltitudeMeters>1473</AltitudeMeters>
            <DistanceMeters>213541.69535225</DistanceMeters>
          </Trackpoint>
          <Trackpoint>
            <Time>2021-07-29T12:50:01.000Z</Time>
            <Position>
              <LatitudeDegrees>42.07022736780345439910888671875</LatitudeDegrees>
              <LongitudeDegrees>-2.77998332865536212921142578125</LongitudeDegrees>
            </Position>
            <AltitudeMeters>1472</AltitudeMeters>
            <DistanceMeters>213555.52231064</DistanceMeters>
          </Trackpoint>
          <Trackpoint>
            <Time>2021-07-29T12:50:03.000Z</Time>
            <Position>
              <LatitudeDegrees>42.0704497396945953369140625</LatitudeDegrees>
              <LongitudeDegrees>-2.78009891510009765625</LongitudeDegrees>
            </Position>
            <AltitudeMeters>1470.4000244140625</AltitudeMeters>
            <DistanceMeters>213582.05127779</DistanceMeters>
          </Trackpoint>
          <Trackpoint>
            <Time>2021-07-29T12:50:04.000Z</Time>
            <Position>
              <LatitudeDegrees>42.07056147046387195587158203125</LatitudeDegrees>
              <LongitudeDegrees>-2.78013688512146472930908203125</LongitudeDegrees>
            </Position>
            <AltitudeMeters>1469.199951171875</AltitudeMeters>
            <DistanceMeters>213594.87671628</DistanceMeters>
          </Trackpoint>
          <Trackpoint>
            <Time>2021-07-29T12:50:05.000Z</Time>
            <Position>
              <LatitudeDegrees>42.07067479379475116729736328125</LatitudeDegrees>
              <LongitudeDegrees>-2.780163288116455078125</LongitudeDegrees>
            </Position>
            <AltitudeMeters>1468</AltitudeMeters>
            <DistanceMeters>213607.67678296</DistanceMeters>
          </Trackpoint>
          <Trackpoint>
            <Time>2021-07-29T12:50:06.000Z</Time>
            <Position>
              <LatitudeDegrees>42.07078677602112293243408203125</LatitudeDegrees>
              <LongitudeDegrees>-2.78018432669341564178466796875</LongitudeDegrees>
            </Position>
            <AltitudeMeters>1465</AltitudeMeters>
            <DistanceMeters>213620.26091784</DistanceMeters>
          </Trackpoint>
          <Trackpoint>
            <Time>2021-07-29T12:50:07.000Z</Time>
            <Position>
              <LatitudeDegrees>42.07089624367654323577880859375</LatitudeDegrees>
              <LongitudeDegrees>-2.78020419180393218994140625</LongitudeDegrees>
            </Position>
            <AltitudeMeters>1462.800048828125</AltitudeMeters>
            <DistanceMeters>213632.55503918</DistanceMeters>
          </Trackpoint>
          <Trackpoint>
            <Time>2021-07-29T12:50:08.000Z</Time>
            <Position>
              <LatitudeDegrees>42.0710041187703609466552734375</LatitudeDegrees>
              <LongitudeDegrees>-2.7802227996289730072021484375</LongitudeDegrees>
            </Position>
            <AltitudeMeters>1461.4000244140625</AltitudeMeters>
            <DistanceMeters>213644.65966723</DistanceMeters>
          </Trackpoint>
          <Trackpoint>
            <Time>2021-07-29T12:50:10.000Z</Time>
            <Position>
              <LatitudeDegrees>42.07121408544480800628662109375</LatitudeDegrees>
              <LongitudeDegrees>-2.7802546508610248565673828125</LongitudeDegrees>
            </Position>
            <AltitudeMeters>1460</AltitudeMeters>
            <DistanceMeters>213668.17681123</DistanceMeters>
          </Trackpoint>
          <Trackpoint>
            <Time>2021-07-29T12:50:11.000Z</Time>
            <Position>
              <LatitudeDegrees>42.07131617702543735504150390625</LatitudeDegrees>
              <LongitudeDegrees>-2.78027116321027278900146484375</LongitudeDegrees>
            </Position>
            <AltitudeMeters>1458.800048828125</AltitudeMeters>
            <DistanceMeters>213679.62191014</DistanceMeters>
          </Trackpoint>
          <Trackpoint>
            <Time>2021-07-29T12:50:13.000Z</Time>
            <Position>
              <LatitudeDegrees>42.07151633687317371368408203125</LatitudeDegrees>
              <LongitudeDegrees>-2.78031676076352596282958984375</LongitudeDegrees>
            </Position>
            <AltitudeMeters>1456.800048828125</AltitudeMeters>
            <DistanceMeters>213702.21669719</DistanceMeters>
          </Trackpoint>
          <Trackpoint>
            <Time>2021-07-29T12:50:14.000Z</Time>
            <Position>
              <LatitudeDegrees>42.0716123096644878387451171875</LatitudeDegrees>
              <LongitudeDegrees>-2.78035431168973445892333984375</LongitudeDegrees>
            </Position>
            <AltitudeMeters>1455.4000244140625</AltitudeMeters>
            <DistanceMeters>213713.34010078</DistanceMeters>
          </Trackpoint>
          <Trackpoint>
            <Time>2021-07-29T12:50:15.000Z</Time>
            <Position>
              <LatitudeDegrees>42.0717018283903598785400390625</LatitudeDegrees>
              <LongitudeDegrees>-2.780405022203922271728515625</LongitudeDegrees>
            </Position>
            <AltitudeMeters>1454.199951171875</AltitudeMeters>
            <DistanceMeters>213724.148528</DistanceMeters>
          </Trackpoint>
          <Trackpoint>
            <Time>2021-07-29T12:50:16.000Z</Time>
            <Position>
              <LatitudeDegrees>42.07178371958434581756591796875</LatitudeDegrees>
              <LongitudeDegrees>-2.780468054115772247314453125</LongitudeDegrees>
            </Position>
            <AltitudeMeters>1453</AltitudeMeters>
            <DistanceMeters>213734.64586208</DistanceMeters>
          </Trackpoint>
          <Trackpoint>
            <Time>2021-07-29T12:50:17.000Z</Time>
            <Position>
              <LatitudeDegrees>42.07185924053192138671875</LatitudeDegrees>
              <LongitudeDegrees>-2.78053754009306430816650390625</LongitudeDegrees>
            </Position>
            <AltitudeMeters>1452</AltitudeMeters>
            <DistanceMeters>213744.82481571</DistanceMeters>
          </Trackpoint>
          <Trackpoint>
            <Time>2021-07-29T12:50:18.000Z</Time>
            <Position>
              <LatitudeDegrees>42.07193308509886264801025390625</LatitudeDegrees>
              <LongitudeDegrees>-2.7806056849658489227294921875</LongitudeDegrees>
            </Position>
            <AltitudeMeters>1450.800048828125</AltitudeMeters>
            <DistanceMeters>213754.78767676</DistanceMeters>
          </Trackpoint>
          <Trackpoint>
            <Time>2021-07-29T12:50:19.000Z</Time>
            <Position>
              <LatitudeDegrees>42.07200743257999420166015625</LatitudeDegrees>
              <LongitudeDegrees>-2.7806646935641765594482421875</LongitudeDegrees>
            </Position>
            <AltitudeMeters>1450</AltitudeMeters>
            <DistanceMeters>213764.39242876</DistanceMeters>
          </Trackpoint>
          <Trackpoint>
            <Time>2021-07-29T12:50:20.000Z</Time>
            <Position>
              <LatitudeDegrees>42.07208345644176006317138671875</LatitudeDegrees>
              <LongitudeDegrees>-2.78070668689906597137451171875</LongitudeDegrees>
            </Position>
            <AltitudeMeters>1449.5999755859375</AltitudeMeters>
            <DistanceMeters>213773.53773182</DistanceMeters>
          </Trackpoint>
          <Trackpoint>
            <Time>2021-07-29T12:50:27.000Z</Time>
            <Position>
              <LatitudeDegrees>42.0725279487669467926025390625</LatitudeDegrees>
              <LongitudeDegrees>-2.780392952263355255126953125</LongitudeDegrees>
            </Position>
            <AltitudeMeters>1448.800048828125</AltitudeMeters>
            <DistanceMeters>213829.3895973</DistanceMeters>
          </Trackpoint>
          <Trackpoint>
            <Time>2021-07-29T12:50:29.000Z</Time>
            <Position>
              <LatitudeDegrees>42.07252451218664646148681640625</LatitudeDegrees>
              <LongitudeDegrees>-2.7801782079041004180908203125</LongitudeDegrees>
            </Position>
            <AltitudeMeters>1447.800048828125</AltitudeMeters>
            <DistanceMeters>213847.13594752</DistanceMeters>
          </Trackpoint>
          <Trackpoint>
            <Time>2021-07-29T12:50:30.000Z</Time>
            <Position>
              <LatitudeDegrees>42.07249316386878490447998046875</LatitudeDegrees>
              <LongitudeDegrees>-2.7800725959241390228271484375</LongitudeDegrees>
            </Position>
            <AltitudeMeters>1446.5999755859375</AltitudeMeters>
            <DistanceMeters>213856.5325473</DistanceMeters>
          </Trackpoint>
          <Trackpoint>
            <Time>2021-07-29T12:50:32.000Z</Time>
            <Position>
              <LatitudeDegrees>42.07239945419132709503173828125</LatitudeDegrees>
              <LongitudeDegrees>-2.7798767946660518646240234375</LongitudeDegrees>
            </Position>
            <AltitudeMeters>1445.199951171875</AltitudeMeters>
            <DistanceMeters>213875.78055957</DistanceMeters>
          </Trackpoint>
          <Trackpoint>
            <Time>2021-07-29T12:50:39.000Z</Time>
            <Position>
              <LatitudeDegrees>42.07203115336596965789794921875</LatitudeDegrees>
              <LongitudeDegrees>-2.779230885207653045654296875</LongitudeDegrees>
            </Position>
            <AltitudeMeters>1444.5999755859375</AltitudeMeters>
            <DistanceMeters>213943.07235709</DistanceMeters>
          </Trackpoint>
          <Trackpoint>
            <Time>2021-07-29T12:50:40.000Z</Time>
            <Position>
              <LatitudeDegrees>42.071974240243434906005859375</LatitudeDegrees>
              <LongitudeDegrees>-2.7791428752243518829345703125</LongitudeDegrees>
            </Position>
            <AltitudeMeters>1444.199951171875</AltitudeMeters>
            <DistanceMeters>213952.71557892</DistanceMeters>
          </Trackpoint>
          <Trackpoint>
            <Time>2021-07-29T12:50:47.000Z</Time>
            <Position>
              <LatitudeDegrees>42.07155288197100162506103515625</LatitudeDegrees>
              <LongitudeDegrees>-2.77855538763105869293212890625</LongitudeDegrees>
            </Position>
            <AltitudeMeters>1444.199951171875</AltitudeMeters>
            <DistanceMeters>214020.20916827</DistanceMeters>
          </Trackpoint>
          <Trackpoint>
            <Time>2021-07-29T12:50:54.000Z</Time>
            <Position>
              <LatitudeDegrees>42.071178294718265533447265625</LatitudeDegrees>
              <LongitudeDegrees>-2.777881734073162078857421875</LongitudeDegrees>
            </Position>
            <AltitudeMeters>1444</AltitudeMeters>
            <DistanceMeters>214089.75067615</DistanceMeters>
          </Trackpoint>
          <Trackpoint>
            <Time>2021-07-29T12:51:01.000Z</Time>
            <Position>
              <LatitudeDegrees>42.07082751207053661346435546875</LatitudeDegrees>
              <LongitudeDegrees>-2.777195759117603302001953125</LongitudeDegrees>
            </Position>
            <AltitudeMeters>1445</AltitudeMeters>
            <DistanceMeters>214158.57298269</DistanceMeters>
          </Trackpoint>
          <Trackpoint>
            <Time>2021-07-29T12:51:03.000Z</Time>
            <Position>
              <LatitudeDegrees>42.070722319185733795166015625</LatitudeDegrees>
              <LongitudeDegrees>-2.7770044840872287750244140625</LongitudeDegrees>
            </Position>
            <AltitudeMeters>1445.4000244140625</AltitudeMeters>
            <DistanceMeters>214178.24098754</DistanceMeters>
          </Trackpoint>
          <Trackpoint>
            <Time>2021-07-29T12:51:07.000Z</Time>
            <Position>
              <LatitudeDegrees>42.07047949545085430145263671875</LatitudeDegrees>
              <LongitudeDegrees>-2.77665001340210437774658203125</LongitudeDegrees>
            </Position>
            <AltitudeMeters>1446.4000244140625</AltitudeMeters>
            <DistanceMeters>214218.09265833</DistanceMeters>
          </Trackpoint>
          <Trackpoint>
            <Time>2021-07-29T12:51:09.000Z</Time>
            <Position>
              <LatitudeDegrees>42.070357538759708404541015625</LatitudeDegrees>
              <LongitudeDegrees>-2.77648673392832279205322265625</LongitudeDegrees>
            </Position>
            <AltitudeMeters>1446.5999755859375</AltitudeMeters>
            <DistanceMeters>214237.23010435</DistanceMeters>
          </Trackpoint>
          <Trackpoint>
            <Time>2021-07-29T12:51:12.000Z</Time>
            <Position>
              <LatitudeDegrees>42.0702584646642208099365234375</LatitudeDegrees>
              <LongitudeDegrees>-2.77616084553301334381103515625</LongitudeDegrees>
            </Position>
            <AltitudeMeters>1445.199951171875</AltitudeMeters>
            <DistanceMeters>214266.32628497</DistanceMeters>
          </Trackpoint>
          <Trackpoint>
            <Time>2021-07-29T12:51:13.000Z</Time>
            <Position>
              <LatitudeDegrees>42.0702551119029521942138671875</LatitudeDegrees>
              <LongitudeDegrees>-2.77604567818343639373779296875</LongitudeDegrees>
            </Position>
            <AltitudeMeters>1443.5999755859375</AltitudeMeters>
            <DistanceMeters>214275.84889111</DistanceMeters>
          </Trackpoint>
          <Trackpoint>
            <Time>2021-07-29T12:51:14.000Z</Time>
            <Position>
              <LatitudeDegrees>42.07026542164385318756103515625</LatitudeDegrees>
              <LongitudeDegrees>-2.77593654580414295196533203125</LongitudeDegrees>
            </Position>
            <AltitudeMeters>1441.800048828125</AltitudeMeters>
            <DistanceMeters>214284.93873156</DistanceMeters>
          </Trackpoint>
          <Trackpoint>
            <Time>2021-07-29T12:51:16.000Z</Time>
            <Position>
              <LatitudeDegrees>42.070301212370395660400390625</LatitudeDegrees>
              <LongitudeDegrees>-2.7757374756038188934326171875</LongitudeDegrees>
            </Position>
            <AltitudeMeters>1440.4000244140625</AltitudeMeters>
            <DistanceMeters>214301.8617595</DistanceMeters>
          </Trackpoint>
          <Trackpoint>
            <Time>2021-07-29T12:51:17.000Z</Time>
            <Position>
              <LatitudeDegrees>42.07031437195837497711181640625</LatitudeDegrees>
              <LongitudeDegrees>-2.775652818381786346435546875</LongitudeDegrees>
            </Position>
            <AltitudeMeters>1438.800048828125</AltitudeMeters>
            <DistanceMeters>214309.00711129</DistanceMeters>
          </Trackpoint>
          <Trackpoint>
            <Time>2021-07-29T12:51:18.000Z</Time>
            <Position>
              <LatitudeDegrees>42.07032124511897563934326171875</LatitudeDegrees>
              <LongitudeDegrees>-2.77557964436709880828857421875</LongitudeDegrees>
            </Position>
            <AltitudeMeters>1437.5999755859375</AltitudeMeters>
            <DistanceMeters>214315.10142867</DistanceMeters>
          </Trackpoint>
          <Trackpoint>
            <Time>2021-07-29T12:51:25.000Z</Time>
            <Position>
              <LatitudeDegrees>42.0703312195837497711181640625</LatitudeDegrees>
              <LongitudeDegrees>-2.7753324620425701141357421875</LongitudeDegrees>
            </Position>
            <AltitudeMeters>1436.5999755859375</AltitudeMeters>
            <DistanceMeters>214335.55425956</DistanceMeters>
          </Trackpoint>
          <Trackpoint>
            <Time>2021-07-29T12:51:29.000Z</Time>
            <Position>
              <LatitudeDegrees>42.0703245140612125396728515625</LatitudeDegrees>
              <LongitudeDegrees>-2.7751597948372364044189453125</LongitudeDegrees>
            </Position>
            <AltitudeMeters>1435</AltitudeMeters>
            <DistanceMeters>214349.83990717</DistanceMeters>
          </Trackpoint>
          <Trackpoint>
            <Time>2021-07-29T12:51:31.000Z</Time>
            <Position>
              <LatitudeDegrees>42.0703049004077911376953125</LatitudeDegrees>
              <LongitudeDegrees>-2.77501889504492282867431640625</LongitudeDegrees>
            </Position>
            <AltitudeMeters>1433</AltitudeMeters>
            <DistanceMeters>214361.68436865</DistanceMeters>
          </Trackpoint>
          <Trackpoint>
            <Time>2021-07-29T12:51:32.000Z</Time>
            <Position>
              <LatitudeDegrees>42.07029241137206554412841796875</LatitudeDegrees>
              <LongitudeDegrees>-2.774935327470302581787109375</LongitudeDegrees>
            </Position>
            <AltitudeMeters>1431.800048828125</AltitudeMeters>
            <DistanceMeters>214368.72789333</DistanceMeters>
          </Trackpoint>
          <Trackpoint>
            <Time>2021-07-29T12:51:34.000Z</Time>
            <Position>
              <LatitudeDegrees>42.070263326168060302734375</LatitudeDegrees>
              <LongitudeDegrees>-2.77474187314510345458984375</LongitudeDegrees>
            </Position>
            <AltitudeMeters>1430.199951171875</AltitudeMeters>
            <DistanceMeters>214385.0359837</DistanceMeters>
          </Trackpoint>
          <Trackpoint>
            <Time>2021-07-29T12:51:35.000Z</Time>
            <Position>
              <LatitudeDegrees>42.07024631090462207794189453125</LatitudeDegrees>
              <LongitudeDegrees>-2.7746337465941905975341796875</LongitudeDegrees>
            </Position>
            <AltitudeMeters>1429.199951171875</AltitudeMeters>
            <DistanceMeters>214394.16844153</DistanceMeters>
          </Trackpoint>
          <Trackpoint>
            <Time>2021-07-29T12:51:36.000Z</Time>
            <Position>
              <LatitudeDegrees>42.07023005001246929168701171875</LatitudeDegrees>
              <LongitudeDegrees>-2.77451816014945507049560546875</LongitudeDegrees>
            </Position>
            <AltitudeMeters>1427.800048828125</AltitudeMeters>
            <DistanceMeters>214403.88861076</DistanceMeters>
          </Trackpoint>
          <Trackpoint>
            <Time>2021-07-29T12:51:38.000Z</Time>
            <Position>
              <LatitudeDegrees>42.07021437585353851318359375</LatitudeDegrees>
              <LongitudeDegrees>-2.7742646075785160064697265625</LongitudeDegrees>
            </Position>
            <AltitudeMeters>1425.5999755859375</AltitudeMeters>
            <DistanceMeters>214424.91035857</DistanceMeters>
          </Trackpoint>
          <Trackpoint>
            <Time>2021-07-29T12:51:39.000Z</Time>
            <Position>
              <LatitudeDegrees>42.07021563313901424407958984375</LatitudeDegrees>
              <LongitudeDegrees>-2.77412789873778820037841796875</LongitudeDegrees>
            </Position>
            <AltitudeMeters>1424</AltitudeMeters>
            <DistanceMeters>214436.20615337</DistanceMeters>
          </Trackpoint>
          <Trackpoint>
            <Time>2021-07-29T12:51:40.000Z</Time>
            <Position>
              <LatitudeDegrees>42.07022150047123432159423828125</LatitudeDegrees>
              <LongitudeDegrees>-2.77398523874580860137939453125</LongitudeDegrees>
            </Position>
            <AltitudeMeters>1422.5999755859375</AltitudeMeters>
            <DistanceMeters>214448.01090409</DistanceMeters>
          </Trackpoint>
          <Trackpoint>
            <Time>2021-07-29T12:51:41.000Z</Time>
            <Position>
              <LatitudeDegrees>42.07023206166923046112060546875</LatitudeDegrees>
              <LongitudeDegrees>-2.7738378010690212249755859375</LongitudeDegrees>
            </Position>
            <AltitudeMeters>1420.800048828125</AltitudeMeters>
            <DistanceMeters>214460.24907585</DistanceMeters>
          </Trackpoint>
          <Trackpoint>
            <Time>2021-07-29T12:51:42.000Z</Time>
            <Position>
              <LatitudeDegrees>42.0702467299997806549072265625</LatitudeDegrees>
              <LongitudeDegrees>-2.7736859209835529327392578125</LongitudeDegrees>
            </Position>
            <AltitudeMeters>1419.800048828125</AltitudeMeters>
            <DistanceMeters>214472.902981</DistanceMeters>
          </Trackpoint>
          <Trackpoint>
            <Time>2021-07-29T12:51:44.000Z</Time>
            <Position>
              <LatitudeDegrees>42.0702807605266571044921875</LatitudeDegrees>
              <LongitudeDegrees>-2.77336665429174900054931640625</LongitudeDegrees>
            </Position>
            <AltitudeMeters>1418</AltitudeMeters>
            <DistanceMeters>214499.55183335</DistanceMeters>
          </Trackpoint>
          <Trackpoint>
            <Time>2021-07-29T12:51:46.000Z</Time>
            <Position>
              <LatitudeDegrees>42.07031521014869213104248046875</LatitudeDegrees>
              <LongitudeDegrees>-2.7730272710323333740234375</LongitudeDegrees>
            </Position>
            <AltitudeMeters>1416.199951171875</AltitudeMeters>
            <DistanceMeters>214527.8535266</DistanceMeters>
          </Trackpoint>
          <Trackpoint>
            <Time>2021-07-29T12:51:48.000Z</Time>
            <Position>
              <LatitudeDegrees>42.07036969251930713653564453125</LatitudeDegrees>
              <LongitudeDegrees>-2.77268654666841030120849609375</LongitudeDegrees>
            </Position>
            <AltitudeMeters>1414.5999755859375</AltitudeMeters>
            <DistanceMeters>214556.65038424</DistanceMeters>
          </Trackpoint>
          <Trackpoint>
            <Time>2021-07-29T12:51:50.000Z</Time>
            <Position>
              <LatitudeDegrees>42.0704710297286510467529296875</LatitudeDegrees>
              <LongitudeDegrees>-2.7723716385662555694580078125</LongitudeDegrees>
            </Position>
            <AltitudeMeters>1413</AltitudeMeters>
            <DistanceMeters>214585.00801809</DistanceMeters>
          </Trackpoint>
          <Trackpoint>
            <Time>2021-07-29T12:51:51.000Z</Time>
            <Position>
              <LatitudeDegrees>42.0705360732972621917724609375</LatitudeDegrees>
              <LongitudeDegrees>-2.7722291462123394012451171875</LongitudeDegrees>
            </Position>
            <AltitudeMeters>1411.4000244140625</AltitudeMeters>
            <DistanceMeters>214598.82877086</DistanceMeters>
          </Trackpoint>
          <Trackpoint>
            <Time>2021-07-29T12:51:52.000Z</Time>
            <Position>
              <LatitudeDegrees>42.0706014521420001983642578125</LatitudeDegrees>
              <LongitudeDegrees>-2.77209210209548473358154296875</LongitudeDegrees>
            </Position>
            <AltitudeMeters>1410.4000244140625</AltitudeMeters>
            <DistanceMeters>214612.28839172</DistanceMeters>
          </Trackpoint>
          <Trackpoint>
            <Time>2021-07-29T12:51:53.000Z</Time>
            <Position>
              <LatitudeDegrees>42.07065719179809093475341796875</LatitudeDegrees>
              <LongitudeDegrees>-2.7719528786838054656982421875</LongitudeDegrees>
            </Position>
            <AltitudeMeters>1409.800048828125</AltitudeMeters>
            <DistanceMeters>214625.35793364</DistanceMeters>
          </Trackpoint>
          <Trackpoint>
            <Time>2021-07-29T12:51:54.000Z</Time>
            <Position>
              <LatitudeDegrees>42.07069658674299716949462890625</LatitudeDegrees>
              <LongitudeDegrees>-2.7718103863298892974853515625</LongitudeDegrees>
            </Position>
            <AltitudeMeters>1409.199951171875</AltitudeMeters>
            <DistanceMeters>214637.92088218</DistanceMeters>
          </Trackpoint>
          <Trackpoint>
            <Time>2021-07-29T12:51:56.000Z</Time>
            <Position>
              <LatitudeDegrees>42.07071284763514995574951171875</LatitudeDegrees>
              <LongitudeDegrees>-2.77152146212756633758544921875</LongitudeDegrees>
            </Position>
            <AltitudeMeters>1407.5999755859375</AltitudeMeters>
            <DistanceMeters>214661.86063702</DistanceMeters>
          </Trackpoint>
          <Trackpoint>
            <Time>2021-07-29T12:51:59.000Z</Time>
            <Position>
              <LatitudeDegrees>42.07058711908757686614990234375</LatitudeDegrees>
              <LongitudeDegrees>-2.77113723568618297576904296875</LongitudeDegrees>
            </Position>
            <AltitudeMeters>1405</AltitudeMeters>
            <DistanceMeters>214696.55358773</DistanceMeters>
          </Trackpoint>
          <Trackpoint>
            <Time>2021-07-29T12:52:00.000Z</Time>
            <Position>
              <LatitudeDegrees>42.07052291370928287506103515625</LatitudeDegrees>
              <LongitudeDegrees>-2.7710191346704959869384765625</LongitudeDegrees>
            </Position>
            <AltitudeMeters>1403</AltitudeMeters>
            <DistanceMeters>214708.64851387</DistanceMeters>
          </Trackpoint>
          <Trackpoint>
            <Time>2021-07-29T12:52:01.000Z</Time>
            <Position>
              <LatitudeDegrees>42.07045485265552997589111328125</LatitudeDegrees>
              <LongitudeDegrees>-2.77090069837868213653564453125</LongitudeDegrees>
            </Position>
            <AltitudeMeters>1401.5999755859375</AltitudeMeters>
            <DistanceMeters>214721.02389655</DistanceMeters>
          </Trackpoint>
          <Trackpoint>
            <Time>2021-07-29T12:52:03.000Z</Time>
            <Position>
              <LatitudeDegrees>42.070306241512298583984375</LatitudeDegrees>
              <LongitudeDegrees>-2.77066449634730815887451171875</LongitudeDegrees>
            </Position>
            <AltitudeMeters>1400.199951171875</AltitudeMeters>
            <DistanceMeters>214746.60603407</DistanceMeters>
          </Trackpoint>
          <Trackpoint>
            <Time>2021-07-29T12:52:05.000Z</Time>
            <Position>
              <LatitudeDegrees>42.0701498351991176605224609375</LatitudeDegrees>
              <LongitudeDegrees>-2.770417816936969757080078125</LongitudeDegrees>
            </Position>
            <AltitudeMeters>1397.5999755859375</AltitudeMeters>
            <DistanceMeters>214773.40980082</DistanceMeters>
          </Trackpoint>
          <Trackpoint>
            <Time>2021-07-29T12:52:06.000Z</Time>
            <Position>
              <LatitudeDegrees>42.070073224604129791259765625</LatitudeDegrees>
              <LongitudeDegrees>-2.770288400352001190185546875</LongitudeDegrees>
            </Position>
            <AltitudeMeters>1396.5999755859375</AltitudeMeters>
            <DistanceMeters>214787.08605665</DistanceMeters>
          </Trackpoint>
          <Trackpoint>
            <Time>2021-07-29T12:52:07.000Z</Time>
            <Position>
              <LatitudeDegrees>42.070002146065235137939453125</LatitudeDegrees>
              <LongitudeDegrees>-2.77015236206352710723876953125</LongitudeDegrees>
            </Position>
            <AltitudeMeters>1394.4000244140625</AltitudeMeters>
            <DistanceMeters>214800.83113793</DistanceMeters>
          </Trackpoint>
          <Trackpoint>
            <Time>2021-07-29T12:52:08.000Z</Time>
            <Position>
              <LatitudeDegrees>42.06994104199111461639404296875</LatitudeDegrees>
              <LongitudeDegrees>-2.7700082771480083465576171875</LongitudeDegrees>
            </Position>
            <AltitudeMeters>1393.4000244140625</AltitudeMeters>
            <DistanceMeters>214814.54135569</DistanceMeters>
          </Trackpoint>
          <Trackpoint>
            <Time>2021-07-29T12:52:10.000Z</Time>
            <Position>
              <LatitudeDegrees>42.06985093653202056884765625</LatitudeDegrees>
              <LongitudeDegrees>-2.76970325969159603118896484375</LongitudeDegrees>
            </Position>
            <AltitudeMeters>1392.199951171875</AltitudeMeters>
            <DistanceMeters>214841.66478335</DistanceMeters>
          </Trackpoint>
          <Trackpoint>
            <Time>2021-07-29T12:52:12.000Z</Time>
            <Position>
              <LatitudeDegrees>42.0697860606014728546142578125</LatitudeDegrees>
              <LongitudeDegrees>-2.76938818395137786865234375</LongitudeDegrees>
            </Position>
            <AltitudeMeters>1390.800048828125</AltitudeMeters>
            <DistanceMeters>214868.68012785</DistanceMeters>
          </Trackpoint>
          <Trackpoint>
            <Time>2021-07-29T12:52:14.000Z</Time>
            <Position>
              <LatitudeDegrees>42.06972143612802028656005859375</LatitudeDegrees>
              <LongitudeDegrees>-2.769068665802478790283203125</LongitudeDegrees>
            </Position>
            <AltitudeMeters>1389.4000244140625</AltitudeMeters>
            <DistanceMeters>214896.04188177</DistanceMeters>
          </Trackpoint>
          <Trackpoint>
            <Time>2021-07-29T12:52:16.000Z</Time>
            <Position>
              <LatitudeDegrees>42.06965572200715541839599609375</LatitudeDegrees>
              <LongitudeDegrees>-2.76874839328229427337646484375</LongitudeDegrees>
            </Position>
            <AltitudeMeters>1387.800048828125</AltitudeMeters>
            <DistanceMeters>214923.49588732</DistanceMeters>
          </Trackpoint>
          <Trackpoint>
            <Time>2021-07-29T12:52:19.000Z</Time>
            <Position>
              <LatitudeDegrees>42.06957542337477207183837890625</LatitudeDegrees>
              <LongitudeDegrees>-2.7682712115347385406494140625</LongitudeDegrees>
            </Position>
            <AltitudeMeters>1387.4000244140625</AltitudeMeters>
            <DistanceMeters>214963.92235582</DistanceMeters>
          </Trackpoint>
          <Trackpoint>
            <Time>2021-07-29T12:52:24.000Z</Time>
            <Position>
              <LatitudeDegrees>42.06964038312435150146484375</LatitudeDegrees>
              <LongitudeDegrees>-2.7674507908523082733154296875</LongitudeDegrees>
            </Position>
            <AltitudeMeters>1387.5999755859375</AltitudeMeters>
            <DistanceMeters>215032.09235098</DistanceMeters>
          </Trackpoint>
          <Trackpoint>
            <Time>2021-07-29T12:52:25.000Z</Time>
            <Position>
              <LatitudeDegrees>42.0696853101253509521484375</LatitudeDegrees>
              <LongitudeDegrees>-2.76728876866400241851806640625</LongitudeDegrees>
            </Position>
            <AltitudeMeters>1386.4000244140625</AltitudeMeters>
            <DistanceMeters>215046.3821067</DistanceMeters>
          </Trackpoint>
          <Trackpoint>
            <Time>2021-07-29T12:52:26.000Z</Time>
            <Position>
              <LatitudeDegrees>42.069740630686283111572265625</LatitudeDegrees>
              <LongitudeDegrees>-2.76713152416050434112548828125</LongitudeDegrees>
            </Position>
            <AltitudeMeters>1384.800048828125</AltitudeMeters>
            <DistanceMeters>215060.75911786</DistanceMeters>
          </Trackpoint>
          <Trackpoint>
            <Time>2021-07-29T12:52:27.000Z</Time>
            <Position>
              <LatitudeDegrees>42.06980659626424312591552734375</LatitudeDegrees>
              <LongitudeDegrees>-2.766980230808258056640625</LongitudeDegrees>
            </Position>
            <AltitudeMeters>1383.5999755859375</AltitudeMeters>
            <DistanceMeters>215075.25559809</DistanceMeters>
          </Trackpoint>
          <Trackpoint>
            <Time>2021-07-29T12:52:29.000Z</Time>
            <Position>
              <LatitudeDegrees>42.069958560168743133544921875</LatitudeDegrees>
              <LongitudeDegrees>-2.7666873671114444732666015625</LongitudeDegrees>
            </Position>
            <AltitudeMeters>1381.800048828125</AltitudeMeters>
            <DistanceMeters>215104.77802936</DistanceMeters>
          </Trackpoint>
          <Trackpoint>
            <Time>2021-07-29T12:52:30.000Z</Time>
            <Position>
              <LatitudeDegrees>42.0700301416218280792236328125</LatitudeDegrees>
              <LongitudeDegrees>-2.7665364928543567657470703125</LongitudeDegrees>
            </Position>
            <AltitudeMeters>1380.4000244140625</AltitudeMeters>
            <DistanceMeters>215119.57201337</DistanceMeters>
          </Trackpoint>
          <Trackpoint>
            <Time>2021-07-29T12:52:31.000Z</Time>
            <Position>
              <LatitudeDegrees>42.07008789293467998504638671875</LatitudeDegrees>
              <LongitudeDegrees>-2.7663769014179706573486328125</LongitudeDegrees>
            </Position>
            <AltitudeMeters>1379.199951171875</AltitudeMeters>
            <DistanceMeters>215134.24125744</DistanceMeters>
          </Trackpoint>
          <Trackpoint>
            <Time>2021-07-29T12:52:33.000Z</Time>
            <Position>
              <LatitudeDegrees>42.07015612162649631500244140625</LatitudeDegrees>
              <LongitudeDegrees>-2.76604087091982364654541015625</LongitudeDegrees>
            </Position>
            <AltitudeMeters>1377.800048828125</AltitudeMeters>
            <DistanceMeters>215163.02478491</DistanceMeters>
          </Trackpoint>
          <Trackpoint>
            <Time>2021-07-29T12:52:36.000Z</Time>
            <Position>
              <LatitudeDegrees>42.07017540000379085540771484375</LatitudeDegrees>
              <LongitudeDegrees>-2.76551566086709499359130859375</LongitudeDegrees>
            </Position>
            <AltitudeMeters>1378</AltitudeMeters>
            <DistanceMeters>215206.47184672</DistanceMeters>
          </Trackpoint>
          <Trackpoint>
            <Time>2021-07-29T12:52:41.000Z</Time>
            <Position>
              <LatitudeDegrees>42.070233821868896484375</LatitudeDegrees>
              <LongitudeDegrees>-2.76463254354894161224365234375</LongitudeDegrees>
            </Position>
            <AltitudeMeters>1377.199951171875</AltitudeMeters>
            <DistanceMeters>215279.72604187</DistanceMeters>
          </Trackpoint>
          <Trackpoint>
            <Time>2021-07-29T12:52:43.000Z</Time>
            <Position>
              <LatitudeDegrees>42.0703278668224811553955078125</LatitudeDegrees>
              <LongitudeDegrees>-2.76428997516632080078125</LongitudeDegrees>
            </Position>
            <AltitudeMeters>1376.800048828125</AltitudeMeters>
            <DistanceMeters>215309.90327086</DistanceMeters>
          </Trackpoint>
          <Trackpoint>
            <Time>2021-07-29T12:52:45.000Z</Time>
            <Position>
              <LatitudeDegrees>42.0704586245119571685791015625</LatitudeDegrees>
              <LongitudeDegrees>-2.76395595632493495941162109375</LongitudeDegrees>
            </Position>
            <AltitudeMeters>1375.4000244140625</AltitudeMeters>
            <DistanceMeters>215341.10272791</DistanceMeters>
          </Trackpoint>
          <Trackpoint>
            <Time>2021-07-29T12:52:47.000Z</Time>
            <Position>
              <LatitudeDegrees>42.070601284503936767578125</LatitudeDegrees>
              <LongitudeDegrees>-2.76361615397036075592041015625</LongitudeDegrees>
            </Position>
            <AltitudeMeters>1374</AltitudeMeters>
            <DistanceMeters>215373.35684419</DistanceMeters>
          </Trackpoint>
          <Trackpoint>
            <Time>2021-07-29T12:52:48.000Z</Time>
            <Position>
              <LatitudeDegrees>42.070671357214450836181640625</LatitudeDegrees>
              <LongitudeDegrees>-2.76345069520175457000732421875</LongitudeDegrees>
            </Position>
            <AltitudeMeters>1372.5999755859375</AltitudeMeters>
            <DistanceMeters>215389.09574685</DistanceMeters>
          </Trackpoint>
          <Trackpoint>
            <Time>2021-07-29T12:52:49.000Z</Time>
            <Position>
              <LatitudeDegrees>42.07074168138206005096435546875</LatitudeDegrees>
              <LongitudeDegrees>-2.7632947079837322235107421875</LongitudeDegrees>
            </Position>
            <AltitudeMeters>1371.4000244140625</AltitudeMeters>
            <DistanceMeters>215404.17448336</DistanceMeters>
          </Trackpoint>
          <Trackpoint>
            <Time>2021-07-29T12:52:51.000Z</Time>
            <Position>
              <LatitudeDegrees>42.07090236246585845947265625</LatitudeDegrees>
              <LongitudeDegrees>-2.76301131583750247955322265625</LongitudeDegrees>
            </Position>
            <AltitudeMeters>1369.4000244140625</AltitudeMeters>
            <DistanceMeters>215433.63736252</DistanceMeters>
          </Trackpoint>
          <Trackpoint>
            <Time>2021-07-29T12:52:53.000Z</Time>
            <Position>
              <LatitudeDegrees>42.07110361196100711822509765625</LatitudeDegrees>
              <LongitudeDegrees>-2.76275969110429286956787109375</LongitudeDegrees>
            </Position>
            <AltitudeMeters>1367.199951171875</AltitudeMeters>
            <DistanceMeters>215464.19787113</DistanceMeters>
          </Trackpoint>
          <Trackpoint>
            <Time>2021-07-29T12:52:54.000Z</Time>
            <Position>
              <LatitudeDegrees>42.07121307961642742156982421875</LatitudeDegrees>
              <LongitudeDegrees>-2.7626389078795909881591796875</LongitudeDegrees>
            </Position>
            <AltitudeMeters>1366</AltitudeMeters>
            <DistanceMeters>215479.94709777</DistanceMeters>
          </Trackpoint>
          <Trackpoint>
            <Time>2021-07-29T12:52:55.000Z</Time>
            <Position>
              <LatitudeDegrees>42.07132237963378429412841796875</LatitudeDegrees>
              <LongitudeDegrees>-2.7625151909887790679931640625</LongitudeDegrees>
            </Position>
            <AltitudeMeters>1363.199951171875</AltitudeMeters>
            <DistanceMeters>215495.83646237</DistanceMeters>
          </Trackpoint>
          <Trackpoint>
            <Time>2021-07-29T12:52:56.000Z</Time>
            <Position>
              <LatitudeDegrees>42.0714289136230945587158203125</LatitudeDegrees>
              <LongitudeDegrees>-2.76238552294671535491943359375</LongitudeDegrees>
            </Position>
            <AltitudeMeters>1361</AltitudeMeters>
            <DistanceMeters>215511.81678032</DistanceMeters>
          </Trackpoint>
          <Trackpoint>
            <Time>2021-07-29T12:52:57.000Z</Time>
            <Position>
              <LatitudeDegrees>42.07152999937534332275390625</LatitudeDegrees>
              <LongitudeDegrees>-2.76224705390632152557373046875</LongitudeDegrees>
            </Position>
            <AltitudeMeters>1359.199951171875</AltitudeMeters>
            <DistanceMeters>215527.86251307</DistanceMeters>
          </Trackpoint>
          <Trackpoint>
            <Time>2021-07-29T12:52:58.000Z</Time>
            <Position>
              <LatitudeDegrees>42.07162161357700824737548828125</LatitudeDegrees>
              <LongitudeDegrees>-2.762096934020519256591796875</LongitudeDegrees>
            </Position>
            <AltitudeMeters>1358.4000244140625</AltitudeMeters>
            <DistanceMeters>215543.91893492</DistanceMeters>
          </Trackpoint>
          <Trackpoint>
            <Time>2021-07-29T12:52:59.000Z</Time>
            <Position>
              <LatitudeDegrees>42.07170543260872364044189453125</LatitudeDegrees>
              <LongitudeDegrees>-2.76193927042186260223388671875</LongitudeDegrees>
            </Position>
            <AltitudeMeters>1357.5999755859375</AltitudeMeters>
            <DistanceMeters>215559.94129564</DistanceMeters>
          </Trackpoint>
          <Trackpoint>
            <Time>2021-07-29T12:53:00.000Z</Time>
            <Position>
              <LatitudeDegrees>42.071789167821407318115234375</LatitudeDegrees>
              <LongitudeDegrees>-2.761782445013523101806640625</LongitudeDegrees>
            </Position>
            <AltitudeMeters>1356.199951171875</AltitudeMeters>
            <DistanceMeters>215575.90182372</DistanceMeters>
          </Trackpoint>
          <Trackpoint>
            <Time>2021-07-29T12:53:02.000Z</Time>
            <Position>
              <LatitudeDegrees>42.07198195159435272216796875</LatitudeDegrees>
              <LongitudeDegrees>-2.76149335317313671112060546875</LongitudeDegrees>
            </Position>
            <AltitudeMeters>1355</AltitudeMeters>
            <DistanceMeters>215608.00960544</DistanceMeters>
          </Trackpoint>
          <Trackpoint>
            <Time>2021-07-29T12:53:04.000Z</Time>
            <Position>
              <LatitudeDegrees>42.07220046781003475189208984375</LatitudeDegrees>
              <LongitudeDegrees>-2.76125027798116207122802734375</LongitudeDegrees>
            </Position>
            <AltitudeMeters>1353</AltitudeMeters>
            <DistanceMeters>215639.55074559</DistanceMeters>
          </Trackpoint>
          <Trackpoint>
            <Time>2021-07-29T12:53:06.000Z</Time>
            <Position>
              <LatitudeDegrees>42.07241789437830448150634765625</LatitudeDegrees>
              <LongitudeDegrees>-2.761050872504711151123046875</LongitudeDegrees>
            </Position>
            <AltitudeMeters>1351.5999755859375</AltitudeMeters>
            <DistanceMeters>215668.82637736</DistanceMeters>
          </Trackpoint>
          <Trackpoint>
            <Time>2021-07-29T12:53:08.000Z</Time>
            <Position>
              <LatitudeDegrees>42.072654850780963897705078125</LatitudeDegrees>
              <LongitudeDegrees>-2.76094132103025913238525390625</LongitudeDegrees>
            </Position>
            <AltitudeMeters>1350.4000244140625</AltitudeMeters>
            <DistanceMeters>215696.70987753</DistanceMeters>
          </Trackpoint>
          <Trackpoint>
            <Time>2021-07-29T12:53:10.000Z</Time>
            <Position>
              <LatitudeDegrees>42.07290924154222011566162109375</LatitudeDegrees>
              <LongitudeDegrees>-2.76091684587299823760986328125</LongitudeDegrees>
            </Position>
            <AltitudeMeters>1348.800048828125</AltitudeMeters>
            <DistanceMeters>215725.09631516</DistanceMeters>
          </Trackpoint>
          <Trackpoint>
            <Time>2021-07-29T12:53:11.000Z</Time>
            <Position>
              <LatitudeDegrees>42.07303044386208057403564453125</LatitudeDegrees>
              <LongitudeDegrees>-2.76093042455613613128662109375</LongitudeDegrees>
            </Position>
            <AltitudeMeters>1347.800048828125</AltitudeMeters>
            <DistanceMeters>215738.63286979</DistanceMeters>
          </Trackpoint>
          <Trackpoint>
            <Time>2021-07-29T12:53:14.000Z</Time>
            <Position>
              <LatitudeDegrees>42.07331542856991291046142578125</LatitudeDegrees>
              <LongitudeDegrees>-2.76111901737749576568603515625</LongitudeDegrees>
            </Position>
            <AltitudeMeters>1346.5999755859375</AltitudeMeters>
            <DistanceMeters>215773.97258813</DistanceMeters>
          </Trackpoint>
          <Trackpoint>
            <Time>2021-07-29T12:53:20.000Z</Time>
            <Position>
              <LatitudeDegrees>42.07370518706738948822021484375</LatitudeDegrees>
              <LongitudeDegrees>-2.76169787161052227020263671875</LongitudeDegrees>
            </Position>
            <AltitudeMeters>1346.4000244140625</AltitudeMeters>
            <DistanceMeters>215838.54049597</DistanceMeters>
          </Trackpoint>
          <Trackpoint>
            <Time>2021-07-29T12:53:22.000Z</Time>
            <Position>
              <LatitudeDegrees>42.0738841407001018524169921875</LatitudeDegrees>
              <LongitudeDegrees>-2.7616749890148639678955078125</LongitudeDegrees>
            </Position>
            <AltitudeMeters>1343.800048828125</AltitudeMeters>
            <DistanceMeters>215858.54807675</DistanceMeters>
          </Trackpoint>
          <Trackpoint>
            <Time>2021-07-29T12:53:23.000Z</Time>
            <Position>
              <LatitudeDegrees>42.07396636717021465301513671875</LatitudeDegrees>
              <LongitudeDegrees>-2.7616102807223796844482421875</LongitudeDegrees>
            </Position>
            <AltitudeMeters>1341.800048828125</AltitudeMeters>
            <DistanceMeters>215869.14728338</DistanceMeters>
          </Trackpoint>
          <Trackpoint>
            <Time>2021-07-29T12:53:24.000Z</Time>
            <Position>
              <LatitudeDegrees>42.074034847319126129150390625</LatitudeDegrees>
              <LongitudeDegrees>-2.7615150623023509979248046875</LongitudeDegrees>
            </Position>
            <AltitudeMeters>1340.800048828125</AltitudeMeters>
            <DistanceMeters>215880.10094147</DistanceMeters>
          </Trackpoint>
          <Trackpoint>
            <Time>2021-07-29T12:53:26.000Z</Time>
            <Position>
              <LatitudeDegrees>42.07412679679691791534423828125</LatitudeDegrees>
              <LongitudeDegrees>-2.76126469485461711883544921875</LongitudeDegrees>
            </Position>
            <AltitudeMeters>1339.4000244140625</AltitudeMeters>
            <DistanceMeters>215903.17893768</DistanceMeters>
          </Trackpoint>
          <Trackpoint>
            <Time>2021-07-29T12:53:27.000Z</Time>
            <Position>
              <LatitudeDegrees>42.07416635937988758087158203125</LatitudeDegrees>
              <LongitudeDegrees>-2.761125974357128143310546875</LongitudeDegrees>
            </Position>
            <AltitudeMeters>1338.5999755859375</AltitudeMeters>
            <DistanceMeters>215915.45652156</DistanceMeters>
          </Trackpoint>
          <Trackpoint>
            <Time>2021-07-29T12:53:28.000Z</Time>
            <Position>
              <LatitudeDegrees>42.07421061582863330841064453125</LatitudeDegrees>
              <LongitudeDegrees>-2.76098356582224369049072265625</LongitudeDegrees>
            </Position>
            <AltitudeMeters>1337.800048828125</AltitudeMeters>
            <DistanceMeters>215928.21135818</DistanceMeters>
          </Trackpoint>
          <Trackpoint>
            <Time>2021-07-29T12:53:29.000Z</Time>
            <Position>
              <LatitudeDegrees>42.07426358945667743682861328125</LatitudeDegrees>
              <LongitudeDegrees>-2.7608408220112323760986328125</LongitudeDegrees>
            </Position>
            <AltitudeMeters>1336.5999755859375</AltitudeMeters>
            <DistanceMeters>215941.39612218</DistanceMeters>
          </Trackpoint>
          <Trackpoint>
            <Time>2021-07-29T12:53:30.000Z</Time>
            <Position>
              <LatitudeDegrees>42.07433181814849376678466796875</LatitudeDegrees>
              <LongitudeDegrees>-2.76070578955113887786865234375</LongitudeDegrees>
            </Position>
            <AltitudeMeters>1335.199951171875</AltitudeMeters>
            <DistanceMeters>215954.89125396</DistanceMeters>
          </Trackpoint>
          <Trackpoint>
            <Time>2021-07-29T12:53:31.000Z</Time>
            <Position>
              <LatitudeDegrees>42.074419744312763214111328125</LatitudeDegrees>
              <LongitudeDegrees>-2.76058877818286418914794921875</LongitudeDegrees>
            </Position>
            <AltitudeMeters>1334.199951171875</AltitudeMeters>
            <DistanceMeters>215968.64717093</DistanceMeters>
          </Trackpoint>
          <Trackpoint>
            <Time>2021-07-29T12:53:33.000Z</Time>
            <Position>
              <LatitudeDegrees>42.07464362494647502899169921875</LatitudeDegrees>
              <LongitudeDegrees>-2.76043304242193698883056640625</LongitudeDegrees>
            </Position>
            <AltitudeMeters>1332.5999755859375</AltitudeMeters>
            <DistanceMeters>215996.69116276</DistanceMeters>
          </Trackpoint>
          <Trackpoint>
            <Time>2021-07-29T12:53:34.000Z</Time>
            <Position>
              <LatitudeDegrees>42.07476549781858921051025390625</LatitudeDegrees>
              <LongitudeDegrees>-2.76038409210741519927978515625</LongitudeDegrees>
            </Position>
            <AltitudeMeters>1331.4000244140625</AltitudeMeters>
            <DistanceMeters>216010.84535917</DistanceMeters>
          </Trackpoint>
          <Trackpoint>
            <Time>2021-07-29T12:53:35.000Z</Time>
            <Position>
              <LatitudeDegrees>42.07488678395748138427734375</LatitudeDegrees>
              <LongitudeDegrees>-2.76033262722194194793701171875</LongitudeDegrees>
            </Position>
            <AltitudeMeters>1330.4000244140625</AltitudeMeters>
            <DistanceMeters>216024.99827957</DistanceMeters>
          </Trackpoint>
          <Trackpoint>
            <Time>2021-07-29T12:53:37.000Z</Time>
            <Position>
              <LatitudeDegrees>42.0751032046973705291748046875</LatitudeDegrees>
              <LongitudeDegrees>-2.760161720216274261474609375</LongitudeDegrees>
            </Position>
            <AltitudeMeters>1329</AltitudeMeters>
            <DistanceMeters>216052.9196445</DistanceMeters>
          </Trackpoint>
          <Trackpoint>
            <Time>2021-07-29T12:53:39.000Z</Time>
            <Position>
              <LatitudeDegrees>42.0752601139247417449951171875</LatitudeDegrees>
              <LongitudeDegrees>-2.759904228150844573974609375</LongitudeDegrees>
            </Position>
            <AltitudeMeters>1327.199951171875</AltitudeMeters>
            <DistanceMeters>216080.44296394</DistanceMeters>
          </Trackpoint>
          <Trackpoint>
            <Time>2021-07-29T12:53:40.000Z</Time>
            <Position>
              <LatitudeDegrees>42.07532373256981372833251953125</LatitudeDegrees>
              <LongitudeDegrees>-2.75976332835853099822998046875</LongitudeDegrees>
            </Position>
            <AltitudeMeters>1326.5999755859375</AltitudeMeters>
            <DistanceMeters>216094.06795243</DistanceMeters>
          </Trackpoint>
          <Trackpoint>
            <Time>2021-07-29T12:53:42.000Z</Time>
            <Position>
              <LatitudeDegrees>42.07545004785060882568359375</LatitudeDegrees>
              <LongitudeDegrees>-2.75948186405003070831298828125</LongitudeDegrees>
            </Position>
            <AltitudeMeters>1326.199951171875</AltitudeMeters>
            <DistanceMeters>216121.24127301</DistanceMeters>
          </Trackpoint>
          <Trackpoint>
            <Time>2021-07-29T12:53:44.000Z</Time>
            <Position>
              <LatitudeDegrees>42.0755581744015216827392578125</LatitudeDegrees>
              <LongitudeDegrees>-2.75918782688677310943603515625</LongitudeDegrees>
            </Position>
            <AltitudeMeters>1326</AltitudeMeters>
            <DistanceMeters>216148.35104729</DistanceMeters>
          </Trackpoint>
          <Trackpoint>
            <Time>2021-07-29T12:53:47.000Z</Time>
            <Position>
              <LatitudeDegrees>42.07563771866261959075927734375</LatitudeDegrees>
              <LongitudeDegrees>-2.75871190242469310760498046875</LongitudeDegrees>
            </Position>
            <AltitudeMeters>1324.800048828125</AltitudeMeters>
            <DistanceMeters>216188.65402671</DistanceMeters>
          </Trackpoint>
          <Trackpoint>
            <Time>2021-07-29T12:53:49.000Z</Time>
            <Position>
              <LatitudeDegrees>42.07569069229066371917724609375</LatitudeDegrees>
              <LongitudeDegrees>-2.75841350667178630828857421875</LongitudeDegrees>
            </Position>
            <AltitudeMeters>1324.199951171875</AltitudeMeters>
            <DistanceMeters>216214.00141196</DistanceMeters>
          </Trackpoint>
          <Trackpoint>
            <Time>2021-07-29T12:53:54.000Z</Time>
            <Position>
              <LatitudeDegrees>42.076051197946071624755859375</LatitudeDegrees>
              <LongitudeDegrees>-2.7578840218484401702880859375</LongitudeDegrees>
            </Position>
            <AltitudeMeters>1323.5999755859375</AltitudeMeters>
            <DistanceMeters>216273.36048632</DistanceMeters>
          </Trackpoint>
          <Trackpoint>
            <Time>2021-07-29T12:53:56.000Z</Time>
            <Position>
              <LatitudeDegrees>42.07626770250499248504638671875</LatitudeDegrees>
              <LongitudeDegrees>-2.7578421123325824737548828125</LongitudeDegrees>
            </Position>
            <AltitudeMeters>1322.199951171875</AltitudeMeters>
            <DistanceMeters>216297.70550711</DistanceMeters>
          </Trackpoint>
          <Trackpoint>
            <Time>2021-07-29T12:53:58.000Z</Time>
            <Position>
              <LatitudeDegrees>42.0764775015413761138916015625</LatitudeDegrees>
              <LongitudeDegrees>-2.75792710483074188232421875</LongitudeDegrees>
            </Position>
            <AltitudeMeters>1320.4000244140625</AltitudeMeters>
            <DistanceMeters>216322.08944349</DistanceMeters>
          </Trackpoint>
          <Trackpoint>
            <Time>2021-07-29T12:53:59.000Z</Time>
            <Position>
              <LatitudeDegrees>42.076571546494960784912109375</LatitudeDegrees>
              <LongitudeDegrees>-2.75800530798733234405517578125</LongitudeDegrees>
            </Position>
            <AltitudeMeters>1319.199951171875</AltitudeMeters>
            <DistanceMeters>216334.39017359</DistanceMeters>
          </Trackpoint>
          <Trackpoint>
            <Time>2021-07-29T12:54:00.000Z</Time>
            <Position>
              <LatitudeDegrees>42.0766582153737545013427734375</LatitudeDegrees>
              <LongitudeDegrees>-2.75810086168348789215087890625</LongitudeDegrees>
            </Position>
            <AltitudeMeters>1318</AltitudeMeters>
            <DistanceMeters>216346.85498386</DistanceMeters>
          </Trackpoint>
          <Trackpoint>
            <Time>2021-07-29T12:54:01.000Z</Time>
            <Position>
              <LatitudeDegrees>42.07674019038677215576171875</LatitudeDegrees>
              <LongitudeDegrees>-2.75820613838732242584228515625</LongitudeDegrees>
            </Position>
            <AltitudeMeters>1316.800048828125</AltitudeMeters>
            <DistanceMeters>216359.46026947</DistanceMeters>
          </Trackpoint>
          <Trackpoint>
            <Time>2021-07-29T12:54:02.000Z</Time>
            <Position>
              <LatitudeDegrees>42.07682258449494838714599609375</LatitudeDegrees>
              <LongitudeDegrees>-2.75831359438598155975341796875</LongitudeDegrees>
            </Position>
            <AltitudeMeters>1314.4000244140625</AltitudeMeters>
            <DistanceMeters>216372.22359893</DistanceMeters>
          </Trackpoint>
          <Trackpoint>
            <Time>2021-07-29T12:54:03.000Z</Time>
            <Position>
              <LatitudeDegrees>42.0769066549837589263916015625</LatitudeDegrees>
              <LongitudeDegrees>-2.75841669179499149322509765625</LongitudeDegrees>
            </Position>
            <AltitudeMeters>1313</AltitudeMeters>
            <DistanceMeters>216384.87679044</DistanceMeters>
          </Trackpoint>
          <Trackpoint>
            <Time>2021-07-29T12:54:05.000Z</Time>
            <Position>
              <LatitudeDegrees>42.07707286812365055084228515625</LatitudeDegrees>
              <LongitudeDegrees>-2.758616767823696136474609375</LongitudeDegrees>
            </Position>
            <AltitudeMeters>1311.800048828125</AltitudeMeters>
            <DistanceMeters>216409.6851336</DistanceMeters>
          </Trackpoint>
          <Trackpoint>
            <Time>2021-07-29T12:54:06.000Z</Time>
            <Position>
              <LatitudeDegrees>42.07715283147990703582763671875</LatitudeDegrees>
              <LongitudeDegrees>-2.758702933788299560546875</LongitudeDegrees>
            </Position>
            <AltitudeMeters>1311.199951171875</AltitudeMeters>
            <DistanceMeters>216421.08200245</DistanceMeters>
          </Trackpoint>
          <Trackpoint>
            <Time>2021-07-29T12:54:08.000Z</Time>
            <Position>
              <LatitudeDegrees>42.07731326110661029815673828125</LatitudeDegrees>
              <LongitudeDegrees>-2.75879823602735996246337890625</LongitudeDegrees>
            </Position>
            <AltitudeMeters>1310.5999755859375</AltitudeMeters>
            <DistanceMeters>216440.59698243</DistanceMeters>
          </Trackpoint>
          <Trackpoint>
            <Time>2021-07-29T12:54:11.000Z</Time>
            <Position>
              <LatitudeDegrees>42.0775517262518405914306640625</LatitudeDegrees>
              <LongitudeDegrees>-2.7586933784186840057373046875</LongitudeDegrees>
            </Position>
            <AltitudeMeters>1309.5999755859375</AltitudeMeters>
            <DistanceMeters>216468.51640683</DistanceMeters>
          </Trackpoint>
          <Trackpoint>
            <Time>2021-07-29T12:54:13.000Z</Time>
            <Position>
              <LatitudeDegrees>42.07765205763280391693115234375</LatitudeDegrees>
              <LongitudeDegrees>-2.75848274119198322296142578125</LongitudeDegrees>
            </Position>
            <AltitudeMeters>1307.800048828125</AltitudeMeters>
            <DistanceMeters>216489.19274377</DistanceMeters>
          </Trackpoint>
          <Trackpoint>
            <Time>2021-07-29T12:54:14.000Z</Time>
            <Position>
              <LatitudeDegrees>42.07766463048756122589111328125</LatitudeDegrees>
              <LongitudeDegrees>-2.7583587728440761566162109375</LongitudeDegrees>
            </Position>
            <AltitudeMeters>1306.5999755859375</AltitudeMeters>
            <DistanceMeters>216499.52927435</DistanceMeters>
          </Trackpoint>
          <Trackpoint>
            <Time>2021-07-29T12:54:16.000Z</Time>
            <Position>
              <LatitudeDegrees>42.0776211284101009368896484375</LatitudeDegrees>
              <LongitudeDegrees>-2.75810656137764453887939453125</LongitudeDegrees>
            </Position>
            <AltitudeMeters>1305</AltitudeMeters>
            <DistanceMeters>216520.91999672</DistanceMeters>
          </Trackpoint>
          <Trackpoint>
            <Time>2021-07-29T12:54:17.000Z</Time>
            <Position>
              <LatitudeDegrees>42.0775788836181163787841796875</LatitudeDegrees>
              <LongitudeDegrees>-2.75798334740102291107177734375</LongitudeDegrees>
            </Position>
            <AltitudeMeters>1303.800048828125</AltitudeMeters>
            <DistanceMeters>216532.13234368</DistanceMeters>
          </Trackpoint>
          <Trackpoint>
            <Time>2021-07-29T12:54:18.000Z</Time>
            <Position>
              <LatitudeDegrees>42.077531777322292327880859375</LatitudeDegrees>
              <LongitudeDegrees>-2.75785870850086212158203125</LongitudeDegrees>
            </Position>
            <AltitudeMeters>1303</AltitudeMeters>
            <DistanceMeters>216543.68737333</DistanceMeters>
          </Trackpoint>
          <Trackpoint>
            <Time>2021-07-29T12:54:19.000Z</Time>
            <Position>
              <LatitudeDegrees>42.0774860121309757232666015625</LatitudeDegrees>
              <LongitudeDegrees>-2.7577287890017032623291015625</LongitudeDegrees>
            </Position>
            <AltitudeMeters>1302.199951171875</AltitudeMeters>
            <DistanceMeters>216555.56761301</DistanceMeters>
          </Trackpoint>
          <Trackpoint>
            <Time>2021-07-29T12:54:21.000Z</Time>
            <Position>
              <LatitudeDegrees>42.07741451449692249298095703125</LatitudeDegrees>
              <LongitudeDegrees>-2.757447324693202972412109375</LongitudeDegrees>
            </Position>
            <AltitudeMeters>1300.800048828125</AltitudeMeters>
            <DistanceMeters>216580.14428453</DistanceMeters>
          </Trackpoint>
          <Trackpoint>
            <Time>2021-07-29T12:54:23.000Z</Time>
            <Position>
              <LatitudeDegrees>42.07740898244082927703857421875</LatitudeDegrees>
              <LongitudeDegrees>-2.75714079849421977996826171875</LongitudeDegrees>
            </Position>
            <AltitudeMeters>1298.5999755859375</AltitudeMeters>
            <DistanceMeters>216605.47474212</DistanceMeters>
          </Trackpoint>
          <Trackpoint>
            <Time>2021-07-29T12:54:27.000Z</Time>
            <Position>
              <LatitudeDegrees>42.07764451391994953155517578125</LatitudeDegrees>
              <LongitudeDegrees>-2.75662598200142383575439453125</LongitudeDegrees>
            </Position>
            <AltitudeMeters>1297.5999755859375</AltitudeMeters>
            <DistanceMeters>216655.43530267</DistanceMeters>
          </Trackpoint>
          <Trackpoint>
            <Time>2021-07-29T12:54:32.000Z</Time>
            <Position>
              <LatitudeDegrees>42.07817441783845424652099609375</LatitudeDegrees>
              <LongitudeDegrees>-2.7563370577991008758544921875</LongitudeDegrees>
            </Position>
            <AltitudeMeters>1296.800048828125</AltitudeMeters>
            <DistanceMeters>216719.06134742</DistanceMeters>
          </Trackpoint>
          <Trackpoint>
            <Time>2021-07-29T12:54:33.000Z</Time>
            <Position>
              <LatitudeDegrees>42.07828581333160400390625</LatitudeDegrees>
              <LongitudeDegrees>-2.7563028596341609954833984375</LongitudeDegrees>
            </Position>
            <AltitudeMeters>1296.5999755859375</AltitudeMeters>
            <DistanceMeters>216731.77789605</DistanceMeters>
          </Trackpoint>
          <Trackpoint>
            <Time>2021-07-29T12:54:34.000Z</Time>
            <Position>
              <LatitudeDegrees>42.07839511334896087646484375</LatitudeDegrees>
              <LongitudeDegrees>-2.756256759166717529296875</LongitudeDegrees>
            </Position>
            <AltitudeMeters>1296.199951171875</AltitudeMeters>
            <DistanceMeters>216744.52529679</DistanceMeters>
          </Trackpoint>
          <Trackpoint>
            <Time>2021-07-29T12:54:36.000Z</Time>
            <Position>
              <LatitudeDegrees>42.07859904505312442779541015625</LatitudeDegrees>
              <LongitudeDegrees>-2.75611652992665767669677734375</LongitudeDegrees>
            </Position>
            <AltitudeMeters>1294.5999755859375</AltitudeMeters>
            <DistanceMeters>216770.00876158</DistanceMeters>
          </Trackpoint>
          <Trackpoint>
            <Time>2021-07-29T12:54:37.000Z</Time>
            <Position>
              <LatitudeDegrees>42.07869141362607479095458984375</LatitudeDegrees>
              <LongitudeDegrees>-2.756023406982421875</LongitudeDegrees>
            </Position>
            <AltitudeMeters>1293.5999755859375</AltitudeMeters>
            <DistanceMeters>216782.84897714</DistanceMeters>
          </Trackpoint>
          <Trackpoint>
            <Time>2021-07-29T12:54:38.000Z</Time>
            <Position>
              <LatitudeDegrees>42.07877959124743938446044921875</LatitudeDegrees>
              <LongitudeDegrees>-2.7559199742972850799560546875</LongitudeDegrees>
            </Position>
            <AltitudeMeters>1293</AltitudeMeters>
            <DistanceMeters>216795.86208682</DistanceMeters>
          </Trackpoint>
          <Trackpoint>
            <Time>2021-07-29T12:54:39.000Z</Time>
            <Position>
              <LatitudeDegrees>42.07886718213558197021484375</LatitudeDegrees>
              <LongitudeDegrees>-2.7558101713657379150390625</LongitudeDegrees>
            </Position>
            <AltitudeMeters>1292.5999755859375</AltitudeMeters>
            <DistanceMeters>216809.17871707</DistanceMeters>
          </Trackpoint>
          <Trackpoint>
            <Time>2021-07-29T12:54:41.000Z</Time>
            <Position>
              <LatitudeDegrees>42.07904831506311893463134765625</LatitudeDegrees>
              <LongitudeDegrees>-2.75558075867593288421630859375</LongitudeDegrees>
            </Position>
            <AltitudeMeters>1290.800048828125</AltitudeMeters>
            <DistanceMeters>216836.84846646</DistanceMeters>
          </Trackpoint>
          <Trackpoint>
            <Time>2021-07-29T12:54:42.000Z</Time>
            <Position>
              <LatitudeDegrees>42.07913917489349842071533203125</LatitudeDegrees>
              <LongitudeDegrees>-2.7554588019847869873046875</LongitudeDegrees>
            </Position>
            <AltitudeMeters>1289.800048828125</AltitudeMeters>
            <DistanceMeters>216851.12304789</DistanceMeters>
          </Trackpoint>
          <Trackpoint>
            <Time>2021-07-29T12:54:43.000Z</Time>
            <Position>
              <LatitudeDegrees>42.07922902889549732208251953125</LatitudeDegrees>
              <LongitudeDegrees>-2.75533114559948444366455078125</LongitudeDegrees>
            </Position>
            <AltitudeMeters>1288.199951171875</AltitudeMeters>
            <DistanceMeters>216865.65685497</DistanceMeters>
          </Trackpoint>
          <Trackpoint>
            <Time>2021-07-29T12:54:44.000Z</Time>
            <Position>
              <LatitudeDegrees>42.0793176256120204925537109375</LatitudeDegrees>
              <LongitudeDegrees>-2.755198292434215545654296875</LongitudeDegrees>
            </Position>
            <AltitudeMeters>1286.4000244140625</AltitudeMeters>
            <DistanceMeters>216880.41111038</DistanceMeters>
          </Trackpoint>
          <Trackpoint>
            <Time>2021-07-29T12:54:45.000Z</Time>
            <Position>
              <LatitudeDegrees>42.0794047974050045013427734375</LatitudeDegrees>
              <LongitudeDegrees>-2.7550596557557582855224609375</LongitudeDegrees>
            </Position>
            <AltitudeMeters>1284.5999755859375</AltitudeMeters>
            <DistanceMeters>216895.42142142</DistanceMeters>
          </Trackpoint>
          <Trackpoint>
            <Time>2021-07-29T12:54:46.000Z</Time>
            <Position>
              <LatitudeDegrees>42.07948886789381504058837890625</LatitudeDegrees>
              <LongitudeDegrees>-2.7549141459167003631591796875</LongitudeDegrees>
            </Position>
            <AltitudeMeters>1283.199951171875</AltitudeMeters>
            <DistanceMeters>216910.65476985</DistanceMeters>
          </Trackpoint>
          <Trackpoint>
            <Time>2021-07-29T12:54:48.000Z</Time>
            <Position>
              <LatitudeDegrees>42.07963705994188785552978515625</LatitudeDegrees>
              <LongitudeDegrees>-2.75459982454776763916015625</LongitudeDegrees>
            </Position>
            <AltitudeMeters>1280.5999755859375</AltitudeMeters>
            <DistanceMeters>216941.41657735</DistanceMeters>
          </Trackpoint>
          <Trackpoint>
            <Time>2021-07-29T12:54:49.000Z</Time>
            <Position>
              <LatitudeDegrees>42.0797015167772769927978515625</LatitudeDegrees>
              <LongitudeDegrees>-2.75443352758884429931640625</LongitudeDegrees>
            </Position>
            <AltitudeMeters>1279</AltitudeMeters>
            <DistanceMeters>216956.91467411</DistanceMeters>
          </Trackpoint>
          <Trackpoint>
            <Time>2021-07-29T12:54:51.000Z</Time>
            <Position>
              <LatitudeDegrees>42.07981995306909084320068359375</LatitudeDegrees>
              <LongitudeDegrees>-2.75409699417650699615478515625</LongitudeDegrees>
            </Position>
            <AltitudeMeters>1277.199951171875</AltitudeMeters>
            <DistanceMeters>216987.68249877</DistanceMeters>
          </Trackpoint>
          <Trackpoint>
            <Time>2021-07-29T12:54:52.000Z</Time>
            <Position>
              <LatitudeDegrees>42.079865634441375732421875</LatitudeDegrees>
              <LongitudeDegrees>-2.7539291046559810638427734375</LongitudeDegrees>
            </Position>
            <AltitudeMeters>1276.800048828125</AltitudeMeters>
            <DistanceMeters>217002.45479809</DistanceMeters>
          </Trackpoint>
          <Trackpoint>
            <Time>2021-07-29T12:54:56.000Z</Time>
            <Position>
              <LatitudeDegrees>42.0800072886049747467041015625</LatitudeDegrees>
              <LongitudeDegrees>-2.7532835304737091064453125</LongitudeDegrees>
            </Position>
            <AltitudeMeters>1276.4000244140625</AltitudeMeters>
            <DistanceMeters>217058.06710735</DistanceMeters>
          </Trackpoint>
          <Trackpoint>
            <Time>2021-07-29T12:54:58.000Z</Time>
            <Position>
              <LatitudeDegrees>42.0801360346376895904541015625</LatitudeDegrees>
              <LongitudeDegrees>-2.75300852023065090179443359375</LongitudeDegrees>
            </Position>
            <AltitudeMeters>1276.199951171875</AltitudeMeters>
            <DistanceMeters>217084.92741297</DistanceMeters>
          </Trackpoint>
          <Trackpoint>
            <Time>2021-07-29T12:55:00.000Z</Time>
            <Position>
              <LatitudeDegrees>42.08031431771814823150634765625</LatitudeDegrees>
              <LongitudeDegrees>-2.75278254412114620208740234375</LongitudeDegrees>
            </Position>
            <AltitudeMeters>1274.800048828125</AltitudeMeters>
            <DistanceMeters>217112.17125876</DistanceMeters>
          </Trackpoint>
          <Trackpoint>
            <Time>2021-07-29T12:55:02.000Z</Time>
            <Position>
              <LatitudeDegrees>42.08052554167807102203369140625</LatitudeDegrees>
              <LongitudeDegrees>-2.75260719470679759979248046875</LongitudeDegrees>
            </Position>
            <AltitudeMeters>1273.5999755859375</AltitudeMeters>
            <DistanceMeters>217139.78530908</DistanceMeters>
          </Trackpoint>
          <Trackpoint>
            <Time>2021-07-29T12:55:03.000Z</Time>
            <Position>
              <LatitudeDegrees>42.08063769154250621795654296875</LatitudeDegrees>
              <LongitudeDegrees>-2.752532176673412322998046875</LongitudeDegrees>
            </Position>
            <AltitudeMeters>1273</AltitudeMeters>
            <DistanceMeters>217153.72155262</DistanceMeters>
          </Trackpoint>
          <Trackpoint>
            <Time>2021-07-29T12:55:04.000Z</Time>
            <Position>
              <LatitudeDegrees>42.08075143396854400634765625</LatitudeDegrees>
              <LongitudeDegrees>-2.75245782919228076934814453125</LongitudeDegrees>
            </Position>
            <AltitudeMeters>1272.199951171875</AltitudeMeters>
            <DistanceMeters>217167.7922465</DistanceMeters>
          </Trackpoint>
          <Trackpoint>
            <Time>2021-07-29T12:55:06.000Z</Time>
            <Position>
              <LatitudeDegrees>42.08098067902028560638427734375</LatitudeDegrees>
              <LongitudeDegrees>-2.75230360217392444610595703125</LongitudeDegrees>
            </Position>
            <AltitudeMeters>1270.5999755859375</AltitudeMeters>
            <DistanceMeters>217196.3113451</DistanceMeters>
          </Trackpoint>
          <Trackpoint>
            <Time>2021-07-29T12:55:07.000Z</Time>
            <Position>
              <LatitudeDegrees>42.081097103655338287353515625</LatitudeDegrees>
              <LongitudeDegrees>-2.752225734293460845947265625</LongitudeDegrees>
            </Position>
            <AltitudeMeters>1268.800048828125</AltitudeMeters>
            <DistanceMeters>217210.77820661</DistanceMeters>
          </Trackpoint>
          <Trackpoint>
            <Time>2021-07-29T12:55:08.000Z</Time>
            <Position>
              <LatitudeDegrees>42.08121419884264469146728515625</LatitudeDegrees>
              <LongitudeDegrees>-2.75214870460331439971923828125</LongitudeDegrees>
            </Position>
            <AltitudeMeters>1267.199951171875</AltitudeMeters>
            <DistanceMeters>217225.28153728</DistanceMeters>
          </Trackpoint>
          <Trackpoint>
            <Time>2021-07-29T12:55:10.000Z</Time>
            <Position>
              <LatitudeDegrees>42.0814553461968898773193359375</LatitudeDegrees>
              <LongitudeDegrees>-2.75200688280165195465087890625</LongitudeDegrees>
            </Position>
            <AltitudeMeters>1265.5999755859375</AltitudeMeters>
            <DistanceMeters>217254.56703779</DistanceMeters>
          </Trackpoint>
          <Trackpoint>
            <Time>2021-07-29T12:55:12.000Z</Time>
            <Position>
              <LatitudeDegrees>42.0817069709300994873046875</LatitudeDegrees>
              <LongitudeDegrees>-2.75190629996359348297119140625</LongitudeDegrees>
            </Position>
            <AltitudeMeters>1263.800048828125</AltitudeMeters>
            <DistanceMeters>217283.7798325</DistanceMeters>
          </Trackpoint>
          <Trackpoint>
            <Time>2021-07-29T12:55:14.000Z</Time>
            <Position>
              <LatitudeDegrees>42.08196672610938549041748046875</LatitudeDegrees>
              <LongitudeDegrees>-2.751860283315181732177734375</LongitudeDegrees>
            </Position>
            <AltitudeMeters>1262.5999755859375</AltitudeMeters>
            <DistanceMeters>217312.93987568</DistanceMeters>
          </Trackpoint>
          <Trackpoint>
            <Time>2021-07-29T12:55:18.000Z</Time>
            <Position>
              <LatitudeDegrees>42.08249461837112903594970703125</LatitudeDegrees>
              <LongitudeDegrees>-2.751838825643062591552734375</LongitudeDegrees>
            </Position>
            <AltitudeMeters>1260.800048828125</AltitudeMeters>
            <DistanceMeters>217371.7220217</DistanceMeters>
          </Trackpoint>
          <Trackpoint>
            <Time>2021-07-29T12:55:20.000Z</Time>
            <Position>
              <LatitudeDegrees>42.08275596611201763153076171875</LatitudeDegrees>
              <LongitudeDegrees>-2.75187344290316104888916015625</LongitudeDegrees>
            </Position>
            <AltitudeMeters>1259.4000244140625</AltitudeMeters>
            <DistanceMeters>217400.95073143</DistanceMeters>
          </Trackpoint>
          <Trackpoint>
            <Time>2021-07-29T12:55:22.000Z</Time>
            <Position>
              <LatitudeDegrees>42.08301044069230556488037109375</LatitudeDegrees>
              <LongitudeDegrees>-2.751930691301822662353515625</LongitudeDegrees>
            </Position>
            <AltitudeMeters>1257.800048828125</AltitudeMeters>
            <DistanceMeters>217429.66610014</DistanceMeters>
          </Trackpoint>
          <Trackpoint>
            <Time>2021-07-29T12:55:24.000Z</Time>
            <Position>
              <LatitudeDegrees>42.0832608081400394439697265625</LatitudeDegrees>
              <LongitudeDegrees>-2.7519710920751094818115234375</LongitudeDegrees>
            </Position>
            <AltitudeMeters>1257</AltitudeMeters>
            <DistanceMeters>217457.73133572</DistanceMeters>
          </Trackpoint>
          <Trackpoint>
            <Time>2021-07-29T12:55:29.000Z</Time>
            <Position>
              <LatitudeDegrees>42.08376246504485607147216796875</LatitudeDegrees>
              <LongitudeDegrees>-2.75192641653120517730712890625</LongitudeDegrees>
            </Position>
            <AltitudeMeters>1257.800048828125</AltitudeMeters>
            <DistanceMeters>217513.68851664</DistanceMeters>
          </Trackpoint>
          <Trackpoint>
            <Time>2021-07-29T12:55:32.000Z</Time>
            <Position>
              <LatitudeDegrees>42.084019370377063751220703125</LatitudeDegrees>
              <LongitudeDegrees>-2.7518302761018276214599609375</LongitudeDegrees>
            </Position>
            <AltitudeMeters>1257.4000244140625</AltitudeMeters>
            <DistanceMeters>217543.36485899</DistanceMeters>
          </Trackpoint>
          <Trackpoint>
            <Time>2021-07-29T12:55:35.000Z</Time>
            <Position>
              <LatitudeDegrees>42.08429136313498020172119140625</LatitudeDegrees>
              <LongitudeDegrees>-2.7518420107662677764892578125</LongitudeDegrees>
            </Position>
            <AltitudeMeters>1255.800048828125</AltitudeMeters>
            <DistanceMeters>217573.65379503</DistanceMeters>
          </Trackpoint>
          <Trackpoint>
            <Time>2021-07-29T12:55:36.000Z</Time>
            <Position>
              <LatitudeDegrees>42.084384821355342864990234375</LatitudeDegrees>
              <LongitudeDegrees>-2.75185986422002315521240234375</LongitudeDegrees>
            </Position>
            <AltitudeMeters>1255.199951171875</AltitudeMeters>
            <DistanceMeters>217584.1601576</DistanceMeters>
          </Trackpoint>
          <Trackpoint>
            <Time>2021-07-29T12:55:37.000Z</Time>
            <Position>
              <LatitudeDegrees>42.0844802074134349822998046875</LatitudeDegrees>
              <LongitudeDegrees>-2.75187612511217594146728515625</LongitudeDegrees>
            </Position>
            <AltitudeMeters>1254.800048828125</AltitudeMeters>
            <DistanceMeters>217594.86153272</DistanceMeters>
          </Trackpoint>
          <Trackpoint>
            <Time>2021-07-29T12:55:39.000Z</Time>
            <Position>
              <LatitudeDegrees>42.0846773497760295867919921875</LatitudeDegrees>
              <LongitudeDegrees>-2.7519030310213565826416015625</LongitudeDegrees>
            </Position>
            <AltitudeMeters>1253.800048828125</AltitudeMeters>
            <DistanceMeters>217616.91612562</DistanceMeters>
          </Trackpoint>
          <Trackpoint>
            <Time>2021-07-29T12:55:41.000Z</Time>
            <Position>
              <LatitudeDegrees>42.0848858915269374847412109375</LatitudeDegrees>
              <LongitudeDegrees>-2.7519355528056621551513671875</LongitudeDegrees>
            </Position>
            <AltitudeMeters>1252</AltitudeMeters>
            <DistanceMeters>217640.28226526</DistanceMeters>
          </Trackpoint>
          <Trackpoint>
            <Time>2021-07-29T12:55:42.000Z</Time>
            <Position>
              <LatitudeDegrees>42.0849935151636600494384765625</LatitudeDegrees>
              <LongitudeDegrees>-2.7519573457539081573486328125</LongitudeDegrees>
            </Position>
            <AltitudeMeters>1250.800048828125</AltitudeMeters>
            <DistanceMeters>217652.3954693</DistanceMeters>
          </Trackpoint>
          <Trackpoint>
            <Time>2021-07-29T12:55:43.000Z</Time>
            <Position>
              <LatitudeDegrees>42.0851026475429534912109375</LatitudeDegrees>
              <LongitudeDegrees>-2.75198006071150302886962890625</LongitudeDegrees>
            </Position>
            <AltitudeMeters>1249.5999755859375</AltitudeMeters>
            <DistanceMeters>217664.68591758</DistanceMeters>
          </Trackpoint>
          <Trackpoint>
            <Time>2021-07-29T12:55:44.000Z</Time>
            <Position>
              <LatitudeDegrees>42.08521320484578609466552734375</LatitudeDegrees>
              <LongitudeDegrees>-2.75200319476425647735595703125</LongitudeDegrees>
            </Position>
            <AltitudeMeters>1248.4000244140625</AltitudeMeters>
            <DistanceMeters>217677.13840619</DistanceMeters>
          </Trackpoint>
          <Trackpoint>
            <Time>2021-07-29T12:55:46.000Z</Time>
            <Position>
              <LatitudeDegrees>42.085439600050449371337890625</LatitudeDegrees>
              <LongitudeDegrees>-2.752051055431365966796875</LongitudeDegrees>
            </Position>
            <AltitudeMeters>1246.800048828125</AltitudeMeters>
            <DistanceMeters>217702.64489336</DistanceMeters>
          </Trackpoint>
          <Trackpoint>
            <Time>2021-07-29T12:55:47.000Z</Time>
            <Position>
              <LatitudeDegrees>42.0855567790567874908447265625</LatitudeDegrees>
              <LongitudeDegrees>-2.75207393802702426910400390625</LongitudeDegrees>
            </Position>
            <AltitudeMeters>1245.800048828125</AltitudeMeters>
            <DistanceMeters>217715.82314932</DistanceMeters>
          </Trackpoint>
          <Trackpoint>
            <Time>2021-07-29T12:55:49.000Z</Time>
            <Position>
              <LatitudeDegrees>42.0857968367636203765869140625</LatitudeDegrees>
              <LongitudeDegrees>-2.75211718864738941192626953125</LongitudeDegrees>
            </Position>
            <AltitudeMeters>1244.4000244140625</AltitudeMeters>
            <DistanceMeters>217742.77993532</DistanceMeters>
          </Trackpoint>
          <Trackpoint>
            <Time>2021-07-29T12:55:50.000Z</Time>
            <Position>
              <LatitudeDegrees>42.08592046983540058135986328125</LatitudeDegrees>
              <LongitudeDegrees>-2.75213412009179592132568359375</LongitudeDegrees>
            </Position>
            <AltitudeMeters>1243.4000244140625</AltitudeMeters>
            <DistanceMeters>217756.6114645</DistanceMeters>
          </Trackpoint>
          <Trackpoint>
            <Time>2021-07-29T12:55:51.000Z</Time>
            <Position>
              <LatitudeDegrees>42.08604452200233936309814453125</LatitudeDegrees>
              <LongitudeDegrees>-2.752147614955902099609375</LongitudeDegrees>
            </Position>
            <AltitudeMeters>1241.800048828125</AltitudeMeters>
            <DistanceMeters>217770.46386951</DistanceMeters>
          </Trackpoint>
          <Trackpoint>
            <Time>2021-07-29T12:55:52.000Z</Time>
            <Position>
              <LatitudeDegrees>42.08616639487445354461669921875</LatitudeDegrees>
              <LongitudeDegrees>-2.75215499103069305419921875</LongitudeDegrees>
            </Position>
            <AltitudeMeters>1240.4000244140625</AltitudeMeters>
            <DistanceMeters>217784.04238566</DistanceMeters>
          </Trackpoint>
          <Trackpoint>
            <Time>2021-07-29T12:55:53.000Z</Time>
            <Position>
              <LatitudeDegrees>42.086285836994647979736328125</LatitudeDegrees>
              <LongitudeDegrees>-2.752149961888790130615234375</LongitudeDegrees>
            </Position>
            <AltitudeMeters>1239.800048828125</AltitudeMeters>
            <DistanceMeters>217797.34307089</DistanceMeters>
          </Trackpoint>
          <Trackpoint>
            <Time>2021-07-29T12:55:54.000Z</Time>
            <Position>
              <LatitudeDegrees>42.0864016748964786529541015625</LatitudeDegrees>
              <LongitudeDegrees>-2.75212624110281467437744140625</LongitudeDegrees>
            </Position>
            <AltitudeMeters>1239</AltitudeMeters>
            <DistanceMeters>217810.38425411</DistanceMeters>
          </Trackpoint>
          <Trackpoint>
            <Time>2021-07-29T12:55:56.000Z</Time>
            <Position>
              <LatitudeDegrees>42.086621783673763275146484375</LatitudeDegrees>
              <LongitudeDegrees>-2.75202247314155101776123046875</LongitudeDegrees>
            </Position>
            <AltitudeMeters>1237.199951171875</AltitudeMeters>
            <DistanceMeters>217836.33890114</DistanceMeters>
          </Trackpoint>
          <Trackpoint>
            <Time>2021-07-29T12:55:57.000Z</Time>
            <Position>
              <LatitudeDegrees>42.08672764711081981658935546875</LatitudeDegrees>
              <LongitudeDegrees>-2.75195273570716381072998046875</LongitudeDegrees>
            </Position>
            <AltitudeMeters>1236.5999755859375</AltitudeMeters>
            <DistanceMeters>217849.45430911</DistanceMeters>
          </Trackpoint>
          <Trackpoint>
            <Time>2021-07-29T12:55:58.000Z</Time>
            <Position>
              <LatitudeDegrees>42.08683175034821033477783203125</LatitudeDegrees>
              <LongitudeDegrees>-2.75187830440700054168701171875</LongitudeDegrees>
            </Position>
            <AltitudeMeters>1236</AltitudeMeters>
            <DistanceMeters>217862.57143824</DistanceMeters>
          </Trackpoint>
          <Trackpoint>
            <Time>2021-07-29T12:55:59.000Z</Time>
            <Position>
              <LatitudeDegrees>42.0869330875575542449951171875</LatitudeDegrees>
              <LongitudeDegrees>-2.75180253200232982635498046875</LongitudeDegrees>
            </Position>
            <AltitudeMeters>1235</AltitudeMeters>
            <DistanceMeters>217875.47059281</DistanceMeters>
          </Trackpoint>
          <Trackpoint>
            <Time>2021-07-29T12:56:01.000Z</Time>
            <Position>
              <LatitudeDegrees>42.0871288888156414031982421875</LatitudeDegrees>
              <LongitudeDegrees>-2.75165165774524211883544921875</LongitudeDegrees>
            </Position>
            <AltitudeMeters>1233.5999755859375</AltitudeMeters>
            <DistanceMeters>217900.57527674</DistanceMeters>
          </Trackpoint>
          <Trackpoint>
            <Time>2021-07-29T12:56:03.000Z</Time>
            <Position>
              <LatitudeDegrees>42.0873142965137958526611328125</LatitudeDegrees>
              <LongitudeDegrees>-2.75150363333523273468017578125</LongitudeDegrees>
            </Position>
            <AltitudeMeters>1232.5999755859375</AltitudeMeters>
            <DistanceMeters>217924.56157055</DistanceMeters>
          </Trackpoint>
          <Trackpoint>
            <Time>2021-07-29T12:56:05.000Z</Time>
            <Position>
              <LatitudeDegrees>42.08748989738523960113525390625</LatitudeDegrees>
              <LongitudeDegrees>-2.7513629011809825897216796875</LongitudeDegrees>
            </Position>
            <AltitudeMeters>1231.4000244140625</AltitudeMeters>
            <DistanceMeters>217947.30196165</DistanceMeters>
          </Trackpoint>
          <Trackpoint>
            <Time>2021-07-29T12:56:08.000Z</Time>
            <Position>
              <LatitudeDegrees>42.087739594280719757080078125</LatitudeDegrees>
              <LongitudeDegrees>-2.751154191792011260986328125</LongitudeDegrees>
            </Position>
            <AltitudeMeters>1230.4000244140625</AltitudeMeters>
            <DistanceMeters>217980.00634109</DistanceMeters>
          </Trackpoint>
          <Trackpoint>
            <Time>2021-07-29T12:56:11.000Z</Time>
            <Position>
              <LatitudeDegrees>42.08797931671142578125</LatitudeDegrees>
              <LongitudeDegrees>-2.75099753402173519134521484375</LongitudeDegrees>
            </Position>
            <AltitudeMeters>1229</AltitudeMeters>
            <DistanceMeters>218009.66000552</DistanceMeters>
          </Trackpoint>
          <Trackpoint>
            <Time>2021-07-29T12:56:13.000Z</Time>
            <Position>
              <LatitudeDegrees>42.08815097808837890625</LatitudeDegrees>
              <LongitudeDegrees>-2.75097087956964969635009765625</LongitudeDegrees>
            </Position>
            <AltitudeMeters>1227.199951171875</AltitudeMeters>
            <DistanceMeters>218028.89276459</DistanceMeters>
          </Trackpoint>
          <Trackpoint>
            <Time>2021-07-29T12:56:16.000Z</Time>
            <Position>
              <LatitudeDegrees>42.088394053280353546142578125</LatitudeDegrees>
              <LongitudeDegrees>-2.75101530365645885467529296875</LongitudeDegrees>
            </Position>
            <AltitudeMeters>1226.199951171875</AltitudeMeters>
            <DistanceMeters>218056.1950493</DistanceMeters>
          </Trackpoint>
          <Trackpoint>
            <Time>2021-07-29T12:56:18.000Z</Time>
            <Position>
              <LatitudeDegrees>42.088508047163486480712890625</LatitudeDegrees>
              <LongitudeDegrees>-2.7511151321232318878173828125</LongitudeDegrees>
            </Position>
            <AltitudeMeters>1228.199951171875</AltitudeMeters>
            <DistanceMeters>218071.32669224</DistanceMeters>
          </Trackpoint>
          <Trackpoint>
            <Time>2021-07-29T12:56:19.000Z</Time>
            <Position>
              <LatitudeDegrees>42.08855104632675647735595703125</LatitudeDegrees>
              <LongitudeDegrees>-2.7511717937886714935302734375</LongitudeDegrees>
            </Position>
            <AltitudeMeters>1228.800048828125</AltitudeMeters>
            <DistanceMeters>218078.02051323</DistanceMeters>
          </Trackpoint>
          <Trackpoint>
            <Time>2021-07-29T12:56:20.000Z</Time>
            <Position>
              <LatitudeDegrees>42.088592536747455596923828125</LatitudeDegrees>
              <LongitudeDegrees>-2.75122451595962047576904296875</LongitudeDegrees>
            </Position>
            <AltitudeMeters>1229.4000244140625</AltitudeMeters>
            <DistanceMeters>218084.3674157</DistanceMeters>
          </Trackpoint>
          <Trackpoint>
            <Time>2021-07-29T12:56:21.000Z</Time>
            <Position>
              <LatitudeDegrees>42.0886352844536304473876953125</LatitudeDegrees>
              <LongitudeDegrees>-2.75126759894192218780517578125</LongitudeDegrees>
            </Position>
            <AltitudeMeters>1229.800048828125</AltitudeMeters>
            <DistanceMeters>218090.30867557</DistanceMeters>
          </Trackpoint>
          <Trackpoint>
            <Time>2021-07-29T12:56:23.000Z</Time>
            <Position>
              <LatitudeDegrees>42.088722288608551025390625</LatitudeDegrees>
              <LongitudeDegrees>-2.7513102628290653228759765625</LongitudeDegrees>
            </Position>
            <AltitudeMeters>1230.5999755859375</AltitudeMeters>
            <DistanceMeters>218100.61370827</DistanceMeters>
          </Trackpoint>
          <Trackpoint>
            <Time>2021-07-29T12:56:26.000Z</Time>
            <Position>
              <LatitudeDegrees>42.08882111124694347381591796875</LatitudeDegrees>
              <LongitudeDegrees>-2.7512879669666290283203125</LongitudeDegrees>
            </Position>
            <AltitudeMeters>1232</AltitudeMeters>
            <DistanceMeters>218111.76629868</DistanceMeters>
          </Trackpoint>
          <Trackpoint>
            <Time>2021-07-29T12:56:29.000Z</Time>
            <Position>
              <LatitudeDegrees>42.08888028748333454132080078125</LatitudeDegrees>
              <LongitudeDegrees>-2.7512348257005214691162109375</LongitudeDegrees>
            </Position>
            <AltitudeMeters>1233</AltitudeMeters>
            <DistanceMeters>218119.68151633</DistanceMeters>
          </Trackpoint>
          <Trackpoint>
            <Time>2021-07-29T12:56:33.000Z</Time>
            <Position>
              <LatitudeDegrees>42.08894046954810619354248046875</LatitudeDegrees>
              <LongitudeDegrees>-2.75114924646914005279541015625</LongitudeDegrees>
            </Position>
            <AltitudeMeters>1233.800048828125</AltitudeMeters>
            <DistanceMeters>218129.41978429</DistanceMeters>
          </Trackpoint>
          <Trackpoint>
            <Time>2021-07-29T12:56:36.000Z</Time>
            <Position>
              <LatitudeDegrees>42.08897517062723636627197265625</LatitudeDegrees>
              <LongitudeDegrees>-2.75106240995228290557861328125</LongitudeDegrees>
            </Position>
            <AltitudeMeters>1234.199951171875</AltitudeMeters>
            <DistanceMeters>218137.56551947</DistanceMeters>
          </Trackpoint>
          <Trackpoint>
            <Time>2021-07-29T12:56:41.000Z</Time>
            <Position>
              <LatitudeDegrees>42.08902093581855297088623046875</LatitudeDegrees>
              <LongitudeDegrees>-2.75089225731790065765380859375</LongitudeDegrees>
            </Position>
            <AltitudeMeters>1235.4000244140625</AltitudeMeters>
            <DistanceMeters>218152.51404019</DistanceMeters>
          </Trackpoint>
          <Trackpoint>
            <Time>2021-07-29T12:56:59.000Z</Time>
            <Position>
              <LatitudeDegrees>42.089268453419208526611328125</LatitudeDegrees>
              <LongitudeDegrees>-2.75023729540407657623291015625</LongitudeDegrees>
            </Position>
            <AltitudeMeters>1235.4000244140625</AltitudeMeters>
            <DistanceMeters>218213.22309701</DistanceMeters>
          </Trackpoint>
          <Trackpoint>
            <Time>2021-07-29T12:57:07.000Z</Time>
            <Position>
              <LatitudeDegrees>42.0894436351954936981201171875</LatitudeDegrees>
              <LongitudeDegrees>-2.7498692460358142852783203125</LongitudeDegrees>
            </Position>
            <AltitudeMeters>1234.800048828125</AltitudeMeters>
            <DistanceMeters>218249.3387496</DistanceMeters>
          </Trackpoint>
          <Trackpoint>
            <Time>2021-07-29T12:57:09.000Z</Time>
            <Position>
              <LatitudeDegrees>42.089480347931385040283203125</LatitudeDegrees>
              <LongitudeDegrees>-2.74981937371194362640380859375</LongitudeDegrees>
            </Position>
            <AltitudeMeters>1234.800048828125</AltitudeMeters>
            <DistanceMeters>218255.14082897</DistanceMeters>
          </Trackpoint>
          <Trackpoint>
            <Time>2021-07-29T12:57:14.000Z</Time>
            <Position>
              <LatitudeDegrees>42.08953089080750942230224609375</LatitudeDegrees>
              <LongitudeDegrees>-2.74982440285384654998779296875</LongitudeDegrees>
            </Position>
            <AltitudeMeters>1234.800048828125</AltitudeMeters>
            <DistanceMeters>218260.78112677</DistanceMeters>
          </Trackpoint>
          <Trackpoint>
            <Time>2021-07-29T13:13:49.000Z</Time>
            <Position>
              <LatitudeDegrees>42.0895210839807987213134765625</LatitudeDegrees>
              <LongitudeDegrees>-2.7497669868171215057373046875</LongitudeDegrees>
            </Position>
            <AltitudeMeters>1234</AltitudeMeters>
            <DistanceMeters>218265.647942</DistanceMeters>
          </Trackpoint>
          <Trackpoint>
            <Time>2021-07-29T13:13:59.000Z</Time>
            <Position>
              <LatitudeDegrees>42.0896853692829608917236328125</LatitudeDegrees>
              <LongitudeDegrees>-2.7494466304779052734375</LongitudeDegrees>
            </Position>
            <AltitudeMeters>1233</AltitudeMeters>
            <DistanceMeters>218297.81164231</DistanceMeters>
          </Trackpoint>
          <Trackpoint>
            <Time>2021-07-29T13:14:15.000Z</Time>
            <Position>
              <LatitudeDegrees>42.08997496403753757476806640625</LatitudeDegrees>
              <LongitudeDegrees>-2.74879309348762035369873046875</LongitudeDegrees>
            </Position>
            <AltitudeMeters>1232.4000244140625</AltitudeMeters>
            <DistanceMeters>218360.68271263</DistanceMeters>
          </Trackpoint>
          <Trackpoint>
            <Time>2021-07-29T13:14:31.000Z</Time>
            <Position>
              <LatitudeDegrees>42.0900084078311920166015625</LatitudeDegrees>
              <LongitudeDegrees>-2.74802061729133129119873046875</LongitudeDegrees>
            </Position>
            <AltitudeMeters>1232.800048828125</AltitudeMeters>
            <DistanceMeters>218424.59494259</DistanceMeters>
          </Trackpoint>
          <Trackpoint>
            <Time>2021-07-29T13:14:41.000Z</Time>
            <Position>
              <LatitudeDegrees>42.0899445377290248870849609375</LatitudeDegrees>
              <LongitudeDegrees>-2.74743019603192806243896484375</LongitudeDegrees>
            </Position>
            <AltitudeMeters>1232.199951171875</AltitudeMeters>
            <DistanceMeters>218473.87708297</DistanceMeters>
          </Trackpoint>
          <Trackpoint>
            <Time>2021-07-29T13:14:49.000Z</Time>
            <Position>
              <LatitudeDegrees>42.089859545230865478515625</LatitudeDegrees>
              <LongitudeDegrees>-2.74687640368938446044921875</LongitudeDegrees>
            </Position>
            <AltitudeMeters>1232</AltitudeMeters>
            <DistanceMeters>218520.58636224</DistanceMeters>
          </Trackpoint>
          <Trackpoint>
            <Time>2021-07-29T13:14:54.000Z</Time>
            <Position>
              <LatitudeDegrees>42.08993825130164623260498046875</LatitudeDegrees>
              <LongitudeDegrees>-2.74657063186168670654296875</LongitudeDegrees>
            </Position>
            <AltitudeMeters>1232.199951171875</AltitudeMeters>
            <DistanceMeters>218547.31810497</DistanceMeters>
          </Trackpoint>
          <Trackpoint>
            <Time>2021-07-29T13:15:06.000Z</Time>
            <Position>
              <LatitudeDegrees>42.09030009806156158447265625</LatitudeDegrees>
              <LongitudeDegrees>-2.74600728414952754974365234375</LongitudeDegrees>
            </Position>
            <AltitudeMeters>1232.5999755859375</AltitudeMeters>
            <DistanceMeters>218608.8574228</DistanceMeters>
          </Trackpoint>
          <Trackpoint>
            <Time>2021-07-29T13:15:19.000Z</Time>
            <Position>
              <LatitudeDegrees>42.09059245884418487548828125</LatitudeDegrees>
              <LongitudeDegrees>-2.74552716873586177825927734375</LongitudeDegrees>
            </Position>
            <AltitudeMeters>1233.800048828125</AltitudeMeters>
            <DistanceMeters>218660.15495214</DistanceMeters>
          </Trackpoint>
          <Trackpoint>
            <Time>2021-07-29T13:15:27.000Z</Time>
            <Position>
              <LatitudeDegrees>42.090675272047519683837890625</LatitudeDegrees>
              <LongitudeDegrees>-2.74523581378161907196044921875</LongitudeDegrees>
            </Position>
            <AltitudeMeters>1234.800048828125</AltitudeMeters>
            <DistanceMeters>218685.92436796</DistanceMeters>
          </Trackpoint>
          <Trackpoint>
            <Time>2021-07-29T13:15:34.000Z</Time>
            <Position>
              <LatitudeDegrees>42.0907203666865825653076171875</LatitudeDegrees>
              <LongitudeDegrees>-2.7449708618223667144775390625</LongitudeDegrees>
            </Position>
            <AltitudeMeters>1235.800048828125</AltitudeMeters>
            <DistanceMeters>218708.37622662</DistanceMeters>
          </Trackpoint>
          <Trackpoint>
            <Time>2021-07-29T13:15:41.000Z</Time>
            <Position>
              <LatitudeDegrees>42.09077484905719757080078125</LatitudeDegrees>
              <LongitudeDegrees>-2.74472753517329692840576171875</LongitudeDegrees>
            </Position>
            <AltitudeMeters>1237.199951171875</AltitudeMeters>
            <DistanceMeters>218729.36895919</DistanceMeters>
          </Trackpoint>
          <Trackpoint>
            <Time>2021-07-29T13:15:49.000Z</Time>
            <Position>
              <LatitudeDegrees>42.09087417460978031158447265625</LatitudeDegrees>
              <LongitudeDegrees>-2.74447456933557987213134765625</LongitudeDegrees>
            </Position>
            <AltitudeMeters>1238.199951171875</AltitudeMeters>
            <DistanceMeters>218753.00712896</DistanceMeters>
          </Trackpoint>
          <Trackpoint>
            <Time>2021-07-29T13:16:05.000Z</Time>
            <Position>
              <LatitudeDegrees>42.09111238829791545867919921875</LatitudeDegrees>
              <LongitudeDegrees>-2.7438027597963809967041015625</LongitudeDegrees>
            </Position>
            <AltitudeMeters>1238</AltitudeMeters>
            <DistanceMeters>218814.50439236</DistanceMeters>
          </Trackpoint>
          <Trackpoint>
            <Time>2021-07-29T13:16:08.000Z</Time>
            <Position>
              <LatitudeDegrees>42.091160751879215240478515625</LatitudeDegrees>
              <LongitudeDegrees>-2.7436451800167560577392578125</LongitudeDegrees>
            </Position>
            <AltitudeMeters>1237.199951171875</AltitudeMeters>
            <DistanceMeters>218828.58919799</DistanceMeters>
          </Trackpoint>
          <Trackpoint>
            <Time>2021-07-29T13:16:11.000Z</Time>
            <Position>
              <LatitudeDegrees>42.09123007021844387054443359375</LatitudeDegrees>
              <LongitudeDegrees>-2.74345248006284236907958984375</LongitudeDegrees>
            </Position>
            <AltitudeMeters>1236</AltitudeMeters>
            <DistanceMeters>218846.27642412</DistanceMeters>
          </Trackpoint>
          <Trackpoint>
            <Time>2021-07-29T13:16:16.000Z</Time>
            <Position>
              <LatitudeDegrees>42.09137205965816974639892578125</LatitudeDegrees>
              <LongitudeDegrees>-2.74307881481945514678955078125</LongitudeDegrees>
            </Position>
            <AltitudeMeters>1234.800048828125</AltitudeMeters>
            <DistanceMeters>218880.95010835</DistanceMeters>
          </Trackpoint>
          <Trackpoint>
            <Time>2021-07-29T13:16:22.000Z</Time>
            <Position>
              <LatitudeDegrees>42.09154875017702579498291015625</LatitudeDegrees>
              <LongitudeDegrees>-2.74260096251964569091796875</LongitudeDegrees>
            </Position>
            <AltitudeMeters>1233.5999755859375</AltitudeMeters>
            <DistanceMeters>218925.04619004</DistanceMeters>
          </Trackpoint>
          <Trackpoint>
            <Time>2021-07-29T13:16:24.000Z</Time>
            <Position>
              <LatitudeDegrees>42.091624438762664794921875</LatitudeDegrees>
              <LongitudeDegrees>-2.74242837913334369659423828125</LongitudeDegrees>
            </Position>
            <AltitudeMeters>1232.4000244140625</AltitudeMeters>
            <DistanceMeters>218941.60375994</DistanceMeters>
          </Trackpoint>
          <Trackpoint>
            <Time>2021-07-29T13:16:27.000Z</Time>
            <Position>
              <LatitudeDegrees>42.09175896830856800079345703125</LatitudeDegrees>
              <LongitudeDegrees>-2.7421595714986324310302734375</LongitudeDegrees>
            </Position>
            <AltitudeMeters>1231.199951171875</AltitudeMeters>
            <DistanceMeters>218968.3830906</DistanceMeters>
          </Trackpoint>
          <Trackpoint>
            <Time>2021-07-29T13:16:31.000Z</Time>
            <Position>
              <LatitudeDegrees>42.0919568650424480438232421875</LatitudeDegrees>
              <LongitudeDegrees>-2.7418172545731067657470703125</LongitudeDegrees>
            </Position>
            <AltitudeMeters>1229.5999755859375</AltitudeMeters>
            <DistanceMeters>219004.22340832</DistanceMeters>
          </Trackpoint>
          <Trackpoint>
            <Time>2021-07-29T13:16:33.000Z</Time>
            <Position>
              <LatitudeDegrees>42.092075385153293609619140625</LatitudeDegrees>
              <LongitudeDegrees>-2.74168373085558414459228515625</LongitudeDegrees>
            </Position>
            <AltitudeMeters>1228.4000244140625</AltitudeMeters>
            <DistanceMeters>219021.41720495</DistanceMeters>
          </Trackpoint>
          <Trackpoint>
            <Time>2021-07-29T13:16:36.000Z</Time>
            <Position>
              <LatitudeDegrees>42.09228954277932643890380859375</LatitudeDegrees>
              <LongitudeDegrees>-2.74158817715942859649658203125</LongitudeDegrees>
            </Position>
            <AltitudeMeters>1227.4000244140625</AltitudeMeters>
            <DistanceMeters>219046.52584524</DistanceMeters>
          </Trackpoint>
          <Trackpoint>
            <Time>2021-07-29T13:16:37.000Z</Time>
            <Position>
              <LatitudeDegrees>42.09236665628850460052490234375</LatitudeDegrees>
              <LongitudeDegrees>-2.7415805496275424957275390625</LongitudeDegrees>
            </Position>
            <AltitudeMeters>1227</AltitudeMeters>
            <DistanceMeters>219055.13192954</DistanceMeters>
          </Trackpoint>
          <Trackpoint>
            <Time>2021-07-29T13:16:38.000Z</Time>
            <Position>
              <LatitudeDegrees>42.0924453623592853546142578125</LatitudeDegrees>
              <LongitudeDegrees>-2.74157275445759296417236328125</LongitudeDegrees>
            </Position>
            <AltitudeMeters>1226.199951171875</AltitudeMeters>
            <DistanceMeters>219063.91560605</DistanceMeters>
          </Trackpoint>
          <Trackpoint>
            <Time>2021-07-29T13:16:39.000Z</Time>
            <Position>
              <LatitudeDegrees>42.09252440370619297027587890625</LatitudeDegrees>
              <LongitudeDegrees>-2.74155682884156703948974609375</LongitudeDegrees>
            </Position>
            <AltitudeMeters>1224.800048828125</AltitudeMeters>
            <DistanceMeters>219072.81063443</DistanceMeters>
          </Trackpoint>
          <Trackpoint>
            <Time>2021-07-29T13:16:41.000Z</Time>
            <Position>
              <LatitudeDegrees>42.09267075173556804656982421875</LatitudeDegrees>
              <LongitudeDegrees>-2.74146974086761474609375</LongitudeDegrees>
            </Position>
            <AltitudeMeters>1223.199951171875</AltitudeMeters>
            <DistanceMeters>219090.61692669</DistanceMeters>
          </Trackpoint>
          <Trackpoint>
            <Time>2021-07-29T13:16:43.000Z</Time>
            <Position>
              <LatitudeDegrees>42.09278491325676441192626953125</LatitudeDegrees>
              <LongitudeDegrees>-2.74129682220518589019775390625</LongitudeDegrees>
            </Position>
            <AltitudeMeters>1221.800048828125</AltitudeMeters>
            <DistanceMeters>219109.7331275</DistanceMeters>
          </Trackpoint>
          <Trackpoint>
            <Time>2021-07-29T13:16:45.000Z</Time>
            <Position>
              <LatitudeDegrees>42.0928473584353923797607421875</LatitudeDegrees>
              <LongitudeDegrees>-2.741055004298686981201171875</LongitudeDegrees>
            </Position>
            <AltitudeMeters>1220.199951171875</AltitudeMeters>
            <DistanceMeters>219130.8803615</DistanceMeters>
          </Trackpoint>
          <Trackpoint>
            <Time>2021-07-29T13:16:46.000Z</Time>
            <Position>
              <LatitudeDegrees>42.0928676426410675048828125</LatitudeDegrees>
              <LongitudeDegrees>-2.7409187145531177520751953125</LongitudeDegrees>
            </Position>
            <AltitudeMeters>1219.5999755859375</AltitudeMeters>
            <DistanceMeters>219142.36130336</DistanceMeters>
          </Trackpoint>
          <Trackpoint>
            <Time>2021-07-29T13:16:47.000Z</Time>
            <Position>
              <LatitudeDegrees>42.0928889326751232147216796875</LatitudeDegrees>
              <LongitudeDegrees>-2.74077664129436016082763671875</LongitudeDegrees>
            </Position>
            <AltitudeMeters>1218.4000244140625</AltitudeMeters>
            <DistanceMeters>219154.33202945</DistanceMeters>
          </Trackpoint>
          <Trackpoint>
            <Time>2021-07-29T13:16:48.000Z</Time>
            <Position>
              <LatitudeDegrees>42.092915587127208709716796875</LatitudeDegrees>
              <LongitudeDegrees>-2.7406315505504608154296875</LongitudeDegrees>
            </Position>
            <AltitudeMeters>1217</AltitudeMeters>
            <DistanceMeters>219166.67745897</DistanceMeters>
          </Trackpoint>
          <Trackpoint>
            <Time>2021-07-29T13:16:49.000Z</Time>
            <Position>
              <LatitudeDegrees>42.09294953383505344390869140625</LatitudeDegrees>
              <LongitudeDegrees>-2.74048545397818088531494140625</LongitudeDegrees>
            </Position>
            <AltitudeMeters>1215.5999755859375</AltitudeMeters>
            <DistanceMeters>219179.32172659</DistanceMeters>
          </Trackpoint>
          <Trackpoint>
            <Time>2021-07-29T13:16:51.000Z</Time>
            <Position>
              <LatitudeDegrees>42.0930294133722782135009765625</LatitudeDegrees>
              <LongitudeDegrees>-2.74018420837819576263427734375</LongitudeDegrees>
            </Position>
            <AltitudeMeters>1214.199951171875</AltitudeMeters>
            <DistanceMeters>219205.74325473</DistanceMeters>
          </Trackpoint>
          <Trackpoint>
            <Time>2021-07-29T13:16:53.000Z</Time>
            <Position>
              <LatitudeDegrees>42.09310208447277545928955078125</LatitudeDegrees>
              <LongitudeDegrees>-2.73986469022929668426513671875</LongitudeDegrees>
            </Position>
            <AltitudeMeters>1212.5999755859375</AltitudeMeters>
            <DistanceMeters>219233.34454871</DistanceMeters>
          </Trackpoint>
          <Trackpoint>
            <Time>2021-07-29T13:16:55.000Z</Time>
            <Position>
              <LatitudeDegrees>42.09316595457494258880615234375</LatitudeDegrees>
              <LongitudeDegrees>-2.7395279891788959503173828125</LongitudeDegrees>
            </Position>
            <AltitudeMeters>1211</AltitudeMeters>
            <DistanceMeters>219262.04765054</DistanceMeters>
          </Trackpoint>
          <Trackpoint>
            <Time>2021-07-29T13:16:57.000Z</Time>
            <Position>
              <LatitudeDegrees>42.0932265557348728179931640625</LatitudeDegrees>
              <LongitudeDegrees>-2.73917452432215213775634765625</LongitudeDegrees>
            </Position>
            <AltitudeMeters>1209</AltitudeMeters>
            <DistanceMeters>219292.01001209</DistanceMeters>
          </Trackpoint>
          <Trackpoint>
            <Time>2021-07-29T13:16:58.000Z</Time>
            <Position>
              <LatitudeDegrees>42.09325614385306835174560546875</LatitudeDegrees>
              <LongitudeDegrees>-2.73899498395621776580810546875</LongitudeDegrees>
            </Position>
            <AltitudeMeters>1207.5999755859375</AltitudeMeters>
            <DistanceMeters>219307.2000257</DistanceMeters>
          </Trackpoint>
          <Trackpoint>
            <Time>2021-07-29T13:16:59.000Z</Time>
            <Position>
              <LatitudeDegrees>42.09328464232385158538818359375</LatitudeDegrees>
              <LongitudeDegrees>-2.73881770670413970947265625</LongitudeDegrees>
            </Position>
            <AltitudeMeters>1206</AltitudeMeters>
            <DistanceMeters>219322.18113113</DistanceMeters>
          </Trackpoint>
          <Trackpoint>
            <Time>2021-07-29T13:17:00.000Z</Time>
            <Position>
              <LatitudeDegrees>42.093312554061412811279296875</LatitudeDegrees>
              <LongitudeDegrees>-2.73864529095590114593505859375</LongitudeDegrees>
            </Position>
            <AltitudeMeters>1204.4000244140625</AltitudeMeters>
            <DistanceMeters>219336.75588733</DistanceMeters>
          </Trackpoint>
          <Trackpoint>
            <Time>2021-07-29T13:17:01.000Z</Time>
            <Position>
              <LatitudeDegrees>42.0933402143418788909912109375</LatitudeDegrees>
              <LongitudeDegrees>-2.7384765632450580596923828125</LongitudeDegrees>
            </Position>
            <AltitudeMeters>1203</AltitudeMeters>
            <DistanceMeters>219351.02762178</DistanceMeters>
          </Trackpoint>
          <Trackpoint>
            <Time>2021-07-29T13:17:03.000Z</Time>
            <Position>
              <LatitudeDegrees>42.09339293651282787322998046875</LatitudeDegrees>
              <LongitudeDegrees>-2.73814572952687740325927734375</LongitudeDegrees>
            </Position>
            <AltitudeMeters>1201.4000244140625</AltitudeMeters>
            <DistanceMeters>219378.97517072</DistanceMeters>
          </Trackpoint>
          <Trackpoint>
            <Time>2021-07-29T13:17:07.000Z</Time>
            <Position>
              <LatitudeDegrees>42.09352076053619384765625</LatitudeDegrees>
              <LongitudeDegrees>-2.7375398017466068267822265625</LongitudeDegrees>
            </Position>
            <AltitudeMeters>1200.4000244140625</AltitudeMeters>
            <DistanceMeters>219431.0029694</DistanceMeters>
          </Trackpoint>
          <Trackpoint>
            <Time>2021-07-29T13:17:10.000Z</Time>
            <Position>
              <LatitudeDegrees>42.09367004223167896270751953125</LatitudeDegrees>
              <LongitudeDegrees>-2.73716387338936328887939453125</LongitudeDegrees>
            </Position>
            <AltitudeMeters>1199.4000244140625</AltitudeMeters>
            <DistanceMeters>219466.21777223</DistanceMeters>
          </Trackpoint>
          <Trackpoint>
            <Time>2021-07-29T13:17:11.000Z</Time>
            <Position>
              <LatitudeDegrees>42.09369149990379810333251953125</LatitudeDegrees>
              <LongitudeDegrees>-2.7370439283549785614013671875</LongitudeDegrees>
            </Position>
            <AltitudeMeters>1199.199951171875</AltitudeMeters>
            <DistanceMeters>219476.40825205</DistanceMeters>
          </Trackpoint>
          <Trackpoint>
            <Time>2021-07-29T13:17:15.000Z</Time>
            <Position>
              <LatitudeDegrees>42.0935891568660736083984375</LatitudeDegrees>
              <LongitudeDegrees>-2.7365993522107601165771484375</LongitudeDegrees>
            </Position>
            <AltitudeMeters>1198.4000244140625</AltitudeMeters>
            <DistanceMeters>219514.85298852</DistanceMeters>
          </Trackpoint>
          <Trackpoint>
            <Time>2021-07-29T13:17:16.000Z</Time>
            <Position>
              <LatitudeDegrees>42.09354783408343791961669921875</LatitudeDegrees>
              <LongitudeDegrees>-2.736496590077877044677734375</LongitudeDegrees>
            </Position>
            <AltitudeMeters>1198</AltitudeMeters>
            <DistanceMeters>219524.50603772</DistanceMeters>
          </Trackpoint>
          <Trackpoint>
            <Time>2021-07-29T13:17:20.000Z</Time>
            <Position>
              <LatitudeDegrees>42.09338002838194370269775390625</LatitudeDegrees>
              <LongitudeDegrees>-2.7360773272812366485595703125</LongitudeDegrees>
            </Position>
            <AltitudeMeters>1196.800048828125</AltitudeMeters>
            <DistanceMeters>219563.84962225</DistanceMeters>
          </Trackpoint>
          <Trackpoint>
            <Time>2021-07-29T13:17:21.000Z</Time>
            <Position>
              <LatitudeDegrees>42.093341387808322906494140625</LatitudeDegrees>
              <LongitudeDegrees>-2.73596576415002346038818359375</LongitudeDegrees>
            </Position>
            <AltitudeMeters>1196</AltitudeMeters>
            <DistanceMeters>219574.01792473</DistanceMeters>
          </Trackpoint>
          <Trackpoint>
            <Time>2021-07-29T13:17:23.000Z</Time>
            <Position>
              <LatitudeDegrees>42.093276679515838623046875</LatitudeDegrees>
              <LongitudeDegrees>-2.7357326634228229522705078125</LongitudeDegrees>
            </Position>
            <AltitudeMeters>1194.800048828125</AltitudeMeters>
            <DistanceMeters>219594.57314978</DistanceMeters>
          </Trackpoint>
          <Trackpoint>
            <Time>2021-07-29T13:17:24.000Z</Time>
            <Position>
              <LatitudeDegrees>42.09325312636792659759521484375</LatitudeDegrees>
              <LongitudeDegrees>-2.73560844361782073974609375</LongitudeDegrees>
            </Position>
            <AltitudeMeters>1193.4000244140625</AltitudeMeters>
            <DistanceMeters>219605.16255435</DistanceMeters>
          </Trackpoint>
          <Trackpoint>
            <Time>2021-07-29T13:17:25.000Z</Time>
            <Position>
              <LatitudeDegrees>42.09323720075190067291259765625</LatitudeDegrees>
              <LongitudeDegrees>-2.7354802004992961883544921875</LongitudeDegrees>
            </Position>
            <AltitudeMeters>1191.800048828125</AltitudeMeters>
            <DistanceMeters>219615.90183442</DistanceMeters>
          </Trackpoint>
          <Trackpoint>
            <Time>2021-07-29T13:17:26.000Z</Time>
            <Position>
              <LatitudeDegrees>42.09322772920131683349609375</LatitudeDegrees>
              <LongitudeDegrees>-2.735347934067249298095703125</LongitudeDegrees>
            </Position>
            <AltitudeMeters>1190.800048828125</AltitudeMeters>
            <DistanceMeters>219626.87649431</DistanceMeters>
          </Trackpoint>
          <Trackpoint>
            <Time>2021-07-29T13:17:28.000Z</Time>
            <Position>
              <LatitudeDegrees>42.09322311915457248687744140625</LatitudeDegrees>
              <LongitudeDegrees>-2.735073678195476531982421875</LongitudeDegrees>
            </Position>
            <AltitudeMeters>1189.4000244140625</AltitudeMeters>
            <DistanceMeters>219649.53354146</DistanceMeters>
          </Trackpoint>
          <Trackpoint>
            <Time>2021-07-29T13:17:32.000Z</Time>
            <Position>
              <LatitudeDegrees>42.0932118035852909088134765625</LatitudeDegrees>
              <LongitudeDegrees>-2.73454033769667148590087890625</LongitudeDegrees>
            </Position>
            <AltitudeMeters>1188.4000244140625</AltitudeMeters>
            <DistanceMeters>219693.60114928</DistanceMeters>
          </Trackpoint>
          <Trackpoint>
            <Time>2021-07-29T13:17:34.000Z</Time>
            <Position>
              <LatitudeDegrees>42.09317634813487529754638671875</LatitudeDegrees>
              <LongitudeDegrees>-2.73431134410202503204345703125</LongitudeDegrees>
            </Position>
            <AltitudeMeters>1188.199951171875</AltitudeMeters>
            <DistanceMeters>219712.92150824</DistanceMeters>
          </Trackpoint>
          <Trackpoint>
            <Time>2021-07-29T13:17:39.000Z</Time>
            <Position>
              <LatitudeDegrees>42.09305229596793651580810546875</LatitudeDegrees>
              <LongitudeDegrees>-2.73387967608869075775146484375</LongitudeDegrees>
            </Position>
            <AltitudeMeters>1189.800048828125</AltitudeMeters>
            <DistanceMeters>219751.15438224</DistanceMeters>
          </Trackpoint>
          <Trackpoint>
            <Time>2021-07-29T13:17:42.000Z</Time>
            <Position>
              <LatitudeDegrees>42.09302522242069244384765625</LatitudeDegrees>
              <LongitudeDegrees>-2.7337543666362762451171875</LongitudeDegrees>
            </Position>
            <AltitudeMeters>1191.199951171875</AltitudeMeters>
            <DistanceMeters>219761.93394733</DistanceMeters>
          </Trackpoint>
          <Trackpoint>
            <Time>2021-07-29T13:17:50.000Z</Time>
            <Position>
              <LatitudeDegrees>42.093056738376617431640625</LatitudeDegrees>
              <LongitudeDegrees>-2.73359938524663448333740234375</LongitudeDegrees>
            </Position>
            <AltitudeMeters>1191</AltitudeMeters>
            <DistanceMeters>219775.20642756</DistanceMeters>
          </Trackpoint>
          <Trackpoint>
            <Time>2021-07-29T13:19:21.000Z</Time>
            <Position>
              <LatitudeDegrees>42.0931021682918071746826171875</LatitudeDegrees>
              <LongitudeDegrees>-2.732840739190578460693359375</LongitudeDegrees>
            </Position>
            <AltitudeMeters>1192.800048828125</AltitudeMeters>
            <DistanceMeters>219838.06859227</DistanceMeters>
          </Trackpoint>
          <Trackpoint>
            <Time>2021-07-29T13:19:40.000Z</Time>
            <Position>
              <LatitudeDegrees>42.09340148605406284332275390625</LatitudeDegrees>
              <LongitudeDegrees>-2.7325002662837505340576171875</LongitudeDegrees>
            </Position>
            <AltitudeMeters>1193.199951171875</AltitudeMeters>
            <DistanceMeters>219881.66473201</DistanceMeters>
          </Trackpoint>
          <Trackpoint>
            <Time>2021-07-29T13:20:01.000Z</Time>
            <Position>
              <LatitudeDegrees>42.0935963653028011322021484375</LatitudeDegrees>
              <LongitudeDegrees>-2.73237101733684539794921875</LongitudeDegrees>
            </Position>
            <AltitudeMeters>1193</AltitudeMeters>
            <DistanceMeters>219905.83983444</DistanceMeters>
          </Trackpoint>
          <Trackpoint>
            <Time>2021-07-29T13:20:10.000Z</Time>
            <Position>
              <LatitudeDegrees>42.09367088042199611663818359375</LatitudeDegrees>
              <LongitudeDegrees>-2.73230798542499542236328125</LongitudeDegrees>
            </Position>
            <AltitudeMeters>1192.800048828125</AltitudeMeters>
            <DistanceMeters>219915.63173679</DistanceMeters>
          </Trackpoint>
          <Trackpoint>
            <Time>2021-07-29T13:20:13.000Z</Time>
            <Position>
              <LatitudeDegrees>42.09369334392249584197998046875</LatitudeDegrees>
              <LongitudeDegrees>-2.73232634179294109344482421875</LongitudeDegrees>
            </Position>
            <AltitudeMeters>1192.4000244140625</AltitudeMeters>
            <DistanceMeters>219918.55602857</DistanceMeters>
          </Trackpoint>
          <Trackpoint>
            <Time>2021-07-29T13:20:15.000Z</Time>
            <Position>
              <LatitudeDegrees>42.0936781726777553558349609375</LatitudeDegrees>
              <LongitudeDegrees>-2.73234444670379161834716796875</LongitudeDegrees>
            </Position>
            <AltitudeMeters>1192.199951171875</AltitudeMeters>
            <DistanceMeters>219920.81278799</DistanceMeters>
          </Trackpoint>
          <Trackpoint>
            <Time>2021-07-29T13:20:40.000Z</Time>
            <Position>
              <LatitudeDegrees>42.0932255499064922332763671875</LatitudeDegrees>
              <LongitudeDegrees>-2.73273034952580928802490234375</LongitudeDegrees>
            </Position>
            <AltitudeMeters>1192.5999755859375</AltitudeMeters>
            <DistanceMeters>219980.42643227</DistanceMeters>
          </Trackpoint>
          <Trackpoint>
            <Time>2021-07-29T13:20:55.000Z</Time>
            <Position>
              <LatitudeDegrees>42.0930817164480686187744140625</LatitudeDegrees>
              <LongitudeDegrees>-2.73312044329941272735595703125</LongitudeDegrees>
            </Position>
            <AltitudeMeters>1192.800048828125</AltitudeMeters>
            <DistanceMeters>220016.40317486</DistanceMeters>
          </Trackpoint>
          <Trackpoint>
            <Time>2021-07-29T13:25:56.000Z</Time>
            <Position>
              <LatitudeDegrees>42.09307760931551456451416015625</LatitudeDegrees>
              <LongitudeDegrees>-2.7330008335411548614501953125</LongitudeDegrees>
            </Position>
            <AltitudeMeters>1192.800048828125</AltitudeMeters>
            <DistanceMeters>220026.29234712</DistanceMeters>
          </Trackpoint>
          <Trackpoint>
            <Time>2021-07-29T13:26:01.000Z</Time>
            <Position>
              <LatitudeDegrees>42.0931092090904712677001953125</LatitudeDegrees>
              <LongitudeDegrees>-2.73290754295885562896728515625</LongitudeDegrees>
            </Position>
            <AltitudeMeters>1193</AltitudeMeters>
            <DistanceMeters>220034.76199453</DistanceMeters>
          </Trackpoint>
          <Trackpoint>
            <Time>2021-07-29T13:26:20.000Z</Time>
            <Position>
              <LatitudeDegrees>42.09342076443135738372802734375</LatitudeDegrees>
              <LongitudeDegrees>-2.732488028705120086669921875</LongitudeDegrees>
            </Position>
            <AltitudeMeters>1193.800048828125</AltitudeMeters>
            <DistanceMeters>220083.7823336</DistanceMeters>
          </Trackpoint>
          <Trackpoint>
            <Time>2021-07-29T13:26:29.000Z</Time>
            <Position>
              <LatitudeDegrees>42.0937120355665683746337890625</LatitudeDegrees>
              <LongitudeDegrees>-2.73230371065437793731689453125</LongitudeDegrees>
            </Position>
            <AltitudeMeters>1192.800048828125</AltitudeMeters>
            <DistanceMeters>220119.59769928</DistanceMeters>
          </Trackpoint>
          <Trackpoint>
            <Time>2021-07-29T13:26:32.000Z</Time>
            <Position>
              <LatitudeDegrees>42.0938387699425220489501953125</LatitudeDegrees>
              <LongitudeDegrees>-2.7321676723659038543701171875</LongitudeDegrees>
            </Position>
            <AltitudeMeters>1191.800048828125</AltitudeMeters>
            <DistanceMeters>220137.63175687</DistanceMeters>
          </Trackpoint>
          <Trackpoint>
            <Time>2021-07-29T13:26:34.000Z</Time>
            <Position>
              <LatitudeDegrees>42.093927450478076934814453125</LatitudeDegrees>
              <LongitudeDegrees>-2.73204789496958255767822265625</LongitudeDegrees>
            </Position>
            <AltitudeMeters>1190.800048828125</AltitudeMeters>
            <DistanceMeters>220151.60650063</DistanceMeters>
          </Trackpoint>
          <Trackpoint>
            <Time>2021-07-29T13:26:36.000Z</Time>
            <Position>
              <LatitudeDegrees>42.09401822648942470550537109375</LatitudeDegrees>
              <LongitudeDegrees>-2.73191143758594989776611328125</LongitudeDegrees>
            </Position>
            <AltitudeMeters>1189.5999755859375</AltitudeMeters>
            <DistanceMeters>220166.74232038</DistanceMeters>
          </Trackpoint>
          <Trackpoint>
            <Time>2021-07-29T13:26:46.000Z</Time>
            <Position>
              <LatitudeDegrees>42.09441217593848705291748046875</LatitudeDegrees>
              <LongitudeDegrees>-2.7313874848186969757080078125</LongitudeDegrees>
            </Position>
            <AltitudeMeters>1189.800048828125</AltitudeMeters>
            <DistanceMeters>220228.34763434</DistanceMeters>
          </Trackpoint>
          <Trackpoint>
            <Time>2021-07-29T13:26:58.000Z</Time>
            <Position>
              <LatitudeDegrees>42.09461568854749202728271484375</LatitudeDegrees>
              <LongitudeDegrees>-2.73109369911253452301025390625</LongitudeDegrees>
            </Position>
            <AltitudeMeters>1190.800048828125</AltitudeMeters>
            <DistanceMeters>220261.5414872</DistanceMeters>
          </Trackpoint>
          <Trackpoint>
            <Time>2021-07-29T13:27:06.000Z</Time>
            <Position>
              <LatitudeDegrees>42.09467218257486820220947265625</LatitudeDegrees>
              <LongitudeDegrees>-2.731033265590667724609375</LongitudeDegrees>
            </Position>
            <AltitudeMeters>1191</AltitudeMeters>
            <DistanceMeters>220269.56941692</DistanceMeters>
          </Trackpoint>
          <Trackpoint>
            <Time>2021-07-29T13:36:48.000Z</Time>
            <Position>
              <LatitudeDegrees>42.095029167830944061279296875</LatitudeDegrees>
              <LongitudeDegrees>-2.730522640049457550048828125</LongitudeDegrees>
            </Position>
            <AltitudeMeters>1192</AltitudeMeters>
            <DistanceMeters>220327.51124983</DistanceMeters>
          </Trackpoint>
          <Trackpoint>
            <Time>2021-07-29T13:37:07.000Z</Time>
            <Position>
              <LatitudeDegrees>42.09530736319720745086669921875</LatitudeDegrees>
              <LongitudeDegrees>-2.72996230982244014739990234375</LongitudeDegrees>
            </Position>
            <AltitudeMeters>1191.199951171875</AltitudeMeters>
            <DistanceMeters>220383.19220156</DistanceMeters>
          </Trackpoint>
          <Trackpoint>
            <Time>2021-07-29T13:37:23.000Z</Time>
            <Position>
              <LatitudeDegrees>42.09561615251004695892333984375</LatitudeDegrees>
              <LongitudeDegrees>-2.729349173605442047119140625</LongitudeDegrees>
            </Position>
            <AltitudeMeters>1191.4000244140625</AltitudeMeters>
            <DistanceMeters>220444.39250424</DistanceMeters>
          </Trackpoint>
          <Trackpoint>
            <Time>2021-07-29T13:37:40.000Z</Time>
            <Position>
              <LatitudeDegrees>42.09572914056479930877685546875</LatitudeDegrees>
              <LongitudeDegrees>-2.72861324250698089599609375</LongitudeDegrees>
            </Position>
            <AltitudeMeters>1190.5999755859375</AltitudeMeters>
            <DistanceMeters>220506.45971758</DistanceMeters>
          </Trackpoint>
          <Trackpoint>
            <Time>2021-07-29T13:37:45.000Z</Time>
            <Position>
              <LatitudeDegrees>42.09570340812206268310546875</LatitudeDegrees>
              <LongitudeDegrees>-2.72835382260382175445556640625</LongitudeDegrees>
            </Position>
            <AltitudeMeters>1190.4000244140625</AltitudeMeters>
            <DistanceMeters>220528.07573653</DistanceMeters>
          </Trackpoint>
          <Trackpoint>
            <Time>2021-07-29T13:37:52.000Z</Time>
            <Position>
              <LatitudeDegrees>42.09564817138016223907470703125</LatitudeDegrees>
              <LongitudeDegrees>-2.72796875797212123870849609375</LongitudeDegrees>
            </Position>
            <AltitudeMeters>1189.800048828125</AltitudeMeters>
            <DistanceMeters>220560.46660657</DistanceMeters>
          </Trackpoint>
          <Trackpoint>
            <Time>2021-07-29T13:38:05.000Z</Time>
            <Position>
              <LatitudeDegrees>42.095539458096027374267578125</LatitudeDegrees>
              <LongitudeDegrees>-2.7272151410579681396484375</LongitudeDegrees>
            </Position>
            <AltitudeMeters>1189.4000244140625</AltitudeMeters>
            <DistanceMeters>220623.8724296</DistanceMeters>
          </Trackpoint>
          <Trackpoint>
            <Time>2021-07-29T13:38:26.000Z</Time>
            <Position>
              <LatitudeDegrees>42.09545404650270938873291015625</LatitudeDegrees>
              <LongitudeDegrees>-2.72654903121292591094970703125</LongitudeDegrees>
            </Position>
            <AltitudeMeters>1188.4000244140625</AltitudeMeters>
            <DistanceMeters>220679.70125106</DistanceMeters>
          </Trackpoint>
          <Trackpoint>
            <Time>2021-07-29T13:38:31.000Z</Time>
            <Position>
              <LatitudeDegrees>42.09548204205930233001708984375</LatitudeDegrees>
              <LongitudeDegrees>-2.72629723884165287017822265625</LongitudeDegrees>
            </Position>
            <AltitudeMeters>1187.199951171875</AltitudeMeters>
            <DistanceMeters>220700.72879711</DistanceMeters>
          </Trackpoint>
          <Trackpoint>
            <Time>2021-07-29T13:38:35.000Z</Time>
            <Position>
              <LatitudeDegrees>42.09550785832107067108154296875</LatitudeDegrees>
              <LongitudeDegrees>-2.725998423993587493896484375</LongitudeDegrees>
            </Position>
            <AltitudeMeters>1185.5999755859375</AltitudeMeters>
            <DistanceMeters>220725.57460332</DistanceMeters>
          </Trackpoint>
          <Trackpoint>
            <Time>2021-07-29T13:38:38.000Z</Time>
            <Position>
              <LatitudeDegrees>42.09552043117582798004150390625</LatitudeDegrees>
              <LongitudeDegrees>-2.72576414979994297027587890625</LongitudeDegrees>
            </Position>
            <AltitudeMeters>1184.5999755859375</AltitudeMeters>
            <DistanceMeters>220744.97378979</DistanceMeters>
          </Trackpoint>
          <Trackpoint>
            <Time>2021-07-29T13:38:48.000Z</Time>
            <Position>
              <LatitudeDegrees>42.09553987719118595123291015625</LatitudeDegrees>
              <LongitudeDegrees>-2.72505872882902622222900390625</LongitudeDegrees>
            </Position>
            <AltitudeMeters>1183.199951171875</AltitudeMeters>
            <DistanceMeters>220803.2742086</DistanceMeters>
          </Trackpoint>
          <Trackpoint>
            <Time>2021-07-29T13:38:49.000Z</Time>
            <Position>
              <LatitudeDegrees>42.0955444872379302978515625</LatitudeDegrees>
              <LongitudeDegrees>-2.72497490979731082916259765625</LongitudeDegrees>
            </Position>
            <AltitudeMeters>1182.4000244140625</AltitudeMeters>
            <DistanceMeters>220810.21571333</DistanceMeters>
          </Trackpoint>
          <Trackpoint>
            <Time>2021-07-29T13:38:50.000Z</Time>
            <Position>
              <LatitudeDegrees>42.09555630572140216827392578125</LatitudeDegrees>
              <LongitudeDegrees>-2.72488740272819995880126953125</LongitudeDegrees>
            </Position>
            <AltitudeMeters>1182</AltitudeMeters>
            <DistanceMeters>220817.56171475</DistanceMeters>
          </Trackpoint>
          <Trackpoint>
            <Time>2021-07-29T13:38:53.000Z</Time>
            <Position>
              <LatitudeDegrees>42.09563291631639003753662109375</LatitudeDegrees>
              <LongitudeDegrees>-2.7246159128844738006591796875</LongitudeDegrees>
            </Position>
            <AltitudeMeters>1181.199951171875</AltitudeMeters>
            <DistanceMeters>220841.55064369</DistanceMeters>
          </Trackpoint>
          <Trackpoint>
            <Time>2021-07-29T13:38:54.000Z</Time>
            <Position>
              <LatitudeDegrees>42.09566594101488590240478515625</LatitudeDegrees>
              <LongitudeDegrees>-2.724519856274127960205078125</LongitudeDegrees>
            </Position>
            <AltitudeMeters>1180.4000244140625</AltitudeMeters>
            <DistanceMeters>220850.29413425</DistanceMeters>
          </Trackpoint>
          <Trackpoint>
            <Time>2021-07-29T13:38:56.000Z</Time>
            <Position>
              <LatitudeDegrees>42.095732577145099639892578125</LatitudeDegrees>
              <LongitudeDegrees>-2.72431491874158382415771484375</LongitudeDegrees>
            </Position>
            <AltitudeMeters>1178.4000244140625</AltitudeMeters>
            <DistanceMeters>220868.77334881</DistanceMeters>
          </Trackpoint>
          <Trackpoint>
            <Time>2021-07-29T13:38:57.000Z</Time>
            <Position>
              <LatitudeDegrees>42.09576250053942203521728515625</LatitudeDegrees>
              <LongitudeDegrees>-2.72420763038098812103271484375</LongitudeDegrees>
            </Position>
            <AltitudeMeters>1177.4000244140625</AltitudeMeters>
            <DistanceMeters>220878.23888728</DistanceMeters>
          </Trackpoint>
          <Trackpoint>
            <Time>2021-07-29T13:38:59.000Z</Time>
            <Position>
              <LatitudeDegrees>42.0958259515464305877685546875</LatitudeDegrees>
              <LongitudeDegrees>-2.723997496068477630615234375</LongitudeDegrees>
            </Position>
            <AltitudeMeters>1176.5999755859375</AltitudeMeters>
            <DistanceMeters>220896.97554338</DistanceMeters>
          </Trackpoint>
          <Trackpoint>
            <Time>2021-07-29T13:39:00.000Z</Time>
            <Position>
              <LatitudeDegrees>42.09587104618549346923828125</LatitudeDegrees>
              <LongitudeDegrees>-2.7239017747342586517333984375</LongitudeDegrees>
            </Position>
            <AltitudeMeters>1176.4000244140625</AltitudeMeters>
            <DistanceMeters>220906.33941236</DistanceMeters>
          </Trackpoint>
          <Trackpoint>
            <Time>2021-07-29T13:39:02.000Z</Time>
            <Position>
              <LatitudeDegrees>42.09597741253674030303955078125</LatitudeDegrees>
              <LongitudeDegrees>-2.72373271174728870391845703125</LongitudeDegrees>
            </Position>
            <AltitudeMeters>1175</AltitudeMeters>
            <DistanceMeters>220924.64581006</DistanceMeters>
          </Trackpoint>
          <Trackpoint>
            <Time>2021-07-29T13:39:03.000Z</Time>
            <Position>
              <LatitudeDegrees>42.09603323601186275482177734375</LatitudeDegrees>
              <LongitudeDegrees>-2.7236630581319332122802734375</LongitudeDegrees>
            </Position>
            <AltitudeMeters>1174.5999755859375</AltitudeMeters>
            <DistanceMeters>220933.11332487</DistanceMeters>
          </Trackpoint>
          <Trackpoint>
            <Time>2021-07-29T13:39:08.000Z</Time>
            <Position>
              <LatitudeDegrees>42.09623926319181919097900390625</LatitudeDegrees>
              <LongitudeDegrees>-2.723349742591381072998046875</LongitudeDegrees>
            </Position>
            <AltitudeMeters>1174.800048828125</AltitudeMeters>
            <DistanceMeters>220967.68816514</DistanceMeters>
          </Trackpoint>
          <Trackpoint>
            <Time>2021-07-29T13:39:22.000Z</Time>
            <Position>
              <LatitudeDegrees>42.09650815464556217193603515625</LatitudeDegrees>
              <LongitudeDegrees>-2.722701318562030792236328125</LongitudeDegrees>
            </Position>
            <AltitudeMeters>1175.5999755859375</AltitudeMeters>
            <DistanceMeters>221029.03576632</DistanceMeters>
          </Trackpoint>
          <Trackpoint>
            <Time>2021-07-29T13:39:26.000Z</Time>
            <Position>
              <LatitudeDegrees>42.09655442275106906890869140625</LatitudeDegrees>
              <LongitudeDegrees>-2.72255689837038516998291015625</LongitudeDegrees>
            </Position>
            <AltitudeMeters>1176.199951171875</AltitudeMeters>
            <DistanceMeters>221042.02769415</DistanceMeters>
          </Trackpoint>
          <Trackpoint>
            <Time>2021-07-29T13:39:32.000Z</Time>
            <Position>
              <LatitudeDegrees>42.0966037921607494354248046875</LatitudeDegrees>
              <LongitudeDegrees>-2.72240350954234600067138671875</LongitudeDegrees>
            </Position>
            <AltitudeMeters>1177.199951171875</AltitudeMeters>
            <DistanceMeters>221055.83635427</DistanceMeters>
          </Trackpoint>
          <Trackpoint>
            <Time>2021-07-29T13:40:05.000Z</Time>
            <Position>
              <LatitudeDegrees>42.09688098169863224029541015625</LatitudeDegrees>
              <LongitudeDegrees>-2.72176153957843780517578125</LongitudeDegrees>
            </Position>
            <AltitudeMeters>1178</AltitudeMeters>
            <DistanceMeters>221117.17828817</DistanceMeters>
          </Trackpoint>
          <Trackpoint>
            <Time>2021-07-29T13:40:24.000Z</Time>
            <Position>
              <LatitudeDegrees>42.0970621146261692047119140625</LatitudeDegrees>
              <LongitudeDegrees>-2.72147127427160739898681640625</LongitudeDegrees>
            </Position>
            <AltitudeMeters>1178</AltitudeMeters>
            <DistanceMeters>221148.50108826</DistanceMeters>
          </Trackpoint>
          <Trackpoint>
            <Time>2021-07-29T13:40:38.000Z</Time>
            <Position>
              <LatitudeDegrees>42.09707862697541713714599609375</LatitudeDegrees>
              <LongitudeDegrees>-2.721444703638553619384765625</LongitudeDegrees>
            </Position>
            <AltitudeMeters>1177.4000244140625</AltitudeMeters>
            <DistanceMeters>221151.36453189</DistanceMeters>
          </Trackpoint>
          <Trackpoint>
            <Time>2021-07-29T13:40:50.000Z</Time>
            <Position>
              <LatitudeDegrees>42.09729974158108234405517578125</LatitudeDegrees>
              <LongitudeDegrees>-2.721129544079303741455078125</LongitudeDegrees>
            </Position>
            <AltitudeMeters>1176.5999755859375</AltitudeMeters>
            <DistanceMeters>221187.18557001</DistanceMeters>
          </Trackpoint>
          <Trackpoint>
            <Time>2021-07-29T13:40:56.000Z</Time>
            <Position>
              <LatitudeDegrees>42.09749554283916950225830078125</LatitudeDegrees>
              <LongitudeDegrees>-2.72086978890001773834228515625</LongitudeDegrees>
            </Position>
            <AltitudeMeters>1175.5999755859375</AltitudeMeters>
            <DistanceMeters>221217.7655742</DistanceMeters>
          </Trackpoint>
          <Trackpoint>
            <Time>2021-07-29T13:40:59.000Z</Time>
            <Position>
              <LatitudeDegrees>42.09762730635702610015869140625</LatitudeDegrees>
              <LongitudeDegrees>-2.72071958519518375396728515625</LongitudeDegrees>
            </Position>
            <AltitudeMeters>1174.199951171875</AltitudeMeters>
            <DistanceMeters>221236.97413801</DistanceMeters>
          </Trackpoint>
          <Trackpoint>
            <Time>2021-07-29T13:41:03.000Z</Time>
            <Position>
              <LatitudeDegrees>42.09780952893197536468505859375</LatitudeDegrees>
              <LongitudeDegrees>-2.72050224244594573974609375</LongitudeDegrees>
            </Position>
            <AltitudeMeters>1173.4000244140625</AltitudeMeters>
            <DistanceMeters>221264.05791858</DistanceMeters>
          </Trackpoint>
          <Trackpoint>
            <Time>2021-07-29T13:41:08.000Z</Time>
            <Position>
              <LatitudeDegrees>42.0980176515877246856689453125</LatitudeDegrees>
              <LongitudeDegrees>-2.72022153250873088836669921875</LongitudeDegrees>
            </Position>
            <AltitudeMeters>1172.199951171875</AltitudeMeters>
            <DistanceMeters>221296.83028898</DistanceMeters>
          </Trackpoint>
          <Trackpoint>
            <Time>2021-07-29T13:41:16.000Z</Time>
            <Position>
              <LatitudeDegrees>42.0983076654374599456787109375</LatitudeDegrees>
              <LongitudeDegrees>-2.7197959832847118377685546875</LongitudeDegrees>
            </Position>
            <AltitudeMeters>1171.199951171875</AltitudeMeters>
            <DistanceMeters>221344.54893551</DistanceMeters>
          </Trackpoint>
          <Trackpoint>
            <Time>2021-07-29T13:41:19.000Z</Time>
            <Position>
              <LatitudeDegrees>42.0983898080885410308837890625</LatitudeDegrees>
              <LongitudeDegrees>-2.719672434031963348388671875</LongitudeDegrees>
            </Position>
            <AltitudeMeters>1171</AltitudeMeters>
            <DistanceMeters>221358.24927014</DistanceMeters>
          </Trackpoint>
          <Trackpoint>
            <Time>2021-07-29T13:41:37.000Z</Time>
            <Position>
              <LatitudeDegrees>42.0987710170447826385498046875</LatitudeDegrees>
              <LongitudeDegrees>-2.719154767692089080810546875</LongitudeDegrees>
            </Position>
            <AltitudeMeters>1171</AltitudeMeters>
            <DistanceMeters>221418.48166651</DistanceMeters>
          </Trackpoint>
          <Trackpoint>
            <Time>2021-07-29T13:41:50.000Z</Time>
            <Position>
              <LatitudeDegrees>42.09900009445846080780029296875</LatitudeDegrees>
              <LongitudeDegrees>-2.718840949237346649169921875</LongitudeDegrees>
            </Position>
            <AltitudeMeters>1171.4000244140625</AltitudeMeters>
            <DistanceMeters>221454.83779955</DistanceMeters>
          </Trackpoint>
          <Trackpoint>
            <Time>2021-07-29T13:42:00.000Z</Time>
            <Position>
              <LatitudeDegrees>42.0990385673940181732177734375</LatitudeDegrees>
              <LongitudeDegrees>-2.7187861315906047821044921875</LongitudeDegrees>
            </Position>
            <AltitudeMeters>1171.5999755859375</AltitudeMeters>
            <DistanceMeters>221461.06911792</DistanceMeters>
          </Trackpoint>
          <Trackpoint>
            <Time>2021-07-29T13:42:08.000Z</Time>
            <Position>
              <LatitudeDegrees>42.0991579256951808929443359375</LatitudeDegrees>
              <LongitudeDegrees>-2.71852369420230388641357421875</LongitudeDegrees>
            </Position>
            <AltitudeMeters>1170.5999755859375</AltitudeMeters>
            <DistanceMeters>221486.48978531</DistanceMeters>
          </Trackpoint>
          <Trackpoint>
            <Time>2021-07-29T13:42:09.000Z</Time>
            <Position>
              <LatitudeDegrees>42.09918223321437835693359375</LatitudeDegrees>
              <LongitudeDegrees>-2.718469798564910888671875</LongitudeDegrees>
            </Position>
            <AltitudeMeters>1170.199951171875</AltitudeMeters>
            <DistanceMeters>221491.69808155</DistanceMeters>
          </Trackpoint>
          <Trackpoint>
            <Time>2021-07-29T13:42:10.000Z</Time>
            <Position>
              <LatitudeDegrees>42.0992038585245609283447265625</LatitudeDegrees>
              <LongitudeDegrees>-2.7184119634330272674560546875</LongitudeDegrees>
            </Position>
            <AltitudeMeters>1169.5999755859375</AltitudeMeters>
            <DistanceMeters>221497.04581491</DistanceMeters>
          </Trackpoint>
          <Trackpoint>
            <Time>2021-07-29T13:42:12.000Z</Time>
            <Position>
              <LatitudeDegrees>42.09923629648983478546142578125</LatitudeDegrees>
              <LongitudeDegrees>-2.7182778529822826385498046875</LongitudeDegrees>
            </Position>
            <AltitudeMeters>1168.5999755859375</AltitudeMeters>
            <DistanceMeters>221508.69502041</DistanceMeters>
          </Trackpoint>
          <Trackpoint>
            <Time>2021-07-29T13:42:14.000Z</Time>
            <Position>
              <LatitudeDegrees>42.0992531441152095794677734375</LatitudeDegrees>
              <LongitudeDegrees>-2.71811013109982013702392578125</LongitudeDegrees>
            </Position>
            <AltitudeMeters>1168</AltitudeMeters>
            <DistanceMeters>221522.67267164</DistanceMeters>
          </Trackpoint>
          <Trackpoint>
            <Time>2021-07-29T13:42:15.000Z</Time>
            <Position>
              <LatitudeDegrees>42.0992601849138736724853515625</LatitudeDegrees>
              <LongitudeDegrees>-2.7180170081555843353271484375</LongitudeDegrees>
            </Position>
            <AltitudeMeters>1167.4000244140625</AltitudeMeters>
            <DistanceMeters>221530.40319852</DistanceMeters>
          </Trackpoint>
          <Trackpoint>
            <Time>2021-07-29T13:42:18.000Z</Time>
            <Position>
              <LatitudeDegrees>42.09928893484175205230712890625</LatitudeDegrees>
              <LongitudeDegrees>-2.7176954783499240875244140625</LongitudeDegrees>
            </Position>
            <AltitudeMeters>1165.5999755859375</AltitudeMeters>
            <DistanceMeters>221557.14861879</DistanceMeters>
          </Trackpoint>
          <Trackpoint>
            <Time>2021-07-29T13:42:20.000Z</Time>
            <Position>
              <LatitudeDegrees>42.0993054471909999847412109375</LatitudeDegrees>
              <LongitudeDegrees>-2.717458270490169525146484375</LongitudeDegrees>
            </Position>
            <AltitudeMeters>1163.5999755859375</AltitudeMeters>
            <DistanceMeters>221576.82419775</DistanceMeters>
          </Trackpoint>
          <Trackpoint>
            <Time>2021-07-29T13:42:21.000Z</Time>
            <Position>
              <LatitudeDegrees>42.09931634366512298583984375</LatitudeDegrees>
              <LongitudeDegrees>-2.71733455359935760498046875</LongitudeDegrees>
            </Position>
            <AltitudeMeters>1162.199951171875</AltitudeMeters>
            <DistanceMeters>221587.11300653</DistanceMeters>
          </Trackpoint>
          <Trackpoint>
            <Time>2021-07-29T13:42:22.000Z</Time>
            <Position>
              <LatitudeDegrees>42.09933000616729259490966796875</LatitudeDegrees>
              <LongitudeDegrees>-2.71721075288951396942138671875</LongitudeDegrees>
            </Position>
            <AltitudeMeters>1160.800048828125</AltitudeMeters>
            <DistanceMeters>221597.44997391</DistanceMeters>
          </Trackpoint>
          <Trackpoint>
            <Time>2021-07-29T13:42:24.000Z</Time>
            <Position>
              <LatitudeDegrees>42.09935599006712436676025390625</LatitudeDegrees>
              <LongitudeDegrees>-2.71696113981306552886962890625</LongitudeDegrees>
            </Position>
            <AltitudeMeters>1159.800048828125</AltitudeMeters>
            <DistanceMeters>221618.26581374</DistanceMeters>
          </Trackpoint>
          <Trackpoint>
            <Time>2021-07-29T13:42:31.000Z</Time>
            <Position>
              <LatitudeDegrees>42.09942589513957500457763671875</LatitudeDegrees>
              <LongitudeDegrees>-2.71613233722746372222900390625</LongitudeDegrees>
            </Position>
            <AltitudeMeters>1159</AltitudeMeters>
            <DistanceMeters>221687.15257911</DistanceMeters>
          </Trackpoint>
          <Trackpoint>
            <Time>2021-07-29T13:42:39.000Z</Time>
            <Position>
              <LatitudeDegrees>42.09947752766311168670654296875</LatitudeDegrees>
              <LongitudeDegrees>-2.71532080136239528656005859375</LongitudeDegrees>
            </Position>
            <AltitudeMeters>1160</AltitudeMeters>
            <DistanceMeters>221754.41853955</DistanceMeters>
          </Trackpoint>
          <Trackpoint>
            <Time>2021-07-29T13:42:48.000Z</Time>
            <Position>
              <LatitudeDegrees>42.09951390512287616729736328125</LatitudeDegrees>
              <LongitudeDegrees>-2.71456324495375156402587890625</LongitudeDegrees>
            </Position>
            <AltitudeMeters>1159.4000244140625</AltitudeMeters>
            <DistanceMeters>221817.11154564</DistanceMeters>
          </Trackpoint>
          <Trackpoint>
            <Time>2021-07-29T13:43:00.000Z</Time>
            <Position>
              <LatitudeDegrees>42.0995409786701202392578125</LatitudeDegrees>
              <LongitudeDegrees>-2.71390191279351711273193359375</LongitudeDegrees>
            </Position>
            <AltitudeMeters>1160.199951171875</AltitudeMeters>
            <DistanceMeters>221871.81013089</DistanceMeters>
          </Trackpoint>
          <Trackpoint>
            <Time>2021-07-29T13:43:06.000Z</Time>
            <Position>
              <LatitudeDegrees>42.09960660897195339202880859375</LatitudeDegrees>
              <LongitudeDegrees>-2.7137449197471141815185546875</LongitudeDegrees>
            </Position>
            <AltitudeMeters>1159.800048828125</AltitudeMeters>
            <DistanceMeters>221886.69144786</DistanceMeters>
          </Trackpoint>
          <Trackpoint>
            <Time>2021-07-29T13:43:10.000Z</Time>
            <Position>
              <LatitudeDegrees>42.09963527508080005645751953125</LatitudeDegrees>
              <LongitudeDegrees>-2.71357065998017787933349609375</LongitudeDegrees>
            </Position>
            <AltitudeMeters>1158.800048828125</AltitudeMeters>
            <DistanceMeters>221901.43192612</DistanceMeters>
          </Trackpoint>
          <Trackpoint>
            <Time>2021-07-29T13:43:27.000Z</Time>
            <Position>
              <LatitudeDegrees>42.0998770929872989654541015625</LatitudeDegrees>
              <LongitudeDegrees>-2.71289759315550327301025390625</LongitudeDegrees>
            </Position>
            <AltitudeMeters>1158.5999755859375</AltitudeMeters>
            <DistanceMeters>221963.18978706</DistanceMeters>
          </Trackpoint>
          <Trackpoint>
            <Time>2021-07-29T13:43:30.000Z</Time>
            <Position>
              <LatitudeDegrees>42.099947668612003326416015625</LatitudeDegrees>
              <LongitudeDegrees>-2.71276532672345638275146484375</LongitudeDegrees>
            </Position>
            <AltitudeMeters>1158</AltitudeMeters>
            <DistanceMeters>221976.64403963</DistanceMeters>
          </Trackpoint>
          <Trackpoint>
            <Time>2021-07-29T13:43:31.000Z</Time>
            <Position>
              <LatitudeDegrees>42.0999766699969768524169921875</LatitudeDegrees>
              <LongitudeDegrees>-2.7127183042466640472412109375</LongitudeDegrees>
            </Position>
            <AltitudeMeters>1157.5999755859375</AltitudeMeters>
            <DistanceMeters>221981.69388477</DistanceMeters>
          </Trackpoint>
          <Trackpoint>
            <Time>2021-07-29T13:43:34.000Z</Time>
            <Position>
              <LatitudeDegrees>42.10008068941533565521240234375</LatitudeDegrees>
              <LongitudeDegrees>-2.71255477331578731536865234375</LongitudeDegrees>
            </Position>
            <AltitudeMeters>1156.4000244140625</AltitudeMeters>
            <DistanceMeters>221999.48216486</DistanceMeters>
          </Trackpoint>
          <Trackpoint>
            <Time>2021-07-29T13:43:36.000Z</Time>
            <Position>
              <LatitudeDegrees>42.10016191005706787109375</LatitudeDegrees>
              <LongitudeDegrees>-2.71242720074951648712158203125</LongitudeDegrees>
            </Position>
            <AltitudeMeters>1155</AltitudeMeters>
            <DistanceMeters>222013.36452386</DistanceMeters>
          </Trackpoint>
          <Trackpoint>
            <Time>2021-07-29T13:43:38.000Z</Time>
            <Position>
              <LatitudeDegrees>42.10025201551616191864013671875</LatitudeDegrees>
              <LongitudeDegrees>-2.71229158155620098114013671875</LongitudeDegrees>
            </Position>
            <AltitudeMeters>1153.800048828125</AltitudeMeters>
            <DistanceMeters>222028.39857898</DistanceMeters>
          </Trackpoint>
          <Trackpoint>
            <Time>2021-07-29T13:43:41.000Z</Time>
            <Position>
              <LatitudeDegrees>42.10040071047842502593994140625</LatitudeDegrees>
              <LongitudeDegrees>-2.7120732329785823822021484375</LongitudeDegrees>
            </Position>
            <AltitudeMeters>1152.4000244140625</AltitudeMeters>
            <DistanceMeters>222052.87418462</DistanceMeters>
          </Trackpoint>
          <Trackpoint>
            <Time>2021-07-29T13:43:43.000Z</Time>
            <Position>
              <LatitudeDegrees>42.10050682537257671356201171875</LatitudeDegrees>
              <LongitudeDegrees>-2.71191020496189594268798828125</LongitudeDegrees>
            </Position>
            <AltitudeMeters>1151</AltitudeMeters>
            <DistanceMeters>222070.78363227</DistanceMeters>
          </Trackpoint>
          <Trackpoint>
            <Time>2021-07-29T13:43:50.000Z</Time>
            <Position>
              <LatitudeDegrees>42.10082014091312885284423828125</LatitudeDegrees>
              <LongitudeDegrees>-2.71128810010850429534912109375</LongitudeDegrees>
            </Position>
            <AltitudeMeters>1150.199951171875</AltitudeMeters>
            <DistanceMeters>222132.87615548</DistanceMeters>
          </Trackpoint>
          <Trackpoint>
            <Time>2021-07-29T13:43:51.000Z</Time>
            <Position>
              <LatitudeDegrees>42.10086288861930370330810546875</LatitudeDegrees>
              <LongitudeDegrees>-2.7112035267055034637451171875</LongitudeDegrees>
            </Position>
            <AltitudeMeters>1150.199951171875</AltitudeMeters>
            <DistanceMeters>222141.32659006</DistanceMeters>
          </Trackpoint>
          <Trackpoint>
            <Time>2021-07-29T13:43:59.000Z</Time>
            <Position>
              <LatitudeDegrees>42.10115692578256130218505859375</LatitudeDegrees>
              <LongitudeDegrees>-2.71054529584944248199462890625</LongitudeDegrees>
            </Position>
            <AltitudeMeters>1150.5999755859375</AltitudeMeters>
            <DistanceMeters>222204.77619125</DistanceMeters>
          </Trackpoint>
          <Trackpoint>
            <Time>2021-07-29T13:44:07.000Z</Time>
            <Position>
              <LatitudeDegrees>42.10138164460659027099609375</LatitudeDegrees>
              <LongitudeDegrees>-2.70992184989154338836669921875</LongitudeDegrees>
            </Position>
            <AltitudeMeters>1150</AltitudeMeters>
            <DistanceMeters>222262.01525479</DistanceMeters>
          </Trackpoint>
          <Trackpoint>
            <Time>2021-07-29T13:44:17.000Z</Time>
            <Position>
              <LatitudeDegrees>42.101553641259670257568359375</LatitudeDegrees>
              <LongitudeDegrees>-2.70927912555634975433349609375</LongitudeDegrees>
            </Position>
            <AltitudeMeters>1150</AltitudeMeters>
            <DistanceMeters>222318.43920194</DistanceMeters>
          </Trackpoint>
          <Trackpoint>
            <Time>2021-07-29T13:44:25.000Z</Time>
            <Position>
              <LatitudeDegrees>42.10176813416182994842529296875</LatitudeDegrees>
              <LongitudeDegrees>-2.70897838287055492401123046875</LongitudeDegrees>
            </Position>
            <AltitudeMeters>1149.800048828125</AltitudeMeters>
            <DistanceMeters>222352.88871233</DistanceMeters>
          </Trackpoint>
          <Trackpoint>
            <Time>2021-07-29T13:44:27.000Z</Time>
            <Position>
              <LatitudeDegrees>42.10183301009237766265869140625</LatitudeDegrees>
              <LongitudeDegrees>-2.7088763751089572906494140625</LongitudeDegrees>
            </Position>
            <AltitudeMeters>1148.800048828125</AltitudeMeters>
            <DistanceMeters>222363.98366623</DistanceMeters>
          </Trackpoint>
          <Trackpoint>
            <Time>2021-07-29T13:44:28.000Z</Time>
            <Position>
              <LatitudeDegrees>42.1018612571060657501220703125</LatitudeDegrees>
              <LongitudeDegrees>-2.70881091244518756866455078125</LongitudeDegrees>
            </Position>
            <AltitudeMeters>1148.199951171875</AltitudeMeters>
            <DistanceMeters>222370.237406</DistanceMeters>
          </Trackpoint>
          <Trackpoint>
            <Time>2021-07-29T13:44:30.000Z</Time>
            <Position>
              <LatitudeDegrees>42.101914398372173309326171875</LatitudeDegrees>
              <LongitudeDegrees>-2.708660624921321868896484375</LongitudeDegrees>
            </Position>
            <AltitudeMeters>1147</AltitudeMeters>
            <DistanceMeters>222383.98577173</DistanceMeters>
          </Trackpoint>
          <Trackpoint>
            <Time>2021-07-29T13:44:32.000Z</Time>
            <Position>
              <LatitudeDegrees>42.101962678134441375732421875</LatitudeDegrees>
              <LongitudeDegrees>-2.708484940230846405029296875</LongitudeDegrees>
            </Position>
            <AltitudeMeters>1145.5999755859375</AltitudeMeters>
            <DistanceMeters>222399.45733488</DistanceMeters>
          </Trackpoint>
          <Trackpoint>
            <Time>2021-07-29T13:44:33.000Z</Time>
            <Position>
              <LatitudeDegrees>42.1019873209297657012939453125</LatitudeDegrees>
              <LongitudeDegrees>-2.7083902247250080108642578125</LongitudeDegrees>
            </Position>
            <AltitudeMeters>1144.4000244140625</AltitudeMeters>
            <DistanceMeters>222407.74593076</DistanceMeters>
          </Trackpoint>
          <Trackpoint>
            <Time>2021-07-29T13:44:35.000Z</Time>
            <Position>
              <LatitudeDegrees>42.10203417576849460601806640625</LatitudeDegrees>
              <LongitudeDegrees>-2.7081870473921298980712890625</LongitudeDegrees>
            </Position>
            <AltitudeMeters>1142.800048828125</AltitudeMeters>
            <DistanceMeters>222425.31636767</DistanceMeters>
          </Trackpoint>
          <Trackpoint>
            <Time>2021-07-29T13:44:36.000Z</Time>
            <Position>
              <LatitudeDegrees>42.1020503528416156768798828125</LatitudeDegrees>
              <LongitudeDegrees>-2.7080767415463924407958984375</LongitudeDegrees>
            </Position>
            <AltitudeMeters>1142</AltitudeMeters>
            <DistanceMeters>222434.6017955</DistanceMeters>
          </Trackpoint>
          <Trackpoint>
            <Time>2021-07-29T13:44:37.000Z</Time>
            <Position>
              <LatitudeDegrees>42.10205622017383575439453125</LatitudeDegrees>
              <LongitudeDegrees>-2.70795998163521289825439453125</LongitudeDegrees>
            </Position>
            <AltitudeMeters>1141.199951171875</AltitudeMeters>
            <DistanceMeters>222444.26606374</DistanceMeters>
          </Trackpoint>
          <Trackpoint>
            <Time>2021-07-29T13:44:40.000Z</Time>
            <Position>
              <LatitudeDegrees>42.102058567106723785400390625</LatitudeDegrees>
              <LongitudeDegrees>-2.70759972743690013885498046875</LongitudeDegrees>
            </Position>
            <AltitudeMeters>1139.800048828125</AltitudeMeters>
            <DistanceMeters>222474.01731788</DistanceMeters>
          </Trackpoint>
          <Trackpoint>
            <Time>2021-07-29T13:44:43.000Z</Time>
            <Position>
              <LatitudeDegrees>42.10204674862325191497802734375</LatitudeDegrees>
              <LongitudeDegrees>-2.70722405053675174713134765625</LongitudeDegrees>
            </Position>
            <AltitudeMeters>1138.5999755859375</AltitudeMeters>
            <DistanceMeters>222505.0688145</DistanceMeters>
          </Trackpoint>
          <Trackpoint>
            <Time>2021-07-29T13:44:45.000Z</Time>
            <Position>
              <LatitudeDegrees>42.10202545858919620513916015625</LatitudeDegrees>
              <LongitudeDegrees>-2.7069746889173984527587890625</LongitudeDegrees>
            </Position>
            <AltitudeMeters>1137.4000244140625</AltitudeMeters>
            <DistanceMeters>222525.79705773</DistanceMeters>
          </Trackpoint>
          <Trackpoint>
            <Time>2021-07-29T13:44:51.000Z</Time>
            <Position>
              <LatitudeDegrees>42.10187441669404506683349609375</LatitudeDegrees>
              <LongitudeDegrees>-2.70624697208404541015625</LongitudeDegrees>
            </Position>
            <AltitudeMeters>1137.199951171875</AltitudeMeters>
            <DistanceMeters>222588.19966197</DistanceMeters>
          </Trackpoint>
          <Trackpoint>
            <Time>2021-07-29T13:44:52.000Z</Time>
            <Position>
              <LatitudeDegrees>42.10185639560222625732421875</LatitudeDegrees>
              <LongitudeDegrees>-2.70614077337086200714111328125</LongitudeDegrees>
            </Position>
            <AltitudeMeters>1137.4000244140625</AltitudeMeters>
            <DistanceMeters>222597.19563579</DistanceMeters>
          </Trackpoint>
          <Trackpoint>
            <Time>2021-07-29T13:44:55.000Z</Time>
            <Position>
              <LatitudeDegrees>42.10184843279421329498291015625</LatitudeDegrees>
              <LongitudeDegrees>-2.70593424327671527862548828125</LongitudeDegrees>
            </Position>
            <AltitudeMeters>1138.5999755859375</AltitudeMeters>
            <DistanceMeters>222614.27402767</DistanceMeters>
          </Trackpoint>
          <Trackpoint>
            <Time>2021-07-29T13:44:58.000Z</Time>
            <Position>
              <LatitudeDegrees>42.10186134092509746551513671875</LatitudeDegrees>
              <LongitudeDegrees>-2.7058857120573520660400390625</LongitudeDegrees>
            </Position>
            <AltitudeMeters>1139</AltitudeMeters>
            <DistanceMeters>222618.5322425</DistanceMeters>
          </Trackpoint>
          <Trackpoint>
            <Time>2021-07-29T13:45:32.000Z</Time>
            <Position>
              <LatitudeDegrees>42.101854383945465087890625</LatitudeDegrees>
              <LongitudeDegrees>-2.70579879172146320343017578125</LongitudeDegrees>
            </Position>
            <AltitudeMeters>1138.4000244140625</AltitudeMeters>
            <DistanceMeters>222625.75177165</DistanceMeters>
          </Trackpoint>
          <Trackpoint>
            <Time>2021-07-29T13:45:42.000Z</Time>
            <Position>
              <LatitudeDegrees>42.10181574337184429168701171875</LatitudeDegrees>
              <LongitudeDegrees>-2.70535220392048358917236328125</LongitudeDegrees>
            </Position>
            <AltitudeMeters>1137.5999755859375</AltitudeMeters>
            <DistanceMeters>222662.88132471</DistanceMeters>
          </Trackpoint>
          <Trackpoint>
            <Time>2021-07-29T13:45:47.000Z</Time>
            <Position>
              <LatitudeDegrees>42.10180585272610187530517578125</LatitudeDegrees>
              <LongitudeDegrees>-2.7050414867699146270751953125</LongitudeDegrees>
            </Position>
            <AltitudeMeters>1136.5999755859375</AltitudeMeters>
            <DistanceMeters>222688.56404135</DistanceMeters>
          </Trackpoint>
          <Trackpoint>
            <Time>2021-07-29T13:45:56.000Z</Time>
            <Position>
              <LatitudeDegrees>42.10180467925965785980224609375</LatitudeDegrees>
              <LongitudeDegrees>-2.7044098265469074249267578125</LongitudeDegrees>
            </Position>
            <AltitudeMeters>1135.800048828125</AltitudeMeters>
            <DistanceMeters>222740.72738935</DistanceMeters>
          </Trackpoint>
          <Trackpoint>
            <Time>2021-07-29T13:46:02.000Z</Time>
            <Position>
              <LatitudeDegrees>42.101852707564830780029296875</LatitudeDegrees>
              <LongitudeDegrees>-2.7039686031639575958251953125</LongitudeDegrees>
            </Position>
            <AltitudeMeters>1134.800048828125</AltitudeMeters>
            <DistanceMeters>222777.55413399</DistanceMeters>
          </Trackpoint>
          <Trackpoint>
            <Time>2021-07-29T13:46:10.000Z</Time>
            <Position>
              <LatitudeDegrees>42.1018904261291027069091796875</LatitudeDegrees>
              <LongitudeDegrees>-2.7033416368067264556884765625</LongitudeDegrees>
            </Position>
            <AltitudeMeters>1133.800048828125</AltitudeMeters>
            <DistanceMeters>222829.49951197</DistanceMeters>
          </Trackpoint>
          <Trackpoint>
            <Time>2021-07-29T13:46:15.000Z</Time>
            <Position>
              <LatitudeDegrees>42.10189319215714931488037109375</LatitudeDegrees>
              <LongitudeDegrees>-2.70298750139772891998291015625</LongitudeDegrees>
            </Position>
            <AltitudeMeters>1134.199951171875</AltitudeMeters>
            <DistanceMeters>222858.74582628</DistanceMeters>
          </Trackpoint>
          <Trackpoint>
            <Time>2021-07-29T13:46:19.000Z</Time>
            <Position>
              <LatitudeDegrees>42.1019169129431247711181640625</LatitudeDegrees>
              <LongitudeDegrees>-2.70272992551326751708984375</LongitudeDegrees>
            </Position>
            <AltitudeMeters>1134.800048828125</AltitudeMeters>
            <DistanceMeters>222880.17977527</DistanceMeters>
          </Trackpoint>
          <Trackpoint>
            <Time>2021-07-29T13:46:20.000Z</Time>
            <Position>
              <LatitudeDegrees>42.10192688740789890289306640625</LatitudeDegrees>
              <LongitudeDegrees>-2.7026697434484958648681640625</LongitudeDegrees>
            </Position>
            <AltitudeMeters>1134.800048828125</AltitudeMeters>
            <DistanceMeters>222885.27146943</DistanceMeters>
          </Trackpoint>
          <Trackpoint>
            <Time>2021-07-29T13:46:23.000Z</Time>
            <Position>
              <LatitudeDegrees>42.101941891014575958251953125</LatitudeDegrees>
              <LongitudeDegrees>-2.70249129272997379302978515625</LongitudeDegrees>
            </Position>
            <AltitudeMeters>1134.5999755859375</AltitudeMeters>
            <DistanceMeters>222900.10203152</DistanceMeters>
          </Trackpoint>
          <Trackpoint>
            <Time>2021-07-29T13:46:25.000Z</Time>
            <Position>
              <LatitudeDegrees>42.1019648574292659759521484375</LatitudeDegrees>
              <LongitudeDegrees>-2.70237629301846027374267578125</LongitudeDegrees>
            </Position>
            <AltitudeMeters>1134.5999755859375</AltitudeMeters>
            <DistanceMeters>222909.93718169</DistanceMeters>
          </Trackpoint>
          <Trackpoint>
            <Time>2021-07-29T13:46:29.000Z</Time>
            <Position>
              <LatitudeDegrees>42.10201422683894634246826171875</LatitudeDegrees>
              <LongitudeDegrees>-2.70215333439409732818603515625</LongitudeDegrees>
            </Position>
            <AltitudeMeters>1135</AltitudeMeters>
            <DistanceMeters>222929.15185592</DistanceMeters>
          </Trackpoint>
          <Trackpoint>
            <Time>2021-07-29T13:46:33.000Z</Time>
            <Position>
              <LatitudeDegrees>42.102116234600543975830078125</LatitudeDegrees>
              <LongitudeDegrees>-2.70195133052766323089599609375</LongitudeDegrees>
            </Position>
            <AltitudeMeters>1136</AltitudeMeters>
            <DistanceMeters>222949.33088555</DistanceMeters>
          </Trackpoint>
          <Trackpoint>
            <Time>2021-07-29T13:46:35.000Z</Time>
            <Position>
              <LatitudeDegrees>42.10216744802892208099365234375</LatitudeDegrees>
              <LongitudeDegrees>-2.7018466405570507049560546875</LongitudeDegrees>
            </Position>
            <AltitudeMeters>1136.4000244140625</AltitudeMeters>
            <DistanceMeters>222959.68618167</DistanceMeters>
          </Trackpoint>
          <Trackpoint>
            <Time>2021-07-29T13:46:43.000Z</Time>
            <Position>
              <LatitudeDegrees>42.1023546159267425537109375</LatitudeDegrees>
              <LongitudeDegrees>-2.70134548656642436981201171875</LongitudeDegrees>
            </Position>
            <AltitudeMeters>1135.199951171875</AltitudeMeters>
            <DistanceMeters>223006.01908719</DistanceMeters>
          </Trackpoint>
          <Trackpoint>
            <Time>2021-07-29T13:46:44.000Z</Time>
            <Position>
              <LatitudeDegrees>42.10237967781722545623779296875</LatitudeDegrees>
              <LongitudeDegrees>-2.70126183517277240753173828125</LongitudeDegrees>
            </Position>
            <AltitudeMeters>1134.5999755859375</AltitudeMeters>
            <DistanceMeters>223013.46944825</DistanceMeters>
          </Trackpoint>
          <Trackpoint>
            <Time>2021-07-29T13:46:47.000Z</Time>
            <Position>
              <LatitudeDegrees>42.1024711243808269500732421875</LatitudeDegrees>
              <LongitudeDegrees>-2.700994871556758880615234375</LongitudeDegrees>
            </Position>
            <AltitudeMeters>1132.800048828125</AltitudeMeters>
            <DistanceMeters>223037.7517025</DistanceMeters>
          </Trackpoint>
          <Trackpoint>
            <Time>2021-07-29T13:46:50.000Z</Time>
            <Position>
              <LatitudeDegrees>42.10256181657314300537109375</LatitudeDegrees>
              <LongitudeDegrees>-2.70068683661520481109619140625</LongitudeDegrees>
            </Position>
            <AltitudeMeters>1131.5999755859375</AltitudeMeters>
            <DistanceMeters>223065.1189013</DistanceMeters>
          </Trackpoint>
          <Trackpoint>
            <Time>2021-07-29T13:46:52.000Z</Time>
            <Position>
              <LatitudeDegrees>42.10261940024793148040771484375</LatitudeDegrees>
              <LongitudeDegrees>-2.70046119578182697296142578125</LongitudeDegrees>
            </Position>
            <AltitudeMeters>1130.4000244140625</AltitudeMeters>
            <DistanceMeters>223084.82406019</DistanceMeters>
          </Trackpoint>
          <Trackpoint>
            <Time>2021-07-29T13:46:54.000Z</Time>
            <Position>
              <LatitudeDegrees>42.1026789955794811248779296875</LatitudeDegrees>
              <LongitudeDegrees>-2.70022616721689701080322265625</LongitudeDegrees>
            </Position>
            <AltitudeMeters>1128.5999755859375</AltitudeMeters>
            <DistanceMeters>223105.33486714</DistanceMeters>
          </Trackpoint>
          <Trackpoint>
            <Time>2021-07-29T13:46:56.000Z</Time>
            <Position>
              <LatitudeDegrees>42.10274194367229938507080078125</LatitudeDegrees>
              <LongitudeDegrees>-2.69998057745397090911865234375</LongitudeDegrees>
            </Position>
            <AltitudeMeters>1127.5999755859375</AltitudeMeters>
            <DistanceMeters>223126.79197499</DistanceMeters>
          </Trackpoint>
          <Trackpoint>
            <Time>2021-07-29T13:46:59.000Z</Time>
            <Position>
              <LatitudeDegrees>42.10283984430134296417236328125</LatitudeDegrees>
              <LongitudeDegrees>-2.69958830438554286956787109375</LongitudeDegrees>
            </Position>
            <AltitudeMeters>1125.800048828125</AltitudeMeters>
            <DistanceMeters>223160.9693735</DistanceMeters>
          </Trackpoint>
          <Trackpoint>
            <Time>2021-07-29T13:47:00.000Z</Time>
            <Position>
              <LatitudeDegrees>42.1028722822666168212890625</LatitudeDegrees>
              <LongitudeDegrees>-2.69945184700191020965576171875</LongitudeDegrees>
            </Position>
            <AltitudeMeters>1124.5999755859375</AltitudeMeters>
            <DistanceMeters>223172.80201205</DistanceMeters>
          </Trackpoint>
          <Trackpoint>
            <Time>2021-07-29T13:47:02.000Z</Time>
            <Position>
              <LatitudeDegrees>42.10293053649365901947021484375</LatitudeDegrees>
              <LongitudeDegrees>-2.6991791836917400360107421875</LongitudeDegrees>
            </Position>
            <AltitudeMeters>1123.4000244140625</AltitudeMeters>
            <DistanceMeters>223196.23317971</DistanceMeters>
          </Trackpoint>
          <Trackpoint>
            <Time>2021-07-29T13:47:08.000Z</Time>
            <Position>
              <LatitudeDegrees>42.10298418067395687103271484375</LatitudeDegrees>
              <LongitudeDegrees>-2.69836102612316608428955078125</LongitudeDegrees>
            </Position>
            <AltitudeMeters>1123.4000244140625</AltitudeMeters>
            <DistanceMeters>223264.05949145</DistanceMeters>
          </Trackpoint>
          <Trackpoint>
            <Time>2021-07-29T13:47:10.000Z</Time>
            <Position>
              <LatitudeDegrees>42.10299490951001644134521484375</LatitudeDegrees>
              <LongitudeDegrees>-2.698086686432361602783203125</LongitudeDegrees>
            </Position>
            <AltitudeMeters>1122.5999755859375</AltitudeMeters>
            <DistanceMeters>223286.74561446</DistanceMeters>
          </Trackpoint>
          <Trackpoint>
            <Time>2021-07-29T13:47:11.000Z</Time>
            <Position>
              <LatitudeDegrees>42.1029995195567607879638671875</LatitudeDegrees>
              <LongitudeDegrees>-2.69795048050582408905029296875</LongitudeDegrees>
            </Position>
            <AltitudeMeters>1122</AltitudeMeters>
            <DistanceMeters>223298.00497692</DistanceMeters>
          </Trackpoint>
          <Trackpoint>
            <Time>2021-07-29T13:47:17.000Z</Time>
            <Position>
              <LatitudeDegrees>42.10301301442086696624755859375</LatitudeDegrees>
              <LongitudeDegrees>-2.69716576673090457916259765625</LongitudeDegrees>
            </Position>
            <AltitudeMeters>1121.800048828125</AltitudeMeters>
            <DistanceMeters>223362.82364543</DistanceMeters>
          </Trackpoint>
          <Trackpoint>
            <Time>2021-07-29T13:47:24.000Z</Time>
            <Position>
              <LatitudeDegrees>42.10308224894106388092041015625</LatitudeDegrees>
              <LongitudeDegrees>-2.6963615231215953826904296875</LongitudeDegrees>
            </Position>
            <AltitudeMeters>1121.5999755859375</AltitudeMeters>
            <DistanceMeters>223429.68322883</DistanceMeters>
          </Trackpoint>
          <Trackpoint>
            <Time>2021-07-29T13:47:28.000Z</Time>
            <Position>
              <LatitudeDegrees>42.10314796306192874908447265625</LatitudeDegrees>
              <LongitudeDegrees>-2.696003280580043792724609375</LongitudeDegrees>
            </Position>
            <AltitudeMeters>1122.800048828125</AltitudeMeters>
            <DistanceMeters>223460.15733459</DistanceMeters>
          </Trackpoint>
          <Trackpoint>
            <Time>2021-07-29T13:47:29.000Z</Time>
            <Position>
              <LatitudeDegrees>42.10316405631601810455322265625</LatitudeDegrees>
              <LongitudeDegrees>-2.69592960365116596221923828125</LongitudeDegrees>
            </Position>
            <AltitudeMeters>1123.5999755859375</AltitudeMeters>
            <DistanceMeters>223466.49925547</DistanceMeters>
          </Trackpoint>
          <Trackpoint>
            <Time>2021-07-29T13:47:32.000Z</Time>
            <Position>
              <LatitudeDegrees>42.10320462472736835479736328125</LatitudeDegrees>
              <LongitudeDegrees>-2.69573145546019077301025390625</LongitudeDegrees>
            </Position>
            <AltitudeMeters>1125.199951171875</AltitudeMeters>
            <DistanceMeters>223483.4739634</DistanceMeters>
          </Trackpoint>
          <Trackpoint>
            <Time>2021-07-29T13:47:34.000Z</Time>
            <Position>
              <LatitudeDegrees>42.1032305248081684112548828125</LatitudeDegrees>
              <LongitudeDegrees>-2.695617377758026123046875</LongitudeDegrees>
            </Position>
            <AltitudeMeters>1126.199951171875</AltitudeMeters>
            <DistanceMeters>223493.32562629</DistanceMeters>
          </Trackpoint>
          <Trackpoint>
            <Time>2021-07-29T13:47:41.000Z</Time>
            <Position>
              <LatitudeDegrees>42.10334946401417255401611328125</LatitudeDegrees>
              <LongitudeDegrees>-2.69513935782015323638916015625</LongitudeDegrees>
            </Position>
            <AltitudeMeters>1125</AltitudeMeters>
            <DistanceMeters>223534.96077628</DistanceMeters>
          </Trackpoint>
          <Trackpoint>
            <Time>2021-07-29T13:47:43.000Z</Time>
            <Position>
              <LatitudeDegrees>42.1033966541290283203125</LatitudeDegrees>
              <LongitudeDegrees>-2.69499200396239757537841796875</LongitudeDegrees>
            </Position>
            <AltitudeMeters>1124.5999755859375</AltitudeMeters>
            <DistanceMeters>223548.21419271</DistanceMeters>
          </Trackpoint>
          <Trackpoint>
            <Time>2021-07-29T13:47:52.000Z</Time>
            <Position>
              <LatitudeDegrees>42.10357661359012126922607421875</LatitudeDegrees>
              <LongitudeDegrees>-2.69429613836109638214111328125</LongitudeDegrees>
            </Position>
            <AltitudeMeters>1124.199951171875</AltitudeMeters>
            <DistanceMeters>223609.06869517</DistanceMeters>
          </Trackpoint>
          <Trackpoint>
            <Time>2021-07-29T13:47:54.000Z</Time>
            <Position>
              <LatitudeDegrees>42.10361215285956859588623046875</LatitudeDegrees>
              <LongitudeDegrees>-2.69410754553973674774169921875</LongitudeDegrees>
            </Position>
            <AltitudeMeters>1123</AltitudeMeters>
            <DistanceMeters>223625.136923</DistanceMeters>
          </Trackpoint>
          <Trackpoint>
            <Time>2021-07-29T13:47:56.000Z</Time>
            <Position>
              <LatitudeDegrees>42.10365188308060169219970703125</LatitudeDegrees>
              <LongitudeDegrees>-2.69389749504625797271728515625</LongitudeDegrees>
            </Position>
            <AltitudeMeters>1121</AltitudeMeters>
            <DistanceMeters>223643.03729262</DistanceMeters>
          </Trackpoint>
          <Trackpoint>
            <Time>2021-07-29T13:47:58.000Z</Time>
            <Position>
              <LatitudeDegrees>42.103679962456226348876953125</LatitudeDegrees>
              <LongitudeDegrees>-2.69366296939551830291748046875</LongitudeDegrees>
            </Position>
            <AltitudeMeters>1119.5999755859375</AltitudeMeters>
            <DistanceMeters>223662.65472869</DistanceMeters>
          </Trackpoint>
          <Trackpoint>
            <Time>2021-07-29T13:47:59.000Z</Time>
            <Position>
              <LatitudeDegrees>42.103687338531017303466796875</LatitudeDegrees>
              <LongitudeDegrees>-2.69354201853275299072265625</LongitudeDegrees>
            </Position>
            <AltitudeMeters>1118.5999755859375</AltitudeMeters>
            <DistanceMeters>223672.67633087</DistanceMeters>
          </Trackpoint>
          <Trackpoint>
            <Time>2021-07-29T13:48:01.000Z</Time>
            <Position>
              <LatitudeDegrees>42.103696055710315704345703125</LatitudeDegrees>
              <LongitudeDegrees>-2.69328989088535308837890625</LongitudeDegrees>
            </Position>
            <AltitudeMeters>1117</AltitudeMeters>
            <DistanceMeters>223693.51904944</DistanceMeters>
          </Trackpoint>
          <Trackpoint>
            <Time>2021-07-29T13:48:03.000Z</Time>
            <Position>
              <LatitudeDegrees>42.103703431785106658935546875</LatitudeDegrees>
              <LongitudeDegrees>-2.69303533248603343963623046875</LongitudeDegrees>
            </Position>
            <AltitudeMeters>1115.5999755859375</AltitudeMeters>
            <DistanceMeters>223714.55582644</DistanceMeters>
          </Trackpoint>
          <Trackpoint>
            <Time>2021-07-29T13:48:05.000Z</Time>
            <Position>
              <LatitudeDegrees>42.10372782312333583831787109375</LatitudeDegrees>
              <LongitudeDegrees>-2.692773900926113128662109375</LongitudeDegrees>
            </Position>
            <AltitudeMeters>1114</AltitudeMeters>
            <DistanceMeters>223736.3144541</DistanceMeters>
          </Trackpoint>
          <Trackpoint>
            <Time>2021-07-29T13:48:07.000Z</Time>
            <Position>
              <LatitudeDegrees>42.10375330410897731781005859375</LatitudeDegrees>
              <LongitudeDegrees>-2.69250911660492420196533203125</LongitudeDegrees>
            </Position>
            <AltitudeMeters>1113</AltitudeMeters>
            <DistanceMeters>223758.36290451</DistanceMeters>
          </Trackpoint>
          <Trackpoint>
            <Time>2021-07-29T13:48:09.000Z</Time>
            <Position>
              <LatitudeDegrees>42.103779874742031097412109375</LatitudeDegrees>
              <LongitudeDegrees>-2.69224424846470355987548828125</LongitudeDegrees>
            </Position>
            <AltitudeMeters>1111.800048828125</AltitudeMeters>
            <DistanceMeters>223780.43427814</DistanceMeters>
          </Trackpoint>
          <Trackpoint>
            <Time>2021-07-29T13:48:14.000Z</Time>
            <Position>
              <LatitudeDegrees>42.1038514561951160430908203125</LatitudeDegrees>
              <LongitudeDegrees>-2.6915992610156536102294921875</LongitudeDegrees>
            </Position>
            <AltitudeMeters>1110.800048828125</AltitudeMeters>
            <DistanceMeters>223834.28886079</DistanceMeters>
          </Trackpoint>
          <Trackpoint>
            <Time>2021-07-29T13:48:18.000Z</Time>
            <Position>
              <LatitudeDegrees>42.1039101295173168182373046875</LatitudeDegrees>
              <LongitudeDegrees>-2.6910990290343761444091796875</LongitudeDegrees>
            </Position>
            <AltitudeMeters>1109.5999755859375</AltitudeMeters>
            <DistanceMeters>223876.11022467</DistanceMeters>
          </Trackpoint>
          <Trackpoint>
            <Time>2021-07-29T13:48:24.000Z</Time>
            <Position>
              <LatitudeDegrees>42.10394491441547870635986328125</LatitudeDegrees>
              <LongitudeDegrees>-2.69037508405745029449462890625</LongitudeDegrees>
            </Position>
            <AltitudeMeters>1109.5999755859375</AltitudeMeters>
            <DistanceMeters>223936.01761588</DistanceMeters>
          </Trackpoint>
          <Trackpoint>
            <Time>2021-07-29T13:48:29.000Z</Time>
            <Position>
              <LatitudeDegrees>42.10392932407557964324951171875</LatitudeDegrees>
              <LongitudeDegrees>-2.68982204608619213104248046875</LongitudeDegrees>
            </Position>
            <AltitudeMeters>1110</AltitudeMeters>
            <DistanceMeters>223981.71953828</DistanceMeters>
          </Trackpoint>
          <Trackpoint>
            <Time>2021-07-29T13:48:37.000Z</Time>
            <Position>
              <LatitudeDegrees>42.10385908372700214385986328125</LatitudeDegrees>
              <LongitudeDegrees>-2.68907505087554454803466796875</LongitudeDegrees>
            </Position>
            <AltitudeMeters>1110.800048828125</AltitudeMeters>
            <DistanceMeters>224043.89867699</DistanceMeters>
          </Trackpoint>
          <Trackpoint>
            <Time>2021-07-29T13:48:40.000Z</Time>
            <Position>
              <LatitudeDegrees>42.10383628495037555694580078125</LatitudeDegrees>
              <LongitudeDegrees>-2.68884941004216670989990234375</LongitudeDegrees>
            </Position>
            <AltitudeMeters>1112</AltitudeMeters>
            <DistanceMeters>224062.70340494</DistanceMeters>
          </Trackpoint>
          <Trackpoint>
            <Time>2021-07-29T13:48:43.000Z</Time>
            <Position>
              <LatitudeDegrees>42.1038219518959522247314453125</LatitudeDegrees>
              <LongitudeDegrees>-2.6886555366218090057373046875</LongitudeDegrees>
            </Position>
            <AltitudeMeters>1113.4000244140625</AltitudeMeters>
            <DistanceMeters>224078.79241272</DistanceMeters>
          </Trackpoint>
          <Trackpoint>
            <Time>2021-07-29T13:48:47.000Z</Time>
            <Position>
              <LatitudeDegrees>42.10381298325955867767333984375</LatitudeDegrees>
              <LongitudeDegrees>-2.68842838704586029052734375</LongitudeDegrees>
            </Position>
            <AltitudeMeters>1114.5999755859375</AltitudeMeters>
            <DistanceMeters>224097.57672099</DistanceMeters>
          </Trackpoint>
          <Trackpoint>
            <Time>2021-07-29T13:48:52.000Z</Time>
            <Position>
              <LatitudeDegrees>42.1038202755153179168701171875</LatitudeDegrees>
              <LongitudeDegrees>-2.68816360272467136383056640625</LongitudeDegrees>
            </Position>
            <AltitudeMeters>1115.5999755859375</AltitudeMeters>
            <DistanceMeters>224119.45722813</DistanceMeters>
          </Trackpoint>
          <Trackpoint>
            <Time>2021-07-29T13:49:00.000Z</Time>
            <Position>
              <LatitudeDegrees>42.10384516976773738861083984375</LatitudeDegrees>
              <LongitudeDegrees>-2.6877569966018199920654296875</LongitudeDegrees>
            </Position>
            <AltitudeMeters>1116.4000244140625</AltitudeMeters>
            <DistanceMeters>224153.14818551</DistanceMeters>
          </Trackpoint>
          <Trackpoint>
            <Time>2021-07-29T13:49:01.000Z</Time>
            <Position>
              <LatitudeDegrees>42.1038521267473697662353515625</LatitudeDegrees>
              <LongitudeDegrees>-2.687703184783458709716796875</LongitudeDegrees>
            </Position>
            <AltitudeMeters>1116.5999755859375</AltitudeMeters>
            <DistanceMeters>224157.65970325</DistanceMeters>
          </Trackpoint>
          <Trackpoint>
            <Time>2021-07-29T13:49:11.000Z</Time>
            <Position>
              <LatitudeDegrees>42.1039245463907718658447265625</LatitudeDegrees>
              <LongitudeDegrees>-2.68720521591603755950927734375</LongitudeDegrees>
            </Position>
            <AltitudeMeters>1118</AltitudeMeters>
            <DistanceMeters>224199.5637907</DistanceMeters>
          </Trackpoint>
          <Trackpoint>
            <Time>2021-07-29T13:49:21.000Z</Time>
            <Position>
              <LatitudeDegrees>42.104037702083587646484375</LatitudeDegrees>
              <LongitudeDegrees>-2.68681160174310207366943359375</LongitudeDegrees>
            </Position>
            <AltitudeMeters>1119</AltitudeMeters>
            <DistanceMeters>224234.42240809</DistanceMeters>
          </Trackpoint>
          <Trackpoint>
            <Time>2021-07-29T13:49:26.000Z</Time>
            <Position>
              <LatitudeDegrees>42.1041283942759037017822265625</LatitudeDegrees>
              <LongitudeDegrees>-2.6865882240235805511474609375</LongitudeDegrees>
            </Position>
            <AltitudeMeters>1118.800048828125</AltitudeMeters>
            <DistanceMeters>224255.44973943</DistanceMeters>
          </Trackpoint>
          <Trackpoint>
            <Time>2021-07-29T13:49:30.000Z</Time>
            <Position>
              <LatitudeDegrees>42.10414431989192962646484375</LatitudeDegrees>
              <LongitudeDegrees>-2.68628438003361225128173828125</LongitudeDegrees>
            </Position>
            <AltitudeMeters>1117.199951171875</AltitudeMeters>
            <DistanceMeters>224280.60329457</DistanceMeters>
          </Trackpoint>
          <Trackpoint>
            <Time>2021-07-29T13:49:32.000Z</Time>
            <Position>
              <LatitudeDegrees>42.10410333238542079925537109375</LatitudeDegrees>
              <LongitudeDegrees>-2.686107270419597625732421875</LongitudeDegrees>
            </Position>
            <AltitudeMeters>1115.800048828125</AltitudeMeters>
            <DistanceMeters>224295.92382905</DistanceMeters>
          </Trackpoint>
          <Trackpoint>
            <Time>2021-07-29T13:49:37.000Z</Time>
            <Position>
              <LatitudeDegrees>42.10422621108591556549072265625</LatitudeDegrees>
              <LongitudeDegrees>-2.6857071183621883392333984375</LongitudeDegrees>
            </Position>
            <AltitudeMeters>1115.5999755859375</AltitudeMeters>
            <DistanceMeters>224331.68608229</DistanceMeters>
          </Trackpoint>
          <Trackpoint>
            <Time>2021-07-29T13:49:41.000Z</Time>
            <Position>
              <LatitudeDegrees>42.10437222383916378021240234375</LatitudeDegrees>
              <LongitudeDegrees>-2.68538382835686206817626953125</LongitudeDegrees>
            </Position>
            <AltitudeMeters>1114.800048828125</AltitudeMeters>
            <DistanceMeters>224362.94019385</DistanceMeters>
          </Trackpoint>
          <Trackpoint>
            <Time>2021-07-29T13:49:44.000Z</Time>
            <Position>
              <LatitudeDegrees>42.1044817753136157989501953125</LatitudeDegrees>
              <LongitudeDegrees>-2.68510588444769382476806640625</LongitudeDegrees>
            </Position>
            <AltitudeMeters>1113.4000244140625</AltitudeMeters>
            <DistanceMeters>224388.9299568</DistanceMeters>
          </Trackpoint>
          <Trackpoint>
            <Time>2021-07-29T13:49:46.000Z</Time>
            <Position>
              <LatitudeDegrees>42.10455595515668392181396484375</LatitudeDegrees>
              <LongitudeDegrees>-2.6849078200757503509521484375</LongitudeDegrees>
            </Position>
            <AltitudeMeters>1112.199951171875</AltitudeMeters>
            <DistanceMeters>224407.25114676</DistanceMeters>
          </Trackpoint>
          <Trackpoint>
            <Time>2021-07-29T13:49:48.000Z</Time>
            <Position>
              <LatitudeDegrees>42.1046155504882335662841796875</LatitudeDegrees>
              <LongitudeDegrees>-2.6846860349178314208984375</LongitudeDegrees>
            </Position>
            <AltitudeMeters>1110.5999755859375</AltitudeMeters>
            <DistanceMeters>224426.72976894</DistanceMeters>
          </Trackpoint>
          <Trackpoint>
            <Time>2021-07-29T13:49:50.000Z</Time>
            <Position>
              <LatitudeDegrees>42.1046661771833896636962890625</LatitudeDegrees>
              <LongitudeDegrees>-2.6844451390206813812255859375</LongitudeDegrees>
            </Position>
            <AltitudeMeters>1109.199951171875</AltitudeMeters>
            <DistanceMeters>224447.40501401</DistanceMeters>
          </Trackpoint>
          <Trackpoint>
            <Time>2021-07-29T13:49:52.000Z</Time>
            <Position>
              <LatitudeDegrees>42.10471638478338718414306640625</LatitudeDegrees>
              <LongitudeDegrees>-2.68419762142002582550048828125</LongitudeDegrees>
            </Position>
            <AltitudeMeters>1108.199951171875</AltitudeMeters>
            <DistanceMeters>224468.59447981</DistanceMeters>
          </Trackpoint>
          <Trackpoint>
            <Time>2021-07-29T13:49:55.000Z</Time>
            <Position>
              <LatitudeDegrees>42.1047872118651866912841796875</LatitudeDegrees>
              <LongitudeDegrees>-2.683832086622714996337890625</LongitudeDegrees>
            </Position>
            <AltitudeMeters>1107</AltitudeMeters>
            <DistanceMeters>224499.79162133</DistanceMeters>
          </Trackpoint>
          <Trackpoint>
            <Time>2021-07-29T13:50:02.000Z</Time>
            <Position>
              <LatitudeDegrees>42.1049102582037448883056640625</LatitudeDegrees>
              <LongitudeDegrees>-2.68302532844245433807373046875</LongitudeDegrees>
            </Position>
            <AltitudeMeters>1107</AltitudeMeters>
            <DistanceMeters>224567.80446541</DistanceMeters>
          </Trackpoint>
          <Trackpoint>
            <Time>2021-07-29T13:50:04.000Z</Time>
            <Position>
              <LatitudeDegrees>42.10492693819105625152587890625</LatitudeDegrees>
              <LongitudeDegrees>-2.68279599957168102264404296875</LongitudeDegrees>
            </Position>
            <AltitudeMeters>1106</AltitudeMeters>
            <DistanceMeters>224586.83260103</DistanceMeters>
          </Trackpoint>
          <Trackpoint>
            <Time>2021-07-29T13:50:08.000Z</Time>
            <Position>
              <LatitudeDegrees>42.10495778359472751617431640625</LatitudeDegrees>
              <LongitudeDegrees>-2.68230565823614597320556640625</LongitudeDegrees>
            </Position>
            <AltitudeMeters>1104.5999755859375</AltitudeMeters>
            <DistanceMeters>224627.46882857</DistanceMeters>
          </Trackpoint>
          <Trackpoint>
            <Time>2021-07-29T13:50:15.000Z</Time>
            <Position>
              <LatitudeDegrees>42.10502064786851406097412109375</LatitudeDegrees>
              <LongitudeDegrees>-2.68150786869227886199951171875</LongitudeDegrees>
            </Position>
            <AltitudeMeters>1105.4000244140625</AltitudeMeters>
            <DistanceMeters>224693.71832981</DistanceMeters>
          </Trackpoint>
          <Trackpoint>
            <Time>2021-07-29T13:50:16.000Z</Time>
            <Position>
              <LatitudeDegrees>42.1050393395125865936279296875</LatitudeDegrees>
              <LongitudeDegrees>-2.6814122311770915985107421875</LongitudeDegrees>
            </Position>
            <AltitudeMeters>1106</AltitudeMeters>
            <DistanceMeters>224701.88510057</DistanceMeters>
          </Trackpoint>
          <Trackpoint>
            <Time>2021-07-29T13:50:19.000Z</Time>
            <Position>
              <LatitudeDegrees>42.10513765923678874969482421875</LatitudeDegrees>
              <LongitudeDegrees>-2.6811580918729305267333984375</LongitudeDegrees>
            </Position>
            <AltitudeMeters>1107.199951171875</AltitudeMeters>
            <DistanceMeters>224725.55304856</DistanceMeters>
          </Trackpoint>
          <Trackpoint>
            <Time>2021-07-29T13:50:20.000Z</Time>
            <Position>
              <LatitudeDegrees>42.10517906583845615386962890625</LatitudeDegrees>
              <LongitudeDegrees>-2.6810826547443866729736328125</LongitudeDegrees>
            </Position>
            <AltitudeMeters>1107.4000244140625</AltitudeMeters>
            <DistanceMeters>224733.30107723</DistanceMeters>
          </Trackpoint>
          <Trackpoint>
            <Time>2021-07-29T13:50:25.000Z</Time>
            <Position>
              <LatitudeDegrees>42.10538827814161777496337890625</LatitudeDegrees>
              <LongitudeDegrees>-2.680723406374454498291015625</LongitudeDegrees>
            </Position>
            <AltitudeMeters>1108.5999755859375</AltitudeMeters>
            <DistanceMeters>224771.01411424</DistanceMeters>
          </Trackpoint>
          <Trackpoint>
            <Time>2021-07-29T13:50:33.000Z</Time>
            <Position>
              <LatitudeDegrees>42.105767391622066497802734375</LatitudeDegrees>
              <LongitudeDegrees>-2.6801492460072040557861328125</LongitudeDegrees>
            </Position>
            <AltitudeMeters>1107</AltitudeMeters>
            <DistanceMeters>224834.48385035</DistanceMeters>
          </Trackpoint>
          <Trackpoint>
            <Time>2021-07-29T13:50:35.000Z</Time>
            <Position>
              <LatitudeDegrees>42.10589789785444736480712890625</LatitudeDegrees>
              <LongitudeDegrees>-2.67999954521656036376953125</LongitudeDegrees>
            </Position>
            <AltitudeMeters>1105.4000244140625</AltitudeMeters>
            <DistanceMeters>224853.55725303</DistanceMeters>
          </Trackpoint>
          <Trackpoint>
            <Time>2021-07-29T13:50:38.000Z</Time>
            <Position>
              <LatitudeDegrees>42.1061350218951702117919921875</LatitudeDegrees>
              <LongitudeDegrees>-2.67980751581490039825439453125</LongitudeDegrees>
            </Position>
            <AltitudeMeters>1103.800048828125</AltitudeMeters>
            <DistanceMeters>224884.34678835</DistanceMeters>
          </Trackpoint>
          <Trackpoint>
            <Time>2021-07-29T13:50:39.000Z</Time>
            <Position>
              <LatitudeDegrees>42.10621724836528301239013671875</LatitudeDegrees>
              <LongitudeDegrees>-2.6797345094382762908935546875</LongitudeDegrees>
            </Position>
            <AltitudeMeters>1102.800048828125</AltitudeMeters>
            <DistanceMeters>224895.30580366</DistanceMeters>
          </Trackpoint>
          <Trackpoint>
            <Time>2021-07-29T13:50:40.000Z</Time>
            <Position>
              <LatitudeDegrees>42.10629402659833431243896484375</LatitudeDegrees>
              <LongitudeDegrees>-2.67964691855013370513916015625</LongitudeDegrees>
            </Position>
            <AltitudeMeters>1101.5999755859375</AltitudeMeters>
            <DistanceMeters>224906.5012251</DistanceMeters>
          </Trackpoint>
          <Trackpoint>
            <Time>2021-07-29T13:50:42.000Z</Time>
            <Position>
              <LatitudeDegrees>42.1064317412674427032470703125</LatitudeDegrees>
              <LongitudeDegrees>-2.67943804152309894561767578125</LongitudeDegrees>
            </Position>
            <AltitudeMeters>1099.800048828125</AltitudeMeters>
            <DistanceMeters>224929.57589513</DistanceMeters>
          </Trackpoint>
          <Trackpoint>
            <Time>2021-07-29T13:50:44.000Z</Time>
            <Position>
              <LatitudeDegrees>42.10657465271651744842529296875</LatitudeDegrees>
              <LongitudeDegrees>-2.6792185194790363311767578125</LongitudeDegrees>
            </Position>
            <AltitudeMeters>1098.5999755859375</AltitudeMeters>
            <DistanceMeters>224953.69246959</DistanceMeters>
          </Trackpoint>
          <Trackpoint>
            <Time>2021-07-29T13:50:47.000Z</Time>
            <Position>
              <LatitudeDegrees>42.106793336570262908935546875</LatitudeDegrees>
              <LongitudeDegrees>-2.6788725145161151885986328125</LongitudeDegrees>
            </Position>
            <AltitudeMeters>1097.4000244140625</AltitudeMeters>
            <DistanceMeters>224991.22573625</DistanceMeters>
          </Trackpoint>
          <Trackpoint>
            <Time>2021-07-29T13:50:49.000Z</Time>
            <Position>
              <LatitudeDegrees>42.1069339849054813385009765625</LatitudeDegrees>
              <LongitudeDegrees>-2.6786054670810699462890625</LongitudeDegrees>
            </Position>
            <AltitudeMeters>1096.199951171875</AltitudeMeters>
            <DistanceMeters>225018.26880987</DistanceMeters>
          </Trackpoint>
          <Trackpoint>
            <Time>2021-07-29T13:50:50.000Z</Time>
            <Position>
              <LatitudeDegrees>42.1070064045488834381103515625</LatitudeDegrees>
              <LongitudeDegrees>-2.67846557311713695526123046875</LongitudeDegrees>
            </Position>
            <AltitudeMeters>1095</AltitudeMeters>
            <DistanceMeters>225032.35457714</DistanceMeters>
          </Trackpoint>
          <Trackpoint>
            <Time>2021-07-29T13:50:51.000Z</Time>
            <Position>
              <LatitudeDegrees>42.10708008147776126861572265625</LatitudeDegrees>
              <LongitudeDegrees>-2.67832308076322078704833984375</LongitudeDegrees>
            </Position>
            <AltitudeMeters>1093.4000244140625</AltitudeMeters>
            <DistanceMeters>225046.69700167</DistanceMeters>
          </Trackpoint>
          <Trackpoint>
            <Time>2021-07-29T13:50:52.000Z</Time>
            <Position>
              <LatitudeDegrees>42.10715484805405139923095703125</LatitudeDegrees>
              <LongitudeDegrees>-2.67817673273384571075439453125</LongitudeDegrees>
            </Position>
            <AltitudeMeters>1091.4000244140625</AltitudeMeters>
            <DistanceMeters>225061.36993875</DistanceMeters>
          </Trackpoint>
          <Trackpoint>
            <Time>2021-07-29T13:50:53.000Z</Time>
            <Position>
              <LatitudeDegrees>42.10722927935421466827392578125</LatitudeDegrees>
              <LongitudeDegrees>-2.6780276186764240264892578125</LongitudeDegrees>
            </Position>
            <AltitudeMeters>1089.4000244140625</AltitudeMeters>
            <DistanceMeters>225076.21054401</DistanceMeters>
          </Trackpoint>
          <Trackpoint>
            <Time>2021-07-29T13:50:55.000Z</Time>
            <Position>
              <LatitudeDegrees>42.10737965069711208343505859375</LatitudeDegrees>
              <LongitudeDegrees>-2.67773081548511981964111328125</LongitudeDegrees>
            </Position>
            <AltitudeMeters>1088.199951171875</AltitudeMeters>
            <DistanceMeters>225105.88810348</DistanceMeters>
          </Trackpoint>
          <Trackpoint>
            <Time>2021-07-29T13:51:00.000Z</Time>
            <Position>
              <LatitudeDegrees>42.10773571394383907318115234375</LatitudeDegrees>
              <LongitudeDegrees>-2.6770466007292270660400390625</LongitudeDegrees>
            </Position>
            <AltitudeMeters>1087.800048828125</AltitudeMeters>
            <DistanceMeters>225174.89981139</DistanceMeters>
          </Trackpoint>
          <Trackpoint>
            <Time>2021-07-29T13:51:03.000Z</Time>
            <Position>
              <LatitudeDegrees>42.10791885852813720703125</LatitudeDegrees>
              <LongitudeDegrees>-2.676688022911548614501953125</LongitudeDegrees>
            </Position>
            <AltitudeMeters>1089.4000244140625</AltitudeMeters>
            <DistanceMeters>225210.84704965</DistanceMeters>
          </Trackpoint>
          <Trackpoint>
            <Time>2021-07-29T13:51:05.000Z</Time>
            <Position>
              <LatitudeDegrees>42.10802455432713031768798828125</LatitudeDegrees>
              <LongitudeDegrees>-2.6764618791639804840087890625</LongitudeDegrees>
            </Position>
            <AltitudeMeters>1091</AltitudeMeters>
            <DistanceMeters>225232.91740043</DistanceMeters>
          </Trackpoint>
          <Trackpoint>
            <Time>2021-07-29T13:51:07.000Z</Time>
            <Position>
              <LatitudeDegrees>42.108120359480381011962890625</LatitudeDegrees>
              <LongitudeDegrees>-2.676245458424091339111328125</LongitudeDegrees>
            </Position>
            <AltitudeMeters>1092.4000244140625</AltitudeMeters>
            <DistanceMeters>225253.7276</DistanceMeters>
          </Trackpoint>
          <Trackpoint>
            <Time>2021-07-29T13:51:09.000Z</Time>
            <Position>
              <LatitudeDegrees>42.108205519616603851318359375</LatitudeDegrees>
              <LongitudeDegrees>-2.6760385930538177490234375</LongitudeDegrees>
            </Position>
            <AltitudeMeters>1093.4000244140625</AltitudeMeters>
            <DistanceMeters>225273.2629293</DistanceMeters>
          </Trackpoint>
          <Trackpoint>
            <Time>2021-07-29T13:51:16.000Z</Time>
            <Position>
              <LatitudeDegrees>42.10849695838987827301025390625</LatitudeDegrees>
              <LongitudeDegrees>-2.67538958229124546051025390625</LongitudeDegrees>
            </Position>
            <AltitudeMeters>1093.5999755859375</AltitudeMeters>
            <DistanceMeters>225335.90586274</DistanceMeters>
          </Trackpoint>
          <Trackpoint>
            <Time>2021-07-29T13:51:19.000Z</Time>
            <Position>
              <LatitudeDegrees>42.10865252651274204254150390625</LatitudeDegrees>
              <LongitudeDegrees>-2.6751355268061161041259765625</LongitudeDegrees>
            </Position>
            <AltitudeMeters>1092.199951171875</AltitudeMeters>
            <DistanceMeters>225363.10675139</DistanceMeters>
          </Trackpoint>
          <Trackpoint>
            <Time>2021-07-29T13:51:20.000Z</Time>
            <Position>
              <LatitudeDegrees>42.10871069692075252532958984375</LatitudeDegrees>
              <LongitudeDegrees>-2.67505615018308162689208984375</LongitudeDegrees>
            </Position>
            <AltitudeMeters>1091.800048828125</AltitudeMeters>
            <DistanceMeters>225372.318953</DistanceMeters>
          </Trackpoint>
          <Trackpoint>
            <Time>2021-07-29T13:51:21.000Z</Time>
            <Position>
              <LatitudeDegrees>42.10877356119453907012939453125</LatitudeDegrees>
              <LongitudeDegrees>-2.67498322762548923492431640625</LongitudeDegrees>
            </Position>
            <AltitudeMeters>1091.199951171875</AltitudeMeters>
            <DistanceMeters>225381.54976018</DistanceMeters>
          </Trackpoint>
          <Trackpoint>
            <Time>2021-07-29T13:51:22.000Z</Time>
            <Position>
              <LatitudeDegrees>42.1088403649628162384033203125</LatitudeDegrees>
              <LongitudeDegrees>-2.67491634003818035125732421875</LongitudeDegrees>
            </Position>
            <AltitudeMeters>1090.199951171875</AltitudeMeters>
            <DistanceMeters>225390.81230607</DistanceMeters>
          </Trackpoint>
          <Trackpoint>
            <Time>2021-07-29T13:51:24.000Z</Time>
            <Position>
              <LatitudeDegrees>42.10898260585963726043701171875</LatitudeDegrees>
              <LongitudeDegrees>-2.67479279078543186187744140625</LongitudeDegrees>
            </Position>
            <AltitudeMeters>1089</AltitudeMeters>
            <DistanceMeters>225409.6463036</DistanceMeters>
          </Trackpoint>
          <Trackpoint>
            <Time>2021-07-29T13:51:31.000Z</Time>
            <Position>
              <LatitudeDegrees>42.10950630716979503631591796875</LatitudeDegrees>
              <LongitudeDegrees>-2.67436833120882511138916015625</LongitudeDegrees>
            </Position>
            <AltitudeMeters>1087.800048828125</AltitudeMeters>
            <DistanceMeters>225477.66087366</DistanceMeters>
          </Trackpoint>
          <Trackpoint>
            <Time>2021-07-29T13:51:34.000Z</Time>
            <Position>
              <LatitudeDegrees>42.1097342111170291900634765625</LatitudeDegrees>
              <LongitudeDegrees>-2.674202620983123779296875</LongitudeDegrees>
            </Position>
            <AltitudeMeters>1086.800048828125</AltitudeMeters>
            <DistanceMeters>225506.48202339</DistanceMeters>
          </Trackpoint>
          <Trackpoint>
            <Time>2021-07-29T13:51:35.000Z</Time>
            <Position>
              <LatitudeDegrees>42.10981308482587337493896484375</LatitudeDegrees>
              <LongitudeDegrees>-2.67415576614439487457275390625</LongitudeDegrees>
            </Position>
            <AltitudeMeters>1086.800048828125</AltitudeMeters>
            <DistanceMeters>225516.07595737</DistanceMeters>
          </Trackpoint>
          <Trackpoint>
            <Time>2021-07-29T13:51:38.000Z</Time>
            <Position>
              <LatitudeDegrees>42.11007468402385711669921875</LatitudeDegrees>
              <LongitudeDegrees>-2.67410748638212680816650390625</LongitudeDegrees>
            </Position>
            <AltitudeMeters>1085.800048828125</AltitudeMeters>
            <DistanceMeters>225545.46426511</DistanceMeters>
          </Trackpoint>
          <Trackpoint>
            <Time>2021-07-29T13:51:43.000Z</Time>
            <Position>
              <LatitudeDegrees>42.11049470119178295135498046875</LatitudeDegrees>
              <LongitudeDegrees>-2.6740644872188568115234375</LongitudeDegrees>
            </Position>
            <AltitudeMeters>1084.800048828125</AltitudeMeters>
            <DistanceMeters>225592.34759933</DistanceMeters>
          </Trackpoint>
          <Trackpoint>
            <Time>2021-07-29T13:51:44.000Z</Time>
            <Position>
              <LatitudeDegrees>42.11057265289127826690673828125</LatitudeDegrees>
              <LongitudeDegrees>-2.67403758130967617034912109375</LongitudeDegrees>
            </Position>
            <AltitudeMeters>1084.800048828125</AltitudeMeters>
            <DistanceMeters>225601.30333151</DistanceMeters>
          </Trackpoint>
          <Trackpoint>
            <Time>2021-07-29T13:51:52.000Z</Time>
            <Position>
              <LatitudeDegrees>42.1110716275870800018310546875</LatitudeDegrees>
              <LongitudeDegrees>-2.6736234314739704132080078125</LongitudeDegrees>
            </Position>
            <AltitudeMeters>1084.800048828125</AltitudeMeters>
            <DistanceMeters>225666.52378697</DistanceMeters>
          </Trackpoint>
          <Trackpoint>
            <Time>2021-07-29T13:52:01.000Z</Time>
            <Position>
              <LatitudeDegrees>42.11152282543480396270751953125</LatitudeDegrees>
              <LongitudeDegrees>-2.67309830524027347564697265625</LongitudeDegrees>
            </Position>
            <AltitudeMeters>1085</AltitudeMeters>
            <DistanceMeters>225732.8711504</DistanceMeters>
          </Trackpoint>
          <Trackpoint>
            <Time>2021-07-29T13:52:05.000Z</Time>
            <Position>
              <LatitudeDegrees>42.111665569245815277099609375</LatitudeDegrees>
              <LongitudeDegrees>-2.67289705574512481689453125</LongitudeDegrees>
            </Position>
            <AltitudeMeters>1086.199951171875</AltitudeMeters>
            <DistanceMeters>225755.86113527</DistanceMeters>
          </Trackpoint>
          <Trackpoint>
            <Time>2021-07-29T13:52:09.000Z</Time>
            <Position>
              <LatitudeDegrees>42.11177947930991649627685546875</LatitudeDegrees>
              <LongitudeDegrees>-2.6727604307234287261962890625</LongitudeDegrees>
            </Position>
            <AltitudeMeters>1087.4000244140625</AltitudeMeters>
            <DistanceMeters>225772.83185294</DistanceMeters>
          </Trackpoint>
          <Trackpoint>
            <Time>2021-07-29T13:52:22.000Z</Time>
            <Position>
              <LatitudeDegrees>42.11205423809587955474853515625</LatitudeDegrees>
              <LongitudeDegrees>-2.67206490039825439453125</LongitudeDegrees>
            </Position>
            <AltitudeMeters>1086.4000244140625</AltitudeMeters>
            <DistanceMeters>225837.89511136</DistanceMeters>
          </Trackpoint>
          <Trackpoint>
            <Time>2021-07-29T13:52:35.000Z</Time>
            <Position>
              <LatitudeDegrees>42.1122075431048870086669921875</LatitudeDegrees>
              <LongitudeDegrees>-2.6714064180850982666015625</LongitudeDegrees>
            </Position>
            <AltitudeMeters>1087</AltitudeMeters>
            <DistanceMeters>225894.87913867</DistanceMeters>
          </Trackpoint>
          <Trackpoint>
            <Time>2021-07-29T13:52:42.000Z</Time>
            <Position>
              <LatitudeDegrees>42.1122440882027149200439453125</LatitudeDegrees>
              <LongitudeDegrees>-2.6714947633445262908935546875</LongitudeDegrees>
            </Position>
            <AltitudeMeters>1086.800048828125</AltitudeMeters>
            <DistanceMeters>225903.23068407</DistanceMeters>
          </Trackpoint>
          <Trackpoint>
            <Time>2021-07-29T13:52:44.000Z</Time>
            <Position>
              <LatitudeDegrees>42.1122417412698268890380859375</LatitudeDegrees>
              <LongitudeDegrees>-2.67150775529444217681884765625</LongitudeDegrees>
            </Position>
            <AltitudeMeters>1086.5999755859375</AltitudeMeters>
            <DistanceMeters>225904.33479471</DistanceMeters>
          </Trackpoint>
          <Trackpoint>
            <Time>2021-07-29T13:52:55.000Z</Time>
            <Position>
              <LatitudeDegrees>42.1122192777693271636962890625</LatitudeDegrees>
              <LongitudeDegrees>-2.67159886658191680908203125</LongitudeDegrees>
            </Position>
            <AltitudeMeters>1086.199951171875</AltitudeMeters>
            <DistanceMeters>225912.26255178</DistanceMeters>
          </Trackpoint>
          <Trackpoint>
            <Time>2021-07-29T13:52:58.000Z</Time>
            <Position>
              <LatitudeDegrees>42.112189941108226776123046875</LatitudeDegrees>
              <LongitudeDegrees>-2.67170079052448272705078125</LongitudeDegrees>
            </Position>
            <AltitudeMeters>1085.800048828125</AltitudeMeters>
            <DistanceMeters>225921.28958949</DistanceMeters>
          </Trackpoint>
          <Trackpoint>
            <Time>2021-07-29T13:53:15.000Z</Time>
            <Position>
              <LatitudeDegrees>42.11213420145213603973388671875</LatitudeDegrees>
              <LongitudeDegrees>-2.67241568304598331451416015625</LongitudeDegrees>
            </Position>
            <AltitudeMeters>1085</AltitudeMeters>
            <DistanceMeters>225980.64166562</DistanceMeters>
          </Trackpoint>
          <Trackpoint>
            <Time>2021-07-29T13:53:16.000Z</Time>
            <Position>
              <LatitudeDegrees>42.112134955823421478271484375</LatitudeDegrees>
              <LongitudeDegrees>-2.6724519766867160797119140625</LongitudeDegrees>
            </Position>
            <AltitudeMeters>1085</AltitudeMeters>
            <DistanceMeters>225983.63915224</DistanceMeters>
          </Trackpoint>
          <Trackpoint>
            <Time>2021-07-29T13:53:22.000Z</Time>
            <Position>
              <LatitudeDegrees>42.112158425152301788330078125</LatitudeDegrees>
              <LongitudeDegrees>-2.6725904457271099090576171875</LongitudeDegrees>
            </Position>
            <AltitudeMeters>1083.800048828125</AltitudeMeters>
            <DistanceMeters>225995.36677324</DistanceMeters>
          </Trackpoint>
          <Trackpoint>
            <Time>2021-07-29T13:53:27.000Z</Time>
            <Position>
              <LatitudeDegrees>42.11221148259937763214111328125</LatitudeDegrees>
              <LongitudeDegrees>-2.67275221645832061767578125</LongitudeDegrees>
            </Position>
            <AltitudeMeters>1083</AltitudeMeters>
            <DistanceMeters>226009.97092935</DistanceMeters>
          </Trackpoint>
          <Trackpoint>
            <Time>2021-07-29T13:53:29.000Z</Time>
            <Position>
              <LatitudeDegrees>42.1121803857386112213134765625</LatitudeDegrees>
              <LongitudeDegrees>-2.67280762083828449249267578125</LongitudeDegrees>
            </Position>
            <AltitudeMeters>1082.800048828125</AltitudeMeters>
            <DistanceMeters>226015.70726952</DistanceMeters>
          </Trackpoint>
          <Trackpoint>
            <Time>2021-07-29T13:53:38.000Z</Time>
            <Position>
              <LatitudeDegrees>42.11202071048319339752197265625</LatitudeDegrees>
              <LongitudeDegrees>-2.67286931164562702178955078125</LongitudeDegrees>
            </Position>
            <AltitudeMeters>1083.800048828125</AltitudeMeters>
            <DistanceMeters>226034.19527789</DistanceMeters>
          </Trackpoint>
          <Trackpoint>
            <Time>2021-07-29T13:53:42.000Z</Time>
            <Position>
              <LatitudeDegrees>42.112014926970005035400390625</LatitudeDegrees>
              <LongitudeDegrees>-2.67281650565564632415771484375</LongitudeDegrees>
            </Position>
            <AltitudeMeters>1084</AltitudeMeters>
            <DistanceMeters>226038.60353429</DistanceMeters>
          </Trackpoint>
          <Trackpoint>
            <Time>2021-07-30T08:11:41.000Z</Time>
            <Position>
              <LatitudeDegrees>42.11203076876699924468994140625</LatitudeDegrees>
              <LongitudeDegrees>-2.67180095426738262176513671875</LongitudeDegrees>
            </Position>
            <AltitudeMeters>1053.199951171875</AltitudeMeters>
            <DistanceMeters>226122.47380232</DistanceMeters>
          </Trackpoint>
          <Trackpoint>
            <Time>2021-07-30T08:12:01.000Z</Time>
            <Position>
              <LatitudeDegrees>42.11223185062408447265625</LatitudeDegrees>
              <LongitudeDegrees>-2.67109536565840244293212890625</LongitudeDegrees>
            </Position>
            <AltitudeMeters>1053.800048828125</AltitudeMeters>
            <DistanceMeters>226184.88356912</DistanceMeters>
          </Trackpoint>
          <Trackpoint>
            <Time>2021-07-30T08:12:17.000Z</Time>
            <Position>
              <LatitudeDegrees>42.11242907680571079254150390625</LatitudeDegrees>
              <LongitudeDegrees>-2.67038290388882160186767578125</LongitudeDegrees>
            </Position>
            <AltitudeMeters>1053.800048828125</AltitudeMeters>
            <DistanceMeters>226247.67199874</DistanceMeters>
          </Trackpoint>
          <Trackpoint>
            <Time>2021-07-30T08:12:29.000Z</Time>
            <Position>
              <LatitudeDegrees>42.1125924400985240936279296875</LatitudeDegrees>
              <LongitudeDegrees>-2.6697541773319244384765625</LongitudeDegrees>
            </Position>
            <AltitudeMeters>1052.199951171875</AltitudeMeters>
            <DistanceMeters>226302.67646213</DistanceMeters>
          </Trackpoint>
          <Trackpoint>
            <Time>2021-07-30T08:12:37.000Z</Time>
            <Position>
              <LatitudeDegrees>42.11271892301738262176513671875</LatitudeDegrees>
              <LongitudeDegrees>-2.66927649267017841339111328125</LongitudeDegrees>
            </Position>
            <AltitudeMeters>1050.800048828125</AltitudeMeters>
            <DistanceMeters>226344.55446669</DistanceMeters>
          </Trackpoint>
          <Trackpoint>
            <Time>2021-07-30T08:12:45.000Z</Time>
            <Position>
              <LatitudeDegrees>42.11286284029483795166015625</LatitudeDegrees>
              <LongitudeDegrees>-2.6687716506421566009521484375</LongitudeDegrees>
            </Position>
            <AltitudeMeters>1049.800048828125</AltitudeMeters>
            <DistanceMeters>226389.209541</DistanceMeters>
          </Trackpoint>
          <Trackpoint>
            <Time>2021-07-30T08:12:50.000Z</Time>
            <Position>
              <LatitudeDegrees>42.11294556967914104461669921875</LatitudeDegrees>
              <LongitudeDegrees>-2.6684776134788990020751953125</LongitudeDegrees>
            </Position>
            <AltitudeMeters>1050</AltitudeMeters>
            <DistanceMeters>226415.17444957</DistanceMeters>
          </Trackpoint>
          <Trackpoint>
            <Time>2021-07-30T08:12:57.000Z</Time>
            <Position>
              <LatitudeDegrees>42.11314606480300426483154296875</LatitudeDegrees>
              <LongitudeDegrees>-2.6680791378021240234375</LongitudeDegrees>
            </Position>
            <AltitudeMeters>1048.5999755859375</AltitudeMeters>
            <DistanceMeters>226454.92913419</DistanceMeters>
          </Trackpoint>
          <Trackpoint>
            <Time>2021-07-30T08:13:01.000Z</Time>
            <Position>
              <LatitudeDegrees>42.1132636629045009613037109375</LatitudeDegrees>
              <LongitudeDegrees>-2.66785173676908016204833984375</LongitudeDegrees>
            </Position>
            <AltitudeMeters>1047.5999755859375</AltitudeMeters>
            <DistanceMeters>226477.81676763</DistanceMeters>
          </Trackpoint>
          <Trackpoint>
            <Time>2021-07-30T08:13:12.000Z</Time>
            <Position>
              <LatitudeDegrees>42.11361913941800594329833984375</LatitudeDegrees>
              <LongitudeDegrees>-2.66726550646126270294189453125</LongitudeDegrees>
            </Position>
            <AltitudeMeters>1046.800048828125</AltitudeMeters>
            <DistanceMeters>226540.33257455</DistanceMeters>
          </Trackpoint>
          <Trackpoint>
            <Time>2021-07-30T08:13:14.000Z</Time>
            <Position>
              <LatitudeDegrees>42.11368887685239315032958984375</LatitudeDegrees>
              <LongitudeDegrees>-2.6671613194048404693603515625</LongitudeDegrees>
            </Position>
            <AltitudeMeters>1046.4000244140625</AltitudeMeters>
            <DistanceMeters>226551.91960077</DistanceMeters>
          </Trackpoint>
          <Trackpoint>
            <Time>2021-07-30T08:13:22.000Z</Time>
            <Position>
              <LatitudeDegrees>42.11402046494185924530029296875</LatitudeDegrees>
              <LongitudeDegrees>-2.6667693816125392913818359375</LongitudeDegrees>
            </Position>
            <AltitudeMeters>1045</AltitudeMeters>
            <DistanceMeters>226601.00400334</DistanceMeters>
          </Trackpoint>
          <Trackpoint>
            <Time>2021-07-30T08:13:31.000Z</Time>
            <Position>
              <LatitudeDegrees>42.114428244531154632568359375</LatitudeDegrees>
              <LongitudeDegrees>-2.666378282010555267333984375</LongitudeDegrees>
            </Position>
            <AltitudeMeters>1043.800048828125</AltitudeMeters>
            <DistanceMeters>226656.70554753</DistanceMeters>
          </Trackpoint>
          <Trackpoint>
            <Time>2021-07-30T08:13:43.000Z</Time>
            <Position>
              <LatitudeDegrees>42.114877514541149139404296875</LatitudeDegrees>
              <LongitudeDegrees>-2.66590453684329986572265625</LongitudeDegrees>
            </Position>
            <AltitudeMeters>1044.5999755859375</AltitudeMeters>
            <DistanceMeters>226720.19107407</DistanceMeters>
          </Trackpoint>
          <Trackpoint>
            <Time>2021-07-30T08:13:44.000Z</Time>
            <Position>
              <LatitudeDegrees>42.11490894667804241180419921875</LatitudeDegrees>
              <LongitudeDegrees>-2.6658658124506473541259765625</LongitudeDegrees>
            </Position>
            <AltitudeMeters>1044.800048828125</AltitudeMeters>
            <DistanceMeters>226724.93099286</DistanceMeters>
          </Trackpoint>
          <Trackpoint>
            <Time>2021-07-30T08:13:58.000Z</Time>
            <Position>
              <LatitudeDegrees>42.11528378538787364959716796875</LatitudeDegrees>
              <LongitudeDegrees>-2.6652844436466693878173828125</LongitudeDegrees>
            </Position>
            <AltitudeMeters>1044.199951171875</AltitudeMeters>
            <DistanceMeters>226788.5279365</DistanceMeters>
          </Trackpoint>
          <Trackpoint>
            <Time>2021-07-30T08:14:12.000Z</Time>
            <Position>
              <LatitudeDegrees>42.11562459357082843780517578125</LatitudeDegrees>
              <LongitudeDegrees>-2.6646635122597217559814453125</LongitudeDegrees>
            </Position>
            <AltitudeMeters>1044.800048828125</AltitudeMeters>
            <DistanceMeters>226852.30169481</DistanceMeters>
          </Trackpoint>
          <Trackpoint>
            <Time>2021-07-30T08:14:21.000Z</Time>
            <Position>
              <LatitudeDegrees>42.11588275618851184844970703125</LatitudeDegrees>
              <LongitudeDegrees>-2.66423779539763927459716796875</LongitudeDegrees>
            </Position>
            <AltitudeMeters>1044.199951171875</AltitudeMeters>
            <DistanceMeters>226897.70040303</DistanceMeters>
          </Trackpoint>
          <Trackpoint>
            <Time>2021-07-30T08:14:24.000Z</Time>
            <Position>
              <LatitudeDegrees>42.115969844162464141845703125</LatitudeDegrees>
              <LongitudeDegrees>-2.66409404575824737548828125</LongitudeDegrees>
            </Position>
            <AltitudeMeters>1044</AltitudeMeters>
            <DistanceMeters>226913.02388429</DistanceMeters>
          </Trackpoint>
          <Trackpoint>
            <Time>2021-07-30T08:14:36.000Z</Time>
            <Position>
              <LatitudeDegrees>42.11632288992404937744140625</LatitudeDegrees>
              <LongitudeDegrees>-2.66351594589650630950927734375</LongitudeDegrees>
            </Position>
            <AltitudeMeters>1043.5999755859375</AltitudeMeters>
            <DistanceMeters>226974.84750806</DistanceMeters>
          </Trackpoint>
          <Trackpoint>
            <Time>2021-07-30T08:14:41.000Z</Time>
            <Position>
              <LatitudeDegrees>42.1164608560502529144287109375</LatitudeDegrees>
              <LongitudeDegrees>-2.6632989384233951568603515625</LongitudeDegrees>
            </Position>
            <AltitudeMeters>1043.199951171875</AltitudeMeters>
            <DistanceMeters>226998.44438441</DistanceMeters>
          </Trackpoint>
          <Trackpoint>
            <Time>2021-07-30T08:14:53.000Z</Time>
            <Position>
              <LatitudeDegrees>42.11688959039747714996337890625</LatitudeDegrees>
              <LongitudeDegrees>-2.66282376833260059356689453125</LongitudeDegrees>
            </Position>
            <AltitudeMeters>1042.4000244140625</AltitudeMeters>
            <DistanceMeters>227060.2194966</DistanceMeters>
          </Trackpoint>
          <Trackpoint>
            <Time>2021-07-30T08:14:59.000Z</Time>
            <Position>
              <LatitudeDegrees>42.1170987188816070556640625</LatitudeDegrees>
              <LongitudeDegrees>-2.66257666982710361480712890625</LongitudeDegrees>
            </Position>
            <AltitudeMeters>1042.4000244140625</AltitudeMeters>
            <DistanceMeters>227091.17079302</DistanceMeters>
          </Trackpoint>
          <Trackpoint>
            <Time>2021-07-30T08:15:05.000Z</Time>
            <Position>
              <LatitudeDegrees>42.11733810603618621826171875</LatitudeDegrees>
              <LongitudeDegrees>-2.662428058683872222900390625</LongitudeDegrees>
            </Position>
            <AltitudeMeters>1042.199951171875</AltitudeMeters>
            <DistanceMeters>227120.50435612</DistanceMeters>
          </Trackpoint>
          <Trackpoint>
            <Time>2021-07-30T08:15:08.000Z</Time>
            <Position>
              <LatitudeDegrees>42.11748830974102020263671875</LatitudeDegrees>
              <LongitudeDegrees>-2.662368714809417724609375</LongitudeDegrees>
            </Position>
            <AltitudeMeters>1041.199951171875</AltitudeMeters>
            <DistanceMeters>227137.92563246</DistanceMeters>
          </Trackpoint>
          <Trackpoint>
            <Time>2021-07-30T08:15:12.000Z</Time>
            <Position>
              <LatitudeDegrees>42.11772308684885501861572265625</LatitudeDegrees>
              <LongitudeDegrees>-2.66227659769356250762939453125</LongitudeDegrees>
            </Position>
            <AltitudeMeters>1040</AltitudeMeters>
            <DistanceMeters>227165.14079239</DistanceMeters>
          </Trackpoint>
          <Trackpoint>
            <Time>2021-07-30T08:15:14.000Z</Time>
            <Position>
              <LatitudeDegrees>42.117856442928314208984375</LatitudeDegrees>
              <LongitudeDegrees>-2.662226893007755279541015625</LongitudeDegrees>
            </Position>
            <AltitudeMeters>1038.800048828125</AltitudeMeters>
            <DistanceMeters>227180.54069166</DistanceMeters>
          </Trackpoint>
          <Trackpoint>
            <Time>2021-07-30T08:15:16.000Z</Time>
            <Position>
              <LatitudeDegrees>42.11799927055835723876953125</LatitudeDegrees>
              <LongitudeDegrees>-2.66217182390391826629638671875</LongitudeDegrees>
            </Position>
            <AltitudeMeters>1037.4000244140625</AltitudeMeters>
            <DistanceMeters>227197.07533996</DistanceMeters>
          </Trackpoint>
          <Trackpoint>
            <Time>2021-07-30T08:15:19.000Z</Time>
            <Position>
              <LatitudeDegrees>42.11821963079273700714111328125</LatitudeDegrees>
              <LongitudeDegrees>-2.66209554858505725860595703125</LongitudeDegrees>
            </Position>
            <AltitudeMeters>1036</AltitudeMeters>
            <DistanceMeters>227222.39724033</DistanceMeters>
          </Trackpoint>
          <Trackpoint>
            <Time>2021-07-30T08:15:21.000Z</Time>
            <Position>
              <LatitudeDegrees>42.118365727365016937255859375</LatitudeDegrees>
              <LongitudeDegrees>-2.66207166016101837158203125</LongitudeDegrees>
            </Position>
            <AltitudeMeters>1035.199951171875</AltitudeMeters>
            <DistanceMeters>227238.77715581</DistanceMeters>
          </Trackpoint>
          <Trackpoint>
            <Time>2021-07-30T08:15:22.000Z</Time>
            <Position>
              <LatitudeDegrees>42.11843504570424556732177734375</LatitudeDegrees>
              <LongitudeDegrees>-2.6620738394558429718017578125</LongitudeDegrees>
            </Position>
            <AltitudeMeters>1034.800048828125</AltitudeMeters>
            <DistanceMeters>227246.49482283</DistanceMeters>
          </Trackpoint>
          <Trackpoint>
            <Time>2021-07-30T08:15:25.000Z</Time>
            <Position>
              <LatitudeDegrees>42.1186300925910472869873046875</LatitudeDegrees>
              <LongitudeDegrees>-2.66214072704315185546875</LongitudeDegrees>
            </Position>
            <AltitudeMeters>1034.4000244140625</AltitudeMeters>
            <DistanceMeters>227268.89534264</DistanceMeters>
          </Trackpoint>
          <Trackpoint>
            <Time>2021-07-30T08:15:29.000Z</Time>
            <Position>
              <LatitudeDegrees>42.118856571614742279052734375</LatitudeDegrees>
              <LongitudeDegrees>-2.66220384277403354644775390625</LongitudeDegrees>
            </Position>
            <AltitudeMeters>1035.4000244140625</AltitudeMeters>
            <DistanceMeters>227294.63600812</DistanceMeters>
          </Trackpoint>
          <Trackpoint>
            <Time>2021-07-30T08:15:31.000Z</Time>
            <Position>
              <LatitudeDegrees>42.1189526282250881195068359375</LatitudeDegrees>
              <LongitudeDegrees>-2.66219344921410083770751953125</LongitudeDegrees>
            </Position>
            <AltitudeMeters>1036</AltitudeMeters>
            <DistanceMeters>227305.36140526</DistanceMeters>
          </Trackpoint>
          <Trackpoint>
            <Time>2021-07-30T08:15:34.000Z</Time>
            <Position>
              <LatitudeDegrees>42.1190726570785045623779296875</LatitudeDegrees>
              <LongitudeDegrees>-2.6621338538825511932373046875</LongitudeDegrees>
            </Position>
            <AltitudeMeters>1037.199951171875</AltitudeMeters>
            <DistanceMeters>227319.59829733</DistanceMeters>
          </Trackpoint>
          <Trackpoint>
            <Time>2021-07-30T08:15:35.000Z</Time>
            <Position>
              <LatitudeDegrees>42.11910895071923732757568359375</LatitudeDegrees>
              <LongitudeDegrees>-2.66210854053497314453125</LongitudeDegrees>
            </Position>
            <AltitudeMeters>1037.4000244140625</AltitudeMeters>
            <DistanceMeters>227324.14768577</DistanceMeters>
          </Trackpoint>
          <Trackpoint>
            <Time>2021-07-30T08:15:40.000Z</Time>
            <Position>
              <LatitudeDegrees>42.1192640997469425201416015625</LatitudeDegrees>
              <LongitudeDegrees>-2.661953978240489959716796875</LongitudeDegrees>
            </Position>
            <AltitudeMeters>1038.800048828125</AltitudeMeters>
            <DistanceMeters>227345.61909753</DistanceMeters>
          </Trackpoint>
          <Trackpoint>
            <Time>2021-07-30T08:15:43.000Z</Time>
            <Position>
              <LatitudeDegrees>42.11934464983642101287841796875</LatitudeDegrees>
              <LongitudeDegrees>-2.66184777952730655670166015625</LongitudeDegrees>
            </Position>
            <AltitudeMeters>1039.800048828125</AltitudeMeters>
            <DistanceMeters>227358.15902381</DistanceMeters>
          </Trackpoint>
          <Trackpoint>
            <Time>2021-07-30T08:15:48.000Z</Time>
            <Position>
              <LatitudeDegrees>42.11947624571621417999267578125</LatitudeDegrees>
              <LongitudeDegrees>-2.6616550795733928680419921875</LongitudeDegrees>
            </Position>
            <AltitudeMeters>1040</AltitudeMeters>
            <DistanceMeters>227379.78381372</DistanceMeters>
          </Trackpoint>
          <Trackpoint>
            <Time>2021-07-30T08:16:02.000Z</Time>
            <Position>
              <LatitudeDegrees>42.1197871305048465728759765625</LatitudeDegrees>
              <LongitudeDegrees>-2.66100841574370861053466796875</LongitudeDegrees>
            </Position>
            <AltitudeMeters>1040</AltitudeMeters>
            <DistanceMeters>227443.40375544</DistanceMeters>
          </Trackpoint>
          <Trackpoint>
            <Time>2021-07-30T08:16:10.000Z</Time>
            <Position>
              <LatitudeDegrees>42.11993850767612457275390625</LatitudeDegrees>
              <LongitudeDegrees>-2.6606266200542449951171875</LongitudeDegrees>
            </Position>
            <AltitudeMeters>1039.4000244140625</AltitudeMeters>
            <DistanceMeters>227479.14428682</DistanceMeters>
          </Trackpoint>
          <Trackpoint>
            <Time>2021-07-30T08:16:24.000Z</Time>
            <Position>
              <LatitudeDegrees>42.12000665254890918731689453125</LatitudeDegrees>
              <LongitudeDegrees>-2.65990435145795345306396484375</LongitudeDegrees>
            </Position>
            <AltitudeMeters>1040.4000244140625</AltitudeMeters>
            <DistanceMeters>227539.25332214</DistanceMeters>
          </Trackpoint>
          <Trackpoint>
            <Time>2021-07-30T08:16:38.000Z</Time>
            <Position>
              <LatitudeDegrees>42.120378054678440093994140625</LatitudeDegrees>
              <LongitudeDegrees>-2.65936522744596004486083984375</LongitudeDegrees>
            </Position>
            <AltitudeMeters>1040.5999755859375</AltitudeMeters>
            <DistanceMeters>227599.99717497</DistanceMeters>
          </Trackpoint>
          <Trackpoint>
            <Time>2021-07-30T08:16:51.000Z</Time>
            <Position>
              <LatitudeDegrees>42.1208509616553783416748046875</LatitudeDegrees>
              <LongitudeDegrees>-2.65901050530374050140380859375</LongitudeDegrees>
            </Position>
            <AltitudeMeters>1040.4000244140625</AltitudeMeters>
            <DistanceMeters>227660.23077069</DistanceMeters>
          </Trackpoint>
          <Trackpoint>
            <Time>2021-07-30T08:17:04.000Z</Time>
            <Position>
              <LatitudeDegrees>42.12126754224300384521484375</LatitudeDegrees>
              <LongitudeDegrees>-2.65851614065468311309814453125</LongitudeDegrees>
            </Position>
            <AltitudeMeters>1040.199951171875</AltitudeMeters>
            <DistanceMeters>227722.00062029</DistanceMeters>
          </Trackpoint>
          <Trackpoint>
            <Time>2021-07-30T08:17:09.000Z</Time>
            <Position>
              <LatitudeDegrees>42.12137055583298206329345703125</LatitudeDegrees>
              <LongitudeDegrees>-2.6582111231982707977294921875</LongitudeDegrees>
            </Position>
            <AltitudeMeters>1038.800048828125</AltitudeMeters>
            <DistanceMeters>227749.66890106</DistanceMeters>
          </Trackpoint>
          <Trackpoint>
            <Time>2021-07-30T08:17:11.000Z</Time>
            <Position>
              <LatitudeDegrees>42.1214038319885730743408203125</LatitudeDegrees>
              <LongitudeDegrees>-2.658066451549530029296875</LongitudeDegrees>
            </Position>
            <AltitudeMeters>1037.800048828125</AltitudeMeters>
            <DistanceMeters>227762.17349236</DistanceMeters>
          </Trackpoint>
          <Trackpoint>
            <Time>2021-07-30T08:17:13.000Z</Time>
            <Position>
              <LatitudeDegrees>42.12144096381962299346923828125</LatitudeDegrees>
              <LongitudeDegrees>-2.65790409408509731292724609375</LongitudeDegrees>
            </Position>
            <AltitudeMeters>1036.5999755859375</AltitudeMeters>
            <DistanceMeters>227776.19983456</DistanceMeters>
          </Trackpoint>
          <Trackpoint>
            <Time>2021-07-30T08:17:15.000Z</Time>
            <Position>
              <LatitudeDegrees>42.12148253805935382843017578125</LatitudeDegrees>
              <LongitudeDegrees>-2.65772237442433834075927734375</LongitudeDegrees>
            </Position>
            <AltitudeMeters>1035</AltitudeMeters>
            <DistanceMeters>227791.89909908</DistanceMeters>
          </Trackpoint>
          <Trackpoint>
            <Time>2021-07-30T08:17:17.000Z</Time>
            <Position>
              <LatitudeDegrees>42.12152679450809955596923828125</LatitudeDegrees>
              <LongitudeDegrees>-2.65752397477626800537109375</LongitudeDegrees>
            </Position>
            <AltitudeMeters>1033.5999755859375</AltitudeMeters>
            <DistanceMeters>227809.00232382</DistanceMeters>
          </Trackpoint>
          <Trackpoint>
            <Time>2021-07-30T08:17:19.000Z</Time>
            <Position>
              <LatitudeDegrees>42.1215731464326381683349609375</LatitudeDegrees>
              <LongitudeDegrees>-2.65731073915958404541015625</LongitudeDegrees>
            </Position>
            <AltitudeMeters>1032</AltitudeMeters>
            <DistanceMeters>227827.34617207</DistanceMeters>
          </Trackpoint>
          <Trackpoint>
            <Time>2021-07-30T08:17:21.000Z</Time>
            <Position>
              <LatitudeDegrees>42.12160944007337093353271484375</LatitudeDegrees>
              <LongitudeDegrees>-2.657080404460430145263671875</LongitudeDegrees>
            </Position>
            <AltitudeMeters>1030.4000244140625</AltitudeMeters>
            <DistanceMeters>227846.7855815</DistanceMeters>
          </Trackpoint>
          <Trackpoint>
            <Time>2021-07-30T08:17:23.000Z</Time>
            <Position>
              <LatitudeDegrees>42.12162503041326999664306640625</LatitudeDegrees>
              <LongitudeDegrees>-2.656836323440074920654296875</LongitudeDegrees>
            </Position>
            <AltitudeMeters>1028.4000244140625</AltitudeMeters>
            <DistanceMeters>227867.00998118</DistanceMeters>
          </Trackpoint>
          <Trackpoint>
            <Time>2021-07-30T08:17:24.000Z</Time>
            <Position>
              <LatitudeDegrees>42.12162804789841175079345703125</LatitudeDegrees>
              <LongitudeDegrees>-2.6567107625305652618408203125</LongitudeDegrees>
            </Position>
            <AltitudeMeters>1027.4000244140625</AltitudeMeters>
            <DistanceMeters>227877.38139722</DistanceMeters>
          </Trackpoint>
          <Trackpoint>
            <Time>2021-07-30T08:17:26.000Z</Time>
            <Position>
              <LatitudeDegrees>42.12163441814482212066650390625</LatitudeDegrees>
              <LongitudeDegrees>-2.656456790864467620849609375</LongitudeDegrees>
            </Position>
            <AltitudeMeters>1025.5999755859375</AltitudeMeters>
            <DistanceMeters>227898.36014517</DistanceMeters>
          </Trackpoint>
          <Trackpoint>
            <Time>2021-07-30T08:17:28.000Z</Time>
            <Position>
              <LatitudeDegrees>42.12165872566401958465576171875</LatitudeDegrees>
              <LongitudeDegrees>-2.65620172955095767974853515625</LongitudeDegrees>
            </Position>
            <AltitudeMeters>1024.4000244140625</AltitudeMeters>
            <DistanceMeters>227919.59005746</DistanceMeters>
          </Trackpoint>
          <Trackpoint>
            <Time>2021-07-30T08:17:30.000Z</Time>
            <Position>
              <LatitudeDegrees>42.1217293851077556610107421875</LatitudeDegrees>
              <LongitudeDegrees>-2.65596385113894939422607421875</LongitudeDegrees>
            </Position>
            <AltitudeMeters>1023.20001220703125</AltitudeMeters>
            <DistanceMeters>227940.74454938</DistanceMeters>
          </Trackpoint>
          <Trackpoint>
            <Time>2021-07-30T08:17:33.000Z</Time>
            <Position>
              <LatitudeDegrees>42.121941782534122467041015625</LatitudeDegrees>
              <LongitudeDegrees>-2.6557190157473087310791015625</LongitudeDegrees>
            </Position>
            <AltitudeMeters>1021.79998779296875</AltitudeMeters>
            <DistanceMeters>227971.84747672</DistanceMeters>
          </Trackpoint>
          <Trackpoint>
            <Time>2021-07-30T08:17:37.000Z</Time>
            <Position>
              <LatitudeDegrees>42.12230212055146694183349609375</LatitudeDegrees>
              <LongitudeDegrees>-2.65569613315165042877197265625</LongitudeDegrees>
            </Position>
            <AltitudeMeters>1020.79998779296875</AltitudeMeters>
            <DistanceMeters>228011.99825962</DistanceMeters>
          </Trackpoint>
          <Trackpoint>
            <Time>2021-07-30T08:17:39.000Z</Time>
            <Position>
              <LatitudeDegrees>42.12246875278651714324951171875</LatitudeDegrees>
              <LongitudeDegrees>-2.6557838916778564453125</LongitudeDegrees>
            </Position>
            <AltitudeMeters>1020.4000244140625</AltitudeMeters>
            <DistanceMeters>228031.90992796</DistanceMeters>
          </Trackpoint>
          <Trackpoint>
            <Time>2021-07-30T08:17:40.000Z</Time>
            <Position>
              <LatitudeDegrees>42.1225524879992008209228515625</LatitudeDegrees>
              <LongitudeDegrees>-2.655823789536952972412109375</LongitudeDegrees>
            </Position>
            <AltitudeMeters>1020.20001220703125</AltitudeMeters>
            <DistanceMeters>228041.79499029</DistanceMeters>
          </Trackpoint>
          <Trackpoint>
            <Time>2021-07-30T08:17:46.000Z</Time>
            <Position>
              <LatitudeDegrees>42.12307794950902462005615234375</LatitudeDegrees>
              <LongitudeDegrees>-2.6559195108711719512939453125</LongitudeDegrees>
            </Position>
            <AltitudeMeters>1019.5999755859375</AltitudeMeters>
            <DistanceMeters>228100.81132341</DistanceMeters>
          </Trackpoint>
          <Trackpoint>
            <Time>2021-07-30T08:17:51.000Z</Time>
            <Position>
              <LatitudeDegrees>42.123527638614177703857421875</LatitudeDegrees>
              <LongitudeDegrees>-2.65589193440973758697509765625</LongitudeDegrees>
            </Position>
            <AltitudeMeters>1018.5999755859375</AltitudeMeters>
            <DistanceMeters>228150.91437821</DistanceMeters>
          </Trackpoint>
          <Trackpoint>
            <Time>2021-07-30T08:17:52.000Z</Time>
            <Position>
              <LatitudeDegrees>42.12361673824489116668701171875</LatitudeDegrees>
              <LongitudeDegrees>-2.65586435794830322265625</LongitudeDegrees>
            </Position>
            <AltitudeMeters>1018.20001220703125</AltitudeMeters>
            <DistanceMeters>228161.0897827</DistanceMeters>
          </Trackpoint>
          <Trackpoint>
            <Time>2021-07-30T08:17:54.000Z</Time>
            <Position>
              <LatitudeDegrees>42.12378303520381450653076171875</LatitudeDegrees>
              <LongitudeDegrees>-2.65576176345348358154296875</LongitudeDegrees>
            </Position>
            <AltitudeMeters>1017.4000244140625</AltitudeMeters>
            <DistanceMeters>228181.44480659</DistanceMeters>
          </Trackpoint>
          <Trackpoint>
            <Time>2021-07-30T08:17:57.000Z</Time>
            <Position>
              <LatitudeDegrees>42.1239975281059741973876953125</LatitudeDegrees>
              <LongitudeDegrees>-2.6555238850414752960205078125</LongitudeDegrees>
            </Position>
            <AltitudeMeters>1016.20001220703125</AltitudeMeters>
            <DistanceMeters>228212.35727575</DistanceMeters>
          </Trackpoint>
          <Trackpoint>
            <Time>2021-07-30T08:17:59.000Z</Time>
            <Position>
              <LatitudeDegrees>42.12409752421081066131591796875</LatitudeDegrees>
              <LongitudeDegrees>-2.65531073324382305145263671875</LongitudeDegrees>
            </Position>
            <AltitudeMeters>1014.79998779296875</AltitudeMeters>
            <DistanceMeters>228233.17788693</DistanceMeters>
          </Trackpoint>
          <Trackpoint>
            <Time>2021-07-30T08:18:00.000Z</Time>
            <Position>
              <LatitudeDegrees>42.124135158956050872802734375</LatitudeDegrees>
              <LongitudeDegrees>-2.6551933027803897857666015625</LongitudeDegrees>
            </Position>
            <AltitudeMeters>1014</AltitudeMeters>
            <DistanceMeters>228243.73783077</DistanceMeters>
          </Trackpoint>
          <Trackpoint>
            <Time>2021-07-30T08:18:01.000Z</Time>
            <Position>
              <LatitudeDegrees>42.124172709882259368896484375</LatitudeDegrees>
              <LongitudeDegrees>-2.65507570467889308929443359375</LongitudeDegrees>
            </Position>
            <AltitudeMeters>1013.20001220703125</AltitudeMeters>
            <DistanceMeters>228254.30760398</DistanceMeters>
          </Trackpoint>
          <Trackpoint>
            <Time>2021-07-30T08:18:04.000Z</Time>
            <Position>
              <LatitudeDegrees>42.1242945827543735504150390625</LatitudeDegrees>
              <LongitudeDegrees>-2.6547232456505298614501953125</LongitudeDegrees>
            </Position>
            <AltitudeMeters>1012</AltitudeMeters>
            <DistanceMeters>228286.41032294</DistanceMeters>
          </Trackpoint>
          <Trackpoint>
            <Time>2021-07-30T08:18:06.000Z</Time>
            <Position>
              <LatitudeDegrees>42.12436071597039699554443359375</LatitudeDegrees>
              <LongitudeDegrees>-2.6544748060405254364013671875</LongitudeDegrees>
            </Position>
            <AltitudeMeters>1011.20001220703125</AltitudeMeters>
            <DistanceMeters>228308.20026143</DistanceMeters>
          </Trackpoint>
          <Trackpoint>
            <Time>2021-07-30T08:18:07.000Z</Time>
            <Position>
              <LatitudeDegrees>42.12438200600445270538330078125</LatitudeDegrees>
              <LongitudeDegrees>-2.65434379689395427703857421875</LongitudeDegrees>
            </Position>
            <AltitudeMeters>1010.4000244140625</AltitudeMeters>
            <DistanceMeters>228319.27158735</DistanceMeters>
          </Trackpoint>
          <Trackpoint>
            <Time>2021-07-30T08:18:09.000Z</Time>
            <Position>
              <LatitudeDegrees>42.12438804097473621368408203125</LatitudeDegrees>
              <LongitudeDegrees>-2.6540721394121646881103515625</LongitudeDegrees>
            </Position>
            <AltitudeMeters>1009.20001220703125</AltitudeMeters>
            <DistanceMeters>228341.70735235</DistanceMeters>
          </Trackpoint>
          <Trackpoint>
            <Time>2021-07-30T08:18:10.000Z</Time>
            <Position>
              <LatitudeDegrees>42.12437982670962810516357421875</LatitudeDegrees>
              <LongitudeDegrees>-2.65393517911434173583984375</LongitudeDegrees>
            </Position>
            <AltitudeMeters>1008.5999755859375</AltitudeMeters>
            <DistanceMeters>228353.05021483</DistanceMeters>
          </Trackpoint>
          <Trackpoint>
            <Time>2021-07-30T08:18:11.000Z</Time>
            <Position>
              <LatitudeDegrees>42.12437094189226627349853515625</LatitudeDegrees>
              <LongitudeDegrees>-2.6537978835403919219970703125</LongitudeDegrees>
            </Position>
            <AltitudeMeters>1008</AltitudeMeters>
            <DistanceMeters>228364.4272582</DistanceMeters>
          </Trackpoint>
          <Trackpoint>
            <Time>2021-07-30T08:18:13.000Z</Time>
            <Position>
              <LatitudeDegrees>42.12437219917774200439453125</LatitudeDegrees>
              <LongitudeDegrees>-2.65352019108831882476806640625</LongitudeDegrees>
            </Position>
            <AltitudeMeters>1006.79998779296875</AltitudeMeters>
            <DistanceMeters>228387.35155445</DistanceMeters>
          </Trackpoint>
          <Trackpoint>
            <Time>2021-07-30T08:18:15.000Z</Time>
            <Position>
              <LatitudeDegrees>42.12444570846855640411376953125</LatitudeDegrees>
              <LongitudeDegrees>-2.6532664708793163299560546875</LongitudeDegrees>
            </Position>
            <AltitudeMeters>1004.5999755859375</AltitudeMeters>
            <DistanceMeters>228409.83777469</DistanceMeters>
          </Trackpoint>
          <Trackpoint>
            <Time>2021-07-30T08:18:17.000Z</Time>
            <Position>
              <LatitudeDegrees>42.12460094131529331207275390625</LatitudeDegrees>
              <LongitudeDegrees>-2.65309807844460010528564453125</LongitudeDegrees>
            </Position>
            <AltitudeMeters>1003.5999755859375</AltitudeMeters>
            <DistanceMeters>228432.01363844</DistanceMeters>
          </Trackpoint>
          <Trackpoint>
            <Time>2021-07-30T08:18:21.000Z</Time>
            <Position>
              <LatitudeDegrees>42.1249909512698650360107421875</LatitudeDegrees>
              <LongitudeDegrees>-2.6531513035297393798828125</LongitudeDegrees>
            </Position>
            <AltitudeMeters>1002.20001220703125</AltitudeMeters>
            <DistanceMeters>228475.64425172</DistanceMeters>
          </Trackpoint>
          <Trackpoint>
            <Time>2021-07-30T08:18:23.000Z</Time>
            <Position>
              <LatitudeDegrees>42.125167138874530792236328125</LatitudeDegrees>
              <LongitudeDegrees>-2.65329639427363872528076171875</LongitudeDegrees>
            </Position>
            <AltitudeMeters>1001.4000244140625</AltitudeMeters>
            <DistanceMeters>228498.62284305</DistanceMeters>
          </Trackpoint>
          <Trackpoint>
            <Time>2021-07-30T08:18:24.000Z</Time>
            <Position>
              <LatitudeDegrees>42.1252591721713542938232421875</LatitudeDegrees>
              <LongitudeDegrees>-2.6533596776425838470458984375</LongitudeDegrees>
            </Position>
            <AltitudeMeters>1001</AltitudeMeters>
            <DistanceMeters>228510.12146816</DistanceMeters>
          </Trackpoint>
          <Trackpoint>
            <Time>2021-07-30T08:18:26.000Z</Time>
            <Position>
              <LatitudeDegrees>42.12545983493328094482421875</LatitudeDegrees>
              <LongitudeDegrees>-2.65345598571002483367919921875</LongitudeDegrees>
            </Position>
            <AltitudeMeters>999.79998779296875</AltitudeMeters>
            <DistanceMeters>228533.82830046</DistanceMeters>
          </Trackpoint>
          <Trackpoint>
            <Time>2021-07-30T08:18:27.000Z</Time>
            <Position>
              <LatitudeDegrees>42.12556712329387664794921875</LatitudeDegrees>
              <LongitudeDegrees>-2.65348515473306179046630859375</LongitudeDegrees>
            </Position>
            <AltitudeMeters>998.5999755859375</AltitudeMeters>
            <DistanceMeters>228546.00989503</DistanceMeters>
          </Trackpoint>
          <Trackpoint>
            <Time>2021-07-30T08:18:28.000Z</Time>
            <Position>
              <LatitudeDegrees>42.12568270973861217498779296875</LatitudeDegrees>
              <LongitudeDegrees>-2.653486914932727813720703125</LongitudeDegrees>
            </Position>
            <AltitudeMeters>997.20001220703125</AltitudeMeters>
            <DistanceMeters>228558.87540323</DistanceMeters>
          </Trackpoint>
          <Trackpoint>
            <Time>2021-07-30T08:18:29.000Z</Time>
            <Position>
              <LatitudeDegrees>42.12579854764044284820556640625</LatitudeDegrees>
              <LongitudeDegrees>-2.6534760184586048126220703125</LongitudeDegrees>
            </Position>
            <AltitudeMeters>995.5999755859375</AltitudeMeters>
            <DistanceMeters>228571.79973509</DistanceMeters>
          </Trackpoint>
          <Trackpoint>
            <Time>2021-07-30T08:18:30.000Z</Time>
            <Position>
              <LatitudeDegrees>42.12590734474360942840576171875</LatitudeDegrees>
              <LongitudeDegrees>-2.65347677282989025115966796875</LongitudeDegrees>
            </Position>
            <AltitudeMeters>994.5999755859375</AltitudeMeters>
            <DistanceMeters>228583.90958403</DistanceMeters>
          </Trackpoint>
          <Trackpoint>
            <Time>2021-07-30T08:18:31.000Z</Time>
            <Position>
              <LatitudeDegrees>42.1260090172290802001953125</LatitudeDegrees>
              <LongitudeDegrees>-2.6534951291978359222412109375</LongitudeDegrees>
            </Position>
            <AltitudeMeters>994</AltitudeMeters>
            <DistanceMeters>228595.32663941</DistanceMeters>
          </Trackpoint>
          <Trackpoint>
            <Time>2021-07-30T08:18:34.000Z</Time>
            <Position>
              <LatitudeDegrees>42.126262150704860687255859375</LatitudeDegrees>
              <LongitudeDegrees>-2.653604932129383087158203125</LongitudeDegrees>
            </Position>
            <AltitudeMeters>993.5999755859375</AltitudeMeters>
            <DistanceMeters>228624.92284652</DistanceMeters>
          </Trackpoint>
          <Trackpoint>
            <Time>2021-07-30T08:18:38.000Z</Time>
            <Position>
              <LatitudeDegrees>42.12654478847980499267578125</LatitudeDegrees>
              <LongitudeDegrees>-2.653722278773784637451171875</LongitudeDegrees>
            </Position>
            <AltitudeMeters>995.20001220703125</AltitudeMeters>
            <DistanceMeters>228657.83859703</DistanceMeters>
          </Trackpoint>
          <Trackpoint>
            <Time>2021-07-30T08:18:41.000Z</Time>
            <Position>
              <LatitudeDegrees>42.1266690082848072052001953125</LatitudeDegrees>
              <LongitudeDegrees>-2.653760500252246856689453125</LongitudeDegrees>
            </Position>
            <AltitudeMeters>996.79998779296875</AltitudeMeters>
            <DistanceMeters>228672.02019999</DistanceMeters>
          </Trackpoint>
          <Trackpoint>
            <Time>2021-07-30T08:18:43.000Z</Time>
            <Position>
              <LatitudeDegrees>42.12670840322971343994140625</LatitudeDegrees>
              <LongitudeDegrees>-2.65376511029899120330810546875</LongitudeDegrees>
            </Position>
            <AltitudeMeters>998.20001220703125</AltitudeMeters>
            <DistanceMeters>228676.42230677</DistanceMeters>
          </Trackpoint>
          <Trackpoint>
            <Time>2021-07-30T08:18:45.000Z</Time>
            <Position>
              <LatitudeDegrees>42.12674134410917758941650390625</LatitudeDegrees>
              <LongitudeDegrees>-2.65376728959381580352783203125</LongitudeDegrees>
            </Position>
            <AltitudeMeters>998.79998779296875</AltitudeMeters>
            <DistanceMeters>228680.09530747</DistanceMeters>
          </Trackpoint>
          <Trackpoint>
            <Time>2021-07-30T08:18:47.000Z</Time>
            <Position>
              <LatitudeDegrees>42.12677638046443462371826171875</LatitudeDegrees>
              <LongitudeDegrees>-2.65377902425825595855712890625</LongitudeDegrees>
            </Position>
            <AltitudeMeters>998.79998779296875</AltitudeMeters>
            <DistanceMeters>228684.11348824</DistanceMeters>
          </Trackpoint>
          <Trackpoint>
            <Time>2021-07-30T08:18:52.000Z</Time>
            <Position>
              <LatitudeDegrees>42.126947455108165740966796875</LatitudeDegrees>
              <LongitudeDegrees>-2.65372521243989467620849609375</LongitudeDegrees>
            </Position>
            <AltitudeMeters>997</AltitudeMeters>
            <DistanceMeters>228703.66568214</DistanceMeters>
          </Trackpoint>
          <Trackpoint>
            <Time>2021-07-30T08:18:54.000Z</Time>
            <Position>
              <LatitudeDegrees>42.1270321123301982879638671875</LatitudeDegrees>
              <LongitudeDegrees>-2.6537291519343852996826171875</LongitudeDegrees>
            </Position>
            <AltitudeMeters>997</AltitudeMeters>
            <DistanceMeters>228713.09394139</DistanceMeters>
          </Trackpoint>
          <Trackpoint>
            <Time>2021-07-30T08:19:07.000Z</Time>
            <Position>
              <LatitudeDegrees>42.12757551111280918121337890625</LatitudeDegrees>
              <LongitudeDegrees>-2.653757147490978240966796875</LongitudeDegrees>
            </Position>
            <AltitudeMeters>997.20001220703125</AltitudeMeters>
            <DistanceMeters>228773.61946883</DistanceMeters>
          </Trackpoint>
          <Trackpoint>
            <Time>2021-07-30T08:19:20.000Z</Time>
            <Position>
              <LatitudeDegrees>42.12813307531177997589111328125</LatitudeDegrees>
              <LongitudeDegrees>-2.65366754494607448577880859375</LongitudeDegrees>
            </Position>
            <AltitudeMeters>997.4000244140625</AltitudeMeters>
            <DistanceMeters>228836.11663961</DistanceMeters>
          </Trackpoint>
          <Trackpoint>
            <Time>2021-07-30T08:19:34.000Z</Time>
            <Position>
              <LatitudeDegrees>42.12869348935782909393310546875</LatitudeDegrees>
              <LongitudeDegrees>-2.65352471731603145599365234375</LongitudeDegrees>
            </Position>
            <AltitudeMeters>997</AltitudeMeters>
            <DistanceMeters>228899.59619185</DistanceMeters>
          </Trackpoint>
          <Trackpoint>
            <Time>2021-07-30T08:19:47.000Z</Time>
            <Position>
              <LatitudeDegrees>42.12923370301723480224609375</LatitudeDegrees>
              <LongitudeDegrees>-2.6535796187818050384521484375</LongitudeDegrees>
            </Position>
            <AltitudeMeters>997.79998779296875</AltitudeMeters>
            <DistanceMeters>228959.89361865</DistanceMeters>
          </Trackpoint>
          <Trackpoint>
            <Time>2021-07-30T08:19:55.000Z</Time>
            <Position>
              <LatitudeDegrees>42.1295750141143798828125</LatitudeDegrees>
              <LongitudeDegrees>-2.6537200994789600372314453125</LongitudeDegrees>
            </Position>
            <AltitudeMeters>996.20001220703125</AltitudeMeters>
            <DistanceMeters>228999.61273918</DistanceMeters>
          </Trackpoint>
          <Trackpoint>
            <Time>2021-07-30T08:20:09.000Z</Time>
            <Position>
              <LatitudeDegrees>42.1300948597490787506103515625</LatitudeDegrees>
              <LongitudeDegrees>-2.6540275476872920989990234375</LongitudeDegrees>
            </Position>
            <AltitudeMeters>996.20001220703125</AltitudeMeters>
            <DistanceMeters>229062.79349972</DistanceMeters>
          </Trackpoint>
          <Trackpoint>
            <Time>2021-07-30T08:20:20.000Z</Time>
            <Position>
              <LatitudeDegrees>42.1304958499968051910400390625</LatitudeDegrees>
              <LongitudeDegrees>-2.65428964979946613311767578125</LongitudeDegrees>
            </Position>
            <AltitudeMeters>997</AltitudeMeters>
            <DistanceMeters>229112.39180095</DistanceMeters>
          </Trackpoint>
          <Trackpoint>
            <Time>2021-07-30T08:20:28.000Z</Time>
            <Position>
              <LatitudeDegrees>42.13081293739378452301025390625</LatitudeDegrees>
              <LongitudeDegrees>-2.65438838861882686614990234375</LongitudeDegrees>
            </Position>
            <AltitudeMeters>997.20001220703125</AltitudeMeters>
            <DistanceMeters>229148.6131874</DistanceMeters>
          </Trackpoint>
          <Trackpoint>
            <Time>2021-07-30T08:20:34.000Z</Time>
            <Position>
              <LatitudeDegrees>42.13105299510061740875244140625</LatitudeDegrees>
              <LongitudeDegrees>-2.65440666116774082183837890625</LongitudeDegrees>
            </Position>
            <AltitudeMeters>998.5999755859375</AltitudeMeters>
            <DistanceMeters>229175.37464033</DistanceMeters>
          </Trackpoint>
          <Trackpoint>
            <Time>2021-07-30T08:20:48.000Z</Time>
            <Position>
              <LatitudeDegrees>42.13160754181444644927978515625</LatitudeDegrees>
              <LongitudeDegrees>-2.65425025485455989837646484375</LongitudeDegrees>
            </Position>
            <AltitudeMeters>998.79998779296875</AltitudeMeters>
            <DistanceMeters>229238.43250924</DistanceMeters>
          </Trackpoint>
          <Trackpoint>
            <Time>2021-07-30T08:21:02.000Z</Time>
            <Position>
              <LatitudeDegrees>42.13211833499372005462646484375</LatitudeDegrees>
              <LongitudeDegrees>-2.653989829123020172119140625</LongitudeDegrees>
            </Position>
            <AltitudeMeters>999.4000244140625</AltitudeMeters>
            <DistanceMeters>229299.21299528</DistanceMeters>
          </Trackpoint>
          <Trackpoint>
            <Time>2021-07-30T08:21:17.000Z</Time>
            <Position>
              <LatitudeDegrees>42.13267941959202289581298828125</LatitudeDegrees>
              <LongitudeDegrees>-2.6539457403123378753662109375</LongitudeDegrees>
            </Position>
            <AltitudeMeters>998.20001220703125</AltitudeMeters>
            <DistanceMeters>229361.76887277</DistanceMeters>
          </Trackpoint>
          <Trackpoint>
            <Time>2021-07-30T08:21:22.000Z</Time>
            <Position>
              <LatitudeDegrees>42.132892906665802001953125</LatitudeDegrees>
              <LongitudeDegrees>-2.6540436409413814544677734375</LongitudeDegrees>
            </Position>
            <AltitudeMeters>997.20001220703125</AltitudeMeters>
            <DistanceMeters>229386.86690142</DistanceMeters>
          </Trackpoint>
          <Trackpoint>
            <Time>2021-07-30T08:21:26.000Z</Time>
            <Position>
              <LatitudeDegrees>42.13307018391788005828857421875</LatitudeDegrees>
              <LongitudeDegrees>-2.6541901566088199615478515625</LongitudeDegrees>
            </Position>
            <AltitudeMeters>996</AltitudeMeters>
            <DistanceMeters>229410.00936961</DistanceMeters>
          </Trackpoint>
          <Trackpoint>
            <Time>2021-07-30T08:21:37.000Z</Time>
            <Position>
              <LatitudeDegrees>42.13327704928815364837646484375</LatitudeDegrees>
              <LongitudeDegrees>-2.65442510135471820831298828125</LongitudeDegrees>
            </Position>
            <AltitudeMeters>996.20001220703125</AltitudeMeters>
            <DistanceMeters>229440.11259687</DistanceMeters>
          </Trackpoint>
          <Trackpoint>
            <Time>2021-07-30T08:23:19.000Z</Time>
            <Position>
              <LatitudeDegrees>42.13329054415225982666015625</LatitudeDegrees>
              <LongitudeDegrees>-2.65446935780346393585205078125</LongitudeDegrees>
            </Position>
            <AltitudeMeters>996.4000244140625</AltitudeMeters>
            <DistanceMeters>229444.06278321</DistanceMeters>
          </Trackpoint>
          <Trackpoint>
            <Time>2021-07-30T08:23:26.000Z</Time>
            <Position>
              <LatitudeDegrees>42.1334093995392322540283203125</LatitudeDegrees>
              <LongitudeDegrees>-2.65470187179744243621826171875</LongitudeDegrees>
            </Position>
            <AltitudeMeters>995.20001220703125</AltitudeMeters>
            <DistanceMeters>229467.37204402</DistanceMeters>
          </Trackpoint>
          <Trackpoint>
            <Time>2021-07-30T08:23:30.000Z</Time>
            <Position>
              <LatitudeDegrees>42.1335069648921489715576171875</LatitudeDegrees>
              <LongitudeDegrees>-2.6548734493553638458251953125</LongitudeDegrees>
            </Position>
            <AltitudeMeters>994</AltitudeMeters>
            <DistanceMeters>229485.21784846</DistanceMeters>
          </Trackpoint>
          <Trackpoint>
            <Time>2021-07-30T08:23:34.000Z</Time>
            <Position>
              <LatitudeDegrees>42.13363126851618289947509765625</LatitudeDegrees>
              <LongitudeDegrees>-2.65505977906286716461181640625</LongitudeDegrees>
            </Position>
            <AltitudeMeters>993</AltitudeMeters>
            <DistanceMeters>229505.90466437</DistanceMeters>
          </Trackpoint>
          <Trackpoint>
            <Time>2021-07-30T08:23:37.000Z</Time>
            <Position>
              <LatitudeDegrees>42.13373713195323944091796875</LatitudeDegrees>
              <LongitudeDegrees>-2.6552077196538448333740234375</LongitudeDegrees>
            </Position>
            <AltitudeMeters>991.79998779296875</AltitudeMeters>
            <DistanceMeters>229522.8735196</DistanceMeters>
          </Trackpoint>
          <Trackpoint>
            <Time>2021-07-30T08:23:40.000Z</Time>
            <Position>
              <LatitudeDegrees>42.1338509581983089447021484375</LatitudeDegrees>
              <LongitudeDegrees>-2.65535566024482250213623046875</LongitudeDegrees>
            </Position>
            <AltitudeMeters>990.5999755859375</AltitudeMeters>
            <DistanceMeters>229540.46937794</DistanceMeters>
          </Trackpoint>
          <Trackpoint>
            <Time>2021-07-30T08:23:47.000Z</Time>
            <Position>
              <LatitudeDegrees>42.1341342665255069732666015625</LatitudeDegrees>
              <LongitudeDegrees>-2.65570007264614105224609375</LongitudeDegrees>
            </Position>
            <AltitudeMeters>989.4000244140625</AltitudeMeters>
            <DistanceMeters>229582.92452343</DistanceMeters>
          </Trackpoint>
          <Trackpoint>
            <Time>2021-07-30T08:23:53.000Z</Time>
            <Position>
              <LatitudeDegrees>42.13439687155187129974365234375</LatitudeDegrees>
              <LongitudeDegrees>-2.65600693412125110626220703125</LongitudeDegrees>
            </Position>
            <AltitudeMeters>988.20001220703125</AltitudeMeters>
            <DistanceMeters>229621.60027944</DistanceMeters>
          </Trackpoint>
          <Trackpoint>
            <Time>2021-07-30T08:23:57.000Z</Time>
            <Position>
              <LatitudeDegrees>42.13457205332815647125244140625</LatitudeDegrees>
              <LongitudeDegrees>-2.65622268430888652801513671875</LongitudeDegrees>
            </Position>
            <AltitudeMeters>986.79998779296875</AltitudeMeters>
            <DistanceMeters>229648.00642348</DistanceMeters>
          </Trackpoint>
          <Trackpoint>
            <Time>2021-07-30T08:24:03.000Z</Time>
            <Position>
              <LatitudeDegrees>42.13483323343098163604736328125</LatitudeDegrees>
              <LongitudeDegrees>-2.65655209310352802276611328125</LongitudeDegrees>
            </Position>
            <AltitudeMeters>985.79998779296875</AltitudeMeters>
            <DistanceMeters>229687.809574</DistanceMeters>
          </Trackpoint>
          <Trackpoint>
            <Time>2021-07-30T08:24:07.000Z</Time>
            <Position>
              <LatitudeDegrees>42.13503993116319179534912109375</LatitudeDegrees>
              <LongitudeDegrees>-2.6567520014941692352294921875</LongitudeDegrees>
            </Position>
            <AltitudeMeters>984.5999755859375</AltitudeMeters>
            <DistanceMeters>229716.12051862</DistanceMeters>
          </Trackpoint>
          <Trackpoint>
            <Time>2021-07-30T08:24:10.000Z</Time>
            <Position>
              <LatitudeDegrees>42.1352168731391429901123046875</LatitudeDegrees>
              <LongitudeDegrees>-2.65686825849115848541259765625</LongitudeDegrees>
            </Position>
            <AltitudeMeters>983.4000244140625</AltitudeMeters>
            <DistanceMeters>229738.02783482</DistanceMeters>
          </Trackpoint>
          <Trackpoint>
            <Time>2021-07-30T08:24:13.000Z</Time>
            <Position>
              <LatitudeDegrees>42.1353905461728572845458984375</LatitudeDegrees>
              <LongitudeDegrees>-2.65698309056460857391357421875</LongitudeDegrees>
            </Position>
            <AltitudeMeters>982.4000244140625</AltitudeMeters>
            <DistanceMeters>229759.55636713</DistanceMeters>
          </Trackpoint>
          <Trackpoint>
            <Time>2021-07-30T08:24:19.000Z</Time>
            <Position>
              <LatitudeDegrees>42.13572942651808261871337890625</LatitudeDegrees>
              <LongitudeDegrees>-2.6572753675282001495361328125</LongitudeDegrees>
            </Position>
            <AltitudeMeters>981.4000244140625</AltitudeMeters>
            <DistanceMeters>229804.32917953</DistanceMeters>
          </Trackpoint>
          <Trackpoint>
            <Time>2021-07-30T08:24:22.000Z</Time>
            <Position>
              <LatitudeDegrees>42.13590092025697231292724609375</LatitudeDegrees>
              <LongitudeDegrees>-2.6574550755321979522705078125</LongitudeDegrees>
            </Position>
            <AltitudeMeters>980.20001220703125</AltitudeMeters>
            <DistanceMeters>229828.50241425</DistanceMeters>
          </Trackpoint>
          <Trackpoint>
            <Time>2021-07-30T08:24:26.000Z</Time>
            <Position>
              <LatitudeDegrees>42.1361546404659748077392578125</LatitudeDegrees>
              <LongitudeDegrees>-2.65768834389746189117431640625</LongitudeDegrees>
            </Position>
            <AltitudeMeters>979</AltitudeMeters>
            <DistanceMeters>229862.68060538</DistanceMeters>
          </Trackpoint>
          <Trackpoint>
            <Time>2021-07-30T08:24:29.000Z</Time>
            <Position>
              <LatitudeDegrees>42.136364020407199859619140625</LatitudeDegrees>
              <LongitudeDegrees>-2.65784676186740398406982421875</LongitudeDegrees>
            </Position>
            <AltitudeMeters>978</AltitudeMeters>
            <DistanceMeters>229889.40221208</DistanceMeters>
          </Trackpoint>
          <Trackpoint>
            <Time>2021-07-30T08:24:33.000Z</Time>
            <Position>
              <LatitudeDegrees>42.13666970841586589813232421875</LatitudeDegrees>
              <LongitudeDegrees>-2.65800006687641143798828125</LongitudeDegrees>
            </Position>
            <AltitudeMeters>976.5999755859375</AltitudeMeters>
            <DistanceMeters>229925.70241697</DistanceMeters>
          </Trackpoint>
          <Trackpoint>
            <Time>2021-07-30T08:24:37.000Z</Time>
            <Position>
              <LatitudeDegrees>42.136992327868938446044921875</LatitudeDegrees>
              <LongitudeDegrees>-2.65809117816388607025146484375</LongitudeDegrees>
            </Position>
            <AltitudeMeters>975.4000244140625</AltitudeMeters>
            <DistanceMeters>229962.38949813</DistanceMeters>
          </Trackpoint>
          <Trackpoint>
            <Time>2021-07-30T08:24:40.000Z</Time>
            <Position>
              <LatitudeDegrees>42.1372509934008121490478515625</LatitudeDegrees>
              <LongitudeDegrees>-2.65810727141797542572021484375</LongitudeDegrees>
            </Position>
            <AltitudeMeters>974</AltitudeMeters>
            <DistanceMeters>229991.21002123</DistanceMeters>
          </Trackpoint>
          <Trackpoint>
            <Time>2021-07-30T08:24:44.000Z</Time>
            <Position>
              <LatitudeDegrees>42.137606553733348846435546875</LatitudeDegrees>
              <LongitudeDegrees>-2.6580270566046237945556640625</LongitudeDegrees>
            </Position>
            <AltitudeMeters>972.79998779296875</AltitudeMeters>
            <DistanceMeters>230031.33448171</DistanceMeters>
          </Trackpoint>
          <Trackpoint>
            <Time>2021-07-30T08:24:45.000Z</Time>
            <Position>
              <LatitudeDegrees>42.137695066630840301513671875</LatitudeDegrees>
              <LongitudeDegrees>-2.657995037734508514404296875</LongitudeDegrees>
            </Position>
            <AltitudeMeters>972.4000244140625</AltitudeMeters>
            <DistanceMeters>230041.53381897</DistanceMeters>
          </Trackpoint>
          <Trackpoint>
            <Time>2021-07-30T08:24:47.000Z</Time>
            <Position>
              <LatitudeDegrees>42.13786077685654163360595703125</LatitudeDegrees>
              <LongitudeDegrees>-2.65788280405104160308837890625</LongitudeDegrees>
            </Position>
            <AltitudeMeters>971.20001220703125</AltitudeMeters>
            <DistanceMeters>230062.17321882</DistanceMeters>
          </Trackpoint>
          <Trackpoint>
            <Time>2021-07-30T08:24:49.000Z</Time>
            <Position>
              <LatitudeDegrees>42.138000167906284332275390625</LatitudeDegrees>
              <LongitudeDegrees>-2.6577078737318515777587890625</LongitudeDegrees>
            </Position>
            <AltitudeMeters>970</AltitudeMeters>
            <DistanceMeters>230083.36651971</DistanceMeters>
          </Trackpoint>
          <Trackpoint>
            <Time>2021-07-30T08:24:52.000Z</Time>
            <Position>
              <LatitudeDegrees>42.1381535567343235015869140625</LatitudeDegrees>
              <LongitudeDegrees>-2.6573752798140048980712890625</LongitudeDegrees>
            </Position>
            <AltitudeMeters>968.5999755859375</AltitudeMeters>
            <DistanceMeters>230115.69278668</DistanceMeters>
          </Trackpoint>
          <Trackpoint>
            <Time>2021-07-30T08:24:53.000Z</Time>
            <Position>
              <LatitudeDegrees>42.13818331249058246612548828125</LatitudeDegrees>
              <LongitudeDegrees>-2.6572482101619243621826171875</LongitudeDegrees>
            </Position>
            <AltitudeMeters>967.20001220703125</AltitudeMeters>
            <DistanceMeters>230126.69087169</DistanceMeters>
          </Trackpoint>
          <Trackpoint>
            <Time>2021-07-30T08:24:54.000Z</Time>
            <Position>
              <LatitudeDegrees>42.13820300996303558349609375</LatitudeDegrees>
              <LongitudeDegrees>-2.65711854211986064910888671875</LongitudeDegrees>
            </Position>
            <AltitudeMeters>965.79998779296875</AltitudeMeters>
            <DistanceMeters>230137.61522478</DistanceMeters>
          </Trackpoint>
          <Trackpoint>
            <Time>2021-07-30T08:24:55.000Z</Time>
            <Position>
              <LatitudeDegrees>42.1382155828177928924560546875</LatitudeDegrees>
              <LongitudeDegrees>-2.65699063427746295928955078125</LongitudeDegrees>
            </Position>
            <AltitudeMeters>964.4000244140625</AltitudeMeters>
            <DistanceMeters>230148.2641543</DistanceMeters>
          </Trackpoint>
          <Trackpoint>
            <Time>2021-07-30T08:24:58.000Z</Time>
            <Position>
              <LatitudeDegrees>42.1382336877286434173583984375</LatitudeDegrees>
              <LongitudeDegrees>-2.65661965124309062957763671875</LongitudeDegrees>
            </Position>
            <AltitudeMeters>963.4000244140625</AltitudeMeters>
            <DistanceMeters>230178.94880862</DistanceMeters>
          </Trackpoint>
          <Trackpoint>
            <Time>2021-07-30T08:25:02.000Z</Time>
            <Position>
              <LatitudeDegrees>42.1382896788418292999267578125</LatitudeDegrees>
              <LongitudeDegrees>-2.65615931712090969085693359375</LongitudeDegrees>
            </Position>
            <AltitudeMeters>963.5999755859375</AltitudeMeters>
            <DistanceMeters>230217.4495243</DistanceMeters>
          </Trackpoint>
          <Trackpoint>
            <Time>2021-07-30T08:25:07.000Z</Time>
            <Position>
              <LatitudeDegrees>42.13849805295467376708984375</LatitudeDegrees>
              <LongitudeDegrees>-2.65573049895465373992919921875</LongitudeDegrees>
            </Position>
            <AltitudeMeters>964.20001220703125</AltitudeMeters>
            <DistanceMeters>230259.76341679</DistanceMeters>
          </Trackpoint>
          <Trackpoint>
            <Time>2021-07-30T08:25:09.000Z</Time>
            <Position>
              <LatitudeDegrees>42.13859620504081249237060546875</LatitudeDegrees>
              <LongitudeDegrees>-2.6556137390434741973876953125</LongitudeDegrees>
            </Position>
            <AltitudeMeters>964.4000244140625</AltitudeMeters>
            <DistanceMeters>230274.33073626</DistanceMeters>
          </Trackpoint>
          <Trackpoint>
            <Time>2021-07-30T08:25:11.000Z</Time>
            <Position>
              <LatitudeDegrees>42.13868672959506511688232421875</LatitudeDegrees>
              <LongitudeDegrees>-2.655523717403411865234375</LongitudeDegrees>
            </Position>
            <AltitudeMeters>965.5999755859375</AltitudeMeters>
            <DistanceMeters>230286.84976205</DistanceMeters>
          </Trackpoint>
          <Trackpoint>
            <Time>2021-07-30T08:25:13.000Z</Time>
            <Position>
              <LatitudeDegrees>42.1387644298374652862548828125</LatitudeDegrees>
              <LongitudeDegrees>-2.65544836409389972686767578125</LongitudeDegrees>
            </Position>
            <AltitudeMeters>966.5999755859375</AltitudeMeters>
            <DistanceMeters>230297.50208295</DistanceMeters>
          </Trackpoint>
          <Trackpoint>
            <Time>2021-07-30T08:25:18.000Z</Time>
            <Position>
              <LatitudeDegrees>42.1389293856918811798095703125</LatitudeDegrees>
              <LongitudeDegrees>-2.655286006629467010498046875</LongitudeDegrees>
            </Position>
            <AltitudeMeters>967.79998779296875</AltitudeMeters>
            <DistanceMeters>230320.23194862</DistanceMeters>
          </Trackpoint>
          <Trackpoint>
            <Time>2021-07-30T08:25:21.000Z</Time>
            <Position>
              <LatitudeDegrees>42.13902418501675128936767578125</LatitudeDegrees>
              <LongitudeDegrees>-2.65519875101745128631591796875</LongitudeDegrees>
            </Position>
            <AltitudeMeters>969</AltitudeMeters>
            <DistanceMeters>230333.0065931</DistanceMeters>
          </Trackpoint>
          <Trackpoint>
            <Time>2021-07-30T08:25:30.000Z</Time>
            <Position>
              <LatitudeDegrees>42.139307074248790740966796875</LatitudeDegrees>
              <LongitudeDegrees>-2.65499272383749485015869140625</LongitudeDegrees>
            </Position>
            <AltitudeMeters>970.20001220703125</AltitudeMeters>
            <DistanceMeters>230368.79068119</DistanceMeters>
          </Trackpoint>
          <Trackpoint>
            <Time>2021-07-30T08:25:36.000Z</Time>
            <Position>
              <LatitudeDegrees>42.13951502926647663116455078125</LatitudeDegrees>
              <LongitudeDegrees>-2.654911838471889495849609375</LongitudeDegrees>
            </Position>
            <AltitudeMeters>971.20001220703125</AltitudeMeters>
            <DistanceMeters>230392.87990642</DistanceMeters>
          </Trackpoint>
          <Trackpoint>
            <Time>2021-07-30T08:25:49.000Z</Time>
            <Position>
              <LatitudeDegrees>42.14003236033022403717041015625</LatitudeDegrees>
              <LongitudeDegrees>-2.65496187843382358551025390625</LongitudeDegrees>
            </Position>
            <AltitudeMeters>970.20001220703125</AltitudeMeters>
            <DistanceMeters>230450.60783373</DistanceMeters>
          </Trackpoint>
          <Trackpoint>
            <Time>2021-07-30T08:25:54.000Z</Time>
            <Position>
              <LatitudeDegrees>42.1402657963335514068603515625</LatitudeDegrees>
              <LongitudeDegrees>-2.6550705917179584503173828125</LongitudeDegrees>
            </Position>
            <AltitudeMeters>969.20001220703125</AltitudeMeters>
            <DistanceMeters>230478.09536829</DistanceMeters>
          </Trackpoint>
          <Trackpoint>
            <Time>2021-07-30T08:25:57.000Z</Time>
            <Position>
              <LatitudeDegrees>42.14042061008512973785400390625</LatitudeDegrees>
              <LongitudeDegrees>-2.65516069717705249786376953125</LongitudeDegrees>
            </Position>
            <AltitudeMeters>968</AltitudeMeters>
            <DistanceMeters>230496.86260308</DistanceMeters>
          </Trackpoint>
          <Trackpoint>
            <Time>2021-07-30T08:26:01.000Z</Time>
            <Position>
              <LatitudeDegrees>42.14064323343336582183837890625</LatitudeDegrees>
              <LongitudeDegrees>-2.65529665164649486541748046875</LongitudeDegrees>
            </Position>
            <AltitudeMeters>967</AltitudeMeters>
            <DistanceMeters>230524.06315975</DistanceMeters>
          </Trackpoint>
          <Trackpoint>
            <Time>2021-07-30T08:26:05.000Z</Time>
            <Position>
              <LatitudeDegrees>42.14088496752083301544189453125</LatitudeDegrees>
              <LongitudeDegrees>-2.6554472744464874267578125</LongitudeDegrees>
            </Position>
            <AltitudeMeters>965.79998779296875</AltitudeMeters>
            <DistanceMeters>230553.7017467</DistanceMeters>
          </Trackpoint>
          <Trackpoint>
            <Time>2021-07-30T08:26:08.000Z</Time>
            <Position>
              <LatitudeDegrees>42.14107741601765155792236328125</LatitudeDegrees>
              <LongitudeDegrees>-2.65556235797703266143798828125</LongitudeDegrees>
            </Position>
            <AltitudeMeters>964.5999755859375</AltitudeMeters>
            <DistanceMeters>230577.13291436</DistanceMeters>
          </Trackpoint>
          <Trackpoint>
            <Time>2021-07-30T08:26:12.000Z</Time>
            <Position>
              <LatitudeDegrees>42.14135837741196155548095703125</LatitudeDegrees>
              <LongitudeDegrees>-2.65568724833428859710693359375</LongitudeDegrees>
            </Position>
            <AltitudeMeters>963.4000244140625</AltitudeMeters>
            <DistanceMeters>230610.05936236</DistanceMeters>
          </Trackpoint>
          <Trackpoint>
            <Time>2021-07-30T08:26:16.000Z</Time>
            <Position>
              <LatitudeDegrees>42.14165962301194667816162109375</LatitudeDegrees>
              <LongitudeDegrees>-2.6557632721960544586181640625</LongitudeDegrees>
            </Position>
            <AltitudeMeters>962.4000244140625</AltitudeMeters>
            <DistanceMeters>230644.17051157</DistanceMeters>
          </Trackpoint>
          <Trackpoint>
            <Time>2021-07-30T08:26:19.000Z</Time>
            <Position>
              <LatitudeDegrees>42.14189750142395496368408203125</LatitudeDegrees>
              <LongitudeDegrees>-2.65580006875097751617431640625</LongitudeDegrees>
            </Position>
            <AltitudeMeters>961</AltitudeMeters>
            <DistanceMeters>230670.82038046</DistanceMeters>
          </Trackpoint>
          <Trackpoint>
            <Time>2021-07-30T08:26:23.000Z</Time>
            <Position>
              <LatitudeDegrees>42.1422285027801990509033203125</LatitudeDegrees>
              <LongitudeDegrees>-2.6558356918394565582275390625</LongitudeDegrees>
            </Position>
            <AltitudeMeters>959.5999755859375</AltitudeMeters>
            <DistanceMeters>230707.77880959</DistanceMeters>
          </Trackpoint>
          <Trackpoint>
            <Time>2021-07-30T08:26:25.000Z</Time>
            <Position>
              <LatitudeDegrees>42.1424008347094058990478515625</LatitudeDegrees>
              <LongitudeDegrees>-2.6558427326381206512451171875</LongitudeDegrees>
            </Position>
            <AltitudeMeters>958.5999755859375</AltitudeMeters>
            <DistanceMeters>230726.96855991</DistanceMeters>
          </Trackpoint>
          <Trackpoint>
            <Time>2021-07-30T08:26:28.000Z</Time>
            <Position>
              <LatitudeDegrees>42.14266360737383365631103515625</LatitudeDegrees>
              <LongitudeDegrees>-2.6558175869286060333251953125</LongitudeDegrees>
            </Position>
            <AltitudeMeters>957</AltitudeMeters>
            <DistanceMeters>230756.28934482</DistanceMeters>
          </Trackpoint>
          <Trackpoint>
            <Time>2021-07-30T08:26:31.000Z</Time>
            <Position>
              <LatitudeDegrees>42.14292906224727630615234375</LatitudeDegrees>
              <LongitudeDegrees>-2.655723206698894500732421875</LongitudeDegrees>
            </Position>
            <AltitudeMeters>955.79998779296875</AltitudeMeters>
            <DistanceMeters>230786.84423876</DistanceMeters>
          </Trackpoint>
          <Trackpoint>
            <Time>2021-07-30T08:26:34.000Z</Time>
            <Position>
              <LatitudeDegrees>42.1431769989430904388427734375</LatitudeDegrees>
              <LongitudeDegrees>-2.65557006932795047760009765625</LongitudeDegrees>
            </Position>
            <AltitudeMeters>954.4000244140625</AltitudeMeters>
            <DistanceMeters>230817.1963128</DistanceMeters>
          </Trackpoint>
          <Trackpoint>
            <Time>2021-07-30T08:26:36.000Z</Time>
            <Position>
              <LatitudeDegrees>42.14332745410501956939697265625</LatitudeDegrees>
              <LongitudeDegrees>-2.6554266549646854400634765625</LongitudeDegrees>
            </Position>
            <AltitudeMeters>953.5999755859375</AltitudeMeters>
            <DistanceMeters>230837.70271667</DistanceMeters>
          </Trackpoint>
          <Trackpoint>
            <Time>2021-07-30T08:26:37.000Z</Time>
            <Position>
              <LatitudeDegrees>42.1433982811868190765380859375</LatitudeDegrees>
              <LongitudeDegrees>-2.65534224919974803924560546875</LongitudeDegrees>
            </Position>
            <AltitudeMeters>953</AltitudeMeters>
            <DistanceMeters>230848.22282204</DistanceMeters>
          </Trackpoint>
          <Trackpoint>
            <Time>2021-07-30T08:26:39.000Z</Time>
            <Position>
              <LatitudeDegrees>42.143533229827880859375</LatitudeDegrees>
              <LongitudeDegrees>-2.65515868552029132843017578125</LongitudeDegrees>
            </Position>
            <AltitudeMeters>951.4000244140625</AltitudeMeters>
            <DistanceMeters>230869.55563157</DistanceMeters>
          </Trackpoint>
          <Trackpoint>
            <Time>2021-07-30T08:26:41.000Z</Time>
            <Position>
              <LatitudeDegrees>42.14366423897445201873779296875</LatitudeDegrees>
              <LongitudeDegrees>-2.65496154315769672393798828125</LongitudeDegrees>
            </Position>
            <AltitudeMeters>949.79998779296875</AltitudeMeters>
            <DistanceMeters>230891.40330446</DistanceMeters>
          </Trackpoint>
          <Trackpoint>
            <Time>2021-07-30T08:26:43.000Z</Time>
            <Position>
              <LatitudeDegrees>42.14379005134105682373046875</LatitudeDegrees>
              <LongitudeDegrees>-2.65475115738809108734130859375</LongitudeDegrees>
            </Position>
            <AltitudeMeters>948.5999755859375</AltitudeMeters>
            <DistanceMeters>230913.70889013</DistanceMeters>
          </Trackpoint>
          <Trackpoint>
            <Time>2021-07-30T08:26:46.000Z</Time>
            <Position>
              <LatitudeDegrees>42.14397453702986240386962890625</LatitudeDegrees>
              <LongitudeDegrees>-2.6544325612485408782958984375</LongitudeDegrees>
            </Position>
            <AltitudeMeters>947.4000244140625</AltitudeMeters>
            <DistanceMeters>230947.06962845</DistanceMeters>
          </Trackpoint>
          <Trackpoint>
            <Time>2021-07-30T08:26:52.000Z</Time>
            <Position>
              <LatitudeDegrees>42.144365720450878143310546875</LatitudeDegrees>
              <LongitudeDegrees>-2.65391397289931774139404296875</LongitudeDegrees>
            </Position>
            <AltitudeMeters>946.20001220703125</AltitudeMeters>
            <DistanceMeters>231008.12102003</DistanceMeters>
          </Trackpoint>
          <Trackpoint>
            <Time>2021-07-30T08:26:53.000Z</Time>
            <Position>
              <LatitudeDegrees>42.1444383077323436737060546875</LatitudeDegrees>
              <LongitudeDegrees>-2.6538542099297046661376953125</LongitudeDegrees>
            </Position>
            <AltitudeMeters>946</AltitudeMeters>
            <DistanceMeters>231017.5865585</DistanceMeters>
          </Trackpoint>
          <Trackpoint>
            <Time>2021-07-30T08:27:00.000Z</Time>
            <Position>
              <LatitudeDegrees>42.1449613384902477264404296875</LatitudeDegrees>
              <LongitudeDegrees>-2.65366184525191783905029296875</LongitudeDegrees>
            </Position>
            <AltitudeMeters>945.20001220703125</AltitudeMeters>
            <DistanceMeters>231077.92665149</DistanceMeters>
          </Trackpoint>
          <Trackpoint>
            <Time>2021-07-30T08:27:08.000Z</Time>
            <Position>
              <LatitudeDegrees>42.14554287493228912353515625</LatitudeDegrees>
              <LongitudeDegrees>-2.6536879129707813262939453125</LongitudeDegrees>
            </Position>
            <AltitudeMeters>944.79998779296875</AltitudeMeters>
            <DistanceMeters>231142.68845539</DistanceMeters>
          </Trackpoint>
          <Trackpoint>
            <Time>2021-07-30T08:27:17.000Z</Time>
            <Position>
              <LatitudeDegrees>42.1460962481796741485595703125</LatitudeDegrees>
              <LongitudeDegrees>-2.65372035093605518341064453125</LongitudeDegrees>
            </Position>
            <AltitudeMeters>944.5999755859375</AltitudeMeters>
            <DistanceMeters>231204.33809371</DistanceMeters>
          </Trackpoint>
          <Trackpoint>
            <Time>2021-07-30T08:27:29.000Z</Time>
            <Position>
              <LatitudeDegrees>42.146641574800014495849609375</LatitudeDegrees>
              <LongitudeDegrees>-2.653716243803501129150390625</LongitudeDegrees>
            </Position>
            <AltitudeMeters>945.79998779296875</AltitudeMeters>
            <DistanceMeters>231265.03502673</DistanceMeters>
          </Trackpoint>
          <Trackpoint>
            <Time>2021-07-30T08:27:30.000Z</Time>
            <Position>
              <LatitudeDegrees>42.1466816402971744537353515625</LatitudeDegrees>
              <LongitudeDegrees>-2.65371247194707393646240234375</LongitudeDegrees>
            </Position>
            <AltitudeMeters>945.79998779296875</AltitudeMeters>
            <DistanceMeters>231269.50532416</DistanceMeters>
          </Trackpoint>
          <Trackpoint>
            <Time>2021-07-30T08:27:35.000Z</Time>
            <Position>
              <LatitudeDegrees>42.14687802828848361968994140625</LatitudeDegrees>
              <LongitudeDegrees>-2.653678692877292633056640625</LongitudeDegrees>
            </Position>
            <AltitudeMeters>946.4000244140625</AltitudeMeters>
            <DistanceMeters>231291.54045998</DistanceMeters>
          </Trackpoint>
          <Trackpoint>
            <Time>2021-07-30T08:27:49.000Z</Time>
            <Position>
              <LatitudeDegrees>42.1474323235452175140380859375</LatitudeDegrees>
              <LongitudeDegrees>-2.65350736677646636962890625</LongitudeDegrees>
            </Position>
            <AltitudeMeters>946.5999755859375</AltitudeMeters>
            <DistanceMeters>231354.8339588</DistanceMeters>
          </Trackpoint>
          <Trackpoint>
            <Time>2021-07-30T08:28:03.000Z</Time>
            <Position>
              <LatitudeDegrees>42.14792962186038494110107421875</LatitudeDegrees>
              <LongitudeDegrees>-2.6531191170215606689453125</LongitudeDegrees>
            </Position>
            <AltitudeMeters>945.79998779296875</AltitudeMeters>
            <DistanceMeters>231418.78813775</DistanceMeters>
          </Trackpoint>
          <Trackpoint>
            <Time>2021-07-30T08:28:06.000Z</Time>
            <Position>
              <LatitudeDegrees>42.1480514109134674072265625</LatitudeDegrees>
              <LongitudeDegrees>-2.65301627106964588165283203125</LongitudeDegrees>
            </Position>
            <AltitudeMeters>945.20001220703125</AltitudeMeters>
            <DistanceMeters>231434.78144715</DistanceMeters>
          </Trackpoint>
          <Trackpoint>
            <Time>2021-07-30T08:28:09.000Z</Time>
            <Position>
              <LatitudeDegrees>42.1481833420693874359130859375</LatitudeDegrees>
              <LongitudeDegrees>-2.65290210954844951629638671875</LongitudeDegrees>
            </Position>
            <AltitudeMeters>944.20001220703125</AltitudeMeters>
            <DistanceMeters>231452.22810347</DistanceMeters>
          </Trackpoint>
          <Trackpoint>
            <Time>2021-07-30T08:28:13.000Z</Time>
            <Position>
              <LatitudeDegrees>42.148369252681732177734375</LatitudeDegrees>
              <LongitudeDegrees>-2.6526965014636516571044921875</LongitudeDegrees>
            </Position>
            <AltitudeMeters>942.79998779296875</AltitudeMeters>
            <DistanceMeters>231478.98719429</DistanceMeters>
          </Trackpoint>
          <Trackpoint>
            <Time>2021-07-30T08:28:15.000Z</Time>
            <Position>
              <LatitudeDegrees>42.148449383676052093505859375</LatitudeDegrees>
              <LongitudeDegrees>-2.65255409292876720428466796875</LongitudeDegrees>
            </Position>
            <AltitudeMeters>941.20001220703125</AltitudeMeters>
            <DistanceMeters>231493.73991954</DistanceMeters>
          </Trackpoint>
          <Trackpoint>
            <Time>2021-07-30T08:28:17.000Z</Time>
            <Position>
              <LatitudeDegrees>42.1485125832259654998779296875</LatitudeDegrees>
              <LongitudeDegrees>-2.652393914759159088134765625</LongitudeDegrees>
            </Position>
            <AltitudeMeters>940.20001220703125</AltitudeMeters>
            <DistanceMeters>231508.71318699</DistanceMeters>
          </Trackpoint>
          <Trackpoint>
            <Time>2021-07-30T08:28:22.000Z</Time>
            <Position>
              <LatitudeDegrees>42.148656584322452545166015625</LatitudeDegrees>
              <LongitudeDegrees>-2.6519619114696979522705078125</LongitudeDegrees>
            </Position>
            <AltitudeMeters>939.20001220703125</AltitudeMeters>
            <DistanceMeters>231547.79944318</DistanceMeters>
          </Trackpoint>
          <Trackpoint>
            <Time>2021-07-30T08:28:30.000Z</Time>
            <Position>
              <LatitudeDegrees>42.1489682234823703765869140625</LatitudeDegrees>
              <LongitudeDegrees>-2.65134508721530437469482421875</LongitudeDegrees>
            </Position>
            <AltitudeMeters>938.79998779296875</AltitudeMeters>
            <DistanceMeters>231609.39456902</DistanceMeters>
          </Trackpoint>
          <Trackpoint>
            <Time>2021-07-30T08:28:41.000Z</Time>
            <Position>
              <LatitudeDegrees>42.1494500152766704559326171875</LatitudeDegrees>
              <LongitudeDegrees>-2.650947533547878265380859375</LongitudeDegrees>
            </Position>
            <AltitudeMeters>940.20001220703125</AltitudeMeters>
            <DistanceMeters>231672.25795474</DistanceMeters>
          </Trackpoint>
          <Trackpoint>
            <Time>2021-07-30T08:28:56.000Z</Time>
            <Position>
              <LatitudeDegrees>42.15001269243657588958740234375</LatitudeDegrees>
              <LongitudeDegrees>-2.65090017579495906829833984375</LongitudeDegrees>
            </Position>
            <AltitudeMeters>941.4000244140625</AltitudeMeters>
            <DistanceMeters>231735.00682208</DistanceMeters>
          </Trackpoint>
          <Trackpoint>
            <Time>2021-07-30T08:29:09.000Z</Time>
            <Position>
              <LatitudeDegrees>42.15053421445190906524658203125</LatitudeDegrees>
              <LongitudeDegrees>-2.6511150039732456207275390625</LongitudeDegrees>
            </Position>
            <AltitudeMeters>941.4000244140625</AltitudeMeters>
            <DistanceMeters>231795.69981248</DistanceMeters>
          </Trackpoint>
          <Trackpoint>
            <Time>2021-07-30T08:29:16.000Z</Time>
            <Position>
              <LatitudeDegrees>42.15085507370531558990478515625</LatitudeDegrees>
              <LongitudeDegrees>-2.6512574963271617889404296875</LongitudeDegrees>
            </Position>
            <AltitudeMeters>940.20001220703125</AltitudeMeters>
            <DistanceMeters>231833.29798194</DistanceMeters>
          </Trackpoint>
          <Trackpoint>
            <Time>2021-07-30T08:29:19.000Z</Time>
            <Position>
              <LatitudeDegrees>42.15101215057075023651123046875</LatitudeDegrees>
              <LongitudeDegrees>-2.65130954794585704803466796875</LongitudeDegrees>
            </Position>
            <AltitudeMeters>939</AltitudeMeters>
            <DistanceMeters>231851.30046632</DistanceMeters>
          </Trackpoint>
          <Trackpoint>
            <Time>2021-07-30T08:29:22.000Z</Time>
            <Position>
              <LatitudeDegrees>42.1512001566588878631591796875</LatitudeDegrees>
              <LongitudeDegrees>-2.65131390653550624847412109375</LongitudeDegrees>
            </Position>
            <AltitudeMeters>937.4000244140625</AltitudeMeters>
            <DistanceMeters>231872.22879228</DistanceMeters>
          </Trackpoint>
          <Trackpoint>
            <Time>2021-07-30T08:29:25.000Z</Time>
            <Position>
              <LatitudeDegrees>42.151408530771732330322265625</LatitudeDegrees>
              <LongitudeDegrees>-2.6512497849762439727783203125</LongitudeDegrees>
            </Position>
            <AltitudeMeters>936.20001220703125</AltitudeMeters>
            <DistanceMeters>231896.01718863</DistanceMeters>
          </Trackpoint>
          <Trackpoint>
            <Time>2021-07-30T08:29:29.000Z</Time>
            <Position>
              <LatitudeDegrees>42.1516621671617031097412109375</LatitudeDegrees>
              <LongitudeDegrees>-2.65107669867575168609619140625</LongitudeDegrees>
            </Position>
            <AltitudeMeters>935.20001220703125</AltitudeMeters>
            <DistanceMeters>231927.65466314</DistanceMeters>
          </Trackpoint>
          <Trackpoint>
            <Time>2021-07-30T08:29:30.000Z</Time>
            <Position>
              <LatitudeDegrees>42.1517198346555233001708984375</LatitudeDegrees>
              <LongitudeDegrees>-2.65102791599929332733154296875</LongitudeDegrees>
            </Position>
            <AltitudeMeters>935</AltitudeMeters>
            <DistanceMeters>231935.23181471</DistanceMeters>
          </Trackpoint>
          <Trackpoint>
            <Time>2021-07-30T08:29:36.000Z</Time>
            <Position>
              <LatitudeDegrees>42.15206801891326904296875</LatitudeDegrees>
              <LongitudeDegrees>-2.65070848166942596435546875</LongitudeDegrees>
            </Position>
            <AltitudeMeters>933.5999755859375</AltitudeMeters>
            <DistanceMeters>231982.09973781</DistanceMeters>
          </Trackpoint>
          <Trackpoint>
            <Time>2021-07-30T08:29:38.000Z</Time>
            <Position>
              <LatitudeDegrees>42.15219399891793727874755859375</LatitudeDegrees>
              <LongitudeDegrees>-2.650597505271434783935546875</LongitudeDegrees>
            </Position>
            <AltitudeMeters>932.4000244140625</AltitudeMeters>
            <DistanceMeters>231998.84656181</DistanceMeters>
          </Trackpoint>
          <Trackpoint>
            <Time>2021-07-30T08:29:40.000Z</Time>
            <Position>
              <LatitudeDegrees>42.1523260138928890228271484375</LatitudeDegrees>
              <LongitudeDegrees>-2.6504806615412235260009765625</LongitudeDegrees>
            </Position>
            <AltitudeMeters>931</AltitudeMeters>
            <DistanceMeters>232016.42085283</DistanceMeters>
          </Trackpoint>
          <Trackpoint>
            <Time>2021-07-30T08:29:42.000Z</Time>
            <Position>
              <LatitudeDegrees>42.152462303638458251953125</LatitudeDegrees>
              <LongitudeDegrees>-2.6503636501729488372802734375</LongitudeDegrees>
            </Position>
            <AltitudeMeters>929.4000244140625</AltitudeMeters>
            <DistanceMeters>232034.40225759</DistanceMeters>
          </Trackpoint>
          <Trackpoint>
            <Time>2021-07-30T08:29:45.000Z</Time>
            <Position>
              <LatitudeDegrees>42.15266556479036808013916015625</LatitudeDegrees>
              <LongitudeDegrees>-2.6501970179378986358642578125</LongitudeDegrees>
            </Position>
            <AltitudeMeters>928.4000244140625</AltitudeMeters>
            <DistanceMeters>232060.8761954</DistanceMeters>
          </Trackpoint>
          <Trackpoint>
            <Time>2021-07-30T08:29:46.000Z</Time>
            <Position>
              <LatitudeDegrees>42.15273630805313587188720703125</LatitudeDegrees>
              <LongitudeDegrees>-2.65015502460300922393798828125</LongitudeDegrees>
            </Position>
            <AltitudeMeters>928.4000244140625</AltitudeMeters>
            <DistanceMeters>232069.47913132</DistanceMeters>
          </Trackpoint>
          <Trackpoint>
            <Time>2021-07-30T08:29:54.000Z</Time>
            <Position>
              <LatitudeDegrees>42.15328783728182315826416015625</LatitudeDegrees>
              <LongitudeDegrees>-2.6502402685582637786865234375</LongitudeDegrees>
            </Position>
            <AltitudeMeters>928.20001220703125</AltitudeMeters>
            <DistanceMeters>232131.26710571</DistanceMeters>
          </Trackpoint>
          <Trackpoint>
            <Time>2021-07-30T08:29:55.000Z</Time>
            <Position>
              <LatitudeDegrees>42.1533489413559436798095703125</LatitudeDegrees>
              <LongitudeDegrees>-2.65028494410216808319091796875</LongitudeDegrees>
            </Position>
            <AltitudeMeters>928.20001220703125</AltitudeMeters>
            <DistanceMeters>232139.00230361</DistanceMeters>
          </Trackpoint>
          <Trackpoint>
            <Time>2021-07-30T08:30:04.000Z</Time>
            <Position>
              <LatitudeDegrees>42.15385747142136096954345703125</LatitudeDegrees>
              <LongitudeDegrees>-2.65066313557326793670654296875</LongitudeDegrees>
            </Position>
            <AltitudeMeters>927.79998779296875</AltitudeMeters>
            <DistanceMeters>232203.63514096</DistanceMeters>
          </Trackpoint>
          <Trackpoint>
            <Time>2021-07-30T08:30:15.000Z</Time>
            <Position>
              <LatitudeDegrees>42.154253013432025909423828125</LatitudeDegrees>
              <LongitudeDegrees>-2.65110067091882228851318359375</LongitudeDegrees>
            </Position>
            <AltitudeMeters>929.5999755859375</AltitudeMeters>
            <DistanceMeters>232260.56970516</DistanceMeters>
          </Trackpoint>
          <Trackpoint>
            <Time>2021-07-30T08:30:22.000Z</Time>
            <Position>
              <LatitudeDegrees>42.15448544360697269439697265625</LatitudeDegrees>
              <LongitudeDegrees>-2.651292197406291961669921875</LongitudeDegrees>
            </Position>
            <AltitudeMeters>930.79998779296875</AltitudeMeters>
            <DistanceMeters>232290.88456752</DistanceMeters>
          </Trackpoint>
          <Trackpoint>
            <Time>2021-07-30T08:30:28.000Z</Time>
            <Position>
              <LatitudeDegrees>42.15469448827207088470458984375</LatitudeDegrees>
              <LongitudeDegrees>-2.6513463445007801055908203125</LongitudeDegrees>
            </Position>
            <AltitudeMeters>931.79998779296875</AltitudeMeters>
            <DistanceMeters>232314.57653983</DistanceMeters>
          </Trackpoint>
          <Trackpoint>
            <Time>2021-07-30T08:30:41.000Z</Time>
            <Position>
              <LatitudeDegrees>42.155093885958194732666015625</LatitudeDegrees>
              <LongitudeDegrees>-2.65133620239794254302978515625</LongitudeDegrees>
            </Position>
            <AltitudeMeters>933.20001220703125</AltitudeMeters>
            <DistanceMeters>232359.03807618</DistanceMeters>
          </Trackpoint>
          <Trackpoint>
            <Time>2021-07-30T08:30:56.000Z</Time>
            <Position>
              <LatitudeDegrees>42.15554525144398212432861328125</LatitudeDegrees>
              <LongitudeDegrees>-2.65118901617825031280517578125</LongitudeDegrees>
            </Position>
            <AltitudeMeters>934.20001220703125</AltitudeMeters>
            <DistanceMeters>232410.72300042</DistanceMeters>
          </Trackpoint>
          <Trackpoint>
            <Time>2021-07-30T08:31:08.000Z</Time>
            <Position>
              <LatitudeDegrees>42.15587717480957508087158203125</LatitudeDegrees>
              <LongitudeDegrees>-2.650944851338863372802734375</LongitudeDegrees>
            </Position>
            <AltitudeMeters>935.20001220703125</AltitudeMeters>
            <DistanceMeters>232452.80277811</DistanceMeters>
          </Trackpoint>
          <Trackpoint>
            <Time>2021-07-30T08:31:20.000Z</Time>
            <Position>
              <LatitudeDegrees>42.1562205813825130462646484375</LatitudeDegrees>
              <LongitudeDegrees>-2.65067017637193202972412109375</LongitudeDegrees>
            </Position>
            <AltitudeMeters>936.5999755859375</AltitudeMeters>
            <DistanceMeters>232497.23871666</DistanceMeters>
          </Trackpoint>
          <Trackpoint>
            <Time>2021-07-30T08:31:25.000Z</Time>
            <Position>
              <LatitudeDegrees>42.15636014007031917572021484375</LatitudeDegrees>
              <LongitudeDegrees>-2.650556266307830810546875</LongitudeDegrees>
            </Position>
            <AltitudeMeters>937.5999755859375</AltitudeMeters>
            <DistanceMeters>232515.39404234</DistanceMeters>
          </Trackpoint>
          <Trackpoint>
            <Time>2021-07-30T08:31:41.000Z</Time>
            <Position>
              <LatitudeDegrees>42.156821228563785552978515625</LatitudeDegrees>
              <LongitudeDegrees>-2.6501499116420745849609375</LongitudeDegrees>
            </Position>
            <AltitudeMeters>937.5999755859375</AltitudeMeters>
            <DistanceMeters>232576.69577504</DistanceMeters>
          </Trackpoint>
          <Trackpoint>
            <Time>2021-07-30T08:31:55.000Z</Time>
            <Position>
              <LatitudeDegrees>42.15730008669197559356689453125</LatitudeDegrees>
              <LongitudeDegrees>-2.64980323612689971923828125</LongitudeDegrees>
            </Position>
            <AltitudeMeters>937.20001220703125</AltitudeMeters>
            <DistanceMeters>232637.18414164</DistanceMeters>
          </Trackpoint>
          <Trackpoint>
            <Time>2021-07-30T08:32:06.000Z</Time>
            <Position>
              <LatitudeDegrees>42.15773695148527622222900390625</LatitudeDegrees>
              <LongitudeDegrees>-2.64971028082072734832763671875</LongitudeDegrees>
            </Position>
            <AltitudeMeters>936.5999755859375</AltitudeMeters>
            <DistanceMeters>232686.40926381</DistanceMeters>
          </Trackpoint>
          <Trackpoint>
            <Time>2021-07-30T08:32:18.000Z</Time>
            <Position>
              <LatitudeDegrees>42.158279679715633392333984375</LatitudeDegrees>
              <LongitudeDegrees>-2.64988294802606105804443359375</LongitudeDegrees>
            </Position>
            <AltitudeMeters>935.5999755859375</AltitudeMeters>
            <DistanceMeters>232748.47320357</DistanceMeters>
          </Trackpoint>
          <Trackpoint>
            <Time>2021-07-30T08:32:20.000Z</Time>
            <Position>
              <LatitudeDegrees>42.15838017873466014862060546875</LatitudeDegrees>
              <LongitudeDegrees>-2.64992686919867992401123046875</LongitudeDegrees>
            </Position>
            <AltitudeMeters>935.4000244140625</AltitudeMeters>
            <DistanceMeters>232760.23119959</DistanceMeters>
          </Trackpoint>
          <Trackpoint>
            <Time>2021-07-30T08:32:28.000Z</Time>
            <Position>
              <LatitudeDegrees>42.15876775793731212615966796875</LatitudeDegrees>
              <LongitudeDegrees>-2.65012585557997226715087890625</LongitudeDegrees>
            </Position>
            <AltitudeMeters>934.4000244140625</AltitudeMeters>
            <DistanceMeters>232806.38807238</DistanceMeters>
          </Trackpoint>
          <Trackpoint>
            <Time>2021-07-30T08:32:33.000Z</Time>
            <Position>
              <LatitudeDegrees>42.15899138711392879486083984375</LatitudeDegrees>
              <LongitudeDegrees>-2.65028494410216808319091796875</LongitudeDegrees>
            </Position>
            <AltitudeMeters>933</AltitudeMeters>
            <DistanceMeters>232834.52737431</DistanceMeters>
          </Trackpoint>
          <Trackpoint>
            <Time>2021-07-30T08:32:36.000Z</Time>
            <Position>
              <LatitudeDegrees>42.159125246107578277587890625</LatitudeDegrees>
              <LongitudeDegrees>-2.650387287139892578125</LongitudeDegrees>
            </Position>
            <AltitudeMeters>932</AltitudeMeters>
            <DistanceMeters>232851.65275964</DistanceMeters>
          </Trackpoint>
          <Trackpoint>
            <Time>2021-07-30T08:32:48.000Z</Time>
            <Position>
              <LatitudeDegrees>42.15964333154261112213134765625</LatitudeDegrees>
              <LongitudeDegrees>-2.6507525704801082611083984375</LongitudeDegrees>
            </Position>
            <AltitudeMeters>931.4000244140625</AltitudeMeters>
            <DistanceMeters>232916.71754472</DistanceMeters>
          </Trackpoint>
          <Trackpoint>
            <Time>2021-07-30T08:32:51.000Z</Time>
            <Position>
              <LatitudeDegrees>42.15978674590587615966796875</LatitudeDegrees>
              <LongitudeDegrees>-2.650815434753894805908203125</LongitudeDegrees>
            </Position>
            <AltitudeMeters>930.79998779296875</AltitudeMeters>
            <DistanceMeters>232933.50153307</DistanceMeters>
          </Trackpoint>
          <Trackpoint>
            <Time>2021-07-30T08:32:55.000Z</Time>
            <Position>
              <LatitudeDegrees>42.15998447500169277191162109375</LatitudeDegrees>
              <LongitudeDegrees>-2.6508850045502185821533203125</LongitudeDegrees>
            </Position>
            <AltitudeMeters>929.5999755859375</AltitudeMeters>
            <DistanceMeters>232956.24549774</DistanceMeters>
          </Trackpoint>
          <Trackpoint>
            <Time>2021-07-30T08:33:01.000Z</Time>
            <Position>
              <LatitudeDegrees>42.160287983715534210205078125</LatitudeDegrees>
              <LongitudeDegrees>-2.65096538700163364410400390625</LongitudeDegrees>
            </Position>
            <AltitudeMeters>928.4000244140625</AltitudeMeters>
            <DistanceMeters>232990.67140881</DistanceMeters>
          </Trackpoint>
          <Trackpoint>
            <Time>2021-07-30T08:33:10.000Z</Time>
            <Position>
              <LatitudeDegrees>42.1608173847198486328125</LatitudeDegrees>
              <LongitudeDegrees>-2.65093454159796237945556640625</LongitudeDegrees>
            </Position>
            <AltitudeMeters>927.20001220703125</AltitudeMeters>
            <DistanceMeters>233049.64963019</DistanceMeters>
          </Trackpoint>
          <Trackpoint>
            <Time>2021-07-30T08:33:16.000Z</Time>
            <Position>
              <LatitudeDegrees>42.16117210686206817626953125</LatitudeDegrees>
              <LongitudeDegrees>-2.650722227990627288818359375</LongitudeDegrees>
            </Position>
            <AltitudeMeters>926</AltitudeMeters>
            <DistanceMeters>233092.84217275</DistanceMeters>
          </Trackpoint>
          <Trackpoint>
            <Time>2021-07-30T08:33:23.000Z</Time>
            <Position>
              <LatitudeDegrees>42.1615528129041194915771484375</LatitudeDegrees>
              <LongitudeDegrees>-2.65040447004139423370361328125</LongitudeDegrees>
            </Position>
            <AltitudeMeters>925</AltitudeMeters>
            <DistanceMeters>233142.66970929</DistanceMeters>
          </Trackpoint>
          <Trackpoint>
            <Time>2021-07-30T08:33:29.000Z</Time>
            <Position>
              <LatitudeDegrees>42.16189672239124774932861328125</LatitudeDegrees>
              <LongitudeDegrees>-2.65016734600067138671875</LongitudeDegrees>
            </Position>
            <AltitudeMeters>923.79998779296875</AltitudeMeters>
            <DistanceMeters>233185.65708934</DistanceMeters>
          </Trackpoint>
          <Trackpoint>
            <Time>2021-07-30T08:33:32.000Z</Time>
            <Position>
              <LatitudeDegrees>42.16208531521260738372802734375</LatitudeDegrees>
              <LongitudeDegrees>-2.6500722952187061309814453125</LongitudeDegrees>
            </Position>
            <AltitudeMeters>922.4000244140625</AltitudeMeters>
            <DistanceMeters>233208.06486412</DistanceMeters>
          </Trackpoint>
          <Trackpoint>
            <Time>2021-07-30T08:33:38.000Z</Time>
            <Position>
              <LatitudeDegrees>42.16249736957252025604248046875</LatitudeDegrees>
              <LongitudeDegrees>-2.64993600547313690185546875</LongitudeDegrees>
            </Position>
            <AltitudeMeters>921.20001220703125</AltitudeMeters>
            <DistanceMeters>233255.28558814</DistanceMeters>
          </Trackpoint>
          <Trackpoint>
            <Time>2021-07-30T08:33:42.000Z</Time>
            <Position>
              <LatitudeDegrees>42.1627896465361118316650390625</LatitudeDegrees>
              <LongitudeDegrees>-2.64988764189183712005615234375</LongitudeDegrees>
            </Position>
            <AltitudeMeters>919.5999755859375</AltitudeMeters>
            <DistanceMeters>233288.06030054</DistanceMeters>
          </Trackpoint>
          <Trackpoint>
            <Time>2021-07-30T08:33:44.000Z</Time>
            <Position>
              <LatitudeDegrees>42.1629448793828487396240234375</LatitudeDegrees>
              <LongitudeDegrees>-2.64987624250352382659912109375</LongitudeDegrees>
            </Position>
            <AltitudeMeters>918.5999755859375</AltitudeMeters>
            <DistanceMeters>233305.36377547</DistanceMeters>
          </Trackpoint>
          <Trackpoint>
            <Time>2021-07-30T08:33:46.000Z</Time>
            <Position>
              <LatitudeDegrees>42.1631017886102199554443359375</LatitudeDegrees>
              <LongitudeDegrees>-2.6498661004006862640380859375</LongitudeDegrees>
            </Position>
            <AltitudeMeters>917.4000244140625</AltitudeMeters>
            <DistanceMeters>233322.84791623</DistanceMeters>
          </Trackpoint>
          <Trackpoint>
            <Time>2021-07-30T08:33:49.000Z</Time>
            <Position>
              <LatitudeDegrees>42.16334469616413116455078125</LatitudeDegrees>
              <LongitudeDegrees>-2.64985260553658008575439453125</LongitudeDegrees>
            </Position>
            <AltitudeMeters>916.20001220703125</AltitudeMeters>
            <DistanceMeters>233349.90684614</DistanceMeters>
          </Trackpoint>
          <Trackpoint>
            <Time>2021-07-30T08:33:54.000Z</Time>
            <Position>
              <LatitudeDegrees>42.16374292038381099700927734375</LatitudeDegrees>
              <LongitudeDegrees>-2.64983475208282470703125</LongitudeDegrees>
            </Position>
            <AltitudeMeters>915.20001220703125</AltitudeMeters>
            <DistanceMeters>233394.25439962</DistanceMeters>
          </Trackpoint>
          <Trackpoint>
            <Time>2021-07-30T08:34:01.000Z</Time>
            <Position>
              <LatitudeDegrees>42.16427550651133060455322265625</LatitudeDegrees>
              <LongitudeDegrees>-2.64994966797530651092529296875</LongitudeDegrees>
            </Position>
            <AltitudeMeters>914</AltitudeMeters>
            <DistanceMeters>233454.28564146</DistanceMeters>
          </Trackpoint>
          <Trackpoint>
            <Time>2021-07-30T08:34:04.000Z</Time>
            <Position>
              <LatitudeDegrees>42.16449729166924953460693359375</LatitudeDegrees>
              <LongitudeDegrees>-2.65007070265710353851318359375</LongitudeDegrees>
            </Position>
            <AltitudeMeters>912.79998779296875</AltitudeMeters>
            <DistanceMeters>233480.91364613</DistanceMeters>
          </Trackpoint>
          <Trackpoint>
            <Time>2021-07-30T08:34:06.000Z</Time>
            <Position>
              <LatitudeDegrees>42.164644561707973480224609375</LatitudeDegrees>
              <LongitudeDegrees>-2.650164663791656494140625</LongitudeDegrees>
            </Position>
            <AltitudeMeters>911.79998779296875</AltitudeMeters>
            <DistanceMeters>233499.04557993</DistanceMeters>
          </Trackpoint>
          <Trackpoint>
            <Time>2021-07-30T08:34:08.000Z</Time>
            <Position>
              <LatitudeDegrees>42.1647935919463634490966796875</LatitudeDegrees>
              <LongitudeDegrees>-2.650254182517528533935546875</LongitudeDegrees>
            </Position>
            <AltitudeMeters>910.4000244140625</AltitudeMeters>
            <DistanceMeters>233517.20239768</DistanceMeters>
          </Trackpoint>
          <Trackpoint>
            <Time>2021-07-30T08:34:11.000Z</Time>
            <Position>
              <LatitudeDegrees>42.1650266088545322418212890625</LatitudeDegrees>
              <LongitudeDegrees>-2.650349400937557220458984375</LongitudeDegrees>
            </Position>
            <AltitudeMeters>909.4000244140625</AltitudeMeters>
            <DistanceMeters>233544.30101104</DistanceMeters>
          </Trackpoint>
          <Trackpoint>
            <Time>2021-07-30T08:34:16.000Z</Time>
            <Position>
              <LatitudeDegrees>42.16542148031294345855712890625</LatitudeDegrees>
              <LongitudeDegrees>-2.6504387520253658294677734375</LongitudeDegrees>
            </Position>
            <AltitudeMeters>908.20001220703125</AltitudeMeters>
            <DistanceMeters>233588.86479154</DistanceMeters>
          </Trackpoint>
          <Trackpoint>
            <Time>2021-07-30T08:34:20.000Z</Time>
            <Position>
              <LatitudeDegrees>42.16574259102344512939453125</LatitudeDegrees>
              <LongitudeDegrees>-2.6504669152200222015380859375</LongitudeDegrees>
            </Position>
            <AltitudeMeters>906.79998779296875</AltitudeMeters>
            <DistanceMeters>233624.68040935</DistanceMeters>
          </Trackpoint>
          <Trackpoint>
            <Time>2021-07-30T08:34:22.000Z</Time>
            <Position>
              <LatitudeDegrees>42.1659050323069095611572265625</LatitudeDegrees>
              <LongitudeDegrees>-2.6504337228834629058837890625</LongitudeDegrees>
            </Position>
            <AltitudeMeters>905.4000244140625</AltitudeMeters>
            <DistanceMeters>233642.96657162</DistanceMeters>
          </Trackpoint>
          <Trackpoint>
            <Time>2021-07-30T08:34:26.000Z</Time>
            <Position>
              <LatitudeDegrees>42.1662034280598163604736328125</LatitudeDegrees>
              <LongitudeDegrees>-2.65028947032988071441650390625</LongitudeDegrees>
            </Position>
            <AltitudeMeters>904.4000244140625</AltitudeMeters>
            <DistanceMeters>233678.24631916</DistanceMeters>
          </Trackpoint>
          <Trackpoint>
            <Time>2021-07-30T08:34:27.000Z</Time>
            <Position>
              <LatitudeDegrees>42.1662724949419498443603515625</LatitudeDegrees>
              <LongitudeDegrees>-2.65023850835859775543212890625</LongitudeDegrees>
            </Position>
            <AltitudeMeters>904.20001220703125</AltitudeMeters>
            <DistanceMeters>233687.00837999</DistanceMeters>
          </Trackpoint>
          <Trackpoint>
            <Time>2021-07-30T08:34:32.000Z</Time>
            <Position>
              <LatitudeDegrees>42.16654381714761257171630859375</LatitudeDegrees>
              <LongitudeDegrees>-2.64988143928349018096923828125</LongitudeDegrees>
            </Position>
            <AltitudeMeters>903.4000244140625</AltitudeMeters>
            <DistanceMeters>233729.19467618</DistanceMeters>
          </Trackpoint>
          <Trackpoint>
            <Time>2021-07-30T08:34:33.000Z</Time>
            <Position>
              <LatitudeDegrees>42.1665829606354236602783203125</LatitudeDegrees>
              <LongitudeDegrees>-2.64979477040469646453857421875</LongitudeDegrees>
            </Position>
            <AltitudeMeters>903.20001220703125</AltitudeMeters>
            <DistanceMeters>233737.56674004</DistanceMeters>
          </Trackpoint>
          <Trackpoint>
            <Time>2021-07-30T08:34:38.000Z</Time>
            <Position>
              <LatitudeDegrees>42.16676585376262664794921875</LatitudeDegrees>
              <LongitudeDegrees>-2.6494131423532962799072265625</LongitudeDegrees>
            </Position>
            <AltitudeMeters>904</AltitudeMeters>
            <DistanceMeters>233775.05751876</DistanceMeters>
          </Trackpoint>
          <Trackpoint>
            <Time>2021-07-30T08:34:40.000Z</Time>
            <Position>
              <LatitudeDegrees>42.1668666042387485504150390625</LatitudeDegrees>
              <LongitudeDegrees>-2.6493380405008792877197265625</LongitudeDegrees>
            </Position>
            <AltitudeMeters>904.4000244140625</AltitudeMeters>
            <DistanceMeters>233787.868868</DistanceMeters>
          </Trackpoint>
          <Trackpoint>
            <Time>2021-07-30T08:34:44.000Z</Time>
            <Position>
              <LatitudeDegrees>42.16707657091319561004638671875</LatitudeDegrees>
              <LongitudeDegrees>-2.64935488812625408172607421875</LongitudeDegrees>
            </Position>
            <AltitudeMeters>905</AltitudeMeters>
            <DistanceMeters>233811.27979408</DistanceMeters>
          </Trackpoint>
          <Trackpoint>
            <Time>2021-07-30T08:34:49.000Z</Time>
            <Position>
              <LatitudeDegrees>42.1673219092190265655517578125</LatitudeDegrees>
              <LongitudeDegrees>-2.64939528889954090118408203125</LongitudeDegrees>
            </Position>
            <AltitudeMeters>905.20001220703125</AltitudeMeters>
            <DistanceMeters>233838.7890021</DistanceMeters>
          </Trackpoint>
          <Trackpoint>
            <Time>2021-07-30T08:34:53.000Z</Time>
            <Position>
              <LatitudeDegrees>42.16748912818729877471923828125</LatitudeDegrees>
              <LongitudeDegrees>-2.64928825199604034423828125</LongitudeDegrees>
            </Position>
            <AltitudeMeters>905</AltitudeMeters>
            <DistanceMeters>233859.38898784</DistanceMeters>
          </Trackpoint>
          <Trackpoint>
            <Time>2021-07-30T08:34:55.000Z</Time>
            <Position>
              <LatitudeDegrees>42.16756221838295459747314453125</LatitudeDegrees>
              <LongitudeDegrees>-2.64921323396265506744384765625</LongitudeDegrees>
            </Position>
            <AltitudeMeters>905.20001220703125</AltitudeMeters>
            <DistanceMeters>233869.61043512</DistanceMeters>
          </Trackpoint>
          <Trackpoint>
            <Time>2021-07-30T08:34:56.000Z</Time>
            <Position>
              <LatitudeDegrees>42.16760043986141681671142578125</LatitudeDegrees>
              <LongitudeDegrees>-2.64918289147317409515380859375</LongitudeDegrees>
            </Position>
            <AltitudeMeters>905.4000244140625</AltitudeMeters>
            <DistanceMeters>233874.54633891</DistanceMeters>
          </Trackpoint>
          <Trackpoint>
            <Time>2021-07-30T08:35:01.000Z</Time>
            <Position>
              <LatitudeDegrees>42.16781300492584705352783203125</LatitudeDegrees>
              <LongitudeDegrees>-2.64911751262843608856201171875</LongitudeDegrees>
            </Position>
            <AltitudeMeters>905.4000244140625</AltitudeMeters>
            <DistanceMeters>233898.81222494</DistanceMeters>
          </Trackpoint>
          <Trackpoint>
            <Time>2021-07-30T08:35:08.000Z</Time>
            <Position>
              <LatitudeDegrees>42.1680638752877712249755859375</LatitudeDegrees>
              <LongitudeDegrees>-2.649145759642124176025390625</LongitudeDegrees>
            </Position>
            <AltitudeMeters>906.5999755859375</AltitudeMeters>
            <DistanceMeters>233926.83173433</DistanceMeters>
          </Trackpoint>
          <Trackpoint>
            <Time>2021-07-30T08:35:13.000Z</Time>
            <Position>
              <LatitudeDegrees>42.16822556219995021820068359375</LatitudeDegrees>
              <LongitudeDegrees>-2.6491700671613216400146484375</LongitudeDegrees>
            </Position>
            <AltitudeMeters>908</AltitudeMeters>
            <DistanceMeters>233944.93924867</DistanceMeters>
          </Trackpoint>
          <Trackpoint>
            <Time>2021-07-30T08:35:17.000Z</Time>
            <Position>
              <LatitudeDegrees>42.1683502011001110076904296875</LatitudeDegrees>
              <LongitudeDegrees>-2.6491841487586498260498046875</LongitudeDegrees>
            </Position>
            <AltitudeMeters>909</AltitudeMeters>
            <DistanceMeters>233958.85993258</DistanceMeters>
          </Trackpoint>
          <Trackpoint>
            <Time>2021-07-30T08:35:25.000Z</Time>
            <Position>
              <LatitudeDegrees>42.16859201900660991668701171875</LatitudeDegrees>
              <LongitudeDegrees>-2.64919035136699676513671875</LongitudeDegrees>
            </Position>
            <AltitudeMeters>910</AltitudeMeters>
            <DistanceMeters>233985.77950974</DistanceMeters>
          </Trackpoint>
          <Trackpoint>
            <Time>2021-07-30T08:35:32.000Z</Time>
            <Position>
              <LatitudeDegrees>42.1688021533191204071044921875</LatitudeDegrees>
              <LongitudeDegrees>-2.64916679821908473968505859375</LongitudeDegrees>
            </Position>
            <AltitudeMeters>911</AltitudeMeters>
            <DistanceMeters>234009.24841497</DistanceMeters>
          </Trackpoint>
          <Trackpoint>
            <Time>2021-07-30T08:35:37.000Z</Time>
            <Position>
              <LatitudeDegrees>42.1689550392329692840576171875</LatitudeDegrees>
              <LongitudeDegrees>-2.64913880266249179840087890625</LongitudeDegrees>
            </Position>
            <AltitudeMeters>912</AltitudeMeters>
            <DistanceMeters>234026.421191</DistanceMeters>
          </Trackpoint>
          <Trackpoint>
            <Time>2021-07-30T08:35:55.000Z</Time>
            <Position>
              <LatitudeDegrees>42.16946776024997234344482421875</LatitudeDegrees>
              <LongitudeDegrees>-2.64889304526150226593017578125</LongitudeDegrees>
            </Position>
            <AltitudeMeters>912.20001220703125</AltitudeMeters>
            <DistanceMeters>234086.98221632</DistanceMeters>
          </Trackpoint>
          <Trackpoint>
            <Time>2021-07-30T08:36:06.000Z</Time>
            <Position>
              <LatitudeDegrees>42.16963070444762706756591796875</LatitudeDegrees>
              <LongitudeDegrees>-2.6484726928174495697021484375</LongitudeDegrees>
            </Position>
            <AltitudeMeters>913</AltitudeMeters>
            <DistanceMeters>234126.11465113</DistanceMeters>
          </Trackpoint>
          <Trackpoint>
            <Time>2021-07-30T08:36:17.000Z</Time>
            <Position>
              <LatitudeDegrees>42.16969608329236507415771484375</LatitudeDegrees>
              <LongitudeDegrees>-2.6480123586952686309814453125</LongitudeDegrees>
            </Position>
            <AltitudeMeters>914.20001220703125</AltitudeMeters>
            <DistanceMeters>234164.77989904</DistanceMeters>
          </Trackpoint>
          <Trackpoint>
            <Time>2021-07-30T08:36:27.000Z</Time>
            <Position>
              <LatitudeDegrees>42.16981259174644947052001953125</LatitudeDegrees>
              <LongitudeDegrees>-2.6476321555674076080322265625</LongitudeDegrees>
            </Position>
            <AltitudeMeters>915.20001220703125</AltitudeMeters>
            <DistanceMeters>234198.71893985</DistanceMeters>
          </Trackpoint>
          <Trackpoint>
            <Time>2021-07-30T08:36:39.000Z</Time>
            <Position>
              <LatitudeDegrees>42.1700302697718143463134765625</LatitudeDegrees>
              <LongitudeDegrees>-2.647216580808162689208984375</LongitudeDegrees>
            </Position>
            <AltitudeMeters>916.4000244140625</AltitudeMeters>
            <DistanceMeters>234240.6979522</DistanceMeters>
          </Trackpoint>
          <Trackpoint>
            <Time>2021-07-30T08:36:52.000Z</Time>
            <Position>
              <LatitudeDegrees>42.1702867560088634490966796875</LatitudeDegrees>
              <LongitudeDegrees>-2.64675565995275974273681640625</LongitudeDegrees>
            </Position>
            <AltitudeMeters>917.4000244140625</AltitudeMeters>
            <DistanceMeters>234288.24417726</DistanceMeters>
          </Trackpoint>
          <Trackpoint>
            <Time>2021-07-30T08:37:06.000Z</Time>
            <Position>
              <LatitudeDegrees>42.1705605089664459228515625</LatitudeDegrees>
              <LongitudeDegrees>-2.64626297168433666229248046875</LongitudeDegrees>
            </Position>
            <AltitudeMeters>918.4000244140625</AltitudeMeters>
            <DistanceMeters>234339.03984501</DistanceMeters>
          </Trackpoint>
          <Trackpoint>
            <Time>2021-07-30T08:37:22.000Z</Time>
            <Position>
              <LatitudeDegrees>42.17097021639347076416015625</LatitudeDegrees>
              <LongitudeDegrees>-2.64578889124095439910888671875</LongitudeDegrees>
            </Position>
            <AltitudeMeters>918.79998779296875</AltitudeMeters>
            <DistanceMeters>234399.11379179</DistanceMeters>
          </Trackpoint>
          <Trackpoint>
            <Time>2021-07-30T08:37:35.000Z</Time>
            <Position>
              <LatitudeDegrees>42.1714900620281696319580078125</LatitudeDegrees>
              <LongitudeDegrees>-2.64545830897986888885498046875</LongitudeDegrees>
            </Position>
            <AltitudeMeters>917.79998779296875</AltitudeMeters>
            <DistanceMeters>234463.07785369</DistanceMeters>
          </Trackpoint>
          <Trackpoint>
            <Time>2021-07-30T08:37:42.000Z</Time>
            <Position>
              <LatitudeDegrees>42.17178502120077610015869140625</LatitudeDegrees>
              <LongitudeDegrees>-2.64528237283229827880859375</LongitudeDegrees>
            </Position>
            <AltitudeMeters>917.4000244140625</AltitudeMeters>
            <DistanceMeters>234498.97217465</DistanceMeters>
          </Trackpoint>
          <Trackpoint>
            <Time>2021-07-30T08:37:55.000Z</Time>
            <Position>
              <LatitudeDegrees>42.17231668531894683837890625</LatitudeDegrees>
              <LongitudeDegrees>-2.644958160817623138427734375</LongitudeDegrees>
            </Position>
            <AltitudeMeters>917.79998779296875</AltitudeMeters>
            <DistanceMeters>234563.91026362</DistanceMeters>
          </Trackpoint>
          <Trackpoint>
            <Time>2021-07-30T08:38:08.000Z</Time>
            <Position>
              <LatitudeDegrees>42.17282052151858806610107421875</LatitudeDegrees>
              <LongitudeDegrees>-2.644655741751194000244140625</LongitudeDegrees>
            </Position>
            <AltitudeMeters>917.5999755859375</AltitudeMeters>
            <DistanceMeters>234625.28663472</DistanceMeters>
          </Trackpoint>
          <Trackpoint>
            <Time>2021-07-30T08:38:19.000Z</Time>
            <Position>
              <LatitudeDegrees>42.17331337742507457733154296875</LatitudeDegrees>
              <LongitudeDegrees>-2.6443645544350147247314453125</LongitudeDegrees>
            </Position>
            <AltitudeMeters>916.20001220703125</AltitudeMeters>
            <DistanceMeters>234685.17065762</DistanceMeters>
          </Trackpoint>
          <Trackpoint>
            <Time>2021-07-30T08:38:22.000Z</Time>
            <Position>
              <LatitudeDegrees>42.1734725497663021087646484375</LatitudeDegrees>
              <LongitudeDegrees>-2.644261457026004791259765625</LongitudeDegrees>
            </Position>
            <AltitudeMeters>915</AltitudeMeters>
            <DistanceMeters>234704.82212701</DistanceMeters>
          </Trackpoint>
          <Trackpoint>
            <Time>2021-07-30T08:38:25.000Z</Time>
            <Position>
              <LatitudeDegrees>42.17364848591387271881103515625</LatitudeDegrees>
              <LongitudeDegrees>-2.64413899742066860198974609375</LongitudeDegrees>
            </Position>
            <AltitudeMeters>913.79998779296875</AltitudeMeters>
            <DistanceMeters>234726.85603338</DistanceMeters>
          </Trackpoint>
          <Trackpoint>
            <Time>2021-07-30T08:38:28.000Z</Time>
            <Position>
              <LatitudeDegrees>42.1738316304981708526611328125</LatitudeDegrees>
              <LongitudeDegrees>-2.643977142870426177978515625</LongitudeDegrees>
            </Position>
            <AltitudeMeters>912.5999755859375</AltitudeMeters>
            <DistanceMeters>234751.22348455</DistanceMeters>
          </Trackpoint>
          <Trackpoint>
            <Time>2021-07-30T08:38:30.000Z</Time>
            <Position>
              <LatitudeDegrees>42.1739508211612701416015625</LatitudeDegrees>
              <LongitudeDegrees>-2.64384680427610874176025390625</LongitudeDegrees>
            </Position>
            <AltitudeMeters>911.4000244140625</AltitudeMeters>
            <DistanceMeters>234768.29949692</DistanceMeters>
          </Trackpoint>
          <Trackpoint>
            <Time>2021-07-30T08:38:33.000Z</Time>
            <Position>
              <LatitudeDegrees>42.174121476709842681884765625</LatitudeDegrees>
              <LongitudeDegrees>-2.643631137907505035400390625</LongitudeDegrees>
            </Position>
            <AltitudeMeters>910</AltitudeMeters>
            <DistanceMeters>234794.32363443</DistanceMeters>
          </Trackpoint>
          <Trackpoint>
            <Time>2021-07-30T08:38:36.000Z</Time>
            <Position>
              <LatitudeDegrees>42.1742879413068294525146484375</LatitudeDegrees>
              <LongitudeDegrees>-2.643410526216030120849609375</LongitudeDegrees>
            </Position>
            <AltitudeMeters>908.79998779296875</AltitudeMeters>
            <DistanceMeters>234820.29341147</DistanceMeters>
          </Trackpoint>
          <Trackpoint>
            <Time>2021-07-30T08:38:39.000Z</Time>
            <Position>
              <LatitudeDegrees>42.17445432208478450775146484375</LatitudeDegrees>
              <LongitudeDegrees>-2.64319050125777721405029296875</LongitudeDegrees>
            </Position>
            <AltitudeMeters>907.79998779296875</AltitudeMeters>
            <DistanceMeters>234846.22264809</DistanceMeters>
          </Trackpoint>
          <Trackpoint>
            <Time>2021-07-30T08:38:43.000Z</Time>
            <Position>
              <LatitudeDegrees>42.17467342503368854522705078125</LatitudeDegrees>
              <LongitudeDegrees>-2.64290065504610538482666015625</LongitudeDegrees>
            </Position>
            <AltitudeMeters>906.4000244140625</AltitudeMeters>
            <DistanceMeters>234880.3740118</DistanceMeters>
          </Trackpoint>
          <Trackpoint>
            <Time>2021-07-30T08:38:46.000Z</Time>
            <Position>
              <LatitudeDegrees>42.17483251355588436126708984375</LatitudeDegrees>
              <LongitudeDegrees>-2.6426853239536285400390625</LongitudeDegrees>
            </Position>
            <AltitudeMeters>905</AltitudeMeters>
            <DistanceMeters>234905.45404439</DistanceMeters>
          </Trackpoint>
          <Trackpoint>
            <Time>2021-07-30T08:38:54.000Z</Time>
            <Position>
              <LatitudeDegrees>42.17525194399058818817138671875</LatitudeDegrees>
              <LongitudeDegrees>-2.6421225629746913909912109375</LongitudeDegrees>
            </Position>
            <AltitudeMeters>903.79998779296875</AltitudeMeters>
            <DistanceMeters>234971.28815159</DistanceMeters>
          </Trackpoint>
          <Trackpoint>
            <Time>2021-07-30T08:38:58.000Z</Time>
            <Position>
              <LatitudeDegrees>42.17545981518924236297607421875</LatitudeDegrees>
              <LongitudeDegrees>-2.641838751733303070068359375</LongitudeDegrees>
            </Position>
            <AltitudeMeters>902.5999755859375</AltitudeMeters>
            <DistanceMeters>235004.20225603</DistanceMeters>
          </Trackpoint>
          <Trackpoint>
            <Time>2021-07-30T08:39:01.000Z</Time>
            <Position>
              <LatitudeDegrees>42.17561404220759868621826171875</LatitudeDegrees>
              <LongitudeDegrees>-2.64163180254399776458740234375</LongitudeDegrees>
            </Position>
            <AltitudeMeters>901.5999755859375</AltitudeMeters>
            <DistanceMeters>235028.41076613</DistanceMeters>
          </Trackpoint>
          <Trackpoint>
            <Time>2021-07-30T08:39:07.000Z</Time>
            <Position>
              <LatitudeDegrees>42.17592903412878513336181640625</LatitudeDegrees>
              <LongitudeDegrees>-2.64122779481112957000732421875</LongitudeDegrees>
            </Position>
            <AltitudeMeters>900.5999755859375</AltitudeMeters>
            <DistanceMeters>235076.78076392</DistanceMeters>
          </Trackpoint>
          <Trackpoint>
            <Time>2021-07-30T08:39:11.000Z</Time>
            <Position>
              <LatitudeDegrees>42.17617630027234554290771484375</LatitudeDegrees>
              <LongitudeDegrees>-2.6410651020705699920654296875</LongitudeDegrees>
            </Position>
            <AltitudeMeters>900.5999755859375</AltitudeMeters>
            <DistanceMeters>235107.39942712</DistanceMeters>
          </Trackpoint>
          <Trackpoint>
            <Time>2021-07-30T08:39:13.000Z</Time>
            <Position>
              <LatitudeDegrees>42.1763019450008869171142578125</LatitudeDegrees>
              <LongitudeDegrees>-2.64102713204920291900634765625</LongitudeDegrees>
            </Position>
            <AltitudeMeters>900.4000244140625</AltitudeMeters>
            <DistanceMeters>235121.73051426</DistanceMeters>
          </Trackpoint>
          <Trackpoint>
            <Time>2021-07-30T08:39:23.000Z</Time>
            <Position>
              <LatitudeDegrees>42.1768605150282382965087890625</LatitudeDegrees>
              <LongitudeDegrees>-2.6409400440752506256103515625</LongitudeDegrees>
            </Position>
            <AltitudeMeters>900.79998779296875</AltitudeMeters>
            <DistanceMeters>235184.31410122</DistanceMeters>
          </Trackpoint>
          <Trackpoint>
            <Time>2021-07-30T08:39:26.000Z</Time>
            <Position>
              <LatitudeDegrees>42.1770170889794826507568359375</LatitudeDegrees>
              <LongitudeDegrees>-2.64092512428760528564453125</LongitudeDegrees>
            </Position>
            <AltitudeMeters>900.5999755859375</AltitudeMeters>
            <DistanceMeters>235201.7845501</DistanceMeters>
          </Trackpoint>
          <Trackpoint>
            <Time>2021-07-30T08:39:30.000Z</Time>
            <Position>
              <LatitudeDegrees>42.1772246249020099639892578125</LatitudeDegrees>
              <LongitudeDegrees>-2.6408384554088115692138671875</LongitudeDegrees>
            </Position>
            <AltitudeMeters>899.20001220703125</AltitudeMeters>
            <DistanceMeters>235225.96432118</DistanceMeters>
          </Trackpoint>
          <Trackpoint>
            <Time>2021-07-30T08:39:38.000Z</Time>
            <Position>
              <LatitudeDegrees>42.1775994636118412017822265625</LatitudeDegrees>
              <LongitudeDegrees>-2.6405253075063228607177734375</LongitudeDegrees>
            </Position>
            <AltitudeMeters>898</AltitudeMeters>
            <DistanceMeters>235275.03289974</DistanceMeters>
          </Trackpoint>
          <Trackpoint>
            <Time>2021-07-30T08:39:49.000Z</Time>
            <Position>
              <LatitudeDegrees>42.17803305946290493011474609375</LatitudeDegrees>
              <LongitudeDegrees>-2.640173435211181640625</LongitudeDegrees>
            </Position>
            <AltitudeMeters>899</AltitudeMeters>
            <DistanceMeters>235331.34791468</DistanceMeters>
          </Trackpoint>
          <Trackpoint>
            <Time>2021-07-30T08:39:52.000Z</Time>
            <Position>
              <LatitudeDegrees>42.17816121876239776611328125</LatitudeDegrees>
              <LongitudeDegrees>-2.640130519866943359375</LongitudeDegrees>
            </Position>
            <AltitudeMeters>899</AltitudeMeters>
            <DistanceMeters>235346.04483369</DistanceMeters>
          </Trackpoint>
          <Trackpoint>
            <Time>2021-07-30T08:39:57.000Z</Time>
            <Position>
              <LatitudeDegrees>42.17838786542415618896484375</LatitudeDegrees>
              <LongitudeDegrees>-2.6401407457888126373291015625</LongitudeDegrees>
            </Position>
            <AltitudeMeters>898</AltitudeMeters>
            <DistanceMeters>235371.28511684</DistanceMeters>
          </Trackpoint>
          <Trackpoint>
            <Time>2021-07-30T08:40:10.000Z</Time>
            <Position>
              <LatitudeDegrees>42.17894853092730045318603515625</LatitudeDegrees>
              <LongitudeDegrees>-2.64028851874172687530517578125</LongitudeDegrees>
            </Position>
            <AltitudeMeters>899</AltitudeMeters>
            <DistanceMeters>235434.8674339</DistanceMeters>
          </Trackpoint>
          <Trackpoint>
            <Time>2021-07-30T08:40:11.000Z</Time>
            <Position>
              <LatitudeDegrees>42.17898893170058727264404296875</LatitudeDegrees>
              <LongitudeDegrees>-2.64029807411134243011474609375</LongitudeDegrees>
            </Position>
            <AltitudeMeters>899</AltitudeMeters>
            <DistanceMeters>235439.43366282</DistanceMeters>
          </Trackpoint>
          <Trackpoint>
            <Time>2021-07-30T08:40:18.000Z</Time>
            <Position>
              <LatitudeDegrees>42.17926151119172573089599609375</LatitudeDegrees>
              <LongitudeDegrees>-2.6403643749654293060302734375</LongitudeDegrees>
            </Position>
            <AltitudeMeters>900</AltitudeMeters>
            <DistanceMeters>235470.26130148</DistanceMeters>
          </Trackpoint>
          <Trackpoint>
            <Time>2021-07-30T08:40:30.000Z</Time>
            <Position>
              <LatitudeDegrees>42.17979066073894500732421875</LatitudeDegrees>
              <LongitudeDegrees>-2.64040938578546047210693359375</LongitudeDegrees>
            </Position>
            <AltitudeMeters>898.79998779296875</AltitudeMeters>
            <DistanceMeters>235529.27350318</DistanceMeters>
          </Trackpoint>
          <Trackpoint>
            <Time>2021-07-30T08:40:34.000Z</Time>
            <Position>
              <LatitudeDegrees>42.18003340065479278564453125</LatitudeDegrees>
              <LongitudeDegrees>-2.640374265611171722412109375</LongitudeDegrees>
            </Position>
            <AltitudeMeters>897.4000244140625</AltitudeMeters>
            <DistanceMeters>235556.44549447</DistanceMeters>
          </Trackpoint>
          <Trackpoint>
            <Time>2021-07-30T08:40:37.000Z</Time>
            <Position>
              <LatitudeDegrees>42.18024286441504955291748046875</LatitudeDegrees>
              <LongitudeDegrees>-2.6403388939797878265380859375</LongitudeDegrees>
            </Position>
            <AltitudeMeters>896</AltitudeMeters>
            <DistanceMeters>235579.94093367</DistanceMeters>
          </Trackpoint>
          <Trackpoint>
            <Time>2021-07-30T08:40:39.000Z</Time>
            <Position>
              <LatitudeDegrees>42.180393151938915252685546875</LatitudeDegrees>
              <LongitudeDegrees>-2.640310563147068023681640625</LongitudeDegrees>
            </Position>
            <AltitudeMeters>894.79998779296875</AltitudeMeters>
            <DistanceMeters>235596.83057886</DistanceMeters>
          </Trackpoint>
          <Trackpoint>
            <Time>2021-07-30T08:40:41.000Z</Time>
            <Position>
              <LatitudeDegrees>42.18054980970919132232666015625</LatitudeDegrees>
              <LongitudeDegrees>-2.64027611352503299713134765625</LongitudeDegrees>
            </Position>
            <AltitudeMeters>893.5999755859375</AltitudeMeters>
            <DistanceMeters>235614.49634921</DistanceMeters>
          </Trackpoint>
          <Trackpoint>
            <Time>2021-07-30T08:40:43.000Z</Time>
            <Position>
              <LatitudeDegrees>42.18071334064006805419921875</LatitudeDegrees>
              <LongitudeDegrees>-2.64023504219949245452880859375</LongitudeDegrees>
            </Position>
            <AltitudeMeters>892.4000244140625</AltitudeMeters>
            <DistanceMeters>235633.01022621</DistanceMeters>
          </Trackpoint>
          <Trackpoint>
            <Time>2021-07-30T08:40:45.000Z</Time>
            <Position>
              <LatitudeDegrees>42.18087670393288135528564453125</LatitudeDegrees>
              <LongitudeDegrees>-2.6401719264686107635498046875</LongitudeDegrees>
            </Position>
            <AltitudeMeters>891.20001220703125</AltitudeMeters>
            <DistanceMeters>235651.92316856</DistanceMeters>
          </Trackpoint>
          <Trackpoint>
            <Time>2021-07-30T08:40:47.000Z</Time>
            <Position>
              <LatitudeDegrees>42.1810387261211872100830078125</LatitudeDegrees>
              <LongitudeDegrees>-2.6400854252278804779052734375</LongitudeDegrees>
            </Position>
            <AltitudeMeters>889.5999755859375</AltitudeMeters>
            <DistanceMeters>235671.31653556</DistanceMeters>
          </Trackpoint>
          <Trackpoint>
            <Time>2021-07-30T08:40:52.000Z</Time>
            <Position>
              <LatitudeDegrees>42.18139889650046825408935546875</LatitudeDegrees>
              <LongitudeDegrees>-2.63979046605527400970458984375</LongitudeDegrees>
            </Position>
            <AltitudeMeters>888.4000244140625</AltitudeMeters>
            <DistanceMeters>235718.20834374</DistanceMeters>
          </Trackpoint>
          <Trackpoint>
            <Time>2021-07-30T08:40:55.000Z</Time>
            <Position>
              <LatitudeDegrees>42.1816033311188220977783203125</LatitudeDegrees>
              <LongitudeDegrees>-2.63960271142423152923583984375</LongitudeDegrees>
            </Position>
            <AltitudeMeters>887</AltitudeMeters>
            <DistanceMeters>235745.73199127</DistanceMeters>
          </Trackpoint>
          <Trackpoint>
            <Time>2021-07-30T08:40:58.000Z</Time>
            <Position>
              <LatitudeDegrees>42.1818024851381778717041015625</LatitudeDegrees>
              <LongitudeDegrees>-2.6394172199070453643798828125</LongitudeDegrees>
            </Position>
            <AltitudeMeters>886</AltitudeMeters>
            <DistanceMeters>235772.66515058</DistanceMeters>
          </Trackpoint>
          <Trackpoint>
            <Time>2021-07-30T08:41:06.000Z</Time>
            <Position>
              <LatitudeDegrees>42.18227379955351352691650390625</LatitudeDegrees>
              <LongitudeDegrees>-2.638912461698055267333984375</LongitudeDegrees>
            </Position>
            <AltitudeMeters>886.20001220703125</AltitudeMeters>
            <DistanceMeters>235839.63518961</DistanceMeters>
          </Trackpoint>
          <Trackpoint>
            <Time>2021-07-30T08:41:15.000Z</Time>
            <Position>
              <LatitudeDegrees>42.18260371126234531402587890625</LatitudeDegrees>
              <LongitudeDegrees>-2.63829044066369533538818359375</LongitudeDegrees>
            </Position>
            <AltitudeMeters>886</AltitudeMeters>
            <DistanceMeters>235902.72412592</DistanceMeters>
          </Trackpoint>
          <Trackpoint>
            <Time>2021-07-30T08:41:20.000Z</Time>
            <Position>
              <LatitudeDegrees>42.18289087526500225067138671875</LatitudeDegrees>
              <LongitudeDegrees>-2.638057507574558258056640625</LongitudeDegrees>
            </Position>
            <AltitudeMeters>884.79998779296875</AltitudeMeters>
            <DistanceMeters>235940.01542253</DistanceMeters>
          </Trackpoint>
          <Trackpoint>
            <Time>2021-07-30T08:41:23.000Z</Time>
            <Position>
              <LatitudeDegrees>42.183101177215576171875</LatitudeDegrees>
              <LongitudeDegrees>-2.63797360472381114959716796875</LongitudeDegrees>
            </Position>
            <AltitudeMeters>883.5999755859375</AltitudeMeters>
            <DistanceMeters>235964.42378838</DistanceMeters>
          </Trackpoint>
          <Trackpoint>
            <Time>2021-07-30T08:41:25.000Z</Time>
            <Position>
              <LatitudeDegrees>42.18325230292975902557373046875</LatitudeDegrees>
              <LongitudeDegrees>-2.63793555088341236114501953125</LongitudeDegrees>
            </Position>
            <AltitudeMeters>882.4000244140625</AltitudeMeters>
            <DistanceMeters>235981.53466704</DistanceMeters>
          </Trackpoint>
          <Trackpoint>
            <Time>2021-07-30T08:41:27.000Z</Time>
            <Position>
              <LatitudeDegrees>42.1834111399948596954345703125</LatitudeDegrees>
              <LongitudeDegrees>-2.63791291974484920501708984375</LongitudeDegrees>
            </Position>
            <AltitudeMeters>881.20001220703125</AltitudeMeters>
            <DistanceMeters>235999.3117755</DistanceMeters>
          </Trackpoint>
          <Trackpoint>
            <Time>2021-07-30T08:41:29.000Z</Time>
            <Position>
              <LatitudeDegrees>42.18357165344059467315673828125</LatitudeDegrees>
              <LongitudeDegrees>-2.63790856115520000457763671875</LongitudeDegrees>
            </Position>
            <AltitudeMeters>880.20001220703125</AltitudeMeters>
            <DistanceMeters>236017.18058836</DistanceMeters>
          </Trackpoint>
          <Trackpoint>
            <Time>2021-07-30T08:41:34.000Z</Time>
            <Position>
              <LatitudeDegrees>42.18396929092705249786376953125</LatitudeDegrees>
              <LongitudeDegrees>-2.63792197220027446746826171875</LongitudeDegrees>
            </Position>
            <AltitudeMeters>879</AltitudeMeters>
            <DistanceMeters>236061.45222818</DistanceMeters>
          </Trackpoint>
          <Trackpoint>
            <Time>2021-07-30T08:41:41.000Z</Time>
            <Position>
              <LatitudeDegrees>42.18448863364756107330322265625</LatitudeDegrees>
              <LongitudeDegrees>-2.63796824030578136444091796875</LongitudeDegrees>
            </Position>
            <AltitudeMeters>878.20001220703125</AltitudeMeters>
            <DistanceMeters>236119.38190372</DistanceMeters>
          </Trackpoint>
          <Trackpoint>
            <Time>2021-07-30T08:41:43.000Z</Time>
            <Position>
              <LatitudeDegrees>42.18463607132434844970703125</LatitudeDegrees>
              <LongitudeDegrees>-2.637976370751857757568359375</LongitudeDegrees>
            </Position>
            <AltitudeMeters>878</AltitudeMeters>
            <DistanceMeters>236135.80586316</DistanceMeters>
          </Trackpoint>
          <Trackpoint>
            <Time>2021-07-30T08:41:48.000Z</Time>
            <Position>
              <LatitudeDegrees>42.18499414622783660888671875</LatitudeDegrees>
              <LongitudeDegrees>-2.6380013488233089447021484375</LongitudeDegrees>
            </Position>
            <AltitudeMeters>877</AltitudeMeters>
            <DistanceMeters>236175.71346296</DistanceMeters>
          </Trackpoint>
          <Trackpoint>
            <Time>2021-07-30T08:41:56.000Z</Time>
            <Position>
              <LatitudeDegrees>42.18554492108523845672607421875</LatitudeDegrees>
              <LongitudeDegrees>-2.6380231417715549468994140625</LongitudeDegrees>
            </Position>
            <AltitudeMeters>876.79998779296875</AltitudeMeters>
            <DistanceMeters>236237.04214663</DistanceMeters>
          </Trackpoint>
          <Trackpoint>
            <Time>2021-07-30T08:42:05.000Z</Time>
            <Position>
              <LatitudeDegrees>42.18602134846150875091552734375</LatitudeDegrees>
              <LongitudeDegrees>-2.63804803602397441864013671875</LongitudeDegrees>
            </Position>
            <AltitudeMeters>878</AltitudeMeters>
            <DistanceMeters>236290.10927054</DistanceMeters>
          </Trackpoint>
          <Trackpoint>
            <Time>2021-07-30T08:42:18.000Z</Time>
            <Position>
              <LatitudeDegrees>42.18659542500972747802734375</LatitudeDegrees>
              <LongitudeDegrees>-2.63793337158858776092529296875</LongitudeDegrees>
            </Position>
            <AltitudeMeters>878.5999755859375</AltitudeMeters>
            <DistanceMeters>236354.70115888</DistanceMeters>
          </Trackpoint>
          <Trackpoint>
            <Time>2021-07-30T08:42:31.000Z</Time>
            <Position>
              <LatitudeDegrees>42.1871082298457622528076171875</LatitudeDegrees>
              <LongitudeDegrees>-2.63768962584435939788818359375</LongitudeDegrees>
            </Position>
            <AltitudeMeters>879</AltitudeMeters>
            <DistanceMeters>236415.213705</DistanceMeters>
          </Trackpoint>
          <Trackpoint>
            <Time>2021-07-30T08:42:44.000Z</Time>
            <Position>
              <LatitudeDegrees>42.1876262314617633819580078125</LatitudeDegrees>
              <LongitudeDegrees>-2.637403719127178192138671875</LongitudeDegrees>
            </Position>
            <AltitudeMeters>879.20001220703125</AltitudeMeters>
            <DistanceMeters>236477.50340821</DistanceMeters>
          </Trackpoint>
          <Trackpoint>
            <Time>2021-07-30T08:42:54.000Z</Time>
            <Position>
              <LatitudeDegrees>42.1879963763058185577392578125</LatitudeDegrees>
              <LongitudeDegrees>-2.63720146380364894866943359375</LongitudeDegrees>
            </Position>
            <AltitudeMeters>879.5999755859375</AltitudeMeters>
            <DistanceMeters>236521.94981114</DistanceMeters>
          </Trackpoint>
          <Trackpoint>
            <Time>2021-07-30T08:43:02.000Z</Time>
            <Position>
              <LatitudeDegrees>42.188279516994953155517578125</LatitudeDegrees>
              <LongitudeDegrees>-2.63705058954656124114990234375</LongitudeDegrees>
            </Position>
            <AltitudeMeters>881</AltitudeMeters>
            <DistanceMeters>236555.83133263</DistanceMeters>
          </Trackpoint>
          <Trackpoint>
            <Time>2021-07-30T08:43:11.000Z</Time>
            <Position>
              <LatitudeDegrees>42.18861739151179790496826171875</LatitudeDegrees>
              <LongitudeDegrees>-2.63686551712453365325927734375</LongitudeDegrees>
            </Position>
            <AltitudeMeters>882</AltitudeMeters>
            <DistanceMeters>236596.41664049</DistanceMeters>
          </Trackpoint>
          <Trackpoint>
            <Time>2021-07-30T08:43:18.000Z</Time>
            <Position>
              <LatitudeDegrees>42.1888536773622035980224609375</LatitudeDegrees>
              <LongitudeDegrees>-2.63673417270183563232421875</LongitudeDegrees>
            </Position>
            <AltitudeMeters>883.20001220703125</AltitudeMeters>
            <DistanceMeters>236624.85901079</DistanceMeters>
          </Trackpoint>
          <Trackpoint>
            <Time>2021-07-30T08:43:27.000Z</Time>
            <Position>
              <LatitudeDegrees>42.189103625714778900146484375</LatitudeDegrees>
              <LongitudeDegrees>-2.636598050594329833984375</LongitudeDegrees>
            </Position>
            <AltitudeMeters>884.5999755859375</AltitudeMeters>
            <DistanceMeters>236654.85826875</DistanceMeters>
          </Trackpoint>
          <Trackpoint>
            <Time>2021-07-30T08:43:39.000Z</Time>
            <Position>
              <LatitudeDegrees>42.189479805529117584228515625</LatitudeDegrees>
              <LongitudeDegrees>-2.63638540171086788177490234375</LongitudeDegrees>
            </Position>
            <AltitudeMeters>886</AltitudeMeters>
            <DistanceMeters>236700.25200405</DistanceMeters>
          </Trackpoint>
          <Trackpoint>
            <Time>2021-07-30T08:43:47.000Z</Time>
            <Position>
              <LatitudeDegrees>42.18971944414079189300537109375</LatitudeDegrees>
              <LongitudeDegrees>-2.6362505368888378143310546875</LongitudeDegrees>
            </Position>
            <AltitudeMeters>887</AltitudeMeters>
            <DistanceMeters>236729.1501263</DistanceMeters>
          </Trackpoint>
          <Trackpoint>
            <Time>2021-07-30T08:43:57.000Z</Time>
            <Position>
              <LatitudeDegrees>42.19002588652074337005615234375</LatitudeDegrees>
              <LongitudeDegrees>-2.636074014008045196533203125</LongitudeDegrees>
            </Position>
            <AltitudeMeters>888.20001220703125</AltitudeMeters>
            <DistanceMeters>236766.23441572</DistanceMeters>
          </Trackpoint>
          <Trackpoint>
            <Time>2021-07-30T08:44:12.000Z</Time>
            <Position>
              <LatitudeDegrees>42.1905434690415859222412109375</LatitudeDegrees>
              <LongitudeDegrees>-2.63577955774962902069091796875</LongitudeDegrees>
            </Position>
            <AltitudeMeters>888.20001220703125</AltitudeMeters>
            <DistanceMeters>236828.75094486</DistanceMeters>
          </Trackpoint>
          <Trackpoint>
            <Time>2021-07-30T08:44:25.000Z</Time>
            <Position>
              <LatitudeDegrees>42.19104898162186145782470703125</LatitudeDegrees>
              <LongitudeDegrees>-2.63549909926950931549072265625</LongitudeDegrees>
            </Position>
            <AltitudeMeters>887.4000244140625</AltitudeMeters>
            <DistanceMeters>236889.58355616</DistanceMeters>
          </Trackpoint>
          <Trackpoint>
            <Time>2021-07-30T08:44:39.000Z</Time>
            <Position>
              <LatitudeDegrees>42.191562540829181671142578125</LatitudeDegrees>
              <LongitudeDegrees>-2.6351987756788730621337890625</LongitudeDegrees>
            </Position>
            <AltitudeMeters>888.79998779296875</AltitudeMeters>
            <DistanceMeters>236951.8782606</DistanceMeters>
          </Trackpoint>
          <Trackpoint>
            <Time>2021-07-30T08:44:44.000Z</Time>
            <Position>
              <LatitudeDegrees>42.19173587858676910400390625</LatitudeDegrees>
              <LongitudeDegrees>-2.63509324751794338226318359375</LongitudeDegrees>
            </Position>
            <AltitudeMeters>889.20001220703125</AltitudeMeters>
            <DistanceMeters>236973.0425681</DistanceMeters>
          </Trackpoint>
          <Trackpoint>
            <Time>2021-07-30T08:44:54.000Z</Time>
            <Position>
              <LatitudeDegrees>42.1920852363109588623046875</LatitudeDegrees>
              <LongitudeDegrees>-2.6348846219480037689208984375</LongitudeDegrees>
            </Position>
            <AltitudeMeters>890.20001220703125</AltitudeMeters>
            <DistanceMeters>237015.56274902</DistanceMeters>
          </Trackpoint>
          <Trackpoint>
            <Time>2021-07-30T08:45:08.000Z</Time>
            <Position>
              <LatitudeDegrees>42.1925899945199489593505859375</LatitudeDegrees>
              <LongitudeDegrees>-2.6345724798738956451416015625</LongitudeDegrees>
            </Position>
            <AltitudeMeters>890.4000244140625</AltitudeMeters>
            <DistanceMeters>237077.35919931</DistanceMeters>
          </Trackpoint>
          <Trackpoint>
            <Time>2021-07-30T08:45:21.000Z</Time>
            <Position>
              <LatitudeDegrees>42.19310246407985687255859375</LatitudeDegrees>
              <LongitudeDegrees>-2.63425539247691631317138671875</LongitudeDegrees>
            </Position>
            <AltitudeMeters>889.79998779296875</AltitudeMeters>
            <DistanceMeters>237140.10576407</DistanceMeters>
          </Trackpoint>
          <Trackpoint>
            <Time>2021-07-30T08:45:27.000Z</Time>
            <Position>
              <LatitudeDegrees>42.1933493949472904205322265625</LatitudeDegrees>
              <LongitudeDegrees>-2.6341128163039684295654296875</LongitudeDegrees>
            </Position>
            <AltitudeMeters>889.20001220703125</AltitudeMeters>
            <DistanceMeters>237169.99857666</DistanceMeters>
          </Trackpoint>
          <Trackpoint>
            <Time>2021-07-30T08:45:33.000Z</Time>
            <Position>
              <LatitudeDegrees>42.19361585564911365509033203125</LatitudeDegrees>
              <LongitudeDegrees>-2.63399588875472545623779296875</LongitudeDegrees>
            </Position>
            <AltitudeMeters>888.79998779296875</AltitudeMeters>
            <DistanceMeters>237201.18413795</DistanceMeters>
          </Trackpoint>
          <Trackpoint>
            <Time>2021-07-30T08:45:36.000Z</Time>
            <Position>
              <LatitudeDegrees>42.193768322467803955078125</LatitudeDegrees>
              <LongitudeDegrees>-2.63398163951933383941650390625</LongitudeDegrees>
            </Position>
            <AltitudeMeters>888.20001220703125</AltitudeMeters>
            <DistanceMeters>237218.19471612</DistanceMeters>
          </Trackpoint>
          <Trackpoint>
            <Time>2021-07-30T08:45:40.000Z</Time>
            <Position>
              <LatitudeDegrees>42.19400142319500446319580078125</LatitudeDegrees>
              <LongitudeDegrees>-2.63399404473602771759033203125</LongitudeDegrees>
            </Position>
            <AltitudeMeters>886.79998779296875</AltitudeMeters>
            <DistanceMeters>237244.1594508</DistanceMeters>
          </Trackpoint>
          <Trackpoint>
            <Time>2021-07-30T08:45:42.000Z</Time>
            <Position>
              <LatitudeDegrees>42.1941359527409076690673828125</LatitudeDegrees>
              <LongitudeDegrees>-2.63401466421782970428466796875</LongitudeDegrees>
            </Position>
            <AltitudeMeters>885.5999755859375</AltitudeMeters>
            <DistanceMeters>237259.2289021</DistanceMeters>
          </Trackpoint>
          <Trackpoint>
            <Time>2021-07-30T08:45:44.000Z</Time>
            <Position>
              <LatitudeDegrees>42.1942819654941558837890625</LatitudeDegrees>
              <LongitudeDegrees>-2.6340357027947902679443359375</LongitudeDegrees>
            </Position>
            <AltitudeMeters>884.20001220703125</AltitudeMeters>
            <DistanceMeters>237275.57266823</DistanceMeters>
          </Trackpoint>
          <Trackpoint>
            <Time>2021-07-30T08:45:46.000Z</Time>
            <Position>
              <LatitudeDegrees>42.194436527788639068603515625</LatitudeDegrees>
              <LongitudeDegrees>-2.6340593397617340087890625</LongitudeDegrees>
            </Position>
            <AltitudeMeters>883.20001220703125</AltitudeMeters>
            <DistanceMeters>237292.88553418</DistanceMeters>
          </Trackpoint>
          <Trackpoint>
            <Time>2021-07-30T08:45:48.000Z</Time>
            <Position>
              <LatitudeDegrees>42.1945996396243572235107421875</LatitudeDegrees>
              <LongitudeDegrees>-2.63407568447291851043701171875</LongitudeDegrees>
            </Position>
            <AltitudeMeters>881.79998779296875</AltitudeMeters>
            <DistanceMeters>237311.09003377</DistanceMeters>
          </Trackpoint>
          <Trackpoint>
            <Time>2021-07-30T08:45:50.000Z</Time>
            <Position>
              <LatitudeDegrees>42.19477239064872264862060546875</LatitudeDegrees>
              <LongitudeDegrees>-2.6340826414525508880615234375</LongitudeDegrees>
            </Position>
            <AltitudeMeters>880.20001220703125</AltitudeMeters>
            <DistanceMeters>237330.32607917</DistanceMeters>
          </Trackpoint>
          <Trackpoint>
            <Time>2021-07-30T08:45:52.000Z</Time>
            <Position>
              <LatitudeDegrees>42.19494924880564212799072265625</LatitudeDegrees>
              <LongitudeDegrees>-2.6340548135340213775634765625</LongitudeDegrees>
            </Position>
            <AltitudeMeters>878.79998779296875</AltitudeMeters>
            <DistanceMeters>237350.14410493</DistanceMeters>
          </Trackpoint>
          <Trackpoint>
            <Time>2021-07-30T08:45:53.000Z</Time>
            <Position>
              <LatitudeDegrees>42.1950328163802623748779296875</LatitudeDegrees>
              <LongitudeDegrees>-2.6340256445109844207763671875</LongitudeDegrees>
            </Position>
            <AltitudeMeters>877.79998779296875</AltitudeMeters>
            <DistanceMeters>237359.75167701</DistanceMeters>
          </Trackpoint>
          <Trackpoint>
            <Time>2021-07-30T08:45:54.000Z</Time>
            <Position>
              <LatitudeDegrees>42.19511504285037517547607421875</LatitudeDegrees>
              <LongitudeDegrees>-2.63398616574704647064208984375</LongitudeDegrees>
            </Position>
            <AltitudeMeters>877.20001220703125</AltitudeMeters>
            <DistanceMeters>237369.46487621</DistanceMeters>
          </Trackpoint>
          <Trackpoint>
            <Time>2021-07-30T08:45:57.000Z</Time>
            <Position>
              <LatitudeDegrees>42.19536029733717441558837890625</LatitudeDegrees>
              <LongitudeDegrees>-2.633845098316669464111328125</LongitudeDegrees>
            </Position>
            <AltitudeMeters>875.79998779296875</AltitudeMeters>
            <DistanceMeters>237399.13711043</DistanceMeters>
          </Trackpoint>
          <Trackpoint>
            <Time>2021-07-30T08:45:59.000Z</Time>
            <Position>
              <LatitudeDegrees>42.19553388655185699462890625</LatitudeDegrees>
              <LongitudeDegrees>-2.63376471586525440216064453125</LongitudeDegrees>
            </Position>
            <AltitudeMeters>874.4000244140625</AltitudeMeters>
            <DistanceMeters>237419.56321265</DistanceMeters>
          </Trackpoint>
          <Trackpoint>
            <Time>2021-07-30T08:46:02.000Z</Time>
            <Position>
              <LatitudeDegrees>42.19581509940326213836669921875</LatitudeDegrees>
              <LongitudeDegrees>-2.6337079703807830810546875</LongitudeDegrees>
            </Position>
            <AltitudeMeters>873</AltitudeMeters>
            <DistanceMeters>237451.21053274</DistanceMeters>
          </Trackpoint>
          <Trackpoint>
            <Time>2021-07-30T08:46:04.000Z</Time>
            <Position>
              <LatitudeDegrees>42.1960148401558399200439453125</LatitudeDegrees>
              <LongitudeDegrees>-2.63368056155741214752197265625</LongitudeDegrees>
            </Position>
            <AltitudeMeters>871.5999755859375</AltitudeMeters>
            <DistanceMeters>237473.55696931</DistanceMeters>
          </Trackpoint>
          <Trackpoint>
            <Time>2021-07-30T08:46:06.000Z</Time>
            <Position>
              <LatitudeDegrees>42.19621759839355945587158203125</LatitudeDegrees>
              <LongitudeDegrees>-2.6336551643908023834228515625</LongitudeDegrees>
            </Position>
            <AltitudeMeters>870.20001220703125</AltitudeMeters>
            <DistanceMeters>237496.22118931</DistanceMeters>
          </Trackpoint>
          <Trackpoint>
            <Time>2021-07-30T08:46:08.000Z</Time>
            <Position>
              <LatitudeDegrees>42.19642764888703823089599609375</LatitudeDegrees>
              <LongitudeDegrees>-2.63362859375774860382080078125</LongitudeDegrees>
            </Position>
            <AltitudeMeters>869</AltitudeMeters>
            <DistanceMeters>237519.70278844</DistanceMeters>
          </Trackpoint>
          <Trackpoint>
            <Time>2021-07-30T08:46:10.000Z</Time>
            <Position>
              <LatitudeDegrees>42.1966424770653247833251953125</LatitudeDegrees>
              <LongitudeDegrees>-2.6336058788001537322998046875</LongitudeDegrees>
            </Position>
            <AltitudeMeters>867.4000244140625</AltitudeMeters>
            <DistanceMeters>237543.68701158</DistanceMeters>
          </Trackpoint>
          <Trackpoint>
            <Time>2021-07-30T08:46:12.000Z</Time>
            <Position>
              <LatitudeDegrees>42.19685546122491359710693359375</LatitudeDegrees>
              <LongitudeDegrees>-2.6336006820201873779296875</LongitudeDegrees>
            </Position>
            <AltitudeMeters>865.5999755859375</AltitudeMeters>
            <DistanceMeters>237567.39651008</DistanceMeters>
          </Trackpoint>
          <Trackpoint>
            <Time>2021-07-30T08:46:14.000Z</Time>
            <Position>
              <LatitudeDegrees>42.1970692835748195648193359375</LatitudeDegrees>
              <LongitudeDegrees>-2.63362658210098743438720703125</LongitudeDegrees>
            </Position>
            <AltitudeMeters>864.20001220703125</AltitudeMeters>
            <DistanceMeters>237591.29095804</DistanceMeters>
          </Trackpoint>
          <Trackpoint>
            <Time>2021-07-30T08:46:16.000Z</Time>
            <Position>
              <LatitudeDegrees>42.19728964380919933319091796875</LatitudeDegrees>
              <LongitudeDegrees>-2.63366731815040111541748046875</LongitudeDegrees>
            </Position>
            <AltitudeMeters>862.79998779296875</AltitudeMeters>
            <DistanceMeters>237616.04646587</DistanceMeters>
          </Trackpoint>
          <Trackpoint>
            <Time>2021-07-30T08:46:17.000Z</Time>
            <Position>
              <LatitudeDegrees>42.197400368750095367431640625</LatitudeDegrees>
              <LongitudeDegrees>-2.63367704115808010101318359375</LongitudeDegrees>
            </Position>
            <AltitudeMeters>862.20001220703125</AltitudeMeters>
            <DistanceMeters>237628.39628332</DistanceMeters>
          </Trackpoint>
          <Trackpoint>
            <Time>2021-07-30T08:46:19.000Z</Time>
            <Position>
              <LatitudeDegrees>42.19761452637612819671630859375</LatitudeDegrees>
              <LongitudeDegrees>-2.63364083133637905120849609375</LongitudeDegrees>
            </Position>
            <AltitudeMeters>861.79998779296875</AltitudeMeters>
            <DistanceMeters>237652.41869089</DistanceMeters>
          </Trackpoint>
          <Trackpoint>
            <Time>2021-07-30T08:46:23.000Z</Time>
            <Position>
              <LatitudeDegrees>42.197915352880954742431640625</LatitudeDegrees>
              <LongitudeDegrees>-2.63340211473405361175537109375</LongitudeDegrees>
            </Position>
            <AltitudeMeters>862.79998779296875</AltitudeMeters>
            <DistanceMeters>237691.25847011</DistanceMeters>
          </Trackpoint>
          <Trackpoint>
            <Time>2021-07-30T08:46:24.000Z</Time>
            <Position>
              <LatitudeDegrees>42.19797343946993350982666015625</LatitudeDegrees>
              <LongitudeDegrees>-2.63334008865058422088623046875</LongitudeDegrees>
            </Position>
            <AltitudeMeters>864</AltitudeMeters>
            <DistanceMeters>237699.5017295</DistanceMeters>
          </Trackpoint>
          <Trackpoint>
            <Time>2021-07-30T08:46:26.000Z</Time>
            <Position>
              <LatitudeDegrees>42.19807888381183147430419921875</LatitudeDegrees>
              <LongitudeDegrees>-2.6332276873290538787841796875</LongitudeDegrees>
            </Position>
            <AltitudeMeters>865.5999755859375</AltitudeMeters>
            <DistanceMeters>237714.45598786</DistanceMeters>
          </Trackpoint>
          <Trackpoint>
            <Time>2021-07-30T08:46:28.000Z</Time>
            <Position>
              <LatitudeDegrees>42.19817460514605045318603515625</LatitudeDegrees>
              <LongitudeDegrees>-2.633139006793498992919921875</LongitudeDegrees>
            </Position>
            <AltitudeMeters>866.79998779296875</AltitudeMeters>
            <DistanceMeters>237727.37822348</DistanceMeters>
          </Trackpoint>
          <Trackpoint>
            <Time>2021-07-30T08:46:30.000Z</Time>
            <Position>
              <LatitudeDegrees>42.1982615254819393157958984375</LatitudeDegrees>
              <LongitudeDegrees>-2.63306356966495513916015625</LongitudeDegrees>
            </Position>
            <AltitudeMeters>868</AltitudeMeters>
            <DistanceMeters>237738.87998943</DistanceMeters>
          </Trackpoint>
          <Trackpoint>
            <Time>2021-07-30T08:46:33.000Z</Time>
            <Position>
              <LatitudeDegrees>42.1983805485069751739501953125</LatitudeDegrees>
              <LongitudeDegrees>-2.6329655013978481292724609375</LongitudeDegrees>
            </Position>
            <AltitudeMeters>869.20001220703125</AltitudeMeters>
            <DistanceMeters>237754.40050228</DistanceMeters>
          </Trackpoint>
          <Trackpoint>
            <Time>2021-07-30T08:46:45.000Z</Time>
            <Position>
              <LatitudeDegrees>42.19886275939643383026123046875</LatitudeDegrees>
              <LongitudeDegrees>-2.632633745670318603515625</LongitudeDegrees>
            </Position>
            <AltitudeMeters>868.79998779296875</AltitudeMeters>
            <DistanceMeters>237814.64069402</DistanceMeters>
          </Trackpoint>
          <Trackpoint>
            <Time>2021-07-30T08:46:50.000Z</Time>
            <Position>
              <LatitudeDegrees>42.19906375743448734283447265625</LatitudeDegrees>
              <LongitudeDegrees>-2.63251011259853839874267578125</LongitudeDegrees>
            </Position>
            <AltitudeMeters>868.20001220703125</AltitudeMeters>
            <DistanceMeters>237839.22526391</DistanceMeters>
          </Trackpoint>
          <Trackpoint>
            <Time>2021-07-30T08:47:02.000Z</Time>
            <Position>
              <LatitudeDegrees>42.199583686888217926025390625</LatitudeDegrees>
              <LongitudeDegrees>-2.632193863391876220703125</LongitudeDegrees>
            </Position>
            <AltitudeMeters>868</AltitudeMeters>
            <DistanceMeters>237902.69805883</DistanceMeters>
          </Trackpoint>
          <Trackpoint>
            <Time>2021-07-30T08:47:06.000Z</Time>
            <Position>
              <LatitudeDegrees>42.199787534773349761962890625</LatitudeDegrees>
              <LongitudeDegrees>-2.632081210613250732421875</LongitudeDegrees>
            </Position>
            <AltitudeMeters>867.20001220703125</AltitudeMeters>
            <DistanceMeters>237927.21458282</DistanceMeters>
          </Trackpoint>
          <Trackpoint>
            <Time>2021-07-30T08:47:17.000Z</Time>
            <Position>
              <LatitudeDegrees>42.20026421360671520233154296875</LatitudeDegrees>
              <LongitudeDegrees>-2.6316394843161106109619140625</LongitudeDegrees>
            </Position>
            <AltitudeMeters>866.79998779296875</AltitudeMeters>
            <DistanceMeters>237991.56836887</DistanceMeters>
          </Trackpoint>
          <Trackpoint>
            <Time>2021-07-30T08:47:30.000Z</Time>
            <Position>
              <LatitudeDegrees>42.2007620148360729217529296875</LatitudeDegrees>
              <LongitudeDegrees>-2.63126380741596221923828125</LongitudeDegrees>
            </Position>
            <AltitudeMeters>867.20001220703125</AltitudeMeters>
            <DistanceMeters>238055.04550278</DistanceMeters>
          </Trackpoint>
          <Trackpoint>
            <Time>2021-07-30T08:47:43.000Z</Time>
            <Position>
              <LatitudeDegrees>42.2012930922210216522216796875</LatitudeDegrees>
              <LongitudeDegrees>-2.63100304640829563140869140625</LongitudeDegrees>
            </Position>
            <AltitudeMeters>867</AltitudeMeters>
            <DistanceMeters>238117.94428729</DistanceMeters>
          </Trackpoint>
          <Trackpoint>
            <Time>2021-07-30T08:47:56.000Z</Time>
            <Position>
              <LatitudeDegrees>42.20180279575288295745849609375</LatitudeDegrees>
              <LongitudeDegrees>-2.63075376860797405242919921875</LongitudeDegrees>
            </Position>
            <AltitudeMeters>867.20001220703125</AltitudeMeters>
            <DistanceMeters>238178.28363201</DistanceMeters>
          </Trackpoint>
          <Trackpoint>
            <Time>2021-07-30T08:48:10.000Z</Time>
            <Position>
              <LatitudeDegrees>42.2023585997521877288818359375</LatitudeDegrees>
              <LongitudeDegrees>-2.630532570183277130126953125</LongitudeDegrees>
            </Position>
            <AltitudeMeters>867.79998779296875</AltitudeMeters>
            <DistanceMeters>238242.77814474</DistanceMeters>
          </Trackpoint>
          <Trackpoint>
            <Time>2021-07-30T08:48:20.000Z</Time>
            <Position>
              <LatitudeDegrees>42.202748358249664306640625</LatitudeDegrees>
              <LongitudeDegrees>-2.630467526614665985107421875</LongitudeDegrees>
            </Position>
            <AltitudeMeters>868.5999755859375</AltitudeMeters>
            <DistanceMeters>238286.48929715</DistanceMeters>
          </Trackpoint>
          <Trackpoint>
            <Time>2021-07-30T08:48:30.000Z</Time>
            <Position>
              <LatitudeDegrees>42.2031280584633350372314453125</LatitudeDegrees>
              <LongitudeDegrees>-2.6305055804550647735595703125</LongitudeDegrees>
            </Position>
            <AltitudeMeters>869.5999755859375</AltitudeMeters>
            <DistanceMeters>238328.86695025</DistanceMeters>
          </Trackpoint>
          <Trackpoint>
            <Time>2021-07-30T08:48:45.000Z</Time>
            <Position>
              <LatitudeDegrees>42.20369241200387477874755859375</LatitudeDegrees>
              <LongitudeDegrees>-2.6306323148310184478759765625</LongitudeDegrees>
            </Position>
            <AltitudeMeters>870.20001220703125</AltitudeMeters>
            <DistanceMeters>238392.5437836</DistanceMeters>
          </Trackpoint>
          <Trackpoint>
            <Time>2021-07-30T08:48:48.000Z</Time>
            <Position>
              <LatitudeDegrees>42.2037979401648044586181640625</LatitudeDegrees>
              <LongitudeDegrees>-2.63066223822534084320068359375</LongitudeDegrees>
            </Position>
            <AltitudeMeters>870.5999755859375</AltitudeMeters>
            <DistanceMeters>238404.54577425</DistanceMeters>
          </Trackpoint>
          <Trackpoint>
            <Time>2021-07-30T08:49:02.000Z</Time>
            <Position>
              <LatitudeDegrees>42.20427243970334529876708984375</LatitudeDegrees>
              <LongitudeDegrees>-2.630792073905467987060546875</LongitudeDegrees>
            </Position>
            <AltitudeMeters>871.79998779296875</AltitudeMeters>
            <DistanceMeters>238458.43254092</DistanceMeters>
          </Trackpoint>
          <Trackpoint>
            <Time>2021-07-30T08:49:10.000Z</Time>
            <Position>
              <LatitudeDegrees>42.204521633684635162353515625</LatitudeDegrees>
              <LongitudeDegrees>-2.6308995299041271209716796875</LongitudeDegrees>
            </Position>
            <AltitudeMeters>872.79998779296875</AltitudeMeters>
            <DistanceMeters>238487.54904254</DistanceMeters>
          </Trackpoint>
          <Trackpoint>
            <Time>2021-07-30T08:49:16.000Z</Time>
            <Position>
              <LatitudeDegrees>42.20472238026559352874755859375</LatitudeDegrees>
              <LongitudeDegrees>-2.6310457102954387664794921875</LongitudeDegrees>
            </Position>
            <AltitudeMeters>872.4000244140625</AltitudeMeters>
            <DistanceMeters>238512.93558535</DistanceMeters>
          </Trackpoint>
          <Trackpoint>
            <Time>2021-07-30T08:49:21.000Z</Time>
            <Position>
              <LatitudeDegrees>42.2048892639577388763427734375</LatitudeDegrees>
              <LongitudeDegrees>-2.63123564422130584716796875</LongitudeDegrees>
            </Position>
            <AltitudeMeters>871.79998779296875</AltitudeMeters>
            <DistanceMeters>238537.23010853</DistanceMeters>
          </Trackpoint>
          <Trackpoint>
            <Time>2021-07-30T08:49:27.000Z</Time>
            <Position>
              <LatitudeDegrees>42.20506570301949977874755859375</LatitudeDegrees>
              <LongitudeDegrees>-2.63155055232346057891845703125</LongitudeDegrees>
            </Position>
            <AltitudeMeters>870.5999755859375</AltitudeMeters>
            <DistanceMeters>238569.78379774</DistanceMeters>
          </Trackpoint>
          <Trackpoint>
            <Time>2021-07-30T08:49:38.000Z</Time>
            <Position>
              <LatitudeDegrees>42.2053888253867626190185546875</LatitudeDegrees>
              <LongitudeDegrees>-2.6321480982005596160888671875</LongitudeDegrees>
            </Position>
            <AltitudeMeters>870.4000244140625</AltitudeMeters>
            <DistanceMeters>238630.77962404</DistanceMeters>
          </Trackpoint>
          <Trackpoint>
            <Time>2021-07-30T08:49:43.000Z</Time>
            <Position>
              <LatitudeDegrees>42.20557549037039279937744140625</LatitudeDegrees>
              <LongitudeDegrees>-2.63233778066933155059814453125</LongitudeDegrees>
            </Position>
            <AltitudeMeters>870.5999755859375</AltitudeMeters>
            <DistanceMeters>238656.78362843</DistanceMeters>
          </Trackpoint>
          <Trackpoint>
            <Time>2021-07-30T08:49:53.000Z</Time>
            <Position>
              <LatitudeDegrees>42.205963991582393646240234375</LatitudeDegrees>
              <LongitudeDegrees>-2.632522769272327423095703125</LongitudeDegrees>
            </Position>
            <AltitudeMeters>871.5999755859375</AltitudeMeters>
            <DistanceMeters>238702.6353721</DistanceMeters>
          </Trackpoint>
          <Trackpoint>
            <Time>2021-07-30T08:49:59.000Z</Time>
            <Position>
              <LatitudeDegrees>42.206173874437808990478515625</LatitudeDegrees>
              <LongitudeDegrees>-2.63257113285362720489501953125</LongitudeDegrees>
            </Position>
            <AltitudeMeters>872.79998779296875</AltitudeMeters>
            <DistanceMeters>238726.33363246</DistanceMeters>
          </Trackpoint>
          <Trackpoint>
            <Time>2021-07-30T08:50:05.000Z</Time>
            <Position>
              <LatitudeDegrees>42.206384427845478057861328125</LatitudeDegrees>
              <LongitudeDegrees>-2.63262008316814899444580078125</LongitudeDegrees>
            </Position>
            <AltitudeMeters>873.79998779296875</AltitudeMeters>
            <DistanceMeters>238750.11348627</DistanceMeters>
          </Trackpoint>
          <Trackpoint>
            <Time>2021-07-30T08:50:11.000Z</Time>
            <Position>
              <LatitudeDegrees>42.20658601261675357818603515625</LatitudeDegrees>
              <LongitudeDegrees>-2.63267339207231998443603515625</LongitudeDegrees>
            </Position>
            <AltitudeMeters>874.79998779296875</AltitudeMeters>
            <DistanceMeters>238772.97644769</DistanceMeters>
          </Trackpoint>
          <Trackpoint>
            <Time>2021-07-30T08:50:18.000Z</Time>
            <Position>
              <LatitudeDegrees>42.20681391656398773193359375</LatitudeDegrees>
              <LongitudeDegrees>-2.6327308081090450286865234375</LongitudeDegrees>
            </Position>
            <AltitudeMeters>876</AltitudeMeters>
            <DistanceMeters>238798.78070658</DistanceMeters>
          </Trackpoint>
          <Trackpoint>
            <Time>2021-07-30T08:50:32.000Z</Time>
            <Position>
              <LatitudeDegrees>42.207305766642093658447265625</LatitudeDegrees>
              <LongitudeDegrees>-2.6324176602065563201904296875</LongitudeDegrees>
            </Position>
            <AltitudeMeters>875.79998779296875</AltitudeMeters>
            <DistanceMeters>238859.3068308</DistanceMeters>
          </Trackpoint>
          <Trackpoint>
            <Time>2021-07-30T08:50:39.000Z</Time>
            <Position>
              <LatitudeDegrees>42.20753350295126438140869140625</LatitudeDegrees>
              <LongitudeDegrees>-2.63204072602093219757080078125</LongitudeDegrees>
            </Position>
            <AltitudeMeters>874.79998779296875</AltitudeMeters>
            <DistanceMeters>238899.40923016</DistanceMeters>
          </Trackpoint>
          <Trackpoint>
            <Time>2021-07-30T08:50:43.000Z</Time>
            <Position>
              <LatitudeDegrees>42.20770147629082202911376953125</LatitudeDegrees>
              <LongitudeDegrees>-2.63182112015783786773681640625</LongitudeDegrees>
            </Position>
            <AltitudeMeters>873.79998779296875</AltitudeMeters>
            <DistanceMeters>238925.4345821</DistanceMeters>
          </Trackpoint>
          <Trackpoint>
            <Time>2021-07-30T08:50:52.000Z</Time>
            <Position>
              <LatitudeDegrees>42.2081565298140048980712890625</LatitudeDegrees>
              <LongitudeDegrees>-2.6314782164990901947021484375</LongitudeDegrees>
            </Position>
            <AltitudeMeters>872.79998779296875</AltitudeMeters>
            <DistanceMeters>238983.43840906</DistanceMeters>
          </Trackpoint>
          <Trackpoint>
            <Time>2021-07-30T08:51:02.000Z</Time>
            <Position>
              <LatitudeDegrees>42.20866338349878787994384765625</LatitudeDegrees>
              <LongitudeDegrees>-2.63118661008775234222412109375</LongitudeDegrees>
            </Position>
            <AltitudeMeters>871.5999755859375</AltitudeMeters>
            <DistanceMeters>239044.76105556</DistanceMeters>
          </Trackpoint>
          <Trackpoint>
            <Time>2021-07-30T08:51:12.000Z</Time>
            <Position>
              <LatitudeDegrees>42.20920451916754245758056640625</LatitudeDegrees>
              <LongitudeDegrees>-2.63090196065604686737060546875</LongitudeDegrees>
            </Position>
            <AltitudeMeters>870.79998779296875</AltitudeMeters>
            <DistanceMeters>239109.40073851</DistanceMeters>
          </Trackpoint>
          <Trackpoint>
            <Time>2021-07-30T08:51:14.000Z</Time>
            <Position>
              <LatitudeDegrees>42.2093159146606922149658203125</LatitudeDegrees>
              <LongitudeDegrees>-2.630848400294780731201171875</LongitudeDegrees>
            </Position>
            <AltitudeMeters>870.4000244140625</AltitudeMeters>
            <DistanceMeters>239122.56185268</DistanceMeters>
          </Trackpoint>
          <Trackpoint>
            <Time>2021-07-30T08:51:24.000Z</Time>
            <Position>
              <LatitudeDegrees>42.2098473273217678070068359375</LatitudeDegrees>
              <LongitudeDegrees>-2.63061395846307277679443359375</LongitudeDegrees>
            </Position>
            <AltitudeMeters>870</AltitudeMeters>
            <DistanceMeters>239184.78686613</DistanceMeters>
          </Trackpoint>
          <Trackpoint>
            <Time>2021-07-30T08:51:36.000Z</Time>
            <Position>
              <LatitudeDegrees>42.21042207442224025726318359375</LatitudeDegrees>
              <LongitudeDegrees>-2.63045847415924072265625</LongitudeDegrees>
            </Position>
            <AltitudeMeters>870</AltitudeMeters>
            <DistanceMeters>239250.02891693</DistanceMeters>
          </Trackpoint>
          <Trackpoint>
            <Time>2021-07-30T08:51:48.000Z</Time>
            <Position>
              <LatitudeDegrees>42.21099640242755413055419921875</LatitudeDegrees>
              <LongitudeDegrees>-2.63047716580331325531005859375</LongitudeDegrees>
            </Position>
            <AltitudeMeters>869.5999755859375</AltitudeMeters>
            <DistanceMeters>239313.97137554</DistanceMeters>
          </Trackpoint>
          <Trackpoint>
            <Time>2021-07-30T08:51:50.000Z</Time>
            <Position>
              <LatitudeDegrees>42.21109262667596340179443359375</LatitudeDegrees>
              <LongitudeDegrees>-2.6304951868951320648193359375</LongitudeDegrees>
            </Position>
            <AltitudeMeters>869.4000244140625</AltitudeMeters>
            <DistanceMeters>239324.7835617</DistanceMeters>
          </Trackpoint>
          <Trackpoint>
            <Time>2021-07-30T08:51:59.000Z</Time>
            <Position>
              <LatitudeDegrees>42.2115337662398815155029296875</LatitudeDegrees>
              <LongitudeDegrees>-2.630622424185276031494140625</LongitudeDegrees>
            </Position>
            <AltitudeMeters>868.20001220703125</AltitudeMeters>
            <DistanceMeters>239374.99113105</DistanceMeters>
          </Trackpoint>
          <Trackpoint>
            <Time>2021-07-30T08:52:07.000Z</Time>
            <Position>
              <LatitudeDegrees>42.211950011551380157470703125</LatitudeDegrees>
              <LongitudeDegrees>-2.63075812719762325286865234375</LongitudeDegrees>
            </Position>
            <AltitudeMeters>867.20001220703125</AltitudeMeters>
            <DistanceMeters>239422.65155204</DistanceMeters>
          </Trackpoint>
          <Trackpoint>
            <Time>2021-07-30T08:52:16.000Z</Time>
            <Position>
              <LatitudeDegrees>42.21246759407222270965576171875</LatitudeDegrees>
              <LongitudeDegrees>-2.6309129409492015838623046875</LongitudeDegrees>
            </Position>
            <AltitudeMeters>866</AltitudeMeters>
            <DistanceMeters>239481.65633179</DistanceMeters>
          </Trackpoint>
          <Trackpoint>
            <Time>2021-07-30T08:52:20.000Z</Time>
            <Position>
              <LatitudeDegrees>42.21271838061511516571044921875</LatitudeDegrees>
              <LongitudeDegrees>-2.6309508271515369415283203125</LongitudeDegrees>
            </Position>
            <AltitudeMeters>864.5999755859375</AltitudeMeters>
            <DistanceMeters>239509.74343806</DistanceMeters>
          </Trackpoint>
          <Trackpoint>
            <Time>2021-07-30T08:52:22.000Z</Time>
            <Position>
              <LatitudeDegrees>42.2128386609256267547607421875</LatitudeDegrees>
              <LongitudeDegrees>-2.63095459900796413421630859375</LongitudeDegrees>
            </Position>
            <AltitudeMeters>864.5999755859375</AltitudeMeters>
            <DistanceMeters>239523.13445213</DistanceMeters>
          </Trackpoint>
          <Trackpoint>
            <Time>2021-07-30T08:52:33.000Z</Time>
            <Position>
              <LatitudeDegrees>42.21342715434730052947998046875</LatitudeDegrees>
              <LongitudeDegrees>-2.63086474500596523284912109375</LongitudeDegrees>
            </Position>
            <AltitudeMeters>865.4000244140625</AltitudeMeters>
            <DistanceMeters>239589.05245031</DistanceMeters>
          </Trackpoint>
          <Trackpoint>
            <Time>2021-07-30T08:52:44.000Z</Time>
            <Position>
              <LatitudeDegrees>42.21398991532623767852783203125</LatitudeDegrees>
              <LongitudeDegrees>-2.6307530142366886138916015625</LongitudeDegrees>
            </Position>
            <AltitudeMeters>864.79998779296875</AltitudeMeters>
            <DistanceMeters>239652.36249668</DistanceMeters>
          </Trackpoint>
          <Trackpoint>
            <Time>2021-07-30T08:52:50.000Z</Time>
            <Position>
              <LatitudeDegrees>42.21431697718799114227294921875</LatitudeDegrees>
              <LongitudeDegrees>-2.6306276209652423858642578125</LongitudeDegrees>
            </Position>
            <AltitudeMeters>863.5999755859375</AltitudeMeters>
            <DistanceMeters>239690.20437273</DistanceMeters>
          </Trackpoint>
          <Trackpoint>
            <Time>2021-07-30T08:52:53.000Z</Time>
            <Position>
              <LatitudeDegrees>42.21448947675526142120361328125</LatitudeDegrees>
              <LongitudeDegrees>-2.63052443973720073699951171875</LongitudeDegrees>
            </Position>
            <AltitudeMeters>862.4000244140625</AltitudeMeters>
            <DistanceMeters>239711.20355659</DistanceMeters>
          </Trackpoint>
          <Trackpoint>
            <Time>2021-07-30T08:52:56.000Z</Time>
            <Position>
              <LatitudeDegrees>42.21466549672186374664306640625</LatitudeDegrees>
              <LongitudeDegrees>-2.630405165255069732666015625</LongitudeDegrees>
            </Position>
            <AltitudeMeters>861.20001220703125</AltitudeMeters>
            <DistanceMeters>239733.12364709</DistanceMeters>
          </Trackpoint>
          <Trackpoint>
            <Time>2021-07-30T08:52:59.000Z</Time>
            <Position>
              <LatitudeDegrees>42.2148469649255275726318359375</LatitudeDegrees>
              <LongitudeDegrees>-2.6302574761211872100830078125</LongitudeDegrees>
            </Position>
            <AltitudeMeters>860.20001220703125</AltitudeMeters>
            <DistanceMeters>239756.70712581</DistanceMeters>
          </Trackpoint>
          <Trackpoint>
            <Time>2021-07-30T08:53:02.000Z</Time>
            <Position>
              <LatitudeDegrees>42.21504050306975841522216796875</LatitudeDegrees>
              <LongitudeDegrees>-2.63010249473154544830322265625</LongitudeDegrees>
            </Position>
            <AltitudeMeters>859</AltitudeMeters>
            <DistanceMeters>239781.75202888</DistanceMeters>
          </Trackpoint>
          <Trackpoint>
            <Time>2021-07-30T08:53:04.000Z</Time>
            <Position>
              <LatitudeDegrees>42.21517947502434253692626953125</LatitudeDegrees>
              <LongitudeDegrees>-2.63000316917896270751953125</LongitudeDegrees>
            </Position>
            <AltitudeMeters>858</AltitudeMeters>
            <DistanceMeters>239799.25346291</DistanceMeters>
          </Trackpoint>
          <Trackpoint>
            <Time>2021-07-30T08:53:06.000Z</Time>
            <Position>
              <LatitudeDegrees>42.21532884053885936737060546875</LatitudeDegrees>
              <LongitudeDegrees>-2.6299101300537586212158203125</LongitudeDegrees>
            </Position>
            <AltitudeMeters>856.79998779296875</AltitudeMeters>
            <DistanceMeters>239817.56208022</DistanceMeters>
          </Trackpoint>
          <Trackpoint>
            <Time>2021-07-30T08:53:09.000Z</Time>
            <Position>
              <LatitudeDegrees>42.2155661322176456451416015625</LatitudeDegrees>
              <LongitudeDegrees>-2.62977526523172855377197265625</LongitudeDegrees>
            </Position>
            <AltitudeMeters>855.20001220703125</AltitudeMeters>
            <DistanceMeters>239846.21748008</DistanceMeters>
          </Trackpoint>
          <Trackpoint>
            <Time>2021-07-30T08:53:11.000Z</Time>
            <Position>
              <LatitudeDegrees>42.2157351113855838775634765625</LatitudeDegrees>
              <LongitudeDegrees>-2.6296972297132015228271484375</LongitudeDegrees>
            </Position>
            <AltitudeMeters>853.79998779296875</AltitudeMeters>
            <DistanceMeters>239866.09465203</DistanceMeters>
          </Trackpoint>
          <Trackpoint>
            <Time>2021-07-30T08:53:13.000Z</Time>
            <Position>
              <LatitudeDegrees>42.2159134782850742340087890625</LatitudeDegrees>
              <LongitudeDegrees>-2.62964350171387195587158203125</LongitudeDegrees>
            </Position>
            <AltitudeMeters>852.4000244140625</AltitudeMeters>
            <DistanceMeters>239886.43525287</DistanceMeters>
          </Trackpoint>
          <Trackpoint>
            <Time>2021-07-30T08:53:15.000Z</Time>
            <Position>
              <LatitudeDegrees>42.216096706688404083251953125</LatitudeDegrees>
              <LongitudeDegrees>-2.6296070404350757598876953125</LongitudeDegrees>
            </Position>
            <AltitudeMeters>851.4000244140625</AltitudeMeters>
            <DistanceMeters>239907.04926115</DistanceMeters>
          </Trackpoint>
          <Trackpoint>
            <Time>2021-07-30T08:53:17.000Z</Time>
            <Position>
              <LatitudeDegrees>42.21628689207136631011962890625</LatitudeDegrees>
              <LongitudeDegrees>-2.62959069572389125823974609375</LongitudeDegrees>
            </Position>
            <AltitudeMeters>850.20001220703125</AltitudeMeters>
            <DistanceMeters>239928.26002418</DistanceMeters>
          </Trackpoint>
          <Trackpoint>
            <Time>2021-07-30T08:53:19.000Z</Time>
            <Position>
              <LatitudeDegrees>42.216485626995563507080078125</LatitudeDegrees>
              <LongitudeDegrees>-2.62958901934325695037841796875</LongitudeDegrees>
            </Position>
            <AltitudeMeters>849.20001220703125</AltitudeMeters>
            <DistanceMeters>239950.38003079</DistanceMeters>
          </Trackpoint>
          <Trackpoint>
            <Time>2021-07-30T08:53:21.000Z</Time>
            <Position>
              <LatitudeDegrees>42.2166856192052364349365234375</LatitudeDegrees>
              <LongitudeDegrees>-2.6295993290841579437255859375</LongitudeDegrees>
            </Position>
            <AltitudeMeters>848</AltitudeMeters>
            <DistanceMeters>239972.65584122</DistanceMeters>
          </Trackpoint>
          <Trackpoint>
            <Time>2021-07-30T08:53:23.000Z</Time>
            <Position>
              <LatitudeDegrees>42.21688904799520969390869140625</LatitudeDegrees>
              <LongitudeDegrees>-2.629611901938915252685546875</LongitudeDegrees>
            </Position>
            <AltitudeMeters>846.5999755859375</AltitudeMeters>
            <DistanceMeters>239995.32165489</DistanceMeters>
          </Trackpoint>
          <Trackpoint>
            <Time>2021-07-30T08:53:25.000Z</Time>
            <Position>
              <LatitudeDegrees>42.21709306351840496063232421875</LatitudeDegrees>
              <LongitudeDegrees>-2.629633359611034393310546875</LongitudeDegrees>
            </Position>
            <AltitudeMeters>845.4000244140625</AltitudeMeters>
            <DistanceMeters>240018.09795466</DistanceMeters>
          </Trackpoint>
          <Trackpoint>
            <Time>2021-07-30T08:53:28.000Z</Time>
            <Position>
              <LatitudeDegrees>42.21739749424159526824951171875</LatitudeDegrees>
              <LongitudeDegrees>-2.62969949282705783843994140625</LongitudeDegrees>
            </Position>
            <AltitudeMeters>844.20001220703125</AltitudeMeters>
            <DistanceMeters>240052.41746793</DistanceMeters>
          </Trackpoint>
          <Trackpoint>
            <Time>2021-07-30T08:53:31.000Z</Time>
            <Position>
              <LatitudeDegrees>42.21770259551703929901123046875</LatitudeDegrees>
              <LongitudeDegrees>-2.62980426661670207977294921875</LongitudeDegrees>
            </Position>
            <AltitudeMeters>842</AltitudeMeters>
            <DistanceMeters>240087.45695014</DistanceMeters>
          </Trackpoint>
          <Trackpoint>
            <Time>2021-07-30T08:53:32.000Z</Time>
            <Position>
              <LatitudeDegrees>42.21780234016478061676025390625</LatitudeDegrees>
              <LongitudeDegrees>-2.62985120527446269989013671875</LongitudeDegrees>
            </Position>
            <AltitudeMeters>840.79998779296875</AltitudeMeters>
            <DistanceMeters>240099.21379411</DistanceMeters>
          </Trackpoint>
          <Trackpoint>
            <Time>2021-07-30T08:53:34.000Z</Time>
            <Position>
              <LatitudeDegrees>42.21799847669899463653564453125</LatitudeDegrees>
              <LongitudeDegrees>-2.62995421886444091796875</LongitudeDegrees>
            </Position>
            <AltitudeMeters>839</AltitudeMeters>
            <DistanceMeters>240122.63744551</DistanceMeters>
          </Trackpoint>
          <Trackpoint>
            <Time>2021-07-30T08:53:37.000Z</Time>
            <Position>
              <LatitudeDegrees>42.21828128211200237274169921875</LatitudeDegrees>
              <LongitudeDegrees>-2.6301240362226963043212890625</LongitudeDegrees>
            </Position>
            <AltitudeMeters>837.79998779296875</AltitudeMeters>
            <DistanceMeters>240157.08643165</DistanceMeters>
          </Trackpoint>
          <Trackpoint>
            <Time>2021-07-30T08:53:40.000Z</Time>
            <Position>
              <LatitudeDegrees>42.21855134703218936920166015625</LatitudeDegrees>
              <LongitudeDegrees>-2.6303015649318695068359375</LongitudeDegrees>
            </Position>
            <AltitudeMeters>836.5999755859375</AltitudeMeters>
            <DistanceMeters>240190.51801285</DistanceMeters>
          </Trackpoint>
          <Trackpoint>
            <Time>2021-07-30T08:53:46.000Z</Time>
            <Position>
              <LatitudeDegrees>42.2190600447356700897216796875</LatitudeDegrees>
              <LongitudeDegrees>-2.63064933009445667266845703125</LongitudeDegrees>
            </Position>
            <AltitudeMeters>835.20001220703125</AltitudeMeters>
            <DistanceMeters>240253.98020801</DistanceMeters>
          </Trackpoint>
          <Trackpoint>
            <Time>2021-07-30T08:53:53.000Z</Time>
            <Position>
              <LatitudeDegrees>42.2196025215089321136474609375</LatitudeDegrees>
              <LongitudeDegrees>-2.63101511634886264801025390625</LongitudeDegrees>
            </Position>
            <AltitudeMeters>835</AltitudeMeters>
            <DistanceMeters>240321.46851239</DistanceMeters>
          </Trackpoint>
          <Trackpoint>
            <Time>2021-07-30T08:54:00.000Z</Time>
            <Position>
              <LatitudeDegrees>42.22008883953094482421875</LatitudeDegrees>
              <LongitudeDegrees>-2.63134318403899669647216796875</LongitudeDegrees>
            </Position>
            <AltitudeMeters>835</AltitudeMeters>
            <DistanceMeters>240381.97568612</DistanceMeters>
          </Trackpoint>
          <Trackpoint>
            <Time>2021-07-30T08:54:04.000Z</Time>
            <Position>
              <LatitudeDegrees>42.2203703038394451141357421875</LatitudeDegrees>
              <LongitudeDegrees>-2.6315332017838954925537109375</LongitudeDegrees>
            </Position>
            <AltitudeMeters>834.20001220703125</AltitudeMeters>
            <DistanceMeters>240417.00034679</DistanceMeters>
          </Trackpoint>
          <Trackpoint>
            <Time>2021-07-30T08:54:07.000Z</Time>
            <Position>
              <LatitudeDegrees>42.220598794519901275634765625</LatitudeDegrees>
              <LongitudeDegrees>-2.6316857524216175079345703125</LongitudeDegrees>
            </Position>
            <AltitudeMeters>832.4000244140625</AltitudeMeters>
            <DistanceMeters>240445.37055605</DistanceMeters>
          </Trackpoint>
          <Trackpoint>
            <Time>2021-07-30T08:54:09.000Z</Time>
            <Position>
              <LatitudeDegrees>42.2207555361092090606689453125</LatitudeDegrees>
              <LongitudeDegrees>-2.63179681263864040374755859375</LongitudeDegrees>
            </Position>
            <AltitudeMeters>831.20001220703125</AltitudeMeters>
            <DistanceMeters>240465.07204853</DistanceMeters>
          </Trackpoint>
          <Trackpoint>
            <Time>2021-07-30T08:54:11.000Z</Time>
            <Position>
              <LatitudeDegrees>42.2209184803068637847900390625</LatitudeDegrees>
              <LongitudeDegrees>-2.63190929777920246124267578125</LongitudeDegrees>
            </Position>
            <AltitudeMeters>829.79998779296875</AltitudeMeters>
            <DistanceMeters>240485.4405986</DistanceMeters>
          </Trackpoint>
          <Trackpoint>
            <Time>2021-07-30T08:54:13.000Z</Time>
            <Position>
              <LatitudeDegrees>42.221095003187656402587890625</LatitudeDegrees>
              <LongitudeDegrees>-2.63199982233345508575439453125</LongitudeDegrees>
            </Position>
            <AltitudeMeters>828.5999755859375</AltitudeMeters>
            <DistanceMeters>240506.45719108</DistanceMeters>
          </Trackpoint>
          <Trackpoint>
            <Time>2021-07-30T08:54:15.000Z</Time>
            <Position>
              <LatitudeDegrees>42.2212805785238742828369140625</LatitudeDegrees>
              <LongitudeDegrees>-2.63207140378654003143310546875</LongitudeDegrees>
            </Position>
            <AltitudeMeters>827.20001220703125</AltitudeMeters>
            <DistanceMeters>240527.9382736</DistanceMeters>
          </Trackpoint>
          <Trackpoint>
            <Time>2021-07-30T08:54:17.000Z</Time>
            <Position>
              <LatitudeDegrees>42.221474535763263702392578125</LatitudeDegrees>
              <LongitudeDegrees>-2.63211968354880809783935546875</LongitudeDegrees>
            </Position>
            <AltitudeMeters>825.5999755859375</AltitudeMeters>
            <DistanceMeters>240549.89006166</DistanceMeters>
          </Trackpoint>
          <Trackpoint>
            <Time>2021-07-30T08:54:19.000Z</Time>
            <Position>
              <LatitudeDegrees>42.22167762927711009979248046875</LatitudeDegrees>
              <LongitudeDegrees>-2.632136531174182891845703125</LongitudeDegrees>
            </Position>
            <AltitudeMeters>823.5999755859375</AltitudeMeters>
            <DistanceMeters>240572.53734212</DistanceMeters>
          </Trackpoint>
          <Trackpoint>
            <Time>2021-07-30T08:54:21.000Z</Time>
            <Position>
              <LatitudeDegrees>42.221884243190288543701171875</LatitudeDegrees>
              <LongitudeDegrees>-2.63211901299655437469482421875</LongitudeDegrees>
            </Position>
            <AltitudeMeters>821.79998779296875</AltitudeMeters>
            <DistanceMeters>240595.57931197</DistanceMeters>
          </Trackpoint>
          <Trackpoint>
            <Time>2021-07-30T08:54:24.000Z</Time>
            <Position>
              <LatitudeDegrees>42.22219236195087432861328125</LatitudeDegrees>
              <LongitudeDegrees>-2.63201641850173473358154296875</LongitudeDegrees>
            </Position>
            <AltitudeMeters>820.4000244140625</AltitudeMeters>
            <DistanceMeters>240630.90075576</DistanceMeters>
          </Trackpoint>
          <Trackpoint>
            <Time>2021-07-30T08:54:26.000Z</Time>
            <Position>
              <LatitudeDegrees>42.22239327616989612579345703125</LatitudeDegrees>
              <LongitudeDegrees>-2.63190887868404388427734375</LongitudeDegrees>
            </Position>
            <AltitudeMeters>819</AltitudeMeters>
            <DistanceMeters>240654.95546919</DistanceMeters>
          </Trackpoint>
          <Trackpoint>
            <Time>2021-07-30T08:54:28.000Z</Time>
            <Position>
              <LatitudeDegrees>42.22258036024868488311767578125</LatitudeDegrees>
              <LongitudeDegrees>-2.631761692464351654052734375</LongitudeDegrees>
            </Position>
            <AltitudeMeters>817.5999755859375</AltitudeMeters>
            <DistanceMeters>240679.05443881</DistanceMeters>
          </Trackpoint>
          <Trackpoint>
            <Time>2021-07-30T08:54:34.000Z</Time>
            <Position>
              <LatitudeDegrees>42.22301336936652660369873046875</LatitudeDegrees>
              <LongitudeDegrees>-2.63120186515152454376220703125</LongitudeDegrees>
            </Position>
            <AltitudeMeters>817</AltitudeMeters>
            <DistanceMeters>240745.7769305</DistanceMeters>
          </Trackpoint>
          <Trackpoint>
            <Time>2021-07-30T08:54:40.000Z</Time>
            <Position>
              <LatitudeDegrees>42.223379574716091156005859375</LatitudeDegrees>
              <LongitudeDegrees>-2.630659304559230804443359375</LongitudeDegrees>
            </Position>
            <AltitudeMeters>817</AltitudeMeters>
            <DistanceMeters>240806.28425347</DistanceMeters>
          </Trackpoint>
          <Trackpoint>
            <Time>2021-07-30T08:54:44.000Z</Time>
            <Position>
              <LatitudeDegrees>42.22361862659454345703125</LatitudeDegrees>
              <LongitudeDegrees>-2.63030164875090122222900390625</LongitudeDegrees>
            </Position>
            <AltitudeMeters>816.4000244140625</AltitudeMeters>
            <DistanceMeters>240845.99496122</DistanceMeters>
          </Trackpoint>
          <Trackpoint>
            <Time>2021-07-30T08:54:50.000Z</Time>
            <Position>
              <LatitudeDegrees>42.2239820659160614013671875</LatitudeDegrees>
              <LongitudeDegrees>-2.62976453639566898345947265625</LongitudeDegrees>
            </Position>
            <AltitudeMeters>815.20001220703125</AltitudeMeters>
            <DistanceMeters>240905.96284156</DistanceMeters>
          </Trackpoint>
          <Trackpoint>
            <Time>2021-07-30T08:54:53.000Z</Time>
            <Position>
              <LatitudeDegrees>42.224171161651611328125</LatitudeDegrees>
              <LongitudeDegrees>-2.62948860414326190948486328125</LongitudeDegrees>
            </Position>
            <AltitudeMeters>813.79998779296875</AltitudeMeters>
            <DistanceMeters>240936.95000259</DistanceMeters>
          </Trackpoint>
          <Trackpoint>
            <Time>2021-07-30T08:54:56.000Z</Time>
            <Position>
              <LatitudeDegrees>42.224359922111034393310546875</LatitudeDegrees>
              <LongitudeDegrees>-2.62920864857733249664306640625</LongitudeDegrees>
            </Position>
            <AltitudeMeters>812.5999755859375</AltitudeMeters>
            <DistanceMeters>240968.15611584</DistanceMeters>
          </Trackpoint>
          <Trackpoint>
            <Time>2021-07-30T08:54:59.000Z</Time>
            <Position>
              <LatitudeDegrees>42.22454868257045745849609375</LatitudeDegrees>
              <LongitudeDegrees>-2.6289267651736736297607421875</LongitudeDegrees>
            </Position>
            <AltitudeMeters>811.4000244140625</AltitudeMeters>
            <DistanceMeters>240999.47978079</DistanceMeters>
          </Trackpoint>
          <Trackpoint>
            <Time>2021-07-30T08:55:01.000Z</Time>
            <Position>
              <LatitudeDegrees>42.22467265091836452484130859375</LatitudeDegrees>
              <LongitudeDegrees>-2.628741525113582611083984375</LongitudeDegrees>
            </Position>
            <AltitudeMeters>810.4000244140625</AltitudeMeters>
            <DistanceMeters>241020.0587148</DistanceMeters>
          </Trackpoint>
          <Trackpoint>
            <Time>2021-07-30T08:55:03.000Z</Time>
            <Position>
              <LatitudeDegrees>42.22479469142854213714599609375</LatitudeDegrees>
              <LongitudeDegrees>-2.62856273911893367767333984375</LongitudeDegrees>
            </Position>
            <AltitudeMeters>809.4000244140625</AltitudeMeters>
            <DistanceMeters>241040.09989167</DistanceMeters>
          </Trackpoint>
          <Trackpoint>
            <Time>2021-07-30T08:55:05.000Z</Time>
            <Position>
              <LatitudeDegrees>42.22491807304322719573974609375</LatitudeDegrees>
              <LongitudeDegrees>-2.62840163893997669219970703125</LongitudeDegrees>
            </Position>
            <AltitudeMeters>808.20001220703125</AltitudeMeters>
            <DistanceMeters>241059.20191588</DistanceMeters>
          </Trackpoint>
          <Trackpoint>
            <Time>2021-07-30T08:55:10.000Z</Time>
            <Position>
              <LatitudeDegrees>42.225209511816501617431640625</LatitudeDegrees>
              <LongitudeDegrees>-2.62808513827621936798095703125</LongitudeDegrees>
            </Position>
            <AltitudeMeters>809.4000244140625</AltitudeMeters>
            <DistanceMeters>241100.82730486</DistanceMeters>
          </Trackpoint>
          <Trackpoint>
            <Time>2021-07-30T08:55:12.000Z</Time>
            <Position>
              <LatitudeDegrees>42.22531311213970184326171875</LatitudeDegrees>
              <LongitudeDegrees>-2.6280020736157894134521484375</LongitudeDegrees>
            </Position>
            <AltitudeMeters>810.5999755859375</AltitudeMeters>
            <DistanceMeters>241114.23752381</DistanceMeters>
          </Trackpoint>
          <Trackpoint>
            <Time>2021-07-30T08:55:16.000Z</Time>
            <Position>
              <LatitudeDegrees>42.225492484867572784423828125</LatitudeDegrees>
              <LongitudeDegrees>-2.62789428234100341796875</LongitudeDegrees>
            </Position>
            <AltitudeMeters>812</AltitudeMeters>
            <DistanceMeters>241136.08953613</DistanceMeters>
          </Trackpoint>
          <Trackpoint>
            <Time>2021-07-30T08:55:19.000Z</Time>
            <Position>
              <LatitudeDegrees>42.22561025060713291168212890625</LatitudeDegrees>
              <LongitudeDegrees>-2.62783954851329326629638671875</LongitudeDegrees>
            </Position>
            <AltitudeMeters>813.20001220703125</AltitudeMeters>
            <DistanceMeters>241149.95171586</DistanceMeters>
          </Trackpoint>
          <Trackpoint>
            <Time>2021-07-30T08:55:23.000Z</Time>
            <Position>
              <LatitudeDegrees>42.22575542517006397247314453125</LatitudeDegrees>
              <LongitudeDegrees>-2.62778976000845432281494140625</LongitudeDegrees>
            </Position>
            <AltitudeMeters>814.4000244140625</AltitudeMeters>
            <DistanceMeters>241166.62287937</DistanceMeters>
          </Trackpoint>
          <Trackpoint>
            <Time>2021-07-30T08:55:29.000Z</Time>
            <Position>
              <LatitudeDegrees>42.225967906415462493896484375</LatitudeDegrees>
              <LongitudeDegrees>-2.62775388546288013458251953125</LongitudeDegrees>
            </Position>
            <AltitudeMeters>815.4000244140625</AltitudeMeters>
            <DistanceMeters>241190.45659475</DistanceMeters>
          </Trackpoint>
          <Trackpoint>
            <Time>2021-07-30T08:55:34.000Z</Time>
            <Position>
              <LatitudeDegrees>42.22614736296236515045166015625</LatitudeDegrees>
              <LongitudeDegrees>-2.6277532987296581268310546875</LongitudeDegrees>
            </Position>
            <AltitudeMeters>816.5999755859375</AltitudeMeters>
            <DistanceMeters>241210.43074898</DistanceMeters>
          </Trackpoint>
          <Trackpoint>
            <Time>2021-07-30T08:55:40.000Z</Time>
            <Position>
              <LatitudeDegrees>42.22636529244482517242431640625</LatitudeDegrees>
              <LongitudeDegrees>-2.62778489850461483001708984375</LongitudeDegrees>
            </Position>
            <AltitudeMeters>817.5999755859375</AltitudeMeters>
            <DistanceMeters>241234.82616286</DistanceMeters>
          </Trackpoint>
          <Trackpoint>
            <Time>2021-07-30T08:55:54.000Z</Time>
            <Position>
              <LatitudeDegrees>42.22688865847885608673095703125</LatitudeDegrees>
              <LongitudeDegrees>-2.62805328704416751861572265625</LongitudeDegrees>
            </Position>
            <AltitudeMeters>818.20001220703125</AltitudeMeters>
            <DistanceMeters>241297.13630334</DistanceMeters>
          </Trackpoint>
          <Trackpoint>
            <Time>2021-07-30T08:56:06.000Z</Time>
            <Position>
              <LatitudeDegrees>42.22734086215496063232421875</LatitudeDegrees>
              <LongitudeDegrees>-2.62844304554164409637451171875</LongitudeDegrees>
            </Position>
            <AltitudeMeters>816.79998779296875</AltitudeMeters>
            <DistanceMeters>241356.8449992</DistanceMeters>
          </Trackpoint>
          <Trackpoint>
            <Time>2021-07-30T08:56:10.000Z</Time>
            <Position>
              <LatitudeDegrees>42.22753590904176235198974609375</LatitudeDegrees>
              <LongitudeDegrees>-2.62861168943345546722412109375</LongitudeDegrees>
            </Position>
            <AltitudeMeters>815.20001220703125</AltitudeMeters>
            <DistanceMeters>241382.62264853</DistanceMeters>
          </Trackpoint>
          <Trackpoint>
            <Time>2021-07-30T08:56:12.000Z</Time>
            <Position>
              <LatitudeDegrees>42.2276498191058635711669921875</LatitudeDegrees>
              <LongitudeDegrees>-2.62869131751358509063720703125</LongitudeDegrees>
            </Position>
            <AltitudeMeters>813.79998779296875</AltitudeMeters>
            <DistanceMeters>241396.89912763</DistanceMeters>
          </Trackpoint>
          <Trackpoint>
            <Time>2021-07-30T08:56:15.000Z</Time>
            <Position>
              <LatitudeDegrees>42.22784419544041156768798828125</LatitudeDegrees>
              <LongitudeDegrees>-2.6287943311035633087158203125</LongitudeDegrees>
            </Position>
            <AltitudeMeters>812.5999755859375</AltitudeMeters>
            <DistanceMeters>241420.13971696</DistanceMeters>
          </Trackpoint>
          <Trackpoint>
            <Time>2021-07-30T08:56:18.000Z</Time>
            <Position>
              <LatitudeDegrees>42.22806866280734539031982421875</LatitudeDegrees>
              <LongitudeDegrees>-2.6288741268217563629150390625</LongitudeDegrees>
            </Position>
            <AltitudeMeters>811.5999755859375</AltitudeMeters>
            <DistanceMeters>241445.97422838</DistanceMeters>
          </Trackpoint>
          <Trackpoint>
            <Time>2021-07-30T08:56:21.000Z</Time>
            <Position>
              <LatitudeDegrees>42.22832296974956989288330078125</LatitudeDegrees>
              <LongitudeDegrees>-2.62881402857601642608642578125</LongitudeDegrees>
            </Position>
            <AltitudeMeters>810</AltitudeMeters>
            <DistanceMeters>241474.70940177</DistanceMeters>
          </Trackpoint>
          <Trackpoint>
            <Time>2021-07-30T08:56:22.000Z</Time>
            <Position>
              <LatitudeDegrees>42.22840243019163608551025390625</LatitudeDegrees>
              <LongitudeDegrees>-2.628760971128940582275390625</LongitudeDegrees>
            </Position>
            <AltitudeMeters>808.79998779296875</AltitudeMeters>
            <DistanceMeters>241484.57571943</DistanceMeters>
          </Trackpoint>
          <Trackpoint>
            <Time>2021-07-30T08:56:24.000Z</Time>
            <Position>
              <LatitudeDegrees>42.22855280153453350067138671875</LatitudeDegrees>
              <LongitudeDegrees>-2.62862007133662700653076171875</LongitudeDegrees>
            </Position>
            <AltitudeMeters>807.4000244140625</AltitudeMeters>
            <DistanceMeters>241504.94648605</DistanceMeters>
          </Trackpoint>
          <Trackpoint>
            <Time>2021-07-30T08:56:25.000Z</Time>
            <Position>
              <LatitudeDegrees>42.2286241315305233001708984375</LatitudeDegrees>
              <LongitudeDegrees>-2.6285395212471485137939453125</LongitudeDegrees>
            </Position>
            <AltitudeMeters>806.79998779296875</AltitudeMeters>
            <DistanceMeters>241515.29523992</DistanceMeters>
          </Trackpoint>
          <Trackpoint>
            <Time>2021-07-30T08:56:26.000Z</Time>
            <Position>
              <LatitudeDegrees>42.22869537770748138427734375</LatitudeDegrees>
              <LongitudeDegrees>-2.6284587197005748748779296875</LongitudeDegrees>
            </Position>
            <AltitudeMeters>806.20001220703125</AltitudeMeters>
            <DistanceMeters>241525.65010002</DistanceMeters>
          </Trackpoint>
          <Trackpoint>
            <Time>2021-07-30T08:56:29.000Z</Time>
            <Position>
              <LatitudeDegrees>42.22891422919929027557373046875</LatitudeDegrees>
              <LongitudeDegrees>-2.6282189972698688507080078125</LongitudeDegrees>
            </Position>
            <AltitudeMeters>805.20001220703125</AltitudeMeters>
            <DistanceMeters>241557.01381069</DistanceMeters>
          </Trackpoint>
          <Trackpoint>
            <Time>2021-07-30T08:56:31.000Z</Time>
            <Position>
              <LatitudeDegrees>42.2290633432567119598388671875</LatitudeDegrees>
              <LongitudeDegrees>-2.62807005085051059722900390625</LongitudeDegrees>
            </Position>
            <AltitudeMeters>803.5999755859375</AltitudeMeters>
            <DistanceMeters>241577.6569291</DistanceMeters>
          </Trackpoint>
          <Trackpoint>
            <Time>2021-07-30T08:56:38.000Z</Time>
            <Position>
              <LatitudeDegrees>42.22958444617688655853271484375</LatitudeDegrees>
              <LongitudeDegrees>-2.62770392931997776031494140625</LongitudeDegrees>
            </Position>
            <AltitudeMeters>803.5999755859375</AltitudeMeters>
            <DistanceMeters>241643.0361373</DistanceMeters>
          </Trackpoint>
          <Trackpoint>
            <Time>2021-07-30T08:56:47.000Z</Time>
            <Position>
              <LatitudeDegrees>42.2301311977207660675048828125</LatitudeDegrees>
              <LongitudeDegrees>-2.62740402482450008392333984375</LongitudeDegrees>
            </Position>
            <AltitudeMeters>803.5999755859375</AltitudeMeters>
            <DistanceMeters>241708.71850329</DistanceMeters>
          </Trackpoint>
          <Trackpoint>
            <Time>2021-07-30T08:56:58.000Z</Time>
            <Position>
              <LatitudeDegrees>42.23057468421757221221923828125</LatitudeDegrees>
              <LongitudeDegrees>-2.62690613977611064910888671875</LongitudeDegrees>
            </Position>
            <AltitudeMeters>804.4000244140625</AltitudeMeters>
            <DistanceMeters>241772.90692108</DistanceMeters>
          </Trackpoint>
          <Trackpoint>
            <Time>2021-07-30T08:57:07.000Z</Time>
            <Position>
              <LatitudeDegrees>42.230871655046939849853515625</LatitudeDegrees>
              <LongitudeDegrees>-2.62653783895075321197509765625</LongitudeDegrees>
            </Position>
            <AltitudeMeters>804</AltitudeMeters>
            <DistanceMeters>241817.78247577</DistanceMeters>
          </Trackpoint>
          <Trackpoint>
            <Time>2021-07-30T08:57:13.000Z</Time>
            <Position>
              <LatitudeDegrees>42.23108648322522640228271484375</LatitudeDegrees>
              <LongitudeDegrees>-2.62635092251002788543701171875</LongitudeDegrees>
            </Position>
            <AltitudeMeters>805</AltitudeMeters>
            <DistanceMeters>241846.22579851</DistanceMeters>
          </Trackpoint>
          <Trackpoint>
            <Time>2021-07-30T08:57:26.000Z</Time>
            <Position>
              <LatitudeDegrees>42.23165242932736873626708984375</LatitudeDegrees>
              <LongitudeDegrees>-2.6261816918849945068359375</LongitudeDegrees>
            </Position>
            <AltitudeMeters>804.79998779296875</AltitudeMeters>
            <DistanceMeters>241910.74221957</DistanceMeters>
          </Trackpoint>
          <Trackpoint>
            <Time>2021-07-30T08:57:31.000Z</Time>
            <Position>
              <LatitudeDegrees>42.23190355114638805389404296875</LatitudeDegrees>
              <LongitudeDegrees>-2.6262407004833221435546875</LongitudeDegrees>
            </Position>
            <AltitudeMeters>804.20001220703125</AltitudeMeters>
            <DistanceMeters>241939.11242883</DistanceMeters>
          </Trackpoint>
          <Trackpoint>
            <Time>2021-07-30T08:57:35.000Z</Time>
            <Position>
              <LatitudeDegrees>42.23211527802050113677978515625</LatitudeDegrees>
              <LongitudeDegrees>-2.6263213343918323516845703125</LongitudeDegrees>
            </Position>
            <AltitudeMeters>802.79998779296875</AltitudeMeters>
            <DistanceMeters>241963.59688748</DistanceMeters>
          </Trackpoint>
          <Trackpoint>
            <Time>2021-07-30T08:57:45.000Z</Time>
            <Position>
              <LatitudeDegrees>42.2326776199042797088623046875</LatitudeDegrees>
              <LongitudeDegrees>-2.626569271087646484375</LongitudeDegrees>
            </Position>
            <AltitudeMeters>802.20001220703125</AltitudeMeters>
            <DistanceMeters>242029.43744107</DistanceMeters>
          </Trackpoint>
          <Trackpoint>
            <Time>2021-07-30T08:57:46.000Z</Time>
            <Position>
              <LatitudeDegrees>42.2327386401593685150146484375</LatitudeDegrees>
              <LongitudeDegrees>-2.62657807208597660064697265625</LongitudeDegrees>
            </Position>
            <AltitudeMeters>802</AltitudeMeters>
            <DistanceMeters>242036.26747584</DistanceMeters>
          </Trackpoint>
          <Trackpoint>
            <Time>2021-07-30T08:57:47.000Z</Time>
            <Position>
              <LatitudeDegrees>42.23280024714767932891845703125</LatitudeDegrees>
              <LongitudeDegrees>-2.62657262384891510009765625</LongitudeDegrees>
            </Position>
            <AltitudeMeters>801.5999755859375</AltitudeMeters>
            <DistanceMeters>242043.13837386</DistanceMeters>
          </Trackpoint>
          <Trackpoint>
            <Time>2021-07-30T08:57:49.000Z</Time>
            <Position>
              <LatitudeDegrees>42.23291449248790740966796875</LatitudeDegrees>
              <LongitudeDegrees>-2.62651688419282436370849609375</LongitudeDegrees>
            </Position>
            <AltitudeMeters>800.4000244140625</AltitudeMeters>
            <DistanceMeters>242056.658241</DistanceMeters>
          </Trackpoint>
          <Trackpoint>
            <Time>2021-07-30T08:57:51.000Z</Time>
            <Position>
              <LatitudeDegrees>42.233001329004764556884765625</LatitudeDegrees>
              <LongitudeDegrees>-2.6264071650803089141845703125</LongitudeDegrees>
            </Position>
            <AltitudeMeters>799.20001220703125</AltitudeMeters>
            <DistanceMeters>242069.89358961</DistanceMeters>
          </Trackpoint>
          <Trackpoint>
            <Time>2021-07-30T08:57:53.000Z</Time>
            <Position>
              <LatitudeDegrees>42.23306243307888507843017578125</LatitudeDegrees>
              <LongitudeDegrees>-2.626279257237911224365234375</LongitudeDegrees>
            </Position>
            <AltitudeMeters>798.4000244140625</AltitudeMeters>
            <DistanceMeters>242082.43783579</DistanceMeters>
          </Trackpoint>
          <Trackpoint>
            <Time>2021-07-30T08:58:05.000Z</Time>
            <Position>
              <LatitudeDegrees>42.2333295643329620361328125</LatitudeDegrees>
              <LongitudeDegrees>-2.62563946656882762908935546875</LongitudeDegrees>
            </Position>
            <AltitudeMeters>799.20001220703125</AltitudeMeters>
            <DistanceMeters>242142.96813726</DistanceMeters>
          </Trackpoint>
          <Trackpoint>
            <Time>2021-07-30T08:58:11.000Z</Time>
            <Position>
              <LatitudeDegrees>42.2334314882755279541015625</LatitudeDegrees>
              <LongitudeDegrees>-2.62540242634713649749755859375</LongitudeDegrees>
            </Position>
            <AltitudeMeters>800.4000244140625</AltitudeMeters>
            <DistanceMeters>242165.55772822</DistanceMeters>
          </Trackpoint>
          <Trackpoint>
            <Time>2021-07-30T08:58:14.000Z</Time>
            <Position>
              <LatitudeDegrees>42.233481444418430328369140625</LatitudeDegrees>
              <LongitudeDegrees>-2.6252938807010650634765625</LongitudeDegrees>
            </Position>
            <AltitudeMeters>801.4000244140625</AltitudeMeters>
            <DistanceMeters>242176.09070118</DistanceMeters>
          </Trackpoint>
          <Trackpoint>
            <Time>2021-07-30T08:58:19.000Z</Time>
            <Position>
              <LatitudeDegrees>42.23356232978403568267822265625</LatitudeDegrees>
              <LongitudeDegrees>-2.625119872391223907470703125</LongitudeDegrees>
            </Position>
            <AltitudeMeters>802.4000244140625</AltitudeMeters>
            <DistanceMeters>242193.02226451</DistanceMeters>
          </Trackpoint>
          <Trackpoint>
            <Time>2021-07-30T08:58:24.000Z</Time>
            <Position>
              <LatitudeDegrees>42.2336447238922119140625</LatitudeDegrees>
              <LongitudeDegrees>-2.62496790848672389984130859375</LongitudeDegrees>
            </Position>
            <AltitudeMeters>803.5999755859375</AltitudeMeters>
            <DistanceMeters>242208.54394095</DistanceMeters>
          </Trackpoint>
          <Trackpoint>
            <Time>2021-07-30T08:58:31.000Z</Time>
            <Position>
              <LatitudeDegrees>42.2337779961526393890380859375</LatitudeDegrees>
              <LongitudeDegrees>-2.624779231846332550048828125</LongitudeDegrees>
            </Position>
            <AltitudeMeters>805.20001220703125</AltitudeMeters>
            <DistanceMeters>242230.03321919</DistanceMeters>
          </Trackpoint>
          <Trackpoint>
            <Time>2021-07-30T08:58:39.000Z</Time>
            <Position>
              <LatitudeDegrees>42.23394705913960933685302734375</LatitudeDegrees>
              <LongitudeDegrees>-2.62462458573281764984130859375</LongitudeDegrees>
            </Position>
            <AltitudeMeters>806.20001220703125</AltitudeMeters>
            <DistanceMeters>242252.75970775</DistanceMeters>
          </Trackpoint>
          <Trackpoint>
            <Time>2021-07-30T08:58:45.000Z</Time>
            <Position>
              <LatitudeDegrees>42.23407982848584651947021484375</LatitudeDegrees>
              <LongitudeDegrees>-2.624553255736827850341796875</LongitudeDegrees>
            </Position>
            <AltitudeMeters>807.4000244140625</AltitudeMeters>
            <DistanceMeters>242268.66327374</DistanceMeters>
          </Trackpoint>
          <Trackpoint>
            <Time>2021-07-30T08:58:52.000Z</Time>
            <Position>
              <LatitudeDegrees>42.234233133494853973388671875</LatitudeDegrees>
              <LongitudeDegrees>-2.62451545335352420806884765625</LongitudeDegrees>
            </Position>
            <AltitudeMeters>808.5999755859375</AltitudeMeters>
            <DistanceMeters>242286.00818731</DistanceMeters>
          </Trackpoint>
          <Trackpoint>
            <Time>2021-07-30T08:59:04.000Z</Time>
            <Position>
              <LatitudeDegrees>42.23450680263340473175048828125</LatitudeDegrees>
              <LongitudeDegrees>-2.62453950941562652587890625</LongitudeDegrees>
            </Position>
            <AltitudeMeters>809.79998779296875</AltitudeMeters>
            <DistanceMeters>242316.53262584</DistanceMeters>
          </Trackpoint>
          <Trackpoint>
            <Time>2021-07-30T08:59:23.000Z</Time>
            <Position>
              <LatitudeDegrees>42.23490695469081401824951171875</LatitudeDegrees>
              <LongitudeDegrees>-2.6247475482523441314697265625</LongitudeDegrees>
            </Position>
            <AltitudeMeters>811</AltitudeMeters>
            <DistanceMeters>242364.25609764</DistanceMeters>
          </Trackpoint>
          <Trackpoint>
            <Time>2021-07-30T08:59:28.000Z</Time>
            <Position>
              <LatitudeDegrees>42.23500686697661876678466796875</LatitudeDegrees>
              <LongitudeDegrees>-2.624809406697750091552734375</LongitudeDegrees>
            </Position>
            <AltitudeMeters>812.20001220703125</AltitudeMeters>
            <DistanceMeters>242376.48910327</DistanceMeters>
          </Trackpoint>
          <Trackpoint>
            <Time>2021-07-30T08:59:35.000Z</Time>
            <Position>
              <LatitudeDegrees>42.235143072903156280517578125</LatitudeDegrees>
              <LongitudeDegrees>-2.6249061338603496551513671875</LongitudeDegrees>
            </Position>
            <AltitudeMeters>813.20001220703125</AltitudeMeters>
            <DistanceMeters>242393.61712486</DistanceMeters>
          </Trackpoint>
          <Trackpoint>
            <Time>2021-07-30T08:59:44.000Z</Time>
            <Position>
              <LatitudeDegrees>42.235316075384616851806640625</LatitudeDegrees>
              <LongitudeDegrees>-2.6250254921615123748779296875</LongitudeDegrees>
            </Position>
            <AltitudeMeters>814.20001220703125</AltitudeMeters>
            <DistanceMeters>242415.23940915</DistanceMeters>
          </Trackpoint>
          <Trackpoint>
            <Time>2021-07-30T08:59:49.000Z</Time>
            <Position>
              <LatitudeDegrees>42.23540701903402805328369140625</LatitudeDegrees>
              <LongitudeDegrees>-2.62510235421359539031982421875</LongitudeDegrees>
            </Position>
            <AltitudeMeters>815.20001220703125</AltitudeMeters>
            <DistanceMeters>242427.18030137</DistanceMeters>
          </Trackpoint>
          <Trackpoint>
            <Time>2021-07-30T08:59:54.000Z</Time>
            <Position>
              <LatitudeDegrees>42.23549435846507549285888671875</LatitudeDegrees>
              <LongitudeDegrees>-2.62520461343228816986083984375</LongitudeDegrees>
            </Position>
            <AltitudeMeters>816.20001220703125</AltitudeMeters>
            <DistanceMeters>242440.04510767</DistanceMeters>
          </Trackpoint>
          <Trackpoint>
            <Time>2021-07-30T09:00:05.000Z</Time>
            <Position>
              <LatitudeDegrees>42.23565076477825641632080078125</LatitudeDegrees>
              <LongitudeDegrees>-2.62549160979688167572021484375</LongitudeDegrees>
            </Position>
            <AltitudeMeters>817.4000244140625</AltitudeMeters>
            <DistanceMeters>242469.41143754</DistanceMeters>
          </Trackpoint>
          <Trackpoint>
            <Time>2021-07-30T09:00:19.000Z</Time>
            <Position>
              <LatitudeDegrees>42.23580515943467617034912109375</LatitudeDegrees>
              <LongitudeDegrees>-2.6258881576359272003173828125</LongitudeDegrees>
            </Position>
            <AltitudeMeters>818.5999755859375</AltitudeMeters>
            <DistanceMeters>242506.33246515</DistanceMeters>
          </Trackpoint>
          <Trackpoint>
            <Time>2021-07-30T09:00:23.000Z</Time>
            <Position>
              <LatitudeDegrees>42.23584539256989955902099609375</LatitudeDegrees>
              <LongitudeDegrees>-2.625998966395854949951171875</LongitudeDegrees>
            </Position>
            <AltitudeMeters>819.5999755859375</AltitudeMeters>
            <DistanceMeters>242516.5025436</DistanceMeters>
          </Trackpoint>
          <Trackpoint>
            <Time>2021-07-30T09:00:31.000Z</Time>
            <Position>
              <LatitudeDegrees>42.235920913517475128173828125</LatitudeDegrees>
              <LongitudeDegrees>-2.6262298040091991424560546875</LongitudeDegrees>
            </Position>
            <AltitudeMeters>820.79998779296875</AltitudeMeters>
            <DistanceMeters>242537.29928713</DistanceMeters>
          </Trackpoint>
          <Trackpoint>
            <Time>2021-07-30T09:00:40.000Z</Time>
            <Position>
              <LatitudeDegrees>42.236009426414966583251953125</LatitudeDegrees>
              <LongitudeDegrees>-2.6264822669327259063720703125</LongitudeDegrees>
            </Position>
            <AltitudeMeters>821.79998779296875</AltitudeMeters>
            <DistanceMeters>242560.31851574</DistanceMeters>
          </Trackpoint>
          <Trackpoint>
            <Time>2021-07-30T09:00:49.000Z</Time>
            <Position>
              <LatitudeDegrees>42.23612098954617977142333984375</LatitudeDegrees>
              <LongitudeDegrees>-2.62670933268964290618896484375</LongitudeDegrees>
            </Position>
            <AltitudeMeters>823.20001220703125</AltitudeMeters>
            <DistanceMeters>242582.7754013</DistanceMeters>
          </Trackpoint>
          <Trackpoint>
            <Time>2021-07-30T09:00:53.000Z</Time>
            <Position>
              <LatitudeDegrees>42.23617848940193653106689453125</LatitudeDegrees>
              <LongitudeDegrees>-2.62679918669164180755615234375</LongitudeDegrees>
            </Position>
            <AltitudeMeters>824.4000244140625</AltitudeMeters>
            <DistanceMeters>242592.56223025</DistanceMeters>
          </Trackpoint>
          <Trackpoint>
            <Time>2021-07-30T09:01:01.000Z</Time>
            <Position>
              <LatitudeDegrees>42.23631377331912517547607421875</LatitudeDegrees>
              <LongitudeDegrees>-2.626953832805156707763671875</LongitudeDegrees>
            </Position>
            <AltitudeMeters>825.4000244140625</AltitudeMeters>
            <DistanceMeters>242612.2886867</DistanceMeters>
          </Trackpoint>
          <Trackpoint>
            <Time>2021-07-30T09:01:08.000Z</Time>
            <Position>
              <LatitudeDegrees>42.2364414297044277191162109375</LatitudeDegrees>
              <LongitudeDegrees>-2.6270740292966365814208984375</LongitudeDegrees>
            </Position>
            <AltitudeMeters>826.4000244140625</AltitudeMeters>
            <DistanceMeters>242629.60911394</DistanceMeters>
          </Trackpoint>
          <Trackpoint>
            <Time>2021-07-30T09:01:22.000Z</Time>
            <Position>
              <LatitudeDegrees>42.2366948984563350677490234375</LatitudeDegrees>
              <LongitudeDegrees>-2.6272788830101490020751953125</LongitudeDegrees>
            </Position>
            <AltitudeMeters>827.5999755859375</AltitudeMeters>
            <DistanceMeters>242662.48561056</DistanceMeters>
          </Trackpoint>
          <Trackpoint>
            <Time>2021-07-30T09:01:30.000Z</Time>
            <Position>
              <LatitudeDegrees>42.23684149794280529022216796875</LatitudeDegrees>
              <LongitudeDegrees>-2.627391703426837921142578125</LongitudeDegrees>
            </Position>
            <AltitudeMeters>828.79998779296875</AltitudeMeters>
            <DistanceMeters>242681.26535139</DistanceMeters>
          </Trackpoint>
          <Trackpoint>
            <Time>2021-07-30T09:01:38.000Z</Time>
            <Position>
              <LatitudeDegrees>42.236986421048641204833984375</LatitudeDegrees>
              <LongitudeDegrees>-2.62750561349093914031982421875</LongitudeDegrees>
            </Position>
            <AltitudeMeters>830</AltitudeMeters>
            <DistanceMeters>242699.92836584</DistanceMeters>
          </Trackpoint>
          <Trackpoint>
            <Time>2021-07-30T09:01:47.000Z</Time>
            <Position>
              <LatitudeDegrees>42.23714861087501049041748046875</LatitudeDegrees>
              <LongitudeDegrees>-2.62763771228492259979248046875</LongitudeDegrees>
            </Position>
            <AltitudeMeters>831</AltitudeMeters>
            <DistanceMeters>242721.0084527</DistanceMeters>
          </Trackpoint>
          <Trackpoint>
            <Time>2021-07-30T09:01:56.000Z</Time>
            <Position>
              <LatitudeDegrees>42.2373108007013797760009765625</LatitudeDegrees>
              <LongitudeDegrees>-2.62776327319443225860595703125</LongitudeDegrees>
            </Position>
            <AltitudeMeters>832.20001220703125</AltitudeMeters>
            <DistanceMeters>242741.81518057</DistanceMeters>
          </Trackpoint>
          <Trackpoint>
            <Time>2021-07-30T09:02:02.000Z</Time>
            <Position>
              <LatitudeDegrees>42.2374180890619754791259765625</LatitudeDegrees>
              <LongitudeDegrees>-2.62785027734935283660888671875</LongitudeDegrees>
            </Position>
            <AltitudeMeters>833.20001220703125</AltitudeMeters>
            <DistanceMeters>242755.74332231</DistanceMeters>
          </Trackpoint>
          <Trackpoint>
            <Time>2021-07-30T09:02:07.000Z</Time>
            <Position>
              <LatitudeDegrees>42.23750886507332324981689453125</LatitudeDegrees>
              <LongitudeDegrees>-2.62792319990694522857666015625</LongitudeDegrees>
            </Position>
            <AltitudeMeters>834.5999755859375</AltitudeMeters>
            <DistanceMeters>242767.49901412</DistanceMeters>
          </Trackpoint>
          <Trackpoint>
            <Time>2021-07-30T09:02:15.000Z</Time>
            <Position>
              <LatitudeDegrees>42.2376534529030323028564453125</LatitudeDegrees>
              <LongitudeDegrees>-2.62803970836102962493896484375</LongitudeDegrees>
            </Position>
            <AltitudeMeters>835.5999755859375</AltitudeMeters>
            <DistanceMeters>242786.2380798</DistanceMeters>
          </Trackpoint>
          <Trackpoint>
            <Time>2021-07-30T09:02:21.000Z</Time>
            <Position>
              <LatitudeDegrees>42.237764261662960052490234375</LatitudeDegrees>
              <LongitudeDegrees>-2.6281314902007579803466796875</LongitudeDegrees>
            </Position>
            <AltitudeMeters>836.5999755859375</AltitudeMeters>
            <DistanceMeters>242800.70587756</DistanceMeters>
          </Trackpoint>
          <Trackpoint>
            <Time>2021-07-30T09:02:30.000Z</Time>
            <Position>
              <LatitudeDegrees>42.23792620003223419189453125</LatitudeDegrees>
              <LongitudeDegrees>-2.628266103565692901611328125</LongitudeDegrees>
            </Position>
            <AltitudeMeters>837.79998779296875</AltitudeMeters>
            <DistanceMeters>242821.86975839</DistanceMeters>
          </Trackpoint>
          <Trackpoint>
            <Time>2021-07-30T09:02:38.000Z</Time>
            <Position>
              <LatitudeDegrees>42.2380685247480869293212890625</LatitudeDegrees>
              <LongitudeDegrees>-2.62838185764849185943603515625</LongitudeDegrees>
            </Position>
            <AltitudeMeters>838.79998779296875</AltitudeMeters>
            <DistanceMeters>242840.36118545</DistanceMeters>
          </Trackpoint>
          <Trackpoint>
            <Time>2021-07-30T09:02:53.000Z</Time>
            <Position>
              <LatitudeDegrees>42.23834336735308170318603515625</LatitudeDegrees>
              <LongitudeDegrees>-2.6285847835242748260498046875</LongitudeDegrees>
            </Position>
            <AltitudeMeters>840.20001220703125</AltitudeMeters>
            <DistanceMeters>242875.22368835</DistanceMeters>
          </Trackpoint>
          <Trackpoint>
            <Time>2021-07-30T09:03:06.000Z</Time>
            <Position>
              <LatitudeDegrees>42.238652408123016357421875</LatitudeDegrees>
              <LongitudeDegrees>-2.62860774993896484375</LongitudeDegrees>
            </Position>
            <AltitudeMeters>840.5999755859375</AltitudeMeters>
            <DistanceMeters>242909.67254343</DistanceMeters>
          </Trackpoint>
          <Trackpoint>
            <Time>2021-07-30T09:03:17.000Z</Time>
            <Position>
              <LatitudeDegrees>42.23892171867191791534423828125</LatitudeDegrees>
              <LongitudeDegrees>-2.62859744019806385040283203125</LongitudeDegrees>
            </Position>
            <AltitudeMeters>841.20001220703125</AltitudeMeters>
            <DistanceMeters>242939.65930688</DistanceMeters>
          </Trackpoint>
          <Trackpoint>
            <Time>2021-07-30T09:03:23.000Z</Time>
            <Position>
              <LatitudeDegrees>42.239026241004467010498046875</LatitudeDegrees>
              <LongitudeDegrees>-2.6285774074494838714599609375</LongitudeDegrees>
            </Position>
            <AltitudeMeters>842.5999755859375</AltitudeMeters>
            <DistanceMeters>242951.40923619</DistanceMeters>
          </Trackpoint>
          <Trackpoint>
            <Time>2021-07-30T09:03:30.000Z</Time>
            <Position>
              <LatitudeDegrees>42.239138893783092498779296875</LatitudeDegrees>
              <LongitudeDegrees>-2.62856843881309032440185546875</LongitudeDegrees>
            </Position>
            <AltitudeMeters>843.5999755859375</AltitudeMeters>
            <DistanceMeters>242963.96930926</DistanceMeters>
          </Trackpoint>
          <Trackpoint>
            <Time>2021-07-30T09:03:36.000Z</Time>
            <Position>
              <LatitudeDegrees>42.23923587240278720855712890625</LatitudeDegrees>
              <LongitudeDegrees>-2.6285603083670139312744140625</LongitudeDegrees>
            </Position>
            <AltitudeMeters>844.79998779296875</AltitudeMeters>
            <DistanceMeters>242974.78400066</DistanceMeters>
          </Trackpoint>
          <Trackpoint>
            <Time>2021-07-30T09:03:41.000Z</Time>
            <Position>
              <LatitudeDegrees>42.23931667394936084747314453125</LatitudeDegrees>
              <LongitudeDegrees>-2.6285586319863796234130859375</LongitudeDegrees>
            </Position>
            <AltitudeMeters>846</AltitudeMeters>
            <DistanceMeters>242983.77897064</DistanceMeters>
          </Trackpoint>
          <Trackpoint>
            <Time>2021-07-30T09:03:51.000Z</Time>
            <Position>
              <LatitudeDegrees>42.23947559483349323272705078125</LatitudeDegrees>
              <LongitudeDegrees>-2.62862795032560825347900390625</LongitudeDegrees>
            </Position>
            <AltitudeMeters>847</AltitudeMeters>
            <DistanceMeters>243002.36659434</DistanceMeters>
          </Trackpoint>
          <Trackpoint>
            <Time>2021-07-30T09:04:01.000Z</Time>
            <Position>
              <LatitudeDegrees>42.23959059454500675201416015625</LatitudeDegrees>
              <LongitudeDegrees>-2.62880916707217693328857421875</LongitudeDegrees>
            </Position>
            <AltitudeMeters>848.20001220703125</AltitudeMeters>
            <DistanceMeters>243022.03414006</DistanceMeters>
          </Trackpoint>
          <Trackpoint>
            <Time>2021-07-30T09:04:10.000Z</Time>
            <Position>
              <LatitudeDegrees>42.23960802890360355377197265625</LatitudeDegrees>
              <LongitudeDegrees>-2.6290229894220829010009765625</LongitudeDegrees>
            </Position>
            <AltitudeMeters>849.4000244140625</AltitudeMeters>
            <DistanceMeters>243039.75987022</DistanceMeters>
          </Trackpoint>
          <Trackpoint>
            <Time>2021-07-30T09:04:21.000Z</Time>
            <Position>
              <LatitudeDegrees>42.23955136723816394805908203125</LatitudeDegrees>
              <LongitudeDegrees>-2.62928408570587635040283203125</LongitudeDegrees>
            </Position>
            <AltitudeMeters>850.4000244140625</AltitudeMeters>
            <DistanceMeters>243062.1797314</DistanceMeters>
          </Trackpoint>
          <Trackpoint>
            <Time>2021-07-30T09:04:31.000Z</Time>
            <Position>
              <LatitudeDegrees>42.239487580955028533935546875</LatitudeDegrees>
              <LongitudeDegrees>-2.6294963993132114410400390625</LongitudeDegrees>
            </Position>
            <AltitudeMeters>851.4000244140625</AltitudeMeters>
            <DistanceMeters>243081.06041803</DistanceMeters>
          </Trackpoint>
          <Trackpoint>
            <Time>2021-07-30T09:04:37.000Z</Time>
            <Position>
              <LatitudeDegrees>42.239462435245513916015625</LatitudeDegrees>
              <LongitudeDegrees>-2.6296284981071949005126953125</LongitudeDegrees>
            </Position>
            <AltitudeMeters>852.5999755859375</AltitudeMeters>
            <DistanceMeters>243092.29971247</DistanceMeters>
          </Trackpoint>
          <Trackpoint>
            <Time>2021-07-30T09:04:44.000Z</Time>
            <Position>
              <LatitudeDegrees>42.23942689597606658935546875</LatitudeDegrees>
              <LongitudeDegrees>-2.62979001738131046295166015625</LongitudeDegrees>
            </Position>
            <AltitudeMeters>853.79998779296875</AltitudeMeters>
            <DistanceMeters>243106.18467311</DistanceMeters>
          </Trackpoint>
          <Trackpoint>
            <Time>2021-07-30T09:04:50.000Z</Time>
            <Position>
              <LatitudeDegrees>42.23940267227590084075927734375</LatitudeDegrees>
              <LongitudeDegrees>-2.62993016280233860015869140625</LongitudeDegrees>
            </Position>
            <AltitudeMeters>855</AltitudeMeters>
            <DistanceMeters>243118.04361111</DistanceMeters>
          </Trackpoint>
          <Trackpoint>
            <Time>2021-07-30T09:04:59.000Z</Time>
            <Position>
              <LatitudeDegrees>42.23937048576772212982177734375</LatitudeDegrees>
              <LongitudeDegrees>-2.6301247067749500274658203125</LongitudeDegrees>
            </Position>
            <AltitudeMeters>856</AltitudeMeters>
            <DistanceMeters>243134.46976964</DistanceMeters>
          </Trackpoint>
          <Trackpoint>
            <Time>2021-07-30T09:05:08.000Z</Time>
            <Position>
              <LatitudeDegrees>42.2393549792468547821044921875</LatitudeDegrees>
              <LongitudeDegrees>-2.630326710641384124755859375</LongitudeDegrees>
            </Position>
            <AltitudeMeters>857.20001220703125</AltitudeMeters>
            <DistanceMeters>243151.20472679</DistanceMeters>
          </Trackpoint>
          <Trackpoint>
            <Time>2021-07-30T09:05:14.000Z</Time>
            <Position>
              <LatitudeDegrees>42.23936386406421661376953125</LatitudeDegrees>
              <LongitudeDegrees>-2.63047012500464916229248046875</LongitudeDegrees>
            </Position>
            <AltitudeMeters>858.4000244140625</AltitudeMeters>
            <DistanceMeters>243163.0636648</DistanceMeters>
          </Trackpoint>
          <Trackpoint>
            <Time>2021-07-30T09:05:25.000Z</Time>
            <Position>
              <LatitudeDegrees>42.2393878363072872161865234375</LatitudeDegrees>
              <LongitudeDegrees>-2.63073147274553775787353515625</LongitudeDegrees>
            </Position>
            <AltitudeMeters>859.4000244140625</AltitudeMeters>
            <DistanceMeters>243184.76390504</DistanceMeters>
          </Trackpoint>
          <Trackpoint>
            <Time>2021-07-30T09:05:27.000Z</Time>
            <Position>
              <LatitudeDegrees>42.23939328454434871673583984375</LatitudeDegrees>
              <LongitudeDegrees>-2.63077757321298122406005859375</LongitudeDegrees>
            </Position>
            <AltitudeMeters>859.5999755859375</AltitudeMeters>
            <DistanceMeters>243188.61102023</DistanceMeters>
          </Trackpoint>
          <Trackpoint>
            <Time>2021-07-30T09:05:38.000Z</Time>
            <Position>
              <LatitudeDegrees>42.23943293094635009765625</LatitudeDegrees>
              <LongitudeDegrees>-2.6310286112129688262939453125</LongitudeDegrees>
            </Position>
            <AltitudeMeters>860.4000244140625</AltitudeMeters>
            <DistanceMeters>243209.76252389</DistanceMeters>
          </Trackpoint>
          <Trackpoint>
            <Time>2021-07-30T09:05:44.000Z</Time>
            <Position>
              <LatitudeDegrees>42.2394807077944278717041015625</LatitudeDegrees>
              <LongitudeDegrees>-2.6311553455889225006103515625</LongitudeDegrees>
            </Position>
            <AltitudeMeters>861.5999755859375</AltitudeMeters>
            <DistanceMeters>243221.48205727</DistanceMeters>
          </Trackpoint>
          <Trackpoint>
            <Time>2021-07-30T09:06:03.000Z</Time>
            <Position>
              <LatitudeDegrees>42.239752113819122314453125</LatitudeDegrees>
              <LongitudeDegrees>-2.63142951764166355133056640625</LongitudeDegrees>
            </Position>
            <AltitudeMeters>862.5999755859375</AltitudeMeters>
            <DistanceMeters>243259.20395259</DistanceMeters>
          </Trackpoint>
          <Trackpoint>
            <Time>2021-07-30T09:06:10.000Z</Time>
            <Position>
              <LatitudeDegrees>42.23988496698439121246337890625</LatitudeDegrees>
              <LongitudeDegrees>-2.6314577646553516387939453125</LongitudeDegrees>
            </Position>
            <AltitudeMeters>863.5999755859375</AltitudeMeters>
            <DistanceMeters>243274.17299788</DistanceMeters>
          </Trackpoint>
          <Trackpoint>
            <Time>2021-07-30T09:06:18.000Z</Time>
            <Position>
              <LatitudeDegrees>42.2400431334972381591796875</LatitudeDegrees>
              <LongitudeDegrees>-2.6314510591328144073486328125</LongitudeDegrees>
            </Position>
            <AltitudeMeters>864.5999755859375</AltitudeMeters>
            <DistanceMeters>243291.78603981</DistanceMeters>
          </Trackpoint>
          <Trackpoint>
            <Time>2021-07-30T09:06:42.000Z</Time>
            <Position>
              <LatitudeDegrees>42.2404885478317737579345703125</LatitudeDegrees>
              <LongitudeDegrees>-2.63103154487907886505126953125</LongitudeDegrees>
            </Position>
            <AltitudeMeters>865.79998779296875</AltitudeMeters>
            <DistanceMeters>243352.22355309</DistanceMeters>
          </Trackpoint>
          <Trackpoint>
            <Time>2021-07-30T09:07:02.000Z</Time>
            <Position>
              <LatitudeDegrees>42.24096841178834438323974609375</LatitudeDegrees>
              <LongitudeDegrees>-2.6306598074734210968017578125</LongitudeDegrees>
            </Position>
            <AltitudeMeters>863.5999755859375</AltitudeMeters>
            <DistanceMeters>243413.79367792</DistanceMeters>
          </Trackpoint>
          <Trackpoint>
            <Time>2021-07-30T09:07:17.000Z</Time>
            <Position>
              <LatitudeDegrees>42.24150694906711578369140625</LatitudeDegrees>
              <LongitudeDegrees>-2.63035026378929615020751953125</LongitudeDegrees>
            </Position>
            <AltitudeMeters>862.20001220703125</AltitudeMeters>
            <DistanceMeters>243478.9350971</DistanceMeters>
          </Trackpoint>
          <Trackpoint>
            <Time>2021-07-30T09:07:19.000Z</Time>
            <Position>
              <LatitudeDegrees>42.2415986470878124237060546875</LatitudeDegrees>
              <LongitudeDegrees>-2.63027315028011798858642578125</LongitudeDegrees>
            </Position>
            <AltitudeMeters>861.4000244140625</AltitudeMeters>
            <DistanceMeters>243490.95776043</DistanceMeters>
          </Trackpoint>
          <Trackpoint>
            <Time>2021-07-30T09:07:21.000Z</Time>
            <Position>
              <LatitudeDegrees>42.24169512279331684112548828125</LatitudeDegrees>
              <LongitudeDegrees>-2.63018664903938770294189453125</LongitudeDegrees>
            </Position>
            <AltitudeMeters>860.4000244140625</AltitudeMeters>
            <DistanceMeters>243503.84605963</DistanceMeters>
          </Trackpoint>
          <Trackpoint>
            <Time>2021-07-30T09:07:24.000Z</Time>
            <Position>
              <LatitudeDegrees>42.24184130318462848663330078125</LatitudeDegrees>
              <LongitudeDegrees>-2.63004147447645664215087890625</LongitudeDegrees>
            </Position>
            <AltitudeMeters>858.79998779296875</AltitudeMeters>
            <DistanceMeters>243524.04029847</DistanceMeters>
          </Trackpoint>
          <Trackpoint>
            <Time>2021-07-30T09:07:26.000Z</Time>
            <Position>
              <LatitudeDegrees>42.241939119994640350341796875</LatitudeDegrees>
              <LongitudeDegrees>-2.6299372874200344085693359375</LongitudeDegrees>
            </Position>
            <AltitudeMeters>857.4000244140625</AltitudeMeters>
            <DistanceMeters>243537.90508362</DistanceMeters>
          </Trackpoint>
          <Trackpoint>
            <Time>2021-07-30T09:07:28.000Z</Time>
            <Position>
              <LatitudeDegrees>42.24204012192785739898681640625</LatitudeDegrees>
              <LongitudeDegrees>-2.62983242981135845184326171875</LongitudeDegrees>
            </Position>
            <AltitudeMeters>856.4000244140625</AltitudeMeters>
            <DistanceMeters>243552.0835025</DistanceMeters>
          </Trackpoint>
          <Trackpoint>
            <Time>2021-07-30T09:07:32.000Z</Time>
            <Position>
              <LatitudeDegrees>42.2422400303184986114501953125</LatitudeDegrees>
              <LongitudeDegrees>-2.62961827218532562255859375</LongitudeDegrees>
            </Position>
            <AltitudeMeters>855.20001220703125</AltitudeMeters>
            <DistanceMeters>243580.48170785</DistanceMeters>
          </Trackpoint>
          <Trackpoint>
            <Time>2021-07-30T09:07:38.000Z</Time>
            <Position>
              <LatitudeDegrees>42.2425431199371814727783203125</LatitudeDegrees>
              <LongitudeDegrees>-2.6293056271970272064208984375</LongitudeDegrees>
            </Position>
            <AltitudeMeters>854</AltitudeMeters>
            <DistanceMeters>243622.92749364</DistanceMeters>
          </Trackpoint>
          <Trackpoint>
            <Time>2021-07-30T09:07:41.000Z</Time>
            <Position>
              <LatitudeDegrees>42.24270447157323360443115234375</LatitudeDegrees>
              <LongitudeDegrees>-2.6291508972644805908203125</LongitudeDegrees>
            </Position>
            <AltitudeMeters>852.5999755859375</AltitudeMeters>
            <DistanceMeters>243644.95176699</DistanceMeters>
          </Trackpoint>
          <Trackpoint>
            <Time>2021-07-30T09:07:43.000Z</Time>
            <Position>
              <LatitudeDegrees>42.2428170405328273773193359375</LatitudeDegrees>
              <LongitudeDegrees>-2.62905224226415157318115234375</LongitudeDegrees>
            </Position>
            <AltitudeMeters>851.4000244140625</AltitudeMeters>
            <DistanceMeters>243659.88668976</DistanceMeters>
          </Trackpoint>
          <Trackpoint>
            <Time>2021-07-30T09:07:48.000Z</Time>
            <Position>
              <LatitudeDegrees>42.24311317317187786102294921875</LatitudeDegrees>
              <LongitudeDegrees>-2.62879349291324615478515625</LongitudeDegrees>
            </Position>
            <AltitudeMeters>850.4000244140625</AltitudeMeters>
            <DistanceMeters>243699.14123516</DistanceMeters>
          </Trackpoint>
          <Trackpoint>
            <Time>2021-07-30T09:07:50.000Z</Time>
            <Position>
              <LatitudeDegrees>42.24323990754783153533935546875</LatitudeDegrees>
              <LongitudeDegrees>-2.62868645600974559783935546875</LongitudeDegrees>
            </Position>
            <AltitudeMeters>849.20001220703125</AltitudeMeters>
            <DistanceMeters>243715.77715362</DistanceMeters>
          </Trackpoint>
          <Trackpoint>
            <Time>2021-07-30T09:07:52.000Z</Time>
            <Position>
              <LatitudeDegrees>42.24336999468505382537841796875</LatitudeDegrees>
              <LongitudeDegrees>-2.62857849709689617156982421875</LongitudeDegrees>
            </Position>
            <AltitudeMeters>847.5999755859375</AltitudeMeters>
            <DistanceMeters>243732.77020468</DistanceMeters>
          </Trackpoint>
          <Trackpoint>
            <Time>2021-07-30T09:07:55.000Z</Time>
            <Position>
              <LatitudeDegrees>42.2435744293034076690673828125</LatitudeDegrees>
              <LongitudeDegrees>-2.6284168101847171783447265625</LongitudeDegrees>
            </Position>
            <AltitudeMeters>846.4000244140625</AltitudeMeters>
            <DistanceMeters>243759.1375067</DistanceMeters>
          </Trackpoint>
          <Trackpoint>
            <Time>2021-07-30T09:07:58.000Z</Time>
            <Position>
              <LatitudeDegrees>42.2437936998903751373291015625</LatitudeDegrees>
              <LongitudeDegrees>-2.628264091908931732177734375</LongitudeDegrees>
            </Position>
            <AltitudeMeters>845</AltitudeMeters>
            <DistanceMeters>243786.59595226</DistanceMeters>
          </Trackpoint>
          <Trackpoint>
            <Time>2021-07-30T09:08:01.000Z</Time>
            <Position>
              <LatitudeDegrees>42.24402009509503841400146484375</LatitudeDegrees>
              <LongitudeDegrees>-2.628113217651844024658203125</LongitudeDegrees>
            </Position>
            <AltitudeMeters>843.4000244140625</AltitudeMeters>
            <DistanceMeters>243814.69382679</DistanceMeters>
          </Trackpoint>
          <Trackpoint>
            <Time>2021-07-30T09:08:02.000Z</Time>
            <Position>
              <LatitudeDegrees>42.244098298251628875732421875</LatitudeDegrees>
              <LongitudeDegrees>-2.628063261508941650390625</LongitudeDegrees>
            </Position>
            <AltitudeMeters>842.20001220703125</AltitudeMeters>
            <DistanceMeters>243824.32205429</DistanceMeters>
          </Trackpoint>
          <Trackpoint>
            <Time>2021-07-30T09:08:04.000Z</Time>
            <Position>
              <LatitudeDegrees>42.244257219135761260986328125</LatitudeDegrees>
              <LongitudeDegrees>-2.6279571466147899627685546875</LongitudeDegrees>
            </Position>
            <AltitudeMeters>840.5999755859375</AltitudeMeters>
            <DistanceMeters>243844.05331669</DistanceMeters>
          </Trackpoint>
          <Trackpoint>
            <Time>2021-07-30T09:08:07.000Z</Time>
            <Position>
              <LatitudeDegrees>42.24451102316379547119140625</LatitudeDegrees>
              <LongitudeDegrees>-2.62781959958374500274658203125</LongitudeDegrees>
            </Position>
            <AltitudeMeters>839.5999755859375</AltitudeMeters>
            <DistanceMeters>243874.49080497</DistanceMeters>
          </Trackpoint>
          <Trackpoint>
            <Time>2021-07-30T09:08:09.000Z</Time>
            <Position>
              <LatitudeDegrees>42.24469668231904506683349609375</LatitudeDegrees>
              <LongitudeDegrees>-2.627759166061878204345703125</LongitudeDegrees>
            </Position>
            <AltitudeMeters>838.5999755859375</AltitudeMeters>
            <DistanceMeters>243895.74643516</DistanceMeters>
          </Trackpoint>
          <Trackpoint>
            <Time>2021-07-30T09:08:10.000Z</Time>
            <Position>
              <LatitudeDegrees>42.24479374475777149200439453125</LatitudeDegrees>
              <LongitudeDegrees>-2.6277452521026134490966796875</LongitudeDegrees>
            </Position>
            <AltitudeMeters>838.20001220703125</AltitudeMeters>
            <DistanceMeters>243906.61069442</DistanceMeters>
          </Trackpoint>
          <Trackpoint>
            <Time>2021-07-30T09:08:13.000Z</Time>
            <Position>
              <LatitudeDegrees>42.24509398452937602996826171875</LatitudeDegrees>
              <LongitudeDegrees>-2.6277387142181396484375</LongitudeDegrees>
            </Position>
            <AltitudeMeters>836.5999755859375</AltitudeMeters>
            <DistanceMeters>243940.0322802</DistanceMeters>
          </Trackpoint>
          <Trackpoint>
            <Time>2021-07-30T09:08:15.000Z</Time>
            <Position>
              <LatitudeDegrees>42.2453002631664276123046875</LatitudeDegrees>
              <LongitudeDegrees>-2.62774198316037654876708984375</LongitudeDegrees>
            </Position>
            <AltitudeMeters>835.20001220703125</AltitudeMeters>
            <DistanceMeters>243962.99298408</DistanceMeters>
          </Trackpoint>
          <Trackpoint>
            <Time>2021-07-30T09:08:17.000Z</Time>
            <Position>
              <LatitudeDegrees>42.2455123253166675567626953125</LatitudeDegrees>
              <LongitudeDegrees>-2.627746760845184326171875</LongitudeDegrees>
            </Position>
            <AltitudeMeters>833.20001220703125</AltitudeMeters>
            <DistanceMeters>243986.59904299</DistanceMeters>
          </Trackpoint>
          <Trackpoint>
            <Time>2021-07-30T09:08:18.000Z</Time>
            <Position>
              <LatitudeDegrees>42.24561952985823154449462890625</LatitudeDegrees>
              <LongitudeDegrees>-2.62775145471096038818359375</LongitudeDegrees>
            </Position>
            <AltitudeMeters>831.5999755859375</AltitudeMeters>
            <DistanceMeters>243998.53690991</DistanceMeters>
          </Trackpoint>
          <Trackpoint>
            <Time>2021-07-30T09:08:20.000Z</Time>
            <Position>
              <LatitudeDegrees>42.24583611823618412017822265625</LatitudeDegrees>
              <LongitudeDegrees>-2.62776008807122707366943359375</LongitudeDegrees>
            </Position>
            <AltitudeMeters>829.79998779296875</AltitudeMeters>
            <DistanceMeters>244022.65423322</DistanceMeters>
          </Trackpoint>
          <Trackpoint>
            <Time>2021-07-30T09:08:21.000Z</Time>
            <Position>
              <LatitudeDegrees>42.2459441609680652618408203125</LatitudeDegrees>
              <LongitudeDegrees>-2.6277633570134639739990234375</LongitudeDegrees>
            </Position>
            <AltitudeMeters>828.5999755859375</AltitudeMeters>
            <DistanceMeters>244034.6825284</DistanceMeters>
          </Trackpoint>
          <Trackpoint>
            <Time>2021-07-30T09:08:23.000Z</Time>
            <Position>
              <LatitudeDegrees>42.246159575879573822021484375</LatitudeDegrees>
              <LongitudeDegrees>-2.627773582935333251953125</LongitudeDegrees>
            </Position>
            <AltitudeMeters>826.79998779296875</AltitudeMeters>
            <DistanceMeters>244058.6733394</DistanceMeters>
          </Trackpoint>
          <Trackpoint>
            <Time>2021-07-30T09:08:25.000Z</Time>
            <Position>
              <LatitudeDegrees>42.24637356586754322052001953125</LatitudeDegrees>
              <LongitudeDegrees>-2.62778473086655139923095703125</LongitudeDegrees>
            </Position>
            <AltitudeMeters>825.5999755859375</AltitudeMeters>
            <DistanceMeters>244082.50838081</DistanceMeters>
          </Trackpoint>
          <Trackpoint>
            <Time>2021-07-30T09:08:28.000Z</Time>
            <Position>
              <LatitudeDegrees>42.246691323816776275634765625</LatitudeDegrees>
              <LongitudeDegrees>-2.627817504107952117919921875</LongitudeDegrees>
            </Position>
            <AltitudeMeters>824.20001220703125</AltitudeMeters>
            <DistanceMeters>244117.97843058</DistanceMeters>
          </Trackpoint>
          <Trackpoint>
            <Time>2021-07-30T09:08:30.000Z</Time>
            <Position>
              <LatitudeDegrees>42.2468986921012401580810546875</LatitudeDegrees>
              <LongitudeDegrees>-2.62786150909960269927978515625</LongitudeDegrees>
            </Position>
            <AltitudeMeters>822.4000244140625</AltitudeMeters>
            <DistanceMeters>244141.34186485</DistanceMeters>
          </Trackpoint>
          <Trackpoint>
            <Time>2021-07-30T09:08:31.000Z</Time>
            <Position>
              <LatitudeDegrees>42.2470007836818695068359375</LatitudeDegrees>
              <LongitudeDegrees>-2.6278884150087833404541015625</LongitudeDegrees>
            </Position>
            <AltitudeMeters>821</AltitudeMeters>
            <DistanceMeters>244152.91875539</DistanceMeters>
          </Trackpoint>
          <Trackpoint>
            <Time>2021-07-30T09:08:33.000Z</Time>
            <Position>
              <LatitudeDegrees>42.2472031228244304656982421875</LatitudeDegrees>
              <LongitudeDegrees>-2.62794532813131809234619140625</LongitudeDegrees>
            </Position>
            <AltitudeMeters>819.4000244140625</AltitudeMeters>
            <DistanceMeters>244175.92228729</DistanceMeters>
          </Trackpoint>
          <Trackpoint>
            <Time>2021-07-30T09:08:36.000Z</Time>
            <Position>
              <LatitudeDegrees>42.2475008480250835418701171875</LatitudeDegrees>
              <LongitudeDegrees>-2.62803534977138042449951171875</LongitudeDegrees>
            </Position>
            <AltitudeMeters>818.4000244140625</AltitudeMeters>
            <DistanceMeters>244209.87968179</DistanceMeters>
          </Trackpoint>
          <Trackpoint>
            <Time>2021-07-30T09:08:39.000Z</Time>
            <Position>
              <LatitudeDegrees>42.2477928735315799713134765625</LatitudeDegrees>
              <LongitudeDegrees>-2.62812755070626735687255859375</LongitudeDegrees>
            </Position>
            <AltitudeMeters>817</AltitudeMeters>
            <DistanceMeters>244243.25855073</DistanceMeters>
          </Trackpoint>
          <Trackpoint>
            <Time>2021-07-30T09:08:41.000Z</Time>
            <Position>
              <LatitudeDegrees>42.24798473529517650604248046875</LatitudeDegrees>
              <LongitudeDegrees>-2.62818060815334320068359375</LongitudeDegrees>
            </Position>
            <AltitudeMeters>815.5999755859375</AltitudeMeters>
            <DistanceMeters>244265.05594742</DistanceMeters>
          </Trackpoint>
          <Trackpoint>
            <Time>2021-07-30T09:08:43.000Z</Time>
            <Position>
              <LatitudeDegrees>42.248175255954265594482421875</LatitudeDegrees>
              <LongitudeDegrees>-2.6282126270234584808349609375</LongitudeDegrees>
            </Position>
            <AltitudeMeters>814.4000244140625</AltitudeMeters>
            <DistanceMeters>244286.42449546</DistanceMeters>
          </Trackpoint>
          <Trackpoint>
            <Time>2021-07-30T09:08:45.000Z</Time>
            <Position>
              <LatitudeDegrees>42.24836141802370548248291015625</LatitudeDegrees>
              <LongitudeDegrees>-2.62822411023080348968505859375</LongitudeDegrees>
            </Position>
            <AltitudeMeters>812.4000244140625</AltitudeMeters>
            <DistanceMeters>244307.16602149</DistanceMeters>
          </Trackpoint>
          <Trackpoint>
            <Time>2021-07-30T09:08:48.000Z</Time>
            <Position>
              <LatitudeDegrees>42.24863014183938503265380859375</LatitudeDegrees>
              <LongitudeDegrees>-2.62820483185350894927978515625</LongitudeDegrees>
            </Position>
            <AltitudeMeters>811.20001220703125</AltitudeMeters>
            <DistanceMeters>244337.11768211</DistanceMeters>
          </Trackpoint>
          <Trackpoint>
            <Time>2021-07-30T09:08:54.000Z</Time>
            <Position>
              <LatitudeDegrees>42.249142192304134368896484375</LatitudeDegrees>
              <LongitudeDegrees>-2.62809670530259609222412109375</LongitudeDegrees>
            </Position>
            <AltitudeMeters>809.79998779296875</AltitudeMeters>
            <DistanceMeters>244394.80195041</DistanceMeters>
          </Trackpoint>
          <Trackpoint>
            <Time>2021-07-30T09:08:56.000Z</Time>
            <Position>
              <LatitudeDegrees>42.24930823780596256256103515625</LatitudeDegrees>
              <LongitudeDegrees>-2.6280563883483409881591796875</LongitudeDegrees>
            </Position>
            <AltitudeMeters>808.5999755859375</AltitudeMeters>
            <DistanceMeters>244413.57952733</DistanceMeters>
          </Trackpoint>
          <Trackpoint>
            <Time>2021-07-30T09:08:58.000Z</Time>
            <Position>
              <LatitudeDegrees>42.24947310984134674072265625</LatitudeDegrees>
              <LongitudeDegrees>-2.628018669784069061279296875</LongitudeDegrees>
            </Position>
            <AltitudeMeters>807.4000244140625</AltitudeMeters>
            <DistanceMeters>244432.19142574</DistanceMeters>
          </Trackpoint>
          <Trackpoint>
            <Time>2021-07-30T09:09:01.000Z</Time>
            <Position>
              <LatitudeDegrees>42.24971115589141845703125</LatitudeDegrees>
              <LongitudeDegrees>-2.62796158902347087860107421875</LongitudeDegrees>
            </Position>
            <AltitudeMeters>806.4000244140625</AltitudeMeters>
            <DistanceMeters>244459.10060205</DistanceMeters>
          </Trackpoint>
          <Trackpoint>
            <Time>2021-07-30T09:09:08.000Z</Time>
            <Position>
              <LatitudeDegrees>42.250259332358837127685546875</LatitudeDegrees>
              <LongitudeDegrees>-2.6278327591717243194580078125</LongitudeDegrees>
            </Position>
            <AltitudeMeters>805.4000244140625</AltitudeMeters>
            <DistanceMeters>244521.03003017</DistanceMeters>
          </Trackpoint>
          <Trackpoint>
            <Time>2021-07-30T09:09:09.000Z</Time>
            <Position>
              <LatitudeDegrees>42.25033946335315704345703125</LatitudeDegrees>
              <LongitudeDegrees>-2.62781457044184207916259765625</LongitudeDegrees>
            </Position>
            <AltitudeMeters>804.79998779296875</AltitudeMeters>
            <DistanceMeters>244530.07355837</DistanceMeters>
          </Trackpoint>
          <Trackpoint>
            <Time>2021-07-30T09:09:14.000Z</Time>
            <Position>
              <LatitudeDegrees>42.25074674002826213836669921875</LatitudeDegrees>
              <LongitudeDegrees>-2.62772102840244770050048828125</LongitudeDegrees>
            </Position>
            <AltitudeMeters>803.5999755859375</AltitudeMeters>
            <DistanceMeters>244576.05470645</DistanceMeters>
          </Trackpoint>
          <Trackpoint>
            <Time>2021-07-30T09:09:16.000Z</Time>
            <Position>
              <LatitudeDegrees>42.2509169764816761016845703125</LatitudeDegrees>
              <LongitudeDegrees>-2.62768297456204891204833984375</LongitudeDegrees>
            </Position>
            <AltitudeMeters>802</AltitudeMeters>
            <DistanceMeters>244595.25997923</DistanceMeters>
          </Trackpoint>
          <Trackpoint>
            <Time>2021-07-30T09:09:19.000Z</Time>
            <Position>
              <LatitudeDegrees>42.25117941386997699737548828125</LatitudeDegrees>
              <LongitudeDegrees>-2.6276201941072940826416015625</LongitudeDegrees>
            </Position>
            <AltitudeMeters>800.4000244140625</AltitudeMeters>
            <DistanceMeters>244624.92414767</DistanceMeters>
          </Trackpoint>
          <Trackpoint>
            <Time>2021-07-30T09:09:22.000Z</Time>
            <Position>
              <LatitudeDegrees>42.2514507360756397247314453125</LatitudeDegrees>
              <LongitudeDegrees>-2.62755171395838260650634765625</LongitudeDegrees>
            </Position>
            <AltitudeMeters>798.5999755859375</AltitudeMeters>
            <DistanceMeters>244655.64527183</DistanceMeters>
          </Trackpoint>
          <Trackpoint>
            <Time>2021-07-30T09:09:23.000Z</Time>
            <Position>
              <LatitudeDegrees>42.25154100917279720306396484375</LatitudeDegrees>
              <LongitudeDegrees>-2.62752480804920196533203125</LongitudeDegrees>
            </Position>
            <AltitudeMeters>798.20001220703125</AltitudeMeters>
            <DistanceMeters>244665.93451943</DistanceMeters>
          </Trackpoint>
          <Trackpoint>
            <Time>2021-07-30T09:09:25.000Z</Time>
            <Position>
              <LatitudeDegrees>42.2517196275293827056884765625</LatitudeDegrees>
              <LongitudeDegrees>-2.6274565793573856353759765625</LongitudeDegrees>
            </Position>
            <AltitudeMeters>797.20001220703125</AltitudeMeters>
            <DistanceMeters>244686.59447232</DistanceMeters>
          </Trackpoint>
          <Trackpoint>
            <Time>2021-07-30T09:09:27.000Z</Time>
            <Position>
              <LatitudeDegrees>42.2518946416676044464111328125</LatitudeDegrees>
              <LongitudeDegrees>-2.62736395932734012603759765625</LongitudeDegrees>
            </Position>
            <AltitudeMeters>796</AltitudeMeters>
            <DistanceMeters>244707.51503027</DistanceMeters>
          </Trackpoint>
          <Trackpoint>
            <Time>2021-07-30T09:09:30.000Z</Time>
            <Position>
              <LatitudeDegrees>42.25215020589530467987060546875</LatitudeDegrees>
              <LongitudeDegrees>-2.62718877755105495452880859375</LongitudeDegrees>
            </Position>
            <AltitudeMeters>794.4000244140625</AltitudeMeters>
            <DistanceMeters>244739.4117488</DistanceMeters>
          </Trackpoint>
          <Trackpoint>
            <Time>2021-07-30T09:09:32.000Z</Time>
            <Position>
              <LatitudeDegrees>42.2523157484829425811767578125</LatitudeDegrees>
              <LongitudeDegrees>-2.6270468719303607940673828125</LongitudeDegrees>
            </Position>
            <AltitudeMeters>793.20001220703125</AltitudeMeters>
            <DistanceMeters>244761.2331601</DistanceMeters>
          </Trackpoint>
          <Trackpoint>
            <Time>2021-07-30T09:09:35.000Z</Time>
            <Position>
              <LatitudeDegrees>42.252557314932346343994140625</LatitudeDegrees>
              <LongitudeDegrees>-2.62679767794907093048095703125</LongitudeDegrees>
            </Position>
            <AltitudeMeters>791.79998779296875</AltitudeMeters>
            <DistanceMeters>244795.06173615</DistanceMeters>
          </Trackpoint>
          <Trackpoint>
            <Time>2021-07-30T09:09:38.000Z</Time>
            <Position>
              <LatitudeDegrees>42.2527750767767429351806640625</LatitudeDegrees>
              <LongitudeDegrees>-2.62649626471102237701416015625</LongitudeDegrees>
            </Position>
            <AltitudeMeters>790.4000244140625</AltitudeMeters>
            <DistanceMeters>244829.76132351</DistanceMeters>
          </Trackpoint>
          <Trackpoint>
            <Time>2021-07-30T09:09:41.000Z</Time>
            <Position>
              <LatitudeDegrees>42.25297012366354465484619140625</LatitudeDegrees>
              <LongitudeDegrees>-2.62616316787898540496826171875</LongitudeDegrees>
            </Position>
            <AltitudeMeters>789</AltitudeMeters>
            <DistanceMeters>244864.75180628</DistanceMeters>
          </Trackpoint>
          <Trackpoint>
            <Time>2021-07-30T09:09:43.000Z</Time>
            <Position>
              <LatitudeDegrees>42.253091745078563690185546875</LatitudeDegrees>
              <LongitudeDegrees>-2.625934593379497528076171875</LongitudeDegrees>
            </Position>
            <AltitudeMeters>787.5999755859375</AltitudeMeters>
            <DistanceMeters>244887.94338693</DistanceMeters>
          </Trackpoint>
          <Trackpoint>
            <Time>2021-07-30T09:09:46.000Z</Time>
            <Position>
              <LatitudeDegrees>42.25327690131962299346923828125</LatitudeDegrees>
              <LongitudeDegrees>-2.62558816932141780853271484375</LongitudeDegrees>
            </Position>
            <AltitudeMeters>786</AltitudeMeters>
            <DistanceMeters>244923.14587904</DistanceMeters>
          </Trackpoint>
          <Trackpoint>
            <Time>2021-07-30T09:09:47.000Z</Time>
            <Position>
              <LatitudeDegrees>42.25333976559340953826904296875</LatitudeDegrees>
              <LongitudeDegrees>-2.62547425925731658935546875</LongitudeDegrees>
            </Position>
            <AltitudeMeters>784.79998779296875</AltitudeMeters>
            <DistanceMeters>244934.85192064</DistanceMeters>
          </Trackpoint>
          <Trackpoint>
            <Time>2021-07-30T09:09:48.000Z</Time>
            <Position>
              <LatitudeDegrees>42.2534017078578472137451171875</LatitudeDegrees>
              <LongitudeDegrees>-2.62536202557384967803955078125</LongitudeDegrees>
            </Position>
            <AltitudeMeters>783.4000244140625</AltitudeMeters>
            <DistanceMeters>244946.38583092</DistanceMeters>
          </Trackpoint>
          <Trackpoint>
            <Time>2021-07-30T09:09:50.000Z</Time>
            <Position>
              <LatitudeDegrees>42.25352265872061252593994140625</LatitudeDegrees>
              <LongitudeDegrees>-2.62513789348304271697998046875</LongitudeDegrees>
            </Position>
            <AltitudeMeters>781.79998779296875</AltitudeMeters>
            <DistanceMeters>244969.23694031</DistanceMeters>
          </Trackpoint>
          <Trackpoint>
            <Time>2021-07-30T09:09:56.000Z</Time>
            <Position>
              <LatitudeDegrees>42.2538794763386249542236328125</LatitudeDegrees>
              <LongitudeDegrees>-2.6244545169174671173095703125</LongitudeDegrees>
            </Position>
            <AltitudeMeters>781</AltitudeMeters>
            <DistanceMeters>245038.133733</DistanceMeters>
          </Trackpoint>
          <Trackpoint>
            <Time>2021-07-30T09:09:57.000Z</Time>
            <Position>
              <LatitudeDegrees>42.2539401613175868988037109375</LatitudeDegrees>
              <LongitudeDegrees>-2.62433859519660472869873046875</LongitudeDegrees>
            </Position>
            <AltitudeMeters>780.5999755859375</AltitudeMeters>
            <DistanceMeters>245049.83090011</DistanceMeters>
          </Trackpoint>
          <Trackpoint>
            <Time>2021-07-30T09:09:59.000Z</Time>
            <Position>
              <LatitudeDegrees>42.25405524484813213348388671875</LatitudeDegrees>
              <LongitudeDegrees>-2.62410406954586505889892578125</LongitudeDegrees>
            </Position>
            <AltitudeMeters>778.79998779296875</AltitudeMeters>
            <DistanceMeters>245073.01177065</DistanceMeters>
          </Trackpoint>
          <Trackpoint>
            <Time>2021-07-30T09:10:02.000Z</Time>
            <Position>
              <LatitudeDegrees>42.25422707386314868927001953125</LatitudeDegrees>
              <LongitudeDegrees>-2.62374959886074066162109375</LongitudeDegrees>
            </Position>
            <AltitudeMeters>777.5999755859375</AltitudeMeters>
            <DistanceMeters>245107.91905521</DistanceMeters>
          </Trackpoint>
          <Trackpoint>
            <Time>2021-07-30T09:10:07.000Z</Time>
            <Position>
              <LatitudeDegrees>42.25448808632791042327880859375</LatitudeDegrees>
              <LongitudeDegrees>-2.62312925420701503753662109375</LongitudeDegrees>
            </Position>
            <AltitudeMeters>776.4000244140625</AltitudeMeters>
            <DistanceMeters>245166.70442715</DistanceMeters>
          </Trackpoint>
          <Trackpoint>
            <Time>2021-07-30T09:10:08.000Z</Time>
            <Position>
              <LatitudeDegrees>42.2545376233756542205810546875</LatitudeDegrees>
              <LongitudeDegrees>-2.62300285510718822479248046875</LongitudeDegrees>
            </Position>
            <AltitudeMeters>774.79998779296875</AltitudeMeters>
            <DistanceMeters>245178.48773973</DistanceMeters>
          </Trackpoint>
          <Trackpoint>
            <Time>2021-07-30T09:10:09.000Z</Time>
            <Position>
              <LatitudeDegrees>42.25458565168082714080810546875</LatitudeDegrees>
              <LongitudeDegrees>-2.622874863445758819580078125</LongitudeDegrees>
            </Position>
            <AltitudeMeters>773.79998779296875</AltitudeMeters>
            <DistanceMeters>245190.30930744</DistanceMeters>
          </Trackpoint>
          <Trackpoint>
            <Time>2021-07-30T09:10:11.000Z</Time>
            <Position>
              <LatitudeDegrees>42.254676930606365203857421875</LatitudeDegrees>
              <LongitudeDegrees>-2.62261393480002880096435546875</LongitudeDegrees>
            </Position>
            <AltitudeMeters>772.4000244140625</AltitudeMeters>
            <DistanceMeters>245214.08498378</DistanceMeters>
          </Trackpoint>
          <Trackpoint>
            <Time>2021-07-30T09:10:13.000Z</Time>
            <Position>
              <LatitudeDegrees>42.25476653315126895904541015625</LatitudeDegrees>
              <LongitudeDegrees>-2.622350491583347320556640625</LongitudeDegrees>
            </Position>
            <AltitudeMeters>771.20001220703125</AltitudeMeters>
            <DistanceMeters>245237.96941488</DistanceMeters>
          </Trackpoint>
          <Trackpoint>
            <Time>2021-07-30T09:10:14.000Z</Time>
            <Position>
              <LatitudeDegrees>42.2548091970384120941162109375</LatitudeDegrees>
              <LongitudeDegrees>-2.62221763841807842254638671875</LongitudeDegrees>
            </Position>
            <AltitudeMeters>770.20001220703125</AltitudeMeters>
            <DistanceMeters>245249.89971517</DistanceMeters>
          </Trackpoint>
          <Trackpoint>
            <Time>2021-07-30T09:10:16.000Z</Time>
            <Position>
              <LatitudeDegrees>42.2548893280327320098876953125</LatitudeDegrees>
              <LongitudeDegrees>-2.62194740585982799530029296875</LongitudeDegrees>
            </Position>
            <AltitudeMeters>768.79998779296875</AltitudeMeters>
            <DistanceMeters>245273.88205573</DistanceMeters>
          </Trackpoint>
          <Trackpoint>
            <Time>2021-07-30T09:10:18.000Z</Time>
            <Position>
              <LatitudeDegrees>42.2549661062657833099365234375</LatitudeDegrees>
              <LongitudeDegrees>-2.62167449109256267547607421875</LongitudeDegrees>
            </Position>
            <AltitudeMeters>767.5999755859375</AltitudeMeters>
            <DistanceMeters>245297.93451668</DistanceMeters>
          </Trackpoint>
          <Trackpoint>
            <Time>2021-07-30T09:10:22.000Z</Time>
            <Position>
              <LatitudeDegrees>42.25511320866644382476806640625</LatitudeDegrees>
              <LongitudeDegrees>-2.62111927382647991180419921875</LongitudeDegrees>
            </Position>
            <AltitudeMeters>766.4000244140625</AltitudeMeters>
            <DistanceMeters>245346.51603569</DistanceMeters>
          </Trackpoint>
          <Trackpoint>
            <Time>2021-07-30T09:10:25.000Z</Time>
            <Position>
              <LatitudeDegrees>42.25521412678062915802001953125</LatitudeDegrees>
              <LongitudeDegrees>-2.62068358249962329864501953125</LongitudeDegrees>
            </Position>
            <AltitudeMeters>765.20001220703125</AltitudeMeters>
            <DistanceMeters>245384.12513146</DistanceMeters>
          </Trackpoint>
          <Trackpoint>
            <Time>2021-07-30T09:10:27.000Z</Time>
            <Position>
              <LatitudeDegrees>42.255281098186969757080078125</LatitudeDegrees>
              <LongitudeDegrees>-2.6203787326812744140625</LongitudeDegrees>
            </Position>
            <AltitudeMeters>763.5999755859375</AltitudeMeters>
            <DistanceMeters>245410.32184403</DistanceMeters>
          </Trackpoint>
          <Trackpoint>
            <Time>2021-07-30T09:10:28.000Z</Time>
            <Position>
              <LatitudeDegrees>42.25531605072319507598876953125</LatitudeDegrees>
              <LongitudeDegrees>-2.620222829282283782958984375</LongitudeDegrees>
            </Position>
            <AltitudeMeters>762.4000244140625</AltitudeMeters>
            <DistanceMeters>245423.74182333</DistanceMeters>
          </Trackpoint>
          <Trackpoint>
            <Time>2021-07-30T09:10:29.000Z</Time>
            <Position>
              <LatitudeDegrees>42.2553531825542449951171875</LatitudeDegrees>
              <LongitudeDegrees>-2.6200654171407222747802734375</LongitudeDegrees>
            </Position>
            <AltitudeMeters>761.4000244140625</AltitudeMeters>
            <DistanceMeters>245437.35222333</DistanceMeters>
          </Trackpoint>
          <Trackpoint>
            <Time>2021-07-30T09:10:31.000Z</Time>
            <Position>
              <LatitudeDegrees>42.2554344870150089263916015625</LatitudeDegrees>
              <LongitudeDegrees>-2.619751431047916412353515625</LongitudeDegrees>
            </Position>
            <AltitudeMeters>760.20001220703125</AltitudeMeters>
            <DistanceMeters>245464.75585844</DistanceMeters>
          </Trackpoint>
          <Trackpoint>
            <Time>2021-07-30T09:10:32.000Z</Time>
            <Position>
              <LatitudeDegrees>42.25548553280532360076904296875</LatitudeDegrees>
              <LongitudeDegrees>-2.61960164643824100494384765625</LongitudeDegrees>
            </Position>
            <AltitudeMeters>759.5999755859375</AltitudeMeters>
            <DistanceMeters>245478.34035852</DistanceMeters>
          </Trackpoint>
          <Trackpoint>
            <Time>2021-07-30T09:10:33.000Z</Time>
            <Position>
              <LatitudeDegrees>42.25554336793720722198486328125</LatitudeDegrees>
              <LongitudeDegrees>-2.61945965699851512908935546875</LongitudeDegrees>
            </Position>
            <AltitudeMeters>758.20001220703125</AltitudeMeters>
            <DistanceMeters>245491.69186551</DistanceMeters>
          </Trackpoint>
          <Trackpoint>
            <Time>2021-07-30T09:10:34.000Z</Time>
            <Position>
              <LatitudeDegrees>42.2556048072874546051025390625</LatitudeDegrees>
              <LongitudeDegrees>-2.6193247921764850616455078125</LongitudeDegrees>
            </Position>
            <AltitudeMeters>756.79998779296875</AltitudeMeters>
            <DistanceMeters>245504.73789483</DistanceMeters>
          </Trackpoint>
          <Trackpoint>
            <Time>2021-07-30T09:10:35.000Z</Time>
            <Position>
              <LatitudeDegrees>42.25566658191382884979248046875</LatitudeDegrees>
              <LongitudeDegrees>-2.619194872677326202392578125</LongitudeDegrees>
            </Position>
            <AltitudeMeters>755.5999755859375</AltitudeMeters>
            <DistanceMeters>245517.45870336</DistanceMeters>
          </Trackpoint>
          <Trackpoint>
            <Time>2021-07-30T09:10:36.000Z</Time>
            <Position>
              <LatitudeDegrees>42.25572642870247364044189453125</LatitudeDegrees>
              <LongitudeDegrees>-2.61906570754945278167724609375</LongitudeDegrees>
            </Position>
            <AltitudeMeters>754.4000244140625</AltitudeMeters>
            <DistanceMeters>245530.01230421</DistanceMeters>
          </Trackpoint>
          <Trackpoint>
            <Time>2021-07-30T09:10:40.000Z</Time>
            <Position>
              <LatitudeDegrees>42.25597076117992401123046875</LatitudeDegrees>
              <LongitudeDegrees>-2.6185777969658374786376953125</LongitudeDegrees>
            </Position>
            <AltitudeMeters>753.4000244140625</AltitudeMeters>
            <DistanceMeters>245578.54184343</DistanceMeters>
          </Trackpoint>
          <Trackpoint>
            <Time>2021-07-30T09:10:46.000Z</Time>
            <Position>
              <LatitudeDegrees>42.25642899982631206512451171875</LatitudeDegrees>
              <LongitudeDegrees>-2.61798427440226078033447265625</LongitudeDegrees>
            </Position>
            <AltitudeMeters>752</AltitudeMeters>
            <DistanceMeters>245649.19553158</DistanceMeters>
          </Trackpoint>
          <Trackpoint>
            <Time>2021-07-30T09:10:49.000Z</Time>
            <Position>
              <LatitudeDegrees>42.25669629871845245361328125</LatitudeDegrees>
              <LongitudeDegrees>-2.617758549749851226806640625</LongitudeDegrees>
            </Position>
            <AltitudeMeters>751.20001220703125</AltitudeMeters>
            <DistanceMeters>245684.27956955</DistanceMeters>
          </Trackpoint>
          <Trackpoint>
            <Time>2021-07-30T09:10:50.000Z</Time>
            <Position>
              <LatitudeDegrees>42.25679554045200347900390625</LatitudeDegrees>
              <LongitudeDegrees>-2.6177151314914226531982421875</LongitudeDegrees>
            </Position>
            <AltitudeMeters>751</AltitudeMeters>
            <DistanceMeters>245695.89034089</DistanceMeters>
          </Trackpoint>
          <Trackpoint>
            <Time>2021-07-30T09:10:54.000Z</Time>
            <Position>
              <LatitudeDegrees>42.257204242050647735595703125</LatitudeDegrees>
              <LongitudeDegrees>-2.617752514779567718505859375</LongitudeDegrees>
            </Position>
            <AltitudeMeters>750.79998779296875</AltitudeMeters>
            <DistanceMeters>245741.48375837</DistanceMeters>
          </Trackpoint>
          <Trackpoint>
            <Time>2021-07-30T09:10:58.000Z</Time>
            <Position>
              <LatitudeDegrees>42.25758184678852558135986328125</LatitudeDegrees>
              <LongitudeDegrees>-2.61785519309341907501220703125</LongitudeDegrees>
            </Position>
            <AltitudeMeters>750.5999755859375</AltitudeMeters>
            <DistanceMeters>245784.35460533</DistanceMeters>
          </Trackpoint>
          <Trackpoint>
            <Time>2021-07-30T09:11:04.000Z</Time>
            <Position>
              <LatitudeDegrees>42.2580586932599544525146484375</LatitudeDegrees>
              <LongitudeDegrees>-2.6175481639802455902099609375</LongitudeDegrees>
            </Position>
            <AltitudeMeters>749.79998779296875</AltitudeMeters>
            <DistanceMeters>245843.14704295</DistanceMeters>
          </Trackpoint>
          <Trackpoint>
            <Time>2021-07-30T09:11:06.000Z</Time>
            <Position>
              <LatitudeDegrees>42.25814946927130222320556640625</LatitudeDegrees>
              <LongitudeDegrees>-2.6173329167068004608154296875</LongitudeDegrees>
            </Position>
            <AltitudeMeters>749</AltitudeMeters>
            <DistanceMeters>245863.55523287</DistanceMeters>
          </Trackpoint>
          <Trackpoint>
            <Time>2021-07-30T09:11:07.000Z</Time>
            <Position>
              <LatitudeDegrees>42.258189283311367034912109375</LatitudeDegrees>
              <LongitudeDegrees>-2.61722219176590442657470703125</LongitudeDegrees>
            </Position>
            <AltitudeMeters>748.5999755859375</AltitudeMeters>
            <DistanceMeters>245873.69596808</DistanceMeters>
          </Trackpoint>
          <Trackpoint>
            <Time>2021-07-30T09:11:11.000Z</Time>
            <Position>
              <LatitudeDegrees>42.258336804807186126708984375</LatitudeDegrees>
              <LongitudeDegrees>-2.61677845381200313568115234375</LongitudeDegrees>
            </Position>
            <AltitudeMeters>747.5999755859375</AltitudeMeters>
            <DistanceMeters>245913.76806989</DistanceMeters>
          </Trackpoint>
          <Trackpoint>
            <Time>2021-07-30T09:11:18.000Z</Time>
            <Position>
              <LatitudeDegrees>42.25857811979949474334716796875</LatitudeDegrees>
              <LongitudeDegrees>-2.61605459265410900115966796875</LongitudeDegrees>
            </Position>
            <AltitudeMeters>747.4000244140625</AltitudeMeters>
            <DistanceMeters>245979.16723317</DistanceMeters>
          </Trackpoint>
          <Trackpoint>
            <Time>2021-07-30T09:11:26.000Z</Time>
            <Position>
              <LatitudeDegrees>42.25883041508495807647705078125</LatitudeDegrees>
              <LongitudeDegrees>-2.61532469652593135833740234375</LongitudeDegrees>
            </Position>
            <AltitudeMeters>746.79998779296875</AltitudeMeters>
            <DistanceMeters>246045.52766121</DistanceMeters>
          </Trackpoint>
          <Trackpoint>
            <Time>2021-07-30T09:11:35.000Z</Time>
            <Position>
              <LatitudeDegrees>42.2590792737901210784912109375</LatitudeDegrees>
              <LongitudeDegrees>-2.6145906932651996612548828125</LongitudeDegrees>
            </Position>
            <AltitudeMeters>747</AltitudeMeters>
            <DistanceMeters>246112.0342782</DistanceMeters>
          </Trackpoint>
          <Trackpoint>
            <Time>2021-07-30T09:11:38.000Z</Time>
            <Position>
              <LatitudeDegrees>42.25915680639445781707763671875</LatitudeDegrees>
              <LongitudeDegrees>-2.6143593527376651763916015625</LongitudeDegrees>
            </Position>
            <AltitudeMeters>746.4000244140625</AltitudeMeters>
            <DistanceMeters>246132.95375704</DistanceMeters>
          </Trackpoint>
          <Trackpoint>
            <Time>2021-07-30T09:11:48.000Z</Time>
            <Position>
              <LatitudeDegrees>42.25940424017608165740966796875</LatitudeDegrees>
              <LongitudeDegrees>-2.61363993398845195770263671875</LongitudeDegrees>
            </Position>
            <AltitudeMeters>746</AltitudeMeters>
            <DistanceMeters>246198.30284848</DistanceMeters>
          </Trackpoint>
          <Trackpoint>
            <Time>2021-07-30T09:11:55.000Z</Time>
            <Position>
              <LatitudeDegrees>42.25956894457340240478515625</LatitudeDegrees>
              <LongitudeDegrees>-2.61317364871501922607421875</LongitudeDegrees>
            </Position>
            <AltitudeMeters>745.4000244140625</AltitudeMeters>
            <DistanceMeters>246240.86357303</DistanceMeters>
          </Trackpoint>
          <Trackpoint>
            <Time>2021-07-30T09:12:05.000Z</Time>
            <Position>
              <LatitudeDegrees>42.259771116077899932861328125</LatitudeDegrees>
              <LongitudeDegrees>-2.61257375590503215789794921875</LongitudeDegrees>
            </Position>
            <AltitudeMeters>746.5999755859375</AltitudeMeters>
            <DistanceMeters>246295.16200725</DistanceMeters>
          </Trackpoint>
          <Trackpoint>
            <Time>2021-07-30T09:12:13.000Z</Time>
            <Position>
              <LatitudeDegrees>42.259926684200763702392578125</LatitudeDegrees>
              <LongitudeDegrees>-2.61213806457817554473876953125</LongitudeDegrees>
            </Position>
            <AltitudeMeters>747.79998779296875</AltitudeMeters>
            <DistanceMeters>246335.01050562</DistanceMeters>
          </Trackpoint>
          <Trackpoint>
            <Time>2021-07-30T09:12:25.000Z</Time>
            <Position>
              <LatitudeDegrees>42.2602876089513301849365234375</LatitudeDegrees>
              <LongitudeDegrees>-2.61158418841660022735595703125</LongitudeDegrees>
            </Position>
            <AltitudeMeters>748.4000244140625</AltitudeMeters>
            <DistanceMeters>246395.80049932</DistanceMeters>
          </Trackpoint>
          <Trackpoint>
            <Time>2021-07-30T09:12:36.000Z</Time>
            <Position>
              <LatitudeDegrees>42.26081256754696369171142578125</LatitudeDegrees>
              <LongitudeDegrees>-2.61135620065033435821533203125</LongitudeDegrees>
            </Position>
            <AltitudeMeters>748</AltitudeMeters>
            <DistanceMeters>246457.17333929</DistanceMeters>
          </Trackpoint>
          <Trackpoint>
            <Time>2021-07-30T09:12:42.000Z</Time>
            <Position>
              <LatitudeDegrees>42.26113309152424335479736328125</LatitudeDegrees>
              <LongitudeDegrees>-2.6113183982670307159423828125</LongitudeDegrees>
            </Position>
            <AltitudeMeters>747</AltitudeMeters>
            <DistanceMeters>246492.98391421</DistanceMeters>
          </Trackpoint>
          <Trackpoint>
            <Time>2021-07-30T09:12:52.000Z</Time>
            <Position>
              <LatitudeDegrees>42.2617189027369022369384765625</LatitudeDegrees>
              <LongitudeDegrees>-2.6112644188106060028076171875</LongitudeDegrees>
            </Position>
            <AltitudeMeters>746.4000244140625</AltitudeMeters>
            <DistanceMeters>246558.33728916</DistanceMeters>
          </Trackpoint>
          <Trackpoint>
            <Time>2021-07-30T09:12:54.000Z</Time>
            <Position>
              <LatitudeDegrees>42.26184320636093616485595703125</LatitudeDegrees>
              <LongitudeDegrees>-2.61124958284199237823486328125</LongitudeDegrees>
            </Position>
            <AltitudeMeters>745.79998779296875</AltitudeMeters>
            <DistanceMeters>246572.22615135</DistanceMeters>
          </Trackpoint>
          <Trackpoint>
            <Time>2021-07-30T09:13:03.000Z</Time>
            <Position>
              <LatitudeDegrees>42.2623887844383716583251953125</LatitudeDegrees>
              <LongitudeDegrees>-2.611135505139827728271484375</LongitudeDegrees>
            </Position>
            <AltitudeMeters>746</AltitudeMeters>
            <DistanceMeters>246633.67280856</DistanceMeters>
          </Trackpoint>
          <Trackpoint>
            <Time>2021-07-30T09:13:13.000Z</Time>
            <Position>
              <LatitudeDegrees>42.26292899809777736663818359375</LatitudeDegrees>
              <LongitudeDegrees>-2.61087658815085887908935546875</LongitudeDegrees>
            </Position>
            <AltitudeMeters>745.20001220703125</AltitudeMeters>
            <DistanceMeters>246697.4700674</DistanceMeters>
          </Trackpoint>
          <Trackpoint>
            <Time>2021-07-30T09:13:23.000Z</Time>
            <Position>
              <LatitudeDegrees>42.26339620538055896759033203125</LatitudeDegrees>
              <LongitudeDegrees>-2.61048112995922565460205078125</LongitudeDegrees>
            </Position>
            <AltitudeMeters>745</AltitudeMeters>
            <DistanceMeters>246758.83120905</DistanceMeters>
          </Trackpoint>
          <Trackpoint>
            <Time>2021-07-30T09:13:34.000Z</Time>
            <Position>
              <LatitudeDegrees>42.263825275003910064697265625</LatitudeDegrees>
              <LongitudeDegrees>-2.61003605090081691741943359375</LongitudeDegrees>
            </Position>
            <AltitudeMeters>745.5999755859375</AltitudeMeters>
            <DistanceMeters>246819.03668866</DistanceMeters>
          </Trackpoint>
          <Trackpoint>
            <Time>2021-07-30T09:13:46.000Z</Time>
            <Position>
              <LatitudeDegrees>42.26422551088035106658935546875</LatitudeDegrees>
              <LongitudeDegrees>-2.60954755358397960662841796875</LongitudeDegrees>
            </Position>
            <AltitudeMeters>746.79998779296875</AltitudeMeters>
            <DistanceMeters>246879.06567412</DistanceMeters>
          </Trackpoint>
          <Trackpoint>
            <Time>2021-07-30T09:13:48.000Z</Time>
            <Position>
              <LatitudeDegrees>42.264281250536441802978515625</LatitudeDegrees>
              <LongitudeDegrees>-2.60945971123874187469482421875</LongitudeDegrees>
            </Position>
            <AltitudeMeters>747.20001220703125</AltitudeMeters>
            <DistanceMeters>246888.59728464</DistanceMeters>
          </Trackpoint>
          <Trackpoint>
            <Time>2021-07-30T09:14:01.000Z</Time>
            <Position>
              <LatitudeDegrees>42.26460806094110012054443359375</LatitudeDegrees>
              <LongitudeDegrees>-2.60881095193326473236083984375</LongitudeDegrees>
            </Position>
            <AltitudeMeters>747.4000244140625</AltitudeMeters>
            <DistanceMeters>246953.24004088</DistanceMeters>
          </Trackpoint>
          <Trackpoint>
            <Time>2021-07-30T09:14:12.000Z</Time>
            <Position>
              <LatitudeDegrees>42.26492322050034999847412109375</LatitudeDegrees>
              <LongitudeDegrees>-2.60816202498972415924072265625</LongitudeDegrees>
            </Position>
            <AltitudeMeters>746.5999755859375</AltitudeMeters>
            <DistanceMeters>247017.17353126</DistanceMeters>
          </Trackpoint>
          <Trackpoint>
            <Time>2021-07-30T09:14:13.000Z</Time>
            <Position>
              <LatitudeDegrees>42.264955155551433563232421875</LatitudeDegrees>
              <LongitudeDegrees>-2.60809480212628841400146484375</LongitudeDegrees>
            </Position>
            <AltitudeMeters>746.4000244140625</AltitudeMeters>
            <DistanceMeters>247023.75305909</DistanceMeters>
          </Trackpoint>
          <Trackpoint>
            <Time>2021-07-30T09:14:19.000Z</Time>
            <Position>
              <LatitudeDegrees>42.26515841670334339141845703125</LatitudeDegrees>
              <LongitudeDegrees>-2.607674784958362579345703125</LongitudeDegrees>
            </Position>
            <AltitudeMeters>745.20001220703125</AltitudeMeters>
            <DistanceMeters>247065.08946139</DistanceMeters>
          </Trackpoint>
          <Trackpoint>
            <Time>2021-07-30T09:14:28.000Z</Time>
            <Position>
              <LatitudeDegrees>42.26548455655574798583984375</LatitudeDegrees>
              <LongitudeDegrees>-2.6070074178278446197509765625</LongitudeDegrees>
            </Position>
            <AltitudeMeters>744.5999755859375</AltitudeMeters>
            <DistanceMeters>247130.96306001</DistanceMeters>
          </Trackpoint>
          <Trackpoint>
            <Time>2021-07-30T09:14:37.000Z</Time>
            <Position>
              <LatitudeDegrees>42.26578538306057453155517578125</LatitudeDegrees>
              <LongitudeDegrees>-2.60638925246894359588623046875</LongitudeDegrees>
            </Position>
            <AltitudeMeters>744</AltitudeMeters>
            <DistanceMeters>247191.9022331</DistanceMeters>
          </Trackpoint>
          <Trackpoint>
            <Time>2021-07-30T09:14:45.000Z</Time>
            <Position>
              <LatitudeDegrees>42.26603952236473560333251953125</LatitudeDegrees>
              <LongitudeDegrees>-2.60586672462522983551025390625</LongitudeDegrees>
            </Position>
            <AltitudeMeters>743</AltitudeMeters>
            <DistanceMeters>247243.40434533</DistanceMeters>
          </Trackpoint>
          <Trackpoint>
            <Time>2021-07-30T09:14:55.000Z</Time>
            <Position>
              <LatitudeDegrees>42.26634630002081394195556640625</LatitudeDegrees>
              <LongitudeDegrees>-2.6052421890199184417724609375</LongitudeDegrees>
            </Position>
            <AltitudeMeters>743.4000244140625</AltitudeMeters>
            <DistanceMeters>247305.14604713</DistanceMeters>
          </Trackpoint>
          <Trackpoint>
            <Time>2021-07-30T09:15:03.000Z</Time>
            <Position>
              <LatitudeDegrees>42.266632206737995147705078125</LatitudeDegrees>
              <LongitudeDegrees>-2.6046775840222835540771484375</LongitudeDegrees>
            </Position>
            <AltitudeMeters>741.79998779296875</AltitudeMeters>
            <DistanceMeters>247361.49576701</DistanceMeters>
          </Trackpoint>
          <Trackpoint>
            <Time>2021-07-30T09:15:05.000Z</Time>
            <Position>
              <LatitudeDegrees>42.2667151875793933868408203125</LatitudeDegrees>
              <LongitudeDegrees>-2.60452562011778354644775390625</LongitudeDegrees>
            </Position>
            <AltitudeMeters>740.79998779296875</AltitudeMeters>
            <DistanceMeters>247377.05143988</DistanceMeters>
          </Trackpoint>
          <Trackpoint>
            <Time>2021-07-30T09:15:08.000Z</Time>
            <Position>
              <LatitudeDegrees>42.2668472863733768463134765625</LatitudeDegrees>
              <LongitudeDegrees>-2.60429545305669307708740234375</LongitudeDegrees>
            </Position>
            <AltitudeMeters>739.5999755859375</AltitudeMeters>
            <DistanceMeters>247401.04262727</DistanceMeters>
          </Trackpoint>
          <Trackpoint>
            <Time>2021-07-30T09:15:15.000Z</Time>
            <Position>
              <LatitudeDegrees>42.26718901656568050384521484375</LatitudeDegrees>
              <LongitudeDegrees>-2.603738307952880859375</LongitudeDegrees>
            </Position>
            <AltitudeMeters>738.5999755859375</AltitudeMeters>
            <DistanceMeters>247460.645743</DistanceMeters>
          </Trackpoint>
          <Trackpoint>
            <Time>2021-07-30T09:15:19.000Z</Time>
            <Position>
              <LatitudeDegrees>42.26740711368620395660400390625</LatitudeDegrees>
              <LongitudeDegrees>-2.6033928059041500091552734375</LongitudeDegrees>
            </Position>
            <AltitudeMeters>737.5999755859375</AltitudeMeters>
            <DistanceMeters>247498.04995257</DistanceMeters>
          </Trackpoint>
          <Trackpoint>
            <Time>2021-07-30T09:15:26.000Z</Time>
            <Position>
              <LatitudeDegrees>42.26778027601540088653564453125</LatitudeDegrees>
              <LongitudeDegrees>-2.60280481539666652679443359375</LongitudeDegrees>
            </Position>
            <AltitudeMeters>736.4000244140625</AltitudeMeters>
            <DistanceMeters>247561.85032528</DistanceMeters>
          </Trackpoint>
          <Trackpoint>
            <Time>2021-07-30T09:15:35.000Z</Time>
            <Position>
              <LatitudeDegrees>42.268188893795013427734375</LatitudeDegrees>
              <LongitudeDegrees>-2.60224306024610996246337890625</LongitudeDegrees>
            </Position>
            <AltitudeMeters>736.79998779296875</AltitudeMeters>
            <DistanceMeters>247626.7287315</DistanceMeters>
          </Trackpoint>
          <Trackpoint>
            <Time>2021-07-30T09:15:41.000Z</Time>
            <Position>
              <LatitudeDegrees>42.26845351047813892364501953125</LatitudeDegrees>
              <LongitudeDegrees>-2.601999901235103607177734375</LongitudeDegrees>
            </Position>
            <AltitudeMeters>737.79998779296875</AltitudeMeters>
            <DistanceMeters>247662.34537282</DistanceMeters>
          </Trackpoint>
          <Trackpoint>
            <Time>2021-07-30T09:15:50.000Z</Time>
            <Position>
              <LatitudeDegrees>42.268883921205997467041015625</LatitudeDegrees>
              <LongitudeDegrees>-2.60176277719438076019287109375</LongitudeDegrees>
            </Position>
            <AltitudeMeters>736.4000244140625</AltitudeMeters>
            <DistanceMeters>247714.07901929</DistanceMeters>
          </Trackpoint>
          <Trackpoint>
            <Time>2021-07-30T09:16:01.000Z</Time>
            <Position>
              <LatitudeDegrees>42.26944223977625370025634765625</LatitudeDegrees>
              <LongitudeDegrees>-2.601621709764003753662109375</LongitudeDegrees>
            </Position>
            <AltitudeMeters>735.79998779296875</AltitudeMeters>
            <DistanceMeters>247777.2977863</DistanceMeters>
          </Trackpoint>
          <Trackpoint>
            <Time>2021-07-30T09:16:08.000Z</Time>
            <Position>
              <LatitudeDegrees>42.269811965525150299072265625</LatitudeDegrees>
              <LongitudeDegrees>-2.601530849933624267578125</LongitudeDegrees>
            </Position>
            <AltitudeMeters>735.4000244140625</AltitudeMeters>
            <DistanceMeters>247819.1240081</DistanceMeters>
          </Trackpoint>
          <Trackpoint>
            <Time>2021-07-30T09:16:11.000Z</Time>
            <Position>
              <LatitudeDegrees>42.26996879093348979949951171875</LatitudeDegrees>
              <LongitudeDegrees>-2.60149405337870121002197265625</LongitudeDegrees>
            </Position>
            <AltitudeMeters>734.79998779296875</AltitudeMeters>
            <DistanceMeters>247836.84031124</DistanceMeters>
          </Trackpoint>
          <Trackpoint>
            <Time>2021-07-30T09:16:16.000Z</Time>
            <Position>
              <LatitudeDegrees>42.27023164741694927215576171875</LatitudeDegrees>
              <LongitudeDegrees>-2.60139984078705310821533203125</LongitudeDegrees>
            </Position>
            <AltitudeMeters>734.4000244140625</AltitudeMeters>
            <DistanceMeters>247867.10837091</DistanceMeters>
          </Trackpoint>
          <Trackpoint>
            <Time>2021-07-30T09:16:26.000Z</Time>
            <Position>
              <LatitudeDegrees>42.27072852663695812225341796875</LatitudeDegrees>
              <LongitudeDegrees>-2.6010978408157825469970703125</LongitudeDegrees>
            </Position>
            <AltitudeMeters>733.5999755859375</AltitudeMeters>
            <DistanceMeters>247927.74792474</DistanceMeters>
          </Trackpoint>
          <Trackpoint>
            <Time>2021-07-30T09:16:27.000Z</Time>
            <Position>
              <LatitudeDegrees>42.27077529765665531158447265625</LatitudeDegrees>
              <LongitudeDegrees>-2.60105350054800510406494140625</LongitudeDegrees>
            </Position>
            <AltitudeMeters>733.5999755859375</AltitudeMeters>
            <DistanceMeters>247934.10690911</DistanceMeters>
          </Trackpoint>
          <Trackpoint>
            <Time>2021-07-30T09:16:37.000Z</Time>
            <Position>
              <LatitudeDegrees>42.27118450216948986053466796875</LatitudeDegrees>
              <LongitudeDegrees>-2.6005225069820880889892578125</LongitudeDegrees>
            </Position>
            <AltitudeMeters>732.20001220703125</AltitudeMeters>
            <DistanceMeters>247997.24906826</DistanceMeters>
          </Trackpoint>
          <Trackpoint>
            <Time>2021-07-30T09:16:41.000Z</Time>
            <Position>
              <LatitudeDegrees>42.27132146246731281280517578125</LatitudeDegrees>
              <LongitudeDegrees>-2.6002593152225017547607421875</LongitudeDegrees>
            </Position>
            <AltitudeMeters>731.20001220703125</AltitudeMeters>
            <DistanceMeters>248023.74908684</DistanceMeters>
          </Trackpoint>
          <Trackpoint>
            <Time>2021-07-30T09:16:50.000Z</Time>
            <Position>
              <LatitudeDegrees>42.27153536863625049591064453125</LatitudeDegrees>
              <LongitudeDegrees>-2.59956906549632549285888671875</LongitudeDegrees>
            </Position>
            <AltitudeMeters>730.4000244140625</AltitudeMeters>
            <DistanceMeters>248085.38202485</DistanceMeters>
          </Trackpoint>
          <Trackpoint>
            <Time>2021-07-30T09:16:51.000Z</Time>
            <Position>
              <LatitudeDegrees>42.2715510427951812744140625</LatitudeDegrees>
              <LongitudeDegrees>-2.5994858331978321075439453125</LongitudeDegrees>
            </Position>
            <AltitudeMeters>730.20001220703125</AltitudeMeters>
            <DistanceMeters>248092.4556133</DistanceMeters>
          </Trackpoint>
          <Trackpoint>
            <Time>2021-07-30T09:17:01.000Z</Time>
            <Position>
              <LatitudeDegrees>42.271678782999515533447265625</LatitudeDegrees>
              <LongitudeDegrees>-2.5987024605274200439453125</LongitudeDegrees>
            </Position>
            <AltitudeMeters>729.5999755859375</AltitudeMeters>
            <DistanceMeters>248158.52180457</DistanceMeters>
          </Trackpoint>
          <Trackpoint>
            <Time>2021-07-30T09:17:06.000Z</Time>
            <Position>
              <LatitudeDegrees>42.271740473806858062744140625</LatitudeDegrees>
              <LongitudeDegrees>-2.59832049719989299774169921875</LongitudeDegrees>
            </Position>
            <AltitudeMeters>729</AltitudeMeters>
            <DistanceMeters>248190.72086041</DistanceMeters>
          </Trackpoint>
          <Trackpoint>
            <Time>2021-07-30T09:17:13.000Z</Time>
            <Position>
              <LatitudeDegrees>42.27182756178081035614013671875</LatitudeDegrees>
              <LongitudeDegrees>-2.597774080932140350341796875</LongitudeDegrees>
            </Position>
            <AltitudeMeters>728</AltitudeMeters>
            <DistanceMeters>248236.75539462</DistanceMeters>
          </Trackpoint>
          <Trackpoint>
            <Time>2021-07-30T09:17:23.000Z</Time>
            <Position>
              <LatitudeDegrees>42.2719498537480831146240234375</LatitudeDegrees>
              <LongitudeDegrees>-2.59703219868242740631103515625</LongitudeDegrees>
            </Position>
            <AltitudeMeters>727.20001220703125</AltitudeMeters>
            <DistanceMeters>248299.35398576</DistanceMeters>
          </Trackpoint>
          <Trackpoint>
            <Time>2021-07-30T09:17:26.000Z</Time>
            <Position>
              <LatitudeDegrees>42.271983213722705841064453125</LatitudeDegrees>
              <LongitudeDegrees>-2.59681309573352336883544921875</LongitudeDegrees>
            </Position>
            <AltitudeMeters>727</AltitudeMeters>
            <DistanceMeters>248317.77691857</DistanceMeters>
          </Trackpoint>
          <Trackpoint>
            <Time>2021-07-30T09:17:37.000Z</Time>
            <Position>
              <LatitudeDegrees>42.27211095392704010009765625</LatitudeDegrees>
              <LongitudeDegrees>-2.59603022597730159759521484375</LongitudeDegrees>
            </Position>
            <AltitudeMeters>727</AltitudeMeters>
            <DistanceMeters>248383.80216082</DistanceMeters>
          </Trackpoint>
          <Trackpoint>
            <Time>2021-07-30T09:17:45.000Z</Time>
            <Position>
              <LatitudeDegrees>42.27220826782286167144775390625</LatitudeDegrees>
              <LongitudeDegrees>-2.5954380445182323455810546875</LongitudeDegrees>
            </Position>
            <AltitudeMeters>726</AltitudeMeters>
            <DistanceMeters>248433.76172726</DistanceMeters>
          </Trackpoint>
          <Trackpoint>
            <Time>2021-07-30T09:17:55.000Z</Time>
            <Position>
              <LatitudeDegrees>42.27232058532536029815673828125</LatitudeDegrees>
              <LongitudeDegrees>-2.5947068072855472564697265625</LongitudeDegrees>
            </Position>
            <AltitudeMeters>726</AltitudeMeters>
            <DistanceMeters>248495.26919499</DistanceMeters>
          </Trackpoint>
          <Trackpoint>
            <Time>2021-07-30T09:18:06.000Z</Time>
            <Position>
              <LatitudeDegrees>42.272364757955074310302734375</LatitudeDegrees>
              <LongitudeDegrees>-2.5939715467393398284912109375</LongitudeDegrees>
            </Position>
            <AltitudeMeters>726.5999755859375</AltitudeMeters>
            <DistanceMeters>248556.023453</DistanceMeters>
          </Trackpoint>
          <Trackpoint>
            <Time>2021-07-30T09:18:10.000Z</Time>
            <Position>
              <LatitudeDegrees>42.27236567996442317962646484375</LatitudeDegrees>
              <LongitudeDegrees>-2.59373257867991924285888671875</LongitudeDegrees>
            </Position>
            <AltitudeMeters>727.20001220703125</AltitudeMeters>
            <DistanceMeters>248575.70476798</DistanceMeters>
          </Trackpoint>
          <Trackpoint>
            <Time>2021-07-30T09:18:23.000Z</Time>
            <Position>
              <LatitudeDegrees>42.27239451371133327484130859375</LatitudeDegrees>
              <LongitudeDegrees>-2.59295691736042499542236328125</LongitudeDegrees>
            </Position>
            <AltitudeMeters>727.79998779296875</AltitudeMeters>
            <DistanceMeters>248639.66770048</DistanceMeters>
          </Trackpoint>
          <Trackpoint>
            <Time>2021-07-30T09:18:35.000Z</Time>
            <Position>
              <LatitudeDegrees>42.27253868244588375091552734375</LatitudeDegrees>
              <LongitudeDegrees>-2.59223230183124542236328125</LongitudeDegrees>
            </Position>
            <AltitudeMeters>727.4000244140625</AltitudeMeters>
            <DistanceMeters>248701.46553895</DistanceMeters>
          </Trackpoint>
          <Trackpoint>
            <Time>2021-07-30T09:18:40.000Z</Time>
            <Position>
              <LatitudeDegrees>42.2726529277861118316650390625</LatitudeDegrees>
              <LongitudeDegrees>-2.59192912839353084564208984375</LongitudeDegrees>
            </Position>
            <AltitudeMeters>726.20001220703125</AltitudeMeters>
            <DistanceMeters>248729.48585402</DistanceMeters>
          </Trackpoint>
          <Trackpoint>
            <Time>2021-07-30T09:18:47.000Z</Time>
            <Position>
              <LatitudeDegrees>42.2728748805820941925048828125</LatitudeDegrees>
              <LongitudeDegrees>-2.59154406376183032989501953125</LongitudeDegrees>
            </Position>
            <AltitudeMeters>725.20001220703125</AltitudeMeters>
            <DistanceMeters>248769.68541149</DistanceMeters>
          </Trackpoint>
          <Trackpoint>
            <Time>2021-07-30T09:18:54.000Z</Time>
            <Position>
              <LatitudeDegrees>42.27318358607590198516845703125</LatitudeDegrees>
              <LongitudeDegrees>-2.59114810265600681304931640625</LongitudeDegrees>
            </Position>
            <AltitudeMeters>724</AltitudeMeters>
            <DistanceMeters>248817.05658602</DistanceMeters>
          </Trackpoint>
          <Trackpoint>
            <Time>2021-07-30T09:18:58.000Z</Time>
            <Position>
              <LatitudeDegrees>42.2733774594962596893310546875</LatitudeDegrees>
              <LongitudeDegrees>-2.59090133942663669586181640625</LongitudeDegrees>
            </Position>
            <AltitudeMeters>722.5999755859375</AltitudeMeters>
            <DistanceMeters>248846.69852418</DistanceMeters>
          </Trackpoint>
          <Trackpoint>
            <Time>2021-07-30T09:19:02.000Z</Time>
            <Position>
              <LatitudeDegrees>42.27358088828623294830322265625</LatitudeDegrees>
              <LongitudeDegrees>-2.5906627066433429718017578125</LongitudeDegrees>
            </Position>
            <AltitudeMeters>721.20001220703125</AltitudeMeters>
            <DistanceMeters>248876.68031849</DistanceMeters>
          </Trackpoint>
          <Trackpoint>
            <Time>2021-07-30T09:19:05.000Z</Time>
            <Position>
              <LatitudeDegrees>42.273744754493236541748046875</LatitudeDegrees>
              <LongitudeDegrees>-2.5904937274754047393798828125</LongitudeDegrees>
            </Position>
            <AltitudeMeters>720.20001220703125</AltitudeMeters>
            <DistanceMeters>248899.62194017</DistanceMeters>
          </Trackpoint>
          <Trackpoint>
            <Time>2021-07-30T09:19:10.000Z</Time>
            <Position>
              <LatitudeDegrees>42.27403518743813037872314453125</LatitudeDegrees>
              <LongitudeDegrees>-2.590235061943531036376953125</LongitudeDegrees>
            </Position>
            <AltitudeMeters>720.20001220703125</AltitudeMeters>
            <DistanceMeters>248938.33573497</DistanceMeters>
          </Trackpoint>
          <Trackpoint>
            <Time>2021-07-30T09:19:20.000Z</Time>
            <Position>
              <LatitudeDegrees>42.27441505528986454010009765625</LatitudeDegrees>
              <LongitudeDegrees>-2.58963818661868572235107421875</LongitudeDegrees>
            </Position>
            <AltitudeMeters>720.79998779296875</AltitudeMeters>
            <DistanceMeters>249003.17348654</DistanceMeters>
          </Trackpoint>
          <Trackpoint>
            <Time>2021-07-30T09:19:23.000Z</Time>
            <Position>
              <LatitudeDegrees>42.2745046578347682952880859375</LatitudeDegrees>
              <LongitudeDegrees>-2.5894882343709468841552734375</LongitudeDegrees>
            </Position>
            <AltitudeMeters>721.20001220703125</AltitudeMeters>
            <DistanceMeters>249019.0469305</DistanceMeters>
          </Trackpoint>
          <Trackpoint>
            <Time>2021-07-30T09:19:36.000Z</Time>
            <Position>
              <LatitudeDegrees>42.2749723680317401885986328125</LatitudeDegrees>
              <LongitudeDegrees>-2.5890506990253925323486328125</LongitudeDegrees>
            </Position>
            <AltitudeMeters>722.4000244140625</AltitudeMeters>
            <DistanceMeters>249082.3585458</DistanceMeters>
          </Trackpoint>
          <Trackpoint>
            <Time>2021-07-30T09:19:48.000Z</Time>
            <Position>
              <LatitudeDegrees>42.27549414150416851043701171875</LatitudeDegrees>
              <LongitudeDegrees>-2.58882966823875904083251953125</LongitudeDegrees>
            </Position>
            <AltitudeMeters>723.4000244140625</AltitudeMeters>
            <DistanceMeters>249143.2189835</DistanceMeters>
          </Trackpoint>
          <Trackpoint>
            <Time>2021-07-30T09:20:00.000Z</Time>
            <Position>
              <LatitudeDegrees>42.27602723054587841033935546875</LatitudeDegrees>
              <LongitudeDegrees>-2.588627077639102935791015625</LongitudeDegrees>
            </Position>
            <AltitudeMeters>723</AltitudeMeters>
            <DistanceMeters>249204.85404591</DistanceMeters>
          </Trackpoint>
          <Trackpoint>
            <Time>2021-07-30T09:20:12.000Z</Time>
            <Position>
              <LatitudeDegrees>42.276564426720142364501953125</LatitudeDegrees>
              <LongitudeDegrees>-2.58838308043777942657470703125</LongitudeDegrees>
            </Position>
            <AltitudeMeters>723</AltitudeMeters>
            <DistanceMeters>249267.93131585</DistanceMeters>
          </Trackpoint>
          <Trackpoint>
            <Time>2021-07-30T09:20:24.000Z</Time>
            <Position>
              <LatitudeDegrees>42.27711469866335391998291015625</LatitudeDegrees>
              <LongitudeDegrees>-2.5881638936698436737060546875</LongitudeDegrees>
            </Position>
            <AltitudeMeters>723.4000244140625</AltitudeMeters>
            <DistanceMeters>249331.78219707</DistanceMeters>
          </Trackpoint>
          <Trackpoint>
            <Time>2021-07-30T09:20:31.000Z</Time>
            <Position>
              <LatitudeDegrees>42.27741326205432415008544921875</LatitudeDegrees>
              <LongitudeDegrees>-2.588044367730617523193359375</LongitudeDegrees>
            </Position>
            <AltitudeMeters>723.5999755859375</AltitudeMeters>
            <DistanceMeters>249366.43986113</DistanceMeters>
          </Trackpoint>
          <Trackpoint>
            <Time>2021-07-30T09:20:44.000Z</Time>
            <Position>
              <LatitudeDegrees>42.27795121259987354278564453125</LatitudeDegrees>
              <LongitudeDegrees>-2.58783188648521900177001953125</LongitudeDegrees>
            </Position>
            <AltitudeMeters>723.4000244140625</AltitudeMeters>
            <DistanceMeters>249428.81923562</DistanceMeters>
          </Trackpoint>
          <Trackpoint>
            <Time>2021-07-30T09:20:56.000Z</Time>
            <Position>
              <LatitudeDegrees>42.27849503047764301300048828125</LatitudeDegrees>
              <LongitudeDegrees>-2.5876321457326412200927734375</LongitudeDegrees>
            </Position>
            <AltitudeMeters>724.20001220703125</AltitudeMeters>
            <DistanceMeters>249491.54248206</DistanceMeters>
          </Trackpoint>
          <Trackpoint>
            <Time>2021-07-30T09:20:58.000Z</Time>
            <Position>
              <LatitudeDegrees>42.27860667742788791656494140625</LatitudeDegrees>
              <LongitudeDegrees>-2.58758042939007282257080078125</LongitudeDegrees>
            </Position>
            <AltitudeMeters>723.20001220703125</AltitudeMeters>
            <DistanceMeters>249504.67887277</DistanceMeters>
          </Trackpoint>
          <Trackpoint>
            <Time>2021-07-30T09:20:59.000Z</Time>
            <Position>
              <LatitudeDegrees>42.27866015397012233734130859375</LatitudeDegrees>
              <LongitudeDegrees>-2.58754371665418148040771484375</LongitudeDegrees>
            </Position>
            <AltitudeMeters>722.79998779296875</AltitudeMeters>
            <DistanceMeters>249511.35445719</DistanceMeters>
          </Trackpoint>
          <Trackpoint>
            <Time>2021-07-30T09:21:09.000Z</Time>
            <Position>
              <LatitudeDegrees>42.27909819222986698150634765625</LatitudeDegrees>
              <LongitudeDegrees>-2.5870601646602153778076171875</LongitudeDegrees>
            </Position>
            <AltitudeMeters>722.20001220703125</AltitudeMeters>
            <DistanceMeters>249574.3041867</DistanceMeters>
          </Trackpoint>
          <Trackpoint>
            <Time>2021-07-30T09:21:20.000Z</Time>
            <Position>
              <LatitudeDegrees>42.2795116715133190155029296875</LatitudeDegrees>
              <LongitudeDegrees>-2.5865029357373714447021484375</LongitudeDegrees>
            </Position>
            <AltitudeMeters>722.4000244140625</AltitudeMeters>
            <DistanceMeters>249639.29349786</DistanceMeters>
          </Trackpoint>
          <Trackpoint>
            <Time>2021-07-30T09:21:23.000Z</Time>
            <Position>
              <LatitudeDegrees>42.27965424768626689910888671875</LatitudeDegrees>
              <LongitudeDegrees>-2.58633420802652835845947265625</LongitudeDegrees>
            </Position>
            <AltitudeMeters>721.20001220703125</AltitudeMeters>
            <DistanceMeters>249660.38600379</DistanceMeters>
          </Trackpoint>
          <Trackpoint>
            <Time>2021-07-30T09:21:28.000Z</Time>
            <Position>
              <LatitudeDegrees>42.27990813553333282470703125</LatitudeDegrees>
              <LongitudeDegrees>-2.58601837791502475738525390625</LongitudeDegrees>
            </Position>
            <AltitudeMeters>720.4000244140625</AltitudeMeters>
            <DistanceMeters>249698.7911418</DistanceMeters>
          </Trackpoint>
          <Trackpoint>
            <Time>2021-07-30T09:21:29.000Z</Time>
            <Position>
              <LatitudeDegrees>42.27994929067790508270263671875</LatitudeDegrees>
              <LongitudeDegrees>-2.585943527519702911376953125</LongitudeDegrees>
            </Position>
            <AltitudeMeters>720.20001220703125</AltitudeMeters>
            <DistanceMeters>249706.47010001</DistanceMeters>
          </Trackpoint>
          <Trackpoint>
            <Time>2021-07-30T09:21:33.000Z</Time>
            <Position>
              <LatitudeDegrees>42.28009580634534358978271484375</LatitudeDegrees>
              <LongitudeDegrees>-2.58565108291804790496826171875</LongitudeDegrees>
            </Position>
            <AltitudeMeters>719.20001220703125</AltitudeMeters>
            <DistanceMeters>249735.55448484</DistanceMeters>
          </Trackpoint>
          <Trackpoint>
            <Time>2021-07-30T09:21:40.000Z</Time>
            <Position>
              <LatitudeDegrees>42.28033133782446384429931640625</LatitudeDegrees>
              <LongitudeDegrees>-2.5851237773895263671875</LongitudeDegrees>
            </Position>
            <AltitudeMeters>718</AltitudeMeters>
            <DistanceMeters>249786.27703545</DistanceMeters>
          </Trackpoint>
          <Trackpoint>
            <Time>2021-07-30T09:21:44.000Z</Time>
            <Position>
              <LatitudeDegrees>42.28045664727687835693359375</LatitudeDegrees>
              <LongitudeDegrees>-2.5847900100052356719970703125</LongitudeDegrees>
            </Position>
            <AltitudeMeters>717</AltitudeMeters>
            <DistanceMeters>249817.09852214</DistanceMeters>
          </Trackpoint>
          <Trackpoint>
            <Time>2021-07-30T09:21:49.000Z</Time>
            <Position>
              <LatitudeDegrees>42.28057240135967731475830078125</LatitudeDegrees>
              <LongitudeDegrees>-2.584350295364856719970703125</LongitudeDegrees>
            </Position>
            <AltitudeMeters>715.79998779296875</AltitudeMeters>
            <DistanceMeters>249855.53186502</DistanceMeters>
          </Trackpoint>
          <Trackpoint>
            <Time>2021-07-30T09:21:58.000Z</Time>
            <Position>
              <LatitudeDegrees>42.280697040259838104248046875</LatitudeDegrees>
              <LongitudeDegrees>-2.583576142787933349609375</LongitudeDegrees>
            </Position>
            <AltitudeMeters>714.79998779296875</AltitudeMeters>
            <DistanceMeters>249920.77350059</DistanceMeters>
          </Trackpoint>
          <Trackpoint>
            <Time>2021-07-30T09:22:00.000Z</Time>
            <Position>
              <LatitudeDegrees>42.28071187622845172882080078125</LatitudeDegrees>
              <LongitudeDegrees>-2.583411522209644317626953125</LongitudeDegrees>
            </Position>
            <AltitudeMeters>714.79998779296875</AltitudeMeters>
            <DistanceMeters>249934.42960321</DistanceMeters>
          </Trackpoint>
          <Trackpoint>
            <Time>2021-07-30T09:22:10.000Z</Time>
            <Position>
              <LatitudeDegrees>42.2807977907359600067138671875</LatitudeDegrees>
              <LongitudeDegrees>-2.58261247538030147552490234375</LongitudeDegrees>
            </Position>
            <AltitudeMeters>714</AltitudeMeters>
            <DistanceMeters>250000.9204682</DistanceMeters>
          </Trackpoint>
          <Trackpoint>
            <Time>2021-07-30T09:22:11.000Z</Time>
            <Position>
              <LatitudeDegrees>42.28080776520073413848876953125</LatitudeDegrees>
              <LongitudeDegrees>-2.58253284730017185211181640625</LongitudeDegrees>
            </Position>
            <AltitudeMeters>713.79998779296875</AltitudeMeters>
            <DistanceMeters>250007.5723382</DistanceMeters>
          </Trackpoint>
          <Trackpoint>
            <Time>2021-07-30T09:22:17.000Z</Time>
            <Position>
              <LatitudeDegrees>42.28088387288153171539306640625</LatitudeDegrees>
              <LongitudeDegrees>-2.58204837329685688018798828125</LongitudeDegrees>
            </Position>
            <AltitudeMeters>712.5999755859375</AltitudeMeters>
            <DistanceMeters>250048.35706894</DistanceMeters>
          </Trackpoint>
          <Trackpoint>
            <Time>2021-07-30T09:22:22.000Z</Time>
            <Position>
              <LatitudeDegrees>42.28096065111458301544189453125</LatitudeDegrees>
              <LongitudeDegrees>-2.5816597044467926025390625</LongitudeDegrees>
            </Position>
            <AltitudeMeters>711.5999755859375</AltitudeMeters>
            <DistanceMeters>250081.48393221</DistanceMeters>
          </Trackpoint>
          <Trackpoint>
            <Time>2021-07-30T09:22:32.000Z</Time>
            <Position>
              <LatitudeDegrees>42.28118109516799449920654296875</LatitudeDegrees>
              <LongitudeDegrees>-2.5809681974351406097412109375</LongitudeDegrees>
            </Position>
            <AltitudeMeters>711.79998779296875</AltitudeMeters>
            <DistanceMeters>250143.4886995</DistanceMeters>
          </Trackpoint>
          <Trackpoint>
            <Time>2021-07-30T09:22:44.000Z</Time>
            <Position>
              <LatitudeDegrees>42.28147446177899837493896484375</LatitudeDegrees>
              <LongitudeDegrees>-2.580303847789764404296875</LongitudeDegrees>
            </Position>
            <AltitudeMeters>712.5999755859375</AltitudeMeters>
            <DistanceMeters>250207.19927493</DistanceMeters>
          </Trackpoint>
          <Trackpoint>
            <Time>2021-07-30T09:22:45.000Z</Time>
            <Position>
              <LatitudeDegrees>42.28149541653692722320556640625</LatitudeDegrees>
              <LongitudeDegrees>-2.58025716058909893035888671875</LongitudeDegrees>
            </Position>
            <AltitudeMeters>712.79998779296875</AltitudeMeters>
            <DistanceMeters>250211.6957559</DistanceMeters>
          </Trackpoint>
          <Trackpoint>
            <Time>2021-07-30T09:22:52.000Z</Time>
            <Position>
              <LatitudeDegrees>42.28164394386112689971923828125</LatitudeDegrees>
              <LongitudeDegrees>-2.5799513049423694610595703125</LongitudeDegrees>
            </Position>
            <AltitudeMeters>713.79998779296875</AltitudeMeters>
            <DistanceMeters>250241.8226715</DistanceMeters>
          </Trackpoint>
          <Trackpoint>
            <Time>2021-07-30T09:23:00.000Z</Time>
            <Position>
              <LatitudeDegrees>42.2818109951913356781005859375</LatitudeDegrees>
              <LongitudeDegrees>-2.57962868548929691314697265625</LongitudeDegrees>
            </Position>
            <AltitudeMeters>715</AltitudeMeters>
            <DistanceMeters>250274.24920633</DistanceMeters>
          </Trackpoint>
          <Trackpoint>
            <Time>2021-07-30T09:23:09.000Z</Time>
            <Position>
              <LatitudeDegrees>42.28200654499232769012451171875</LatitudeDegrees>
              <LongitudeDegrees>-2.5792698562145233154296875</LongitudeDegrees>
            </Position>
            <AltitudeMeters>716.20001220703125</AltitudeMeters>
            <DistanceMeters>250310.94810021</DistanceMeters>
          </Trackpoint>
          <Trackpoint>
            <Time>2021-07-30T09:23:23.000Z</Time>
            <Position>
              <LatitudeDegrees>42.28230209089815616607666015625</LatitudeDegrees>
              <LongitudeDegrees>-2.578735090792179107666015625</LongitudeDegrees>
            </Position>
            <AltitudeMeters>717.20001220703125</AltitudeMeters>
            <DistanceMeters>250365.91364156</DistanceMeters>
          </Trackpoint>
          <Trackpoint>
            <Time>2021-07-30T09:23:29.000Z</Time>
            <Position>
              <LatitudeDegrees>42.28242932818830013275146484375</LatitudeDegrees>
              <LongitudeDegrees>-2.5784946978092193603515625</LongitudeDegrees>
            </Position>
            <AltitudeMeters>718.4000244140625</AltitudeMeters>
            <DistanceMeters>250390.2530979</DistanceMeters>
          </Trackpoint>
          <Trackpoint>
            <Time>2021-07-30T09:23:40.000Z</Time>
            <Position>
              <LatitudeDegrees>42.282634936273097991943359375</LatitudeDegrees>
              <LongitudeDegrees>-2.578055821359157562255859375</LongitudeDegrees>
            </Position>
            <AltitudeMeters>719.4000244140625</AltitudeMeters>
            <DistanceMeters>250433.02884324</DistanceMeters>
          </Trackpoint>
          <Trackpoint>
            <Time>2021-07-30T09:23:48.000Z</Time>
            <Position>
              <LatitudeDegrees>42.28273057378828525543212890625</LatitudeDegrees>
              <LongitudeDegrees>-2.57770621217787265777587890625</LongitudeDegrees>
            </Position>
            <AltitudeMeters>720.5999755859375</AltitudeMeters>
            <DistanceMeters>250463.72261909</DistanceMeters>
          </Trackpoint>
          <Trackpoint>
            <Time>2021-07-30T09:23:58.000Z</Time>
            <Position>
              <LatitudeDegrees>42.28278438560664653778076171875</LatitudeDegrees>
              <LongitudeDegrees>-2.577248476445674896240234375</LongitudeDegrees>
            </Position>
            <AltitudeMeters>721.79998779296875</AltitudeMeters>
            <DistanceMeters>250501.88764746</DistanceMeters>
          </Trackpoint>
          <Trackpoint>
            <Time>2021-07-30T09:24:14.000Z</Time>
            <Position>
              <LatitudeDegrees>42.28277483023703098297119140625</LatitudeDegrees>
              <LongitudeDegrees>-2.57649309933185577392578125</LongitudeDegrees>
            </Position>
            <AltitudeMeters>722.5999755859375</AltitudeMeters>
            <DistanceMeters>250564.09821981</DistanceMeters>
          </Trackpoint>
          <Trackpoint>
            <Time>2021-07-30T09:24:17.000Z</Time>
            <Position>
              <LatitudeDegrees>42.28275689296424388885498046875</LatitudeDegrees>
              <LongitudeDegrees>-2.57635789923369884490966796875</LongitudeDegrees>
            </Position>
            <AltitudeMeters>723</AltitudeMeters>
            <DistanceMeters>250575.40919338</DistanceMeters>
          </Trackpoint>
          <Trackpoint>
            <Time>2021-07-30T09:24:33.000Z</Time>
            <Position>
              <LatitudeDegrees>42.28269017301499843597412109375</LatitudeDegrees>
              <LongitudeDegrees>-2.5756071321666240692138671875</LongitudeDegrees>
            </Position>
            <AltitudeMeters>722.4000244140625</AltitudeMeters>
            <DistanceMeters>250637.67555221</DistanceMeters>
          </Trackpoint>
          <Trackpoint>
            <Time>2021-07-30T09:24:38.000Z</Time>
            <Position>
              <LatitudeDegrees>42.28270190767943859100341796875</LatitudeDegrees>
              <LongitudeDegrees>-2.57532239891588687896728515625</LongitudeDegrees>
            </Position>
            <AltitudeMeters>722</AltitudeMeters>
            <DistanceMeters>250661.15811272</DistanceMeters>
          </Trackpoint>
          <Trackpoint>
            <Time>2021-07-30T09:24:42.000Z</Time>
            <Position>
              <LatitudeDegrees>42.2827353514730930328369140625</LatitudeDegrees>
              <LongitudeDegrees>-2.57505518384277820587158203125</LongitudeDegrees>
            </Position>
            <AltitudeMeters>720.79998779296875</AltitudeMeters>
            <DistanceMeters>250683.47462625</DistanceMeters>
          </Trackpoint>
          <Trackpoint>
            <Time>2021-07-30T09:24:45.000Z</Time>
            <Position>
              <LatitudeDegrees>42.28278488852083683013916015625</LatitudeDegrees>
              <LongitudeDegrees>-2.5748366676270961761474609375</LongitudeDegrees>
            </Position>
            <AltitudeMeters>719.4000244140625</AltitudeMeters>
            <DistanceMeters>250702.29399468</DistanceMeters>
          </Trackpoint>
          <Trackpoint>
            <Time>2021-07-30T09:24:49.000Z</Time>
            <Position>
              <LatitudeDegrees>42.28289184160530567169189453125</LatitudeDegrees>
              <LongitudeDegrees>-2.574528716504573822021484375</LongitudeDegrees>
            </Position>
            <AltitudeMeters>718.5999755859375</AltitudeMeters>
            <DistanceMeters>250730.30738011</DistanceMeters>
          </Trackpoint>
          <Trackpoint>
            <Time>2021-07-30T09:24:52.000Z</Time>
            <Position>
              <LatitudeDegrees>42.2830096073448657989501953125</LatitudeDegrees>
              <LongitudeDegrees>-2.5742970407009124755859375</LongitudeDegrees>
            </Position>
            <AltitudeMeters>717</AltitudeMeters>
            <DistanceMeters>250753.45374992</DistanceMeters>
          </Trackpoint>
          <Trackpoint>
            <Time>2021-07-30T09:24:54.000Z</Time>
            <Position>
              <LatitudeDegrees>42.28310390375554561614990234375</LatitudeDegrees>
              <LongitudeDegrees>-2.574143148958683013916015625</LongitudeDegrees>
            </Position>
            <AltitudeMeters>715.4000244140625</AltitudeMeters>
            <DistanceMeters>250769.90792118</DistanceMeters>
          </Trackpoint>
          <Trackpoint>
            <Time>2021-07-30T09:24:56.000Z</Time>
            <Position>
              <LatitudeDegrees>42.28321571834385395050048828125</LatitudeDegrees>
              <LongitudeDegrees>-2.5739944539964199066162109375</LongitudeDegrees>
            </Position>
            <AltitudeMeters>713.79998779296875</AltitudeMeters>
            <DistanceMeters>250787.36647783</DistanceMeters>
          </Trackpoint>
          <Trackpoint>
            <Time>2021-07-30T09:24:58.000Z</Time>
            <Position>
              <LatitudeDegrees>42.2833472304046154022216796875</LatitudeDegrees>
              <LongitudeDegrees>-2.573861517012119293212890625</LongitudeDegrees>
            </Position>
            <AltitudeMeters>712.20001220703125</AltitudeMeters>
            <DistanceMeters>250805.64473728</DistanceMeters>
          </Trackpoint>
          <Trackpoint>
            <Time>2021-07-30T09:25:00.000Z</Time>
            <Position>
              <LatitudeDegrees>42.28349450044333934783935546875</LatitudeDegrees>
              <LongitudeDegrees>-2.573740147054195404052734375</LongitudeDegrees>
            </Position>
            <AltitudeMeters>710.5999755859375</AltitudeMeters>
            <DistanceMeters>250824.84272076</DistanceMeters>
          </Trackpoint>
          <Trackpoint>
            <Time>2021-07-30T09:25:02.000Z</Time>
            <Position>
              <LatitudeDegrees>42.28365845046937465667724609375</LatitudeDegrees>
              <LongitudeDegrees>-2.57363897748291492462158203125</LongitudeDegrees>
            </Position>
            <AltitudeMeters>709.20001220703125</AltitudeMeters>
            <DistanceMeters>250844.90258783</DistanceMeters>
          </Trackpoint>
          <Trackpoint>
            <Time>2021-07-30T09:25:04.000Z</Time>
            <Position>
              <LatitudeDegrees>42.283842265605926513671875</LatitudeDegrees>
              <LongitudeDegrees>-2.57357259280979633331298828125</LongitudeDegrees>
            </Position>
            <AltitudeMeters>708</AltitudeMeters>
            <DistanceMeters>250866.0790518</DistanceMeters>
          </Trackpoint>
          <Trackpoint>
            <Time>2021-07-30T09:25:05.000Z</Time>
            <Position>
              <LatitudeDegrees>42.2839396633207798004150390625</LatitudeDegrees>
              <LongitudeDegrees>-2.57354795001447200775146484375</LongitudeDegrees>
            </Position>
            <AltitudeMeters>706.4000244140625</AltitudeMeters>
            <DistanceMeters>250877.10788354</DistanceMeters>
          </Trackpoint>
          <Trackpoint>
            <Time>2021-07-30T09:25:06.000Z</Time>
            <Position>
              <LatitudeDegrees>42.2840385697782039642333984375</LatitudeDegrees>
              <LongitudeDegrees>-2.573525570333003997802734375</LongitudeDegrees>
            </Position>
            <AltitudeMeters>704.79998779296875</AltitudeMeters>
            <DistanceMeters>250888.26937693</DistanceMeters>
          </Trackpoint>
          <Trackpoint>
            <Time>2021-07-30T09:25:08.000Z</Time>
            <Position>
              <LatitudeDegrees>42.2842420823872089385986328125</LatitudeDegrees>
              <LongitudeDegrees>-2.57348508574068546295166015625</LongitudeDegrees>
            </Position>
            <AltitudeMeters>703.20001220703125</AltitudeMeters>
            <DistanceMeters>250911.1647026</DistanceMeters>
          </Trackpoint>
          <Trackpoint>
            <Time>2021-07-30T09:25:09.000Z</Time>
            <Position>
              <LatitudeDegrees>42.28434576652944087982177734375</LatitudeDegrees>
              <LongitudeDegrees>-2.5734677352011203765869140625</LongitudeDegrees>
            </Position>
            <AltitudeMeters>701.5999755859375</AltitudeMeters>
            <DistanceMeters>250922.79295976</DistanceMeters>
          </Trackpoint>
          <Trackpoint>
            <Time>2021-07-30T09:25:10.000Z</Time>
            <Position>
              <LatitudeDegrees>42.284450791776180267333984375</LatitudeDegrees>
              <LongitudeDegrees>-2.57344921119511127471923828125</LongitudeDegrees>
            </Position>
            <AltitudeMeters>700.4000244140625</AltitudeMeters>
            <DistanceMeters>250934.58163554</DistanceMeters>
          </Trackpoint>
          <Trackpoint>
            <Time>2021-07-30T09:25:12.000Z</Time>
            <Position>
              <LatitudeDegrees>42.2846662066876888275146484375</LatitudeDegrees>
              <LongitudeDegrees>-2.57341266609728336334228515625</LongitudeDegrees>
            </Position>
            <AltitudeMeters>699.20001220703125</AltitudeMeters>
            <DistanceMeters>250958.74571638</DistanceMeters>
          </Trackpoint>
          <Trackpoint>
            <Time>2021-07-30T09:25:14.000Z</Time>
            <Position>
              <LatitudeDegrees>42.28488639928400516510009765625</LatitudeDegrees>
              <LongitudeDegrees>-2.57336069829761981964111328125</LongitudeDegrees>
            </Position>
            <AltitudeMeters>697.4000244140625</AltitudeMeters>
            <DistanceMeters>250983.62439258</DistanceMeters>
          </Trackpoint>
          <Trackpoint>
            <Time>2021-07-30T09:25:15.000Z</Time>
            <Position>
              <LatitudeDegrees>42.28499385528266429901123046875</LatitudeDegrees>
              <LongitudeDegrees>-2.57332432083785533905029296875</LongitudeDegrees>
            </Position>
            <AltitudeMeters>696.4000244140625</AltitudeMeters>
            <DistanceMeters>250995.95371969</DistanceMeters>
          </Trackpoint>
          <Trackpoint>
            <Time>2021-07-30T09:25:16.000Z</Time>
            <Position>
              <LatitudeDegrees>42.28509896434843540191650390625</LatitudeDegrees>
              <LongitudeDegrees>-2.57327570579946041107177734375</LongitudeDegrees>
            </Position>
            <AltitudeMeters>695.20001220703125</AltitudeMeters>
            <DistanceMeters>251008.31851748</DistanceMeters>
          </Trackpoint>
          <Trackpoint>
            <Time>2021-07-30T09:25:18.000Z</Time>
            <Position>
              <LatitudeDegrees>42.28529878892004489898681640625</LatitudeDegrees>
              <LongitudeDegrees>-2.57315299473702907562255859375</LongitudeDegrees>
            </Position>
            <AltitudeMeters>694</AltitudeMeters>
            <DistanceMeters>251032.7468529</DistanceMeters>
          </Trackpoint>
          <Trackpoint>
            <Time>2021-07-30T09:25:22.000Z</Time>
            <Position>
              <LatitudeDegrees>42.28565384633839130401611328125</LatitudeDegrees>
              <LongitudeDegrees>-2.5728340633213520050048828125</LongitudeDegrees>
            </Position>
            <AltitudeMeters>693</AltitudeMeters>
            <DistanceMeters>251080.19545276</DistanceMeters>
          </Trackpoint>
          <Trackpoint>
            <Time>2021-07-30T09:25:28.000Z</Time>
            <Position>
              <LatitudeDegrees>42.28610931895673274993896484375</LatitudeDegrees>
              <LongitudeDegrees>-2.57232871837913990020751953125</LongitudeDegrees>
            </Position>
            <AltitudeMeters>692.79998779296875</AltitudeMeters>
            <DistanceMeters>251145.78068535</DistanceMeters>
          </Trackpoint>
          <Trackpoint>
            <Time>2021-07-30T09:25:31.000Z</Time>
            <Position>
              <LatitudeDegrees>42.28631325066089630126953125</LatitudeDegrees>
              <LongitudeDegrees>-2.57210156880319118499755859375</LongitudeDegrees>
            </Position>
            <AltitudeMeters>691.4000244140625</AltitudeMeters>
            <DistanceMeters>251175.19202913</DistanceMeters>
          </Trackpoint>
          <Trackpoint>
            <Time>2021-07-30T09:25:39.000Z</Time>
            <Position>
              <LatitudeDegrees>42.2867965511977672576904296875</LatitudeDegrees>
              <LongitudeDegrees>-2.571600414812564849853515625</LongitudeDegrees>
            </Position>
            <AltitudeMeters>691</AltitudeMeters>
            <DistanceMeters>251242.98891159</DistanceMeters>
          </Trackpoint>
          <Trackpoint>
            <Time>2021-07-30T09:25:47.000Z</Time>
            <Position>
              <LatitudeDegrees>42.28726803325116634368896484375</LatitudeDegrees>
              <LongitudeDegrees>-2.57112599909305572509765625</LongitudeDegrees>
            </Position>
            <AltitudeMeters>691</AltitudeMeters>
            <DistanceMeters>251308.40871402</DistanceMeters>
          </Trackpoint>
          <Trackpoint>
            <Time>2021-07-30T09:25:57.000Z</Time>
            <Position>
              <LatitudeDegrees>42.2877266071736812591552734375</LatitudeDegrees>
              <LongitudeDegrees>-2.5706398487091064453125</LongitudeDegrees>
            </Position>
            <AltitudeMeters>691.20001220703125</AltitudeMeters>
            <DistanceMeters>251373.27333949</DistanceMeters>
          </Trackpoint>
          <Trackpoint>
            <Time>2021-07-30T09:26:04.000Z</Time>
            <Position>
              <LatitudeDegrees>42.2879706881940364837646484375</LatitudeDegrees>
              <LongitudeDegrees>-2.570331394672393798828125</LongitudeDegrees>
            </Position>
            <AltitudeMeters>692.5999755859375</AltitudeMeters>
            <DistanceMeters>251410.46291557</DistanceMeters>
          </Trackpoint>
          <Trackpoint>
            <Time>2021-07-30T09:26:09.000Z</Time>
            <Position>
              <LatitudeDegrees>42.28811527602374553680419921875</LatitudeDegrees>
              <LongitudeDegrees>-2.57010919041931629180908203125</LongitudeDegrees>
            </Position>
            <AltitudeMeters>693.79998779296875</AltitudeMeters>
            <DistanceMeters>251434.82906967</DistanceMeters>
          </Trackpoint>
          <Trackpoint>
            <Time>2021-07-30T09:26:21.000Z</Time>
            <Position>
              <LatitudeDegrees>42.28851727209985256195068359375</LatitudeDegrees>
              <LongitudeDegrees>-2.56955296732485294342041015625</LongitudeDegrees>
            </Position>
            <AltitudeMeters>693.5999755859375</AltitudeMeters>
            <DistanceMeters>251498.85564122</DistanceMeters>
          </Trackpoint>
          <Trackpoint>
            <Time>2021-07-30T09:26:26.000Z</Time>
            <Position>
              <LatitudeDegrees>42.2887324355542659759521484375</LatitudeDegrees>
              <LongitudeDegrees>-2.56930788047611713409423828125</LongitudeDegrees>
            </Position>
            <AltitudeMeters>692.5999755859375</AltitudeMeters>
            <DistanceMeters>251530.17238662</DistanceMeters>
          </Trackpoint>
          <Trackpoint>
            <Time>2021-07-30T09:26:36.000Z</Time>
            <Position>
              <LatitudeDegrees>42.289077937602996826171875</LatitudeDegrees>
              <LongitudeDegrees>-2.56874042563140392303466796875</LongitudeDegrees>
            </Position>
            <AltitudeMeters>691.5999755859375</AltitudeMeters>
            <DistanceMeters>251590.68493274</DistanceMeters>
          </Trackpoint>
          <Trackpoint>
            <Time>2021-07-30T09:26:48.000Z</Time>
            <Position>
              <LatitudeDegrees>42.2893537022173404693603515625</LatitudeDegrees>
              <LongitudeDegrees>-2.56826047785580158233642578125</LongitudeDegrees>
            </Position>
            <AltitudeMeters>692.20001220703125</AltitudeMeters>
            <DistanceMeters>251640.72170917</DistanceMeters>
          </Trackpoint>
          <Trackpoint>
            <Time>2021-07-30T09:26:55.000Z</Time>
            <Position>
              <LatitudeDegrees>42.28957481682300567626953125</LatitudeDegrees>
              <LongitudeDegrees>-2.56799242459237575531005859375</LongitudeDegrees>
            </Position>
            <AltitudeMeters>690.79998779296875</AltitudeMeters>
            <DistanceMeters>251673.77898871</DistanceMeters>
          </Trackpoint>
          <Trackpoint>
            <Time>2021-07-30T09:27:00.000Z</Time>
            <Position>
              <LatitudeDegrees>42.2896846197545528411865234375</LatitudeDegrees>
              <LongitudeDegrees>-2.56783769465982913970947265625</LongitudeDegrees>
            </Position>
            <AltitudeMeters>690.79998779296875</AltitudeMeters>
            <DistanceMeters>251691.43299841</DistanceMeters>
          </Trackpoint>
          <Trackpoint>
            <Time>2021-07-30T09:27:05.000Z</Time>
            <Position>
              <LatitudeDegrees>42.28968076407909393310546875</LatitudeDegrees>
              <LongitudeDegrees>-2.5677170790731906890869140625</LongitudeDegrees>
            </Position>
            <AltitudeMeters>690.79998779296875</AltitudeMeters>
            <DistanceMeters>251701.37317428</DistanceMeters>
          </Trackpoint>
          <Trackpoint>
            <Time>2021-07-30T09:27:09.000Z</Time>
            <Position>
              <LatitudeDegrees>42.28962636552751064300537109375</LatitudeDegrees>
              <LongitudeDegrees>-2.56772185675799846649169921875</LongitudeDegrees>
            </Position>
            <AltitudeMeters>691.20001220703125</AltitudeMeters>
            <DistanceMeters>251707.44076208</DistanceMeters>
          </Trackpoint>
          <Trackpoint>
            <Time>2021-07-30T09:27:11.000Z</Time>
            <Position>
              <LatitudeDegrees>42.28962175548076629638671875</LatitudeDegrees>
              <LongitudeDegrees>-2.56772839464247226715087890625</LongitudeDegrees>
            </Position>
            <AltitudeMeters>691.20001220703125</AltitudeMeters>
            <DistanceMeters>251708.17683584</DistanceMeters>
          </Trackpoint>
          <Trackpoint>
            <Time>2021-07-30T10:01:33.000Z</Time>
            <Position>
              <LatitudeDegrees>42.28970825672149658203125</LatitudeDegrees>
              <LongitudeDegrees>-2.567794360220432281494140625</LongitudeDegrees>
            </Position>
            <AltitudeMeters>691.79998779296875</AltitudeMeters>
            <DistanceMeters>251719.23102032</DistanceMeters>
          </Trackpoint>
          <Trackpoint>
            <Time>2021-07-30T10:01:39.000Z</Time>
            <Position>
              <LatitudeDegrees>42.28987229056656360626220703125</LatitudeDegrees>
              <LongitudeDegrees>-2.567670643329620361328125</LongitudeDegrees>
            </Position>
            <AltitudeMeters>690.79998779296875</AltitudeMeters>
            <DistanceMeters>251740.13776134</DistanceMeters>
          </Trackpoint>
          <Trackpoint>
            <Time>2021-07-30T10:01:41.000Z</Time>
            <Position>
              <LatitudeDegrees>42.28993347845971584320068359375</LatitudeDegrees>
              <LongitudeDegrees>-2.5675973854959011077880859375</LongitudeDegrees>
            </Position>
            <AltitudeMeters>690.5999755859375</AltitudeMeters>
            <DistanceMeters>251749.23554573</DistanceMeters>
          </Trackpoint>
          <Trackpoint>
            <Time>2021-07-30T10:01:45.000Z</Time>
            <Position>
              <LatitudeDegrees>42.29008737020194530487060546875</LatitudeDegrees>
              <LongitudeDegrees>-2.56742723286151885986328125</LongitudeDegrees>
            </Position>
            <AltitudeMeters>689.5999755859375</AltitudeMeters>
            <DistanceMeters>251771.36351141</DistanceMeters>
          </Trackpoint>
          <Trackpoint>
            <Time>2021-07-30T10:01:48.000Z</Time>
            <Position>
              <LatitudeDegrees>42.2902116738259792327880859375</LatitudeDegrees>
              <LongitudeDegrees>-2.5672611035406589508056640625</LongitudeDegrees>
            </Position>
            <AltitudeMeters>688.4000244140625</AltitudeMeters>
            <DistanceMeters>251790.81870825</DistanceMeters>
          </Trackpoint>
          <Trackpoint>
            <Time>2021-07-30T10:01:52.000Z</Time>
            <Position>
              <LatitudeDegrees>42.2903534956276416778564453125</LatitudeDegrees>
              <LongitudeDegrees>-2.56700386293232440948486328125</LongitudeDegrees>
            </Position>
            <AltitudeMeters>687.20001220703125</AltitudeMeters>
            <DistanceMeters>251817.23374198</DistanceMeters>
          </Trackpoint>
          <Trackpoint>
            <Time>2021-07-30T10:02:02.000Z</Time>
            <Position>
              <LatitudeDegrees>42.29062045924365520477294921875</LatitudeDegrees>
              <LongitudeDegrees>-2.5664088316261768341064453125</LongitudeDegrees>
            </Position>
            <AltitudeMeters>686.20001220703125</AltitudeMeters>
            <DistanceMeters>251874.53193526</DistanceMeters>
          </Trackpoint>
          <Trackpoint>
            <Time>2021-07-30T10:02:14.000Z</Time>
            <Position>
              <LatitudeDegrees>42.29090443812310695648193359375</LatitudeDegrees>
              <LongitudeDegrees>-2.56585889495909214019775390625</LongitudeDegrees>
            </Position>
            <AltitudeMeters>686.5999755859375</AltitudeMeters>
            <DistanceMeters>251929.75145122</DistanceMeters>
          </Trackpoint>
          <Trackpoint>
            <Time>2021-07-30T10:02:21.000Z</Time>
            <Position>
              <LatitudeDegrees>42.29115195572376251220703125</LatitudeDegrees>
              <LongitudeDegrees>-2.5656024925410747528076171875</LongitudeDegrees>
            </Position>
            <AltitudeMeters>685</AltitudeMeters>
            <DistanceMeters>251964.45897486</DistanceMeters>
          </Trackpoint>
          <Trackpoint>
            <Time>2021-07-30T10:02:23.000Z</Time>
            <Position>
              <LatitudeDegrees>42.2912406362593173980712890625</LatitudeDegrees>
              <LongitudeDegrees>-2.56554298102855682373046875</LongitudeDegrees>
            </Position>
            <AltitudeMeters>683.79998779296875</AltitudeMeters>
            <DistanceMeters>251975.47879646</DistanceMeters>
          </Trackpoint>
          <Trackpoint>
            <Time>2021-07-30T10:02:26.000Z</Time>
            <Position>
              <LatitudeDegrees>42.29137851856648921966552734375</LatitudeDegrees>
              <LongitudeDegrees>-2.56544700823724269866943359375</LongitudeDegrees>
            </Position>
            <AltitudeMeters>682.5999755859375</AltitudeMeters>
            <DistanceMeters>251992.74021014</DistanceMeters>
          </Trackpoint>
          <Trackpoint>
            <Time>2021-07-30T10:02:32.000Z</Time>
            <Position>
              <LatitudeDegrees>42.29168194346129894256591796875</LatitudeDegrees>
              <LongitudeDegrees>-2.56524617783725261688232421875</LongitudeDegrees>
            </Position>
            <AltitudeMeters>681.5999755859375</AltitudeMeters>
            <DistanceMeters>252030.34270248</DistanceMeters>
          </Trackpoint>
          <Trackpoint>
            <Time>2021-07-30T10:02:39.000Z</Time>
            <Position>
              <LatitudeDegrees>42.292051501572132110595703125</LatitudeDegrees>
              <LongitudeDegrees>-2.56494258530437946319580078125</LongitudeDegrees>
            </Position>
            <AltitudeMeters>680.5999755859375</AltitudeMeters>
            <DistanceMeters>252078.47455411</DistanceMeters>
          </Trackpoint>
          <Trackpoint>
            <Time>2021-07-30T10:02:42.000Z</Time>
            <Position>
              <LatitudeDegrees>42.2921955026686191558837890625</LatitudeDegrees>
              <LongitudeDegrees>-2.5647733546793460845947265625</LongitudeDegrees>
            </Position>
            <AltitudeMeters>679.79998779296875</AltitudeMeters>
            <DistanceMeters>252099.71169606</DistanceMeters>
          </Trackpoint>
          <Trackpoint>
            <Time>2021-07-30T10:02:44.000Z</Time>
            <Position>
              <LatitudeDegrees>42.29229030199348926544189453125</LatitudeDegrees>
              <LongitudeDegrees>-2.5646553374826908111572265625</LongitudeDegrees>
            </Position>
            <AltitudeMeters>679.20001220703125</AltitudeMeters>
            <DistanceMeters>252114.05569452</DistanceMeters>
          </Trackpoint>
          <Trackpoint>
            <Time>2021-07-30T10:02:47.000Z</Time>
            <Position>
              <LatitudeDegrees>42.292433045804500579833984375</LatitudeDegrees>
              <LongitudeDegrees>-2.56448308937251567840576171875</LongitudeDegrees>
            </Position>
            <AltitudeMeters>678.20001220703125</AltitudeMeters>
            <DistanceMeters>252135.35206955</DistanceMeters>
          </Trackpoint>
          <Trackpoint>
            <Time>2021-07-30T10:02:56.000Z</Time>
            <Position>
              <LatitudeDegrees>42.29284308850765228271484375</LatitudeDegrees>
              <LongitudeDegrees>-2.563999034464359283447265625</LongitudeDegrees>
            </Position>
            <AltitudeMeters>678.5999755859375</AltitudeMeters>
            <DistanceMeters>252195.94223829</DistanceMeters>
          </Trackpoint>
          <Trackpoint>
            <Time>2021-07-30T10:03:02.000Z</Time>
            <Position>
              <LatitudeDegrees>42.29312597773969173431396484375</LatitudeDegrees>
              <LongitudeDegrees>-2.56368555128574371337890625</LongitudeDegrees>
            </Position>
            <AltitudeMeters>677.20001220703125</AltitudeMeters>
            <DistanceMeters>252236.65472595</DistanceMeters>
          </Trackpoint>
          <Trackpoint>
            <Time>2021-07-30T10:03:07.000Z</Time>
            <Position>
              <LatitudeDegrees>42.29337609373033046722412109375</LatitudeDegrees>
              <LongitudeDegrees>-2.56341959349811077117919921875</LongitudeDegrees>
            </Position>
            <AltitudeMeters>676.20001220703125</AltitudeMeters>
            <DistanceMeters>252272.07280268</DistanceMeters>
          </Trackpoint>
          <Trackpoint>
            <Time>2021-07-30T10:03:09.000Z</Time>
            <Position>
              <LatitudeDegrees>42.29347902350127696990966796875</LatitudeDegrees>
              <LongitudeDegrees>-2.56331272423267364501953125</LongitudeDegrees>
            </Position>
            <AltitudeMeters>674.79998779296875</AltitudeMeters>
            <DistanceMeters>252286.51811356</DistanceMeters>
          </Trackpoint>
          <Trackpoint>
            <Time>2021-07-30T10:03:13.000Z</Time>
            <Position>
              <LatitudeDegrees>42.29367851279675960540771484375</LatitudeDegrees>
              <LongitudeDegrees>-2.56309923715889453887939453125</LongitudeDegrees>
            </Position>
            <AltitudeMeters>673.79998779296875</AltitudeMeters>
            <DistanceMeters>252314.83655276</DistanceMeters>
          </Trackpoint>
          <Trackpoint>
            <Time>2021-07-30T10:03:22.000Z</Time>
            <Position>
              <LatitudeDegrees>42.2941620647907257080078125</LatitudeDegrees>
              <LongitudeDegrees>-2.56271149031817913055419921875</LongitudeDegrees>
            </Position>
            <AltitudeMeters>672.5999755859375</AltitudeMeters>
            <DistanceMeters>252377.41234767</DistanceMeters>
          </Trackpoint>
          <Trackpoint>
            <Time>2021-07-30T10:03:24.000Z</Time>
            <Position>
              <LatitudeDegrees>42.2942970134317874908447265625</LatitudeDegrees>
              <LongitudeDegrees>-2.562676370143890380859375</LongitudeDegrees>
            </Position>
            <AltitudeMeters>671.5999755859375</AltitudeMeters>
            <DistanceMeters>252392.70840209</DistanceMeters>
          </Trackpoint>
          <Trackpoint>
            <Time>2021-07-30T10:03:26.000Z</Time>
            <Position>
              <LatitudeDegrees>42.29443925432860851287841796875</LatitudeDegrees>
              <LongitudeDegrees>-2.56264795549213886260986328125</LongitudeDegrees>
            </Position>
            <AltitudeMeters>670.20001220703125</AltitudeMeters>
            <DistanceMeters>252408.71215347</DistanceMeters>
          </Trackpoint>
          <Trackpoint>
            <Time>2021-07-30T10:03:29.000Z</Time>
            <Position>
              <LatitudeDegrees>42.2946634702384471893310546875</LatitudeDegrees>
              <LongitudeDegrees>-2.56261258386075496673583984375</LongitudeDegrees>
            </Position>
            <AltitudeMeters>669</AltitudeMeters>
            <DistanceMeters>252433.83733176</DistanceMeters>
          </Trackpoint>
          <Trackpoint>
            <Time>2021-07-30T10:03:35.000Z</Time>
            <Position>
              <LatitudeDegrees>42.29511969722807407379150390625</LatitudeDegrees>
              <LongitudeDegrees>-2.5625213049352169036865234375</LongitudeDegrees>
            </Position>
            <AltitudeMeters>668.20001220703125</AltitudeMeters>
            <DistanceMeters>252485.16935204</DistanceMeters>
          </Trackpoint>
          <Trackpoint>
            <Time>2021-07-30T10:03:36.000Z</Time>
            <Position>
              <LatitudeDegrees>42.2951942123472690582275390625</LatitudeDegrees>
              <LongitudeDegrees>-2.5625072233378887176513671875</LongitudeDegrees>
            </Position>
            <AltitudeMeters>668</AltitudeMeters>
            <DistanceMeters>252493.54357282</DistanceMeters>
          </Trackpoint>
          <Trackpoint>
            <Time>2021-07-30T10:03:38.000Z</Time>
            <Position>
              <LatitudeDegrees>42.2953373752534389495849609375</LatitudeDegrees>
              <LongitudeDegrees>-2.562482245266437530517578125</LongitudeDegrees>
            </Position>
            <AltitudeMeters>666.79998779296875</AltitudeMeters>
            <DistanceMeters>252509.60983359</DistanceMeters>
          </Trackpoint>
          <Trackpoint>
            <Time>2021-07-30T10:03:43.000Z</Time>
            <Position>
              <LatitudeDegrees>42.29567223228514194488525390625</LatitudeDegrees>
              <LongitudeDegrees>-2.56242248229682445526123046875</LongitudeDegrees>
            </Position>
            <AltitudeMeters>665.5999755859375</AltitudeMeters>
            <DistanceMeters>252547.20343948</DistanceMeters>
          </Trackpoint>
          <Trackpoint>
            <Time>2021-07-30T10:03:47.000Z</Time>
            <Position>
              <LatitudeDegrees>42.29592972435057163238525390625</LatitudeDegrees>
              <LongitudeDegrees>-2.56237386725842952728271484375</LongitudeDegrees>
            </Position>
            <AltitudeMeters>666.5999755859375</AltitudeMeters>
            <DistanceMeters>252576.14090739</DistanceMeters>
          </Trackpoint>
          <Trackpoint>
            <Time>2021-07-30T10:03:56.000Z</Time>
            <Position>
              <LatitudeDegrees>42.2965041361749172210693359375</LatitudeDegrees>
              <LongitudeDegrees>-2.562273032963275909423828125</LongitudeDegrees>
            </Position>
            <AltitudeMeters>665.5999755859375</AltitudeMeters>
            <DistanceMeters>252640.61077311</DistanceMeters>
          </Trackpoint>
          <Trackpoint>
            <Time>2021-07-30T10:03:58.000Z</Time>
            <Position>
              <LatitudeDegrees>42.29661963880062103271484375</LatitudeDegrees>
              <LongitudeDegrees>-2.56225149147212505340576171875</LongitudeDegrees>
            </Position>
            <AltitudeMeters>664.20001220703125</AltitudeMeters>
            <DistanceMeters>252653.58844454</DistanceMeters>
          </Trackpoint>
          <Trackpoint>
            <Time>2021-07-30T10:04:07.000Z</Time>
            <Position>
              <LatitudeDegrees>42.2970841638743877410888671875</LatitudeDegrees>
              <LongitudeDegrees>-2.5621659122407436370849609375</LongitudeDegrees>
            </Position>
            <AltitudeMeters>664</AltitudeMeters>
            <DistanceMeters>252705.76884124</DistanceMeters>
          </Trackpoint>
          <Trackpoint>
            <Time>2021-07-30T10:04:19.000Z</Time>
            <Position>
              <LatitudeDegrees>42.29763342998921871185302734375</LatitudeDegrees>
              <LongitudeDegrees>-2.562067173421382904052734375</LongitudeDegrees>
            </Position>
            <AltitudeMeters>663.4000244140625</AltitudeMeters>
            <DistanceMeters>252767.44125207</DistanceMeters>
          </Trackpoint>
          <Trackpoint>
            <Time>2021-07-30T10:04:22.000Z</Time>
            <Position>
              <LatitudeDegrees>42.29776619933545589447021484375</LatitudeDegrees>
              <LongitudeDegrees>-2.56203733384609222412109375</LongitudeDegrees>
            </Position>
            <AltitudeMeters>663</AltitudeMeters>
            <DistanceMeters>252782.42175473</DistanceMeters>
          </Trackpoint>
          <Trackpoint>
            <Time>2021-07-30T10:04:35.000Z</Time>
            <Position>
              <LatitudeDegrees>42.2983427904546260833740234375</LatitudeDegrees>
              <LongitudeDegrees>-2.561955861747264862060546875</LongitudeDegrees>
            </Position>
            <AltitudeMeters>662.79998779296875</AltitudeMeters>
            <DistanceMeters>252846.94706299</DistanceMeters>
          </Trackpoint>
          <Trackpoint>
            <Time>2021-07-30T10:04:43.000Z</Time>
            <Position>
              <LatitudeDegrees>42.29869156144559383392333984375</LatitudeDegrees>
              <LongitudeDegrees>-2.561965920031070709228515625</LongitudeDegrees>
            </Position>
            <AltitudeMeters>662</AltitudeMeters>
            <DistanceMeters>252885.77475057</DistanceMeters>
          </Trackpoint>
          <Trackpoint>
            <Time>2021-07-30T10:04:51.000Z</Time>
            <Position>
              <LatitudeDegrees>42.29902599938213825225830078125</LatitudeDegrees>
              <LongitudeDegrees>-2.562046051025390625</LongitudeDegrees>
            </Position>
            <AltitudeMeters>662</AltitudeMeters>
            <DistanceMeters>252923.57842708</DistanceMeters>
          </Trackpoint>
          <Trackpoint>
            <Time>2021-07-30T10:05:04.000Z</Time>
            <Position>
              <LatitudeDegrees>42.29954685084521770477294921875</LatitudeDegrees>
              <LongitudeDegrees>-2.5623033754527568817138671875</LongitudeDegrees>
            </Position>
            <AltitudeMeters>661.79998779296875</AltitudeMeters>
            <DistanceMeters>252985.29950338</DistanceMeters>
          </Trackpoint>
          <Trackpoint>
            <Time>2021-07-30T10:05:15.000Z</Time>
            <Position>
              <LatitudeDegrees>42.29995940811932086944580078125</LatitudeDegrees>
              <LongitudeDegrees>-2.5626259110867977142333984375</LongitudeDegrees>
            </Position>
            <AltitudeMeters>661</AltitudeMeters>
            <DistanceMeters>253038.34203299</DistanceMeters>
          </Trackpoint>
          <Trackpoint>
            <Time>2021-07-30T10:05:28.000Z</Time>
            <Position>
              <LatitudeDegrees>42.300452850759029388427734375</LatitudeDegrees>
              <LongitudeDegrees>-2.56299764849245548248291015625</LongitudeDegrees>
            </Position>
            <AltitudeMeters>661</AltitudeMeters>
            <DistanceMeters>253101.21367781</DistanceMeters>
          </Trackpoint>
          <Trackpoint>
            <Time>2021-07-30T10:05:41.000Z</Time>
            <Position>
              <LatitudeDegrees>42.3010028712451457977294921875</LatitudeDegrees>
              <LongitudeDegrees>-2.56324231624603271484375</LongitudeDegrees>
            </Position>
            <AltitudeMeters>660.5999755859375</AltitudeMeters>
            <DistanceMeters>253165.66028828</DistanceMeters>
          </Trackpoint>
          <Trackpoint>
            <Time>2021-07-30T10:05:53.000Z</Time>
            <Position>
              <LatitudeDegrees>42.3015500418841838836669921875</LatitudeDegrees>
              <LongitudeDegrees>-2.5633058510720729827880859375</LongitudeDegrees>
            </Position>
            <AltitudeMeters>661</AltitudeMeters>
            <DistanceMeters>253226.78558983</DistanceMeters>
          </Trackpoint>
          <Trackpoint>
            <Time>2021-07-30T10:06:05.000Z</Time>
            <Position>
              <LatitudeDegrees>42.30209595523774623870849609375</LatitudeDegrees>
              <LongitudeDegrees>-2.5631900131702423095703125</LongitudeDegrees>
            </Position>
            <AltitudeMeters>661.5999755859375</AltitudeMeters>
            <DistanceMeters>253288.29048828</DistanceMeters>
          </Trackpoint>
          <Trackpoint>
            <Time>2021-07-30T10:06:18.000Z</Time>
            <Position>
              <LatitudeDegrees>42.302629463374614715576171875</LatitudeDegrees>
              <LongitudeDegrees>-2.5628847442567348480224609375</LongitudeDegrees>
            </Position>
            <AltitudeMeters>660.79998779296875</AltitudeMeters>
            <DistanceMeters>253352.76945769</DistanceMeters>
          </Trackpoint>
          <Trackpoint>
            <Time>2021-07-30T10:06:27.000Z</Time>
            <Position>
              <LatitudeDegrees>42.30293883942067623138427734375</LatitudeDegrees>
              <LongitudeDegrees>-2.56260202266275882720947265625</LongitudeDegrees>
            </Position>
            <AltitudeMeters>661.20001220703125</AltitudeMeters>
            <DistanceMeters>253394.33090969</DistanceMeters>
          </Trackpoint>
          <Trackpoint>
            <Time>2021-07-30T10:06:39.000Z</Time>
            <Position>
              <LatitudeDegrees>42.30325802229344844818115234375</LatitudeDegrees>
              <LongitudeDegrees>-2.562161721289157867431640625</LongitudeDegrees>
            </Position>
            <AltitudeMeters>662.20001220703125</AltitudeMeters>
            <DistanceMeters>253445.08300448</DistanceMeters>
          </Trackpoint>
          <Trackpoint>
            <Time>2021-07-30T10:06:51.000Z</Time>
            <Position>
              <LatitudeDegrees>42.3034869320690631866455078125</LatitudeDegrees>
              <LongitudeDegrees>-2.5617121160030364990234375</LongitudeDegrees>
            </Position>
            <AltitudeMeters>663.5999755859375</AltitudeMeters>
            <DistanceMeters>253490.0154697</DistanceMeters>
          </Trackpoint>
          <Trackpoint>
            <Time>2021-07-30T10:06:59.000Z</Time>
            <Position>
              <LatitudeDegrees>42.30360872112214565277099609375</LatitudeDegrees>
              <LongitudeDegrees>-2.561393268406391143798828125</LongitudeDegrees>
            </Position>
            <AltitudeMeters>664.5999755859375</AltitudeMeters>
            <DistanceMeters>253519.55609474</DistanceMeters>
          </Trackpoint>
          <Trackpoint>
            <Time>2021-07-30T10:07:08.000Z</Time>
            <Position>
              <LatitudeDegrees>42.30370963923633098602294921875</LatitudeDegrees>
              <LongitudeDegrees>-2.561023794114589691162109375</LongitudeDegrees>
            </Position>
            <AltitudeMeters>665.79998779296875</AltitudeMeters>
            <DistanceMeters>253551.97817362</DistanceMeters>
          </Trackpoint>
          <Trackpoint>
            <Time>2021-07-30T10:07:12.000Z</Time>
            <Position>
              <LatitudeDegrees>42.30374249629676342010498046875</LatitudeDegrees>
              <LongitudeDegrees>-2.56085875444114208221435546875</LongitudeDegrees>
            </Position>
            <AltitudeMeters>666.79998779296875</AltitudeMeters>
            <DistanceMeters>253566.04726299</DistanceMeters>
          </Trackpoint>
          <Trackpoint>
            <Time>2021-07-30T10:07:18.000Z</Time>
            <Position>
              <LatitudeDegrees>42.3037831485271453857421875</LatitudeDegrees>
              <LongitudeDegrees>-2.56061148829758167266845703125</LongitudeDegrees>
            </Position>
            <AltitudeMeters>668.20001220703125</AltitudeMeters>
            <DistanceMeters>253586.89864473</DistanceMeters>
          </Trackpoint>
          <Trackpoint>
            <Time>2021-07-30T10:07:37.000Z</Time>
            <Position>
              <LatitudeDegrees>42.30386788956820964813232421875</LatitudeDegrees>
              <LongitudeDegrees>-2.5598575361073017120361328125</LongitudeDegrees>
            </Position>
            <AltitudeMeters>668.5999755859375</AltitudeMeters>
            <DistanceMeters>253649.67470483</DistanceMeters>
          </Trackpoint>
          <Trackpoint>
            <Time>2021-07-30T10:07:39.000Z</Time>
            <Position>
              <LatitudeDegrees>42.30387660674750804901123046875</LatitudeDegrees>
              <LongitudeDegrees>-2.5597797520458698272705078125</LongitudeDegrees>
            </Position>
            <AltitudeMeters>669.5999755859375</AltitudeMeters>
            <DistanceMeters>253656.15048084</DistanceMeters>
          </Trackpoint>
          <Trackpoint>
            <Time>2021-07-30T10:07:43.000Z</Time>
            <Position>
              <LatitudeDegrees>42.3038984835147857666015625</LatitudeDegrees>
              <LongitudeDegrees>-2.5596235133707523345947265625</LongitudeDegrees>
            </Position>
            <AltitudeMeters>670.5999755859375</AltitudeMeters>
            <DistanceMeters>253669.24004426</DistanceMeters>
          </Trackpoint>
          <Trackpoint>
            <Time>2021-07-30T10:07:55.000Z</Time>
            <Position>
              <LatitudeDegrees>42.303996048867702484130859375</LatitudeDegrees>
              <LongitudeDegrees>-2.5591494329273700714111328125</LongitudeDegrees>
            </Position>
            <AltitudeMeters>669.5999755859375</AltitudeMeters>
            <DistanceMeters>253709.74773798</DistanceMeters>
          </Trackpoint>
          <Trackpoint>
            <Time>2021-07-30T10:08:01.000Z</Time>
            <Position>
              <LatitudeDegrees>42.30406452901661396026611328125</LatitudeDegrees>
              <LongitudeDegrees>-2.55891867913305759429931640625</LongitudeDegrees>
            </Position>
            <AltitudeMeters>670.79998779296875</AltitudeMeters>
            <DistanceMeters>253730.21513343</DistanceMeters>
          </Trackpoint>
          <Trackpoint>
            <Time>2021-07-30T10:08:09.000Z</Time>
            <Position>
              <LatitudeDegrees>42.30418589897453784942626953125</LatitudeDegrees>
              <LongitudeDegrees>-2.55860670469701290130615234375</LongitudeDegrees>
            </Position>
            <AltitudeMeters>671.79998779296875</AltitudeMeters>
            <DistanceMeters>253759.2320662</DistanceMeters>
          </Trackpoint>
          <Trackpoint>
            <Time>2021-07-30T10:08:15.000Z</Time>
            <Position>
              <LatitudeDegrees>42.30429721064865589141845703125</LatitudeDegrees>
              <LongitudeDegrees>-2.5583725981414318084716796875</LongitudeDegrees>
            </Position>
            <AltitudeMeters>670.5999755859375</AltitudeMeters>
            <DistanceMeters>253782.14198029</DistanceMeters>
          </Trackpoint>
          <Trackpoint>
            <Time>2021-07-30T10:08:24.000Z</Time>
            <Position>
              <LatitudeDegrees>42.3044941015541553497314453125</LatitudeDegrees>
              <LongitudeDegrees>-2.55804226733744144439697265625</LongitudeDegrees>
            </Position>
            <AltitudeMeters>669.4000244140625</AltitudeMeters>
            <DistanceMeters>253817.06529978</DistanceMeters>
          </Trackpoint>
          <Trackpoint>
            <Time>2021-07-30T10:08:39.000Z</Time>
            <Position>
              <LatitudeDegrees>42.30492384172976016998291015625</LatitudeDegrees>
              <LongitudeDegrees>-2.5575434602797031402587890625</LongitudeDegrees>
            </Position>
            <AltitudeMeters>669.79998779296875</AltitudeMeters>
            <DistanceMeters>253880.10268734</DistanceMeters>
          </Trackpoint>
          <Trackpoint>
            <Time>2021-07-30T10:08:51.000Z</Time>
            <Position>
              <LatitudeDegrees>42.30542306788265705108642578125</LatitudeDegrees>
              <LongitudeDegrees>-2.55719535984098911285400390625</LongitudeDegrees>
            </Position>
            <AltitudeMeters>669</AltitudeMeters>
            <DistanceMeters>253942.62080533</DistanceMeters>
          </Trackpoint>
          <Trackpoint>
            <Time>2021-07-30T10:08:54.000Z</Time>
            <Position>
              <LatitudeDegrees>42.30558902956545352935791015625</LatitudeDegrees>
              <LongitudeDegrees>-2.55711975507438182830810546875</LongitudeDegrees>
            </Position>
            <AltitudeMeters>667.79998779296875</AltitudeMeters>
            <DistanceMeters>253962.11286696</DistanceMeters>
          </Trackpoint>
          <Trackpoint>
            <Time>2021-07-30T10:08:57.000Z</Time>
            <Position>
              <LatitudeDegrees>42.305772341787815093994140625</LatitudeDegrees>
              <LongitudeDegrees>-2.5570573098957538604736328125</LongitudeDegrees>
            </Position>
            <AltitudeMeters>666.4000244140625</AltitudeMeters>
            <DistanceMeters>253983.15307769</DistanceMeters>
          </Trackpoint>
          <Trackpoint>
            <Time>2021-07-30T10:09:00.000Z</Time>
            <Position>
              <LatitudeDegrees>42.3059740103781223297119140625</LatitudeDegrees>
              <LongitudeDegrees>-2.5570113770663738250732421875</LongitudeDegrees>
            </Position>
            <AltitudeMeters>665.20001220703125</AltitudeMeters>
            <DistanceMeters>254005.91549685</DistanceMeters>
          </Trackpoint>
          <Trackpoint>
            <Time>2021-07-30T10:09:02.000Z</Time>
            <Position>
              <LatitudeDegrees>42.3061191849410533905029296875</LatitudeDegrees>
              <LongitudeDegrees>-2.55699235014617443084716796875</LongitudeDegrees>
            </Position>
            <AltitudeMeters>664.20001220703125</AltitudeMeters>
            <DistanceMeters>254022.1492195</DistanceMeters>
          </Trackpoint>
          <Trackpoint>
            <Time>2021-07-30T10:09:04.000Z</Time>
            <Position>
              <LatitudeDegrees>42.3062710650265216827392578125</LatitudeDegrees>
              <LongitudeDegrees>-2.55697960965335369110107421875</LongitudeDegrees>
            </Position>
            <AltitudeMeters>663</AltitudeMeters>
            <DistanceMeters>254039.08611527</DistanceMeters>
          </Trackpoint>
          <Trackpoint>
            <Time>2021-07-30T10:09:06.000Z</Time>
            <Position>
              <LatitudeDegrees>42.3064283095300197601318359375</LatitudeDegrees>
              <LongitudeDegrees>-2.55697173066437244415283203125</LongitudeDegrees>
            </Position>
            <AltitudeMeters>661.5999755859375</AltitudeMeters>
            <DistanceMeters>254056.59992801</DistanceMeters>
          </Trackpoint>
          <Trackpoint>
            <Time>2021-07-30T10:09:08.000Z</Time>
            <Position>
              <LatitudeDegrees>42.3065887391567230224609375</LatitudeDegrees>
              <LongitudeDegrees>-2.55696284584701061248779296875</LongitudeDegrees>
            </Position>
            <AltitudeMeters>660.4000244140625</AltitudeMeters>
            <DistanceMeters>254074.47101481</DistanceMeters>
          </Trackpoint>
          <Trackpoint>
            <Time>2021-07-30T10:09:13.000Z</Time>
            <Position>
              <LatitudeDegrees>42.30700381100177764892578125</LatitudeDegrees>
              <LongitudeDegrees>-2.556913308799266815185546875</LongitudeDegrees>
            </Position>
            <AltitudeMeters>659.4000244140625</AltitudeMeters>
            <DistanceMeters>254120.84891934</DistanceMeters>
          </Trackpoint>
          <Trackpoint>
            <Time>2021-07-30T10:09:15.000Z</Time>
            <Position>
              <LatitudeDegrees>42.3071716167032718658447265625</LatitudeDegrees>
              <LongitudeDegrees>-2.55687433294951915740966796875</LongitudeDegrees>
            </Position>
            <AltitudeMeters>658.4000244140625</AltitudeMeters>
            <DistanceMeters>254139.79954308</DistanceMeters>
          </Trackpoint>
          <Trackpoint>
            <Time>2021-07-30T10:09:19.000Z</Time>
            <Position>
              <LatitudeDegrees>42.30749054811894893646240234375</LatitudeDegrees>
              <LongitudeDegrees>-2.556757070124149322509765625</LongitudeDegrees>
            </Position>
            <AltitudeMeters>657.20001220703125</AltitudeMeters>
            <DistanceMeters>254176.58605224</DistanceMeters>
          </Trackpoint>
          <Trackpoint>
            <Time>2021-07-30T10:09:27.000Z</Time>
            <Position>
              <LatitudeDegrees>42.3080272413790225982666015625</LatitudeDegrees>
              <LongitudeDegrees>-2.556396983563899993896484375</LongitudeDegrees>
            </Position>
            <AltitudeMeters>657.4000244140625</AltitudeMeters>
            <DistanceMeters>254243.27016462</DistanceMeters>
          </Trackpoint>
          <Trackpoint>
            <Time>2021-07-30T10:09:34.000Z</Time>
            <Position>
              <LatitudeDegrees>42.30837550945580005645751953125</LatitudeDegrees>
              <LongitudeDegrees>-2.55606732331216335296630859375</LongitudeDegrees>
            </Position>
            <AltitudeMeters>658.4000244140625</AltitudeMeters>
            <DistanceMeters>254290.58688474</DistanceMeters>
          </Trackpoint>
          <Trackpoint>
            <Time>2021-07-30T10:09:45.000Z</Time>
            <Position>
              <LatitudeDegrees>42.308835089206695556640625</LatitudeDegrees>
              <LongitudeDegrees>-2.55562157370150089263916015625</LongitudeDegrees>
            </Position>
            <AltitudeMeters>658.5999755859375</AltitudeMeters>
            <DistanceMeters>254353.53690116</DistanceMeters>
          </Trackpoint>
          <Trackpoint>
            <Time>2021-07-30T10:09:50.000Z</Time>
            <Position>
              <LatitudeDegrees>42.30902217328548431396484375</LatitudeDegrees>
              <LongitudeDegrees>-2.5554318912327289581298828125</LongitudeDegrees>
            </Position>
            <AltitudeMeters>657.4000244140625</AltitudeMeters>
            <DistanceMeters>254379.56277355</DistanceMeters>
          </Trackpoint>
          <Trackpoint>
            <Time>2021-07-30T10:10:01.000Z</Time>
            <Position>
              <LatitudeDegrees>42.3094229958951473236083984375</LatitudeDegrees>
              <LongitudeDegrees>-2.55503567866981029510498046875</LongitudeDegrees>
            </Position>
            <AltitudeMeters>658.4000244140625</AltitudeMeters>
            <DistanceMeters>254434.82421917</DistanceMeters>
          </Trackpoint>
          <Trackpoint>
            <Time>2021-07-30T10:10:11.000Z</Time>
            <Position>
              <LatitudeDegrees>42.3098042048513889312744140625</LatitudeDegrees>
              <LongitudeDegrees>-2.55464575253427028656005859375</LongitudeDegrees>
            </Position>
            <AltitudeMeters>657.20001220703125</AltitudeMeters>
            <DistanceMeters>254488.02492331</DistanceMeters>
          </Trackpoint>
          <Trackpoint>
            <Time>2021-07-30T10:10:14.000Z</Time>
            <Position>
              <LatitudeDegrees>42.3099118284881114959716796875</LatitudeDegrees>
              <LongitudeDegrees>-2.55451633594930171966552734375</LongitudeDegrees>
            </Position>
            <AltitudeMeters>656.4000244140625</AltitudeMeters>
            <DistanceMeters>254504.05489072</DistanceMeters>
          </Trackpoint>
          <Trackpoint>
            <Time>2021-07-30T10:10:20.000Z</Time>
            <Position>
              <LatitudeDegrees>42.31013922952115535736083984375</LatitudeDegrees>
              <LongitudeDegrees>-2.554225735366344451904296875</LongitudeDegrees>
            </Position>
            <AltitudeMeters>655.4000244140625</AltitudeMeters>
            <DistanceMeters>254538.87916726</DistanceMeters>
          </Trackpoint>
          <Trackpoint>
            <Time>2021-07-30T10:10:29.000Z</Time>
            <Position>
              <LatitudeDegrees>42.310514152050018310546875</LatitudeDegrees>
              <LongitudeDegrees>-2.55369323305785655975341796875</LongitudeDegrees>
            </Position>
            <AltitudeMeters>655</AltitudeMeters>
            <DistanceMeters>254599.39693609</DistanceMeters>
          </Trackpoint>
          <Trackpoint>
            <Time>2021-07-30T10:10:32.000Z</Time>
            <Position>
              <LatitudeDegrees>42.3106517829000949859619140625</LatitudeDegrees>
              <LongitudeDegrees>-2.55348972044885158538818359375</LongitudeDegrees>
            </Position>
            <AltitudeMeters>654</AltitudeMeters>
            <DistanceMeters>254622.09619074</DistanceMeters>
          </Trackpoint>
          <Trackpoint>
            <Time>2021-07-30T10:10:35.000Z</Time>
            <Position>
              <LatitudeDegrees>42.310787737369537353515625</LatitudeDegrees>
              <LongitudeDegrees>-2.553256787359714508056640625</LongitudeDegrees>
            </Position>
            <AltitudeMeters>652.4000244140625</AltitudeMeters>
            <DistanceMeters>254646.52045961</DistanceMeters>
          </Trackpoint>
          <Trackpoint>
            <Time>2021-07-30T10:10:36.000Z</Time>
            <Position>
              <LatitudeDegrees>42.31082688085734844207763671875</LatitudeDegrees>
              <LongitudeDegrees>-2.55317238159477710723876953125</LongitudeDegrees>
            </Position>
            <AltitudeMeters>651.4000244140625</AltitudeMeters>
            <DistanceMeters>254654.72088517</DistanceMeters>
          </Trackpoint>
          <Trackpoint>
            <Time>2021-07-30T10:10:37.000Z</Time>
            <Position>
              <LatitudeDegrees>42.31085923500359058380126953125</LatitudeDegrees>
              <LongitudeDegrees>-2.55308437161147594451904296875</LongitudeDegrees>
            </Position>
            <AltitudeMeters>650.4000244140625</AltitudeMeters>
            <DistanceMeters>254662.81100223</DistanceMeters>
          </Trackpoint>
          <Trackpoint>
            <Time>2021-07-30T10:10:38.000Z</Time>
            <Position>
              <LatitudeDegrees>42.31088387779891490936279296875</LatitudeDegrees>
              <LongitudeDegrees>-2.5529951043426990509033203125</LongitudeDegrees>
            </Position>
            <AltitudeMeters>649.79998779296875</AltitudeMeters>
            <DistanceMeters>254670.654017</DistanceMeters>
          </Trackpoint>
          <Trackpoint>
            <Time>2021-07-30T10:10:41.000Z</Time>
            <Position>
              <LatitudeDegrees>42.31094037182629108428955078125</LatitudeDegrees>
              <LongitudeDegrees>-2.55273350514471530914306640625</LongitudeDegrees>
            </Position>
            <AltitudeMeters>648.5999755859375</AltitudeMeters>
            <DistanceMeters>254693.08515294</DistanceMeters>
          </Trackpoint>
          <Trackpoint>
            <Time>2021-07-30T10:10:50.000Z</Time>
            <Position>
              <LatitudeDegrees>42.31107850559055805206298828125</LatitudeDegrees>
              <LongitudeDegrees>-2.5519902817904949188232421875</LongitudeDegrees>
            </Position>
            <AltitudeMeters>648.20001220703125</AltitudeMeters>
            <DistanceMeters>254756.1608481</DistanceMeters>
          </Trackpoint>
          <Trackpoint>
            <Time>2021-07-30T10:10:53.000Z</Time>
            <Position>
              <LatitudeDegrees>42.31112225912511348724365234375</LatitudeDegrees>
              <LongitudeDegrees>-2.55174846388399600982666015625</LongitudeDegrees>
            </Position>
            <AltitudeMeters>647.4000244140625</AltitudeMeters>
            <DistanceMeters>254776.6513931</DistanceMeters>
          </Trackpoint>
          <Trackpoint>
            <Time>2021-07-30T10:10:59.000Z</Time>
            <Position>
              <LatitudeDegrees>42.31121714226901531219482421875</LatitudeDegrees>
              <LongitudeDegrees>-2.55123884417116641998291015625</LongitudeDegrees>
            </Position>
            <AltitudeMeters>645.5999755859375</AltitudeMeters>
            <DistanceMeters>254819.90619236</DistanceMeters>
          </Trackpoint>
          <Trackpoint>
            <Time>2021-07-30T10:11:00.000Z</Time>
            <Position>
              <LatitudeDegrees>42.3112316429615020751953125</LatitudeDegrees>
              <LongitudeDegrees>-2.551148571074008941650390625</LongitudeDegrees>
            </Position>
            <AltitudeMeters>644.4000244140625</AltitudeMeters>
            <DistanceMeters>254827.51011105</DistanceMeters>
          </Trackpoint>
          <Trackpoint>
            <Time>2021-07-30T10:11:03.000Z</Time>
            <Position>
              <LatitudeDegrees>42.3112707026302814483642578125</LatitudeDegrees>
              <LongitudeDegrees>-2.5508758239448070526123046875</LongitudeDegrees>
            </Position>
            <AltitudeMeters>643.20001220703125</AltitudeMeters>
            <DistanceMeters>254850.37662689</DistanceMeters>
          </Trackpoint>
          <Trackpoint>
            <Time>2021-07-30T10:11:10.000Z</Time>
            <Position>
              <LatitudeDegrees>42.31136265210807323455810546875</LatitudeDegrees>
              <LongitudeDegrees>-2.55022832192480564117431640625</LongitudeDegrees>
            </Position>
            <AltitudeMeters>642.20001220703125</AltitudeMeters>
            <DistanceMeters>254904.64478524</DistanceMeters>
          </Trackpoint>
          <Trackpoint>
            <Time>2021-07-30T10:11:19.000Z</Time>
            <Position>
              <LatitudeDegrees>42.31147480197250843048095703125</LatitudeDegrees>
              <LongitudeDegrees>-2.54944528453052043914794921875</LongitudeDegrees>
            </Position>
            <AltitudeMeters>641.4000244140625</AltitudeMeters>
            <DistanceMeters>254970.29222177</DistanceMeters>
          </Trackpoint>
          <Trackpoint>
            <Time>2021-07-30T10:11:29.000Z</Time>
            <Position>
              <LatitudeDegrees>42.31157806701958179473876953125</LatitudeDegrees>
              <LongitudeDegrees>-2.54872444085776805877685546875</LongitudeDegrees>
            </Position>
            <AltitudeMeters>642.5999755859375</AltitudeMeters>
            <DistanceMeters>255030.72592493</DistanceMeters>
          </Trackpoint>
          <Trackpoint>
            <Time>2021-07-30T10:11:40.000Z</Time>
            <Position>
              <LatitudeDegrees>42.31167445890605449676513671875</LatitudeDegrees>
              <LongitudeDegrees>-2.548023127019405364990234375</LongitudeDegrees>
            </Position>
            <AltitudeMeters>643.4000244140625</AltitudeMeters>
            <DistanceMeters>255089.43767113</DistanceMeters>
          </Trackpoint>
          <Trackpoint>
            <Time>2021-07-30T10:11:53.000Z</Time>
            <Position>
              <LatitudeDegrees>42.31178618967533111572265625</LatitudeDegrees>
              <LongitudeDegrees>-2.5472585298120975494384765625</LongitudeDegrees>
            </Position>
            <AltitudeMeters>643.79998779296875</AltitudeMeters>
            <DistanceMeters>255153.58640467</DistanceMeters>
          </Trackpoint>
          <Trackpoint>
            <Time>2021-07-30T10:12:05.000Z</Time>
            <Position>
              <LatitudeDegrees>42.3118896223604679107666015625</LatitudeDegrees>
              <LongitudeDegrees>-2.546534836292266845703125</LongitudeDegrees>
            </Position>
            <AltitudeMeters>643.4000244140625</AltitudeMeters>
            <DistanceMeters>255214.25365018</DistanceMeters>
          </Trackpoint>
          <Trackpoint>
            <Time>2021-07-30T10:12:18.000Z</Time>
            <Position>
              <LatitudeDegrees>42.3119834996759891510009765625</LatitudeDegrees>
              <LongitudeDegrees>-2.54578306339681148529052734375</LongitudeDegrees>
            </Position>
            <AltitudeMeters>643.4000244140625</AltitudeMeters>
            <DistanceMeters>255277.00568342</DistanceMeters>
          </Trackpoint>
          <Trackpoint>
            <Time>2021-07-30T10:12:27.000Z</Time>
            <Position>
              <LatitudeDegrees>42.31204007752239704132080078125</LatitudeDegrees>
              <LongitudeDegrees>-2.54524678923189640045166015625</LongitudeDegrees>
            </Position>
            <AltitudeMeters>642.5999755859375</AltitudeMeters>
            <DistanceMeters>255321.59164667</DistanceMeters>
          </Trackpoint>
          <Trackpoint>
            <Time>2021-07-30T10:12:39.000Z</Time>
            <Position>
              <LatitudeDegrees>42.31211551465094089508056640625</LatitudeDegrees>
              <LongitudeDegrees>-2.544492669403553009033203125</LongitudeDegrees>
            </Position>
            <AltitudeMeters>642.20001220703125</AltitudeMeters>
            <DistanceMeters>255384.22614667</DistanceMeters>
          </Trackpoint>
          <Trackpoint>
            <Time>2021-07-30T10:12:47.000Z</Time>
            <Position>
              <LatitudeDegrees>42.31216974556446075439453125</LatitudeDegrees>
              <LongitudeDegrees>-2.54396636970341205596923828125</LongitudeDegrees>
            </Position>
            <AltitudeMeters>641.4000244140625</AltitudeMeters>
            <DistanceMeters>255427.96249521</DistanceMeters>
          </Trackpoint>
          <Trackpoint>
            <Time>2021-07-30T10:12:59.000Z</Time>
            <Position>
              <LatitudeDegrees>42.312231771647930145263671875</LatitudeDegrees>
              <LongitudeDegrees>-2.543184421956539154052734375</LongitudeDegrees>
            </Position>
            <AltitudeMeters>640.79998779296875</AltitudeMeters>
            <DistanceMeters>255492.69096552</DistanceMeters>
          </Trackpoint>
          <Trackpoint>
            <Time>2021-07-30T10:13:04.000Z</Time>
            <Position>
              <LatitudeDegrees>42.31230913661420345306396484375</LatitudeDegrees>
              <LongitudeDegrees>-2.54285057075321674346923828125</LongitudeDegrees>
            </Position>
            <AltitudeMeters>640.4000244140625</AltitudeMeters>
            <DistanceMeters>255521.48688241</DistanceMeters>
          </Trackpoint>
          <Trackpoint>
            <Time>2021-07-30T10:13:14.000Z</Time>
            <Position>
              <LatitudeDegrees>42.31250527314841747283935546875</LatitudeDegrees>
              <LongitudeDegrees>-2.5421489216387271881103515625</LongitudeDegrees>
            </Position>
            <AltitudeMeters>639.4000244140625</AltitudeMeters>
            <DistanceMeters>255583.22543963</DistanceMeters>
          </Trackpoint>
          <Trackpoint>
            <Time>2021-07-30T10:13:18.000Z</Time>
            <Position>
              <LatitudeDegrees>42.31259278021752834320068359375</LatitudeDegrees>
              <LongitudeDegrees>-2.541863434016704559326171875</LongitudeDegrees>
            </Position>
            <AltitudeMeters>638.20001220703125</AltitudeMeters>
            <DistanceMeters>255608.66137714</DistanceMeters>
          </Trackpoint>
          <Trackpoint>
            <Time>2021-07-30T10:13:26.000Z</Time>
            <Position>
              <LatitudeDegrees>42.3127640224993228912353515625</LatitudeDegrees>
              <LongitudeDegrees>-2.54129237495362758636474609375</LongitudeDegrees>
            </Position>
            <AltitudeMeters>636.79998779296875</AltitudeMeters>
            <DistanceMeters>255659.38027802</DistanceMeters>
          </Trackpoint>
          <Trackpoint>
            <Time>2021-07-30T10:13:29.000Z</Time>
            <Position>
              <LatitudeDegrees>42.31283082626760005950927734375</LatitudeDegrees>
              <LongitudeDegrees>-2.54106891341507434844970703125</LongitudeDegrees>
            </Position>
            <AltitudeMeters>635.5999755859375</AltitudeMeters>
            <DistanceMeters>255679.21834223</DistanceMeters>
          </Trackpoint>
          <Trackpoint>
            <Time>2021-07-30T10:13:36.000Z</Time>
            <Position>
              <LatitudeDegrees>42.3129668645560741424560546875</LatitudeDegrees>
              <LongitudeDegrees>-2.54049961455166339874267578125</LongitudeDegrees>
            </Position>
            <AltitudeMeters>634.5999755859375</AltitudeMeters>
            <DistanceMeters>255728.46052178</DistanceMeters>
          </Trackpoint>
          <Trackpoint>
            <Time>2021-07-30T10:13:39.000Z</Time>
            <Position>
              <LatitudeDegrees>42.31300617568194866180419921875</LatitudeDegrees>
              <LongitudeDegrees>-2.540221922099590301513671875</LongitudeDegrees>
            </Position>
            <AltitudeMeters>633</AltitudeMeters>
            <DistanceMeters>255751.73101005</DistanceMeters>
          </Trackpoint>
          <Trackpoint>
            <Time>2021-07-30T10:13:41.000Z</Time>
            <Position>
              <LatitudeDegrees>42.31303081847727298736572265625</LatitudeDegrees>
              <LongitudeDegrees>-2.54003274254500865936279296875</LongitudeDegrees>
            </Position>
            <AltitudeMeters>631.5999755859375</AltitudeMeters>
            <DistanceMeters>255767.54118228</DistanceMeters>
          </Trackpoint>
          <Trackpoint>
            <Time>2021-07-30T10:13:45.000Z</Time>
            <Position>
              <LatitudeDegrees>42.31307557784020900726318359375</LatitudeDegrees>
              <LongitudeDegrees>-2.53964114002883434295654296875</LongitudeDegrees>
            </Position>
            <AltitudeMeters>630.4000244140625</AltitudeMeters>
            <DistanceMeters>255800.15487119</DistanceMeters>
          </Trackpoint>
          <Trackpoint>
            <Time>2021-07-30T10:13:48.000Z</Time>
            <Position>
              <LatitudeDegrees>42.31310793198645114898681640625</LatitudeDegrees>
              <LongitudeDegrees>-2.53933645784854888916015625</LongitudeDegrees>
            </Position>
            <AltitudeMeters>629</AltitudeMeters>
            <DistanceMeters>255825.48907166</DistanceMeters>
          </Trackpoint>
          <Trackpoint>
            <Time>2021-07-30T10:13:56.000Z</Time>
            <Position>
              <LatitudeDegrees>42.31318496167659759521484375</LatitudeDegrees>
              <LongitudeDegrees>-2.53853020258247852325439453125</LongitudeDegrees>
            </Position>
            <AltitudeMeters>627.79998779296875</AltitudeMeters>
            <DistanceMeters>255892.39968838</DistanceMeters>
          </Trackpoint>
          <Trackpoint>
            <Time>2021-07-30T10:13:58.000Z</Time>
            <Position>
              <LatitudeDegrees>42.31321102939546108245849609375</LatitudeDegrees>
              <LongitudeDegrees>-2.53833373077213764190673828125</LongitudeDegrees>
            </Position>
            <AltitudeMeters>627.20001220703125</AltitudeMeters>
            <DistanceMeters>255908.82887019</DistanceMeters>
          </Trackpoint>
          <Trackpoint>
            <Time>2021-07-30T10:13:59.000Z</Time>
            <Position>
              <LatitudeDegrees>42.3132243566215038299560546875</LatitudeDegrees>
              <LongitudeDegrees>-2.53823851235210895538330078125</LongitudeDegrees>
            </Position>
            <AltitudeMeters>626.4000244140625</AltitudeMeters>
            <DistanceMeters>255916.80432369</DistanceMeters>
          </Trackpoint>
          <Trackpoint>
            <Time>2021-07-30T10:14:02.000Z</Time>
            <Position>
              <LatitudeDegrees>42.313273809850215911865234375</LatitudeDegrees>
              <LongitudeDegrees>-2.53796660341322422027587890625</LongitudeDegrees>
            </Position>
            <AltitudeMeters>625.20001220703125</AltitudeMeters>
            <DistanceMeters>255939.850604</DistanceMeters>
          </Trackpoint>
          <Trackpoint>
            <Time>2021-07-30T10:14:11.000Z</Time>
            <Position>
              <LatitudeDegrees>42.3134828545153141021728515625</LatitudeDegrees>
              <LongitudeDegrees>-2.53727090544998645782470703125</LongitudeDegrees>
            </Position>
            <AltitudeMeters>625.4000244140625</AltitudeMeters>
            <DistanceMeters>256001.65662481</DistanceMeters>
          </Trackpoint>
          <Trackpoint>
            <Time>2021-07-30T10:14:15.000Z</Time>
            <Position>
              <LatitudeDegrees>42.31359810568392276763916015625</LatitudeDegrees>
              <LongitudeDegrees>-2.53699681721627712249755859375</LongitudeDegrees>
            </Position>
            <AltitudeMeters>626.20001220703125</AltitudeMeters>
            <DistanceMeters>256027.60744447</DistanceMeters>
          </Trackpoint>
          <Trackpoint>
            <Time>2021-07-30T10:14:22.000Z</Time>
            <Position>
              <LatitudeDegrees>42.313825674355030059814453125</LatitudeDegrees>
              <LongitudeDegrees>-2.5365162827074527740478515625</LongitudeDegrees>
            </Position>
            <AltitudeMeters>625</AltitudeMeters>
            <DistanceMeters>256074.57304617</DistanceMeters>
          </Trackpoint>
          <Trackpoint>
            <Time>2021-07-30T10:14:28.000Z</Time>
            <Position>
              <LatitudeDegrees>42.3140159435570240020751953125</LatitudeDegrees>
              <LongitudeDegrees>-2.53614136017858982086181640625</LongitudeDegrees>
            </Position>
            <AltitudeMeters>624.20001220703125</AltitudeMeters>
            <DistanceMeters>256111.99849456</DistanceMeters>
          </Trackpoint>
          <Trackpoint>
            <Time>2021-07-30T10:14:33.000Z</Time>
            <Position>
              <LatitudeDegrees>42.3141557537019252777099609375</LatitudeDegrees>
              <LongitudeDegrees>-2.53584614954888820648193359375</LongitudeDegrees>
            </Position>
            <AltitudeMeters>624</AltitudeMeters>
            <DistanceMeters>256140.85158465</DistanceMeters>
          </Trackpoint>
          <Trackpoint>
            <Time>2021-07-30T10:14:44.000Z</Time>
            <Position>
              <LatitudeDegrees>42.3144564963877201080322265625</LatitudeDegrees>
              <LongitudeDegrees>-2.53515799529850482940673828125</LongitudeDegrees>
            </Position>
            <AltitudeMeters>623</AltitudeMeters>
            <DistanceMeters>256206.64130429</DistanceMeters>
          </Trackpoint>
          <Trackpoint>
            <Time>2021-07-30T10:14:45.000Z</Time>
            <Position>
              <LatitudeDegrees>42.3144786246120929718017578125</LatitudeDegrees>
              <LongitudeDegrees>-2.53508917987346649169921875</LongitudeDegrees>
            </Position>
            <AltitudeMeters>622.79998779296875</AltitudeMeters>
            <DistanceMeters>256212.81804073</DistanceMeters>
          </Trackpoint>
          <Trackpoint>
            <Time>2021-07-30T10:14:55.000Z</Time>
            <Position>
              <LatitudeDegrees>42.3146154172718524932861328125</LatitudeDegrees>
              <LongitudeDegrees>-2.53435970284044742584228515625</LongitudeDegrees>
            </Position>
            <AltitudeMeters>622.4000244140625</AltitudeMeters>
            <DistanceMeters>256274.75694593</DistanceMeters>
          </Trackpoint>
          <Trackpoint>
            <Time>2021-07-30T10:14:56.000Z</Time>
            <Position>
              <LatitudeDegrees>42.31460913084447383880615234375</LatitudeDegrees>
              <LongitudeDegrees>-2.53429046832025051116943359375</LongitudeDegrees>
            </Position>
            <AltitudeMeters>622.5999755859375</AltitudeMeters>
            <DistanceMeters>256280.49722022</DistanceMeters>
          </Trackpoint>
          <Trackpoint>
            <Time>2021-07-30T10:15:05.000Z</Time>
            <Position>
              <LatitudeDegrees>42.3146217875182628631591796875</LatitudeDegrees>
              <LongitudeDegrees>-2.53371211700141429901123046875</LongitudeDegrees>
            </Position>
            <AltitudeMeters>622</AltitudeMeters>
            <DistanceMeters>256328.11821577</DistanceMeters>
          </Trackpoint>
          <Trackpoint>
            <Time>2021-07-30T10:15:18.000Z</Time>
            <Position>
              <LatitudeDegrees>42.31474827043712139129638671875</LatitudeDegrees>
              <LongitudeDegrees>-2.53305078484117984771728515625</LongitudeDegrees>
            </Position>
            <AltitudeMeters>621</AltitudeMeters>
            <DistanceMeters>256384.33902684</DistanceMeters>
          </Trackpoint>
          <Trackpoint>
            <Time>2021-07-30T10:15:48.000Z</Time>
            <Position>
              <LatitudeDegrees>42.3142506368458271026611328125</LatitudeDegrees>
              <LongitudeDegrees>-2.5308692269027233123779296875</LongitudeDegrees>
            </Position>
            <AltitudeMeters>619.5999755859375</AltitudeMeters>
            <DistanceMeters>256572.23767305</DistanceMeters>
          </Trackpoint>
          <Trackpoint>
            <Time>2021-07-30T10:15:55.000Z</Time>
            <Position>
              <LatitudeDegrees>42.31424787081778049468994140625</LatitudeDegrees>
              <LongitudeDegrees>-2.5304038636386394500732421875</LongitudeDegrees>
            </Position>
            <AltitudeMeters>618.79998779296875</AltitudeMeters>
            <DistanceMeters>256610.5401586</DistanceMeters>
          </Trackpoint>
          <Trackpoint>
            <Time>2021-07-30T10:16:06.000Z</Time>
            <Position>
              <LatitudeDegrees>42.314394302666187286376953125</LatitudeDegrees>
              <LongitudeDegrees>-2.52963784150779247283935546875</LongitudeDegrees>
            </Position>
            <AltitudeMeters>618</AltitudeMeters>
            <DistanceMeters>256675.65911703</DistanceMeters>
          </Trackpoint>
          <Trackpoint>
            <Time>2021-07-30T10:16:07.000Z</Time>
            <Position>
              <LatitudeDegrees>42.31441617943346500396728515625</LatitudeDegrees>
              <LongitudeDegrees>-2.529564164578914642333984375</LongitudeDegrees>
            </Position>
            <AltitudeMeters>617.79998779296875</AltitudeMeters>
            <DistanceMeters>256682.19319703</DistanceMeters>
          </Trackpoint>
          <Trackpoint>
            <Time>2021-07-30T10:16:09.000Z</Time>
            <Position>
              <LatitudeDegrees>42.31446697376668453216552734375</LatitudeDegrees>
              <LongitudeDegrees>-2.529419995844364166259765625</LongitudeDegrees>
            </Position>
            <AltitudeMeters>616.5999755859375</AltitudeMeters>
            <DistanceMeters>256695.33714707</DistanceMeters>
          </Trackpoint>
          <Trackpoint>
            <Time>2021-07-30T10:16:12.000Z</Time>
            <Position>
              <LatitudeDegrees>42.31455883942544460296630859375</LatitudeDegrees>
              <LongitudeDegrees>-2.529214136302471160888671875</LongitudeDegrees>
            </Position>
            <AltitudeMeters>615.4000244140625</AltitudeMeters>
            <DistanceMeters>256715.12644608</DistanceMeters>
          </Trackpoint>
          <Trackpoint>
            <Time>2021-07-30T10:16:18.000Z</Time>
            <Position>
              <LatitudeDegrees>42.3147927783429622650146484375</LatitudeDegrees>
              <LongitudeDegrees>-2.5288398005068302154541015625</LongitudeDegrees>
            </Position>
            <AltitudeMeters>614.4000244140625</AltitudeMeters>
            <DistanceMeters>256755.46458677</DistanceMeters>
          </Trackpoint>
          <Trackpoint>
            <Time>2021-07-30T10:16:22.000Z</Time>
            <Position>
              <LatitudeDegrees>42.31498145498335361480712890625</LatitudeDegrees>
              <LongitudeDegrees>-2.5286319293081760406494140625</LongitudeDegrees>
            </Position>
            <AltitudeMeters>613.20001220703125</AltitudeMeters>
            <DistanceMeters>256782.55136788</DistanceMeters>
          </Trackpoint>
          <Trackpoint>
            <Time>2021-07-30T10:16:28.000Z</Time>
            <Position>
              <LatitudeDegrees>42.3152856342494487762451171875</LatitudeDegrees>
              <LongitudeDegrees>-2.5284005887806415557861328125</LongitudeDegrees>
            </Position>
            <AltitudeMeters>612.20001220703125</AltitudeMeters>
            <DistanceMeters>256821.39370448</DistanceMeters>
          </Trackpoint>
          <Trackpoint>
            <Time>2021-07-30T10:16:38.000Z</Time>
            <Position>
              <LatitudeDegrees>42.31581344269216060638427734375</LatitudeDegrees>
              <LongitudeDegrees>-2.52811904065310955047607421875</LongitudeDegrees>
            </Position>
            <AltitudeMeters>612</AltitudeMeters>
            <DistanceMeters>256884.54480123</DistanceMeters>
          </Trackpoint>
          <Trackpoint>
            <Time>2021-07-30T10:16:49.000Z</Time>
            <Position>
              <LatitudeDegrees>42.31629556976258754730224609375</LatitudeDegrees>
              <LongitudeDegrees>-2.52773481421172618865966796875</LongitudeDegrees>
            </Position>
            <AltitudeMeters>612.79998779296875</AltitudeMeters>
            <DistanceMeters>256946.83088011</DistanceMeters>
          </Trackpoint>
          <Trackpoint>
            <Time>2021-07-30T10:17:00.000Z</Time>
            <Position>
              <LatitudeDegrees>42.31675858609378337860107421875</LatitudeDegrees>
              <LongitudeDegrees>-2.52727900631725788116455078125</LongitudeDegrees>
            </Position>
            <AltitudeMeters>611.79998779296875</AltitudeMeters>
            <DistanceMeters>257010.57305481</DistanceMeters>
          </Trackpoint>
          <Trackpoint>
            <Time>2021-07-30T10:17:11.000Z</Time>
            <Position>
              <LatitudeDegrees>42.317152954638004302978515625</LatitudeDegrees>
              <LongitudeDegrees>-2.5267765112221240997314453125</LongitudeDegrees>
            </Position>
            <AltitudeMeters>612.5999755859375</AltitudeMeters>
            <DistanceMeters>257070.88021516</DistanceMeters>
          </Trackpoint>
          <Trackpoint>
            <Time>2021-07-30T10:17:22.000Z</Time>
            <Position>
              <LatitudeDegrees>42.317530475556850433349609375</LatitudeDegrees>
              <LongitudeDegrees>-2.52623763866722583770751953125</LongitudeDegrees>
            </Position>
            <AltitudeMeters>612.20001220703125</AltitudeMeters>
            <DistanceMeters>257131.97374637</DistanceMeters>
          </Trackpoint>
          <Trackpoint>
            <Time>2021-07-30T10:17:34.000Z</Time>
            <Position>
              <LatitudeDegrees>42.31795367784798145294189453125</LatitudeDegrees>
              <LongitudeDegrees>-2.52573153935372829437255859375</LongitudeDegrees>
            </Position>
            <AltitudeMeters>612.5999755859375</AltitudeMeters>
            <DistanceMeters>257194.85113602</DistanceMeters>
          </Trackpoint>
          <Trackpoint>
            <Time>2021-07-30T10:17:40.000Z</Time>
            <Position>
              <LatitudeDegrees>42.31816490180790424346923828125</LatitudeDegrees>
              <LongitudeDegrees>-2.52549466677010059356689453125</LongitudeDegrees>
            </Position>
            <AltitudeMeters>611.4000244140625</AltitudeMeters>
            <DistanceMeters>257225.39184093</DistanceMeters>
          </Trackpoint>
          <Trackpoint>
            <Time>2021-07-30T10:17:53.000Z</Time>
            <Position>
              <LatitudeDegrees>42.31858768500387668609619140625</LatitudeDegrees>
              <LongitudeDegrees>-2.52500885166227817535400390625</LongitudeDegrees>
            </Position>
            <AltitudeMeters>612.4000244140625</AltitudeMeters>
            <DistanceMeters>257287.14034324</DistanceMeters>
          </Trackpoint>
          <Trackpoint>
            <Time>2021-07-30T10:17:56.000Z</Time>
            <Position>
              <LatitudeDegrees>42.31867569498717784881591796875</LatitudeDegrees>
              <LongitudeDegrees>-2.52489603124558925628662109375</LongitudeDegrees>
            </Position>
            <AltitudeMeters>612.79998779296875</AltitudeMeters>
            <DistanceMeters>257300.63748228</DistanceMeters>
          </Trackpoint>
          <Trackpoint>
            <Time>2021-07-30T10:18:08.000Z</Time>
            <Position>
              <LatitudeDegrees>42.319028489291667938232421875</LatitudeDegrees>
              <LongitudeDegrees>-2.52441507764160633087158203125</LongitudeDegrees>
            </Position>
            <AltitudeMeters>613.79998779296875</AltitudeMeters>
            <DistanceMeters>257356.39201299</DistanceMeters>
          </Trackpoint>
          <Trackpoint>
            <Time>2021-07-30T10:18:18.000Z</Time>
            <Position>
              <LatitudeDegrees>42.3192284815013408660888671875</LatitudeDegrees>
              <LongitudeDegrees>-2.52394284121692180633544921875</LongitudeDegrees>
            </Position>
            <AltitudeMeters>615</AltitudeMeters>
            <DistanceMeters>257401.17914285</DistanceMeters>
          </Trackpoint>
          <Trackpoint>
            <Time>2021-07-30T10:18:25.000Z</Time>
            <Position>
              <LatitudeDegrees>42.319367118179798126220703125</LatitudeDegrees>
              <LongitudeDegrees>-2.52354553900659084320068359375</LongitudeDegrees>
            </Position>
            <AltitudeMeters>613.79998779296875</AltitudeMeters>
            <DistanceMeters>257437.33415407</DistanceMeters>
          </Trackpoint>
          <Trackpoint>
            <Time>2021-07-30T10:18:36.000Z</Time>
            <Position>
              <LatitudeDegrees>42.319611869752407073974609375</LatitudeDegrees>
              <LongitudeDegrees>-2.52285319380462169647216796875</LongitudeDegrees>
            </Position>
            <AltitudeMeters>613.20001220703125</AltitudeMeters>
            <DistanceMeters>257500.48932595</DistanceMeters>
          </Trackpoint>
          <Trackpoint>
            <Time>2021-07-30T10:18:38.000Z</Time>
            <Position>
              <LatitudeDegrees>42.31965855695307254791259765625</LatitudeDegrees>
              <LongitudeDegrees>-2.522722184658050537109375</LongitudeDegrees>
            </Position>
            <AltitudeMeters>612.5999755859375</AltitudeMeters>
            <DistanceMeters>257512.45778878</DistanceMeters>
          </Trackpoint>
          <Trackpoint>
            <Time>2021-07-30T10:18:43.000Z</Time>
            <Position>
              <LatitudeDegrees>42.3197739757597446441650390625</LatitudeDegrees>
              <LongitudeDegrees>-2.52238330431282520294189453125</LongitudeDegrees>
            </Position>
            <AltitudeMeters>611.79998779296875</AltitudeMeters>
            <DistanceMeters>257543.16303624</DistanceMeters>
          </Trackpoint>
          <Trackpoint>
            <Time>2021-07-30T10:18:47.000Z</Time>
            <Position>
              <LatitudeDegrees>42.3198745585978031158447265625</LatitudeDegrees>
              <LongitudeDegrees>-2.52209982834756374359130859375</LongitudeDegrees>
            </Position>
            <AltitudeMeters>610.5999755859375</AltitudeMeters>
            <DistanceMeters>257569.03893445</DistanceMeters>
          </Trackpoint>
          <Trackpoint>
            <Time>2021-07-30T10:18:51.000Z</Time>
            <Position>
              <LatitudeDegrees>42.3199707828462123870849609375</LatitudeDegrees>
              <LongitudeDegrees>-2.52180813811719417572021484375</LongitudeDegrees>
            </Position>
            <AltitudeMeters>609.5999755859375</AltitudeMeters>
            <DistanceMeters>257595.32460163</DistanceMeters>
          </Trackpoint>
          <Trackpoint>
            <Time>2021-07-30T10:19:01.000Z</Time>
            <Position>
              <LatitudeDegrees>42.3201488144695758819580078125</LatitudeDegrees>
              <LongitudeDegrees>-2.5210942514240741729736328125</LongitudeDegrees>
            </Position>
            <AltitudeMeters>609</AltitudeMeters>
            <DistanceMeters>257657.3263105</DistanceMeters>
          </Trackpoint>
          <Trackpoint>
            <Time>2021-07-30T10:19:13.000Z</Time>
            <Position>
              <LatitudeDegrees>42.32023908756673336029052734375</LatitudeDegrees>
              <LongitudeDegrees>-2.5203241221606731414794921875</LongitudeDegrees>
            </Position>
            <AltitudeMeters>609</AltitudeMeters>
            <DistanceMeters>257721.49643719</DistanceMeters>
          </Trackpoint>
          <Trackpoint>
            <Time>2021-07-30T10:19:25.000Z</Time>
            <Position>
              <LatitudeDegrees>42.32034168206155300140380859375</LatitudeDegrees>
              <LongitudeDegrees>-2.5196609459817409515380859375</LongitudeDegrees>
            </Position>
            <AltitudeMeters>611</AltitudeMeters>
            <DistanceMeters>257777.25485484</DistanceMeters>
          </Trackpoint>
          <Trackpoint>
            <Time>2021-07-30T10:19:33.000Z</Time>
            <Position>
              <LatitudeDegrees>42.3204545862972736358642578125</LatitudeDegrees>
              <LongitudeDegrees>-2.5192277692258358001708984375</LongitudeDegrees>
            </Position>
            <AltitudeMeters>612.20001220703125</AltitudeMeters>
            <DistanceMeters>257815.05339535</DistanceMeters>
          </Trackpoint>
          <Trackpoint>
            <Time>2021-07-30T10:19:47.000Z</Time>
            <Position>
              <LatitudeDegrees>42.3206614516675472259521484375</LatitudeDegrees>
              <LongitudeDegrees>-2.51851069740951061248779296875</LongitudeDegrees>
            </Position>
            <AltitudeMeters>612.5999755859375</AltitudeMeters>
            <DistanceMeters>257878.39780685</DistanceMeters>
          </Trackpoint>
          <Trackpoint>
            <Time>2021-07-30T10:19:55.000Z</Time>
            <Position>
              <LatitudeDegrees>42.320794053375720977783203125</LatitudeDegrees>
              <LongitudeDegrees>-2.51803795807063579559326171875</LongitudeDegrees>
            </Position>
            <AltitudeMeters>611.20001220703125</AltitudeMeters>
            <DistanceMeters>257920.00735644</DistanceMeters>
          </Trackpoint>
          <Trackpoint>
            <Time>2021-07-30T10:20:06.000Z</Time>
            <Position>
              <LatitudeDegrees>42.3211921937763690948486328125</LatitudeDegrees>
              <LongitudeDegrees>-2.51753755845129489898681640625</LongitudeDegrees>
            </Position>
            <AltitudeMeters>610.79998779296875</AltitudeMeters>
            <DistanceMeters>257980.50139565</DistanceMeters>
          </Trackpoint>
          <Trackpoint>
            <Time>2021-07-30T10:20:15.000Z</Time>
            <Position>
              <LatitudeDegrees>42.3215378634631633758544921875</LatitudeDegrees>
              <LongitudeDegrees>-2.51724050380289554595947265625</LongitudeDegrees>
            </Position>
            <AltitudeMeters>612.4000244140625</AltitudeMeters>
            <DistanceMeters>258026.08461207</DistanceMeters>
          </Trackpoint>
          <Trackpoint>
            <Time>2021-07-30T10:20:22.000Z</Time>
            <Position>
              <LatitudeDegrees>42.321783117949962615966796875</LatitudeDegrees>
              <LongitudeDegrees>-2.5170025415718555450439453125</LongitudeDegrees>
            </Position>
            <AltitudeMeters>613.4000244140625</AltitudeMeters>
            <DistanceMeters>258059.67974765</DistanceMeters>
          </Trackpoint>
          <Trackpoint>
            <Time>2021-07-30T10:20:28.000Z</Time>
            <Position>
              <LatitudeDegrees>42.32198000885546207427978515625</LatitudeDegrees>
              <LongitudeDegrees>-2.51679961569607257843017578125</LongitudeDegrees>
            </Position>
            <AltitudeMeters>614.4000244140625</AltitudeMeters>
            <DistanceMeters>258087.23159598</DistanceMeters>
          </Trackpoint>
          <Trackpoint>
            <Time>2021-07-30T10:20:36.000Z</Time>
            <Position>
              <LatitudeDegrees>42.32224739156663417816162109375</LatitudeDegrees>
              <LongitudeDegrees>-2.51652217470109462738037109375</LongitudeDegrees>
            </Position>
            <AltitudeMeters>615.5999755859375</AltitudeMeters>
            <DistanceMeters>258124.7410368</DistanceMeters>
          </Trackpoint>
          <Trackpoint>
            <Time>2021-07-30T10:20:49.000Z</Time>
            <Position>
              <LatitudeDegrees>42.32272624969482421875</LatitudeDegrees>
              <LongitudeDegrees>-2.516057230532169342041015625</LongitudeDegrees>
            </Position>
            <AltitudeMeters>615.79998779296875</AltitudeMeters>
            <DistanceMeters>258190.35056621</DistanceMeters>
          </Trackpoint>
          <Trackpoint>
            <Time>2021-07-30T10:20:54.000Z</Time>
            <Position>
              <LatitudeDegrees>42.32297963462769985198974609375</LatitudeDegrees>
              <LongitudeDegrees>-2.51588397659361362457275390625</LongitudeDegrees>
            </Position>
            <AltitudeMeters>614.4000244140625</AltitudeMeters>
            <DistanceMeters>258221.95177116</DistanceMeters>
          </Trackpoint>
          <Trackpoint>
            <Time>2021-07-30T10:20:58.000Z</Time>
            <Position>
              <LatitudeDegrees>42.32323109172284603118896484375</LatitudeDegrees>
              <LongitudeDegrees>-2.515753805637359619140625</LongitudeDegrees>
            </Position>
            <AltitudeMeters>613</AltitudeMeters>
            <DistanceMeters>258251.91940641</DistanceMeters>
          </Trackpoint>
          <Trackpoint>
            <Time>2021-07-30T10:21:00.000Z</Time>
            <Position>
              <LatitudeDegrees>42.32338263653218746185302734375</LatitudeDegrees>
              <LongitudeDegrees>-2.515687756240367889404296875</LongitudeDegrees>
            </Position>
            <AltitudeMeters>612</AltitudeMeters>
            <DistanceMeters>258269.64080586</DistanceMeters>
          </Trackpoint>
          <Trackpoint>
            <Time>2021-07-30T10:21:02.000Z</Time>
            <Position>
              <LatitudeDegrees>42.32354625128209590911865234375</LatitudeDegrees>
              <LongitudeDegrees>-2.51561827026307582855224609375</LongitudeDegrees>
            </Position>
            <AltitudeMeters>610.5999755859375</AltitudeMeters>
            <DistanceMeters>258288.72816986</DistanceMeters>
          </Trackpoint>
          <Trackpoint>
            <Time>2021-07-30T10:21:03.000Z</Time>
            <Position>
              <LatitudeDegrees>42.3236330039799213409423828125</LatitudeDegrees>
              <LongitudeDegrees>-2.51558222807943820953369140625</LongitudeDegrees>
            </Position>
            <AltitudeMeters>609.4000244140625</AltitudeMeters>
            <DistanceMeters>258298.82875418</DistanceMeters>
          </Trackpoint>
          <Trackpoint>
            <Time>2021-07-30T10:21:05.000Z</Time>
            <Position>
              <LatitudeDegrees>42.32380944304168224334716796875</LatitudeDegrees>
              <LongitudeDegrees>-2.51550293527543544769287109375</LongitudeDegrees>
            </Position>
            <AltitudeMeters>607.79998779296875</AltitudeMeters>
            <DistanceMeters>258319.52233495</DistanceMeters>
          </Trackpoint>
          <Trackpoint>
            <Time>2021-07-30T10:21:06.000Z</Time>
            <Position>
              <LatitudeDegrees>42.3238888196647167205810546875</LatitudeDegrees>
              <LongitudeDegrees>-2.5154344551265239715576171875</LongitudeDegrees>
            </Position>
            <AltitudeMeters>606.79998779296875</AltitudeMeters>
            <DistanceMeters>258330.00115786</DistanceMeters>
          </Trackpoint>
          <Trackpoint>
            <Time>2021-07-30T10:21:07.000Z</Time>
            <Position>
              <LatitudeDegrees>42.323961071670055389404296875</LatitudeDegrees>
              <LongitudeDegrees>-2.51534703187644481658935546875</LongitudeDegrees>
            </Position>
            <AltitudeMeters>605.5999755859375</AltitudeMeters>
            <DistanceMeters>258340.7916076</DistanceMeters>
          </Trackpoint>
          <Trackpoint>
            <Time>2021-07-30T10:21:09.000Z</Time>
            <Position>
              <LatitudeDegrees>42.324110604822635650634765625</LatitudeDegrees>
              <LongitudeDegrees>-2.5151759572327136993408203125</LongitudeDegrees>
            </Position>
            <AltitudeMeters>604.20001220703125</AltitudeMeters>
            <DistanceMeters>258362.59024707</DistanceMeters>
          </Trackpoint>
          <Trackpoint>
            <Time>2021-07-30T10:21:12.000Z</Time>
            <Position>
              <LatitudeDegrees>42.324356697499752044677734375</LatitudeDegrees>
              <LongitudeDegrees>-2.5149697624146938323974609375</LongitudeDegrees>
            </Position>
            <AltitudeMeters>603.20001220703125</AltitudeMeters>
            <DistanceMeters>258394.81060971</DistanceMeters>
          </Trackpoint>
          <Trackpoint>
            <Time>2021-07-30T10:21:13.000Z</Time>
            <Position>
              <LatitudeDegrees>42.32444160617887973785400390625</LatitudeDegrees>
              <LongitudeDegrees>-2.51491167582571506500244140625</LongitudeDegrees>
            </Position>
            <AltitudeMeters>602.79998779296875</AltitudeMeters>
            <DistanceMeters>258405.400867</DistanceMeters>
          </Trackpoint>
          <Trackpoint>
            <Time>2021-07-30T10:21:15.000Z</Time>
            <Position>
              <LatitudeDegrees>42.324600107967853546142578125</LatitudeDegrees>
              <LongitudeDegrees>-2.51479826867580413818359375</LongitudeDegrees>
            </Position>
            <AltitudeMeters>602</AltitudeMeters>
            <DistanceMeters>258425.35873943</DistanceMeters>
          </Trackpoint>
          <Trackpoint>
            <Time>2021-07-30T10:21:19.000Z</Time>
            <Position>
              <LatitudeDegrees>42.32488148845732212066650390625</LatitudeDegrees>
              <LongitudeDegrees>-2.51459131948649883270263671875</LongitudeDegrees>
            </Position>
            <AltitudeMeters>603</AltitudeMeters>
            <DistanceMeters>258461.00756519</DistanceMeters>
          </Trackpoint>
          <Trackpoint>
            <Time>2021-07-30T10:21:23.000Z</Time>
            <Position>
              <LatitudeDegrees>42.32511945068836212158203125</LatitudeDegrees>
              <LongitudeDegrees>-2.51442804001271724700927734375</LongitudeDegrees>
            </Position>
            <AltitudeMeters>604.4000244140625</AltitudeMeters>
            <DistanceMeters>258490.70641612</DistanceMeters>
          </Trackpoint>
          <Trackpoint>
            <Time>2021-07-30T10:21:32.000Z</Time>
            <Position>
              <LatitudeDegrees>42.3256248794496059417724609375</LatitudeDegrees>
              <LongitudeDegrees>-2.51413643360137939453125</LongitudeDegrees>
            </Position>
            <AltitudeMeters>604</AltitudeMeters>
            <DistanceMeters>258551.86576009</DistanceMeters>
          </Trackpoint>
          <Trackpoint>
            <Time>2021-07-30T10:21:35.000Z</Time>
            <Position>
              <LatitudeDegrees>42.3258042521774768829345703125</LatitudeDegrees>
              <LongitudeDegrees>-2.51401984132826328277587890625</LongitudeDegrees>
            </Position>
            <AltitudeMeters>603</AltitudeMeters>
            <DistanceMeters>258574.01615904</DistanceMeters>
          </Trackpoint>
          <Trackpoint>
            <Time>2021-07-30T10:21:38.000Z</Time>
            <Position>
              <LatitudeDegrees>42.32598538510501384735107421875</LatitudeDegrees>
              <LongitudeDegrees>-2.5138952024281024932861328125</LongitudeDegrees>
            </Position>
            <AltitudeMeters>601.5999755859375</AltitudeMeters>
            <DistanceMeters>258596.63531179</DistanceMeters>
          </Trackpoint>
          <Trackpoint>
            <Time>2021-07-30T10:21:44.000Z</Time>
            <Position>
              <LatitudeDegrees>42.3263313062489032745361328125</LatitudeDegrees>
              <LongitudeDegrees>-2.5136335194110870361328125</LongitudeDegrees>
            </Position>
            <AltitudeMeters>600.4000244140625</AltitudeMeters>
            <DistanceMeters>258640.74951295</DistanceMeters>
          </Trackpoint>
          <Trackpoint>
            <Time>2021-07-30T10:21:49.000Z</Time>
            <Position>
              <LatitudeDegrees>42.32661536894738674163818359375</LatitudeDegrees>
              <LongitudeDegrees>-2.51341550610959529876708984375</LongitudeDegrees>
            </Position>
            <AltitudeMeters>599.4000244140625</AltitudeMeters>
            <DistanceMeters>258677.10142331</DistanceMeters>
          </Trackpoint>
          <Trackpoint>
            <Time>2021-07-30T10:21:52.000Z</Time>
            <Position>
              <LatitudeDegrees>42.32677294872701168060302734375</LatitudeDegrees>
              <LongitudeDegrees>-2.5132896937429904937744140625</LongitudeDegrees>
            </Position>
            <AltitudeMeters>600.5999755859375</AltitudeMeters>
            <DistanceMeters>258697.46797829</DistanceMeters>
          </Trackpoint>
          <Trackpoint>
            <Time>2021-07-30T10:22:02.000Z</Time>
            <Position>
              <LatitudeDegrees>42.32722875662147998809814453125</LatitudeDegrees>
              <LongitudeDegrees>-2.5128270126879215240478515625</LongitudeDegrees>
            </Position>
            <AltitudeMeters>601.4000244140625</AltitudeMeters>
            <DistanceMeters>258760.89743815</DistanceMeters>
          </Trackpoint>
          <Trackpoint>
            <Time>2021-07-30T10:22:03.000Z</Time>
            <Position>
              <LatitudeDegrees>42.32726329006254673004150390625</LatitudeDegrees>
              <LongitudeDegrees>-2.51277546398341655731201171875</LongitudeDegrees>
            </Position>
            <AltitudeMeters>601.79998779296875</AltitudeMeters>
            <DistanceMeters>258766.62117097</DistanceMeters>
          </Trackpoint>
          <Trackpoint>
            <Time>2021-07-30T10:22:10.000Z</Time>
            <Position>
              <LatitudeDegrees>42.327453307807445526123046875</LatitudeDegrees>
              <LongitudeDegrees>-2.5124287046492099761962890625</LongitudeDegrees>
            </Position>
            <AltitudeMeters>602.79998779296875</AltitudeMeters>
            <DistanceMeters>258802.13828739</DistanceMeters>
          </Trackpoint>
          <Trackpoint>
            <Time>2021-07-30T10:22:17.000Z</Time>
            <Position>
              <LatitudeDegrees>42.3276288248598575592041015625</LatitudeDegrees>
              <LongitudeDegrees>-2.51212569884955883026123046875</LongitudeDegrees>
            </Position>
            <AltitudeMeters>604.20001220703125</AltitudeMeters>
            <DistanceMeters>258833.8131303</DistanceMeters>
          </Trackpoint>
          <Trackpoint>
            <Time>2021-07-30T10:22:26.000Z</Time>
            <Position>
              <LatitudeDegrees>42.32787600718438625335693359375</LatitudeDegrees>
              <LongitudeDegrees>-2.511757314205169677734375</LongitudeDegrees>
            </Position>
            <AltitudeMeters>605.20001220703125</AltitudeMeters>
            <DistanceMeters>258874.74935504</DistanceMeters>
          </Trackpoint>
          <Trackpoint>
            <Time>2021-07-30T10:22:38.000Z</Time>
            <Position>
              <LatitudeDegrees>42.32824229635298252105712890625</LatitudeDegrees>
              <LongitudeDegrees>-2.51130611635744571685791015625</LongitudeDegrees>
            </Position>
            <AltitudeMeters>606.4000244140625</AltitudeMeters>
            <DistanceMeters>258929.8902386</DistanceMeters>
          </Trackpoint>
          <Trackpoint>
            <Time>2021-07-30T10:22:42.000Z</Time>
            <Position>
              <LatitudeDegrees>42.32836785726249217987060546875</LatitudeDegrees>
              <LongitudeDegrees>-2.5111841596662998199462890625</LongitudeDegrees>
            </Position>
            <AltitudeMeters>607.4000244140625</AltitudeMeters>
            <DistanceMeters>258947.09506077</DistanceMeters>
          </Trackpoint>
          <Trackpoint>
            <Time>2021-07-30T10:22:55.000Z</Time>
            <Position>
              <LatitudeDegrees>42.328795082867145538330078125</LatitudeDegrees>
              <LongitudeDegrees>-2.51070429570972919464111328125</LongitudeDegrees>
            </Position>
            <AltitudeMeters>607</AltitudeMeters>
            <DistanceMeters>259008.90305394</DistanceMeters>
          </Trackpoint>
          <Trackpoint>
            <Time>2021-07-30T10:22:59.000Z</Time>
            <Position>
              <LatitudeDegrees>42.32893330045044422149658203125</LatitudeDegrees>
              <LongitudeDegrees>-2.51051343977451324462890625</LongitudeDegrees>
            </Position>
            <AltitudeMeters>606.20001220703125</AltitudeMeters>
            <DistanceMeters>259030.88711001</DistanceMeters>
          </Trackpoint>
          <Trackpoint>
            <Time>2021-07-30T10:23:02.000Z</Time>
            <Position>
              <LatitudeDegrees>42.32904410921037197113037109375</LatitudeDegrees>
              <LongitudeDegrees>-2.5103647448122501373291015625</LongitudeDegrees>
            </Position>
            <AltitudeMeters>605</AltitudeMeters>
            <DistanceMeters>259048.25985433</DistanceMeters>
          </Trackpoint>
          <Trackpoint>
            <Time>2021-07-30T10:23:06.000Z</Time>
            <Position>
              <LatitudeDegrees>42.329208813607692718505859375</LatitudeDegrees>
              <LongitudeDegrees>-2.51016584224998950958251953125</LongitudeDegrees>
            </Position>
            <AltitudeMeters>603.79998779296875</AltitudeMeters>
            <DistanceMeters>259072.83450493</DistanceMeters>
          </Trackpoint>
          <Trackpoint>
            <Time>2021-07-30T10:23:12.000Z</Time>
            <Position>
              <LatitudeDegrees>42.32949991710484027862548828125</LatitudeDegrees>
              <LongitudeDegrees>-2.5098745711147785186767578125</LongitudeDegrees>
            </Position>
            <AltitudeMeters>602.79998779296875</AltitudeMeters>
            <DistanceMeters>259113.13569188</DistanceMeters>
          </Trackpoint>
          <Trackpoint>
            <Time>2021-07-30T10:23:21.000Z</Time>
            <Position>
              <LatitudeDegrees>42.3299573175609111785888671875</LatitudeDegrees>
              <LongitudeDegrees>-2.50947232358157634735107421875</LongitudeDegrees>
            </Position>
            <AltitudeMeters>601.5999755859375</AltitudeMeters>
            <DistanceMeters>259173.85872898</DistanceMeters>
          </Trackpoint>
          <Trackpoint>
            <Time>2021-07-30T10:23:25.000Z</Time>
            <Position>
              <LatitudeDegrees>42.33014347963035106658935546875</LatitudeDegrees>
              <LongitudeDegrees>-2.50931181013584136962890625</LongitudeDegrees>
            </Position>
            <AltitudeMeters>600.5999755859375</AltitudeMeters>
            <DistanceMeters>259198.43043978</DistanceMeters>
          </Trackpoint>
          <Trackpoint>
            <Time>2021-07-30T10:23:29.000Z</Time>
            <Position>
              <LatitudeDegrees>42.3303271271288394927978515625</LatitudeDegrees>
              <LongitudeDegrees>-2.50915733166038990020751953125</LongitudeDegrees>
            </Position>
            <AltitudeMeters>601.20001220703125</AltitudeMeters>
            <DistanceMeters>259222.50053958</DistanceMeters>
          </Trackpoint>
          <Trackpoint>
            <Time>2021-07-30T10:23:31.000Z</Time>
            <Position>
              <LatitudeDegrees>42.3304174840450286865234375</LatitudeDegrees>
              <LongitudeDegrees>-2.5090796314179897308349609375</LongitudeDegrees>
            </Position>
            <AltitudeMeters>602</AltitudeMeters>
            <DistanceMeters>259234.41720783</DistanceMeters>
          </Trackpoint>
          <Trackpoint>
            <Time>2021-07-30T10:23:42.000Z</Time>
            <Position>
              <LatitudeDegrees>42.33089533634483814239501953125</LatitudeDegrees>
              <LongitudeDegrees>-2.50869917683303356170654296875</LongitudeDegrees>
            </Position>
            <AltitudeMeters>602.79998779296875</AltitudeMeters>
            <DistanceMeters>259296.13191955</DistanceMeters>
          </Trackpoint>
          <Trackpoint>
            <Time>2021-07-30T10:23:43.000Z</Time>
            <Position>
              <LatitudeDegrees>42.3309369944036006927490234375</LatitudeDegrees>
              <LongitudeDegrees>-2.50866950489580631256103515625</LongitudeDegrees>
            </Position>
            <AltitudeMeters>603</AltitudeMeters>
            <DistanceMeters>259301.371331</DistanceMeters>
          </Trackpoint>
          <Trackpoint>
            <Time>2021-07-30T10:23:55.000Z</Time>
            <Position>
              <LatitudeDegrees>42.33143362216651439666748046875</LatitudeDegrees>
              <LongitudeDegrees>-2.508321739733219146728515625</LongitudeDegrees>
            </Position>
            <AltitudeMeters>603.79998779296875</AltitudeMeters>
            <DistanceMeters>259363.61448177</DistanceMeters>
          </Trackpoint>
          <Trackpoint>
            <Time>2021-07-30T10:23:57.000Z</Time>
            <Position>
              <LatitudeDegrees>42.331514842808246612548828125</LatitudeDegrees>
              <LongitudeDegrees>-2.50826465897262096405029296875</LongitudeDegrees>
            </Position>
            <AltitudeMeters>604.4000244140625</AltitudeMeters>
            <DistanceMeters>259373.80141646</DistanceMeters>
          </Trackpoint>
          <Trackpoint>
            <Time>2021-07-30T10:24:01.000Z</Time>
            <Position>
              <LatitudeDegrees>42.331673093140125274658203125</LatitudeDegrees>
              <LongitudeDegrees>-2.5081539340317249298095703125</LongitudeDegrees>
            </Position>
            <AltitudeMeters>605.4000244140625</AltitudeMeters>
            <DistanceMeters>259393.63128557</DistanceMeters>
          </Trackpoint>
          <Trackpoint>
            <Time>2021-07-30T10:24:13.000Z</Time>
            <Position>
              <LatitudeDegrees>42.33218447305262088775634765625</LatitudeDegrees>
              <LongitudeDegrees>-2.5078075937926769256591796875</LongitudeDegrees>
            </Position>
            <AltitudeMeters>604.4000244140625</AltitudeMeters>
            <DistanceMeters>259457.28414835</DistanceMeters>
          </Trackpoint>
          <Trackpoint>
            <Time>2021-07-30T10:24:15.000Z</Time>
            <Position>
              <LatitudeDegrees>42.33229829929769039154052734375</LatitudeDegrees>
              <LongitudeDegrees>-2.5077341683208942413330078125</LongitudeDegrees>
            </Position>
            <AltitudeMeters>603.20001220703125</AltitudeMeters>
            <DistanceMeters>259471.32014414</DistanceMeters>
          </Trackpoint>
          <Trackpoint>
            <Time>2021-07-30T10:24:17.000Z</Time>
            <Position>
              <LatitudeDegrees>42.33242050744593143463134765625</LatitudeDegrees>
              <LongitudeDegrees>-2.5076580606400966644287109375</LongitudeDegrees>
            </Position>
            <AltitudeMeters>601.4000244140625</AltitudeMeters>
            <DistanceMeters>259486.29401465</DistanceMeters>
          </Trackpoint>
          <Trackpoint>
            <Time>2021-07-30T10:24:21.000Z</Time>
            <Position>
              <LatitudeDegrees>42.33267732895910739898681640625</LatitudeDegrees>
              <LongitudeDegrees>-2.5074910931289196014404296875</LongitudeDegrees>
            </Position>
            <AltitudeMeters>600.4000244140625</AltitudeMeters>
            <DistanceMeters>259518.00860222</DistanceMeters>
          </Trackpoint>
          <Trackpoint>
            <Time>2021-07-30T10:24:25.000Z</Time>
            <Position>
              <LatitudeDegrees>42.3329520039260387420654296875</LatitudeDegrees>
              <LongitudeDegrees>-2.50731582753360271453857421875</LongitudeDegrees>
            </Position>
            <AltitudeMeters>598.79998779296875</AltitudeMeters>
            <DistanceMeters>259551.81087481</DistanceMeters>
          </Trackpoint>
          <Trackpoint>
            <Time>2021-07-30T10:24:32.000Z</Time>
            <Position>
              <LatitudeDegrees>42.33345667831599712371826171875</LatitudeDegrees>
              <LongitudeDegrees>-2.506996728479862213134765625</LongitudeDegrees>
            </Position>
            <AltitudeMeters>598</AltitudeMeters>
            <DistanceMeters>259613.81520519</DistanceMeters>
          </Trackpoint>
          <Trackpoint>
            <Time>2021-07-30T10:24:34.000Z</Time>
            <Position>
              <LatitudeDegrees>42.33361274935305118560791015625</LatitudeDegrees>
              <LongitudeDegrees>-2.5068939663469791412353515625</LongitudeDegrees>
            </Position>
            <AltitudeMeters>596.79998779296875</AltitudeMeters>
            <DistanceMeters>259633.13462935</DistanceMeters>
          </Trackpoint>
          <Trackpoint>
            <Time>2021-07-30T10:24:36.000Z</Time>
            <Position>
              <LatitudeDegrees>42.33377435244619846343994140625</LatitudeDegrees>
              <LongitudeDegrees>-2.5067885220050811767578125</LongitudeDegrees>
            </Position>
            <AltitudeMeters>595</AltitudeMeters>
            <DistanceMeters>259653.10426219</DistanceMeters>
          </Trackpoint>
          <Trackpoint>
            <Time>2021-07-30T10:24:37.000Z</Time>
            <Position>
              <LatitudeDegrees>42.3338560760021209716796875</LatitudeDegrees>
              <LongitudeDegrees>-2.5067350454628467559814453125</LongitudeDegrees>
            </Position>
            <AltitudeMeters>593.5999755859375</AltitudeMeters>
            <DistanceMeters>259663.20886878</DistanceMeters>
          </Trackpoint>
          <Trackpoint>
            <Time>2021-07-30T10:24:38.000Z</Time>
            <Position>
              <LatitudeDegrees>42.33393746428191661834716796875</LatitudeDegrees>
              <LongitudeDegrees>-2.50668215565383434295654296875</LongitudeDegrees>
            </Position>
            <AltitudeMeters>592.4000244140625</AltitudeMeters>
            <DistanceMeters>259673.25836503</DistanceMeters>
          </Trackpoint>
          <Trackpoint>
            <Time>2021-07-30T10:24:41.000Z</Time>
            <Position>
              <LatitudeDegrees>42.33418288640677928924560546875</LatitudeDegrees>
              <LongitudeDegrees>-2.5065208040177822113037109375</LongitudeDegrees>
            </Position>
            <AltitudeMeters>591.20001220703125</AltitudeMeters>
            <DistanceMeters>259703.62947382</DistanceMeters>
          </Trackpoint>
          <Trackpoint>
            <Time>2021-07-30T10:24:46.000Z</Time>
            <Position>
              <LatitudeDegrees>42.3346017301082611083984375</LatitudeDegrees>
              <LongitudeDegrees>-2.50623942352831363677978515625</LongitudeDegrees>
            </Position>
            <AltitudeMeters>589.4000244140625</AltitudeMeters>
            <DistanceMeters>259755.67974399</DistanceMeters>
          </Trackpoint>
          <Trackpoint>
            <Time>2021-07-30T10:24:48.000Z</Time>
            <Position>
              <LatitudeDegrees>42.3347611539065837860107421875</LatitudeDegrees>
              <LongitudeDegrees>-2.50613582320511341094970703125</LongitudeDegrees>
            </Position>
            <AltitudeMeters>588</AltitudeMeters>
            <DistanceMeters>259775.3649585</DistanceMeters>
          </Trackpoint>
          <Trackpoint>
            <Time>2021-07-30T10:24:54.000Z</Time>
            <Position>
              <LatitudeDegrees>42.3351943306624889373779296875</LatitudeDegrees>
              <LongitudeDegrees>-2.5058556161820888519287109375</LongitudeDegrees>
            </Position>
            <AltitudeMeters>589.20001220703125</AltitudeMeters>
            <DistanceMeters>259828.80690465</DistanceMeters>
          </Trackpoint>
          <Trackpoint>
            <Time>2021-07-30T10:25:02.000Z</Time>
            <Position>
              <LatitudeDegrees>42.33570772223174571990966796875</LatitudeDegrees>
              <LongitudeDegrees>-2.50552293844521045684814453125</LongitudeDegrees>
            </Position>
            <AltitudeMeters>589.4000244140625</AltitudeMeters>
            <DistanceMeters>259892.16578385</DistanceMeters>
          </Trackpoint>
          <Trackpoint>
            <Time>2021-07-30T10:25:07.000Z</Time>
            <Position>
              <LatitudeDegrees>42.33598181046545505523681640625</LatitudeDegrees>
              <LongitudeDegrees>-2.50534272752702236175537109375</LongitudeDegrees>
            </Position>
            <AltitudeMeters>588.20001220703125</AltitudeMeters>
            <DistanceMeters>259926.0845975</DistanceMeters>
          </Trackpoint>
          <Trackpoint>
            <Time>2021-07-30T10:25:18.000Z</Time>
            <Position>
              <LatitudeDegrees>42.336475588381290435791015625</LatitudeDegrees>
              <LongitudeDegrees>-2.50501264818012714385986328125</LongitudeDegrees>
            </Position>
            <AltitudeMeters>588.20001220703125</AltitudeMeters>
            <DistanceMeters>259987.38677211</DistanceMeters>
          </Trackpoint>
          <Trackpoint>
            <Time>2021-07-30T10:25:26.000Z</Time>
            <Position>
              <LatitudeDegrees>42.33678379096090793609619140625</LatitudeDegrees>
              <LongitudeDegrees>-2.5048045255243778228759765625</LongitudeDegrees>
            </Position>
            <AltitudeMeters>589.20001220703125</AltitudeMeters>
            <DistanceMeters>260025.72660693</DistanceMeters>
          </Trackpoint>
          <Trackpoint>
            <Time>2021-07-30T10:25:29.000Z</Time>
            <Position>
              <LatitudeDegrees>42.3368955217301845550537109375</LatitudeDegrees>
              <LongitudeDegrees>-2.50472732819616794586181640625</LongitudeDegrees>
            </Position>
            <AltitudeMeters>590.5999755859375</AltitudeMeters>
            <DistanceMeters>260039.69003812</DistanceMeters>
          </Trackpoint>
          <Trackpoint>
            <Time>2021-07-30T10:25:35.000Z</Time>
            <Position>
              <LatitudeDegrees>42.33714488334953784942626953125</LatitudeDegrees>
              <LongitudeDegrees>-2.50461718998849391937255859375</LongitudeDegrees>
            </Position>
            <AltitudeMeters>591.4000244140625</AltitudeMeters>
            <DistanceMeters>260068.88629055</DistanceMeters>
          </Trackpoint>
          <Trackpoint>
            <Time>2021-07-30T10:25:37.000Z</Time>
            <Position>
              <LatitudeDegrees>42.337222583591938018798828125</LatitudeDegrees>
              <LongitudeDegrees>-2.5045691616833209991455078125</LongitudeDegrees>
            </Position>
            <AltitudeMeters>591.5999755859375</AltitudeMeters>
            <DistanceMeters>260078.39466188</DistanceMeters>
          </Trackpoint>
          <Trackpoint>
            <Time>2021-07-30T10:25:49.000Z</Time>
            <Position>
              <LatitudeDegrees>42.337672524154186248779296875</LatitudeDegrees>
              <LongitudeDegrees>-2.50428174622356891632080078125</LongitudeDegrees>
            </Position>
            <AltitudeMeters>592.79998779296875</AltitudeMeters>
            <DistanceMeters>260133.77591796</DistanceMeters>
          </Trackpoint>
          <Trackpoint>
            <Time>2021-07-30T10:26:01.000Z</Time>
            <Position>
              <LatitudeDegrees>42.33810779638588428497314453125</LatitudeDegrees>
              <LongitudeDegrees>-2.5039760582149028778076171875</LongitudeDegrees>
            </Position>
            <AltitudeMeters>593.79998779296875</AltitudeMeters>
            <DistanceMeters>260188.36146626</DistanceMeters>
          </Trackpoint>
          <Trackpoint>
            <Time>2021-07-30T10:26:04.000Z</Time>
            <Position>
              <LatitudeDegrees>42.33820519410073757171630859375</LatitudeDegrees>
              <LongitudeDegrees>-2.5038868747651576995849609375</LongitudeDegrees>
            </Position>
            <AltitudeMeters>594.79998779296875</AltitudeMeters>
            <DistanceMeters>260201.45171953</DistanceMeters>
          </Trackpoint>
          <Trackpoint>
            <Time>2021-07-30T10:26:08.000Z</Time>
            <Position>
              <LatitudeDegrees>42.33832857571542263031005859375</LatitudeDegrees>
              <LongitudeDegrees>-2.5037792511284351348876953125</LongitudeDegrees>
            </Position>
            <AltitudeMeters>596</AltitudeMeters>
            <DistanceMeters>260217.79134132</DistanceMeters>
          </Trackpoint>
          <Trackpoint>
            <Time>2021-07-30T10:26:16.000Z</Time>
            <Position>
              <LatitudeDegrees>42.33855823986232280731201171875</LatitudeDegrees>
              <LongitudeDegrees>-2.50358219258487224578857421875</LongitudeDegrees>
            </Position>
            <AltitudeMeters>597.20001220703125</AltitudeMeters>
            <DistanceMeters>260248.06119095</DistanceMeters>
          </Trackpoint>
          <Trackpoint>
            <Time>2021-07-30T10:26:24.000Z</Time>
            <Position>
              <LatitudeDegrees>42.33878354541957378387451171875</LatitudeDegrees>
              <LongitudeDegrees>-2.50338010489940643310546875</LongitudeDegrees>
            </Position>
            <AltitudeMeters>598.20001220703125</AltitudeMeters>
            <DistanceMeters>260278.14911583</DistanceMeters>
          </Trackpoint>
          <Trackpoint>
            <Time>2021-07-30T10:26:28.000Z</Time>
            <Position>
              <LatitudeDegrees>42.33890089206397533416748046875</LatitudeDegrees>
              <LongitudeDegrees>-2.50327910296618938446044921875</LongitudeDegrees>
            </Position>
            <AltitudeMeters>599.20001220703125</AltitudeMeters>
            <DistanceMeters>260293.62943135</DistanceMeters>
          </Trackpoint>
          <Trackpoint>
            <Time>2021-07-30T10:26:44.000Z</Time>
            <Position>
              <LatitudeDegrees>42.33937807381153106689453125</LatitudeDegrees>
              <LongitudeDegrees>-2.502880878746509552001953125</LongitudeDegrees>
            </Position>
            <AltitudeMeters>600</AltitudeMeters>
            <DistanceMeters>260356.03268676</DistanceMeters>
          </Trackpoint>
          <Trackpoint>
            <Time>2021-07-30T10:26:59.000Z</Time>
            <Position>
              <LatitudeDegrees>42.3398754559457302093505859375</LatitudeDegrees>
              <LongitudeDegrees>-2.50250830315053462982177734375</LongitudeDegrees>
            </Position>
            <AltitudeMeters>599.79998779296875</AltitudeMeters>
            <DistanceMeters>260419.31170293</DistanceMeters>
          </Trackpoint>
          <Trackpoint>
            <Time>2021-07-30T10:27:03.000Z</Time>
            <Position>
              <LatitudeDegrees>42.34003278426826000213623046875</LatitudeDegrees>
              <LongitudeDegrees>-2.502412162721157073974609375</LongitudeDegrees>
            </Position>
            <AltitudeMeters>598.20001220703125</AltitudeMeters>
            <DistanceMeters>260438.52614218</DistanceMeters>
          </Trackpoint>
          <Trackpoint>
            <Time>2021-07-30T10:27:09.000Z</Time>
            <Position>
              <LatitudeDegrees>42.34029396437108516693115234375</LatitudeDegrees>
              <LongitudeDegrees>-2.50226028263568878173828125</LongitudeDegrees>
            </Position>
            <AltitudeMeters>597</AltitudeMeters>
            <DistanceMeters>260470.16761236</DistanceMeters>
          </Trackpoint>
          <Trackpoint>
            <Time>2021-07-30T10:27:16.000Z</Time>
            <Position>
              <LatitudeDegrees>42.34063393436372280120849609375</LatitudeDegrees>
              <LongitudeDegrees>-2.50209205783903598785400390625</LongitudeDegrees>
            </Position>
            <AltitudeMeters>595.79998779296875</AltitudeMeters>
            <DistanceMeters>260510.45849101</DistanceMeters>
          </Trackpoint>
          <Trackpoint>
            <Time>2021-07-30T10:27:18.000Z</Time>
            <Position>
              <LatitudeDegrees>42.3407418094575405120849609375</LatitudeDegrees>
              <LongitudeDegrees>-2.50204411335289478302001953125</LongitudeDegrees>
            </Position>
            <AltitudeMeters>594.79998779296875</AltitudeMeters>
            <DistanceMeters>260523.09632952</DistanceMeters>
          </Trackpoint>
          <Trackpoint>
            <Time>2021-07-30T10:27:22.000Z</Time>
            <Position>
              <LatitudeDegrees>42.34097667038440704345703125</LatitudeDegrees>
              <LongitudeDegrees>-2.5019498169422149658203125</LongitudeDegrees>
            </Position>
            <AltitudeMeters>593.20001220703125</AltitudeMeters>
            <DistanceMeters>260550.36353279</DistanceMeters>
          </Trackpoint>
          <Trackpoint>
            <Time>2021-07-30T10:27:24.000Z</Time>
            <Position>
              <LatitudeDegrees>42.3411047458648681640625</LatitudeDegrees>
              <LongitudeDegrees>-2.50190363265573978424072265625</LongitudeDegrees>
            </Position>
            <AltitudeMeters>592</AltitudeMeters>
            <DistanceMeters>260565.11656409</DistanceMeters>
          </Trackpoint>
          <Trackpoint>
            <Time>2021-07-30T10:27:27.000Z</Time>
            <Position>
              <LatitudeDegrees>42.34130951575934886932373046875</LatitudeDegrees>
              <LongitudeDegrees>-2.5018323026597499847412109375</LongitudeDegrees>
            </Position>
            <AltitudeMeters>590.5999755859375</AltitudeMeters>
            <DistanceMeters>260588.65098077</DistanceMeters>
          </Trackpoint>
          <Trackpoint>
            <Time>2021-07-30T10:27:31.000Z</Time>
            <Position>
              <LatitudeDegrees>42.3416088335216045379638671875</LatitudeDegrees>
              <LongitudeDegrees>-2.50173666514456272125244140625</LongitudeDegrees>
            </Position>
            <AltitudeMeters>589</AltitudeMeters>
            <DistanceMeters>260622.88197228</DistanceMeters>
          </Trackpoint>
          <Trackpoint>
            <Time>2021-07-30T10:27:35.000Z</Time>
            <Position>
              <LatitudeDegrees>42.341935224831104278564453125</LatitudeDegrees>
              <LongitudeDegrees>-2.50163574703037738800048828125</LongitudeDegrees>
            </Position>
            <AltitudeMeters>587</AltitudeMeters>
            <DistanceMeters>260660.14650174</DistanceMeters>
          </Trackpoint>
          <Trackpoint>
            <Time>2021-07-30T10:27:37.000Z</Time>
            <Position>
              <LatitudeDegrees>42.3421050421893596649169921875</LatitudeDegrees>
              <LongitudeDegrees>-2.50157925300300121307373046875</LongitudeDegrees>
            </Position>
            <AltitudeMeters>585.79998779296875</AltitudeMeters>
            <DistanceMeters>260679.61028341</DistanceMeters>
          </Trackpoint>
          <Trackpoint>
            <Time>2021-07-30T10:27:40.000Z</Time>
            <Position>
              <LatitudeDegrees>42.34237167052924633026123046875</LatitudeDegrees>
              <LongitudeDegrees>-2.5014831125736236572265625</LongitudeDegrees>
            </Position>
            <AltitudeMeters>584.5999755859375</AltitudeMeters>
            <DistanceMeters>260710.32229417</DistanceMeters>
          </Trackpoint>
          <Trackpoint>
            <Time>2021-07-30T10:27:43.000Z</Time>
            <Position>
              <LatitudeDegrees>42.34264777041971683502197265625</LatitudeDegrees>
              <LongitudeDegrees>-2.501367442309856414794921875</LongitudeDegrees>
            </Position>
            <AltitudeMeters>583</AltitudeMeters>
            <DistanceMeters>260742.49245116</DistanceMeters>
          </Trackpoint>
          <Trackpoint>
            <Time>2021-07-30T10:27:44.000Z</Time>
            <Position>
              <LatitudeDegrees>42.342740558087825775146484375</LatitudeDegrees>
              <LongitudeDegrees>-2.501323856413364410400390625</LongitudeDegrees>
            </Position>
            <AltitudeMeters>582</AltitudeMeters>
            <DistanceMeters>260753.42506713</DistanceMeters>
          </Trackpoint>
          <Trackpoint>
            <Time>2021-07-30T10:27:46.000Z</Time>
            <Position>
              <LatitudeDegrees>42.34292705543339252471923828125</LatitudeDegrees>
              <LongitudeDegrees>-2.50123433768749237060546875</LongitudeDegrees>
            </Position>
            <AltitudeMeters>580.79998779296875</AltitudeMeters>
            <DistanceMeters>260775.45036546</DistanceMeters>
          </Trackpoint>
          <Trackpoint>
            <Time>2021-07-30T10:27:49.000Z</Time>
            <Position>
              <LatitudeDegrees>42.3432075977325439453125</LatitudeDegrees>
              <LongitudeDegrees>-2.501092515885829925537109375</LongitudeDegrees>
            </Position>
            <AltitudeMeters>579.5999755859375</AltitudeMeters>
            <DistanceMeters>260808.78361847</DistanceMeters>
          </Trackpoint>
          <Trackpoint>
            <Time>2021-07-30T10:27:50.000Z</Time>
            <Position>
              <LatitudeDegrees>42.34330072067677974700927734375</LatitudeDegrees>
              <LongitudeDegrees>-2.50104666687548160552978515625</LongitudeDegrees>
            </Position>
            <AltitudeMeters>578.20001220703125</AltitudeMeters>
            <DistanceMeters>260819.81326896</DistanceMeters>
          </Trackpoint>
          <Trackpoint>
            <Time>2021-07-30T10:27:52.000Z</Time>
            <Position>
              <LatitudeDegrees>42.3434867151081562042236328125</LatitudeDegrees>
              <LongitudeDegrees>-2.50095379538834095001220703125</LongitudeDegrees>
            </Position>
            <AltitudeMeters>577</AltitudeMeters>
            <DistanceMeters>260841.87973247</DistanceMeters>
          </Trackpoint>
          <Trackpoint>
            <Time>2021-07-30T10:27:57.000Z</Time>
            <Position>
              <LatitudeDegrees>42.34390002675354480743408203125</LatitudeDegrees>
              <LongitudeDegrees>-2.5007118098437786102294921875</LongitudeDegrees>
            </Position>
            <AltitudeMeters>577</AltitudeMeters>
            <DistanceMeters>260892.00468045</DistanceMeters>
          </Trackpoint>
          <Trackpoint>
            <Time>2021-07-30T10:28:02.000Z</Time>
            <Position>
              <LatitudeDegrees>42.34421300701797008514404296875</LatitudeDegrees>
              <LongitudeDegrees>-2.50041165389120578765869140625</LongitudeDegrees>
            </Position>
            <AltitudeMeters>576.5999755859375</AltitudeMeters>
            <DistanceMeters>260934.70372674</DistanceMeters>
          </Trackpoint>
          <Trackpoint>
            <Time>2021-07-30T10:28:10.000Z</Time>
            <Position>
              <LatitudeDegrees>42.3447322659194469451904296875</LatitudeDegrees>
              <LongitudeDegrees>-2.5001284293830394744873046875</LongitudeDegrees>
            </Position>
            <AltitudeMeters>576.4000244140625</AltitudeMeters>
            <DistanceMeters>260997.0179249</DistanceMeters>
          </Trackpoint>
          <Trackpoint>
            <Time>2021-07-30T10:28:14.000Z</Time>
            <Position>
              <LatitudeDegrees>42.344963438808917999267578125</LatitudeDegrees>
              <LongitudeDegrees>-2.50000630505383014678955078125</LongitudeDegrees>
            </Position>
            <AltitudeMeters>576</AltitudeMeters>
            <DistanceMeters>261024.63982235</DistanceMeters>
          </Trackpoint>
          <Trackpoint>
            <Time>2021-07-30T10:28:24.000Z</Time>
            <Position>
              <LatitudeDegrees>42.34550449065864086151123046875</LatitudeDegrees>
              <LongitudeDegrees>-2.49973070807754993438720703125</LongitudeDegrees>
            </Position>
            <AltitudeMeters>575.5999755859375</AltitudeMeters>
            <DistanceMeters>261088.98631139</DistanceMeters>
          </Trackpoint>
          <Trackpoint>
            <Time>2021-07-30T10:28:27.000Z</Time>
            <Position>
              <LatitudeDegrees>42.34567045234143733978271484375</LatitudeDegrees>
              <LongitudeDegrees>-2.49964990653097629547119140625</LongitudeDegrees>
            </Position>
            <AltitudeMeters>574.79998779296875</AltitudeMeters>
            <DistanceMeters>261108.61755186</DistanceMeters>
          </Trackpoint>
          <Trackpoint>
            <Time>2021-07-30T10:28:35.000Z</Time>
            <Position>
              <LatitudeDegrees>42.34612760134041309356689453125</LatitudeDegrees>
              <LongitudeDegrees>-2.499418817460536956787109375</LongitudeDegrees>
            </Position>
            <AltitudeMeters>573.79998779296875</AltitudeMeters>
            <DistanceMeters>261162.9342765</DistanceMeters>
          </Trackpoint>
          <Trackpoint>
            <Time>2021-07-30T10:28:44.000Z</Time>
            <Position>
              <LatitudeDegrees>42.3466564156115055084228515625</LatitudeDegrees>
              <LongitudeDegrees>-2.49914221465587615966796875</LongitudeDegrees>
            </Position>
            <AltitudeMeters>573</AltitudeMeters>
            <DistanceMeters>261226.03752443</DistanceMeters>
          </Trackpoint>
          <Trackpoint>
            <Time>2021-07-30T10:28:45.000Z</Time>
            <Position>
              <LatitudeDegrees>42.34671332873404026031494140625</LatitudeDegrees>
              <LongitudeDegrees>-2.4991105310618877410888671875</LongitudeDegrees>
            </Position>
            <AltitudeMeters>572.79998779296875</AltitudeMeters>
            <DistanceMeters>261232.88736218</DistanceMeters>
          </Trackpoint>
          <Trackpoint>
            <Time>2021-07-30T10:28:55.000Z</Time>
            <Position>
              <LatitudeDegrees>42.34726184047758579254150390625</LatitudeDegrees>
              <LongitudeDegrees>-2.49881573952734470367431640625</LongitudeDegrees>
            </Position>
            <AltitudeMeters>571.79998779296875</AltitudeMeters>
            <DistanceMeters>261298.57763285</DistanceMeters>
          </Trackpoint>
          <Trackpoint>
            <Time>2021-07-30T10:29:05.000Z</Time>
            <Position>
              <LatitudeDegrees>42.3477943427860736846923828125</LatitudeDegrees>
              <LongitudeDegrees>-2.49853041954338550567626953125</LongitudeDegrees>
            </Position>
            <AltitudeMeters>571.4000244140625</AltitudeMeters>
            <DistanceMeters>261362.32419904</DistanceMeters>
          </Trackpoint>
          <Trackpoint>
            <Time>2021-07-30T10:29:10.000Z</Time>
            <Position>
              <LatitudeDegrees>42.3480722866952419281005859375</LatitudeDegrees>
              <LongitudeDegrees>-2.49838046729564666748046875</LongitudeDegrees>
            </Position>
            <AltitudeMeters>570.79998779296875</AltitudeMeters>
            <DistanceMeters>261395.62831725</DistanceMeters>
          </Trackpoint>
          <Trackpoint>
            <Time>2021-07-30T10:29:13.000Z</Time>
            <Position>
              <LatitudeDegrees>42.34823967330157756805419921875</LatitudeDegrees>
              <LongitudeDegrees>-2.498292624950408935546875</LongitudeDegrees>
            </Position>
            <AltitudeMeters>569.5999755859375</AltitudeMeters>
            <DistanceMeters>261415.61060741</DistanceMeters>
          </Trackpoint>
          <Trackpoint>
            <Time>2021-07-30T10:29:17.000Z</Time>
            <Position>
              <LatitudeDegrees>42.3484585247933864593505859375</LatitudeDegrees>
              <LongitudeDegrees>-2.49817552976310253143310546875</LongitudeDegrees>
            </Position>
            <AltitudeMeters>568.5999755859375</AltitudeMeters>
            <DistanceMeters>261441.80421747</DistanceMeters>
          </Trackpoint>
          <Trackpoint>
            <Time>2021-07-30T10:29:27.000Z</Time>
            <Position>
              <LatitudeDegrees>42.34899605624377727508544921875</LatitudeDegrees>
              <LongitudeDegrees>-2.4978877790272235870361328125</LongitudeDegrees>
            </Position>
            <AltitudeMeters>568</AltitudeMeters>
            <DistanceMeters>261506.14474199</DistanceMeters>
          </Trackpoint>
          <Trackpoint>
            <Time>2021-07-30T10:29:29.000Z</Time>
            <Position>
              <LatitudeDegrees>42.34909814782440662384033203125</LatitudeDegrees>
              <LongitudeDegrees>-2.497833631932735443115234375</LongitudeDegrees>
            </Position>
            <AltitudeMeters>567.4000244140625</AltitudeMeters>
            <DistanceMeters>261518.34966481</DistanceMeters>
          </Trackpoint>
          <Trackpoint>
            <Time>2021-07-30T10:29:38.000Z</Time>
            <Position>
              <LatitudeDegrees>42.34954121522605419158935546875</LatitudeDegrees>
              <LongitudeDegrees>-2.49759868718683719635009765625</LongitudeDegrees>
            </Position>
            <AltitudeMeters>568.4000244140625</AltitudeMeters>
            <DistanceMeters>261571.31561527</DistanceMeters>
          </Trackpoint>
          <Trackpoint>
            <Time>2021-07-30T10:29:49.000Z</Time>
            <Position>
              <LatitudeDegrees>42.35008402727544307708740234375</LatitudeDegrees>
              <LongitudeDegrees>-2.4973100982606410980224609375</LongitudeDegrees>
            </Position>
            <AltitudeMeters>568.20001220703125</AltitudeMeters>
            <DistanceMeters>261636.22797365</DistanceMeters>
          </Trackpoint>
          <Trackpoint>
            <Time>2021-07-30T10:30:00.000Z</Time>
            <Position>
              <LatitudeDegrees>42.35063505358994007110595703125</LatitudeDegrees>
              <LongitudeDegrees>-2.4970184080302715301513671875</LongitudeDegrees>
            </Position>
            <AltitudeMeters>569</AltitudeMeters>
            <DistanceMeters>261702.08457192</DistanceMeters>
          </Trackpoint>
          <Trackpoint>
            <Time>2021-07-30T10:30:03.000Z</Time>
            <Position>
              <LatitudeDegrees>42.350792549550533294677734375</LatitudeDegrees>
              <LongitudeDegrees>-2.49693349935114383697509765625</LongitudeDegrees>
            </Position>
            <AltitudeMeters>566.5999755859375</AltitudeMeters>
            <DistanceMeters>261720.95401585</DistanceMeters>
          </Trackpoint>
          <Trackpoint>
            <Time>2021-07-30T10:30:05.000Z</Time>
            <Position>
              <LatitudeDegrees>42.35089673660695552825927734375</LatitudeDegrees>
              <LongitudeDegrees>-2.4968769215047359466552734375</LongitudeDegrees>
            </Position>
            <AltitudeMeters>565</AltitudeMeters>
            <DistanceMeters>261733.44885445</DistanceMeters>
          </Trackpoint>
          <Trackpoint>
            <Time>2021-07-30T10:30:15.000Z</Time>
            <Position>
              <LatitudeDegrees>42.35141876153647899627685546875</LatitudeDegrees>
              <LongitudeDegrees>-2.49659839086234569549560546875</LongitudeDegrees>
            </Position>
            <AltitudeMeters>564.20001220703125</AltitudeMeters>
            <DistanceMeters>261795.9051941</DistanceMeters>
          </Trackpoint>
          <Trackpoint>
            <Time>2021-07-30T10:30:24.000Z</Time>
            <Position>
              <LatitudeDegrees>42.3519366793334484100341796875</LatitudeDegrees>
              <LongitudeDegrees>-2.4963267333805561065673828125</LongitudeDegrees>
            </Position>
            <AltitudeMeters>564</AltitudeMeters>
            <DistanceMeters>261857.72969424</DistanceMeters>
          </Trackpoint>
          <Trackpoint>
            <Time>2021-07-30T10:30:26.000Z</Time>
            <Position>
              <LatitudeDegrees>42.3520560376346111297607421875</LatitudeDegrees>
              <LongitudeDegrees>-2.496259845793247222900390625</LongitudeDegrees>
            </Position>
            <AltitudeMeters>563.79998779296875</AltitudeMeters>
            <DistanceMeters>261872.10858955</DistanceMeters>
          </Trackpoint>
          <Trackpoint>
            <Time>2021-07-30T10:30:30.000Z</Time>
            <Position>
              <LatitudeDegrees>42.352294921875</LatitudeDegrees>
              <LongitudeDegrees>-2.4961302615702152252197265625</LongitudeDegrees>
            </Position>
            <AltitudeMeters>562.79998779296875</AltitudeMeters>
            <DistanceMeters>261900.7540612</DistanceMeters>
          </Trackpoint>
          <Trackpoint>
            <Time>2021-07-30T10:30:39.000Z</Time>
            <Position>
              <LatitudeDegrees>42.35281468369066715240478515625</LatitudeDegrees>
              <LongitudeDegrees>-2.49585122801363468170166015625</LongitudeDegrees>
            </Position>
            <AltitudeMeters>563</AltitudeMeters>
            <DistanceMeters>261962.99126351</DistanceMeters>
          </Trackpoint>
          <Trackpoint>
            <Time>2021-07-30T10:30:45.000Z</Time>
            <Position>
              <LatitudeDegrees>42.3531503789126873016357421875</LatitudeDegrees>
              <LongitudeDegrees>-2.4956702627241611480712890625</LongitudeDegrees>
            </Position>
            <AltitudeMeters>561.79998779296875</AltitudeMeters>
            <DistanceMeters>262003.21058366</DistanceMeters>
          </Trackpoint>
          <Trackpoint>
            <Time>2021-07-30T10:30:54.000Z</Time>
            <Position>
              <LatitudeDegrees>42.35363091342151165008544921875</LatitudeDegrees>
              <LongitudeDegrees>-2.49541486613452434539794921875</LongitudeDegrees>
            </Position>
            <AltitudeMeters>560.79998779296875</AltitudeMeters>
            <DistanceMeters>262060.67260218</DistanceMeters>
          </Trackpoint>
          <Trackpoint>
            <Time>2021-07-30T10:30:58.000Z</Time>
            <Position>
              <LatitudeDegrees>42.35384012572467327117919921875</LatitudeDegrees>
              <LongitudeDegrees>-2.49530254863202571868896484375</LongitudeDegrees>
            </Position>
            <AltitudeMeters>559.5999755859375</AltitudeMeters>
            <DistanceMeters>262085.72399441</DistanceMeters>
          </Trackpoint>
          <Trackpoint>
            <Time>2021-07-30T10:31:08.000Z</Time>
            <Position>
              <LatitudeDegrees>42.3543681018054485321044921875</LatitudeDegrees>
              <LongitudeDegrees>-2.495015300810337066650390625</LongitudeDegrees>
            </Position>
            <AltitudeMeters>559.5999755859375</AltitudeMeters>
            <DistanceMeters>262149.06042231</DistanceMeters>
          </Trackpoint>
          <Trackpoint>
            <Time>2021-07-30T10:31:17.000Z</Time>
            <Position>
              <LatitudeDegrees>42.35487529076635837554931640625</LatitudeDegrees>
              <LongitudeDegrees>-2.49474749900400638580322265625</LongitudeDegrees>
            </Position>
            <AltitudeMeters>559.79998779296875</AltitudeMeters>
            <DistanceMeters>262209.65677571</DistanceMeters>
          </Trackpoint>
          <Trackpoint>
            <Time>2021-07-30T10:31:22.000Z</Time>
            <Position>
              <LatitudeDegrees>42.3551697470247745513916015625</LatitudeDegrees>
              <LongitudeDegrees>-2.4945903383195400238037109375</LongitudeDegrees>
            </Position>
            <AltitudeMeters>558.4000244140625</AltitudeMeters>
            <DistanceMeters>262244.88760166</DistanceMeters>
          </Trackpoint>
          <Trackpoint>
            <Time>2021-07-30T10:31:29.000Z</Time>
            <Position>
              <LatitudeDegrees>42.3555766046047210693359375</LatitudeDegrees>
              <LongitudeDegrees>-2.49437324702739715576171875</LongitudeDegrees>
            </Position>
            <AltitudeMeters>557.20001220703125</AltitudeMeters>
            <DistanceMeters>262293.56493755</DistanceMeters>
          </Trackpoint>
          <Trackpoint>
            <Time>2021-07-30T10:31:38.000Z</Time>
            <Position>
              <LatitudeDegrees>42.35608731396496295928955078125</LatitudeDegrees>
              <LongitudeDegrees>-2.49410158954560756683349609375</LongitudeDegrees>
            </Position>
            <AltitudeMeters>557.20001220703125</AltitudeMeters>
            <DistanceMeters>262354.6416164</DistanceMeters>
          </Trackpoint>
          <Trackpoint>
            <Time>2021-07-30T10:31:43.000Z</Time>
            <Position>
              <LatitudeDegrees>42.35637657344341278076171875</LatitudeDegrees>
              <LongitudeDegrees>-2.49394887126982212066650390625</LongitudeDegrees>
            </Position>
            <AltitudeMeters>556.20001220703125</AltitudeMeters>
            <DistanceMeters>262389.20026004</DistanceMeters>
          </Trackpoint>
          <Trackpoint>
            <Time>2021-07-30T10:31:52.000Z</Time>
            <Position>
              <LatitudeDegrees>42.35689784400165081024169921875</LatitudeDegrees>
              <LongitudeDegrees>-2.49366774223744869232177734375</LongitudeDegrees>
            </Position>
            <AltitudeMeters>555.4000244140625</AltitudeMeters>
            <DistanceMeters>262451.65652739</DistanceMeters>
          </Trackpoint>
          <Trackpoint>
            <Time>2021-07-30T10:32:00.000Z</Time>
            <Position>
              <LatitudeDegrees>42.357365973293781280517578125</LatitudeDegrees>
              <LongitudeDegrees>-2.49342030845582485198974609375</LongitudeDegrees>
            </Position>
            <AltitudeMeters>555</AltitudeMeters>
            <DistanceMeters>262507.59353284</DistanceMeters>
          </Trackpoint>
          <Trackpoint>
            <Time>2021-07-30T10:32:09.000Z</Time>
            <Position>
              <LatitudeDegrees>42.357892692089080810546875</LatitudeDegrees>
              <LongitudeDegrees>-2.4931382574141025543212890625</LongitudeDegrees>
            </Position>
            <AltitudeMeters>554.4000244140625</AltitudeMeters>
            <DistanceMeters>262570.6411619</DistanceMeters>
          </Trackpoint>
          <Trackpoint>
            <Time>2021-07-30T10:32:13.000Z</Time>
            <Position>
              <LatitudeDegrees>42.35813065432012081146240234375</LatitudeDegrees>
              <LongitudeDegrees>-2.49300892464816570281982421875</LongitudeDegrees>
            </Position>
            <AltitudeMeters>554</AltitudeMeters>
            <DistanceMeters>262599.18304895</DistanceMeters>
          </Trackpoint>
          <Trackpoint>
            <Time>2021-07-30T10:32:21.000Z</Time>
            <Position>
              <LatitudeDegrees>42.3586046509444713592529296875</LatitudeDegrees>
              <LongitudeDegrees>-2.49275998212397098541259765625</LongitudeDegrees>
            </Position>
            <AltitudeMeters>553</AltitudeMeters>
            <DistanceMeters>262655.77343206</DistanceMeters>
          </Trackpoint>
          <Trackpoint>
            <Time>2021-07-30T10:32:25.000Z</Time>
            <Position>
              <LatitudeDegrees>42.35883406363427639007568359375</LatitudeDegrees>
              <LongitudeDegrees>-2.49263727106153964996337890625</LongitudeDegrees>
            </Position>
            <AltitudeMeters>551.79998779296875</AltitudeMeters>
            <DistanceMeters>262683.22973992</DistanceMeters>
          </Trackpoint>
          <Trackpoint>
            <Time>2021-07-30T10:32:35.000Z</Time>
            <Position>
              <LatitudeDegrees>42.35937084071338176727294921875</LatitudeDegrees>
              <LongitudeDegrees>-2.4923486821353435516357421875</LongitudeDegrees>
            </Position>
            <AltitudeMeters>551.20001220703125</AltitudeMeters>
            <DistanceMeters>262747.51599698</DistanceMeters>
          </Trackpoint>
          <Trackpoint>
            <Time>2021-07-30T10:32:45.000Z</Time>
            <Position>
              <LatitudeDegrees>42.35989873297512531280517578125</LatitudeDegrees>
              <LongitudeDegrees>-2.492068894207477569580078125</LongitudeDegrees>
            </Position>
            <AltitudeMeters>550.79998779296875</AltitudeMeters>
            <DistanceMeters>262810.61681216</DistanceMeters>
          </Trackpoint>
          <Trackpoint>
            <Time>2021-07-30T10:32:53.000Z</Time>
            <Position>
              <LatitudeDegrees>42.3603175766766071319580078125</LatitudeDegrees>
              <LongitudeDegrees>-2.49184685759246349334716796875</LongitudeDegrees>
            </Position>
            <AltitudeMeters>550.79998779296875</AltitudeMeters>
            <DistanceMeters>262860.68407852</DistanceMeters>
          </Trackpoint>
          <Trackpoint>
            <Time>2021-07-30T10:33:03.000Z</Time>
            <Position>
              <LatitudeDegrees>42.36085996963083744049072265625</LatitudeDegrees>
              <LongitudeDegrees>-2.49156053178012371063232421875</LongitudeDegrees>
            </Position>
            <AltitudeMeters>550.4000244140625</AltitudeMeters>
            <DistanceMeters>262925.48365835</DistanceMeters>
          </Trackpoint>
          <Trackpoint>
            <Time>2021-07-30T10:33:09.000Z</Time>
            <Position>
              <LatitudeDegrees>42.36119843088090419769287109375</LatitudeDegrees>
              <LongitudeDegrees>-2.4913820810616016387939453125</LongitudeDegrees>
            </Position>
            <AltitudeMeters>549.5999755859375</AltitudeMeters>
            <DistanceMeters>262965.91303056</DistanceMeters>
          </Trackpoint>
          <Trackpoint>
            <Time>2021-07-30T10:33:19.000Z</Time>
            <Position>
              <LatitudeDegrees>42.36174627207219600677490234375</LatitudeDegrees>
              <LongitudeDegrees>-2.4910903908312320709228515625</LongitudeDegrees>
            </Position>
            <AltitudeMeters>549.20001220703125</AltitudeMeters>
            <DistanceMeters>263031.43806735</DistanceMeters>
          </Trackpoint>
          <Trackpoint>
            <Time>2021-07-30T10:33:22.000Z</Time>
            <Position>
              <LatitudeDegrees>42.361901588737964630126953125</LatitudeDegrees>
              <LongitudeDegrees>-2.4910048954188823699951171875</LongitudeDegrees>
            </Position>
            <AltitudeMeters>548.79998779296875</AltitudeMeters>
            <DistanceMeters>263050.10035602</DistanceMeters>
          </Trackpoint>
          <Trackpoint>
            <Time>2021-07-30T10:33:26.000Z</Time>
            <Position>
              <LatitudeDegrees>42.362114489078521728515625</LatitudeDegrees>
              <LongitudeDegrees>-2.49089182354509830474853515625</LongitudeDegrees>
            </Position>
            <AltitudeMeters>547.79998779296875</AltitudeMeters>
            <DistanceMeters>263075.55581174</DistanceMeters>
          </Trackpoint>
          <Trackpoint>
            <Time>2021-07-30T10:33:33.000Z</Time>
            <Position>
              <LatitudeDegrees>42.36248656176030635833740234375</LatitudeDegrees>
              <LongitudeDegrees>-2.4906885623931884765625</LongitudeDegrees>
            </Position>
            <AltitudeMeters>546.5999755859375</AltitudeMeters>
            <DistanceMeters>263120.21472802</DistanceMeters>
          </Trackpoint>
          <Trackpoint>
            <Time>2021-07-30T10:33:43.000Z</Time>
            <Position>
              <LatitudeDegrees>42.363007999956607818603515625</LatitudeDegrees>
              <LongitudeDegrees>-2.49041170813143253326416015625</LongitudeDegrees>
            </Position>
            <AltitudeMeters>546.20001220703125</AltitudeMeters>
            <DistanceMeters>263182.55833638</DistanceMeters>
          </Trackpoint>
          <Trackpoint>
            <Time>2021-07-30T10:33:46.000Z</Time>
            <Position>
              <LatitudeDegrees>42.3631640709936618804931640625</LatitudeDegrees>
              <LongitudeDegrees>-2.49033057130873203277587890625</LongitudeDegrees>
            </Position>
            <AltitudeMeters>545.5999755859375</AltitudeMeters>
            <DistanceMeters>263201.16708087</DistanceMeters>
          </Trackpoint>
          <Trackpoint>
            <Time>2021-07-30T10:33:56.000Z</Time>
            <Position>
              <LatitudeDegrees>42.36368232406675815582275390625</LatitudeDegrees>
              <LongitudeDegrees>-2.49005564488470554351806640625</LongitudeDegrees>
            </Position>
            <AltitudeMeters>544.5999755859375</AltitudeMeters>
            <DistanceMeters>263263.1226039</DistanceMeters>
          </Trackpoint>
          <Trackpoint>
            <Time>2021-07-30T10:33:58.000Z</Time>
            <Position>
              <LatitudeDegrees>42.36378525383770465850830078125</LatitudeDegrees>
              <LongitudeDegrees>-2.4900000728666782379150390625</LongitudeDegrees>
            </Position>
            <AltitudeMeters>544.4000244140625</AltitudeMeters>
            <DistanceMeters>263275.45705679</DistanceMeters>
          </Trackpoint>
          <Trackpoint>
            <Time>2021-07-30T10:34:08.000Z</Time>
            <Position>
              <LatitudeDegrees>42.36429604701697826385498046875</LatitudeDegrees>
              <LongitudeDegrees>-2.48969706706702709197998046875</LongitudeDegrees>
            </Position>
            <AltitudeMeters>544.4000244140625</AltitudeMeters>
            <DistanceMeters>263337.5306713</DistanceMeters>
          </Trackpoint>
          <Trackpoint>
            <Time>2021-07-30T10:34:16.000Z</Time>
            <Position>
              <LatitudeDegrees>42.36471061594784259796142578125</LatitudeDegrees>
              <LongitudeDegrees>-2.48945198021829128265380859375</LongitudeDegrees>
            </Position>
            <AltitudeMeters>543.4000244140625</AltitudeMeters>
            <DistanceMeters>263387.88299501</DistanceMeters>
          </Trackpoint>
          <Trackpoint>
            <Time>2021-07-30T10:34:26.000Z</Time>
            <Position>
              <LatitudeDegrees>42.365233898162841796875</LatitudeDegrees>
              <LongitudeDegrees>-2.48916934244334697723388671875</LongitudeDegrees>
            </Position>
            <AltitudeMeters>542.79998779296875</AltitudeMeters>
            <DistanceMeters>263450.59198711</DistanceMeters>
          </Trackpoint>
          <Trackpoint>
            <Time>2021-07-30T10:34:36.000Z</Time>
            <Position>
              <LatitudeDegrees>42.36577193252742290496826171875</LatitudeDegrees>
              <LongitudeDegrees>-2.48887547291815280914306640625</LongitudeDegrees>
            </Position>
            <AltitudeMeters>542.5999755859375</AltitudeMeters>
            <DistanceMeters>263515.16877506</DistanceMeters>
          </Trackpoint>
          <Trackpoint>
            <Time>2021-07-30T10:34:38.000Z</Time>
            <Position>
              <LatitudeDegrees>42.36588140018284320831298828125</LatitudeDegrees>
              <LongitudeDegrees>-2.48881495557725429534912109375</LongitudeDegrees>
            </Position>
            <AltitudeMeters>542.20001220703125</AltitudeMeters>
            <DistanceMeters>263528.33023229</DistanceMeters>
          </Trackpoint>
          <Trackpoint>
            <Time>2021-07-30T10:34:47.000Z</Time>
            <Position>
              <LatitudeDegrees>42.3663837276399135589599609375</LatitudeDegrees>
              <LongitudeDegrees>-2.4885426275432109832763671875</LongitudeDegrees>
            </Position>
            <AltitudeMeters>542</AltitudeMeters>
            <DistanceMeters>263588.5587306</DistanceMeters>
          </Trackpoint>
          <Trackpoint>
            <Time>2021-07-30T10:34:51.000Z</Time>
            <Position>
              <LatitudeDegrees>42.36661464907228946685791015625</LatitudeDegrees>
              <LongitudeDegrees>-2.48842368833720684051513671875</LongitudeDegrees>
            </Position>
            <AltitudeMeters>541.20001220703125</AltitudeMeters>
            <DistanceMeters>263616.05874591</DistanceMeters>
          </Trackpoint>
          <Trackpoint>
            <Time>2021-07-30T10:34:54.000Z</Time>
            <Position>
              <LatitudeDegrees>42.36678631044924259185791015625</LatitudeDegrees>
              <LongitudeDegrees>-2.4883327446877956390380859375</LongitudeDegrees>
            </Position>
            <AltitudeMeters>540.20001220703125</AltitudeMeters>
            <DistanceMeters>263636.57637574</DistanceMeters>
          </Trackpoint>
          <Trackpoint>
            <Time>2021-07-30T10:35:01.000Z</Time>
            <Position>
              <LatitudeDegrees>42.36717355437576770782470703125</LatitudeDegrees>
              <LongitudeDegrees>-2.48813032172620296478271484375</LongitudeDegrees>
            </Position>
            <AltitudeMeters>539</AltitudeMeters>
            <DistanceMeters>263682.7802757</DistanceMeters>
          </Trackpoint>
          <Trackpoint>
            <Time>2021-07-30T10:35:03.000Z</Time>
            <Position>
              <LatitudeDegrees>42.36727396957576274871826171875</LatitudeDegrees>
              <LongitudeDegrees>-2.4880601651966571807861328125</LongitudeDegrees>
            </Position>
            <AltitudeMeters>539</AltitudeMeters>
            <DistanceMeters>263695.35795073</DistanceMeters>
          </Trackpoint>
          <Trackpoint>
            <Time>2021-07-30T10:35:12.000Z</Time>
            <Position>
              <LatitudeDegrees>42.36769055016338825225830078125</LatitudeDegrees>
              <LongitudeDegrees>-2.4877859093248844146728515625</LongitudeDegrees>
            </Position>
            <AltitudeMeters>539.5999755859375</AltitudeMeters>
            <DistanceMeters>263746.9183286</DistanceMeters>
          </Trackpoint>
          <Trackpoint>
            <Time>2021-07-30T10:35:15.000Z</Time>
            <Position>
              <LatitudeDegrees>42.3678542487323284149169921875</LatitudeDegrees>
              <LongitudeDegrees>-2.48776302672922611236572265625</LongitudeDegrees>
            </Position>
            <AltitudeMeters>539.5999755859375</AltitudeMeters>
            <DistanceMeters>263765.23508213</DistanceMeters>
          </Trackpoint>
          <Trackpoint>
            <Time>2021-07-30T10:35:25.000Z</Time>
            <Position>
              <LatitudeDegrees>42.368415333330631256103515625</LatitudeDegrees>
              <LongitudeDegrees>-2.48747670091688632965087890625</LongitudeDegrees>
            </Position>
            <AltitudeMeters>538</AltitudeMeters>
            <DistanceMeters>263831.97618018</DistanceMeters>
          </Trackpoint>
          <Trackpoint>
            <Time>2021-07-30T10:35:31.000Z</Time>
            <Position>
              <LatitudeDegrees>42.36874666996300220489501953125</LatitudeDegrees>
              <LongitudeDegrees>-2.48730026185512542724609375</LongitudeDegrees>
            </Position>
            <AltitudeMeters>536.79998779296875</AltitudeMeters>
            <DistanceMeters>263871.60607995</DistanceMeters>
          </Trackpoint>
          <Trackpoint>
            <Time>2021-07-30T10:35:36.000Z</Time>
            <Position>
              <LatitudeDegrees>42.369011454284191131591796875</LatitudeDegrees>
              <LongitudeDegrees>-2.4871606193482875823974609375</LongitudeDegrees>
            </Position>
            <AltitudeMeters>536</AltitudeMeters>
            <DistanceMeters>263903.23527609</DistanceMeters>
          </Trackpoint>
          <Trackpoint>
            <Time>2021-07-30T10:35:46.000Z</Time>
            <Position>
              <LatitudeDegrees>42.3695272766053676605224609375</LatitudeDegrees>
              <LongitudeDegrees>-2.4868816696107387542724609375</LongitudeDegrees>
            </Position>
            <AltitudeMeters>534.79998779296875</AltitudeMeters>
            <DistanceMeters>263965.06028744</DistanceMeters>
          </Trackpoint>
          <Trackpoint>
            <Time>2021-07-30T10:35:53.000Z</Time>
            <Position>
              <LatitudeDegrees>42.3698762990534305572509765625</LatitudeDegrees>
              <LongitudeDegrees>-2.48669517226517200469970703125</LongitudeDegrees>
            </Position>
            <AltitudeMeters>533.5999755859375</AltitudeMeters>
            <DistanceMeters>264006.82471759</DistanceMeters>
          </Trackpoint>
          <Trackpoint>
            <Time>2021-07-30T10:36:00.000Z</Time>
            <Position>
              <LatitudeDegrees>42.3702053725719451904296875</LatitudeDegrees>
              <LongitudeDegrees>-2.48652569018304347991943359375</LongitudeDegrees>
            </Position>
            <AltitudeMeters>534.79998779296875</AltitudeMeters>
            <DistanceMeters>264046.01307097</DistanceMeters>
          </Trackpoint>
          <Trackpoint>
            <Time>2021-07-30T10:36:11.000Z</Time>
            <Position>
              <LatitudeDegrees>42.37073116935789585113525390625</LatitudeDegrees>
              <LongitudeDegrees>-2.486239112913608551025390625</LongitudeDegrees>
            </Position>
            <AltitudeMeters>534.4000244140625</AltitudeMeters>
            <DistanceMeters>264109.10164945</DistanceMeters>
          </Trackpoint>
          <Trackpoint>
            <Time>2021-07-30T10:36:17.000Z</Time>
            <Position>
              <LatitudeDegrees>42.37102369777858257293701171875</LatitudeDegrees>
              <LongitudeDegrees>-2.486082203686237335205078125</LongitudeDegrees>
            </Position>
            <AltitudeMeters>533.5999755859375</AltitudeMeters>
            <DistanceMeters>264144.12411857</DistanceMeters>
          </Trackpoint>
          <Trackpoint>
            <Time>2021-07-30T10:36:28.000Z</Time>
            <Position>
              <LatitudeDegrees>42.3715660907328128814697265625</LatitudeDegrees>
              <LongitudeDegrees>-2.48579964973032474517822265625</LongitudeDegrees>
            </Position>
            <AltitudeMeters>533.79998779296875</AltitudeMeters>
            <DistanceMeters>264208.81023464</DistanceMeters>
          </Trackpoint>
          <Trackpoint>
            <Time>2021-07-30T10:36:39.000Z</Time>
            <Position>
              <LatitudeDegrees>42.372120134532451629638671875</LatitudeDegrees>
              <LongitudeDegrees>-2.485526986420154571533203125</LongitudeDegrees>
            </Position>
            <AltitudeMeters>533</AltitudeMeters>
            <DistanceMeters>264274.42581966</DistanceMeters>
          </Trackpoint>
          <Trackpoint>
            <Time>2021-07-30T10:36:41.000Z</Time>
            <Position>
              <LatitudeDegrees>42.3722222261130809783935546875</LatitudeDegrees>
              <LongitudeDegrees>-2.48547501862049102783203125</LongitudeDegrees>
            </Position>
            <AltitudeMeters>532.79998779296875</AltitudeMeters>
            <DistanceMeters>264286.56545918</DistanceMeters>
          </Trackpoint>
          <Trackpoint>
            <Time>2021-07-30T10:36:51.000Z</Time>
            <Position>
              <LatitudeDegrees>42.37273058854043483734130859375</LatitudeDegrees>
              <LongitudeDegrees>-2.48521207831799983978271484375</LongitudeDegrees>
            </Position>
            <AltitudeMeters>532</AltitudeMeters>
            <DistanceMeters>264347.13744288</DistanceMeters>
          </Trackpoint>
          <Trackpoint>
            <Time>2021-07-30T10:36:53.000Z</Time>
            <Position>
              <LatitudeDegrees>42.37283335067331790924072265625</LatitudeDegrees>
              <LongitudeDegrees>-2.48515709303319454193115234375</LongitudeDegrees>
            </Position>
            <AltitudeMeters>531.5999755859375</AltitudeMeters>
            <DistanceMeters>264359.43670467</DistanceMeters>
          </Trackpoint>
          <Trackpoint>
            <Time>2021-07-30T10:37:03.000Z</Time>
            <Position>
              <LatitudeDegrees>42.373359315097332000732421875</LatitudeDegrees>
              <LongitudeDegrees>-2.48487110249698162078857421875</LongitudeDegrees>
            </Position>
            <AltitudeMeters>531</AltitudeMeters>
            <DistanceMeters>264422.5242812</DistanceMeters>
          </Trackpoint>
          <Trackpoint>
            <Time>2021-07-30T10:37:06.000Z</Time>
            <Position>
              <LatitudeDegrees>42.373521588742733001708984375</LatitudeDegrees>
              <LongitudeDegrees>-2.48478728346526622772216796875</LongitudeDegrees>
            </Position>
            <AltitudeMeters>530.4000244140625</AltitudeMeters>
            <DistanceMeters>264441.85608773</DistanceMeters>
          </Trackpoint>
          <Trackpoint>
            <Time>2021-07-30T10:37:16.000Z</Time>
            <Position>
              <LatitudeDegrees>42.37404453568160533905029296875</LatitudeDegrees>
              <LongitudeDegrees>-2.484505735337734222412109375</LongitudeDegrees>
            </Position>
            <AltitudeMeters>530.20001220703125</AltitudeMeters>
            <DistanceMeters>264504.49613807</DistanceMeters>
          </Trackpoint>
          <Trackpoint>
            <Time>2021-07-30T10:37:22.000Z</Time>
            <Position>
              <LatitudeDegrees>42.37435734830796718597412109375</LatitudeDegrees>
              <LongitudeDegrees>-2.48434220440685749053955078125</LongitudeDegrees>
            </Position>
            <AltitudeMeters>529.5999755859375</AltitudeMeters>
            <DistanceMeters>264541.81902184</DistanceMeters>
          </Trackpoint>
          <Trackpoint>
            <Time>2021-07-30T10:37:32.000Z</Time>
            <Position>
              <LatitudeDegrees>42.374876774847507476806640625</LatitudeDegrees>
              <LongitudeDegrees>-2.48406610451638698577880859375</LongitudeDegrees>
            </Position>
            <AltitudeMeters>528.5999755859375</AltitudeMeters>
            <DistanceMeters>264603.92986644</DistanceMeters>
          </Trackpoint>
          <Trackpoint>
            <Time>2021-07-30T10:37:33.000Z</Time>
            <Position>
              <LatitudeDegrees>42.37492916174232959747314453125</LatitudeDegrees>
              <LongitudeDegrees>-2.484039701521396636962890625</LongitudeDegrees>
            </Position>
            <AltitudeMeters>528.5999755859375</AltitudeMeters>
            <DistanceMeters>264610.15175826</DistanceMeters>
          </Trackpoint>
          <Trackpoint>
            <Time>2021-07-30T10:37:41.000Z</Time>
            <Position>
              <LatitudeDegrees>42.3753473348915576934814453125</LatitudeDegrees>
              <LongitudeDegrees>-2.48381515033543109893798828125</LongitudeDegrees>
            </Position>
            <AltitudeMeters>527.4000244140625</AltitudeMeters>
            <DistanceMeters>264660.22371373</DistanceMeters>
          </Trackpoint>
          <Trackpoint>
            <Time>2021-07-30T10:37:48.000Z</Time>
            <Position>
              <LatitudeDegrees>42.3757060803472995758056640625</LatitudeDegrees>
              <LongitudeDegrees>-2.4836194328963756561279296875</LongitudeDegrees>
            </Position>
            <AltitudeMeters>526.20001220703125</AltitudeMeters>
            <DistanceMeters>264703.27364716</DistanceMeters>
          </Trackpoint>
          <Trackpoint>
            <Time>2021-07-30T10:37:58.000Z</Time>
            <Position>
              <LatitudeDegrees>42.37623640336096286773681640625</LatitudeDegrees>
              <LongitudeDegrees>-2.48333570547401905059814453125</LongitudeDegrees>
            </Position>
            <AltitudeMeters>527</AltitudeMeters>
            <DistanceMeters>264766.74267191</DistanceMeters>
          </Trackpoint>
          <Trackpoint>
            <Time>2021-07-30T10:38:08.000Z</Time>
            <Position>
              <LatitudeDegrees>42.37676546908915042877197265625</LatitudeDegrees>
              <LongitudeDegrees>-2.4830561690032482147216796875</LongitudeDegrees>
            </Position>
            <AltitudeMeters>525.79998779296875</AltitudeMeters>
            <DistanceMeters>264829.95522514</DistanceMeters>
          </Trackpoint>
          <Trackpoint>
            <Time>2021-07-30T10:38:10.000Z</Time>
            <Position>
              <LatitudeDegrees>42.37686689011752605438232421875</LatitudeDegrees>
              <LongitudeDegrees>-2.48300193808972835540771484375</LongitudeDegrees>
            </Position>
            <AltitudeMeters>525.4000244140625</AltitudeMeters>
            <DistanceMeters>264842.0922609</DistanceMeters>
          </Trackpoint>
          <Trackpoint>
            <Time>2021-07-30T10:38:15.000Z</Time>
            <Position>
              <LatitudeDegrees>42.377115078270435333251953125</LatitudeDegrees>
              <LongitudeDegrees>-2.4828685820102691650390625</LongitudeDegrees>
            </Position>
            <AltitudeMeters>524.20001220703125</AltitudeMeters>
            <DistanceMeters>264871.81269188</DistanceMeters>
          </Trackpoint>
          <Trackpoint>
            <Time>2021-07-30T10:38:26.000Z</Time>
            <Position>
              <LatitudeDegrees>42.3776637576520442962646484375</LatitudeDegrees>
              <LongitudeDegrees>-2.48257999308407306671142578125</LongitudeDegrees>
            </Position>
            <AltitudeMeters>524.20001220703125</AltitudeMeters>
            <DistanceMeters>264937.32959732</DistanceMeters>
          </Trackpoint>
          <Trackpoint>
            <Time>2021-07-30T10:38:36.000Z</Time>
            <Position>
              <LatitudeDegrees>42.378177903592586517333984375</LatitudeDegrees>
              <LongitudeDegrees>-2.4823031388223171234130859375</LongitudeDegrees>
            </Position>
            <AltitudeMeters>523.5999755859375</AltitudeMeters>
            <DistanceMeters>264998.91614624</DistanceMeters>
          </Trackpoint>
          <Trackpoint>
            <Time>2021-07-30T10:38:39.000Z</Time>
            <Position>
              <LatitudeDegrees>42.37833179533481597900390625</LatitudeDegrees>
              <LongitudeDegrees>-2.482221834361553192138671875</LongitudeDegrees>
            </Position>
            <AltitudeMeters>523.20001220703125</AltitudeMeters>
            <DistanceMeters>265017.30277187</DistanceMeters>
          </Trackpoint>
          <Trackpoint>
            <Time>2021-07-30T10:38:46.000Z</Time>
            <Position>
              <LatitudeDegrees>42.37868878059089183807373046875</LatitudeDegrees>
              <LongitudeDegrees>-2.48202829621732234954833984375</LongitudeDegrees>
            </Position>
            <AltitudeMeters>522.20001220703125</AltitudeMeters>
            <DistanceMeters>265060.10394753</DistanceMeters>
          </Trackpoint>
          <Trackpoint>
            <Time>2021-07-30T10:38:57.000Z</Time>
            <Position>
              <LatitudeDegrees>42.37923980690538883209228515625</LatitudeDegrees>
              <LongitudeDegrees>-2.4817428924143314361572265625</LongitudeDegrees>
            </Position>
            <AltitudeMeters>522.20001220703125</AltitudeMeters>
            <DistanceMeters>265125.77008876</DistanceMeters>
          </Trackpoint>
          <Trackpoint>
            <Time>2021-07-30T10:39:07.000Z</Time>
            <Position>
              <LatitudeDegrees>42.3797421343624591827392578125</LatitudeDegrees>
              <LongitudeDegrees>-2.48147022910416126251220703125</LongitudeDegrees>
            </Position>
            <AltitudeMeters>522</AltitudeMeters>
            <DistanceMeters>265186.00698258</DistanceMeters>
          </Trackpoint>
          <Trackpoint>
            <Time>2021-07-30T10:39:18.000Z</Time>
            <Position>
              <LatitudeDegrees>42.3802420310676097869873046875</LatitudeDegrees>
              <LongitudeDegrees>-2.48120167292654514312744140625</LongitudeDegrees>
            </Position>
            <AltitudeMeters>521.20001220703125</AltitudeMeters>
            <DistanceMeters>265245.86762804</DistanceMeters>
          </Trackpoint>
          <Trackpoint>
            <Time>2021-07-30T10:39:29.000Z</Time>
            <Position>
              <LatitudeDegrees>42.38076346926391124725341796875</LatitudeDegrees>
              <LongitudeDegrees>-2.4809275008738040924072265625</LongitudeDegrees>
            </Position>
            <AltitudeMeters>520.79998779296875</AltitudeMeters>
            <DistanceMeters>265308.12862077</DistanceMeters>
          </Trackpoint>
          <Trackpoint>
            <Time>2021-07-30T10:39:35.000Z</Time>
            <Position>
              <LatitudeDegrees>42.38106136210262775421142578125</LatitudeDegrees>
              <LongitudeDegrees>-2.48076908290386199951171875</LongitudeDegrees>
            </Position>
            <AltitudeMeters>520</AltitudeMeters>
            <DistanceMeters>265343.75109292</DistanceMeters>
          </Trackpoint>
          <Trackpoint>
            <Time>2021-07-30T10:39:38.000Z</Time>
            <Position>
              <LatitudeDegrees>42.38121089525520801544189453125</LatitudeDegrees>
              <LongitudeDegrees>-2.48069104738533496856689453125</LongitudeDegrees>
            </Position>
            <AltitudeMeters>519</AltitudeMeters>
            <DistanceMeters>265361.58829319</DistanceMeters>
          </Trackpoint>
          <Trackpoint>
            <Time>2021-07-30T10:39:49.000Z</Time>
            <Position>
              <LatitudeDegrees>42.3817584849894046783447265625</LatitudeDegrees>
              <LongitudeDegrees>-2.48039357364177703857421875</LongitudeDegrees>
            </Position>
            <AltitudeMeters>518.4000244140625</AltitudeMeters>
            <DistanceMeters>265427.26007229</DistanceMeters>
          </Trackpoint>
          <Trackpoint>
            <Time>2021-07-30T10:39:56.000Z</Time>
            <Position>
              <LatitudeDegrees>42.38212016411125659942626953125</LatitudeDegrees>
              <LongitudeDegrees>-2.4802012927830219268798828125</LongitudeDegrees>
            </Position>
            <AltitudeMeters>517.79998779296875</AltitudeMeters>
            <DistanceMeters>265470.50850375</DistanceMeters>
          </Trackpoint>
          <Trackpoint>
            <Time>2021-07-30T10:40:06.000Z</Time>
            <Position>
              <LatitudeDegrees>42.38263565115630626678466796875</LatitudeDegrees>
              <LongitudeDegrees>-2.4799216724932193756103515625</LongitudeDegrees>
            </Position>
            <AltitudeMeters>517.5999755859375</AltitudeMeters>
            <DistanceMeters>265532.31751961</DistanceMeters>
          </Trackpoint>
          <Trackpoint>
            <Time>2021-07-30T10:40:16.000Z</Time>
            <Position>
              <LatitudeDegrees>42.38317184150218963623046875</LatitudeDegrees>
              <LongitudeDegrees>-2.479634843766689300537109375</LongitudeDegrees>
            </Position>
            <AltitudeMeters>517</AltitudeMeters>
            <DistanceMeters>265596.48659088</DistanceMeters>
          </Trackpoint>
          <Trackpoint>
            <Time>2021-07-30T10:40:17.000Z</Time>
            <Position>
              <LatitudeDegrees>42.383225150406360626220703125</LatitudeDegrees>
              <LongitudeDegrees>-2.47960626147687435150146484375</LongitudeDegrees>
            </Position>
            <AltitudeMeters>516.79998779296875</AltitudeMeters>
            <DistanceMeters>265602.86825561</DistanceMeters>
          </Trackpoint>
          <Trackpoint>
            <Time>2021-07-30T10:40:27.000Z</Time>
            <Position>
              <LatitudeDegrees>42.38375186920166015625</LatitudeDegrees>
              <LongitudeDegrees>-2.4793228693306446075439453125</LongitudeDegrees>
            </Position>
            <AltitudeMeters>517.5999755859375</AltitudeMeters>
            <DistanceMeters>265665.95311251</DistanceMeters>
          </Trackpoint>
          <Trackpoint>
            <Time>2021-07-30T10:40:37.000Z</Time>
            <Position>
              <LatitudeDegrees>42.3842837847769260406494140625</LatitudeDegrees>
              <LongitudeDegrees>-2.4790419079363346099853515625</LongitudeDegrees>
            </Position>
            <AltitudeMeters>516.79998779296875</AltitudeMeters>
            <DistanceMeters>265729.50289826</DistanceMeters>
          </Trackpoint>
          <Trackpoint>
            <Time>2021-07-30T10:40:47.000Z</Time>
            <Position>
              <LatitudeDegrees>42.384827099740505218505859375</LatitudeDegrees>
              <LongitudeDegrees>-2.47875566594302654266357421875</LongitudeDegrees>
            </Position>
            <AltitudeMeters>516.20001220703125</AltitudeMeters>
            <DistanceMeters>265794.39236871</DistanceMeters>
          </Trackpoint>
          <Trackpoint>
            <Time>2021-07-30T10:40:48.000Z</Time>
            <Position>
              <LatitudeDegrees>42.38488216884434223175048828125</LatitudeDegrees>
              <LongitudeDegrees>-2.4787272512912750244140625</LongitudeDegrees>
            </Position>
            <AltitudeMeters>516</AltitudeMeters>
            <DistanceMeters>265800.95265409</DistanceMeters>
          </Trackpoint>
          <Trackpoint>
            <Time>2021-07-30T10:40:57.000Z</Time>
            <Position>
              <LatitudeDegrees>42.38537795841693878173828125</LatitudeDegrees>
              <LongitudeDegrees>-2.47845701873302459716796875</LongitudeDegrees>
            </Position>
            <AltitudeMeters>514.79998779296875</AltitudeMeters>
            <DistanceMeters>265860.43922549</DistanceMeters>
          </Trackpoint>
          <Trackpoint>
            <Time>2021-07-30T10:41:07.000Z</Time>
            <Position>
              <LatitudeDegrees>42.3859204351902008056640625</LatitudeDegrees>
              <LongitudeDegrees>-2.47817010618746280670166015625</LongitudeDegrees>
            </Position>
            <AltitudeMeters>514</AltitudeMeters>
            <DistanceMeters>265925.26165534</DistanceMeters>
          </Trackpoint>
          <Trackpoint>
            <Time>2021-07-30T10:41:17.000Z</Time>
            <Position>
              <LatitudeDegrees>42.38646157085895538330078125</LatitudeDegrees>
              <LongitudeDegrees>-2.47788126580417156219482421875</LongitudeDegrees>
            </Position>
            <AltitudeMeters>514</AltitudeMeters>
            <DistanceMeters>265990.00295902</DistanceMeters>
          </Trackpoint>
          <Trackpoint>
            <Time>2021-07-30T10:41:26.000Z</Time>
            <Position>
              <LatitudeDegrees>42.38695350475609302520751953125</LatitudeDegrees>
              <LongitudeDegrees>-2.4776186607778072357177734375</LongitudeDegrees>
            </Position>
            <AltitudeMeters>513</AltitudeMeters>
            <DistanceMeters>266048.8584893</DistanceMeters>
          </Trackpoint>
          <Trackpoint>
            <Time>2021-07-30T10:41:36.000Z</Time>
            <Position>
              <LatitudeDegrees>42.38750302232801914215087890625</LatitudeDegrees>
              <LongitudeDegrees>-2.47732738964259624481201171875</LongitudeDegrees>
            </Position>
            <AltitudeMeters>513.20001220703125</AltitudeMeters>
            <DistanceMeters>266114.54099277</DistanceMeters>
          </Trackpoint>
          <Trackpoint>
            <Time>2021-07-30T10:41:44.000Z</Time>
            <Position>
              <LatitudeDegrees>42.38792295567691326141357421875</LatitudeDegrees>
              <LongitudeDegrees>-2.4771050177514553070068359375</LongitudeDegrees>
            </Position>
            <AltitudeMeters>512</AltitudeMeters>
            <DistanceMeters>266164.7282344</DistanceMeters>
          </Trackpoint>
          <Trackpoint>
            <Time>2021-07-30T10:41:54.000Z</Time>
            <Position>
              <LatitudeDegrees>42.38845537416636943817138671875</LatitudeDegrees>
              <LongitudeDegrees>-2.47682087123394012451171875</LongitudeDegrees>
            </Position>
            <AltitudeMeters>511.600006103515625</AltitudeMeters>
            <DistanceMeters>266228.42513085</DistanceMeters>
          </Trackpoint>
          <Trackpoint>
            <Time>2021-07-30T10:41:58.000Z</Time>
            <Position>
              <LatitudeDegrees>42.38867129199206829071044921875</LatitudeDegrees>
              <LongitudeDegrees>-2.4767075479030609130859375</LongitudeDegrees>
            </Position>
            <AltitudeMeters>510.79998779296875</AltitudeMeters>
            <DistanceMeters>266254.19962723</DistanceMeters>
          </Trackpoint>
          <Trackpoint>
            <Time>2021-07-30T10:42:02.000Z</Time>
            <Position>
              <LatitudeDegrees>42.38888092339038848876953125</LatitudeDegrees>
              <LongitudeDegrees>-2.47657821513712406158447265625</LongitudeDegrees>
            </Position>
            <AltitudeMeters>510.600006103515625</AltitudeMeters>
            <DistanceMeters>266279.84029309</DistanceMeters>
          </Trackpoint>
          <Trackpoint>
            <Time>2021-07-30T10:42:09.000Z</Time>
            <Position>
              <LatitudeDegrees>42.38926154561340808868408203125</LatitudeDegrees>
              <LongitudeDegrees>-2.47635156847536563873291015625</LongitudeDegrees>
            </Position>
            <AltitudeMeters>509.600006103515625</AltitudeMeters>
            <DistanceMeters>266326.12035177</DistanceMeters>
          </Trackpoint>
          <Trackpoint>
            <Time>2021-07-30T10:42:19.000Z</Time>
            <Position>
              <LatitudeDegrees>42.389810644090175628662109375</LatitudeDegrees>
              <LongitudeDegrees>-2.4760478921234607696533203125</LongitudeDegrees>
            </Position>
            <AltitudeMeters>509</AltitudeMeters>
            <DistanceMeters>266392.13800301</DistanceMeters>
          </Trackpoint>
          <Trackpoint>
            <Time>2021-07-30T10:42:20.000Z</Time>
            <Position>
              <LatitudeDegrees>42.38986420445144176483154296875</LatitudeDegrees>
              <LongitudeDegrees>-2.4760182201862335205078125</LongitudeDegrees>
            </Position>
            <AltitudeMeters>508.600006103515625</AltitudeMeters>
            <DistanceMeters>266398.5788237</DistanceMeters>
          </Trackpoint>
          <Trackpoint>
            <Time>2021-07-30T10:42:24.000Z</Time>
            <Position>
              <LatitudeDegrees>42.39007643423974514007568359375</LatitudeDegrees>
              <LongitudeDegrees>-2.475902549922466278076171875</LongitudeDegrees>
            </Position>
            <AltitudeMeters>507.600006103515625</AltitudeMeters>
            <DistanceMeters>266424.04243713</DistanceMeters>
          </Trackpoint>
          <Trackpoint>
            <Time>2021-07-30T10:42:34.000Z</Time>
            <Position>
              <LatitudeDegrees>42.390582449734210968017578125</LatitudeDegrees>
              <LongitudeDegrees>-2.47563131153583526611328125</LongitudeDegrees>
            </Position>
            <AltitudeMeters>507.20001220703125</AltitudeMeters>
            <DistanceMeters>266484.61598616</DistanceMeters>
          </Trackpoint>
          <Trackpoint>
            <Time>2021-07-30T10:42:45.000Z</Time>
            <Position>
              <LatitudeDegrees>42.39111897535622119903564453125</LatitudeDegrees>
              <LongitudeDegrees>-2.4753407947719097137451171875</LongitudeDegrees>
            </Position>
            <AltitudeMeters>507.20001220703125</AltitudeMeters>
            <DistanceMeters>266548.93061121</DistanceMeters>
          </Trackpoint>
          <Trackpoint>
            <Time>2021-07-30T10:42:55.000Z</Time>
            <Position>
              <LatitudeDegrees>42.3916259966790676116943359375</LatitudeDegrees>
              <LongitudeDegrees>-2.47507517226040363311767578125</LongitudeDegrees>
            </Position>
            <AltitudeMeters>507</AltitudeMeters>
            <DistanceMeters>266609.4400235</DistanceMeters>
          </Trackpoint>
          <Trackpoint>
            <Time>2021-07-30T10:43:00.000Z</Time>
            <Position>
              <LatitudeDegrees>42.39188524894416332244873046875</LatitudeDegrees>
              <LongitudeDegrees>-2.4749374575912952423095703125</LongitudeDegrees>
            </Position>
            <AltitudeMeters>506.600006103515625</AltitudeMeters>
            <DistanceMeters>266640.4363627</DistanceMeters>
          </Trackpoint>
          <Trackpoint>
            <Time>2021-07-30T10:43:07.000Z</Time>
            <Position>
              <LatitudeDegrees>42.3922512866556644439697265625</LatitudeDegrees>
              <LongitudeDegrees>-2.47474626637995243072509765625</LongitudeDegrees>
            </Position>
            <AltitudeMeters>505.600006103515625</AltitudeMeters>
            <DistanceMeters>266684.10328349</DistanceMeters>
          </Trackpoint>
          <Trackpoint>
            <Time>2021-07-30T10:43:09.000Z</Time>
            <Position>
              <LatitudeDegrees>42.39235094748437404632568359375</LatitudeDegrees>
              <LongitudeDegrees>-2.47468390502035617828369140625</LongitudeDegrees>
            </Position>
            <AltitudeMeters>505.600006103515625</AltitudeMeters>
            <DistanceMeters>266696.32299479</DistanceMeters>
          </Trackpoint>
          <Trackpoint>
            <Time>2021-07-30T10:43:19.000Z</Time>
            <Position>
              <LatitudeDegrees>42.392817400395870208740234375</LatitudeDegrees>
              <LongitudeDegrees>-2.47439422644674777984619140625</LongitudeDegrees>
            </Position>
            <AltitudeMeters>505.79998779296875</AltitudeMeters>
            <DistanceMeters>266753.44037435</DistanceMeters>
          </Trackpoint>
          <Trackpoint>
            <Time>2021-07-30T10:43:20.000Z</Time>
            <Position>
              <LatitudeDegrees>42.39286894910037517547607421875</LatitudeDegrees>
              <LongitudeDegrees>-2.47439120896160602569580078125</LongitudeDegrees>
            </Position>
            <AltitudeMeters>505.79998779296875</AltitudeMeters>
            <DistanceMeters>266759.18300782</DistanceMeters>
          </Trackpoint>
          <Trackpoint>
            <Time>2021-07-30T10:43:24.000Z</Time>
            <Position>
              <LatitudeDegrees>42.39307581447064876556396484375</LatitudeDegrees>
              <LongitudeDegrees>-2.47431040741503238677978515625</LongitudeDegrees>
            </Position>
            <AltitudeMeters>505.20001220703125</AltitudeMeters>
            <DistanceMeters>266783.14632606</DistanceMeters>
          </Trackpoint>
          <Trackpoint>
            <Time>2021-07-30T10:43:29.000Z</Time>
            <Position>
              <LatitudeDegrees>42.3933355696499347686767578125</LatitudeDegrees>
              <LongitudeDegrees>-2.4741800688207149505615234375</LongitudeDegrees>
            </Position>
            <AltitudeMeters>504.600006103515625</AltitudeMeters>
            <DistanceMeters>266813.97909042</DistanceMeters>
          </Trackpoint>
          <Trackpoint>
            <Time>2021-07-30T10:43:39.000Z</Time>
            <Position>
              <LatitudeDegrees>42.39384929649531841278076171875</LatitudeDegrees>
              <LongitudeDegrees>-2.47391193173825740814208984375</LongitudeDegrees>
            </Position>
            <AltitudeMeters>503.79998779296875</AltitudeMeters>
            <DistanceMeters>266875.25901804</DistanceMeters>
          </Trackpoint>
          <Trackpoint>
            <Time>2021-07-30T10:43:47.000Z</Time>
            <Position>
              <LatitudeDegrees>42.3942592553794384002685546875</LatitudeDegrees>
              <LongitudeDegrees>-2.47369014658033847808837890625</LongitudeDegrees>
            </Position>
            <AltitudeMeters>503.399993896484375</AltitudeMeters>
            <DistanceMeters>266924.39527287</DistanceMeters>
          </Trackpoint>
          <Trackpoint>
            <Time>2021-07-30T10:43:57.000Z</Time>
            <Position>
              <LatitudeDegrees>42.39477717317640781402587890625</LatitudeDegrees>
              <LongitudeDegrees>-2.4734106101095676422119140625</LongitudeDegrees>
            </Position>
            <AltitudeMeters>503.79998779296875</AltitudeMeters>
            <DistanceMeters>266986.45128258</DistanceMeters>
          </Trackpoint>
          <Trackpoint>
            <Time>2021-07-30T10:44:07.000Z</Time>
            <Position>
              <LatitudeDegrees>42.39529232494533061981201171875</LatitudeDegrees>
              <LongitudeDegrees>-2.473134510219097137451171875</LongitudeDegrees>
            </Position>
            <AltitudeMeters>503.399993896484375</AltitudeMeters>
            <DistanceMeters>267048.11681129</DistanceMeters>
          </Trackpoint>
          <Trackpoint>
            <Time>2021-07-30T10:44:17.000Z</Time>
            <Position>
              <LatitudeDegrees>42.39582038484513759613037109375</LatitudeDegrees>
              <LongitudeDegrees>-2.47285044752061367034912109375</LongitudeDegrees>
            </Position>
            <AltitudeMeters>503.79998779296875</AltitudeMeters>
            <DistanceMeters>267111.35907088</DistanceMeters>
          </Trackpoint>
          <Trackpoint>
            <Time>2021-07-30T10:44:26.000Z</Time>
            <Position>
              <LatitudeDegrees>42.3963245563209056854248046875</LatitudeDegrees>
              <LongitudeDegrees>-2.47258390299975872039794921875</LongitudeDegrees>
            </Position>
            <AltitudeMeters>503.20001220703125</AltitudeMeters>
            <DistanceMeters>267171.59963737</DistanceMeters>
          </Trackpoint>
          <Trackpoint>
            <Time>2021-07-30T10:44:30.000Z</Time>
            <Position>
              <LatitudeDegrees>42.39655732177197933197021484375</LatitudeDegrees>
              <LongitudeDegrees>-2.47246152721345424652099609375</LongitudeDegrees>
            </Position>
            <AltitudeMeters>502.600006103515625</AltitudeMeters>
            <DistanceMeters>267199.3910119</DistanceMeters>
          </Trackpoint>
          <Trackpoint>
            <Time>2021-07-30T10:44:37.000Z</Time>
            <Position>
              <LatitudeDegrees>42.39695697091519832611083984375</LatitudeDegrees>
              <LongitudeDegrees>-2.47225885279476642608642578125</LongitudeDegrees>
            </Position>
            <AltitudeMeters>501.600006103515625</AltitudeMeters>
            <DistanceMeters>267246.88992283</DistanceMeters>
          </Trackpoint>
          <Trackpoint>
            <Time>2021-07-30T10:44:46.000Z</Time>
            <Position>
              <LatitudeDegrees>42.3974363319575786590576171875</LatitudeDegrees>
              <LongitudeDegrees>-2.47201644815504550933837890625</LongitudeDegrees>
            </Position>
            <AltitudeMeters>500.600006103515625</AltitudeMeters>
            <DistanceMeters>267303.84272363</DistanceMeters>
          </Trackpoint>
          <Trackpoint>
            <Time>2021-07-30T10:44:57.000Z</Time>
            <Position>
              <LatitudeDegrees>42.39797386340796947479248046875</LatitudeDegrees>
              <LongitudeDegrees>-2.47174604795873165130615234375</LongitudeDegrees>
            </Position>
            <AltitudeMeters>500.600006103515625</AltitudeMeters>
            <DistanceMeters>267367.66587964</DistanceMeters>
          </Trackpoint>
          <Trackpoint>
            <Time>2021-07-30T10:45:08.000Z</Time>
            <Position>
              <LatitudeDegrees>42.3984973132610321044921875</LatitudeDegrees>
              <LongitudeDegrees>-2.47146785259246826171875</LongitudeDegrees>
            </Position>
            <AltitudeMeters>500.20001220703125</AltitudeMeters>
            <DistanceMeters>267430.25336226</DistanceMeters>
          </Trackpoint>
          <Trackpoint>
            <Time>2021-07-30T10:45:19.000Z</Time>
            <Position>
              <LatitudeDegrees>42.399011962115764617919921875</LatitudeDegrees>
              <LongitudeDegrees>-2.471190579235553741455078125</LongitudeDegrees>
            </Position>
            <AltitudeMeters>500.600006103515625</AltitudeMeters>
            <DistanceMeters>267491.90190201</DistanceMeters>
          </Trackpoint>
          <Trackpoint>
            <Time>2021-07-30T10:45:30.000Z</Time>
            <Position>
              <LatitudeDegrees>42.39955284632742404937744140625</LatitudeDegrees>
              <LongitudeDegrees>-2.47089964337646961212158203125</LongitudeDegrees>
            </Position>
            <AltitudeMeters>500.20001220703125</AltitudeMeters>
            <DistanceMeters>267556.67876317</DistanceMeters>
          </Trackpoint>
          <Trackpoint>
            <Time>2021-07-30T10:45:40.000Z</Time>
            <Position>
              <LatitudeDegrees>42.4001054652035236358642578125</LatitudeDegrees>
              <LongitudeDegrees>-2.47061231173574924468994140625</LongitudeDegrees>
            </Position>
            <AltitudeMeters>499.79998779296875</AltitudeMeters>
            <DistanceMeters>267622.56428683</DistanceMeters>
          </Trackpoint>
          <Trackpoint>
            <Time>2021-07-30T10:45:42.000Z</Time>
            <Position>
              <LatitudeDegrees>42.40022088401019573211669921875</LatitudeDegrees>
              <LongitudeDegrees>-2.47054911218583583831787109375</LongitudeDegrees>
            </Position>
            <AltitudeMeters>499.79998779296875</AltitudeMeters>
            <DistanceMeters>267636.42060255</DistanceMeters>
          </Trackpoint>
          <Trackpoint>
            <Time>2021-07-30T10:45:46.000Z</Time>
            <Position>
              <LatitudeDegrees>42.40045331418514251708984375</LatitudeDegrees>
              <LongitudeDegrees>-2.47042355127632617950439453125</LongitudeDegrees>
            </Position>
            <AltitudeMeters>498.600006103515625</AltitudeMeters>
            <DistanceMeters>267664.27299575</DistanceMeters>
          </Trackpoint>
          <Trackpoint>
            <Time>2021-07-30T10:45:53.000Z</Time>
            <Position>
              <LatitudeDegrees>42.40086209960281848907470703125</LatitudeDegrees>
              <LongitudeDegrees>-2.470206208527088165283203125</LongitudeDegrees>
            </Position>
            <AltitudeMeters>497.600006103515625</AltitudeMeters>
            <DistanceMeters>267713.15276464</DistanceMeters>
          </Trackpoint>
          <Trackpoint>
            <Time>2021-07-30T10:46:02.000Z</Time>
            <Position>
              <LatitudeDegrees>42.40138144232332706451416015625</LatitudeDegrees>
              <LongitudeDegrees>-2.4699223972856998443603515625</LongitudeDegrees>
            </Position>
            <AltitudeMeters>496.79998779296875</AltitudeMeters>
            <DistanceMeters>267775.48579851</DistanceMeters>
          </Trackpoint>
          <Trackpoint>
            <Time>2021-07-30T10:46:03.000Z</Time>
            <Position>
              <LatitudeDegrees>42.40143642760813236236572265625</LatitudeDegrees>
              <LongitudeDegrees>-2.4698915518820285797119140625</LongitudeDegrees>
            </Position>
            <AltitudeMeters>496.399993896484375</AltitudeMeters>
            <DistanceMeters>267782.1097808</DistanceMeters>
          </Trackpoint>
          <Trackpoint>
            <Time>2021-07-30T10:46:13.000Z</Time>
            <Position>
              <LatitudeDegrees>42.4019545130431652069091796875</LatitudeDegrees>
              <LongitudeDegrees>-2.46962022967636585235595703125</LongitudeDegrees>
            </Position>
            <AltitudeMeters>496</AltitudeMeters>
            <DistanceMeters>267843.93544941</DistanceMeters>
          </Trackpoint>
          <Trackpoint>
            <Time>2021-07-30T10:46:24.000Z</Time>
            <Position>
              <LatitudeDegrees>42.4025043658912181854248046875</LatitudeDegrees>
              <LongitudeDegrees>-2.4693262763321399688720703125</LongitudeDegrees>
            </Position>
            <AltitudeMeters>496</AltitudeMeters>
            <DistanceMeters>267909.73127669</DistanceMeters>
          </Trackpoint>
          <Trackpoint>
            <Time>2021-07-30T10:46:31.000Z</Time>
            <Position>
              <LatitudeDegrees>42.402862608432769775390625</LatitudeDegrees>
              <LongitudeDegrees>-2.46914304792881011962890625</LongitudeDegrees>
            </Position>
            <AltitudeMeters>495.399993896484375</AltitudeMeters>
            <DistanceMeters>267952.35327405</DistanceMeters>
          </Trackpoint>
          <Trackpoint>
            <Time>2021-07-30T10:46:42.000Z</Time>
            <Position>
              <LatitudeDegrees>42.40339460782706737518310546875</LatitudeDegrees>
              <LongitudeDegrees>-2.46885747648775577545166015625</LongitudeDegrees>
            </Position>
            <AltitudeMeters>495.20001220703125</AltitudeMeters>
            <DistanceMeters>268016.04768954</DistanceMeters>
          </Trackpoint>
          <Trackpoint>
            <Time>2021-07-30T10:46:53.000Z</Time>
            <Position>
              <LatitudeDegrees>42.40392954088747501373291015625</LatitudeDegrees>
              <LongitudeDegrees>-2.4685732461512088775634765625</LongitudeDegrees>
            </Position>
            <AltitudeMeters>495.20001220703125</AltitudeMeters>
            <DistanceMeters>268080.00539829</DistanceMeters>
          </Trackpoint>
          <Trackpoint>
            <Time>2021-07-30T10:47:01.000Z</Time>
            <Position>
              <LatitudeDegrees>42.40431862883269786834716796875</LatitudeDegrees>
              <LongitudeDegrees>-2.4683683924376964569091796875</LongitudeDegrees>
            </Position>
            <AltitudeMeters>495.399993896484375</AltitudeMeters>
            <DistanceMeters>268126.46908902</DistanceMeters>
          </Trackpoint>
          <Trackpoint>
            <Time>2021-07-30T10:47:09.000Z</Time>
            <Position>
              <LatitudeDegrees>42.40469715557992458343505859375</LatitudeDegrees>
              <LongitudeDegrees>-2.468169070780277252197265625</LongitudeDegrees>
            </Position>
            <AltitudeMeters>494.399993896484375</AltitudeMeters>
            <DistanceMeters>268171.67244904</DistanceMeters>
          </Trackpoint>
          <Trackpoint>
            <Time>2021-07-30T10:47:20.000Z</Time>
            <Position>
              <LatitudeDegrees>42.40522630512714385986328125</LatitudeDegrees>
              <LongitudeDegrees>-2.46789054013788700103759765625</LongitudeDegrees>
            </Position>
            <AltitudeMeters>494.79998779296875</AltitudeMeters>
            <DistanceMeters>268234.85999813</DistanceMeters>
          </Trackpoint>
          <Trackpoint>
            <Time>2021-07-30T10:47:31.000Z</Time>
            <Position>
              <LatitudeDegrees>42.405732572078704833984375</LatitudeDegrees>
              <LongitudeDegrees>-2.46761661954224109649658203125</LongitudeDegrees>
            </Position>
            <AltitudeMeters>495.399993896484375</AltitudeMeters>
            <DistanceMeters>268295.53900133</DistanceMeters>
          </Trackpoint>
          <Trackpoint>
            <Time>2021-07-30T10:47:32.000Z</Time>
            <Position>
              <LatitudeDegrees>42.4057780019938945770263671875</LatitudeDegrees>
              <LongitudeDegrees>-2.4675922282040119171142578125</LongitudeDegrees>
            </Position>
            <AltitudeMeters>495.79998779296875</AltitudeMeters>
            <DistanceMeters>268300.97881388</DistanceMeters>
          </Trackpoint>
          <Trackpoint>
            <Time>2021-07-30T10:47:43.000Z</Time>
            <Position>
              <LatitudeDegrees>42.40629759617149829864501953125</LatitudeDegrees>
              <LongitudeDegrees>-2.46731855906546115875244140625</LongitudeDegrees>
            </Position>
            <AltitudeMeters>496.20001220703125</AltitudeMeters>
            <DistanceMeters>268363.03016693</DistanceMeters>
          </Trackpoint>
          <Trackpoint>
            <Time>2021-07-30T10:47:54.000Z</Time>
            <Position>
              <LatitudeDegrees>42.40682783536612987518310546875</LatitudeDegrees>
              <LongitudeDegrees>-2.46703407727181911468505859375</LongitudeDegrees>
            </Position>
            <AltitudeMeters>495.600006103515625</AltitudeMeters>
            <DistanceMeters>268426.50915016</DistanceMeters>
          </Trackpoint>
          <Trackpoint>
            <Time>2021-07-30T10:48:04.000Z</Time>
            <Position>
              <LatitudeDegrees>42.40732002072036266326904296875</LatitudeDegrees>
              <LongitudeDegrees>-2.466730736196041107177734375</LongitudeDegrees>
            </Position>
            <AltitudeMeters>495.79998779296875</AltitudeMeters>
            <DistanceMeters>268486.69595341</DistanceMeters>
          </Trackpoint>
          <Trackpoint>
            <Time>2021-07-30T10:48:14.000Z</Time>
            <Position>
              <LatitudeDegrees>42.40781706757843494415283203125</LatitudeDegrees>
              <LongitudeDegrees>-2.46643669903278350830078125</LongitudeDegrees>
            </Position>
            <AltitudeMeters>496.79998779296875</AltitudeMeters>
            <DistanceMeters>268547.06544606</DistanceMeters>
          </Trackpoint>
          <Trackpoint>
            <Time>2021-07-30T10:48:24.000Z</Time>
            <Position>
              <LatitudeDegrees>42.408313862979412078857421875</LatitudeDegrees>
              <LongitudeDegrees>-2.46614299714565277099609375</LongitudeDegrees>
            </Position>
            <AltitudeMeters>497.20001220703125</AltitudeMeters>
            <DistanceMeters>268607.39820561</DistanceMeters>
          </Trackpoint>
          <Trackpoint>
            <Time>2021-07-30T10:48:35.000Z</Time>
            <Position>
              <LatitudeDegrees>42.40886111743748188018798828125</LatitudeDegrees>
              <LongitudeDegrees>-2.4658471159636974334716796875</LongitudeDegrees>
            </Position>
            <AltitudeMeters>497.399993896484375</AltitudeMeters>
            <DistanceMeters>268672.98281861</DistanceMeters>
          </Trackpoint>
          <Trackpoint>
            <Time>2021-07-30T10:48:45.000Z</Time>
            <Position>
              <LatitudeDegrees>42.40938129834830760955810546875</LatitudeDegrees>
              <LongitudeDegrees>-2.46562935411930084228515625</LongitudeDegrees>
            </Position>
            <AltitudeMeters>497</AltitudeMeters>
            <DistanceMeters>268733.58259937</DistanceMeters>
          </Trackpoint>
          <Trackpoint>
            <Time>2021-07-30T10:48:53.000Z</Time>
            <Position>
              <LatitudeDegrees>42.409774996340274810791015625</LatitudeDegrees>
              <LongitudeDegrees>-2.46550261974334716796875</LongitudeDegrees>
            </Position>
            <AltitudeMeters>498</AltitudeMeters>
            <DistanceMeters>268778.62265569</DistanceMeters>
          </Trackpoint>
          <Trackpoint>
            <Time>2021-07-30T10:49:02.000Z</Time>
            <Position>
              <LatitudeDegrees>42.41020984947681427001953125</LatitudeDegrees>
              <LongitudeDegrees>-2.46534411795437335968017578125</LongitudeDegrees>
            </Position>
            <AltitudeMeters>496.79998779296875</AltitudeMeters>
            <DistanceMeters>268828.744541</DistanceMeters>
          </Trackpoint>
          <Trackpoint>
            <Time>2021-07-30T10:49:05.000Z</Time>
            <Position>
              <LatitudeDegrees>42.410384528338909149169921875</LatitudeDegrees>
              <LongitudeDegrees>-2.46528862975537776947021484375</LongitudeDegrees>
            </Position>
            <AltitudeMeters>495.600006103515625</AltitudeMeters>
            <DistanceMeters>268848.71417384</DistanceMeters>
          </Trackpoint>
          <Trackpoint>
            <Time>2021-07-30T10:49:07.000Z</Time>
            <Position>
              <LatitudeDegrees>42.41051369346678256988525390625</LatitudeDegrees>
              <LongitudeDegrees>-2.4652640707790851593017578125</LongitudeDegrees>
            </Position>
            <AltitudeMeters>494.20001220703125</AltitudeMeters>
            <DistanceMeters>268863.23181774</DistanceMeters>
          </Trackpoint>
          <Trackpoint>
            <Time>2021-07-30T10:49:10.000Z</Time>
            <Position>
              <LatitudeDegrees>42.41072407923638820648193359375</LatitudeDegrees>
              <LongitudeDegrees>-2.46526532806456089019775390625</LongitudeDegrees>
            </Position>
            <AltitudeMeters>493.20001220703125</AltitudeMeters>
            <DistanceMeters>268886.64833609</DistanceMeters>
          </Trackpoint>
          <Trackpoint>
            <Time>2021-07-30T10:49:13.000Z</Time>
            <Position>
              <LatitudeDegrees>42.41093865595757961273193359375</LatitudeDegrees>
              <LongitudeDegrees>-2.46526348404586315155029296875</LongitudeDegrees>
            </Position>
            <AltitudeMeters>491.79998779296875</AltitudeMeters>
            <DistanceMeters>268910.53163295</DistanceMeters>
          </Trackpoint>
          <Trackpoint>
            <Time>2021-07-30T10:49:19.000Z</Time>
            <Position>
              <LatitudeDegrees>42.411304526031017303466796875</LatitudeDegrees>
              <LongitudeDegrees>-2.46500096283853054046630859375</LongitudeDegrees>
            </Position>
            <AltitudeMeters>490.79998779296875</AltitudeMeters>
            <DistanceMeters>268956.6149848</DistanceMeters>
          </Trackpoint>
          <Trackpoint>
            <Time>2021-07-30T10:49:21.000Z</Time>
            <Position>
              <LatitudeDegrees>42.411397397518157958984375</LatitudeDegrees>
              <LongitudeDegrees>-2.46486852876842021942138671875</LongitudeDegrees>
            </Position>
            <AltitudeMeters>490.79998779296875</AltitudeMeters>
            <DistanceMeters>268971.62439342</DistanceMeters>
          </Trackpoint>
          <Trackpoint>
            <Time>2021-07-30T10:49:26.000Z</Time>
            <Position>
              <LatitudeDegrees>42.4116486869752407073974609375</LatitudeDegrees>
              <LongitudeDegrees>-2.46454280801117420196533203125</LongitudeDegrees>
            </Position>
            <AltitudeMeters>490.399993896484375</AltitudeMeters>
            <DistanceMeters>269010.33772172</DistanceMeters>
          </Trackpoint>
          <Trackpoint>
            <Time>2021-07-30T10:49:28.000Z</Time>
            <Position>
              <LatitudeDegrees>42.4117769300937652587890625</LatitudeDegrees>
              <LongitudeDegrees>-2.464446835219860076904296875</LongitudeDegrees>
            </Position>
            <AltitudeMeters>489.600006103515625</AltitudeMeters>
            <DistanceMeters>269026.64525836</DistanceMeters>
          </Trackpoint>
          <Trackpoint>
            <Time>2021-07-30T10:49:29.000Z</Time>
            <Position>
              <LatitudeDegrees>42.41184272803366184234619140625</LatitudeDegrees>
              <LongitudeDegrees>-2.46439930982887744903564453125</LongitudeDegrees>
            </Position>
            <AltitudeMeters>488.399993896484375</AltitudeMeters>
            <DistanceMeters>269034.94474166</DistanceMeters>
          </Trackpoint>
          <Trackpoint>
            <Time>2021-07-30T10:49:31.000Z</Time>
            <Position>
              <LatitudeDegrees>42.4119759164750576019287109375</LatitudeDegrees>
              <LongitudeDegrees>-2.46430543251335620880126953125</LongitudeDegrees>
            </Position>
            <AltitudeMeters>487</AltitudeMeters>
            <DistanceMeters>269051.65593982</DistanceMeters>
          </Trackpoint>
          <Trackpoint>
            <Time>2021-07-30T10:49:33.000Z</Time>
            <Position>
              <LatitudeDegrees>42.4121096916496753692626953125</LatitudeDegrees>
              <LongitudeDegrees>-2.4642153270542621612548828125</LongitudeDegrees>
            </Position>
            <AltitudeMeters>486.600006103515625</AltitudeMeters>
            <DistanceMeters>269068.2848003</DistanceMeters>
          </Trackpoint>
          <Trackpoint>
            <Time>2021-07-30T10:49:40.000Z</Time>
            <Position>
              <LatitudeDegrees>42.41257580928504467010498046875</LatitudeDegrees>
              <LongitudeDegrees>-2.46390393935143947601318359375</LongitudeDegrees>
            </Position>
            <AltitudeMeters>485.79998779296875</AltitudeMeters>
            <DistanceMeters>269126.13180047</DistanceMeters>
          </Trackpoint>
          <Trackpoint>
            <Time>2021-07-30T10:49:44.000Z</Time>
            <Position>
              <LatitudeDegrees>42.41283983923494815826416015625</LatitudeDegrees>
              <LongitudeDegrees>-2.463738061487674713134765625</LongitudeDegrees>
            </Position>
            <AltitudeMeters>484.600006103515625</AltitudeMeters>
            <DistanceMeters>269158.5262945</DistanceMeters>
          </Trackpoint>
          <Trackpoint>
            <Time>2021-07-30T10:49:52.000Z</Time>
            <Position>
              <LatitudeDegrees>42.413344681262969970703125</LatitudeDegrees>
              <LongitudeDegrees>-2.46343069709837436676025390625</LongitudeDegrees>
            </Position>
            <AltitudeMeters>483.399993896484375</AltitudeMeters>
            <DistanceMeters>269220.13190162</DistanceMeters>
          </Trackpoint>
          <Trackpoint>
            <Time>2021-07-30T10:50:01.000Z</Time>
            <Position>
              <LatitudeDegrees>42.41384499706327915191650390625</LatitudeDegrees>
              <LongitudeDegrees>-2.4631072394549846649169921875</LongitudeDegrees>
            </Position>
            <AltitudeMeters>482.600006103515625</AltitudeMeters>
            <DistanceMeters>269281.8361506</DistanceMeters>
          </Trackpoint>
          <Trackpoint>
            <Time>2021-07-30T10:50:11.000Z</Time>
            <Position>
              <LatitudeDegrees>42.4143412895500659942626953125</LatitudeDegrees>
              <LongitudeDegrees>-2.46279786340892314910888671875</LongitudeDegrees>
            </Position>
            <AltitudeMeters>483.399993896484375</AltitudeMeters>
            <DistanceMeters>269342.64381863</DistanceMeters>
          </Trackpoint>
          <Trackpoint>
            <Time>2021-07-30T10:50:22.000Z</Time>
            <Position>
              <LatitudeDegrees>42.4148810841143131256103515625</LatitudeDegrees>
              <LongitudeDegrees>-2.4624568037688732147216796875</LongitudeDegrees>
            </Position>
            <AltitudeMeters>483</AltitudeMeters>
            <DistanceMeters>269408.93923843</DistanceMeters>
          </Trackpoint>
          <Trackpoint>
            <Time>2021-07-30T10:50:25.000Z</Time>
            <Position>
              <LatitudeDegrees>42.4150331318378448486328125</LatitudeDegrees>
              <LongitudeDegrees>-2.46235974133014678955078125</LongitudeDegrees>
            </Position>
            <AltitudeMeters>482.600006103515625</AltitudeMeters>
            <DistanceMeters>269427.64767939</DistanceMeters>
          </Trackpoint>
          <Trackpoint>
            <Time>2021-07-30T10:50:32.000Z</Time>
            <Position>
              <LatitudeDegrees>42.41536949761211872100830078125</LatitudeDegrees>
              <LongitudeDegrees>-2.46214055456221103668212890625</LongitudeDegrees>
            </Position>
            <AltitudeMeters>481.399993896484375</AltitudeMeters>
            <DistanceMeters>269469.19294159</DistanceMeters>
          </Trackpoint>
          <Trackpoint>
            <Time>2021-07-30T10:50:43.000Z</Time>
            <Position>
              <LatitudeDegrees>42.415892444550991058349609375</LatitudeDegrees>
              <LongitudeDegrees>-2.46181231923401355743408203125</LongitudeDegrees>
            </Position>
            <AltitudeMeters>481.600006103515625</AltitudeMeters>
            <DistanceMeters>269533.34343471</DistanceMeters>
          </Trackpoint>
          <Trackpoint>
            <Time>2021-07-30T10:50:54.000Z</Time>
            <Position>
              <LatitudeDegrees>42.4164257012307643890380859375</LatitudeDegrees>
              <LongitudeDegrees>-2.4614781327545642852783203125</LongitudeDegrees>
            </Position>
            <AltitudeMeters>481.399993896484375</AltitudeMeters>
            <DistanceMeters>269598.74059585</DistanceMeters>
          </Trackpoint>
          <Trackpoint>
            <Time>2021-07-30T10:51:04.000Z</Time>
            <Position>
              <LatitudeDegrees>42.416923753917217254638671875</LatitudeDegrees>
              <LongitudeDegrees>-2.46116138063371181488037109375</LongitudeDegrees>
            </Position>
            <AltitudeMeters>480.79998779296875</AltitudeMeters>
            <DistanceMeters>269659.98101885</DistanceMeters>
          </Trackpoint>
          <Trackpoint>
            <Time>2021-07-30T10:51:08.000Z</Time>
            <Position>
              <LatitudeDegrees>42.41712735034525394439697265625</LatitudeDegrees>
              <LongitudeDegrees>-2.46102995239198207855224609375</LongitudeDegrees>
            </Position>
            <AltitudeMeters>480.600006103515625</AltitudeMeters>
            <DistanceMeters>269685.08354451</DistanceMeters>
          </Trackpoint>
          <Trackpoint>
            <Time>2021-07-30T10:51:15.000Z</Time>
            <Position>
              <LatitudeDegrees>42.4174868501722812652587890625</LatitudeDegrees>
              <LongitudeDegrees>-2.46080732904374599456787109375</LongitudeDegrees>
            </Position>
            <AltitudeMeters>479.399993896484375</AltitudeMeters>
            <DistanceMeters>269729.07978442</DistanceMeters>
          </Trackpoint>
          <Trackpoint>
            <Time>2021-07-30T10:51:24.000Z</Time>
            <Position>
              <LatitudeDegrees>42.41793134249746799468994140625</LatitudeDegrees>
              <LongitudeDegrees>-2.4605276249349117279052734375</LongitudeDegrees>
            </Position>
            <AltitudeMeters>478.20001220703125</AltitudeMeters>
            <DistanceMeters>269783.63041587</DistanceMeters>
          </Trackpoint>
          <Trackpoint>
            <Time>2021-07-30T10:51:34.000Z</Time>
            <Position>
              <LatitudeDegrees>42.4184319935739040374755859375</LatitudeDegrees>
              <LongitudeDegrees>-2.46021372266113758087158203125</LongitudeDegrees>
            </Position>
            <AltitudeMeters>478.79998779296875</AltitudeMeters>
            <DistanceMeters>269845.03370518</DistanceMeters>
          </Trackpoint>
          <Trackpoint>
            <Time>2021-07-30T10:51:44.000Z</Time>
            <Position>
              <LatitudeDegrees>42.41893935017287731170654296875</LatitudeDegrees>
              <LongitudeDegrees>-2.45988917537033557891845703125</LongitudeDegrees>
            </Position>
            <AltitudeMeters>477.600006103515625</AltitudeMeters>
            <DistanceMeters>269907.48339369</DistanceMeters>
          </Trackpoint>
          <Trackpoint>
            <Time>2021-07-30T10:51:47.000Z</Time>
            <Position>
              <LatitudeDegrees>42.4190938286483287811279296875</LatitudeDegrees>
              <LongitudeDegrees>-2.45979596860706806182861328125</LongitudeDegrees>
            </Position>
            <AltitudeMeters>477.399993896484375</AltitudeMeters>
            <DistanceMeters>269926.30540099</DistanceMeters>
          </Trackpoint>
          <Trackpoint>
            <Time>2021-07-30T10:51:57.000Z</Time>
            <Position>
              <LatitudeDegrees>42.419592551887035369873046875</LatitudeDegrees>
              <LongitudeDegrees>-2.45948600582778453826904296875</LongitudeDegrees>
            </Position>
            <AltitudeMeters>477.399993896484375</AltitudeMeters>
            <DistanceMeters>269987.37808781</DistanceMeters>
          </Trackpoint>
          <Trackpoint>
            <Time>2021-07-30T10:52:08.000Z</Time>
            <Position>
              <LatitudeDegrees>42.4201248027384281158447265625</LatitudeDegrees>
              <LongitudeDegrees>-2.4591516517102718353271484375</LongitudeDegrees>
            </Position>
            <AltitudeMeters>477.20001220703125</AltitudeMeters>
            <DistanceMeters>270052.6787976</DistanceMeters>
          </Trackpoint>
          <Trackpoint>
            <Time>2021-07-30T10:52:19.000Z</Time>
            <Position>
              <LatitudeDegrees>42.42065043188631534576416015625</LatitudeDegrees>
              <LongitudeDegrees>-2.458818890154361724853515625</LongitudeDegrees>
            </Position>
            <AltitudeMeters>477</AltitudeMeters>
            <DistanceMeters>270117.25600505</DistanceMeters>
          </Trackpoint>
          <Trackpoint>
            <Time>2021-07-30T10:52:30.000Z</Time>
            <Position>
              <LatitudeDegrees>42.421158291399478912353515625</LatitudeDegrees>
              <LongitudeDegrees>-2.45851169340312480926513671875</LongitudeDegrees>
            </Position>
            <AltitudeMeters>477.399993896484375</AltitudeMeters>
            <DistanceMeters>270179.16122359</DistanceMeters>
          </Trackpoint>
          <Trackpoint>
            <Time>2021-07-30T10:52:36.000Z</Time>
            <Position>
              <LatitudeDegrees>42.42143983952701091766357421875</LatitudeDegrees>
              <LongitudeDegrees>-2.4583392776548862457275390625</LongitudeDegrees>
            </Position>
            <AltitudeMeters>476.20001220703125</AltitudeMeters>
            <DistanceMeters>270213.55144272</DistanceMeters>
          </Trackpoint>
          <Trackpoint>
            <Time>2021-07-30T10:52:39.000Z</Time>
            <Position>
              <LatitudeDegrees>42.4215815775096416473388671875</LatitudeDegrees>
              <LongitudeDegrees>-2.45825420133769512176513671875</LongitudeDegrees>
            </Position>
            <AltitudeMeters>475.20001220703125</AltitudeMeters>
            <DistanceMeters>270230.80631596</DistanceMeters>
          </Trackpoint>
          <Trackpoint>
            <Time>2021-07-30T10:52:47.000Z</Time>
            <Position>
              <LatitudeDegrees>42.421967983245849609375</LatitudeDegrees>
              <LongitudeDegrees>-2.4580438993871212005615234375</LongitudeDegrees>
            </Position>
            <AltitudeMeters>474.20001220703125</AltitudeMeters>
            <DistanceMeters>270277.15539498</DistanceMeters>
          </Trackpoint>
          <Trackpoint>
            <Time>2021-07-30T10:52:59.000Z</Time>
            <Position>
              <LatitudeDegrees>42.4224201031029224395751953125</LatitudeDegrees>
              <LongitudeDegrees>-2.4577485211193561553955078125</LongitudeDegrees>
            </Position>
            <AltitudeMeters>474.399993896484375</AltitudeMeters>
            <DistanceMeters>270333.02374929</DistanceMeters>
          </Trackpoint>
          <Trackpoint>
            <Time>2021-07-30T10:53:04.000Z</Time>
            <Position>
              <LatitudeDegrees>42.422650270164012908935546875</LatitudeDegrees>
              <LongitudeDegrees>-2.45773653499782085418701171875</LongitudeDegrees>
            </Position>
            <AltitudeMeters>472.79998779296875</AltitudeMeters>
            <DistanceMeters>270358.66054089</DistanceMeters>
          </Trackpoint>
          <Trackpoint>
            <Time>2021-07-30T10:53:06.000Z</Time>
            <Position>
              <LatitudeDegrees>42.42274842225015163421630859375</LatitudeDegrees>
              <LongitudeDegrees>-2.45772412978112697601318359375</LongitudeDegrees>
            </Position>
            <AltitudeMeters>472.399993896484375</AltitudeMeters>
            <DistanceMeters>270369.63232056</DistanceMeters>
          </Trackpoint>
          <Trackpoint>
            <Time>2021-07-30T10:53:07.000Z</Time>
            <Position>
              <LatitudeDegrees>42.4227969534695148468017578125</LatitudeDegrees>
              <LongitudeDegrees>-2.45771021582186222076416015625</LongitudeDegrees>
            </Position>
            <AltitudeMeters>472.399993896484375</AltitudeMeters>
            <DistanceMeters>270375.15369159</DistanceMeters>
          </Trackpoint>
          <Trackpoint>
            <Time>2021-07-30T10:53:17.000Z</Time>
            <Position>
              <LatitudeDegrees>42.42333431728184223175048828125</LatitudeDegrees>
              <LongitudeDegrees>-2.457538805902004241943359375</LongitudeDegrees>
            </Position>
            <AltitudeMeters>471.79998779296875</AltitudeMeters>
            <DistanceMeters>270436.59902617</DistanceMeters>
          </Trackpoint>
          <Trackpoint>
            <Time>2021-07-30T10:53:21.000Z</Time>
            <Position>
              <LatitudeDegrees>42.4235786497592926025390625</LatitudeDegrees>
              <LongitudeDegrees>-2.45746630243957042694091796875</LongitudeDegrees>
            </Position>
            <AltitudeMeters>470.600006103515625</AltitudeMeters>
            <DistanceMeters>270464.43861006</DistanceMeters>
          </Trackpoint>
          <Trackpoint>
            <Time>2021-07-30T10:53:27.000Z</Time>
            <Position>
              <LatitudeDegrees>42.42395818233489990234375</LatitudeDegrees>
              <LongitudeDegrees>-2.45734727941453456878662109375</LongitudeDegrees>
            </Position>
            <AltitudeMeters>469.600006103515625</AltitudeMeters>
            <DistanceMeters>270507.79839495</DistanceMeters>
          </Trackpoint>
          <Trackpoint>
            <Time>2021-07-30T10:53:35.000Z</Time>
            <Position>
              <LatitudeDegrees>42.42449085228145122528076171875</LatitudeDegrees>
              <LongitudeDegrees>-2.45718332938849925994873046875</LongitudeDegrees>
            </Position>
            <AltitudeMeters>468.600006103515625</AltitudeMeters>
            <DistanceMeters>270568.5965581</DistanceMeters>
          </Trackpoint>
          <Trackpoint>
            <Time>2021-07-30T10:53:37.000Z</Time>
            <Position>
              <LatitudeDegrees>42.42462915368378162384033203125</LatitudeDegrees>
              <LongitudeDegrees>-2.45714125223457813262939453125</LongitudeDegrees>
            </Position>
            <AltitudeMeters>467.399993896484375</AltitudeMeters>
            <DistanceMeters>270584.37328232</DistanceMeters>
          </Trackpoint>
          <Trackpoint>
            <Time>2021-07-30T10:53:43.000Z</Time>
            <Position>
              <LatitudeDegrees>42.425040118396282196044921875</LatitudeDegrees>
              <LongitudeDegrees>-2.4570149369537830352783203125</LongitudeDegrees>
            </Position>
            <AltitudeMeters>466.399993896484375</AltitudeMeters>
            <DistanceMeters>270631.27702848</DistanceMeters>
          </Trackpoint>
          <Trackpoint>
            <Time>2021-07-30T10:53:51.000Z</Time>
            <Position>
              <LatitudeDegrees>42.42557547055184841156005859375</LatitudeDegrees>
              <LongitudeDegrees>-2.4568496458232402801513671875</LongitudeDegrees>
            </Position>
            <AltitudeMeters>465.399993896484375</AltitudeMeters>
            <DistanceMeters>270692.39073208</DistanceMeters>
          </Trackpoint>
          <Trackpoint>
            <Time>2021-07-30T10:53:52.000Z</Time>
            <Position>
              <LatitudeDegrees>42.42564269341528415679931640625</LatitudeDegrees>
              <LongitudeDegrees>-2.45682961307466030120849609375</LongitudeDegrees>
            </Position>
            <AltitudeMeters>465.20001220703125</AltitudeMeters>
            <DistanceMeters>270700.05144137</DistanceMeters>
          </Trackpoint>
          <Trackpoint>
            <Time>2021-07-30T10:53:54.000Z</Time>
            <Position>
              <LatitudeDegrees>42.4257742054760456085205078125</LatitudeDegrees>
              <LongitudeDegrees>-2.45678720064461231231689453125</LongitudeDegrees>
            </Position>
            <AltitudeMeters>464.20001220703125</AltitudeMeters>
            <DistanceMeters>270715.09810467</DistanceMeters>
          </Trackpoint>
          <Trackpoint>
            <Time>2021-07-30T10:53:59.000Z</Time>
            <Position>
              <LatitudeDegrees>42.42608450353145599365234375</LatitudeDegrees>
              <LongitudeDegrees>-2.45668007992208003997802734375</LongitudeDegrees>
            </Position>
            <AltitudeMeters>463</AltitudeMeters>
            <DistanceMeters>270750.73844366</DistanceMeters>
          </Trackpoint>
          <Trackpoint>
            <Time>2021-07-30T10:54:08.000Z</Time>
            <Position>
              <LatitudeDegrees>42.42660728283226490020751953125</LatitudeDegrees>
              <LongitudeDegrees>-2.456493414938449859619140625</LongitudeDegrees>
            </Position>
            <AltitudeMeters>463.79998779296875</AltitudeMeters>
            <DistanceMeters>270810.91189239</DistanceMeters>
          </Trackpoint>
          <Trackpoint>
            <Time>2021-07-30T10:54:17.000Z</Time>
            <Position>
              <LatitudeDegrees>42.42715193890035152435302734375</LatitudeDegrees>
              <LongitudeDegrees>-2.45632552541792392730712890625</LongitudeDegrees>
            </Position>
            <AltitudeMeters>462</AltitudeMeters>
            <DistanceMeters>270873.08267999</DistanceMeters>
          </Trackpoint>
          <Trackpoint>
            <Time>2021-07-30T10:54:21.000Z</Time>
            <Position>
              <LatitudeDegrees>42.427388392388820648193359375</LatitudeDegrees>
              <LongitudeDegrees>-2.4562515132129192352294921875</LongitudeDegrees>
            </Position>
            <AltitudeMeters>460.79998779296875</AltitudeMeters>
            <DistanceMeters>270900.09367879</DistanceMeters>
          </Trackpoint>
          <Trackpoint>
            <Time>2021-07-30T10:54:31.000Z</Time>
            <Position>
              <LatitudeDegrees>42.42792273871600627899169921875</LatitudeDegrees>
              <LongitudeDegrees>-2.45608664117753505706787109375</LongitudeDegrees>
            </Position>
            <AltitudeMeters>461</AltitudeMeters>
            <DistanceMeters>270961.09031933</DistanceMeters>
          </Trackpoint>
          <Trackpoint>
            <Time>2021-07-30T10:54:33.000Z</Time>
            <Position>
              <LatitudeDegrees>42.428013347089290618896484375</LatitudeDegrees>
              <LongitudeDegrees>-2.4560406245291233062744140625</LongitudeDegrees>
            </Position>
            <AltitudeMeters>461</AltitudeMeters>
            <DistanceMeters>270971.86066575</DistanceMeters>
          </Trackpoint>
          <Trackpoint>
            <Time>2021-07-30T10:54:42.000Z</Time>
            <Position>
              <LatitudeDegrees>42.42839380167424678802490234375</LatitudeDegrees>
              <LongitudeDegrees>-2.45584155432879924774169921875</LongitudeDegrees>
            </Position>
            <AltitudeMeters>460.600006103515625</AltitudeMeters>
            <DistanceMeters>271017.25459997</DistanceMeters>
          </Trackpoint>
          <Trackpoint>
            <Time>2021-07-30T10:54:44.000Z</Time>
            <Position>
              <LatitudeDegrees>42.42849606089293956756591796875</LatitudeDegrees>
              <LongitudeDegrees>-2.45587818324565887451171875</LongitudeDegrees>
            </Position>
            <AltitudeMeters>460.399993896484375</AltitudeMeters>
            <DistanceMeters>271029.02756236</DistanceMeters>
          </Trackpoint>
          <Trackpoint>
            <Time>2021-07-30T10:54:48.000Z</Time>
            <Position>
              <LatitudeDegrees>42.42871549911797046661376953125</LatitudeDegrees>
              <LongitudeDegrees>-2.45584960095584392547607421875</LongitudeDegrees>
            </Position>
            <AltitudeMeters>460.600006103515625</AltitudeMeters>
            <DistanceMeters>271053.5641519</DistanceMeters>
          </Trackpoint>
          <Trackpoint>
            <Time>2021-07-30T10:54:54.000Z</Time>
            <Position>
              <LatitudeDegrees>42.4290525354444980621337890625</LatitudeDegrees>
              <LongitudeDegrees>-2.45576209388673305511474609375</LongitudeDegrees>
            </Position>
            <AltitudeMeters>460</AltitudeMeters>
            <DistanceMeters>271091.75945384</DistanceMeters>
          </Trackpoint>
          <Trackpoint>
            <Time>2021-07-30T10:55:03.000Z</Time>
            <Position>
              <LatitudeDegrees>42.429554276168346405029296875</LatitudeDegrees>
              <LongitudeDegrees>-2.45563619770109653472900390625</LongitudeDegrees>
            </Position>
            <AltitudeMeters>458.600006103515625</AltitudeMeters>
            <DistanceMeters>271148.55379763</DistanceMeters>
          </Trackpoint>
          <Trackpoint>
            <Time>2021-07-30T10:55:11.000Z</Time>
            <Position>
              <LatitudeDegrees>42.43000061251223087310791015625</LatitudeDegrees>
              <LongitudeDegrees>-2.455510385334491729736328125</LongitudeDegrees>
            </Position>
            <AltitudeMeters>457.399993896484375</AltitudeMeters>
            <DistanceMeters>271199.29574966</DistanceMeters>
          </Trackpoint>
          <Trackpoint>
            <Time>2021-07-30T10:55:21.000Z</Time>
            <Position>
              <LatitudeDegrees>42.43055817671120166778564453125</LatitudeDegrees>
              <LongitudeDegrees>-2.45533964596688747406005859375</LongitudeDegrees>
            </Position>
            <AltitudeMeters>457.79998779296875</AltitudeMeters>
            <DistanceMeters>271262.91916876</DistanceMeters>
          </Trackpoint>
          <Trackpoint>
            <Time>2021-07-30T10:55:28.000Z</Time>
            <Position>
              <LatitudeDegrees>42.43096503429114818572998046875</LatitudeDegrees>
              <LongitudeDegrees>-2.4552004225552082061767578125</LongitudeDegrees>
            </Position>
            <AltitudeMeters>456.399993896484375</AltitudeMeters>
            <DistanceMeters>271309.62516139</DistanceMeters>
          </Trackpoint>
          <Trackpoint>
            <Time>2021-07-30T10:55:38.000Z</Time>
            <Position>
              <LatitudeDegrees>42.43152326904237270355224609375</LatitudeDegrees>
              <LongitudeDegrees>-2.45502029545605182647705078125</LongitudeDegrees>
            </Position>
            <AltitudeMeters>455.399993896484375</AltitudeMeters>
            <DistanceMeters>271373.49555621</DistanceMeters>
          </Trackpoint>
          <Trackpoint>
            <Time>2021-07-30T10:55:48.000Z</Time>
            <Position>
              <LatitudeDegrees>42.43206222541630268096923828125</LatitudeDegrees>
              <LongitudeDegrees>-2.454838491976261138916015625</LongitudeDegrees>
            </Position>
            <AltitudeMeters>457.20001220703125</AltitudeMeters>
            <DistanceMeters>271435.31377545</DistanceMeters>
          </Trackpoint>
          <Trackpoint>
            <Time>2021-07-30T10:55:51.000Z</Time>
            <Position>
              <LatitudeDegrees>42.43220589123666286468505859375</LatitudeDegrees>
              <LongitudeDegrees>-2.4547786451876163482666015625</LongitudeDegrees>
            </Position>
            <AltitudeMeters>457.600006103515625</AltitudeMeters>
            <DistanceMeters>271452.04279602</DistanceMeters>
          </Trackpoint>
          <Trackpoint>
            <Time>2021-07-30T10:55:56.000Z</Time>
            <Position>
              <LatitudeDegrees>42.43243622593581676483154296875</LatitudeDegrees>
              <LongitudeDegrees>-2.45467613451182842254638671875</LongitudeDegrees>
            </Position>
            <AltitudeMeters>458.79998779296875</AltitudeMeters>
            <DistanceMeters>271479.02703668</DistanceMeters>
          </Trackpoint>
          <Trackpoint>
            <Time>2021-07-30T10:56:07.000Z</Time>
            <Position>
              <LatitudeDegrees>42.4329702369868755340576171875</LatitudeDegrees>
              <LongitudeDegrees>-2.45447136461734771728515625</LongitudeDegrees>
            </Position>
            <AltitudeMeters>458.399993896484375</AltitudeMeters>
            <DistanceMeters>271540.79812888</DistanceMeters>
          </Trackpoint>
          <Trackpoint>
            <Time>2021-07-30T10:56:18.000Z</Time>
            <Position>
              <LatitudeDegrees>42.43351195938885211944580078125</LatitudeDegrees>
              <LongitudeDegrees>-2.4543689377605915069580078125</LongitudeDegrees>
            </Position>
            <AltitudeMeters>458</AltitudeMeters>
            <DistanceMeters>271601.67711044</DistanceMeters>
          </Trackpoint>
          <Trackpoint>
            <Time>2021-07-30T10:56:22.000Z</Time>
            <Position>
              <LatitudeDegrees>42.43372854776680469512939453125</LatitudeDegrees>
              <LongitudeDegrees>-2.45434806682169437408447265625</LongitudeDegrees>
            </Position>
            <AltitudeMeters>457.79998779296875</AltitudeMeters>
            <DistanceMeters>271625.84492798</DistanceMeters>
          </Trackpoint>
          <Trackpoint>
            <Time>2021-07-30T10:56:26.000Z</Time>
            <Position>
              <LatitudeDegrees>42.433959133923053741455078125</LatitudeDegrees>
              <LongitudeDegrees>-2.4543199874460697174072265625</LongitudeDegrees>
            </Position>
            <AltitudeMeters>456.399993896484375</AltitudeMeters>
            <DistanceMeters>271651.6131173</DistanceMeters>
          </Trackpoint>
          <Trackpoint>
            <Time>2021-07-30T10:56:29.000Z</Time>
            <Position>
              <LatitudeDegrees>42.4341376684606075286865234375</LatitudeDegrees>
              <LongitudeDegrees>-2.454283274710178375244140625</LongitudeDegrees>
            </Position>
            <AltitudeMeters>455.399993896484375</AltitudeMeters>
            <DistanceMeters>271671.71166052</DistanceMeters>
          </Trackpoint>
          <Trackpoint>
            <Time>2021-07-30T10:56:34.000Z</Time>
            <Position>
              <LatitudeDegrees>42.43444587104022502899169921875</LatitudeDegrees>
              <LongitudeDegrees>-2.45419400744140148162841796875</LongitudeDegrees>
            </Position>
            <AltitudeMeters>454.20001220703125</AltitudeMeters>
            <DistanceMeters>271706.79029301</DistanceMeters>
          </Trackpoint>
          <Trackpoint>
            <Time>2021-07-30T10:56:42.000Z</Time>
            <Position>
              <LatitudeDegrees>42.434952221810817718505859375</LatitudeDegrees>
              <LongitudeDegrees>-2.45398043654859066009521484375</LongitudeDegrees>
            </Position>
            <AltitudeMeters>453</AltitudeMeters>
            <DistanceMeters>271765.8157295</DistanceMeters>
          </Trackpoint>
          <Trackpoint>
            <Time>2021-07-30T10:56:45.000Z</Time>
            <Position>
              <LatitudeDegrees>42.4351535551249980926513671875</LatitudeDegrees>
              <LongitudeDegrees>-2.4538988806307315826416015625</LongitudeDegrees>
            </Position>
            <AltitudeMeters>452</AltitudeMeters>
            <DistanceMeters>271789.20446613</DistanceMeters>
          </Trackpoint>
          <Trackpoint>
            <Time>2021-07-30T10:56:49.000Z</Time>
            <Position>
              <LatitudeDegrees>42.43542797863483428955078125</LatitudeDegrees>
              <LongitudeDegrees>-2.4537996388971805572509765625</LongitudeDegrees>
            </Position>
            <AltitudeMeters>450.79998779296875</AltitudeMeters>
            <DistanceMeters>271820.81752752</DistanceMeters>
          </Trackpoint>
          <Trackpoint>
            <Time>2021-07-30T10:56:57.000Z</Time>
            <Position>
              <LatitudeDegrees>42.43595360778272151947021484375</LatitudeDegrees>
              <LongitudeDegrees>-2.45362789370119571685791015625</LongitudeDegrees>
            </Position>
            <AltitudeMeters>450.20001220703125</AltitudeMeters>
            <DistanceMeters>271880.99817905</DistanceMeters>
          </Trackpoint>
          <Trackpoint>
            <Time>2021-07-30T10:57:05.000Z</Time>
            <Position>
              <LatitudeDegrees>42.43645467795431613922119140625</LatitudeDegrees>
              <LongitudeDegrees>-2.453477270901203155517578125</LongitudeDegrees>
            </Position>
            <AltitudeMeters>449.600006103515625</AltitudeMeters>
            <DistanceMeters>271938.12433231</DistanceMeters>
          </Trackpoint>
          <Trackpoint>
            <Time>2021-07-30T10:57:15.000Z</Time>
            <Position>
              <LatitudeDegrees>42.43702255189418792724609375</LatitudeDegrees>
              <LongitudeDegrees>-2.45330720208585262298583984375</LongitudeDegrees>
            </Position>
            <AltitudeMeters>449.20001220703125</AltitudeMeters>
            <DistanceMeters>272002.8551742</DistanceMeters>
          </Trackpoint>
          <Trackpoint>
            <Time>2021-07-30T10:57:22.000Z</Time>
            <Position>
              <LatitudeDegrees>42.43739931844174861907958984375</LatitudeDegrees>
              <LongitudeDegrees>-2.453190274536609649658203125</LongitudeDegrees>
            </Position>
            <AltitudeMeters>449</AltitudeMeters>
            <DistanceMeters>272045.87594137</DistanceMeters>
          </Trackpoint>
          <Trackpoint>
            <Time>2021-07-30T10:57:26.000Z</Time>
            <Position>
              <LatitudeDegrees>42.4375903420150279998779296875</LatitudeDegrees>
              <LongitudeDegrees>-2.45305960066616535186767578125</LongitudeDegrees>
            </Position>
            <AltitudeMeters>448.399993896484375</AltitudeMeters>
            <DistanceMeters>272069.69298027</DistanceMeters>
          </Trackpoint>
          <Trackpoint>
            <Time>2021-07-30T10:57:30.000Z</Time>
            <Position>
              <LatitudeDegrees>42.43779561482369899749755859375</LatitudeDegrees>
              <LongitudeDegrees>-2.45302288793027400970458984375</LongitudeDegrees>
            </Position>
            <AltitudeMeters>447</AltitudeMeters>
            <DistanceMeters>272092.73847692</DistanceMeters>
          </Trackpoint>
          <Trackpoint>
            <Time>2021-07-30T10:57:33.000Z</Time>
            <Position>
              <LatitudeDegrees>42.43794783018529415130615234375</LatitudeDegrees>
              <LongitudeDegrees>-2.453019283711910247802734375</LongitudeDegrees>
            </Position>
            <AltitudeMeters>446.399993896484375</AltitudeMeters>
            <DistanceMeters>272109.68310175</DistanceMeters>
          </Trackpoint>
          <Trackpoint>
            <Time>2021-07-30T10:57:44.000Z</Time>
            <Position>
              <LatitudeDegrees>42.43850673548877239227294921875</LatitudeDegrees>
              <LongitudeDegrees>-2.4528518132865428924560546875</LongitudeDegrees>
            </Position>
            <AltitudeMeters>448.20001220703125</AltitudeMeters>
            <DistanceMeters>272173.39325197</DistanceMeters>
          </Trackpoint>
          <Trackpoint>
            <Time>2021-07-30T10:57:55.000Z</Time>
            <Position>
              <LatitudeDegrees>42.43903948925435543060302734375</LatitudeDegrees>
              <LongitudeDegrees>-2.45268660597503185272216796875</LongitudeDegrees>
            </Position>
            <AltitudeMeters>447.600006103515625</AltitudeMeters>
            <DistanceMeters>272234.22282015</DistanceMeters>
          </Trackpoint>
          <Trackpoint>
            <Time>2021-07-30T10:58:05.000Z</Time>
            <Position>
              <LatitudeDegrees>42.4395672976970672607421875</LatitudeDegrees>
              <LongitudeDegrees>-2.45251511223614215850830078125</LongitudeDegrees>
            </Position>
            <AltitudeMeters>447.399993896484375</AltitudeMeters>
            <DistanceMeters>272294.63425545</DistanceMeters>
          </Trackpoint>
          <Trackpoint>
            <Time>2021-07-30T10:58:13.000Z</Time>
            <Position>
              <LatitudeDegrees>42.43997440673410892486572265625</LatitudeDegrees>
              <LongitudeDegrees>-2.45239675976336002349853515625</LongitudeDegrees>
            </Position>
            <AltitudeMeters>446.20001220703125</AltitudeMeters>
            <DistanceMeters>272340.97729442</DistanceMeters>
          </Trackpoint>
          <Trackpoint>
            <Time>2021-07-30T10:58:24.000Z</Time>
            <Position>
              <LatitudeDegrees>42.44054454378783702850341796875</LatitudeDegrees>
              <LongitudeDegrees>-2.45221805758774280548095703125</LongitudeDegrees>
            </Position>
            <AltitudeMeters>446.399993896484375</AltitudeMeters>
            <DistanceMeters>272406.11018775</DistanceMeters>
          </Trackpoint>
          <Trackpoint>
            <Time>2021-07-30T10:58:34.000Z</Time>
            <Position>
              <LatitudeDegrees>42.4410993419587612152099609375</LatitudeDegrees>
              <LongitudeDegrees>-2.4520500004291534423828125</LongitudeDegrees>
            </Position>
            <AltitudeMeters>445.600006103515625</AltitudeMeters>
            <DistanceMeters>272469.3844232</DistanceMeters>
          </Trackpoint>
          <Trackpoint>
            <Time>2021-07-30T10:58:41.000Z</Time>
            <Position>
              <LatitudeDegrees>42.44148465804755687713623046875</LatitudeDegrees>
              <LongitudeDegrees>-2.45193508453667163848876953125</LongitudeDegrees>
            </Position>
            <AltitudeMeters>445.20001220703125</AltitudeMeters>
            <DistanceMeters>272513.29725395</DistanceMeters>
          </Trackpoint>
          <Trackpoint>
            <Time>2021-07-30T10:58:48.000Z</Time>
            <Position>
              <LatitudeDegrees>42.44187223725020885467529296875</LatitudeDegrees>
              <LongitudeDegrees>-2.45181991718709468841552734375</LongitudeDegrees>
            </Position>
            <AltitudeMeters>443.79998779296875</AltitudeMeters>
            <DistanceMeters>272557.46065748</DistanceMeters>
          </Trackpoint>
          <Trackpoint>
            <Time>2021-07-30T10:58:53.000Z</Time>
            <Position>
              <LatitudeDegrees>42.442134507000446319580078125</LatitudeDegrees>
              <LongitudeDegrees>-2.451737858355045318603515625</LongitudeDegrees>
            </Position>
            <AltitudeMeters>442.79998779296875</AltitudeMeters>
            <DistanceMeters>272587.41985437</DistanceMeters>
          </Trackpoint>
          <Trackpoint>
            <Time>2021-07-30T10:58:59.000Z</Time>
            <Position>
              <LatitudeDegrees>42.442441619932651519775390625</LatitudeDegrees>
              <LongitudeDegrees>-2.451641298830509185791015625</LongitudeDegrees>
            </Position>
            <AltitudeMeters>444</AltitudeMeters>
            <DistanceMeters>272622.51019768</DistanceMeters>
          </Trackpoint>
          <Trackpoint>
            <Time>2021-07-30T10:59:09.000Z</Time>
            <Position>
              <LatitudeDegrees>42.4429879523813724517822265625</LatitudeDegrees>
              <LongitudeDegrees>-2.45147424750030040740966796875</LongitudeDegrees>
            </Position>
            <AltitudeMeters>443.20001220703125</AltitudeMeters>
            <DistanceMeters>272684.84685316</DistanceMeters>
          </Trackpoint>
          <Trackpoint>
            <Time>2021-07-30T10:59:11.000Z</Time>
            <Position>
              <LatitudeDegrees>42.4430955760180950164794921875</LatitudeDegrees>
              <LongitudeDegrees>-2.45144206099212169647216796875</LongitudeDegrees>
            </Position>
            <AltitudeMeters>443</AltitudeMeters>
            <DistanceMeters>272697.11376776</DistanceMeters>
          </Trackpoint>
          <Trackpoint>
            <Time>2021-07-30T10:59:21.000Z</Time>
            <Position>
              <LatitudeDegrees>42.4436093866825103759765625</LatitudeDegrees>
              <LongitudeDegrees>-2.4512753449380397796630859375</LongitudeDegrees>
            </Position>
            <AltitudeMeters>442</AltitudeMeters>
            <DistanceMeters>272755.91841471</DistanceMeters>
          </Trackpoint>
          <Trackpoint>
            <Time>2021-07-30T10:59:29.000Z</Time>
            <Position>
              <LatitudeDegrees>42.44403518736362457275390625</LatitudeDegrees>
              <LongitudeDegrees>-2.451146431267261505126953125</LongitudeDegrees>
            </Position>
            <AltitudeMeters>442</AltitudeMeters>
            <DistanceMeters>272804.47929725</DistanceMeters>
          </Trackpoint>
          <Trackpoint>
            <Time>2021-07-30T10:59:40.000Z</Time>
            <Position>
              <LatitudeDegrees>42.44459669105708599090576171875</LatitudeDegrees>
              <LongitudeDegrees>-2.4509588442742824554443359375</LongitudeDegrees>
            </Position>
            <AltitudeMeters>441.600006103515625</AltitudeMeters>
            <DistanceMeters>272868.84697341</DistanceMeters>
          </Trackpoint>
          <Trackpoint>
            <Time>2021-07-30T10:59:42.000Z</Time>
            <Position>
              <LatitudeDegrees>42.44469023309648036956787109375</LatitudeDegrees>
              <LongitudeDegrees>-2.4509085528552532196044921875</LongitudeDegrees>
            </Position>
            <AltitudeMeters>441.600006103515625</AltitudeMeters>
            <DistanceMeters>272880.04803953</DistanceMeters>
          </Trackpoint>
          <Trackpoint>
            <Time>2021-07-30T10:59:47.000Z</Time>
            <Position>
              <LatitudeDegrees>42.4449513293802738189697265625</LatitudeDegrees>
              <LongitudeDegrees>-2.45087075047194957733154296875</LongitudeDegrees>
            </Position>
            <AltitudeMeters>441</AltitudeMeters>
            <DistanceMeters>272909.27381412</DistanceMeters>
          </Trackpoint>
          <Trackpoint>
            <Time>2021-07-30T10:59:57.000Z</Time>
            <Position>
              <LatitudeDegrees>42.445493638515472412109375</LatitudeDegrees>
              <LongitudeDegrees>-2.45071015320718288421630859375</LongitudeDegrees>
            </Position>
            <AltitudeMeters>440.79998779296875</AltitudeMeters>
            <DistanceMeters>272971.05828091</DistanceMeters>
          </Trackpoint>
          <Trackpoint>
            <Time>2021-07-30T11:00:07.000Z</Time>
            <Position>
              <LatitudeDegrees>42.4460493586957454681396484375</LatitudeDegrees>
              <LongitudeDegrees>-2.45054670609533786773681640625</LongitudeDegrees>
            </Position>
            <AltitudeMeters>440</AltitudeMeters>
            <DistanceMeters>273034.35106638</DistanceMeters>
          </Trackpoint>
          <Trackpoint>
            <Time>2021-07-30T11:00:12.000Z</Time>
            <Position>
              <LatitudeDegrees>42.44631933979690074920654296875</LatitudeDegrees>
              <LongitudeDegrees>-2.45045048184692859649658203125</LongitudeDegrees>
            </Position>
            <AltitudeMeters>439</AltitudeMeters>
            <DistanceMeters>273065.42233176</DistanceMeters>
          </Trackpoint>
          <Trackpoint>
            <Time>2021-07-30T11:00:22.000Z</Time>
            <Position>
              <LatitudeDegrees>42.44686114601790904998779296875</LatitudeDegrees>
              <LongitudeDegrees>-2.45029206387698650360107421875</LongitudeDegrees>
            </Position>
            <AltitudeMeters>438.399993896484375</AltitudeMeters>
            <DistanceMeters>273127.11406702</DistanceMeters>
          </Trackpoint>
          <Trackpoint>
            <Time>2021-07-30T11:00:32.000Z</Time>
            <Position>
              <LatitudeDegrees>42.4473948217928409576416015625</LatitudeDegrees>
              <LongitudeDegrees>-2.45013968087732791900634765625</LongitudeDegrees>
            </Position>
            <AltitudeMeters>438.79998779296875</AltitudeMeters>
            <DistanceMeters>273187.81747132</DistanceMeters>
          </Trackpoint>
          <Trackpoint>
            <Time>2021-07-30T11:00:39.000Z</Time>
            <Position>
              <LatitudeDegrees>42.4477668106555938720703125</LatitudeDegrees>
              <LongitudeDegrees>-2.4500276148319244384765625</LongitudeDegrees>
            </Position>
            <AltitudeMeters>438.20001220703125</AltitudeMeters>
            <DistanceMeters>273230.23133355</DistanceMeters>
          </Trackpoint>
          <Trackpoint>
            <Time>2021-07-30T11:00:50.000Z</Time>
            <Position>
              <LatitudeDegrees>42.4483443237841129302978515625</LatitudeDegrees>
              <LongitudeDegrees>-2.44986542500555515289306640625</LongitudeDegrees>
            </Position>
            <AltitudeMeters>437.399993896484375</AltitudeMeters>
            <DistanceMeters>273295.8754687</DistanceMeters>
          </Trackpoint>
          <Trackpoint>
            <Time>2021-07-30T11:00:51.000Z</Time>
            <Position>
              <LatitudeDegrees>42.4483932740986347198486328125</LatitudeDegrees>
              <LongitudeDegrees>-2.44985419325530529022216796875</LongitudeDegrees>
            </Position>
            <AltitudeMeters>437</AltitudeMeters>
            <DistanceMeters>273301.40174398</DistanceMeters>
          </Trackpoint>
          <Trackpoint>
            <Time>2021-07-30T11:01:01.000Z</Time>
            <Position>
              <LatitudeDegrees>42.4489367567002773284912109375</LatitudeDegrees>
              <LongitudeDegrees>-2.449679262936115264892578125</LongitudeDegrees>
            </Position>
            <AltitudeMeters>436.79998779296875</AltitudeMeters>
            <DistanceMeters>273363.57507334</DistanceMeters>
          </Trackpoint>
          <Trackpoint>
            <Time>2021-07-30T11:01:06.000Z</Time>
            <Position>
              <LatitudeDegrees>42.44920724071562290191650390625</LatitudeDegrees>
              <LongitudeDegrees>-2.44960223324596881866455078125</LongitudeDegrees>
            </Position>
            <AltitudeMeters>436.20001220703125</AltitudeMeters>
            <DistanceMeters>273394.33790824</DistanceMeters>
          </Trackpoint>
          <Trackpoint>
            <Time>2021-07-30T11:01:16.000Z</Time>
            <Position>
              <LatitudeDegrees>42.4497417546808719635009765625</LatitudeDegrees>
              <LongitudeDegrees>-2.449445910751819610595703125</LongitudeDegrees>
            </Position>
            <AltitudeMeters>435.79998779296875</AltitudeMeters>
            <DistanceMeters>273455.19982965</DistanceMeters>
          </Trackpoint>
          <Trackpoint>
            <Time>2021-07-30T11:01:26.000Z</Time>
            <Position>
              <LatitudeDegrees>42.45027492754161357879638671875</LatitudeDegrees>
              <LongitudeDegrees>-2.4492911808192729949951171875</LongitudeDegrees>
            </Position>
            <AltitudeMeters>435.79998779296875</AltitudeMeters>
            <DistanceMeters>273515.88828201</DistanceMeters>
          </Trackpoint>
          <Trackpoint>
            <Time>2021-07-30T11:01:28.000Z</Time>
            <Position>
              <LatitudeDegrees>42.45038121007382869720458984375</LatitudeDegrees>
              <LongitudeDegrees>-2.4492524564266204833984375</LongitudeDegrees>
            </Position>
            <AltitudeMeters>435.600006103515625</AltitudeMeters>
            <DistanceMeters>273528.13751669</DistanceMeters>
          </Trackpoint>
          <Trackpoint>
            <Time>2021-07-30T11:01:31.000Z</Time>
            <Position>
              <LatitudeDegrees>42.45054482482373714447021484375</LatitudeDegrees>
              <LongitudeDegrees>-2.44919948279857635498046875</LongitudeDegrees>
            </Position>
            <AltitudeMeters>435.20001220703125</AltitudeMeters>
            <DistanceMeters>273546.86067341</DistanceMeters>
          </Trackpoint>
          <Trackpoint>
            <Time>2021-07-30T11:01:36.000Z</Time>
            <Position>
              <LatitudeDegrees>42.4508240260183811187744140625</LatitudeDegrees>
              <LongitudeDegrees>-2.44912044145166873931884765625</LongitudeDegrees>
            </Position>
            <AltitudeMeters>435.399993896484375</AltitudeMeters>
            <DistanceMeters>273578.60699243</DistanceMeters>
          </Trackpoint>
          <Trackpoint>
            <Time>2021-07-30T11:01:46.000Z</Time>
            <Position>
              <LatitudeDegrees>42.4513812549412250518798828125</LatitudeDegrees>
              <LongitudeDegrees>-2.44896252639591693878173828125</LongitudeDegrees>
            </Position>
            <AltitudeMeters>434</AltitudeMeters>
            <DistanceMeters>273641.96907831</DistanceMeters>
          </Trackpoint>
          <Trackpoint>
            <Time>2021-07-30T11:01:56.000Z</Time>
            <Position>
              <LatitudeDegrees>42.4519230611622333526611328125</LatitudeDegrees>
              <LongitudeDegrees>-2.44880528189241886138916015625</LongitudeDegrees>
            </Position>
            <AltitudeMeters>434.20001220703125</AltitudeMeters>
            <DistanceMeters>273703.64031778</DistanceMeters>
          </Trackpoint>
          <Trackpoint>
            <Time>2021-07-30T11:02:07.000Z</Time>
            <Position>
              <LatitudeDegrees>42.45246268808841705322265625</LatitudeDegrees>
              <LongitudeDegrees>-2.44864166714251041412353515625</LongitudeDegrees>
            </Position>
            <AltitudeMeters>434.20001220703125</AltitudeMeters>
            <DistanceMeters>273765.18645849</DistanceMeters>
          </Trackpoint>
          <Trackpoint>
            <Time>2021-07-30T11:02:19.000Z</Time>
            <Position>
              <LatitudeDegrees>42.452957890927791595458984375</LatitudeDegrees>
              <LongitudeDegrees>-2.44848140515387058258056640625</LongitudeDegrees>
            </Position>
            <AltitudeMeters>434</AltitudeMeters>
            <DistanceMeters>273821.85314397</DistanceMeters>
          </Trackpoint>
          <Trackpoint>
            <Time>2021-07-30T11:02:25.000Z</Time>
            <Position>
              <LatitudeDegrees>42.4530177377164363861083984375</LatitudeDegrees>
              <LongitudeDegrees>-2.44825777597725391387939453125</LongitudeDegrees>
            </Position>
            <AltitudeMeters>433.79998779296875</AltitudeMeters>
            <DistanceMeters>273841.38847327</DistanceMeters>
          </Trackpoint>
          <Trackpoint>
            <Time>2021-07-30T11:02:33.000Z</Time>
            <Position>
              <LatitudeDegrees>42.45313516817986965179443359375</LatitudeDegrees>
              <LongitudeDegrees>-2.448036409914493560791015625</LongitudeDegrees>
            </Position>
            <AltitudeMeters>433.399993896484375</AltitudeMeters>
            <DistanceMeters>273863.77830788</DistanceMeters>
          </Trackpoint>
          <Trackpoint>
            <Time>2021-07-30T11:02:37.000Z</Time>
            <Position>
              <LatitudeDegrees>42.45311806909739971160888671875</LatitudeDegrees>
              <LongitudeDegrees>-2.44788411073386669158935546875</LongitudeDegrees>
            </Position>
            <AltitudeMeters>433.600006103515625</AltitudeMeters>
            <DistanceMeters>273876.42935823</DistanceMeters>
          </Trackpoint>
          <Trackpoint>
            <Time>2021-07-30T11:02:45.000Z</Time>
            <Position>
              <LatitudeDegrees>42.45303508825600147247314453125</LatitudeDegrees>
              <LongitudeDegrees>-2.447443306446075439453125</LongitudeDegrees>
            </Position>
            <AltitudeMeters>433.399993896484375</AltitudeMeters>
            <DistanceMeters>273913.78875779</DistanceMeters>
          </Trackpoint>
          <Trackpoint>
            <Time>2021-07-30T11:03:02.000Z</Time>
            <Position>
              <LatitudeDegrees>42.45310214348137378692626953125</LatitudeDegrees>
              <LongitudeDegrees>-2.44673327542841434478759765625</LongitudeDegrees>
            </Position>
            <AltitudeMeters>433.79998779296875</AltitudeMeters>
            <DistanceMeters>273972.57366889</DistanceMeters>
          </Trackpoint>
          <Trackpoint>
            <Time>2021-07-30T11:03:05.000Z</Time>
            <Position>
              <LatitudeDegrees>42.45310046710073947906494140625</LatitudeDegrees>
              <LongitudeDegrees>-2.44671651162207126617431640625</LongitudeDegrees>
            </Position>
            <AltitudeMeters>433.79998779296875</AltitudeMeters>
            <DistanceMeters>273973.96378988</DistanceMeters>
          </Trackpoint>
          <Trackpoint>
            <Time>2021-07-30T11:11:35.000Z</Time>
            <Position>
              <LatitudeDegrees>42.45311488397419452667236328125</LatitudeDegrees>
              <LongitudeDegrees>-2.44681105948984622955322265625</LongitudeDegrees>
            </Position>
            <AltitudeMeters>434.600006103515625</AltitudeMeters>
            <DistanceMeters>273981.89268591</DistanceMeters>
          </Trackpoint>
          <Trackpoint>
            <Time>2021-07-30T11:11:55.000Z</Time>
            <Position>
              <LatitudeDegrees>42.45312544517219066619873046875</LatitudeDegrees>
              <LongitudeDegrees>-2.44754497893154621124267578125</LongitudeDegrees>
            </Position>
            <AltitudeMeters>434.399993896484375</AltitudeMeters>
            <DistanceMeters>274042.17498516</DistanceMeters>
          </Trackpoint>
          <Trackpoint>
            <Time>2021-07-30T11:11:56.000Z</Time>
            <Position>
              <LatitudeDegrees>42.4531236849725246429443359375</LatitudeDegrees>
              <LongitudeDegrees>-2.44758822955191135406494140625</LongitudeDegrees>
            </Position>
            <AltitudeMeters>434.399993896484375</AltitudeMeters>
            <DistanceMeters>274045.73309803</DistanceMeters>
          </Trackpoint>
          <Trackpoint>
            <Time>2021-07-30T11:12:20.000Z</Time>
            <Position>
              <LatitudeDegrees>42.4530992098152637481689453125</LatitudeDegrees>
              <LongitudeDegrees>-2.4482990987598896026611328125</LongitudeDegrees>
            </Position>
            <AltitudeMeters>435.399993896484375</AltitudeMeters>
            <DistanceMeters>274104.17460462</DistanceMeters>
          </Trackpoint>
          <Trackpoint>
            <Time>2021-07-30T11:12:21.000Z</Time>
            <Position>
              <LatitudeDegrees>42.4530992098152637481689453125</LatitudeDegrees>
              <LongitudeDegrees>-2.44833354838192462921142578125</LongitudeDegrees>
            </Position>
            <AltitudeMeters>435.399993896484375</AltitudeMeters>
            <DistanceMeters>274107.00314625</DistanceMeters>
          </Trackpoint>
          <Trackpoint>
            <Time>2021-07-30T11:12:30.000Z</Time>
            <Position>
              <LatitudeDegrees>42.4530780874192714691162109375</LatitudeDegrees>
              <LongitudeDegrees>-2.44847184978425502777099609375</LongitudeDegrees>
            </Position>
            <AltitudeMeters>436</AltitudeMeters>
            <DistanceMeters>274118.60146719</DistanceMeters>
          </Trackpoint>
          <Trackpoint>
            <Time>2021-07-30T11:12:41.000Z</Time>
            <Position>
              <LatitudeDegrees>42.45309912599623203277587890625</LatitudeDegrees>
              <LongitudeDegrees>-2.44847704656422138214111328125</LongitudeDegrees>
            </Position>
            <AltitudeMeters>435.79998779296875</AltitudeMeters>
            <DistanceMeters>274120.98282983</DistanceMeters>
          </Trackpoint>
          <Trackpoint>
            <Time>2021-07-30T11:12:50.000Z</Time>
            <Position>
              <LatitudeDegrees>42.4532386846840381622314453125</LatitudeDegrees>
              <LongitudeDegrees>-2.4484493024647235870361328125</LongitudeDegrees>
            </Position>
            <AltitudeMeters>435.399993896484375</AltitudeMeters>
            <DistanceMeters>274136.68209435</DistanceMeters>
          </Trackpoint>
          <Trackpoint>
            <Time>2021-07-30T11:13:13.000Z</Time>
            <Position>
              <LatitudeDegrees>42.4536607973277568817138671875</LatitudeDegrees>
              <LongitudeDegrees>-2.4480456300079822540283203125</LongitudeDegrees>
            </Position>
            <AltitudeMeters>435.20001220703125</AltitudeMeters>
            <DistanceMeters>274194.18197321</DistanceMeters>
          </Trackpoint>
          <Trackpoint>
            <Time>2021-07-30T11:13:17.000Z</Time>
            <Position>
              <LatitudeDegrees>42.4538384936749935150146484375</LatitudeDegrees>
              <LongitudeDegrees>-2.44810421951115131378173828125</LongitudeDegrees>
            </Position>
            <AltitudeMeters>434.79998779296875</AltitudeMeters>
            <DistanceMeters>274214.53677528</DistanceMeters>
          </Trackpoint>
          <Trackpoint>
            <Time>2021-07-30T11:13:22.000Z</Time>
            <Position>
              <LatitudeDegrees>42.45407612062990665435791015625</LatitudeDegrees>
              <LongitudeDegrees>-2.4481737054884433746337890625</LongitudeDegrees>
            </Position>
            <AltitudeMeters>433.600006103515625</AltitudeMeters>
            <DistanceMeters>274241.59353594</DistanceMeters>
          </Trackpoint>
          <Trackpoint>
            <Time>2021-07-30T11:13:33.000Z</Time>
            <Position>
              <LatitudeDegrees>42.4546206928789615631103515625</LatitudeDegrees>
              <LongitudeDegrees>-2.4480057321488857269287109375</LongitudeDegrees>
            </Position>
            <AltitudeMeters>432.79998779296875</AltitudeMeters>
            <DistanceMeters>274303.75531762</DistanceMeters>
          </Trackpoint>
          <Trackpoint>
            <Time>2021-07-30T11:13:38.000Z</Time>
            <Position>
              <LatitudeDegrees>42.454775758087635040283203125</LatitudeDegrees>
              <LongitudeDegrees>-2.44792920537292957305908203125</LongitudeDegrees>
            </Position>
            <AltitudeMeters>432.600006103515625</AltitudeMeters>
            <DistanceMeters>274322.1227795</DistanceMeters>
          </Trackpoint>
          <Trackpoint>
            <Time>2021-07-30T11:13:42.000Z</Time>
            <Position>
              <LatitudeDegrees>42.4549328349530696868896484375</LatitudeDegrees>
              <LongitudeDegrees>-2.4478605575859546661376953125</LongitudeDegrees>
            </Position>
            <AltitudeMeters>431.600006103515625</AltitudeMeters>
            <DistanceMeters>274340.49196202</DistanceMeters>
          </Trackpoint>
          <Trackpoint>
            <Time>2021-07-30T11:13:50.000Z</Time>
            <Position>
              <LatitudeDegrees>42.45524405501782894134521484375</LatitudeDegrees>
              <LongitudeDegrees>-2.44781143963336944580078125</LongitudeDegrees>
            </Position>
            <AltitudeMeters>432.600006103515625</AltitudeMeters>
            <DistanceMeters>274375.36534206</DistanceMeters>
          </Trackpoint>
          <Trackpoint>
            <Time>2021-07-30T11:13:55.000Z</Time>
            <Position>
              <LatitudeDegrees>42.45533533394336700439453125</LatitudeDegrees>
              <LongitudeDegrees>-2.44779056869447231292724609375</LongitudeDegrees>
            </Position>
            <AltitudeMeters>433.399993896484375</AltitudeMeters>
            <DistanceMeters>274385.66862206</DistanceMeters>
          </Trackpoint>
          <Trackpoint>
            <Time>2021-07-30T11:14:05.000Z</Time>
            <Position>
              <LatitudeDegrees>42.45536559261381626129150390625</LatitudeDegrees>
              <LongitudeDegrees>-2.44777397252619266510009765625</LongitudeDegrees>
            </Position>
            <AltitudeMeters>432.79998779296875</AltitudeMeters>
            <DistanceMeters>274389.30207382</DistanceMeters>
          </Trackpoint>
          <Trackpoint>
            <Time>2021-07-30T11:14:11.000Z</Time>
            <Position>
              <LatitudeDegrees>42.4554808437824249267578125</LatitudeDegrees>
              <LongitudeDegrees>-2.4477274529635906219482421875</LongitudeDegrees>
            </Position>
            <AltitudeMeters>432.20001220703125</AltitudeMeters>
            <DistanceMeters>274402.68668015</DistanceMeters>
          </Trackpoint>
          <Trackpoint>
            <Time>2021-07-30T11:14:12.000Z</Time>
            <Position>
              <LatitudeDegrees>42.4555044807493686676025390625</LatitudeDegrees>
              <LongitudeDegrees>-2.4477130360901355743408203125</LongitudeDegrees>
            </Position>
            <AltitudeMeters>432.20001220703125</AltitudeMeters>
            <DistanceMeters>274405.57211435</DistanceMeters>
          </Trackpoint>
          <Trackpoint>
            <Time>2021-07-30T11:14:29.000Z</Time>
            <Position>
              <LatitudeDegrees>42.455672957003116607666015625</LatitudeDegrees>
              <LongitudeDegrees>-2.44724758900701999664306640625</LongitudeDegrees>
            </Position>
            <AltitudeMeters>431.79998779296875</AltitudeMeters>
            <DistanceMeters>274448.14609741</DistanceMeters>
          </Trackpoint>
          <Trackpoint>
            <Time>2021-07-30T11:14:41.000Z</Time>
            <Position>
              <LatitudeDegrees>42.45555787347257137298583984375</LatitudeDegrees>
              <LongitudeDegrees>-2.44659782387316226959228515625</LongitudeDegrees>
            </Position>
            <AltitudeMeters>430.79998779296875</AltitudeMeters>
            <DistanceMeters>274503.01989053</DistanceMeters>
          </Trackpoint>
          <Trackpoint>
            <Time>2021-07-30T11:14:46.000Z</Time>
            <Position>
              <LatitudeDegrees>42.45550842024385929107666015625</LatitudeDegrees>
              <LongitudeDegrees>-2.44630462490022182464599609375</LongitudeDegrees>
            </Position>
            <AltitudeMeters>429.600006103515625</AltitudeMeters>
            <DistanceMeters>274527.71806301</DistanceMeters>
          </Trackpoint>
          <Trackpoint>
            <Time>2021-07-30T11:14:52.000Z</Time>
            <Position>
              <LatitudeDegrees>42.45549852959811687469482421875</LatitudeDegrees>
              <LongitudeDegrees>-2.4459595419466495513916015625</LongitudeDegrees>
            </Position>
            <AltitudeMeters>429.399993896484375</AltitudeMeters>
            <DistanceMeters>274556.07728899</DistanceMeters>
          </Trackpoint>
          <Trackpoint>
            <Time>2021-07-30T11:14:57.000Z</Time>
            <Position>
              <LatitudeDegrees>42.4556981027126312255859375</LatitudeDegrees>
              <LongitudeDegrees>-2.4458173848688602447509765625</LongitudeDegrees>
            </Position>
            <AltitudeMeters>429</AltitudeMeters>
            <DistanceMeters>274581.1711797</DistanceMeters>
          </Trackpoint>
          <Trackpoint>
            <Time>2021-07-30T11:15:00.000Z</Time>
            <Position>
              <LatitudeDegrees>42.45582860894501209259033203125</LatitudeDegrees>
              <LongitudeDegrees>-2.44576633907854557037353515625</LongitudeDegrees>
            </Position>
            <AltitudeMeters>428.600006103515625</AltitudeMeters>
            <DistanceMeters>274596.28968805</DistanceMeters>
          </Trackpoint>
          <Trackpoint>
            <Time>2021-07-30T11:15:12.000Z</Time>
            <Position>
              <LatitudeDegrees>42.45633420534431934356689453125</LatitudeDegrees>
              <LongitudeDegrees>-2.44549711234867572784423828125</LongitudeDegrees>
            </Position>
            <AltitudeMeters>427.399993896484375</AltitudeMeters>
            <DistanceMeters>274656.75065444</DistanceMeters>
          </Trackpoint>
          <Trackpoint>
            <Time>2021-07-30T11:15:26.000Z</Time>
            <Position>
              <LatitudeDegrees>42.4568901769816875457763671875</LatitudeDegrees>
              <LongitudeDegrees>-2.4453003890812397003173828125</LongitudeDegrees>
            </Position>
            <AltitudeMeters>428.399993896484375</AltitudeMeters>
            <DistanceMeters>274720.70525697</DistanceMeters>
          </Trackpoint>
          <Trackpoint>
            <Time>2021-07-30T11:15:27.000Z</Time>
            <Position>
              <LatitudeDegrees>42.45692580007016658782958984375</LatitudeDegrees>
              <LongitudeDegrees>-2.44528756476938724517822265625</LongitudeDegrees>
            </Position>
            <AltitudeMeters>428.600006103515625</AltitudeMeters>
            <DistanceMeters>274724.80794664</DistanceMeters>
          </Trackpoint>
          <Trackpoint>
            <Time>2021-07-30T11:15:38.000Z</Time>
            <Position>
              <LatitudeDegrees>42.4572874791920185089111328125</LatitudeDegrees>
              <LongitudeDegrees>-2.44513099081814289093017578125</LongitudeDegrees>
            </Position>
            <AltitudeMeters>429.600006103515625</AltitudeMeters>
            <DistanceMeters>274767.06695796</DistanceMeters>
          </Trackpoint>
          <Trackpoint>
            <Time>2021-07-30T11:15:47.000Z</Time>
            <Position>
              <LatitudeDegrees>42.45765536092221736907958984375</LatitudeDegrees>
              <LongitudeDegrees>-2.445002160966396331787109375</LongitudeDegrees>
            </Position>
            <AltitudeMeters>428.600006103515625</AltitudeMeters>
            <DistanceMeters>274809.35758269</DistanceMeters>
          </Trackpoint>
          <Trackpoint>
            <Time>2021-07-30T11:15:51.000Z</Time>
            <Position>
              <LatitudeDegrees>42.4578812532126903533935546875</LatitudeDegrees>
              <LongitudeDegrees>-2.44490518234670162200927734375</LongitudeDegrees>
            </Position>
            <AltitudeMeters>427.600006103515625</AltitudeMeters>
            <DistanceMeters>274835.7308773</DistanceMeters>
          </Trackpoint>
          <Trackpoint>
            <Time>2021-07-30T11:15:56.000Z</Time>
            <Position>
              <LatitudeDegrees>42.4580799043178558349609375</LatitudeDegrees>
              <LongitudeDegrees>-2.4445865862071514129638671875</LongitudeDegrees>
            </Position>
            <AltitudeMeters>426.399993896484375</AltitudeMeters>
            <DistanceMeters>274869.98428432</DistanceMeters>
          </Trackpoint>
          <Trackpoint>
            <Time>2021-07-30T11:16:06.000Z</Time>
            <Position>
              <LatitudeDegrees>42.45827193371951580047607421875</LatitudeDegrees>
              <LongitudeDegrees>-2.4438934028148651123046875</LongitudeDegrees>
            </Position>
            <AltitudeMeters>426.79998779296875</AltitudeMeters>
            <DistanceMeters>274930.78564068</DistanceMeters>
          </Trackpoint>
          <Trackpoint>
            <Time>2021-07-30T11:16:18.000Z</Time>
            <Position>
              <LatitudeDegrees>42.45834317989647388458251953125</LatitudeDegrees>
              <LongitudeDegrees>-2.44314230047166347503662109375</LongitudeDegrees>
            </Position>
            <AltitudeMeters>426.79998779296875</AltitudeMeters>
            <DistanceMeters>274992.97015254</DistanceMeters>
          </Trackpoint>
          <Trackpoint>
            <Time>2021-07-30T11:16:31.000Z</Time>
            <Position>
              <LatitudeDegrees>42.45841316878795623779296875</LatitudeDegrees>
              <LongitudeDegrees>-2.4423781223595142364501953125</LongitudeDegrees>
            </Position>
            <AltitudeMeters>427</AltitudeMeters>
            <DistanceMeters>275056.20234495</DistanceMeters>
          </Trackpoint>
          <Trackpoint>
            <Time>2021-07-30T11:16:43.000Z</Time>
            <Position>
              <LatitudeDegrees>42.45829674415290355682373046875</LatitudeDegrees>
              <LongitudeDegrees>-2.441781498491764068603515625</LongitudeDegrees>
            </Position>
            <AltitudeMeters>427</AltitudeMeters>
            <DistanceMeters>275106.8790324</DistanceMeters>
          </Trackpoint>
          <Trackpoint>
            <Time>2021-07-30T11:16:53.000Z</Time>
            <Position>
              <LatitudeDegrees>42.45858927257359027862548828125</LatitudeDegrees>
              <LongitudeDegrees>-2.4416499026119709014892578125</LongitudeDegrees>
            </Position>
            <AltitudeMeters>426.20001220703125</AltitudeMeters>
            <DistanceMeters>275141.18433436</DistanceMeters>
          </Trackpoint>
          <Trackpoint>
            <Time>2021-07-30T11:16:55.000Z</Time>
            <Position>
              <LatitudeDegrees>42.45865993201732635498046875</LatitudeDegrees>
              <LongitudeDegrees>-2.44167990982532501220703125</LongitudeDegrees>
            </Position>
            <AltitudeMeters>426</AltitudeMeters>
            <DistanceMeters>275149.42540255</DistanceMeters>
          </Trackpoint>
          <Trackpoint>
            <Time>2021-07-30T11:17:07.000Z</Time>
            <Position>
              <LatitudeDegrees>42.45916008017957210540771484375</LatitudeDegrees>
              <LongitudeDegrees>-2.441540770232677459716796875</LongitudeDegrees>
            </Position>
            <AltitudeMeters>425.399993896484375</AltitudeMeters>
            <DistanceMeters>275206.2532846</DistanceMeters>
          </Trackpoint>
          <Trackpoint>
            <Time>2021-07-30T11:17:20.000Z</Time>
            <Position>
              <LatitudeDegrees>42.4596880562603473663330078125</LatitudeDegrees>
              <LongitudeDegrees>-2.4412871338427066802978515625</LongitudeDegrees>
            </Position>
            <AltitudeMeters>425</AltitudeMeters>
            <DistanceMeters>275268.59964493</DistanceMeters>
          </Trackpoint>
          <Trackpoint>
            <Time>2021-07-30T11:17:28.000Z</Time>
            <Position>
              <LatitudeDegrees>42.4600749649107456207275390625</LatitudeDegrees>
              <LongitudeDegrees>-2.44119870476424694061279296875</LongitudeDegrees>
            </Position>
            <AltitudeMeters>424.399993896484375</AltitudeMeters>
            <DistanceMeters>275312.27121835</DistanceMeters>
          </Trackpoint>
          <Trackpoint>
            <Time>2021-07-30T11:17:41.000Z</Time>
            <Position>
              <LatitudeDegrees>42.46059489436447620391845703125</LatitudeDegrees>
              <LongitudeDegrees>-2.44094020687043666839599609375</LongitudeDegrees>
            </Position>
            <AltitudeMeters>424.399993896484375</AltitudeMeters>
            <DistanceMeters>275373.91030963</DistanceMeters>
          </Trackpoint>
          <Trackpoint>
            <Time>2021-07-30T11:17:46.000Z</Time>
            <Position>
              <LatitudeDegrees>42.46075607836246490478515625</LatitudeDegrees>
              <LongitudeDegrees>-2.4408982135355472564697265625</LongitudeDegrees>
            </Position>
            <AltitudeMeters>424.600006103515625</AltitudeMeters>
            <DistanceMeters>275392.17893288</DistanceMeters>
          </Trackpoint>
          <Trackpoint>
            <Time>2021-07-30T11:18:20.000Z</Time>
            <Position>
              <LatitudeDegrees>42.46088708750903606414794921875</LatitudeDegrees>
              <LongitudeDegrees>-2.44084842503070831298828125</LongitudeDegrees>
            </Position>
            <AltitudeMeters>424.399993896484375</AltitudeMeters>
            <DistanceMeters>275407.32250648</DistanceMeters>
          </Trackpoint>
          <Trackpoint>
            <Time>2021-07-30T11:18:25.000Z</Time>
            <Position>
              <LatitudeDegrees>42.4610244669020175933837890625</LatitudeDegrees>
              <LongitudeDegrees>-2.44073283858597278594970703125</LongitudeDegrees>
            </Position>
            <AltitudeMeters>423.399993896484375</AltitudeMeters>
            <DistanceMeters>275425.31947238</DistanceMeters>
          </Trackpoint>
          <Trackpoint>
            <Time>2021-07-30T11:18:35.000Z</Time>
            <Position>
              <LatitudeDegrees>42.46144138276576995849609375</LatitudeDegrees>
              <LongitudeDegrees>-2.44052312336862087249755859375</LongitudeDegrees>
            </Position>
            <AltitudeMeters>422.399993896484375</AltitudeMeters>
            <DistanceMeters>275474.81516532</DistanceMeters>
          </Trackpoint>
          <Trackpoint>
            <Time>2021-07-30T11:18:43.000Z</Time>
            <Position>
              <LatitudeDegrees>42.46179669164121150970458984375</LatitudeDegrees>
              <LongitudeDegrees>-2.4403909407556056976318359375</LongitudeDegrees>
            </Position>
            <AltitudeMeters>421.20001220703125</AltitudeMeters>
            <DistanceMeters>275515.82422989</DistanceMeters>
          </Trackpoint>
          <Trackpoint>
            <Time>2021-07-30T11:18:44.000Z</Time>
            <Position>
              <LatitudeDegrees>42.46183876879513263702392578125</LatitudeDegrees>
              <LongitudeDegrees>-2.44036973454058170318603515625</LongitudeDegrees>
            </Position>
            <AltitudeMeters>421</AltitudeMeters>
            <DistanceMeters>275520.82014134</DistanceMeters>
          </Trackpoint>
          <Trackpoint>
            <Time>2021-07-30T11:18:51.000Z</Time>
            <Position>
              <LatitudeDegrees>42.4621463008224964141845703125</LatitudeDegrees>
              <LongitudeDegrees>-2.4402259849011898040771484375</LongitudeDegrees>
            </Position>
            <AltitudeMeters>422</AltitudeMeters>
            <DistanceMeters>275557.02694067</DistanceMeters>
          </Trackpoint>
          <Trackpoint>
            <Time>2021-07-30T11:18:54.000Z</Time>
            <Position>
              <LatitudeDegrees>42.46227026917040348052978515625</LatitudeDegrees>
              <LongitudeDegrees>-2.44014912284910678863525390625</LongitudeDegrees>
            </Position>
            <AltitudeMeters>421.79998779296875</AltitudeMeters>
            <DistanceMeters>275572.19970472</DistanceMeters>
          </Trackpoint>
          <Trackpoint>
            <Time>2021-07-30T11:18:58.000Z</Time>
            <Position>
              <LatitudeDegrees>42.46243723668158054351806640625</LatitudeDegrees>
              <LongitudeDegrees>-2.4401005916297435760498046875</LongitudeDegrees>
            </Position>
            <AltitudeMeters>421.79998779296875</AltitudeMeters>
            <DistanceMeters>275591.20576028</DistanceMeters>
          </Trackpoint>
          <Trackpoint>
            <Time>2021-07-30T11:19:10.000Z</Time>
            <Position>
              <LatitudeDegrees>42.4629626981914043426513671875</LatitudeDegrees>
              <LongitudeDegrees>-2.43982725776731967926025390625</LongitudeDegrees>
            </Position>
            <AltitudeMeters>421.600006103515625</AltitudeMeters>
            <DistanceMeters>275653.8490541</DistanceMeters>
          </Trackpoint>
          <Trackpoint>
            <Time>2021-07-30T11:19:23.000Z</Time>
            <Position>
              <LatitudeDegrees>42.463487572968006134033203125</LatitudeDegrees>
              <LongitudeDegrees>-2.4396179616451263427734375</LongitudeDegrees>
            </Position>
            <AltitudeMeters>421</AltitudeMeters>
            <DistanceMeters>275714.74383057</DistanceMeters>
          </Trackpoint>
          <Trackpoint>
            <Time>2021-07-30T11:19:37.000Z</Time>
            <Position>
              <LatitudeDegrees>42.4640362523496150970458984375</LatitudeDegrees>
              <LongitudeDegrees>-2.43940296582877635955810546875</LongitudeDegrees>
            </Position>
            <AltitudeMeters>421.20001220703125</AltitudeMeters>
            <DistanceMeters>275778.31308029</DistanceMeters>
          </Trackpoint>
          <Trackpoint>
            <Time>2021-07-30T11:19:47.000Z</Time>
            <Position>
              <LatitudeDegrees>42.46436842717230319976806640625</LatitudeDegrees>
              <LongitudeDegrees>-2.43926432915031909942626953125</LongitudeDegrees>
            </Position>
            <AltitudeMeters>421.399993896484375</AltitudeMeters>
            <DistanceMeters>275816.99747415</DistanceMeters>
          </Trackpoint>
          <Trackpoint>
            <Time>2021-07-30T11:19:49.000Z</Time>
            <Position>
              <LatitudeDegrees>42.4644107557833194732666015625</LatitudeDegrees>
              <LongitudeDegrees>-2.43927522562444210052490234375</LongitudeDegrees>
            </Position>
            <AltitudeMeters>422</AltitudeMeters>
            <DistanceMeters>275821.79326446</DistanceMeters>
          </Trackpoint>
          <Trackpoint>
            <Time>2021-07-30T11:20:32.000Z</Time>
            <Position>
              <LatitudeDegrees>42.464474625885486602783203125</LatitudeDegrees>
              <LongitudeDegrees>-2.439264915883541107177734375</LongitudeDegrees>
            </Position>
            <AltitudeMeters>421.399993896484375</AltitudeMeters>
            <DistanceMeters>275828.95250422</DistanceMeters>
          </Trackpoint>
          <Trackpoint>
            <Time>2021-07-30T11:20:48.000Z</Time>
            <Position>
              <LatitudeDegrees>42.46500629000365734100341796875</LatitudeDegrees>
              <LongitudeDegrees>-2.4390163086354732513427734375</LongitudeDegrees>
            </Position>
            <AltitudeMeters>421</AltitudeMeters>
            <DistanceMeters>275891.54936429</DistanceMeters>
          </Trackpoint>
          <Trackpoint>
            <Time>2021-07-30T11:20:52.000Z</Time>
            <Position>
              <LatitudeDegrees>42.46518834494054317474365234375</LatitudeDegrees>
              <LongitudeDegrees>-2.43889443576335906982421875</LongitudeDegrees>
            </Position>
            <AltitudeMeters>420.20001220703125</AltitudeMeters>
            <DistanceMeters>275914.14814752</DistanceMeters>
          </Trackpoint>
          <Trackpoint>
            <Time>2021-07-30T11:21:04.000Z</Time>
            <Position>
              <LatitudeDegrees>42.46574171818792819976806640625</LatitudeDegrees>
              <LongitudeDegrees>-2.43861556984484195709228515625</LongitudeDegrees>
            </Position>
            <AltitudeMeters>420.399993896484375</AltitudeMeters>
            <DistanceMeters>275979.85786652</DistanceMeters>
          </Trackpoint>
          <Trackpoint>
            <Time>2021-07-30T11:21:15.000Z</Time>
            <Position>
              <LatitudeDegrees>42.46623583137989044189453125</LatitudeDegrees>
              <LongitudeDegrees>-2.4383789487183094024658203125</LongitudeDegrees>
            </Position>
            <AltitudeMeters>420</AltitudeMeters>
            <DistanceMeters>276038.18437824</DistanceMeters>
          </Trackpoint>
          <Trackpoint>
            <Time>2021-07-30T11:21:19.000Z</Time>
            <Position>
              <LatitudeDegrees>42.46640824712812900543212890625</LatitudeDegrees>
              <LongitudeDegrees>-2.4383196048438549041748046875</LongitudeDegrees>
            </Position>
            <AltitudeMeters>420</AltitudeMeters>
            <DistanceMeters>276057.98371355</DistanceMeters>
          </Trackpoint>
          <Trackpoint>
            <Time>2021-07-30T11:21:33.000Z</Time>
            <Position>
              <LatitudeDegrees>42.466934882104396820068359375</LatitudeDegrees>
              <LongitudeDegrees>-2.4380795471370220184326171875</LongitudeDegrees>
            </Position>
            <AltitudeMeters>420.20001220703125</AltitudeMeters>
            <DistanceMeters>276119.82427818</DistanceMeters>
          </Trackpoint>
          <Trackpoint>
            <Time>2021-07-30T11:21:50.000Z</Time>
            <Position>
              <LatitudeDegrees>42.46746872551739215850830078125</LatitudeDegrees>
              <LongitudeDegrees>-2.43790327571332454681396484375</LongitudeDegrees>
            </Position>
            <AltitudeMeters>419.20001220703125</AltitudeMeters>
            <DistanceMeters>276180.97919254</DistanceMeters>
          </Trackpoint>
          <Trackpoint>
            <Time>2021-07-30T11:21:56.000Z</Time>
            <Position>
              <LatitudeDegrees>42.46771230362355709075927734375</LatitudeDegrees>
              <LongitudeDegrees>-2.4377824924886226654052734375</LongitudeDegrees>
            </Position>
            <AltitudeMeters>418.79998779296875</AltitudeMeters>
            <DistanceMeters>276209.84651913</DistanceMeters>
          </Trackpoint>
          <Trackpoint>
            <Time>2021-07-30T11:22:02.000Z</Time>
            <Position>
              <LatitudeDegrees>42.4680213443934917449951171875</LatitudeDegrees>
              <LongitudeDegrees>-2.43764025159180164337158203125</LongitudeDegrees>
            </Position>
            <AltitudeMeters>417.79998779296875</AltitudeMeters>
            <DistanceMeters>276246.1718402</DistanceMeters>
          </Trackpoint>
          <Trackpoint>
            <Time>2021-07-30T11:22:05.000Z</Time>
            <Position>
              <LatitudeDegrees>42.46815972961485385894775390625</LatitudeDegrees>
              <LongitudeDegrees>-2.43754000402987003326416015625</LongitudeDegrees>
            </Position>
            <AltitudeMeters>417</AltitudeMeters>
            <DistanceMeters>276263.63556837</DistanceMeters>
          </Trackpoint>
          <Trackpoint>
            <Time>2021-07-30T11:22:06.000Z</Time>
            <Position>
              <LatitudeDegrees>42.4682074226438999176025390625</LatitudeDegrees>
              <LongitudeDegrees>-2.43751108646392822265625</LongitudeDegrees>
            </Position>
            <AltitudeMeters>416.79998779296875</AltitudeMeters>
            <DistanceMeters>276269.45008522</DistanceMeters>
          </Trackpoint>
          <Trackpoint>
            <Time>2021-07-30T11:22:09.000Z</Time>
            <Position>
              <LatitudeDegrees>42.46836525388062000274658203125</LatitudeDegrees>
              <LongitudeDegrees>-2.43748300708830356597900390625</LongitudeDegrees>
            </Position>
            <AltitudeMeters>416.399993896484375</AltitudeMeters>
            <DistanceMeters>276287.16740775</DistanceMeters>
          </Trackpoint>
          <Trackpoint>
            <Time>2021-07-30T11:22:18.000Z</Time>
            <Position>
              <LatitudeDegrees>42.46863028965890407562255859375</LatitudeDegrees>
              <LongitudeDegrees>-2.43791383691132068634033203125</LongitudeDegrees>
            </Position>
            <AltitudeMeters>416.20001220703125</AltitudeMeters>
            <DistanceMeters>276333.22567105</DistanceMeters>
          </Trackpoint>
          <Trackpoint>
            <Time>2021-07-30T11:22:32.000Z</Time>
            <Position>
              <LatitudeDegrees>42.4689255841076374053955078125</LatitudeDegrees>
              <LongitudeDegrees>-2.43849202059209346771240234375</LongitudeDegrees>
            </Position>
            <AltitudeMeters>416.399993896484375</AltitudeMeters>
            <DistanceMeters>276390.96306128</DistanceMeters>
          </Trackpoint>
          <Trackpoint>
            <Time>2021-07-30T11:22:42.000Z</Time>
            <Position>
              <LatitudeDegrees>42.46921987272799015045166015625</LatitudeDegrees>
              <LongitudeDegrees>-2.43864088319242000579833984375</LongitudeDegrees>
            </Position>
            <AltitudeMeters>417.20001220703125</AltitudeMeters>
            <DistanceMeters>276425.92385313</DistanceMeters>
          </Trackpoint>
          <Trackpoint>
            <Time>2021-07-30T11:23:02.000Z</Time>
            <Position>
              <LatitudeDegrees>42.4693570844829082489013671875</LatitudeDegrees>
              <LongitudeDegrees>-2.43877650238573551177978515625</LongitudeDegrees>
            </Position>
            <AltitudeMeters>416.79998779296875</AltitudeMeters>
            <DistanceMeters>276444.8238998</DistanceMeters>
          </Trackpoint>
          <Trackpoint>
            <Time>2021-07-30T11:23:20.000Z</Time>
            <Position>
              <LatitudeDegrees>42.4692749418318271636962890625</LatitudeDegrees>
              <LongitudeDegrees>-2.43952785618603229522705078125</LongitudeDegrees>
            </Position>
            <AltitudeMeters>417</AltitudeMeters>
            <DistanceMeters>276507.18445256</DistanceMeters>
          </Trackpoint>
          <Trackpoint>
            <Time>2021-07-30T11:23:34.000Z</Time>
            <Position>
              <LatitudeDegrees>42.46916036121547222137451171875</LatitudeDegrees>
              <LongitudeDegrees>-2.4402541480958461761474609375</LongitudeDegrees>
            </Position>
            <AltitudeMeters>417</AltitudeMeters>
            <DistanceMeters>276568.16214075</DistanceMeters>
          </Trackpoint>
          <Trackpoint>
            <Time>2021-07-30T11:23:37.000Z</Time>
            <Position>
              <LatitudeDegrees>42.46914736926555633544921875</LatitudeDegrees>
              <LongitudeDegrees>-2.4404087103903293609619140625</LongitudeDegrees>
            </Position>
            <AltitudeMeters>417.399993896484375</AltitudeMeters>
            <DistanceMeters>276580.93395741</DistanceMeters>
          </Trackpoint>
          <Trackpoint>
            <Time>2021-07-30T11:23:40.000Z</Time>
            <Position>
              <LatitudeDegrees>42.46914778836071491241455078125</LatitudeDegrees>
              <LongitudeDegrees>-2.4405676312744617462158203125</LongitudeDegrees>
            </Position>
            <AltitudeMeters>417.20001220703125</AltitudeMeters>
            <DistanceMeters>276593.98137099</DistanceMeters>
          </Trackpoint>
          <Trackpoint>
            <Time>2021-07-30T11:23:51.000Z</Time>
            <Position>
              <LatitudeDegrees>42.46913261711597442626953125</LatitudeDegrees>
              <LongitudeDegrees>-2.44120113551616668701171875</LongitudeDegrees>
            </Position>
            <AltitudeMeters>417</AltitudeMeters>
            <DistanceMeters>276646.02010296</DistanceMeters>
          </Trackpoint>
          <Trackpoint>
            <Time>2021-07-30T11:23:57.000Z</Time>
            <Position>
              <LatitudeDegrees>42.46915902011096477508544921875</LatitudeDegrees>
              <LongitudeDegrees>-2.44154789485037326812744140625</LongitudeDegrees>
            </Position>
            <AltitudeMeters>416.399993896484375</AltitudeMeters>
            <DistanceMeters>276674.64066016</DistanceMeters>
          </Trackpoint>
          <Trackpoint>
            <Time>2021-07-30T11:24:01.000Z</Time>
            <Position>
              <LatitudeDegrees>42.46919095516204833984375</LatitudeDegrees>
              <LongitudeDegrees>-2.44181795977056026458740234375</LongitudeDegrees>
            </Position>
            <AltitudeMeters>415.79998779296875</AltitudeMeters>
            <DistanceMeters>276697.09633937</DistanceMeters>
          </Trackpoint>
          <Trackpoint>
            <Time>2021-07-30T11:24:06.000Z</Time>
            <Position>
              <LatitudeDegrees>42.46916203759610652923583984375</LatitudeDegrees>
              <LongitudeDegrees>-2.4421635456383228302001953125</LongitudeDegrees>
            </Position>
            <AltitudeMeters>415.600006103515625</AltitudeMeters>
            <DistanceMeters>276725.65135316</DistanceMeters>
          </Trackpoint>
          <Trackpoint>
            <Time>2021-07-30T11:24:19.000Z</Time>
            <Position>
              <LatitudeDegrees>42.46901351027190685272216796875</LatitudeDegrees>
              <LongitudeDegrees>-2.44291045702993869781494140625</LongitudeDegrees>
            </Position>
            <AltitudeMeters>417.20001220703125</AltitudeMeters>
            <DistanceMeters>276789.1627618</DistanceMeters>
          </Trackpoint>
          <Trackpoint>
            <Time>2021-07-30T11:24:27.000Z</Time>
            <Position>
              <LatitudeDegrees>42.4689222313463687896728515625</LatitudeDegrees>
              <LongitudeDegrees>-2.44327708147466182708740234375</LongitudeDegrees>
            </Position>
            <AltitudeMeters>416.399993896484375</AltitudeMeters>
            <DistanceMeters>276820.93111765</DistanceMeters>
          </Trackpoint>
          <Trackpoint>
            <Time>2021-07-30T11:24:32.000Z</Time>
            <Position>
              <LatitudeDegrees>42.4688471294939517974853515625</LatitudeDegrees>
              <LongitudeDegrees>-2.44337950833141803741455078125</LongitudeDegrees>
            </Position>
            <AltitudeMeters>416.20001220703125</AltitudeMeters>
            <DistanceMeters>276832.78853264</DistanceMeters>
          </Trackpoint>
          <Trackpoint>
            <Time>2021-07-30T11:24:34.000Z</Time>
            <Position>
              <LatitudeDegrees>42.46884369291365146636962890625</LatitudeDegrees>
              <LongitudeDegrees>-2.44343415834009647369384765625</LongitudeDegrees>
            </Position>
            <AltitudeMeters>416</AltitudeMeters>
            <DistanceMeters>276837.29203702</DistanceMeters>
          </Trackpoint>
          <Trackpoint>
            <Time>2021-07-30T11:24:38.000Z</Time>
            <Position>
              <LatitudeDegrees>42.46880513615906238555908203125</LatitudeDegrees>
              <LongitudeDegrees>-2.443534992635250091552734375</LongitudeDegrees>
            </Position>
            <AltitudeMeters>415.600006103515625</AltitudeMeters>
            <DistanceMeters>276846.6172521</DistanceMeters>
          </Trackpoint>
          <Trackpoint>
            <Time>2021-07-30T11:25:01.000Z</Time>
            <Position>
              <LatitudeDegrees>42.4686183035373687744140625</LatitudeDegrees>
              <LongitudeDegrees>-2.4442435987293720245361328125</LongitudeDegrees>
            </Position>
            <AltitudeMeters>417.20001220703125</AltitudeMeters>
            <DistanceMeters>276908.39952652</DistanceMeters>
          </Trackpoint>
          <Trackpoint>
            <Time>2021-07-30T11:25:16.000Z</Time>
            <Position>
              <LatitudeDegrees>42.46845946647226810455322265625</LatitudeDegrees>
              <LongitudeDegrees>-2.44484919123351573944091796875</LongitudeDegrees>
            </Position>
            <AltitudeMeters>418.20001220703125</AltitudeMeters>
            <DistanceMeters>276961.16913675</DistanceMeters>
          </Trackpoint>
          <Trackpoint>
            <Time>2021-07-30T11:25:37.000Z</Time>
            <Position>
              <LatitudeDegrees>42.4682241864502429962158203125</LatitudeDegrees>
              <LongitudeDegrees>-2.44552745483815670013427734375</LongitudeDegrees>
            </Position>
            <AltitudeMeters>419</AltitudeMeters>
            <DistanceMeters>277022.70596001</DistanceMeters>
          </Trackpoint>
          <Trackpoint>
            <Time>2021-07-30T11:25:42.000Z</Time>
            <Position>
              <LatitudeDegrees>42.468103654682636260986328125</LatitudeDegrees>
              <LongitudeDegrees>-2.44553181342780590057373046875</LongitudeDegrees>
            </Position>
            <AltitudeMeters>419.79998779296875</AltitudeMeters>
            <DistanceMeters>277036.12593931</DistanceMeters>
          </Trackpoint>
          <Trackpoint>
            <Time>2021-07-30T11:26:06.000Z</Time>
            <Position>
              <LatitudeDegrees>42.46757014654576778411865234375</LatitudeDegrees>
              <LongitudeDegrees>-2.4453889019787311553955078125</LongitudeDegrees>
            </Position>
            <AltitudeMeters>421</AltitudeMeters>
            <DistanceMeters>277096.65452516</DistanceMeters>
          </Trackpoint>
          <Trackpoint>
            <Time>2021-07-30T11:26:13.000Z</Time>
            <Position>
              <LatitudeDegrees>42.46738557703793048858642578125</LatitudeDegrees>
              <LongitudeDegrees>-2.4452732317149639129638671875</LongitudeDegrees>
            </Position>
            <AltitudeMeters>421</AltitudeMeters>
            <DistanceMeters>277119.28644943</DistanceMeters>
          </Trackpoint>
          <Trackpoint>
            <Time>2021-07-30T11:26:31.000Z</Time>
            <Position>
              <LatitudeDegrees>42.46720067225396633148193359375</LatitudeDegrees>
              <LongitudeDegrees>-2.44545687921345233917236328125</LongitudeDegrees>
            </Position>
            <AltitudeMeters>422.20001220703125</AltitudeMeters>
            <DistanceMeters>277144.79913138</DistanceMeters>
          </Trackpoint>
          <Trackpoint>
            <Time>2021-07-30T11:26:35.000Z</Time>
            <Position>
              <LatitudeDegrees>42.467080391943454742431640625</LatitudeDegrees>
              <LongitudeDegrees>-2.44560532271862030029296875</LongitudeDegrees>
            </Position>
            <AltitudeMeters>422</AltitudeMeters>
            <DistanceMeters>277162.90365332</DistanceMeters>
          </Trackpoint>
          <Trackpoint>
            <Time>2021-07-30T11:26:58.000Z</Time>
            <Position>
              <LatitudeDegrees>42.4667005240917205810546875</LatitudeDegrees>
              <LongitudeDegrees>-2.44611519388854503631591796875</LongitudeDegrees>
            </Position>
            <AltitudeMeters>422.600006103515625</AltitudeMeters>
            <DistanceMeters>277222.40206396</DistanceMeters>
          </Trackpoint>
          <Trackpoint>
            <Time>2021-07-30T11:27:10.000Z</Time>
            <Position>
              <LatitudeDegrees>42.46668032370507717132568359375</LatitudeDegrees>
              <LongitudeDegrees>-2.446233294904232025146484375</LongitudeDegrees>
            </Position>
            <AltitudeMeters>422</AltitudeMeters>
            <DistanceMeters>277232.35585714</DistanceMeters>
          </Trackpoint>
          <Trackpoint>
            <Time>2021-07-31T11:15:23.000Z</Time>
            <Position>
              <LatitudeDegrees>42.4577669240534305572509765625</LatitudeDegrees>
              <LongitudeDegrees>-2.44146893732249736785888671875</LongitudeDegrees>
            </Position>
            <AltitudeMeters>415</AltitudeMeters>
            <DistanceMeters>278298.77950962</DistanceMeters>
          </Trackpoint>
          <Trackpoint>
            <Time>2021-07-31T11:15:24.000Z</Time>
            <Position>
              <LatitudeDegrees>42.45776700787246227264404296875</LatitudeDegrees>
              <LongitudeDegrees>-2.4414701946079730987548828125</LongitudeDegrees>
            </Position>
            <AltitudeMeters>415.399993896484375</AltitudeMeters>
            <DistanceMeters>278298.77950962</DistanceMeters>
          </Trackpoint>
          <Trackpoint>
            <Time>2021-07-31T11:15:59.000Z</Time>
            <Position>
              <LatitudeDegrees>42.45740759186446666717529296875</LatitudeDegrees>
              <LongitudeDegrees>-2.44138880632817745208740234375</LongitudeDegrees>
            </Position>
            <AltitudeMeters>414.79998779296875</AltitudeMeters>
            <DistanceMeters>278339.33766386</DistanceMeters>
          </Trackpoint>
          <Trackpoint>
            <Time>2021-07-31T11:16:14.000Z</Time>
            <Position>
              <LatitudeDegrees>42.45730851776897907257080078125</LatitudeDegrees>
              <LongitudeDegrees>-2.44060593657195568084716796875</LongitudeDegrees>
            </Position>
            <AltitudeMeters>414.79998779296875</AltitudeMeters>
            <DistanceMeters>278404.56296505</DistanceMeters>
          </Trackpoint>
          <Trackpoint>
            <Time>2021-07-31T11:16:29.000Z</Time>
            <Position>
              <LatitudeDegrees>42.45730617083609104156494140625</LatitudeDegrees>
              <LongitudeDegrees>-2.43984217755496501922607421875</LongitudeDegrees>
            </Position>
            <AltitudeMeters>414.20001220703125</AltitudeMeters>
            <DistanceMeters>278467.28066852</DistanceMeters>
          </Trackpoint>
          <Trackpoint>
            <Time>2021-07-31T11:16:36.000Z</Time>
            <Position>
              <LatitudeDegrees>42.45734372176229953765869140625</LatitudeDegrees>
              <LongitudeDegrees>-2.43945493362843990325927734375</LongitudeDegrees>
            </Position>
            <AltitudeMeters>413.79998779296875</AltitudeMeters>
            <DistanceMeters>278499.35313487</DistanceMeters>
          </Trackpoint>
          <Trackpoint>
            <Time>2021-07-31T11:16:49.000Z</Time>
            <Position>
              <LatitudeDegrees>42.4574021436274051666259765625</LatitudeDegrees>
              <LongitudeDegrees>-2.438709698617458343505859375</LongitudeDegrees>
            </Position>
            <AltitudeMeters>413.399993896484375</AltitudeMeters>
            <DistanceMeters>278560.89362659</DistanceMeters>
          </Trackpoint>
          <Trackpoint>
            <Time>2021-07-31T11:17:03.000Z</Time>
            <Position>
              <LatitudeDegrees>42.45753432624042034149169921875</LatitudeDegrees>
              <LongitudeDegrees>-2.43796546943485736846923828125</LongitudeDegrees>
            </Position>
            <AltitudeMeters>414.20001220703125</AltitudeMeters>
            <DistanceMeters>278623.75291826</DistanceMeters>
          </Trackpoint>
          <Trackpoint>
            <Time>2021-07-31T11:17:12.000Z</Time>
            <Position>
              <LatitudeDegrees>42.45775728486478328704833984375</LatitudeDegrees>
              <LongitudeDegrees>-2.43769339285790920257568359375</LongitudeDegrees>
            </Position>
            <AltitudeMeters>413.79998779296875</AltitudeMeters>
            <DistanceMeters>278657.14422939</DistanceMeters>
          </Trackpoint>
          <Trackpoint>
            <Time>2021-07-31T11:17:16.000Z</Time>
            <Position>
              <LatitudeDegrees>42.45770213194191455841064453125</LatitudeDegrees>
              <LongitudeDegrees>-2.43757420219480991363525390625</LongitudeDegrees>
            </Position>
            <AltitudeMeters>413.79998779296875</AltitudeMeters>
            <DistanceMeters>278668.69769597</DistanceMeters>
          </Trackpoint>
          <Trackpoint>
            <Time>2021-07-31T11:17:31.000Z</Time>
            <Position>
              <LatitudeDegrees>42.45767698623239994049072265625</LatitudeDegrees>
              <LongitudeDegrees>-2.436857633292675018310546875</LongitudeDegrees>
            </Position>
            <AltitudeMeters>414.20001220703125</AltitudeMeters>
            <DistanceMeters>278727.60598178</DistanceMeters>
          </Trackpoint>
          <Trackpoint>
            <Time>2021-07-31T11:17:44.000Z</Time>
            <Position>
              <LatitudeDegrees>42.45773465372622013092041015625</LatitudeDegrees>
              <LongitudeDegrees>-2.43610854260623455047607421875</LongitudeDegrees>
            </Position>
            <AltitudeMeters>413.79998779296875</AltitudeMeters>
            <DistanceMeters>278789.452241</DistanceMeters>
          </Trackpoint>
          <Trackpoint>
            <Time>2021-07-31T11:17:53.000Z</Time>
            <Position>
              <LatitudeDegrees>42.4579560197889804840087890625</LatitudeDegrees>
              <LongitudeDegrees>-2.43591525591909885406494140625</LongitudeDegrees>
            </Position>
            <AltitudeMeters>413.600006103515625</AltitudeMeters>
            <DistanceMeters>278818.76055026</DistanceMeters>
          </Trackpoint>
          <Trackpoint>
            <Time>2021-07-31T11:17:57.000Z</Time>
            <Position>
              <LatitudeDegrees>42.45794621296226978302001953125</LatitudeDegrees>
              <LongitudeDegrees>-2.43576102890074253082275390625</LongitudeDegrees>
            </Position>
            <AltitudeMeters>413.399993896484375</AltitudeMeters>
            <DistanceMeters>278831.47177199</DistanceMeters>
          </Trackpoint>
          <Trackpoint>
            <Time>2021-07-31T11:18:05.000Z</Time>
            <Position>
              <LatitudeDegrees>42.4578068219125270843505859375</LatitudeDegrees>
              <LongitudeDegrees>-2.4354369007050991058349609375</LongitudeDegrees>
            </Position>
            <AltitudeMeters>413.399993896484375</AltitudeMeters>
            <DistanceMeters>278862.27948555</DistanceMeters>
          </Trackpoint>
          <Trackpoint>
            <Time>2021-07-31T11:18:19.000Z</Time>
            <Position>
              <LatitudeDegrees>42.45786541141569614410400390625</LatitudeDegrees>
              <LongitudeDegrees>-2.43468915112316608428955078125</LongitudeDegrees>
            </Position>
            <AltitudeMeters>412.79998779296875</AltitudeMeters>
            <DistanceMeters>278924.02681794</DistanceMeters>
          </Trackpoint>
          <Trackpoint>
            <Time>2021-07-31T11:18:26.000Z</Time>
            <Position>
              <LatitudeDegrees>42.4578772298991680145263671875</LatitudeDegrees>
              <LongitudeDegrees>-2.43428966961801052093505859375</LongitudeDegrees>
            </Position>
            <AltitudeMeters>412.79998779296875</AltitudeMeters>
            <DistanceMeters>278956.85686308</DistanceMeters>
          </Trackpoint>
          <Trackpoint>
            <Time>2021-07-31T11:18:28.000Z</Time>
            <Position>
              <LatitudeDegrees>42.45786038227379322052001953125</LatitudeDegrees>
              <LongitudeDegrees>-2.43416595272719860076904296875</LongitudeDegrees>
            </Position>
            <AltitudeMeters>412.399993896484375</AltitudeMeters>
            <DistanceMeters>278967.1872766</DistanceMeters>
          </Trackpoint>
          <Trackpoint>
            <Time>2021-07-31T11:18:32.000Z</Time>
            <Position>
              <LatitudeDegrees>42.4577833525836467742919921875</LatitudeDegrees>
              <LongitudeDegrees>-2.43391868658363819122314453125</LongitudeDegrees>
            </Position>
            <AltitudeMeters>411.600006103515625</AltitudeMeters>
            <DistanceMeters>278989.22753436</DistanceMeters>
          </Trackpoint>
          <Trackpoint>
            <Time>2021-07-31T11:18:36.000Z</Time>
            <Position>
              <LatitudeDegrees>42.45767262764275074005126953125</LatitudeDegrees>
              <LongitudeDegrees>-2.4336907826364040374755859375</LongitudeDegrees>
            </Position>
            <AltitudeMeters>410.600006103515625</AltitudeMeters>
            <DistanceMeters>279011.63530914</DistanceMeters>
          </Trackpoint>
          <Trackpoint>
            <Time>2021-07-31T11:18:49.000Z</Time>
            <Position>
              <LatitudeDegrees>42.45739954523742198944091796875</LatitudeDegrees>
              <LongitudeDegrees>-2.4331882037222385406494140625</LongitudeDegrees>
            </Position>
            <AltitudeMeters>411.600006103515625</AltitudeMeters>
            <DistanceMeters>279062.88986834</DistanceMeters>
          </Trackpoint>
          <Trackpoint>
            <Time>2021-07-31T11:18:58.000Z</Time>
            <Position>
              <LatitudeDegrees>42.45715009979903697967529296875</LatitudeDegrees>
              <LongitudeDegrees>-2.43306641466915607452392578125</LongitudeDegrees>
            </Position>
            <AltitudeMeters>411.399993896484375</AltitudeMeters>
            <DistanceMeters>279092.39990921</DistanceMeters>
          </Trackpoint>
          <Trackpoint>
            <Time>2021-07-31T11:19:12.000Z</Time>
            <Position>
              <LatitudeDegrees>42.45684751309454441070556640625</LatitudeDegrees>
              <LongitudeDegrees>-2.43241145275533199310302734375</LongitudeDegrees>
            </Position>
            <AltitudeMeters>411.79998779296875</AltitudeMeters>
            <DistanceMeters>279155.85783551</DistanceMeters>
          </Trackpoint>
          <Trackpoint>
            <Time>2021-07-31T11:19:23.000Z</Time>
            <Position>
              <LatitudeDegrees>42.45662757195532321929931640625</LatitudeDegrees>
              <LongitudeDegrees>-2.43195329792797565460205078125</LongitudeDegrees>
            </Position>
            <AltitudeMeters>412</AltitudeMeters>
            <DistanceMeters>279200.74334971</DistanceMeters>
          </Trackpoint>
          <Trackpoint>
            <Time>2021-07-31T11:19:34.000Z</Time>
            <Position>
              <LatitudeDegrees>42.45637058280408382415771484375</LatitudeDegrees>
              <LongitudeDegrees>-2.43169496767222881317138671875</LongitudeDegrees>
            </Position>
            <AltitudeMeters>411.79998779296875</AltitudeMeters>
            <DistanceMeters>279236.35466639</DistanceMeters>
          </Trackpoint>
          <Trackpoint>
            <Time>2021-07-31T11:19:47.000Z</Time>
            <Position>
              <LatitudeDegrees>42.456155084073543548583984375</LatitudeDegrees>
              <LongitudeDegrees>-2.4310239963233470916748046875</LongitudeDegrees>
            </Position>
            <AltitudeMeters>411.600006103515625</AltitudeMeters>
            <DistanceMeters>279296.44770027</DistanceMeters>
          </Trackpoint>
          <Trackpoint>
            <Time>2021-07-31T11:20:00.000Z</Time>
            <Position>
              <LatitudeDegrees>42.45586984790861606597900390625</LatitudeDegrees>
              <LongitudeDegrees>-2.43037750013172626495361328125</LongitudeDegrees>
            </Position>
            <AltitudeMeters>412</AltitudeMeters>
            <DistanceMeters>279358.30505514</DistanceMeters>
          </Trackpoint>
          <Trackpoint>
            <Time>2021-07-31T11:20:14.000Z</Time>
            <Position>
              <LatitudeDegrees>42.45557245798408985137939453125</LatitudeDegrees>
              <LongitudeDegrees>-2.42970912717282772064208984375</LongitudeDegrees>
            </Position>
            <AltitudeMeters>412.20001220703125</AltitudeMeters>
            <DistanceMeters>279422.3992884</DistanceMeters>
          </Trackpoint>
          <Trackpoint>
            <Time>2021-07-31T11:20:26.000Z</Time>
            <Position>
              <LatitudeDegrees>42.45533290319144725799560546875</LatitudeDegrees>
              <LongitudeDegrees>-2.42915608920156955718994140625</LongitudeDegrees>
            </Position>
            <AltitudeMeters>413.399993896484375</AltitudeMeters>
            <DistanceMeters>279475.06252423</DistanceMeters>
          </Trackpoint>
          <Trackpoint>
            <Time>2021-07-31T11:20:32.000Z</Time>
            <Position>
              <LatitudeDegrees>42.45522092096507549285888671875</LatitudeDegrees>
              <LongitudeDegrees>-2.42893279530107975006103515625</LongitudeDegrees>
            </Position>
            <AltitudeMeters>414.399993896484375</AltitudeMeters>
            <DistanceMeters>279497.23411194</DistanceMeters>
          </Trackpoint>
          <Trackpoint>
            <Time>2021-07-31T11:20:41.000Z</Time>
            <Position>
              <LatitudeDegrees>42.45496426708996295928955078125</LatitudeDegrees>
              <LongitudeDegrees>-2.42877672426402568817138671875</LongitudeDegrees>
            </Position>
            <AltitudeMeters>415.79998779296875</AltitudeMeters>
            <DistanceMeters>279528.54364784</DistanceMeters>
          </Trackpoint>
          <Trackpoint>
            <Time>2021-07-31T11:20:51.000Z</Time>
            <Position>
              <LatitudeDegrees>42.45476410724222660064697265625</LatitudeDegrees>
              <LongitudeDegrees>-2.428384535014629364013671875</LongitudeDegrees>
            </Position>
            <AltitudeMeters>416.79998779296875</AltitudeMeters>
            <DistanceMeters>279567.70468604</DistanceMeters>
          </Trackpoint>
          <Trackpoint>
            <Time>2021-07-31T11:20:55.000Z</Time>
            <Position>
              <LatitudeDegrees>42.4547702260315418243408203125</LatitudeDegrees>
              <LongitudeDegrees>-2.42817155085504055023193359375</LongitudeDegrees>
            </Position>
            <AltitudeMeters>417</AltitudeMeters>
            <DistanceMeters>279585.20818379</DistanceMeters>
          </Trackpoint>
          <Trackpoint>
            <Time>2021-07-31T11:21:00.000Z</Time>
            <Position>
              <LatitudeDegrees>42.45467190630733966827392578125</LatitudeDegrees>
              <LongitudeDegrees>-2.427938617765903472900390625</LongitudeDegrees>
            </Position>
            <AltitudeMeters>416.20001220703125</AltitudeMeters>
            <DistanceMeters>279607.24577829</DistanceMeters>
          </Trackpoint>
          <Trackpoint>
            <Time>2021-07-31T11:21:15.000Z</Time>
            <Position>
              <LatitudeDegrees>42.4543621949851512908935546875</LatitudeDegrees>
              <LongitudeDegrees>-2.4273084662854671478271484375</LongitudeDegrees>
            </Position>
            <AltitudeMeters>417.399993896484375</AltitudeMeters>
            <DistanceMeters>279669.42419085</DistanceMeters>
          </Trackpoint>
          <Trackpoint>
            <Time>2021-07-31T11:21:25.000Z</Time>
            <Position>
              <LatitudeDegrees>42.45413906872272491455078125</LatitudeDegrees>
              <LongitudeDegrees>-2.42685290984809398651123046875</LongitudeDegrees>
            </Position>
            <AltitudeMeters>417.399993896484375</AltitudeMeters>
            <DistanceMeters>279714.32730488</DistanceMeters>
          </Trackpoint>
          <Trackpoint>
            <Time>2021-07-31T11:21:38.000Z</Time>
            <Position>
              <LatitudeDegrees>42.45389540679752826690673828125</LatitudeDegrees>
              <LongitudeDegrees>-2.42632535286247730255126953125</LongitudeDegrees>
            </Position>
            <AltitudeMeters>418</AltitudeMeters>
            <DistanceMeters>279765.43904663</DistanceMeters>
          </Trackpoint>
          <Trackpoint>
            <Time>2021-07-31T11:21:51.000Z</Time>
            <Position>
              <LatitudeDegrees>42.4536259286105632781982421875</LatitudeDegrees>
              <LongitudeDegrees>-2.42600399069488048553466796875</LongitudeDegrees>
            </Position>
            <AltitudeMeters>417.600006103515625</AltitudeMeters>
            <DistanceMeters>279805.38995453</DistanceMeters>
          </Trackpoint>
          <Trackpoint>
            <Time>2021-07-31T11:22:00.000Z</Time>
            <Position>
              <LatitudeDegrees>42.453313954174518585205078125</LatitudeDegrees>
              <LongitudeDegrees>-2.42557399906218051910400390625</LongitudeDegrees>
            </Position>
            <AltitudeMeters>417.399993896484375</AltitudeMeters>
            <DistanceMeters>279854.91400901</DistanceMeters>
          </Trackpoint>
          <Trackpoint>
            <Time>2021-07-31T11:22:05.000Z</Time>
            <Position>
              <LatitudeDegrees>42.45325201191008090972900390625</LatitudeDegrees>
              <LongitudeDegrees>-2.4252440035343170166015625</LongitudeDegrees>
            </Position>
            <AltitudeMeters>417.600006103515625</AltitudeMeters>
            <DistanceMeters>279882.87706284</DistanceMeters>
          </Trackpoint>
          <Trackpoint>
            <Time>2021-07-31T11:22:06.000Z</Time>
            <Position>
              <LatitudeDegrees>42.4532534368336200714111328125</LatitudeDegrees>
              <LongitudeDegrees>-2.425171919167041778564453125</LongitudeDegrees>
            </Position>
            <AltitudeMeters>417.600006103515625</AltitudeMeters>
            <DistanceMeters>279888.79929358</DistanceMeters>
          </Trackpoint>
          <Trackpoint>
            <Time>2021-07-31T11:22:18.000Z</Time>
            <Position>
              <LatitudeDegrees>42.45298462919890880584716796875</LatitudeDegrees>
              <LongitudeDegrees>-2.424500696361064910888671875</LongitudeDegrees>
            </Position>
            <AltitudeMeters>418.20001220703125</AltitudeMeters>
            <DistanceMeters>279951.51757297</DistanceMeters>
          </Trackpoint>
          <Trackpoint>
            <Time>2021-07-31T11:22:33.000Z</Time>
            <Position>
              <LatitudeDegrees>42.45265572331845760345458984375</LatitudeDegrees>
              <LongitudeDegrees>-2.4239070899784564971923828125</LongitudeDegrees>
            </Position>
            <AltitudeMeters>418.399993896484375</AltitudeMeters>
            <DistanceMeters>280012.48096897</DistanceMeters>
          </Trackpoint>
          <Trackpoint>
            <Time>2021-07-31T11:22:37.000Z</Time>
            <Position>
              <LatitudeDegrees>42.4526445753872394561767578125</LatitudeDegrees>
              <LongitudeDegrees>-2.42369561456143856048583984375</LongitudeDegrees>
            </Position>
            <AltitudeMeters>418.399993896484375</AltitudeMeters>
            <DistanceMeters>280029.89239414</DistanceMeters>
          </Trackpoint>
          <Trackpoint>
            <Time>2021-07-31T11:22:38.000Z</Time>
            <Position>
              <LatitudeDegrees>42.45264046825468540191650390625</LatitudeDegrees>
              <LongitudeDegrees>-2.4236412160098552703857421875</LongitudeDegrees>
            </Position>
            <AltitudeMeters>418.399993896484375</AltitudeMeters>
            <DistanceMeters>280034.38284631</DistanceMeters>
          </Trackpoint>
          <Trackpoint>
            <Time>2021-07-31T11:22:47.000Z</Time>
            <Position>
              <LatitudeDegrees>42.45250518433749675750732421875</LatitudeDegrees>
              <LongitudeDegrees>-2.4231292493641376495361328125</LongitudeDegrees>
            </Position>
            <AltitudeMeters>417.399993896484375</AltitudeMeters>
            <DistanceMeters>280079.0418637</DistanceMeters>
          </Trackpoint>
          <Trackpoint>
            <Time>2021-07-31T11:22:56.000Z</Time>
            <Position>
              <LatitudeDegrees>42.45242488570511341094970703125</LatitudeDegrees>
              <LongitudeDegrees>-2.4228268302977085113525390625</LongitudeDegrees>
            </Position>
            <AltitudeMeters>416.399993896484375</AltitudeMeters>
            <DistanceMeters>280105.43637823</DistanceMeters>
          </Trackpoint>
          <Trackpoint>
            <Time>2021-07-31T11:22:59.000Z</Time>
            <Position>
              <LatitudeDegrees>42.45240812189877033233642578125</LatitudeDegrees>
              <LongitudeDegrees>-2.422681152820587158203125</LongitudeDegrees>
            </Position>
            <AltitudeMeters>415.20001220703125</AltitudeMeters>
            <DistanceMeters>280117.54473572</DistanceMeters>
          </Trackpoint>
          <Trackpoint>
            <Time>2021-07-31T11:23:00.000Z</Time>
            <Position>
              <LatitudeDegrees>42.4524065293371677398681640625</LatitudeDegrees>
              <LongitudeDegrees>-2.42262507788836956024169921875</LongitudeDegrees>
            </Position>
            <AltitudeMeters>414.79998779296875</AltitudeMeters>
            <DistanceMeters>280122.15328645</DistanceMeters>
          </Trackpoint>
          <Trackpoint>
            <Time>2021-07-31T11:23:05.000Z</Time>
            <Position>
              <LatitudeDegrees>42.45252580381929874420166015625</LatitudeDegrees>
              <LongitudeDegrees>-2.422443442046642303466796875</LongitudeDegrees>
            </Position>
            <AltitudeMeters>414.600006103515625</AltitudeMeters>
            <DistanceMeters>280142.12156268</DistanceMeters>
          </Trackpoint>
          <Trackpoint>
            <Time>2021-07-31T11:23:14.000Z</Time>
            <Position>
              <LatitudeDegrees>42.4527106247842311859130859375</LatitudeDegrees>
              <LongitudeDegrees>-2.42222827859222888946533203125</LongitudeDegrees>
            </Position>
            <AltitudeMeters>415.600006103515625</AltitudeMeters>
            <DistanceMeters>280169.23949651</DistanceMeters>
          </Trackpoint>
          <Trackpoint>
            <Time>2021-07-31T11:23:19.000Z</Time>
            <Position>
              <LatitudeDegrees>42.45263644494116306304931640625</LatitudeDegrees>
              <LongitudeDegrees>-2.42207773961126804351806640625</LongitudeDegrees>
            </Position>
            <AltitudeMeters>415.20001220703125</AltitudeMeters>
            <DistanceMeters>280184.10563558</DistanceMeters>
          </Trackpoint>
          <Trackpoint>
            <Time>2021-07-31T11:23:21.000Z</Time>
            <Position>
              <LatitudeDegrees>42.4525664560496807098388671875</LatitudeDegrees>
              <LongitudeDegrees>-2.4219500832259654998779296875</LongitudeDegrees>
            </Position>
            <AltitudeMeters>413.20001220703125</AltitudeMeters>
            <DistanceMeters>280197.16653808</DistanceMeters>
          </Trackpoint>
          <Trackpoint>
            <Time>2021-07-31T11:23:23.000Z</Time>
            <Position>
              <LatitudeDegrees>42.45247936807572841644287109375</LatitudeDegrees>
              <LongitudeDegrees>-2.4217743985354900360107421875</LongitudeDegrees>
            </Position>
            <AltitudeMeters>411</AltitudeMeters>
            <DistanceMeters>280214.54837624</DistanceMeters>
          </Trackpoint>
          <Trackpoint>
            <Time>2021-07-31T11:23:24.000Z</Time>
            <Position>
              <LatitudeDegrees>42.45243276469409465789794921875</LatitudeDegrees>
              <LongitudeDegrees>-2.42167406715452671051025390625</LongitudeDegrees>
            </Position>
            <AltitudeMeters>409.20001220703125</AltitudeMeters>
            <DistanceMeters>280224.28478946</DistanceMeters>
          </Trackpoint>
          <Trackpoint>
            <Time>2021-07-31T11:23:26.000Z</Time>
            <Position>
              <LatitudeDegrees>42.4523471854627132415771484375</LatitudeDegrees>
              <LongitudeDegrees>-2.4214874021708965301513671875</LongitudeDegrees>
            </Position>
            <AltitudeMeters>407.600006103515625</AltitudeMeters>
            <DistanceMeters>280242.33236152</DistanceMeters>
          </Trackpoint>
          <Trackpoint>
            <Time>2021-07-31T11:23:33.000Z</Time>
            <Position>
              <LatitudeDegrees>42.45213755406439304351806640625</LatitudeDegrees>
              <LongitudeDegrees>-2.420989684760570526123046875</LongitudeDegrees>
            </Position>
            <AltitudeMeters>406.79998779296875</AltitudeMeters>
            <DistanceMeters>280289.39706998</DistanceMeters>
          </Trackpoint>
          <Trackpoint>
            <Time>2021-07-31T11:23:40.000Z</Time>
            <Position>
              <LatitudeDegrees>42.45203579775989055633544921875</LatitudeDegrees>
              <LongitudeDegrees>-2.42072842083871364593505859375</LongitudeDegrees>
            </Position>
            <AltitudeMeters>405.79998779296875</AltitudeMeters>
            <DistanceMeters>280313.65886223</DistanceMeters>
          </Trackpoint>
          <Trackpoint>
            <Time>2021-07-31T11:23:41.000Z</Time>
            <Position>
              <LatitudeDegrees>42.45200159959495067596435546875</LatitudeDegrees>
              <LongitudeDegrees>-2.420720793306827545166015625</LongitudeDegrees>
            </Position>
            <AltitudeMeters>405.600006103515625</AltitudeMeters>
            <DistanceMeters>280317.51769574</DistanceMeters>
          </Trackpoint>
          <Trackpoint>
            <Time>2021-07-31T11:23:59.000Z</Time>
            <Position>
              <LatitudeDegrees>42.45164302177727222442626953125</LatitudeDegrees>
              <LongitudeDegrees>-2.4211960472166538238525390625</LongitudeDegrees>
            </Position>
            <AltitudeMeters>406</AltitudeMeters>
            <DistanceMeters>280373.34020875</DistanceMeters>
          </Trackpoint>
          <Trackpoint>
            <Time>2021-07-31T11:24:15.000Z</Time>
            <Position>
              <LatitudeDegrees>42.45129718445241451263427734375</LatitudeDegrees>
              <LongitudeDegrees>-2.42176853120326995849609375</LongitudeDegrees>
            </Position>
            <AltitudeMeters>406.79998779296875</AltitudeMeters>
            <DistanceMeters>280434.1024181</DistanceMeters>
          </Trackpoint>
          <Trackpoint>
            <Time>2021-07-31T11:24:22.000Z</Time>
            <Position>
              <LatitudeDegrees>42.4511505849659442901611328125</LatitudeDegrees>
              <LongitudeDegrees>-2.42199677042663097381591796875</LongitudeDegrees>
            </Position>
            <AltitudeMeters>407.20001220703125</AltitudeMeters>
            <DistanceMeters>280458.9534937</DistanceMeters>
          </Trackpoint>
          <Trackpoint>
            <Time>2021-07-31T11:24:40.000Z</Time>
            <Position>
              <LatitudeDegrees>42.45070450007915496826171875</LatitudeDegrees>
              <LongitudeDegrees>-2.42241502739489078521728515625</LongitudeDegrees>
            </Position>
            <AltitudeMeters>408.600006103515625</AltitudeMeters>
            <DistanceMeters>280519.32739879</DistanceMeters>
          </Trackpoint>
          <Trackpoint>
            <Time>2021-07-31T11:24:41.000Z</Time>
            <Position>
              <LatitudeDegrees>42.4506838805973529815673828125</LatitudeDegrees>
              <LongitudeDegrees>-2.42244218476116657257080078125</LongitudeDegrees>
            </Position>
            <AltitudeMeters>408.600006103515625</AltitudeMeters>
            <DistanceMeters>280522.52741546</DistanceMeters>
          </Trackpoint>
          <Trackpoint>
            <Time>2021-07-31T11:24:56.000Z</Time>
            <Position>
              <LatitudeDegrees>42.45026528835296630859375</LatitudeDegrees>
              <LongitudeDegrees>-2.422879301011562347412109375</LongitudeDegrees>
            </Position>
            <AltitudeMeters>409.20001220703125</AltitudeMeters>
            <DistanceMeters>280581.34350157</DistanceMeters>
          </Trackpoint>
          <Trackpoint>
            <Time>2021-07-31T11:25:07.000Z</Time>
            <Position>
              <LatitudeDegrees>42.44993914850056171417236328125</LatitudeDegrees>
              <LongitudeDegrees>-2.4231205321848392486572265625</LongitudeDegrees>
            </Position>
            <AltitudeMeters>410</AltitudeMeters>
            <DistanceMeters>280622.69792234</DistanceMeters>
          </Trackpoint>
          <Trackpoint>
            <Time>2021-07-31T11:25:12.000Z</Time>
            <Position>
              <LatitudeDegrees>42.44976681657135486602783203125</LatitudeDegrees>
              <LongitudeDegrees>-2.42324919439852237701416015625</LongitudeDegrees>
            </Position>
            <AltitudeMeters>410</AltitudeMeters>
            <DistanceMeters>280644.5969931</DistanceMeters>
          </Trackpoint>
          <Trackpoint>
            <Time>2021-07-31T11:25:26.000Z</Time>
            <Position>
              <LatitudeDegrees>42.449312098324298858642578125</LatitudeDegrees>
              <LongitudeDegrees>-2.42370240390300750732421875</LongitudeDegrees>
            </Position>
            <AltitudeMeters>410.20001220703125</AltitudeMeters>
            <DistanceMeters>280707.4209356</DistanceMeters>
          </Trackpoint>
          <Trackpoint>
            <Time>2021-07-31T11:25:42.000Z</Time>
            <Position>
              <LatitudeDegrees>42.44877708144485950469970703125</LatitudeDegrees>
              <LongitudeDegrees>-2.42395075969398021697998046875</LongitudeDegrees>
            </Position>
            <AltitudeMeters>411.20001220703125</AltitudeMeters>
            <DistanceMeters>280770.36571593</DistanceMeters>
          </Trackpoint>
          <Trackpoint>
            <Time>2021-07-31T11:25:58.000Z</Time>
            <Position>
              <LatitudeDegrees>42.44825455360114574432373046875</LatitudeDegrees>
              <LongitudeDegrees>-2.42421411909162998199462890625</LongitudeDegrees>
            </Position>
            <AltitudeMeters>411.20001220703125</AltitudeMeters>
            <DistanceMeters>280832.41590476</DistanceMeters>
          </Trackpoint>
          <Trackpoint>
            <Time>2021-07-31T11:26:02.000Z</Time>
            <Position>
              <LatitudeDegrees>42.44811675511300563812255859375</LatitudeDegrees>
              <LongitudeDegrees>-2.4243060685694217681884765625</LongitudeDegrees>
            </Position>
            <AltitudeMeters>409.399993896484375</AltitudeMeters>
            <DistanceMeters>280849.51120804</DistanceMeters>
          </Trackpoint>
          <Trackpoint>
            <Time>2021-07-31T11:26:15.000Z</Time>
            <Position>
              <LatitudeDegrees>42.44761266745626926422119140625</LatitudeDegrees>
              <LongitudeDegrees>-2.424557022750377655029296875</LongitudeDegrees>
            </Position>
            <AltitudeMeters>410.399993896484375</AltitudeMeters>
            <DistanceMeters>280909.28308691</DistanceMeters>
          </Trackpoint>
          <Trackpoint>
            <Time>2021-07-31T11:26:17.000Z</Time>
            <Position>
              <LatitudeDegrees>42.4475316144526004791259765625</LatitudeDegrees>
              <LongitudeDegrees>-2.42457588203251361846923828125</LongitudeDegrees>
            </Position>
            <AltitudeMeters>410.79998779296875</AltitudeMeters>
            <DistanceMeters>280918.43677903</DistanceMeters>
          </Trackpoint>
          <Trackpoint>
            <Time>2021-07-31T11:26:28.000Z</Time>
            <Position>
              <LatitudeDegrees>42.44706667028367519378662109375</LatitudeDegrees>
              <LongitudeDegrees>-2.42456766776740550994873046875</LongitudeDegrees>
            </Position>
            <AltitudeMeters>412</AltitudeMeters>
            <DistanceMeters>280970.1903203</DistanceMeters>
          </Trackpoint>
          <Trackpoint>
            <Time>2021-07-31T11:26:43.000Z</Time>
            <Position>
              <LatitudeDegrees>42.446589656174182891845703125</LatitudeDegrees>
              <LongitudeDegrees>-2.42478735744953155517578125</LongitudeDegrees>
            </Position>
            <AltitudeMeters>413.20001220703125</AltitudeMeters>
            <DistanceMeters>281026.26518106</DistanceMeters>
          </Trackpoint>
          <Trackpoint>
            <Time>2021-07-31T11:26:56.000Z</Time>
            <Position>
              <LatitudeDegrees>42.446142397820949554443359375</LatitudeDegrees>
              <LongitudeDegrees>-2.42496312595903873443603515625</LongitudeDegrees>
            </Position>
            <AltitudeMeters>414</AltitudeMeters>
            <DistanceMeters>281078.09683145</DistanceMeters>
          </Trackpoint>
          <Trackpoint>
            <Time>2021-07-31T11:27:04.000Z</Time>
            <Position>
              <LatitudeDegrees>42.44586302898824214935302734375</LatitudeDegrees>
              <LongitudeDegrees>-2.4250983260571956634521484375</LongitudeDegrees>
            </Position>
            <AltitudeMeters>414.399993896484375</AltitudeMeters>
            <DistanceMeters>281111.11447838</DistanceMeters>
          </Trackpoint>
          <Trackpoint>
            <Time>2021-07-31T11:27:18.000Z</Time>
            <Position>
              <LatitudeDegrees>42.44533069431781768798828125</LatitudeDegrees>
              <LongitudeDegrees>-2.4252877570688724517822265625</LongitudeDegrees>
            </Position>
            <AltitudeMeters>414.79998779296875</AltitudeMeters>
            <DistanceMeters>281172.3730354</DistanceMeters>
          </Trackpoint>
          <Trackpoint>
            <Time>2021-07-31T11:27:30.000Z</Time>
            <Position>
              <LatitudeDegrees>42.44487547315657138824462890625</LatitudeDegrees>
              <LongitudeDegrees>-2.425370402634143829345703125</LongitudeDegrees>
            </Position>
            <AltitudeMeters>413.600006103515625</AltitudeMeters>
            <DistanceMeters>281223.49263851</DistanceMeters>
          </Trackpoint>
          <Trackpoint>
            <Time>2021-07-31T11:27:37.000Z</Time>
            <Position>
              <LatitudeDegrees>42.44468436576426029205322265625</LatitudeDegrees>
              <LongitudeDegrees>-2.4255915172398090362548828125</LongitudeDegrees>
            </Position>
            <AltitudeMeters>413.79998779296875</AltitudeMeters>
            <DistanceMeters>281251.46150445</DistanceMeters>
          </Trackpoint>
          <Trackpoint>
            <Time>2021-07-31T11:27:43.000Z</Time>
            <Position>
              <LatitudeDegrees>42.44452175684273242950439453125</LatitudeDegrees>
              <LongitudeDegrees>-2.4257876537740230560302734375</LongitudeDegrees>
            </Position>
            <AltitudeMeters>414.79998779296875</AltitudeMeters>
            <DistanceMeters>281275.69089425</DistanceMeters>
          </Trackpoint>
          <Trackpoint>
            <Time>2021-07-31T11:27:57.000Z</Time>
            <Position>
              <LatitudeDegrees>42.44423911906778812408447265625</LatitudeDegrees>
              <LongitudeDegrees>-2.426425181329250335693359375</LongitudeDegrees>
            </Position>
            <AltitudeMeters>415.20001220703125</AltitudeMeters>
            <DistanceMeters>281336.7762216</DistanceMeters>
          </Trackpoint>
          <Trackpoint>
            <Time>2021-07-31T11:27:59.000Z</Time>
            <Position>
              <LatitudeDegrees>42.44417994283139705657958984375</LatitudeDegrees>
              <LongitudeDegrees>-2.426500953733921051025390625</LongitudeDegrees>
            </Position>
            <AltitudeMeters>415.399993896484375</AltitudeMeters>
            <DistanceMeters>281345.83720693</DistanceMeters>
          </Trackpoint>
          <Trackpoint>
            <Time>2021-07-31T11:28:12.000Z</Time>
            <Position>
              <LatitudeDegrees>42.4436628632247447967529296875</LatitudeDegrees>
              <LongitudeDegrees>-2.42674377746880054473876953125</LongitudeDegrees>
            </Position>
            <AltitudeMeters>415.79998779296875</AltitudeMeters>
            <DistanceMeters>281406.74695883</DistanceMeters>
          </Trackpoint>
          <Trackpoint>
            <Time>2021-07-31T11:28:23.000Z</Time>
            <Position>
              <LatitudeDegrees>42.4432177841663360595703125</LatitudeDegrees>
              <LongitudeDegrees>-2.4269061349332332611083984375</LongitudeDegrees>
            </Position>
            <AltitudeMeters>416.399993896484375</AltitudeMeters>
            <DistanceMeters>281458.04862479</DistanceMeters>
          </Trackpoint>
          <Trackpoint>
            <Time>2021-07-31T11:28:37.000Z</Time>
            <Position>
              <LatitudeDegrees>42.4426721222698688507080078125</LatitudeDegrees>
              <LongitudeDegrees>-2.42709749378263950347900390625</LongitudeDegrees>
            </Position>
            <AltitudeMeters>417.399993896484375</AltitudeMeters>
            <DistanceMeters>281520.78266783</DistanceMeters>
          </Trackpoint>
          <Trackpoint>
            <Time>2021-07-31T11:28:46.000Z</Time>
            <Position>
              <LatitudeDegrees>42.44234195910394191741943359375</LatitudeDegrees>
              <LongitudeDegrees>-2.4271944724023342132568359375</LongitudeDegrees>
            </Position>
            <AltitudeMeters>417.600006103515625</AltitudeMeters>
            <DistanceMeters>281558.38383934</DistanceMeters>
          </Trackpoint>
          <Trackpoint>
            <Time>2021-07-31T11:29:00.000Z</Time>
            <Position>
              <LatitudeDegrees>42.44180736131966114044189453125</LatitudeDegrees>
              <LongitudeDegrees>-2.42735297419130802154541015625</LongitudeDegrees>
            </Position>
            <AltitudeMeters>418.20001220703125</AltitudeMeters>
            <DistanceMeters>281619.29322061</DistanceMeters>
          </Trackpoint>
          <Trackpoint>
            <Time>2021-07-31T11:29:15.000Z</Time>
            <Position>
              <LatitudeDegrees>42.4412636272609233856201171875</LatitudeDegrees>
              <LongitudeDegrees>-2.42733721621334552764892578125</LongitudeDegrees>
            </Position>
            <AltitudeMeters>418.399993896484375</AltitudeMeters>
            <DistanceMeters>281679.82575978</DistanceMeters>
          </Trackpoint>
          <Trackpoint>
            <Time>2021-07-31T11:29:21.000Z</Time>
            <Position>
              <LatitudeDegrees>42.44101661257445812225341796875</LatitudeDegrees>
              <LongitudeDegrees>-2.4272771179676055908203125</LongitudeDegrees>
            </Position>
            <AltitudeMeters>418.79998779296875</AltitudeMeters>
            <DistanceMeters>281707.75844181</DistanceMeters>
          </Trackpoint>
          <Trackpoint>
            <Time>2021-07-31T11:29:34.000Z</Time>
            <Position>
              <LatitudeDegrees>42.44050028733909130096435546875</LatitudeDegrees>
              <LongitudeDegrees>-2.42725339718163013458251953125</LongitudeDegrees>
            </Position>
            <AltitudeMeters>420</AltitudeMeters>
            <DistanceMeters>281765.25941997</DistanceMeters>
          </Trackpoint>
          <Trackpoint>
            <Time>2021-07-31T11:29:50.000Z</Time>
            <Position>
              <LatitudeDegrees>42.43993752636015415191650390625</LatitudeDegrees>
              <LongitudeDegrees>-2.42728960700333118438720703125</LongitudeDegrees>
            </Position>
            <AltitudeMeters>420.600006103515625</AltitudeMeters>
            <DistanceMeters>281827.96639604</DistanceMeters>
          </Trackpoint>
          <Trackpoint>
            <Time>2021-07-31T11:29:55.000Z</Time>
            <Position>
              <LatitudeDegrees>42.43975572288036346435546875</LatitudeDegrees>
              <LongitudeDegrees>-2.42734241299331188201904296875</LongitudeDegrees>
            </Position>
            <AltitudeMeters>421</AltitudeMeters>
            <DistanceMeters>281848.66084954</DistanceMeters>
          </Trackpoint>
          <Trackpoint>
            <Time>2021-07-31T11:30:08.000Z</Time>
            <Position>
              <LatitudeDegrees>42.43922791443765163421630859375</LatitudeDegrees>
              <LongitudeDegrees>-2.42751516401767730712890625</LongitudeDegrees>
            </Position>
            <AltitudeMeters>421.399993896484375</AltitudeMeters>
            <DistanceMeters>281909.09649514</DistanceMeters>
          </Trackpoint>
          <Trackpoint>
            <Time>2021-07-31T11:30:22.000Z</Time>
            <Position>
              <LatitudeDegrees>42.43869801051914691925048828125</LatitudeDegrees>
              <LongitudeDegrees>-2.42769679985940456390380859375</LongitudeDegrees>
            </Position>
            <AltitudeMeters>422</AltitudeMeters>
            <DistanceMeters>281969.93363374</DistanceMeters>
          </Trackpoint>
          <Trackpoint>
            <Time>2021-07-31T11:30:24.000Z</Time>
            <Position>
              <LatitudeDegrees>42.43861787952482700347900390625</LatitudeDegrees>
              <LongitudeDegrees>-2.42773451842367649078369140625</LongitudeDegrees>
            </Position>
            <AltitudeMeters>422.600006103515625</AltitudeMeters>
            <DistanceMeters>281979.37529221</DistanceMeters>
          </Trackpoint>
          <Trackpoint>
            <Time>2021-07-31T11:30:37.000Z</Time>
            <Position>
              <LatitudeDegrees>42.438090741634368896484375</LatitudeDegrees>
              <LongitudeDegrees>-2.42791087366640567779541015625</LongitudeDegrees>
            </Position>
            <AltitudeMeters>423.20001220703125</AltitudeMeters>
            <DistanceMeters>282039.80869652</DistanceMeters>
          </Trackpoint>
          <Trackpoint>
            <Time>2021-07-31T11:30:50.000Z</Time>
            <Position>
              <LatitudeDegrees>42.43759327568113803863525390625</LatitudeDegrees>
              <LongitudeDegrees>-2.42809460498392581939697265625</LongitudeDegrees>
            </Position>
            <AltitudeMeters>424</AltitudeMeters>
            <DistanceMeters>282097.19767309</DistanceMeters>
          </Trackpoint>
          <Trackpoint>
            <Time>2021-07-31T11:31:04.000Z</Time>
            <Position>
              <LatitudeDegrees>42.43714802898466587066650390625</LatitudeDegrees>
              <LongitudeDegrees>-2.42779905907809734344482421875</LongitudeDegrees>
            </Position>
            <AltitudeMeters>425</AltitudeMeters>
            <DistanceMeters>282152.38144606</DistanceMeters>
          </Trackpoint>
          <Trackpoint>
            <Time>2021-07-31T11:31:05.000Z</Time>
            <Position>
              <LatitudeDegrees>42.43710896931588649749755859375</LatitudeDegrees>
              <LongitudeDegrees>-2.4277641065418720245361328125</LongitudeDegrees>
            </Position>
            <AltitudeMeters>425</AltitudeMeters>
            <DistanceMeters>282157.59147579</DistanceMeters>
          </Trackpoint>
          <Trackpoint>
            <Time>2021-07-31T11:31:20.000Z</Time>
            <Position>
              <LatitudeDegrees>42.43656364269554615020751953125</LatitudeDegrees>
              <LongitudeDegrees>-2.42786812596023082733154296875</LongitudeDegrees>
            </Position>
            <AltitudeMeters>424.20001220703125</AltitudeMeters>
            <DistanceMeters>282218.88591644</DistanceMeters>
          </Trackpoint>
          <Trackpoint>
            <Time>2021-07-31T11:31:24.000Z</Time>
            <Position>
              <LatitudeDegrees>42.43643590249121189117431640625</LatitudeDegrees>
              <LongitudeDegrees>-2.4279646016657352447509765625</LongitudeDegrees>
            </Position>
            <AltitudeMeters>425.600006103515625</AltitudeMeters>
            <DistanceMeters>282235.16296909</DistanceMeters>
          </Trackpoint>
          <Trackpoint>
            <Time>2021-07-31T11:31:26.000Z</Time>
            <Position>
              <LatitudeDegrees>42.436377145349979400634765625</LatitudeDegrees>
              <LongitudeDegrees>-2.4280162341892719268798828125</LongitudeDegrees>
            </Position>
            <AltitudeMeters>426.600006103515625</AltitudeMeters>
            <DistanceMeters>282242.95805629</DistanceMeters>
          </Trackpoint>
          <Trackpoint>
            <Time>2021-07-31T11:31:32.000Z</Time>
            <Position>
              <LatitudeDegrees>42.4361969344317913055419921875</LatitudeDegrees>
              <LongitudeDegrees>-2.4281863868236541748046875</LongitudeDegrees>
            </Position>
            <AltitudeMeters>428</AltitudeMeters>
            <DistanceMeters>282267.40523689</DistanceMeters>
          </Trackpoint>
          <Trackpoint>
            <Time>2021-07-31T11:31:41.000Z</Time>
            <Position>
              <LatitudeDegrees>42.4359096027910709381103515625</LatitudeDegrees>
              <LongitudeDegrees>-2.42851688526570796966552734375</LongitudeDegrees>
            </Position>
            <AltitudeMeters>427.79998779296875</AltitudeMeters>
            <DistanceMeters>282309.35519944</DistanceMeters>
          </Trackpoint>
          <Trackpoint>
            <Time>2021-07-31T11:31:48.000Z</Time>
            <Position>
              <LatitudeDegrees>42.4356759153306484222412109375</LatitudeDegrees>
              <LongitudeDegrees>-2.4288086593151092529296875</LongitudeDegrees>
            </Position>
            <AltitudeMeters>426.79998779296875</AltitudeMeters>
            <DistanceMeters>282344.72403529</DistanceMeters>
          </Trackpoint>
          <Trackpoint>
            <Time>2021-07-31T11:31:51.000Z</Time>
            <Position>
              <LatitudeDegrees>42.43555513210594654083251953125</LatitudeDegrees>
              <LongitudeDegrees>-2.42895827628672122955322265625</LongitudeDegrees>
            </Position>
            <AltitudeMeters>425.79998779296875</AltitudeMeters>
            <DistanceMeters>282362.93894865</DistanceMeters>
          </Trackpoint>
          <Trackpoint>
            <Time>2021-07-31T11:31:57.000Z</Time>
            <Position>
              <LatitudeDegrees>42.43530987761914730072021484375</LatitudeDegrees>
              <LongitudeDegrees>-2.429157011210918426513671875</LongitudeDegrees>
            </Position>
            <AltitudeMeters>426.600006103515625</AltitudeMeters>
            <DistanceMeters>282394.74551282</DistanceMeters>
          </Trackpoint>
          <Trackpoint>
            <Time>2021-07-31T11:32:00.000Z</Time>
            <Position>
              <LatitudeDegrees>42.4351800419390201568603515625</LatitudeDegrees>
              <LongitudeDegrees>-2.42920118384063243865966796875</LongitudeDegrees>
            </Position>
            <AltitudeMeters>426.79998779296875</AltitudeMeters>
            <DistanceMeters>282409.64502286</DistanceMeters>
          </Trackpoint>
          <Trackpoint>
            <Time>2021-07-31T11:32:01.000Z</Time>
            <Position>
              <LatitudeDegrees>42.435136623680591583251953125</LatitudeDegrees>
              <LongitudeDegrees>-2.42920738644897937774658203125</LongitudeDegrees>
            </Position>
            <AltitudeMeters>427</AltitudeMeters>
            <DistanceMeters>282414.50441067</DistanceMeters>
          </Trackpoint>
          <Trackpoint>
            <Time>2021-07-31T11:32:14.000Z</Time>
            <Position>
              <LatitudeDegrees>42.4345721863210201263427734375</LatitudeDegrees>
              <LongitudeDegrees>-2.42933479137718677520751953125</LongitudeDegrees>
            </Position>
            <AltitudeMeters>428.399993896484375</AltitudeMeters>
            <DistanceMeters>282478.19329681</DistanceMeters>
          </Trackpoint>
          <Trackpoint>
            <Time>2021-07-31T11:32:18.000Z</Time>
            <Position>
              <LatitudeDegrees>42.434404380619525909423828125</LatitudeDegrees>
              <LongitudeDegrees>-2.42931165732443332672119140625</LongitudeDegrees>
            </Position>
            <AltitudeMeters>429.399993896484375</AltitudeMeters>
            <DistanceMeters>282496.96702616</DistanceMeters>
          </Trackpoint>
          <Trackpoint>
            <Time>2021-07-31T11:32:26.000Z</Time>
            <Position>
              <LatitudeDegrees>42.4340826831758022308349609375</LatitudeDegrees>
              <LongitudeDegrees>-2.42927712388336658477783203125</LongitudeDegrees>
            </Position>
            <AltitudeMeters>430</AltitudeMeters>
            <DistanceMeters>282532.88486158</DistanceMeters>
          </Trackpoint>
          <Trackpoint>
            <Time>2021-07-31T11:32:37.000Z</Time>
            <Position>
              <LatitudeDegrees>42.433574907481670379638671875</LatitudeDegrees>
              <LongitudeDegrees>-2.42955607362091541290283203125</LongitudeDegrees>
            </Position>
            <AltitudeMeters>429</AltitudeMeters>
            <DistanceMeters>282593.87017584</DistanceMeters>
          </Trackpoint>
          <Trackpoint>
            <Time>2021-07-31T11:32:50.000Z</Time>
            <Position>
              <LatitudeDegrees>42.43304642848670482635498046875</LatitudeDegrees>
              <LongitudeDegrees>-2.4298837222158908843994140625</LongitudeDegrees>
            </Position>
            <AltitudeMeters>430.20001220703125</AltitudeMeters>
            <DistanceMeters>282658.5566409</DistanceMeters>
          </Trackpoint>
          <Trackpoint>
            <Time>2021-07-31T11:33:03.000Z</Time>
            <Position>
              <LatitudeDegrees>42.43254250846803188323974609375</LatitudeDegrees>
              <LongitudeDegrees>-2.43018052540719509124755859375</LongitudeDegrees>
            </Position>
            <AltitudeMeters>430.600006103515625</AltitudeMeters>
            <DistanceMeters>282719.71436072</DistanceMeters>
          </Trackpoint>
          <Trackpoint>
            <Time>2021-07-31T11:33:04.000Z</Time>
            <Position>
              <LatitudeDegrees>42.4325042031705379486083984375</LatitudeDegrees>
              <LongitudeDegrees>-2.4301985464990139007568359375</LongitudeDegrees>
            </Position>
            <AltitudeMeters>430.600006103515625</AltitudeMeters>
            <DistanceMeters>282724.22787958</DistanceMeters>
          </Trackpoint>
          <Trackpoint>
            <Time>2021-07-31T11:33:11.000Z</Time>
            <Position>
              <LatitudeDegrees>42.43224042467772960662841796875</LatitudeDegrees>
              <LongitudeDegrees>-2.430339194834232330322265625</LongitudeDegrees>
            </Position>
            <AltitudeMeters>431.79998779296875</AltitudeMeters>
            <DistanceMeters>282755.77860915</DistanceMeters>
          </Trackpoint>
          <Trackpoint>
            <Time>2021-07-31T11:33:24.000Z</Time>
            <Position>
              <LatitudeDegrees>42.431764416396617889404296875</LatitudeDegrees>
              <LongitudeDegrees>-2.430694587528705596923828125</LongitudeDegrees>
            </Position>
            <AltitudeMeters>432.399993896484375</AltitudeMeters>
            <DistanceMeters>282816.27085707</DistanceMeters>
          </Trackpoint>
          <Trackpoint>
            <Time>2021-07-31T11:33:25.000Z</Time>
            <Position>
              <LatitudeDegrees>42.43172594346106052398681640625</LatitudeDegrees>
              <LongitudeDegrees>-2.4307162128388881683349609375</LongitudeDegrees>
            </Position>
            <AltitudeMeters>432.399993896484375</AltitudeMeters>
            <DistanceMeters>282820.90675849</DistanceMeters>
          </Trackpoint>
          <Trackpoint>
            <Time>2021-07-31T11:33:30.000Z</Time>
            <Position>
              <LatitudeDegrees>42.43153600953519344329833984375</LatitudeDegrees>
              <LongitudeDegrees>-2.4308251775801181793212890625</LongitudeDegrees>
            </Position>
            <AltitudeMeters>432.79998779296875</AltitudeMeters>
            <DistanceMeters>282843.86392254</DistanceMeters>
          </Trackpoint>
          <Trackpoint>
            <Time>2021-07-31T11:33:41.000Z</Time>
            <Position>
              <LatitudeDegrees>42.43116536177694797515869140625</LatitudeDegrees>
              <LongitudeDegrees>-2.43116120807826519012451171875</LongitudeDegrees>
            </Position>
            <AltitudeMeters>434</AltitudeMeters>
            <DistanceMeters>282893.50171599</DistanceMeters>
          </Trackpoint>
          <Trackpoint>
            <Time>2021-07-31T11:33:52.000Z</Time>
            <Position>
              <LatitudeDegrees>42.43078080005943775177001953125</LatitudeDegrees>
              <LongitudeDegrees>-2.43142624385654926300048828125</LongitudeDegrees>
            </Position>
            <AltitudeMeters>433.79998779296875</AltitudeMeters>
            <DistanceMeters>282941.52378365</DistanceMeters>
          </Trackpoint>
          <Trackpoint>
            <Time>2021-07-31T11:33:56.000Z</Time>
            <Position>
              <LatitudeDegrees>42.4306333623826503753662109375</LatitudeDegrees>
              <LongitudeDegrees>-2.43156068958342075347900390625</LongitudeDegrees>
            </Position>
            <AltitudeMeters>433.79998779296875</AltitudeMeters>
            <DistanceMeters>282961.30486735</DistanceMeters>
          </Trackpoint>
          <Trackpoint>
            <Time>2021-07-31T11:34:07.000Z</Time>
            <Position>
              <LatitudeDegrees>42.43033085949718952178955078125</LatitudeDegrees>
              <LongitudeDegrees>-2.43203309364616870880126953125</LongitudeDegrees>
            </Position>
            <AltitudeMeters>435.20001220703125</AltitudeMeters>
            <DistanceMeters>283012.68322035</DistanceMeters>
          </Trackpoint>
          <Trackpoint>
            <Time>2021-07-31T11:34:21.000Z</Time>
            <Position>
              <LatitudeDegrees>42.429892905056476593017578125</LatitudeDegrees>
              <LongitudeDegrees>-2.43247381411492824554443359375</LongitudeDegrees>
            </Position>
            <AltitudeMeters>435.20001220703125</AltitudeMeters>
            <DistanceMeters>283073.40372934</DistanceMeters>
          </Trackpoint>
          <Trackpoint>
            <Time>2021-07-31T11:34:34.000Z</Time>
            <Position>
              <LatitudeDegrees>42.42938898503780364990234375</LatitudeDegrees>
              <LongitudeDegrees>-2.43274387903511524200439453125</LongitudeDegrees>
            </Position>
            <AltitudeMeters>436.20001220703125</AltitudeMeters>
            <DistanceMeters>283133.7198731</DistanceMeters>
          </Trackpoint>
          <Trackpoint>
            <Time>2021-07-31T11:34:36.000Z</Time>
            <Position>
              <LatitudeDegrees>42.42930575273931026458740234375</LatitudeDegrees>
              <LongitudeDegrees>-2.4327711202204227447509765625</LongitudeDegrees>
            </Position>
            <AltitudeMeters>436</AltitudeMeters>
            <DistanceMeters>283143.25053619</DistanceMeters>
          </Trackpoint>
          <Trackpoint>
            <Time>2021-07-31T11:34:43.000Z</Time>
            <Position>
              <LatitudeDegrees>42.429009787738323211669921875</LatitudeDegrees>
              <LongitudeDegrees>-2.4328364990651607513427734375</LongitudeDegrees>
            </Position>
            <AltitudeMeters>436.399993896484375</AltitudeMeters>
            <DistanceMeters>283176.62697025</DistanceMeters>
          </Trackpoint>
          <Trackpoint>
            <Time>2021-07-31T11:34:54.000Z</Time>
            <Position>
              <LatitudeDegrees>42.42857920937240123748779296875</LatitudeDegrees>
              <LongitudeDegrees>-2.432932890951633453369140625</LongitudeDegrees>
            </Position>
            <AltitudeMeters>437</AltitudeMeters>
            <DistanceMeters>283225.20105371</DistanceMeters>
          </Trackpoint>
          <Trackpoint>
            <Time>2021-07-31T11:34:57.000Z</Time>
            <Position>
              <LatitudeDegrees>42.4284634552896022796630859375</LatitudeDegrees>
              <LongitudeDegrees>-2.43298611603677272796630859375</LongitudeDegrees>
            </Position>
            <AltitudeMeters>437.600006103515625</AltitudeMeters>
            <DistanceMeters>283238.80614492</DistanceMeters>
          </Trackpoint>
          <Trackpoint>
            <Time>2021-07-31T11:35:05.000Z</Time>
            <Position>
              <LatitudeDegrees>42.4281664006412029266357421875</LatitudeDegrees>
              <LongitudeDegrees>-2.4331157840788364410400390625</LongitudeDegrees>
            </Position>
            <AltitudeMeters>436.600006103515625</AltitudeMeters>
            <DistanceMeters>283273.54253613</DistanceMeters>
          </Trackpoint>
          <Trackpoint>
            <Time>2021-07-31T11:35:13.000Z</Time>
            <Position>
              <LatitudeDegrees>42.4279112555086612701416015625</LatitudeDegrees>
              <LongitudeDegrees>-2.43324779905378818511962890625</LongitudeDegrees>
            </Position>
            <AltitudeMeters>437.600006103515625</AltitudeMeters>
            <DistanceMeters>283303.94128352</DistanceMeters>
          </Trackpoint>
          <Trackpoint>
            <Time>2021-07-31T11:35:29.000Z</Time>
            <Position>
              <LatitudeDegrees>42.42736416868865489959716796875</LatitudeDegrees>
              <LongitudeDegrees>-2.43351903744041919708251953125</LongitudeDegrees>
            </Position>
            <AltitudeMeters>438.399993896484375</AltitudeMeters>
            <DistanceMeters>283368.78251679</DistanceMeters>
          </Trackpoint>
          <Trackpoint>
            <Time>2021-07-31T11:35:32.000Z</Time>
            <Position>
              <LatitudeDegrees>42.42724724113941192626953125</LatitudeDegrees>
              <LongitudeDegrees>-2.433605454862117767333984375</LongitudeDegrees>
            </Position>
            <AltitudeMeters>439</AltitudeMeters>
            <DistanceMeters>283383.60729337</DistanceMeters>
          </Trackpoint>
          <Trackpoint>
            <Time>2021-07-31T11:35:45.000Z</Time>
            <Position>
              <LatitudeDegrees>42.42671859450638294219970703125</LatitudeDegrees>
              <LongitudeDegrees>-2.43383310735225677490234375</LongitudeDegrees>
            </Position>
            <AltitudeMeters>439.600006103515625</AltitudeMeters>
            <DistanceMeters>283445.34775198</DistanceMeters>
          </Trackpoint>
          <Trackpoint>
            <Time>2021-07-31T11:35:54.000Z</Time>
            <Position>
              <LatitudeDegrees>42.42635398171842098236083984375</LatitudeDegrees>
              <LongitudeDegrees>-2.433968894183635711669921875</LongitudeDegrees>
            </Position>
            <AltitudeMeters>440.20001220703125</AltitudeMeters>
            <DistanceMeters>283487.43525435</DistanceMeters>
          </Trackpoint>
          <Trackpoint>
            <Time>2021-07-31T11:36:07.000Z</Time>
            <Position>
              <LatitudeDegrees>42.42581435479223728179931640625</LatitudeDegrees>
              <LongitudeDegrees>-2.43420518003404140472412109375</LongitudeDegrees>
            </Position>
            <AltitudeMeters>440.399993896484375</AltitudeMeters>
            <DistanceMeters>283550.5560296</DistanceMeters>
          </Trackpoint>
          <Trackpoint>
            <Time>2021-07-31T11:36:20.000Z</Time>
            <Position>
              <LatitudeDegrees>42.4252910725772380828857421875</LatitudeDegrees>
              <LongitudeDegrees>-2.43449418805539608001708984375</LongitudeDegrees>
            </Position>
            <AltitudeMeters>440.600006103515625</AltitudeMeters>
            <DistanceMeters>283613.45251701</DistanceMeters>
          </Trackpoint>
          <Trackpoint>
            <Time>2021-07-31T11:36:26.000Z</Time>
            <Position>
              <LatitudeDegrees>42.4250325746834278106689453125</LatitudeDegrees>
              <LongitudeDegrees>-2.434611618518829345703125</LongitudeDegrees>
            </Position>
            <AltitudeMeters>440.20001220703125</AltitudeMeters>
            <DistanceMeters>283643.79849147</DistanceMeters>
          </Trackpoint>
          <Trackpoint>
            <Time>2021-07-31T11:36:39.000Z</Time>
            <Position>
              <LatitudeDegrees>42.42454147897660732269287109375</LatitudeDegrees>
              <LongitudeDegrees>-2.4349779076874256134033203125</LongitudeDegrees>
            </Position>
            <AltitudeMeters>441.399993896484375</AltitudeMeters>
            <DistanceMeters>283706.19523481</DistanceMeters>
          </Trackpoint>
          <Trackpoint>
            <Time>2021-07-31T11:36:40.000Z</Time>
            <Position>
              <LatitudeDegrees>42.424506358802318572998046875</LatitudeDegrees>
              <LongitudeDegrees>-2.43500179611146450042724609375</LongitudeDegrees>
            </Position>
            <AltitudeMeters>441.600006103515625</AltitudeMeters>
            <DistanceMeters>283710.56852898</DistanceMeters>
          </Trackpoint>
          <Trackpoint>
            <Time>2021-07-31T11:36:41.000Z</Time>
            <Position>
              <LatitudeDegrees>42.42445816285908222198486328125</LatitudeDegrees>
              <LongitudeDegrees>-2.4350178055465221405029296875</LongitudeDegrees>
            </Position>
            <AltitudeMeters>441.600006103515625</AltitudeMeters>
            <DistanceMeters>283716.09153525</DistanceMeters>
          </Trackpoint>
          <Trackpoint>
            <Time>2021-07-31T11:36:46.000Z</Time>
            <Position>
              <LatitudeDegrees>42.42425682954490184783935546875</LatitudeDegrees>
              <LongitudeDegrees>-2.4351331405341625213623046875</LongitudeDegrees>
            </Position>
            <AltitudeMeters>442.79998779296875</AltitudeMeters>
            <DistanceMeters>283740.4215291</DistanceMeters>
          </Trackpoint>
          <Trackpoint>
            <Time>2021-07-31T11:36:59.000Z</Time>
            <Position>
              <LatitudeDegrees>42.4237431026995182037353515625</LatitudeDegrees>
              <LongitudeDegrees>-2.4354632198810577392578125</LongitudeDegrees>
            </Position>
            <AltitudeMeters>444</AltitudeMeters>
            <DistanceMeters>283803.70561101</DistanceMeters>
          </Trackpoint>
          <Trackpoint>
            <Time>2021-07-31T11:37:03.000Z</Time>
            <Position>
              <LatitudeDegrees>42.42358862422406673431396484375</LatitudeDegrees>
              <LongitudeDegrees>-2.43556539528071880340576171875</LongitudeDegrees>
            </Position>
            <AltitudeMeters>444.399993896484375</AltitudeMeters>
            <DistanceMeters>283822.83904586</DistanceMeters>
          </Trackpoint>
          <Trackpoint>
            <Time>2021-07-31T11:37:07.000Z</Time>
            <Position>
              <LatitudeDegrees>42.42341713048517704010009765625</LatitudeDegrees>
              <LongitudeDegrees>-2.4355736933648586273193359375</LongitudeDegrees>
            </Position>
            <AltitudeMeters>444.20001220703125</AltitudeMeters>
            <DistanceMeters>283841.93870628</DistanceMeters>
          </Trackpoint>
          <Trackpoint>
            <Time>2021-07-31T11:37:10.000Z</Time>
            <Position>
              <LatitudeDegrees>42.42328486405313014984130859375</LatitudeDegrees>
              <LongitudeDegrees>-2.43555064313113689422607421875</LongitudeDegrees>
            </Position>
            <AltitudeMeters>444</AltitudeMeters>
            <DistanceMeters>283856.78174523</DistanceMeters>
          </Trackpoint>
          <Trackpoint>
            <Time>2021-07-31T11:37:24.000Z</Time>
            <Position>
              <LatitudeDegrees>42.4227144755423069000244140625</LatitudeDegrees>
              <LongitudeDegrees>-2.43570134975016117095947265625</LongitudeDegrees>
            </Position>
            <AltitudeMeters>444.399993896484375</AltitudeMeters>
            <DistanceMeters>283921.4634638</DistanceMeters>
          </Trackpoint>
          <Trackpoint>
            <Time>2021-07-31T11:37:38.000Z</Time>
            <Position>
              <LatitudeDegrees>42.4222226254642009735107421875</LatitudeDegrees>
              <LongitudeDegrees>-2.43599303998053073883056640625</LongitudeDegrees>
            </Position>
            <AltitudeMeters>444.79998779296875</AltitudeMeters>
            <DistanceMeters>283981.22340651</DistanceMeters>
          </Trackpoint>
          <Trackpoint>
            <Time>2021-07-31T11:37:41.000Z</Time>
            <Position>
              <LatitudeDegrees>42.4221854098141193389892578125</LatitudeDegrees>
              <LongitudeDegrees>-2.43613100610673427581787109375</LongitudeDegrees>
            </Position>
            <AltitudeMeters>444.600006103515625</AltitudeMeters>
            <DistanceMeters>283993.29217335</DistanceMeters>
          </Trackpoint>
          <Trackpoint>
            <Time>2021-07-31T11:37:49.000Z</Time>
            <Position>
              <LatitudeDegrees>42.4223232083022594451904296875</LatitudeDegrees>
              <LongitudeDegrees>-2.4365151487290859222412109375</LongitudeDegrees>
            </Position>
            <AltitudeMeters>445</AltitudeMeters>
            <DistanceMeters>284028.38341733</DistanceMeters>
          </Trackpoint>
          <Trackpoint>
            <Time>2021-07-31T11:37:53.000Z</Time>
            <Position>
              <LatitudeDegrees>42.4221914447844028472900390625</LatitudeDegrees>
              <LongitudeDegrees>-2.436696700751781463623046875</LongitudeDegrees>
            </Position>
            <AltitudeMeters>445.399993896484375</AltitudeMeters>
            <DistanceMeters>284049.30224867</DistanceMeters>
          </Trackpoint>
          <Trackpoint>
            <Time>2021-07-31T11:37:55.000Z</Time>
            <Position>
              <LatitudeDegrees>42.422113828361034393310546875</LatitudeDegrees>
              <LongitudeDegrees>-2.4367857165634632110595703125</LongitudeDegrees>
            </Position>
            <AltitudeMeters>445.79998779296875</AltitudeMeters>
            <DistanceMeters>284060.62120288</DistanceMeters>
          </Trackpoint>
          <Trackpoint>
            <Time>2021-07-31T11:37:56.000Z</Time>
            <Position>
              <LatitudeDegrees>42.42207552306354045867919921875</LatitudeDegrees>
              <LongitudeDegrees>-2.4368333257734775543212890625</LongitudeDegrees>
            </Position>
            <AltitudeMeters>445.79998779296875</AltitudeMeters>
            <DistanceMeters>284066.4076978</DistanceMeters>
          </Trackpoint>
          <Trackpoint>
            <Time>2021-07-31T11:38:06.000Z</Time>
            <Position>
              <LatitudeDegrees>42.4217069707810878753662109375</LatitudeDegrees>
              <LongitudeDegrees>-2.4372017942368984222412109375</LongitudeDegrees>
            </Position>
            <AltitudeMeters>447</AltitudeMeters>
            <DistanceMeters>284117.39039353</DistanceMeters>
          </Trackpoint>
          <Trackpoint>
            <Time>2021-07-31T11:38:20.000Z</Time>
            <Position>
              <LatitudeDegrees>42.4212023802101612091064453125</LatitudeDegrees>
              <LongitudeDegrees>-2.43757151998579502105712890625</LongitudeDegrees>
            </Position>
            <AltitudeMeters>448</AltitudeMeters>
            <DistanceMeters>284181.24155761</DistanceMeters>
          </Trackpoint>
          <Trackpoint>
            <Time>2021-07-31T11:38:22.000Z</Time>
            <Position>
              <LatitudeDegrees>42.42114094085991382598876953125</LatitudeDegrees>
              <LongitudeDegrees>-2.4376141838729381561279296875</LongitudeDegrees>
            </Position>
            <AltitudeMeters>448.20001220703125</AltitudeMeters>
            <DistanceMeters>284188.92521818</DistanceMeters>
          </Trackpoint>
          <Trackpoint>
            <Time>2021-07-31T11:38:38.000Z</Time>
            <Position>
              <LatitudeDegrees>42.4206297285854816436767578125</LatitudeDegrees>
              <LongitudeDegrees>-2.4379414133727550506591796875</LongitudeDegrees>
            </Position>
            <AltitudeMeters>448.399993896484375</AltitudeMeters>
            <DistanceMeters>284251.85672703</DistanceMeters>
          </Trackpoint>
          <Trackpoint>
            <Time>2021-07-31T11:38:52.000Z</Time>
            <Position>
              <LatitudeDegrees>42.42008850909769535064697265625</LatitudeDegrees>
              <LongitudeDegrees>-2.43815909139811992645263671875</LongitudeDegrees>
            </Position>
            <AltitudeMeters>449.600006103515625</AltitudeMeters>
            <DistanceMeters>284314.69461041</DistanceMeters>
          </Trackpoint>
          <Trackpoint>
            <Time>2021-07-31T11:38:53.000Z</Time>
            <Position>
              <LatitudeDegrees>42.4200483597815036773681640625</LatitudeDegrees>
              <LongitudeDegrees>-2.43817267008125782012939453125</LongitudeDegrees>
            </Position>
            <AltitudeMeters>449.79998779296875</AltitudeMeters>
            <DistanceMeters>284319.29924063</DistanceMeters>
          </Trackpoint>
          <Trackpoint>
            <Time>2021-07-31T11:39:06.000Z</Time>
            <Position>
              <LatitudeDegrees>42.4195125885307788848876953125</LatitudeDegrees>
              <LongitudeDegrees>-2.438239641487598419189453125</LongitudeDegrees>
            </Position>
            <AltitudeMeters>450</AltitudeMeters>
            <DistanceMeters>284379.18492222</DistanceMeters>
          </Trackpoint>
          <Trackpoint>
            <Time>2021-07-31T11:39:20.000Z</Time>
            <Position>
              <LatitudeDegrees>42.41897706873714923858642578125</LatitudeDegrees>
              <LongitudeDegrees>-2.43825548328459262847900390625</LongitudeDegrees>
            </Position>
            <AltitudeMeters>449.399993896484375</AltitudeMeters>
            <DistanceMeters>284438.80348929</DistanceMeters>
          </Trackpoint>
          <Trackpoint>
            <Time>2021-07-31T11:39:34.000Z</Time>
            <Position>
              <LatitudeDegrees>42.4185138009488582611083984375</LatitudeDegrees>
              <LongitudeDegrees>-2.43865110911428928375244140625</LongitudeDegrees>
            </Position>
            <AltitudeMeters>450</AltitudeMeters>
            <DistanceMeters>284499.7579232</DistanceMeters>
          </Trackpoint>
          <Trackpoint>
            <Time>2021-07-31T11:39:39.000Z</Time>
            <Position>
              <LatitudeDegrees>42.41831121034920215606689453125</LatitudeDegrees>
              <LongitudeDegrees>-2.438763342797756195068359375</LongitudeDegrees>
            </Position>
            <AltitudeMeters>450.399993896484375</AltitudeMeters>
            <DistanceMeters>284524.11962971</DistanceMeters>
          </Trackpoint>
          <Trackpoint>
            <Time>2021-07-31T11:39:51.000Z</Time>
            <Position>
              <LatitudeDegrees>42.41777979768812656402587890625</LatitudeDegrees>
              <LongitudeDegrees>-2.43896358646452426910400390625</LongitudeDegrees>
            </Position>
            <AltitudeMeters>451</AltitudeMeters>
            <DistanceMeters>284585.51277092</DistanceMeters>
          </Trackpoint>
          <Trackpoint>
            <Time>2021-07-31T11:39:56.000Z</Time>
            <Position>
              <LatitudeDegrees>42.41756538860499858856201171875</LatitudeDegrees>
              <LongitudeDegrees>-2.43908864445984363555908203125</LongitudeDegrees>
            </Position>
            <AltitudeMeters>451.20001220703125</AltitudeMeters>
            <DistanceMeters>284611.49523645</DistanceMeters>
          </Trackpoint>
          <Trackpoint>
            <Time>2021-07-31T11:39:58.000Z</Time>
            <Position>
              <LatitudeDegrees>42.41749229840934276580810546875</LatitudeDegrees>
              <LongitudeDegrees>-2.43915787898004055023193359375</LongitudeDegrees>
            </Position>
            <AltitudeMeters>451.399993896484375</AltitudeMeters>
            <DistanceMeters>284621.42177634</DistanceMeters>
          </Trackpoint>
          <Trackpoint>
            <Time>2021-07-31T11:40:02.000Z</Time>
            <Position>
              <LatitudeDegrees>42.41736321710050106048583984375</LatitudeDegrees>
              <LongitudeDegrees>-2.439301125705242156982421875</LongitudeDegrees>
            </Position>
            <AltitudeMeters>451.79998779296875</AltitudeMeters>
            <DistanceMeters>284639.99457688</DistanceMeters>
          </Trackpoint>
          <Trackpoint>
            <Time>2021-07-31T11:40:14.000Z</Time>
            <Position>
              <LatitudeDegrees>42.4169722013175487518310546875</LatitudeDegrees>
              <LongitudeDegrees>-2.43943314068019390106201171875</LongitudeDegrees>
            </Position>
            <AltitudeMeters>452.600006103515625</AltitudeMeters>
            <DistanceMeters>284684.84698474</DistanceMeters>
          </Trackpoint>
          <Trackpoint>
            <Time>2021-07-31T11:40:27.000Z</Time>
            <Position>
              <LatitudeDegrees>42.4164129607379436492919921875</LatitudeDegrees>
              <LongitudeDegrees>-2.4394756369292736053466796875</LongitudeDegrees>
            </Position>
            <AltitudeMeters>453.20001220703125</AltitudeMeters>
            <DistanceMeters>284747.18950676</DistanceMeters>
          </Trackpoint>
          <Trackpoint>
            <Time>2021-07-31T11:40:41.000Z</Time>
            <Position>
              <LatitudeDegrees>42.41587995551526546478271484375</LatitudeDegrees>
              <LongitudeDegrees>-2.4395135231316089630126953125</LongitudeDegrees>
            </Position>
            <AltitudeMeters>453.20001220703125</AltitudeMeters>
            <DistanceMeters>284806.59572155</DistanceMeters>
          </Trackpoint>
          <Trackpoint>
            <Time>2021-07-31T11:40:52.000Z</Time>
            <Position>
              <LatitudeDegrees>42.415371425449848175048828125</LatitudeDegrees>
              <LongitudeDegrees>-2.4393470585346221923828125</LongitudeDegrees>
            </Position>
            <AltitudeMeters>453.79998779296875</AltitudeMeters>
            <DistanceMeters>284864.82554581</DistanceMeters>
          </Trackpoint>
          <Trackpoint>
            <Time>2021-07-31T11:40:55.000Z</Time>
            <Position>
              <LatitudeDegrees>42.41522960364818572998046875</LatitudeDegrees>
              <LongitudeDegrees>-2.439258880913257598876953125</LongitudeDegrees>
            </Position>
            <AltitudeMeters>453.600006103515625</AltitudeMeters>
            <DistanceMeters>284882.1938714</DistanceMeters>
          </Trackpoint>
          <Trackpoint>
            <Time>2021-07-31T11:41:04.000Z</Time>
            <Position>
              <LatitudeDegrees>42.414818219840526580810546875</LatitudeDegrees>
              <LongitudeDegrees>-2.43907950818538665771484375</LongitudeDegrees>
            </Position>
            <AltitudeMeters>454.399993896484375</AltitudeMeters>
            <DistanceMeters>284930.29550814</DistanceMeters>
          </Trackpoint>
          <Trackpoint>
            <Time>2021-07-31T11:41:05.000Z</Time>
            <Position>
              <LatitudeDegrees>42.41477270610630512237548828125</LatitudeDegrees>
              <LongitudeDegrees>-2.4390736408531665802001953125</LongitudeDegrees>
            </Position>
            <AltitudeMeters>454.600006103515625</AltitudeMeters>
            <DistanceMeters>284935.38454137</DistanceMeters>
          </Trackpoint>
          <Trackpoint>
            <Time>2021-07-31T11:41:09.000Z</Time>
            <Position>
              <LatitudeDegrees>42.41458830423653125762939453125</LatitudeDegrees>
              <LongitudeDegrees>-2.43910004384815692901611328125</LongitudeDegrees>
            </Position>
            <AltitudeMeters>454.600006103515625</AltitudeMeters>
            <DistanceMeters>284956.02306617</DistanceMeters>
          </Trackpoint>
          <Trackpoint>
            <Time>2021-07-31T11:41:23.000Z</Time>
            <Position>
              <LatitudeDegrees>42.41405219770967960357666015625</LatitudeDegrees>
              <LongitudeDegrees>-2.4392188154160976409912109375</LongitudeDegrees>
            </Position>
            <AltitudeMeters>454.600006103515625</AltitudeMeters>
            <DistanceMeters>285016.4857501</DistanceMeters>
          </Trackpoint>
          <Trackpoint>
            <Time>2021-07-31T11:41:25.000Z</Time>
            <Position>
              <LatitudeDegrees>42.4139711447060108184814453125</LatitudeDegrees>
              <LongitudeDegrees>-2.43924823589622974395751953125</LongitudeDegrees>
            </Position>
            <AltitudeMeters>455</AltitudeMeters>
            <DistanceMeters>285025.82547913</DistanceMeters>
          </Trackpoint>
          <Trackpoint>
            <Time>2021-07-31T11:41:35.000Z</Time>
            <Position>
              <LatitudeDegrees>42.41354324854910373687744140625</LatitudeDegrees>
              <LongitudeDegrees>-2.439429871737957000732421875</LongitudeDegrees>
            </Position>
            <AltitudeMeters>454.79998779296875</AltitudeMeters>
            <DistanceMeters>285075.73522475</DistanceMeters>
          </Trackpoint>
          <Trackpoint>
            <Time>2021-07-31T11:41:39.000Z</Time>
            <Position>
              <LatitudeDegrees>42.41337259300053119659423828125</LatitudeDegrees>
              <LongitudeDegrees>-2.4394682608544826507568359375</LongitudeDegrees>
            </Position>
            <AltitudeMeters>455.600006103515625</AltitudeMeters>
            <DistanceMeters>285094.98980391</DistanceMeters>
          </Trackpoint>
          <Trackpoint>
            <Time>2021-07-31T11:41:40.000Z</Time>
            <Position>
              <LatitudeDegrees>42.413329593837261199951171875</LatitudeDegrees>
              <LongitudeDegrees>-2.4394870363175868988037109375</LongitudeDegrees>
            </Position>
            <AltitudeMeters>456.20001220703125</AltitudeMeters>
            <DistanceMeters>285100.01814499</DistanceMeters>
          </Trackpoint>
          <Trackpoint>
            <Time>2021-07-31T11:41:42.000Z</Time>
            <Position>
              <LatitudeDegrees>42.4132476188242435455322265625</LatitudeDegrees>
              <LongitudeDegrees>-2.43952986784279346466064453125</LongitudeDegrees>
            </Position>
            <AltitudeMeters>456.79998779296875</AltitudeMeters>
            <DistanceMeters>285109.79758974</DistanceMeters>
          </Trackpoint>
          <Trackpoint>
            <Time>2021-07-31T11:41:49.000Z</Time>
            <Position>
              <LatitudeDegrees>42.41299188695847988128662109375</LatitudeDegrees>
              <LongitudeDegrees>-2.439722903072834014892578125</LongitudeDegrees>
            </Position>
            <AltitudeMeters>457.399993896484375</AltitudeMeters>
            <DistanceMeters>285142.38274753</DistanceMeters>
          </Trackpoint>
          <Trackpoint>
            <Time>2021-07-31T11:41:58.000Z</Time>
            <Position>
              <LatitudeDegrees>42.41267169825732707977294921875</LatitudeDegrees>
              <LongitudeDegrees>-2.4399765394628047943115234375</LongitudeDegrees>
            </Position>
            <AltitudeMeters>457.79998779296875</AltitudeMeters>
            <DistanceMeters>285183.66767201</DistanceMeters>
          </Trackpoint>
          <Trackpoint>
            <Time>2021-07-31T11:42:10.000Z</Time>
            <Position>
              <LatitudeDegrees>42.4121767468750476837158203125</LatitudeDegrees>
              <LongitudeDegrees>-2.4403497017920017242431640625</LongitudeDegrees>
            </Position>
            <AltitudeMeters>458</AltitudeMeters>
            <DistanceMeters>285246.71630365</DistanceMeters>
          </Trackpoint>
          <Trackpoint>
            <Time>2021-07-31T11:42:14.000Z</Time>
            <Position>
              <LatitudeDegrees>42.41203517653048038482666015625</LatitudeDegrees>
              <LongitudeDegrees>-2.4404771067202091217041015625</LongitudeDegrees>
            </Position>
            <AltitudeMeters>458.20001220703125</AltitudeMeters>
            <DistanceMeters>285265.63401994</DistanceMeters>
          </Trackpoint>
          <Trackpoint>
            <Time>2021-07-31T11:42:25.000Z</Time>
            <Position>
              <LatitudeDegrees>42.4117207713425159454345703125</LatitudeDegrees>
              <LongitudeDegrees>-2.44091707281768321990966796875</LongitudeDegrees>
            </Position>
            <AltitudeMeters>458.79998779296875</AltitudeMeters>
            <DistanceMeters>285315.95028383</DistanceMeters>
          </Trackpoint>
          <Trackpoint>
            <Time>2021-07-31T11:42:44.000Z</Time>
            <Position>
              <LatitudeDegrees>42.41124710999429225921630859375</LatitudeDegrees>
              <LongitudeDegrees>-2.44127296842634677886962890625</LongitudeDegrees>
            </Position>
            <AltitudeMeters>458.600006103515625</AltitudeMeters>
            <DistanceMeters>285376.23864954</DistanceMeters>
          </Trackpoint>
          <Trackpoint>
            <Time>2021-07-31T11:42:57.000Z</Time>
            <Position>
              <LatitudeDegrees>42.4107759632170200347900390625</LatitudeDegrees>
              <LongitudeDegrees>-2.44172927923500537872314453125</LongitudeDegrees>
            </Position>
            <AltitudeMeters>459</AltitudeMeters>
            <DistanceMeters>285440.70599401</DistanceMeters>
          </Trackpoint>
          <Trackpoint>
            <Time>2021-07-31T11:43:05.000Z</Time>
            <Position>
              <LatitudeDegrees>42.410398609936237335205078125</LatitudeDegrees>
              <LongitudeDegrees>-2.44189959950745105743408203125</LongitudeDegrees>
            </Position>
            <AltitudeMeters>460.20001220703125</AltitudeMeters>
            <DistanceMeters>285484.97702191</DistanceMeters>
          </Trackpoint>
          <Trackpoint>
            <Time>2021-07-31T11:43:11.000Z</Time>
            <Position>
              <LatitudeDegrees>42.41014740429818630218505859375</LatitudeDegrees>
              <LongitudeDegrees>-2.4420415051281452178955078125</LongitudeDegrees>
            </Position>
            <AltitudeMeters>459.79998779296875</AltitudeMeters>
            <DistanceMeters>285515.27132384</DistanceMeters>
          </Trackpoint>
          <Trackpoint>
            <Time>2021-07-31T11:43:18.000Z</Time>
            <Position>
              <LatitudeDegrees>42.4098512716591358184814453125</LatitudeDegrees>
              <LongitudeDegrees>-2.4421876855194568634033203125</LongitudeDegrees>
            </Position>
            <AltitudeMeters>459.600006103515625</AltitudeMeters>
            <DistanceMeters>285550.35240176</DistanceMeters>
          </Trackpoint>
          <Trackpoint>
            <Time>2021-07-31T11:43:30.000Z</Time>
            <Position>
              <LatitudeDegrees>42.40934525616466999053955078125</LatitudeDegrees>
              <LongitudeDegrees>-2.4424455128610134124755859375</LongitudeDegrees>
            </Position>
            <AltitudeMeters>460</AltitudeMeters>
            <DistanceMeters>285610.52652579</DistanceMeters>
          </Trackpoint>
          <Trackpoint>
            <Time>2021-07-31T11:43:40.000Z</Time>
            <Position>
              <LatitudeDegrees>42.4090110696852207183837890625</LatitudeDegrees>
              <LongitudeDegrees>-2.4427418969571590423583984375</LongitudeDegrees>
            </Position>
            <AltitudeMeters>460.20001220703125</AltitudeMeters>
            <DistanceMeters>285654.98724974</DistanceMeters>
          </Trackpoint>
          <Trackpoint>
            <Time>2021-07-31T11:43:54.000Z</Time>
            <Position>
              <LatitudeDegrees>42.4085333012044429779052734375</LatitudeDegrees>
              <LongitudeDegrees>-2.44308765046298503875732421875</LongitudeDegrees>
            </Position>
            <AltitudeMeters>460.79998779296875</AltitudeMeters>
            <DistanceMeters>285715.27898543</DistanceMeters>
          </Trackpoint>
          <Trackpoint>
            <Time>2021-07-31T11:44:05.000Z</Time>
            <Position>
              <LatitudeDegrees>42.408238761126995086669921875</LatitudeDegrees>
              <LongitudeDegrees>-2.44352661073207855224609375</LongitudeDegrees>
            </Position>
            <AltitudeMeters>462.399993896484375</AltitudeMeters>
            <DistanceMeters>285764.02379977</DistanceMeters>
          </Trackpoint>
          <Trackpoint>
            <Time>2021-07-31T11:44:08.000Z</Time>
            <Position>
              <LatitudeDegrees>42.4082023836672306060791015625</LatitudeDegrees>
              <LongitudeDegrees>-2.4435891397297382354736328125</LongitudeDegrees>
            </Position>
            <AltitudeMeters>463.399993896484375</AltitudeMeters>
            <DistanceMeters>285770.56616649</DistanceMeters>
          </Trackpoint>
          <Trackpoint>
            <Time>2021-07-31T11:44:12.000Z</Time>
            <Position>
              <LatitudeDegrees>42.40817011334002017974853515625</LatitudeDegrees>
              <LongitudeDegrees>-2.4436907283961772918701171875</LongitudeDegrees>
            </Position>
            <AltitudeMeters>463.600006103515625</AltitudeMeters>
            <DistanceMeters>285779.65501347</DistanceMeters>
          </Trackpoint>
          <Trackpoint>
            <Time>2021-07-31T11:44:17.000Z</Time>
            <Position>
              <LatitudeDegrees>42.40827304311096668243408203125</LatitudeDegrees>
              <LongitudeDegrees>-2.4437802471220493316650390625</LongitudeDegrees>
            </Position>
            <AltitudeMeters>464.20001220703125</AltitudeMeters>
            <DistanceMeters>285793.27005696</DistanceMeters>
          </Trackpoint>
          <Trackpoint>
            <Time>2021-07-31T11:44:31.000Z</Time>
            <Position>
              <LatitudeDegrees>42.40851938724517822265625</LatitudeDegrees>
              <LongitudeDegrees>-2.44371461682021617889404296875</LongitudeDegrees>
            </Position>
            <AltitudeMeters>464.20001220703125</AltitudeMeters>
            <DistanceMeters>285821.21405149</DistanceMeters>
          </Trackpoint>
          <Trackpoint>
            <Time>2021-07-31T11:44:36.000Z</Time>
            <Position>
              <LatitudeDegrees>42.408543527126312255859375</LatitudeDegrees>
              <LongitudeDegrees>-2.44370154105126857757568359375</LongitudeDegrees>
            </Position>
            <AltitudeMeters>464.20001220703125</AltitudeMeters>
            <DistanceMeters>285824.10885907</DistanceMeters>
          </Trackpoint>
          <Trackpoint>
            <Time>2021-07-31T11:44:41.000Z</Time>
            <Position>
              <LatitudeDegrees>42.4085765518248081207275390625</LatitudeDegrees>
              <LongitudeDegrees>-2.44368813000619411468505859375</LongitudeDegrees>
            </Position>
            <AltitudeMeters>464.399993896484375</AltitudeMeters>
            <DistanceMeters>285827.94539717</DistanceMeters>
          </Trackpoint>
          <Trackpoint>
            <Time>2021-07-31T11:44:44.000Z</Time>
            <Position>
              <LatitudeDegrees>42.408597506582736968994140625</LatitudeDegrees>
              <LongitudeDegrees>-2.44367002509534358978271484375</LongitudeDegrees>
            </Position>
            <AltitudeMeters>464.399993896484375</AltitudeMeters>
            <DistanceMeters>285830.71261686</DistanceMeters>
          </Trackpoint>
          <Trackpoint>
            <Time>2021-07-31T11:44:48.000Z</Time>
            <Position>
              <LatitudeDegrees>42.4085966683924198150634765625</LatitudeDegrees>
              <LongitudeDegrees>-2.4435639940202236175537109375</LongitudeDegrees>
            </Position>
            <AltitudeMeters>464.600006103515625</AltitudeMeters>
            <DistanceMeters>285839.42662357</DistanceMeters>
          </Trackpoint>
          <Trackpoint>
            <Time>2021-07-31T11:44:54.000Z</Time>
            <Position>
              <LatitudeDegrees>42.40853346884250640869140625</LatitudeDegrees>
              <LongitudeDegrees>-2.4432904087007045745849609375</LongitudeDegrees>
            </Position>
            <AltitudeMeters>464.600006103515625</AltitudeMeters>
            <DistanceMeters>285862.98443412</DistanceMeters>
          </Trackpoint>
          <Trackpoint>
            <Time>2021-07-31T11:45:06.000Z</Time>
            <Position>
              <LatitudeDegrees>42.40835803560912609100341796875</LatitudeDegrees>
              <LongitudeDegrees>-2.442555315792560577392578125</LongitudeDegrees>
            </Position>
            <AltitudeMeters>465.20001220703125</AltitudeMeters>
            <DistanceMeters>285926.47202308</DistanceMeters>
          </Trackpoint>
          <Trackpoint>
            <Time>2021-07-31T11:45:16.000Z</Time>
            <Position>
              <LatitudeDegrees>42.40819073282182216644287109375</LatitudeDegrees>
              <LongitudeDegrees>-2.4418034590780735015869140625</LongitudeDegrees>
            </Position>
            <AltitudeMeters>463.600006103515625</AltitudeMeters>
            <DistanceMeters>285991.00502793</DistanceMeters>
          </Trackpoint>
          <Trackpoint>
            <Time>2021-07-31T11:45:17.000Z</Time>
            <Position>
              <LatitudeDegrees>42.40817178972065448760986328125</LatitudeDegrees>
              <LongitudeDegrees>-2.4417154490947723388671875</LongitudeDegrees>
            </Position>
            <AltitudeMeters>463.20001220703125</AltitudeMeters>
            <DistanceMeters>285998.53915432</DistanceMeters>
          </Trackpoint>
          <Trackpoint>
            <Time>2021-07-31T11:45:20.000Z</Time>
            <Position>
              <LatitudeDegrees>42.40811345167458057403564453125</LatitudeDegrees>
              <LongitudeDegrees>-2.44144278578460216522216796875</LongitudeDegrees>
            </Position>
            <AltitudeMeters>462.20001220703125</AltitudeMeters>
            <DistanceMeters>286021.86855139</DistanceMeters>
          </Trackpoint>
          <Trackpoint>
            <Time>2021-07-31T11:45:29.000Z</Time>
            <Position>
              <LatitudeDegrees>42.407944388687610626220703125</LatitudeDegrees>
              <LongitudeDegrees>-2.4406668730080127716064453125</LongitudeDegrees>
            </Position>
            <AltitudeMeters>444</AltitudeMeters>
            <DistanceMeters>286088.35235391</DistanceMeters>
          </Trackpoint>
          <Trackpoint>
            <Time>2021-07-31T11:45:39.000Z</Time>
            <Position>
              <LatitudeDegrees>42.4077321588993072509765625</LatitudeDegrees>
              <LongitudeDegrees>-2.439920045435428619384765625</LongitudeDegrees>
            </Position>
            <AltitudeMeters>462.79998779296875</AltitudeMeters>
            <DistanceMeters>286154.11640156</DistanceMeters>
          </Trackpoint>
          <Trackpoint>
            <Time>2021-07-31T11:45:41.000Z</Time>
            <Position>
              <LatitudeDegrees>42.40768547169864177703857421875</LatitudeDegrees>
              <LongitudeDegrees>-2.439791969954967498779296875</LongitudeDegrees>
            </Position>
            <AltitudeMeters>463.20001220703125</AltitudeMeters>
            <DistanceMeters>286165.85441273</DistanceMeters>
          </Trackpoint>
          <Trackpoint>
            <Time>2021-07-31T11:45:46.000Z</Time>
            <Position>
              <LatitudeDegrees>42.4075811170041561126708984375</LatitudeDegrees>
              <LongitudeDegrees>-2.439505644142627716064453125</LongitudeDegrees>
            </Position>
            <AltitudeMeters>464.20001220703125</AltitudeMeters>
            <DistanceMeters>286192.09555427</DistanceMeters>
          </Trackpoint>
          <Trackpoint>
            <Time>2021-07-31T11:45:57.000Z</Time>
            <Position>
              <LatitudeDegrees>42.4073447473347187042236328125</LatitudeDegrees>
              <LongitudeDegrees>-2.4391539394855499267578125</LongitudeDegrees>
            </Position>
            <AltitudeMeters>464.79998779296875</AltitudeMeters>
            <DistanceMeters>286231.17961562</DistanceMeters>
          </Trackpoint>
          <Trackpoint>
            <Time>2021-07-31T11:46:01.000Z</Time>
            <Position>
              <LatitudeDegrees>42.40721759386360645294189453125</LatitudeDegrees>
              <LongitudeDegrees>-2.43922778405249118804931640625</LongitudeDegrees>
            </Position>
            <AltitudeMeters>465</AltitudeMeters>
            <DistanceMeters>286246.57863531</DistanceMeters>
          </Trackpoint>
          <Trackpoint>
            <Time>2021-07-31T11:46:05.000Z</Time>
            <Position>
              <LatitudeDegrees>42.407090775668621063232421875</LatitudeDegrees>
              <LongitudeDegrees>-2.43932032026350498199462890625</LongitudeDegrees>
            </Position>
            <AltitudeMeters>465.20001220703125</AltitudeMeters>
            <DistanceMeters>286262.61198232</DistanceMeters>
          </Trackpoint>
          <Trackpoint>
            <Time>2021-07-31T11:46:09.000Z</Time>
            <Position>
              <LatitudeDegrees>42.40696378983557224273681640625</LatitudeDegrees>
              <LongitudeDegrees>-2.4394189752638339996337890625</LongitudeDegrees>
            </Position>
            <AltitudeMeters>466.399993896484375</AltitudeMeters>
            <DistanceMeters>286278.90594677</DistanceMeters>
          </Trackpoint>
          <Trackpoint>
            <Time>2021-07-31T11:46:18.000Z</Time>
            <Position>
              <LatitudeDegrees>42.40672540850937366485595703125</LatitudeDegrees>
              <LongitudeDegrees>-2.4395966716110706329345703125</LongitudeDegrees>
            </Position>
            <AltitudeMeters>467.600006103515625</AltitudeMeters>
            <DistanceMeters>286309.19160319</DistanceMeters>
          </Trackpoint>
          <Trackpoint>
            <Time>2021-07-31T11:46:23.000Z</Time>
            <Position>
              <LatitudeDegrees>42.40660822950303554534912109375</LatitudeDegrees>
              <LongitudeDegrees>-2.43968694470822811126708984375</LongitudeDegrees>
            </Position>
            <AltitudeMeters>468.600006103515625</AltitudeMeters>
            <DistanceMeters>286324.19619801</DistanceMeters>
          </Trackpoint>
          <Trackpoint>
            <Time>2021-07-31T11:46:29.000Z</Time>
            <Position>
              <LatitudeDegrees>42.4064150266349315643310546875</LatitudeDegrees>
              <LongitudeDegrees>-2.4397609569132328033447265625</LongitudeDegrees>
            </Position>
            <AltitudeMeters>469.79998779296875</AltitudeMeters>
            <DistanceMeters>286346.5436448</DistanceMeters>
          </Trackpoint>
          <Trackpoint>
            <Time>2021-07-31T11:46:32.000Z</Time>
            <Position>
              <LatitudeDegrees>42.40632022731006145477294921875</LatitudeDegrees>
              <LongitudeDegrees>-2.43979607708752155303955078125</LongitudeDegrees>
            </Position>
            <AltitudeMeters>470.79998779296875</AltitudeMeters>
            <DistanceMeters>286357.48204106</DistanceMeters>
          </Trackpoint>
          <Trackpoint>
            <Time>2021-07-31T11:46:43.000Z</Time>
            <Position>
              <LatitudeDegrees>42.4059774912893772125244140625</LatitudeDegrees>
              <LongitudeDegrees>-2.43996455334126949310302734375</LongitudeDegrees>
            </Position>
            <AltitudeMeters>471.79998779296875</AltitudeMeters>
            <DistanceMeters>286398.0641226</DistanceMeters>
          </Trackpoint>
          <Trackpoint>
            <Time>2021-07-31T11:46:49.000Z</Time>
            <Position>
              <LatitudeDegrees>42.40580742247402667999267578125</LatitudeDegrees>
              <LongitudeDegrees>-2.4400442652404308319091796875</LongitudeDegrees>
            </Position>
            <AltitudeMeters>473</AltitudeMeters>
            <DistanceMeters>286418.09470813</DistanceMeters>
          </Trackpoint>
          <Trackpoint>
            <Time>2021-07-31T11:47:05.000Z</Time>
            <Position>
              <LatitudeDegrees>42.4052821286022663116455078125</LatitudeDegrees>
              <LongitudeDegrees>-2.44029588997364044189453125</LongitudeDegrees>
            </Position>
            <AltitudeMeters>473.79998779296875</AltitudeMeters>
            <DistanceMeters>286480.11039709</DistanceMeters>
          </Trackpoint>
          <Trackpoint>
            <Time>2021-07-31T11:47:08.000Z</Time>
            <Position>
              <LatitudeDegrees>42.405180372297763824462890625</LatitudeDegrees>
              <LongitudeDegrees>-2.44032748974859714508056640625</LongitudeDegrees>
            </Position>
            <AltitudeMeters>474</AltitudeMeters>
            <DistanceMeters>286491.73010892</DistanceMeters>
          </Trackpoint>
          <Trackpoint>
            <Time>2021-07-31T11:47:09.000Z</Time>
            <Position>
              <LatitudeDegrees>42.4051491916179656982421875</LatitudeDegrees>
              <LongitudeDegrees>-2.44031810201704502105712890625</LongitudeDegrees>
            </Position>
            <AltitudeMeters>474.20001220703125</AltitudeMeters>
            <DistanceMeters>286495.28441292</DistanceMeters>
          </Trackpoint>
          <Trackpoint>
            <Time>2021-07-31T11:47:25.000Z</Time>
            <Position>
              <LatitudeDegrees>42.40477963350713253021240234375</LatitudeDegrees>
              <LongitudeDegrees>-2.4397559277713298797607421875</LongitudeDegrees>
            </Position>
            <AltitudeMeters>474.600006103515625</AltitudeMeters>
            <DistanceMeters>286557.14344657</DistanceMeters>
          </Trackpoint>
          <Trackpoint>
            <Time>2021-07-31T11:47:28.000Z</Time>
            <Position>
              <LatitudeDegrees>42.40470461547374725341796875</LatitudeDegrees>
              <LongitudeDegrees>-2.43965961970388889312744140625</LongitudeDegrees>
            </Position>
            <AltitudeMeters>475.20001220703125</AltitudeMeters>
            <DistanceMeters>286568.64874494</DistanceMeters>
          </Trackpoint>
          <Trackpoint>
            <Time>2021-07-31T11:47:40.000Z</Time>
            <Position>
              <LatitudeDegrees>42.40445910952985286712646484375</LatitudeDegrees>
              <LongitudeDegrees>-2.4391393549740314483642578125</LongitudeDegrees>
            </Position>
            <AltitudeMeters>476.20001220703125</AltitudeMeters>
            <DistanceMeters>286619.39265451</DistanceMeters>
          </Trackpoint>
          <Trackpoint>
            <Time>2021-07-31T11:47:51.000Z</Time>
            <Position>
              <LatitudeDegrees>42.404452823102474212646484375</LatitudeDegrees>
              <LongitudeDegrees>-2.4385284818708896636962890625</LongitudeDegrees>
            </Position>
            <AltitudeMeters>477.20001220703125</AltitudeMeters>
            <DistanceMeters>286669.60256191</DistanceMeters>
          </Trackpoint>
          <Trackpoint>
            <Time>2021-07-31T11:47:59.000Z</Time>
            <Position>
              <LatitudeDegrees>42.40448844619095325469970703125</LatitudeDegrees>
              <LongitudeDegrees>-2.4381132423877716064453125</LongitudeDegrees>
            </Position>
            <AltitudeMeters>478.399993896484375</AltitudeMeters>
            <DistanceMeters>286703.95889193</DistanceMeters>
          </Trackpoint>
          <Trackpoint>
            <Time>2021-07-31T11:48:09.000Z</Time>
            <Position>
              <LatitudeDegrees>42.40457662381231784820556640625</LatitudeDegrees>
              <LongitudeDegrees>-2.43759985081851482391357421875</LongitudeDegrees>
            </Position>
            <AltitudeMeters>479.399993896484375</AltitudeMeters>
            <DistanceMeters>286747.27867259</DistanceMeters>
          </Trackpoint>
          <Trackpoint>
            <Time>2021-07-31T11:48:14.000Z</Time>
            <Position>
              <LatitudeDegrees>42.4046347104012966156005859375</LatitudeDegrees>
              <LongitudeDegrees>-2.43736297823488712310791015625</LongitudeDegrees>
            </Position>
            <AltitudeMeters>480.399993896484375</AltitudeMeters>
            <DistanceMeters>286767.79168071</DistanceMeters>
          </Trackpoint>
          <Trackpoint>
            <Time>2021-07-31T11:48:20.000Z</Time>
            <Position>
              <LatitudeDegrees>42.40471073426306247711181640625</LatitudeDegrees>
              <LongitudeDegrees>-2.4370884709060192108154296875</LongitudeDegrees>
            </Position>
            <AltitudeMeters>481.399993896484375</AltitudeMeters>
            <DistanceMeters>286791.88690295</DistanceMeters>
          </Trackpoint>
          <Trackpoint>
            <Time>2021-07-31T11:48:26.000Z</Time>
            <Position>
              <LatitudeDegrees>42.404767982661724090576171875</LatitudeDegrees>
              <LongitudeDegrees>-2.43681094609200954437255859375</LongitudeDegrees>
            </Position>
            <AltitudeMeters>482.399993896484375</AltitudeMeters>
            <DistanceMeters>286815.56896342</DistanceMeters>
          </Trackpoint>
          <Trackpoint>
            <Time>2021-07-31T11:48:31.000Z</Time>
            <Position>
              <LatitudeDegrees>42.40478365682065486907958984375</LatitudeDegrees>
              <LongitudeDegrees>-2.43658530525863170623779296875</LongitudeDegrees>
            </Position>
            <AltitudeMeters>483.399993896484375</AltitudeMeters>
            <DistanceMeters>286834.19516907</DistanceMeters>
          </Trackpoint>
          <Trackpoint>
            <Time>2021-07-31T11:48:45.000Z</Time>
            <Position>
              <LatitudeDegrees>42.40470687858760356903076171875</LatitudeDegrees>
              <LongitudeDegrees>-2.43584820069372653961181640625</LongitudeDegrees>
            </Position>
            <AltitudeMeters>483.79998779296875</AltitudeMeters>
            <DistanceMeters>286895.37422092</DistanceMeters>
          </Trackpoint>
          <Trackpoint>
            <Time>2021-07-31T11:48:58.000Z</Time>
            <Position>
              <LatitudeDegrees>42.404593639075756072998046875</LatitudeDegrees>
              <LongitudeDegrees>-2.43508578278124332427978515625</LongitudeDegrees>
            </Position>
            <AltitudeMeters>484</AltitudeMeters>
            <DistanceMeters>286959.28892339</DistanceMeters>
          </Trackpoint>
          <Trackpoint>
            <Time>2021-07-31T11:49:04.000Z</Time>
            <Position>
              <LatitudeDegrees>42.40454326383769512176513671875</LatitudeDegrees>
              <LongitudeDegrees>-2.43472502566874027252197265625</LongitudeDegrees>
            </Position>
            <AltitudeMeters>484.600006103515625</AltitudeMeters>
            <DistanceMeters>286989.46345914</DistanceMeters>
          </Trackpoint>
          <Trackpoint>
            <Time>2021-07-31T11:49:15.000Z</Time>
            <Position>
              <LatitudeDegrees>42.40450101904571056365966796875</LatitudeDegrees>
              <LongitudeDegrees>-2.434080205857753753662109375</LongitudeDegrees>
            </Position>
            <AltitudeMeters>485.600006103515625</AltitudeMeters>
            <DistanceMeters>287042.66653953</DistanceMeters>
          </Trackpoint>
          <Trackpoint>
            <Time>2021-07-31T11:49:20.000Z</Time>
            <Position>
              <LatitudeDegrees>42.4045166932046413421630859375</LatitudeDegrees>
              <LongitudeDegrees>-2.43380963802337646484375</LongitudeDegrees>
            </Position>
            <AltitudeMeters>486.600006103515625</AltitudeMeters>
            <DistanceMeters>287064.97172035</DistanceMeters>
          </Trackpoint>
          <Trackpoint>
            <Time>2021-07-31T11:49:26.000Z</Time>
            <Position>
              <LatitudeDegrees>42.40453706122934818267822265625</LatitudeDegrees>
              <LongitudeDegrees>-2.433498166501522064208984375</LongitudeDegrees>
            </Position>
            <AltitudeMeters>487.79998779296875</AltitudeMeters>
            <DistanceMeters>287090.67042987</DistanceMeters>
          </Trackpoint>
          <Trackpoint>
            <Time>2021-07-31T11:49:35.000Z</Time>
            <Position>
              <LatitudeDegrees>42.40455533377826213836669921875</LatitudeDegrees>
              <LongitudeDegrees>-2.4330480583012104034423828125</LongitudeDegrees>
            </Position>
            <AltitudeMeters>489</AltitudeMeters>
            <DistanceMeters>287127.71854169</DistanceMeters>
          </Trackpoint>
          <Trackpoint>
            <Time>2021-07-31T11:49:42.000Z</Time>
            <Position>
              <LatitudeDegrees>42.40457628853619098663330078125</LatitudeDegrees>
              <LongitudeDegrees>-2.43269073776900768280029296875</LongitudeDegrees>
            </Position>
            <AltitudeMeters>490.20001220703125</AltitudeMeters>
            <DistanceMeters>287157.17774274</DistanceMeters>
          </Trackpoint>
          <Trackpoint>
            <Time>2021-07-31T11:49:51.000Z</Time>
            <Position>
              <LatitudeDegrees>42.40459875203669071197509765625</LatitudeDegrees>
              <LongitudeDegrees>-2.43226267397403717041015625</LongitudeDegrees>
            </Position>
            <AltitudeMeters>491.20001220703125</AltitudeMeters>
            <DistanceMeters>287192.44725054</DistanceMeters>
          </Trackpoint>
          <Trackpoint>
            <Time>2021-07-31T11:49:56.000Z</Time>
            <Position>
              <LatitudeDegrees>42.40461367182433605194091796875</LatitudeDegrees>
              <LongitudeDegrees>-2.43205002509057521820068359375</LongitudeDegrees>
            </Position>
            <AltitudeMeters>492.600006103515625</AltitudeMeters>
            <DistanceMeters>287210.002777</DistanceMeters>
          </Trackpoint>
          <Trackpoint>
            <Time>2021-07-31T11:50:00.000Z</Time>
            <Position>
              <LatitudeDegrees>42.4046219699084758758544921875</LatitudeDegrees>
              <LongitudeDegrees>-2.43189194239675998687744140625</LongitudeDegrees>
            </Position>
            <AltitudeMeters>493.600006103515625</AltitudeMeters>
            <DistanceMeters>287223.02733135</DistanceMeters>
          </Trackpoint>
          <Trackpoint>
            <Time>2021-07-31T11:50:05.000Z</Time>
            <Position>
              <LatitudeDegrees>42.40464015863835811614990234375</LatitudeDegrees>
              <LongitudeDegrees>-2.4316888488829135894775390625</LongitudeDegrees>
            </Position>
            <AltitudeMeters>494.79998779296875</AltitudeMeters>
            <DistanceMeters>287239.84142167</DistanceMeters>
          </Trackpoint>
          <Trackpoint>
            <Time>2021-07-31T11:50:09.000Z</Time>
            <Position>
              <LatitudeDegrees>42.40465273149311542510986328125</LatitudeDegrees>
              <LongitudeDegrees>-2.431528083980083465576171875</LongitudeDegrees>
            </Position>
            <AltitudeMeters>495.79998779296875</AltitudeMeters>
            <DistanceMeters>287253.12784197</DistanceMeters>
          </Trackpoint>
          <Trackpoint>
            <Time>2021-07-31T11:50:15.000Z</Time>
            <Position>
              <LatitudeDegrees>42.4046771228313446044921875</LatitudeDegrees>
              <LongitudeDegrees>-2.43129045702517032623291015625</LongitudeDegrees>
            </Position>
            <AltitudeMeters>497</AltitudeMeters>
            <DistanceMeters>287272.845141</DistanceMeters>
          </Trackpoint>
          <Trackpoint>
            <Time>2021-07-31T11:50:19.000Z</Time>
            <Position>
              <LatitudeDegrees>42.4047078005969524383544921875</LatitudeDegrees>
              <LongitudeDegrees>-2.43113153614103794097900390625</LongitudeDegrees>
            </Position>
            <AltitudeMeters>498</AltitudeMeters>
            <DistanceMeters>287286.34495592</DistanceMeters>
          </Trackpoint>
          <Trackpoint>
            <Time>2021-07-31T11:50:27.000Z</Time>
            <Position>
              <LatitudeDegrees>42.4047835730016231536865234375</LatitudeDegrees>
              <LongitudeDegrees>-2.43080087006092071533203125</LongitudeDegrees>
            </Position>
            <AltitudeMeters>499</AltitudeMeters>
            <DistanceMeters>287314.79938816</DistanceMeters>
          </Trackpoint>
          <Trackpoint>
            <Time>2021-07-31T11:50:34.000Z</Time>
            <Position>
              <LatitudeDegrees>42.40482724271714687347412109375</LatitudeDegrees>
              <LongitudeDegrees>-2.43048160336911678314208984375</LongitudeDegrees>
            </Position>
            <AltitudeMeters>500.20001220703125</AltitudeMeters>
            <DistanceMeters>287341.48481168</DistanceMeters>
          </Trackpoint>
          <Trackpoint>
            <Time>2021-07-31T11:50:44.000Z</Time>
            <Position>
              <LatitudeDegrees>42.40486915223300457000732421875</LatitudeDegrees>
              <LongitudeDegrees>-2.430008612573146820068359375</LongitudeDegrees>
            </Position>
            <AltitudeMeters>501.20001220703125</AltitudeMeters>
            <DistanceMeters>287380.63639461</DistanceMeters>
          </Trackpoint>
          <Trackpoint>
            <Time>2021-07-31T11:50:51.000Z</Time>
            <Position>
              <LatitudeDegrees>42.4048506282269954681396484375</LatitudeDegrees>
              <LongitudeDegrees>-2.429668642580509185791015625</LongitudeDegrees>
            </Position>
            <AltitudeMeters>502.399993896484375</AltitudeMeters>
            <DistanceMeters>287408.65300334</DistanceMeters>
          </Trackpoint>
          <Trackpoint>
            <Time>2021-07-31T11:50:57.000Z</Time>
            <Position>
              <LatitudeDegrees>42.4047859199345111846923828125</LatitudeDegrees>
              <LongitudeDegrees>-2.4293839931488037109375</LongitudeDegrees>
            </Position>
            <AltitudeMeters>503.399993896484375</AltitudeMeters>
            <DistanceMeters>287433.13045362</DistanceMeters>
          </Trackpoint>
          <Trackpoint>
            <Time>2021-07-31T11:51:02.000Z</Time>
            <Position>
              <LatitudeDegrees>42.40473571233451366424560546875</LatitudeDegrees>
              <LongitudeDegrees>-2.42915608920156955718994140625</LongitudeDegrees>
            </Position>
            <AltitudeMeters>504.600006103515625</AltitudeMeters>
            <DistanceMeters>287452.67664262</DistanceMeters>
          </Trackpoint>
          <Trackpoint>
            <Time>2021-07-31T11:51:07.000Z</Time>
            <Position>
              <LatitudeDegrees>42.40468860603868961334228515625</LatitudeDegrees>
              <LongitudeDegrees>-2.4289347231388092041015625</LongitudeDegrees>
            </Position>
            <AltitudeMeters>506</AltitudeMeters>
            <DistanceMeters>287471.61010439</DistanceMeters>
          </Trackpoint>
          <Trackpoint>
            <Time>2021-07-31T11:51:11.000Z</Time>
            <Position>
              <LatitudeDegrees>42.4046581797301769256591796875</LatitudeDegrees>
              <LongitudeDegrees>-2.42875644005835056304931640625</LongitudeDegrees>
            </Position>
            <AltitudeMeters>507.399993896484375</AltitudeMeters>
            <DistanceMeters>287486.64836341</DistanceMeters>
          </Trackpoint>
          <Trackpoint>
            <Time>2021-07-31T11:51:15.000Z</Time>
            <Position>
              <LatitudeDegrees>42.40461182780563831329345703125</LatitudeDegrees>
              <LongitudeDegrees>-2.4285788275301456451416015625</LongitudeDegrees>
            </Position>
            <AltitudeMeters>508.399993896484375</AltitudeMeters>
            <DistanceMeters>287502.13042882</DistanceMeters>
          </Trackpoint>
          <Trackpoint>
            <Time>2021-07-31T11:51:19.000Z</Time>
            <Position>
              <LatitudeDegrees>42.4045716784894466400146484375</LatitudeDegrees>
              <LongitudeDegrees>-2.42839266546070575714111328125</LongitudeDegrees>
            </Position>
            <AltitudeMeters>509.600006103515625</AltitudeMeters>
            <DistanceMeters>287518.06944292</DistanceMeters>
          </Trackpoint>
          <Trackpoint>
            <Time>2021-07-31T11:51:22.000Z</Time>
            <Position>
              <LatitudeDegrees>42.404541671276092529296875</LatitudeDegrees>
              <LongitudeDegrees>-2.42825218476355075836181640625</LongitudeDegrees>
            </Position>
            <AltitudeMeters>510.79998779296875</AltitudeMeters>
            <DistanceMeters>287530.08835023</DistanceMeters>
          </Trackpoint>
          <Trackpoint>
            <Time>2021-07-31T11:51:28.000Z</Time>
            <Position>
              <LatitudeDegrees>42.40448358468711376190185546875</LatitudeDegrees>
              <LongitudeDegrees>-2.42797491140663623809814453125</LongitudeDegrees>
            </Position>
            <AltitudeMeters>512.20001220703125</AltitudeMeters>
            <DistanceMeters>287553.77536713</DistanceMeters>
          </Trackpoint>
          <Trackpoint>
            <Time>2021-07-31T11:51:31.000Z</Time>
            <Position>
              <LatitudeDegrees>42.40445894189178943634033203125</LatitudeDegrees>
              <LongitudeDegrees>-2.4278368614614009857177734375</LongitudeDegrees>
            </Position>
            <AltitudeMeters>513.4000244140625</AltitudeMeters>
            <DistanceMeters>287565.44780447</DistanceMeters>
          </Trackpoint>
          <Trackpoint>
            <Time>2021-07-31T11:51:36.000Z</Time>
            <Position>
              <LatitudeDegrees>42.4044053815305233001708984375</LatitudeDegrees>
              <LongitudeDegrees>-2.42760837078094482421875</LongitudeDegrees>
            </Position>
            <AltitudeMeters>514.4000244140625</AltitudeMeters>
            <DistanceMeters>287585.15021362</DistanceMeters>
          </Trackpoint>
          <Trackpoint>
            <Time>2021-07-31T11:51:42.000Z</Time>
            <Position>
              <LatitudeDegrees>42.4043483845889568328857421875</LatitudeDegrees>
              <LongitudeDegrees>-2.42732916958630084991455078125</LongitudeDegrees>
            </Position>
            <AltitudeMeters>515.4000244140625</AltitudeMeters>
            <DistanceMeters>287608.95739275</DistanceMeters>
          </Trackpoint>
          <Trackpoint>
            <Time>2021-07-31T11:51:47.000Z</Time>
            <Position>
              <LatitudeDegrees>42.40430588833987712860107421875</LatitudeDegrees>
              <LongitudeDegrees>-2.4270955659449100494384765625</LongitudeDegrees>
            </Position>
            <AltitudeMeters>516.5999755859375</AltitudeMeters>
            <DistanceMeters>287628.73025773</DistanceMeters>
          </Trackpoint>
          <Trackpoint>
            <Time>2021-07-31T11:51:52.000Z</Time>
            <Position>
              <LatitudeDegrees>42.40425760857760906219482421875</LatitudeDegrees>
              <LongitudeDegrees>-2.42686531506478786468505859375</LongitudeDegrees>
            </Position>
            <AltitudeMeters>517.5999755859375</AltitudeMeters>
            <DistanceMeters>287648.40193524</DistanceMeters>
          </Trackpoint>
          <Trackpoint>
            <Time>2021-07-31T11:51:58.000Z</Time>
            <Position>
              <LatitudeDegrees>42.4042146094143390655517578125</LatitudeDegrees>
              <LongitudeDegrees>-2.42657680995762348175048828125</LongitudeDegrees>
            </Position>
            <AltitudeMeters>518.5999755859375</AltitudeMeters>
            <DistanceMeters>287672.59122757</DistanceMeters>
          </Trackpoint>
          <Trackpoint>
            <Time>2021-07-31T11:52:14.000Z</Time>
            <Position>
              <LatitudeDegrees>42.4042488075792789459228515625</LatitudeDegrees>
              <LongitudeDegrees>-2.42583744227886199951171875</LongitudeDegrees>
            </Position>
            <AltitudeMeters>518.4000244140625</AltitudeMeters>
            <DistanceMeters>287733.47606781</DistanceMeters>
          </Trackpoint>
          <Trackpoint>
            <Time>2021-07-31T11:52:24.000Z</Time>
            <Position>
              <LatitudeDegrees>42.404170520603656768798828125</LatitudeDegrees>
              <LongitudeDegrees>-2.42528700269758701324462890625</LongitudeDegrees>
            </Position>
            <AltitudeMeters>517.5999755859375</AltitudeMeters>
            <DistanceMeters>287779.54609307</DistanceMeters>
          </Trackpoint>
          <Trackpoint>
            <Time>2021-07-31T11:52:35.000Z</Time>
            <Position>
              <LatitudeDegrees>42.4040546827018260955810546875</LatitudeDegrees>
              <LongitudeDegrees>-2.4245726130902767181396484375</LongitudeDegrees>
            </Position>
            <AltitudeMeters>517.20001220703125</AltitudeMeters>
            <DistanceMeters>287839.65798265</DistanceMeters>
          </Trackpoint>
          <Trackpoint>
            <Time>2021-07-31T11:52:46.000Z</Time>
            <Position>
              <LatitudeDegrees>42.4039529263973236083984375</LatitudeDegrees>
              <LongitudeDegrees>-2.4238236062228679656982421875</LongitudeDegrees>
            </Position>
            <AltitudeMeters>516.4000244140625</AltitudeMeters>
            <DistanceMeters>287902.24928856</DistanceMeters>
          </Trackpoint>
          <Trackpoint>
            <Time>2021-07-31T11:52:57.000Z</Time>
            <Position>
              <LatitudeDegrees>42.403906993567943572998046875</LatitudeDegrees>
              <LongitudeDegrees>-2.42305272258818149566650390625</LongitudeDegrees>
            </Position>
            <AltitudeMeters>515.79998779296875</AltitudeMeters>
            <DistanceMeters>287965.81143533</DistanceMeters>
          </Trackpoint>
          <Trackpoint>
            <Time>2021-07-31T11:52:58.000Z</Time>
            <Position>
              <LatitudeDegrees>42.4039007909595966339111328125</LatitudeDegrees>
              <LongitudeDegrees>-2.42297493852674961090087890625</LongitudeDegrees>
            </Position>
            <AltitudeMeters>515.4000244140625</AltitudeMeters>
            <DistanceMeters>287972.24103018</DistanceMeters>
          </Trackpoint>
          <Trackpoint>
            <Time>2021-07-31T11:53:03.000Z</Time>
            <Position>
              <LatitudeDegrees>42.403874136507511138916015625</LatitudeDegrees>
              <LongitudeDegrees>-2.42253975011408329010009765625</LongitudeDegrees>
            </Position>
            <AltitudeMeters>514.20001220703125</AltitudeMeters>
            <DistanceMeters>288008.13044511</DistanceMeters>
          </Trackpoint>
          <Trackpoint>
            <Time>2021-07-31T11:53:07.000Z</Time>
            <Position>
              <LatitudeDegrees>42.40386064164340496063232421875</LatitudeDegrees>
              <LongitudeDegrees>-2.42213507182896137237548828125</LongitudeDegrees>
            </Position>
            <AltitudeMeters>512.79998779296875</AltitudeMeters>
            <DistanceMeters>288041.42344472</DistanceMeters>
          </Trackpoint>
          <Trackpoint>
            <Time>2021-07-31T11:53:10.000Z</Time>
            <Position>
              <LatitudeDegrees>42.40384471602737903594970703125</LatitudeDegrees>
              <LongitudeDegrees>-2.4218085967004299163818359375</LongitudeDegrees>
            </Position>
            <AltitudeMeters>511.600006103515625</AltitudeMeters>
            <DistanceMeters>288068.31382221</DistanceMeters>
          </Trackpoint>
          <Trackpoint>
            <Time>2021-07-31T11:53:13.000Z</Time>
            <Position>
              <LatitudeDegrees>42.403823845088481903076171875</LatitudeDegrees>
              <LongitudeDegrees>-2.421471141278743743896484375</LongitudeDegrees>
            </Position>
            <AltitudeMeters>510.399993896484375</AltitudeMeters>
            <DistanceMeters>288096.14513366</DistanceMeters>
          </Trackpoint>
          <Trackpoint>
            <Time>2021-07-31T11:53:20.000Z</Time>
            <Position>
              <LatitudeDegrees>42.40377631969749927520751953125</LatitudeDegrees>
              <LongitudeDegrees>-2.42068600840866565704345703125</LongitudeDegrees>
            </Position>
            <AltitudeMeters>509.600006103515625</AltitudeMeters>
            <DistanceMeters>288160.88894793</DistanceMeters>
          </Trackpoint>
          <Trackpoint>
            <Time>2021-07-31T11:53:22.000Z</Time>
            <Position>
              <LatitudeDegrees>42.40375536493957042694091796875</LatitudeDegrees>
              <LongitudeDegrees>-2.42046271450817584991455078125</LongitudeDegrees>
            </Position>
            <AltitudeMeters>509.399993896484375</AltitudeMeters>
            <DistanceMeters>288179.38843081</DistanceMeters>
          </Trackpoint>
          <Trackpoint>
            <Time>2021-07-31T11:53:29.000Z</Time>
            <Position>
              <LatitudeDegrees>42.403677999973297119140625</LatitudeDegrees>
              <LongitudeDegrees>-2.41968847811222076416015625</LongitudeDegrees>
            </Position>
            <AltitudeMeters>508.600006103515625</AltitudeMeters>
            <DistanceMeters>288243.600338</DistanceMeters>
          </Trackpoint>
          <Trackpoint>
            <Time>2021-07-31T11:53:30.000Z</Time>
            <Position>
              <LatitudeDegrees>42.40367221646010875701904296875</LatitudeDegrees>
              <LongitudeDegrees>-2.41957959719002246856689453125</LongitudeDegrees>
            </Position>
            <AltitudeMeters>508.399993896484375</AltitudeMeters>
            <DistanceMeters>288252.57118196</DistanceMeters>
          </Trackpoint>
          <Trackpoint>
            <Time>2021-07-31T11:53:35.000Z</Time>
            <Position>
              <LatitudeDegrees>42.4036203324794769287109375</LatitudeDegrees>
              <LongitudeDegrees>-2.4190516211092472076416015625</LongitudeDegrees>
            </Position>
            <AltitudeMeters>507.399993896484375</AltitudeMeters>
            <DistanceMeters>288296.34643207</DistanceMeters>
          </Trackpoint>
          <Trackpoint>
            <Time>2021-07-31T11:53:43.000Z</Time>
            <Position>
              <LatitudeDegrees>42.40351916290819644927978515625</LatitudeDegrees>
              <LongitudeDegrees>-2.41823413409292697906494140625</LongitudeDegrees>
            </Position>
            <AltitudeMeters>506.79998779296875</AltitudeMeters>
            <DistanceMeters>288364.47018158</DistanceMeters>
          </Trackpoint>
          <Trackpoint>
            <Time>2021-07-31T11:53:47.000Z</Time>
            <Position>
              <LatitudeDegrees>42.4034810252487659454345703125</LatitudeDegrees>
              <LongitudeDegrees>-2.41782995872199535369873046875</LongitudeDegrees>
            </Position>
            <AltitudeMeters>506.399993896484375</AltitudeMeters>
            <DistanceMeters>288397.95830221</DistanceMeters>
          </Trackpoint>
          <Trackpoint>
            <Time>2021-07-31T11:53:55.000Z</Time>
            <Position>
              <LatitudeDegrees>42.40342880599200725555419921875</LatitudeDegrees>
              <LongitudeDegrees>-2.41701842285692691802978515625</LongitudeDegrees>
            </Position>
            <AltitudeMeters>505.20001220703125</AltitudeMeters>
            <DistanceMeters>288464.90878694</DistanceMeters>
          </Trackpoint>
          <Trackpoint>
            <Time>2021-07-31T11:54:00.000Z</Time>
            <Position>
              <LatitudeDegrees>42.403410784900188446044921875</LatitudeDegrees>
              <LongitudeDegrees>-2.4164840765297412872314453125</LongitudeDegrees>
            </Position>
            <AltitudeMeters>504</AltitudeMeters>
            <DistanceMeters>288508.87073732</DistanceMeters>
          </Trackpoint>
          <Trackpoint>
            <Time>2021-07-31T11:54:06.000Z</Time>
            <Position>
              <LatitudeDegrees>42.403377257287502288818359375</LatitudeDegrees>
              <LongitudeDegrees>-2.41582400165498256683349609375</LongitudeDegrees>
            </Position>
            <AltitudeMeters>503</AltitudeMeters>
            <DistanceMeters>288563.24860701</DistanceMeters>
          </Trackpoint>
          <Trackpoint>
            <Time>2021-07-31T11:54:11.000Z</Time>
            <Position>
              <LatitudeDegrees>42.4033479206264019012451171875</LatitudeDegrees>
              <LongitudeDegrees>-2.415256462991237640380859375</LongitudeDegrees>
            </Position>
            <AltitudeMeters>502</AltitudeMeters>
            <DistanceMeters>288610.00715819</DistanceMeters>
          </Trackpoint>
          <Trackpoint>
            <Time>2021-07-31T11:54:17.000Z</Time>
            <Position>
              <LatitudeDegrees>42.40330458618700504302978515625</LatitudeDegrees>
              <LongitudeDegrees>-2.41455204784870147705078125</LongitudeDegrees>
            </Position>
            <AltitudeMeters>500.600006103515625</AltitudeMeters>
            <DistanceMeters>288668.10167609</DistanceMeters>
          </Trackpoint>
          <Trackpoint>
            <Time>2021-07-31T11:54:20.000Z</Time>
            <Position>
              <LatitudeDegrees>42.4032755009829998016357421875</LatitudeDegrees>
              <LongitudeDegrees>-2.4141887761652469635009765625</LongitudeDegrees>
            </Position>
            <AltitudeMeters>499.20001220703125</AltitudeMeters>
            <DistanceMeters>288698.13312486</DistanceMeters>
          </Trackpoint>
          <Trackpoint>
            <Time>2021-07-31T11:54:23.000Z</Time>
            <Position>
              <LatitudeDegrees>42.4032480083405971527099609375</LatitudeDegrees>
              <LongitudeDegrees>-2.41381988860666751861572265625</LongitudeDegrees>
            </Position>
            <AltitudeMeters>498.20001220703125</AltitudeMeters>
            <DistanceMeters>288728.60515631</DistanceMeters>
          </Trackpoint>
          <Trackpoint>
            <Time>2021-07-31T11:54:27.000Z</Time>
            <Position>
              <LatitudeDegrees>42.40319780074059963226318359375</LatitudeDegrees>
              <LongitudeDegrees>-2.4133173935115337371826171875</LongitudeDegrees>
            </Position>
            <AltitudeMeters>497</AltitudeMeters>
            <DistanceMeters>288770.28019419</DistanceMeters>
          </Trackpoint>
          <Trackpoint>
            <Time>2021-07-31T11:54:29.000Z</Time>
            <Position>
              <LatitudeDegrees>42.40317550487816333770751953125</LatitudeDegrees>
              <LongitudeDegrees>-2.413063086569309234619140625</LongitudeDegrees>
            </Position>
            <AltitudeMeters>495.79998779296875</AltitudeMeters>
            <DistanceMeters>288791.32769975</DistanceMeters>
          </Trackpoint>
          <Trackpoint>
            <Time>2021-07-31T11:54:31.000Z</Time>
            <Position>
              <LatitudeDegrees>42.4031527899205684661865234375</LatitudeDegrees>
              <LongitudeDegrees>-2.41280735470354557037353515625</LongitudeDegrees>
            </Position>
            <AltitudeMeters>494.79998779296875</AltitudeMeters>
            <DistanceMeters>288812.49712662</DistanceMeters>
          </Trackpoint>
          <Trackpoint>
            <Time>2021-07-31T11:54:37.000Z</Time>
            <Position>
              <LatitudeDegrees>42.403060756623744964599609375</LatitudeDegrees>
              <LongitudeDegrees>-2.41203923709690570831298828125</LongitudeDegrees>
            </Position>
            <AltitudeMeters>494.20001220703125</AltitudeMeters>
            <DistanceMeters>288876.45243512</DistanceMeters>
          </Trackpoint>
          <Trackpoint>
            <Time>2021-07-31T11:54:39.000Z</Time>
            <Position>
              <LatitudeDegrees>42.40300920791923999786376953125</LatitudeDegrees>
              <LongitudeDegrees>-2.41178912110626697540283203125</LongitudeDegrees>
            </Position>
            <AltitudeMeters>493.600006103515625</AltitudeMeters>
            <DistanceMeters>288897.79455512</DistanceMeters>
          </Trackpoint>
          <Trackpoint>
            <Time>2021-07-31T11:54:45.000Z</Time>
            <Position>
              <LatitudeDegrees>42.40283603779971599578857421875</LatitudeDegrees>
              <LongitudeDegrees>-2.41107213310897350311279296875</LongitudeDegrees>
            </Position>
            <AltitudeMeters>492.79998779296875</AltitudeMeters>
            <DistanceMeters>288959.79422496</DistanceMeters>
          </Trackpoint>
          <Trackpoint>
            <Time>2021-07-31T11:54:48.000Z</Time>
            <Position>
              <LatitudeDegrees>42.4027564935386180877685546875</LatitudeDegrees>
              <LongitudeDegrees>-2.410723529756069183349609375</LongitudeDegrees>
            </Position>
            <AltitudeMeters>492.600006103515625</AltitudeMeters>
            <DistanceMeters>288989.78204237</DistanceMeters>
          </Trackpoint>
          <Trackpoint>
            <Time>2021-07-31T11:54:54.000Z</Time>
            <Position>
              <LatitudeDegrees>42.40258944220840930938720703125</LatitudeDegrees>
              <LongitudeDegrees>-2.410040907561779022216796875</LongitudeDegrees>
            </Position>
            <AltitudeMeters>491.399993896484375</AltitudeMeters>
            <DistanceMeters>289048.88621424</DistanceMeters>
          </Trackpoint>
          <Trackpoint>
            <Time>2021-07-31T11:54:58.000Z</Time>
            <Position>
              <LatitudeDegrees>42.40248265676200389862060546875</LatitudeDegrees>
              <LongitudeDegrees>-2.4095928110182285308837890625</LongitudeDegrees>
            </Position>
            <AltitudeMeters>490.399993896484375</AltitudeMeters>
            <DistanceMeters>289087.58472801</DistanceMeters>
          </Trackpoint>
          <Trackpoint>
            <Time>2021-07-31T11:55:05.000Z</Time>
            <Position>
              <LatitudeDegrees>42.4024037830531597137451171875</LatitudeDegrees>
              <LongitudeDegrees>-2.40880181081593036651611328125</LongitudeDegrees>
            </Position>
            <AltitudeMeters>489.399993896484375</AltitudeMeters>
            <DistanceMeters>289153.18565476</DistanceMeters>
          </Trackpoint>
          <Trackpoint>
            <Time>2021-07-31T11:55:08.000Z</Time>
            <Position>
              <LatitudeDegrees>42.40240386687219142913818359375</LatitudeDegrees>
              <LongitudeDegrees>-2.4084625951945781707763671875</LongitudeDegrees>
            </Position>
            <AltitudeMeters>489.399993896484375</AltitudeMeters>
            <DistanceMeters>289181.06526846</DistanceMeters>
          </Trackpoint>
          <Trackpoint>
            <Time>2021-07-31T11:55:12.000Z</Time>
            <Position>
              <LatitudeDegrees>42.40239816717803478240966796875</LatitudeDegrees>
              <LongitudeDegrees>-2.4080160073935985565185546875</LongitudeDegrees>
            </Position>
            <AltitudeMeters>488.20001220703125</AltitudeMeters>
            <DistanceMeters>289217.7751103</DistanceMeters>
          </Trackpoint>
          <Trackpoint>
            <Time>2021-07-31T11:55:19.000Z</Time>
            <Position>
              <LatitudeDegrees>42.402366064488887786865234375</LatitudeDegrees>
              <LongitudeDegrees>-2.4072368256747722625732421875</LongitudeDegrees>
            </Position>
            <AltitudeMeters>488</AltitudeMeters>
            <DistanceMeters>289281.91441172</DistanceMeters>
          </Trackpoint>
          <Trackpoint>
            <Time>2021-07-31T11:55:22.000Z</Time>
            <Position>
              <LatitudeDegrees>42.40235458128154277801513671875</LatitudeDegrees>
              <LongitudeDegrees>-2.40689727477729320526123046875</LongitudeDegrees>
            </Position>
            <AltitudeMeters>487</AltitudeMeters>
            <DistanceMeters>289309.85064959</DistanceMeters>
          </Trackpoint>
          <Trackpoint>
            <Time>2021-07-31T11:55:26.000Z</Time>
            <Position>
              <LatitudeDegrees>42.40233982913196086883544921875</LatitudeDegrees>
              <LongitudeDegrees>-2.40643861703574657440185546875</LongitudeDegrees>
            </Position>
            <AltitudeMeters>485.79998779296875</AltitudeMeters>
            <DistanceMeters>289347.58259776</DistanceMeters>
          </Trackpoint>
          <Trackpoint>
            <Time>2021-07-31T11:55:32.000Z</Time>
            <Position>
              <LatitudeDegrees>42.40230848081409931182861328125</LatitudeDegrees>
              <LongitudeDegrees>-2.40574442781507968902587890625</LongitudeDegrees>
            </Position>
            <AltitudeMeters>484.600006103515625</AltitudeMeters>
            <DistanceMeters>289404.74367438</DistanceMeters>
          </Trackpoint>
          <Trackpoint>
            <Time>2021-07-31T11:55:39.000Z</Time>
            <Position>
              <LatitudeDegrees>42.4023001827299594879150390625</LatitudeDegrees>
              <LongitudeDegrees>-2.4049616418778896331787109375</LongitudeDegrees>
            </Position>
            <AltitudeMeters>484.20001220703125</AltitudeMeters>
            <DistanceMeters>289469.08637425</DistanceMeters>
          </Trackpoint>
          <Trackpoint>
            <Time>2021-07-31T11:55:54.000Z</Time>
            <Position>
              <LatitudeDegrees>42.402315773069858551025390625</LatitudeDegrees>
              <LongitudeDegrees>-2.40440122783184051513671875</LongitudeDegrees>
            </Position>
            <AltitudeMeters>485.600006103515625</AltitudeMeters>
            <DistanceMeters>289515.17873896</DistanceMeters>
          </Trackpoint>
          <Trackpoint>
            <Time>2021-07-31T11:56:56.000Z</Time>
            <Position>
              <LatitudeDegrees>42.40235005505383014678955078125</LatitudeDegrees>
              <LongitudeDegrees>-2.40433459170162677764892578125</LongitudeDegrees>
            </Position>
            <AltitudeMeters>485.79998779296875</AltitudeMeters>
            <DistanceMeters>289521.85364699</DistanceMeters>
          </Trackpoint>
          <Trackpoint>
            <Time>2021-07-31T11:57:08.000Z</Time>
            <Position>
              <LatitudeDegrees>42.4023632146418094635009765625</LatitudeDegrees>
              <LongitudeDegrees>-2.40369907580316066741943359375</LongitudeDegrees>
            </Position>
            <AltitudeMeters>483.600006103515625</AltitudeMeters>
            <DistanceMeters>289574.10615778</DistanceMeters>
          </Trackpoint>
          <Trackpoint>
            <Time>2021-07-31T11:57:11.000Z</Time>
            <Position>
              <LatitudeDegrees>42.4023811519145965576171875</LatitudeDegrees>
              <LongitudeDegrees>-2.4034710042178630828857421875</LongitudeDegrees>
            </Position>
            <AltitudeMeters>482.600006103515625</AltitudeMeters>
            <DistanceMeters>289592.9569288</DistanceMeters>
          </Trackpoint>
          <Trackpoint>
            <Time>2021-07-31T11:57:21.000Z</Time>
            <Position>
              <LatitudeDegrees>42.40244225598871707916259765625</LatitudeDegrees>
              <LongitudeDegrees>-2.402743957936763763427734375</LongitudeDegrees>
            </Position>
            <AltitudeMeters>481.79998779296875</AltitudeMeters>
            <DistanceMeters>289653.09750378</DistanceMeters>
          </Trackpoint>
          <Trackpoint>
            <Time>2021-07-31T11:57:26.000Z</Time>
            <Position>
              <LatitudeDegrees>42.402447871863842010498046875</LatitudeDegrees>
              <LongitudeDegrees>-2.40234087221324443817138671875</LongitudeDegrees>
            </Position>
            <AltitudeMeters>481.600006103515625</AltitudeMeters>
            <DistanceMeters>289686.2324075</DistanceMeters>
          </Trackpoint>
          <Trackpoint>
            <Time>2021-07-31T11:57:31.000Z</Time>
            <Position>
              <LatitudeDegrees>42.4024366401135921478271484375</LatitudeDegrees>
              <LongitudeDegrees>-2.40191121585667133331298828125</LongitudeDegrees>
            </Position>
            <AltitudeMeters>480.399993896484375</AltitudeMeters>
            <DistanceMeters>289721.56727059</DistanceMeters>
          </Trackpoint>
          <Trackpoint>
            <Time>2021-07-31T11:57:35.000Z</Time>
            <Position>
              <LatitudeDegrees>42.402426414191722869873046875</LatitudeDegrees>
              <LongitudeDegrees>-2.40156621672213077545166015625</LongitudeDegrees>
            </Position>
            <AltitudeMeters>479.20001220703125</AltitudeMeters>
            <DistanceMeters>289749.94495878</DistanceMeters>
          </Trackpoint>
          <Trackpoint>
            <Time>2021-07-31T11:57:44.000Z</Time>
            <Position>
              <LatitudeDegrees>42.40238944999873638153076171875</LatitudeDegrees>
              <LongitudeDegrees>-2.400813437998294830322265625</LongitudeDegrees>
            </Position>
            <AltitudeMeters>478.79998779296875</AltitudeMeters>
            <DistanceMeters>289811.95132804</DistanceMeters>
          </Trackpoint>
          <Trackpoint>
            <Time>2021-07-31T11:57:52.000Z</Time>
            <Position>
              <LatitudeDegrees>42.4023219756782054901123046875</LatitudeDegrees>
              <LongitudeDegrees>-2.4001920036971569061279296875</LongitudeDegrees>
            </Position>
            <AltitudeMeters>478.20001220703125</AltitudeMeters>
            <DistanceMeters>289863.57524111</DistanceMeters>
          </Trackpoint>
          <Trackpoint>
            <Time>2021-07-31T11:58:02.000Z</Time>
            <Position>
              <LatitudeDegrees>42.4023704230785369873046875</LatitudeDegrees>
              <LongitudeDegrees>-2.3994198627769947052001953125</LongitudeDegrees>
            </Position>
            <AltitudeMeters>478.600006103515625</AltitudeMeters>
            <DistanceMeters>289927.26497795</DistanceMeters>
          </Trackpoint>
          <Trackpoint>
            <Time>2021-07-31T11:58:04.000Z</Time>
            <Position>
              <LatitudeDegrees>42.40237754769623279571533203125</LatitudeDegrees>
              <LongitudeDegrees>-2.39928223192691802978515625</LongitudeDegrees>
            </Position>
            <AltitudeMeters>479.399993896484375</AltitudeMeters>
            <DistanceMeters>289938.60465557</DistanceMeters>
          </Trackpoint>
          <Trackpoint>
            <Time>2021-07-31T11:58:07.000Z</Time>
            <Position>
              <LatitudeDegrees>42.4023940600454807281494140625</LatitudeDegrees>
              <LongitudeDegrees>-2.39909724332392215728759765625</LongitudeDegrees>
            </Position>
            <AltitudeMeters>480.600006103515625</AltitudeMeters>
            <DistanceMeters>289953.91900001</DistanceMeters>
          </Trackpoint>
          <Trackpoint>
            <Time>2021-07-31T11:58:11.000Z</Time>
            <Position>
              <LatitudeDegrees>42.4023957364261150360107421875</LatitudeDegrees>
              <LongitudeDegrees>-2.39888870157301425933837890625</LongitudeDegrees>
            </Position>
            <AltitudeMeters>481.79998779296875</AltitudeMeters>
            <DistanceMeters>289971.05966998</DistanceMeters>
          </Trackpoint>
          <Trackpoint>
            <Time>2021-07-31T11:58:14.000Z</Time>
            <Position>
              <LatitudeDegrees>42.40238995291292667388916015625</LatitudeDegrees>
              <LongitudeDegrees>-2.39875475876033306121826171875</LongitudeDegrees>
            </Position>
            <AltitudeMeters>483.20001220703125</AltitudeMeters>
            <DistanceMeters>289982.08686407</DistanceMeters>
          </Trackpoint>
          <Trackpoint>
            <Time>2021-07-31T11:58:20.000Z</Time>
            <Position>
              <LatitudeDegrees>42.40235709585249423980712890625</LatitudeDegrees>
              <LongitudeDegrees>-2.39848720841109752655029296875</LongitudeDegrees>
            </Position>
            <AltitudeMeters>484.399993896484375</AltitudeMeters>
            <DistanceMeters>290004.3786811</DistanceMeters>
          </Trackpoint>
          <Trackpoint>
            <Time>2021-07-31T11:58:26.000Z</Time>
            <Position>
              <LatitudeDegrees>42.40231971256434917449951171875</LatitudeDegrees>
              <LongitudeDegrees>-2.3982081748545169830322265625</LongitudeDegrees>
            </Position>
            <AltitudeMeters>484</AltitudeMeters>
            <DistanceMeters>290027.68677967</DistanceMeters>
          </Trackpoint>
          <Trackpoint>
            <Time>2021-07-31T11:58:30.000Z</Time>
            <Position>
              <LatitudeDegrees>42.40230563096702098846435546875</LatitudeDegrees>
              <LongitudeDegrees>-2.3979697935283184051513671875</LongitudeDegrees>
            </Position>
            <AltitudeMeters>483</AltitudeMeters>
            <DistanceMeters>290047.3416951</DistanceMeters>
          </Trackpoint>
          <Trackpoint>
            <Time>2021-07-31T11:58:33.000Z</Time>
            <Position>
              <LatitudeDegrees>42.402301691472530364990234375</LatitudeDegrees>
              <LongitudeDegrees>-2.397752366960048675537109375</LongitudeDegrees>
            </Position>
            <AltitudeMeters>481.79998779296875</AltitudeMeters>
            <DistanceMeters>290065.21682377</DistanceMeters>
          </Trackpoint>
          <Trackpoint>
            <Time>2021-07-31T11:58:36.000Z</Time>
            <Position>
              <LatitudeDegrees>42.40229641087353229522705078125</LatitudeDegrees>
              <LongitudeDegrees>-2.39748783409595489501953125</LongitudeDegrees>
            </Position>
            <AltitudeMeters>480</AltitudeMeters>
            <DistanceMeters>290086.96652686</DistanceMeters>
          </Trackpoint>
          <Trackpoint>
            <Time>2021-07-31T11:58:41.000Z</Time>
            <Position>
              <LatitudeDegrees>42.40229289047420024871826171875</LatitudeDegrees>
              <LongitudeDegrees>-2.3970015160739421844482421875</LongitudeDegrees>
            </Position>
            <AltitudeMeters>478.600006103515625</AltitudeMeters>
            <DistanceMeters>290126.93822404</DistanceMeters>
          </Trackpoint>
          <Trackpoint>
            <Time>2021-07-31T11:58:49.000Z</Time>
            <Position>
              <LatitudeDegrees>42.4022881127893924713134765625</LatitudeDegrees>
              <LongitudeDegrees>-2.39624421112239360809326171875</LongitudeDegrees>
            </Position>
            <AltitudeMeters>477.600006103515625</AltitudeMeters>
            <DistanceMeters>290189.18224526</DistanceMeters>
          </Trackpoint>
          <Trackpoint>
            <Time>2021-07-31T11:58:50.000Z</Time>
            <Position>
              <LatitudeDegrees>42.40228660404682159423828125</LatitudeDegrees>
              <LongitudeDegrees>-2.39615469239652156829833984375</LongitudeDegrees>
            </Position>
            <AltitudeMeters>477.399993896484375</AltitudeMeters>
            <DistanceMeters>290196.54236949</DistanceMeters>
          </Trackpoint>
          <Trackpoint>
            <Time>2021-07-31T11:58:56.000Z</Time>
            <Position>
              <LatitudeDegrees>42.4022693373262882232666015625</LatitudeDegrees>
              <LongitudeDegrees>-2.39561657421290874481201171875</LongitudeDegrees>
            </Position>
            <AltitudeMeters>476.399993896484375</AltitudeMeters>
            <DistanceMeters>290240.81125563</DistanceMeters>
          </Trackpoint>
          <Trackpoint>
            <Time>2021-07-31T11:59:00.000Z</Time>
            <Position>
              <LatitudeDegrees>42.40225399844348430633544921875</LatitudeDegrees>
              <LongitudeDegrees>-2.3952376283705234527587890625</LongitudeDegrees>
            </Position>
            <AltitudeMeters>475</AltitudeMeters>
            <DistanceMeters>290272.00304183</DistanceMeters>
          </Trackpoint>
          <Trackpoint>
            <Time>2021-07-31T11:59:03.000Z</Time>
            <Position>
              <LatitudeDegrees>42.40224427543580532073974609375</LatitudeDegrees>
              <LongitudeDegrees>-2.39492875523865222930908203125</LongitudeDegrees>
            </Position>
            <AltitudeMeters>474</AltitudeMeters>
            <DistanceMeters>290297.41198406</DistanceMeters>
          </Trackpoint>
          <Trackpoint>
            <Time>2021-07-31T11:59:06.000Z</Time>
            <Position>
              <LatitudeDegrees>42.4022391624748706817626953125</LatitudeDegrees>
              <LongitudeDegrees>-2.3946039564907550811767578125</LongitudeDegrees>
            </Position>
            <AltitudeMeters>472.79998779296875</AltitudeMeters>
            <DistanceMeters>290324.11263078</DistanceMeters>
          </Trackpoint>
          <Trackpoint>
            <Time>2021-07-31T11:59:08.000Z</Time>
            <Position>
              <LatitudeDegrees>42.4022363126277923583984375</LatitudeDegrees>
              <LongitudeDegrees>-2.39438208751380443572998046875</LongitudeDegrees>
            </Position>
            <AltitudeMeters>471.600006103515625</AltitudeMeters>
            <DistanceMeters>290342.35033447</DistanceMeters>
          </Trackpoint>
          <Trackpoint>
            <Time>2021-07-31T11:59:12.000Z</Time>
            <Position>
              <LatitudeDegrees>42.402210496366024017333984375</LatitudeDegrees>
              <LongitudeDegrees>-2.3939479887485504150390625</LongitudeDegrees>
            </Position>
            <AltitudeMeters>471</AltitudeMeters>
            <DistanceMeters>290378.14375824</DistanceMeters>
          </Trackpoint>
          <Trackpoint>
            <Time>2021-07-31T11:59:20.000Z</Time>
            <Position>
              <LatitudeDegrees>42.402007319033145904541015625</LatitudeDegrees>
              <LongitudeDegrees>-2.39318448118865489959716796875</LongitudeDegrees>
            </Position>
            <AltitudeMeters>471.20001220703125</AltitudeMeters>
            <DistanceMeters>290444.84587848</DistanceMeters>
          </Trackpoint>
          <Trackpoint>
            <Time>2021-07-31T11:59:24.000Z</Time>
            <Position>
              <LatitudeDegrees>42.40196800790727138519287109375</LatitudeDegrees>
              <LongitudeDegrees>-2.39284870214760303497314453125</LongitudeDegrees>
            </Position>
            <AltitudeMeters>471.20001220703125</AltitudeMeters>
            <DistanceMeters>290472.78809564</DistanceMeters>
          </Trackpoint>
          <Trackpoint>
            <Time>2021-07-31T11:59:33.000Z</Time>
            <Position>
              <LatitudeDegrees>42.40211703814566135406494140625</LatitudeDegrees>
              <LongitudeDegrees>-2.39211344160139560699462890625</LongitudeDegrees>
            </Position>
            <AltitudeMeters>471</AltitudeMeters>
            <DistanceMeters>290535.45358473</DistanceMeters>
          </Trackpoint>
          <Trackpoint>
            <Time>2021-07-31T11:59:42.000Z</Time>
            <Position>
              <LatitudeDegrees>42.40220052190124988555908203125</LatitudeDegrees>
              <LongitudeDegrees>-2.39138103090226650238037109375</LongitudeDegrees>
            </Position>
            <AltitudeMeters>472</AltitudeMeters>
            <DistanceMeters>290596.36237298</DistanceMeters>
          </Trackpoint>
          <Trackpoint>
            <Time>2021-07-31T11:59:49.000Z</Time>
            <Position>
              <LatitudeDegrees>42.40225709974765777587890625</LatitudeDegrees>
              <LongitudeDegrees>-2.3908535577356815338134765625</LongitudeDegrees>
            </Position>
            <AltitudeMeters>473</AltitudeMeters>
            <DistanceMeters>290640.16958524</DistanceMeters>
          </Trackpoint>
          <Trackpoint>
            <Time>2021-07-31T12:00:00.000Z</Time>
            <Position>
              <LatitudeDegrees>42.40231501869857311248779296875</LatitudeDegrees>
              <LongitudeDegrees>-2.3901022039353847503662109375</LongitudeDegrees>
            </Position>
            <AltitudeMeters>473.600006103515625</AltitudeMeters>
            <DistanceMeters>290702.25781814</DistanceMeters>
          </Trackpoint>
          <Trackpoint>
            <Time>2021-07-31T12:00:03.000Z</Time>
            <Position>
              <LatitudeDegrees>42.40232415497303009033203125</LatitudeDegrees>
              <LongitudeDegrees>-2.38991436548531055450439453125</LongitudeDegrees>
            </Position>
            <AltitudeMeters>474.20001220703125</AltitudeMeters>
            <DistanceMeters>290717.72967312</DistanceMeters>
          </Trackpoint>
          <Trackpoint>
            <Time>2021-07-31T12:00:07.000Z</Time>
            <Position>
              <LatitudeDegrees>42.4023301899433135986328125</LatitudeDegrees>
              <LongitudeDegrees>-2.38967992365360260009765625</LongitudeDegrees>
            </Position>
            <AltitudeMeters>475.399993896484375</AltitudeMeters>
            <DistanceMeters>290737.0100291</DistanceMeters>
          </Trackpoint>
          <Trackpoint>
            <Time>2021-07-31T12:00:17.000Z</Time>
            <Position>
              <LatitudeDegrees>42.40233832038938999176025390625</LatitudeDegrees>
              <LongitudeDegrees>-2.38917122595012187957763671875</LongitudeDegrees>
            </Position>
            <AltitudeMeters>476.399993896484375</AltitudeMeters>
            <DistanceMeters>290778.82890982</DistanceMeters>
          </Trackpoint>
          <Trackpoint>
            <Time>2021-07-31T12:00:26.000Z</Time>
            <Position>
              <LatitudeDegrees>42.40232792682945728302001953125</LatitudeDegrees>
              <LongitudeDegrees>-2.3887044377624988555908203125</LongitudeDegrees>
            </Position>
            <AltitudeMeters>477.600006103515625</AltitudeMeters>
            <DistanceMeters>290817.2109985</DistanceMeters>
          </Trackpoint>
          <Trackpoint>
            <Time>2021-07-31T12:00:33.000Z</Time>
            <Position>
              <LatitudeDegrees>42.40231342613697052001953125</LatitudeDegrees>
              <LongitudeDegrees>-2.38837678916752338409423828125</LongitudeDegrees>
            </Position>
            <AltitudeMeters>478.79998779296875</AltitudeMeters>
            <DistanceMeters>290844.18837811</DistanceMeters>
          </Trackpoint>
          <Trackpoint>
            <Time>2021-07-31T12:00:44.000Z</Time>
            <Position>
              <LatitudeDegrees>42.40228668786585330963134765625</LatitudeDegrees>
              <LongitudeDegrees>-2.38784931600093841552734375</LongitudeDegrees>
            </Position>
            <AltitudeMeters>479.79998779296875</AltitudeMeters>
            <DistanceMeters>290887.64271374</DistanceMeters>
          </Trackpoint>
          <Trackpoint>
            <Time>2021-07-31T12:00:50.000Z</Time>
            <Position>
              <LatitudeDegrees>42.40226740948855876922607421875</LatitudeDegrees>
              <LongitudeDegrees>-2.3876013793051242828369140625</LongitudeDegrees>
            </Position>
            <AltitudeMeters>481</AltitudeMeters>
            <DistanceMeters>290908.13281804</DistanceMeters>
          </Trackpoint>
          <Trackpoint>
            <Time>2021-07-31T12:00:56.000Z</Time>
            <Position>
              <LatitudeDegrees>42.40224394015967845916748046875</LatitudeDegrees>
              <LongitudeDegrees>-2.3873807676136493682861328125</LongitudeDegrees>
            </Position>
            <AltitudeMeters>482.20001220703125</AltitudeMeters>
            <DistanceMeters>290926.45154346</DistanceMeters>
          </Trackpoint>
          <Trackpoint>
            <Time>2021-07-31T12:01:01.000Z</Time>
            <Position>
              <LatitudeDegrees>42.402233295142650604248046875</LatitudeDegrees>
              <LongitudeDegrees>-2.387207932770252227783203125</LongitudeDegrees>
            </Position>
            <AltitudeMeters>483.20001220703125</AltitudeMeters>
            <DistanceMeters>290940.70555061</DistanceMeters>
          </Trackpoint>
          <Trackpoint>
            <Time>2021-07-31T12:01:06.000Z</Time>
            <Position>
              <LatitudeDegrees>42.40222751162946224212646484375</LatitudeDegrees>
              <LongitudeDegrees>-2.38705529831349849700927734375</LongitudeDegrees>
            </Position>
            <AltitudeMeters>484.20001220703125</AltitudeMeters>
            <DistanceMeters>290953.2670615</DistanceMeters>
          </Trackpoint>
          <Trackpoint>
            <Time>2021-07-31T12:01:09.000Z</Time>
            <Position>
              <LatitudeDegrees>42.40223161876201629638671875</LatitudeDegrees>
              <LongitudeDegrees>-2.38697466440498828887939453125</LongitudeDegrees>
            </Position>
            <AltitudeMeters>485.399993896484375</AltitudeMeters>
            <DistanceMeters>290959.91078137</DistanceMeters>
          </Trackpoint>
          <Trackpoint>
            <Time>2021-07-31T12:01:14.000Z</Time>
            <Position>
              <LatitudeDegrees>42.40223354659974575042724609375</LatitudeDegrees>
              <LongitudeDegrees>-2.38684625364840030670166015625</LongitudeDegrees>
            </Position>
            <AltitudeMeters>486.600006103515625</AltitudeMeters>
            <DistanceMeters>290970.46602097</DistanceMeters>
          </Trackpoint>
          <Trackpoint>
            <Time>2021-07-31T12:01:21.000Z</Time>
            <Position>
              <LatitudeDegrees>42.40225173532962799072265625</LatitudeDegrees>
              <LongitudeDegrees>-2.3866398073732852935791015625</LongitudeDegrees>
            </Position>
            <AltitudeMeters>487.600006103515625</AltitudeMeters>
            <DistanceMeters>290987.55366335</DistanceMeters>
          </Trackpoint>
          <Trackpoint>
            <Time>2021-07-31T12:01:29.000Z</Time>
            <Position>
              <LatitudeDegrees>42.40227847360074520111083984375</LatitudeDegrees>
              <LongitudeDegrees>-2.386374771595001220703125</LongitudeDegrees>
            </Position>
            <AltitudeMeters>488.79998779296875</AltitudeMeters>
            <DistanceMeters>291009.53895165</DistanceMeters>
          </Trackpoint>
          <Trackpoint>
            <Time>2021-07-31T12:01:39.000Z</Time>
            <Position>
              <LatitudeDegrees>42.402336560189723968505859375</LatitudeDegrees>
              <LongitudeDegrees>-2.3859625495970249176025390625</LongitudeDegrees>
            </Position>
            <AltitudeMeters>489.600006103515625</AltitudeMeters>
            <DistanceMeters>291044.03024564</DistanceMeters>
          </Trackpoint>
          <Trackpoint>
            <Time>2021-07-31T12:01:43.000Z</Time>
            <Position>
              <LatitudeDegrees>42.4024064652621746063232421875</LatitudeDegrees>
              <LongitudeDegrees>-2.38569692708551883697509765625</LongitudeDegrees>
            </Position>
            <AltitudeMeters>487.399993896484375</AltitudeMeters>
            <DistanceMeters>291067.20624631</DistanceMeters>
          </Trackpoint>
          <Trackpoint>
            <Time>2021-07-31T12:01:45.000Z</Time>
            <Position>
              <LatitudeDegrees>42.40244678221642971038818359375</LatitudeDegrees>
              <LongitudeDegrees>-2.385550998151302337646484375</LongitudeDegrees>
            </Position>
            <AltitudeMeters>486.600006103515625</AltitudeMeters>
            <DistanceMeters>291080.01195551</DistanceMeters>
          </Trackpoint>
          <Trackpoint>
            <Time>2021-07-31T12:01:52.000Z</Time>
            <Position>
              <LatitudeDegrees>42.40256044082343578338623046875</LatitudeDegrees>
              <LongitudeDegrees>-2.38501690328121185302734375</LongitudeDegrees>
            </Position>
            <AltitudeMeters>485.600006103515625</AltitudeMeters>
            <DistanceMeters>291125.69480686</DistanceMeters>
          </Trackpoint>
          <Trackpoint>
            <Time>2021-07-31T12:01:56.000Z</Time>
            <Position>
              <LatitudeDegrees>42.4026143364608287811279296875</LatitudeDegrees>
              <LongitudeDegrees>-2.38470618613064289093017578125</LongitudeDegrees>
            </Position>
            <AltitudeMeters>485.399993896484375</AltitudeMeters>
            <DistanceMeters>291151.92717189</DistanceMeters>
          </Trackpoint>
          <Trackpoint>
            <Time>2021-07-31T12:01:59.000Z</Time>
            <Position>
              <LatitudeDegrees>42.40264945663511753082275390625</LatitudeDegrees>
              <LongitudeDegrees>-2.3844688944518566131591796875</LongitudeDegrees>
            </Position>
            <AltitudeMeters>484.600006103515625</AltitudeMeters>
            <DistanceMeters>291171.817514</DistanceMeters>
          </Trackpoint>
          <Trackpoint>
            <Time>2021-07-31T12:02:03.000Z</Time>
            <Position>
              <LatitudeDegrees>42.4026830680668354034423828125</LatitudeDegrees>
              <LongitudeDegrees>-2.3841332830488681793212890625</LongitudeDegrees>
            </Position>
            <AltitudeMeters>483.399993896484375</AltitudeMeters>
            <DistanceMeters>291199.65336749</DistanceMeters>
          </Trackpoint>
          <Trackpoint>
            <Time>2021-07-31T12:02:05.000Z</Time>
            <Position>
              <LatitudeDegrees>42.40268683992326259613037109375</LatitudeDegrees>
              <LongitudeDegrees>-2.38395147956907749176025390625</LongitudeDegrees>
            </Position>
            <AltitudeMeters>482.20001220703125</AltitudeMeters>
            <DistanceMeters>291214.60128411</DistanceMeters>
          </Trackpoint>
          <Trackpoint>
            <Time>2021-07-31T12:02:09.000Z</Time>
            <Position>
              <LatitudeDegrees>42.402724139392375946044921875</LatitudeDegrees>
              <LongitudeDegrees>-2.3835636489093303680419921875</LongitudeDegrees>
            </Position>
            <AltitudeMeters>481.20001220703125</AltitudeMeters>
            <DistanceMeters>291246.74560658</DistanceMeters>
          </Trackpoint>
          <Trackpoint>
            <Time>2021-07-31T12:02:12.000Z</Time>
            <Position>
              <LatitudeDegrees>42.40276546217501163482666015625</LatitudeDegrees>
              <LongitudeDegrees>-2.38325611688196659088134765625</LongitudeDegrees>
            </Position>
            <AltitudeMeters>480</AltitudeMeters>
            <DistanceMeters>291272.43588154</DistanceMeters>
          </Trackpoint>
          <Trackpoint>
            <Time>2021-07-31T12:02:16.000Z</Time>
            <Position>
              <LatitudeDegrees>42.4027799628674983978271484375</LatitudeDegrees>
              <LongitudeDegrees>-2.38282981328666210174560546875</LongitudeDegrees>
            </Position>
            <AltitudeMeters>478.79998779296875</AltitudeMeters>
            <DistanceMeters>291307.51013754</DistanceMeters>
          </Trackpoint>
          <Trackpoint>
            <Time>2021-07-31T12:02:18.000Z</Time>
            <Position>
              <LatitudeDegrees>42.40278147161006927490234375</LatitudeDegrees>
              <LongitudeDegrees>-2.382608614861965179443359375</LongitudeDegrees>
            </Position>
            <AltitudeMeters>477.79998779296875</AltitudeMeters>
            <DistanceMeters>291325.69081185</DistanceMeters>
          </Trackpoint>
          <Trackpoint>
            <Time>2021-07-31T12:02:19.000Z</Time>
            <Position>
              <LatitudeDegrees>42.4027826450765132904052734375</LatitudeDegrees>
              <LongitudeDegrees>-2.382494620978832244873046875</LongitudeDegrees>
            </Position>
            <AltitudeMeters>476.600006103515625</AltitudeMeters>
            <DistanceMeters>291335.06094702</DistanceMeters>
          </Trackpoint>
          <Trackpoint>
            <Time>2021-07-31T12:02:21.000Z</Time>
            <Position>
              <LatitudeDegrees>42.40279563702642917633056640625</LatitudeDegrees>
              <LongitudeDegrees>-2.3822664655745029449462890625</LongitudeDegrees>
            </Position>
            <AltitudeMeters>475.399993896484375</AltitudeMeters>
            <DistanceMeters>291353.86807584</DistanceMeters>
          </Trackpoint>
          <Trackpoint>
            <Time>2021-07-31T12:02:24.000Z</Time>
            <Position>
              <LatitudeDegrees>42.4028165079653263092041015625</LatitudeDegrees>
              <LongitudeDegrees>-2.38191601820290088653564453125</LongitudeDegrees>
            </Position>
            <AltitudeMeters>473.79998779296875</AltitudeMeters>
            <DistanceMeters>291382.76401065</DistanceMeters>
          </Trackpoint>
          <Trackpoint>
            <Time>2021-07-31T12:02:27.000Z</Time>
            <Position>
              <LatitudeDegrees>42.40282706916332244873046875</LatitudeDegrees>
              <LongitudeDegrees>-2.38155039958655834197998046875</LongitudeDegrees>
            </Position>
            <AltitudeMeters>472.79998779296875</AltitudeMeters>
            <DistanceMeters>291412.83632509</DistanceMeters>
          </Trackpoint>
          <Trackpoint>
            <Time>2021-07-31T12:02:32.000Z</Time>
            <Position>
              <LatitudeDegrees>42.4028775282204151153564453125</LatitudeDegrees>
              <LongitudeDegrees>-2.38096869550645351409912109375</LongitudeDegrees>
            </Position>
            <AltitudeMeters>472.600006103515625</AltitudeMeters>
            <DistanceMeters>291460.97399232</DistanceMeters>
          </Trackpoint>
          <Trackpoint>
            <Time>2021-07-31T12:02:37.000Z</Time>
            <Position>
              <LatitudeDegrees>42.4030087888240814208984375</LatitudeDegrees>
              <LongitudeDegrees>-2.3804774321615695953369140625</LongitudeDegrees>
            </Position>
            <AltitudeMeters>474</AltitudeMeters>
            <DistanceMeters>291503.91176878</DistanceMeters>
          </Trackpoint>
          <Trackpoint>
            <Time>2021-07-31T12:02:41.000Z</Time>
            <Position>
              <LatitudeDegrees>42.40305916406214237213134765625</LatitudeDegrees>
              <LongitudeDegrees>-2.38014592789113521575927734375</LongitudeDegrees>
            </Position>
            <AltitudeMeters>475</AltitudeMeters>
            <DistanceMeters>291531.72815119</DistanceMeters>
          </Trackpoint>
          <Trackpoint>
            <Time>2021-07-31T12:02:42.000Z</Time>
            <Position>
              <LatitudeDegrees>42.40306176245212554931640625</LatitudeDegrees>
              <LongitudeDegrees>-2.3800717480480670928955078125</LongitudeDegrees>
            </Position>
            <AltitudeMeters>475.399993896484375</AltitudeMeters>
            <DistanceMeters>291537.83135242</DistanceMeters>
          </Trackpoint>
          <Trackpoint>
            <Time>2021-07-31T12:02:44.000Z</Time>
            <Position>
              <LatitudeDegrees>42.40304910577833652496337890625</LatitudeDegrees>
              <LongitudeDegrees>-2.37992967478930950164794921875</LongitudeDegrees>
            </Position>
            <AltitudeMeters>476.20001220703125</AltitudeMeters>
            <DistanceMeters>291549.59318779</DistanceMeters>
          </Trackpoint>
          <Trackpoint>
            <Time>2021-07-31T12:02:50.000Z</Time>
            <Position>
              <LatitudeDegrees>42.4029600061476230621337890625</LatitudeDegrees>
              <LongitudeDegrees>-2.37953371368348598480224609375</LongitudeDegrees>
            </Position>
            <AltitudeMeters>477.20001220703125</AltitudeMeters>
            <DistanceMeters>291583.61394598</DistanceMeters>
          </Trackpoint>
          <Trackpoint>
            <Time>2021-07-31T12:03:01.000Z</Time>
            <Position>
              <LatitudeDegrees>42.40276663564145565032958984375</LatitudeDegrees>
              <LongitudeDegrees>-2.37884723581373691558837890625</LongitudeDegrees>
            </Position>
            <AltitudeMeters>477.600006103515625</AltitudeMeters>
            <DistanceMeters>291643.99981543</DistanceMeters>
          </Trackpoint>
          <Trackpoint>
            <Time>2021-07-31T12:03:12.000Z</Time>
            <Position>
              <LatitudeDegrees>42.40252775140106678009033203125</LatitudeDegrees>
              <LongitudeDegrees>-2.3781130649149417877197265625</LongitudeDegrees>
            </Position>
            <AltitudeMeters>477.399993896484375</AltitudeMeters>
            <DistanceMeters>291709.93808494</DistanceMeters>
          </Trackpoint>
          <Trackpoint>
            <Time>2021-07-31T12:03:22.000Z</Time>
            <Position>
              <LatitudeDegrees>42.40230361931025981903076171875</LatitudeDegrees>
              <LongitudeDegrees>-2.37740688957273960113525390625</LongitudeDegrees>
            </Position>
            <AltitudeMeters>477.399993896484375</AltitudeMeters>
            <DistanceMeters>291773.11162739</DistanceMeters>
          </Trackpoint>
          <Trackpoint>
            <Time>2021-07-31T12:03:32.000Z</Time>
            <Position>
              <LatitudeDegrees>42.4021275155246257781982421875</LatitudeDegrees>
              <LongitudeDegrees>-2.37664447166025638580322265625</LongitudeDegrees>
            </Position>
            <AltitudeMeters>477.399993896484375</AltitudeMeters>
            <DistanceMeters>291838.76772926</DistanceMeters>
          </Trackpoint>
          <Trackpoint>
            <Time>2021-07-31T12:03:41.000Z</Time>
            <Position>
              <LatitudeDegrees>42.401972450315952301025390625</LatitudeDegrees>
              <LongitudeDegrees>-2.37592220306396484375</LongitudeDegrees>
            </Position>
            <AltitudeMeters>476.79998779296875</AltitudeMeters>
            <DistanceMeters>291900.58828565</DistanceMeters>
          </Trackpoint>
          <Trackpoint>
            <Time>2021-07-31T12:03:50.000Z</Time>
            <Position>
              <LatitudeDegrees>42.40180506370961666107177734375</LatitudeDegrees>
              <LongitudeDegrees>-2.3751904629170894622802734375</LongitudeDegrees>
            </Position>
            <AltitudeMeters>476.399993896484375</AltitudeMeters>
            <DistanceMeters>291963.54891635</DistanceMeters>
          </Trackpoint>
          <Trackpoint>
            <Time>2021-07-31T12:03:59.000Z</Time>
            <Position>
              <LatitudeDegrees>42.4016274511814117431640625</LatitudeDegrees>
              <LongitudeDegrees>-2.3744682781398296356201171875</LongitudeDegrees>
            </Position>
            <AltitudeMeters>476.600006103515625</AltitudeMeters>
            <DistanceMeters>292026.11027897</DistanceMeters>
          </Trackpoint>
          <Trackpoint>
            <Time>2021-07-31T12:04:08.000Z</Time>
            <Position>
              <LatitudeDegrees>42.40143827162683010101318359375</LatitudeDegrees>
              <LongitudeDegrees>-2.37378272227942943572998046875</LongitudeDegrees>
            </Position>
            <AltitudeMeters>476.79998779296875</AltitudeMeters>
            <DistanceMeters>292086.26158868</DistanceMeters>
          </Trackpoint>
          <Trackpoint>
            <Time>2021-07-31T12:04:18.000Z</Time>
            <Position>
              <LatitudeDegrees>42.40119653753936290740966796875</LatitudeDegrees>
              <LongitudeDegrees>-2.373044192790985107421875</LongitudeDegrees>
            </Position>
            <AltitudeMeters>476.79998779296875</AltitudeMeters>
            <DistanceMeters>292152.6569111</DistanceMeters>
          </Trackpoint>
          <Trackpoint>
            <Time>2021-07-31T12:04:28.000Z</Time>
            <Position>
              <LatitudeDegrees>42.40095983259379863739013671875</LatitudeDegrees>
              <LongitudeDegrees>-2.37231798470020294189453125</LongitudeDegrees>
            </Position>
            <AltitudeMeters>476.600006103515625</AltitudeMeters>
            <DistanceMeters>292217.89993076</DistanceMeters>
          </Trackpoint>
          <Trackpoint>
            <Time>2021-07-31T12:04:38.000Z</Time>
            <Position>
              <LatitudeDegrees>42.40075279958546161651611328125</LatitudeDegrees>
              <LongitudeDegrees>-2.37159906886518001556396484375</LongitudeDegrees>
            </Position>
            <AltitudeMeters>477.20001220703125</AltitudeMeters>
            <DistanceMeters>292281.32212964</DistanceMeters>
          </Trackpoint>
          <Trackpoint>
            <Time>2021-07-31T12:04:49.000Z</Time>
            <Position>
              <LatitudeDegrees>42.4005138315260410308837890625</LatitudeDegrees>
              <LongitudeDegrees>-2.3709002695977687835693359375</LongitudeDegrees>
            </Position>
            <AltitudeMeters>477.399993896484375</AltitudeMeters>
            <DistanceMeters>292344.61662715</DistanceMeters>
          </Trackpoint>
          <Trackpoint>
            <Time>2021-07-31T12:04:57.000Z</Time>
            <Position>
              <LatitudeDegrees>42.40042389370501041412353515625</LatitudeDegrees>
              <LongitudeDegrees>-2.37041495740413665771484375</LongitudeDegrees>
            </Position>
            <AltitudeMeters>477.79998779296875</AltitudeMeters>
            <DistanceMeters>292385.74179143</DistanceMeters>
          </Trackpoint>
          <Trackpoint>
            <Time>2021-07-31T12:05:01.000Z</Time>
            <Position>
              <LatitudeDegrees>42.400383912026882171630859375</LatitudeDegrees>
              <LongitudeDegrees>-2.37017297185957431793212890625</LongitudeDegrees>
            </Position>
            <AltitudeMeters>478.20001220703125</AltitudeMeters>
            <DistanceMeters>292406.12275109</DistanceMeters>
          </Trackpoint>
          <Trackpoint>
            <Time>2021-07-31T12:05:07.000Z</Time>
            <Position>
              <LatitudeDegrees>42.40035247988998889923095703125</LatitudeDegrees>
              <LongitudeDegrees>-2.36980182118713855743408203125</LongitudeDegrees>
            </Position>
            <AltitudeMeters>478.79998779296875</AltitudeMeters>
            <DistanceMeters>292436.82799854</DistanceMeters>
          </Trackpoint>
          <Trackpoint>
            <Time>2021-07-31T12:05:11.000Z</Time>
            <Position>
              <LatitudeDegrees>42.4003284238278865814208984375</LatitudeDegrees>
              <LongitudeDegrees>-2.3695774376392364501953125</LongitudeDegrees>
            </Position>
            <AltitudeMeters>480</AltitudeMeters>
            <DistanceMeters>292455.46365549</DistanceMeters>
          </Trackpoint>
          <Trackpoint>
            <Time>2021-07-31T12:05:20.000Z</Time>
            <Position>
              <LatitudeDegrees>42.400265224277973175048828125</LatitudeDegrees>
              <LongitudeDegrees>-2.36910729669034481048583984375</LongitudeDegrees>
            </Position>
            <AltitudeMeters>481.20001220703125</AltitudeMeters>
            <DistanceMeters>292494.74016348</DistanceMeters>
          </Trackpoint>
          <Trackpoint>
            <Time>2021-07-31T12:05:26.000Z</Time>
            <Position>
              <LatitudeDegrees>42.40018148906528949737548828125</LatitudeDegrees>
              <LongitudeDegrees>-2.36881460063159465789794921875</LongitudeDegrees>
            </Position>
            <AltitudeMeters>482.399993896484375</AltitudeMeters>
            <DistanceMeters>292520.53969767</DistanceMeters>
          </Trackpoint>
          <Trackpoint>
            <Time>2021-07-31T12:05:32.000Z</Time>
            <Position>
              <LatitudeDegrees>42.40011108107864856719970703125</LatitudeDegrees>
              <LongitudeDegrees>-2.36854604445397853851318359375</LongitudeDegrees>
            </Position>
            <AltitudeMeters>483.399993896484375</AltitudeMeters>
            <DistanceMeters>292543.96257803</DistanceMeters>
          </Trackpoint>
          <Trackpoint>
            <Time>2021-07-31T12:05:37.000Z</Time>
            <Position>
              <LatitudeDegrees>42.400040589272975921630859375</LatitudeDegrees>
              <LongitudeDegrees>-2.36834990791976451873779296875</LongitudeDegrees>
            </Position>
            <AltitudeMeters>484.399993896484375</AltitudeMeters>
            <DistanceMeters>292561.89117533</DistanceMeters>
          </Trackpoint>
          <Trackpoint>
            <Time>2021-07-31T12:05:52.000Z</Time>
            <Position>
              <LatitudeDegrees>42.39983397535979747772216796875</LatitudeDegrees>
              <LongitudeDegrees>-2.36766611225903034210205078125</LongitudeDegrees>
            </Position>
            <AltitudeMeters>485.20001220703125</AltitudeMeters>
            <DistanceMeters>292622.61621997</DistanceMeters>
          </Trackpoint>
          <Trackpoint>
            <Time>2021-07-31T12:06:04.000Z</Time>
            <Position>
              <LatitudeDegrees>42.39965091459453105926513671875</LatitudeDegrees>
              <LongitudeDegrees>-2.36704618670046329498291015625</LongitudeDegrees>
            </Position>
            <AltitudeMeters>485.399993896484375</AltitudeMeters>
            <DistanceMeters>292677.49182323</DistanceMeters>
          </Trackpoint>
          <Trackpoint>
            <Time>2021-07-31T12:06:17.000Z</Time>
            <Position>
              <LatitudeDegrees>42.39948109723627567291259765625</LatitudeDegrees>
              <LongitudeDegrees>-2.36631981097161769866943359375</LongitudeDegrees>
            </Position>
            <AltitudeMeters>486.20001220703125</AltitudeMeters>
            <DistanceMeters>292740.11464429</DistanceMeters>
          </Trackpoint>
          <Trackpoint>
            <Time>2021-07-31T12:06:30.000Z</Time>
            <Position>
              <LatitudeDegrees>42.39926434122025966644287109375</LatitudeDegrees>
              <LongitudeDegrees>-2.365625537931919097900390625</LongitudeDegrees>
            </Position>
            <AltitudeMeters>486.79998779296875</AltitudeMeters>
            <DistanceMeters>292802.06892844</DistanceMeters>
          </Trackpoint>
          <Trackpoint>
            <Time>2021-07-31T12:06:43.000Z</Time>
            <Position>
              <LatitudeDegrees>42.39907088689506053924560546875</LatitudeDegrees>
              <LongitudeDegrees>-2.364943586289882659912109375</LongitudeDegrees>
            </Position>
            <AltitudeMeters>487.399993896484375</AltitudeMeters>
            <DistanceMeters>292862.11378201</DistanceMeters>
          </Trackpoint>
          <Trackpoint>
            <Time>2021-07-31T12:06:50.000Z</Time>
            <Position>
              <LatitudeDegrees>42.3989621736109256744384765625</LatitudeDegrees>
              <LongitudeDegrees>-2.36458106897771358489990234375</LongitudeDegrees>
            </Position>
            <AltitudeMeters>488</AltitudeMeters>
            <DistanceMeters>292894.27313035</DistanceMeters>
          </Trackpoint>
          <Trackpoint>
            <Time>2021-07-31T12:07:03.000Z</Time>
            <Position>
              <LatitudeDegrees>42.39884155802428722381591796875</LatitudeDegrees>
              <LongitudeDegrees>-2.3638752289116382598876953125</LongitudeDegrees>
            </Position>
            <AltitudeMeters>489</AltitudeMeters>
            <DistanceMeters>292953.82122493</DistanceMeters>
          </Trackpoint>
          <Trackpoint>
            <Time>2021-07-31T12:07:16.000Z</Time>
            <Position>
              <LatitudeDegrees>42.39866537041962146759033203125</LatitudeDegrees>
              <LongitudeDegrees>-2.36316033639013767242431640625</LongitudeDegrees>
            </Position>
            <AltitudeMeters>489.20001220703125</AltitudeMeters>
            <DistanceMeters>293015.76639878</DistanceMeters>
          </Trackpoint>
          <Trackpoint>
            <Time>2021-07-31T12:07:27.000Z</Time>
            <Position>
              <LatitudeDegrees>42.3984825611114501953125</LatitudeDegrees>
              <LongitudeDegrees>-2.3625773750245571136474609375</LongitudeDegrees>
            </Position>
            <AltitudeMeters>490</AltitudeMeters>
            <DistanceMeters>293067.82317433</DistanceMeters>
          </Trackpoint>
          <Trackpoint>
            <Time>2021-07-31T12:07:40.000Z</Time>
            <Position>
              <LatitudeDegrees>42.39822649396955966949462890625</LatitudeDegrees>
              <LongitudeDegrees>-2.36189601011574268341064453125</LongitudeDegrees>
            </Position>
            <AltitudeMeters>490.79998779296875</AltitudeMeters>
            <DistanceMeters>293130.66206363</DistanceMeters>
          </Trackpoint>
          <Trackpoint>
            <Time>2021-07-31T12:07:52.000Z</Time>
            <Position>
              <LatitudeDegrees>42.397914938628673553466796875</LatitudeDegrees>
              <LongitudeDegrees>-2.3612858913838863372802734375</LongitudeDegrees>
            </Position>
            <AltitudeMeters>490.399993896484375</AltitudeMeters>
            <DistanceMeters>293191.63175453</DistanceMeters>
          </Trackpoint>
          <Trackpoint>
            <Time>2021-07-31T12:08:04.000Z</Time>
            <Position>
              <LatitudeDegrees>42.397643029689788818359375</LatitudeDegrees>
              <LongitudeDegrees>-2.36064895056188106536865234375</LongitudeDegrees>
            </Position>
            <AltitudeMeters>490.79998779296875</AltitudeMeters>
            <DistanceMeters>293252.10280146</DistanceMeters>
          </Trackpoint>
          <Trackpoint>
            <Time>2021-07-31T12:08:05.000Z</Time>
            <Position>
              <LatitudeDegrees>42.39762534387409687042236328125</LatitudeDegrees>
              <LongitudeDegrees>-2.36059765331447124481201171875</LongitudeDegrees>
            </Position>
            <AltitudeMeters>491</AltitudeMeters>
            <DistanceMeters>293256.75620057</DistanceMeters>
          </Trackpoint>
          <Trackpoint>
            <Time>2021-07-31T12:08:09.000Z</Time>
            <Position>
              <LatitudeDegrees>42.397563569247722625732421875</LatitudeDegrees>
              <LongitudeDegrees>-2.3603927157819271087646484375</LongitudeDegrees>
            </Position>
            <AltitudeMeters>491</AltitudeMeters>
            <DistanceMeters>293274.95003228</DistanceMeters>
          </Trackpoint>
          <Trackpoint>
            <Time>2021-07-31T12:08:18.000Z</Time>
            <Position>
              <LatitudeDegrees>42.3973934166133403778076171875</LatitudeDegrees>
              <LongitudeDegrees>-2.3597848601639270782470703125</LongitudeDegrees>
            </Position>
            <AltitudeMeters>489.20001220703125</AltitudeMeters>
            <DistanceMeters>293328.38150127</DistanceMeters>
          </Trackpoint>
          <Trackpoint>
            <Time>2021-07-31T12:08:28.000Z</Time>
            <Position>
              <LatitudeDegrees>42.3972157202661037445068359375</LatitudeDegrees>
              <LongitudeDegrees>-2.35914071090519428253173828125</LongitudeDegrees>
            </Position>
            <AltitudeMeters>490.399993896484375</AltitudeMeters>
            <DistanceMeters>293384.90083152</DistanceMeters>
          </Trackpoint>
          <Trackpoint>
            <Time>2021-07-31T12:08:35.000Z</Time>
            <Position>
              <LatitudeDegrees>42.397172637283802032470703125</LatitudeDegrees>
              <LongitudeDegrees>-2.35877794213593006134033203125</LongitudeDegrees>
            </Position>
            <AltitudeMeters>491.600006103515625</AltitudeMeters>
            <DistanceMeters>293415.1016908</DistanceMeters>
          </Trackpoint>
          <Trackpoint>
            <Time>2021-07-31T12:08:47.000Z</Time>
            <Position>
              <LatitudeDegrees>42.39704950712621212005615234375</LatitudeDegrees>
              <LongitudeDegrees>-2.3580253310501575469970703125</LongitudeDegrees>
            </Position>
            <AltitudeMeters>490.79998779296875</AltitudeMeters>
            <DistanceMeters>293478.46263655</DistanceMeters>
          </Trackpoint>
          <Trackpoint>
            <Time>2021-07-31T12:08:50.000Z</Time>
            <Position>
              <LatitudeDegrees>42.39704095758497714996337890625</LatitudeDegrees>
              <LongitudeDegrees>-2.35781620256602764129638671875</LongitudeDegrees>
            </Position>
            <AltitudeMeters>490.600006103515625</AltitudeMeters>
            <DistanceMeters>293495.67847719</DistanceMeters>
          </Trackpoint>
          <Trackpoint>
            <Time>2021-07-31T12:08:55.000Z</Time>
            <Position>
              <LatitudeDegrees>42.397028468549251556396484375</LatitudeDegrees>
              <LongitudeDegrees>-2.35745175741612911224365234375</LongitudeDegrees>
            </Position>
            <AltitudeMeters>490.399993896484375</AltitudeMeters>
            <DistanceMeters>293525.66644516</DistanceMeters>
          </Trackpoint>
          <Trackpoint>
            <Time>2021-07-31T12:09:05.000Z</Time>
            <Position>
              <LatitudeDegrees>42.39705671556293964385986328125</LatitudeDegrees>
              <LongitudeDegrees>-2.35670945607125759124755859375</LongitudeDegrees>
            </Position>
            <AltitudeMeters>489.600006103515625</AltitudeMeters>
            <DistanceMeters>293586.76115883</DistanceMeters>
          </Trackpoint>
          <Trackpoint>
            <Time>2021-07-31T12:09:06.000Z</Time>
            <Position>
              <LatitudeDegrees>42.39706568419933319091796875</LatitudeDegrees>
              <LongitudeDegrees>-2.356637455523014068603515625</LongitudeDegrees>
            </Position>
            <AltitudeMeters>489.600006103515625</AltitudeMeters>
            <DistanceMeters>293592.76290648</DistanceMeters>
          </Trackpoint>
          <Trackpoint>
            <Time>2021-07-31T12:09:16.000Z</Time>
            <Position>
              <LatitudeDegrees>42.39720758982002735137939453125</LatitudeDegrees>
              <LongitudeDegrees>-2.35592474229633808135986328125</LongitudeDegrees>
            </Position>
            <AltitudeMeters>489.600006103515625</AltitudeMeters>
            <DistanceMeters>293653.43647761</DistanceMeters>
          </Trackpoint>
          <Trackpoint>
            <Time>2021-07-31T12:09:26.000Z</Time>
            <Position>
              <LatitudeDegrees>42.39732711575925350189208984375</LatitudeDegrees>
              <LongitudeDegrees>-2.355185709893703460693359375</LongitudeDegrees>
            </Position>
            <AltitudeMeters>489.20001220703125</AltitudeMeters>
            <DistanceMeters>293715.62113469</DistanceMeters>
          </Trackpoint>
          <Trackpoint>
            <Time>2021-07-31T12:09:29.000Z</Time>
            <Position>
              <LatitudeDegrees>42.39733583293855190277099609375</LatitudeDegrees>
              <LongitudeDegrees>-2.35494808293879032135009765625</LongitudeDegrees>
            </Position>
            <AltitudeMeters>488.600006103515625</AltitudeMeters>
            <DistanceMeters>293735.177023</DistanceMeters>
          </Trackpoint>
          <Trackpoint>
            <Time>2021-07-31T12:09:38.000Z</Time>
            <Position>
              <LatitudeDegrees>42.39733298309147357940673828125</LatitudeDegrees>
              <LongitudeDegrees>-2.35419790260493755340576171875</LongitudeDegrees>
            </Position>
            <AltitudeMeters>487.79998779296875</AltitudeMeters>
            <DistanceMeters>293796.83903713</DistanceMeters>
          </Trackpoint>
          <Trackpoint>
            <Time>2021-07-31T12:09:39.000Z</Time>
            <Position>
              <LatitudeDegrees>42.39733013324439525604248046875</LatitudeDegrees>
              <LongitudeDegrees>-2.35411693342030048370361328125</LongitudeDegrees>
            </Position>
            <AltitudeMeters>487.600006103515625</AltitudeMeters>
            <DistanceMeters>293803.50243611</DistanceMeters>
          </Trackpoint>
          <Trackpoint>
            <Time>2021-07-31T12:09:46.000Z</Time>
            <Position>
              <LatitudeDegrees>42.397342957556247711181640625</LatitudeDegrees>
              <LongitudeDegrees>-2.3535373248159885406494140625</LongitudeDegrees>
            </Position>
            <AltitudeMeters>486.79998779296875</AltitudeMeters>
            <DistanceMeters>293851.16475173</DistanceMeters>
          </Trackpoint>
          <Trackpoint>
            <Time>2021-07-31T12:09:50.000Z</Time>
            <Position>
              <LatitudeDegrees>42.397387214004993438720703125</LatitudeDegrees>
              <LongitudeDegrees>-2.35321453772485256195068359375</LongitudeDegrees>
            </Position>
            <AltitudeMeters>486.600006103515625</AltitudeMeters>
            <DistanceMeters>293878.14966167</DistanceMeters>
          </Trackpoint>
          <Trackpoint>
            <Time>2021-07-31T12:10:00.000Z</Time>
            <Position>
              <LatitudeDegrees>42.39758494310081005096435546875</LatitudeDegrees>
              <LongitudeDegrees>-2.35249168239533901214599609375</LongitudeDegrees>
            </Position>
            <AltitudeMeters>485.600006103515625</AltitudeMeters>
            <DistanceMeters>293941.50960978</DistanceMeters>
          </Trackpoint>
          <Trackpoint>
            <Time>2021-07-31T12:10:01.000Z</Time>
            <Position>
              <LatitudeDegrees>42.39760053344070911407470703125</LatitudeDegrees>
              <LongitudeDegrees>-2.352418005466461181640625</LongitudeDegrees>
            </Position>
            <AltitudeMeters>485.20001220703125</AltitudeMeters>
            <DistanceMeters>293947.80938644</DistanceMeters>
          </Trackpoint>
          <Trackpoint>
            <Time>2021-07-31T12:10:12.000Z</Time>
            <Position>
              <LatitudeDegrees>42.39769927226006984710693359375</LatitudeDegrees>
              <LongitudeDegrees>-2.35164754092693328857421875</LongitudeDegrees>
            </Position>
            <AltitudeMeters>485</AltitudeMeters>
            <DistanceMeters>294012.0839837</DistanceMeters>
          </Trackpoint>
          <Trackpoint>
            <Time>2021-07-31T12:10:18.000Z</Time>
            <Position>
              <LatitudeDegrees>42.39772818982601165771484375</LatitudeDegrees>
              <LongitudeDegrees>-2.35124512575566768646240234375</LongitudeDegrees>
            </Position>
            <AltitudeMeters>484.20001220703125</AltitudeMeters>
            <DistanceMeters>294045.31657974</DistanceMeters>
          </Trackpoint>
          <Trackpoint>
            <Time>2021-07-31T12:10:24.000Z</Time>
            <Position>
              <LatitudeDegrees>42.39775509573519229888916015625</LatitudeDegrees>
              <LongitudeDegrees>-2.35080608166754245758056640625</LongitudeDegrees>
            </Position>
            <AltitudeMeters>484.20001220703125</AltitudeMeters>
            <DistanceMeters>294081.52761867</DistanceMeters>
          </Trackpoint>
          <Trackpoint>
            <Time>2021-07-31T12:10:27.000Z</Time>
            <Position>
              <LatitudeDegrees>42.3977424390614032745361328125</LatitudeDegrees>
              <LongitudeDegrees>-2.350580357015132904052734375</LongitudeDegrees>
            </Position>
            <AltitudeMeters>483.20001220703125</AltitudeMeters>
            <DistanceMeters>294100.13442202</DistanceMeters>
          </Trackpoint>
          <Trackpoint>
            <Time>2021-07-31T12:10:38.000Z</Time>
            <Position>
              <LatitudeDegrees>42.39773011766374111175537109375</LatitudeDegrees>
              <LongitudeDegrees>-2.349812574684619903564453125</LongitudeDegrees>
            </Position>
            <AltitudeMeters>483.20001220703125</AltitudeMeters>
            <DistanceMeters>294163.25677091</DistanceMeters>
          </Trackpoint>
          <Trackpoint>
            <Time>2021-07-31T12:10:49.000Z</Time>
            <Position>
              <LatitudeDegrees>42.39778074435889720916748046875</LatitudeDegrees>
              <LongitudeDegrees>-2.3490623943507671356201171875</LongitudeDegrees>
            </Position>
            <AltitudeMeters>482.79998779296875</AltitudeMeters>
            <DistanceMeters>294225.17446003</DistanceMeters>
          </Trackpoint>
          <Trackpoint>
            <Time>2021-07-31T12:11:01.000Z</Time>
            <Position>
              <LatitudeDegrees>42.39784109406173229217529296875</LatitudeDegrees>
              <LongitudeDegrees>-2.348286397755146026611328125</LongitudeDegrees>
            </Position>
            <AltitudeMeters>483.399993896484375</AltitudeMeters>
            <DistanceMeters>294289.30981924</DistanceMeters>
          </Trackpoint>
          <Trackpoint>
            <Time>2021-07-31T12:11:12.000Z</Time>
            <Position>
              <LatitudeDegrees>42.39790563471615314483642578125</LatitudeDegrees>
              <LongitudeDegrees>-2.34756044112145900726318359375</LongitudeDegrees>
            </Position>
            <AltitudeMeters>483</AltitudeMeters>
            <DistanceMeters>294349.41014068</DistanceMeters>
          </Trackpoint>
          <Trackpoint>
            <Time>2021-07-31T12:11:23.000Z</Time>
            <Position>
              <LatitudeDegrees>42.397986017167568206787109375</LatitudeDegrees>
              <LongitudeDegrees>-2.346818558871746063232421875</LongitudeDegrees>
            </Position>
            <AltitudeMeters>483.399993896484375</AltitudeMeters>
            <DistanceMeters>294411.04139376</DistanceMeters>
          </Trackpoint>
          <Trackpoint>
            <Time>2021-07-31T12:11:34.000Z</Time>
            <Position>
              <LatitudeDegrees>42.398038320243358612060546875</LatitudeDegrees>
              <LongitudeDegrees>-2.3460693843662738800048828125</LongitudeDegrees>
            </Position>
            <AltitudeMeters>483</AltitudeMeters>
            <DistanceMeters>294472.89378503</DistanceMeters>
          </Trackpoint>
          <Trackpoint>
            <Time>2021-07-31T12:11:46.000Z</Time>
            <Position>
              <LatitudeDegrees>42.39804259501397609710693359375</LatitudeDegrees>
              <LongitudeDegrees>-2.34527771361172199249267578125</LongitudeDegrees>
            </Position>
            <AltitudeMeters>483</AltitudeMeters>
            <DistanceMeters>294537.9662029</DistanceMeters>
          </Trackpoint>
          <Trackpoint>
            <Time>2021-07-31T12:11:58.000Z</Time>
            <Position>
              <LatitudeDegrees>42.3980632983148097991943359375</LatitudeDegrees>
              <LongitudeDegrees>-2.34449937008321285247802734375</LongitudeDegrees>
            </Position>
            <AltitudeMeters>483.20001220703125</AltitudeMeters>
            <DistanceMeters>294601.98290113</DistanceMeters>
          </Trackpoint>
          <Trackpoint>
            <Time>2021-07-31T12:12:11.000Z</Time>
            <Position>
              <LatitudeDegrees>42.3981216363608837127685546875</LatitudeDegrees>
              <LongitudeDegrees>-2.34373309649527072906494140625</LongitudeDegrees>
            </Position>
            <AltitudeMeters>483.79998779296875</AltitudeMeters>
            <DistanceMeters>294665.2998648</DistanceMeters>
          </Trackpoint>
          <Trackpoint>
            <Time>2021-07-31T12:12:16.000Z</Time>
            <Position>
              <LatitudeDegrees>42.398146279156208038330078125</LatitudeDegrees>
              <LongitudeDegrees>-2.3434404842555522918701171875</LongitudeDegrees>
            </Position>
            <AltitudeMeters>484.399993896484375</AltitudeMeters>
            <DistanceMeters>294689.50669629</DistanceMeters>
          </Trackpoint>
          <Trackpoint>
            <Time>2021-07-31T12:12:28.000Z</Time>
            <Position>
              <LatitudeDegrees>42.3982037790119647979736328125</LatitudeDegrees>
              <LongitudeDegrees>-2.342713437974452972412109375</LongitudeDegrees>
            </Position>
            <AltitudeMeters>485.600006103515625</AltitudeMeters>
            <DistanceMeters>294749.6072431</DistanceMeters>
          </Trackpoint>
          <Trackpoint>
            <Time>2021-07-31T12:12:40.000Z</Time>
            <Position>
              <LatitudeDegrees>42.39823705516755580902099609375</LatitudeDegrees>
              <LongitudeDegrees>-2.34196007251739501953125</LongitudeDegrees>
            </Position>
            <AltitudeMeters>485.79998779296875</AltitudeMeters>
            <DistanceMeters>294811.63989326</DistanceMeters>
          </Trackpoint>
          <Trackpoint>
            <Time>2021-07-31T12:12:52.000Z</Time>
            <Position>
              <LatitudeDegrees>42.39827645011246204376220703125</LatitudeDegrees>
              <LongitudeDegrees>-2.341218777000904083251953125</LongitudeDegrees>
            </Position>
            <AltitudeMeters>486.20001220703125</AltitudeMeters>
            <DistanceMeters>294872.72736408</DistanceMeters>
          </Trackpoint>
          <Trackpoint>
            <Time>2021-07-31T12:13:04.000Z</Time>
            <Position>
              <LatitudeDegrees>42.39831668324768543243408203125</LatitudeDegrees>
              <LongitudeDegrees>-2.340457700192928314208984375</LongitudeDegrees>
            </Position>
            <AltitudeMeters>486.399993896484375</AltitudeMeters>
            <DistanceMeters>294935.44319579</DistanceMeters>
          </Trackpoint>
          <Trackpoint>
            <Time>2021-07-31T12:13:11.000Z</Time>
            <Position>
              <LatitudeDegrees>42.39830880425870418548583984375</LatitudeDegrees>
              <LongitudeDegrees>-2.34002863056957721710205078125</LongitudeDegrees>
            </Position>
            <AltitudeMeters>487</AltitudeMeters>
            <DistanceMeters>294970.7210236</DistanceMeters>
          </Trackpoint>
          <Trackpoint>
            <Time>2021-07-31T12:13:24.000Z</Time>
            <Position>
              <LatitudeDegrees>42.39828852005302906036376953125</LatitudeDegrees>
              <LongitudeDegrees>-2.33927694149315357208251953125</LongitudeDegrees>
            </Position>
            <AltitudeMeters>487.79998779296875</AltitudeMeters>
            <DistanceMeters>295032.5464001</DistanceMeters>
          </Trackpoint>
          <Trackpoint>
            <Time>2021-07-31T12:13:26.000Z</Time>
            <Position>
              <LatitudeDegrees>42.39828583784401416778564453125</LatitudeDegrees>
              <LongitudeDegrees>-2.339163534343242645263671875</LongitudeDegrees>
            </Position>
            <AltitudeMeters>488</AltitudeMeters>
            <DistanceMeters>295041.87258347</DistanceMeters>
          </Trackpoint>
          <Trackpoint>
            <Time>2021-07-31T12:13:36.000Z</Time>
            <Position>
              <LatitudeDegrees>42.398271001875400543212890625</LatitudeDegrees>
              <LongitudeDegrees>-2.33862818218767642974853515625</LongitudeDegrees>
            </Position>
            <AltitudeMeters>489</AltitudeMeters>
            <DistanceMeters>295085.90616241</DistanceMeters>
          </Trackpoint>
          <Trackpoint>
            <Time>2021-07-31T12:13:42.000Z</Time>
            <Position>
              <LatitudeDegrees>42.3982698284089565277099609375</LatitudeDegrees>
              <LongitudeDegrees>-2.33834353275597095489501953125</LongitudeDegrees>
            </Position>
            <AltitudeMeters>490.20001220703125</AltitudeMeters>
            <DistanceMeters>295109.30281247</DistanceMeters>
          </Trackpoint>
          <Trackpoint>
            <Time>2021-07-31T12:13:47.000Z</Time>
            <Position>
              <LatitudeDegrees>42.3983365483582019805908203125</LatitudeDegrees>
              <LongitudeDegrees>-2.33814387582242488861083984375</LongitudeDegrees>
            </Position>
            <AltitudeMeters>491.20001220703125</AltitudeMeters>
            <DistanceMeters>295127.31532608</DistanceMeters>
          </Trackpoint>
          <Trackpoint>
            <Time>2021-07-31T12:14:04.000Z</Time>
            <Position>
              <LatitudeDegrees>42.39887894131243228912353515625</LatitudeDegrees>
              <LongitudeDegrees>-2.3380096815526485443115234375</LongitudeDegrees>
            </Position>
            <AltitudeMeters>491.20001220703125</AltitudeMeters>
            <DistanceMeters>295188.68411971</DistanceMeters>
          </Trackpoint>
          <Trackpoint>
            <Time>2021-07-31T12:14:11.000Z</Time>
            <Position>
              <LatitudeDegrees>42.3990241996943950653076171875</LatitudeDegrees>
              <LongitudeDegrees>-2.33789275400340557098388671875</LongitudeDegrees>
            </Position>
            <AltitudeMeters>490</AltitudeMeters>
            <DistanceMeters>295207.49220879</DistanceMeters>
          </Trackpoint>
          <Trackpoint>
            <Time>2021-07-31T12:14:13.000Z</Time>
            <Position>
              <LatitudeDegrees>42.3990258760750293731689453125</LatitudeDegrees>
              <LongitudeDegrees>-2.33788386918604373931884765625</LongitudeDegrees>
            </Position>
            <AltitudeMeters>489.79998779296875</AltitudeMeters>
            <DistanceMeters>295208.24645995</DistanceMeters>
          </Trackpoint>
          <Trackpoint>
            <Time>2021-07-31T12:14:22.000Z</Time>
            <Position>
              <LatitudeDegrees>42.39902101457118988037109375</LatitudeDegrees>
              <LongitudeDegrees>-2.337843216955661773681640625</LongitudeDegrees>
            </Position>
            <AltitudeMeters>489.600006103515625</AltitudeMeters>
            <DistanceMeters>295211.63026505</DistanceMeters>
          </Trackpoint>
          <Trackpoint>
            <Time>2021-07-31T12:14:30.000Z</Time>
            <Position>
              <LatitudeDegrees>42.39886703900992870330810546875</LatitudeDegrees>
              <LongitudeDegrees>-2.33755496330559253692626953125</LongitudeDegrees>
            </Position>
            <AltitudeMeters>489</AltitudeMeters>
            <DistanceMeters>295240.87117557</DistanceMeters>
          </Trackpoint>
          <Trackpoint>
            <Time>2021-07-31T12:14:35.000Z</Time>
            <Position>
              <LatitudeDegrees>42.39870845340192317962646484375</LatitudeDegrees>
              <LongitudeDegrees>-2.33726109378039836883544921875</LongitudeDegrees>
            </Position>
            <AltitudeMeters>487.79998779296875</AltitudeMeters>
            <DistanceMeters>295270.7870885</DistanceMeters>
          </Trackpoint>
          <Trackpoint>
            <Time>2021-07-31T12:14:38.000Z</Time>
            <Position>
              <LatitudeDegrees>42.39859186112880706787109375</LatitudeDegrees>
              <LongitudeDegrees>-2.3370288312435150146484375</LongitudeDegrees>
            </Position>
            <AltitudeMeters>486</AltitudeMeters>
            <DistanceMeters>295293.87056204</DistanceMeters>
          </Trackpoint>
          <Trackpoint>
            <Time>2021-07-31T12:14:40.000Z</Time>
            <Position>
              <LatitudeDegrees>42.39850058220326900482177734375</LatitudeDegrees>
              <LongitudeDegrees>-2.336860857903957366943359375</LongitudeDegrees>
            </Position>
            <AltitudeMeters>484.600006103515625</AltitudeMeters>
            <DistanceMeters>295311.01228563</DistanceMeters>
          </Trackpoint>
          <Trackpoint>
            <Time>2021-07-31T12:14:42.000Z</Time>
            <Position>
              <LatitudeDegrees>42.3984022624790668487548828125</LatitudeDegrees>
              <LongitudeDegrees>-2.33667545020580291748046875</LongitudeDegrees>
            </Position>
            <AltitudeMeters>483.20001220703125</AltitudeMeters>
            <DistanceMeters>295329.77374559</DistanceMeters>
          </Trackpoint>
          <Trackpoint>
            <Time>2021-07-31T12:14:44.000Z</Time>
            <Position>
              <LatitudeDegrees>42.3983124084770679473876953125</LatitudeDegrees>
              <LongitudeDegrees>-2.33646221458911895751953125</LongitudeDegrees>
            </Position>
            <AltitudeMeters>481.600006103515625</AltitudeMeters>
            <DistanceMeters>295349.95299897</DistanceMeters>
          </Trackpoint>
          <Trackpoint>
            <Time>2021-07-31T12:14:46.000Z</Time>
            <Position>
              <LatitudeDegrees>42.39825918339192867279052734375</LatitudeDegrees>
              <LongitudeDegrees>-2.3362092487514019012451171875</LongitudeDegrees>
            </Position>
            <AltitudeMeters>480.399993896484375</AltitudeMeters>
            <DistanceMeters>295371.57277734</DistanceMeters>
          </Trackpoint>
          <Trackpoint>
            <Time>2021-07-31T12:14:47.000Z</Time>
            <Position>
              <LatitudeDegrees>42.39826002158224582672119140625</LatitudeDegrees>
              <LongitudeDegrees>-2.33606969006359577178955078125</LongitudeDegrees>
            </Position>
            <AltitudeMeters>479.20001220703125</AltitudeMeters>
            <DistanceMeters>295383.04388339</DistanceMeters>
          </Trackpoint>
          <Trackpoint>
            <Time>2021-07-31T12:14:48.000Z</Time>
            <Position>
              <LatitudeDegrees>42.39828583784401416778564453125</LatitudeDegrees>
              <LongitudeDegrees>-2.3359292931854724884033203125</LongitudeDegrees>
            </Position>
            <AltitudeMeters>478</AltitudeMeters>
            <DistanceMeters>295394.93627832</DistanceMeters>
          </Trackpoint>
          <Trackpoint>
            <Time>2021-07-31T12:14:49.000Z</Time>
            <Position>
              <LatitudeDegrees>42.39832472987473011016845703125</LatitudeDegrees>
              <LongitudeDegrees>-2.33578805811703205108642578125</LongitudeDegrees>
            </Position>
            <AltitudeMeters>477.20001220703125</AltitudeMeters>
            <DistanceMeters>295407.32551718</DistanceMeters>
          </Trackpoint>
          <Trackpoint>
            <Time>2021-07-31T12:14:50.000Z</Time>
            <Position>
              <LatitudeDegrees>42.3983578383922576904296875</LatitudeDegrees>
              <LongitudeDegrees>-2.33564841561019420623779296875</LongitudeDegrees>
            </Position>
            <AltitudeMeters>476.79998779296875</AltitudeMeters>
            <DistanceMeters>295419.38005948</DistanceMeters>
          </Trackpoint>
          <Trackpoint>
            <Time>2021-07-31T12:14:52.000Z</Time>
            <Position>
              <LatitudeDegrees>42.3983578383922576904296875</LatitudeDegrees>
              <LongitudeDegrees>-2.33540450222790241241455078125</LongitudeDegrees>
            </Position>
            <AltitudeMeters>475.20001220703125</AltitudeMeters>
            <DistanceMeters>295439.42821906</DistanceMeters>
          </Trackpoint>
          <Trackpoint>
            <Time>2021-07-31T12:14:54.000Z</Time>
            <Position>
              <LatitudeDegrees>42.39824074320495128631591796875</LatitudeDegrees>
              <LongitudeDegrees>-2.335258908569812774658203125</LongitudeDegrees>
            </Position>
            <AltitudeMeters>473.20001220703125</AltitudeMeters>
            <DistanceMeters>295457.122081</DistanceMeters>
          </Trackpoint>
          <Trackpoint>
            <Time>2021-07-31T12:14:55.000Z</Time>
            <Position>
              <LatitudeDegrees>42.3981538228690624237060546875</LatitudeDegrees>
              <LongitudeDegrees>-2.33524985611438751220703125</LongitudeDegrees>
            </Position>
            <AltitudeMeters>471.79998779296875</AltitudeMeters>
            <DistanceMeters>295466.82504843</DistanceMeters>
          </Trackpoint>
          <Trackpoint>
            <Time>2021-07-31T12:14:56.000Z</Time>
            <Position>
              <LatitudeDegrees>42.398065812885761260986328125</LatitudeDegrees>
              <LongitudeDegrees>-2.33527156524360179901123046875</LongitudeDegrees>
            </Position>
            <AltitudeMeters>470.20001220703125</AltitudeMeters>
            <DistanceMeters>295476.78246975</DistanceMeters>
          </Trackpoint>
          <Trackpoint>
            <Time>2021-07-31T12:14:57.000Z</Time>
            <Position>
              <LatitudeDegrees>42.397978305816650390625</LatitudeDegrees>
              <LongitudeDegrees>-2.3353013209998607635498046875</LongitudeDegrees>
            </Position>
            <AltitudeMeters>469.20001220703125</AltitudeMeters>
            <DistanceMeters>295486.82477495</DistanceMeters>
          </Trackpoint>
          <Trackpoint>
            <Time>2021-07-31T12:14:59.000Z</Time>
            <Position>
              <LatitudeDegrees>42.39779985509812831878662109375</LatitudeDegrees>
              <LongitudeDegrees>-2.33535588718950748443603515625</LongitudeDegrees>
            </Position>
            <AltitudeMeters>467.79998779296875</AltitudeMeters>
            <DistanceMeters>295507.1871174</DistanceMeters>
          </Trackpoint>
          <Trackpoint>
            <Time>2021-07-31T12:15:01.000Z</Time>
            <Position>
              <LatitudeDegrees>42.39762970246374607086181640625</LatitudeDegrees>
              <LongitudeDegrees>-2.335380613803863525390625</LongitudeDegrees>
            </Position>
            <AltitudeMeters>467</AltitudeMeters>
            <DistanceMeters>295526.23422614</DistanceMeters>
          </Trackpoint>
          <Trackpoint>
            <Time>2021-07-31T12:15:02.000Z</Time>
            <Position>
              <LatitudeDegrees>42.39755191840231418609619140625</LatitudeDegrees>
              <LongitudeDegrees>-2.3353506065905094146728515625</LongitudeDegrees>
            </Position>
            <AltitudeMeters>466.79998779296875</AltitudeMeters>
            <DistanceMeters>295535.2362207</DistanceMeters>
          </Trackpoint>
          <Trackpoint>
            <Time>2021-07-31T12:15:05.000Z</Time>
            <Position>
              <LatitudeDegrees>42.3974943347275257110595703125</LatitudeDegrees>
              <LongitudeDegrees>-2.33510275371372699737548828125</LongitudeDegrees>
            </Position>
            <AltitudeMeters>464.79998779296875</AltitudeMeters>
            <DistanceMeters>295556.59293302</DistanceMeters>
          </Trackpoint>
          <Trackpoint>
            <Time>2021-07-31T12:15:07.000Z</Time>
            <Position>
              <LatitudeDegrees>42.397612519562244415283203125</LatitudeDegrees>
              <LongitudeDegrees>-2.33500150032341480255126953125</LongitudeDegrees>
            </Position>
            <AltitudeMeters>463.20001220703125</AltitudeMeters>
            <DistanceMeters>295572.15905139</DistanceMeters>
          </Trackpoint>
          <Trackpoint>
            <Time>2021-07-31T12:15:09.000Z</Time>
            <Position>
              <LatitudeDegrees>42.39777722395956516265869140625</LatitudeDegrees>
              <LongitudeDegrees>-2.33491717837750911712646484375</LongitudeDegrees>
            </Position>
            <AltitudeMeters>461.600006103515625</AltitudeMeters>
            <DistanceMeters>295591.75737534</DistanceMeters>
          </Trackpoint>
          <Trackpoint>
            <Time>2021-07-31T12:15:10.000Z</Time>
            <Position>
              <LatitudeDegrees>42.39786364138126373291015625</LatitudeDegrees>
              <LongitudeDegrees>-2.3348778672516345977783203125</LongitudeDegrees>
            </Position>
            <AltitudeMeters>460.20001220703125</AltitudeMeters>
            <DistanceMeters>295601.90389699</DistanceMeters>
          </Trackpoint>
          <Trackpoint>
            <Time>2021-07-31T12:15:12.000Z</Time>
            <Position>
              <LatitudeDegrees>42.398042343556880950927734375</LatitudeDegrees>
              <LongitudeDegrees>-2.3347950540482997894287109375</LongitudeDegrees>
            </Position>
            <AltitudeMeters>458.600006103515625</AltitudeMeters>
            <DistanceMeters>295622.92607435</DistanceMeters>
          </Trackpoint>
          <Trackpoint>
            <Time>2021-07-31T12:15:14.000Z</Time>
            <Position>
              <LatitudeDegrees>42.3982312716543674468994140625</LatitudeDegrees>
              <LongitudeDegrees>-2.33471517451107501983642578125</LongitudeDegrees>
            </Position>
            <AltitudeMeters>457</AltitudeMeters>
            <DistanceMeters>295644.95526721</DistanceMeters>
          </Trackpoint>
          <Trackpoint>
            <Time>2021-07-31T12:15:16.000Z</Time>
            <Position>
              <LatitudeDegrees>42.39842447452247142791748046875</LatitudeDegrees>
              <LongitudeDegrees>-2.33462029136717319488525390625</LongitudeDegrees>
            </Position>
            <AltitudeMeters>455.79998779296875</AltitudeMeters>
            <DistanceMeters>295667.82987715</DistanceMeters>
          </Trackpoint>
          <Trackpoint>
            <Time>2021-07-31T12:15:18.000Z</Time>
            <Position>
              <LatitudeDegrees>42.398625724017620086669921875</LatitudeDegrees>
              <LongitudeDegrees>-2.33452297747135162353515625</LongitudeDegrees>
            </Position>
            <AltitudeMeters>454.600006103515625</AltitudeMeters>
            <DistanceMeters>295691.61466701</DistanceMeters>
          </Trackpoint>
          <Trackpoint>
            <Time>2021-07-31T12:15:20.000Z</Time>
            <Position>
              <LatitudeDegrees>42.39882898516952991485595703125</LatitudeDegrees>
              <LongitudeDegrees>-2.334407977759838104248046875</LongitudeDegrees>
            </Position>
            <AltitudeMeters>453.399993896484375</AltitudeMeters>
            <DistanceMeters>295716.13340085</DistanceMeters>
          </Trackpoint>
          <Trackpoint>
            <Time>2021-07-31T12:15:24.000Z</Time>
            <Position>
              <LatitudeDegrees>42.3992169834673404693603515625</LatitudeDegrees>
              <LongitudeDegrees>-2.3340649902820587158203125</LongitudeDegrees>
            </Position>
            <AltitudeMeters>451.399993896484375</AltitudeMeters>
            <DistanceMeters>295767.70551149</DistanceMeters>
          </Trackpoint>
          <Trackpoint>
            <Time>2021-07-31T12:15:26.000Z</Time>
            <Position>
              <LatitudeDegrees>42.3993936739861965179443359375</LatitudeDegrees>
              <LongitudeDegrees>-2.33383490703999996185302734375</LongitudeDegrees>
            </Position>
            <AltitudeMeters>449.79998779296875</AltitudeMeters>
            <DistanceMeters>295794.98893726</DistanceMeters>
          </Trackpoint>
          <Trackpoint>
            <Time>2021-07-31T12:15:28.000Z</Time>
            <Position>
              <LatitudeDegrees>42.39956944249570369720458984375</LatitudeDegrees>
              <LongitudeDegrees>-2.33359099365770816802978515625</LongitudeDegrees>
            </Position>
            <AltitudeMeters>448.20001220703125</AltitudeMeters>
            <DistanceMeters>295823.00038853</DistanceMeters>
          </Trackpoint>
          <Trackpoint>
            <Time>2021-07-31T12:15:30.000Z</Time>
            <Position>
              <LatitudeDegrees>42.3997457139194011688232421875</LatitudeDegrees>
              <LongitudeDegrees>-2.3333449847996234893798828125</LongitudeDegrees>
            </Position>
            <AltitudeMeters>446.20001220703125</AltitudeMeters>
            <DistanceMeters>295851.17416676</DistanceMeters>
          </Trackpoint>
          <Trackpoint>
            <Time>2021-07-31T12:15:32.000Z</Time>
            <Position>
              <LatitudeDegrees>42.39992500282824039459228515625</LatitudeDegrees>
              <LongitudeDegrees>-2.333105765283107757568359375</LongitudeDegrees>
            </Position>
            <AltitudeMeters>444.600006103515625</AltitudeMeters>
            <DistanceMeters>295879.18851922</DistanceMeters>
          </Trackpoint>
          <Trackpoint>
            <Time>2021-07-31T12:15:33.000Z</Time>
            <Position>
              <LatitudeDegrees>42.40001334808766841888427734375</LatitudeDegrees>
              <LongitudeDegrees>-2.33298615552484989166259765625</LongitudeDegrees>
            </Position>
            <AltitudeMeters>443.399993896484375</AltitudeMeters>
            <DistanceMeters>295893.09297666</DistanceMeters>
          </Trackpoint>
          <Trackpoint>
            <Time>2021-07-31T12:15:35.000Z</Time>
            <Position>
              <LatitudeDegrees>42.40018643438816070556640625</LatitudeDegrees>
              <LongitudeDegrees>-2.33274324797093868255615234375</LongitudeDegrees>
            </Position>
            <AltitudeMeters>441</AltitudeMeters>
            <DistanceMeters>295920.83687177</DistanceMeters>
          </Trackpoint>
          <Trackpoint>
            <Time>2021-07-31T12:15:37.000Z</Time>
            <Position>
              <LatitudeDegrees>42.400360442698001861572265625</LatitudeDegrees>
              <LongitudeDegrees>-2.33250729739665985107421875</LongitudeDegrees>
            </Position>
            <AltitudeMeters>439.20001220703125</AltitudeMeters>
            <DistanceMeters>295948.24479032</DistanceMeters>
          </Trackpoint>
          <Trackpoint>
            <Time>2021-07-31T12:15:41.000Z</Time>
            <Position>
              <LatitudeDegrees>42.40068842656910419464111328125</LatitudeDegrees>
              <LongitudeDegrees>-2.33203765936195850372314453125</LongitudeDegrees>
            </Position>
            <AltitudeMeters>438.20001220703125</AltitudeMeters>
            <DistanceMeters>296001.37279776</DistanceMeters>
          </Trackpoint>
          <Trackpoint>
            <Time>2021-07-31T12:15:42.000Z</Time>
            <Position>
              <LatitudeDegrees>42.40075866691768169403076171875</LatitudeDegrees>
              <LongitudeDegrees>-2.33190908096730709075927734375</LongitudeDegrees>
            </Position>
            <AltitudeMeters>438.20001220703125</AltitudeMeters>
            <DistanceMeters>296014.51812175</DistanceMeters>
          </Trackpoint>
          <Trackpoint>
            <Time>2021-07-31T12:15:44.000Z</Time>
            <Position>
              <LatitudeDegrees>42.40087517537176609039306640625</LatitudeDegrees>
              <LongitudeDegrees>-2.331633903086185455322265625</LongitudeDegrees>
            </Position>
            <AltitudeMeters>436.79998779296875</AltitudeMeters>
            <DistanceMeters>296040.58888744</DistanceMeters>
          </Trackpoint>
          <Trackpoint>
            <Time>2021-07-31T12:15:46.000Z</Time>
            <Position>
              <LatitudeDegrees>42.40097223781049251556396484375</LatitudeDegrees>
              <LongitudeDegrees>-2.33135386370122432708740234375</LongitudeDegrees>
            </Position>
            <AltitudeMeters>435</AltitudeMeters>
            <DistanceMeters>296066.01470509</DistanceMeters>
          </Trackpoint>
          <Trackpoint>
            <Time>2021-07-31T12:15:48.000Z</Time>
            <Position>
              <LatitudeDegrees>42.4010506086051464080810546875</LatitudeDegrees>
              <LongitudeDegrees>-2.3310708068311214447021484375</LongitudeDegrees>
            </Position>
            <AltitudeMeters>434</AltitudeMeters>
            <DistanceMeters>296090.86087473</DistanceMeters>
          </Trackpoint>
          <Trackpoint>
            <Time>2021-07-31T12:15:51.000Z</Time>
            <Position>
              <LatitudeDegrees>42.40111154504120349884033203125</LatitudeDegrees>
              <LongitudeDegrees>-2.3306344449520111083984375</LongitudeDegrees>
            </Position>
            <AltitudeMeters>432</AltitudeMeters>
            <DistanceMeters>296127.36127772</DistanceMeters>
          </Trackpoint>
          <Trackpoint>
            <Time>2021-07-31T12:15:53.000Z</Time>
            <Position>
              <LatitudeDegrees>42.40112680010497570037841796875</LatitudeDegrees>
              <LongitudeDegrees>-2.33034275472164154052734375</LongitudeDegrees>
            </Position>
            <AltitudeMeters>430.20001220703125</AltitudeMeters>
            <DistanceMeters>296151.39533543</DistanceMeters>
          </Trackpoint>
          <Trackpoint>
            <Time>2021-07-31T12:15:56.000Z</Time>
            <Position>
              <LatitudeDegrees>42.401121519505977630615234375</LatitudeDegrees>
              <LongitudeDegrees>-2.3299164511263370513916015625</LongitudeDegrees>
            </Position>
            <AltitudeMeters>428.79998779296875</AltitudeMeters>
            <DistanceMeters>296186.43816773</DistanceMeters>
          </Trackpoint>
          <Trackpoint>
            <Time>2021-07-31T12:16:02.000Z</Time>
            <Position>
              <LatitudeDegrees>42.40104683674871921539306640625</LatitudeDegrees>
              <LongitudeDegrees>-2.32910893857479095458984375</LongitudeDegrees>
            </Position>
            <AltitudeMeters>428.79998779296875</AltitudeMeters>
            <DistanceMeters>296253.32624278</DistanceMeters>
          </Trackpoint>
          <Trackpoint>
            <Time>2021-07-31T12:16:08.000Z</Time>
            <Position>
              <LatitudeDegrees>42.4009745009243488311767578125</LatitudeDegrees>
              <LongitudeDegrees>-2.3283855803310871124267578125</LongitudeDegrees>
            </Position>
            <AltitudeMeters>429.600006103515625</AltitudeMeters>
            <DistanceMeters>296313.32174854</DistanceMeters>
          </Trackpoint>
          <Trackpoint>
            <Time>2021-07-31T12:16:09.000Z</Time>
            <Position>
              <LatitudeDegrees>42.400963604450225830078125</LatitudeDegrees>
              <LongitudeDegrees>-2.3282767832279205322265625</LongitudeDegrees>
            </Position>
            <AltitudeMeters>429.79998779296875</AltitudeMeters>
            <DistanceMeters>296322.34578475</DistanceMeters>
          </Trackpoint>
          <Trackpoint>
            <Time>2021-07-31T12:16:12.000Z</Time>
            <Position>
              <LatitudeDegrees>42.40094139240682125091552734375</LatitudeDegrees>
              <LongitudeDegrees>-2.3279765434563159942626953125</LongitudeDegrees>
            </Position>
            <AltitudeMeters>430.79998779296875</AltitudeMeters>
            <DistanceMeters>296347.14611875</DistanceMeters>
          </Trackpoint>
          <Trackpoint>
            <Time>2021-07-31T12:16:16.000Z</Time>
            <Position>
              <LatitudeDegrees>42.400907613337039947509765625</LatitudeDegrees>
              <LongitudeDegrees>-2.327629365026950836181640625</LongitudeDegrees>
            </Position>
            <AltitudeMeters>432</AltitudeMeters>
            <DistanceMeters>296375.92776382</DistanceMeters>
          </Trackpoint>
          <Trackpoint>
            <Time>2021-07-31T12:16:24.000Z</Time>
            <Position>
              <LatitudeDegrees>42.400856316089630126953125</LatitudeDegrees>
              <LongitudeDegrees>-2.327011115849018096923828125</LongitudeDegrees>
            </Position>
            <AltitudeMeters>433</AltitudeMeters>
            <DistanceMeters>296427.06167325</DistanceMeters>
          </Trackpoint>
          <Trackpoint>
            <Time>2021-07-31T12:16:29.000Z</Time>
            <Position>
              <LatitudeDegrees>42.40083041600883007049560546875</LatitudeDegrees>
              <LongitudeDegrees>-2.32664725743234157562255859375</LongitudeDegrees>
            </Position>
            <AltitudeMeters>433.20001220703125</AltitudeMeters>
            <DistanceMeters>296457.10604879</DistanceMeters>
          </Trackpoint>
          <Trackpoint>
            <Time>2021-07-31T12:16:33.000Z</Time>
            <Position>
              <LatitudeDegrees>42.40088171325623989105224609375</LatitudeDegrees>
              <LongitudeDegrees>-2.32638088054955005645751953125</LongitudeDegrees>
            </Position>
            <AltitudeMeters>433.399993896484375</AltitudeMeters>
            <DistanceMeters>296479.73198731</DistanceMeters>
          </Trackpoint>
          <Trackpoint>
            <Time>2021-07-31T12:16:35.000Z</Time>
            <Position>
              <LatitudeDegrees>42.40092630498111248016357421875</LatitudeDegrees>
              <LongitudeDegrees>-2.32625967822968959808349609375</LongitudeDegrees>
            </Position>
            <AltitudeMeters>434.20001220703125</AltitudeMeters>
            <DistanceMeters>296490.86107211</DistanceMeters>
          </Trackpoint>
          <Trackpoint>
            <Time>2021-07-31T12:16:40.000Z</Time>
            <Position>
              <LatitudeDegrees>42.40103091113269329071044921875</LatitudeDegrees>
              <LongitudeDegrees>-2.32596446759998798370361328125</LongitudeDegrees>
            </Position>
            <AltitudeMeters>435.399993896484375</AltitudeMeters>
            <DistanceMeters>296517.77326844</DistanceMeters>
          </Trackpoint>
          <Trackpoint>
            <Time>2021-07-31T12:16:43.000Z</Time>
            <Position>
              <LatitudeDegrees>42.40108489058911800384521484375</LatitudeDegrees>
              <LongitudeDegrees>-2.325791381299495697021484375</LongitudeDegrees>
            </Position>
            <AltitudeMeters>435.79998779296875</AltitudeMeters>
            <DistanceMeters>296533.21620595</DistanceMeters>
          </Trackpoint>
          <Trackpoint>
            <Time>2021-07-31T12:16:46.000Z</Time>
            <Position>
              <LatitudeDegrees>42.40110115148127079010009765625</LatitudeDegrees>
              <LongitudeDegrees>-2.32561745680868625640869140625</LongitudeDegrees>
            </Position>
            <AltitudeMeters>436.600006103515625</AltitudeMeters>
            <DistanceMeters>296547.62490081</DistanceMeters>
          </Trackpoint>
          <Trackpoint>
            <Time>2021-07-31T12:16:48.000Z</Time>
            <Position>
              <LatitudeDegrees>42.401096038520336151123046875</LatitudeDegrees>
              <LongitudeDegrees>-2.32550648041069507598876953125</LongitudeDegrees>
            </Position>
            <AltitudeMeters>437.20001220703125</AltitudeMeters>
            <DistanceMeters>296556.76328945</DistanceMeters>
          </Trackpoint>
          <Trackpoint>
            <Time>2021-07-31T12:16:49.000Z</Time>
            <Position>
              <LatitudeDegrees>42.40108891390264034271240234375</LatitudeDegrees>
              <LongitudeDegrees>-2.325456775724887847900390625</LongitudeDegrees>
            </Position>
            <AltitudeMeters>437.600006103515625</AltitudeMeters>
            <DistanceMeters>296560.92498221</DistanceMeters>
          </Trackpoint>
          <Trackpoint>
            <Time>2021-07-31T12:16:52.000Z</Time>
            <Position>
              <LatitudeDegrees>42.4010710604488849639892578125</LatitudeDegrees>
              <LongitudeDegrees>-2.32533599250018596649169921875</LongitudeDegrees>
            </Position>
            <AltitudeMeters>438.600006103515625</AltitudeMeters>
            <DistanceMeters>296571.04923021</DistanceMeters>
          </Trackpoint>
          <Trackpoint>
            <Time>2021-07-31T12:16:54.000Z</Time>
            <Position>
              <LatitudeDegrees>42.4010797776281833648681640625</LatitudeDegrees>
              <LongitudeDegrees>-2.325292490422725677490234375</LongitudeDegrees>
            </Position>
            <AltitudeMeters>438.79998779296875</AltitudeMeters>
            <DistanceMeters>296574.75405358</DistanceMeters>
          </Trackpoint>
          <Trackpoint>
            <Time>2021-07-31T12:16:55.000Z</Time>
            <Position>
              <LatitudeDegrees>42.401094026863574981689453125</LatitudeDegrees>
              <LongitudeDegrees>-2.32528100721538066864013671875</LongitudeDegrees>
            </Position>
            <AltitudeMeters>439</AltitudeMeters>
            <DistanceMeters>296576.60158407</DistanceMeters>
          </Trackpoint>
          <Trackpoint>
            <Time>2021-07-31T12:17:08.000Z</Time>
            <Position>
              <LatitudeDegrees>42.40147951059043407440185546875</LatitudeDegrees>
              <LongitudeDegrees>-2.3251152969896793365478515625</LongitudeDegrees>
            </Position>
            <AltitudeMeters>439.600006103515625</AltitudeMeters>
            <DistanceMeters>296621.61657217</DistanceMeters>
          </Trackpoint>
          <Trackpoint>
            <Time>2021-07-31T12:17:14.000Z</Time>
            <Position>
              <LatitudeDegrees>42.40172023884952068328857421875</LatitudeDegrees>
              <LongitudeDegrees>-2.32502468861639499664306640625</LongitudeDegrees>
            </Position>
            <AltitudeMeters>438.399993896484375</AltitudeMeters>
            <DistanceMeters>296649.42581177</DistanceMeters>
          </Trackpoint>
          <Trackpoint>
            <Time>2021-07-31T12:17:19.000Z</Time>
            <Position>
              <LatitudeDegrees>42.40191285498440265655517578125</LatitudeDegrees>
              <LongitudeDegrees>-2.32496358454227447509765625</LongitudeDegrees>
            </Position>
            <AltitudeMeters>437.20001220703125</AltitudeMeters>
            <DistanceMeters>296671.44454934</DistanceMeters>
          </Trackpoint>
          <Trackpoint>
            <Time>2021-07-31T12:17:23.000Z</Time>
            <Position>
              <LatitudeDegrees>42.4021073989570140838623046875</LatitudeDegrees>
              <LongitudeDegrees>-2.3249174840748310089111328125</LongitudeDegrees>
            </Position>
            <AltitudeMeters>436</AltitudeMeters>
            <DistanceMeters>296693.42675693</DistanceMeters>
          </Trackpoint>
          <Trackpoint>
            <Time>2021-07-31T12:17:28.000Z</Time>
            <Position>
              <LatitudeDegrees>42.40234770812094211578369140625</LatitudeDegrees>
              <LongitudeDegrees>-2.32484632171690464019775390625</LongitudeDegrees>
            </Position>
            <AltitudeMeters>435</AltitudeMeters>
            <DistanceMeters>296720.80550189</DistanceMeters>
          </Trackpoint>
          <Trackpoint>
            <Time>2021-07-31T12:17:31.000Z</Time>
            <Position>
              <LatitudeDegrees>42.40250847302377223968505859375</LatitudeDegrees>
              <LongitudeDegrees>-2.3248435556888580322265625</LongitudeDegrees>
            </Position>
            <AltitudeMeters>434</AltitudeMeters>
            <DistanceMeters>296738.70032156</DistanceMeters>
          </Trackpoint>
          <Trackpoint>
            <Time>2021-07-31T12:17:32.000Z</Time>
            <Position>
              <LatitudeDegrees>42.4025687389075756072998046875</LatitudeDegrees>
              <LongitudeDegrees>-2.324845902621746063232421875</LongitudeDegrees>
            </Position>
            <AltitudeMeters>433.600006103515625</AltitudeMeters>
            <DistanceMeters>296745.41031121</DistanceMeters>
          </Trackpoint>
          <Trackpoint>
            <Time>2021-07-31T12:17:33.000Z</Time>
            <Position>
              <LatitudeDegrees>42.4026225507259368896484375</LatitudeDegrees>
              <LongitudeDegrees>-2.32483861036598682403564453125</LongitudeDegrees>
            </Position>
            <AltitudeMeters>433.20001220703125</AltitudeMeters>
            <DistanceMeters>296751.42933661</DistanceMeters>
          </Trackpoint>
          <Trackpoint>
            <Time>2021-07-31T12:17:40.000Z</Time>
            <Position>
              <LatitudeDegrees>42.402744926512241363525390625</LatitudeDegrees>
              <LongitudeDegrees>-2.3247649334371089935302734375</LongitudeDegrees>
            </Position>
            <AltitudeMeters>433.600006103515625</AltitudeMeters>
            <DistanceMeters>296766.33551187</DistanceMeters>
          </Trackpoint>
          <Trackpoint>
            <Time>2021-07-31T12:54:51.000Z</Time>
            <Position>
              <LatitudeDegrees>42.4028731696307659149169921875</LatitudeDegrees>
              <LongitudeDegrees>-2.32464012689888477325439453125</LongitudeDegrees>
            </Position>
            <AltitudeMeters>431</AltitudeMeters>
            <DistanceMeters>296783.91262868</DistanceMeters>
          </Trackpoint>
          <Trackpoint>
            <Time>2021-07-31T12:54:56.000Z</Time>
            <Position>
              <LatitudeDegrees>42.4029672145843505859375</LatitudeDegrees>
              <LongitudeDegrees>-2.32472998090088367462158203125</LongitudeDegrees>
            </Position>
            <AltitudeMeters>430.79998779296875</AltitudeMeters>
            <DistanceMeters>296796.72256815</DistanceMeters>
          </Trackpoint>
          <Trackpoint>
            <Time>2021-07-31T12:55:00.000Z</Time>
            <Position>
              <LatitudeDegrees>42.4030049331486225128173828125</LatitudeDegrees>
              <LongitudeDegrees>-2.32482855208218097686767578125</LongitudeDegrees>
            </Position>
            <AltitudeMeters>431</AltitudeMeters>
            <DistanceMeters>296805.84612254</DistanceMeters>
          </Trackpoint>
          <Trackpoint>
            <Time>2021-07-31T12:55:07.000Z</Time>
            <Position>
              <LatitudeDegrees>42.40293209441006183624267578125</LatitudeDegrees>
              <LongitudeDegrees>-2.3249617405235767364501953125</LongitudeDegrees>
            </Position>
            <AltitudeMeters>431.20001220703125</AltitudeMeters>
            <DistanceMeters>296819.46779684</DistanceMeters>
          </Trackpoint>
          <Trackpoint>
            <Time>2021-07-31T12:55:12.000Z</Time>
            <Position>
              <LatitudeDegrees>42.40283821709454059600830078125</LatitudeDegrees>
              <LongitudeDegrees>-2.3249245248734951019287109375</LongitudeDegrees>
            </Position>
            <AltitudeMeters>432.20001220703125</AltitudeMeters>
            <DistanceMeters>296830.35488935</DistanceMeters>
          </Trackpoint>
          <Trackpoint>
            <Time>2021-07-31T12:55:22.000Z</Time>
            <Position>
              <LatitudeDegrees>42.402645684778690338134765625</LatitudeDegrees>
              <LongitudeDegrees>-2.32486727647483348846435546875</LongitudeDegrees>
            </Position>
            <AltitudeMeters>433.20001220703125</AltitudeMeters>
            <DistanceMeters>296852.29474475</DistanceMeters>
          </Trackpoint>
          <Trackpoint>
            <Time>2021-07-31T12:55:31.000Z</Time>
            <Position>
              <LatitudeDegrees>42.4024701677262783050537109375</LatitudeDegrees>
              <LongitudeDegrees>-2.32489309273660182952880859375</LongitudeDegrees>
            </Position>
            <AltitudeMeters>434.399993896484375</AltitudeMeters>
            <DistanceMeters>296871.94483556</DistanceMeters>
          </Trackpoint>
          <Trackpoint>
            <Time>2021-07-31T12:55:43.000Z</Time>
            <Position>
              <LatitudeDegrees>42.402241341769695281982421875</LatitudeDegrees>
              <LongitudeDegrees>-2.32492594979703426361083984375</LongitudeDegrees>
            </Position>
            <AltitudeMeters>435.399993896484375</AltitudeMeters>
            <DistanceMeters>296897.55660654</DistanceMeters>
          </Trackpoint>
          <Trackpoint>
            <Time>2021-07-31T12:55:49.000Z</Time>
            <Position>
              <LatitudeDegrees>42.4021134339272975921630859375</LatitudeDegrees>
              <LongitudeDegrees>-2.32496626675128936767578125</LongitudeDegrees>
            </Position>
            <AltitudeMeters>436.600006103515625</AltitudeMeters>
            <DistanceMeters>296912.17343276</DistanceMeters>
          </Trackpoint>
          <Trackpoint>
            <Time>2021-07-31T12:56:12.000Z</Time>
            <Position>
              <LatitudeDegrees>42.40158897824585437774658203125</LatitudeDegrees>
              <LongitudeDegrees>-2.32521847821772098541259765625</LongitudeDegrees>
            </Position>
            <AltitudeMeters>437.79998779296875</AltitudeMeters>
            <DistanceMeters>296974.11773196</DistanceMeters>
          </Trackpoint>
          <Trackpoint>
            <Time>2021-07-31T12:56:13.000Z</Time>
            <Position>
              <LatitudeDegrees>42.40156332962214946746826171875</LatitudeDegrees>
              <LongitudeDegrees>-2.3252271115779876708984375</LongitudeDegrees>
            </Position>
            <AltitudeMeters>437.79998779296875</AltitudeMeters>
            <DistanceMeters>296977.05895844</DistanceMeters>
          </Trackpoint>
          <Trackpoint>
            <Time>2021-07-31T12:56:32.000Z</Time>
            <Position>
              <LatitudeDegrees>42.40101984702050685882568359375</LatitudeDegrees>
              <LongitudeDegrees>-2.3253372497856616973876953125</LongitudeDegrees>
            </Position>
            <AltitudeMeters>437.600006103515625</AltitudeMeters>
            <DistanceMeters>297038.22317461</DistanceMeters>
          </Trackpoint>
          <Trackpoint>
            <Time>2021-07-31T12:56:47.000Z</Time>
            <Position>
              <LatitudeDegrees>42.4005292542278766632080078125</LatitudeDegrees>
              <LongitudeDegrees>-2.3251075856387615203857421875</LongitudeDegrees>
            </Position>
            <AltitudeMeters>438.79998779296875</AltitudeMeters>
            <DistanceMeters>297095.99769769</DistanceMeters>
          </Trackpoint>
          <Trackpoint>
            <Time>2021-07-31T12:57:03.000Z</Time>
            <Position>
              <LatitudeDegrees>42.39999859593808650970458984375</LatitudeDegrees>
              <LongitudeDegrees>-2.3248571343719959259033203125</LongitudeDegrees>
            </Position>
            <AltitudeMeters>439.600006103515625</AltitudeMeters>
            <DistanceMeters>297158.54534656</DistanceMeters>
          </Trackpoint>
          <Trackpoint>
            <Time>2021-07-31T12:57:10.000Z</Time>
            <Position>
              <LatitudeDegrees>42.39976935088634490966796875</LatitudeDegrees>
              <LongitudeDegrees>-2.324763424694538116455078125</LongitudeDegrees>
            </Position>
            <AltitudeMeters>440</AltitudeMeters>
            <DistanceMeters>297185.19792605</DistanceMeters>
          </Trackpoint>
          <Trackpoint>
            <Time>2021-07-31T12:57:27.000Z</Time>
            <Position>
              <LatitudeDegrees>42.3992297239601612091064453125</LatitudeDegrees>
              <LongitudeDegrees>-2.324540130794048309326171875</LongitudeDegrees>
            </Position>
            <AltitudeMeters>440</AltitudeMeters>
            <DistanceMeters>297248.00102335</DistanceMeters>
          </Trackpoint>
          <Trackpoint>
            <Time>2021-07-31T12:57:42.000Z</Time>
            <Position>
              <LatitudeDegrees>42.39873829297721385955810546875</LatitudeDegrees>
              <LongitudeDegrees>-2.3245470039546489715576171875</LongitudeDegrees>
            </Position>
            <AltitudeMeters>441.399993896484375</AltitudeMeters>
            <DistanceMeters>297302.70109437</DistanceMeters>
          </Trackpoint>
          <Trackpoint>
            <Time>2021-07-31T12:57:45.000Z</Time>
            <Position>
              <LatitudeDegrees>42.3986429907381534576416015625</LatitudeDegrees>
              <LongitudeDegrees>-2.3245419748127460479736328125</LongitudeDegrees>
            </Position>
            <AltitudeMeters>442.20001220703125</AltitudeMeters>
            <DistanceMeters>297313.31647584</DistanceMeters>
          </Trackpoint>
          <Trackpoint>
            <Time>2021-07-31T12:57:47.000Z</Time>
            <Position>
              <LatitudeDegrees>42.39858088083565235137939453125</LatitudeDegrees>
              <LongitudeDegrees>-2.3245362751185894012451171875</LongitudeDegrees>
            </Position>
            <AltitudeMeters>442.600006103515625</AltitudeMeters>
            <DistanceMeters>297320.24495954</DistanceMeters>
          </Trackpoint>
          <Trackpoint>
            <Time>2021-07-31T12:57:58.000Z</Time>
            <Position>
              <LatitudeDegrees>42.39824644289910793304443359375</LatitudeDegrees>
              <LongitudeDegrees>-2.3244769312441349029541015625</LongitudeDegrees>
            </Position>
            <AltitudeMeters>444</AltitudeMeters>
            <DistanceMeters>297357.78664586</DistanceMeters>
          </Trackpoint>
          <Trackpoint>
            <Time>2021-07-31T12:58:11.000Z</Time>
            <Position>
              <LatitudeDegrees>42.39785182289779186248779296875</LatitudeDegrees>
              <LongitudeDegrees>-2.324365116655826568603515625</LongitudeDegrees>
            </Position>
            <AltitudeMeters>445</AltitudeMeters>
            <DistanceMeters>297402.65998701</DistanceMeters>
          </Trackpoint>
          <Trackpoint>
            <Time>2021-07-31T12:58:20.000Z</Time>
            <Position>
              <LatitudeDegrees>42.39758343435823917388916015625</LatitudeDegrees>
              <LongitudeDegrees>-2.3242838121950626373291015625</LongitudeDegrees>
            </Position>
            <AltitudeMeters>446</AltitudeMeters>
            <DistanceMeters>297433.27068632</DistanceMeters>
          </Trackpoint>
          <Trackpoint>
            <Time>2021-07-31T12:58:26.000Z</Time>
            <Position>
              <LatitudeDegrees>42.397426776587963104248046875</LatitudeDegrees>
              <LongitudeDegrees>-2.32423125766217708587646484375</LongitudeDegrees>
            </Position>
            <AltitudeMeters>447.399993896484375</AltitudeMeters>
            <DistanceMeters>297451.23400315</DistanceMeters>
          </Trackpoint>
          <Trackpoint>
            <Time>2021-07-31T12:58:30.000Z</Time>
            <Position>
              <LatitudeDegrees>42.3973293788731098175048828125</LatitudeDegrees>
              <LongitudeDegrees>-2.32420963235199451446533203125</LongitudeDegrees>
            </Position>
            <AltitudeMeters>448.399993896484375</AltitudeMeters>
            <DistanceMeters>297462.21935438</DistanceMeters>
          </Trackpoint>
          <Trackpoint>
            <Time>2021-07-31T12:58:37.000Z</Time>
            <Position>
              <LatitudeDegrees>42.39716987125575542449951171875</LatitudeDegrees>
              <LongitudeDegrees>-2.32421751134097576141357421875</LongitudeDegrees>
            </Position>
            <AltitudeMeters>449.600006103515625</AltitudeMeters>
            <DistanceMeters>297479.98452175</DistanceMeters>
          </Trackpoint>
          <Trackpoint>
            <Time>2021-07-31T12:58:44.000Z</Time>
            <Position>
              <LatitudeDegrees>42.3970252834260463714599609375</LatitudeDegrees>
              <LongitudeDegrees>-2.32421348802745342254638671875</LongitudeDegrees>
            </Position>
            <AltitudeMeters>450.600006103515625</AltitudeMeters>
            <DistanceMeters>297496.08054372</DistanceMeters>
          </Trackpoint>
          <Trackpoint>
            <Time>2021-07-31T12:58:51.000Z</Time>
            <Position>
              <LatitudeDegrees>42.39688069559633731842041015625</LatitudeDegrees>
              <LongitudeDegrees>-2.32418884523212909698486328125</LongitudeDegrees>
            </Position>
            <AltitudeMeters>452</AltitudeMeters>
            <DistanceMeters>297512.30007568</DistanceMeters>
          </Trackpoint>
          <Trackpoint>
            <Time>2021-07-31T12:58:58.000Z</Time>
            <Position>
              <LatitudeDegrees>42.39673200063407421112060546875</LatitudeDegrees>
              <LongitudeDegrees>-2.324137128889560699462890625</LongitudeDegrees>
            </Position>
            <AltitudeMeters>453.20001220703125</AltitudeMeters>
            <DistanceMeters>297529.38718959</DistanceMeters>
          </Trackpoint>
          <Trackpoint>
            <Time>2021-07-31T12:59:04.000Z</Time>
            <Position>
              <LatitudeDegrees>42.39660643972456455230712890625</LatitudeDegrees>
              <LongitudeDegrees>-2.32408541254699230194091796875</LongitudeDegrees>
            </Position>
            <AltitudeMeters>454.20001220703125</AltitudeMeters>
            <DistanceMeters>297543.99474607</DistanceMeters>
          </Trackpoint>
          <Trackpoint>
            <Time>2021-07-31T12:59:09.000Z</Time>
            <Position>
              <LatitudeDegrees>42.3965012468397617340087890625</LatitudeDegrees>
              <LongitudeDegrees>-2.324049957096576690673828125</LongitudeDegrees>
            </Position>
            <AltitudeMeters>455.20001220703125</AltitudeMeters>
            <DistanceMeters>297556.06051966</DistanceMeters>
          </Trackpoint>
          <Trackpoint>
            <Time>2021-07-31T12:59:16.000Z</Time>
            <Position>
              <LatitudeDegrees>42.39635917358100414276123046875</LatitudeDegrees>
              <LongitudeDegrees>-2.3240243084728717803955078125</LongitudeDegrees>
            </Position>
            <AltitudeMeters>456.399993896484375</AltitudeMeters>
            <DistanceMeters>297572.01369096</DistanceMeters>
          </Trackpoint>
          <Trackpoint>
            <Time>2021-07-31T12:59:23.000Z</Time>
            <Position>
              <LatitudeDegrees>42.39620410837233066558837890625</LatitudeDegrees>
              <LongitudeDegrees>-2.32402036897838115692138671875</LongitudeDegrees>
            </Position>
            <AltitudeMeters>457.399993896484375</AltitudeMeters>
            <DistanceMeters>297589.27562778</DistanceMeters>
          </Trackpoint>
          <Trackpoint>
            <Time>2021-07-31T12:59:32.000Z</Time>
            <Position>
              <LatitudeDegrees>42.396003194153308868408203125</LatitudeDegrees>
              <LongitudeDegrees>-2.32400360517203807830810546875</LongitudeDegrees>
            </Position>
            <AltitudeMeters>458.600006103515625</AltitudeMeters>
            <DistanceMeters>297611.68017842</DistanceMeters>
          </Trackpoint>
          <Trackpoint>
            <Time>2021-07-31T12:59:52.000Z</Time>
            <Position>
              <LatitudeDegrees>42.39548075012862682342529296875</LatitudeDegrees>
              <LongitudeDegrees>-2.32388257049024105072021484375</LongitudeDegrees>
            </Position>
            <AltitudeMeters>459.600006103515625</AltitudeMeters>
            <DistanceMeters>297670.67409134</DistanceMeters>
          </Trackpoint>
          <Trackpoint>
            <Time>2021-07-31T13:00:05.000Z</Time>
            <Position>
              <LatitudeDegrees>42.39517514593899250030517578125</LatitudeDegrees>
              <LongitudeDegrees>-2.3238580115139484405517578125</LongitudeDegrees>
            </Position>
            <AltitudeMeters>460.600006103515625</AltitudeMeters>
            <DistanceMeters>297704.74829139</DistanceMeters>
          </Trackpoint>
          <Trackpoint>
            <Time>2021-07-31T13:00:13.000Z</Time>
            <Position>
              <LatitudeDegrees>42.39496794529259204864501953125</LatitudeDegrees>
              <LongitudeDegrees>-2.3238429240882396697998046875</LongitudeDegrees>
            </Position>
            <AltitudeMeters>461.79998779296875</AltitudeMeters>
            <DistanceMeters>297727.84349772</DistanceMeters>
          </Trackpoint>
          <Trackpoint>
            <Time>2021-07-31T13:00:20.000Z</Time>
            <Position>
              <LatitudeDegrees>42.39478035829961299896240234375</LatitudeDegrees>
              <LongitudeDegrees>-2.3238298483192920684814453125</LongitudeDegrees>
            </Position>
            <AltitudeMeters>462.79998779296875</AltitudeMeters>
            <DistanceMeters>297748.74980681</DistanceMeters>
          </Trackpoint>
          <Trackpoint>
            <Time>2021-07-31T13:00:31.000Z</Time>
            <Position>
              <LatitudeDegrees>42.39447978325188159942626953125</LatitudeDegrees>
              <LongitudeDegrees>-2.32387267984449863433837890625</LongitudeDegrees>
            </Position>
            <AltitudeMeters>463.79998779296875</AltitudeMeters>
            <DistanceMeters>297782.3892637</DistanceMeters>
          </Trackpoint>
          <Trackpoint>
            <Time>2021-07-31T13:00:39.000Z</Time>
            <Position>
              <LatitudeDegrees>42.394274175167083740234375</LatitudeDegrees>
              <LongitudeDegrees>-2.323919869959354400634765625</LongitudeDegrees>
            </Position>
            <AltitudeMeters>465</AltitudeMeters>
            <DistanceMeters>297805.60030463</DistanceMeters>
          </Trackpoint>
          <Trackpoint>
            <Time>2021-07-31T13:00:47.000Z</Time>
            <Position>
              <LatitudeDegrees>42.39407594315707683563232421875</LatitudeDegrees>
              <LongitudeDegrees>-2.32398315332829952239990234375</LongitudeDegrees>
            </Position>
            <AltitudeMeters>466</AltitudeMeters>
            <DistanceMeters>297828.2691061</DistanceMeters>
          </Trackpoint>
          <Trackpoint>
            <Time>2021-07-31T13:00:54.000Z</Time>
            <Position>
              <LatitudeDegrees>42.39390671253204345703125</LatitudeDegrees>
              <LongitudeDegrees>-2.32406177558004856109619140625</LongitudeDegrees>
            </Position>
            <AltitudeMeters>467.20001220703125</AltitudeMeters>
            <DistanceMeters>297848.18258839</DistanceMeters>
          </Trackpoint>
          <Trackpoint>
            <Time>2021-07-31T13:01:02.000Z</Time>
            <Position>
              <LatitudeDegrees>42.393715940415859222412109375</LatitudeDegrees>
              <LongitudeDegrees>-2.32415816746652126312255859375</LongitudeDegrees>
            </Position>
            <AltitudeMeters>468.20001220703125</AltitudeMeters>
            <DistanceMeters>297870.84621074</DistanceMeters>
          </Trackpoint>
          <Trackpoint>
            <Time>2021-07-31T13:01:10.000Z</Time>
            <Position>
              <LatitudeDegrees>42.39352382719516754150390625</LatitudeDegrees>
              <LongitudeDegrees>-2.3242600075900554656982421875</LongitudeDegrees>
            </Position>
            <AltitudeMeters>469.399993896484375</AltitudeMeters>
            <DistanceMeters>297893.80888097</DistanceMeters>
          </Trackpoint>
          <Trackpoint>
            <Time>2021-07-31T13:01:18.000Z</Time>
            <Position>
              <LatitudeDegrees>42.393330372869968414306640625</LatitudeDegrees>
              <LongitudeDegrees>-2.32436436228454113006591796875</LongitudeDegrees>
            </Position>
            <AltitudeMeters>470.600006103515625</AltitudeMeters>
            <DistanceMeters>297916.9864401</DistanceMeters>
          </Trackpoint>
          <Trackpoint>
            <Time>2021-07-31T13:01:23.000Z</Time>
            <Position>
              <LatitudeDegrees>42.39320003427565097808837890625</LatitudeDegrees>
              <LongitudeDegrees>-2.324389927089214324951171875</LongitudeDegrees>
            </Position>
            <AltitudeMeters>471.600006103515625</AltitudeMeters>
            <DistanceMeters>297931.64459957</DistanceMeters>
          </Trackpoint>
          <Trackpoint>
            <Time>2021-07-31T13:01:43.000Z</Time>
            <Position>
              <LatitudeDegrees>42.3926438950002193450927734375</LatitudeDegrees>
              <LongitudeDegrees>-2.324512638151645660400390625</LongitudeDegrees>
            </Position>
            <AltitudeMeters>472.79998779296875</AltitudeMeters>
            <DistanceMeters>297994.36050327</DistanceMeters>
          </Trackpoint>
          <Trackpoint>
            <Time>2021-07-31T13:01:52.000Z</Time>
            <Position>
              <LatitudeDegrees>42.39239788614213466644287109375</LatitudeDegrees>
              <LongitudeDegrees>-2.32455857098102569580078125</LongitudeDegrees>
            </Position>
            <AltitudeMeters>473.79998779296875</AltitudeMeters>
            <DistanceMeters>298022.00070203</DistanceMeters>
          </Trackpoint>
          <Trackpoint>
            <Time>2021-07-31T13:02:10.000Z</Time>
            <Position>
              <LatitudeDegrees>42.391859851777553558349609375</LatitudeDegrees>
              <LongitudeDegrees>-2.32470081187784671783447265625</LongitudeDegrees>
            </Position>
            <AltitudeMeters>474.399993896484375</AltitudeMeters>
            <DistanceMeters>298083.01584503</DistanceMeters>
          </Trackpoint>
          <Trackpoint>
            <Time>2021-07-31T13:02:22.000Z</Time>
            <Position>
              <LatitudeDegrees>42.39151678048074245452880859375</LatitudeDegrees>
              <LongitudeDegrees>-2.324794270098209381103515625</LongitudeDegrees>
            </Position>
            <AltitudeMeters>475</AltitudeMeters>
            <DistanceMeters>298121.96567126</DistanceMeters>
          </Trackpoint>
          <Trackpoint>
            <Time>2021-07-31T13:02:43.000Z</Time>
            <Position>
              <LatitudeDegrees>42.39099190570414066314697265625</LatitudeDegrees>
              <LongitudeDegrees>-2.32497020624577999114990234375</LongitudeDegrees>
            </Position>
            <AltitudeMeters>475.79998779296875</AltitudeMeters>
            <DistanceMeters>298182.14887358</DistanceMeters>
          </Trackpoint>
          <Trackpoint>
            <Time>2021-07-31T13:03:04.000Z</Time>
            <Position>
              <LatitudeDegrees>42.39044372923672199249267578125</LatitudeDegrees>
              <LongitudeDegrees>-2.32516148127615451812744140625</LongitudeDegrees>
            </Position>
            <AltitudeMeters>476</AltitudeMeters>
            <DistanceMeters>298245.15552662</DistanceMeters>
          </Trackpoint>
          <Trackpoint>
            <Time>2021-07-31T13:03:13.000Z</Time>
            <Position>
              <LatitudeDegrees>42.39018045365810394287109375</LatitudeDegrees>
              <LongitudeDegrees>-2.325256951153278350830078125</LongitudeDegrees>
            </Position>
            <AltitudeMeters>476.20001220703125</AltitudeMeters>
            <DistanceMeters>298275.49138198</DistanceMeters>
          </Trackpoint>
          <Trackpoint>
            <Time>2021-07-31T13:03:21.000Z</Time>
            <Position>
              <LatitudeDegrees>42.3899516277015209197998046875</LatitudeDegrees>
              <LongitudeDegrees>-2.32534638606011867523193359375</LongitudeDegrees>
            </Position>
            <AltitudeMeters>477</AltitudeMeters>
            <DistanceMeters>298302.00025877</DistanceMeters>
          </Trackpoint>
          <Trackpoint>
            <Time>2021-07-31T13:03:22.000Z</Time>
            <Position>
              <LatitudeDegrees>42.389921955764293670654296875</LatitudeDegrees>
              <LongitudeDegrees>-2.3253553546965122222900390625</LongitudeDegrees>
            </Position>
            <AltitudeMeters>477.399993896484375</AltitudeMeters>
            <DistanceMeters>298305.38406387</DistanceMeters>
          </Trackpoint>
          <Trackpoint>
            <Time>2021-07-31T13:03:34.000Z</Time>
            <Position>
              <LatitudeDegrees>42.3895657248795032501220703125</LatitudeDegrees>
              <LongitudeDegrees>-2.3254780657589435577392578125</LongitudeDegrees>
            </Position>
            <AltitudeMeters>478.20001220703125</AltitudeMeters>
            <DistanceMeters>298346.29634772</DistanceMeters>
          </Trackpoint>
          <Trackpoint>
            <Time>2021-07-31T13:03:53.000Z</Time>
            <Position>
              <LatitudeDegrees>42.3890209011733531951904296875</LatitudeDegrees>
              <LongitudeDegrees>-2.325678728520870208740234375</LongitudeDegrees>
            </Position>
            <AltitudeMeters>477.79998779296875</AltitudeMeters>
            <DistanceMeters>298409.13983531</DistanceMeters>
          </Trackpoint>
          <Trackpoint>
            <Time>2021-07-31T13:03:56.000Z</Time>
            <Position>
              <LatitudeDegrees>42.3889350704848766326904296875</LatitudeDegrees>
              <LongitudeDegrees>-2.32570680789649486541748046875</LongitudeDegrees>
            </Position>
            <AltitudeMeters>478</AltitudeMeters>
            <DistanceMeters>298418.96763759</DistanceMeters>
          </Trackpoint>
          <Trackpoint>
            <Time>2021-07-31T13:04:15.000Z</Time>
            <Position>
              <LatitudeDegrees>42.388403154909610748291015625</LatitudeDegrees>
              <LongitudeDegrees>-2.32588291168212890625</LongitudeDegrees>
            </Position>
            <AltitudeMeters>478.79998779296875</AltitudeMeters>
            <DistanceMeters>298479.91518238</DistanceMeters>
          </Trackpoint>
          <Trackpoint>
            <Time>2021-07-31T13:04:27.000Z</Time>
            <Position>
              <LatitudeDegrees>42.3880439065396785736083984375</LatitudeDegrees>
              <LongitudeDegrees>-2.32601978816092014312744140625</LongitudeDegrees>
            </Position>
            <AltitudeMeters>479.399993896484375</AltitudeMeters>
            <DistanceMeters>298521.45327124</DistanceMeters>
          </Trackpoint>
          <Trackpoint>
            <Time>2021-07-31T13:04:43.000Z</Time>
            <Position>
              <LatitudeDegrees>42.38751341588795185089111328125</LatitudeDegrees>
              <LongitudeDegrees>-2.32623704709112644195556640625</LongitudeDegrees>
            </Position>
            <AltitudeMeters>479.399993896484375</AltitudeMeters>
            <DistanceMeters>298583.14002958</DistanceMeters>
          </Trackpoint>
          <Trackpoint>
            <Time>2021-07-31T13:04:59.000Z</Time>
            <Position>
              <LatitudeDegrees>42.3869830928742885589599609375</LatitudeDegrees>
              <LongitudeDegrees>-2.32646453194320201873779296875</LongitudeDegrees>
            </Position>
            <AltitudeMeters>479.600006103515625</AltitudeMeters>
            <DistanceMeters>298645.05771869</DistanceMeters>
          </Trackpoint>
          <Trackpoint>
            <Time>2021-07-31T13:05:15.000Z</Time>
            <Position>
              <LatitudeDegrees>42.3864573799073696136474609375</LatitudeDegrees>
              <LongitudeDegrees>-2.3266567289829254150390625</LongitudeDegrees>
            </Position>
            <AltitudeMeters>480.20001220703125</AltitudeMeters>
            <DistanceMeters>298705.66636499</DistanceMeters>
          </Trackpoint>
          <Trackpoint>
            <Time>2021-07-31T13:05:29.000Z</Time>
            <Position>
              <LatitudeDegrees>42.3859943635761737823486328125</LatitudeDegrees>
              <LongitudeDegrees>-2.3267926834523677825927734375</LongitudeDegrees>
            </Position>
            <AltitudeMeters>480.600006103515625</AltitudeMeters>
            <DistanceMeters>298758.39917101</DistanceMeters>
          </Trackpoint>
          <Trackpoint>
            <Time>2021-07-31T13:05:45.000Z</Time>
            <Position>
              <LatitudeDegrees>42.385446019470691680908203125</LatitudeDegrees>
              <LongitudeDegrees>-2.32696115970611572265625</LongitudeDegrees>
            </Position>
            <AltitudeMeters>481</AltitudeMeters>
            <DistanceMeters>298820.98290226</DistanceMeters>
          </Trackpoint>
          <Trackpoint>
            <Time>2021-07-31T13:05:57.000Z</Time>
            <Position>
              <LatitudeDegrees>42.38503404892981052398681640625</LatitudeDegrees>
              <LongitudeDegrees>-2.32713005505502223968505859375</LongitudeDegrees>
            </Position>
            <AltitudeMeters>481.600006103515625</AltitudeMeters>
            <DistanceMeters>298868.89220147</DistanceMeters>
          </Trackpoint>
          <Trackpoint>
            <Time>2021-07-31T13:06:13.000Z</Time>
            <Position>
              <LatitudeDegrees>42.38450129516422748565673828125</LatitudeDegrees>
              <LongitudeDegrees>-2.32732082717120647430419921875</LongitudeDegrees>
            </Position>
            <AltitudeMeters>482.600006103515625</AltitudeMeters>
            <DistanceMeters>298930.22787867</DistanceMeters>
          </Trackpoint>
          <Trackpoint>
            <Time>2021-07-31T13:06:14.000Z</Time>
            <Position>
              <LatitudeDegrees>42.38446860574185848236083984375</LatitudeDegrees>
              <LongitudeDegrees>-2.32733189128339290618896484375</LongitudeDegrees>
            </Position>
            <AltitudeMeters>482.79998779296875</AltitudeMeters>
            <DistanceMeters>298933.97872646</DistanceMeters>
          </Trackpoint>
          <Trackpoint>
            <Time>2021-07-31T13:06:31.000Z</Time>
            <Position>
              <LatitudeDegrees>42.38392227329313755035400390625</LatitudeDegrees>
              <LongitudeDegrees>-2.3275185562670230865478515625</LongitudeDegrees>
            </Position>
            <AltitudeMeters>483.20001220703125</AltitudeMeters>
            <DistanceMeters>298996.6931903</DistanceMeters>
          </Trackpoint>
          <Trackpoint>
            <Time>2021-07-31T13:06:38.000Z</Time>
            <Position>
              <LatitudeDegrees>42.38370233215391635894775390625</LatitudeDegrees>
              <LongitudeDegrees>-2.32755853794515132904052734375</LongitudeDegrees>
            </Position>
            <AltitudeMeters>484</AltitudeMeters>
            <DistanceMeters>299021.39264241</DistanceMeters>
          </Trackpoint>
          <Trackpoint>
            <Time>2021-07-31T13:06:55.000Z</Time>
            <Position>
              <LatitudeDegrees>42.38312968052923679351806640625</LatitudeDegrees>
              <LongitudeDegrees>-2.32753389514982700347900390625</LongitudeDegrees>
            </Position>
            <AltitudeMeters>484.399993896484375</AltitudeMeters>
            <DistanceMeters>299085.16208192</DistanceMeters>
          </Trackpoint>
          <Trackpoint>
            <Time>2021-07-31T13:07:07.000Z</Time>
            <Position>
              <LatitudeDegrees>42.38273506052792072296142578125</LatitudeDegrees>
              <LongitudeDegrees>-2.327505983412265777587890625</LongitudeDegrees>
            </Position>
            <AltitudeMeters>485</AltitudeMeters>
            <DistanceMeters>299129.14395223</DistanceMeters>
          </Trackpoint>
          <Trackpoint>
            <Time>2021-07-31T13:07:17.000Z</Time>
            <Position>
              <LatitudeDegrees>42.38239039666950702667236328125</LatitudeDegrees>
              <LongitudeDegrees>-2.32747404836118221282958984375</LongitudeDegrees>
            </Position>
            <AltitudeMeters>486</AltitudeMeters>
            <DistanceMeters>299167.59538232</DistanceMeters>
          </Trackpoint>
          <Trackpoint>
            <Time>2021-07-31T13:07:33.000Z</Time>
            <Position>
              <LatitudeDegrees>42.3818419687449932098388671875</LatitudeDegrees>
              <LongitudeDegrees>-2.32744404114782810211181640625</LongitudeDegrees>
            </Position>
            <AltitudeMeters>486.600006103515625</AltitudeMeters>
            <DistanceMeters>299228.68640076</DistanceMeters>
          </Trackpoint>
          <Trackpoint>
            <Time>2021-07-31T13:07:40.000Z</Time>
            <Position>
              <LatitudeDegrees>42.381604425609111785888671875</LatitudeDegrees>
              <LongitudeDegrees>-2.32744437642395496368408203125</LongitudeDegrees>
            </Position>
            <AltitudeMeters>487.20001220703125</AltitudeMeters>
            <DistanceMeters>299255.12552419</DistanceMeters>
          </Trackpoint>
          <Trackpoint>
            <Time>2021-07-31T13:07:52.000Z</Time>
            <Position>
              <LatitudeDegrees>42.3811970651149749755859375</LatitudeDegrees>
              <LongitudeDegrees>-2.32746516354382038116455078125</LongitudeDegrees>
            </Position>
            <AltitudeMeters>488.20001220703125</AltitudeMeters>
            <DistanceMeters>299300.49777019</DistanceMeters>
          </Trackpoint>
          <Trackpoint>
            <Time>2021-07-31T13:08:02.000Z</Time>
            <Position>
              <LatitudeDegrees>42.3808456957340240478515625</LatitudeDegrees>
              <LongitudeDegrees>-2.32747547328472137451171875</LongitudeDegrees>
            </Position>
            <AltitudeMeters>489.399993896484375</AltitudeMeters>
            <DistanceMeters>299339.6150875</DistanceMeters>
          </Trackpoint>
          <Trackpoint>
            <Time>2021-07-31T13:08:19.000Z</Time>
            <Position>
              <LatitudeDegrees>42.38027681596577167510986328125</LatitudeDegrees>
              <LongitudeDegrees>-2.327486537396907806396484375</LongitudeDegrees>
            </Position>
            <AltitudeMeters>490.20001220703125</AltitudeMeters>
            <DistanceMeters>299402.93903902</DistanceMeters>
          </Trackpoint>
          <Trackpoint>
            <Time>2021-07-31T13:08:24.000Z</Time>
            <Position>
              <LatitudeDegrees>42.3801085911691188812255859375</LatitudeDegrees>
              <LongitudeDegrees>-2.32749433256685733795166015625</LongitudeDegrees>
            </Position>
            <AltitudeMeters>490.399993896484375</AltitudeMeters>
            <DistanceMeters>299421.67352624</DistanceMeters>
          </Trackpoint>
          <Trackpoint>
            <Time>2021-07-31T13:08:40.000Z</Time>
            <Position>
              <LatitudeDegrees>42.37956301309168338775634765625</LatitudeDegrees>
              <LongitudeDegrees>-2.32762877829372882843017578125</LongitudeDegrees>
            </Position>
            <AltitudeMeters>491</AltitudeMeters>
            <DistanceMeters>299483.39540721</DistanceMeters>
          </Trackpoint>
          <Trackpoint>
            <Time>2021-07-31T13:08:46.000Z</Time>
            <Position>
              <LatitudeDegrees>42.37936872057616710662841796875</LatitudeDegrees>
              <LongitudeDegrees>-2.32770069502294063568115234375</LongitudeDegrees>
            </Position>
            <AltitudeMeters>491.399993896484375</AltitudeMeters>
            <DistanceMeters>299505.81446282</DistanceMeters>
          </Trackpoint>
          <Trackpoint>
            <Time>2021-07-31T13:09:01.000Z</Time>
            <Position>
              <LatitudeDegrees>42.3788796365261077880859375</LatitudeDegrees>
              <LongitudeDegrees>-2.32786498032510280609130859375</LongitudeDegrees>
            </Position>
            <AltitudeMeters>492.399993896484375</AltitudeMeters>
            <DistanceMeters>299561.90123899</DistanceMeters>
          </Trackpoint>
          <Trackpoint>
            <Time>2021-07-31T13:09:18.000Z</Time>
            <Position>
              <LatitudeDegrees>42.3783269338309764862060546875</LatitudeDegrees>
              <LongitudeDegrees>-2.32797176577150821685791015625</LongitudeDegrees>
            </Position>
            <AltitudeMeters>493.20001220703125</AltitudeMeters>
            <DistanceMeters>299624.04159004</DistanceMeters>
          </Trackpoint>
          <Trackpoint>
            <Time>2021-07-31T13:09:21.000Z</Time>
            <Position>
              <LatitudeDegrees>42.37825325690209865570068359375</LatitudeDegrees>
              <LongitudeDegrees>-2.327972687780857086181640625</LongitudeDegrees>
            </Position>
            <AltitudeMeters>493.600006103515625</AltitudeMeters>
            <DistanceMeters>299632.24256616</DistanceMeters>
          </Trackpoint>
          <Trackpoint>
            <Time>2021-07-31T13:09:38.000Z</Time>
            <Position>
              <LatitudeDegrees>42.37777389585971832275390625</LatitudeDegrees>
              <LongitudeDegrees>-2.3280085623264312744140625</LongitudeDegrees>
            </Position>
            <AltitudeMeters>492.79998779296875</AltitudeMeters>
            <DistanceMeters>299685.67792208</DistanceMeters>
          </Trackpoint>
          <Trackpoint>
            <Time>2021-07-31T13:09:40.000Z</Time>
            <Position>
              <LatitudeDegrees>42.37769418396055698394775390625</LatitudeDegrees>
              <LongitudeDegrees>-2.328010909259319305419921875</LongitudeDegrees>
            </Position>
            <AltitudeMeters>492</AltitudeMeters>
            <DistanceMeters>299694.55262358</DistanceMeters>
          </Trackpoint>
          <Trackpoint>
            <Time>2021-07-31T13:09:41.000Z</Time>
            <Position>
              <LatitudeDegrees>42.3776506818830966949462890625</LatitudeDegrees>
              <LongitudeDegrees>-2.32801116071641445159912109375</LongitudeDegrees>
            </Position>
            <AltitudeMeters>491.399993896484375</AltitudeMeters>
            <DistanceMeters>299699.3943256</DistanceMeters>
          </Trackpoint>
          <Trackpoint>
            <Time>2021-07-31T13:09:54.000Z</Time>
            <Position>
              <LatitudeDegrees>42.377105019986629486083984375</LatitudeDegrees>
              <LongitudeDegrees>-2.32794846408069133758544921875</LongitudeDegrees>
            </Position>
            <AltitudeMeters>491.20001220703125</AltitudeMeters>
            <DistanceMeters>299760.34594469</DistanceMeters>
          </Trackpoint>
          <Trackpoint>
            <Time>2021-07-31T13:10:02.000Z</Time>
            <Position>
              <LatitudeDegrees>42.37682296894490718841552734375</LatitudeDegrees>
              <LongitudeDegrees>-2.32779608108103275299072265625</LongitudeDegrees>
            </Position>
            <AltitudeMeters>492.600006103515625</AltitudeMeters>
            <DistanceMeters>299794.14661438</DistanceMeters>
          </Trackpoint>
          <Trackpoint>
            <Time>2021-07-31T13:10:12.000Z</Time>
            <Position>
              <LatitudeDegrees>42.37652239389717578887939453125</LatitudeDegrees>
              <LongitudeDegrees>-2.32769675552845001220703125</LongitudeDegrees>
            </Position>
            <AltitudeMeters>493.600006103515625</AltitudeMeters>
            <DistanceMeters>299828.58354048</DistanceMeters>
          </Trackpoint>
          <Trackpoint>
            <Time>2021-07-31T13:10:29.000Z</Time>
            <Position>
              <LatitudeDegrees>42.37598544918000698089599609375</LatitudeDegrees>
              <LongitudeDegrees>-2.3277710191905498504638671875</LongitudeDegrees>
            </Position>
            <AltitudeMeters>494.79998779296875</AltitudeMeters>
            <DistanceMeters>299888.65771273</DistanceMeters>
          </Trackpoint>
          <Trackpoint>
            <Time>2021-07-31T13:10:44.000Z</Time>
            <Position>
              <LatitudeDegrees>42.3754231072962284088134765625</LatitudeDegrees>
              <LongitudeDegrees>-2.3277737013995647430419921875</LongitudeDegrees>
            </Position>
            <AltitudeMeters>495</AltitudeMeters>
            <DistanceMeters>299951.24786446</DistanceMeters>
          </Trackpoint>
          <Trackpoint>
            <Time>2021-07-31T13:10:58.000Z</Time>
            <Position>
              <LatitudeDegrees>42.3748752661049365997314453125</LatitudeDegrees>
              <LongitudeDegrees>-2.3278551734983921051025390625</LongitudeDegrees>
            </Position>
            <AltitudeMeters>495.600006103515625</AltitudeMeters>
            <DistanceMeters>300012.590608</DistanceMeters>
          </Trackpoint>
          <Trackpoint>
            <Time>2021-07-31T13:11:01.000Z</Time>
            <Position>
              <LatitudeDegrees>42.3747642897069454193115234375</LatitudeDegrees>
              <LongitudeDegrees>-2.32785274274647235870361328125</LongitudeDegrees>
            </Position>
            <AltitudeMeters>496</AltitudeMeters>
            <DistanceMeters>300024.94408087</DistanceMeters>
          </Trackpoint>
          <Trackpoint>
            <Time>2021-07-31T13:11:07.000Z</Time>
            <Position>
              <LatitudeDegrees>42.3745728470385074615478515625</LatitudeDegrees>
              <LongitudeDegrees>-2.32783799059689044952392578125</LongitudeDegrees>
            </Position>
            <AltitudeMeters>497</AltitudeMeters>
            <DistanceMeters>300046.28662397</DistanceMeters>
          </Trackpoint>
          <Trackpoint>
            <Time>2021-07-31T13:11:24.000Z</Time>
            <Position>
              <LatitudeDegrees>42.37402550876140594482421875</LatitudeDegrees>
              <LongitudeDegrees>-2.3277961649000644683837890625</LongitudeDegrees>
            </Position>
            <AltitudeMeters>498</AltitudeMeters>
            <DistanceMeters>300107.30354292</DistanceMeters>
          </Trackpoint>
          <Trackpoint>
            <Time>2021-07-31T13:11:26.000Z</Time>
            <Position>
              <LatitudeDegrees>42.3739656619727611541748046875</LatitudeDegrees>
              <LongitudeDegrees>-2.32778568752110004425048828125</LongitudeDegrees>
            </Position>
            <AltitudeMeters>498.20001220703125</AltitudeMeters>
            <DistanceMeters>300114.02025803</DistanceMeters>
          </Trackpoint>
          <Trackpoint>
            <Time>2021-07-31T13:11:36.000Z</Time>
            <Position>
              <LatitudeDegrees>42.37365963868796825408935546875</LatitudeDegrees>
              <LongitudeDegrees>-2.3277334682643413543701171875</LongitudeDegrees>
            </Position>
            <AltitudeMeters>499.20001220703125</AltitudeMeters>
            <DistanceMeters>300148.35082047</DistanceMeters>
          </Trackpoint>
          <Trackpoint>
            <Time>2021-07-31T13:11:46.000Z</Time>
            <Position>
              <LatitudeDegrees>42.3734620772302150726318359375</LatitudeDegrees>
              <LongitudeDegrees>-2.32769809663295745849609375</LongitudeDegrees>
            </Position>
            <AltitudeMeters>500.20001220703125</AltitudeMeters>
            <DistanceMeters>300170.53157012</DistanceMeters>
          </Trackpoint>
          <Trackpoint>
            <Time>2021-07-31T13:12:04.000Z</Time>
            <Position>
              <LatitudeDegrees>42.3729278147220611572265625</LatitudeDegrees>
              <LongitudeDegrees>-2.32757697813212871551513671875</LongitudeDegrees>
            </Position>
            <AltitudeMeters>501.20001220703125</AltitudeMeters>
            <DistanceMeters>300230.82435421</DistanceMeters>
          </Trackpoint>
          <Trackpoint>
            <Time>2021-07-31T13:12:06.000Z</Time>
            <Position>
              <LatitudeDegrees>42.37287308089435100555419921875</LatitudeDegrees>
              <LongitudeDegrees>-2.3275597952306270599365234375</LongitudeDegrees>
            </Position>
            <AltitudeMeters>501.20001220703125</AltitudeMeters>
            <DistanceMeters>300237.07809398</DistanceMeters>
          </Trackpoint>
          <Trackpoint>
            <Time>2021-07-31T13:12:17.000Z</Time>
            <Position>
              <LatitudeDegrees>42.37257585860788822174072265625</LatitudeDegrees>
              <LongitudeDegrees>-2.327461056411266326904296875</LongitudeDegrees>
            </Position>
            <AltitudeMeters>502.20001220703125</AltitudeMeters>
            <DistanceMeters>300271.14129425</DistanceMeters>
          </Trackpoint>
          <Trackpoint>
            <Time>2021-07-31T13:12:28.000Z</Time>
            <Position>
              <LatitudeDegrees>42.37226723693311214447021484375</LatitudeDegrees>
              <LongitudeDegrees>-2.32736818492412567138671875</LongitudeDegrees>
            </Position>
            <AltitudeMeters>503.399993896484375</AltitudeMeters>
            <DistanceMeters>300306.33018827</DistanceMeters>
          </Trackpoint>
          <Trackpoint>
            <Time>2021-07-31T13:12:45.000Z</Time>
            <Position>
              <LatitudeDegrees>42.37173699773848056793212890625</LatitudeDegrees>
              <LongitudeDegrees>-2.32726491987705230712890625</LongitudeDegrees>
            </Position>
            <AltitudeMeters>504.399993896484375</AltitudeMeters>
            <DistanceMeters>300365.95458642</DistanceMeters>
          </Trackpoint>
          <Trackpoint>
            <Time>2021-07-31T13:13:04.000Z</Time>
            <Position>
              <LatitudeDegrees>42.3711922578513622283935546875</LatitudeDegrees>
              <LongitudeDegrees>-2.32725243084132671356201171875</LongitudeDegrees>
            </Position>
            <AltitudeMeters>504.79998779296875</AltitudeMeters>
            <DistanceMeters>300426.59399134</DistanceMeters>
          </Trackpoint>
          <Trackpoint>
            <Time>2021-07-31T13:13:11.000Z</Time>
            <Position>
              <LatitudeDegrees>42.37101213075220584869384765625</LatitudeDegrees>
              <LongitudeDegrees>-2.32716173864901065826416015625</LongitudeDegrees>
            </Position>
            <AltitudeMeters>505.600006103515625</AltitudeMeters>
            <DistanceMeters>300447.98450264</DistanceMeters>
          </Trackpoint>
          <Trackpoint>
            <Time>2021-07-31T13:13:26.000Z</Time>
            <Position>
              <LatitudeDegrees>42.3706658743321895599365234375</LatitudeDegrees>
              <LongitudeDegrees>-2.326672486960887908935546875</LongitudeDegrees>
            </Position>
            <AltitudeMeters>506.79998779296875</AltitudeMeters>
            <DistanceMeters>300503.69617812</DistanceMeters>
          </Trackpoint>
          <Trackpoint>
            <Time>2021-07-31T13:13:36.000Z</Time>
            <Position>
              <LatitudeDegrees>42.370443753898143768310546875</LatitudeDegrees>
              <LongitudeDegrees>-2.3262988217175006866455078125</LongitudeDegrees>
            </Position>
            <AltitudeMeters>507.79998779296875</AltitudeMeters>
            <DistanceMeters>300543.13375292</DistanceMeters>
          </Trackpoint>
          <Trackpoint>
            <Time>2021-07-31T13:13:47.000Z</Time>
            <Position>
              <LatitudeDegrees>42.37023345194756984710693359375</LatitudeDegrees>
              <LongitudeDegrees>-2.32592021115124225616455078125</LongitudeDegrees>
            </Position>
            <AltitudeMeters>509</AltitudeMeters>
            <DistanceMeters>300582.08462241</DistanceMeters>
          </Trackpoint>
          <Trackpoint>
            <Time>2021-07-31T13:13:53.000Z</Time>
            <Position>
              <LatitudeDegrees>42.3701096512377262115478515625</LatitudeDegrees>
              <LongitudeDegrees>-2.32572306878864765167236328125</LongitudeDegrees>
            </Position>
            <AltitudeMeters>510</AltitudeMeters>
            <DistanceMeters>300603.36042256</DistanceMeters>
          </Trackpoint>
          <Trackpoint>
            <Time>2021-07-31T13:14:09.000Z</Time>
            <Position>
              <LatitudeDegrees>42.36973992548882961273193359375</LatitudeDegrees>
              <LongitudeDegrees>-2.325266338884830474853515625</LongitudeDegrees>
            </Position>
            <AltitudeMeters>511.20001220703125</AltitudeMeters>
            <DistanceMeters>300659.07363783</DistanceMeters>
          </Trackpoint>
          <Trackpoint>
            <Time>2021-07-31T13:14:26.000Z</Time>
            <Position>
              <LatitudeDegrees>42.36933742649853229522705078125</LatitudeDegrees>
              <LongitudeDegrees>-2.3247625865042209625244140625</LongitudeDegrees>
            </Position>
            <AltitudeMeters>512.20001220703125</AltitudeMeters>
            <DistanceMeters>300720.08937282</DistanceMeters>
          </Trackpoint>
          <Trackpoint>
            <Time>2021-07-31T13:14:27.000Z</Time>
            <Position>
              <LatitudeDegrees>42.3693140409886837005615234375</LatitudeDegrees>
              <LongitudeDegrees>-2.3247330822050571441650390625</LongitudeDegrees>
            </Position>
            <AltitudeMeters>512.20001220703125</AltitudeMeters>
            <DistanceMeters>300723.64748569</DistanceMeters>
          </Trackpoint>
          <Trackpoint>
            <Time>2021-07-31T13:14:39.000Z</Time>
            <Position>
              <LatitudeDegrees>42.36902863718569278717041015625</LatitudeDegrees>
              <LongitudeDegrees>-2.32440434396266937255859375</LongitudeDegrees>
            </Position>
            <AltitudeMeters>513.20001220703125</AltitudeMeters>
            <DistanceMeters>300765.35890965</DistanceMeters>
          </Trackpoint>
          <Trackpoint>
            <Time>2021-07-31T13:14:49.000Z</Time>
            <Position>
              <LatitudeDegrees>42.368807606399059295654296875</LatitudeDegrees>
              <LongitudeDegrees>-2.3241470195353031158447265625</LongitudeDegrees>
            </Position>
            <AltitudeMeters>514.4000244140625</AltitudeMeters>
            <DistanceMeters>300797.80854992</DistanceMeters>
          </Trackpoint>
          <Trackpoint>
            <Time>2021-07-31T13:15:02.000Z</Time>
            <Position>
              <LatitudeDegrees>42.368521280586719512939453125</LatitudeDegrees>
              <LongitudeDegrees>-2.323815263807773590087890625</LongitudeDegrees>
            </Position>
            <AltitudeMeters>515.4000244140625</AltitudeMeters>
            <DistanceMeters>300839.75937349</DistanceMeters>
          </Trackpoint>
          <Trackpoint>
            <Time>2021-07-31T13:15:19.000Z</Time>
            <Position>
              <LatitudeDegrees>42.3681271634995937347412109375</LatitudeDegrees>
              <LongitudeDegrees>-2.32336121611297130584716796875</LongitudeDegrees>
            </Position>
            <AltitudeMeters>516.4000244140625</AltitudeMeters>
            <DistanceMeters>300897.3643765</DistanceMeters>
          </Trackpoint>
          <Trackpoint>
            <Time>2021-07-31T13:15:28.000Z</Time>
            <Position>
              <LatitudeDegrees>42.3679249919950962066650390625</LatitudeDegrees>
              <LongitudeDegrees>-2.32310657389461994171142578125</LongitudeDegrees>
            </Position>
            <AltitudeMeters>517.4000244140625</AltitudeMeters>
            <DistanceMeters>300928.10254428</DistanceMeters>
          </Trackpoint>
          <Trackpoint>
            <Time>2021-07-31T13:15:41.000Z</Time>
            <Position>
              <LatitudeDegrees>42.36763380467891693115234375</LatitudeDegrees>
              <LongitudeDegrees>-2.3227085173130035400390625</LongitudeDegrees>
            </Position>
            <AltitudeMeters>518.79998779296875</AltitudeMeters>
            <DistanceMeters>300974.1664929</DistanceMeters>
          </Trackpoint>
          <Trackpoint>
            <Time>2021-07-31T13:15:59.000Z</Time>
            <Position>
              <LatitudeDegrees>42.36723482608795166015625</LatitudeDegrees>
              <LongitudeDegrees>-2.32218272052705287933349609375</LongitudeDegrees>
            </Position>
            <AltitudeMeters>519.79998779296875</AltitudeMeters>
            <DistanceMeters>301036.1468615</DistanceMeters>
          </Trackpoint>
          <Trackpoint>
            <Time>2021-07-31T13:16:17.000Z</Time>
            <Position>
              <LatitudeDegrees>42.36686669290065765380859375</LatitudeDegrees>
              <LongitudeDegrees>-2.3216347955167293548583984375</LongitudeDegrees>
            </Position>
            <AltitudeMeters>520.5999755859375</AltitudeMeters>
            <DistanceMeters>301097.04949682</DistanceMeters>
          </Trackpoint>
          <Trackpoint>
            <Time>2021-07-31T13:16:20.000Z</Time>
            <Position>
              <LatitudeDegrees>42.36679829657077789306640625</LatitudeDegrees>
              <LongitudeDegrees>-2.3215417563915252685546875</LongitudeDegrees>
            </Position>
            <AltitudeMeters>520.79998779296875</AltitudeMeters>
            <DistanceMeters>301107.84203851</DistanceMeters>
          </Trackpoint>
          <Trackpoint>
            <Time>2021-07-31T13:16:35.000Z</Time>
            <Position>
              <LatitudeDegrees>42.36645237542688846588134765625</LatitudeDegrees>
              <LongitudeDegrees>-2.32107429765164852142333984375</LongitudeDegrees>
            </Position>
            <AltitudeMeters>522</AltitudeMeters>
            <DistanceMeters>301162.24912719</DistanceMeters>
          </Trackpoint>
          <Trackpoint>
            <Time>2021-07-31T13:16:45.000Z</Time>
            <Position>
              <LatitudeDegrees>42.3662318475544452667236328125</LatitudeDegrees>
              <LongitudeDegrees>-2.3207546956837177276611328125</LongitudeDegrees>
            </Position>
            <AltitudeMeters>523.20001220703125</AltitudeMeters>
            <DistanceMeters>301198.21093232</DistanceMeters>
          </Trackpoint>
          <Trackpoint>
            <Time>2021-07-31T13:16:59.000Z</Time>
            <Position>
              <LatitudeDegrees>42.36594795249402523040771484375</LatitudeDegrees>
              <LongitudeDegrees>-2.32032344676554203033447265625</LongitudeDegrees>
            </Position>
            <AltitudeMeters>524.20001220703125</AltitudeMeters>
            <DistanceMeters>301245.70984325</DistanceMeters>
          </Trackpoint>
          <Trackpoint>
            <Time>2021-07-31T13:17:07.000Z</Time>
            <Position>
              <LatitudeDegrees>42.3657869361340999603271484375</LatitudeDegrees>
              <LongitudeDegrees>-2.320066876709461212158203125</LongitudeDegrees>
            </Position>
            <AltitudeMeters>525.20001220703125</AltitudeMeters>
            <DistanceMeters>301273.39296983</DistanceMeters>
          </Trackpoint>
          <Trackpoint>
            <Time>2021-07-31T13:17:24.000Z</Time>
            <Position>
              <LatitudeDegrees>42.36544738523662090301513671875</LatitudeDegrees>
              <LongitudeDegrees>-2.31948156841099262237548828125</LongitudeDegrees>
            </Position>
            <AltitudeMeters>526</AltitudeMeters>
            <DistanceMeters>301334.59061656</DistanceMeters>
          </Trackpoint>
          <Trackpoint>
            <Time>2021-07-31T13:17:26.000Z</Time>
            <Position>
              <LatitudeDegrees>42.3654060624539852142333984375</LatitudeDegrees>
              <LongitudeDegrees>-2.31940981931984424591064453125</LongitudeDegrees>
            </Position>
            <AltitudeMeters>526.20001220703125</AltitudeMeters>
            <DistanceMeters>301342.07121705</DistanceMeters>
          </Trackpoint>
          <Trackpoint>
            <Time>2021-07-31T13:17:36.000Z</Time>
            <Position>
              <LatitudeDegrees>42.3652017116546630859375</LatitudeDegrees>
              <LongitudeDegrees>-2.31906683184206485748291015625</LongitudeDegrees>
            </Position>
            <AltitudeMeters>527.4000244140625</AltitudeMeters>
            <DistanceMeters>301378.3054403</DistanceMeters>
          </Trackpoint>
          <Trackpoint>
            <Time>2021-07-31T13:17:47.000Z</Time>
            <Position>
              <LatitudeDegrees>42.36497573554515838623046875</LatitudeDegrees>
              <LongitudeDegrees>-2.31868880800902843475341796875</LongitudeDegrees>
            </Position>
            <AltitudeMeters>528.4000244140625</AltitudeMeters>
            <DistanceMeters>301418.29351273</DistanceMeters>
          </Trackpoint>
          <Trackpoint>
            <Time>2021-07-31T13:17:59.000Z</Time>
            <Position>
              <LatitudeDegrees>42.36473090015351772308349609375</LatitudeDegrees>
              <LongitudeDegrees>-2.31826250441372394561767578125</LongitudeDegrees>
            </Position>
            <AltitudeMeters>529.5999755859375</AltitudeMeters>
            <DistanceMeters>301462.69712825</DistanceMeters>
          </Trackpoint>
          <Trackpoint>
            <Time>2021-07-31T13:18:11.000Z</Time>
            <Position>
              <LatitudeDegrees>42.3644994758069515228271484375</LatitudeDegrees>
              <LongitudeDegrees>-2.3178461752831935882568359375</LongitudeDegrees>
            </Position>
            <AltitudeMeters>530.5999755859375</AltitudeMeters>
            <DistanceMeters>301505.54248086</DistanceMeters>
          </Trackpoint>
          <Trackpoint>
            <Time>2021-07-31T13:18:26.000Z</Time>
            <Position>
              <LatitudeDegrees>42.36419177614152431488037109375</LatitudeDegrees>
              <LongitudeDegrees>-2.3173342086374759674072265625</LongitudeDegrees>
            </Position>
            <AltitudeMeters>531.79998779296875</AltitudeMeters>
            <DistanceMeters>301559.81579728</DistanceMeters>
          </Trackpoint>
          <Trackpoint>
            <Time>2021-07-31T13:18:38.000Z</Time>
            <Position>
              <LatitudeDegrees>42.3639506287872791290283203125</LatitudeDegrees>
              <LongitudeDegrees>-2.31693162582814693450927734375</LongitudeDegrees>
            </Position>
            <AltitudeMeters>533</AltitudeMeters>
            <DistanceMeters>301602.43673531</DistanceMeters>
          </Trackpoint>
          <Trackpoint>
            <Time>2021-07-31T13:18:54.000Z</Time>
            <Position>
              <LatitudeDegrees>42.36360152252018451690673828125</LatitudeDegrees>
              <LongitudeDegrees>-2.31640105135738849639892578125</LongitudeDegrees>
            </Position>
            <AltitudeMeters>534</AltitudeMeters>
            <DistanceMeters>301660.86379298</DistanceMeters>
          </Trackpoint>
          <Trackpoint>
            <Time>2021-07-31T13:19:10.000Z</Time>
            <Position>
              <LatitudeDegrees>42.3632059805095195770263671875</LatitudeDegrees>
              <LongitudeDegrees>-2.3159270547330379486083984375</LongitudeDegrees>
            </Position>
            <AltitudeMeters>535</AltitudeMeters>
            <DistanceMeters>301719.66590614</DistanceMeters>
          </Trackpoint>
          <Trackpoint>
            <Time>2021-07-31T13:19:21.000Z</Time>
            <Position>
              <LatitudeDegrees>42.36293113790452480316162109375</LatitudeDegrees>
              <LongitudeDegrees>-2.31561415828764438629150390625</LongitudeDegrees>
            </Position>
            <AltitudeMeters>536.20001220703125</AltitudeMeters>
            <DistanceMeters>301759.64020122</DistanceMeters>
          </Trackpoint>
          <Trackpoint>
            <Time>2021-07-31T13:19:32.000Z</Time>
            <Position>
              <LatitudeDegrees>42.3626549541950225830078125</LatitudeDegrees>
              <LongitudeDegrees>-2.31533152051270008087158203125</LongitudeDegrees>
            </Position>
            <AltitudeMeters>537.20001220703125</AltitudeMeters>
            <DistanceMeters>301798.17889415</DistanceMeters>
          </Trackpoint>
          <Trackpoint>
            <Time>2021-07-31T13:19:46.000Z</Time>
            <Position>
              <LatitudeDegrees>42.362303920090198516845703125</LatitudeDegrees>
              <LongitudeDegrees>-2.3149676620960235595703125</LongitudeDegrees>
            </Position>
            <AltitudeMeters>538.4000244140625</AltitudeMeters>
            <DistanceMeters>301847.39245797</DistanceMeters>
          </Trackpoint>
          <Trackpoint>
            <Time>2021-07-31T13:20:01.000Z</Time>
            <Position>
              <LatitudeDegrees>42.361929081380367279052734375</LatitudeDegrees>
              <LongitudeDegrees>-2.31461293995380401611328125</LongitudeDegrees>
            </Position>
            <AltitudeMeters>539.5999755859375</AltitudeMeters>
            <DistanceMeters>301898.30053139</DistanceMeters>
          </Trackpoint>
          <Trackpoint>
            <Time>2021-07-31T13:20:15.000Z</Time>
            <Position>
              <LatitudeDegrees>42.3615648038685321807861328125</LatitudeDegrees>
              <LongitudeDegrees>-2.31431496329605579376220703125</LongitudeDegrees>
            </Position>
            <AltitudeMeters>540.5999755859375</AltitudeMeters>
            <DistanceMeters>301945.67589946</DistanceMeters>
          </Trackpoint>
          <Trackpoint>
            <Time>2021-07-31T13:20:28.000Z</Time>
            <Position>
              <LatitudeDegrees>42.3612147755920886993408203125</LatitudeDegrees>
              <LongitudeDegrees>-2.31405235826969146728515625</LongitudeDegrees>
            </Position>
            <AltitudeMeters>541.5999755859375</AltitudeMeters>
            <DistanceMeters>301990.22062842</DistanceMeters>
          </Trackpoint>
          <Trackpoint>
            <Time>2021-07-31T13:20:39.000Z</Time>
            <Position>
              <LatitudeDegrees>42.36097798682749271392822265625</LatitudeDegrees>
              <LongitudeDegrees>-2.3137946985661983489990234375</LongitudeDegrees>
            </Position>
            <AltitudeMeters>542.5999755859375</AltitudeMeters>
            <DistanceMeters>302024.03812479</DistanceMeters>
          </Trackpoint>
          <Trackpoint>
            <Time>2021-07-31T13:20:46.000Z</Time>
            <Position>
              <LatitudeDegrees>42.36083708703517913818359375</LatitudeDegrees>
              <LongitudeDegrees>-2.31361842714250087738037109375</LongitudeDegrees>
            </Position>
            <AltitudeMeters>543.5999755859375</AltitudeMeters>
            <DistanceMeters>302045.39441429</DistanceMeters>
          </Trackpoint>
          <Trackpoint>
            <Time>2021-07-31T13:20:58.000Z</Time>
            <Position>
              <LatitudeDegrees>42.36056811176240444183349609375</LatitudeDegrees>
              <LongitudeDegrees>-2.31328650377690792083740234375</LongitudeDegrees>
            </Position>
            <AltitudeMeters>544.79998779296875</AltitudeMeters>
            <DistanceMeters>302085.90924091</DistanceMeters>
          </Trackpoint>
          <Trackpoint>
            <Time>2021-07-31T13:21:09.000Z</Time>
            <Position>
              <LatitudeDegrees>42.36029393970966339111328125</LatitudeDegrees>
              <LongitudeDegrees>-2.312969081103801727294921875</LongitudeDegrees>
            </Position>
            <AltitudeMeters>545.79998779296875</AltitudeMeters>
            <DistanceMeters>302126.06811953</DistanceMeters>
          </Trackpoint>
          <Trackpoint>
            <Time>2021-07-31T13:21:17.000Z</Time>
            <Position>
              <LatitudeDegrees>42.36009411513805389404296875</LatitudeDegrees>
              <LongitudeDegrees>-2.3127402551472187042236328125</LongitudeDegrees>
            </Position>
            <AltitudeMeters>547</AltitudeMeters>
            <DistanceMeters>302155.20275847</DistanceMeters>
          </Trackpoint>
          <Trackpoint>
            <Time>2021-07-31T13:21:26.000Z</Time>
            <Position>
              <LatitudeDegrees>42.3598708212375640869140625</LatitudeDegrees>
              <LongitudeDegrees>-2.31248452328145503997802734375</LongitudeDegrees>
            </Position>
            <AltitudeMeters>548</AltitudeMeters>
            <DistanceMeters>302187.76102429</DistanceMeters>
          </Trackpoint>
          <Trackpoint>
            <Time>2021-07-31T13:21:35.000Z</Time>
            <Position>
              <LatitudeDegrees>42.359657585620880126953125</LatitudeDegrees>
              <LongitudeDegrees>-2.31221227906644344329833984375</LongitudeDegrees>
            </Position>
            <AltitudeMeters>549.20001220703125</AltitudeMeters>
            <DistanceMeters>302220.3896613</DistanceMeters>
          </Trackpoint>
          <Trackpoint>
            <Time>2021-07-31T13:21:45.000Z</Time>
            <Position>
              <LatitudeDegrees>42.35940068028867244720458984375</LatitudeDegrees>
              <LongitudeDegrees>-2.31192528270184993743896484375</LongitudeDegrees>
            </Position>
            <AltitudeMeters>550.20001220703125</AltitudeMeters>
            <DistanceMeters>302257.46761914</DistanceMeters>
          </Trackpoint>
          <Trackpoint>
            <Time>2021-07-31T13:21:56.000Z</Time>
            <Position>
              <LatitudeDegrees>42.3591089062392711639404296875</LatitudeDegrees>
              <LongitudeDegrees>-2.3116314969956874847412109375</LongitudeDegrees>
            </Position>
            <AltitudeMeters>551.20001220703125</AltitudeMeters>
            <DistanceMeters>302297.94543023</DistanceMeters>
          </Trackpoint>
          <Trackpoint>
            <Time>2021-07-31T13:22:01.000Z</Time>
            <Position>
              <LatitudeDegrees>42.35898636281490325927734375</LatitudeDegrees>
              <LongitudeDegrees>-2.311491183936595916748046875</LongitudeDegrees>
            </Position>
            <AltitudeMeters>552.20001220703125</AltitudeMeters>
            <DistanceMeters>302315.81196885</DistanceMeters>
          </Trackpoint>
          <Trackpoint>
            <Time>2021-07-31T13:22:13.000Z</Time>
            <Position>
              <LatitudeDegrees>42.35868394374847412109375</LatitudeDegrees>
              <LongitudeDegrees>-2.311165295541286468505859375</LongitudeDegrees>
            </Position>
            <AltitudeMeters>553.5999755859375</AltitudeMeters>
            <DistanceMeters>302358.83966217</DistanceMeters>
          </Trackpoint>
          <Trackpoint>
            <Time>2021-07-31T13:22:23.000Z</Time>
            <Position>
              <LatitudeDegrees>42.358445227146148681640625</LatitudeDegrees>
              <LongitudeDegrees>-2.3109190352261066436767578125</LongitudeDegrees>
            </Position>
            <AltitudeMeters>554.5999755859375</AltitudeMeters>
            <DistanceMeters>302392.24854675</DistanceMeters>
          </Trackpoint>
          <Trackpoint>
            <Time>2021-07-31T13:22:36.000Z</Time>
            <Position>
              <LatitudeDegrees>42.3580963723361492156982421875</LatitudeDegrees>
              <LongitudeDegrees>-2.3106387443840503692626953125</LongitudeDegrees>
            </Position>
            <AltitudeMeters>555.79998779296875</AltitudeMeters>
            <DistanceMeters>302437.40453751</DistanceMeters>
          </Trackpoint>
          <Trackpoint>
            <Time>2021-07-31T13:23:00.000Z</Time>
            <Position>
              <LatitudeDegrees>42.35748776234686374664306640625</LatitudeDegrees>
              <LongitudeDegrees>-2.31007539667189121246337890625</LongitudeDegrees>
            </Position>
            <AltitudeMeters>557.79998779296875</AltitudeMeters>
            <DistanceMeters>302519.47434164</DistanceMeters>
          </Trackpoint>
          <Trackpoint>
            <Time>2021-07-31T13:23:09.000Z</Time>
            <Position>
              <LatitudeDegrees>42.35725943930447101593017578125</LatitudeDegrees>
              <LongitudeDegrees>-2.30983181856572628021240234375</LongitudeDegrees>
            </Position>
            <AltitudeMeters>558.79998779296875</AltitudeMeters>
            <DistanceMeters>302551.83425179</DistanceMeters>
          </Trackpoint>
          <Trackpoint>
            <Time>2021-07-31T13:23:20.000Z</Time>
            <Position>
              <LatitudeDegrees>42.35699289478361606597900390625</LatitudeDegrees>
              <LongitudeDegrees>-2.3095189221203327178955078125</LongitudeDegrees>
            </Position>
            <AltitudeMeters>560</AltitudeMeters>
            <DistanceMeters>302591.10800075</DistanceMeters>
          </Trackpoint>
          <Trackpoint>
            <Time>2021-07-31T13:23:32.000Z</Time>
            <Position>
              <LatitudeDegrees>42.35673221759498119354248046875</LatitudeDegrees>
              <LongitudeDegrees>-2.309147603809833526611328125</LongitudeDegrees>
            </Position>
            <AltitudeMeters>561.20001220703125</AltitudeMeters>
            <DistanceMeters>302633.23281911</DistanceMeters>
          </Trackpoint>
          <Trackpoint>
            <Time>2021-07-31T13:23:43.000Z</Time>
            <Position>
              <LatitudeDegrees>42.3564810119569301605224609375</LatitudeDegrees>
              <LongitudeDegrees>-2.3087873496115207672119140625</LongitudeDegrees>
            </Position>
            <AltitudeMeters>562.20001220703125</AltitudeMeters>
            <DistanceMeters>302673.97213587</DistanceMeters>
          </Trackpoint>
          <Trackpoint>
            <Time>2021-07-31T13:23:55.000Z</Time>
            <Position>
              <LatitudeDegrees>42.35621991567313671112060546875</LatitudeDegrees>
              <LongitudeDegrees>-2.30844913981854915618896484375</LongitudeDegrees>
            </Position>
            <AltitudeMeters>563.20001220703125</AltitudeMeters>
            <DistanceMeters>302714.20043586</DistanceMeters>
          </Trackpoint>
          <Trackpoint>
            <Time>2021-07-31T13:24:01.000Z</Time>
            <Position>
              <LatitudeDegrees>42.35609251074492931365966796875</LatitudeDegrees>
              <LongitudeDegrees>-2.30833212845027446746826171875</LongitudeDegrees>
            </Position>
            <AltitudeMeters>564.20001220703125</AltitudeMeters>
            <DistanceMeters>302731.33820807</DistanceMeters>
          </Trackpoint>
          <Trackpoint>
            <Time>2021-07-31T13:24:06.000Z</Time>
            <Position>
              <LatitudeDegrees>42.355991341173648834228515625</LatitudeDegrees>
              <LongitudeDegrees>-2.3082653246819972991943359375</LongitudeDegrees>
            </Position>
            <AltitudeMeters>565.5999755859375</AltitudeMeters>
            <DistanceMeters>302743.8673281</DistanceMeters>
          </Trackpoint>
          <Trackpoint>
            <Time>2021-07-31T13:24:10.000Z</Time>
            <Position>
              <LatitudeDegrees>42.35590584576129913330078125</LatitudeDegrees>
              <LongitudeDegrees>-2.30822517536580562591552734375</LongitudeDegrees>
            </Position>
            <AltitudeMeters>566.79998779296875</AltitudeMeters>
            <DistanceMeters>302753.93926331</DistanceMeters>
          </Trackpoint>
          <Trackpoint>
            <Time>2021-07-31T13:24:20.000Z</Time>
            <Position>
              <LatitudeDegrees>42.355629242956638336181640625</LatitudeDegrees>
              <LongitudeDegrees>-2.30813263915479183197021484375</LongitudeDegrees>
            </Position>
            <AltitudeMeters>567.79998779296875</AltitudeMeters>
            <DistanceMeters>302785.65256957</DistanceMeters>
          </Trackpoint>
          <Trackpoint>
            <Time>2021-07-31T13:24:37.000Z</Time>
            <Position>
              <LatitudeDegrees>42.355294637382030487060546875</LatitudeDegrees>
              <LongitudeDegrees>-2.30766291730105876922607421875</LongitudeDegrees>
            </Position>
            <AltitudeMeters>567.4000244140625</AltitudeMeters>
            <DistanceMeters>302839.31465243</DistanceMeters>
          </Trackpoint>
          <Trackpoint>
            <Time>2021-07-31T13:24:40.000Z</Time>
            <Position>
              <LatitudeDegrees>42.3552193678915500640869140625</LatitudeDegrees>
              <LongitudeDegrees>-2.30749712325632572174072265625</LongitudeDegrees>
            </Position>
            <AltitudeMeters>566.79998779296875</AltitudeMeters>
            <DistanceMeters>302855.31925016</DistanceMeters>
          </Trackpoint>
          <Trackpoint>
            <Time>2021-07-31T13:24:41.000Z</Time>
            <Position>
              <LatitudeDegrees>42.3551809787750244140625</LatitudeDegrees>
              <LongitudeDegrees>-2.3074552975594997406005859375</LongitudeDegrees>
            </Position>
            <AltitudeMeters>566.5999755859375</AltitudeMeters>
            <DistanceMeters>302860.80616868</DistanceMeters>
          </Trackpoint>
          <Trackpoint>
            <Time>2021-07-31T13:24:53.000Z</Time>
            <Position>
              <LatitudeDegrees>42.35478476621210575103759765625</LatitudeDegrees>
              <LongitudeDegrees>-2.30703980661928653717041015625</LongitudeDegrees>
            </Position>
            <AltitudeMeters>567.79998779296875</AltitudeMeters>
            <DistanceMeters>302916.59712879</DistanceMeters>
          </Trackpoint>
          <Trackpoint>
            <Time>2021-07-31T13:24:57.000Z</Time>
            <Position>
              <LatitudeDegrees>42.35466725192964076995849609375</LatitudeDegrees>
              <LongitudeDegrees>-2.306920699775218963623046875</LongitudeDegrees>
            </Position>
            <AltitudeMeters>568.79998779296875</AltitudeMeters>
            <DistanceMeters>302932.93896103</DistanceMeters>
          </Trackpoint>
          <Trackpoint>
            <Time>2021-07-31T13:25:06.000Z</Time>
            <Position>
              <LatitudeDegrees>42.35438360832631587982177734375</LatitudeDegrees>
              <LongitudeDegrees>-2.3066533170640468597412109375</LongitudeDegrees>
            </Position>
            <AltitudeMeters>570</AltitudeMeters>
            <DistanceMeters>302971.41410302</DistanceMeters>
          </Trackpoint>
          <Trackpoint>
            <Time>2021-07-31T13:25:13.000Z</Time>
            <Position>
              <LatitudeDegrees>42.35415746457874774932861328125</LatitudeDegrees>
              <LongitudeDegrees>-2.3064360581338405609130859375</LongitudeDegrees>
            </Position>
            <AltitudeMeters>570.79998779296875</AltitudeMeters>
            <DistanceMeters>303002.28257718</DistanceMeters>
          </Trackpoint>
          <Trackpoint>
            <Time>2021-07-31T13:25:25.000Z</Time>
            <Position>
              <LatitudeDegrees>42.35377675853669643402099609375</LatitudeDegrees>
              <LongitudeDegrees>-2.30607421137392520904541015625</LongitudeDegrees>
            </Position>
            <AltitudeMeters>572</AltitudeMeters>
            <DistanceMeters>303054.06402809</DistanceMeters>
          </Trackpoint>
          <Trackpoint>
            <Time>2021-07-31T13:25:35.000Z</Time>
            <Position>
              <LatitudeDegrees>42.35347299836575984954833984375</LatitudeDegrees>
              <LongitudeDegrees>-2.30577799491584300994873046875</LongitudeDegrees>
            </Position>
            <AltitudeMeters>573.20001220703125</AltitudeMeters>
            <DistanceMeters>303095.73765754</DistanceMeters>
          </Trackpoint>
          <Trackpoint>
            <Time>2021-07-31T13:25:39.000Z</Time>
            <Position>
              <LatitudeDegrees>42.3533475212752819061279296875</LatitudeDegrees>
              <LongitudeDegrees>-2.3056545294821262359619140625</LongitudeDegrees>
            </Position>
            <AltitudeMeters>574.20001220703125</AltitudeMeters>
            <DistanceMeters>303113.0056092</DistanceMeters>
          </Trackpoint>
          <Trackpoint>
            <Time>2021-07-31T13:25:52.000Z</Time>
            <Position>
              <LatitudeDegrees>42.35294829122722148895263671875</LatitudeDegrees>
              <LongitudeDegrees>-2.305270470678806304931640625</LongitudeDegrees>
            </Position>
            <AltitudeMeters>575.4000244140625</AltitudeMeters>
            <DistanceMeters>303167.5253595</DistanceMeters>
          </Trackpoint>
          <Trackpoint>
            <Time>2021-07-31T13:26:01.000Z</Time>
            <Position>
              <LatitudeDegrees>42.35268509946763515472412109375</LatitudeDegrees>
              <LongitudeDegrees>-2.30501792393624782562255859375</LongitudeDegrees>
            </Position>
            <AltitudeMeters>576.5999755859375</AltitudeMeters>
            <DistanceMeters>303203.43690913</DistanceMeters>
          </Trackpoint>
          <Trackpoint>
            <Time>2021-07-31T13:26:11.000Z</Time>
            <Position>
              <LatitudeDegrees>42.352419309318065643310546875</LatitudeDegrees>
              <LongitudeDegrees>-2.304760850965976715087890625</LongitudeDegrees>
            </Position>
            <AltitudeMeters>577.4000244140625</AltitudeMeters>
            <DistanceMeters>303239.7999961</DistanceMeters>
          </Trackpoint>
          <Trackpoint>
            <Time>2021-07-31T13:26:20.000Z</Time>
            <Position>
              <LatitudeDegrees>42.35218235291540622711181640625</LatitudeDegrees>
              <LongitudeDegrees>-2.30452892370522022247314453125</LongitudeDegrees>
            </Position>
            <AltitudeMeters>578.79998779296875</AltitudeMeters>
            <DistanceMeters>303272.34994033</DistanceMeters>
          </Trackpoint>
          <Trackpoint>
            <Time>2021-07-31T13:26:29.000Z</Time>
            <Position>
              <LatitudeDegrees>42.35194732435047626495361328125</LatitudeDegrees>
              <LongitudeDegrees>-2.304300181567668914794921875</LongitudeDegrees>
            </Position>
            <AltitudeMeters>579.79998779296875</AltitudeMeters>
            <DistanceMeters>303304.5728252</DistanceMeters>
          </Trackpoint>
          <Trackpoint>
            <Time>2021-07-31T13:26:35.000Z</Time>
            <Position>
              <LatitudeDegrees>42.35178119502961635589599609375</LatitudeDegrees>
              <LongitudeDegrees>-2.30413933284580707550048828125</LongitudeDegrees>
            </Position>
            <AltitudeMeters>580.79998779296875</AltitudeMeters>
            <DistanceMeters>303327.30924502</DistanceMeters>
          </Trackpoint>
          <Trackpoint>
            <Time>2021-07-31T13:26:48.000Z</Time>
            <Position>
              <LatitudeDegrees>42.35140199773013591766357421875</LatitudeDegrees>
              <LongitudeDegrees>-2.30378511361777782440185546875</LongitudeDegrees>
            </Position>
            <AltitudeMeters>581.79998779296875</AltitudeMeters>
            <DistanceMeters>303378.59489074</DistanceMeters>
          </Trackpoint>
          <Trackpoint>
            <Time>2021-07-31T13:26:55.000Z</Time>
            <Position>
              <LatitudeDegrees>42.35119856894016265869140625</LatitudeDegrees>
              <LongitudeDegrees>-2.30359400622546672821044921875</LongitudeDegrees>
            </Position>
            <AltitudeMeters>583</AltitudeMeters>
            <DistanceMeters>303406.15886309</DistanceMeters>
          </Trackpoint>
          <Trackpoint>
            <Time>2021-07-31T13:27:06.000Z</Time>
            <Position>
              <LatitudeDegrees>42.3508865945041179656982421875</LatitudeDegrees>
              <LongitudeDegrees>-2.30329728685319423675537109375</LongitudeDegrees>
            </Position>
            <AltitudeMeters>584</AltitudeMeters>
            <DistanceMeters>303448.60188312</DistanceMeters>
          </Trackpoint>
          <Trackpoint>
            <Time>2021-07-31T13:27:18.000Z</Time>
            <Position>
              <LatitudeDegrees>42.35053799115121364593505859375</LatitudeDegrees>
              <LongitudeDegrees>-2.30296620167791843414306640625</LongitudeDegrees>
            </Position>
            <AltitudeMeters>585</AltitudeMeters>
            <DistanceMeters>303496.00583363</DistanceMeters>
          </Trackpoint>
          <Trackpoint>
            <Time>2021-07-31T13:27:30.000Z</Time>
            <Position>
              <LatitudeDegrees>42.3501982726156711578369140625</LatitudeDegrees>
              <LongitudeDegrees>-2.3026348650455474853515625</LongitudeDegrees>
            </Position>
            <AltitudeMeters>586</AltitudeMeters>
            <DistanceMeters>303542.61602534</DistanceMeters>
          </Trackpoint>
          <Trackpoint>
            <Time>2021-07-31T13:27:39.000Z</Time>
            <Position>
              <LatitudeDegrees>42.34994455240666866302490234375</LatitudeDegrees>
              <LongitudeDegrees>-2.3023939691483974456787109375</LongitudeDegrees>
            </Position>
            <AltitudeMeters>587.20001220703125</AltitudeMeters>
            <DistanceMeters>303577.11425652</DistanceMeters>
          </Trackpoint>
          <Trackpoint>
            <Time>2021-07-31T13:27:51.000Z</Time>
            <Position>
              <LatitudeDegrees>42.3495890758931636810302734375</LatitudeDegrees>
              <LongitudeDegrees>-2.30211510322988033294677734375</LongitudeDegrees>
            </Position>
            <AltitudeMeters>588.20001220703125</AltitudeMeters>
            <DistanceMeters>303622.84827544</DistanceMeters>
          </Trackpoint>
          <Trackpoint>
            <Time>2021-07-31T13:27:57.000Z</Time>
            <Position>
              <LatitudeDegrees>42.3493895865976810455322265625</LatitudeDegrees>
              <LongitudeDegrees>-2.30200613848865032196044921875</LongitudeDegrees>
            </Position>
            <AltitudeMeters>589.4000244140625</AltitudeMeters>
            <DistanceMeters>303646.79274481</DistanceMeters>
          </Trackpoint>
          <Trackpoint>
            <Time>2021-07-31T13:28:14.000Z</Time>
            <Position>
              <LatitudeDegrees>42.34881584532558917999267578125</LatitudeDegrees>
              <LongitudeDegrees>-2.30185274966061115264892578125</LongitudeDegrees>
            </Position>
            <AltitudeMeters>588.4000244140625</AltitudeMeters>
            <DistanceMeters>303711.88583607</DistanceMeters>
          </Trackpoint>
          <Trackpoint>
            <Time>2021-07-31T13:28:15.000Z</Time>
            <Position>
              <LatitudeDegrees>42.34876270405948162078857421875</LatitudeDegrees>
              <LongitudeDegrees>-2.3018481396138668060302734375</LongitudeDegrees>
            </Position>
            <AltitudeMeters>588.20001220703125</AltitudeMeters>
            <DistanceMeters>303717.81263937</DistanceMeters>
          </Trackpoint>
          <Trackpoint>
            <Time>2021-07-31T13:28:19.000Z</Time>
            <Position>
              <LatitudeDegrees>42.34850965440273284912109375</LatitudeDegrees>
              <LongitudeDegrees>-2.30186616070568561553955078125</LongitudeDegrees>
            </Position>
            <AltitudeMeters>586.20001220703125</AltitudeMeters>
            <DistanceMeters>303746.01652978</DistanceMeters>
          </Trackpoint>
          <Trackpoint>
            <Time>2021-07-31T13:28:21.000Z</Time>
            <Position>
              <LatitudeDegrees>42.34836238436400890350341796875</LatitudeDegrees>
              <LongitudeDegrees>-2.301882170140743255615234375</LongitudeDegrees>
            </Position>
            <AltitudeMeters>584.79998779296875</AltitudeMeters>
            <DistanceMeters>303762.46081964</DistanceMeters>
          </Trackpoint>
          <Trackpoint>
            <Time>2021-07-31T13:28:23.000Z</Time>
            <Position>
              <LatitudeDegrees>42.34820379875600337982177734375</LatitudeDegrees>
              <LongitudeDegrees>-2.3019094951450824737548828125</LongitudeDegrees>
            </Position>
            <AltitudeMeters>583</AltitudeMeters>
            <DistanceMeters>303780.25417543</DistanceMeters>
          </Trackpoint>
          <Trackpoint>
            <Time>2021-07-31T13:28:25.000Z</Time>
            <Position>
              <LatitudeDegrees>42.3480354063212871551513671875</LatitudeDegrees>
              <LongitudeDegrees>-2.3019386641681194305419921875</LongitudeDegrees>
            </Position>
            <AltitudeMeters>581.5999755859375</AltitudeMeters>
            <DistanceMeters>303799.14944369</DistanceMeters>
          </Trackpoint>
          <Trackpoint>
            <Time>2021-07-31T13:28:27.000Z</Time>
            <Position>
              <LatitudeDegrees>42.34785762615501880645751953125</LatitudeDegrees>
              <LongitudeDegrees>-2.3019674979150295257568359375</LongitudeDegrees>
            </Position>
            <AltitudeMeters>579.79998779296875</AltitudeMeters>
            <DistanceMeters>303819.07833784</DistanceMeters>
          </Trackpoint>
          <Trackpoint>
            <Time>2021-07-31T13:28:29.000Z</Time>
            <Position>
              <LatitudeDegrees>42.3476716317236423492431640625</LatitudeDegrees>
              <LongitudeDegrees>-2.30200010351836681365966796875</LongitudeDegrees>
            </Position>
            <AltitudeMeters>578.4000244140625</AltitudeMeters>
            <DistanceMeters>303839.95287589</DistanceMeters>
          </Trackpoint>
          <Trackpoint>
            <Time>2021-07-31T13:28:32.000Z</Time>
            <Position>
              <LatitudeDegrees>42.34737767837941646575927734375</LatitudeDegrees>
              <LongitudeDegrees>-2.3020466230809688568115234375</LongitudeDegrees>
            </Position>
            <AltitudeMeters>577.20001220703125</AltitudeMeters>
            <DistanceMeters>303872.8935818</DistanceMeters>
          </Trackpoint>
          <Trackpoint>
            <Time>2021-07-31T13:28:34.000Z</Time>
            <Position>
              <LatitudeDegrees>42.34718740917742252349853515625</LatitudeDegrees>
              <LongitudeDegrees>-2.3020778037607669830322265625</LongitudeDegrees>
            </Position>
            <AltitudeMeters>576</AltitudeMeters>
            <DistanceMeters>303894.22575638</DistanceMeters>
          </Trackpoint>
          <Trackpoint>
            <Time>2021-07-31T13:28:37.000Z</Time>
            <Position>
              <LatitudeDegrees>42.346914745867252349853515625</LatitudeDegrees>
              <LongitudeDegrees>-2.302122227847576141357421875</LongitudeDegrees>
            </Position>
            <AltitudeMeters>574.4000244140625</AltitudeMeters>
            <DistanceMeters>303924.7929126</DistanceMeters>
          </Trackpoint>
          <Trackpoint>
            <Time>2021-07-31T13:28:40.000Z</Time>
            <Position>
              <LatitudeDegrees>42.346661277115345001220703125</LatitudeDegrees>
              <LongitudeDegrees>-2.3021857626736164093017578125</LongitudeDegrees>
            </Position>
            <AltitudeMeters>573.20001220703125</AltitudeMeters>
            <DistanceMeters>303953.48468649</DistanceMeters>
          </Trackpoint>
          <Trackpoint>
            <Time>2021-07-31T13:28:42.000Z</Time>
            <Position>
              <LatitudeDegrees>42.34648752026259899139404296875</LatitudeDegrees>
              <LongitudeDegrees>-2.3022451065480709075927734375</LongitudeDegrees>
            </Position>
            <AltitudeMeters>572.20001220703125</AltitudeMeters>
            <DistanceMeters>303973.43079158</DistanceMeters>
          </Trackpoint>
          <Trackpoint>
            <Time>2021-07-31T13:28:45.000Z</Time>
            <Position>
              <LatitudeDegrees>42.34622173011302947998046875</LatitudeDegrees>
              <LongitudeDegrees>-2.30233923532068729400634765625</LongitudeDegrees>
            </Position>
            <AltitudeMeters>571</AltitudeMeters>
            <DistanceMeters>304004.01020518</DistanceMeters>
          </Trackpoint>
          <Trackpoint>
            <Time>2021-07-31T13:28:48.000Z</Time>
            <Position>
              <LatitudeDegrees>42.34597764909267425537109375</LatitudeDegrees>
              <LongitudeDegrees>-2.30246328748762607574462890625</LongitudeDegrees>
            </Position>
            <AltitudeMeters>570.20001220703125</AltitudeMeters>
            <DistanceMeters>304033.03024979</DistanceMeters>
          </Trackpoint>
          <Trackpoint>
            <Time>2021-07-31T13:28:49.000Z</Time>
            <Position>
              <LatitudeDegrees>42.345906905829906463623046875</LatitudeDegrees>
              <LongitudeDegrees>-2.30252481065690517425537109375</LongitudeDegrees>
            </Position>
            <AltitudeMeters>569.79998779296875</AltitudeMeters>
            <DistanceMeters>304042.39026056</DistanceMeters>
          </Trackpoint>
          <Trackpoint>
            <Time>2021-07-31T13:28:57.000Z</Time>
            <Position>
              <LatitudeDegrees>42.3453924246132373809814453125</LatitudeDegrees>
              <LongitudeDegrees>-2.30295195244252681732177734375</LongitudeDegrees>
            </Position>
            <AltitudeMeters>569.5999755859375</AltitudeMeters>
            <DistanceMeters>304109.57434923</DistanceMeters>
          </Trackpoint>
          <Trackpoint>
            <Time>2021-07-31T13:28:59.000Z</Time>
            <Position>
              <LatitudeDegrees>42.345266528427600860595703125</LatitudeDegrees>
              <LongitudeDegrees>-2.30291423387825489044189453125</LongitudeDegrees>
            </Position>
            <AltitudeMeters>568.5999755859375</AltitudeMeters>
            <DistanceMeters>304123.92590015</DistanceMeters>
          </Trackpoint>
          <Trackpoint>
            <Time>2021-07-31T13:29:08.000Z</Time>
            <Position>
              <LatitudeDegrees>42.34526996500790119171142578125</LatitudeDegrees>
              <LongitudeDegrees>-2.302319705486297607421875</LongitudeDegrees>
            </Position>
            <AltitudeMeters>569.5999755859375</AltitudeMeters>
            <DistanceMeters>304172.83521859</DistanceMeters>
          </Trackpoint>
          <Trackpoint>
            <Time>2021-07-31T13:29:09.000Z</Time>
            <Position>
              <LatitudeDegrees>42.34530332498252391815185546875</LatitudeDegrees>
              <LongitudeDegrees>-2.30226765386760234832763671875</LongitudeDegrees>
            </Position>
            <AltitudeMeters>569.79998779296875</AltitudeMeters>
            <DistanceMeters>304178.50266792</DistanceMeters>
          </Trackpoint>
          <Trackpoint>
            <Time>2021-07-31T13:29:13.000Z</Time>
            <Position>
              <LatitudeDegrees>42.34543047845363616943359375</LatitudeDegrees>
              <LongitudeDegrees>-2.30207369662821292877197265625</LongitudeDegrees>
            </Position>
            <AltitudeMeters>570.79998779296875</AltitudeMeters>
            <DistanceMeters>304199.8301856</DistanceMeters>
          </Trackpoint>
          <Trackpoint>
            <Time>2021-07-31T13:29:21.000Z</Time>
            <Position>
              <LatitudeDegrees>42.34564304351806640625</LatitudeDegrees>
              <LongitudeDegrees>-2.30168779380619525909423828125</LongitudeDegrees>
            </Position>
            <AltitudeMeters>572</AltitudeMeters>
            <DistanceMeters>304239.42201443</DistanceMeters>
          </Trackpoint>
          <Trackpoint>
            <Time>2021-07-31T13:29:28.000Z</Time>
            <Position>
              <LatitudeDegrees>42.34579198993742465972900390625</LatitudeDegrees>
              <LongitudeDegrees>-2.30133776552975177764892578125</LongitudeDegrees>
            </Position>
            <AltitudeMeters>573</AltitudeMeters>
            <DistanceMeters>304272.64768079</DistanceMeters>
          </Trackpoint>
          <Trackpoint>
            <Time>2021-07-31T13:29:34.000Z</Time>
            <Position>
              <LatitudeDegrees>42.34590447507798671722412109375</LatitudeDegrees>
              <LongitudeDegrees>-2.30103031732141971588134765625</LongitudeDegrees>
            </Position>
            <AltitudeMeters>574.20001220703125</AltitudeMeters>
            <DistanceMeters>304300.86837519</DistanceMeters>
          </Trackpoint>
          <Trackpoint>
            <Time>2021-07-31T13:29:40.000Z</Time>
            <Position>
              <LatitudeDegrees>42.34604311175644397735595703125</LatitudeDegrees>
              <LongitudeDegrees>-2.30076737701892852783203125</LongitudeDegrees>
            </Position>
            <AltitudeMeters>575.5999755859375</AltitudeMeters>
            <DistanceMeters>304327.43849706</DistanceMeters>
          </Trackpoint>
          <Trackpoint>
            <Time>2021-07-31T13:29:46.000Z</Time>
            <Position>
              <LatitudeDegrees>42.3462128452956676483154296875</LatitudeDegrees>
              <LongitudeDegrees>-2.30053938925266265869140625</LongitudeDegrees>
            </Position>
            <AltitudeMeters>576.79998779296875</AltitudeMeters>
            <DistanceMeters>304354.05887044</DistanceMeters>
          </Trackpoint>
          <Trackpoint>
            <Time>2021-07-31T13:29:50.000Z</Time>
            <Position>
              <LatitudeDegrees>42.34630982391536235809326171875</LatitudeDegrees>
              <LongitudeDegrees>-2.30036613531410694122314453125</LongitudeDegrees>
            </Position>
            <AltitudeMeters>577.79998779296875</AltitudeMeters>
            <DistanceMeters>304371.93702991</DistanceMeters>
          </Trackpoint>
          <Trackpoint>
            <Time>2021-07-31T13:30:00.000Z</Time>
            <Position>
              <LatitudeDegrees>42.34652423299849033355712890625</LatitudeDegrees>
              <LongitudeDegrees>-2.29989565908908843994140625</LongitudeDegrees>
            </Position>
            <AltitudeMeters>578.79998779296875</AltitudeMeters>
            <DistanceMeters>304417.40530194</DistanceMeters>
          </Trackpoint>
          <Trackpoint>
            <Time>2021-07-31T13:30:03.000Z</Time>
            <Position>
              <LatitudeDegrees>42.3465601913630962371826171875</LatitudeDegrees>
              <LongitudeDegrees>-2.29972760193049907684326171875</LongitudeDegrees>
            </Position>
            <AltitudeMeters>579</AltitudeMeters>
            <DistanceMeters>304431.7976931</DistanceMeters>
          </Trackpoint>
          <Trackpoint>
            <Time>2021-07-31T13:30:15.000Z</Time>
            <Position>
              <LatitudeDegrees>42.34648802317678928375244140625</LatitudeDegrees>
              <LongitudeDegrees>-2.29900558479130268096923828125</LongitudeDegrees>
            </Position>
            <AltitudeMeters>578.5999755859375</AltitudeMeters>
            <DistanceMeters>304491.73266228</DistanceMeters>
          </Trackpoint>
          <Trackpoint>
            <Time>2021-07-31T13:30:19.000Z</Time>
            <Position>
              <LatitudeDegrees>42.34639012254774570465087890625</LatitudeDegrees>
              <LongitudeDegrees>-2.29874893091619014739990234375</LongitudeDegrees>
            </Position>
            <AltitudeMeters>577.79998779296875</AltitudeMeters>
            <DistanceMeters>304515.4916214</DistanceMeters>
          </Trackpoint>
          <Trackpoint>
            <Time>2021-07-31T13:30:25.000Z</Time>
            <Position>
              <LatitudeDegrees>42.346193902194499969482421875</LatitudeDegrees>
              <LongitudeDegrees>-2.298352383077144622802734375</LongitudeDegrees>
            </Position>
            <AltitudeMeters>576.5999755859375</AltitudeMeters>
            <DistanceMeters>304554.74835211</DistanceMeters>
          </Trackpoint>
          <Trackpoint>
            <Time>2021-07-31T13:30:30.000Z</Time>
            <Position>
              <LatitudeDegrees>42.3459794931113719940185546875</LatitudeDegrees>
              <LongitudeDegrees>-2.298021800816059112548828125</LongitudeDegrees>
            </Position>
            <AltitudeMeters>575.79998779296875</AltitudeMeters>
            <DistanceMeters>304590.92895467</DistanceMeters>
          </Trackpoint>
          <Trackpoint>
            <Time>2021-07-31T13:30:32.000Z</Time>
            <Position>
              <LatitudeDegrees>42.345877401530742645263671875</LatitudeDegrees>
              <LongitudeDegrees>-2.2978972457349300384521484375</LongitudeDegrees>
            </Position>
            <AltitudeMeters>575.4000244140625</AltitudeMeters>
            <DistanceMeters>304606.2294361</DistanceMeters>
          </Trackpoint>
          <Trackpoint>
            <Time>2021-07-31T13:30:35.000Z</Time>
            <Position>
              <LatitudeDegrees>42.3457169719040393829345703125</LatitudeDegrees>
              <LongitudeDegrees>-2.29770387522876262664794921875</LongitudeDegrees>
            </Position>
            <AltitudeMeters>574.4000244140625</AltitudeMeters>
            <DistanceMeters>304630.14333877</DistanceMeters>
          </Trackpoint>
          <Trackpoint>
            <Time>2021-07-31T13:30:38.000Z</Time>
            <Position>
              <LatitudeDegrees>42.34554111957550048828125</LatitudeDegrees>
              <LongitudeDegrees>-2.29752064682543277740478515625</LongitudeDegrees>
            </Position>
            <AltitudeMeters>573.20001220703125</AltitudeMeters>
            <DistanceMeters>304654.84717767</DistanceMeters>
          </Trackpoint>
          <Trackpoint>
            <Time>2021-07-31T13:30:46.000Z</Time>
            <Position>
              <LatitudeDegrees>42.3450128920376300811767578125</LatitudeDegrees>
              <LongitudeDegrees>-2.297197692096233367919921875</LongitudeDegrees>
            </Position>
            <AltitudeMeters>572.5999755859375</AltitudeMeters>
            <DistanceMeters>304719.36394864</DistanceMeters>
          </Trackpoint>
          <Trackpoint>
            <Time>2021-07-31T13:30:53.000Z</Time>
            <Position>
              <LatitudeDegrees>42.3449709825217723846435546875</LatitudeDegrees>
              <LongitudeDegrees>-2.29672268964350223541259765625</LongitudeDegrees>
            </Position>
            <AltitudeMeters>572.4000244140625</AltitudeMeters>
            <DistanceMeters>304758.71671284</DistanceMeters>
          </Trackpoint>
          <Trackpoint>
            <Time>2021-07-31T13:30:54.000Z</Time>
            <Position>
              <LatitudeDegrees>42.3450031690299510955810546875</LatitudeDegrees>
              <LongitudeDegrees>-2.29664272628724575042724609375</LongitudeDegrees>
            </Position>
            <AltitudeMeters>572</AltitudeMeters>
            <DistanceMeters>304766.20756693</DistanceMeters>
          </Trackpoint>
          <Trackpoint>
            <Time>2021-07-31T13:30:55.000Z</Time>
            <Position>
              <LatitudeDegrees>42.34503217041492462158203125</LatitudeDegrees>
              <LongitudeDegrees>-2.29655672796070575714111328125</LongitudeDegrees>
            </Position>
            <AltitudeMeters>571.79998779296875</AltitudeMeters>
            <DistanceMeters>304773.98351651</DistanceMeters>
          </Trackpoint>
          <Trackpoint>
            <Time>2021-07-31T13:30:58.000Z</Time>
            <Position>
              <LatitudeDegrees>42.34511422924697399139404296875</LatitudeDegrees>
              <LongitudeDegrees>-2.2962771914899349212646484375</LongitudeDegrees>
            </Position>
            <AltitudeMeters>570.79998779296875</AltitudeMeters>
            <DistanceMeters>304798.72661904</DistanceMeters>
          </Trackpoint>
          <Trackpoint>
            <Time>2021-07-31T13:31:00.000Z</Time>
            <Position>
              <LatitudeDegrees>42.3451709747314453125</LatitudeDegrees>
              <LongitudeDegrees>-2.29608499445021152496337890625</LongitudeDegrees>
            </Position>
            <AltitudeMeters>569.79998779296875</AltitudeMeters>
            <DistanceMeters>304815.75205454</DistanceMeters>
          </Trackpoint>
          <Trackpoint>
            <Time>2021-07-31T13:31:03.000Z</Time>
            <Position>
              <LatitudeDegrees>42.34525336883962154388427734375</LatitudeDegrees>
              <LongitudeDegrees>-2.2957920469343662261962890625</LongitudeDegrees>
            </Position>
            <AltitudeMeters>568.5999755859375</AltitudeMeters>
            <DistanceMeters>304841.53670905</DistanceMeters>
          </Trackpoint>
          <Trackpoint>
            <Time>2021-07-31T13:31:09.000Z</Time>
            <Position>
              <LatitudeDegrees>42.3454259522259235382080078125</LatitudeDegrees>
              <LongitudeDegrees>-2.29521654546260833740234375</LongitudeDegrees>
            </Position>
            <AltitudeMeters>567.20001220703125</AltitudeMeters>
            <DistanceMeters>304892.62786423</DistanceMeters>
          </Trackpoint>
          <Trackpoint>
            <Time>2021-07-31T13:31:15.000Z</Time>
            <Position>
              <LatitudeDegrees>42.34558730386197566986083984375</LatitudeDegrees>
              <LongitudeDegrees>-2.2946668602526187896728515625</LongitudeDegrees>
            </Position>
            <AltitudeMeters>566.20001220703125</AltitudeMeters>
            <DistanceMeters>304941.28228438</DistanceMeters>
          </Trackpoint>
          <Trackpoint>
            <Time>2021-07-31T13:31:21.000Z</Time>
            <Position>
              <LatitudeDegrees>42.34574295580387115478515625</LatitudeDegrees>
              <LongitudeDegrees>-2.29413469322025775909423828125</LongitudeDegrees>
            </Position>
            <AltitudeMeters>565</AltitudeMeters>
            <DistanceMeters>304988.36310674</DistanceMeters>
          </Trackpoint>
          <Trackpoint>
            <Time>2021-07-31T13:31:25.000Z</Time>
            <Position>
              <LatitudeDegrees>42.34584680758416652679443359375</LatitudeDegrees>
              <LongitudeDegrees>-2.29378558695316314697265625</LongitudeDegrees>
            </Position>
            <AltitudeMeters>564.20001220703125</AltitudeMeters>
            <DistanceMeters>305019.32038348</DistanceMeters>
          </Trackpoint>
          <Trackpoint>
            <Time>2021-07-31T13:31:30.000Z</Time>
            <Position>
              <LatitudeDegrees>42.345957197248935699462890625</LatitudeDegrees>
              <LongitudeDegrees>-2.293354086577892303466796875</LongitudeDegrees>
            </Position>
            <AltitudeMeters>563.20001220703125</AltitudeMeters>
            <DistanceMeters>305056.88287027</DistanceMeters>
          </Trackpoint>
          <Trackpoint>
            <Time>2021-07-31T13:31:36.000Z</Time>
            <Position>
              <LatitudeDegrees>42.346055768430233001708984375</LatitudeDegrees>
              <LongitudeDegrees>-2.29283809661865234375</LongitudeDegrees>
            </Position>
            <AltitudeMeters>562.79998779296875</AltitudeMeters>
            <DistanceMeters>305100.72449309</DistanceMeters>
          </Trackpoint>
          <Trackpoint>
            <Time>2021-07-31T13:31:43.000Z</Time>
            <Position>
              <LatitudeDegrees>42.3458416946232318878173828125</LatitudeDegrees>
              <LongitudeDegrees>-2.29241807945072650909423828125</LongitudeDegrees>
            </Position>
            <AltitudeMeters>563.4000244140625</AltitudeMeters>
            <DistanceMeters>305142.69511535</DistanceMeters>
          </Trackpoint>
          <Trackpoint>
            <Time>2021-07-31T13:31:49.000Z</Time>
            <Position>
              <LatitudeDegrees>42.34558336436748504638671875</LatitudeDegrees>
              <LongitudeDegrees>-2.292244322597980499267578125</LongitudeDegrees>
            </Position>
            <AltitudeMeters>564.20001220703125</AltitudeMeters>
            <DistanceMeters>305174.80486571</DistanceMeters>
          </Trackpoint>
          <Trackpoint>
            <Time>2021-07-31T13:31:57.000Z</Time>
            <Position>
              <LatitudeDegrees>42.3452710546553134918212890625</LatitudeDegrees>
              <LongitudeDegrees>-2.2919823043048381805419921875</LongitudeDegrees>
            </Position>
            <AltitudeMeters>564.79998779296875</AltitudeMeters>
            <DistanceMeters>305215.70600178</DistanceMeters>
          </Trackpoint>
          <Trackpoint>
            <Time>2021-07-31T13:32:09.000Z</Time>
            <Position>
              <LatitudeDegrees>42.3449170030653476715087890625</LatitudeDegrees>
              <LongitudeDegrees>-2.2913642227649688720703125</LongitudeDegrees>
            </Position>
            <AltitudeMeters>564.20001220703125</AltitudeMeters>
            <DistanceMeters>305280.03445521</DistanceMeters>
          </Trackpoint>
          <Trackpoint>
            <Time>2021-07-31T13:32:21.000Z</Time>
            <Position>
              <LatitudeDegrees>42.34453805722296237945556640625</LatitudeDegrees>
              <LongitudeDegrees>-2.2907763160765171051025390625</LongitudeDegrees>
            </Position>
            <AltitudeMeters>563.79998779296875</AltitudeMeters>
            <DistanceMeters>305344.20584838</DistanceMeters>
          </Trackpoint>
          <Trackpoint>
            <Time>2021-07-31T13:32:30.000Z</Time>
            <Position>
              <LatitudeDegrees>42.34425089322030544281005859375</LatitudeDegrees>
              <LongitudeDegrees>-2.29029142297804355621337890625</LongitudeDegrees>
            </Position>
            <AltitudeMeters>563</AltitudeMeters>
            <DistanceMeters>305395.32068182</DistanceMeters>
          </Trackpoint>
          <Trackpoint>
            <Time>2021-07-31T13:32:36.000Z</Time>
            <Position>
              <LatitudeDegrees>42.34408576972782611846923828125</LatitudeDegrees>
              <LongitudeDegrees>-2.2899005748331546783447265625</LongitudeDegrees>
            </Position>
            <AltitudeMeters>561.79998779296875</AltitudeMeters>
            <DistanceMeters>305432.3557513</DistanceMeters>
          </Trackpoint>
          <Trackpoint>
            <Time>2021-07-31T13:32:40.000Z</Time>
            <Position>
              <LatitudeDegrees>42.343974374234676361083984375</LatitudeDegrees>
              <LongitudeDegrees>-2.2896162606775760650634765625</LongitudeDegrees>
            </Position>
            <AltitudeMeters>560.79998779296875</AltitudeMeters>
            <DistanceMeters>305458.82798359</DistanceMeters>
          </Trackpoint>
          <Trackpoint>
            <Time>2021-07-31T13:32:47.000Z</Time>
            <Position>
              <LatitudeDegrees>42.3436154611408710479736328125</LatitudeDegrees>
              <LongitudeDegrees>-2.28942473419010639190673828125</LongitudeDegrees>
            </Position>
            <AltitudeMeters>560.4000244140625</AltitudeMeters>
            <DistanceMeters>305501.77070196</DistanceMeters>
          </Trackpoint>
          <Trackpoint>
            <Time>2021-07-31T13:32:51.000Z</Time>
            <Position>
              <LatitudeDegrees>42.3434263654053211212158203125</LatitudeDegrees>
              <LongitudeDegrees>-2.289417944848537445068359375</LongitudeDegrees>
            </Position>
            <AltitudeMeters>562</AltitudeMeters>
            <DistanceMeters>305522.82464203</DistanceMeters>
          </Trackpoint>
          <Trackpoint>
            <Time>2021-07-31T13:32:57.000Z</Time>
            <Position>
              <LatitudeDegrees>42.34317876398563385009765625</LatitudeDegrees>
              <LongitudeDegrees>-2.28940042667090892791748046875</LongitudeDegrees>
            </Position>
            <AltitudeMeters>563.20001220703125</AltitudeMeters>
            <DistanceMeters>305550.42070093</DistanceMeters>
          </Trackpoint>
          <Trackpoint>
            <Time>2021-07-31T13:33:05.000Z</Time>
            <Position>
              <LatitudeDegrees>42.34287567436695098876953125</LatitudeDegrees>
              <LongitudeDegrees>-2.28937913663685321807861328125</LongitudeDegrees>
            </Position>
            <AltitudeMeters>564.20001220703125</AltitudeMeters>
            <DistanceMeters>305584.20065963</DistanceMeters>
          </Trackpoint>
          <Trackpoint>
            <Time>2021-07-31T13:33:14.000Z</Time>
            <Position>
              <LatitudeDegrees>42.34254148788750171661376953125</LatitudeDegrees>
              <LongitudeDegrees>-2.28937343694269657135009765625</LongitudeDegrees>
            </Position>
            <AltitudeMeters>565.5999755859375</AltitudeMeters>
            <DistanceMeters>305621.39921866</DistanceMeters>
          </Trackpoint>
          <Trackpoint>
            <Time>2021-07-31T13:33:29.000Z</Time>
            <Position>
              <LatitudeDegrees>42.34199230559170246124267578125</LatitudeDegrees>
              <LongitudeDegrees>-2.289273105561733245849609375</LongitudeDegrees>
            </Position>
            <AltitudeMeters>566.79998779296875</AltitudeMeters>
            <DistanceMeters>305683.07909647</DistanceMeters>
          </Trackpoint>
          <Trackpoint>
            <Time>2021-07-31T13:33:35.000Z</Time>
            <Position>
              <LatitudeDegrees>42.34179206192493438720703125</LatitudeDegrees>
              <LongitudeDegrees>-2.2892142646014690399169921875</LongitudeDegrees>
            </Position>
            <AltitudeMeters>567.79998779296875</AltitudeMeters>
            <DistanceMeters>305705.88629979</DistanceMeters>
          </Trackpoint>
          <Trackpoint>
            <Time>2021-07-31T13:33:46.000Z</Time>
            <Position>
              <LatitudeDegrees>42.3414266109466552734375</LatitudeDegrees>
              <LongitudeDegrees>-2.28910923935472965240478515625</LongitudeDegrees>
            </Position>
            <AltitudeMeters>568.79998779296875</AltitudeMeters>
            <DistanceMeters>305747.46925601</DistanceMeters>
          </Trackpoint>
          <Trackpoint>
            <Time>2021-07-31T13:33:52.000Z</Time>
            <Position>
              <LatitudeDegrees>42.3412241041660308837890625</LatitudeDegrees>
              <LongitudeDegrees>-2.2890607081353664398193359375</LongitudeDegrees>
            </Position>
            <AltitudeMeters>570</AltitudeMeters>
            <DistanceMeters>305770.35945382</DistanceMeters>
          </Trackpoint>
          <Trackpoint>
            <Time>2021-07-31T13:33:57.000Z</Time>
            <Position>
              <LatitudeDegrees>42.3410579748451709747314453125</LatitudeDegrees>
              <LongitudeDegrees>-2.28902961127460002899169921875</LongitudeDegrees>
            </Position>
            <AltitudeMeters>571</AltitudeMeters>
            <DistanceMeters>305789.02633866</DistanceMeters>
          </Trackpoint>
          <Trackpoint>
            <Time>2021-07-31T13:33:59.000Z</Time>
            <Position>
              <LatitudeDegrees>42.34099267981946468353271484375</LatitudeDegrees>
              <LongitudeDegrees>-2.2890244983136653900146484375</LongitudeDegrees>
            </Position>
            <AltitudeMeters>571</AltitudeMeters>
            <DistanceMeters>305796.30689831</DistanceMeters>
          </Trackpoint>
          <Trackpoint>
            <Time>2021-07-31T13:34:15.000Z</Time>
            <Position>
              <LatitudeDegrees>42.34042908065021038055419921875</LatitudeDegrees>
              <LongitudeDegrees>-2.2890084050595760345458984375</LongitudeDegrees>
            </Position>
            <AltitudeMeters>571.79998779296875</AltitudeMeters>
            <DistanceMeters>305859.05058474</DistanceMeters>
          </Trackpoint>
          <Trackpoint>
            <Time>2021-07-31T13:34:19.000Z</Time>
            <Position>
              <LatitudeDegrees>42.34028373844921588897705078125</LatitudeDegrees>
              <LongitudeDegrees>-2.28902961127460002899169921875</LongitudeDegrees>
            </Position>
            <AltitudeMeters>572</AltitudeMeters>
            <DistanceMeters>305875.32125624</DistanceMeters>
          </Trackpoint>
          <Trackpoint>
            <Time>2021-07-31T13:34:31.000Z</Time>
            <Position>
              <LatitudeDegrees>42.3398617096245288848876953125</LatitudeDegrees>
              <LongitudeDegrees>-2.2891428507864475250244140625</LongitudeDegrees>
            </Position>
            <AltitudeMeters>573.4000244140625</AltitudeMeters>
            <DistanceMeters>305923.20887503</DistanceMeters>
          </Trackpoint>
          <Trackpoint>
            <Time>2021-07-31T13:34:39.000Z</Time>
            <Position>
              <LatitudeDegrees>42.3395978473126888275146484375</LatitudeDegrees>
              <LongitudeDegrees>-2.28925324045121669769287109375</LongitudeDegrees>
            </Position>
            <AltitudeMeters>574.4000244140625</AltitudeMeters>
            <DistanceMeters>305953.94939291</DistanceMeters>
          </Trackpoint>
          <Trackpoint>
            <Time>2021-07-31T13:34:48.000Z</Time>
            <Position>
              <LatitudeDegrees>42.33930741436779499053955078125</LatitudeDegrees>
              <LongitudeDegrees>-2.28938349522650241851806640625</LongitudeDegrees>
            </Position>
            <AltitudeMeters>575.4000244140625</AltitudeMeters>
            <DistanceMeters>305988.00516963</DistanceMeters>
          </Trackpoint>
          <Trackpoint>
            <Time>2021-07-31T13:34:59.000Z</Time>
            <Position>
              <LatitudeDegrees>42.3389544524252414703369140625</LatitudeDegrees>
              <LongitudeDegrees>-2.28954509831964969635009765625</LongitudeDegrees>
            </Position>
            <AltitudeMeters>576.5999755859375</AltitudeMeters>
            <DistanceMeters>306029.47940467</DistanceMeters>
          </Trackpoint>
          <Trackpoint>
            <Time>2021-07-31T13:35:12.000Z</Time>
            <Position>
              <LatitudeDegrees>42.33852622099220752716064453125</LatitudeDegrees>
              <LongitudeDegrees>-2.28973369114100933074951171875</LongitudeDegrees>
            </Position>
            <AltitudeMeters>577.5999755859375</AltitudeMeters>
            <DistanceMeters>306079.60417249</DistanceMeters>
          </Trackpoint>
          <Trackpoint>
            <Time>2021-07-31T13:35:24.000Z</Time>
            <Position>
              <LatitudeDegrees>42.33812238089740276336669921875</LatitudeDegrees>
              <LongitudeDegrees>-2.2898767702281475067138671875</LongitudeDegrees>
            </Position>
            <AltitudeMeters>578.79998779296875</AltitudeMeters>
            <DistanceMeters>306126.06825191</DistanceMeters>
          </Trackpoint>
          <Trackpoint>
            <Time>2021-07-31T13:35:32.000Z</Time>
            <Position>
              <LatitudeDegrees>42.3378364741802215576171875</LatitudeDegrees>
              <LongitudeDegrees>-2.289911471307277679443359375</LongitudeDegrees>
            </Position>
            <AltitudeMeters>580</AltitudeMeters>
            <DistanceMeters>306158.01814959</DistanceMeters>
          </Trackpoint>
          <Trackpoint>
            <Time>2021-07-31T13:35:45.000Z</Time>
            <Position>
              <LatitudeDegrees>42.33736381866037845611572265625</LatitudeDegrees>
              <LongitudeDegrees>-2.289913482964038848876953125</LongitudeDegrees>
            </Position>
            <AltitudeMeters>581</AltitudeMeters>
            <DistanceMeters>306210.62588617</DistanceMeters>
          </Trackpoint>
          <Trackpoint>
            <Time>2021-07-31T13:35:52.000Z</Time>
            <Position>
              <LatitudeDegrees>42.33712191693484783172607421875</LatitudeDegrees>
              <LongitudeDegrees>-2.28991247713565826416015625</LongitudeDegrees>
            </Position>
            <AltitudeMeters>582.20001220703125</AltitudeMeters>
            <DistanceMeters>306237.55015918</DistanceMeters>
          </Trackpoint>
          <Trackpoint>
            <Time>2021-07-31T13:36:06.000Z</Time>
            <Position>
              <LatitudeDegrees>42.3366169072687625885009765625</LatitudeDegrees>
              <LongitudeDegrees>-2.28979806415736675262451171875</LongitudeDegrees>
            </Position>
            <AltitudeMeters>583.20001220703125</AltitudeMeters>
            <DistanceMeters>306294.5414755</DistanceMeters>
          </Trackpoint>
          <Trackpoint>
            <Time>2021-07-31T13:36:21.000Z</Time>
            <Position>
              <LatitudeDegrees>42.3360526375472545623779296875</LatitudeDegrees>
              <LongitudeDegrees>-2.2896497882902622222900390625</LongitudeDegrees>
            </Position>
            <AltitudeMeters>583.5999755859375</AltitudeMeters>
            <DistanceMeters>306358.51972384</DistanceMeters>
          </Trackpoint>
          <Trackpoint>
            <Time>2021-07-31T13:36:29.000Z</Time>
            <Position>
              <LatitudeDegrees>42.3357448540627956390380859375</LatitudeDegrees>
              <LongitudeDegrees>-2.28956840001046657562255859375</LongitudeDegrees>
            </Position>
            <AltitudeMeters>584.20001220703125</AltitudeMeters>
            <DistanceMeters>306393.42493884</DistanceMeters>
          </Trackpoint>
          <Trackpoint>
            <Time>2021-07-31T13:36:43.000Z</Time>
            <Position>
              <LatitudeDegrees>42.3351993598043918609619140625</LatitudeDegrees>
              <LongitudeDegrees>-2.2894171066582202911376953125</LongitudeDegrees>
            </Position>
            <AltitudeMeters>584.79998779296875</AltitudeMeters>
            <DistanceMeters>306455.40246636</DistanceMeters>
          </Trackpoint>
          <Trackpoint>
            <Time>2021-07-31T13:36:51.000Z</Time>
            <Position>
              <LatitudeDegrees>42.3348781652748584747314453125</LatitudeDegrees>
              <LongitudeDegrees>-2.28933404199779033660888671875</LongitudeDegrees>
            </Position>
            <AltitudeMeters>585.20001220703125</AltitudeMeters>
            <DistanceMeters>306491.79955875</DistanceMeters>
          </Trackpoint>
          <Trackpoint>
            <Time>2021-07-31T13:37:00.000Z</Time>
            <Position>
              <LatitudeDegrees>42.33452335931360721588134765625</LatitudeDegrees>
              <LongitudeDegrees>-2.2892437689006328582763671875</LongitudeDegrees>
            </Position>
            <AltitudeMeters>586.4000244140625</AltitudeMeters>
            <DistanceMeters>306531.98249007</DistanceMeters>
          </Trackpoint>
          <Trackpoint>
            <Time>2021-07-31T13:37:14.000Z</Time>
            <Position>
              <LatitudeDegrees>42.333961017429828643798828125</LatitudeDegrees>
              <LongitudeDegrees>-2.2890922240912914276123046875</LongitudeDegrees>
            </Position>
            <AltitudeMeters>587.4000244140625</AltitudeMeters>
            <DistanceMeters>306595.80210883</DistanceMeters>
          </Trackpoint>
          <Trackpoint>
            <Time>2021-07-31T13:37:25.000Z</Time>
            <Position>
              <LatitudeDegrees>42.33353513292968273162841796875</LatitudeDegrees>
              <LongitudeDegrees>-2.2890070639550685882568359375</LongitudeDegrees>
            </Position>
            <AltitudeMeters>587.5999755859375</AltitudeMeters>
            <DistanceMeters>306643.71913521</DistanceMeters>
          </Trackpoint>
          <Trackpoint>
            <Time>2021-07-31T13:37:37.000Z</Time>
            <Position>
              <LatitudeDegrees>42.33309122733771800994873046875</LatitudeDegrees>
              <LongitudeDegrees>-2.28896071203052997589111328125</LongitudeDegrees>
            </Position>
            <AltitudeMeters>588.5999755859375</AltitudeMeters>
            <DistanceMeters>306693.27372177</DistanceMeters>
          </Trackpoint>
          <Trackpoint>
            <Time>2021-07-31T13:37:52.000Z</Time>
            <Position>
              <LatitudeDegrees>42.33255445025861263275146484375</LatitudeDegrees>
              <LongitudeDegrees>-2.288919389247894287109375</LongitudeDegrees>
            </Position>
            <AltitudeMeters>589.5999755859375</AltitudeMeters>
            <DistanceMeters>306753.1147533</DistanceMeters>
          </Trackpoint>
          <Trackpoint>
            <Time>2021-07-31T13:38:08.000Z</Time>
            <Position>
              <LatitudeDegrees>42.33198590576648712158203125</LatitudeDegrees>
              <LongitudeDegrees>-2.2889091633260250091552734375</LongitudeDegrees>
            </Position>
            <AltitudeMeters>590.4000244140625</AltitudeMeters>
            <DistanceMeters>306816.40047613</DistanceMeters>
          </Trackpoint>
          <Trackpoint>
            <Time>2021-07-31T13:38:12.000Z</Time>
            <Position>
              <LatitudeDegrees>42.33183729462325572967529296875</LatitudeDegrees>
              <LongitudeDegrees>-2.2889151982963085174560546875</LongitudeDegrees>
            </Position>
            <AltitudeMeters>590.79998779296875</AltitudeMeters>
            <DistanceMeters>306832.94822638</DistanceMeters>
          </Trackpoint>
          <Trackpoint>
            <Time>2021-07-31T13:38:24.000Z</Time>
            <Position>
              <LatitudeDegrees>42.3313844203948974609375</LatitudeDegrees>
              <LongitudeDegrees>-2.2889363206923007965087890625</LongitudeDegrees>
            </Position>
            <AltitudeMeters>592</AltitudeMeters>
            <DistanceMeters>306883.38387323</DistanceMeters>
          </Trackpoint>
          <Trackpoint>
            <Time>2021-07-31T13:38:38.000Z</Time>
            <Position>
              <LatitudeDegrees>42.330826856195926666259765625</LatitudeDegrees>
              <LongitudeDegrees>-2.288974709808826446533203125</LongitudeDegrees>
            </Position>
            <AltitudeMeters>592.79998779296875</AltitudeMeters>
            <DistanceMeters>306945.52218981</DistanceMeters>
          </Trackpoint>
          <Trackpoint>
            <Time>2021-07-31T13:38:39.000Z</Time>
            <Position>
              <LatitudeDegrees>42.33078687451779842376708984375</LatitudeDegrees>
              <LongitudeDegrees>-2.28897831402719020843505859375</LongitudeDegrees>
            </Position>
            <AltitudeMeters>593</AltitudeMeters>
            <DistanceMeters>306949.98338791</DistanceMeters>
          </Trackpoint>
          <Trackpoint>
            <Time>2021-07-31T13:38:45.000Z</Time>
            <Position>
              <LatitudeDegrees>42.33055226504802703857421875</LatitudeDegrees>
              <LongitudeDegrees>-2.28898200206458568572998046875</LongitudeDegrees>
            </Position>
            <AltitudeMeters>594</AltitudeMeters>
            <DistanceMeters>306976.09775949</DistanceMeters>
          </Trackpoint>
          <Trackpoint>
            <Time>2021-07-31T13:38:59.000Z</Time>
            <Position>
              <LatitudeDegrees>42.32999998144805431365966796875</LatitudeDegrees>
              <LongitudeDegrees>-2.2889006137847900390625</LongitudeDegrees>
            </Position>
            <AltitudeMeters>594.79998779296875</AltitudeMeters>
            <DistanceMeters>307037.93175279</DistanceMeters>
          </Trackpoint>
          <Trackpoint>
            <Time>2021-07-31T13:39:04.000Z</Time>
            <Position>
              <LatitudeDegrees>42.3298005759716033935546875</LatitudeDegrees>
              <LongitudeDegrees>-2.28886029683053493499755859375</LongitudeDegrees>
            </Position>
            <AltitudeMeters>595.20001220703125</AltitudeMeters>
            <DistanceMeters>307060.3725483</DistanceMeters>
          </Trackpoint>
          <Trackpoint>
            <Time>2021-07-31T13:39:15.000Z</Time>
            <Position>
              <LatitudeDegrees>42.32936429791152477264404296875</LatitudeDegrees>
              <LongitudeDegrees>-2.28877253830432891845703125</LongitudeDegrees>
            </Position>
            <AltitudeMeters>596.20001220703125</AltitudeMeters>
            <DistanceMeters>307109.46522884</DistanceMeters>
          </Trackpoint>
          <Trackpoint>
            <Time>2021-07-31T13:39:29.000Z</Time>
            <Position>
              <LatitudeDegrees>42.32882492244243621826171875</LatitudeDegrees>
              <LongitudeDegrees>-2.28865577839314937591552734375</LongitudeDegrees>
            </Position>
            <AltitudeMeters>597.20001220703125</AltitudeMeters>
            <DistanceMeters>307170.26272362</DistanceMeters>
          </Trackpoint>
          <Trackpoint>
            <Time>2021-07-31T13:39:42.000Z</Time>
            <Position>
              <LatitudeDegrees>42.32832376845180988311767578125</LatitudeDegrees>
              <LongitudeDegrees>-2.288489229977130889892578125</LongitudeDegrees>
            </Position>
            <AltitudeMeters>598.20001220703125</AltitudeMeters>
            <DistanceMeters>307227.70100779</DistanceMeters>
          </Trackpoint>
          <Trackpoint>
            <Time>2021-07-31T13:39:55.000Z</Time>
            <Position>
              <LatitudeDegrees>42.3278229497373104095458984375</LatitudeDegrees>
              <LongitudeDegrees>-2.2884867154061794281005859375</LongitudeDegrees>
            </Position>
            <AltitudeMeters>599.4000244140625</AltitudeMeters>
            <DistanceMeters>307283.44355209</DistanceMeters>
          </Trackpoint>
          <Trackpoint>
            <Time>2021-07-31T13:40:09.000Z</Time>
            <Position>
              <LatitudeDegrees>42.3272766172885894775390625</LatitudeDegrees>
              <LongitudeDegrees>-2.288540191948413848876953125</LongitudeDegrees>
            </Position>
            <AltitudeMeters>600.20001220703125</AltitudeMeters>
            <DistanceMeters>307344.41050294</DistanceMeters>
          </Trackpoint>
          <Trackpoint>
            <Time>2021-07-31T13:40:11.000Z</Time>
            <Position>
              <LatitudeDegrees>42.3272016830742359161376953125</LatitudeDegrees>
              <LongitudeDegrees>-2.288549579679965972900390625</LongitudeDegrees>
            </Position>
            <AltitudeMeters>600.4000244140625</AltitudeMeters>
            <DistanceMeters>307352.78688007</DistanceMeters>
          </Trackpoint>
          <Trackpoint>
            <Time>2021-07-31T13:40:22.000Z</Time>
            <Position>
              <LatitudeDegrees>42.32679708860814571380615234375</LatitudeDegrees>
              <LongitudeDegrees>-2.288582436740398406982421875</LongitudeDegrees>
            </Position>
            <AltitudeMeters>601.4000244140625</AltitudeMeters>
            <DistanceMeters>307397.90005585</DistanceMeters>
          </Trackpoint>
          <Trackpoint>
            <Time>2021-07-31T13:40:34.000Z</Time>
            <Position>
              <LatitudeDegrees>42.3263440467417240142822265625</LatitudeDegrees>
              <LongitudeDegrees>-2.2886176407337188720703125</LongitudeDegrees>
            </Position>
            <AltitudeMeters>602.5999755859375</AltitudeMeters>
            <DistanceMeters>307448.40762613</DistanceMeters>
          </Trackpoint>
          <Trackpoint>
            <Time>2021-07-31T13:40:44.000Z</Time>
            <Position>
              <LatitudeDegrees>42.32598982751369476318359375</LatitudeDegrees>
              <LongitudeDegrees>-2.28864840231835842132568359375</LongitudeDegrees>
            </Position>
            <AltitudeMeters>603.79998779296875</AltitudeMeters>
            <DistanceMeters>307487.91406121</DistanceMeters>
          </Trackpoint>
          <Trackpoint>
            <Time>2021-07-31T13:40:54.000Z</Time>
            <Position>
              <LatitudeDegrees>42.32563166879117488861083984375</LatitudeDegrees>
              <LongitudeDegrees>-2.288676314055919647216796875</LongitudeDegrees>
            </Position>
            <AltitudeMeters>604.79998779296875</AltitudeMeters>
            <DistanceMeters>307527.84382977</DistanceMeters>
          </Trackpoint>
          <Trackpoint>
            <Time>2021-07-31T13:41:04.000Z</Time>
            <Position>
              <LatitudeDegrees>42.32527091167867183685302734375</LatitudeDegrees>
              <LongitudeDegrees>-2.288720570504665374755859375</LongitudeDegrees>
            </Position>
            <AltitudeMeters>605.79998779296875</AltitudeMeters>
            <DistanceMeters>307568.16159411</DistanceMeters>
          </Trackpoint>
          <Trackpoint>
            <Time>2021-07-31T13:41:19.000Z</Time>
            <Position>
              <LatitudeDegrees>42.32474184595048427581787109375</LatitudeDegrees>
              <LongitudeDegrees>-2.2889001108705997467041015625</LongitudeDegrees>
            </Position>
            <AltitudeMeters>606.79998779296875</AltitudeMeters>
            <DistanceMeters>307628.87288204</DistanceMeters>
          </Trackpoint>
          <Trackpoint>
            <Time>2021-07-31T13:41:26.000Z</Time>
            <Position>
              <LatitudeDegrees>42.32450245879590511322021484375</LatitudeDegrees>
              <LongitudeDegrees>-2.289012931287288665771484375</LongitudeDegrees>
            </Position>
            <AltitudeMeters>608</AltitudeMeters>
            <DistanceMeters>307657.08829626</DistanceMeters>
          </Trackpoint>
          <Trackpoint>
            <Time>2021-07-31T13:41:34.000Z</Time>
            <Position>
              <LatitudeDegrees>42.32424379326403141021728515625</LatitudeDegrees>
              <LongitudeDegrees>-2.28915609419345855712890625</LongitudeDegrees>
            </Position>
            <AltitudeMeters>609</AltitudeMeters>
            <DistanceMeters>307688.19557823</DistanceMeters>
          </Trackpoint>
          <Trackpoint>
            <Time>2021-07-31T13:41:43.000Z</Time>
            <Position>
              <LatitudeDegrees>42.32397892512381076812744140625</LatitudeDegrees>
              <LongitudeDegrees>-2.2893145121634006500244140625</LongitudeDegrees>
            </Position>
            <AltitudeMeters>610</AltitudeMeters>
            <DistanceMeters>307720.42953061</DistanceMeters>
          </Trackpoint>
          <Trackpoint>
            <Time>2021-07-31T13:41:54.000Z</Time>
            <Position>
              <LatitudeDegrees>42.32366912998259067535400390625</LatitudeDegrees>
              <LongitudeDegrees>-2.28949665091931819915771484375</LongitudeDegrees>
            </Position>
            <AltitudeMeters>611.20001220703125</AltitudeMeters>
            <DistanceMeters>307758.02697954</DistanceMeters>
          </Trackpoint>
          <Trackpoint>
            <Time>2021-07-31T13:42:05.000Z</Time>
            <Position>
              <LatitudeDegrees>42.32332027517259120941162109375</LatitudeDegrees>
              <LongitudeDegrees>-2.28968046605587005615234375</LongitudeDegrees>
            </Position>
            <AltitudeMeters>612.4000244140625</AltitudeMeters>
            <DistanceMeters>307799.69768364</DistanceMeters>
          </Trackpoint>
          <Trackpoint>
            <Time>2021-07-31T13:42:14.000Z</Time>
            <Position>
              <LatitudeDegrees>42.32300494797527790069580078125</LatitudeDegrees>
              <LongitudeDegrees>-2.28979337029159069061279296875</LongitudeDegrees>
            </Position>
            <AltitudeMeters>613.5999755859375</AltitudeMeters>
            <DistanceMeters>307836.00336086</DistanceMeters>
          </Trackpoint>
          <Trackpoint>
            <Time>2021-07-31T13:42:28.000Z</Time>
            <Position>
              <LatitudeDegrees>42.322462387382984161376953125</LatitudeDegrees>
              <LongitudeDegrees>-2.2897758521139621734619140625</LongitudeDegrees>
            </Position>
            <AltitudeMeters>614.5999755859375</AltitudeMeters>
            <DistanceMeters>307896.40866732</DistanceMeters>
          </Trackpoint>
          <Trackpoint>
            <Time>2021-07-31T13:42:43.000Z</Time>
            <Position>
              <LatitudeDegrees>42.32190482318401336669921875</LatitudeDegrees>
              <LongitudeDegrees>-2.28969580493867397308349609375</LongitudeDegrees>
            </Position>
            <AltitudeMeters>615.4000244140625</AltitudeMeters>
            <DistanceMeters>307958.81525087</DistanceMeters>
          </Trackpoint>
          <Trackpoint>
            <Time>2021-07-31T13:42:46.000Z</Time>
            <Position>
              <LatitudeDegrees>42.3217956908047199249267578125</LatitudeDegrees>
              <LongitudeDegrees>-2.289684154093265533447265625</LongitudeDegrees>
            </Position>
            <AltitudeMeters>615.5999755859375</AltitudeMeters>
            <DistanceMeters>307970.99981023</DistanceMeters>
          </Trackpoint>
          <Trackpoint>
            <Time>2021-07-31T13:42:56.000Z</Time>
            <Position>
              <LatitudeDegrees>42.32143275439739227294921875</LatitudeDegrees>
              <LongitudeDegrees>-2.28963931091129779815673828125</LongitudeDegrees>
            </Position>
            <AltitudeMeters>616.5999755859375</AltitudeMeters>
            <DistanceMeters>308011.56341891</DistanceMeters>
          </Trackpoint>
          <Trackpoint>
            <Time>2021-07-31T13:43:11.000Z</Time>
            <Position>
              <LatitudeDegrees>42.320865802466869354248046875</LatitudeDegrees>
              <LongitudeDegrees>-2.2896129079163074493408203125</LongitudeDegrees>
            </Position>
            <AltitudeMeters>617.5999755859375</AltitudeMeters>
            <DistanceMeters>308074.70364736</DistanceMeters>
          </Trackpoint>
          <Trackpoint>
            <Time>2021-07-31T13:43:21.000Z</Time>
            <Position>
              <LatitudeDegrees>42.320501022040843963623046875</LatitudeDegrees>
              <LongitudeDegrees>-2.2896078787744045257568359375</LongitudeDegrees>
            </Position>
            <AltitudeMeters>618.79998779296875</AltitudeMeters>
            <DistanceMeters>308115.30641742</DistanceMeters>
          </Trackpoint>
          <Trackpoint>
            <Time>2021-07-31T13:43:36.000Z</Time>
            <Position>
              <LatitudeDegrees>42.319958545267581939697265625</LatitudeDegrees>
              <LongitudeDegrees>-2.2894625365734100341796875</LongitudeDegrees>
            </Position>
            <AltitudeMeters>619.4000244140625</AltitudeMeters>
            <DistanceMeters>308176.85850002</DistanceMeters>
          </Trackpoint>
          <Trackpoint>
            <Time>2021-07-31T13:43:39.000Z</Time>
            <Position>
              <LatitudeDegrees>42.31984756886959075927734375</LatitudeDegrees>
              <LongitudeDegrees>-2.28943848051130771636962890625</LongitudeDegrees>
            </Position>
            <AltitudeMeters>619.79998779296875</AltitudeMeters>
            <DistanceMeters>308189.36814529</DistanceMeters>
          </Trackpoint>
          <Trackpoint>
            <Time>2021-07-31T13:43:47.000Z</Time>
            <Position>
              <LatitudeDegrees>42.31955160386860370635986328125</LatitudeDegrees>
              <LongitudeDegrees>-2.28944753296673297882080078125</LongitudeDegrees>
            </Position>
            <AltitudeMeters>621</AltitudeMeters>
            <DistanceMeters>308222.31789629</DistanceMeters>
          </Trackpoint>
          <Trackpoint>
            <Time>2021-07-31T13:43:59.000Z</Time>
            <Position>
              <LatitudeDegrees>42.3191107995808124542236328125</LatitudeDegrees>
              <LongitudeDegrees>-2.28952632285654544830322265625</LongitudeDegrees>
            </Position>
            <AltitudeMeters>622</AltitudeMeters>
            <DistanceMeters>308271.80683842</DistanceMeters>
          </Trackpoint>
          <Trackpoint>
            <Time>2021-07-31T13:44:01.000Z</Time>
            <Position>
              <LatitudeDegrees>42.31903494335711002349853515625</LatitudeDegrees>
              <LongitudeDegrees>-2.28954073973000049591064453125</LongitudeDegrees>
            </Position>
            <AltitudeMeters>622.20001220703125</AltitudeMeters>
            <DistanceMeters>308280.33280554</DistanceMeters>
          </Trackpoint>
          <Trackpoint>
            <Time>2021-07-31T13:44:11.000Z</Time>
            <Position>
              <LatitudeDegrees>42.31866261921823024749755859375</LatitudeDegrees>
              <LongitudeDegrees>-2.28960125707089900970458984375</LongitudeDegrees>
            </Position>
            <AltitudeMeters>623</AltitudeMeters>
            <DistanceMeters>308322.07149824</DistanceMeters>
          </Trackpoint>
          <Trackpoint>
            <Time>2021-07-31T13:44:27.000Z</Time>
            <Position>
              <LatitudeDegrees>42.31810321100056171417236328125</LatitudeDegrees>
              <LongitudeDegrees>-2.28967686183750629425048828125</LongitudeDegrees>
            </Position>
            <AltitudeMeters>624</AltitudeMeters>
            <DistanceMeters>308384.64483989</DistanceMeters>
          </Trackpoint>
          <Trackpoint>
            <Time>2021-07-31T13:44:28.000Z</Time>
            <Position>
              <LatitudeDegrees>42.31806716881692409515380859375</LatitudeDegrees>
              <LongitudeDegrees>-2.28967912495136260986328125</LongitudeDegrees>
            </Position>
            <AltitudeMeters>624</AltitudeMeters>
            <DistanceMeters>308388.66189685</DistanceMeters>
          </Trackpoint>
          <Trackpoint>
            <Time>2021-07-31T13:44:44.000Z</Time>
            <Position>
              <LatitudeDegrees>42.3175044916570186614990234375</LatitudeDegrees>
              <LongitudeDegrees>-2.28972799144685268402099609375</LongitudeDegrees>
            </Position>
            <AltitudeMeters>623.79998779296875</AltitudeMeters>
            <DistanceMeters>308451.41795919</DistanceMeters>
          </Trackpoint>
          <Trackpoint>
            <Time>2021-07-31T13:44:49.000Z</Time>
            <Position>
              <LatitudeDegrees>42.31731564737856388092041015625</LatitudeDegrees>
              <LongitudeDegrees>-2.28977375663816928863525390625</LongitudeDegrees>
            </Position>
            <AltitudeMeters>623.20001220703125</AltitudeMeters>
            <DistanceMeters>308472.77128867</DistanceMeters>
          </Trackpoint>
          <Trackpoint>
            <Time>2021-07-31T13:44:50.000Z</Time>
            <Position>
              <LatitudeDegrees>42.31727776117622852325439453125</LatitudeDegrees>
              <LongitudeDegrees>-2.2898026742041110992431640625</LongitudeDegrees>
            </Position>
            <AltitudeMeters>623</AltitudeMeters>
            <DistanceMeters>308477.61299069</DistanceMeters>
          </Trackpoint>
          <Trackpoint>
            <Time>2021-07-31T13:44:54.000Z</Time>
            <Position>
              <LatitudeDegrees>42.317144908010959625244140625</LatitudeDegrees>
              <LongitudeDegrees>-2.29002647101879119873046875</LongitudeDegrees>
            </Position>
            <AltitudeMeters>621.20001220703125</AltitudeMeters>
            <DistanceMeters>308501.23281674</DistanceMeters>
          </Trackpoint>
          <Trackpoint>
            <Time>2021-07-31T13:44:56.000Z</Time>
            <Position>
              <LatitudeDegrees>42.31708246283233165740966796875</LatitudeDegrees>
              <LongitudeDegrees>-2.2901842184364795684814453125</LongitudeDegrees>
            </Position>
            <AltitudeMeters>620</AltitudeMeters>
            <DistanceMeters>308515.95858517</DistanceMeters>
          </Trackpoint>
          <Trackpoint>
            <Time>2021-07-31T13:44:58.000Z</Time>
            <Position>
              <LatitudeDegrees>42.31701574288308620452880859375</LatitudeDegrees>
              <LongitudeDegrees>-2.2903545387089252471923828125</LongitudeDegrees>
            </Position>
            <AltitudeMeters>618.5999755859375</AltitudeMeters>
            <DistanceMeters>308531.82150136</DistanceMeters>
          </Trackpoint>
          <Trackpoint>
            <Time>2021-07-31T13:45:00.000Z</Time>
            <Position>
              <LatitudeDegrees>42.3169475980103015899658203125</LatitudeDegrees>
              <LongitudeDegrees>-2.29052024893462657928466796875</LongitudeDegrees>
            </Position>
            <AltitudeMeters>617.20001220703125</AltitudeMeters>
            <DistanceMeters>308547.4267281</DistanceMeters>
          </Trackpoint>
          <Trackpoint>
            <Time>2021-07-31T13:45:03.000Z</Time>
            <Position>
              <LatitudeDegrees>42.31685766018927097320556640625</LatitudeDegrees>
              <LongitudeDegrees>-2.29074102826416492462158203125</LongitudeDegrees>
            </Position>
            <AltitudeMeters>616</AltitudeMeters>
            <DistanceMeters>308568.17195438</DistanceMeters>
          </Trackpoint>
          <Trackpoint>
            <Time>2021-07-31T13:45:06.000Z</Time>
            <Position>
              <LatitudeDegrees>42.3167672194540500640869140625</LatitudeDegrees>
              <LongitudeDegrees>-2.29096918366849422454833984375</LongitudeDegrees>
            </Position>
            <AltitudeMeters>614.5999755859375</AltitudeMeters>
            <DistanceMeters>308589.47702003</DistanceMeters>
          </Trackpoint>
          <Trackpoint>
            <Time>2021-07-31T13:45:09.000Z</Time>
            <Position>
              <LatitudeDegrees>42.31666537933051586151123046875</LatitudeDegrees>
              <LongitudeDegrees>-2.29121527634561061859130859375</LongitudeDegrees>
            </Position>
            <AltitudeMeters>613.5999755859375</AltitudeMeters>
            <DistanceMeters>308612.6868938</DistanceMeters>
          </Trackpoint>
          <Trackpoint>
            <Time>2021-07-31T13:45:12.000Z</Time>
            <Position>
              <LatitudeDegrees>42.3165583424270153045654296875</LatitudeDegrees>
              <LongitudeDegrees>-2.29146673344075679779052734375</LongitudeDegrees>
            </Position>
            <AltitudeMeters>612.4000244140625</AltitudeMeters>
            <DistanceMeters>308636.56622036</DistanceMeters>
          </Trackpoint>
          <Trackpoint>
            <Time>2021-07-31T13:45:14.000Z</Time>
            <Position>
              <LatitudeDegrees>42.3164768703281879425048828125</LatitudeDegrees>
              <LongitudeDegrees>-2.2916270792484283447265625</LongitudeDegrees>
            </Position>
            <AltitudeMeters>611.79998779296875</AltitudeMeters>
            <DistanceMeters>308652.57815124</DistanceMeters>
          </Trackpoint>
          <Trackpoint>
            <Time>2021-07-31T13:45:16.000Z</Time>
            <Position>
              <LatitudeDegrees>42.31637503020465373992919921875</LatitudeDegrees>
              <LongitudeDegrees>-2.29176546446979045867919921875</LongitudeDegrees>
            </Position>
            <AltitudeMeters>611.4000244140625</AltitudeMeters>
            <DistanceMeters>308668.64694105</DistanceMeters>
          </Trackpoint>
          <Trackpoint>
            <Time>2021-07-31T13:45:19.000Z</Time>
            <Position>
              <LatitudeDegrees>42.31621342711150646209716796875</LatitudeDegrees>
              <LongitudeDegrees>-2.291962690651416778564453125</LongitudeDegrees>
            </Position>
            <AltitudeMeters>611</AltitudeMeters>
            <DistanceMeters>308692.87484003</DistanceMeters>
          </Trackpoint>
          <Trackpoint>
            <Time>2021-07-31T13:45:29.000Z</Time>
            <Position>
              <LatitudeDegrees>42.315982170403003692626953125</LatitudeDegrees>
              <LongitudeDegrees>-2.29262963868677616119384765625</LongitudeDegrees>
            </Position>
            <AltitudeMeters>612.20001220703125</AltitudeMeters>
            <DistanceMeters>308753.50084118</DistanceMeters>
          </Trackpoint>
          <Trackpoint>
            <Time>2021-07-31T13:45:30.000Z</Time>
            <Position>
              <LatitudeDegrees>42.3159588687121868133544921875</LatitudeDegrees>
              <LongitudeDegrees>-2.29267875663936138153076171875</LongitudeDegrees>
            </Position>
            <AltitudeMeters>612.4000244140625</AltitudeMeters>
            <DistanceMeters>308758.30415725</DistanceMeters>
          </Trackpoint>
          <Trackpoint>
            <Time>2021-07-31T13:45:33.000Z</Time>
            <Position>
              <LatitudeDegrees>42.31588686816394329071044921875</LatitudeDegrees>
              <LongitudeDegrees>-2.2928072512149810791015625</LongitudeDegrees>
            </Position>
            <AltitudeMeters>613.5999755859375</AltitudeMeters>
            <DistanceMeters>308771.57289496</DistanceMeters>
          </Trackpoint>
          <Trackpoint>
            <Time>2021-07-31T13:45:37.000Z</Time>
            <Position>
              <LatitudeDegrees>42.3157935775816440582275390625</LatitudeDegrees>
              <LongitudeDegrees>-2.292947061359882354736328125</LongitudeDegrees>
            </Position>
            <AltitudeMeters>614.5999755859375</AltitudeMeters>
            <DistanceMeters>308787.07186569</DistanceMeters>
          </Trackpoint>
          <Trackpoint>
            <Time>2021-07-31T13:45:42.000Z</Time>
            <Position>
              <LatitudeDegrees>42.315684445202350616455078125</LatitudeDegrees>
              <LongitudeDegrees>-2.29308544658124446868896484375</LongitudeDegrees>
            </Position>
            <AltitudeMeters>615.79998779296875</AltitudeMeters>
            <DistanceMeters>308803.72297578</DistanceMeters>
          </Trackpoint>
          <Trackpoint>
            <Time>2021-07-31T13:45:46.000Z</Time>
            <Position>
              <LatitudeDegrees>42.31560297310352325439453125</LatitudeDegrees>
              <LongitudeDegrees>-2.2931879572570323944091796875</LongitudeDegrees>
            </Position>
            <AltitudeMeters>617.20001220703125</AltitudeMeters>
            <DistanceMeters>308816.10856977</DistanceMeters>
          </Trackpoint>
          <Trackpoint>
            <Time>2021-07-31T13:45:49.000Z</Time>
            <Position>
              <LatitudeDegrees>42.3155421204864978790283203125</LatitudeDegrees>
              <LongitudeDegrees>-2.29326414875686168670654296875</LongitudeDegrees>
            </Position>
            <AltitudeMeters>618.20001220703125</AltitudeMeters>
            <DistanceMeters>308825.33839865</DistanceMeters>
          </Trackpoint>
          <Trackpoint>
            <Time>2021-07-31T13:45:54.000Z</Time>
            <Position>
              <LatitudeDegrees>42.31545100919902324676513671875</LatitudeDegrees>
              <LongitudeDegrees>-2.29338367469608783721923828125</LongitudeDegrees>
            </Position>
            <AltitudeMeters>619.4000244140625</AltitudeMeters>
            <DistanceMeters>308839.46641372</DistanceMeters>
          </Trackpoint>
          <Trackpoint>
            <Time>2021-07-31T13:45:59.000Z</Time>
            <Position>
              <LatitudeDegrees>42.31537121348083019256591796875</LatitudeDegrees>
              <LongitudeDegrees>-2.2934860177338123321533203125</LongitudeDegrees>
            </Position>
            <AltitudeMeters>620.4000244140625</AltitudeMeters>
            <DistanceMeters>308851.70679886</DistanceMeters>
          </Trackpoint>
          <Trackpoint>
            <Time>2021-07-31T13:46:19.000Z</Time>
            <Position>
              <LatitudeDegrees>42.31495966203510761260986328125</LatitudeDegrees>
              <LongitudeDegrees>-2.29377645067870616912841796875</LongitudeDegrees>
            </Position>
            <AltitudeMeters>621.4000244140625</AltitudeMeters>
            <DistanceMeters>308903.37503523</DistanceMeters>
          </Trackpoint>
          <Trackpoint>
            <Time>2021-07-31T13:46:35.000Z</Time>
            <Position>
              <LatitudeDegrees>42.31451072730123996734619140625</LatitudeDegrees>
              <LongitudeDegrees>-2.29385004378855228424072265625</LongitudeDegrees>
            </Position>
            <AltitudeMeters>622.4000244140625</AltitudeMeters>
            <DistanceMeters>308953.70816613</DistanceMeters>
          </Trackpoint>
          <Trackpoint>
            <Time>2021-07-31T13:46:36.000Z</Time>
            <Position>
              <LatitudeDegrees>42.31449714861810207366943359375</LatitudeDegrees>
              <LongitudeDegrees>-2.2938876785337924957275390625</LongitudeDegrees>
            </Position>
            <AltitudeMeters>622.5999755859375</AltitudeMeters>
            <DistanceMeters>308957.1541131</DistanceMeters>
          </Trackpoint>
          <Trackpoint>
            <Time>2021-07-31T13:46:43.000Z</Time>
            <Position>
              <LatitudeDegrees>42.31439840979874134063720703125</LatitudeDegrees>
              <LongitudeDegrees>-2.294151373207569122314453125</LongitudeDegrees>
            </Position>
            <AltitudeMeters>623.5999755859375</AltitudeMeters>
            <DistanceMeters>308981.48095198</DistanceMeters>
          </Trackpoint>
          <Trackpoint>
            <Time>2021-07-31T13:46:48.000Z</Time>
            <Position>
              <LatitudeDegrees>42.31433018110692501068115234375</LatitudeDegrees>
              <LongitudeDegrees>-2.2943307459354400634765625</LongitudeDegrees>
            </Position>
            <AltitudeMeters>624.4000244140625</AltitudeMeters>
            <DistanceMeters>308998.08263844</DistanceMeters>
          </Trackpoint>
          <Trackpoint>
            <Time>2021-07-31T13:46:55.000Z</Time>
            <Position>
              <LatitudeDegrees>42.31419439427554607391357421875</LatitudeDegrees>
              <LongitudeDegrees>-2.29453987441956996917724609375</LongitudeDegrees>
            </Position>
            <AltitudeMeters>625.5999755859375</AltitudeMeters>
            <DistanceMeters>309020.98841351</DistanceMeters>
          </Trackpoint>
          <Trackpoint>
            <Time>2021-07-31T13:47:00.000Z</Time>
            <Position>
              <LatitudeDegrees>42.31404838152229785919189453125</LatitudeDegrees>
              <LongitudeDegrees>-2.29454004205763339996337890625</LongitudeDegrees>
            </Position>
            <AltitudeMeters>626.79998779296875</AltitudeMeters>
            <DistanceMeters>309037.24020436</DistanceMeters>
          </Trackpoint>
          <Trackpoint>
            <Time>2021-07-31T13:47:07.000Z</Time>
            <Position>
              <LatitudeDegrees>42.3139393329620361328125</LatitudeDegrees>
              <LongitudeDegrees>-2.29431741870939731597900390625</LongitudeDegrees>
            </Position>
            <AltitudeMeters>627.79998779296875</AltitudeMeters>
            <DistanceMeters>309059.2185091</DistanceMeters>
          </Trackpoint>
          <Trackpoint>
            <Time>2021-07-31T13:47:13.000Z</Time>
            <Position>
              <LatitudeDegrees>42.313994653522968292236328125</LatitudeDegrees>
              <LongitudeDegrees>-2.29407065548002719879150390625</LongitudeDegrees>
            </Position>
            <AltitudeMeters>629</AltitudeMeters>
            <DistanceMeters>309080.44076376</DistanceMeters>
          </Trackpoint>
          <Trackpoint>
            <Time>2021-07-31T13:47:21.000Z</Time>
            <Position>
              <LatitudeDegrees>42.314103282988071441650390625</LatitudeDegrees>
              <LongitudeDegrees>-2.2937592677772045135498046875</LongitudeDegrees>
            </Position>
            <AltitudeMeters>630</AltitudeMeters>
            <DistanceMeters>309108.77801041</DistanceMeters>
          </Trackpoint>
          <Trackpoint>
            <Time>2021-07-31T13:47:25.000Z</Time>
            <Position>
              <LatitudeDegrees>42.314150892198085784912109375</LatitudeDegrees>
              <LongitudeDegrees>-2.2936011850833892822265625</LongitudeDegrees>
            </Position>
            <AltitudeMeters>631</AltitudeMeters>
            <DistanceMeters>309122.82654595</DistanceMeters>
          </Trackpoint>
          <Trackpoint>
            <Time>2021-07-31T13:47:34.000Z</Time>
            <Position>
              <LatitudeDegrees>42.31426262296736240386962890625</LatitudeDegrees>
              <LongitudeDegrees>-2.29325585067272186279296875</LongitudeDegrees>
            </Position>
            <AltitudeMeters>632.20001220703125</AltitudeMeters>
            <DistanceMeters>309153.85040335</DistanceMeters>
          </Trackpoint>
          <Trackpoint>
            <Time>2021-07-31T13:47:40.000Z</Time>
            <Position>
              <LatitudeDegrees>42.314338646829128265380859375</LatitudeDegrees>
              <LongitudeDegrees>-2.29303683154284954071044921875</LongitudeDegrees>
            </Position>
            <AltitudeMeters>633.20001220703125</AltitudeMeters>
            <DistanceMeters>309173.76343217</DistanceMeters>
          </Trackpoint>
          <Trackpoint>
            <Time>2021-07-31T13:47:47.000Z</Time>
            <Position>
              <LatitudeDegrees>42.3144172690808773040771484375</LatitudeDegrees>
              <LongitudeDegrees>-2.2927685268223285675048828125</LongitudeDegrees>
            </Position>
            <AltitudeMeters>634.4000244140625</AltitudeMeters>
            <DistanceMeters>309197.51630939</DistanceMeters>
          </Trackpoint>
          <Trackpoint>
            <Time>2021-07-31T13:47:53.000Z</Time>
            <Position>
              <LatitudeDegrees>42.3144816420972347259521484375</LatitudeDegrees>
              <LongitudeDegrees>-2.2925361804664134979248046875</LongitudeDegrees>
            </Position>
            <AltitudeMeters>635.4000244140625</AltitudeMeters>
            <DistanceMeters>309217.9371059</DistanceMeters>
          </Trackpoint>
          <Trackpoint>
            <Time>2021-07-31T13:48:00.000Z</Time>
            <Position>
              <LatitudeDegrees>42.3144595138728618621826171875</LatitudeDegrees>
              <LongitudeDegrees>-2.2922552190721035003662109375</LongitudeDegrees>
            </Position>
            <AltitudeMeters>636.4000244140625</AltitudeMeters>
            <DistanceMeters>309241.19206705</DistanceMeters>
          </Trackpoint>
          <Trackpoint>
            <Time>2021-07-31T13:48:19.000Z</Time>
            <Position>
              <LatitudeDegrees>42.31407185085117816925048828125</LatitudeDegrees>
              <LongitudeDegrees>-2.29171249084174633026123046875</LongitudeDegrees>
            </Position>
            <AltitudeMeters>636.79998779296875</AltitudeMeters>
            <DistanceMeters>309303.29680512</DistanceMeters>
          </Trackpoint>
          <Trackpoint>
            <Time>2021-07-31T13:48:26.000Z</Time>
            <Position>
              <LatitudeDegrees>42.31381871737539768218994140625</LatitudeDegrees>
              <LongitudeDegrees>-2.2913964092731475830078125</LongitudeDegrees>
            </Position>
            <AltitudeMeters>635.4000244140625</AltitudeMeters>
            <DistanceMeters>309341.64476477</DistanceMeters>
          </Trackpoint>
          <Trackpoint>
            <Time>2021-07-31T13:48:27.000Z</Time>
            <Position>
              <LatitudeDegrees>42.31376641429960727691650390625</LatitudeDegrees>
              <LongitudeDegrees>-2.291358523070812225341796875</LongitudeDegrees>
            </Position>
            <AltitudeMeters>634.79998779296875</AltitudeMeters>
            <DistanceMeters>309348.2489505</DistanceMeters>
          </Trackpoint>
          <Trackpoint>
            <Time>2021-07-31T13:48:30.000Z</Time>
            <Position>
              <LatitudeDegrees>42.3135737143456935882568359375</LatitudeDegrees>
              <LongitudeDegrees>-2.291361205279827117919921875</LongitudeDegrees>
            </Position>
            <AltitudeMeters>633.79998779296875</AltitudeMeters>
            <DistanceMeters>309369.69763985</DistanceMeters>
          </Trackpoint>
          <Trackpoint>
            <Time>2021-07-31T13:48:33.000Z</Time>
            <Position>
              <LatitudeDegrees>42.3133903183043003082275390625</LatitudeDegrees>
              <LongitudeDegrees>-2.29150428436696529388427734375</LongitudeDegrees>
            </Position>
            <AltitudeMeters>632.79998779296875</AltitudeMeters>
            <DistanceMeters>309393.26311547</DistanceMeters>
          </Trackpoint>
          <Trackpoint>
            <Time>2021-07-31T13:48:34.000Z</Time>
            <Position>
              <LatitudeDegrees>42.31333114206790924072265625</LatitudeDegrees>
              <LongitudeDegrees>-2.2915615327656269073486328125</LongitudeDegrees>
            </Position>
            <AltitudeMeters>632.4000244140625</AltitudeMeters>
            <DistanceMeters>309401.36104206</DistanceMeters>
          </Trackpoint>
          <Trackpoint>
            <Time>2021-07-31T13:48:35.000Z</Time>
            <Position>
              <LatitudeDegrees>42.3132679425179958343505859375</LatitudeDegrees>
              <LongitudeDegrees>-2.2916108183562755584716796875</LongitudeDegrees>
            </Position>
            <AltitudeMeters>631.79998779296875</AltitudeMeters>
            <DistanceMeters>309409.48124022</DistanceMeters>
          </Trackpoint>
          <Trackpoint>
            <Time>2021-07-31T13:48:38.000Z</Time>
            <Position>
              <LatitudeDegrees>42.313053868710994720458984375</LatitudeDegrees>
              <LongitudeDegrees>-2.29166085831820964813232421875</LongitudeDegrees>
            </Position>
            <AltitudeMeters>630.5999755859375</AltitudeMeters>
            <DistanceMeters>309433.66138476</DistanceMeters>
          </Trackpoint>
          <Trackpoint>
            <Time>2021-07-31T13:48:40.000Z</Time>
            <Position>
              <LatitudeDegrees>42.31290659867227077484130859375</LatitudeDegrees>
              <LongitudeDegrees>-2.2916463576257228851318359375</LongitudeDegrees>
            </Position>
            <AltitudeMeters>630.4000244140625</AltitudeMeters>
            <DistanceMeters>309450.09578728</DistanceMeters>
          </Trackpoint>
          <Trackpoint>
            <Time>2021-07-31T13:48:44.000Z</Time>
            <Position>
              <LatitudeDegrees>42.3126020841300487518310546875</LatitudeDegrees>
              <LongitudeDegrees>-2.2916083037853240966796875</LongitudeDegrees>
            </Position>
            <AltitudeMeters>629.4000244140625</AltitudeMeters>
            <DistanceMeters>309484.13339601</DistanceMeters>
          </Trackpoint>
          <Trackpoint>
            <Time>2021-07-31T13:48:47.000Z</Time>
            <Position>
              <LatitudeDegrees>42.31236780993640422821044921875</LatitudeDegrees>
              <LongitudeDegrees>-2.29158827103674411773681640625</LongitudeDegrees>
            </Position>
            <AltitudeMeters>628.20001220703125</AltitudeMeters>
            <DistanceMeters>309510.26055867</DistanceMeters>
          </Trackpoint>
          <Trackpoint>
            <Time>2021-07-31T13:48:52.000Z</Time>
            <Position>
              <LatitudeDegrees>42.3119697533547878265380859375</LatitudeDegrees>
              <LongitudeDegrees>-2.29156848974525928497314453125</LongitudeDegrees>
            </Position>
            <AltitudeMeters>626.79998779296875</AltitudeMeters>
            <DistanceMeters>309554.59497667</DistanceMeters>
          </Trackpoint>
          <Trackpoint>
            <Time>2021-07-31T13:48:55.000Z</Time>
            <Position>
              <LatitudeDegrees>42.31172072701156139373779296875</LatitudeDegrees>
              <LongitudeDegrees>-2.291591875255107879638671875</LongitudeDegrees>
            </Position>
            <AltitudeMeters>625.4000244140625</AltitudeMeters>
            <DistanceMeters>309582.37887695</DistanceMeters>
          </Trackpoint>
          <Trackpoint>
            <Time>2021-07-31T13:48:59.000Z</Time>
            <Position>
              <LatitudeDegrees>42.3113789968192577362060546875</LatitudeDegrees>
              <LongitudeDegrees>-2.2916597686707973480224609375</LongitudeDegrees>
            </Position>
            <AltitudeMeters>624.4000244140625</AltitudeMeters>
            <DistanceMeters>309620.82232153</DistanceMeters>
          </Trackpoint>
          <Trackpoint>
            <Time>2021-07-31T13:49:04.000Z</Time>
            <Position>
              <LatitudeDegrees>42.31096132658421993255615234375</LatitudeDegrees>
              <LongitudeDegrees>-2.29172238148748874664306640625</LongitudeDegrees>
            </Position>
            <AltitudeMeters>623.20001220703125</AltitudeMeters>
            <DistanceMeters>309667.59458232</DistanceMeters>
          </Trackpoint>
          <Trackpoint>
            <Time>2021-07-31T13:49:07.000Z</Time>
            <Position>
              <LatitudeDegrees>42.31073099188506603240966796875</LatitudeDegrees>
              <LongitudeDegrees>-2.29176596738398075103759765625</LongitudeDegrees>
            </Position>
            <AltitudeMeters>622.20001220703125</AltitudeMeters>
            <DistanceMeters>309693.4809477</DistanceMeters>
          </Trackpoint>
          <Trackpoint>
            <Time>2021-07-31T13:49:15.000Z</Time>
            <Position>
              <LatitudeDegrees>42.310195975005626678466796875</LatitudeDegrees>
              <LongitudeDegrees>-2.291886247694492340087890625</LongitudeDegrees>
            </Position>
            <AltitudeMeters>622.79998779296875</AltitudeMeters>
            <DistanceMeters>309753.84677553</DistanceMeters>
          </Trackpoint>
          <Trackpoint>
            <Time>2021-07-31T13:49:20.000Z</Time>
            <Position>
              <LatitudeDegrees>42.3099000938236713409423828125</LatitudeDegrees>
              <LongitudeDegrees>-2.29195724241435527801513671875</LongitudeDegrees>
            </Position>
            <AltitudeMeters>623.20001220703125</AltitudeMeters>
            <DistanceMeters>309787.29347925</DistanceMeters>
          </Trackpoint>
          <Trackpoint>
            <Time>2021-07-31T13:49:29.000Z</Time>
            <Position>
              <LatitudeDegrees>42.3093529231846332550048828125</LatitudeDegrees>
              <LongitudeDegrees>-2.29206671006977558135986328125</LongitudeDegrees>
            </Position>
            <AltitudeMeters>622.20001220703125</AltitudeMeters>
            <DistanceMeters>309848.8575906</DistanceMeters>
          </Trackpoint>
          <Trackpoint>
            <Time>2021-07-31T13:49:39.000Z</Time>
            <Position>
              <LatitudeDegrees>42.30877851136028766632080078125</LatitudeDegrees>
              <LongitudeDegrees>-2.292192019522190093994140625</LongitudeDegrees>
            </Position>
            <AltitudeMeters>622.79998779296875</AltitudeMeters>
            <DistanceMeters>309913.61737266</DistanceMeters>
          </Trackpoint>
          <Trackpoint>
            <Time>2021-07-31T13:49:42.000Z</Time>
            <Position>
              <LatitudeDegrees>42.3086307384073734283447265625</LatitudeDegrees>
              <LongitudeDegrees>-2.29223920963704586029052734375</LongitudeDegrees>
            </Position>
            <AltitudeMeters>622.79998779296875</AltitudeMeters>
            <DistanceMeters>309930.51717318</DistanceMeters>
          </Trackpoint>
          <Trackpoint>
            <Time>2021-07-31T13:49:44.000Z</Time>
            <Position>
              <LatitudeDegrees>42.30854482389986515045166015625</LatitudeDegrees>
              <LongitudeDegrees>-2.29230768978595733642578125</LongitudeDegrees>
            </Position>
            <AltitudeMeters>623.20001220703125</AltitudeMeters>
            <DistanceMeters>309941.61782286</DistanceMeters>
          </Trackpoint>
          <Trackpoint>
            <Time>2021-07-31T13:49:47.000Z</Time>
            <Position>
              <LatitudeDegrees>42.30846854858100414276123046875</LatitudeDegrees>
              <LongitudeDegrees>-2.2924677841365337371826171875</LongitudeDegrees>
            </Position>
            <AltitudeMeters>624.20001220703125</AltitudeMeters>
            <DistanceMeters>309957.29377483</DistanceMeters>
          </Trackpoint>
          <Trackpoint>
            <Time>2021-07-31T13:49:51.000Z</Time>
            <Position>
              <LatitudeDegrees>42.30847558937966823577880859375</LatitudeDegrees>
              <LongitudeDegrees>-2.292701303958892822265625</LongitudeDegrees>
            </Position>
            <AltitudeMeters>625.4000244140625</AltitudeMeters>
            <DistanceMeters>309976.53099378</DistanceMeters>
          </Trackpoint>
          <Trackpoint>
            <Time>2021-07-31T13:49:54.000Z</Time>
            <Position>
              <LatitudeDegrees>42.30848933570086956024169921875</LatitudeDegrees>
              <LongitudeDegrees>-2.29285695590078830718994140625</LongitudeDegrees>
            </Position>
            <AltitudeMeters>626.79998779296875</AltitudeMeters>
            <DistanceMeters>309989.43434797</DistanceMeters>
          </Trackpoint>
          <Trackpoint>
            <Time>2021-07-31T13:49:58.000Z</Time>
            <Position>
              <LatitudeDegrees>42.30848195962607860565185546875</LatitudeDegrees>
              <LongitudeDegrees>-2.29306583292782306671142578125</LongitudeDegrees>
            </Position>
            <AltitudeMeters>627.79998779296875</AltitudeMeters>
            <DistanceMeters>310006.6470412</DistanceMeters>
          </Trackpoint>
          <Trackpoint>
            <Time>2021-07-31T13:50:05.000Z</Time>
            <Position>
              <LatitudeDegrees>42.3084265552461147308349609375</LatitudeDegrees>
              <LongitudeDegrees>-2.29343379847705364227294921875</LongitudeDegrees>
            </Position>
            <AltitudeMeters>629.20001220703125</AltitudeMeters>
            <DistanceMeters>310037.55600475</DistanceMeters>
          </Trackpoint>
          <Trackpoint>
            <Time>2021-07-31T13:50:15.000Z</Time>
            <Position>
              <LatitudeDegrees>42.308111898601055145263671875</LatitudeDegrees>
              <LongitudeDegrees>-2.2935949824750423431396484375</LongitudeDegrees>
            </Position>
            <AltitudeMeters>630.20001220703125</AltitudeMeters>
            <DistanceMeters>310075.00677915</DistanceMeters>
          </Trackpoint>
          <Trackpoint>
            <Time>2021-07-31T13:50:24.000Z</Time>
            <Position>
              <LatitudeDegrees>42.30783957056701183319091796875</LatitudeDegrees>
              <LongitudeDegrees>-2.29350261390209197998046875</LongitudeDegrees>
            </Position>
            <AltitudeMeters>631.4000244140625</AltitudeMeters>
            <DistanceMeters>310106.25655654</DistanceMeters>
          </Trackpoint>
          <Trackpoint>
            <Time>2021-07-31T13:50:40.000Z</Time>
            <Position>
              <LatitudeDegrees>42.3073312081396579742431640625</LatitudeDegrees>
              <LongitudeDegrees>-2.2933066450059413909912109375</LongitudeDegrees>
            </Position>
            <AltitudeMeters>632.20001220703125</AltitudeMeters>
            <DistanceMeters>310165.09275173</DistanceMeters>
          </Trackpoint>
          <Trackpoint>
            <Time>2021-07-31T13:50:53.000Z</Time>
            <Position>
              <LatitudeDegrees>42.30676149018108844757080078125</LatitudeDegrees>
              <LongitudeDegrees>-2.2933019511401653289794921875</LongitudeDegrees>
            </Position>
            <AltitudeMeters>631.4000244140625</AltitudeMeters>
            <DistanceMeters>310228.504556</DistanceMeters>
          </Trackpoint>
          <Trackpoint>
            <Time>2021-07-31T13:51:00.000Z</Time>
            <Position>
              <LatitudeDegrees>42.30643174611032009124755859375</LatitudeDegrees>
              <LongitudeDegrees>-2.293200194835662841796875</LongitudeDegrees>
            </Position>
            <AltitudeMeters>630.5999755859375</AltitudeMeters>
            <DistanceMeters>310266.14953012</DistanceMeters>
          </Trackpoint>
          <Trackpoint>
            <Time>2021-07-31T13:51:03.000Z</Time>
            <Position>
              <LatitudeDegrees>42.3062878288328647613525390625</LatitudeDegrees>
              <LongitudeDegrees>-2.293148227035999298095703125</LongitudeDegrees>
            </Position>
            <AltitudeMeters>630.20001220703125</AltitudeMeters>
            <DistanceMeters>310282.72890065</DistanceMeters>
          </Trackpoint>
          <Trackpoint>
            <Time>2021-07-31T13:51:07.000Z</Time>
            <Position>
              <LatitudeDegrees>42.30608674697577953338623046875</LatitudeDegrees>
              <LongitudeDegrees>-2.29308226145803928375244140625</LongitudeDegrees>
            </Position>
            <AltitudeMeters>629.79998779296875</AltitudeMeters>
            <DistanceMeters>310305.75871849</DistanceMeters>
          </Trackpoint>
          <Trackpoint>
            <Time>2021-07-31T13:51:15.000Z</Time>
            <Position>
              <LatitudeDegrees>42.3057533986866474151611328125</LatitudeDegrees>
              <LongitudeDegrees>-2.2933079861104488372802734375</LongitudeDegrees>
            </Position>
            <AltitudeMeters>630.4000244140625</AltitudeMeters>
            <DistanceMeters>310347.25341485</DistanceMeters>
          </Trackpoint>
          <Trackpoint>
            <Time>2021-07-31T13:51:20.000Z</Time>
            <Position>
              <LatitudeDegrees>42.30561585165560245513916015625</LatitudeDegrees>
              <LongitudeDegrees>-2.29353890754282474517822265625</LongitudeDegrees>
            </Position>
            <AltitudeMeters>631.20001220703125</AltitudeMeters>
            <DistanceMeters>310371.66030082</DistanceMeters>
          </Trackpoint>
          <Trackpoint>
            <Time>2021-07-31T13:51:25.000Z</Time>
            <Position>
              <LatitudeDegrees>42.30549640953540802001953125</LatitudeDegrees>
              <LongitudeDegrees>-2.293776534497737884521484375</LongitudeDegrees>
            </Position>
            <AltitudeMeters>632.5999755859375</AltitudeMeters>
            <DistanceMeters>310395.31069183</DistanceMeters>
          </Trackpoint>
          <Trackpoint>
            <Time>2021-07-31T13:51:29.000Z</Time>
            <Position>
              <LatitudeDegrees>42.30544603429734706878662109375</LatitudeDegrees>
              <LongitudeDegrees>-2.2939765267074108123779296875</LongitudeDegrees>
            </Position>
            <AltitudeMeters>633.5999755859375</AltitudeMeters>
            <DistanceMeters>310412.70161908</DistanceMeters>
          </Trackpoint>
          <Trackpoint>
            <Time>2021-07-31T13:51:33.000Z</Time>
            <Position>
              <LatitudeDegrees>42.3054140992462635040283203125</LatitudeDegrees>
              <LongitudeDegrees>-2.29417358525097370147705078125</LongitudeDegrees>
            </Position>
            <AltitudeMeters>635</AltitudeMeters>
            <DistanceMeters>310429.30711257</DistanceMeters>
          </Trackpoint>
          <Trackpoint>
            <Time>2021-07-31T13:51:43.000Z</Time>
            <Position>
              <LatitudeDegrees>42.30524755083024501800537109375</LatitudeDegrees>
              <LongitudeDegrees>-2.2945930995047092437744140625</LongitudeDegrees>
            </Position>
            <AltitudeMeters>636</AltitudeMeters>
            <DistanceMeters>310468.50053503</DistanceMeters>
          </Trackpoint>
          <Trackpoint>
            <Time>2021-07-31T13:51:50.000Z</Time>
            <Position>
              <LatitudeDegrees>42.30504252947866916656494140625</LatitudeDegrees>
              <LongitudeDegrees>-2.29472343809902667999267578125</LongitudeDegrees>
            </Position>
            <AltitudeMeters>637</AltitudeMeters>
            <DistanceMeters>310493.71612034</DistanceMeters>
          </Trackpoint>
          <Trackpoint>
            <Time>2021-07-31T13:51:56.000Z</Time>
            <Position>
              <LatitudeDegrees>42.304866425693035125732421875</LatitudeDegrees>
              <LongitudeDegrees>-2.294752188026905059814453125</LongitudeDegrees>
            </Position>
            <AltitudeMeters>638</AltitudeMeters>
            <DistanceMeters>310513.45927814</DistanceMeters>
          </Trackpoint>
          <Trackpoint>
            <Time>2021-07-31T13:52:06.000Z</Time>
            <Position>
              <LatitudeDegrees>42.3045678623020648956298828125</LatitudeDegrees>
              <LongitudeDegrees>-2.2946658544242382049560546875</LongitudeDegrees>
            </Position>
            <AltitudeMeters>639.20001220703125</AltitudeMeters>
            <DistanceMeters>310547.44152742</DistanceMeters>
          </Trackpoint>
          <Trackpoint>
            <Time>2021-07-31T13:52:11.000Z</Time>
            <Position>
              <LatitudeDegrees>42.30441254563629627227783203125</LatitudeDegrees>
              <LongitudeDegrees>-2.29459787718951702117919921875</LongitudeDegrees>
            </Position>
            <AltitudeMeters>640.20001220703125</AltitudeMeters>
            <DistanceMeters>310565.61151985</DistanceMeters>
          </Trackpoint>
          <Trackpoint>
            <Time>2021-07-31T13:52:17.000Z</Time>
            <Position>
              <LatitudeDegrees>42.30423820205032825469970703125</LatitudeDegrees>
              <LongitudeDegrees>-2.29450332932174205780029296875</LongitudeDegrees>
            </Position>
            <AltitudeMeters>641.20001220703125</AltitudeMeters>
            <DistanceMeters>310586.51890874</DistanceMeters>
          </Trackpoint>
          <Trackpoint>
            <Time>2021-07-31T13:52:23.000Z</Time>
            <Position>
              <LatitudeDegrees>42.30408078990876674652099609375</LatitudeDegrees>
              <LongitudeDegrees>-2.29440241120755672454833984375</LongitudeDegrees>
            </Position>
            <AltitudeMeters>642.4000244140625</AltitudeMeters>
            <DistanceMeters>310605.90878323</DistanceMeters>
          </Trackpoint>
          <Trackpoint>
            <Time>2021-07-31T13:52:28.000Z</Time>
            <Position>
              <LatitudeDegrees>42.30395908467471599578857421875</LatitudeDegrees>
              <LongitudeDegrees>-2.29432026855647563934326171875</LongitudeDegrees>
            </Position>
            <AltitudeMeters>643.4000244140625</AltitudeMeters>
            <DistanceMeters>310621.0484804</DistanceMeters>
          </Trackpoint>
          <Trackpoint>
            <Time>2021-07-31T13:52:34.000Z</Time>
            <Position>
              <LatitudeDegrees>42.3038046061992645263671875</LatitudeDegrees>
              <LongitudeDegrees>-2.29426410980522632598876953125</LongitudeDegrees>
            </Position>
            <AltitudeMeters>644.5999755859375</AltitudeMeters>
            <DistanceMeters>310638.85325121</DistanceMeters>
          </Trackpoint>
          <Trackpoint>
            <Time>2021-07-31T13:52:39.000Z</Time>
            <Position>
              <LatitudeDegrees>42.30367510579526424407958984375</LatitudeDegrees>
              <LongitudeDegrees>-2.29424298740923404693603515625</LongitudeDegrees>
            </Position>
            <AltitudeMeters>645.5999755859375</AltitudeMeters>
            <DistanceMeters>310653.3715171</DistanceMeters>
          </Trackpoint>
          <Trackpoint>
            <Time>2021-07-31T13:52:46.000Z</Time>
            <Position>
              <LatitudeDegrees>42.30350009165704250335693359375</LatitudeDegrees>
              <LongitudeDegrees>-2.2941843979060649871826171875</LongitudeDegrees>
            </Position>
            <AltitudeMeters>646.79998779296875</AltitudeMeters>
            <DistanceMeters>310673.43903536</DistanceMeters>
          </Trackpoint>
          <Trackpoint>
            <Time>2021-07-31T13:52:51.000Z</Time>
            <Position>
              <LatitudeDegrees>42.30338576249778270721435546875</LatitudeDegrees>
              <LongitudeDegrees>-2.29412279091775417327880859375</LongitudeDegrees>
            </Position>
            <AltitudeMeters>647.79998779296875</AltitudeMeters>
            <DistanceMeters>310687.1373925</DistanceMeters>
          </Trackpoint>
          <Trackpoint>
            <Time>2021-07-31T13:52:58.000Z</Time>
            <Position>
              <LatitudeDegrees>42.30321728624403476715087890625</LatitudeDegrees>
              <LongitudeDegrees>-2.29406495578587055206298828125</LongitudeDegrees>
            </Position>
            <AltitudeMeters>649</AltitudeMeters>
            <DistanceMeters>310706.48414077</DistanceMeters>
          </Trackpoint>
          <Trackpoint>
            <Time>2021-07-31T13:53:06.000Z</Time>
            <Position>
              <LatitudeDegrees>42.303029783070087432861328125</LatitudeDegrees>
              <LongitudeDegrees>-2.2941564023494720458984375</LongitudeDegrees>
            </Position>
            <AltitudeMeters>650</AltitudeMeters>
            <DistanceMeters>310728.66997875</DistanceMeters>
          </Trackpoint>
          <Trackpoint>
            <Time>2021-07-31T13:53:13.000Z</Time>
            <Position>
              <LatitudeDegrees>42.30289491824805736541748046875</LatitudeDegrees>
              <LongitudeDegrees>-2.29432244785130023956298828125</LongitudeDegrees>
            </Position>
            <AltitudeMeters>651</AltitudeMeters>
            <DistanceMeters>310748.97147498</DistanceMeters>
          </Trackpoint>
          <Trackpoint>
            <Time>2021-07-31T13:53:21.000Z</Time>
            <Position>
              <LatitudeDegrees>42.3027630709111690521240234375</LatitudeDegrees>
              <LongitudeDegrees>-2.2945292294025421142578125</LongitudeDegrees>
            </Position>
            <AltitudeMeters>652.20001220703125</AltitudeMeters>
            <DistanceMeters>310771.4458454</DistanceMeters>
          </Trackpoint>
          <Trackpoint>
            <Time>2021-07-31T13:53:28.000Z</Time>
            <Position>
              <LatitudeDegrees>42.30269324965775012969970703125</LatitudeDegrees>
              <LongitudeDegrees>-2.294744811952114105224609375</LongitudeDegrees>
            </Position>
            <AltitudeMeters>653.20001220703125</AltitudeMeters>
            <DistanceMeters>310790.8196462</DistanceMeters>
          </Trackpoint>
          <Trackpoint>
            <Time>2021-07-31T13:53:34.000Z</Time>
            <Position>
              <LatitudeDegrees>42.302679754793643951416015625</LatitudeDegrees>
              <LongitudeDegrees>-2.2949451394379138946533203125</LongitudeDegrees>
            </Position>
            <AltitudeMeters>654.20001220703125</AltitudeMeters>
            <DistanceMeters>310807.37885214</DistanceMeters>
          </Trackpoint>
          <Trackpoint>
            <Time>2021-07-31T13:53:38.000Z</Time>
            <Position>
              <LatitudeDegrees>42.30268034152686595916748046875</LatitudeDegrees>
              <LongitudeDegrees>-2.2950772382318973541259765625</LongitudeDegrees>
            </Position>
            <AltitudeMeters>655.4000244140625</AltitudeMeters>
            <DistanceMeters>310818.25349609</DistanceMeters>
          </Trackpoint>
          <Trackpoint>
            <Time>2021-07-31T13:53:42.000Z</Time>
            <Position>
              <LatitudeDegrees>42.30266257189214229583740234375</LatitudeDegrees>
              <LongitudeDegrees>-2.29520539753139019012451171875</LongitudeDegrees>
            </Position>
            <AltitudeMeters>656.5999755859375</AltitudeMeters>
            <DistanceMeters>310828.9877299</DistanceMeters>
          </Trackpoint>
          <Trackpoint>
            <Time>2021-07-31T13:53:49.000Z</Time>
            <Position>
              <LatitudeDegrees>42.30255176313221454620361328125</LatitudeDegrees>
              <LongitudeDegrees>-2.2953897155821323394775390625</LongitudeDegrees>
            </Position>
            <AltitudeMeters>657.5999755859375</AltitudeMeters>
            <DistanceMeters>310848.54061655</DistanceMeters>
          </Trackpoint>
          <Trackpoint>
            <Time>2021-07-31T13:54:02.000Z</Time>
            <Position>
              <LatitudeDegrees>42.30220508761703968048095703125</LatitudeDegrees>
              <LongitudeDegrees>-2.295671515166759490966796875</LongitudeDegrees>
            </Position>
            <AltitudeMeters>656.5999755859375</AltitudeMeters>
            <DistanceMeters>310893.56262517</DistanceMeters>
          </Trackpoint>
          <Trackpoint>
            <Time>2021-07-31T13:54:06.000Z</Time>
            <Position>
              <LatitudeDegrees>42.30203099548816680908203125</LatitudeDegrees>
              <LongitudeDegrees>-2.2957270033657550811767578125</LongitudeDegrees>
            </Position>
            <AltitudeMeters>655.4000244140625</AltitudeMeters>
            <DistanceMeters>310913.47066513</DistanceMeters>
          </Trackpoint>
          <Trackpoint>
            <Time>2021-07-31T13:54:10.000Z</Time>
            <Position>
              <LatitudeDegrees>42.3018313385546207427978515625</LatitudeDegrees>
              <LongitudeDegrees>-2.29574762284755706787109375</LongitudeDegrees>
            </Position>
            <AltitudeMeters>654.20001220703125</AltitudeMeters>
            <DistanceMeters>310935.75762061</DistanceMeters>
          </Trackpoint>
          <Trackpoint>
            <Time>2021-07-31T13:54:14.000Z</Time>
            <Position>
              <LatitudeDegrees>42.30163000524044036865234375</LatitudeDegrees>
              <LongitudeDegrees>-2.29576748795807361602783203125</LongitudeDegrees>
            </Position>
            <AltitudeMeters>654.20001220703125</AltitudeMeters>
            <DistanceMeters>310958.22596331</DistanceMeters>
          </Trackpoint>
          <Trackpoint>
            <Time>2021-07-31T13:54:19.000Z</Time>
            <Position>
              <LatitudeDegrees>42.30144116096198558807373046875</LatitudeDegrees>
              <LongitudeDegrees>-2.29587075300514698028564453125</LongitudeDegrees>
            </Position>
            <AltitudeMeters>655.20001220703125</AltitudeMeters>
            <DistanceMeters>310980.89854878</DistanceMeters>
          </Trackpoint>
          <Trackpoint>
            <Time>2021-07-31T13:54:23.000Z</Time>
            <Position>
              <LatitudeDegrees>42.30133605189621448516845703125</LatitudeDegrees>
              <LongitudeDegrees>-2.29599262587726116180419921875</LongitudeDegrees>
            </Position>
            <AltitudeMeters>656.20001220703125</AltitudeMeters>
            <DistanceMeters>310996.30987807</DistanceMeters>
          </Trackpoint>
          <Trackpoint>
            <Time>2021-07-31T13:54:29.000Z</Time>
            <Position>
              <LatitudeDegrees>42.3012135922908782958984375</LatitudeDegrees>
              <LongitudeDegrees>-2.29618423618376255035400390625</LongitudeDegrees>
            </Position>
            <AltitudeMeters>657.5999755859375</AltitudeMeters>
            <DistanceMeters>311017.15649552</DistanceMeters>
          </Trackpoint>
          <Trackpoint>
            <Time>2021-07-31T13:54:35.000Z</Time>
            <Position>
              <LatitudeDegrees>42.30110018514096736907958984375</LatitudeDegrees>
              <LongitudeDegrees>-2.2963720746338367462158203125</LongitudeDegrees>
            </Position>
            <AltitudeMeters>658.4000244140625</AltitudeMeters>
            <DistanceMeters>311037.1173087</DistanceMeters>
          </Trackpoint>
          <Trackpoint>
            <Time>2021-07-31T13:54:43.000Z</Time>
            <Position>
              <LatitudeDegrees>42.30094059370458126068115234375</LatitudeDegrees>
              <LongitudeDegrees>-2.296606600284576416015625</LongitudeDegrees>
            </Position>
            <AltitudeMeters>659.5999755859375</AltitudeMeters>
            <DistanceMeters>311063.35173906</DistanceMeters>
          </Trackpoint>
          <Trackpoint>
            <Time>2021-07-31T13:55:00.000Z</Time>
            <Position>
              <LatitudeDegrees>42.30053390376269817352294921875</LatitudeDegrees>
              <LongitudeDegrees>-2.29713792912662029266357421875</LongitudeDegrees>
            </Position>
            <AltitudeMeters>660.20001220703125</AltitudeMeters>
            <DistanceMeters>311126.29716496</DistanceMeters>
          </Trackpoint>
          <Trackpoint>
            <Time>2021-07-31T13:55:16.000Z</Time>
            <Position>
              <LatitudeDegrees>42.3001997172832489013671875</LatitudeDegrees>
              <LongitudeDegrees>-2.29775383137166500091552734375</LongitudeDegrees>
            </Position>
            <AltitudeMeters>660.4000244140625</AltitudeMeters>
            <DistanceMeters>311189.1798681</DistanceMeters>
          </Trackpoint>
          <Trackpoint>
            <Time>2021-07-31T13:55:19.000Z</Time>
            <Position>
              <LatitudeDegrees>42.30015034787356853485107421875</LatitudeDegrees>
              <LongitudeDegrees>-2.2978653945028781890869140625</LongitudeDegrees>
            </Position>
            <AltitudeMeters>661</AltitudeMeters>
            <DistanceMeters>311199.88208701</DistanceMeters>
          </Trackpoint>
          <Trackpoint>
            <Time>2021-07-31T13:55:22.000Z</Time>
            <Position>
              <LatitudeDegrees>42.30009536258876323699951171875</LatitudeDegrees>
              <LongitudeDegrees>-2.29797461070120334625244140625</LongitudeDegrees>
            </Position>
            <AltitudeMeters>662</AltitudeMeters>
            <DistanceMeters>311210.7583916</DistanceMeters>
          </Trackpoint>
          <Trackpoint>
            <Time>2021-07-31T13:55:29.000Z</Time>
            <Position>
              <LatitudeDegrees>42.29995890520513057708740234375</LatitudeDegrees>
              <LongitudeDegrees>-2.29821802116930484771728515625</LongitudeDegrees>
            </Position>
            <AltitudeMeters>663</AltitudeMeters>
            <DistanceMeters>311235.90207235</DistanceMeters>
          </Trackpoint>
          <Trackpoint>
            <Time>2021-07-31T13:55:35.000Z</Time>
            <Position>
              <LatitudeDegrees>42.29983770288527011871337890625</LatitudeDegrees>
              <LongitudeDegrees>-2.29841080494225025177001953125</LongitudeDegrees>
            </Position>
            <AltitudeMeters>664.4000244140625</AltitudeMeters>
            <DistanceMeters>311256.73135589</DistanceMeters>
          </Trackpoint>
          <Trackpoint>
            <Time>2021-07-31T13:55:39.000Z</Time>
            <Position>
              <LatitudeDegrees>42.299747765064239501953125</LatitudeDegrees>
              <LongitudeDegrees>-2.29852848686277866363525390625</LongitudeDegrees>
            </Position>
            <AltitudeMeters>665.5999755859375</AltitudeMeters>
            <DistanceMeters>311270.66176661</DistanceMeters>
          </Trackpoint>
          <Trackpoint>
            <Time>2021-07-31T13:55:45.000Z</Time>
            <Position>
              <LatitudeDegrees>42.29960451833903789520263671875</LatitudeDegrees>
              <LongitudeDegrees>-2.29868740774691104888916015625</LongitudeDegrees>
            </Position>
            <AltitudeMeters>666.79998779296875</AltitudeMeters>
            <DistanceMeters>311291.2858477</DistanceMeters>
          </Trackpoint>
          <Trackpoint>
            <Time>2021-07-31T13:56:01.000Z</Time>
            <Position>
              <LatitudeDegrees>42.2990998439490795135498046875</LatitudeDegrees>
              <LongitudeDegrees>-2.29887315072119235992431640625</LongitudeDegrees>
            </Position>
            <AltitudeMeters>666.5999755859375</AltitudeMeters>
            <DistanceMeters>311349.50117051</DistanceMeters>
          </Trackpoint>
          <Trackpoint>
            <Time>2021-07-31T13:56:16.000Z</Time>
            <Position>
              <LatitudeDegrees>42.29864512570202350616455078125</LatitudeDegrees>
              <LongitudeDegrees>-2.2985108010470867156982421875</LongitudeDegrees>
            </Position>
            <AltitudeMeters>666.5999755859375</AltitudeMeters>
            <DistanceMeters>311408.24904943</DistanceMeters>
          </Trackpoint>
          <Trackpoint>
            <Time>2021-07-31T13:56:27.000Z</Time>
            <Position>
              <LatitudeDegrees>42.29853096418082714080810546875</LatitudeDegrees>
              <LongitudeDegrees>-2.29807770811021327972412109375</LongitudeDegrees>
            </Position>
            <AltitudeMeters>667.79998779296875</AltitudeMeters>
            <DistanceMeters>311446.09951505</DistanceMeters>
          </Trackpoint>
          <Trackpoint>
            <Time>2021-07-31T13:56:32.000Z</Time>
            <Position>
              <LatitudeDegrees>42.2984842769801616668701171875</LatitudeDegrees>
              <LongitudeDegrees>-2.29790386743843555450439453125</LongitudeDegrees>
            </Position>
            <AltitudeMeters>669</AltitudeMeters>
            <DistanceMeters>311461.32515535</DistanceMeters>
          </Trackpoint>
          <Trackpoint>
            <Time>2021-07-31T13:56:39.000Z</Time>
            <Position>
              <LatitudeDegrees>42.2984115220606327056884765625</LatitudeDegrees>
              <LongitudeDegrees>-2.29767370037734508514404296875</LongitudeDegrees>
            </Position>
            <AltitudeMeters>670.20001220703125</AltitudeMeters>
            <DistanceMeters>311481.93149623</DistanceMeters>
          </Trackpoint>
          <Trackpoint>
            <Time>2021-07-31T13:56:46.000Z</Time>
            <Position>
              <LatitudeDegrees>42.2983545251190662384033203125</LatitudeDegrees>
              <LongitudeDegrees>-2.29744219221174716949462890625</LongitudeDegrees>
            </Position>
            <AltitudeMeters>671.20001220703125</AltitudeMeters>
            <DistanceMeters>311502.01835452</DistanceMeters>
          </Trackpoint>
          <Trackpoint>
            <Time>2021-07-31T13:56:52.000Z</Time>
            <Position>
              <LatitudeDegrees>42.29829870164394378662109375</LatitudeDegrees>
              <LongitudeDegrees>-2.2972463071346282958984375</LongitudeDegrees>
            </Position>
            <AltitudeMeters>672.20001220703125</AltitudeMeters>
            <DistanceMeters>311519.30015848</DistanceMeters>
          </Trackpoint>
          <Trackpoint>
            <Time>2021-07-31T13:56:56.000Z</Time>
            <Position>
              <LatitudeDegrees>42.2982613183557987213134765625</LatitudeDegrees>
              <LongitudeDegrees>-2.29711529798805713653564453125</LongitudeDegrees>
            </Position>
            <AltitudeMeters>673.4000244140625</AltitudeMeters>
            <DistanceMeters>311530.86026667</DistanceMeters>
          </Trackpoint>
          <Trackpoint>
            <Time>2021-07-31T13:57:02.000Z</Time>
            <Position>
              <LatitudeDegrees>42.29819267056882381439208984375</LatitudeDegrees>
              <LongitudeDegrees>-2.29692435823380947113037109375</LongitudeDegrees>
            </Position>
            <AltitudeMeters>674.5999755859375</AltitudeMeters>
            <DistanceMeters>311548.33795032</DistanceMeters>
          </Trackpoint>
          <Trackpoint>
            <Time>2021-07-31T13:57:09.000Z</Time>
            <Position>
              <LatitudeDegrees>42.298063673079013824462890625</LatitudeDegrees>
              <LongitudeDegrees>-2.29675102047622203826904296875</LongitudeDegrees>
            </Position>
            <AltitudeMeters>675.79998779296875</AltitudeMeters>
            <DistanceMeters>311568.58087104</DistanceMeters>
          </Trackpoint>
          <Trackpoint>
            <Time>2021-07-31T13:57:26.000Z</Time>
            <Position>
              <LatitudeDegrees>42.2975149936974048614501953125</LatitudeDegrees>
              <LongitudeDegrees>-2.296639122068881988525390625</LongitudeDegrees>
            </Position>
            <AltitudeMeters>674.79998779296875</AltitudeMeters>
            <DistanceMeters>311630.3409252</DistanceMeters>
          </Trackpoint>
          <Trackpoint>
            <Time>2021-07-31T13:57:29.000Z</Time>
            <Position>
              <LatitudeDegrees>42.2973825596272945404052734375</LatitudeDegrees>
              <LongitudeDegrees>-2.2966749966144561767578125</LongitudeDegrees>
            </Position>
            <AltitudeMeters>674.5999755859375</AltitudeMeters>
            <DistanceMeters>311645.37437966</DistanceMeters>
          </Trackpoint>
          <Trackpoint>
            <Time>2021-07-31T13:57:34.000Z</Time>
            <Position>
              <LatitudeDegrees>42.29713596403598785400390625</LatitudeDegrees>
              <LongitudeDegrees>-2.2967888228595256805419921875</LongitudeDegrees>
            </Position>
            <AltitudeMeters>673.20001220703125</AltitudeMeters>
            <DistanceMeters>311674.37668234</DistanceMeters>
          </Trackpoint>
          <Trackpoint>
            <Time>2021-07-31T13:57:36.000Z</Time>
            <Position>
              <LatitudeDegrees>42.297021634876728057861328125</LatitudeDegrees>
              <LongitudeDegrees>-2.29685646481812000274658203125</LongitudeDegrees>
            </Position>
            <AltitudeMeters>672.20001220703125</AltitudeMeters>
            <DistanceMeters>311688.26684481</DistanceMeters>
          </Trackpoint>
          <Trackpoint>
            <Time>2021-07-31T13:57:38.000Z</Time>
            <Position>
              <LatitudeDegrees>42.2969004325568675994873046875</LatitudeDegrees>
              <LongitudeDegrees>-2.296946235001087188720703125</LongitudeDegrees>
            </Position>
            <AltitudeMeters>671</AltitudeMeters>
            <DistanceMeters>311703.64884932</DistanceMeters>
          </Trackpoint>
          <Trackpoint>
            <Time>2021-07-31T13:57:40.000Z</Time>
            <Position>
              <LatitudeDegrees>42.29676690883934497833251953125</LatitudeDegrees>
              <LongitudeDegrees>-2.29704220779240131378173828125</LongitudeDegrees>
            </Position>
            <AltitudeMeters>669.79998779296875</AltitudeMeters>
            <DistanceMeters>311720.4801166</DistanceMeters>
          </Trackpoint>
          <Trackpoint>
            <Time>2021-07-31T13:57:43.000Z</Time>
            <Position>
              <LatitudeDegrees>42.2965426929295063018798828125</LatitudeDegrees>
              <LongitudeDegrees>-2.29719199240207672119140625</LongitudeDegrees>
            </Position>
            <AltitudeMeters>668.4000244140625</AltitudeMeters>
            <DistanceMeters>311748.31629449</DistanceMeters>
          </Trackpoint>
          <Trackpoint>
            <Time>2021-07-31T13:57:45.000Z</Time>
            <Position>
              <LatitudeDegrees>42.29638016782701015472412109375</LatitudeDegrees>
              <LongitudeDegrees>-2.29730238206684589385986328125</LongitudeDegrees>
            </Position>
            <AltitudeMeters>667</AltitudeMeters>
            <DistanceMeters>311768.55988432</DistanceMeters>
          </Trackpoint>
          <Trackpoint>
            <Time>2021-07-31T13:57:47.000Z</Time>
            <Position>
              <LatitudeDegrees>42.29621353559195995330810546875</LatitudeDegrees>
              <LongitudeDegrees>-2.297428362071514129638671875</LongitudeDegrees>
            </Position>
            <AltitudeMeters>665.79998779296875</AltitudeMeters>
            <DistanceMeters>311789.80914107</DistanceMeters>
          </Trackpoint>
          <Trackpoint>
            <Time>2021-07-31T13:57:48.000Z</Time>
            <Position>
              <LatitudeDegrees>42.29612954892218112945556640625</LatitudeDegrees>
              <LongitudeDegrees>-2.29749315418303012847900390625</LongitudeDegrees>
            </Position>
            <AltitudeMeters>664.4000244140625</AltitudeMeters>
            <DistanceMeters>311800.57151955</DistanceMeters>
          </Trackpoint>
          <Trackpoint>
            <Time>2021-07-31T13:57:49.000Z</Time>
            <Position>
              <LatitudeDegrees>42.2960471548140048980712890625</LatitudeDegrees>
              <LongitudeDegrees>-2.297553084790706634521484375</LongitudeDegrees>
            </Position>
            <AltitudeMeters>663.4000244140625</AltitudeMeters>
            <DistanceMeters>311810.98507745</DistanceMeters>
          </Trackpoint>
          <Trackpoint>
            <Time>2021-07-31T13:57:52.000Z</Time>
            <Position>
              <LatitudeDegrees>42.2958144731819629669189453125</LatitudeDegrees>
              <LongitudeDegrees>-2.2976712696254253387451171875</LongitudeDegrees>
            </Position>
            <AltitudeMeters>663</AltitudeMeters>
            <DistanceMeters>311838.65058394</DistanceMeters>
          </Trackpoint>
          <Trackpoint>
            <Time>2021-07-31T13:57:55.000Z</Time>
            <Position>
              <LatitudeDegrees>42.29562831111252307891845703125</LatitudeDegrees>
              <LongitudeDegrees>-2.29771091602742671966552734375</LongitudeDegrees>
            </Position>
            <AltitudeMeters>665</AltitudeMeters>
            <DistanceMeters>311859.6263186</DistanceMeters>
          </Trackpoint>
          <Trackpoint>
            <Time>2021-07-31T13:57:56.000Z</Time>
            <Position>
              <LatitudeDegrees>42.29558036662638187408447265625</LatitudeDegrees>
              <LongitudeDegrees>-2.29771896265447139739990234375</LongitudeDegrees>
            </Position>
            <AltitudeMeters>666.4000244140625</AltitudeMeters>
            <DistanceMeters>311865.00436051</DistanceMeters>
          </Trackpoint>
          <Trackpoint>
            <Time>2021-07-31T13:57:58.000Z</Time>
            <Position>
              <LatitudeDegrees>42.2955009900033473968505859375</LatitudeDegrees>
              <LongitudeDegrees>-2.29772902093827724456787109375</LongitudeDegrees>
            </Position>
            <AltitudeMeters>667.79998779296875</AltitudeMeters>
            <DistanceMeters>311873.87804445</DistanceMeters>
          </Trackpoint>
          <Trackpoint>
            <Time>2021-07-31T13:58:01.000Z</Time>
            <Position>
              <LatitudeDegrees>42.2953977249562740325927734375</LatitudeDegrees>
              <LongitudeDegrees>-2.2977225668728351593017578125</LongitudeDegrees>
            </Position>
            <AltitudeMeters>669</AltitudeMeters>
            <DistanceMeters>311885.38373525</DistanceMeters>
          </Trackpoint>
          <Trackpoint>
            <Time>2021-07-31T13:58:04.000Z</Time>
            <Position>
              <LatitudeDegrees>42.2953046858310699462890625</LatitudeDegrees>
              <LongitudeDegrees>-2.29768577031791210174560546875</LongitudeDegrees>
            </Position>
            <AltitudeMeters>670.5999755859375</AltitudeMeters>
            <DistanceMeters>311896.17292963</DistanceMeters>
          </Trackpoint>
          <Trackpoint>
            <Time>2021-07-31T13:58:08.000Z</Time>
            <Position>
              <LatitudeDegrees>42.29519731365144252777099609375</LatitudeDegrees>
              <LongitudeDegrees>-2.29760865680873394012451171875</LongitudeDegrees>
            </Position>
            <AltitudeMeters>671.5999755859375</AltitudeMeters>
            <DistanceMeters>311909.70514749</DistanceMeters>
          </Trackpoint>
          <Trackpoint>
            <Time>2021-07-31T13:58:13.000Z</Time>
            <Position>
              <LatitudeDegrees>42.29507845826447010040283203125</LatitudeDegrees>
              <LongitudeDegrees>-2.2974903881549835205078125</LongitudeDegrees>
            </Position>
            <AltitudeMeters>672.5999755859375</AltitudeMeters>
            <DistanceMeters>311926.13075627</DistanceMeters>
          </Trackpoint>
          <Trackpoint>
            <Time>2021-07-31T13:58:21.000Z</Time>
            <Position>
              <LatitudeDegrees>42.2949223034083843231201171875</LatitudeDegrees>
              <LongitudeDegrees>-2.2972731292247772216796875</LongitudeDegrees>
            </Position>
            <AltitudeMeters>673.79998779296875</AltitudeMeters>
            <DistanceMeters>311951.07087908</DistanceMeters>
          </Trackpoint>
          <Trackpoint>
            <Time>2021-07-31T13:58:26.000Z</Time>
            <Position>
              <LatitudeDegrees>42.2948428429663181304931640625</LatitudeDegrees>
              <LongitudeDegrees>-2.2971294634044170379638671875</LongitudeDegrees>
            </Position>
            <AltitudeMeters>675</AltitudeMeters>
            <DistanceMeters>311965.83951024</DistanceMeters>
          </Trackpoint>
          <Trackpoint>
            <Time>2021-07-31T13:58:30.000Z</Time>
            <Position>
              <LatitudeDegrees>42.29477939195930957794189453125</LatitudeDegrees>
              <LongitudeDegrees>-2.2970151342451572418212890625</LongitudeDegrees>
            </Position>
            <AltitudeMeters>676.20001220703125</AltitudeMeters>
            <DistanceMeters>311977.60671859</DistanceMeters>
          </Trackpoint>
          <Trackpoint>
            <Time>2021-07-31T13:58:36.000Z</Time>
            <Position>
              <LatitudeDegrees>42.29469439946115016937255859375</LatitudeDegrees>
              <LongitudeDegrees>-2.2968424670398235321044921875</LongitudeDegrees>
            </Position>
            <AltitudeMeters>677.4000244140625</AltitudeMeters>
            <DistanceMeters>311994.68246655</DistanceMeters>
          </Trackpoint>
          <Trackpoint>
            <Time>2021-07-31T13:58:43.000Z</Time>
            <Position>
              <LatitudeDegrees>42.29460622183978557586669921875</LatitudeDegrees>
              <LongitudeDegrees>-2.2966362722218036651611328125</LongitudeDegrees>
            </Position>
            <AltitudeMeters>678.4000244140625</AltitudeMeters>
            <DistanceMeters>312014.2911548</DistanceMeters>
          </Trackpoint>
          <Trackpoint>
            <Time>2021-07-31T13:58:49.000Z</Time>
            <Position>
              <LatitudeDegrees>42.29454017244279384613037109375</LatitudeDegrees>
              <LongitudeDegrees>-2.2964542172849178314208984375</LongitudeDegrees>
            </Position>
            <AltitudeMeters>679.5999755859375</AltitudeMeters>
            <DistanceMeters>312030.98505246</DistanceMeters>
          </Trackpoint>
          <Trackpoint>
            <Time>2021-07-31T13:58:58.000Z</Time>
            <Position>
              <LatitudeDegrees>42.2944854386150836944580078125</LatitudeDegrees>
              <LongitudeDegrees>-2.2961665503680706024169921875</LongitudeDegrees>
            </Position>
            <AltitudeMeters>680.5999755859375</AltitudeMeters>
            <DistanceMeters>312055.43961937</DistanceMeters>
          </Trackpoint>
          <Trackpoint>
            <Time>2021-07-31T13:59:02.000Z</Time>
            <Position>
              <LatitudeDegrees>42.2944820858538150787353515625</LatitudeDegrees>
              <LongitudeDegrees>-2.29603721760213375091552734375</LongitudeDegrees>
            </Position>
            <AltitudeMeters>681.5999755859375</AltitudeMeters>
            <DistanceMeters>312066.09363556</DistanceMeters>
          </Trackpoint>
          <Trackpoint>
            <Time>2021-07-31T13:59:07.000Z</Time>
            <Position>
              <LatitudeDegrees>42.2944777272641658782958984375</LatitudeDegrees>
              <LongitudeDegrees>-2.2958751954138278961181640625</LongitudeDegrees>
            </Position>
            <AltitudeMeters>682.79998779296875</AltitudeMeters>
            <DistanceMeters>312079.44176045</DistanceMeters>
          </Trackpoint>
          <Trackpoint>
            <Time>2021-07-31T13:59:12.000Z</Time>
            <Position>
              <LatitudeDegrees>42.29449306614696979522705078125</LatitudeDegrees>
              <LongitudeDegrees>-2.2957008518278598785400390625</LongitudeDegrees>
            </Position>
            <AltitudeMeters>683.79998779296875</AltitudeMeters>
            <DistanceMeters>312093.89644512</DistanceMeters>
          </Trackpoint>
          <Trackpoint>
            <Time>2021-07-31T13:59:18.000Z</Time>
            <Position>
              <LatitudeDegrees>42.2945270128548145294189453125</LatitudeDegrees>
              <LongitudeDegrees>-2.2954913042485713958740234375</LongitudeDegrees>
            </Position>
            <AltitudeMeters>684.79998779296875</AltitudeMeters>
            <DistanceMeters>312111.55735876</DistanceMeters>
          </Trackpoint>
          <Trackpoint>
            <Time>2021-07-31T13:59:25.000Z</Time>
            <Position>
              <LatitudeDegrees>42.2945876978337764739990234375</LatitudeDegrees>
              <LongitudeDegrees>-2.2952421940863132476806640625</LongitudeDegrees>
            </Position>
            <AltitudeMeters>686</AltitudeMeters>
            <DistanceMeters>312133.14997108</DistanceMeters>
          </Trackpoint>
          <Trackpoint>
            <Time>2021-07-31T13:59:46.000Z</Time>
            <Position>
              <LatitudeDegrees>42.29477335698902606964111328125</LatitudeDegrees>
              <LongitudeDegrees>-2.29452528990805149078369140625</LongitudeDegrees>
            </Position>
            <AltitudeMeters>687</AltitudeMeters>
            <DistanceMeters>312195.68513059</DistanceMeters>
          </Trackpoint>
          <Trackpoint>
            <Time>2021-07-31T13:59:59.000Z</Time>
            <Position>
              <LatitudeDegrees>42.29488533921539783477783203125</LatitudeDegrees>
              <LongitudeDegrees>-2.29406051337718963623046875</LongitudeDegrees>
            </Position>
            <AltitudeMeters>688.20001220703125</AltitudeMeters>
            <DistanceMeters>312235.9285795</DistanceMeters>
          </Trackpoint>
          <Trackpoint>
            <Time>2021-07-31T14:00:05.000Z</Time>
            <Position>
              <LatitudeDegrees>42.294867821037769317626953125</LatitudeDegrees>
              <LongitudeDegrees>-2.29384149424731731414794921875</LongitudeDegrees>
            </Position>
            <AltitudeMeters>689.20001220703125</AltitudeMeters>
            <DistanceMeters>312254.06524388</DistanceMeters>
          </Trackpoint>
          <Trackpoint>
            <Time>2021-07-31T14:00:09.000Z</Time>
            <Position>
              <LatitudeDegrees>42.2947870194911956787109375</LatitudeDegrees>
              <LongitudeDegrees>-2.29374401271343231201171875</LongitudeDegrees>
            </Position>
            <AltitudeMeters>690.20001220703125</AltitudeMeters>
            <DistanceMeters>312266.11903706</DistanceMeters>
          </Trackpoint>
          <Trackpoint>
            <Time>2021-07-31T14:00:16.000Z</Time>
            <Position>
              <LatitudeDegrees>42.294598259031772613525390625</LatitudeDegrees>
              <LongitudeDegrees>-2.2936851717531681060791015625</LongitudeDegrees>
            </Position>
            <AltitudeMeters>691.4000244140625</AltitudeMeters>
            <DistanceMeters>312287.67984259</DistanceMeters>
          </Trackpoint>
          <Trackpoint>
            <Time>2021-07-31T14:00:23.000Z</Time>
            <Position>
              <LatitudeDegrees>42.29441327042877674102783203125</LatitudeDegrees>
              <LongitudeDegrees>-2.29371249675750732421875</LongitudeDegrees>
            </Position>
            <AltitudeMeters>692.79998779296875</AltitudeMeters>
            <DistanceMeters>312308.39174283</DistanceMeters>
          </Trackpoint>
          <Trackpoint>
            <Time>2021-07-31T14:00:28.000Z</Time>
            <Position>
              <LatitudeDegrees>42.29428611695766448974609375</LatitudeDegrees>
              <LongitudeDegrees>-2.29375742375850677490234375</LongitudeDegrees>
            </Position>
            <AltitudeMeters>693.79998779296875</AltitudeMeters>
            <DistanceMeters>312323.01968498</DistanceMeters>
          </Trackpoint>
          <Trackpoint>
            <Time>2021-07-31T14:00:34.000Z</Time>
            <Position>
              <LatitudeDegrees>42.29413214139640331268310546875</LatitudeDegrees>
              <LongitudeDegrees>-2.2938105650246143341064453125</LongitudeDegrees>
            </Position>
            <AltitudeMeters>695</AltitudeMeters>
            <DistanceMeters>312340.70691111</DistanceMeters>
          </Trackpoint>
          <Trackpoint>
            <Time>2021-07-31T14:00:42.000Z</Time>
            <Position>
              <LatitudeDegrees>42.29392091743648052215576171875</LatitudeDegrees>
              <LongitudeDegrees>-2.293818108737468719482421875</LongitudeDegrees>
            </Position>
            <AltitudeMeters>696</AltitudeMeters>
            <DistanceMeters>312364.22482305</DistanceMeters>
          </Trackpoint>
          <Trackpoint>
            <Time>2021-07-31T14:00:48.000Z</Time>
            <Position>
              <LatitudeDegrees>42.29376015253365039825439453125</LatitudeDegrees>
              <LongitudeDegrees>-2.2937948070466518402099609375</LongitudeDegrees>
            </Position>
            <AltitudeMeters>697.20001220703125</AltitudeMeters>
            <DistanceMeters>312382.22103631</DistanceMeters>
          </Trackpoint>
          <Trackpoint>
            <Time>2021-07-31T14:00:56.000Z</Time>
            <Position>
              <LatitudeDegrees>42.29354892857372760772705078125</LatitudeDegrees>
              <LongitudeDegrees>-2.29378097690641880035400390625</LongitudeDegrees>
            </Position>
            <AltitudeMeters>698.4000244140625</AltitudeMeters>
            <DistanceMeters>312405.75813872</DistanceMeters>
          </Trackpoint>
          <Trackpoint>
            <Time>2021-07-31T14:01:03.000Z</Time>
            <Position>
              <LatitudeDegrees>42.2933666221797466278076171875</LatitudeDegrees>
              <LongitudeDegrees>-2.2938008420169353485107421875</LongitudeDegrees>
            </Position>
            <AltitudeMeters>699.4000244140625</AltitudeMeters>
            <DistanceMeters>312426.11471525</DistanceMeters>
          </Trackpoint>
          <Trackpoint>
            <Time>2021-07-31T14:01:13.000Z</Time>
            <Position>
              <LatitudeDegrees>42.29311642237007617950439453125</LatitudeDegrees>
              <LongitudeDegrees>-2.29388290084898471832275390625</LongitudeDegrees>
            </Position>
            <AltitudeMeters>700.5999755859375</AltitudeMeters>
            <DistanceMeters>312454.77027268</DistanceMeters>
          </Trackpoint>
          <Trackpoint>
            <Time>2021-07-31T14:01:20.000Z</Time>
            <Position>
              <LatitudeDegrees>42.2929277457296848297119140625</LatitudeDegrees>
              <LongitudeDegrees>-2.29394492693245410919189453125</LongitudeDegrees>
            </Position>
            <AltitudeMeters>701.5999755859375</AltitudeMeters>
            <DistanceMeters>312476.38253156</DistanceMeters>
          </Trackpoint>
          <Trackpoint>
            <Time>2021-07-31T14:01:28.000Z</Time>
            <Position>
              <LatitudeDegrees>42.29272448457777500152587890625</LatitudeDegrees>
              <LongitudeDegrees>-2.29406897909939289093017578125</LongitudeDegrees>
            </Position>
            <AltitudeMeters>702.5999755859375</AltitudeMeters>
            <DistanceMeters>312501.20452072</DistanceMeters>
          </Trackpoint>
          <Trackpoint>
            <Time>2021-07-31T14:01:35.000Z</Time>
            <Position>
              <LatitudeDegrees>42.29266849346458911895751953125</LatitudeDegrees>
              <LongitudeDegrees>-2.29430995881557464599609375</LongitudeDegrees>
            </Position>
            <AltitudeMeters>703.79998779296875</AltitudeMeters>
            <DistanceMeters>312522.00083004</DistanceMeters>
          </Trackpoint>
          <Trackpoint>
            <Time>2021-07-31T14:01:44.000Z</Time>
            <Position>
              <LatitudeDegrees>42.29274384677410125732421875</LatitudeDegrees>
              <LongitudeDegrees>-2.29466828517615795135498046875</LongitudeDegrees>
            </Position>
            <AltitudeMeters>704.79998779296875</AltitudeMeters>
            <DistanceMeters>312552.67164978</DistanceMeters>
          </Trackpoint>
          <Trackpoint>
            <Time>2021-07-31T14:01:51.000Z</Time>
            <Position>
              <LatitudeDegrees>42.2928020171821117401123046875</LatitudeDegrees>
              <LongitudeDegrees>-2.29493885301053524017333984375</LongitudeDegrees>
            </Position>
            <AltitudeMeters>705.79998779296875</AltitudeMeters>
            <DistanceMeters>312575.86984876</DistanceMeters>
          </Trackpoint>
          <Trackpoint>
            <Time>2021-07-31T14:01:59.000Z</Time>
            <Position>
              <LatitudeDegrees>42.2928623668849468231201171875</LatitudeDegrees>
              <LongitudeDegrees>-2.29524780996143817901611328125</LongitudeDegrees>
            </Position>
            <AltitudeMeters>707</AltitudeMeters>
            <DistanceMeters>312602.17869441</DistanceMeters>
          </Trackpoint>
          <Trackpoint>
            <Time>2021-07-31T14:02:05.000Z</Time>
            <Position>
              <LatitudeDegrees>42.2929103113710880279541015625</LatitudeDegrees>
              <LongitudeDegrees>-2.295477725565433502197265625</LongitudeDegrees>
            </Position>
            <AltitudeMeters>708.20001220703125</AltitudeMeters>
            <DistanceMeters>312621.84578098</DistanceMeters>
          </Trackpoint>
          <Trackpoint>
            <Time>2021-07-31T14:02:10.000Z</Time>
            <Position>
              <LatitudeDegrees>42.29294124059379100799560546875</LatitudeDegrees>
              <LongitudeDegrees>-2.29566514492034912109375</LongitudeDegrees>
            </Position>
            <AltitudeMeters>709.4000244140625</AltitudeMeters>
            <DistanceMeters>312637.65566764</DistanceMeters>
          </Trackpoint>
          <Trackpoint>
            <Time>2021-07-31T14:02:27.000Z</Time>
            <Position>
              <LatitudeDegrees>42.292972169816493988037109375</LatitudeDegrees>
              <LongitudeDegrees>-2.2961383871734142303466796875</LongitudeDegrees>
            </Position>
            <AltitudeMeters>709.79998779296875</AltitudeMeters>
            <DistanceMeters>312676.77033013</DistanceMeters>
          </Trackpoint>
          <Trackpoint>
            <Time>2021-07-31T14:04:10.000Z</Time>
            <Position>
              <LatitudeDegrees>42.29296638630330562591552734375</LatitudeDegrees>
              <LongitudeDegrees>-2.29616738855838775634765625</LongitudeDegrees>
            </Position>
            <AltitudeMeters>710.5999755859375</AltitudeMeters>
            <DistanceMeters>312679.2410247</DistanceMeters>
          </Trackpoint>
          <Trackpoint>
            <Time>2021-07-31T14:04:14.000Z</Time>
            <Position>
              <LatitudeDegrees>42.29295708239078521728515625</LatitudeDegrees>
              <LongitudeDegrees>-2.29628272354602813720703125</LongitudeDegrees>
            </Position>
            <AltitudeMeters>710.5999755859375</AltitudeMeters>
            <DistanceMeters>312688.79298222</DistanceMeters>
          </Trackpoint>
          <Trackpoint>
            <Time>2021-07-31T14:04:23.000Z</Time>
            <Position>
              <LatitudeDegrees>42.29298683814704418182373046875</LatitudeDegrees>
              <LongitudeDegrees>-2.296647839248180389404296875</LongitudeDegrees>
            </Position>
            <AltitudeMeters>711.5999755859375</AltitudeMeters>
            <DistanceMeters>312719.03567262</DistanceMeters>
          </Trackpoint>
          <Trackpoint>
            <Time>2021-07-31T14:04:33.000Z</Time>
            <Position>
              <LatitudeDegrees>42.29301215149462223052978515625</LatitudeDegrees>
              <LongitudeDegrees>-2.2970764897763729095458984375</LongitudeDegrees>
            </Position>
            <AltitudeMeters>712.79998779296875</AltitudeMeters>
            <DistanceMeters>312754.4394689</DistanceMeters>
          </Trackpoint>
          <Trackpoint>
            <Time>2021-07-31T14:04:42.000Z</Time>
            <Position>
              <LatitudeDegrees>42.292991615831851959228515625</LatitudeDegrees>
              <LongitudeDegrees>-2.29746264405548572540283203125</LongitudeDegrees>
            </Position>
            <AltitudeMeters>713.79998779296875</AltitudeMeters>
            <DistanceMeters>312786.31409769</DistanceMeters>
          </Trackpoint>
          <Trackpoint>
            <Time>2021-07-31T14:04:51.000Z</Time>
            <Position>
              <LatitudeDegrees>42.29291425086557865142822265625</LatitudeDegrees>
              <LongitudeDegrees>-2.2978757880628108978271484375</LongitudeDegrees>
            </Position>
            <AltitudeMeters>714.79998779296875</AltitudeMeters>
            <DistanceMeters>312821.40199621</DistanceMeters>
          </Trackpoint>
          <Trackpoint>
            <Time>2021-07-31T14:04:56.000Z</Time>
            <Position>
              <LatitudeDegrees>42.292870916426181793212890625</LatitudeDegrees>
              <LongitudeDegrees>-2.29810989461839199066162109375</LongitudeDegrees>
            </Position>
            <AltitudeMeters>716</AltitudeMeters>
            <DistanceMeters>312841.27098919</DistanceMeters>
          </Trackpoint>
          <Trackpoint>
            <Time>2021-07-31T14:05:07.000Z</Time>
            <Position>
              <LatitudeDegrees>42.29286194778978824615478515625</LatitudeDegrees>
              <LongitudeDegrees>-2.29871607385575771331787109375</LongitudeDegrees>
            </Position>
            <AltitudeMeters>715.79998779296875</AltitudeMeters>
            <DistanceMeters>312891.18869501</DistanceMeters>
          </Trackpoint>
          <Trackpoint>
            <Time>2021-07-31T14:05:16.000Z</Time>
            <Position>
              <LatitudeDegrees>42.2925726883113384246826171875</LatitudeDegrees>
              <LongitudeDegrees>-2.2990341670811176300048828125</LongitudeDegrees>
            </Position>
            <AltitudeMeters>715.79998779296875</AltitudeMeters>
            <DistanceMeters>312932.6905722</DistanceMeters>
          </Trackpoint>
          <Trackpoint>
            <Time>2021-07-31T14:05:19.000Z</Time>
            <Position>
              <LatitudeDegrees>42.29243279434740543365478515625</LatitudeDegrees>
              <LongitudeDegrees>-2.29908504523336887359619140625</LongitudeDegrees>
            </Position>
            <AltitudeMeters>716</AltitudeMeters>
            <DistanceMeters>312948.81462042</DistanceMeters>
          </Trackpoint>
          <Trackpoint>
            <Time>2021-07-31T14:05:24.000Z</Time>
            <Position>
              <LatitudeDegrees>42.29225107468664646148681640625</LatitudeDegrees>
              <LongitudeDegrees>-2.2992980293929576873779296875</LongitudeDegrees>
            </Position>
            <AltitudeMeters>716.4000244140625</AltitudeMeters>
            <DistanceMeters>312975.58349574</DistanceMeters>
          </Trackpoint>
          <Trackpoint>
            <Time>2021-07-31T14:05:26.000Z</Time>
            <Position>
              <LatitudeDegrees>42.2921854443848133087158203125</LatitudeDegrees>
              <LongitudeDegrees>-2.29939408600330352783203125</LongitudeDegrees>
            </Position>
            <AltitudeMeters>716.4000244140625</AltitudeMeters>
            <DistanceMeters>312986.34964925</DistanceMeters>
          </Trackpoint>
          <Trackpoint>
            <Time>2021-07-31T14:05:32.000Z</Time>
            <Position>
              <LatitudeDegrees>42.291903309524059295654296875</LatitudeDegrees>
              <LongitudeDegrees>-2.299471199512481689453125</LongitudeDegrees>
            </Position>
            <AltitudeMeters>715.79998779296875</AltitudeMeters>
            <DistanceMeters>313018.38718409</DistanceMeters>
          </Trackpoint>
          <Trackpoint>
            <Time>2021-07-31T14:05:35.000Z</Time>
            <Position>
              <LatitudeDegrees>42.291751764714717864990234375</LatitudeDegrees>
              <LongitudeDegrees>-2.29943607933819293975830078125</LongitudeDegrees>
            </Position>
            <AltitudeMeters>715.79998779296875</AltitudeMeters>
            <DistanceMeters>313035.50043741</DistanceMeters>
          </Trackpoint>
          <Trackpoint>
            <Time>2021-07-31T14:05:40.000Z</Time>
            <Position>
              <LatitudeDegrees>42.2914987988770008087158203125</LatitudeDegrees>
              <LongitudeDegrees>-2.29947983287274837493896484375</LongitudeDegrees>
            </Position>
            <AltitudeMeters>715.79998779296875</AltitudeMeters>
            <DistanceMeters>313063.88560257</DistanceMeters>
          </Trackpoint>
          <Trackpoint>
            <Time>2021-07-31T14:05:43.000Z</Time>
            <Position>
              <LatitudeDegrees>42.291352450847625732421875</LatitudeDegrees>
              <LongitudeDegrees>-2.29953113012015819549560546875</LongitudeDegrees>
            </Position>
            <AltitudeMeters>715.4000244140625</AltitudeMeters>
            <DistanceMeters>313080.71311388</DistanceMeters>
          </Trackpoint>
          <Trackpoint>
            <Time>2021-07-31T14:05:48.000Z</Time>
            <Position>
              <LatitudeDegrees>42.29111281223595142364501953125</LatitudeDegrees>
              <LongitudeDegrees>-2.2994509153068065643310546875</LongitudeDegrees>
            </Position>
            <AltitudeMeters>715</AltitudeMeters>
            <DistanceMeters>313108.19079122</DistanceMeters>
          </Trackpoint>
          <Trackpoint>
            <Time>2021-07-31T14:05:50.000Z</Time>
            <Position>
              <LatitudeDegrees>42.29103796184062957763671875</LatitudeDegrees>
              <LongitudeDegrees>-2.2993545234203338623046875</LongitudeDegrees>
            </Position>
            <AltitudeMeters>714.5999755859375</AltitudeMeters>
            <DistanceMeters>313119.69726682</DistanceMeters>
          </Trackpoint>
          <Trackpoint>
            <Time>2021-07-31T14:06:01.000Z</Time>
            <Position>
              <LatitudeDegrees>42.290646694600582122802734375</LatitudeDegrees>
              <LongitudeDegrees>-2.29880760423839092254638671875</LongitudeDegrees>
            </Position>
            <AltitudeMeters>715</AltitudeMeters>
            <DistanceMeters>313182.34084894</DistanceMeters>
          </Trackpoint>
          <Trackpoint>
            <Time>2021-07-31T14:06:05.000Z</Time>
            <Position>
              <LatitudeDegrees>42.29051434434950351715087890625</LatitudeDegrees>
              <LongitudeDegrees>-2.2986221127212047576904296875</LongitudeDegrees>
            </Position>
            <AltitudeMeters>716</AltitudeMeters>
            <DistanceMeters>313203.5599121</DistanceMeters>
          </Trackpoint>
          <Trackpoint>
            <Time>2021-07-31T14:06:08.000Z</Time>
            <Position>
              <LatitudeDegrees>42.29040387086570262908935546875</LatitudeDegrees>
              <LongitudeDegrees>-2.29850015603005886077880859375</LongitudeDegrees>
            </Position>
            <AltitudeMeters>717.4000244140625</AltitudeMeters>
            <DistanceMeters>313219.43477819</DistanceMeters>
          </Trackpoint>
          <Trackpoint>
            <Time>2021-07-31T14:06:09.000Z</Time>
            <Position>
              <LatitudeDegrees>42.29036212898790836334228515625</LatitudeDegrees>
              <LongitudeDegrees>-2.2984665445983409881591796875</LongitudeDegrees>
            </Position>
            <AltitudeMeters>717.5999755859375</AltitudeMeters>
            <DistanceMeters>313224.84212389</DistanceMeters>
          </Trackpoint>
          <Trackpoint>
            <Time>2021-07-31T14:06:20.000Z</Time>
            <Position>
              <LatitudeDegrees>42.28986558504402637481689453125</LatitudeDegrees>
              <LongitudeDegrees>-2.29806899093091487884521484375</LongitudeDegrees>
            </Position>
            <AltitudeMeters>716.79998779296875</AltitudeMeters>
            <DistanceMeters>313289.0744191</DistanceMeters>
          </Trackpoint>
          <Trackpoint>
            <Time>2021-07-31T14:06:23.000Z</Time>
            <Position>
              <LatitudeDegrees>42.2897339053452014923095703125</LatitudeDegrees>
              <LongitudeDegrees>-2.2979249060153961181640625</LongitudeDegrees>
            </Position>
            <AltitudeMeters>716.4000244140625</AltitudeMeters>
            <DistanceMeters>313307.93021926</DistanceMeters>
          </Trackpoint>
          <Trackpoint>
            <Time>2021-07-31T14:06:32.000Z</Time>
            <Position>
              <LatitudeDegrees>42.2893758304417133331298828125</LatitudeDegrees>
              <LongitudeDegrees>-2.2974717803299427032470703125</LongitudeDegrees>
            </Position>
            <AltitudeMeters>716.20001220703125</AltitudeMeters>
            <DistanceMeters>313362.52238435</DistanceMeters>
          </Trackpoint>
          <Trackpoint>
            <Time>2021-07-31T14:06:43.000Z</Time>
            <Position>
              <LatitudeDegrees>42.2892651893198490142822265625</LatitudeDegrees>
              <LongitudeDegrees>-2.29673073627054691314697265625</LongitudeDegrees>
            </Position>
            <AltitudeMeters>715.5999755859375</AltitudeMeters>
            <DistanceMeters>313424.76771124</DistanceMeters>
          </Trackpoint>
          <Trackpoint>
            <Time>2021-07-31T14:06:46.000Z</Time>
            <Position>
              <LatitudeDegrees>42.28924264200031757354736328125</LatitudeDegrees>
              <LongitudeDegrees>-2.2965221107006072998046875</LongitudeDegrees>
            </Position>
            <AltitudeMeters>715.4000244140625</AltitudeMeters>
            <DistanceMeters>313442.12771617</DistanceMeters>
          </Trackpoint>
          <Trackpoint>
            <Time>2021-07-31T14:06:51.000Z</Time>
            <Position>
              <LatitudeDegrees>42.2891706414520740509033203125</LatitudeDegrees>
              <LongitudeDegrees>-2.29619462974369525909423828125</LongitudeDegrees>
            </Position>
            <AltitudeMeters>716.20001220703125</AltitudeMeters>
            <DistanceMeters>313470.25690774</DistanceMeters>
          </Trackpoint>
          <Trackpoint>
            <Time>2021-07-31T14:06:53.000Z</Time>
            <Position>
              <LatitudeDegrees>42.289110124111175537109375</LatitudeDegrees>
              <LongitudeDegrees>-2.29609287343919277191162109375</LongitudeDegrees>
            </Position>
            <AltitudeMeters>716.79998779296875</AltitudeMeters>
            <DistanceMeters>313481.00753323</DistanceMeters>
          </Trackpoint>
          <Trackpoint>
            <Time>2021-07-31T14:06:56.000Z</Time>
            <Position>
              <LatitudeDegrees>42.28897760622203350067138671875</LatitudeDegrees>
              <LongitudeDegrees>-2.29603386484086513519287109375</LongitudeDegrees>
            </Position>
            <AltitudeMeters>717.79998779296875</AltitudeMeters>
            <DistanceMeters>313496.53706161</DistanceMeters>
          </Trackpoint>
          <Trackpoint>
            <Time>2021-07-31T14:07:01.000Z</Time>
            <Position>
              <LatitudeDegrees>42.28875012136995792388916015625</LatitudeDegrees>
              <LongitudeDegrees>-2.29615372605621814727783203125</LongitudeDegrees>
            </Position>
            <AltitudeMeters>718.5999755859375</AltitudeMeters>
            <DistanceMeters>313523.7120437</DistanceMeters>
          </Trackpoint>
          <Trackpoint>
            <Time>2021-07-31T14:07:02.000Z</Time>
            <Position>
              <LatitudeDegrees>42.2887072898447513580322265625</LatitudeDegrees>
              <LongitudeDegrees>-2.296189181506633758544921875</LongitudeDegrees>
            </Position>
            <AltitudeMeters>718.79998779296875</AltitudeMeters>
            <DistanceMeters>313529.30249042</DistanceMeters>
          </Trackpoint>
          <Trackpoint>
            <Time>2021-07-31T14:07:08.000Z</Time>
            <Position>
              <LatitudeDegrees>42.28844837285578250885009765625</LatitudeDegrees>
              <LongitudeDegrees>-2.2963995672762393951416015625</LongitudeDegrees>
            </Position>
            <AltitudeMeters>719</AltitudeMeters>
            <DistanceMeters>313562.92624008</DistanceMeters>
          </Trackpoint>
          <Trackpoint>
            <Time>2021-07-31T14:07:12.000Z</Time>
            <Position>
              <LatitudeDegrees>42.2882556729018688201904296875</LatitudeDegrees>
              <LongitudeDegrees>-2.29646704159677028656005859375</LongitudeDegrees>
            </Position>
            <AltitudeMeters>719.79998779296875</AltitudeMeters>
            <DistanceMeters>313585.08193811</DistanceMeters>
          </Trackpoint>
          <Trackpoint>
            <Time>2021-07-31T14:07:13.000Z</Time>
            <Position>
              <LatitudeDegrees>42.28820613585412502288818359375</LatitudeDegrees>
              <LongitudeDegrees>-2.29647492058575153350830078125</LongitudeDegrees>
            </Position>
            <AltitudeMeters>719.79998779296875</AltitudeMeters>
            <DistanceMeters>313590.63429626</DistanceMeters>
          </Trackpoint>
          <Trackpoint>
            <Time>2021-07-31T14:07:22.000Z</Time>
            <Position>
              <LatitudeDegrees>42.2877534292638301849365234375</LatitudeDegrees>
              <LongitudeDegrees>-2.2963968850672245025634765625</LongitudeDegrees>
            </Position>
            <AltitudeMeters>720.79998779296875</AltitudeMeters>
            <DistanceMeters>313641.42951958</DistanceMeters>
          </Trackpoint>
          <Trackpoint>
            <Time>2021-07-31T14:07:32.000Z</Time>
            <Position>
              <LatitudeDegrees>42.28729720227420330047607421875</LatitudeDegrees>
              <LongitudeDegrees>-2.29597167111933231353759765625</LongitudeDegrees>
            </Position>
            <AltitudeMeters>720.20001220703125</AltitudeMeters>
            <DistanceMeters>313703.10866537</DistanceMeters>
          </Trackpoint>
          <Trackpoint>
            <Time>2021-07-31T14:07:42.000Z</Time>
            <Position>
              <LatitudeDegrees>42.2868465073406696319580078125</LatitudeDegrees>
              <LongitudeDegrees>-2.295493148267269134521484375</LongitudeDegrees>
            </Position>
            <AltitudeMeters>719.79998779296875</AltitudeMeters>
            <DistanceMeters>313766.89587384</DistanceMeters>
          </Trackpoint>
          <Trackpoint>
            <Time>2021-07-31T14:07:44.000Z</Time>
            <Position>
              <LatitudeDegrees>42.28676520287990570068359375</LatitudeDegrees>
              <LongitudeDegrees>-2.29538745246827602386474609375</LongitudeDegrees>
            </Position>
            <AltitudeMeters>719.79998779296875</AltitudeMeters>
            <DistanceMeters>313779.45091324</DistanceMeters>
          </Trackpoint>
          <Trackpoint>
            <Time>2021-07-31T14:07:54.000Z</Time>
            <Position>
              <LatitudeDegrees>42.28647141717374324798583984375</LatitudeDegrees>
              <LongitudeDegrees>-2.29473047889769077301025390625</LongitudeDegrees>
            </Position>
            <AltitudeMeters>720.5999755859375</AltitudeMeters>
            <DistanceMeters>313842.66089508</DistanceMeters>
          </Trackpoint>
          <Trackpoint>
            <Time>2021-07-31T14:07:57.000Z</Time>
            <Position>
              <LatitudeDegrees>42.2864264063537120819091796875</LatitudeDegrees>
              <LongitudeDegrees>-2.29450215585529804229736328125</LongitudeDegrees>
            </Position>
            <AltitudeMeters>721</AltitudeMeters>
            <DistanceMeters>313862.1170202</DistanceMeters>
          </Trackpoint>
          <Trackpoint>
            <Time>2021-07-31T14:08:07.000Z</Time>
            <Position>
              <LatitudeDegrees>42.28637049905955791473388671875</LatitudeDegrees>
              <LongitudeDegrees>-2.2937596030533313751220703125</LongitudeDegrees>
            </Position>
            <AltitudeMeters>720.79998779296875</AltitudeMeters>
            <DistanceMeters>313923.5748452</DistanceMeters>
          </Trackpoint>
          <Trackpoint>
            <Time>2021-07-31T14:08:10.000Z</Time>
            <Position>
              <LatitudeDegrees>42.28632506914436817169189453125</LatitudeDegrees>
              <LongitudeDegrees>-2.29354242794215679168701171875</LongitudeDegrees>
            </Position>
            <AltitudeMeters>720.79998779296875</AltitudeMeters>
            <DistanceMeters>313942.15833905</DistanceMeters>
          </Trackpoint>
          <Trackpoint>
            <Time>2021-07-31T14:08:19.000Z</Time>
            <Position>
              <LatitudeDegrees>42.2859449498355388641357421875</LatitudeDegrees>
              <LongitudeDegrees>-2.29314076714217662811279296875</LongitudeDegrees>
            </Position>
            <AltitudeMeters>720.79998779296875</AltitudeMeters>
            <DistanceMeters>313995.85927976</DistanceMeters>
          </Trackpoint>
          <Trackpoint>
            <Time>2021-07-31T14:08:28.000Z</Time>
            <Position>
              <LatitudeDegrees>42.28539367206394672393798828125</LatitudeDegrees>
              <LongitudeDegrees>-2.292972542345523834228515625</LongitudeDegrees>
            </Position>
            <AltitudeMeters>720.79998779296875</AltitudeMeters>
            <DistanceMeters>314058.76172506</DistanceMeters>
          </Trackpoint>
          <Trackpoint>
            <Time>2021-07-31T14:08:34.000Z</Time>
            <Position>
              <LatitudeDegrees>42.2849934361875057220458984375</LatitudeDegrees>
              <LongitudeDegrees>-2.29289635084569454193115234375</LongitudeDegrees>
            </Position>
            <AltitudeMeters>720</AltitudeMeters>
            <DistanceMeters>314103.74841946</DistanceMeters>
          </Trackpoint>
          <Trackpoint>
            <Time>2021-07-31T14:08:36.000Z</Time>
            <Position>
              <LatitudeDegrees>42.28485639207065105438232421875</LatitudeDegrees>
              <LongitudeDegrees>-2.2928570397198200225830078125</LongitudeDegrees>
            </Position>
            <AltitudeMeters>719.5999755859375</AltitudeMeters>
            <DistanceMeters>314119.34148966</DistanceMeters>
          </Trackpoint>
          <Trackpoint>
            <Time>2021-07-31T14:08:38.000Z</Time>
            <Position>
              <LatitudeDegrees>42.28471658192574977874755859375</LatitudeDegrees>
              <LongitudeDegrees>-2.29279073886573314666748046875</LongitudeDegrees>
            </Position>
            <AltitudeMeters>718.79998779296875</AltitudeMeters>
            <DistanceMeters>314135.83211585</DistanceMeters>
          </Trackpoint>
          <Trackpoint>
            <Time>2021-07-31T14:08:39.000Z</Time>
            <Position>
              <LatitudeDegrees>42.2846464253962039947509765625</LatitudeDegrees>
              <LongitudeDegrees>-2.2927453927695751190185546875</LongitudeDegrees>
            </Position>
            <AltitudeMeters>718</AltitudeMeters>
            <DistanceMeters>314144.48737518</DistanceMeters>
          </Trackpoint>
          <Trackpoint>
            <Time>2021-07-31T14:08:40.000Z</Time>
            <Position>
              <LatitudeDegrees>42.28458096273243427276611328125</LatitudeDegrees>
              <LongitudeDegrees>-2.29268495924770832061767578125</LongitudeDegrees>
            </Position>
            <AltitudeMeters>717.20001220703125</AltitudeMeters>
            <DistanceMeters>314153.31105464</DistanceMeters>
          </Trackpoint>
          <Trackpoint>
            <Time>2021-07-31T14:08:44.000Z</Time>
            <Position>
              <LatitudeDegrees>42.28438113816082477569580078125</LatitudeDegrees>
              <LongitudeDegrees>-2.292352952063083648681640625</LongitudeDegrees>
            </Position>
            <AltitudeMeters>716.20001220703125</AltitudeMeters>
            <DistanceMeters>314188.55366896</DistanceMeters>
          </Trackpoint>
          <Trackpoint>
            <Time>2021-07-31T14:08:46.000Z</Time>
            <Position>
              <LatitudeDegrees>42.284278459846973419189453125</LatitudeDegrees>
              <LongitudeDegrees>-2.2922025807201862335205078125</LongitudeDegrees>
            </Position>
            <AltitudeMeters>716.4000244140625</AltitudeMeters>
            <DistanceMeters>314205.40370349</DistanceMeters>
          </Trackpoint>
          <Trackpoint>
            <Time>2021-07-31T14:08:50.000Z</Time>
            <Position>
              <LatitudeDegrees>42.284055165946483612060546875</LatitudeDegrees>
              <LongitudeDegrees>-2.29196109808981418609619140625</LongitudeDegrees>
            </Position>
            <AltitudeMeters>717.4000244140625</AltitudeMeters>
            <DistanceMeters>314237.23240463</DistanceMeters>
          </Trackpoint>
          <Trackpoint>
            <Time>2021-07-31T14:08:53.000Z</Time>
            <Position>
              <LatitudeDegrees>42.2839054651558399200439453125</LatitudeDegrees>
              <LongitudeDegrees>-2.29179295711219310760498046875</LongitudeDegrees>
            </Position>
            <AltitudeMeters>718.5999755859375</AltitudeMeters>
            <DistanceMeters>314258.89578624</DistanceMeters>
          </Trackpoint>
          <Trackpoint>
            <Time>2021-07-31T14:08:57.000Z</Time>
            <Position>
              <LatitudeDegrees>42.28372047655284404754638671875</LatitudeDegrees>
              <LongitudeDegrees>-2.2915787994861602783203125</LongitudeDegrees>
            </Position>
            <AltitudeMeters>719.79998779296875</AltitudeMeters>
            <DistanceMeters>314286.00489433</DistanceMeters>
          </Trackpoint>
          <Trackpoint>
            <Time>2021-07-31T14:09:00.000Z</Time>
            <Position>
              <LatitudeDegrees>42.28359424509108066558837890625</LatitudeDegrees>
              <LongitudeDegrees>-2.291420213878154754638671875</LongitudeDegrees>
            </Position>
            <AltitudeMeters>720.79998779296875</AltitudeMeters>
            <DistanceMeters>314305.18617256</DistanceMeters>
          </Trackpoint>
          <Trackpoint>
            <Time>2021-07-31T14:09:02.000Z</Time>
            <Position>
              <LatitudeDegrees>42.2835004515945911407470703125</LatitudeDegrees>
              <LongitudeDegrees>-2.2913342155516147613525390625</LongitudeDegrees>
            </Position>
            <AltitudeMeters>721.4000244140625</AltitudeMeters>
            <DistanceMeters>314317.80076756</DistanceMeters>
          </Trackpoint>
          <Trackpoint>
            <Time>2021-07-31T14:09:04.000Z</Time>
            <Position>
              <LatitudeDegrees>42.28339358232915401458740234375</LatitudeDegrees>
              <LongitudeDegrees>-2.29126942344009876251220703125</LongitudeDegrees>
            </Position>
            <AltitudeMeters>721.79998779296875</AltitudeMeters>
            <DistanceMeters>314330.83710289</DistanceMeters>
          </Trackpoint>
          <Trackpoint>
            <Time>2021-07-31T14:09:06.000Z</Time>
            <Position>
              <LatitudeDegrees>42.28327564895153045654296875</LatitudeDegrees>
              <LongitudeDegrees>-2.2912239097058773040771484375</LongitudeDegrees>
            </Position>
            <AltitudeMeters>722.20001220703125</AltitudeMeters>
            <DistanceMeters>314344.48824524</DistanceMeters>
          </Trackpoint>
          <Trackpoint>
            <Time>2021-07-31T14:09:10.000Z</Time>
            <Position>
              <LatitudeDegrees>42.28302578441798686981201171875</LatitudeDegrees>
              <LongitudeDegrees>-2.29116599075496196746826171875</LongitudeDegrees>
            </Position>
            <AltitudeMeters>722</AltitudeMeters>
            <DistanceMeters>314372.70461956</DistanceMeters>
          </Trackpoint>
          <Trackpoint>
            <Time>2021-07-31T14:09:16.000Z</Time>
            <Position>
              <LatitudeDegrees>42.28266804479062557220458984375</LatitudeDegrees>
              <LongitudeDegrees>-2.29126171208918094635009765625</LongitudeDegrees>
            </Position>
            <AltitudeMeters>722.5999755859375</AltitudeMeters>
            <DistanceMeters>314413.29448834</DistanceMeters>
          </Trackpoint>
          <Trackpoint>
            <Time>2021-07-31T14:09:17.000Z</Time>
            <Position>
              <LatitudeDegrees>42.28261356242001056671142578125</LatitudeDegrees>
              <LongitudeDegrees>-2.29129188694059848785400390625</LongitudeDegrees>
            </Position>
            <AltitudeMeters>723</AltitudeMeters>
            <DistanceMeters>314419.84926551</DistanceMeters>
          </Trackpoint>
          <Trackpoint>
            <Time>2021-07-31T14:09:23.000Z</Time>
            <Position>
              <LatitudeDegrees>42.28232254274189472198486328125</LatitudeDegrees>
              <LongitudeDegrees>-2.29147695936262607574462890625</LongitudeDegrees>
            </Position>
            <AltitudeMeters>724</AltitudeMeters>
            <DistanceMeters>314455.64647333</DistanceMeters>
          </Trackpoint>
          <Trackpoint>
            <Time>2021-07-31T14:09:24.000Z</Time>
            <Position>
              <LatitudeDegrees>42.28227945975959300994873046875</LatitudeDegrees>
              <LongitudeDegrees>-2.2915048711001873016357421875</LongitudeDegrees>
            </Position>
            <AltitudeMeters>724.4000244140625</AltitudeMeters>
            <DistanceMeters>314460.96457444</DistanceMeters>
          </Trackpoint>
          <Trackpoint>
            <Time>2021-07-31T14:09:27.000Z</Time>
            <Position>
              <LatitudeDegrees>42.2821492888033390045166015625</LatitudeDegrees>
              <LongitudeDegrees>-2.29157955385744571685791015625</LongitudeDegrees>
            </Position>
            <AltitudeMeters>725.4000244140625</AltitudeMeters>
            <DistanceMeters>314476.70376397</DistanceMeters>
          </Trackpoint>
          <Trackpoint>
            <Time>2021-07-31T14:09:32.000Z</Time>
            <Position>
              <LatitudeDegrees>42.2819323651492595672607421875</LatitudeDegrees>
              <LongitudeDegrees>-2.29169078171253204345703125</LongitudeDegrees>
            </Position>
            <AltitudeMeters>726.4000244140625</AltitudeMeters>
            <DistanceMeters>314502.5265633</DistanceMeters>
          </Trackpoint>
          <Trackpoint>
            <Time>2021-07-31T14:09:37.000Z</Time>
            <Position>
              <LatitudeDegrees>42.28171887807548046112060546875</LatitudeDegrees>
              <LongitudeDegrees>-2.29176948778331279754638671875</LongitudeDegrees>
            </Position>
            <AltitudeMeters>727.5999755859375</AltitudeMeters>
            <DistanceMeters>314527.15608715</DistanceMeters>
          </Trackpoint>
          <Trackpoint>
            <Time>2021-07-31T14:09:45.000Z</Time>
            <Position>
              <LatitudeDegrees>42.281386367976665496826171875</LatitudeDegrees>
              <LongitudeDegrees>-2.2919021733105182647705078125</LongitudeDegrees>
            </Position>
            <AltitudeMeters>728.79998779296875</AltitudeMeters>
            <DistanceMeters>314565.74418824</DistanceMeters>
          </Trackpoint>
          <Trackpoint>
            <Time>2021-07-31T14:09:51.000Z</Time>
            <Position>
              <LatitudeDegrees>42.28113792836666107177734375</LatitudeDegrees>
              <LongitudeDegrees>-2.29201792739331722259521484375</LongitudeDegrees>
            </Position>
            <AltitudeMeters>729.79998779296875</AltitudeMeters>
            <DistanceMeters>314594.99297252</DistanceMeters>
          </Trackpoint>
          <Trackpoint>
            <Time>2021-07-31T14:10:01.000Z</Time>
            <Position>
              <LatitudeDegrees>42.2807293944060802459716796875</LatitudeDegrees>
              <LongitudeDegrees>-2.29226385243237018585205078125</LongitudeDegrees>
            </Position>
            <AltitudeMeters>730.79998779296875</AltitudeMeters>
            <DistanceMeters>314644.76955833</DistanceMeters>
          </Trackpoint>
          <Trackpoint>
            <Time>2021-07-31T14:10:12.000Z</Time>
            <Position>
              <LatitudeDegrees>42.2802851535379886627197265625</LatitudeDegrees>
              <LongitudeDegrees>-2.2925522737205028533935546875</LongitudeDegrees>
            </Position>
            <AltitudeMeters>731.79998779296875</AltitudeMeters>
            <DistanceMeters>314699.62310673</DistanceMeters>
          </Trackpoint>
          <Trackpoint>
            <Time>2021-07-31T14:10:15.000Z</Time>
            <Position>
              <LatitudeDegrees>42.2801564075052738189697265625</LatitudeDegrees>
              <LongitudeDegrees>-2.29260466061532497406005859375</LongitudeDegrees>
            </Position>
            <AltitudeMeters>732</AltitudeMeters>
            <DistanceMeters>314714.58792868</DistanceMeters>
          </Trackpoint>
          <Trackpoint>
            <Time>2021-07-31T14:10:18.000Z</Time>
            <Position>
              <LatitudeDegrees>42.28001550771296024322509765625</LatitudeDegrees>
              <LongitudeDegrees>-2.29262243025004863739013671875</LongitudeDegrees>
            </Position>
            <AltitudeMeters>732</AltitudeMeters>
            <DistanceMeters>314730.33858867</DistanceMeters>
          </Trackpoint>
          <Trackpoint>
            <Time>2021-07-31T14:10:29.000Z</Time>
            <Position>
              <LatitudeDegrees>42.27946347557008266448974609375</LatitudeDegrees>
              <LongitudeDegrees>-2.292549423873424530029296875</LongitudeDegrees>
            </Position>
            <AltitudeMeters>731.20001220703125</AltitudeMeters>
            <DistanceMeters>314792.07422055</DistanceMeters>
          </Trackpoint>
          <Trackpoint>
            <Time>2021-07-31T14:10:33.000Z</Time>
            <Position>
              <LatitudeDegrees>42.2792585380375385284423828125</LatitudeDegrees>
              <LongitudeDegrees>-2.29250843636691570281982421875</LongitudeDegrees>
            </Position>
            <AltitudeMeters>731</AltitudeMeters>
            <DistanceMeters>314815.1326442</DistanceMeters>
          </Trackpoint>
          <Trackpoint>
            <Time>2021-07-31T14:10:44.000Z</Time>
            <Position>
              <LatitudeDegrees>42.2786999680101871490478515625</LatitudeDegrees>
              <LongitudeDegrees>-2.29239578358829021453857421875</LongitudeDegrees>
            </Position>
            <AltitudeMeters>731.4000244140625</AltitudeMeters>
            <DistanceMeters>314877.9910021</DistanceMeters>
          </Trackpoint>
          <Trackpoint>
            <Time>2021-07-31T14:10:56.000Z</Time>
            <Position>
              <LatitudeDegrees>42.2781224548816680908203125</LatitudeDegrees>
              <LongitudeDegrees>-2.29231917299330234527587890625</LongitudeDegrees>
            </Position>
            <AltitudeMeters>732.20001220703125</AltitudeMeters>
            <DistanceMeters>314942.57827681</DistanceMeters>
          </Trackpoint>
          <Trackpoint>
            <Time>2021-07-31T14:11:01.000Z</Time>
            <Position>
              <LatitudeDegrees>42.27789673022925853729248046875</LatitudeDegrees>
              <LongitudeDegrees>-2.2923095338046550750732421875</LongitudeDegrees>
            </Position>
            <AltitudeMeters>733</AltitudeMeters>
            <DistanceMeters>314967.71459414</DistanceMeters>
          </Trackpoint>
          <Trackpoint>
            <Time>2021-07-31T14:11:06.000Z</Time>
            <Position>
              <LatitudeDegrees>42.2776780463755130767822265625</LatitudeDegrees>
              <LongitudeDegrees>-2.29229771532118320465087890625</LongitudeDegrees>
            </Position>
            <AltitudeMeters>733.79998779296875</AltitudeMeters>
            <DistanceMeters>314992.07407655</DistanceMeters>
          </Trackpoint>
          <Trackpoint>
            <Time>2021-07-31T14:11:10.000Z</Time>
            <Position>
              <LatitudeDegrees>42.2775154374539852142333984375</LatitudeDegrees>
              <LongitudeDegrees>-2.2922937758266925811767578125</LongitudeDegrees>
            </Position>
            <AltitudeMeters>735</AltitudeMeters>
            <DistanceMeters>315010.17560559</DistanceMeters>
          </Trackpoint>
          <Trackpoint>
            <Time>2021-07-31T14:11:16.000Z</Time>
            <Position>
              <LatitudeDegrees>42.27727512829005718231201171875</LatitudeDegrees>
              <LongitudeDegrees>-2.292290590703487396240234375</LongitudeDegrees>
            </Position>
            <AltitudeMeters>736.20001220703125</AltitudeMeters>
            <DistanceMeters>315036.92389557</DistanceMeters>
          </Trackpoint>
          <Trackpoint>
            <Time>2021-07-31T14:11:23.000Z</Time>
            <Position>
              <LatitudeDegrees>42.276998944580554962158203125</LatitudeDegrees>
              <LongitudeDegrees>-2.2922793589532375335693359375</LongitudeDegrees>
            </Position>
            <AltitudeMeters>737.20001220703125</AltitudeMeters>
            <DistanceMeters>315067.67762944</DistanceMeters>
          </Trackpoint>
          <Trackpoint>
            <Time>2021-07-31T14:11:31.000Z</Time>
            <Position>
              <LatitudeDegrees>42.27669191546738147735595703125</LatitudeDegrees>
              <LongitudeDegrees>-2.2922753356397151947021484375</LongitudeDegrees>
            </Position>
            <AltitudeMeters>738.4000244140625</AltitudeMeters>
            <DistanceMeters>315101.8522536</DistanceMeters>
          </Trackpoint>
          <Trackpoint>
            <Time>2021-07-31T14:11:40.000Z</Time>
            <Position>
              <LatitudeDegrees>42.2763506881892681121826171875</LatitudeDegrees>
              <LongitudeDegrees>-2.29225832037627696990966796875</LongitudeDegrees>
            </Position>
            <AltitudeMeters>739.4000244140625</AltitudeMeters>
            <DistanceMeters>315139.85723732</DistanceMeters>
          </Trackpoint>
          <Trackpoint>
            <Time>2021-07-31T14:11:53.000Z</Time>
            <Position>
              <LatitudeDegrees>42.2758243046700954437255859375</LatitudeDegrees>
              <LongitudeDegrees>-2.2922361083328723907470703125</LongitudeDegrees>
            </Position>
            <AltitudeMeters>740.4000244140625</AltitudeMeters>
            <DistanceMeters>315198.47331665</DistanceMeters>
          </Trackpoint>
          <Trackpoint>
            <Time>2021-07-31T14:12:05.000Z</Time>
            <Position>
              <LatitudeDegrees>42.275335304439067840576171875</LatitudeDegrees>
              <LongitudeDegrees>-2.2922206856310367584228515625</LongitudeDegrees>
            </Position>
            <AltitudeMeters>741.5999755859375</AltitudeMeters>
            <DistanceMeters>315252.91475079</DistanceMeters>
          </Trackpoint>
          <Trackpoint>
            <Time>2021-07-31T14:12:15.000Z</Time>
            <Position>
              <LatitudeDegrees>42.2749225795269012451171875</LatitudeDegrees>
              <LongitudeDegrees>-2.29220987297594547271728515625</LongitudeDegrees>
            </Position>
            <AltitudeMeters>742.5999755859375</AltitudeMeters>
            <DistanceMeters>315298.86053569</DistanceMeters>
          </Trackpoint>
          <Trackpoint>
            <Time>2021-07-31T14:12:22.000Z</Time>
            <Position>
              <LatitudeDegrees>42.27465159259736537933349609375</LatitudeDegrees>
              <LongitudeDegrees>-2.2921945340931415557861328125</LongitudeDegrees>
            </Position>
            <AltitudeMeters>743.79998779296875</AltitudeMeters>
            <DistanceMeters>315329.04838564</DistanceMeters>
          </Trackpoint>
          <Trackpoint>
            <Time>2021-07-31T14:12:28.000Z</Time>
            <Position>
              <LatitudeDegrees>42.27443047799170017242431640625</LatitudeDegrees>
              <LongitudeDegrees>-2.29219042696058750152587890625</LongitudeDegrees>
            </Position>
            <AltitudeMeters>744.79998779296875</AltitudeMeters>
            <DistanceMeters>315353.6612219</DistanceMeters>
          </Trackpoint>
          <Trackpoint>
            <Time>2021-07-31T14:12:33.000Z</Time>
            <Position>
              <LatitudeDegrees>42.27425496093928813934326171875</LatitudeDegrees>
              <LongitudeDegrees>-2.29219562374055385589599609375</LongitudeDegrees>
            </Position>
            <AltitudeMeters>745.79998779296875</AltitudeMeters>
            <DistanceMeters>315373.20117308</DistanceMeters>
          </Trackpoint>
          <Trackpoint>
            <Time>2021-07-31T14:12:39.000Z</Time>
            <Position>
              <LatitudeDegrees>42.2740560583770275115966796875</LatitudeDegrees>
              <LongitudeDegrees>-2.2922190092504024505615234375</LongitudeDegrees>
            </Position>
            <AltitudeMeters>747</AltitudeMeters>
            <DistanceMeters>315395.4232063</DistanceMeters>
          </Trackpoint>
          <Trackpoint>
            <Time>2021-07-31T14:12:44.000Z</Time>
            <Position>
              <LatitudeDegrees>42.2738884203135967254638671875</LatitudeDegrees>
              <LongitudeDegrees>-2.292258739471435546875</LongitudeDegrees>
            </Position>
            <AltitudeMeters>748.20001220703125</AltitudeMeters>
            <DistanceMeters>315414.36620442</DistanceMeters>
          </Trackpoint>
          <Trackpoint>
            <Time>2021-07-31T14:12:50.000Z</Time>
            <Position>
              <LatitudeDegrees>42.27368080057203769683837890625</LatitudeDegrees>
              <LongitudeDegrees>-2.2922991402447223663330078125</LongitudeDegrees>
            </Position>
            <AltitudeMeters>749.20001220703125</AltitudeMeters>
            <DistanceMeters>315437.71301307</DistanceMeters>
          </Trackpoint>
          <Trackpoint>
            <Time>2021-07-31T14:13:04.000Z</Time>
            <Position>
              <LatitudeDegrees>42.27311535738408565521240234375</LatitudeDegrees>
              <LongitudeDegrees>-2.29240961372852325439453125</LongitudeDegrees>
            </Position>
            <AltitudeMeters>748.79998779296875</AltitudeMeters>
            <DistanceMeters>315501.30221782</DistanceMeters>
          </Trackpoint>
          <Trackpoint>
            <Time>2021-07-31T14:13:08.000Z</Time>
            <Position>
              <LatitudeDegrees>42.272909916937351226806640625</LatitudeDegrees>
              <LongitudeDegrees>-2.2925234399735927581787109375</LongitudeDegrees>
            </Position>
            <AltitudeMeters>748.20001220703125</AltitudeMeters>
            <DistanceMeters>315526.01519336</DistanceMeters>
          </Trackpoint>
          <Trackpoint>
            <Time>2021-07-31T14:13:18.000Z</Time>
            <Position>
              <LatitudeDegrees>42.2724403627216815948486328125</LatitudeDegrees>
              <LongitudeDegrees>-2.29289107024669647216796875</LongitudeDegrees>
            </Position>
            <AltitudeMeters>747.20001220703125</AltitudeMeters>
            <DistanceMeters>315586.41451987</DistanceMeters>
          </Trackpoint>
          <Trackpoint>
            <Time>2021-07-31T14:13:19.000Z</Time>
            <Position>
              <LatitudeDegrees>42.2723944298923015594482421875</LatitudeDegrees>
              <LongitudeDegrees>-2.2929264418780803680419921875</LongitudeDegrees>
            </Position>
            <AltitudeMeters>747</AltitudeMeters>
            <DistanceMeters>315592.29850773</DistanceMeters>
          </Trackpoint>
          <Trackpoint>
            <Time>2021-07-31T14:13:22.000Z</Time>
            <Position>
              <LatitudeDegrees>42.27225336246192455291748046875</LatitudeDegrees>
              <LongitudeDegrees>-2.29301922954618930816650390625</LongitudeDegrees>
            </Position>
            <AltitudeMeters>746.79998779296875</AltitudeMeters>
            <DistanceMeters>315609.76016748</DistanceMeters>
          </Trackpoint>
          <Trackpoint>
            <Time>2021-07-31T14:13:26.000Z</Time>
            <Position>
              <LatitudeDegrees>42.27205194532871246337890625</LatitudeDegrees>
              <LongitudeDegrees>-2.29301671497523784637451171875</LongitudeDegrees>
            </Position>
            <AltitudeMeters>747</AltitudeMeters>
            <DistanceMeters>315632.1792231</DistanceMeters>
          </Trackpoint>
          <Trackpoint>
            <Time>2021-07-31T14:13:37.000Z</Time>
            <Position>
              <LatitudeDegrees>42.2715129889547824859619140625</LatitudeDegrees>
              <LongitudeDegrees>-2.29297648184001445770263671875</LongitudeDegrees>
            </Position>
            <AltitudeMeters>747.4000244140625</AltitudeMeters>
            <DistanceMeters>315692.25760403</DistanceMeters>
          </Trackpoint>
          <Trackpoint>
            <Time>2021-07-31T14:13:42.000Z</Time>
            <Position>
              <LatitudeDegrees>42.271284498274326324462890625</LatitudeDegrees>
              <LongitudeDegrees>-2.293033562600612640380859375</LongitudeDegrees>
            </Position>
            <AltitudeMeters>748.20001220703125</AltitudeMeters>
            <DistanceMeters>315718.11988858</DistanceMeters>
          </Trackpoint>
          <Trackpoint>
            <Time>2021-07-31T14:13:50.000Z</Time>
            <Position>
              <LatitudeDegrees>42.27093338035047054290771484375</LatitudeDegrees>
              <LongitudeDegrees>-2.29317379184067249298095703125</LongitudeDegrees>
            </Position>
            <AltitudeMeters>749.20001220703125</AltitudeMeters>
            <DistanceMeters>315758.87084057</DistanceMeters>
          </Trackpoint>
          <Trackpoint>
            <Time>2021-07-31T14:13:51.000Z</Time>
            <Position>
              <LatitudeDegrees>42.27089867927134037017822265625</LatitudeDegrees>
              <LongitudeDegrees>-2.29321184568107128143310546875</LongitudeDegrees>
            </Position>
            <AltitudeMeters>749.20001220703125</AltitudeMeters>
            <DistanceMeters>315763.84501482</DistanceMeters>
          </Trackpoint>
          <Trackpoint>
            <Time>2021-07-31T14:13:56.000Z</Time>
            <Position>
              <LatitudeDegrees>42.2707911394536495208740234375</LatitudeDegrees>
              <LongitudeDegrees>-2.29346682317554950714111328125</LongitudeDegrees>
            </Position>
            <AltitudeMeters>749.5999755859375</AltitudeMeters>
            <DistanceMeters>315788.01675527</DistanceMeters>
          </Trackpoint>
          <Trackpoint>
            <Time>2021-07-31T14:13:57.000Z</Time>
            <Position>
              <LatitudeDegrees>42.2707733698189258575439453125</LatitudeDegrees>
              <LongitudeDegrees>-2.29351778514683246612548828125</LongitudeDegrees>
            </Position>
            <AltitudeMeters>749.79998779296875</AltitudeMeters>
            <DistanceMeters>315792.65655076</DistanceMeters>
          </Trackpoint>
          <Trackpoint>
            <Time>2021-07-31T14:14:02.000Z</Time>
            <Position>
              <LatitudeDegrees>42.270669601857662200927734375</LatitudeDegrees>
              <LongitudeDegrees>-2.293753735721111297607421875</LongitudeDegrees>
            </Position>
            <AltitudeMeters>750.20001220703125</AltitudeMeters>
            <DistanceMeters>315815.26292478</DistanceMeters>
          </Trackpoint>
          <Trackpoint>
            <Time>2021-07-31T14:14:15.000Z</Time>
            <Position>
              <LatitudeDegrees>42.27026266045868396759033203125</LatitudeDegrees>
              <LongitudeDegrees>-2.29423376731574535369873046875</LongitudeDegrees>
            </Position>
            <AltitudeMeters>751.20001220703125</AltitudeMeters>
            <DistanceMeters>315875.38427755</DistanceMeters>
          </Trackpoint>
          <Trackpoint>
            <Time>2021-07-31T14:14:16.000Z</Time>
            <Position>
              <LatitudeDegrees>42.27023147977888584136962890625</LatitudeDegrees>
              <LongitudeDegrees>-2.2942685522139072418212890625</LongitudeDegrees>
            </Position>
            <AltitudeMeters>751.20001220703125</AltitudeMeters>
            <DistanceMeters>315879.88477324</DistanceMeters>
          </Trackpoint>
          <Trackpoint>
            <Time>2021-07-31T14:14:26.000Z</Time>
            <Position>
              <LatitudeDegrees>42.269915230572223663330078125</LatitudeDegrees>
              <LongitudeDegrees>-2.29460810311138629913330078125</LongitudeDegrees>
            </Position>
            <AltitudeMeters>752.20001220703125</AltitudeMeters>
            <DistanceMeters>315924.84114753</DistanceMeters>
          </Trackpoint>
          <Trackpoint>
            <Time>2021-07-31T14:14:40.000Z</Time>
            <Position>
              <LatitudeDegrees>42.26952086202800273895263671875</LatitudeDegrees>
              <LongitudeDegrees>-2.29513750411570072174072265625</LongitudeDegrees>
            </Position>
            <AltitudeMeters>753.4000244140625</AltitudeMeters>
            <DistanceMeters>315986.71090965</DistanceMeters>
          </Trackpoint>
          <Trackpoint>
            <Time>2021-07-31T14:14:47.000Z</Time>
            <Position>
              <LatitudeDegrees>42.26937216706573963165283203125</LatitudeDegrees>
              <LongitudeDegrees>-2.29539935477077960968017578125</LongitudeDegrees>
            </Position>
            <AltitudeMeters>754.4000244140625</AltitudeMeters>
            <DistanceMeters>316013.89585873</DistanceMeters>
          </Trackpoint>
          <Trackpoint>
            <Time>2021-07-31T14:14:55.000Z</Time>
            <Position>
              <LatitudeDegrees>42.26920478045940399169921875</LatitudeDegrees>
              <LongitudeDegrees>-2.295695655047893524169921875</LongitudeDegrees>
            </Position>
            <AltitudeMeters>755.5999755859375</AltitudeMeters>
            <DistanceMeters>316044.59860633</DistanceMeters>
          </Trackpoint>
          <Trackpoint>
            <Time>2021-07-31T14:15:05.000Z</Time>
            <Position>
              <LatitudeDegrees>42.26895533502101898193359375</LatitudeDegrees>
              <LongitudeDegrees>-2.29603470303118228912353515625</LongitudeDegrees>
            </Position>
            <AltitudeMeters>756.79998779296875</AltitudeMeters>
            <DistanceMeters>316083.97660357</DistanceMeters>
          </Trackpoint>
          <Trackpoint>
            <Time>2021-07-31T14:15:08.000Z</Time>
            <Position>
              <LatitudeDegrees>42.268843352794647216796875</LatitudeDegrees>
              <LongitudeDegrees>-2.29608717374503612518310546875</LongitudeDegrees>
            </Position>
            <AltitudeMeters>757.4000244140625</AltitudeMeters>
            <DistanceMeters>316097.16787239</DistanceMeters>
          </Trackpoint>
          <Trackpoint>
            <Time>2021-07-31T14:15:21.000Z</Time>
            <Position>
              <LatitudeDegrees>42.26826961152255535125732421875</LatitudeDegrees>
              <LongitudeDegrees>-2.29619345627725124359130859375</LongitudeDegrees>
            </Position>
            <AltitudeMeters>757.4000244140625</AltitudeMeters>
            <DistanceMeters>316161.62358982</DistanceMeters>
          </Trackpoint>
          <Trackpoint>
            <Time>2021-07-31T14:15:33.000Z</Time>
            <Position>
              <LatitudeDegrees>42.26772763766348361968994140625</LatitudeDegrees>
              <LongitudeDegrees>-2.2963673807680606842041015625</LongitudeDegrees>
            </Position>
            <AltitudeMeters>757.4000244140625</AltitudeMeters>
            <DistanceMeters>316223.62391508</DistanceMeters>
          </Trackpoint>
          <Trackpoint>
            <Time>2021-07-31T14:15:37.000Z</Time>
            <Position>
              <LatitudeDegrees>42.2675540484488010406494140625</LatitudeDegrees>
              <LongitudeDegrees>-2.2964294068515300750732421875</LongitudeDegrees>
            </Position>
            <AltitudeMeters>757.79998779296875</AltitudeMeters>
            <DistanceMeters>316243.60846463</DistanceMeters>
          </Trackpoint>
          <Trackpoint>
            <Time>2021-07-31T14:15:45.000Z</Time>
            <Position>
              <LatitudeDegrees>42.26723042316734790802001953125</LatitudeDegrees>
              <LongitudeDegrees>-2.29654331691563129425048828125</LongitudeDegrees>
            </Position>
            <AltitudeMeters>759</AltitudeMeters>
            <DistanceMeters>316280.830442</DistanceMeters>
          </Trackpoint>
          <Trackpoint>
            <Time>2021-07-31T14:15:51.000Z</Time>
            <Position>
              <LatitudeDegrees>42.26699640043079853057861328125</LatitudeDegrees>
              <LongitudeDegrees>-2.296618334949016571044921875</LongitudeDegrees>
            </Position>
            <AltitudeMeters>759.79998779296875</AltitudeMeters>
            <DistanceMeters>316307.60049797</DistanceMeters>
          </Trackpoint>
          <Trackpoint>
            <Time>2021-07-31T14:15:58.000Z</Time>
            <Position>
              <LatitudeDegrees>42.2667215578258037567138671875</LatitudeDegrees>
              <LongitudeDegrees>-2.29671330191195011138916015625</LongitudeDegrees>
            </Position>
            <AltitudeMeters>760.79998779296875</AltitudeMeters>
            <DistanceMeters>316339.17525988</DistanceMeters>
          </Trackpoint>
          <Trackpoint>
            <Time>2021-07-31T14:16:05.000Z</Time>
            <Position>
              <LatitudeDegrees>42.2664473019540309906005859375</LatitudeDegrees>
              <LongitudeDegrees>-2.2968059219419956207275390625</LongitudeDegrees>
            </Position>
            <AltitudeMeters>762</AltitudeMeters>
            <DistanceMeters>316370.63929237</DistanceMeters>
          </Trackpoint>
          <Trackpoint>
            <Time>2021-07-31T14:16:14.000Z</Time>
            <Position>
              <LatitudeDegrees>42.26610724814236164093017578125</LatitudeDegrees>
              <LongitudeDegrees>-2.2969101928174495697021484375</LongitudeDegrees>
            </Position>
            <AltitudeMeters>763</AltitudeMeters>
            <DistanceMeters>316409.45023144</DistanceMeters>
          </Trackpoint>
          <Trackpoint>
            <Time>2021-07-31T14:16:27.000Z</Time>
            <Position>
              <LatitudeDegrees>42.2655755840241909027099609375</LatitudeDegrees>
              <LongitudeDegrees>-2.297070957720279693603515625</LongitudeDegrees>
            </Position>
            <AltitudeMeters>763.5999755859375</AltitudeMeters>
            <DistanceMeters>316470.0890407</DistanceMeters>
          </Trackpoint>
          <Trackpoint>
            <Time>2021-07-31T14:16:29.000Z</Time>
            <Position>
              <LatitudeDegrees>42.2655004821717739105224609375</LatitudeDegrees>
              <LongitudeDegrees>-2.2970959357917308807373046875</LongitudeDegrees>
            </Position>
            <AltitudeMeters>764</AltitudeMeters>
            <DistanceMeters>316478.69774777</DistanceMeters>
          </Trackpoint>
          <Trackpoint>
            <Time>2021-07-31T14:16:34.000Z</Time>
            <Position>
              <LatitudeDegrees>42.2653247974812984466552734375</LatitudeDegrees>
              <LongitudeDegrees>-2.29714949615299701690673828125</LongitudeDegrees>
            </Position>
            <AltitudeMeters>765</AltitudeMeters>
            <DistanceMeters>316498.74365512</DistanceMeters>
          </Trackpoint>
          <Trackpoint>
            <Time>2021-07-31T14:16:39.000Z</Time>
            <Position>
              <LatitudeDegrees>42.265156991779804229736328125</LatitudeDegrees>
              <LongitudeDegrees>-2.2972106002271175384521484375</LongitudeDegrees>
            </Position>
            <AltitudeMeters>766.20001220703125</AltitudeMeters>
            <DistanceMeters>316518.08713587</DistanceMeters>
          </Trackpoint>
          <Trackpoint>
            <Time>2021-07-31T14:16:44.000Z</Time>
            <Position>
              <LatitudeDegrees>42.26498994044959545135498046875</LatitudeDegrees>
              <LongitudeDegrees>-2.297256700694561004638671875</LongitudeDegrees>
            </Position>
            <AltitudeMeters>767.4000244140625</AltitudeMeters>
            <DistanceMeters>316537.06394932</DistanceMeters>
          </Trackpoint>
          <Trackpoint>
            <Time>2021-07-31T14:16:50.000Z</Time>
            <Position>
              <LatitudeDegrees>42.26479179225862026214599609375</LatitudeDegrees>
              <LongitudeDegrees>-2.297276817262172698974609375</LongitudeDegrees>
            </Position>
            <AltitudeMeters>768.4000244140625</AltitudeMeters>
            <DistanceMeters>316559.18048569</DistanceMeters>
          </Trackpoint>
          <Trackpoint>
            <Time>2021-07-31T14:16:57.000Z</Time>
            <Position>
              <LatitudeDegrees>42.264557182788848876953125</LatitudeDegrees>
              <LongitudeDegrees>-2.2972226701676845550537109375</LongitudeDegrees>
            </Position>
            <AltitudeMeters>769.4000244140625</AltitudeMeters>
            <DistanceMeters>316585.67096134</DistanceMeters>
          </Trackpoint>
          <Trackpoint>
            <Time>2021-07-31T14:17:07.000Z</Time>
            <Position>
              <LatitudeDegrees>42.26420036517083644866943359375</LatitudeDegrees>
              <LongitudeDegrees>-2.297121919691562652587890625</LongitudeDegrees>
            </Position>
            <AltitudeMeters>770.4000244140625</AltitudeMeters>
            <DistanceMeters>316626.24302852</DistanceMeters>
          </Trackpoint>
          <Trackpoint>
            <Time>2021-07-31T14:17:19.000Z</Time>
            <Position>
              <LatitudeDegrees>42.26374782621860504150390625</LatitudeDegrees>
              <LongitudeDegrees>-2.29699007235467433929443359375</LongitudeDegrees>
            </Position>
            <AltitudeMeters>771.5999755859375</AltitudeMeters>
            <DistanceMeters>316677.76889305</DistanceMeters>
          </Trackpoint>
          <Trackpoint>
            <Time>2021-07-31T14:17:31.000Z</Time>
            <Position>
              <LatitudeDegrees>42.2632947005331516265869140625</LatitudeDegrees>
              <LongitudeDegrees>-2.29683919809758663177490234375</LongitudeDegrees>
            </Position>
            <AltitudeMeters>772.5999755859375</AltitudeMeters>
            <DistanceMeters>316729.71122877</DistanceMeters>
          </Trackpoint>
          <Trackpoint>
            <Time>2021-07-31T14:17:44.000Z</Time>
            <Position>
              <LatitudeDegrees>42.26279337890446186065673828125</LatitudeDegrees>
              <LongitudeDegrees>-2.2964872419834136962890625</LongitudeDegrees>
            </Position>
            <AltitudeMeters>772.5999755859375</AltitudeMeters>
            <DistanceMeters>316792.59120341</DistanceMeters>
          </Trackpoint>
          <Trackpoint>
            <Time>2021-07-31T14:17:46.000Z</Time>
            <Position>
              <LatitudeDegrees>42.2626999206840991973876953125</LatitudeDegrees>
              <LongitudeDegrees>-2.29641859419643878936767578125</LongitudeDegrees>
            </Position>
            <AltitudeMeters>771.5999755859375</AltitudeMeters>
            <DistanceMeters>316804.43108968</DistanceMeters>
          </Trackpoint>
          <Trackpoint>
            <Time>2021-07-31T14:17:50.000Z</Time>
            <Position>
              <LatitudeDegrees>42.2624950669705867767333984375</LatitudeDegrees>
              <LongitudeDegrees>-2.2962619364261627197265625</LongitudeDegrees>
            </Position>
            <AltitudeMeters>770.5999755859375</AltitudeMeters>
            <DistanceMeters>316830.62987038</DistanceMeters>
          </Trackpoint>
          <Trackpoint>
            <Time>2021-07-31T14:17:59.000Z</Time>
            <Position>
              <LatitudeDegrees>42.26202174089848995208740234375</LatitudeDegrees>
              <LongitudeDegrees>-2.29589170776307582855224609375</LongitudeDegrees>
            </Position>
            <AltitudeMeters>770.5999755859375</AltitudeMeters>
            <DistanceMeters>316891.5021768</DistanceMeters>
          </Trackpoint>
          <Trackpoint>
            <Time>2021-07-31T14:18:05.000Z</Time>
            <Position>
              <LatitudeDegrees>42.26170574314892292022705078125</LatitudeDegrees>
              <LongitudeDegrees>-2.29572038166224956512451171875</LongitudeDegrees>
            </Position>
            <AltitudeMeters>770.5999755859375</AltitudeMeters>
            <DistanceMeters>316929.39913549</DistanceMeters>
          </Trackpoint>
          <Trackpoint>
            <Time>2021-07-31T14:18:09.000Z</Time>
            <Position>
              <LatitudeDegrees>42.2614734806120395660400390625</LatitudeDegrees>
              <LongitudeDegrees>-2.29570445604622364044189453125</LongitudeDegrees>
            </Position>
            <AltitudeMeters>770.4000244140625</AltitudeMeters>
            <DistanceMeters>316955.28375664</DistanceMeters>
          </Trackpoint>
          <Trackpoint>
            <Time>2021-07-31T14:18:19.000Z</Time>
            <Position>
              <LatitudeDegrees>42.260937206447124481201171875</LatitudeDegrees>
              <LongitudeDegrees>-2.2957585193216800689697265625</LongitudeDegrees>
            </Position>
            <AltitudeMeters>771.5999755859375</AltitudeMeters>
            <DistanceMeters>317015.13806599</DistanceMeters>
          </Trackpoint>
          <Trackpoint>
            <Time>2021-07-31T14:18:26.000Z</Time>
            <Position>
              <LatitudeDegrees>42.26059514097869396209716796875</LatitudeDegrees>
              <LongitudeDegrees>-2.2957893647253513336181640625</LongitudeDegrees>
            </Position>
            <AltitudeMeters>772.5999755859375</AltitudeMeters>
            <DistanceMeters>317053.29540389</DistanceMeters>
          </Trackpoint>
          <Trackpoint>
            <Time>2021-07-31T14:18:35.000Z</Time>
            <Position>
              <LatitudeDegrees>42.26016967557370662689208984375</LatitudeDegrees>
              <LongitudeDegrees>-2.29583923704922199249267578125</LongitudeDegrees>
            </Position>
            <AltitudeMeters>773.5999755859375</AltitudeMeters>
            <DistanceMeters>317100.82852252</DistanceMeters>
          </Trackpoint>
          <Trackpoint>
            <Time>2021-07-31T14:18:47.000Z</Time>
            <Position>
              <LatitudeDegrees>42.2596391849219799041748046875</LatitudeDegrees>
              <LongitudeDegrees>-2.296047694981098175048828125</LongitudeDegrees>
            </Position>
            <AltitudeMeters>774</AltitudeMeters>
            <DistanceMeters>317162.31954503</DistanceMeters>
          </Trackpoint>
          <Trackpoint>
            <Time>2021-07-31T14:18:59.000Z</Time>
            <Position>
              <LatitudeDegrees>42.25916166789829730987548828125</LatitudeDegrees>
              <LongitudeDegrees>-2.296395711600780487060546875</LongitudeDegrees>
            </Position>
            <AltitudeMeters>774.79998779296875</AltitudeMeters>
            <DistanceMeters>317222.70690985</DistanceMeters>
          </Trackpoint>
          <Trackpoint>
            <Time>2021-07-31T14:19:06.000Z</Time>
            <Position>
              <LatitudeDegrees>42.25890518166124820709228515625</LatitudeDegrees>
              <LongitudeDegrees>-2.2965735755860805511474609375</LongitudeDegrees>
            </Position>
            <AltitudeMeters>776</AltitudeMeters>
            <DistanceMeters>317254.79471714</DistanceMeters>
          </Trackpoint>
          <Trackpoint>
            <Time>2021-07-31T14:19:13.000Z</Time>
            <Position>
              <LatitudeDegrees>42.2586464323103427886962890625</LatitudeDegrees>
              <LongitudeDegrees>-2.2966781817376613616943359375</LongitudeDegrees>
            </Position>
            <AltitudeMeters>777.20001220703125</AltitudeMeters>
            <DistanceMeters>317284.85561882</DistanceMeters>
          </Trackpoint>
          <Trackpoint>
            <Time>2021-07-31T14:19:17.000Z</Time>
            <Position>
              <LatitudeDegrees>42.25850813090801239013671875</LatitudeDegrees>
              <LongitudeDegrees>-2.29675068520009517669677734375</LongitudeDegrees>
            </Position>
            <AltitudeMeters>778.20001220703125</AltitudeMeters>
            <DistanceMeters>317301.36731371</DistanceMeters>
          </Trackpoint>
          <Trackpoint>
            <Time>2021-07-31T14:19:27.000Z</Time>
            <Position>
              <LatitudeDegrees>42.2582122497260570526123046875</LatitudeDegrees>
              <LongitudeDegrees>-2.2970463149249553680419921875</LongitudeDegrees>
            </Position>
            <AltitudeMeters>779.4000244140625</AltitudeMeters>
            <DistanceMeters>317342.32570163</DistanceMeters>
          </Trackpoint>
          <Trackpoint>
            <Time>2021-07-31T14:19:34.000Z</Time>
            <Position>
              <LatitudeDegrees>42.25798484869301319122314453125</LatitudeDegrees>
              <LongitudeDegrees>-2.29718671180307865142822265625</LongitudeDegrees>
            </Position>
            <AltitudeMeters>780.4000244140625</AltitudeMeters>
            <DistanceMeters>317370.15311932</DistanceMeters>
          </Trackpoint>
          <Trackpoint>
            <Time>2021-07-31T14:19:41.000Z</Time>
            <Position>
              <LatitudeDegrees>42.2577323019504547119140625</LatitudeDegrees>
              <LongitudeDegrees>-2.2972917370498180389404296875</LongitudeDegrees>
            </Position>
            <AltitudeMeters>781.20001220703125</AltitudeMeters>
            <DistanceMeters>317399.56323497</DistanceMeters>
          </Trackpoint>
          <Trackpoint>
            <Time>2021-07-31T14:19:51.000Z</Time>
            <Position>
              <LatitudeDegrees>42.2573559544980525970458984375</LatitudeDegrees>
              <LongitudeDegrees>-2.29742911644279956817626953125</LongitudeDegrees>
            </Position>
            <AltitudeMeters>782.20001220703125</AltitudeMeters>
            <DistanceMeters>317442.953311</DistanceMeters>
          </Trackpoint>
          <Trackpoint>
            <Time>2021-07-31T14:20:02.000Z</Time>
            <Position>
              <LatitudeDegrees>42.25694783963263034820556640625</LatitudeDegrees>
              <LongitudeDegrees>-2.29759641923010349273681640625</LongitudeDegrees>
            </Position>
            <AltitudeMeters>783.4000244140625</AltitudeMeters>
            <DistanceMeters>317490.42207973</DistanceMeters>
          </Trackpoint>
          <Trackpoint>
            <Time>2021-07-31T14:20:09.000Z</Time>
            <Position>
              <LatitudeDegrees>42.25669135339558124542236328125</LatitudeDegrees>
              <LongitudeDegrees>-2.297704629600048065185546875</LongitudeDegrees>
            </Position>
            <AltitudeMeters>784.4000244140625</AltitudeMeters>
            <DistanceMeters>317520.32893583</DistanceMeters>
          </Trackpoint>
          <Trackpoint>
            <Time>2021-07-31T14:20:22.000Z</Time>
            <Position>
              <LatitudeDegrees>42.25620436482131481170654296875</LatitudeDegrees>
              <LongitudeDegrees>-2.29806999675929546356201171875</LongitudeDegrees>
            </Position>
            <AltitudeMeters>784.79998779296875</AltitudeMeters>
            <DistanceMeters>317582.32795026</DistanceMeters>
          </Trackpoint>
          <Trackpoint>
            <Time>2021-07-31T14:20:34.000Z</Time>
            <Position>
              <LatitudeDegrees>42.2557057254016399383544921875</LatitudeDegrees>
              <LongitudeDegrees>-2.29846545495092868804931640625</LongitudeDegrees>
            </Position>
            <AltitudeMeters>785.20001220703125</AltitudeMeters>
            <DistanceMeters>317646.68257822</DistanceMeters>
          </Trackpoint>
          <Trackpoint>
            <Time>2021-07-31T14:20:38.000Z</Time>
            <Position>
              <LatitudeDegrees>42.25553297437727451324462890625</LatitudeDegrees>
              <LongitudeDegrees>-2.29859017767012119293212890625</LongitudeDegrees>
            </Position>
            <AltitudeMeters>785.20001220703125</AltitudeMeters>
            <DistanceMeters>317668.48328884</DistanceMeters>
          </Trackpoint>
          <Trackpoint>
            <Time>2021-07-31T14:20:44.000Z</Time>
            <Position>
              <LatitudeDegrees>42.25524212233722209930419921875</LatitudeDegrees>
              <LongitudeDegrees>-2.2985632717609405517578125</LongitudeDegrees>
            </Position>
            <AltitudeMeters>784.5999755859375</AltitudeMeters>
            <DistanceMeters>317700.93153769</DistanceMeters>
          </Trackpoint>
          <Trackpoint>
            <Time>2021-07-31T14:20:49.000Z</Time>
            <Position>
              <LatitudeDegrees>42.255011536180973052978515625</LatitudeDegrees>
              <LongitudeDegrees>-2.298435866832733154296875</LongitudeDegrees>
            </Position>
            <AltitudeMeters>784.5999755859375</AltitudeMeters>
            <DistanceMeters>317728.65931687</DistanceMeters>
          </Trackpoint>
          <Trackpoint>
            <Time>2021-07-31T14:20:58.000Z</Time>
            <Position>
              <LatitudeDegrees>42.25457961671054363250732421875</LatitudeDegrees>
              <LongitudeDegrees>-2.2985034249722957611083984375</LongitudeDegrees>
            </Position>
            <AltitudeMeters>784.79998779296875</AltitudeMeters>
            <DistanceMeters>317777.05395115</DistanceMeters>
          </Trackpoint>
          <Trackpoint>
            <Time>2021-07-31T14:21:00.000Z</Time>
            <Position>
              <LatitudeDegrees>42.2544953785836696624755859375</LatitudeDegrees>
              <LongitudeDegrees>-2.2985587455332279205322265625</LongitudeDegrees>
            </Position>
            <AltitudeMeters>785.4000244140625</AltitudeMeters>
            <DistanceMeters>317787.47877585</DistanceMeters>
          </Trackpoint>
          <Trackpoint>
            <Time>2021-07-31T14:21:06.000Z</Time>
            <Position>
              <LatitudeDegrees>42.254257164895534515380859375</LatitudeDegrees>
              <LongitudeDegrees>-2.2987109608948230743408203125</LongitudeDegrees>
            </Position>
            <AltitudeMeters>786.4000244140625</AltitudeMeters>
            <DistanceMeters>317816.80833674</DistanceMeters>
          </Trackpoint>
          <Trackpoint>
            <Time>2021-07-31T14:21:14.000Z</Time>
            <Position>
              <LatitudeDegrees>42.25396472029387950897216796875</LatitudeDegrees>
              <LongitudeDegrees>-2.298896871507167816162109375</LongitudeDegrees>
            </Position>
            <AltitudeMeters>787.4000244140625</AltitudeMeters>
            <DistanceMeters>317852.78143968</DistanceMeters>
          </Trackpoint>
          <Trackpoint>
            <Time>2021-07-31T14:21:20.000Z</Time>
            <Position>
              <LatitudeDegrees>42.25373120047152042388916015625</LatitudeDegrees>
              <LongitudeDegrees>-2.298964597284793853759765625</LongitudeDegrees>
            </Position>
            <AltitudeMeters>788</AltitudeMeters>
            <DistanceMeters>317879.36481272</DistanceMeters>
          </Trackpoint>
          <Trackpoint>
            <Time>2021-07-31T14:21:24.000Z</Time>
            <Position>
              <LatitudeDegrees>42.25357462652027606964111328125</LatitudeDegrees>
              <LongitudeDegrees>-2.29892260394990444183349609375</LongitudeDegrees>
            </Position>
            <AltitudeMeters>788.4000244140625</AltitudeMeters>
            <DistanceMeters>317897.13175906</DistanceMeters>
          </Trackpoint>
          <Trackpoint>
            <Time>2021-07-31T14:21:25.000Z</Time>
            <Position>
              <LatitudeDegrees>42.25353791378438472747802734375</LatitudeDegrees>
              <LongitudeDegrees>-2.29890458285808563232421875</LongitudeDegrees>
            </Position>
            <AltitudeMeters>788.5999755859375</AltitudeMeters>
            <DistanceMeters>317901.47916633</DistanceMeters>
          </Trackpoint>
          <Trackpoint>
            <Time>2021-07-31T14:21:38.000Z</Time>
            <Position>
              <LatitudeDegrees>42.2530464828014373779296875</LatitudeDegrees>
              <LongitudeDegrees>-2.298587076365947723388671875</LongitudeDegrees>
            </Position>
            <AltitudeMeters>789.5999755859375</AltitudeMeters>
            <DistanceMeters>317962.10911445</DistanceMeters>
          </Trackpoint>
          <Trackpoint>
            <Time>2021-07-31T14:21:46.000Z</Time>
            <Position>
              <LatitudeDegrees>42.25276728160679340362548828125</LatitudeDegrees>
              <LongitudeDegrees>-2.298406027257442474365234375</LongitudeDegrees>
            </Position>
            <AltitudeMeters>790.5999755859375</AltitudeMeters>
            <DistanceMeters>317996.57906453</DistanceMeters>
          </Trackpoint>
          <Trackpoint>
            <Time>2021-07-31T14:21:56.000Z</Time>
            <Position>
              <LatitudeDegrees>42.25243384949862957000732421875</LatitudeDegrees>
              <LongitudeDegrees>-2.2981929592788219451904296875</LongitudeDegrees>
            </Position>
            <AltitudeMeters>792</AltitudeMeters>
            <DistanceMeters>318037.63258481</DistanceMeters>
          </Trackpoint>
          <Trackpoint>
            <Time>2021-07-31T14:22:06.000Z</Time>
            <Position>
              <LatitudeDegrees>42.25214132107794284820556640625</LatitudeDegrees>
              <LongitudeDegrees>-2.29788978584110736846923828125</LongitudeDegrees>
            </Position>
            <AltitudeMeters>793</AltitudeMeters>
            <DistanceMeters>318078.66828458</DistanceMeters>
          </Trackpoint>
          <Trackpoint>
            <Time>2021-07-31T14:22:13.000Z</Time>
            <Position>
              <LatitudeDegrees>42.25197150371968746185302734375</LatitudeDegrees>
              <LongitudeDegrees>-2.29766464792191982269287109375</LongitudeDegrees>
            </Position>
            <AltitudeMeters>794</AltitudeMeters>
            <DistanceMeters>318105.14989587</DistanceMeters>
          </Trackpoint>
          <Trackpoint>
            <Time>2021-07-31T14:22:20.000Z</Time>
            <Position>
              <LatitudeDegrees>42.25178844295442104339599609375</LatitudeDegrees>
              <LongitudeDegrees>-2.29748460464179515838623046875</LongitudeDegrees>
            </Position>
            <AltitudeMeters>795.20001220703125</AltitudeMeters>
            <DistanceMeters>318130.35222745</DistanceMeters>
          </Trackpoint>
          <Trackpoint>
            <Time>2021-07-31T14:22:36.000Z</Time>
            <Position>
              <LatitudeDegrees>42.25124361924827098846435546875</LatitudeDegrees>
              <LongitudeDegrees>-2.2974090836942195892333984375</LongitudeDegrees>
            </Position>
            <AltitudeMeters>795.5999755859375</AltitudeMeters>
            <DistanceMeters>318191.310513</DistanceMeters>
          </Trackpoint>
          <Trackpoint>
            <Time>2021-07-31T14:22:44.000Z</Time>
            <Position>
              <LatitudeDegrees>42.250921837985515594482421875</LatitudeDegrees>
              <LongitudeDegrees>-2.29746700264513492584228515625</LongitudeDegrees>
            </Position>
            <AltitudeMeters>795.5999755859375</AltitudeMeters>
            <DistanceMeters>318227.44191418</DistanceMeters>
          </Trackpoint>
          <Trackpoint>
            <Time>2021-07-31T14:22:47.000Z</Time>
            <Position>
              <LatitudeDegrees>42.25080013275146484375</LatitudeDegrees>
              <LongitudeDegrees>-2.2974912263453006744384765625</LongitudeDegrees>
            </Position>
            <AltitudeMeters>796</AltitudeMeters>
            <DistanceMeters>318241.13433716</DistanceMeters>
          </Trackpoint>
          <Trackpoint>
            <Time>2021-07-31T14:22:52.000Z</Time>
            <Position>
              <LatitudeDegrees>42.2505987994372844696044921875</LatitudeDegrees>
              <LongitudeDegrees>-2.29749449528753757476806640625</LongitudeDegrees>
            </Position>
            <AltitudeMeters>797</AltitudeMeters>
            <DistanceMeters>318263.54473122</DistanceMeters>
          </Trackpoint>
          <Trackpoint>
            <Time>2021-07-31T14:22:57.000Z</Time>
            <Position>
              <LatitudeDegrees>42.25041699595749378204345703125</LatitudeDegrees>
              <LongitudeDegrees>-2.29747052304446697235107421875</LongitudeDegrees>
            </Position>
            <AltitudeMeters>798</AltitudeMeters>
            <DistanceMeters>318283.87600711</DistanceMeters>
          </Trackpoint>
          <Trackpoint>
            <Time>2021-07-31T14:23:05.000Z</Time>
            <Position>
              <LatitudeDegrees>42.250166796147823333740234375</LatitudeDegrees>
              <LongitudeDegrees>-2.297320403158664703369140625</LongitudeDegrees>
            </Position>
            <AltitudeMeters>799.20001220703125</AltitudeMeters>
            <DistanceMeters>318314.346705</DistanceMeters>
          </Trackpoint>
          <Trackpoint>
            <Time>2021-07-31T14:23:11.000Z</Time>
            <Position>
              <LatitudeDegrees>42.25001768209040164947509765625</LatitudeDegrees>
              <LongitudeDegrees>-2.29714329354465007781982421875</LongitudeDegrees>
            </Position>
            <AltitudeMeters>800.20001220703125</AltitudeMeters>
            <DistanceMeters>318336.44567769</DistanceMeters>
          </Trackpoint>
          <Trackpoint>
            <Time>2021-07-31T14:23:18.000Z</Time>
            <Position>
              <LatitudeDegrees>42.24985406734049320220947265625</LatitudeDegrees>
              <LongitudeDegrees>-2.29691782034933567047119140625</LongitudeDegrees>
            </Position>
            <AltitudeMeters>801.20001220703125</AltitudeMeters>
            <DistanceMeters>318362.45940347</DistanceMeters>
          </Trackpoint>
          <Trackpoint>
            <Time>2021-07-31T14:23:29.000Z</Time>
            <Position>
              <LatitudeDegrees>42.2494518198072910308837890625</LatitudeDegrees>
              <LongitudeDegrees>-2.2967056743800640106201171875</LongitudeDegrees>
            </Position>
            <AltitudeMeters>801</AltitudeMeters>
            <DistanceMeters>318410.52103728</DistanceMeters>
          </Trackpoint>
          <Trackpoint>
            <Time>2021-07-31T14:23:42.000Z</Time>
            <Position>
              <LatitudeDegrees>42.248882353305816650390625</LatitudeDegrees>
              <LongitudeDegrees>-2.296617664396762847900390625</LongitudeDegrees>
            </Position>
            <AltitudeMeters>801</AltitudeMeters>
            <DistanceMeters>318474.31716376</DistanceMeters>
          </Trackpoint>
          <Trackpoint>
            <Time>2021-07-31T14:23:54.000Z</Time>
            <Position>
              <LatitudeDegrees>42.24832302890717983245849609375</LatitudeDegrees>
              <LongitudeDegrees>-2.296773903071880340576171875</LongitudeDegrees>
            </Position>
            <AltitudeMeters>801.20001220703125</AltitudeMeters>
            <DistanceMeters>318537.88797602</DistanceMeters>
          </Trackpoint>
          <Trackpoint>
            <Time>2021-07-31T14:24:04.000Z</Time>
            <Position>
              <LatitudeDegrees>42.24785800091922283172607421875</LatitudeDegrees>
              <LongitudeDegrees>-2.2969494201242923736572265625</LongitudeDegrees>
            </Position>
            <AltitudeMeters>802</AltitudeMeters>
            <DistanceMeters>318591.62867065</DistanceMeters>
          </Trackpoint>
          <Trackpoint>
            <Time>2021-07-31T14:24:14.000Z</Time>
            <Position>
              <LatitudeDegrees>42.24739632569253444671630859375</LatitudeDegrees>
              <LongitudeDegrees>-2.2971438802778720855712890625</LongitudeDegrees>
            </Position>
            <AltitudeMeters>803</AltitudeMeters>
            <DistanceMeters>318645.45390214</DistanceMeters>
          </Trackpoint>
          <Trackpoint>
            <Time>2021-07-31T14:24:19.000Z</Time>
            <Position>
              <LatitudeDegrees>42.2471670806407928466796875</LatitudeDegrees>
              <LongitudeDegrees>-2.29717992246150970458984375</LongitudeDegrees>
            </Position>
            <AltitudeMeters>803.5999755859375</AltitudeMeters>
            <DistanceMeters>318671.14136496</DistanceMeters>
          </Trackpoint>
          <Trackpoint>
            <Time>2021-07-31T14:24:21.000Z</Time>
            <Position>
              <LatitudeDegrees>42.24707831628620624542236328125</LatitudeDegrees>
              <LongitudeDegrees>-2.29716123081743717193603515625</LongitudeDegrees>
            </Position>
            <AltitudeMeters>804.20001220703125</AltitudeMeters>
            <DistanceMeters>318681.13996368</DistanceMeters>
          </Trackpoint>
          <Trackpoint>
            <Time>2021-07-31T14:24:23.000Z</Time>
            <Position>
              <LatitudeDegrees>42.246995754539966583251953125</LatitudeDegrees>
              <LongitudeDegrees>-2.2971237637102603912353515625</LongitudeDegrees>
            </Position>
            <AltitudeMeters>804.4000244140625</AltitudeMeters>
            <DistanceMeters>318690.83362013</DistanceMeters>
          </Trackpoint>
          <Trackpoint>
            <Time>2021-07-31T14:24:28.000Z</Time>
            <Position>
              <LatitudeDegrees>42.24681344814598560333251953125</LatitudeDegrees>
              <LongitudeDegrees>-2.29697867296636104583740234375</LongitudeDegrees>
            </Position>
            <AltitudeMeters>805.20001220703125</AltitudeMeters>
            <DistanceMeters>318714.38433828</DistanceMeters>
          </Trackpoint>
          <Trackpoint>
            <Time>2021-07-31T14:24:33.000Z</Time>
            <Position>
              <LatitudeDegrees>42.24669056944549083709716796875</LatitudeDegrees>
              <LongitudeDegrees>-2.296779938042163848876953125</LongitudeDegrees>
            </Position>
            <AltitudeMeters>806.4000244140625</AltitudeMeters>
            <DistanceMeters>318735.71862929</DistanceMeters>
          </Trackpoint>
          <Trackpoint>
            <Time>2021-07-31T14:24:37.000Z</Time>
            <Position>
              <LatitudeDegrees>42.2466360032558441162109375</LatitudeDegrees>
              <LongitudeDegrees>-2.296594865620136260986328125</LongitudeDegrees>
            </Position>
            <AltitudeMeters>807.5999755859375</AltitudeMeters>
            <DistanceMeters>318752.13213899</DistanceMeters>
          </Trackpoint>
          <Trackpoint>
            <Time>2021-07-31T14:24:42.000Z</Time>
            <Position>
              <LatitudeDegrees>42.246585376560688018798828125</LatitudeDegrees>
              <LongitudeDegrees>-2.29638188146054744720458984375</LongitudeDegrees>
            </Position>
            <AltitudeMeters>808.5999755859375</AltitudeMeters>
            <DistanceMeters>318770.5629126</DistanceMeters>
          </Trackpoint>
          <Trackpoint>
            <Time>2021-07-31T14:24:49.000Z</Time>
            <Position>
              <LatitudeDegrees>42.24652242846786975860595703125</LatitudeDegrees>
              <LongitudeDegrees>-2.29608817957341670989990234375</LongitudeDegrees>
            </Position>
            <AltitudeMeters>809.5999755859375</AltitudeMeters>
            <DistanceMeters>318795.75556813</DistanceMeters>
          </Trackpoint>
          <Trackpoint>
            <Time>2021-07-31T14:24:56.000Z</Time>
            <Position>
              <LatitudeDegrees>42.246464677155017852783203125</LatitudeDegrees>
              <LongitudeDegrees>-2.29582163505256175994873046875</LongitudeDegrees>
            </Position>
            <AltitudeMeters>810.5999755859375</AltitudeMeters>
            <DistanceMeters>318818.6382693</DistanceMeters>
          </Trackpoint>
          <Trackpoint>
            <Time>2021-07-31T14:25:05.000Z</Time>
            <Position>
              <LatitudeDegrees>42.24636308848857879638671875</LatitudeDegrees>
              <LongitudeDegrees>-2.2954946570098400115966796875</LongitudeDegrees>
            </Position>
            <AltitudeMeters>811.5999755859375</AltitudeMeters>
            <DistanceMeters>318847.85523674</DistanceMeters>
          </Trackpoint>
          <Trackpoint>
            <Time>2021-07-31T14:25:17.000Z</Time>
            <Position>
              <LatitudeDegrees>42.24612562917172908782958984375</LatitudeDegrees>
              <LongitudeDegrees>-2.29514571838080883026123046875</LongitudeDegrees>
            </Position>
            <AltitudeMeters>812.79998779296875</AltitudeMeters>
            <DistanceMeters>318886.90763245</DistanceMeters>
          </Trackpoint>
          <Trackpoint>
            <Time>2021-07-31T14:25:29.000Z</Time>
            <Position>
              <LatitudeDegrees>42.2458006627857685089111328125</LatitudeDegrees>
              <LongitudeDegrees>-2.29498143307864665985107421875</LongitudeDegrees>
            </Position>
            <AltitudeMeters>813.5999755859375</AltitudeMeters>
            <DistanceMeters>318925.52684458</DistanceMeters>
          </Trackpoint>
          <Trackpoint>
            <Time>2021-07-31T14:25:41.000Z</Time>
            <Position>
              <LatitudeDegrees>42.2453554160892963409423828125</LatitudeDegrees>
              <LongitudeDegrees>-2.2951201535761356353759765625</LongitudeDegrees>
            </Position>
            <AltitudeMeters>813.4000244140625</AltitudeMeters>
            <DistanceMeters>318976.38469467</DistanceMeters>
          </Trackpoint>
          <Trackpoint>
            <Time>2021-07-31T14:25:46.000Z</Time>
            <Position>
              <LatitudeDegrees>42.24517621099948883056640625</LatitudeDegrees>
              <LongitudeDegrees>-2.29526792652904987335205078125</LongitudeDegrees>
            </Position>
            <AltitudeMeters>813.4000244140625</AltitudeMeters>
            <DistanceMeters>318999.75315296</DistanceMeters>
          </Trackpoint>
          <Trackpoint>
            <Time>2021-07-31T14:25:58.000Z</Time>
            <Position>
              <LatitudeDegrees>42.2449091635644435882568359375</LatitudeDegrees>
              <LongitudeDegrees>-2.29589791037142276763916015625</LongitudeDegrees>
            </Position>
            <AltitudeMeters>813.20001220703125</AltitudeMeters>
            <DistanceMeters>319059.56777097</DistanceMeters>
          </Trackpoint>
          <Trackpoint>
            <Time>2021-07-31T14:26:08.000Z</Time>
            <Position>
              <LatitudeDegrees>42.24473766982555389404296875</LatitudeDegrees>
              <LongitudeDegrees>-2.29646285064518451690673828125</LongitudeDegrees>
            </Position>
            <AltitudeMeters>814.20001220703125</AltitudeMeters>
            <DistanceMeters>319109.87721468</DistanceMeters>
          </Trackpoint>
          <Trackpoint>
            <Time>2021-07-31T14:26:10.000Z</Time>
            <Position>
              <LatitudeDegrees>42.24467271007597446441650390625</LatitudeDegrees>
              <LongitudeDegrees>-2.296543903648853302001953125</LongitudeDegrees>
            </Position>
            <AltitudeMeters>814.5999755859375</AltitudeMeters>
            <DistanceMeters>319119.71970726</DistanceMeters>
          </Trackpoint>
          <Trackpoint>
            <Time>2021-07-31T14:26:14.000Z</Time>
            <Position>
              <LatitudeDegrees>42.24450825713574886322021484375</LatitudeDegrees>
              <LongitudeDegrees>-2.29661489836871623992919921875</LongitudeDegrees>
            </Position>
            <AltitudeMeters>815.79998779296875</AltitudeMeters>
            <DistanceMeters>319138.9357913</DistanceMeters>
          </Trackpoint>
          <Trackpoint>
            <Time>2021-07-31T14:26:17.000Z</Time>
            <Position>
              <LatitudeDegrees>42.2443774156272411346435546875</LatitudeDegrees>
              <LongitudeDegrees>-2.29658589698374271392822265625</LongitudeDegrees>
            </Position>
            <AltitudeMeters>816.20001220703125</AltitudeMeters>
            <DistanceMeters>319153.69341251</DistanceMeters>
          </Trackpoint>
          <Trackpoint>
            <Time>2021-07-31T14:26:26.000Z</Time>
            <Position>
              <LatitudeDegrees>42.243970893323421478271484375</LatitudeDegrees>
              <LongitudeDegrees>-2.2964649461209774017333984375</LongitudeDegrees>
            </Position>
            <AltitudeMeters>816.4000244140625</AltitudeMeters>
            <DistanceMeters>319200.02466138</DistanceMeters>
          </Trackpoint>
          <Trackpoint>
            <Time>2021-07-31T14:26:29.000Z</Time>
            <Position>
              <LatitudeDegrees>42.24383854307234287261962890625</LatitudeDegrees>
              <LongitudeDegrees>-2.2964656166732311248779296875</LongitudeDegrees>
            </Position>
            <AltitudeMeters>816.79998779296875</AltitudeMeters>
            <DistanceMeters>319214.75594772</DistanceMeters>
          </Trackpoint>
          <Trackpoint>
            <Time>2021-07-31T14:26:33.000Z</Time>
            <Position>
              <LatitudeDegrees>42.243671156466007232666015625</LatitudeDegrees>
              <LongitudeDegrees>-2.29647408239543437957763671875</LongitudeDegrees>
            </Position>
            <AltitudeMeters>818</AltitudeMeters>
            <DistanceMeters>319233.39959818</DistanceMeters>
          </Trackpoint>
          <Trackpoint>
            <Time>2021-07-31T14:26:38.000Z</Time>
            <Position>
              <LatitudeDegrees>42.24346630275249481201171875</LatitudeDegrees>
              <LongitudeDegrees>-2.29647911153733730316162109375</LongitudeDegrees>
            </Position>
            <AltitudeMeters>819</AltitudeMeters>
            <DistanceMeters>319256.20402981</DistanceMeters>
          </Trackpoint>
          <Trackpoint>
            <Time>2021-07-31T14:26:43.000Z</Time>
            <Position>
              <LatitudeDegrees>42.243263460695743560791015625</LatitudeDegrees>
              <LongitudeDegrees>-2.2964496910572052001953125</LongitudeDegrees>
            </Position>
            <AltitudeMeters>820.20001220703125</AltitudeMeters>
            <DistanceMeters>319278.91064283</DistanceMeters>
          </Trackpoint>
          <Trackpoint>
            <Time>2021-07-31T14:26:49.000Z</Time>
            <Position>
              <LatitudeDegrees>42.243026085197925567626953125</LatitudeDegrees>
              <LongitudeDegrees>-2.29638062417507171630859375</LongitudeDegrees>
            </Position>
            <AltitudeMeters>821.20001220703125</AltitudeMeters>
            <DistanceMeters>319305.93701557</DistanceMeters>
          </Trackpoint>
          <Trackpoint>
            <Time>2021-07-31T14:26:53.000Z</Time>
            <Position>
              <LatitudeDegrees>42.24287881515920162200927734375</LatitudeDegrees>
              <LongitudeDegrees>-2.29629370383918285369873046875</LongitudeDegrees>
            </Position>
            <AltitudeMeters>822.20001220703125</AltitudeMeters>
            <DistanceMeters>319323.82451676</DistanceMeters>
          </Trackpoint>
          <Trackpoint>
            <Time>2021-07-31T14:26:59.000Z</Time>
            <Position>
              <LatitudeDegrees>42.24266960285604000091552734375</LatitudeDegrees>
              <LongitudeDegrees>-2.2961403988301753997802734375</LongitudeDegrees>
            </Position>
            <AltitudeMeters>823.4000244140625</AltitudeMeters>
            <DistanceMeters>319350.31567417</DistanceMeters>
          </Trackpoint>
          <Trackpoint>
            <Time>2021-07-31T14:27:04.000Z</Time>
            <Position>
              <LatitudeDegrees>42.2425156272947788238525390625</LatitudeDegrees>
              <LongitudeDegrees>-2.29599279351532459259033203125</LongitudeDegrees>
            </Position>
            <AltitudeMeters>824.4000244140625</AltitudeMeters>
            <DistanceMeters>319371.33054791</DistanceMeters>
          </Trackpoint>
          <Trackpoint>
            <Time>2021-07-31T14:27:08.000Z</Time>
            <Position>
              <LatitudeDegrees>42.242408506572246551513671875</LatitudeDegrees>
              <LongitudeDegrees>-2.29585315100848674774169921875</LongitudeDegrees>
            </Position>
            <AltitudeMeters>825.5999755859375</AltitudeMeters>
            <DistanceMeters>319387.9001117</DistanceMeters>
          </Trackpoint>
          <Trackpoint>
            <Time>2021-07-31T14:27:14.000Z</Time>
            <Position>
              <LatitudeDegrees>42.24225402809679508209228515625</LatitudeDegrees>
              <LongitudeDegrees>-2.2956438548862934112548828125</LongitudeDegrees>
            </Position>
            <AltitudeMeters>826.5999755859375</AltitudeMeters>
            <DistanceMeters>319412.25236438</DistanceMeters>
          </Trackpoint>
          <Trackpoint>
            <Time>2021-07-31T14:27:19.000Z</Time>
            <Position>
              <LatitudeDegrees>42.24211539141833782196044921875</LatitudeDegrees>
              <LongitudeDegrees>-2.2954755462706089019775390625</LongitudeDegrees>
            </Position>
            <AltitudeMeters>827.79998779296875</AltitudeMeters>
            <DistanceMeters>319432.99911409</DistanceMeters>
          </Trackpoint>
          <Trackpoint>
            <Time>2021-07-31T14:27:27.000Z</Time>
            <Position>
              <LatitudeDegrees>42.24190768785774707794189453125</LatitudeDegrees>
              <LongitudeDegrees>-2.2952046431601047515869140625</LongitudeDegrees>
            </Position>
            <AltitudeMeters>828.79998779296875</AltitudeMeters>
            <DistanceMeters>319465.13472677</DistanceMeters>
          </Trackpoint>
          <Trackpoint>
            <Time>2021-07-31T14:27:32.000Z</Time>
            <Position>
              <LatitudeDegrees>42.24177910946309566497802734375</LatitudeDegrees>
              <LongitudeDegrees>-2.29506139643490314483642578125</LongitudeDegrees>
            </Position>
            <AltitudeMeters>829.79998779296875</AltitudeMeters>
            <DistanceMeters>319483.68539208</DistanceMeters>
          </Trackpoint>
          <Trackpoint>
            <Time>2021-07-31T14:27:48.000Z</Time>
            <Position>
              <LatitudeDegrees>42.2412633709609508514404296875</LatitudeDegrees>
              <LongitudeDegrees>-2.2950926609337329864501953125</LongitudeDegrees>
            </Position>
            <AltitudeMeters>830.79998779296875</AltitudeMeters>
            <DistanceMeters>319541.14591766</DistanceMeters>
          </Trackpoint>
          <Trackpoint>
            <Time>2021-07-31T14:27:49.000Z</Time>
            <Position>
              <LatitudeDegrees>42.24123009480535984039306640625</LatitudeDegrees>
              <LongitudeDegrees>-2.29510414414107799530029296875</LongitudeDegrees>
            </Position>
            <AltitudeMeters>831</AltitudeMeters>
            <DistanceMeters>319544.96830745</DistanceMeters>
          </Trackpoint>
          <Trackpoint>
            <Time>2021-07-31T14:27:57.000Z</Time>
            <Position>
              <LatitudeDegrees>42.24097897298634052276611328125</LatitudeDegrees>
              <LongitudeDegrees>-2.29520439170300960540771484375</LongitudeDegrees>
            </Position>
            <AltitudeMeters>832.4000244140625</AltitudeMeters>
            <DistanceMeters>319574.11348254</DistanceMeters>
          </Trackpoint>
          <Trackpoint>
            <Time>2021-07-31T14:28:04.000Z</Time>
            <Position>
              <LatitudeDegrees>42.2407782264053821563720703125</LatitudeDegrees>
              <LongitudeDegrees>-2.2952499054372310638427734375</LongitudeDegrees>
            </Position>
            <AltitudeMeters>833.4000244140625</AltitudeMeters>
            <DistanceMeters>319596.76933399</DistanceMeters>
          </Trackpoint>
          <Trackpoint>
            <Time>2021-07-31T14:28:11.000Z</Time>
            <Position>
              <LatitudeDegrees>42.240601368248462677001953125</LatitudeDegrees>
              <LongitudeDegrees>-2.2953337244689464569091796875</LongitudeDegrees>
            </Position>
            <AltitudeMeters>834.5999755859375</AltitudeMeters>
            <DistanceMeters>319617.63024107</DistanceMeters>
          </Trackpoint>
          <Trackpoint>
            <Time>2021-07-31T14:28:16.000Z</Time>
            <Position>
              <LatitudeDegrees>42.24048427306115627288818359375</LatitudeDegrees>
              <LongitudeDegrees>-2.2954279370605945587158203125</LongitudeDegrees>
            </Position>
            <AltitudeMeters>835.79998779296875</AltitudeMeters>
            <DistanceMeters>319632.80002907</DistanceMeters>
          </Trackpoint>
          <Trackpoint>
            <Time>2021-07-31T14:28:25.000Z</Time>
            <Position>
              <LatitudeDegrees>42.24027137272059917449951171875</LatitudeDegrees>
              <LongitudeDegrees>-2.2956012748181819915771484375</LongitudeDegrees>
            </Position>
            <AltitudeMeters>836.5999755859375</AltitudeMeters>
            <DistanceMeters>319660.46814665</DistanceMeters>
          </Trackpoint>
          <Trackpoint>
            <Time>2021-07-31T14:28:37.000Z</Time>
            <Position>
              <LatitudeDegrees>42.2400458157062530517578125</LatitudeDegrees>
              <LongitudeDegrees>-2.29588516987860202789306640625</LongitudeDegrees>
            </Position>
            <AltitudeMeters>837.5999755859375</AltitudeMeters>
            <DistanceMeters>319694.78292347</DistanceMeters>
          </Trackpoint>
          <Trackpoint>
            <Time>2021-07-31T14:28:44.000Z</Time>
            <Position>
              <LatitudeDegrees>42.23994665779173374176025390625</LatitudeDegrees>
              <LongitudeDegrees>-2.29608558118343353271484375</LongitudeDegrees>
            </Position>
            <AltitudeMeters>838.5999755859375</AltitudeMeters>
            <DistanceMeters>319714.6455527</DistanceMeters>
          </Trackpoint>
          <Trackpoint>
            <Time>2021-07-31T14:28:48.000Z</Time>
            <Position>
              <LatitudeDegrees>42.23988597281277179718017578125</LatitudeDegrees>
              <LongitudeDegrees>-2.29618624784052371978759765625</LongitudeDegrees>
            </Position>
            <AltitudeMeters>840</AltitudeMeters>
            <DistanceMeters>319725.34270787</DistanceMeters>
          </Trackpoint>
          <Trackpoint>
            <Time>2021-07-31T14:28:53.000Z</Time>
            <Position>
              <LatitudeDegrees>42.23977985791862010955810546875</LatitudeDegrees>
              <LongitudeDegrees>-2.29628146626055240631103515625</LongitudeDegrees>
            </Position>
            <AltitudeMeters>841</AltitudeMeters>
            <DistanceMeters>319739.52176362</DistanceMeters>
          </Trackpoint>
          <Trackpoint>
            <Time>2021-07-31T14:28:58.000Z</Time>
            <Position>
              <LatitudeDegrees>42.2396520338952541351318359375</LatitudeDegrees>
              <LongitudeDegrees>-2.296347431838512420654296875</LongitudeDegrees>
            </Position>
            <AltitudeMeters>842.20001220703125</AltitudeMeters>
            <DistanceMeters>319754.75155494</DistanceMeters>
          </Trackpoint>
          <Trackpoint>
            <Time>2021-07-31T14:29:07.000Z</Time>
            <Position>
              <LatitudeDegrees>42.2393885068595409393310546875</LatitudeDegrees>
              <LongitudeDegrees>-2.296268641948699951171875</LongitudeDegrees>
            </Position>
            <AltitudeMeters>843.4000244140625</AltitudeMeters>
            <DistanceMeters>319784.79262415</DistanceMeters>
          </Trackpoint>
          <Trackpoint>
            <Time>2021-07-31T14:29:24.000Z</Time>
            <Position>
              <LatitudeDegrees>42.23887545056641101837158203125</LatitudeDegrees>
              <LongitudeDegrees>-2.2960589267313480377197265625</LongitudeDegrees>
            </Position>
            <AltitudeMeters>844.5999755859375</AltitudeMeters>
            <DistanceMeters>319844.45426722</DistanceMeters>
          </Trackpoint>
          <Trackpoint>
            <Time>2021-07-31T14:29:32.000Z</Time>
            <Position>
              <LatitudeDegrees>42.23862969316542148590087890625</LatitudeDegrees>
              <LongitudeDegrees>-2.29608834721148014068603515625</LongitudeDegrees>
            </Position>
            <AltitudeMeters>845.4000244140625</AltitudeMeters>
            <DistanceMeters>319871.91485031</DistanceMeters>
          </Trackpoint>
          <Trackpoint>
            <Time>2021-07-31T14:29:36.000Z</Time>
            <Position>
              <LatitudeDegrees>42.2385131008923053741455078125</LatitudeDegrees>
              <LongitudeDegrees>-2.2961430810391902923583984375</LongitudeDegrees>
            </Position>
            <AltitudeMeters>846.5999755859375</AltitudeMeters>
            <DistanceMeters>319885.65336034</DistanceMeters>
          </Trackpoint>
          <Trackpoint>
            <Time>2021-07-31T14:29:42.000Z</Time>
            <Position>
              <LatitudeDegrees>42.23834973759949207305908203125</LatitudeDegrees>
              <LongitudeDegrees>-2.2962512075901031494140625</LongitudeDegrees>
            </Position>
            <AltitudeMeters>847.5999755859375</AltitudeMeters>
            <DistanceMeters>319905.90185635</DistanceMeters>
          </Trackpoint>
          <Trackpoint>
            <Time>2021-07-31T14:29:48.000Z</Time>
            <Position>
              <LatitudeDegrees>42.238191403448581695556640625</LatitudeDegrees>
              <LongitudeDegrees>-2.29635455645620822906494140625</LongitudeDegrees>
            </Position>
            <AltitudeMeters>848.5999755859375</AltitudeMeters>
            <DistanceMeters>319925.47482223</DistanceMeters>
          </Trackpoint>
          <Trackpoint>
            <Time>2021-07-31T14:29:57.000Z</Time>
            <Position>
              <LatitudeDegrees>42.237957380712032318115234375</LatitudeDegrees>
              <LongitudeDegrees>-2.296510040760040283203125</LongitudeDegrees>
            </Position>
            <AltitudeMeters>849.79998779296875</AltitudeMeters>
            <DistanceMeters>319954.50264497</DistanceMeters>
          </Trackpoint>
          <Trackpoint>
            <Time>2021-07-31T14:30:05.000Z</Time>
            <Position>
              <LatitudeDegrees>42.23775143735110759735107421875</LatitudeDegrees>
              <LongitudeDegrees>-2.29667566716670989990234375</LongitudeDegrees>
            </Position>
            <AltitudeMeters>850.79998779296875</AltitudeMeters>
            <DistanceMeters>319981.1799459</DistanceMeters>
          </Trackpoint>
          <Trackpoint>
            <Time>2021-07-31T14:30:19.000Z</Time>
            <Position>
              <LatitudeDegrees>42.23733401857316493988037109375</LatitudeDegrees>
              <LongitudeDegrees>-2.29678018949925899505615234375</LongitudeDegrees>
            </Position>
            <AltitudeMeters>852</AltitudeMeters>
            <DistanceMeters>320028.43116144</DistanceMeters>
          </Trackpoint>
          <Trackpoint>
            <Time>2021-07-31T14:30:29.000Z</Time>
            <Position>
              <LatitudeDegrees>42.237033359706401824951171875</LatitudeDegrees>
              <LongitudeDegrees>-2.2967898286879062652587890625</LongitudeDegrees>
            </Position>
            <AltitudeMeters>853</AltitudeMeters>
            <DistanceMeters>320061.90444803</DistanceMeters>
          </Trackpoint>
          <Trackpoint>
            <Time>2021-07-31T14:30:34.000Z</Time>
            <Position>
              <LatitudeDegrees>42.23689262755215167999267578125</LatitudeDegrees>
              <LongitudeDegrees>-2.296850681304931640625</LongitudeDegrees>
            </Position>
            <AltitudeMeters>854.20001220703125</AltitudeMeters>
            <DistanceMeters>320078.35148333</DistanceMeters>
          </Trackpoint>
          <Trackpoint>
            <Time>2021-07-31T14:30:39.000Z</Time>
            <Position>
              <LatitudeDegrees>42.23675281740725040435791015625</LatitudeDegrees>
              <LongitudeDegrees>-2.2968954406678676605224609375</LongitudeDegrees>
            </Position>
            <AltitudeMeters>855.20001220703125</AltitudeMeters>
            <DistanceMeters>320094.34394578</DistanceMeters>
          </Trackpoint>
          <Trackpoint>
            <Time>2021-07-31T14:30:46.000Z</Time>
            <Position>
              <LatitudeDegrees>42.236556597054004669189453125</LatitudeDegrees>
              <LongitudeDegrees>-2.296874821186065673828125</LongitudeDegrees>
            </Position>
            <AltitudeMeters>856.4000244140625</AltitudeMeters>
            <DistanceMeters>320116.24981924</DistanceMeters>
          </Trackpoint>
          <Trackpoint>
            <Time>2021-07-31T14:30:50.000Z</Time>
            <Position>
              <LatitudeDegrees>42.2364543378353118896484375</LatitudeDegrees>
              <LongitudeDegrees>-2.296822182834148406982421875</LongitudeDegrees>
            </Position>
            <AltitudeMeters>857.4000244140625</AltitudeMeters>
            <DistanceMeters>320128.43030183</DistanceMeters>
          </Trackpoint>
          <Trackpoint>
            <Time>2021-07-31T14:30:57.000Z</Time>
            <Position>
              <LatitudeDegrees>42.23628158681094646453857421875</LatitudeDegrees>
              <LongitudeDegrees>-2.2967301495373249053955078125</LongitudeDegrees>
            </Position>
            <AltitudeMeters>858.5999755859375</AltitudeMeters>
            <DistanceMeters>320149.09943138</DistanceMeters>
          </Trackpoint>
          <Trackpoint>
            <Time>2021-07-31T14:31:04.000Z</Time>
            <Position>
              <LatitudeDegrees>42.2361048124730587005615234375</LatitudeDegrees>
              <LongitudeDegrees>-2.29666317813098430633544921875</LongitudeDegrees>
            </Position>
            <AltitudeMeters>859.5999755859375</AltitudeMeters>
            <DistanceMeters>320169.53415245</DistanceMeters>
          </Trackpoint>
          <Trackpoint>
            <Time>2021-07-31T14:31:09.000Z</Time>
            <Position>
              <LatitudeDegrees>42.23597891628742218017578125</LatitudeDegrees>
              <LongitudeDegrees>-2.2966040857136249542236328125</LongitudeDegrees>
            </Position>
            <AltitudeMeters>860.5999755859375</AltitudeMeters>
            <DistanceMeters>320184.36867175</DistanceMeters>
          </Trackpoint>
          <Trackpoint>
            <Time>2021-07-31T14:31:19.000Z</Time>
            <Position>
              <LatitudeDegrees>42.23572452552616596221923828125</LatitudeDegrees>
              <LongitudeDegrees>-2.2964636050164699554443359375</LongitudeDegrees>
            </Position>
            <AltitudeMeters>861.5999755859375</AltitudeMeters>
            <DistanceMeters>320214.95812387</DistanceMeters>
          </Trackpoint>
          <Trackpoint>
            <Time>2021-07-31T14:31:27.000Z</Time>
            <Position>
              <LatitudeDegrees>42.2355160675942897796630859375</LatitudeDegrees>
              <LongitudeDegrees>-2.2963801212608814239501953125</LongitudeDegrees>
            </Position>
            <AltitudeMeters>862.5999755859375</AltitudeMeters>
            <DistanceMeters>320239.15842631</DistanceMeters>
          </Trackpoint>
          <Trackpoint>
            <Time>2021-07-31T14:31:37.000Z</Time>
            <Position>
              <LatitudeDegrees>42.23524038679897785186767578125</LatitudeDegrees>
              <LongitudeDegrees>-2.29633360169827938079833984375</LongitudeDegrees>
            </Position>
            <AltitudeMeters>863.79998779296875</AltitudeMeters>
            <DistanceMeters>320270.08082587</DistanceMeters>
          </Trackpoint>
          <Trackpoint>
            <Time>2021-07-31T14:31:50.000Z</Time>
            <Position>
              <LatitudeDegrees>42.23489505238831043243408203125</LatitudeDegrees>
              <LongitudeDegrees>-2.2964693047106266021728515625</LongitudeDegrees>
            </Position>
            <AltitudeMeters>865</AltitudeMeters>
            <DistanceMeters>320310.11087864</DistanceMeters>
          </Trackpoint>
          <Trackpoint>
            <Time>2021-07-31T14:32:00.000Z</Time>
            <Position>
              <LatitudeDegrees>42.234675027430057525634765625</LatitudeDegrees>
              <LongitudeDegrees>-2.29670056141912937164306640625</LongitudeDegrees>
            </Position>
            <AltitudeMeters>866</AltitudeMeters>
            <DistanceMeters>320341.1414299</DistanceMeters>
          </Trackpoint>
          <Trackpoint>
            <Time>2021-07-31T14:32:09.000Z</Time>
            <Position>
              <LatitudeDegrees>42.23447528667747974395751953125</LatitudeDegrees>
              <LongitudeDegrees>-2.2969061695039272308349609375</LongitudeDegrees>
            </Position>
            <AltitudeMeters>867.20001220703125</AltitudeMeters>
            <DistanceMeters>320369.09382505</DistanceMeters>
          </Trackpoint>
          <Trackpoint>
            <Time>2021-07-31T14:32:21.000Z</Time>
            <Position>
              <LatitudeDegrees>42.23414856009185314178466796875</LatitudeDegrees>
              <LongitudeDegrees>-2.2970211692154407501220703125</LongitudeDegrees>
            </Position>
            <AltitudeMeters>868</AltitudeMeters>
            <DistanceMeters>320406.67373691</DistanceMeters>
          </Trackpoint>
          <Trackpoint>
            <Time>2021-07-31T14:32:31.000Z</Time>
            <Position>
              <LatitudeDegrees>42.233858294785022735595703125</LatitudeDegrees>
              <LongitudeDegrees>-2.29706835933029651641845703125</LongitudeDegrees>
            </Position>
            <AltitudeMeters>869.20001220703125</AltitudeMeters>
            <DistanceMeters>320439.21424741</DistanceMeters>
          </Trackpoint>
          <Trackpoint>
            <Time>2021-07-31T14:32:34.000Z</Time>
            <Position>
              <LatitudeDegrees>42.2337669320404529571533203125</LatitudeDegrees>
              <LongitudeDegrees>-2.29705360718071460723876953125</LongitudeDegrees>
            </Position>
            <AltitudeMeters>870.20001220703125</AltitudeMeters>
            <DistanceMeters>320449.45511201</DistanceMeters>
          </Trackpoint>
          <Trackpoint>
            <Time>2021-07-31T14:32:41.000Z</Time>
            <Position>
              <LatitudeDegrees>42.23353408277034759521484375</LatitudeDegrees>
              <LongitudeDegrees>-2.2969782538712024688720703125</LongitudeDegrees>
            </Position>
            <AltitudeMeters>871.20001220703125</AltitudeMeters>
            <DistanceMeters>320476.10531975</DistanceMeters>
          </Trackpoint>
          <Trackpoint>
            <Time>2021-07-31T14:32:56.000Z</Time>
            <Position>
              <LatitudeDegrees>42.23301147110760211944580078125</LatitudeDegrees>
              <LongitudeDegrees>-2.29685713537037372589111328125</LongitudeDegrees>
            </Position>
            <AltitudeMeters>872.20001220703125</AltitudeMeters>
            <DistanceMeters>320535.12318295</DistanceMeters>
          </Trackpoint>
          <Trackpoint>
            <Time>2021-07-31T14:33:03.000Z</Time>
            <Position>
              <LatitudeDegrees>42.23281499929726123809814453125</LatitudeDegrees>
              <LongitudeDegrees>-2.29676694609224796295166015625</LongitudeDegrees>
            </Position>
            <AltitudeMeters>873.4000244140625</AltitudeMeters>
            <DistanceMeters>320558.21936674</DistanceMeters>
          </Trackpoint>
          <Trackpoint>
            <Time>2021-07-31T14:33:09.000Z</Time>
            <Position>
              <LatitudeDegrees>42.23265322856605052947998046875</LatitudeDegrees>
              <LongitudeDegrees>-2.29668145067989826202392578125</LongitudeDegrees>
            </Position>
            <AltitudeMeters>874.4000244140625</AltitudeMeters>
            <DistanceMeters>320577.55420925</DistanceMeters>
          </Trackpoint>
          <Trackpoint>
            <Time>2021-07-31T14:33:14.000Z</Time>
            <Position>
              <LatitudeDegrees>42.23251811228692531585693359375</LatitudeDegrees>
              <LongitudeDegrees>-2.2966097854077816009521484375</LongitudeDegrees>
            </Position>
            <AltitudeMeters>875.5999755859375</AltitudeMeters>
            <DistanceMeters>320593.71126591</DistanceMeters>
          </Trackpoint>
          <Trackpoint>
            <Time>2021-07-31T14:33:20.000Z</Time>
            <Position>
              <LatitudeDegrees>42.2323517315089702606201171875</LatitudeDegrees>
              <LongitudeDegrees>-2.2965283133089542388916015625</LongitudeDegrees>
            </Position>
            <AltitudeMeters>876.5999755859375</AltitudeMeters>
            <DistanceMeters>320613.40954971</DistanceMeters>
          </Trackpoint>
          <Trackpoint>
            <Time>2021-07-31T14:33:26.000Z</Time>
            <Position>
              <LatitudeDegrees>42.23218870349228382110595703125</LatitudeDegrees>
              <LongitudeDegrees>-2.29644189588725566864013671875</LongitudeDegrees>
            </Position>
            <AltitudeMeters>877.5999755859375</AltitudeMeters>
            <DistanceMeters>320632.90276947</DistanceMeters>
          </Trackpoint>
          <Trackpoint>
            <Time>2021-07-31T14:33:32.000Z</Time>
            <Position>
              <LatitudeDegrees>42.232035063207149505615234375</LatitudeDegrees>
              <LongitudeDegrees>-2.29636796750128269195556640625</LongitudeDegrees>
            </Position>
            <AltitudeMeters>878.5999755859375</AltitudeMeters>
            <DistanceMeters>320651.05610552</DistanceMeters>
          </Trackpoint>
          <Trackpoint>
            <Time>2021-07-31T14:33:38.000Z</Time>
            <Position>
              <LatitudeDegrees>42.23189801909029483795166015625</LatitudeDegrees>
              <LongitudeDegrees>-2.29628934524953365325927734375</LongitudeDegrees>
            </Position>
            <AltitudeMeters>879.79998779296875</AltitudeMeters>
            <DistanceMeters>320667.62839399</DistanceMeters>
          </Trackpoint>
          <Trackpoint>
            <Time>2021-07-31T14:33:49.000Z</Time>
            <Position>
              <LatitudeDegrees>42.2316305525600910186767578125</LatitudeDegrees>
              <LongitudeDegrees>-2.29615422897040843963623046875</LongitudeDegrees>
            </Position>
            <AltitudeMeters>880.5999755859375</AltitudeMeters>
            <DistanceMeters>320699.41223756</DistanceMeters>
          </Trackpoint>
          <Trackpoint>
            <Time>2021-07-31T14:33:57.000Z</Time>
            <Position>
              <LatitudeDegrees>42.231426537036895751953125</LatitudeDegrees>
              <LongitudeDegrees>-2.29605607688426971435546875</LongitudeDegrees>
            </Position>
            <AltitudeMeters>881.79998779296875</AltitudeMeters>
            <DistanceMeters>320723.51720175</DistanceMeters>
          </Trackpoint>
          <Trackpoint>
            <Time>2021-07-31T14:34:02.000Z</Time>
            <Position>
              <LatitudeDegrees>42.23130793310701847076416015625</LatitudeDegrees>
              <LongitudeDegrees>-2.29599975049495697021484375</LongitudeDegrees>
            </Position>
            <AltitudeMeters>882.79998779296875</AltitudeMeters>
            <DistanceMeters>320737.51034927</DistanceMeters>
          </Trackpoint>
          <Trackpoint>
            <Time>2021-07-31T14:34:06.000Z</Time>
            <Position>
              <LatitudeDegrees>42.23121740855276584625244140625</LatitudeDegrees>
              <LongitudeDegrees>-2.29595859535038471221923828125</LongitudeDegrees>
            </Position>
            <AltitudeMeters>884</AltitudeMeters>
            <DistanceMeters>320748.14145631</DistanceMeters>
          </Trackpoint>
          <Trackpoint>
            <Time>2021-07-31T14:34:14.000Z</Time>
            <Position>
              <LatitudeDegrees>42.2310374490916728973388671875</LatitudeDegrees>
              <LongitudeDegrees>-2.29583973996341228485107421875</LongitudeDegrees>
            </Position>
            <AltitudeMeters>885.20001220703125</AltitudeMeters>
            <DistanceMeters>320770.43813383</DistanceMeters>
          </Trackpoint>
          <Trackpoint>
            <Time>2021-07-31T14:34:21.000Z</Time>
            <Position>
              <LatitudeDegrees>42.2308664582669734954833984375</LatitudeDegrees>
              <LongitudeDegrees>-2.29577637277543544769287109375</LongitudeDegrees>
            </Position>
            <AltitudeMeters>886.4000244140625</AltitudeMeters>
            <DistanceMeters>320790.1732859</DistanceMeters>
          </Trackpoint>
          <Trackpoint>
            <Time>2021-07-31T14:34:28.000Z</Time>
            <Position>
              <LatitudeDegrees>42.23071818239986896514892578125</LatitudeDegrees>
              <LongitudeDegrees>-2.2958327829837799072265625</LongitudeDegrees>
            </Position>
            <AltitudeMeters>887.4000244140625</AltitudeMeters>
            <DistanceMeters>320807.31922328</DistanceMeters>
          </Trackpoint>
          <Trackpoint>
            <Time>2021-07-31T14:34:35.000Z</Time>
            <Position>
              <LatitudeDegrees>42.2305754385888576507568359375</LatitudeDegrees>
              <LongitudeDegrees>-2.2959130816161632537841796875</LongitudeDegrees>
            </Position>
            <AltitudeMeters>888.5999755859375</AltitudeMeters>
            <DistanceMeters>320824.53034258</DistanceMeters>
          </Trackpoint>
          <Trackpoint>
            <Time>2021-07-31T14:34:40.000Z</Time>
            <Position>
              <LatitudeDegrees>42.23046622239053249359130859375</LatitudeDegrees>
              <LongitudeDegrees>-2.2959338687360286712646484375</LongitudeDegrees>
            </Position>
            <AltitudeMeters>889.5999755859375</AltitudeMeters>
            <DistanceMeters>320836.80682318</DistanceMeters>
          </Trackpoint>
          <Trackpoint>
            <Time>2021-07-31T14:34:46.000Z</Time>
            <Position>
              <LatitudeDegrees>42.23033127374947071075439453125</LatitudeDegrees>
              <LongitudeDegrees>-2.2959181107580661773681640625</LongitudeDegrees>
            </Position>
            <AltitudeMeters>890.4000244140625</AltitudeMeters>
            <DistanceMeters>320851.88286457</DistanceMeters>
          </Trackpoint>
          <Trackpoint>
            <Time>2021-07-31T14:34:52.000Z</Time>
            <Position>
              <LatitudeDegrees>42.23019984550774097442626953125</LatitudeDegrees>
              <LongitudeDegrees>-2.295888103544712066650390625</LongitudeDegrees>
            </Position>
            <AltitudeMeters>891.5999755859375</AltitudeMeters>
            <DistanceMeters>320866.71860127</DistanceMeters>
          </Trackpoint>
          <Trackpoint>
            <Time>2021-07-31T14:34:58.000Z</Time>
            <Position>
              <LatitudeDegrees>42.23007646389305591583251953125</LatitudeDegrees>
              <LongitudeDegrees>-2.295794896781444549560546875</LongitudeDegrees>
            </Position>
            <AltitudeMeters>892.5999755859375</AltitudeMeters>
            <DistanceMeters>320882.45348722</DistanceMeters>
          </Trackpoint>
          <Trackpoint>
            <Time>2021-07-31T14:35:10.000Z</Time>
            <Position>
              <LatitudeDegrees>42.2298431955277919769287109375</LatitudeDegrees>
              <LongitudeDegrees>-2.29552390985190868377685546875</LongitudeDegrees>
            </Position>
            <AltitudeMeters>893.5999755859375</AltitudeMeters>
            <DistanceMeters>320916.70056664</DistanceMeters>
          </Trackpoint>
          <Trackpoint>
            <Time>2021-07-31T14:35:21.000Z</Time>
            <Position>
              <LatitudeDegrees>42.22958159632980823516845703125</LatitudeDegrees>
              <LongitudeDegrees>-2.2954358160495758056640625</LongitudeDegrees>
            </Position>
            <AltitudeMeters>894.79998779296875</AltitudeMeters>
            <DistanceMeters>320946.70855263</DistanceMeters>
          </Trackpoint>
          <Trackpoint>
            <Time>2021-07-31T14:35:28.000Z</Time>
            <Position>
              <LatitudeDegrees>42.2294190712273120880126953125</LatitudeDegrees>
              <LongitudeDegrees>-2.295430786907672882080078125</LongitudeDegrees>
            </Position>
            <AltitudeMeters>896</AltitudeMeters>
            <DistanceMeters>320964.80259727</DistanceMeters>
          </Trackpoint>
          <Trackpoint>
            <Time>2021-07-31T14:35:33.000Z</Time>
            <Position>
              <LatitudeDegrees>42.22930398769676685333251953125</LatitudeDegrees>
              <LongitudeDegrees>-2.2953608818352222442626953125</LongitudeDegrees>
            </Position>
            <AltitudeMeters>897.20001220703125</AltitudeMeters>
            <DistanceMeters>320978.84791856</DistanceMeters>
          </Trackpoint>
          <Trackpoint>
            <Time>2021-07-31T14:35:39.000Z</Time>
            <Position>
              <LatitudeDegrees>42.2291721403598785400390625</LatitudeDegrees>
              <LongitudeDegrees>-2.295268513262271881103515625</LongitudeDegrees>
            </Position>
            <AltitudeMeters>898.20001220703125</AltitudeMeters>
            <DistanceMeters>320995.37983598</DistanceMeters>
          </Trackpoint>
          <Trackpoint>
            <Time>2021-07-31T14:35:47.000Z</Time>
            <Position>
              <LatitudeDegrees>42.22900785505771636962890625</LatitudeDegrees>
              <LongitudeDegrees>-2.29515929706394672393798828125</LongitudeDegrees>
            </Position>
            <AltitudeMeters>899.20001220703125</AltitudeMeters>
            <DistanceMeters>321015.76035256</DistanceMeters>
          </Trackpoint>
          <Trackpoint>
            <Time>2021-07-31T14:35:54.000Z</Time>
            <Position>
              <LatitudeDegrees>42.228862680494785308837890625</LatitudeDegrees>
              <LongitudeDegrees>-2.2950302995741367340087890625</LongitudeDegrees>
            </Position>
            <AltitudeMeters>900.4000244140625</AltitudeMeters>
            <DistanceMeters>321035.10243278</DistanceMeters>
          </Trackpoint>
          <Trackpoint>
            <Time>2021-07-31T14:36:01.000Z</Time>
            <Position>
              <LatitudeDegrees>42.22871675156056880950927734375</LatitudeDegrees>
              <LongitudeDegrees>-2.29491840116679668426513671875</LongitudeDegrees>
            </Position>
            <AltitudeMeters>901.20001220703125</AltitudeMeters>
            <DistanceMeters>321053.78019879</DistanceMeters>
          </Trackpoint>
          <Trackpoint>
            <Time>2021-07-31T14:36:07.000Z</Time>
            <Position>
              <LatitudeDegrees>42.2285832278430461883544921875</LatitudeDegrees>
              <LongitudeDegrees>-2.2948173992335796356201171875</LongitudeDegrees>
            </Position>
            <AltitudeMeters>902.4000244140625</AltitudeMeters>
            <DistanceMeters>321070.81411837</DistanceMeters>
          </Trackpoint>
          <Trackpoint>
            <Time>2021-07-31T14:36:14.000Z</Time>
            <Position>
              <LatitudeDegrees>42.228431515395641326904296875</LatitudeDegrees>
              <LongitudeDegrees>-2.29471304453909397125244140625</LongitudeDegrees>
            </Position>
            <AltitudeMeters>903.4000244140625</AltitudeMeters>
            <DistanceMeters>321089.7642656</DistanceMeters>
          </Trackpoint>
          <Trackpoint>
            <Time>2021-07-31T14:36:20.000Z</Time>
            <Position>
              <LatitudeDegrees>42.2282901965081691741943359375</LatitudeDegrees>
              <LongitudeDegrees>-2.29468370787799358367919921875</LongitudeDegrees>
            </Position>
            <AltitudeMeters>904.5999755859375</AltitudeMeters>
            <DistanceMeters>321105.67833246</DistanceMeters>
          </Trackpoint>
          <Trackpoint>
            <Time>2021-07-31T14:36:27.000Z</Time>
            <Position>
              <LatitudeDegrees>42.22811845131218433380126953125</LatitudeDegrees>
              <LongitudeDegrees>-2.29466895572841167449951171875</LongitudeDegrees>
            </Position>
            <AltitudeMeters>905.5999755859375</AltitudeMeters>
            <DistanceMeters>321124.83275769</DistanceMeters>
          </Trackpoint>
          <Trackpoint>
            <Time>2021-07-31T14:36:35.000Z</Time>
            <Position>
              <LatitudeDegrees>42.22794410772621631622314453125</LatitudeDegrees>
              <LongitudeDegrees>-2.29457507841289043426513671875</LongitudeDegrees>
            </Position>
            <AltitudeMeters>906.79998779296875</AltitudeMeters>
            <DistanceMeters>321145.72307924</DistanceMeters>
          </Trackpoint>
          <Trackpoint>
            <Time>2021-07-31T14:36:44.000Z</Time>
            <Position>
              <LatitudeDegrees>42.22778149880468845367431640625</LatitudeDegrees>
              <LongitudeDegrees>-2.2943922691047191619873046875</LongitudeDegrees>
            </Position>
            <AltitudeMeters>907.79998779296875</AltitudeMeters>
            <DistanceMeters>321169.27207188</DistanceMeters>
          </Trackpoint>
          <Trackpoint>
            <Time>2021-07-31T14:36:52.000Z</Time>
            <Position>
              <LatitudeDegrees>42.227616123855113983154296875</LatitudeDegrees>
              <LongitudeDegrees>-2.29429981671273708343505859375</LongitudeDegrees>
            </Position>
            <AltitudeMeters>908.79998779296875</AltitudeMeters>
            <DistanceMeters>321189.1932616</DistanceMeters>
          </Trackpoint>
          <Trackpoint>
            <Time>2021-07-31T14:36:58.000Z</Time>
            <Position>
              <LatitudeDegrees>42.22748394124209880828857421875</LatitudeDegrees>
              <LongitudeDegrees>-2.29427601210772991180419921875</LongitudeDegrees>
            </Position>
            <AltitudeMeters>909.79998779296875</AltitudeMeters>
            <DistanceMeters>321204.03569216</DistanceMeters>
          </Trackpoint>
          <Trackpoint>
            <Time>2021-07-31T14:37:04.000Z</Time>
            <Position>
              <LatitudeDegrees>42.22735284827649593353271484375</LatitudeDegrees>
              <LongitudeDegrees>-2.2942608408629894256591796875</LongitudeDegrees>
            </Position>
            <AltitudeMeters>910.79998779296875</AltitudeMeters>
            <DistanceMeters>321218.68029237</DistanceMeters>
          </Trackpoint>
          <Trackpoint>
            <Time>2021-07-31T14:37:12.000Z</Time>
            <Position>
              <LatitudeDegrees>42.2271730564534664154052734375</LatitudeDegrees>
              <LongitudeDegrees>-2.29421046562492847442626953125</LongitudeDegrees>
            </Position>
            <AltitudeMeters>912</AltitudeMeters>
            <DistanceMeters>321239.11788558</DistanceMeters>
          </Trackpoint>
          <Trackpoint>
            <Time>2021-07-31T14:37:19.000Z</Time>
            <Position>
              <LatitudeDegrees>42.22701187245547771453857421875</LatitudeDegrees>
              <LongitudeDegrees>-2.2941456735134124755859375</LongitudeDegrees>
            </Position>
            <AltitudeMeters>913.20001220703125</AltitudeMeters>
            <DistanceMeters>321257.83597752</DistanceMeters>
          </Trackpoint>
          <Trackpoint>
            <Time>2021-07-31T14:37:27.000Z</Time>
            <Position>
              <LatitudeDegrees>42.22683300264179706573486328125</LatitudeDegrees>
              <LongitudeDegrees>-2.2940479405224323272705078125</LongitudeDegrees>
            </Position>
            <AltitudeMeters>914.4000244140625</AltitudeMeters>
            <DistanceMeters>321279.31243544</DistanceMeters>
          </Trackpoint>
          <Trackpoint>
            <Time>2021-07-31T14:37:32.000Z</Time>
            <Position>
              <LatitudeDegrees>42.226722277700901031494140625</LatitudeDegrees>
              <LongitudeDegrees>-2.29398868046700954437255859375</LongitudeDegrees>
            </Position>
            <AltitudeMeters>915.4000244140625</AltitudeMeters>
            <DistanceMeters>321292.56925813</DistanceMeters>
          </Trackpoint>
          <Trackpoint>
            <Time>2021-07-31T14:37:44.000Z</Time>
            <Position>
              <LatitudeDegrees>42.22651742398738861083984375</LatitudeDegrees>
              <LongitudeDegrees>-2.29376840405166149139404296875</LongitudeDegrees>
            </Position>
            <AltitudeMeters>916.5999755859375</AltitudeMeters>
            <DistanceMeters>321321.71489796</DistanceMeters>
          </Trackpoint>
          <Trackpoint>
            <Time>2021-07-31T14:37:52.000Z</Time>
            <Position>
              <LatitudeDegrees>42.22641675733029842376708984375</LatitudeDegrees>
              <LongitudeDegrees>-2.29359791614115238189697265625</LongitudeDegrees>
            </Position>
            <AltitudeMeters>917.5999755859375</AltitudeMeters>
            <DistanceMeters>321339.68675858</DistanceMeters>
          </Trackpoint>
          <Trackpoint>
            <Time>2021-07-31T14:38:04.000Z</Time>
            <Position>
              <LatitudeDegrees>42.22626454196870326995849609375</LatitudeDegrees>
              <LongitudeDegrees>-2.29328979738056659698486328125</LongitudeDegrees>
            </Position>
            <AltitudeMeters>918.5999755859375</AltitudeMeters>
            <DistanceMeters>321370.21415528</DistanceMeters>
          </Trackpoint>
          <Trackpoint>
            <Time>2021-07-31T14:38:17.000Z</Time>
            <Position>
              <LatitudeDegrees>42.22607863135635852813720703125</LatitudeDegrees>
              <LongitudeDegrees>-2.29293490760028362274169921875</LongitudeDegrees>
            </Position>
            <AltitudeMeters>919.5999755859375</AltitudeMeters>
            <DistanceMeters>321406.04288128</DistanceMeters>
          </Trackpoint>
          <Trackpoint>
            <Time>2021-07-31T14:38:23.000Z</Time>
            <Position>
              <LatitudeDegrees>42.2259734384715557098388671875</LatitudeDegrees>
              <LongitudeDegrees>-2.2928152978420257568359375</LongitudeDegrees>
            </Position>
            <AltitudeMeters>920.79998779296875</AltitudeMeters>
            <DistanceMeters>321421.34867343</DistanceMeters>
          </Trackpoint>
          <Trackpoint>
            <Time>2021-07-31T14:38:30.000Z</Time>
            <Position>
              <LatitudeDegrees>42.2258594445884227752685546875</LatitudeDegrees>
              <LongitudeDegrees>-2.2926575504243373870849609375</LongitudeDegrees>
            </Position>
            <AltitudeMeters>921.79998779296875</AltitudeMeters>
            <DistanceMeters>321439.51493814</DistanceMeters>
          </Trackpoint>
          <Trackpoint>
            <Time>2021-07-31T14:38:38.000Z</Time>
            <Position>
              <LatitudeDegrees>42.2257576882839202880859375</LatitudeDegrees>
              <LongitudeDegrees>-2.29245563037693500518798828125</LongitudeDegrees>
            </Position>
            <AltitudeMeters>922.79998779296875</AltitudeMeters>
            <DistanceMeters>321459.64535569</DistanceMeters>
          </Trackpoint>
          <Trackpoint>
            <Time>2021-07-31T14:38:44.000Z</Time>
            <Position>
              <LatitudeDegrees>42.22570748068392276763916015625</LatitudeDegrees>
              <LongitudeDegrees>-2.29230391792953014373779296875</LongitudeDegrees>
            </Position>
            <AltitudeMeters>923.79998779296875</AltitudeMeters>
            <DistanceMeters>321473.34173506</DistanceMeters>
          </Trackpoint>
          <Trackpoint>
            <Time>2021-07-31T14:38:49.000Z</Time>
            <Position>
              <LatitudeDegrees>42.2256693430244922637939453125</LatitudeDegrees>
              <LongitudeDegrees>-2.292177267372608184814453125</LongitudeDegrees>
            </Position>
            <AltitudeMeters>924.79998779296875</AltitudeMeters>
            <DistanceMeters>321484.61031683</DistanceMeters>
          </Trackpoint>
          <Trackpoint>
            <Time>2021-07-31T14:38:57.000Z</Time>
            <Position>
              <LatitudeDegrees>42.22561595030128955841064453125</LatitudeDegrees>
              <LongitudeDegrees>-2.29199630208313465118408203125</LongitudeDegrees>
            </Position>
            <AltitudeMeters>925.5999755859375</AltitudeMeters>
            <DistanceMeters>321500.66617627</DistanceMeters>
          </Trackpoint>
          <Trackpoint>
            <Time>2021-07-31T14:39:06.000Z</Time>
            <Position>
              <LatitudeDegrees>42.22555040381848812103271484375</LatitudeDegrees>
              <LongitudeDegrees>-2.29179798625409603118896484375</LongitudeDegrees>
            </Position>
            <AltitudeMeters>926.79998779296875</AltitudeMeters>
            <DistanceMeters>321518.56553693</DistanceMeters>
          </Trackpoint>
          <Trackpoint>
            <Time>2021-07-31T14:39:16.000Z</Time>
            <Position>
              <LatitudeDegrees>42.2254711948335170745849609375</LatitudeDegrees>
              <LongitudeDegrees>-2.2915762849152088165283203125</LongitudeDegrees>
            </Position>
            <AltitudeMeters>928</AltitudeMeters>
            <DistanceMeters>321538.85368481</DistanceMeters>
          </Trackpoint>
          <Trackpoint>
            <Time>2021-07-31T14:39:24.000Z</Time>
            <Position>
              <LatitudeDegrees>42.225424088537693023681640625</LatitudeDegrees>
              <LongitudeDegrees>-2.291394062340259552001953125</LongitudeDegrees>
            </Position>
            <AltitudeMeters>929.20001220703125</AltitudeMeters>
            <DistanceMeters>321554.76122492</DistanceMeters>
          </Trackpoint>
          <Trackpoint>
            <Time>2021-07-31T14:39:28.000Z</Time>
            <Position>
              <LatitudeDegrees>42.22541042603552341461181640625</LatitudeDegrees>
              <LongitudeDegrees>-2.29130320250988006591796875</LongitudeDegrees>
            </Position>
            <AltitudeMeters>930.20001220703125</AltitudeMeters>
            <DistanceMeters>321562.4030509</DistanceMeters>
          </Trackpoint>
          <Trackpoint>
            <Time>2021-07-31T14:39:38.000Z</Time>
            <Position>
              <LatitudeDegrees>42.22539735026657581329345703125</LatitudeDegrees>
              <LongitudeDegrees>-2.29106641374528408050537109375</LongitudeDegrees>
            </Position>
            <AltitudeMeters>931.20001220703125</AltitudeMeters>
            <DistanceMeters>321581.97347916</DistanceMeters>
          </Trackpoint>
          <Trackpoint>
            <Time>2021-07-31T14:39:46.000Z</Time>
            <Position>
              <LatitudeDegrees>42.225409336388111114501953125</LatitudeDegrees>
              <LongitudeDegrees>-2.29088134132325649261474609375</LongitudeDegrees>
            </Position>
            <AltitudeMeters>932.4000244140625</AltitudeMeters>
            <DistanceMeters>321597.28546482</DistanceMeters>
          </Trackpoint>
          <Trackpoint>
            <Time>2021-07-31T14:39:55.000Z</Time>
            <Position>
              <LatitudeDegrees>42.225430123507976531982421875</LatitudeDegrees>
              <LongitudeDegrees>-2.2906713746488094329833984375</LongitudeDegrees>
            </Position>
            <AltitudeMeters>933.4000244140625</AltitudeMeters>
            <DistanceMeters>321614.74453869</DistanceMeters>
          </Trackpoint>
          <Trackpoint>
            <Time>2021-07-31T14:40:07.000Z</Time>
            <Position>
              <LatitudeDegrees>42.2254250943660736083984375</LatitudeDegrees>
              <LongitudeDegrees>-2.2903820313513278961181640625</LongitudeDegrees>
            </Position>
            <AltitudeMeters>934.5999755859375</AltitudeMeters>
            <DistanceMeters>321638.598894</DistanceMeters>
          </Trackpoint>
          <Trackpoint>
            <Time>2021-07-31T14:40:16.000Z</Time>
            <Position>
              <LatitudeDegrees>42.22528603859245777130126953125</LatitudeDegrees>
              <LongitudeDegrees>-2.290306426584720611572265625</LongitudeDegrees>
            </Position>
            <AltitudeMeters>935.5999755859375</AltitudeMeters>
            <DistanceMeters>321655.28359348</DistanceMeters>
          </Trackpoint>
          <Trackpoint>
            <Time>2021-07-31T14:40:26.000Z</Time>
            <Position>
              <LatitudeDegrees>42.2250976972281932830810546875</LatitudeDegrees>
              <LongitudeDegrees>-2.2903314046561717987060546875</LongitudeDegrees>
            </Position>
            <AltitudeMeters>936.4000244140625</AltitudeMeters>
            <DistanceMeters>321676.34718163</DistanceMeters>
          </Trackpoint>
          <Trackpoint>
            <Time>2021-07-31T14:40:34.000Z</Time>
            <Position>
              <LatitudeDegrees>42.22496165893971920013427734375</LatitudeDegrees>
              <LongitudeDegrees>-2.29025781154632568359375</LongitudeDegrees>
            </Position>
            <AltitudeMeters>937.4000244140625</AltitudeMeters>
            <DistanceMeters>321692.65804035</DistanceMeters>
          </Trackpoint>
          <Trackpoint>
            <Time>2021-07-31T14:40:42.000Z</Time>
            <Position>
              <LatitudeDegrees>42.22483794204890727996826171875</LatitudeDegrees>
              <LongitudeDegrees>-2.29015312157571315765380859375</LongitudeDegrees>
            </Position>
            <AltitudeMeters>938.5999755859375</AltitudeMeters>
            <DistanceMeters>321708.90816421</DistanceMeters>
          </Trackpoint>
          <Trackpoint>
            <Time>2021-07-31T14:40:48.000Z</Time>
            <Position>
              <LatitudeDegrees>42.22477977164089679718017578125</LatitudeDegrees>
              <LongitudeDegrees>-2.29002320207655429840087890625</LongitudeDegrees>
            </Position>
            <AltitudeMeters>939.5999755859375</AltitudeMeters>
            <DistanceMeters>321721.42177902</DistanceMeters>
          </Trackpoint>
          <Trackpoint>
            <Time>2021-07-31T14:41:02.000Z</Time>
            <Position>
              <LatitudeDegrees>42.22475294955074787139892578125</LatitudeDegrees>
              <LongitudeDegrees>-2.28962942026555538177490234375</LongitudeDegrees>
            </Position>
            <AltitudeMeters>940.5999755859375</AltitudeMeters>
            <DistanceMeters>321754.01455679</DistanceMeters>
          </Trackpoint>
          <Trackpoint>
            <Time>2021-07-31T14:41:12.000Z</Time>
            <Position>
              <LatitudeDegrees>42.224768288433551788330078125</LatitudeDegrees>
              <LongitudeDegrees>-2.28929749689996242523193359375</LongitudeDegrees>
            </Position>
            <AltitudeMeters>941.5999755859375</AltitudeMeters>
            <DistanceMeters>321781.42544041</DistanceMeters>
          </Trackpoint>
          <Trackpoint>
            <Time>2021-07-31T14:41:24.000Z</Time>
            <Position>
              <LatitudeDegrees>42.224819920957088470458984375</LatitudeDegrees>
              <LongitudeDegrees>-2.28891410864889621734619140625</LongitudeDegrees>
            </Position>
            <AltitudeMeters>942.5999755859375</AltitudeMeters>
            <DistanceMeters>321813.54278295</DistanceMeters>
          </Trackpoint>
          <Trackpoint>
            <Time>2021-07-31T14:41:33.000Z</Time>
            <Position>
              <LatitudeDegrees>42.224667035043239593505859375</LatitudeDegrees>
              <LongitudeDegrees>-2.28871428407728672027587890625</LongitudeDegrees>
            </Position>
            <AltitudeMeters>943.5999755859375</AltitudeMeters>
            <DistanceMeters>321837.2240808</DistanceMeters>
          </Trackpoint>
          <Trackpoint>
            <Time>2021-07-31T14:41:38.000Z</Time>
            <Position>
              <LatitudeDegrees>42.22459495067596435546875</LatitudeDegrees>
              <LongitudeDegrees>-2.2885966859757900238037109375</LongitudeDegrees>
            </Position>
            <AltitudeMeters>944.79998779296875</AltitudeMeters>
            <DistanceMeters>321849.8064216</DistanceMeters>
          </Trackpoint>
          <Trackpoint>
            <Time>2021-07-31T14:41:44.000Z</Time>
            <Position>
              <LatitudeDegrees>42.22453652881085872650146484375</LatitudeDegrees>
              <LongitudeDegrees>-2.28843667544424533843994140625</LongitudeDegrees>
            </Position>
            <AltitudeMeters>945.4000244140625</AltitudeMeters>
            <DistanceMeters>321864.51071181</DistanceMeters>
          </Trackpoint>
          <Trackpoint>
            <Time>2021-07-31T14:41:46.000Z</Time>
            <Position>
              <LatitudeDegrees>42.224518842995166778564453125</LatitudeDegrees>
              <LongitudeDegrees>-2.2883837856352329254150390625</LongitudeDegrees>
            </Position>
            <AltitudeMeters>945.79998779296875</AltitudeMeters>
            <DistanceMeters>321869.2942475</DistanceMeters>
          </Trackpoint>
          <Trackpoint>
            <Time>2021-07-31T14:41:54.000Z</Time>
            <Position>
              <LatitudeDegrees>42.224455140531063079833984375</LatitudeDegrees>
              <LongitudeDegrees>-2.2881762497127056121826171875</LongitudeDegrees>
            </Position>
            <AltitudeMeters>947</AltitudeMeters>
            <DistanceMeters>321887.81080691</DistanceMeters>
          </Trackpoint>
          <Trackpoint>
            <Time>2021-07-31T14:42:03.000Z</Time>
            <Position>
              <LatitudeDegrees>42.224394790828227996826171875</LatitudeDegrees>
              <LongitudeDegrees>-2.287952788174152374267578125</LongitudeDegrees>
            </Position>
            <AltitudeMeters>948</AltitudeMeters>
            <DistanceMeters>321907.4155804</DistanceMeters>
          </Trackpoint>
          <Trackpoint>
            <Time>2021-07-31T14:42:14.000Z</Time>
            <Position>
              <LatitudeDegrees>42.22434994764626026153564453125</LatitudeDegrees>
              <LongitudeDegrees>-2.28767995722591876983642578125</LongitudeDegrees>
            </Position>
            <AltitudeMeters>949.20001220703125</AltitudeMeters>
            <DistanceMeters>321930.44971098</DistanceMeters>
          </Trackpoint>
          <Trackpoint>
            <Time>2021-07-31T14:42:22.000Z</Time>
            <Position>
              <LatitudeDegrees>42.22434089519083499908447265625</LatitudeDegrees>
              <LongitudeDegrees>-2.28746496140956878662109375</LongitudeDegrees>
            </Position>
            <AltitudeMeters>950.20001220703125</AltitudeMeters>
            <DistanceMeters>321948.19860523</DistanceMeters>
          </Trackpoint>
          <Trackpoint>
            <Time>2021-07-31T14:42:28.000Z</Time>
            <Position>
              <LatitudeDegrees>42.22434349358081817626953125</LatitudeDegrees>
              <LongitudeDegrees>-2.28729874826967716217041015625</LongitudeDegrees>
            </Position>
            <AltitudeMeters>951.20001220703125</AltitudeMeters>
            <DistanceMeters>321961.90124656</DistanceMeters>
          </Trackpoint>
          <Trackpoint>
            <Time>2021-07-31T14:42:45.000Z</Time>
            <Position>
              <LatitudeDegrees>42.22422279417514801025390625</LatitudeDegrees>
              <LongitudeDegrees>-2.28680312633514404296875</LongitudeDegrees>
            </Position>
            <AltitudeMeters>952</AltitudeMeters>
            <DistanceMeters>322004.90332853</DistanceMeters>
          </Trackpoint>
          <Trackpoint>
            <Time>2021-07-31T14:42:53.000Z</Time>
            <Position>
              <LatitudeDegrees>42.224105782806873321533203125</LatitudeDegrees>
              <LongitudeDegrees>-2.2866567783057689666748046875</LongitudeDegrees>
            </Position>
            <AltitudeMeters>953.4000244140625</AltitudeMeters>
            <DistanceMeters>322022.65425773</DistanceMeters>
          </Trackpoint>
          <Trackpoint>
            <Time>2021-07-31T14:42:58.000Z</Time>
            <Position>
              <LatitudeDegrees>42.2240409068763256072998046875</LatitudeDegrees>
              <LongitudeDegrees>-2.28656650520861148834228515625</LongitudeDegrees>
            </Position>
            <AltitudeMeters>954.5999755859375</AltitudeMeters>
            <DistanceMeters>322033.02262598</DistanceMeters>
          </Trackpoint>
          <Trackpoint>
            <Time>2021-07-31T14:43:03.000Z</Time>
            <Position>
              <LatitudeDegrees>42.22399120219051837921142578125</LatitudeDegrees>
              <LongitudeDegrees>-2.2864579595625400543212890625</LongitudeDegrees>
            </Position>
            <AltitudeMeters>955.79998779296875</AltitudeMeters>
            <DistanceMeters>322043.54144372</DistanceMeters>
          </Trackpoint>
          <Trackpoint>
            <Time>2021-07-31T14:43:10.000Z</Time>
            <Position>
              <LatitudeDegrees>42.22396421246230602264404296875</LatitudeDegrees>
              <LongitudeDegrees>-2.2862842865288257598876953125</LongitudeDegrees>
            </Position>
            <AltitudeMeters>956.79998779296875</AltitudeMeters>
            <DistanceMeters>322058.1675338</DistanceMeters>
          </Trackpoint>
          <Trackpoint>
            <Time>2021-07-31T14:43:22.000Z</Time>
            <Position>
              <LatitudeDegrees>42.223983742296695709228515625</LatitudeDegrees>
              <LongitudeDegrees>-2.28597222827374935150146484375</LongitudeDegrees>
            </Position>
            <AltitudeMeters>957.79998779296875</AltitudeMeters>
            <DistanceMeters>322083.97966525</DistanceMeters>
          </Trackpoint>
          <Trackpoint>
            <Time>2021-07-31T14:43:32.000Z</Time>
            <Position>
              <LatitudeDegrees>42.2239356301724910736083984375</LatitudeDegrees>
              <LongitudeDegrees>-2.2857870720326900482177734375</LongitudeDegrees>
            </Position>
            <AltitudeMeters>959</AltitudeMeters>
            <DistanceMeters>322100.15292171</DistanceMeters>
          </Trackpoint>
          <Trackpoint>
            <Time>2021-07-31T14:43:38.000Z</Time>
            <Position>
              <LatitudeDegrees>42.2238801419734954833984375</LatitudeDegrees>
              <LongitudeDegrees>-2.28569763712584972381591796875</LongitudeDegrees>
            </Position>
            <AltitudeMeters>960.20001220703125</AltitudeMeters>
            <DistanceMeters>322109.7689491</DistanceMeters>
          </Trackpoint>
          <Trackpoint>
            <Time>2021-07-31T14:43:46.000Z</Time>
            <Position>
              <LatitudeDegrees>42.223797328770160675048828125</LatitudeDegrees>
              <LongitudeDegrees>-2.28556771762669086456298828125</LongitudeDegrees>
            </Position>
            <AltitudeMeters>961</AltitudeMeters>
            <DistanceMeters>322123.89760331</DistanceMeters>
          </Trackpoint>
          <Trackpoint>
            <Time>2021-07-31T14:43:53.000Z</Time>
            <Position>
              <LatitudeDegrees>42.2237321175634860992431640625</LatitudeDegrees>
              <LongitudeDegrees>-2.285442240536212921142578125</LongitudeDegrees>
            </Position>
            <AltitudeMeters>962.20001220703125</AltitudeMeters>
            <DistanceMeters>322136.53222603</DistanceMeters>
          </Trackpoint>
          <Trackpoint>
            <Time>2021-07-31T14:44:03.000Z</Time>
            <Position>
              <LatitudeDegrees>42.22367168404161930084228515625</LatitudeDegrees>
              <LongitudeDegrees>-2.285237051546573638916015625</LongitudeDegrees>
            </Position>
            <AltitudeMeters>963.20001220703125</AltitudeMeters>
            <DistanceMeters>322154.73275691</DistanceMeters>
          </Trackpoint>
          <Trackpoint>
            <Time>2021-07-31T14:44:17.000Z</Time>
            <Position>
              <LatitudeDegrees>42.223594486713409423828125</LatitudeDegrees>
              <LongitudeDegrees>-2.28493320755660533905029296875</LongitudeDegrees>
            </Position>
            <AltitudeMeters>964.20001220703125</AltitudeMeters>
            <DistanceMeters>322181.2092528</DistanceMeters>
          </Trackpoint>
          <Trackpoint>
            <Time>2021-07-31T14:44:24.000Z</Time>
            <Position>
              <LatitudeDegrees>42.22354377619922161102294921875</LatitudeDegrees>
              <LongitudeDegrees>-2.2847876138985157012939453125</LongitudeDegrees>
            </Position>
            <AltitudeMeters>965.20001220703125</AltitudeMeters>
            <DistanceMeters>322194.47050231</DistanceMeters>
          </Trackpoint>
          <Trackpoint>
            <Time>2021-07-31T14:44:32.000Z</Time>
            <Position>
              <LatitudeDegrees>42.2234561853110790252685546875</LatitudeDegrees>
              <LongitudeDegrees>-2.28461603634059429168701171875</LongitudeDegrees>
            </Position>
            <AltitudeMeters>966.4000244140625</AltitudeMeters>
            <DistanceMeters>322211.64695881</DistanceMeters>
          </Trackpoint>
          <Trackpoint>
            <Time>2021-07-31T14:44:39.000Z</Time>
            <Position>
              <LatitudeDegrees>42.22337253391742706298828125</LatitudeDegrees>
              <LongitudeDegrees>-2.28446348570287227630615234375</LongitudeDegrees>
            </Position>
            <AltitudeMeters>967.4000244140625</AltitudeMeters>
            <DistanceMeters>322227.29263911</DistanceMeters>
          </Trackpoint>
          <Trackpoint>
            <Time>2021-07-31T14:44:46.000Z</Time>
            <Position>
              <LatitudeDegrees>42.223294079303741455078125</LatitudeDegrees>
              <LongitudeDegrees>-2.284322418272495269775390625</LongitudeDegrees>
            </Position>
            <AltitudeMeters>968.4000244140625</AltitudeMeters>
            <DistanceMeters>322241.83358956</DistanceMeters>
          </Trackpoint>
          <Trackpoint>
            <Time>2021-07-31T14:44:55.000Z</Time>
            <Position>
              <LatitudeDegrees>42.22315083257853984832763671875</LatitudeDegrees>
              <LongitudeDegrees>-2.28418839164078235626220703125</LongitudeDegrees>
            </Position>
            <AltitudeMeters>969.4000244140625</AltitudeMeters>
            <DistanceMeters>322261.23021568</DistanceMeters>
          </Trackpoint>
          <Trackpoint>
            <Time>2021-07-31T14:45:02.000Z</Time>
            <Position>
              <LatitudeDegrees>42.22301705740392208099365234375</LatitudeDegrees>
              <LongitudeDegrees>-2.2841821052134037017822265625</LongitudeDegrees>
            </Position>
            <AltitudeMeters>970.4000244140625</AltitudeMeters>
            <DistanceMeters>322276.12881659</DistanceMeters>
          </Trackpoint>
          <Trackpoint>
            <Time>2021-07-31T14:45:13.000Z</Time>
            <Position>
              <LatitudeDegrees>42.2228313982486724853515625</LatitudeDegrees>
              <LongitudeDegrees>-2.2841839492321014404296875</LongitudeDegrees>
            </Position>
            <AltitudeMeters>971.5999755859375</AltitudeMeters>
            <DistanceMeters>322296.7937953</DistanceMeters>
          </Trackpoint>
          <Trackpoint>
            <Time>2021-07-31T14:45:17.000Z</Time>
            <Position>
              <LatitudeDegrees>42.22277968190610408782958984375</LatitudeDegrees>
              <LongitudeDegrees>-2.2841740585863590240478515625</LongitudeDegrees>
            </Position>
            <AltitudeMeters>972.4000244140625</AltitudeMeters>
            <DistanceMeters>322302.60675892</DistanceMeters>
          </Trackpoint>
          <Trackpoint>
            <Time>2021-07-31T14:45:24.000Z</Time>
            <Position>
              <LatitudeDegrees>42.22272000275552272796630859375</LatitudeDegrees>
              <LongitudeDegrees>-2.28412904776632785797119140625</LongitudeDegrees>
            </Position>
            <AltitudeMeters>973.5999755859375</AltitudeMeters>
            <DistanceMeters>322310.21483292</DistanceMeters>
          </Trackpoint>
          <Trackpoint>
            <Time>2021-07-31T14:45:32.000Z</Time>
            <Position>
              <LatitudeDegrees>42.222648672759532928466796875</LatitudeDegrees>
              <LongitudeDegrees>-2.2840563766658306121826171875</LongitudeDegrees>
            </Position>
            <AltitudeMeters>974.79998779296875</AltitudeMeters>
            <DistanceMeters>322320.16000398</DistanceMeters>
          </Trackpoint>
          <Trackpoint>
            <Time>2021-07-31T14:45:37.000Z</Time>
            <Position>
              <LatitudeDegrees>42.2226042486727237701416015625</LatitudeDegrees>
              <LongitudeDegrees>-2.2840069234371185302734375</LongitudeDegrees>
            </Position>
            <AltitudeMeters>975.79998779296875</AltitudeMeters>
            <DistanceMeters>322326.56849738</DistanceMeters>
          </Trackpoint>
          <Trackpoint>
            <Time>2021-07-31T14:45:46.000Z</Time>
            <Position>
              <LatitudeDegrees>42.2225412167608737945556640625</LatitudeDegrees>
              <LongitudeDegrees>-2.2839283011853694915771484375</LongitudeDegrees>
            </Position>
            <AltitudeMeters>977</AltitudeMeters>
            <DistanceMeters>322336.11856398</DistanceMeters>
          </Trackpoint>
          <Trackpoint>
            <Time>2021-07-31T14:45:55.000Z</Time>
            <Position>
              <LatitudeDegrees>42.22247726283967494964599609375</LatitudeDegrees>
              <LongitudeDegrees>-2.2838749922811985015869140625</LongitudeDegrees>
            </Position>
            <AltitudeMeters>978</AltitudeMeters>
            <DistanceMeters>322344.48361403</DistanceMeters>
          </Trackpoint>
          <Trackpoint>
            <Time>2021-07-31T14:46:05.000Z</Time>
            <Position>
              <LatitudeDegrees>42.22241624258458614349365234375</LatitudeDegrees>
              <LongitudeDegrees>-2.2837650217115879058837890625</LongitudeDegrees>
            </Position>
            <AltitudeMeters>979.20001220703125</AltitudeMeters>
            <DistanceMeters>322355.81014466</DistanceMeters>
          </Trackpoint>
          <Trackpoint>
            <Time>2021-07-31T14:46:16.000Z</Time>
            <Position>
              <LatitudeDegrees>42.22236159257590770721435546875</LatitudeDegrees>
              <LongitudeDegrees>-2.28363635949790477752685546875</LongitudeDegrees>
            </Position>
            <AltitudeMeters>980</AltitudeMeters>
            <DistanceMeters>322368.03576633</DistanceMeters>
          </Trackpoint>
          <Trackpoint>
            <Time>2021-07-31T14:46:23.000Z</Time>
            <Position>
              <LatitudeDegrees>42.22235262393951416015625</LatitudeDegrees>
              <LongitudeDegrees>-2.2835353575646877288818359375</LongitudeDegrees>
            </Position>
            <AltitudeMeters>981</AltitudeMeters>
            <DistanceMeters>322376.41968636</DistanceMeters>
          </Trackpoint>
          <Trackpoint>
            <Time>2021-07-31T14:46:31.000Z</Time>
            <Position>
              <LatitudeDegrees>42.22235329449176788330078125</LatitudeDegrees>
              <LongitudeDegrees>-2.2834200225770473480224609375</LongitudeDegrees>
            </Position>
            <AltitudeMeters>982.20001220703125</AltitudeMeters>
            <DistanceMeters>322385.92615811</DistanceMeters>
          </Trackpoint>
          <Trackpoint>
            <Time>2021-07-31T14:46:39.000Z</Time>
            <Position>
              <LatitudeDegrees>42.2223588265478610992431640625</LatitudeDegrees>
              <LongitudeDegrees>-2.28330678306519985198974609375</LongitudeDegrees>
            </Position>
            <AltitudeMeters>983.20001220703125</AltitudeMeters>
            <DistanceMeters>322395.28037858</DistanceMeters>
          </Trackpoint>
          <Trackpoint>
            <Time>2021-07-31T14:46:47.000Z</Time>
            <Position>
              <LatitudeDegrees>42.2223742492496967315673828125</LatitudeDegrees>
              <LongitudeDegrees>-2.28319195099174976348876953125</LongitudeDegrees>
            </Position>
            <AltitudeMeters>984.4000244140625</AltitudeMeters>
            <DistanceMeters>322404.9001615</DistanceMeters>
          </Trackpoint>
          <Trackpoint>
            <Time>2021-07-31T14:46:53.000Z</Time>
            <Position>
              <LatitudeDegrees>42.22238221205770969390869140625</LatitudeDegrees>
              <LongitudeDegrees>-2.2831122390925884246826171875</LongitudeDegrees>
            </Position>
            <AltitudeMeters>985.4000244140625</AltitudeMeters>
            <DistanceMeters>322411.53027554</DistanceMeters>
          </Trackpoint>
          <Trackpoint>
            <Time>2021-07-31T14:47:00.000Z</Time>
            <Position>
              <LatitudeDegrees>42.22239143215119838714599609375</LatitudeDegrees>
              <LongitudeDegrees>-2.283016182482242584228515625</LongitudeDegrees>
            </Position>
            <AltitudeMeters>986.5999755859375</AltitudeMeters>
            <DistanceMeters>322419.51365074</DistanceMeters>
          </Trackpoint>
          <Trackpoint>
            <Time>2021-07-31T14:47:06.000Z</Time>
            <Position>
              <LatitudeDegrees>42.22240232862532138824462890625</LatitudeDegrees>
              <LongitudeDegrees>-2.2829325310885906219482421875</LongitudeDegrees>
            </Position>
            <AltitudeMeters>987.5999755859375</AltitudeMeters>
            <DistanceMeters>322426.51409535</DistanceMeters>
          </Trackpoint>
          <Trackpoint>
            <Time>2021-07-31T14:47:12.000Z</Time>
            <Position>
              <LatitudeDegrees>42.222408615052700042724609375</LatitudeDegrees>
              <LongitudeDegrees>-2.28284996934235095977783203125</LongitudeDegrees>
            </Position>
            <AltitudeMeters>988.79998779296875</AltitudeMeters>
            <DistanceMeters>322433.35469885</DistanceMeters>
          </Trackpoint>
          <Trackpoint>
            <Time>2021-07-31T14:47:18.000Z</Time>
            <Position>
              <LatitudeDegrees>42.22242378629744052886962890625</LatitudeDegrees>
              <LongitudeDegrees>-2.282768748700618743896484375</LongitudeDegrees>
            </Position>
            <AltitudeMeters>989.79998779296875</AltitudeMeters>
            <DistanceMeters>322440.2590289</DistanceMeters>
          </Trackpoint>
          <Trackpoint>
            <Time>2021-07-31T14:47:27.000Z</Time>
            <Position>
              <LatitudeDegrees>42.2224366106092929840087890625</LatitudeDegrees>
              <LongitudeDegrees>-2.28263966739177703857421875</LongitudeDegrees>
            </Position>
            <AltitudeMeters>991</AltitudeMeters>
            <DistanceMeters>322450.99326271</DistanceMeters>
          </Trackpoint>
          <Trackpoint>
            <Time>2021-07-31T14:47:34.000Z</Time>
            <Position>
              <LatitudeDegrees>42.22244876436889171600341796875</LatitudeDegrees>
              <LongitudeDegrees>-2.28254034183919429779052734375</LongitudeDegrees>
            </Position>
            <AltitudeMeters>991.79998779296875</AltitudeMeters>
            <DistanceMeters>322459.29056967</DistanceMeters>
          </Trackpoint>
          <Trackpoint>
            <Time>2021-07-31T14:47:35.000Z</Time>
            <Position>
              <LatitudeDegrees>42.22245044074952602386474609375</LatitudeDegrees>
              <LongitudeDegrees>-2.2825263440608978271484375</LongitudeDegrees>
            </Position>
            <AltitudeMeters>992</AltitudeMeters>
            <DistanceMeters>322460.46213769</DistanceMeters>
          </Trackpoint>
          <Trackpoint>
            <Time>2021-07-31T14:47:41.000Z</Time>
            <Position>
              <LatitudeDegrees>42.2224557213485240936279296875</LatitudeDegrees>
              <LongitudeDegrees>-2.282434143126010894775390625</LongitudeDegrees>
            </Position>
            <AltitudeMeters>992.79998779296875</AltitudeMeters>
            <DistanceMeters>322468.08444127</DistanceMeters>
          </Trackpoint>
          <Trackpoint>
            <Time>2021-07-31T14:47:51.000Z</Time>
            <Position>
              <LatitudeDegrees>42.22244189120829105377197265625</LatitudeDegrees>
              <LongitudeDegrees>-2.28227715007960796356201171875</LongitudeDegrees>
            </Position>
            <AltitudeMeters>994</AltitudeMeters>
            <DistanceMeters>322481.11558042</DistanceMeters>
          </Trackpoint>
          <Trackpoint>
            <Time>2021-07-31T14:47:57.000Z</Time>
            <Position>
              <LatitudeDegrees>42.22242378629744052886962890625</LatitudeDegrees>
              <LongitudeDegrees>-2.28218276984989643096923828125</LongitudeDegrees>
            </Position>
            <AltitudeMeters>995.20001220703125</AltitudeMeters>
            <DistanceMeters>322489.15081822</DistanceMeters>
          </Trackpoint>
          <Trackpoint>
            <Time>2021-07-31T14:48:03.000Z</Time>
            <Position>
              <LatitudeDegrees>42.22241020761430263519287109375</LatitudeDegrees>
              <LongitudeDegrees>-2.28208755142986774444580078125</LongitudeDegrees>
            </Position>
            <AltitudeMeters>996.20001220703125</AltitudeMeters>
            <DistanceMeters>322497.14323718</DistanceMeters>
          </Trackpoint>
          <Trackpoint>
            <Time>2021-07-31T14:48:09.000Z</Time>
            <Position>
              <LatitudeDegrees>42.22238673828542232513427734375</LatitudeDegrees>
              <LongitudeDegrees>-2.28200289420783519744873046875</LongitudeDegrees>
            </Position>
            <AltitudeMeters>997.4000244140625</AltitudeMeters>
            <DistanceMeters>322504.59359824</DistanceMeters>
          </Trackpoint>
          <Trackpoint>
            <Time>2021-07-31T14:48:13.000Z</Time>
            <Position>
              <LatitudeDegrees>42.2223742492496967315673828125</LatitudeDegrees>
              <LongitudeDegrees>-2.28194807656109333038330078125</LongitudeDegrees>
            </Position>
            <AltitudeMeters>998</AltitudeMeters>
            <DistanceMeters>322509.32016243</DistanceMeters>
          </Trackpoint>
          <Trackpoint>
            <Time>2021-07-31T14:48:17.000Z</Time>
            <Position>
              <LatitudeDegrees>42.2223594971001148223876953125</LatitudeDegrees>
              <LongitudeDegrees>-2.28188873268663883209228515625</LongitudeDegrees>
            </Position>
            <AltitudeMeters>998.5999755859375</AltitudeMeters>
            <DistanceMeters>322514.47968425</DistanceMeters>
          </Trackpoint>
          <Trackpoint>
            <Time>2021-07-31T14:48:26.000Z</Time>
            <Position>
              <LatitudeDegrees>42.22231440246105194091796875</LatitudeDegrees>
              <LongitudeDegrees>-2.2817552089691162109375</LongitudeDegrees>
            </Position>
            <AltitudeMeters>999.5999755859375</AltitudeMeters>
            <DistanceMeters>322526.57573024</DistanceMeters>
          </Trackpoint>
          <Trackpoint>
            <Time>2021-07-31T14:48:28.000Z</Time>
            <Position>
              <LatitudeDegrees>42.2223155759274959564208984375</LatitudeDegrees>
              <LongitudeDegrees>-2.28174339048564434051513671875</LongitudeDegrees>
            </Position>
            <AltitudeMeters>1000</AltitudeMeters>
            <DistanceMeters>322527.55869422</DistanceMeters>
          </Trackpoint>
          <Trackpoint>
            <Time>2021-07-31T14:56:04.000Z</Time>
            <Position>
              <LatitudeDegrees>42.22228012047708034515380859375</LatitudeDegrees>
              <LongitudeDegrees>-2.28171371854841709136962890625</LongitudeDegrees>
            </Position>
            <AltitudeMeters>998.79998779296875</AltitudeMeters>
            <DistanceMeters>322532.20140813</DistanceMeters>
          </Trackpoint>
          <Trackpoint>
            <Time>2021-07-31T14:56:14.000Z</Time>
            <Position>
              <LatitudeDegrees>42.22219781018793582916259765625</LatitudeDegrees>
              <LongitudeDegrees>-2.28146829642355442047119140625</LongitudeDegrees>
            </Position>
            <AltitudeMeters>999.5999755859375</AltitudeMeters>
            <DistanceMeters>322554.4077911</DistanceMeters>
          </Trackpoint>
          <Trackpoint>
            <Time>2021-07-31T14:56:21.000Z</Time>
            <Position>
              <LatitudeDegrees>42.2221045196056365966796875</LatitudeDegrees>
              <LongitudeDegrees>-2.28123812936246395111083984375</LongitudeDegrees>
            </Position>
            <AltitudeMeters>1000.79998779296875</AltitudeMeters>
            <DistanceMeters>322576.03487758</DistanceMeters>
          </Trackpoint>
          <Trackpoint>
            <Time>2021-07-31T14:56:25.000Z</Time>
            <Position>
              <LatitudeDegrees>42.222060598433017730712890625</LatitudeDegrees>
              <LongitudeDegrees>-2.28111960925161838531494140625</LongitudeDegrees>
            </Position>
            <AltitudeMeters>1002</AltitudeMeters>
            <DistanceMeters>322586.95840403</DistanceMeters>
          </Trackpoint>
          <Trackpoint>
            <Time>2021-07-31T14:56:29.000Z</Time>
            <Position>
              <LatitudeDegrees>42.22201592288911342620849609375</LatitudeDegrees>
              <LongitudeDegrees>-2.281006872653961181640625</LongitudeDegrees>
            </Position>
            <AltitudeMeters>1003</AltitudeMeters>
            <DistanceMeters>322597.49737648</DistanceMeters>
          </Trackpoint>
          <Trackpoint>
            <Time>2021-07-31T14:56:33.000Z</Time>
            <Position>
              <LatitudeDegrees>42.221977449953556060791015625</LatitudeDegrees>
              <LongitudeDegrees>-2.280898578464984893798828125</LongitudeDegrees>
            </Position>
            <AltitudeMeters>1004.4000244140625</AltitudeMeters>
            <DistanceMeters>322607.3975002</DistanceMeters>
          </Trackpoint>
          <Trackpoint>
            <Time>2021-07-31T14:56:37.000Z</Time>
            <Position>
              <LatitudeDegrees>42.2219447605311870574951171875</LatitudeDegrees>
              <LongitudeDegrees>-2.28079698979854583740234375</LongitudeDegrees>
            </Position>
            <AltitudeMeters>1005.5999755859375</AltitudeMeters>
            <DistanceMeters>322616.52699118</DistanceMeters>
          </Trackpoint>
          <Trackpoint>
            <Time>2021-07-31T14:56:41.000Z</Time>
            <Position>
              <LatitudeDegrees>42.22192036919295787811279296875</LatitudeDegrees>
              <LongitudeDegrees>-2.2807059623301029205322265625</LongitudeDegrees>
            </Position>
            <AltitudeMeters>1006.79998779296875</AltitudeMeters>
            <DistanceMeters>322624.50584065</DistanceMeters>
          </Trackpoint>
          <Trackpoint>
            <Time>2021-07-31T14:56:46.000Z</Time>
            <Position>
              <LatitudeDegrees>42.221875526010990142822265625</LatitudeDegrees>
              <LongitudeDegrees>-2.28060395456850528717041015625</LongitudeDegrees>
            </Position>
            <AltitudeMeters>1008</AltitudeMeters>
            <DistanceMeters>322634.28390025</DistanceMeters>
          </Trackpoint>
          <Trackpoint>
            <Time>2021-07-31T14:56:53.000Z</Time>
            <Position>
              <LatitudeDegrees>42.2218086384236812591552734375</LatitudeDegrees>
              <LongitudeDegrees>-2.280507981777191162109375</LongitudeDegrees>
            </Position>
            <AltitudeMeters>1009</AltitudeMeters>
            <DistanceMeters>322645.14691267</DistanceMeters>
          </Trackpoint>
          <Trackpoint>
            <Time>2021-07-31T14:56:55.000Z</Time>
            <Position>
              <LatitudeDegrees>42.22180168144404888153076171875</LatitudeDegrees>
              <LongitudeDegrees>-2.28050035424530506134033203125</LongitudeDegrees>
            </Position>
            <AltitudeMeters>1009.20001220703125</AltitudeMeters>
            <DistanceMeters>322646.14356126</DistanceMeters>
          </Trackpoint>
          <Trackpoint>
            <Time>2021-07-31T15:02:04.000Z</Time>
            <Position>
              <LatitudeDegrees>42.22180888988077640533447265625</LatitudeDegrees>
              <LongitudeDegrees>-2.28057495318353176116943359375</LongitudeDegrees>
            </Position>
            <AltitudeMeters>1008.4000244140625</AltitudeMeters>
            <DistanceMeters>322652.34437294</DistanceMeters>
          </Trackpoint>
          <Trackpoint>
            <Time>2021-07-31T15:02:24.000Z</Time>
            <Position>
              <LatitudeDegrees>42.2218582592904567718505859375</LatitudeDegrees>
              <LongitudeDegrees>-2.28109471499919891357421875</LongitudeDegrees>
            </Position>
            <AltitudeMeters>1009.79998779296875</AltitudeMeters>
            <DistanceMeters>322695.53649737</DistanceMeters>
          </Trackpoint>
          <Trackpoint>
            <Time>2021-07-31T15:02:44.000Z</Time>
            <Position>
              <LatitudeDegrees>42.221923135221004486083984375</LatitudeDegrees>
              <LongitudeDegrees>-2.28165621869266033172607421875</LongitudeDegrees>
            </Position>
            <AltitudeMeters>1010.79998779296875</AltitudeMeters>
            <DistanceMeters>322742.37801714</DistanceMeters>
          </Trackpoint>
          <Trackpoint>
            <Time>2021-07-31T15:02:47.000Z</Time>
            <Position>
              <LatitudeDegrees>42.22192740999162197113037109375</LatitudeDegrees>
              <LongitudeDegrees>-2.28174087591469287872314453125</LongitudeDegrees>
            </Position>
            <AltitudeMeters>1012</AltitudeMeters>
            <DistanceMeters>322749.37136355</DistanceMeters>
          </Trackpoint>
          <Trackpoint>
            <Time>2021-07-31T15:02:55.000Z</Time>
            <Position>
              <LatitudeDegrees>42.22187678329646587371826171875</LatitudeDegrees>
              <LongitudeDegrees>-2.2819595597684383392333984375</LongitudeDegrees>
            </Position>
            <AltitudeMeters>1013.20001220703125</AltitudeMeters>
            <DistanceMeters>322768.25659321</DistanceMeters>
          </Trackpoint>
          <Trackpoint>
            <Time>2021-07-31T15:03:00.000Z</Time>
            <Position>
              <LatitudeDegrees>42.221801765263080596923828125</LatitudeDegrees>
              <LongitudeDegrees>-2.28206525556743144989013671875</LongitudeDegrees>
            </Position>
            <AltitudeMeters>1014.4000244140625</AltitudeMeters>
            <DistanceMeters>322780.32386352</DistanceMeters>
          </Trackpoint>
          <Trackpoint>
            <Time>2021-07-31T15:03:11.000Z</Time>
            <Position>
              <LatitudeDegrees>42.22158961929380893707275390625</LatitudeDegrees>
              <LongitudeDegrees>-2.28216491639614105224609375</LongitudeDegrees>
            </Position>
            <AltitudeMeters>1015.4000244140625</AltitudeMeters>
            <DistanceMeters>322805.32419834</DistanceMeters>
          </Trackpoint>
          <Trackpoint>
            <Time>2021-07-31T15:03:23.000Z</Time>
            <Position>
              <LatitudeDegrees>42.22132491879165172576904296875</LatitudeDegrees>
              <LongitudeDegrees>-2.2821107693016529083251953125</LongitudeDegrees>
            </Position>
            <AltitudeMeters>1016.4000244140625</AltitudeMeters>
            <DistanceMeters>322835.12200626</DistanceMeters>
          </Trackpoint>
          <Trackpoint>
            <Time>2021-07-31T15:03:32.000Z</Time>
            <Position>
              <LatitudeDegrees>42.22113666124641895294189453125</LatitudeDegrees>
              <LongitudeDegrees>-2.28201077319681644439697265625</LongitudeDegrees>
            </Position>
            <AltitudeMeters>1017.5999755859375</AltitudeMeters>
            <DistanceMeters>322857.63812452</DistanceMeters>
          </Trackpoint>
          <Trackpoint>
            <Time>2021-07-31T15:03:41.000Z</Time>
            <Position>
              <LatitudeDegrees>42.2209352441132068634033203125</LatitudeDegrees>
              <LongitudeDegrees>-2.28188621811568737030029296875</LongitudeDegrees>
            </Position>
            <AltitudeMeters>1018.5999755859375</AltitudeMeters>
            <DistanceMeters>322882.29494765</DistanceMeters>
          </Trackpoint>
          <Trackpoint>
            <Time>2021-07-31T15:03:45.000Z</Time>
            <Position>
              <LatitudeDegrees>42.2208370082080364227294921875</LatitudeDegrees>
              <LongitudeDegrees>-2.281877584755420684814453125</LongitudeDegrees>
            </Position>
            <AltitudeMeters>1019.5999755859375</AltitudeMeters>
            <DistanceMeters>322893.25149073</DistanceMeters>
          </Trackpoint>
          <Trackpoint>
            <Time>2021-07-31T15:04:07.000Z</Time>
            <Position>
              <LatitudeDegrees>42.22057423554360866546630859375</LatitudeDegrees>
              <LongitudeDegrees>-2.28212208487093448638916015625</LongitudeDegrees>
            </Position>
            <AltitudeMeters>1020.79998779296875</AltitudeMeters>
            <DistanceMeters>322928.76962412</DistanceMeters>
          </Trackpoint>
          <Trackpoint>
            <Time>2021-07-31T15:04:15.000Z</Time>
            <Position>
              <LatitudeDegrees>42.22053266130387783050537109375</LatitudeDegrees>
              <LongitudeDegrees>-2.28218712843954563140869140625</LongitudeDegrees>
            </Position>
            <AltitudeMeters>1022</AltitudeMeters>
            <DistanceMeters>322935.85150555</DistanceMeters>
          </Trackpoint>
          <Trackpoint>
            <Time>2021-07-31T15:04:20.000Z</Time>
            <Position>
              <LatitudeDegrees>42.2205104492604732513427734375</LatitudeDegrees>
              <LongitudeDegrees>-2.28224244900047779083251953125</LongitudeDegrees>
            </Position>
            <AltitudeMeters>1021</AltitudeMeters>
            <DistanceMeters>322941.03808416</DistanceMeters>
          </Trackpoint>
          <Trackpoint>
            <Time>2021-07-31T15:04:30.000Z</Time>
            <Position>
              <LatitudeDegrees>42.2204625047743320465087890625</LatitudeDegrees>
              <LongitudeDegrees>-2.282365076243877410888671875</LongitudeDegrees>
            </Position>
            <AltitudeMeters>1022</AltitudeMeters>
            <DistanceMeters>322952.46818241</DistanceMeters>
          </Trackpoint>
          <Trackpoint>
            <Time>2021-07-31T15:04:42.000Z</Time>
            <Position>
              <LatitudeDegrees>42.2204326651990413665771484375</LatitudeDegrees>
              <LongitudeDegrees>-2.282495833933353424072265625</LongitudeDegrees>
            </Position>
            <AltitudeMeters>1023.20001220703125</AltitudeMeters>
            <DistanceMeters>322963.74637627</DistanceMeters>
          </Trackpoint>
          <Trackpoint>
            <Time>2021-07-31T15:04:55.000Z</Time>
            <Position>
              <LatitudeDegrees>42.22040877677500247955322265625</LatitudeDegrees>
              <LongitudeDegrees>-2.28267260827124118804931640625</LongitudeDegrees>
            </Position>
            <AltitudeMeters>1024.4000244140625</AltitudeMeters>
            <DistanceMeters>322978.55744129</DistanceMeters>
          </Trackpoint>
          <Trackpoint>
            <Time>2021-07-31T15:05:07.000Z</Time>
            <Position>
              <LatitudeDegrees>42.2204340063035488128662109375</LatitudeDegrees>
              <LongitudeDegrees>-2.2828252427279949188232421875</LongitudeDegrees>
            </Position>
            <AltitudeMeters>1025.199951171875</AltitudeMeters>
            <DistanceMeters>322991.4481925</DistanceMeters>
          </Trackpoint>
          <Trackpoint>
            <Time>2021-07-31T15:05:10.000Z</Time>
            <Position>
              <LatitudeDegrees>42.22044012509286403656005859375</LatitudeDegrees>
              <LongitudeDegrees>-2.28286170400679111480712890625</LongitudeDegrees>
            </Position>
            <AltitudeMeters>1026.199951171875</AltitudeMeters>
            <DistanceMeters>322994.53034117</DistanceMeters>
          </Trackpoint>
          <Trackpoint>
            <Time>2021-07-31T15:05:19.000Z</Time>
            <Position>
              <LatitudeDegrees>42.2204571403563022613525390625</LatitudeDegrees>
              <LongitudeDegrees>-2.28297368623316287994384765625</LongitudeDegrees>
            </Position>
            <AltitudeMeters>1027.4000244140625</AltitudeMeters>
            <DistanceMeters>323003.95333123</DistanceMeters>
          </Trackpoint>
          <Trackpoint>
            <Time>2021-07-31T15:05:25.000Z</Time>
            <Position>
              <LatitudeDegrees>42.22046694718301296234130859375</LatitudeDegrees>
              <LongitudeDegrees>-2.28304560296237468719482421875</LongitudeDegrees>
            </Position>
            <AltitudeMeters>1028.4000244140625</AltitudeMeters>
            <DistanceMeters>323009.97985323</DistanceMeters>
          </Trackpoint>
          <Trackpoint>
            <Time>2021-07-31T15:05:29.000Z</Time>
            <Position>
              <LatitudeDegrees>42.22046527080237865447998046875</LatitudeDegrees>
              <LongitudeDegrees>-2.28307460434734821319580078125</LongitudeDegrees>
            </Position>
            <AltitudeMeters>1029</AltitudeMeters>
            <DistanceMeters>323012.37633579</DistanceMeters>
          </Trackpoint>
          <Trackpoint>
            <Time>2021-07-31T15:05:56.000Z</Time>
            <Position>
              <LatitudeDegrees>42.220456302165985107421875</LatitudeDegrees>
              <LongitudeDegrees>-2.28320620022714138031005859375</LongitudeDegrees>
            </Position>
            <AltitudeMeters>1030</AltitudeMeters>
            <DistanceMeters>323023.26923276</DistanceMeters>
          </Trackpoint>
          <Trackpoint>
            <Time>2021-07-31T15:06:05.000Z</Time>
            <Position>
              <LatitudeDegrees>42.22047767601907253265380859375</LatitudeDegrees>
              <LongitudeDegrees>-2.2833673842251300811767578125</LongitudeDegrees>
            </Position>
            <AltitudeMeters>1031</AltitudeMeters>
            <DistanceMeters>323036.7663718</DistanceMeters>
          </Trackpoint>
          <Trackpoint>
            <Time>2021-07-31T15:06:13.000Z</Time>
            <Position>
              <LatitudeDegrees>42.2204764187335968017578125</LatitudeDegrees>
              <LongitudeDegrees>-2.28350778110325336456298828125</LongitudeDegrees>
            </Position>
            <AltitudeMeters>1032.199951171875</AltitudeMeters>
            <DistanceMeters>323048.33936164</DistanceMeters>
          </Trackpoint>
          <Trackpoint>
            <Time>2021-07-31T15:06:18.000Z</Time>
            <Position>
              <LatitudeDegrees>42.2204836271703243255615234375</LatitudeDegrees>
              <LongitudeDegrees>-2.28359780274331569671630859375</LongitudeDegrees>
            </Position>
            <AltitudeMeters>1033.199951171875</AltitudeMeters>
            <DistanceMeters>323055.80364805</DistanceMeters>
          </Trackpoint>
          <Trackpoint>
            <Time>2021-07-31T15:06:26.000Z</Time>
            <Position>
              <LatitudeDegrees>42.22051195800304412841796875</LatitudeDegrees>
              <LongitudeDegrees>-2.2837187536060810089111328125</LongitudeDegrees>
            </Position>
            <AltitudeMeters>1034.5999755859375</AltitudeMeters>
            <DistanceMeters>323066.26004158</DistanceMeters>
          </Trackpoint>
          <Trackpoint>
            <Time>2021-07-31T15:06:30.000Z</Time>
            <Position>
              <LatitudeDegrees>42.22052293829619884490966796875</LatitudeDegrees>
              <LongitudeDegrees>-2.28377751074731349945068359375</LongitudeDegrees>
            </Position>
            <AltitudeMeters>1035.800048828125</AltitudeMeters>
            <DistanceMeters>323071.25414521</DistanceMeters>
          </Trackpoint>
          <Trackpoint>
            <Time>2021-07-31T15:06:43.000Z</Time>
            <Position>
              <LatitudeDegrees>42.22055495716631412506103515625</LatitudeDegrees>
              <LongitudeDegrees>-2.28397146798670291900634765625</LongitudeDegrees>
            </Position>
            <AltitudeMeters>1036.800048828125</AltitudeMeters>
            <DistanceMeters>323087.6335094</DistanceMeters>
          </Trackpoint>
          <Trackpoint>
            <Time>2021-07-31T15:06:50.000Z</Time>
            <Position>
              <LatitudeDegrees>42.2205496765673160552978515625</LatitudeDegrees>
              <LongitudeDegrees>-2.28408043272793292999267578125</LongitudeDegrees>
            </Position>
            <AltitudeMeters>1037.5999755859375</AltitudeMeters>
            <DistanceMeters>323096.63399915</DistanceMeters>
          </Trackpoint>
          <Trackpoint>
            <Time>2021-07-31T15:07:02.000Z</Time>
            <Position>
              <LatitudeDegrees>42.2205298952758312225341796875</LatitudeDegrees>
              <LongitudeDegrees>-2.28427137248218059539794921875</LongitudeDegrees>
            </Position>
            <AltitudeMeters>1038.800048828125</AltitudeMeters>
            <DistanceMeters>323112.52592093</DistanceMeters>
          </Trackpoint>
          <Trackpoint>
            <Time>2021-07-31T15:07:10.000Z</Time>
            <Position>
              <LatitudeDegrees>42.220509611070156097412109375</LatitudeDegrees>
              <LongitudeDegrees>-2.2844074107706546783447265625</LongitudeDegrees>
            </Position>
            <AltitudeMeters>1039.800048828125</AltitudeMeters>
            <DistanceMeters>323123.96391672</DistanceMeters>
          </Trackpoint>
          <Trackpoint>
            <Time>2021-07-31T15:07:16.000Z</Time>
            <Position>
              <LatitudeDegrees>42.22050533629953861236572265625</LatitudeDegrees>
              <LongitudeDegrees>-2.28450237773358821868896484375</LongitudeDegrees>
            </Position>
            <AltitudeMeters>1040.800048828125</AltitudeMeters>
            <DistanceMeters>323131.80693149</DistanceMeters>
          </Trackpoint>
          <Trackpoint>
            <Time>2021-07-31T15:07:25.000Z</Time>
            <Position>
              <LatitudeDegrees>42.22051857970654964447021484375</LatitudeDegrees>
              <LongitudeDegrees>-2.28462458588182926177978515625</LongitudeDegrees>
            </Position>
            <AltitudeMeters>1042</AltitudeMeters>
            <DistanceMeters>323141.98765924</DistanceMeters>
          </Trackpoint>
          <Trackpoint>
            <Time>2021-07-31T15:07:34.000Z</Time>
            <Position>
              <LatitudeDegrees>42.2205542027950286865234375</LatitudeDegrees>
              <LongitudeDegrees>-2.2847463749349117279052734375</LongitudeDegrees>
            </Position>
            <AltitudeMeters>1043</AltitudeMeters>
            <DistanceMeters>323152.78103759</DistanceMeters>
          </Trackpoint>
          <Trackpoint>
            <Time>2021-07-31T15:07:39.000Z</Time>
            <Position>
              <LatitudeDegrees>42.2205473296344280242919921875</LatitudeDegrees>
              <LongitudeDegrees>-2.28481753729283809661865234375</LongitudeDegrees>
            </Position>
            <AltitudeMeters>1043.5999755859375</AltitudeMeters>
            <DistanceMeters>323158.69563953</DistanceMeters>
          </Trackpoint>
          <Trackpoint>
            <Time>2021-07-31T15:07:43.000Z</Time>
            <Position>
              <LatitudeDegrees>42.22055261023342609405517578125</LatitudeDegrees>
              <LongitudeDegrees>-2.28487621061503887176513671875</LongitudeDegrees>
            </Position>
            <AltitudeMeters>1044.199951171875</AltitudeMeters>
            <DistanceMeters>323163.56709115</DistanceMeters>
          </Trackpoint>
          <Trackpoint>
            <Time>2021-07-31T15:07:52.000Z</Time>
            <Position>
              <LatitudeDegrees>42.2205788455903530120849609375</LatitudeDegrees>
              <LongitudeDegrees>-2.28500730358064174652099609375</LongitudeDegrees>
            </Position>
            <AltitudeMeters>1045.199951171875</AltitudeMeters>
            <DistanceMeters>323174.76089929</DistanceMeters>
          </Trackpoint>
          <Trackpoint>
            <Time>2021-07-31T15:08:00.000Z</Time>
            <Position>
              <LatitudeDegrees>42.2206070087850093841552734375</LatitudeDegrees>
              <LongitudeDegrees>-2.2851349599659442901611328125</LongitudeDegrees>
            </Position>
            <AltitudeMeters>1046</AltitudeMeters>
            <DistanceMeters>323185.74049494</DistanceMeters>
          </Trackpoint>
          <Trackpoint>
            <Time>2021-07-31T15:08:07.000Z</Time>
            <Position>
              <LatitudeDegrees>42.22063424997031688690185546875</LatitudeDegrees>
              <LongitudeDegrees>-2.28524970822036266326904296875</LongitudeDegrees>
            </Position>
            <AltitudeMeters>1046.800048828125</AltitudeMeters>
            <DistanceMeters>323195.67340062</DistanceMeters>
          </Trackpoint>
          <Trackpoint>
            <Time>2021-07-31T15:08:09.000Z</Time>
            <Position>
              <LatitudeDegrees>42.22063626162707805633544921875</LatitudeDegrees>
              <LongitudeDegrees>-2.28528357110917568206787109375</LongitudeDegrees>
            </Position>
            <AltitudeMeters>1047.199951171875</AltitudeMeters>
            <DistanceMeters>323198.47628601</DistanceMeters>
          </Trackpoint>
          <Trackpoint>
            <Time>2021-07-31T15:08:17.000Z</Time>
            <Position>
              <LatitudeDegrees>42.22064833156764507293701171875</LatitudeDegrees>
              <LongitudeDegrees>-2.2854150831699371337890625</LongitudeDegrees>
            </Position>
            <AltitudeMeters>1048.199951171875</AltitudeMeters>
            <DistanceMeters>323209.39898576</DistanceMeters>
          </Trackpoint>
          <Trackpoint>
            <Time>2021-07-31T15:08:24.000Z</Time>
            <Position>
              <LatitudeDegrees>42.220665514469146728515625</LatitudeDegrees>
              <LongitudeDegrees>-2.2855279035866260528564453125</LongitudeDegrees>
            </Position>
            <AltitudeMeters>1049.4000244140625</AltitudeMeters>
            <DistanceMeters>323218.89310094</DistanceMeters>
          </Trackpoint>
          <Trackpoint>
            <Time>2021-07-31T15:08:34.000Z</Time>
            <Position>
              <LatitudeDegrees>42.22067448310554027557373046875</LatitudeDegrees>
              <LongitudeDegrees>-2.2856851480901241302490234375</LongitudeDegrees>
            </Position>
            <AltitudeMeters>1050.4000244140625</AltitudeMeters>
            <DistanceMeters>323231.89232479</DistanceMeters>
          </Trackpoint>
          <Trackpoint>
            <Time>2021-07-31T15:08:43.000Z</Time>
            <Position>
              <LatitudeDegrees>42.220669873058795928955078125</LatitudeDegrees>
              <LongitudeDegrees>-2.28584867902100086212158203125</LongitudeDegrees>
            </Position>
            <AltitudeMeters>1051.4000244140625</AltitudeMeters>
            <DistanceMeters>323245.381433</DistanceMeters>
          </Trackpoint>
          <Trackpoint>
            <Time>2021-07-31T15:08:51.000Z</Time>
            <Position>
              <LatitudeDegrees>42.2206579707562923431396484375</LatitudeDegrees>
              <LongitudeDegrees>-2.28599376976490020751953125</LongitudeDegrees>
            </Position>
            <AltitudeMeters>1052.4000244140625</AltitudeMeters>
            <DistanceMeters>323257.41423174</DistanceMeters>
          </Trackpoint>
          <Trackpoint>
            <Time>2021-07-31T15:09:01.000Z</Time>
            <Position>
              <LatitudeDegrees>42.22062997519969940185546875</LatitudeDegrees>
              <LongitudeDegrees>-2.2861659340560436248779296875</LongitudeDegrees>
            </Position>
            <AltitudeMeters>1053.4000244140625</AltitudeMeters>
            <DistanceMeters>323271.94337821</DistanceMeters>
          </Trackpoint>
          <Trackpoint>
            <Time>2021-07-31T15:09:08.000Z</Time>
            <Position>
              <LatitudeDegrees>42.2206274606287479400634765625</LatitudeDegrees>
              <LongitudeDegrees>-2.286281101405620574951171875</LongitudeDegrees>
            </Position>
            <AltitudeMeters>1054.5999755859375</AltitudeMeters>
            <DistanceMeters>323281.44034633</DistanceMeters>
          </Trackpoint>
          <Trackpoint>
            <Time>2021-07-31T15:09:16.000Z</Time>
            <Position>
              <LatitudeDegrees>42.22061933018267154693603515625</LatitudeDegrees>
              <LongitudeDegrees>-2.2864076681435108184814453125</LongitudeDegrees>
            </Position>
            <AltitudeMeters>1055.5999755859375</AltitudeMeters>
            <DistanceMeters>323291.91227301</DistanceMeters>
          </Trackpoint>
          <Trackpoint>
            <Time>2021-07-31T15:09:25.000Z</Time>
            <Position>
              <LatitudeDegrees>42.22062955610454082489013671875</LatitudeDegrees>
              <LongitudeDegrees>-2.286568768322467803955078125</LongitudeDegrees>
            </Position>
            <AltitudeMeters>1056.800048828125</AltitudeMeters>
            <DistanceMeters>323305.24042606</DistanceMeters>
          </Trackpoint>
          <Trackpoint>
            <Time>2021-07-31T15:09:38.000Z</Time>
            <Position>
              <LatitudeDegrees>42.22067465074360370635986328125</LatitudeDegrees>
              <LongitudeDegrees>-2.2868044674396514892578125</LongitudeDegrees>
            </Position>
            <AltitudeMeters>1057.5999755859375</AltitudeMeters>
            <DistanceMeters>323325.3061443</DistanceMeters>
          </Trackpoint>
          <Trackpoint>
            <Time>2021-07-31T15:09:48.000Z</Time>
            <Position>
              <LatitudeDegrees>42.22067984752357006072998046875</LatitudeDegrees>
              <LongitudeDegrees>-2.28698551654815673828125</LongitudeDegrees>
            </Position>
            <AltitudeMeters>1058.5999755859375</AltitudeMeters>
            <DistanceMeters>323340.24016011</DistanceMeters>
          </Trackpoint>
          <Trackpoint>
            <Time>2021-07-31T15:09:56.000Z</Time>
            <Position>
              <LatitudeDegrees>42.22066819667816162109375</LatitudeDegrees>
              <LongitudeDegrees>-2.28714167140424251556396484375</LongitudeDegrees>
            </Position>
            <AltitudeMeters>1059.5999755859375</AltitudeMeters>
            <DistanceMeters>323353.17636421</DistanceMeters>
          </Trackpoint>
          <Trackpoint>
            <Time>2021-07-31T15:10:19.000Z</Time>
            <Position>
              <LatitudeDegrees>42.22037122584879398345947265625</LatitudeDegrees>
              <LongitudeDegrees>-2.2873457707464694976806640625</LongitudeDegrees>
            </Position>
            <AltitudeMeters>1060.800048828125</AltitudeMeters>
            <DistanceMeters>323390.26467119</DistanceMeters>
          </Trackpoint>
          <Trackpoint>
            <Time>2021-07-31T15:10:29.000Z</Time>
            <Position>
              <LatitudeDegrees>42.22018606960773468017578125</LatitudeDegrees>
              <LongitudeDegrees>-2.2872123308479785919189453125</LongitudeDegrees>
            </Position>
            <AltitudeMeters>1060.4000244140625</AltitudeMeters>
            <DistanceMeters>323413.6242401</DistanceMeters>
          </Trackpoint>
          <Trackpoint>
            <Time>2021-07-31T15:10:43.000Z</Time>
            <Position>
              <LatitudeDegrees>42.2197882644832134246826171875</LatitudeDegrees>
              <LongitudeDegrees>-2.28699716739356517791748046875</LongitudeDegrees>
            </Position>
            <AltitudeMeters>1061.5999755859375</AltitudeMeters>
            <DistanceMeters>323461.32064623</DistanceMeters>
          </Trackpoint>
          <Trackpoint>
            <Time>2021-07-31T15:10:57.000Z</Time>
            <Position>
              <LatitudeDegrees>42.21934251487255096435546875</LatitudeDegrees>
              <LongitudeDegrees>-2.286519147455692291259765625</LongitudeDegrees>
            </Position>
            <AltitudeMeters>1060.4000244140625</AltitudeMeters>
            <DistanceMeters>323524.67646112</DistanceMeters>
          </Trackpoint>
          <Trackpoint>
            <Time>2021-07-31T15:11:05.000Z</Time>
            <Position>
              <LatitudeDegrees>42.21900053322315216064453125</LatitudeDegrees>
              <LongitudeDegrees>-2.28618144057691097259521484375</LongitudeDegrees>
            </Position>
            <AltitudeMeters>1059.4000244140625</AltitudeMeters>
            <DistanceMeters>323571.83231319</DistanceMeters>
          </Trackpoint>
          <Trackpoint>
            <Time>2021-07-31T15:11:16.000Z</Time>
            <Position>
              <LatitudeDegrees>42.21852242946624755859375</LatitudeDegrees>
              <LongitudeDegrees>-2.28584482334554195404052734375</LongitudeDegrees>
            </Position>
            <AltitudeMeters>1060</AltitudeMeters>
            <DistanceMeters>323631.8455768</DistanceMeters>
          </Trackpoint>
          <Trackpoint>
            <Time>2021-07-31T15:11:23.000Z</Time>
            <Position>
              <LatitudeDegrees>42.21823208034038543701171875</LatitudeDegrees>
              <LongitudeDegrees>-2.28556268848478794097900390625</LongitudeDegrees>
            </Position>
            <AltitudeMeters>1059.800048828125</AltitudeMeters>
            <DistanceMeters>323671.66006913</DistanceMeters>
          </Trackpoint>
          <Trackpoint>
            <Time>2021-07-31T15:11:35.000Z</Time>
            <Position>
              <LatitudeDegrees>42.217726148664951324462890625</LatitudeDegrees>
              <LongitudeDegrees>-2.28519841097295284271240234375</LongitudeDegrees>
            </Position>
            <AltitudeMeters>1060.4000244140625</AltitudeMeters>
            <DistanceMeters>323735.47685796</DistanceMeters>
          </Trackpoint>
          <Trackpoint>
            <Time>2021-07-31T15:11:47.000Z</Time>
            <Position>
              <LatitudeDegrees>42.21723086200654506683349609375</LatitudeDegrees>
              <LongitudeDegrees>-2.28479423560202121734619140625</LongitudeDegrees>
            </Position>
            <AltitudeMeters>1060</AltitudeMeters>
            <DistanceMeters>323799.88871</DistanceMeters>
          </Trackpoint>
          <Trackpoint>
            <Time>2021-07-31T15:11:54.000Z</Time>
            <Position>
              <LatitudeDegrees>42.2169223241508007049560546875</LatitudeDegrees>
              <LongitudeDegrees>-2.2848410904407501220703125</LongitudeDegrees>
            </Position>
            <AltitudeMeters>1059.800048828125</AltitudeMeters>
            <DistanceMeters>323834.44604713</DistanceMeters>
          </Trackpoint>
          <Trackpoint>
            <Time>2021-07-31T15:11:57.000Z</Time>
            <Position>
              <LatitudeDegrees>42.2168140299618244171142578125</LatitudeDegrees>
              <LongitudeDegrees>-2.28493790142238140106201171875</LongitudeDegrees>
            </Position>
            <AltitudeMeters>1060.4000244140625</AltitudeMeters>
            <DistanceMeters>323848.90198117</DistanceMeters>
          </Trackpoint>
          <Trackpoint>
            <Time>2021-07-31T15:12:05.000Z</Time>
            <Position>
              <LatitudeDegrees>42.216552011668682098388671875</LatitudeDegrees>
              <LongitudeDegrees>-2.28523495607078075408935546875</LongitudeDegrees>
            </Position>
            <AltitudeMeters>1060.4000244140625</AltitudeMeters>
            <DistanceMeters>323886.98197323</DistanceMeters>
          </Trackpoint>
          <Trackpoint>
            <Time>2021-07-31T15:12:07.000Z</Time>
            <Position>
              <LatitudeDegrees>42.21649476327002048492431640625</LatitudeDegrees>
              <LongitudeDegrees>-2.28533503599464893341064453125</LongitudeDegrees>
            </Position>
            <AltitudeMeters>1059.5999755859375</AltitudeMeters>
            <DistanceMeters>323897.40636482</DistanceMeters>
          </Trackpoint>
          <Trackpoint>
            <Time>2021-07-31T15:12:08.000Z</Time>
            <Position>
              <LatitudeDegrees>42.21646022982895374298095703125</LatitudeDegrees>
              <LongitudeDegrees>-2.28538532741367816925048828125</LongitudeDegrees>
            </Position>
            <AltitudeMeters>1059</AltitudeMeters>
            <DistanceMeters>323903.05865732</DistanceMeters>
          </Trackpoint>
          <Trackpoint>
            <Time>2021-07-31T15:12:10.000Z</Time>
            <Position>
              <LatitudeDegrees>42.21638814546167850494384765625</LatitudeDegrees>
              <LongitudeDegrees>-2.28548951447010040283203125</LongitudeDegrees>
            </Position>
            <AltitudeMeters>1058.5999755859375</AltitudeMeters>
            <DistanceMeters>323914.81127614</DistanceMeters>
          </Trackpoint>
          <Trackpoint>
            <Time>2021-07-31T15:12:16.000Z</Time>
            <Position>
              <LatitudeDegrees>42.2161511890590190887451171875</LatitudeDegrees>
              <LongitudeDegrees>-2.2856175899505615234375</LongitudeDegrees>
            </Position>
            <AltitudeMeters>1059.800048828125</AltitudeMeters>
            <DistanceMeters>323943.21965505</DistanceMeters>
          </Trackpoint>
          <Trackpoint>
            <Time>2021-07-31T15:12:18.000Z</Time>
            <Position>
              <LatitudeDegrees>42.21608497202396392822265625</LatitudeDegrees>
              <LongitudeDegrees>-2.28561733849346637725830078125</LongitudeDegrees>
            </Position>
            <AltitudeMeters>1060.199951171875</AltitudeMeters>
            <DistanceMeters>323950.59020047</DistanceMeters>
          </Trackpoint>
          <Trackpoint>
            <Time>2021-07-31T15:12:23.000Z</Time>
            <Position>
              <LatitudeDegrees>42.21593719907104969024658203125</LatitudeDegrees>
              <LongitudeDegrees>-2.28560375981032848358154296875</LongitudeDegrees>
            </Position>
            <AltitudeMeters>1061.199951171875</AltitudeMeters>
            <DistanceMeters>323967.07562375</DistanceMeters>
          </Trackpoint>
          <Trackpoint>
            <Time>2021-07-31T15:12:30.000Z</Time>
            <Position>
              <LatitudeDegrees>42.215743996202945709228515625</LatitudeDegrees>
              <LongitudeDegrees>-2.28559621609747409820556640625</LongitudeDegrees>
            </Position>
            <AltitudeMeters>1062.5999755859375</AltitudeMeters>
            <DistanceMeters>323988.58863093</DistanceMeters>
          </Trackpoint>
          <Trackpoint>
            <Time>2021-07-31T15:12:39.000Z</Time>
            <Position>
              <LatitudeDegrees>42.2155554033815860748291015625</LatitudeDegrees>
              <LongitudeDegrees>-2.28579050861299037933349609375</LongitudeDegrees>
            </Position>
            <AltitudeMeters>1063.5999755859375</AltitudeMeters>
            <DistanceMeters>324014.99169707</DistanceMeters>
          </Trackpoint>
          <Trackpoint>
            <Time>2021-07-31T15:12:47.000Z</Time>
            <Position>
              <LatitudeDegrees>42.21544601954519748687744140625</LatitudeDegrees>
              <LongitudeDegrees>-2.2860680334270000457763671875</LongitudeDegrees>
            </Position>
            <AltitudeMeters>1064.5999755859375</AltitudeMeters>
            <DistanceMeters>324040.90665115</DistanceMeters>
          </Trackpoint>
          <Trackpoint>
            <Time>2021-07-31T15:13:03.000Z</Time>
            <Position>
              <LatitudeDegrees>42.2150967456400394439697265625</LatitudeDegrees>
              <LongitudeDegrees>-2.28642920963466167449951171875</LongitudeDegrees>
            </Position>
            <AltitudeMeters>1065.5999755859375</AltitudeMeters>
            <DistanceMeters>324089.8728023</DistanceMeters>
          </Trackpoint>
          <Trackpoint>
            <Time>2021-07-31T15:13:06.000Z</Time>
            <Position>
              <LatitudeDegrees>42.21502508036792278289794921875</LatitudeDegrees>
              <LongitudeDegrees>-2.2863935865461826324462890625</LongitudeDegrees>
            </Position>
            <AltitudeMeters>1066.800048828125</AltitudeMeters>
            <DistanceMeters>324098.37331238</DistanceMeters>
          </Trackpoint>
          <Trackpoint>
            <Time>2021-07-31T15:13:10.000Z</Time>
            <Position>
              <LatitudeDegrees>42.21494612284004688262939453125</LatitudeDegrees>
              <LongitudeDegrees>-2.28631521575152873992919921875</LongitudeDegrees>
            </Position>
            <AltitudeMeters>1068</AltitudeMeters>
            <DistanceMeters>324109.28070699</DistanceMeters>
          </Trackpoint>
          <Trackpoint>
            <Time>2021-07-31T15:13:17.000Z</Time>
            <Position>
              <LatitudeDegrees>42.21484084613621234893798828125</LatitudeDegrees>
              <LongitudeDegrees>-2.28617691434919834136962890625</LongitudeDegrees>
            </Position>
            <AltitudeMeters>1069</AltitudeMeters>
            <DistanceMeters>324125.62916877</DistanceMeters>
          </Trackpoint>
          <Trackpoint>
            <Time>2021-07-31T15:13:27.000Z</Time>
            <Position>
              <LatitudeDegrees>42.2147014550864696502685546875</LatitudeDegrees>
              <LongitudeDegrees>-2.28597692213952541351318359375</LongitudeDegrees>
            </Position>
            <AltitudeMeters>1070</AltitudeMeters>
            <DistanceMeters>324148.26747609</DistanceMeters>
          </Trackpoint>
          <Trackpoint>
            <Time>2021-07-31T15:13:33.000Z</Time>
            <Position>
              <LatitudeDegrees>42.21462777815759181976318359375</LatitudeDegrees>
              <LongitudeDegrees>-2.285857312381267547607421875</LongitudeDegrees>
            </Position>
            <AltitudeMeters>1071.199951171875</AltitudeMeters>
            <DistanceMeters>324161.09150636</DistanceMeters>
          </Trackpoint>
          <Trackpoint>
            <Time>2021-07-31T15:13:40.000Z</Time>
            <Position>
              <LatitudeDegrees>42.214545719325542449951171875</LatitudeDegrees>
              <LongitudeDegrees>-2.28571708314120769500732421875</LongitudeDegrees>
            </Position>
            <AltitudeMeters>1072.4000244140625</AltitudeMeters>
            <DistanceMeters>324175.82401861</DistanceMeters>
          </Trackpoint>
          <Trackpoint>
            <Time>2021-07-31T15:13:46.000Z</Time>
            <Position>
              <LatitudeDegrees>42.21447103656828403472900390625</LatitudeDegrees>
              <LongitudeDegrees>-2.285601831972599029541015625</LongitudeDegrees>
            </Position>
            <AltitudeMeters>1073.4000244140625</AltitudeMeters>
            <DistanceMeters>324188.44720082</DistanceMeters>
          </Trackpoint>
          <Trackpoint>
            <Time>2021-07-31T15:13:51.000Z</Time>
            <Position>
              <LatitudeDegrees>42.21439526416361331939697265625</LatitudeDegrees>
              <LongitudeDegrees>-2.2855309210717678070068359375</LongitudeDegrees>
            </Position>
            <AltitudeMeters>1074.5999755859375</AltitudeMeters>
            <DistanceMeters>324198.70832606</DistanceMeters>
          </Trackpoint>
          <Trackpoint>
            <Time>2021-07-31T15:13:54.000Z</Time>
            <Position>
              <LatitudeDegrees>42.214343212544918060302734375</LatitudeDegrees>
              <LongitudeDegrees>-2.28550820611417293548583984375</LongitudeDegrees>
            </Position>
            <AltitudeMeters>1075.800048828125</AltitudeMeters>
            <DistanceMeters>324204.79597206</DistanceMeters>
          </Trackpoint>
          <Trackpoint>
            <Time>2021-07-31T15:13:59.000Z</Time>
            <Position>
              <LatitudeDegrees>42.2142469882965087890625</LatitudeDegrees>
              <LongitudeDegrees>-2.28550636209547519683837890625</LongitudeDegrees>
            </Position>
            <AltitudeMeters>1076.800048828125</AltitudeMeters>
            <DistanceMeters>324215.50704676</DistanceMeters>
          </Trackpoint>
          <Trackpoint>
            <Time>2021-07-31T15:14:20.000Z</Time>
            <Position>
              <LatitudeDegrees>42.213851697742938995361328125</LatitudeDegrees>
              <LongitudeDegrees>-2.28598228655755519866943359375</LongitudeDegrees>
            </Position>
            <AltitudeMeters>1076.199951171875</AltitudeMeters>
            <DistanceMeters>324274.45532779</DistanceMeters>
          </Trackpoint>
          <Trackpoint>
            <Time>2021-07-31T15:14:37.000Z</Time>
            <Position>
              <LatitudeDegrees>42.21332523040473461151123046875</LatitudeDegrees>
              <LongitudeDegrees>-2.28580735623836517333984375</LongitudeDegrees>
            </Position>
            <AltitudeMeters>1077.4000244140625</AltitudeMeters>
            <DistanceMeters>324334.80050877</DistanceMeters>
          </Trackpoint>
          <Trackpoint>
            <Time>2021-07-31T15:14:44.000Z</Time>
            <Position>
              <LatitudeDegrees>42.21311702392995357513427734375</LatitudeDegrees>
              <LongitudeDegrees>-2.2858496010303497314453125</LongitudeDegrees>
            </Position>
            <AltitudeMeters>1078</AltitudeMeters>
            <DistanceMeters>324358.23456665</DistanceMeters>
          </Trackpoint>
          <Trackpoint>
            <Time>2021-07-31T15:14:50.000Z</Time>
            <Position>
              <LatitudeDegrees>42.21298635005950927734375</LatitudeDegrees>
              <LongitudeDegrees>-2.2859627567231655120849609375</LongitudeDegrees>
            </Position>
            <AltitudeMeters>1079</AltitudeMeters>
            <DistanceMeters>324375.51323522</DistanceMeters>
          </Trackpoint>
          <Trackpoint>
            <Time>2021-07-31T15:15:01.000Z</Time>
            <Position>
              <LatitudeDegrees>42.21281711943447589874267578125</LatitudeDegrees>
              <LongitudeDegrees>-2.2862075082957744598388671875</LongitudeDegrees>
            </Position>
            <AltitudeMeters>1080</AltitudeMeters>
            <DistanceMeters>324403.11518351</DistanceMeters>
          </Trackpoint>
          <Trackpoint>
            <Time>2021-07-31T15:15:07.000Z</Time>
            <Position>
              <LatitudeDegrees>42.212736904621124267578125</LatitudeDegrees>
              <LongitudeDegrees>-2.28632125072181224822998046875</LongitudeDegrees>
            </Position>
            <AltitudeMeters>1081.199951171875</AltitudeMeters>
            <DistanceMeters>324416.06255155</DistanceMeters>
          </Trackpoint>
          <Trackpoint>
            <Time>2021-07-31T15:15:14.000Z</Time>
            <Position>
              <LatitudeDegrees>42.2126368246972560882568359375</LatitudeDegrees>
              <LongitudeDegrees>-2.2864284552633762359619140625</LongitudeDegrees>
            </Position>
            <AltitudeMeters>1082.199951171875</AltitudeMeters>
            <DistanceMeters>324430.28167288</DistanceMeters>
          </Trackpoint>
          <Trackpoint>
            <Time>2021-07-31T15:15:18.000Z</Time>
            <Position>
              <LatitudeDegrees>42.21257806755602359771728515625</LatitudeDegrees>
              <LongitudeDegrees>-2.28648570366203784942626953125</LongitudeDegrees>
            </Position>
            <AltitudeMeters>1083.4000244140625</AltitudeMeters>
            <DistanceMeters>324438.3460768</DistanceMeters>
          </Trackpoint>
          <Trackpoint>
            <Time>2021-07-31T15:15:30.000Z</Time>
            <Position>
              <LatitudeDegrees>42.2124044783413410186767578125</LatitudeDegrees>
              <LongitudeDegrees>-2.28667597286403179168701171875</LongitudeDegrees>
            </Position>
            <AltitudeMeters>1084.4000244140625</AltitudeMeters>
            <DistanceMeters>324463.23219267</DistanceMeters>
          </Trackpoint>
          <Trackpoint>
            <Time>2021-07-31T15:15:36.000Z</Time>
            <Position>
              <LatitudeDegrees>42.21233080141246318817138671875</LatitudeDegrees>
              <LongitudeDegrees>-2.28677454404532909393310546875</LongitudeDegrees>
            </Position>
            <AltitudeMeters>1085.5999755859375</AltitudeMeters>
            <DistanceMeters>324474.77705855</DistanceMeters>
          </Trackpoint>
          <Trackpoint>
            <Time>2021-07-31T15:15:41.000Z</Time>
            <Position>
              <LatitudeDegrees>42.21228151582181453704833984375</LatitudeDegrees>
              <LongitudeDegrees>-2.2868639789521694183349609375</LongitudeDegrees>
            </Position>
            <AltitudeMeters>1086.5999755859375</AltitudeMeters>
            <DistanceMeters>324483.96668721</DistanceMeters>
          </Trackpoint>
          <Trackpoint>
            <Time>2021-07-31T15:15:48.000Z</Time>
            <Position>
              <LatitudeDegrees>42.21221965737640857696533203125</LatitudeDegrees>
              <LongitudeDegrees>-2.286972440779209136962890625</LongitudeDegrees>
            </Position>
            <AltitudeMeters>1087.5999755859375</AltitudeMeters>
            <DistanceMeters>324495.25128459</DistanceMeters>
          </Trackpoint>
          <Trackpoint>
            <Time>2021-07-31T15:15:56.000Z</Time>
            <Position>
              <LatitudeDegrees>42.21219585277140140533447265625</LatitudeDegrees>
              <LongitudeDegrees>-2.28709406219422817230224609375</LongitudeDegrees>
            </Position>
            <AltitudeMeters>1088.800048828125</AltitudeMeters>
            <DistanceMeters>324505.62182992</DistanceMeters>
          </Trackpoint>
          <Trackpoint>
            <Time>2021-07-31T15:16:02.000Z</Time>
            <Position>
              <LatitudeDegrees>42.21216953359544277191162109375</LatitudeDegrees>
              <LongitudeDegrees>-2.2871853411197662353515625</LongitudeDegrees>
            </Position>
            <AltitudeMeters>1090</AltitudeMeters>
            <DistanceMeters>324513.69630526</DistanceMeters>
          </Trackpoint>
          <Trackpoint>
            <Time>2021-07-31T15:16:12.000Z</Time>
            <Position>
              <LatitudeDegrees>42.21212410368025302886962890625</LatitudeDegrees>
              <LongitudeDegrees>-2.28731467388570308685302734375</LongitudeDegrees>
            </Position>
            <AltitudeMeters>1091</AltitudeMeters>
            <DistanceMeters>324525.49608274</DistanceMeters>
          </Trackpoint>
          <Trackpoint>
            <Time>2021-07-31T15:16:18.000Z</Time>
            <Position>
              <LatitudeDegrees>42.2121000476181507110595703125</LatitudeDegrees>
              <LongitudeDegrees>-2.2874051146209239959716796875</LongitudeDegrees>
            </Position>
            <AltitudeMeters>1092.199951171875</AltitudeMeters>
            <DistanceMeters>324533.41814253</DistanceMeters>
          </Trackpoint>
          <Trackpoint>
            <Time>2021-07-31T15:16:27.000Z</Time>
            <Position>
              <LatitudeDegrees>42.21206710673868656158447265625</LatitudeDegrees>
              <LongitudeDegrees>-2.2875258140265941619873046875</LongitudeDegrees>
            </Position>
            <AltitudeMeters>1093.199951171875</AltitudeMeters>
            <DistanceMeters>324544.02203388</DistanceMeters>
          </Trackpoint>
          <Trackpoint>
            <Time>2021-07-31T15:16:34.000Z</Time>
            <Position>
              <LatitudeDegrees>42.21204950474202632904052734375</LatitudeDegrees>
              <LongitudeDegrees>-2.287614829838275909423828125</LongitudeDegrees>
            </Position>
            <AltitudeMeters>1094.199951171875</AltitudeMeters>
            <DistanceMeters>324551.61704069</DistanceMeters>
          </Trackpoint>
          <Trackpoint>
            <Time>2021-07-31T15:16:39.000Z</Time>
            <Position>
              <LatitudeDegrees>42.2120303101837635040283203125</LatitudeDegrees>
              <LongitudeDegrees>-2.2876800410449504852294921875</LongitudeDegrees>
            </Position>
            <AltitudeMeters>1095.4000244140625</AltitudeMeters>
            <DistanceMeters>324557.40197485</DistanceMeters>
          </Trackpoint>
          <Trackpoint>
            <Time>2021-07-31T15:16:49.000Z</Time>
            <Position>
              <LatitudeDegrees>42.21198781393468379974365234375</LatitudeDegrees>
              <LongitudeDegrees>-2.28780032135546207427978515625</LongitudeDegrees>
            </Position>
            <AltitudeMeters>1096.4000244140625</AltitudeMeters>
            <DistanceMeters>324568.38773708</DistanceMeters>
          </Trackpoint>
          <Trackpoint>
            <Time>2021-07-31T15:16:54.000Z</Time>
            <Position>
              <LatitudeDegrees>42.2119562141597270965576171875</LatitudeDegrees>
              <LongitudeDegrees>-2.28785363025963306427001953125</LongitudeDegrees>
            </Position>
            <AltitudeMeters>1097.5999755859375</AltitudeMeters>
            <DistanceMeters>324574.01601463</DistanceMeters>
          </Trackpoint>
          <Trackpoint>
            <Time>2021-07-31T15:17:04.000Z</Time>
            <Position>
              <LatitudeDegrees>42.2118987143039703369140625</LatitudeDegrees>
              <LongitudeDegrees>-2.28796913288533687591552734375</LongitudeDegrees>
            </Position>
            <AltitudeMeters>1098.5999755859375</AltitudeMeters>
            <DistanceMeters>324585.48869497</DistanceMeters>
          </Trackpoint>
          <Trackpoint>
            <Time>2021-07-31T15:17:12.000Z</Time>
            <Position>
              <LatitudeDegrees>42.211840711534023284912109375</LatitudeDegrees>
              <LongitudeDegrees>-2.28805177845060825347900390625</LongitudeDegrees>
            </Position>
            <AltitudeMeters>1099.800048828125</AltitudeMeters>
            <DistanceMeters>324594.87471786</DistanceMeters>
          </Trackpoint>
          <Trackpoint>
            <Time>2021-07-31T15:17:17.000Z</Time>
            <Position>
              <LatitudeDegrees>42.21180173568427562713623046875</LatitudeDegrees>
              <LongitudeDegrees>-2.28810525499284267425537109375</LongitudeDegrees>
            </Position>
            <AltitudeMeters>1100.800048828125</AltitudeMeters>
            <DistanceMeters>324601.05948979</DistanceMeters>
          </Trackpoint>
          <Trackpoint>
            <Time>2021-07-31T15:17:24.000Z</Time>
            <Position>
              <LatitudeDegrees>42.21174138598144054412841796875</LatitudeDegrees>
              <LongitudeDegrees>-2.2881511040031909942626953125</LongitudeDegrees>
            </Position>
            <AltitudeMeters>1102</AltitudeMeters>
            <DistanceMeters>324608.76720495</DistanceMeters>
          </Trackpoint>
          <Trackpoint>
            <Time>2021-07-31T15:17:32.000Z</Time>
            <Position>
              <LatitudeDegrees>42.21165932714939117431640625</LatitudeDegrees>
              <LongitudeDegrees>-2.28819175623357295989990234375</LongitudeDegrees>
            </Position>
            <AltitudeMeters>1103</AltitudeMeters>
            <DistanceMeters>324618.49619571</DistanceMeters>
          </Trackpoint>
          <Trackpoint>
            <Time>2021-07-31T15:17:38.000Z</Time>
            <Position>
              <LatitudeDegrees>42.21159654669463634490966796875</LatitudeDegrees>
              <LongitudeDegrees>-2.28821505792438983917236328125</LongitudeDegrees>
            </Position>
            <AltitudeMeters>1104.4000244140625</AltitudeMeters>
            <DistanceMeters>324625.74318989</DistanceMeters>
          </Trackpoint>
          <Trackpoint>
            <Time>2021-07-31T15:17:48.000Z</Time>
            <Position>
              <LatitudeDegrees>42.211474590003490447998046875</LatitudeDegrees>
              <LongitudeDegrees>-2.28821103461086750030517578125</LongitudeDegrees>
            </Position>
            <AltitudeMeters>1105.4000244140625</AltitudeMeters>
            <DistanceMeters>324639.321041</DistanceMeters>
          </Trackpoint>
          <Trackpoint>
            <Time>2021-07-31T15:17:57.000Z</Time>
            <Position>
              <LatitudeDegrees>42.21137040294706821441650390625</LatitudeDegrees>
              <LongitudeDegrees>-2.28816158138215541839599609375</LongitudeDegrees>
            </Position>
            <AltitudeMeters>1106.4000244140625</AltitudeMeters>
            <DistanceMeters>324651.61295863</DistanceMeters>
          </Trackpoint>
          <Trackpoint>
            <Time>2021-07-31T15:18:06.000Z</Time>
            <Position>
              <LatitudeDegrees>42.21126361750066280364990234375</LatitudeDegrees>
              <LongitudeDegrees>-2.2881348431110382080078125</LongitudeDegrees>
            </Position>
            <AltitudeMeters>1107.4000244140625</AltitudeMeters>
            <DistanceMeters>324663.7011635</DistanceMeters>
          </Trackpoint>
          <Trackpoint>
            <Time>2021-07-31T15:18:12.000Z</Time>
            <Position>
              <LatitudeDegrees>42.21118901856243610382080078125</LatitudeDegrees>
              <LongitudeDegrees>-2.28812478482723236083984375</LongitudeDegrees>
            </Position>
            <AltitudeMeters>1108.5999755859375</AltitudeMeters>
            <DistanceMeters>324672.04513674</DistanceMeters>
          </Trackpoint>
          <Trackpoint>
            <Time>2021-07-31T15:18:16.000Z</Time>
            <Position>
              <LatitudeDegrees>42.2111369669437408447265625</LatitudeDegrees>
              <LongitudeDegrees>-2.2881159000098705291748046875</LongitudeDegrees>
            </Position>
            <AltitudeMeters>1108.800048828125</AltitudeMeters>
            <DistanceMeters>324677.88444908</DistanceMeters>
          </Trackpoint>
          <Trackpoint>
            <Time>2021-07-31T15:18:27.000Z</Time>
            <Position>
              <LatitudeDegrees>42.21097662113606929779052734375</LatitudeDegrees>
              <LongitudeDegrees>-2.288081534206867218017578125</LongitudeDegrees>
            </Position>
            <AltitudeMeters>1109.5999755859375</AltitudeMeters>
            <DistanceMeters>324695.9545228</DistanceMeters>
          </Trackpoint>
          <Trackpoint>
            <Time>2021-07-31T15:18:37.000Z</Time>
            <Position>
              <LatitudeDegrees>42.21082205884158611297607421875</LatitudeDegrees>
              <LongitudeDegrees>-2.2880464978516101837158203125</LongitudeDegrees>
            </Position>
            <AltitudeMeters>1110.800048828125</AltitudeMeters>
            <DistanceMeters>324713.39859102</DistanceMeters>
          </Trackpoint>
          <Trackpoint>
            <Time>2021-07-31T15:18:47.000Z</Time>
            <Position>
              <LatitudeDegrees>42.21064151264727115631103515625</LatitudeDegrees>
              <LongitudeDegrees>-2.28804322890937328338623046875</LongitudeDegrees>
            </Position>
            <AltitudeMeters>1111.800048828125</AltitudeMeters>
            <DistanceMeters>324733.49578632</DistanceMeters>
          </Trackpoint>
          <Trackpoint>
            <Time>2021-07-31T15:19:02.000Z</Time>
            <Position>
              <LatitudeDegrees>42.21045509912073612213134765625</LatitudeDegrees>
              <LongitudeDegrees>-2.2882748208940029144287109375</LongitudeDegrees>
            </Position>
            <AltitudeMeters>1112.800048828125</AltitudeMeters>
            <DistanceMeters>324761.69167131</DistanceMeters>
          </Trackpoint>
          <Trackpoint>
            <Time>2021-07-31T15:19:08.000Z</Time>
            <Position>
              <LatitudeDegrees>42.210389636456966400146484375</LatitudeDegrees>
              <LongitudeDegrees>-2.28837917558848857879638671875</LongitudeDegrees>
            </Position>
            <AltitudeMeters>1114</AltitudeMeters>
            <DistanceMeters>324772.96506015</DistanceMeters>
          </Trackpoint>
          <Trackpoint>
            <Time>2021-07-31T15:19:15.000Z</Time>
            <Position>
              <LatitudeDegrees>42.21029701642692089080810546875</LatitudeDegrees>
              <LongitudeDegrees>-2.2884890623390674591064453125</LongitudeDegrees>
            </Position>
            <AltitudeMeters>1115.199951171875</AltitudeMeters>
            <DistanceMeters>324786.68844436</DistanceMeters>
          </Trackpoint>
          <Trackpoint>
            <Time>2021-07-31T15:19:24.000Z</Time>
            <Position>
              <LatitudeDegrees>42.21014832146465778350830078125</LatitudeDegrees>
              <LongitudeDegrees>-2.28856910951435565948486328125</LongitudeDegrees>
            </Position>
            <AltitudeMeters>1116.199951171875</AltitudeMeters>
            <DistanceMeters>324804.50538314</DistanceMeters>
          </Trackpoint>
          <Trackpoint>
            <Time>2021-07-31T15:19:31.000Z</Time>
            <Position>
              <LatitudeDegrees>42.2100478224456310272216796875</LatitudeDegrees>
              <LongitudeDegrees>-2.2886198200285434722900390625</LongitudeDegrees>
            </Position>
            <AltitudeMeters>1117.199951171875</AltitudeMeters>
            <DistanceMeters>324816.44740965</DistanceMeters>
          </Trackpoint>
          <Trackpoint>
            <Time>2021-07-31T15:19:40.000Z</Time>
            <Position>
              <LatitudeDegrees>42.20990977250039577484130859375</LatitudeDegrees>
              <LongitudeDegrees>-2.288719229400157928466796875</LongitudeDegrees>
            </Position>
            <AltitudeMeters>1118.199951171875</AltitudeMeters>
            <DistanceMeters>324833.86168705</DistanceMeters>
          </Trackpoint>
          <Trackpoint>
            <Time>2021-07-31T15:19:48.000Z</Time>
            <Position>
              <LatitudeDegrees>42.20981773920357227325439453125</LatitudeDegrees>
              <LongitudeDegrees>-2.28885996155440807342529296875</LongitudeDegrees>
            </Position>
            <AltitudeMeters>1119.4000244140625</AltitudeMeters>
            <DistanceMeters>324849.33879394</DistanceMeters>
          </Trackpoint>
          <Trackpoint>
            <Time>2021-07-31T15:20:00.000Z</Time>
            <Position>
              <LatitudeDegrees>42.20976040698587894439697265625</LatitudeDegrees>
              <LongitudeDegrees>-2.2890996001660823822021484375</LongitudeDegrees>
            </Position>
            <AltitudeMeters>1120.4000244140625</AltitudeMeters>
            <DistanceMeters>324870.09990203</DistanceMeters>
          </Trackpoint>
          <Trackpoint>
            <Time>2021-07-31T15:20:07.000Z</Time>
            <Position>
              <LatitudeDegrees>42.20974062569439411163330078125</LatitudeDegrees>
              <LongitudeDegrees>-2.2892380692064762115478515625</LongitudeDegrees>
            </Position>
            <AltitudeMeters>1121.5999755859375</AltitudeMeters>
            <DistanceMeters>324881.72582927</DistanceMeters>
          </Trackpoint>
          <Trackpoint>
            <Time>2021-07-31T15:20:12.000Z</Time>
            <Position>
              <LatitudeDegrees>42.209729813039302825927734375</LatitudeDegrees>
              <LongitudeDegrees>-2.28933823294937610626220703125</LongitudeDegrees>
            </Position>
            <AltitudeMeters>1122.800048828125</AltitudeMeters>
            <DistanceMeters>324890.0703436</DistanceMeters>
          </Trackpoint>
          <Trackpoint>
            <Time>2021-07-31T15:20:22.000Z</Time>
            <Position>
              <LatitudeDegrees>42.20970290713012218475341796875</LatitudeDegrees>
              <LongitudeDegrees>-2.28953562676906585693359375</LongitudeDegrees>
            </Position>
            <AltitudeMeters>1123.800048828125</AltitudeMeters>
            <DistanceMeters>324906.61672954</DistanceMeters>
          </Trackpoint>
          <Trackpoint>
            <Time>2021-07-31T15:20:29.000Z</Time>
            <Position>
              <LatitudeDegrees>42.20963962376117706298828125</LatitudeDegrees>
              <LongitudeDegrees>-2.2896501235663890838623046875</LongitudeDegrees>
            </Position>
            <AltitudeMeters>1125</AltitudeMeters>
            <DistanceMeters>324918.39429314</DistanceMeters>
          </Trackpoint>
          <Trackpoint>
            <Time>2021-07-31T15:20:33.000Z</Time>
            <Position>
              <LatitudeDegrees>42.2095898352563381195068359375</LatitudeDegrees>
              <LongitudeDegrees>-2.28969044052064418792724609375</LongitudeDegrees>
            </Position>
            <AltitudeMeters>1126.199951171875</AltitudeMeters>
            <DistanceMeters>324924.85610971</DistanceMeters>
          </Trackpoint>
          <Trackpoint>
            <Time>2021-07-31T15:20:42.000Z</Time>
            <Position>
              <LatitudeDegrees>42.20945949666202068328857421875</LatitudeDegrees>
              <LongitudeDegrees>-2.28973788209259510040283203125</LongitudeDegrees>
            </Position>
            <AltitudeMeters>1127.199951171875</AltitudeMeters>
            <DistanceMeters>324939.88115251</DistanceMeters>
          </Trackpoint>
          <Trackpoint>
            <Time>2021-07-31T15:20:50.000Z</Time>
            <Position>
              <LatitudeDegrees>42.209332846105098724365234375</LatitudeDegrees>
              <LongitudeDegrees>-2.28969614021480083465576171875</LongitudeDegrees>
            </Position>
            <AltitudeMeters>1128.199951171875</AltitudeMeters>
            <DistanceMeters>324954.3913304</DistanceMeters>
          </Trackpoint>
          <Trackpoint>
            <Time>2021-07-31T15:21:08.000Z</Time>
            <Position>
              <LatitudeDegrees>42.209041826426982879638671875</LatitudeDegrees>
              <LongitudeDegrees>-2.28934560902416706085205078125</LongitudeDegrees>
            </Position>
            <AltitudeMeters>1129.4000244140625</AltitudeMeters>
            <DistanceMeters>324997.79971659</DistanceMeters>
          </Trackpoint>
          <Trackpoint>
            <Time>2021-07-31T15:21:25.000Z</Time>
            <Position>
              <LatitudeDegrees>42.208724319934844970703125</LatitudeDegrees>
              <LongitudeDegrees>-2.28888795711100101470947265625</LongitudeDegrees>
            </Position>
            <AltitudeMeters>1130.4000244140625</AltitudeMeters>
            <DistanceMeters>325049.49477325</DistanceMeters>
          </Trackpoint>
          <Trackpoint>
            <Time>2021-07-31T15:21:44.000Z</Time>
            <Position>
              <LatitudeDegrees>42.20835777930915355682373046875</LatitudeDegrees>
              <LongitudeDegrees>-2.28841706179082393646240234375</LongitudeDegrees>
            </Position>
            <AltitudeMeters>1131.4000244140625</AltitudeMeters>
            <DistanceMeters>325105.81075027</DistanceMeters>
          </Trackpoint>
          <Trackpoint>
            <Time>2021-07-31T15:22:01.000Z</Time>
            <Position>
              <LatitudeDegrees>42.20786978490650653839111328125</LatitudeDegrees>
              <LongitudeDegrees>-2.28809452615678310394287109375</LongitudeDegrees>
            </Position>
            <AltitudeMeters>1131.5999755859375</AltitudeMeters>
            <DistanceMeters>325166.28523166</DistanceMeters>
          </Trackpoint>
          <Trackpoint>
            <Time>2021-07-31T15:22:14.000Z</Time>
            <Position>
              <LatitudeDegrees>42.2074732370674610137939453125</LatitudeDegrees>
              <LongitudeDegrees>-2.2880998067557811737060546875</LongitudeDegrees>
            </Position>
            <AltitudeMeters>1132.5999755859375</AltitudeMeters>
            <DistanceMeters>325210.42388743</DistanceMeters>
          </Trackpoint>
          <Trackpoint>
            <Time>2021-07-31T15:22:33.000Z</Time>
            <Position>
              <LatitudeDegrees>42.20719554461538791656494140625</LatitudeDegrees>
              <LongitudeDegrees>-2.28853650391101837158203125</LongitudeDegrees>
            </Position>
            <AltitudeMeters>1133.4000244140625</AltitudeMeters>
            <DistanceMeters>325257.87372431</DistanceMeters>
          </Trackpoint>
          <Trackpoint>
            <Time>2021-07-31T15:25:30.000Z</Time>
            <Position>
              <LatitudeDegrees>42.20721088349819183349609375</LatitudeDegrees>
              <LongitudeDegrees>-2.2885091789066791534423828125</LongitudeDegrees>
            </Position>
            <AltitudeMeters>1133</AltitudeMeters>
            <DistanceMeters>325260.70066924</DistanceMeters>
          </Trackpoint>
          <Trackpoint>
            <Time>2021-07-31T15:25:34.000Z</Time>
            <Position>
              <LatitudeDegrees>42.20720778219401836395263671875</LatitudeDegrees>
              <LongitudeDegrees>-2.28851278312504291534423828125</LongitudeDegrees>
            </Position>
            <AltitudeMeters>1133.199951171875</AltitudeMeters>
            <DistanceMeters>325261.16620317</DistanceMeters>
          </Trackpoint>
          <Trackpoint>
            <Time>2021-07-31T15:31:40.000Z</Time>
            <Position>
              <LatitudeDegrees>42.20719152130186557769775390625</LatitudeDegrees>
              <LongitudeDegrees>-2.28850373066961765289306640625</LongitudeDegrees>
            </Position>
            <AltitudeMeters>1134</AltitudeMeters>
            <DistanceMeters>325263.12292297</DistanceMeters>
          </Trackpoint>
          <Trackpoint>
            <Time>2021-07-31T15:31:45.000Z</Time>
            <Position>
              <LatitudeDegrees>42.20714114606380462646484375</LatitudeDegrees>
              <LongitudeDegrees>-2.28850029408931732177734375</LongitudeDegrees>
            </Position>
            <AltitudeMeters>1134.199951171875</AltitudeMeters>
            <DistanceMeters>325268.73674224</DistanceMeters>
          </Trackpoint>
          <Trackpoint>
            <Time>2021-07-31T15:31:51.000Z</Time>
            <Position>
              <LatitudeDegrees>42.20710149966180324554443359375</LatitudeDegrees>
              <LongitudeDegrees>-2.288540191948413848876953125</LongitudeDegrees>
            </Position>
            <AltitudeMeters>1134.199951171875</AltitudeMeters>
            <DistanceMeters>325274.24009362</DistanceMeters>
          </Trackpoint>
          <Trackpoint>
            <Time>2021-07-31T15:32:04.000Z</Time>
            <Position>
              <LatitudeDegrees>42.2071056067943572998046875</LatitudeDegrees>
              <LongitudeDegrees>-2.28857581503689289093017578125</LongitudeDegrees>
            </Position>
            <AltitudeMeters>1134.4000244140625</AltitudeMeters>
            <DistanceMeters>325277.21490032</DistanceMeters>
          </Trackpoint>
          <Trackpoint>
            <Time>2021-07-31T15:32:11.000Z</Time>
            <Position>
              <LatitudeDegrees>42.207061350345611572265625</LatitudeDegrees>
              <LongitudeDegrees>-2.28834128938615322113037109375</LongitudeDegrees>
            </Position>
            <AltitudeMeters>1135.199951171875</AltitudeMeters>
            <DistanceMeters>325297.16756882</DistanceMeters>
          </Trackpoint>
          <Trackpoint>
            <Time>2021-07-31T15:32:18.000Z</Time>
            <Position>
              <LatitudeDegrees>42.20698700286448001861572265625</LatitudeDegrees>
              <LongitudeDegrees>-2.288094274699687957763671875</LongitudeDegrees>
            </Position>
            <AltitudeMeters>1136.199951171875</AltitudeMeters>
            <DistanceMeters>325319.14936562</DistanceMeters>
          </Trackpoint>
          <Trackpoint>
            <Time>2021-07-31T15:32:22.000Z</Time>
            <Position>
              <LatitudeDegrees>42.2069465182721614837646484375</LatitudeDegrees>
              <LongitudeDegrees>-2.28796276263892650604248046875</LongitudeDegrees>
            </Position>
            <AltitudeMeters>1137.800048828125</AltitudeMeters>
            <DistanceMeters>325330.8904536</DistanceMeters>
          </Trackpoint>
          <Trackpoint>
            <Time>2021-07-31T15:32:26.000Z</Time>
            <Position>
              <LatitudeDegrees>42.206905782222747802734375</LatitudeDegrees>
              <LongitudeDegrees>-2.2878372855484485626220703125</LongitudeDegrees>
            </Position>
            <AltitudeMeters>1138.800048828125</AltitudeMeters>
            <DistanceMeters>325342.18504921</DistanceMeters>
          </Trackpoint>
          <Trackpoint>
            <Time>2021-07-31T15:32:31.000Z</Time>
            <Position>
              <LatitudeDegrees>42.20685280859470367431640625</LatitudeDegrees>
              <LongitudeDegrees>-2.2876817174255847930908203125</LongitudeDegrees>
            </Position>
            <AltitudeMeters>1140</AltitudeMeters>
            <DistanceMeters>325356.30091499</DistanceMeters>
          </Trackpoint>
          <Trackpoint>
            <Time>2021-07-31T15:32:35.000Z</Time>
            <Position>
              <LatitudeDegrees>42.20681232400238513946533203125</LatitudeDegrees>
              <LongitudeDegrees>-2.28756152093410491943359375</LongitudeDegrees>
            </Position>
            <AltitudeMeters>1141.199951171875</AltitudeMeters>
            <DistanceMeters>325367.18676329</DistanceMeters>
          </Trackpoint>
          <Trackpoint>
            <Time>2021-07-31T15:32:40.000Z</Time>
            <Position>
              <LatitudeDegrees>42.206759937107563018798828125</LatitudeDegrees>
              <LongitudeDegrees>-2.287409640848636627197265625</LongitudeDegrees>
            </Position>
            <AltitudeMeters>1142.4000244140625</AltitudeMeters>
            <DistanceMeters>325380.99934651</DistanceMeters>
          </Trackpoint>
          <Trackpoint>
            <Time>2021-07-31T15:32:45.000Z</Time>
            <Position>
              <LatitudeDegrees>42.2067057900130748748779296875</LatitudeDegrees>
              <LongitudeDegrees>-2.2872653044760227203369140625</LongitudeDegrees>
            </Position>
            <AltitudeMeters>1143.5999755859375</AltitudeMeters>
            <DistanceMeters>325394.33833546</DistanceMeters>
          </Trackpoint>
          <Trackpoint>
            <Time>2021-07-31T15:32:51.000Z</Time>
            <Position>
              <LatitudeDegrees>42.2066464461386203765869140625</LatitudeDegrees>
              <LongitudeDegrees>-2.28710009716451168060302734375</LongitudeDegrees>
            </Position>
            <AltitudeMeters>1144.5999755859375</AltitudeMeters>
            <DistanceMeters>325409.47594491</DistanceMeters>
          </Trackpoint>
          <Trackpoint>
            <Time>2021-07-31T15:32:59.000Z</Time>
            <Position>
              <LatitudeDegrees>42.20657276920974254608154296875</LatitudeDegrees>
              <LongitudeDegrees>-2.2868884541094303131103515625</LongitudeDegrees>
            </Position>
            <AltitudeMeters>1145.800048828125</AltitudeMeters>
            <DistanceMeters>325428.75536416</DistanceMeters>
          </Trackpoint>
          <Trackpoint>
            <Time>2021-07-31T15:33:11.000Z</Time>
            <Position>
              <LatitudeDegrees>42.20642910338938236236572265625</LatitudeDegrees>
              <LongitudeDegrees>-2.2864049859344959259033203125</LongitudeDegrees>
            </Position>
            <AltitudeMeters>1144.4000244140625</AltitudeMeters>
            <DistanceMeters>325471.70249822</DistanceMeters>
          </Trackpoint>
          <Trackpoint>
            <Time>2021-07-31T15:33:13.000Z</Time>
            <Position>
              <LatitudeDegrees>42.20638400875031948089599609375</LatitudeDegrees>
              <LongitudeDegrees>-2.2862651757895946502685546875</LongitudeDegrees>
            </Position>
            <AltitudeMeters>1143</AltitudeMeters>
            <DistanceMeters>325484.27478751</DistanceMeters>
          </Trackpoint>
          <Trackpoint>
            <Time>2021-07-31T15:33:15.000Z</Time>
            <Position>
              <LatitudeDegrees>42.20632466487586498260498046875</LatitudeDegrees>
              <LongitudeDegrees>-2.28610231541097164154052734375</LongitudeDegrees>
            </Position>
            <AltitudeMeters>1141.800048828125</AltitudeMeters>
            <DistanceMeters>325499.23840257</DistanceMeters>
          </Trackpoint>
          <Trackpoint>
            <Time>2021-07-31T15:33:16.000Z</Time>
            <Position>
              <LatitudeDegrees>42.2062944062054157257080078125</LatitudeDegrees>
              <LongitudeDegrees>-2.28600827045738697052001953125</LongitudeDegrees>
            </Position>
            <AltitudeMeters>1140.199951171875</AltitudeMeters>
            <DistanceMeters>325507.69097406</DistanceMeters>
          </Trackpoint>
          <Trackpoint>
            <Time>2021-07-31T15:33:17.000Z</Time>
            <Position>
              <LatitudeDegrees>42.2062633931636810302734375</LatitudeDegrees>
              <LongitudeDegrees>-2.2859057597815990447998046875</LongitudeDegrees>
            </Position>
            <AltitudeMeters>1138.5999755859375</AltitudeMeters>
            <DistanceMeters>325516.81997047</DistanceMeters>
          </Trackpoint>
          <Trackpoint>
            <Time>2021-07-31T15:33:18.000Z</Time>
            <Position>
              <LatitudeDegrees>42.20623061992228031158447265625</LatitudeDegrees>
              <LongitudeDegrees>-2.2857964597642421722412109375</LongitudeDegrees>
            </Position>
            <AltitudeMeters>1137.4000244140625</AltitudeMeters>
            <DistanceMeters>325526.54153311</DistanceMeters>
          </Trackpoint>
          <Trackpoint>
            <Time>2021-07-31T15:33:19.000Z</Time>
            <Position>
              <LatitudeDegrees>42.20619474537670612335205078125</LatitudeDegrees>
              <LongitudeDegrees>-2.2856844775378704071044921875</LongitudeDegrees>
            </Position>
            <AltitudeMeters>1136.199951171875</AltitudeMeters>
            <DistanceMeters>325536.60001095</DistanceMeters>
          </Trackpoint>
          <Trackpoint>
            <Time>2021-07-31T15:33:20.000Z</Time>
            <Position>
              <LatitudeDegrees>42.2061552666127681732177734375</LatitudeDegrees>
              <LongitudeDegrees>-2.28557257913053035736083984375</LongitudeDegrees>
            </Position>
            <AltitudeMeters>1135</AltitudeMeters>
            <DistanceMeters>325546.81836571</DistanceMeters>
          </Trackpoint>
          <Trackpoint>
            <Time>2021-07-31T15:33:22.000Z</Time>
            <Position>
              <LatitudeDegrees>42.20607304014265537261962890625</LatitudeDegrees>
              <LongitudeDegrees>-2.28535464964807033538818359375</LongitudeDegrees>
            </Position>
            <AltitudeMeters>1133.199951171875</AltitudeMeters>
            <DistanceMeters>325566.98239858</DistanceMeters>
          </Trackpoint>
          <Trackpoint>
            <Time>2021-07-31T15:33:24.000Z</Time>
            <Position>
              <LatitudeDegrees>42.20598318614065647125244140625</LatitudeDegrees>
              <LongitudeDegrees>-2.2851604409515857696533203125</LongitudeDegrees>
            </Position>
            <AltitudeMeters>1131.4000244140625</AltitudeMeters>
            <DistanceMeters>325585.86045455</DistanceMeters>
          </Trackpoint>
          <Trackpoint>
            <Time>2021-07-31T15:33:25.000Z</Time>
            <Position>
              <LatitudeDegrees>42.2059396840631961822509765625</LatitudeDegrees>
              <LongitudeDegrees>-2.28507016785442829132080078125</LongitudeDegrees>
            </Position>
            <AltitudeMeters>1130</AltitudeMeters>
            <DistanceMeters>325594.73922515</DistanceMeters>
          </Trackpoint>
          <Trackpoint>
            <Time>2021-07-31T15:33:26.000Z</Time>
            <Position>
              <LatitudeDegrees>42.2058977745473384857177734375</LatitudeDegrees>
              <LongitudeDegrees>-2.28497989475727081298828125</LongitudeDegrees>
            </Position>
            <AltitudeMeters>1128.800048828125</AltitudeMeters>
            <DistanceMeters>325603.52290166</DistanceMeters>
          </Trackpoint>
          <Trackpoint>
            <Time>2021-07-31T15:33:28.000Z</Time>
            <Position>
              <LatitudeDegrees>42.20581370405852794647216796875</LatitudeDegrees>
              <LongitudeDegrees>-2.2848003543913364410400390625</LongitudeDegrees>
            </Position>
            <AltitudeMeters>1127.199951171875</AltitudeMeters>
            <DistanceMeters>325621.03465189</DistanceMeters>
          </Trackpoint>
          <Trackpoint>
            <Time>2021-07-31T15:33:30.000Z</Time>
            <Position>
              <LatitudeDegrees>42.20573994331061840057373046875</LatitudeDegrees>
              <LongitudeDegrees>-2.2846370749175548553466796875</LongitudeDegrees>
            </Position>
            <AltitudeMeters>1126</AltitudeMeters>
            <DistanceMeters>325636.80221558</DistanceMeters>
          </Trackpoint>
          <Trackpoint>
            <Time>2021-07-31T15:33:32.000Z</Time>
            <Position>
              <LatitudeDegrees>42.20567221753299236297607421875</LatitudeDegrees>
              <LongitudeDegrees>-2.2844788245856761932373046875</LongitudeDegrees>
            </Position>
            <AltitudeMeters>1123.800048828125</AltitudeMeters>
            <DistanceMeters>325651.87046837</DistanceMeters>
          </Trackpoint>
          <Trackpoint>
            <Time>2021-07-31T15:33:33.000Z</Time>
            <Position>
              <LatitudeDegrees>42.20564086921513080596923828125</LatitudeDegrees>
              <LongitudeDegrees>-2.2843950055539608001708984375</LongitudeDegrees>
            </Position>
            <AltitudeMeters>1122.4000244140625</AltitudeMeters>
            <DistanceMeters>325659.61150107</DistanceMeters>
          </Trackpoint>
          <Trackpoint>
            <Time>2021-07-31T15:33:35.000Z</Time>
            <Position>
              <LatitudeDegrees>42.20558739267289638519287109375</LatitudeDegrees>
              <LongitudeDegrees>-2.28422678075730800628662109375</LongitudeDegrees>
            </Position>
            <AltitudeMeters>1120.800048828125</AltitudeMeters>
            <DistanceMeters>325674.70430427</DistanceMeters>
          </Trackpoint>
          <Trackpoint>
            <Time>2021-07-31T15:33:37.000Z</Time>
            <Position>
              <LatitudeDegrees>42.2055380232632160186767578125</LatitudeDegrees>
              <LongitudeDegrees>-2.28407305665314197540283203125</LongitudeDegrees>
            </Position>
            <AltitudeMeters>1119.800048828125</AltitudeMeters>
            <DistanceMeters>325688.51819494</DistanceMeters>
          </Trackpoint>
          <Trackpoint>
            <Time>2021-07-31T15:33:39.000Z</Time>
            <Position>
              <LatitudeDegrees>42.20549904741346836090087890625</LatitudeDegrees>
              <LongitudeDegrees>-2.28395235724747180938720703125</LongitudeDegrees>
            </Position>
            <AltitudeMeters>1118.5999755859375</AltitudeMeters>
            <DistanceMeters>325699.37372337</DistanceMeters>
          </Trackpoint>
          <Trackpoint>
            <Time>2021-07-31T15:33:41.000Z</Time>
            <Position>
              <LatitudeDegrees>42.20546769909560680389404296875</LatitudeDegrees>
              <LongitudeDegrees>-2.28384054265916347503662109375</LongitudeDegrees>
            </Position>
            <AltitudeMeters>1117.5999755859375</AltitudeMeters>
            <DistanceMeters>325709.23088435</DistanceMeters>
          </Trackpoint>
          <Trackpoint>
            <Time>2021-07-31T15:33:43.000Z</Time>
            <Position>
              <LatitudeDegrees>42.20542453229427337646484375</LatitudeDegrees>
              <LongitudeDegrees>-2.28372721932828426361083984375</LongitudeDegrees>
            </Position>
            <AltitudeMeters>1116.199951171875</AltitudeMeters>
            <DistanceMeters>325719.73724692</DistanceMeters>
          </Trackpoint>
          <Trackpoint>
            <Time>2021-07-31T15:33:46.000Z</Time>
            <Position>
              <LatitudeDegrees>42.20533668994903564453125</LatitudeDegrees>
              <LongitudeDegrees>-2.283621691167354583740234375</LongitudeDegrees>
            </Position>
            <AltitudeMeters>1115.199951171875</AltitudeMeters>
            <DistanceMeters>325732.82474057</DistanceMeters>
          </Trackpoint>
          <Trackpoint>
            <Time>2021-07-31T15:33:50.000Z</Time>
            <Position>
              <LatitudeDegrees>42.205211631953716278076171875</LatitudeDegrees>
              <LongitudeDegrees>-2.28362311609089374542236328125</LongitudeDegrees>
            </Position>
            <AltitudeMeters>1113.4000244140625</AltitudeMeters>
            <DistanceMeters>325746.74477578</DistanceMeters>
          </Trackpoint>
          <Trackpoint>
            <Time>2021-07-31T15:33:53.000Z</Time>
            <Position>
              <LatitudeDegrees>42.2051138989627361297607421875</LatitudeDegrees>
              <LongitudeDegrees>-2.28371581993997097015380859375</LongitudeDegrees>
            </Position>
            <AltitudeMeters>1112</AltitudeMeters>
            <DistanceMeters>325760.03900972</DistanceMeters>
          </Trackpoint>
          <Trackpoint>
            <Time>2021-07-31T15:33:54.000Z</Time>
            <Position>
              <LatitudeDegrees>42.20507995225489139556884765625</LatitudeDegrees>
              <LongitudeDegrees>-2.28375823237001895904541015625</LongitudeDegrees>
            </Position>
            <AltitudeMeters>1111.199951171875</AltitudeMeters>
            <DistanceMeters>325765.18801977</DistanceMeters>
          </Trackpoint>
          <Trackpoint>
            <Time>2021-07-31T15:33:55.000Z</Time>
            <Position>
              <LatitudeDegrees>42.20504634082317352294921875</LatitudeDegrees>
              <LongitudeDegrees>-2.2838049195706844329833984375</LongitudeDegrees>
            </Position>
            <AltitudeMeters>1110.4000244140625</AltitudeMeters>
            <DistanceMeters>325770.55597785</DistanceMeters>
          </Trackpoint>
          <Trackpoint>
            <Time>2021-07-31T15:33:57.000Z</Time>
            <Position>
              <LatitudeDegrees>42.2049854882061481475830078125</LatitudeDegrees>
              <LongitudeDegrees>-2.2839078493416309356689453125</LongitudeDegrees>
            </Position>
            <AltitudeMeters>1109.4000244140625</AltitudeMeters>
            <DistanceMeters>325781.41400152</DistanceMeters>
          </Trackpoint>
          <Trackpoint>
            <Time>2021-07-31T15:34:00.000Z</Time>
            <Position>
              <LatitudeDegrees>42.204912565648555755615234375</LatitudeDegrees>
              <LongitudeDegrees>-2.28404740802943706512451171875</LongitudeDegrees>
            </Position>
            <AltitudeMeters>1108.199951171875</AltitudeMeters>
            <DistanceMeters>325795.49463923</DistanceMeters>
          </Trackpoint>
          <Trackpoint>
            <Time>2021-07-31T15:34:03.000Z</Time>
            <Position>
              <LatitudeDegrees>42.20484542660415172576904296875</LatitudeDegrees>
              <LongitudeDegrees>-2.284190319478511810302734375</LongitudeDegrees>
            </Position>
            <AltitudeMeters>1106.5999755859375</AltitudeMeters>
            <DistanceMeters>325809.44707228</DistanceMeters>
          </Trackpoint>
          <Trackpoint>
            <Time>2021-07-31T15:34:05.000Z</Time>
            <Position>
              <LatitudeDegrees>42.204800583422183990478515625</LatitudeDegrees>
              <LongitudeDegrees>-2.28430121205747127532958984375</LongitudeDegrees>
            </Position>
            <AltitudeMeters>1105.4000244140625</AltitudeMeters>
            <DistanceMeters>325819.86366474</DistanceMeters>
          </Trackpoint>
          <Trackpoint>
            <Time>2021-07-31T15:34:07.000Z</Time>
            <Position>
              <LatitudeDegrees>42.20476110465824604034423828125</LatitudeDegrees>
              <LongitudeDegrees>-2.28441528975963592529296875</LongitudeDegrees>
            </Position>
            <AltitudeMeters>1104.199951171875</AltitudeMeters>
            <DistanceMeters>325830.24465373</DistanceMeters>
          </Trackpoint>
          <Trackpoint>
            <Time>2021-07-31T15:34:09.000Z</Time>
            <Position>
              <LatitudeDegrees>42.20473252236843109130859375</LatitudeDegrees>
              <LongitudeDegrees>-2.28454696945846080780029296875</LongitudeDegrees>
            </Position>
            <AltitudeMeters>1103.199951171875</AltitudeMeters>
            <DistanceMeters>325841.55802208</DistanceMeters>
          </Trackpoint>
          <Trackpoint>
            <Time>2021-07-31T15:34:11.000Z</Time>
            <Position>
              <LatitudeDegrees>42.20471165142953395843505859375</LatitudeDegrees>
              <LongitudeDegrees>-2.2846927307546138763427734375</LongitudeDegrees>
            </Position>
            <AltitudeMeters>1101.5999755859375</AltitudeMeters>
            <DistanceMeters>325853.79840722</DistanceMeters>
          </Trackpoint>
          <Trackpoint>
            <Time>2021-07-31T15:34:13.000Z</Time>
            <Position>
              <LatitudeDegrees>42.20469295978546142578125</LatitudeDegrees>
              <LongitudeDegrees>-2.284822650253772735595703125</LongitudeDegrees>
            </Position>
            <AltitudeMeters>1100.4000244140625</AltitudeMeters>
            <DistanceMeters>325864.70994047</DistanceMeters>
          </Trackpoint>
          <Trackpoint>
            <Time>2021-07-31T15:34:14.000Z</Time>
            <Position>
              <LatitudeDegrees>42.20468130894005298614501953125</LatitudeDegrees>
              <LongitudeDegrees>-2.284885346889495849609375</LongitudeDegrees>
            </Position>
            <AltitudeMeters>1100.199951171875</AltitudeMeters>
            <DistanceMeters>325870.03906708</DistanceMeters>
          </Trackpoint>
          <Trackpoint>
            <Time>2021-07-31T15:34:18.000Z</Time>
            <Position>
              <LatitudeDegrees>42.20461056567728519439697265625</LatitudeDegrees>
              <LongitudeDegrees>-2.285113669931888580322265625</LongitudeDegrees>
            </Position>
            <AltitudeMeters>1099</AltitudeMeters>
            <DistanceMeters>325890.44438072</DistanceMeters>
          </Trackpoint>
          <Trackpoint>
            <Time>2021-07-31T15:34:20.000Z</Time>
            <Position>
              <LatitudeDegrees>42.2045653872191905975341796875</LatitudeDegrees>
              <LongitudeDegrees>-2.28523076511919498443603515625</LongitudeDegrees>
            </Position>
            <AltitudeMeters>1097.800048828125</AltitudeMeters>
            <DistanceMeters>325901.32981425</DistanceMeters>
          </Trackpoint>
          <Trackpoint>
            <Time>2021-07-31T15:34:23.000Z</Time>
            <Position>
              <LatitudeDegrees>42.2045036964118480682373046875</LatitudeDegrees>
              <LongitudeDegrees>-2.285395301878452301025390625</LongitudeDegrees>
            </Position>
            <AltitudeMeters>1096.800048828125</AltitudeMeters>
            <DistanceMeters>325916.53408855</DistanceMeters>
          </Trackpoint>
          <Trackpoint>
            <Time>2021-07-31T15:34:27.000Z</Time>
            <Position>
              <LatitudeDegrees>42.20442985184490680694580078125</LatitudeDegrees>
              <LongitudeDegrees>-2.2855741716921329498291015625</LongitudeDegrees>
            </Position>
            <AltitudeMeters>1095.199951171875</AltitudeMeters>
            <DistanceMeters>325933.41731671</DistanceMeters>
          </Trackpoint>
          <Trackpoint>
            <Time>2021-07-31T15:34:29.000Z</Time>
            <Position>
              <LatitudeDegrees>42.20438777469098567962646484375</LatitudeDegrees>
              <LongitudeDegrees>-2.2856700606644153594970703125</LongitudeDegrees>
            </Position>
            <AltitudeMeters>1093.5999755859375</AltitudeMeters>
            <DistanceMeters>325942.60596268</DistanceMeters>
          </Trackpoint>
          <Trackpoint>
            <Time>2021-07-31T15:34:31.000Z</Time>
            <Position>
              <LatitudeDegrees>42.20434117130935192108154296875</LatitudeDegrees>
              <LongitudeDegrees>-2.28577173314988613128662109375</LongitudeDegrees>
            </Position>
            <AltitudeMeters>1092.199951171875</AltitudeMeters>
            <DistanceMeters>325952.46358169</DistanceMeters>
          </Trackpoint>
          <Trackpoint>
            <Time>2021-07-31T15:34:34.000Z</Time>
            <Position>
              <LatitudeDegrees>42.204270176589488983154296875</LatitudeDegrees>
              <LongitudeDegrees>-2.285924367606639862060546875</LongitudeDegrees>
            </Position>
            <AltitudeMeters>1091.199951171875</AltitudeMeters>
            <DistanceMeters>325967.32364526</DistanceMeters>
          </Trackpoint>
          <Trackpoint>
            <Time>2021-07-31T15:34:37.000Z</Time>
            <Position>
              <LatitudeDegrees>42.20419214107096195220947265625</LatitudeDegrees>
              <LongitudeDegrees>-2.2860787622630596160888671875</LongitudeDegrees>
            </Position>
            <AltitudeMeters>1090</AltitudeMeters>
            <DistanceMeters>325982.73380264</DistanceMeters>
          </Trackpoint>
          <Trackpoint>
            <Time>2021-07-31T15:34:42.000Z</Time>
            <Position>
              <LatitudeDegrees>42.2040594555437564849853515625</LatitudeDegrees>
              <LongitudeDegrees>-2.28633700869977474212646484375</LongitudeDegrees>
            </Position>
            <AltitudeMeters>1089</AltitudeMeters>
            <DistanceMeters>326008.64596897</DistanceMeters>
          </Trackpoint>
          <Trackpoint>
            <Time>2021-07-31T15:34:46.000Z</Time>
            <Position>
              <LatitudeDegrees>42.20394931733608245849609375</LatitudeDegrees>
              <LongitudeDegrees>-2.2865105979144573211669921875</LongitudeDegrees>
            </Position>
            <AltitudeMeters>1087.800048828125</AltitudeMeters>
            <DistanceMeters>326027.49051158</DistanceMeters>
          </Trackpoint>
          <Trackpoint>
            <Time>2021-07-31T15:34:53.000Z</Time>
            <Position>
              <LatitudeDegrees>42.2037013806402683258056640625</LatitudeDegrees>
              <LongitudeDegrees>-2.2866530902683734893798828125</LongitudeDegrees>
            </Position>
            <AltitudeMeters>1086.800048828125</AltitudeMeters>
            <DistanceMeters>326057.4831466</DistanceMeters>
          </Trackpoint>
          <Trackpoint>
            <Time>2021-07-31T15:34:54.000Z</Time>
            <Position>
              <LatitudeDegrees>42.20365771092474460601806640625</LatitudeDegrees>
              <LongitudeDegrees>-2.28665065951645374298095703125</LongitudeDegrees>
            </Position>
            <AltitudeMeters>1086.800048828125</AltitudeMeters>
            <DistanceMeters>326062.34717788</DistanceMeters>
          </Trackpoint>
          <Trackpoint>
            <Time>2021-07-31T15:34:58.000Z</Time>
            <Position>
              <LatitudeDegrees>42.20347096212208271026611328125</LatitudeDegrees>
              <LongitudeDegrees>-2.28666272945702075958251953125</LongitudeDegrees>
            </Position>
            <AltitudeMeters>1085.5999755859375</AltitudeMeters>
            <DistanceMeters>326083.15650958</DistanceMeters>
          </Trackpoint>
          <Trackpoint>
            <Time>2021-07-31T15:35:00.000Z</Time>
            <Position>
              <LatitudeDegrees>42.20340357162058353424072265625</LatitudeDegrees>
              <LongitudeDegrees>-2.2866261005401611328125</LongitudeDegrees>
            </Position>
            <AltitudeMeters>1084.4000244140625</AltitudeMeters>
            <DistanceMeters>326091.24216066</DistanceMeters>
          </Trackpoint>
          <Trackpoint>
            <Time>2021-07-31T15:35:05.000Z</Time>
            <Position>
              <LatitudeDegrees>42.2034640051424503326416015625</LatitudeDegrees>
              <LongitudeDegrees>-2.2864368371665477752685546875</LongitudeDegrees>
            </Position>
            <AltitudeMeters>1083</AltitudeMeters>
            <DistanceMeters>326108.23441461</DistanceMeters>
          </Trackpoint>
          <Trackpoint>
            <Time>2021-07-31T15:35:09.000Z</Time>
            <Position>
              <LatitudeDegrees>42.2036214172840118408203125</LatitudeDegrees>
              <LongitudeDegrees>-2.28638210333883762359619140625</LongitudeDegrees>
            </Position>
            <AltitudeMeters>1081.800048828125</AltitudeMeters>
            <DistanceMeters>326126.32646289</DistanceMeters>
          </Trackpoint>
          <Trackpoint>
            <Time>2021-07-31T15:35:16.000Z</Time>
            <Position>
              <LatitudeDegrees>42.203782014548778533935546875</LatitudeDegrees>
              <LongitudeDegrees>-2.2861102782189846038818359375</LongitudeDegrees>
            </Position>
            <AltitudeMeters>1081.4000244140625</AltitudeMeters>
            <DistanceMeters>326154.99304756</DistanceMeters>
          </Trackpoint>
          <Trackpoint>
            <Time>2021-07-31T15:35:17.000Z</Time>
            <Position>
              <LatitudeDegrees>42.2037888877093791961669921875</LatitudeDegrees>
              <LongitudeDegrees>-2.28605235926806926727294921875</LongitudeDegrees>
            </Position>
            <AltitudeMeters>1081.4000244140625</AltitudeMeters>
            <DistanceMeters>326159.82915116</DistanceMeters>
          </Trackpoint>
          <Trackpoint>
            <Time>2021-07-31T15:35:20.000Z</Time>
            <Position>
              <LatitudeDegrees>42.20378276892006397247314453125</LatitudeDegrees>
              <LongitudeDegrees>-2.2858407162129878997802734375</LongitudeDegrees>
            </Position>
            <AltitudeMeters>1080.199951171875</AltitudeMeters>
            <DistanceMeters>326177.29184515</DistanceMeters>
          </Trackpoint>
          <Trackpoint>
            <Time>2021-07-31T15:35:21.000Z</Time>
            <Position>
              <LatitudeDegrees>42.20377706922590732574462890625</LatitudeDegrees>
              <LongitudeDegrees>-2.28575195185840129852294921875</LongitudeDegrees>
            </Position>
            <AltitudeMeters>1079</AltitudeMeters>
            <DistanceMeters>326184.63784657</DistanceMeters>
          </Trackpoint>
          <Trackpoint>
            <Time>2021-07-31T15:35:22.000Z</Time>
            <Position>
              <LatitudeDegrees>42.2037721239030361175537109375</LatitudeDegrees>
              <LongitudeDegrees>-2.28565170429646968841552734375</LongitudeDegrees>
            </Position>
            <AltitudeMeters>1077.800048828125</AltitudeMeters>
            <DistanceMeters>326192.92099336</DistanceMeters>
          </Trackpoint>
          <Trackpoint>
            <Time>2021-07-31T15:35:23.000Z</Time>
            <Position>
              <LatitudeDegrees>42.20376902259886264801025390625</LatitudeDegrees>
              <LongitudeDegrees>-2.2855409793555736541748046875</LongitudeDegrees>
            </Position>
            <AltitudeMeters>1076.4000244140625</AltitudeMeters>
            <DistanceMeters>326202.05641708</DistanceMeters>
          </Trackpoint>
          <Trackpoint>
            <Time>2021-07-31T15:35:24.000Z</Time>
            <Position>
              <LatitudeDegrees>42.203763909637928009033203125</LatitudeDegrees>
              <LongitudeDegrees>-2.28542321361601352691650390625</LongitudeDegrees>
            </Position>
            <AltitudeMeters>1075</AltitudeMeters>
            <DistanceMeters>326211.78262296</DistanceMeters>
          </Trackpoint>
          <Trackpoint>
            <Time>2021-07-31T15:35:25.000Z</Time>
            <Position>
              <LatitudeDegrees>42.2037546895444393157958984375</LatitudeDegrees>
              <LongitudeDegrees>-2.2853049449622631072998046875</LongitudeDegrees>
            </Position>
            <AltitudeMeters>1073.5999755859375</AltitudeMeters>
            <DistanceMeters>326221.58742759</DistanceMeters>
          </Trackpoint>
          <Trackpoint>
            <Time>2021-07-31T15:35:26.000Z</Time>
            <Position>
              <LatitudeDegrees>42.2037406079471111297607421875</LatitudeDegrees>
              <LongitudeDegrees>-2.28519069962203502655029296875</LongitudeDegrees>
            </Position>
            <AltitudeMeters>1072.199951171875</AltitudeMeters>
            <DistanceMeters>326231.1356029</DistanceMeters>
          </Trackpoint>
          <Trackpoint>
            <Time>2021-07-31T15:35:27.000Z</Time>
            <Position>
              <LatitudeDegrees>42.20372124575078487396240234375</LatitudeDegrees>
              <LongitudeDegrees>-2.2850771248340606689453125</LongitudeDegrees>
            </Position>
            <AltitudeMeters>1070.800048828125</AltitudeMeters>
            <DistanceMeters>326240.74411484</DistanceMeters>
          </Trackpoint>
          <Trackpoint>
            <Time>2021-07-31T15:35:28.000Z</Time>
            <Position>
              <LatitudeDegrees>42.2036953456699848175048828125</LatitudeDegrees>
              <LongitudeDegrees>-2.2849582694470882415771484375</LongitudeDegrees>
            </Position>
            <AltitudeMeters>1068.800048828125</AltitudeMeters>
            <DistanceMeters>326250.95849212</DistanceMeters>
          </Trackpoint>
          <Trackpoint>
            <Time>2021-07-31T15:35:29.000Z</Time>
            <Position>
              <LatitudeDegrees>42.20366307534277439117431640625</LatitudeDegrees>
              <LongitudeDegrees>-2.2848338820040225982666015625</LongitudeDegrees>
            </Position>
            <AltitudeMeters>1067.800048828125</AltitudeMeters>
            <DistanceMeters>326261.82482911</DistanceMeters>
          </Trackpoint>
          <Trackpoint>
            <Time>2021-07-31T15:35:30.000Z</Time>
            <Position>
              <LatitudeDegrees>42.20362653024494647979736328125</LatitudeDegrees>
              <LongitudeDegrees>-2.28470421396195888519287109375</LongitudeDegrees>
            </Position>
            <AltitudeMeters>1066.4000244140625</AltitudeMeters>
            <DistanceMeters>326273.26361434</DistanceMeters>
          </Trackpoint>
          <Trackpoint>
            <Time>2021-07-31T15:35:31.000Z</Time>
            <Position>
              <LatitudeDegrees>42.20359015278518199920654296875</LatitudeDegrees>
              <LongitudeDegrees>-2.2845740430057048797607421875</LongitudeDegrees>
            </Position>
            <AltitudeMeters>1065.199951171875</AltitudeMeters>
            <DistanceMeters>326284.73432678</DistanceMeters>
          </Trackpoint>
          <Trackpoint>
            <Time>2021-07-31T15:35:33.000Z</Time>
            <Position>
              <LatitudeDegrees>42.20352628268301486968994140625</LatitudeDegrees>
              <LongitudeDegrees>-2.2843215800821781158447265625</LongitudeDegrees>
            </Position>
            <AltitudeMeters>1063.800048828125</AltitudeMeters>
            <DistanceMeters>326306.72988101</DistanceMeters>
          </Trackpoint>
          <Trackpoint>
            <Time>2021-07-31T15:35:35.000Z</Time>
            <Position>
              <LatitudeDegrees>42.20347666181623935699462890625</LatitudeDegrees>
              <LongitudeDegrees>-2.28409878909587860107421875</LongitudeDegrees>
            </Position>
            <AltitudeMeters>1062.5999755859375</AltitudeMeters>
            <DistanceMeters>326325.91092385</DistanceMeters>
          </Trackpoint>
          <Trackpoint>
            <Time>2021-07-31T15:35:38.000Z</Time>
            <Position>
              <LatitudeDegrees>42.20343223772943019866943359375</LatitudeDegrees>
              <LongitudeDegrees>-2.28382092900574207305908203125</LongitudeDegrees>
            </Position>
            <AltitudeMeters>1061.5999755859375</AltitudeMeters>
            <DistanceMeters>326349.34767896</DistanceMeters>
          </Trackpoint>
          <Trackpoint>
            <Time>2021-07-31T15:35:41.000Z</Time>
            <Position>
              <LatitudeDegrees>42.20340457744896411895751953125</LatitudeDegrees>
              <LongitudeDegrees>-2.2836017422378063201904296875</LongitudeDegrees>
            </Position>
            <AltitudeMeters>1060.4000244140625</AltitudeMeters>
            <DistanceMeters>326367.67970898</DistanceMeters>
          </Trackpoint>
          <Trackpoint>
            <Time>2021-07-31T15:35:45.000Z</Time>
            <Position>
              <LatitudeDegrees>42.20334540121257305145263671875</LatitudeDegrees>
              <LongitudeDegrees>-2.28344592265784740447998046875</LongitudeDegrees>
            </Position>
            <AltitudeMeters>1059.199951171875</AltitudeMeters>
            <DistanceMeters>326382.11720373</DistanceMeters>
          </Trackpoint>
          <Trackpoint>
            <Time>2021-07-31T15:35:48.000Z</Time>
            <Position>
              <LatitudeDegrees>42.20325621776282787322998046875</LatitudeDegrees>
              <LongitudeDegrees>-2.2833995707333087921142578125</LongitudeDegrees>
            </Position>
            <AltitudeMeters>1057.800048828125</AltitudeMeters>
            <DistanceMeters>326392.75340595</DistanceMeters>
          </Trackpoint>
          <Trackpoint>
            <Time>2021-07-31T15:35:50.000Z</Time>
            <Position>
              <LatitudeDegrees>42.20315270125865936279296875</LatitudeDegrees>
              <LongitudeDegrees>-2.2833875007927417755126953125</LongitudeDegrees>
            </Position>
            <AltitudeMeters>1056</AltitudeMeters>
            <DistanceMeters>326404.31780962</DistanceMeters>
          </Trackpoint>
          <Trackpoint>
            <Time>2021-07-31T15:35:51.000Z</Time>
            <Position>
              <LatitudeDegrees>42.20309444703161716461181640625</LatitudeDegrees>
              <LongitudeDegrees>-2.28337182663381099700927734375</LongitudeDegrees>
            </Position>
            <AltitudeMeters>1054.5999755859375</AltitudeMeters>
            <DistanceMeters>326410.92882845</DistanceMeters>
          </Trackpoint>
          <Trackpoint>
            <Time>2021-07-31T15:35:52.000Z</Time>
            <Position>
              <LatitudeDegrees>42.2030371986329555511474609375</LatitudeDegrees>
              <LongitudeDegrees>-2.2833506204187870025634765625</LongitudeDegrees>
            </Position>
            <AltitudeMeters>1053.800048828125</AltitudeMeters>
            <DistanceMeters>326417.53643161</DistanceMeters>
          </Trackpoint>
          <Trackpoint>
            <Time>2021-07-31T15:35:53.000Z</Time>
            <Position>
              <LatitudeDegrees>42.2029828839004039764404296875</LatitudeDegrees>
              <LongitudeDegrees>-2.2833283245563507080078125</LongitudeDegrees>
            </Position>
            <AltitudeMeters>1053.199951171875</AltitudeMeters>
            <DistanceMeters>326423.8555295</DistanceMeters>
          </Trackpoint>
          <Trackpoint>
            <Time>2021-07-31T15:35:55.000Z</Time>
            <Position>
              <LatitudeDegrees>42.202890850603580474853515625</LatitudeDegrees>
              <LongitudeDegrees>-2.283297143876552581787109375</LongitudeDegrees>
            </Position>
            <AltitudeMeters>1052.4000244140625</AltitudeMeters>
            <DistanceMeters>326434.41675595</DistanceMeters>
          </Trackpoint>
          <Trackpoint>
            <Time>2021-07-31T15:35:57.000Z</Time>
            <Position>
              <LatitudeDegrees>42.2028145752847194671630859375</LatitudeDegrees>
              <LongitudeDegrees>-2.2833107225596904754638671875</LongitudeDegrees>
            </Position>
            <AltitudeMeters>1052.199951171875</AltitudeMeters>
            <DistanceMeters>326442.97971226</DistanceMeters>
          </Trackpoint>
          <Trackpoint>
            <Time>2021-07-31T15:36:02.000Z</Time>
            <Position>
              <LatitudeDegrees>42.2027716599404811859130859375</LatitudeDegrees>
              <LongitudeDegrees>-2.28352974168956279754638671875</LongitudeDegrees>
            </Position>
            <AltitudeMeters>1050.800048828125</AltitudeMeters>
            <DistanceMeters>326461.6586869</DistanceMeters>
          </Trackpoint>
          <Trackpoint>
            <Time>2021-07-31T15:36:05.000Z</Time>
            <Position>
              <LatitudeDegrees>42.20282605849206447601318359375</LatitudeDegrees>
              <LongitudeDegrees>-2.28368966840207576751708984375</LongitudeDegrees>
            </Position>
            <AltitudeMeters>1049.5999755859375</AltitudeMeters>
            <DistanceMeters>326476.16824245</DistanceMeters>
          </Trackpoint>
          <Trackpoint>
            <Time>2021-07-31T15:36:06.000Z</Time>
            <Position>
              <LatitudeDegrees>42.20284986309707164764404296875</LatitudeDegrees>
              <LongitudeDegrees>-2.2837455756962299346923828125</LongitudeDegrees>
            </Position>
            <AltitudeMeters>1049.4000244140625</AltitudeMeters>
            <DistanceMeters>326481.4846453</DistanceMeters>
          </Trackpoint>
          <Trackpoint>
            <Time>2021-07-31T15:36:08.000Z</Time>
            <Position>
              <LatitudeDegrees>42.20289713703095912933349609375</LatitudeDegrees>
              <LongitudeDegrees>-2.28387407027184963226318359375</LongitudeDegrees>
            </Position>
            <AltitudeMeters>1048.5999755859375</AltitudeMeters>
            <DistanceMeters>326493.31346749</DistanceMeters>
          </Trackpoint>
          <Trackpoint>
            <Time>2021-07-31T15:36:10.000Z</Time>
            <Position>
              <LatitudeDegrees>42.20293636433780193328857421875</LatitudeDegrees>
              <LongitudeDegrees>-2.2840208373963832855224609375</LongitudeDegrees>
            </Position>
            <AltitudeMeters>1047.5999755859375</AltitudeMeters>
            <DistanceMeters>326506.17792282</DistanceMeters>
          </Trackpoint>
          <Trackpoint>
            <Time>2021-07-31T15:36:12.000Z</Time>
            <Position>
              <LatitudeDegrees>42.20295564271509647369384765625</LatitudeDegrees>
              <LongitudeDegrees>-2.2841767407953739166259765625</LongitudeDegrees>
            </Position>
            <AltitudeMeters>1046.4000244140625</AltitudeMeters>
            <DistanceMeters>326519.21010137</DistanceMeters>
          </Trackpoint>
          <Trackpoint>
            <Time>2021-07-31T15:36:18.000Z</Time>
            <Position>
              <LatitudeDegrees>42.20292882062494754791259765625</LatitudeDegrees>
              <LongitudeDegrees>-2.28464185260236263275146484375</LongitudeDegrees>
            </Position>
            <AltitudeMeters>1045.5999755859375</AltitudeMeters>
            <DistanceMeters>326557.67421094</DistanceMeters>
          </Trackpoint>
          <Trackpoint>
            <Time>2021-07-31T15:36:23.000Z</Time>
            <Position>
              <LatitudeDegrees>42.202667556703090667724609375</LatitudeDegrees>
              <LongitudeDegrees>-2.2847949899733066558837890625</LongitudeDegrees>
            </Position>
            <AltitudeMeters>1045.199951171875</AltitudeMeters>
            <DistanceMeters>326589.37612552</DistanceMeters>
          </Trackpoint>
          <Trackpoint>
            <Time>2021-07-31T15:36:26.000Z</Time>
            <Position>
              <LatitudeDegrees>42.20248105935752391815185546875</LatitudeDegrees>
              <LongitudeDegrees>-2.284685187041759490966796875</LongitudeDegrees>
            </Position>
            <AltitudeMeters>1044.5999755859375</AltitudeMeters>
            <DistanceMeters>326612.02181101</DistanceMeters>
          </Trackpoint>
          <Trackpoint>
            <Time>2021-07-31T15:36:28.000Z</Time>
            <Position>
              <LatitudeDegrees>42.202359773218631744384765625</LatitudeDegrees>
              <LongitudeDegrees>-2.2846001945436000823974609375</LongitudeDegrees>
            </Position>
            <AltitudeMeters>1044</AltitudeMeters>
            <DistanceMeters>326627.23172647</DistanceMeters>
          </Trackpoint>
          <Trackpoint>
            <Time>2021-07-31T15:36:31.000Z</Time>
            <Position>
              <LatitudeDegrees>42.202167324721813201904296875</LatitudeDegrees>
              <LongitudeDegrees>-2.2844996117055416107177734375</LongitudeDegrees>
            </Position>
            <AltitudeMeters>1043</AltitudeMeters>
            <DistanceMeters>326650.20108097</DistanceMeters>
          </Trackpoint>
          <Trackpoint>
            <Time>2021-07-31T15:36:35.000Z</Time>
            <Position>
              <LatitudeDegrees>42.201938331127166748046875</LatitudeDegrees>
              <LongitudeDegrees>-2.28441973216831684112548828125</LongitudeDegrees>
            </Position>
            <AltitudeMeters>1043</AltitudeMeters>
            <DistanceMeters>326676.52571063</DistanceMeters>
          </Trackpoint>
          <Trackpoint>
            <Time>2021-07-31T15:36:42.000Z</Time>
            <Position>
              <LatitudeDegrees>42.201665751636028289794921875</LatitudeDegrees>
              <LongitudeDegrees>-2.2845755517482757568359375</LongitudeDegrees>
            </Position>
            <AltitudeMeters>1043.199951171875</AltitudeMeters>
            <DistanceMeters>326709.47244687</DistanceMeters>
          </Trackpoint>
          <Trackpoint>
            <Time>2021-07-31T15:36:46.000Z</Time>
            <Position>
              <LatitudeDegrees>42.20154698006808757781982421875</LatitudeDegrees>
              <LongitudeDegrees>-2.28472332470118999481201171875</LongitudeDegrees>
            </Position>
            <AltitudeMeters>1043</AltitudeMeters>
            <DistanceMeters>326727.45033596</DistanceMeters>
          </Trackpoint>
          <Trackpoint>
            <Time>2021-07-31T15:36:49.000Z</Time>
            <Position>
              <LatitudeDegrees>42.20141655765473842620849609375</LatitudeDegrees>
              <LongitudeDegrees>-2.2848154418170452117919921875</LongitudeDegrees>
            </Position>
            <AltitudeMeters>1042</AltitudeMeters>
            <DistanceMeters>326743.83355885</DistanceMeters>
          </Trackpoint>
          <Trackpoint>
            <Time>2021-07-31T15:36:53.000Z</Time>
            <Position>
              <LatitudeDegrees>42.2012029029428958892822265625</LatitudeDegrees>
              <LongitudeDegrees>-2.28483782149851322174072265625</LongitudeDegrees>
            </Position>
            <AltitudeMeters>1040.5999755859375</AltitudeMeters>
            <DistanceMeters>326767.68545345</DistanceMeters>
          </Trackpoint>
          <Trackpoint>
            <Time>2021-07-31T15:36:55.000Z</Time>
            <Position>
              <LatitudeDegrees>42.20109066925942897796630859375</LatitudeDegrees>
              <LongitudeDegrees>-2.284765653312206268310546875</LongitudeDegrees>
            </Position>
            <AltitudeMeters>1039.5999755859375</AltitudeMeters>
            <DistanceMeters>326781.52220455</DistanceMeters>
          </Trackpoint>
          <Trackpoint>
            <Time>2021-07-31T15:36:56.000Z</Time>
            <Position>
              <LatitudeDegrees>42.201030738651752471923828125</LatitudeDegrees>
              <LongitudeDegrees>-2.28473313152790069580078125</LongitudeDegrees>
            </Position>
            <AltitudeMeters>1039</AltitudeMeters>
            <DistanceMeters>326788.71039607</DistanceMeters>
          </Trackpoint>
          <Trackpoint>
            <Time>2021-07-31T15:37:01.000Z</Time>
            <Position>
              <LatitudeDegrees>42.20073276199400424957275390625</LatitudeDegrees>
              <LongitudeDegrees>-2.28469851426780223846435546875</LongitudeDegrees>
            </Position>
            <AltitudeMeters>1038.5999755859375</AltitudeMeters>
            <DistanceMeters>326821.99824191</DistanceMeters>
          </Trackpoint>
          <Trackpoint>
            <Time>2021-07-31T15:37:03.000Z</Time>
            <Position>
              <LatitudeDegrees>42.2006272338330745697021484375</LatitudeDegrees>
              <LongitudeDegrees>-2.284701950848102569580078125</LongitudeDegrees>
            </Position>
            <AltitudeMeters>1038.5999755859375</AltitudeMeters>
            <DistanceMeters>326833.74740267</DistanceMeters>
          </Trackpoint>
          <Trackpoint>
            <Time>2021-07-31T15:37:08.000Z</Time>
            <Position>
              <LatitudeDegrees>42.20041089691221714019775390625</LatitudeDegrees>
              <LongitudeDegrees>-2.284683175384998321533203125</LongitudeDegrees>
            </Position>
            <AltitudeMeters>1039.5999755859375</AltitudeMeters>
            <DistanceMeters>326857.87595606</DistanceMeters>
          </Trackpoint>
          <Trackpoint>
            <Time>2021-07-31T15:37:21.000Z</Time>
            <Position>
              <LatitudeDegrees>42.19994788058102130889892578125</LatitudeDegrees>
              <LongitudeDegrees>-2.28453473187983036041259765625</LongitudeDegrees>
            </Position>
            <AltitudeMeters>1040.5999755859375</AltitudeMeters>
            <DistanceMeters>326910.84412283</DistanceMeters>
          </Trackpoint>
          <Trackpoint>
            <Time>2021-07-31T15:37:28.000Z</Time>
            <Position>
              <LatitudeDegrees>42.19968502409756183624267578125</LatitudeDegrees>
              <LongitudeDegrees>-2.28458435274660587310791015625</LongitudeDegrees>
            </Position>
            <AltitudeMeters>1039.4000244140625</AltitudeMeters>
            <DistanceMeters>326940.38535922</DistanceMeters>
          </Trackpoint>
          <Trackpoint>
            <Time>2021-07-31T15:37:31.000Z</Time>
            <Position>
              <LatitudeDegrees>42.19954856671392917633056640625</LatitudeDegrees>
              <LongitudeDegrees>-2.28457144461572170257568359375</LongitudeDegrees>
            </Position>
            <AltitudeMeters>1038</AltitudeMeters>
            <DistanceMeters>326955.61099952</DistanceMeters>
          </Trackpoint>
          <Trackpoint>
            <Time>2021-07-31T15:37:33.000Z</Time>
            <Position>
              <LatitudeDegrees>42.1994641609489917755126953125</LatitudeDegrees>
              <LongitudeDegrees>-2.28452802635729312896728515625</LongitudeDegrees>
            </Position>
            <AltitudeMeters>1036.800048828125</AltitudeMeters>
            <DistanceMeters>326965.66453848</DistanceMeters>
          </Trackpoint>
          <Trackpoint>
            <Time>2021-07-31T15:37:36.000Z</Time>
            <Position>
              <LatitudeDegrees>42.19935066998004913330078125</LatitudeDegrees>
              <LongitudeDegrees>-2.2844439558684825897216796875</LongitudeDegrees>
            </Position>
            <AltitudeMeters>1035.800048828125</AltitudeMeters>
            <DistanceMeters>326980.07323334</DistanceMeters>
          </Trackpoint>
          <Trackpoint>
            <Time>2021-07-31T15:37:39.000Z</Time>
            <Position>
              <LatitudeDegrees>42.199223935604095458984375</LatitudeDegrees>
              <LongitudeDegrees>-2.28437195532023906707763671875</LongitudeDegrees>
            </Position>
            <AltitudeMeters>1034.5999755859375</AltitudeMeters>
            <DistanceMeters>326995.37755047</DistanceMeters>
          </Trackpoint>
          <Trackpoint>
            <Time>2021-07-31T15:37:40.000Z</Time>
            <Position>
              <LatitudeDegrees>42.1991774998605251312255859375</LatitudeDegrees>
              <LongitudeDegrees>-2.2843587957322597503662109375</LongitudeDegrees>
            </Position>
            <AltitudeMeters>1034.199951171875</AltitudeMeters>
            <DistanceMeters>327000.65987346</DistanceMeters>
          </Trackpoint>
          <Trackpoint>
            <Time>2021-07-31T15:37:41.000Z</Time>
            <Position>
              <LatitudeDegrees>42.1991275437176227569580078125</LatitudeDegrees>
              <LongitudeDegrees>-2.28435468859970569610595703125</LongitudeDegrees>
            </Position>
            <AltitudeMeters>1033.5999755859375</AltitudeMeters>
            <DistanceMeters>327006.23009273</DistanceMeters>
          </Trackpoint>
          <Trackpoint>
            <Time>2021-07-31T15:37:43.000Z</Time>
            <Position>
              <LatitudeDegrees>42.19902000389993190765380859375</LatitudeDegrees>
              <LongitudeDegrees>-2.28438100777566432952880859375</LongitudeDegrees>
            </Position>
            <AltitudeMeters>1032.5999755859375</AltitudeMeters>
            <DistanceMeters>327018.39425454</DistanceMeters>
          </Trackpoint>
          <Trackpoint>
            <Time>2021-07-31T15:37:45.000Z</Time>
            <Position>
              <LatitudeDegrees>42.19891489483416080474853515625</LatitudeDegrees>
              <LongitudeDegrees>-2.28444077074527740478515625</LongitudeDegrees>
            </Position>
            <AltitudeMeters>1031.800048828125</AltitudeMeters>
            <DistanceMeters>327031.08805949</DistanceMeters>
          </Trackpoint>
          <Trackpoint>
            <Time>2021-07-31T15:37:46.000Z</Time>
            <Position>
              <LatitudeDegrees>42.198866195976734161376953125</LatitudeDegrees>
              <LongitudeDegrees>-2.284471280872821807861328125</LongitudeDegrees>
            </Position>
            <AltitudeMeters>1031.4000244140625</AltitudeMeters>
            <DistanceMeters>327037.06341908</DistanceMeters>
          </Trackpoint>
          <Trackpoint>
            <Time>2021-07-31T15:37:47.000Z</Time>
            <Position>
              <LatitudeDegrees>42.19882219098508358001708984375</LatitudeDegrees>
              <LongitudeDegrees>-2.28450237773358821868896484375</LongitudeDegrees>
            </Position>
            <AltitudeMeters>1031</AltitudeMeters>
            <DistanceMeters>327042.59214486</DistanceMeters>
          </Trackpoint>
          <Trackpoint>
            <Time>2021-07-31T15:37:50.000Z</Time>
            <Position>
              <LatitudeDegrees>42.1987064369022846221923828125</LatitudeDegrees>
              <LongitudeDegrees>-2.2845649905502796173095703125</LongitudeDegrees>
            </Position>
            <AltitudeMeters>1030.199951171875</AltitudeMeters>
            <DistanceMeters>327056.47190173</DistanceMeters>
          </Trackpoint>
          <Trackpoint>
            <Time>2021-07-31T15:37:54.000Z</Time>
            <Position>
              <LatitudeDegrees>42.19853661954402923583984375</LatitudeDegrees>
              <LongitudeDegrees>-2.284552752971649169921875</LongitudeDegrees>
            </Position>
            <AltitudeMeters>1029</AltitudeMeters>
            <DistanceMeters>327075.39987793</DistanceMeters>
          </Trackpoint>
          <Trackpoint>
            <Time>2021-07-31T15:37:55.000Z</Time>
            <Position>
              <LatitudeDegrees>42.1984942071139812469482421875</LatitudeDegrees>
              <LongitudeDegrees>-2.284540347754955291748046875</LongitudeDegrees>
            </Position>
            <AltitudeMeters>1028.4000244140625</AltitudeMeters>
            <DistanceMeters>327080.23037661</DistanceMeters>
          </Trackpoint>
          <Trackpoint>
            <Time>2021-07-31T15:37:56.000Z</Time>
            <Position>
              <LatitudeDegrees>42.1984533034265041351318359375</LatitudeDegrees>
              <LongitudeDegrees>-2.28452970273792743682861328125</LongitudeDegrees>
            </Position>
            <AltitudeMeters>1027.800048828125</AltitudeMeters>
            <DistanceMeters>327084.86627803</DistanceMeters>
          </Trackpoint>
          <Trackpoint>
            <Time>2021-07-31T15:37:58.000Z</Time>
            <Position>
              <LatitudeDegrees>42.198376022279262542724609375</LatitudeDegrees>
              <LongitudeDegrees>-2.28453707881271839141845703125</LongitudeDegrees>
            </Position>
            <AltitudeMeters>1026.5999755859375</AltitudeMeters>
            <DistanceMeters>327093.49018141</DistanceMeters>
          </Trackpoint>
          <Trackpoint>
            <Time>2021-07-31T15:38:01.000Z</Time>
            <Position>
              <LatitudeDegrees>42.19833017326891422271728515625</LatitudeDegrees>
              <LongitudeDegrees>-2.28464822284877300262451171875</LongitudeDegrees>
            </Position>
            <AltitudeMeters>1025.4000244140625</AltitudeMeters>
            <DistanceMeters>327103.97934017</DistanceMeters>
          </Trackpoint>
          <Trackpoint>
            <Time>2021-07-31T15:38:03.000Z</Time>
            <Position>
              <LatitudeDegrees>42.1983735077083110809326171875</LatitudeDegrees>
              <LongitudeDegrees>-2.28472650982439517974853515625</LongitudeDegrees>
            </Position>
            <AltitudeMeters>1024</AltitudeMeters>
            <DistanceMeters>327112.03702282</DistanceMeters>
          </Trackpoint>
          <Trackpoint>
            <Time>2021-07-31T15:38:04.000Z</Time>
            <Position>
              <LatitudeDegrees>42.19841348938643932342529296875</LatitudeDegrees>
              <LongitudeDegrees>-2.28475215844810009002685546875</LongitudeDegrees>
            </Position>
            <AltitudeMeters>1022.79998779296875</AltitudeMeters>
            <DistanceMeters>327116.96377078</DistanceMeters>
          </Trackpoint>
          <Trackpoint>
            <Time>2021-07-31T15:38:05.000Z</Time>
            <Position>
              <LatitudeDegrees>42.1984630264341831207275390625</LatitudeDegrees>
              <LongitudeDegrees>-2.2847762145102024078369140625</LongitudeDegrees>
            </Position>
            <AltitudeMeters>1021.79998779296875</AltitudeMeters>
            <DistanceMeters>327122.82238158</DistanceMeters>
          </Trackpoint>
          <Trackpoint>
            <Time>2021-07-31T15:38:06.000Z</Time>
            <Position>
              <LatitudeDegrees>42.19851926900446414947509765625</LatitudeDegrees>
              <LongitudeDegrees>-2.28480479680001735687255859375</LongitudeDegrees>
            </Position>
            <AltitudeMeters>1020.4000244140625</AltitudeMeters>
            <DistanceMeters>327129.51080432</DistanceMeters>
          </Trackpoint>
          <Trackpoint>
            <Time>2021-07-31T15:38:07.000Z</Time>
            <Position>
              <LatitudeDegrees>42.19857995398342609405517578125</LatitudeDegrees>
              <LongitudeDegrees>-2.2848395816981792449951171875</LongitudeDegrees>
            </Position>
            <AltitudeMeters>1018.79998779296875</AltitudeMeters>
            <DistanceMeters>327136.84881126</DistanceMeters>
          </Trackpoint>
          <Trackpoint>
            <Time>2021-07-31T15:38:08.000Z</Time>
            <Position>
              <LatitudeDegrees>42.1986432373523712158203125</LatitudeDegrees>
              <LongitudeDegrees>-2.2848798148334026336669921875</LongitudeDegrees>
            </Position>
            <AltitudeMeters>1017.4000244140625</AltitudeMeters>
            <DistanceMeters>327144.63520537</DistanceMeters>
          </Trackpoint>
          <Trackpoint>
            <Time>2021-07-31T15:38:10.000Z</Time>
            <Position>
              <LatitudeDegrees>42.198764942586421966552734375</LatitudeDegrees>
              <LongitudeDegrees>-2.28496246039867401123046875</LongitudeDegrees>
            </Position>
            <AltitudeMeters>1016.20001220703125</AltitudeMeters>
            <DistanceMeters>327159.79844402</DistanceMeters>
          </Trackpoint>
          <Trackpoint>
            <Time>2021-07-31T15:38:11.000Z</Time>
            <Position>
              <LatitudeDegrees>42.19881934113800525665283203125</LatitudeDegrees>
              <LongitudeDegrees>-2.28500663302838802337646484375</LongitudeDegrees>
            </Position>
            <AltitudeMeters>1015.79998779296875</AltitudeMeters>
            <DistanceMeters>327166.86372976</DistanceMeters>
          </Trackpoint>
          <Trackpoint>
            <Time>2021-07-31T15:38:13.000Z</Time>
            <Position>
              <LatitudeDegrees>42.19893098808825016021728515625</LatitudeDegrees>
              <LongitudeDegrees>-2.28511576540768146514892578125</LongitudeDegrees>
            </Position>
            <AltitudeMeters>1015</AltitudeMeters>
            <DistanceMeters>327182.20605692</DistanceMeters>
          </Trackpoint>
          <Trackpoint>
            <Time>2021-07-31T15:38:14.000Z</Time>
            <Position>
              <LatitudeDegrees>42.19898521900177001953125</LatitudeDegrees>
              <LongitudeDegrees>-2.28518147952854633331298828125</LongitudeDegrees>
            </Position>
            <AltitudeMeters>1014.5999755859375</AltitudeMeters>
            <DistanceMeters>327190.31735379</DistanceMeters>
          </Trackpoint>
          <Trackpoint>
            <Time>2021-07-31T15:38:16.000Z</Time>
            <Position>
              <LatitudeDegrees>42.1990702114999294281005859375</LatitudeDegrees>
              <LongitudeDegrees>-2.28531542234122753143310546875</LongitudeDegrees>
            </Position>
            <AltitudeMeters>1013.4000244140625</AltitudeMeters>
            <DistanceMeters>327204.85923573</DistanceMeters>
          </Trackpoint>
          <Trackpoint>
            <Time>2021-07-31T15:38:18.000Z</Time>
            <Position>
              <LatitudeDegrees>42.19913315959274768829345703125</LatitudeDegrees>
              <LongitudeDegrees>-2.2854621894657611846923828125</LongitudeDegrees>
            </Position>
            <AltitudeMeters>1012.5999755859375</AltitudeMeters>
            <DistanceMeters>327218.84270008</DistanceMeters>
          </Trackpoint>
          <Trackpoint>
            <Time>2021-07-31T15:38:19.000Z</Time>
            <Position>
              <LatitudeDegrees>42.19916081987321376800537109375</LatitudeDegrees>
              <LongitudeDegrees>-2.2855352796614170074462890625</LongitudeDegrees>
            </Position>
            <AltitudeMeters>1012.4000244140625</AltitudeMeters>
            <DistanceMeters>327225.61031027</DistanceMeters>
          </Trackpoint>
          <Trackpoint>
            <Time>2021-07-31T15:38:21.000Z</Time>
            <Position>
              <LatitudeDegrees>42.19920189119875431060791015625</LatitudeDegrees>
              <LongitudeDegrees>-2.2856752574443817138671875</LongitudeDegrees>
            </Position>
            <AltitudeMeters>1012.20001220703125</AltitudeMeters>
            <DistanceMeters>327238.02466949</DistanceMeters>
          </Trackpoint>
          <Trackpoint>
            <Time>2021-07-31T15:38:27.000Z</Time>
            <Position>
              <LatitudeDegrees>42.19904087483882904052734375</LatitudeDegrees>
              <LongitudeDegrees>-2.28601112030446529388427734375</LongitudeDegrees>
            </Position>
            <AltitudeMeters>1012</AltitudeMeters>
            <DistanceMeters>327271.01112354</DistanceMeters>
          </Trackpoint>
          <Trackpoint>
            <Time>2021-07-31T15:38:30.000Z</Time>
            <Position>
              <LatitudeDegrees>42.198868878185749053955078125</LatitudeDegrees>
              <LongitudeDegrees>-2.2861394472420215606689453125</LongitudeDegrees>
            </Position>
            <AltitudeMeters>1011.20001220703125</AltitudeMeters>
            <DistanceMeters>327292.88420083</DistanceMeters>
          </Trackpoint>
          <Trackpoint>
            <Time>2021-07-31T15:38:31.000Z</Time>
            <Position>
              <LatitudeDegrees>42.1988019905984401702880859375</LatitudeDegrees>
              <LongitudeDegrees>-2.28618579916656017303466796875</LongitudeDegrees>
            </Position>
            <AltitudeMeters>1010</AltitudeMeters>
            <DistanceMeters>327301.25248876</DistanceMeters>
          </Trackpoint>
          <Trackpoint>
            <Time>2021-07-31T15:38:32.000Z</Time>
            <Position>
              <LatitudeDegrees>42.19873032532632350921630859375</LatitudeDegrees>
              <LongitudeDegrees>-2.28623189963400363922119140625</LongitudeDegrees>
            </Position>
            <AltitudeMeters>1008.5999755859375</AltitudeMeters>
            <DistanceMeters>327310.08895135</DistanceMeters>
          </Trackpoint>
          <Trackpoint>
            <Time>2021-07-31T15:38:33.000Z</Time>
            <Position>
              <LatitudeDegrees>42.198655307292938232421875</LatitudeDegrees>
              <LongitudeDegrees>-2.2862792573869228363037109375</LongitudeDegrees>
            </Position>
            <AltitudeMeters>1006.79998779296875</AltitudeMeters>
            <DistanceMeters>327319.30703246</DistanceMeters>
          </Trackpoint>
          <Trackpoint>
            <Time>2021-07-31T15:38:34.000Z</Time>
            <Position>
              <LatitudeDegrees>42.19857760705053806304931640625</LatitudeDegrees>
              <LongitudeDegrees>-2.28632812388241291046142578125</LongitudeDegrees>
            </Position>
            <AltitudeMeters>1005.5999755859375</AltitudeMeters>
            <DistanceMeters>327328.84763886</DistanceMeters>
          </Trackpoint>
          <Trackpoint>
            <Time>2021-07-31T15:38:35.000Z</Time>
            <Position>
              <LatitudeDegrees>42.1985005773603916168212890625</LatitudeDegrees>
              <LongitudeDegrees>-2.2863768227398395538330078125</LongitudeDegrees>
            </Position>
            <AltitudeMeters>1004.5999755859375</AltitudeMeters>
            <DistanceMeters>327338.31508512</DistanceMeters>
          </Trackpoint>
          <Trackpoint>
            <Time>2021-07-31T15:38:37.000Z</Time>
            <Position>
              <LatitudeDegrees>42.19835598953068256378173828125</LatitudeDegrees>
              <LongitudeDegrees>-2.28647212497889995574951171875</LongitudeDegrees>
            </Position>
            <AltitudeMeters>1003.20001220703125</AltitudeMeters>
            <DistanceMeters>327356.22402856</DistanceMeters>
          </Trackpoint>
          <Trackpoint>
            <Time>2021-07-31T15:38:39.000Z</Time>
            <Position>
              <LatitudeDegrees>42.198229841887950897216796875</LatitudeDegrees>
              <LongitudeDegrees>-2.28656248189508914947509765625</LongitudeDegrees>
            </Position>
            <AltitudeMeters>1002</AltitudeMeters>
            <DistanceMeters>327372.11879118</DistanceMeters>
          </Trackpoint>
          <Trackpoint>
            <Time>2021-07-31T15:38:41.000Z</Time>
            <Position>
              <LatitudeDegrees>42.198107801377773284912109375</LatitudeDegrees>
              <LongitudeDegrees>-2.286643199622631072998046875</LongitudeDegrees>
            </Position>
            <AltitudeMeters>1000.5999755859375</AltitudeMeters>
            <DistanceMeters>327387.24506227</DistanceMeters>
          </Trackpoint>
          <Trackpoint>
            <Time>2021-07-31T15:38:43.000Z</Time>
            <Position>
              <LatitudeDegrees>42.19799271784722805023193359375</LatitudeDegrees>
              <LongitudeDegrees>-2.286720313131809234619140625</LongitudeDegrees>
            </Position>
            <AltitudeMeters>1000</AltitudeMeters>
            <DistanceMeters>327401.54524098</DistanceMeters>
          </Trackpoint>
          <Trackpoint>
            <Time>2021-07-31T15:38:45.000Z</Time>
            <Position>
              <LatitudeDegrees>42.1978732757270336151123046875</LatitudeDegrees>
              <LongitudeDegrees>-2.28681410662829875946044921875</LongitudeDegrees>
            </Position>
            <AltitudeMeters>999.4000244140625</AltitudeMeters>
            <DistanceMeters>327416.92519067</DistanceMeters>
          </Trackpoint>
          <Trackpoint>
            <Time>2021-07-31T15:38:48.000Z</Time>
            <Position>
              <LatitudeDegrees>42.1976952441036701202392578125</LatitudeDegrees>
              <LongitudeDegrees>-2.2869551740586757659912109375</LongitudeDegrees>
            </Position>
            <AltitudeMeters>998.20001220703125</AltitudeMeters>
            <DistanceMeters>327439.90201354</DistanceMeters>
          </Trackpoint>
          <Trackpoint>
            <Time>2021-07-31T15:38:50.000Z</Time>
            <Position>
              <LatitudeDegrees>42.19758577644824981689453125</LatitudeDegrees>
              <LongitudeDegrees>-2.2870403341948986053466796875</LongitudeDegrees>
            </Position>
            <AltitudeMeters>996.20001220703125</AltitudeMeters>
            <DistanceMeters>327453.96436199</DistanceMeters>
          </Trackpoint>
          <Trackpoint>
            <Time>2021-07-31T15:38:52.000Z</Time>
            <Position>
              <LatitudeDegrees>42.19748259522020816802978515625</LatitudeDegrees>
              <LongitudeDegrees>-2.28712029755115509033203125</LongitudeDegrees>
            </Position>
            <AltitudeMeters>994.4000244140625</AltitudeMeters>
            <DistanceMeters>327467.2068725</DistanceMeters>
          </Trackpoint>
          <Trackpoint>
            <Time>2021-07-31T15:38:53.000Z</Time>
            <Position>
              <LatitudeDegrees>42.19742861576378345489501953125</LatitudeDegrees>
              <LongitudeDegrees>-2.28714887984097003936767578125</LongitudeDegrees>
            </Position>
            <AltitudeMeters>993.79998779296875</AltitudeMeters>
            <DistanceMeters>327473.66029892</DistanceMeters>
          </Trackpoint>
          <Trackpoint>
            <Time>2021-07-31T15:38:54.000Z</Time>
            <Position>
              <LatitudeDegrees>42.19737027771770954132080078125</LatitudeDegrees>
              <LongitudeDegrees>-2.2871640510857105255126953125</LongitudeDegrees>
            </Position>
            <AltitudeMeters>993.20001220703125</AltitudeMeters>
            <DistanceMeters>327480.27268352</DistanceMeters>
          </Trackpoint>
          <Trackpoint>
            <Time>2021-07-31T15:38:57.000Z</Time>
            <Position>
              <LatitudeDegrees>42.19721253030002117156982421875</LatitudeDegrees>
              <LongitudeDegrees>-2.287141419947147369384765625</LongitudeDegrees>
            </Position>
            <AltitudeMeters>991.79998779296875</AltitudeMeters>
            <DistanceMeters>327497.92950626</DistanceMeters>
          </Trackpoint>
          <Trackpoint>
            <Time>2021-07-31T15:39:00.000Z</Time>
            <Position>
              <LatitudeDegrees>42.1971329860389232635498046875</LatitudeDegrees>
              <LongitudeDegrees>-2.28704192675650119781494140625</LongitudeDegrees>
            </Position>
            <AltitudeMeters>990.5999755859375</AltitudeMeters>
            <DistanceMeters>327509.99976945</DistanceMeters>
          </Trackpoint>
          <Trackpoint>
            <Time>2021-07-31T15:39:02.000Z</Time>
            <Position>
              <LatitudeDegrees>42.19713541679084300994873046875</LatitudeDegrees>
              <LongitudeDegrees>-2.28694452904164791107177734375</LongitudeDegrees>
            </Position>
            <AltitudeMeters>989.20001220703125</AltitudeMeters>
            <DistanceMeters>327518.03500725</DistanceMeters>
          </Trackpoint>
          <Trackpoint>
            <Time>2021-07-31T15:39:04.000Z</Time>
            <Position>
              <LatitudeDegrees>42.19718352891504764556884765625</LatitudeDegrees>
              <LongitudeDegrees>-2.28685148991644382476806640625</LongitudeDegrees>
            </Position>
            <AltitudeMeters>987.5999755859375</AltitudeMeters>
            <DistanceMeters>327527.39019303</DistanceMeters>
          </Trackpoint>
          <Trackpoint>
            <Time>2021-07-31T15:39:06.000Z</Time>
            <Position>
              <LatitudeDegrees>42.1972592175006866455078125</LatitudeDegrees>
              <LongitudeDegrees>-2.28676666505634784698486328125</LongitudeDegrees>
            </Position>
            <AltitudeMeters>986</AltitudeMeters>
            <DistanceMeters>327538.3397284</DistanceMeters>
          </Trackpoint>
          <Trackpoint>
            <Time>2021-07-31T15:39:07.000Z</Time>
            <Position>
              <LatitudeDegrees>42.1973021328449249267578125</LatitudeDegrees>
              <LongitudeDegrees>-2.28670983575284481048583984375</LongitudeDegrees>
            </Position>
            <AltitudeMeters>985.20001220703125</AltitudeMeters>
            <DistanceMeters>327545.03085081</DistanceMeters>
          </Trackpoint>
          <Trackpoint>
            <Time>2021-07-31T15:39:08.000Z</Time>
            <Position>
              <LatitudeDegrees>42.19734580256044864654541015625</LatitudeDegrees>
              <LongitudeDegrees>-2.28664227761328220367431640625</LongitudeDegrees>
            </Position>
            <AltitudeMeters>984.20001220703125</AltitudeMeters>
            <DistanceMeters>327552.42341617</DistanceMeters>
          </Trackpoint>
          <Trackpoint>
            <Time>2021-07-31T15:39:10.000Z</Time>
            <Position>
              <LatitudeDegrees>42.19743582420051097869873046875</LatitudeDegrees>
              <LongitudeDegrees>-2.2864877991378307342529296875</LongitudeDegrees>
            </Position>
            <AltitudeMeters>982.79998779296875</AltitudeMeters>
            <DistanceMeters>327568.62985944</DistanceMeters>
          </Trackpoint>
          <Trackpoint>
            <Time>2021-07-31T15:39:12.000Z</Time>
            <Position>
              <LatitudeDegrees>42.19751561991870403289794921875</LatitudeDegrees>
              <LongitudeDegrees>-2.2863650880753993988037109375</LongitudeDegrees>
            </Position>
            <AltitudeMeters>981.20001220703125</AltitudeMeters>
            <DistanceMeters>327582.0935051</DistanceMeters>
          </Trackpoint>
          <Trackpoint>
            <Time>2021-07-31T15:39:13.000Z</Time>
            <Position>
              <LatitudeDegrees>42.19754344783723354339599609375</LatitudeDegrees>
              <LongitudeDegrees>-2.28631689213216304779052734375</LongitudeDegrees>
            </Position>
            <AltitudeMeters>980.79998779296875</AltitudeMeters>
            <DistanceMeters>327587.1317136</DistanceMeters>
          </Trackpoint>
          <Trackpoint>
            <Time>2021-07-31T15:39:14.000Z</Time>
            <Position>
              <LatitudeDegrees>42.19756104983389377593994140625</LatitudeDegrees>
              <LongitudeDegrees>-2.28626861236989498138427734375</LongitudeDegrees>
            </Position>
            <AltitudeMeters>980</AltitudeMeters>
            <DistanceMeters>327591.56855557</DistanceMeters>
          </Trackpoint>
          <Trackpoint>
            <Time>2021-07-31T15:39:17.000Z</Time>
            <Position>
              <LatitudeDegrees>42.19756356440484523773193359375</LatitudeDegrees>
              <LongitudeDegrees>-2.28613802231848239898681640625</LongitudeDegrees>
            </Position>
            <AltitudeMeters>978.79998779296875</AltitudeMeters>
            <DistanceMeters>327602.3405787</DistanceMeters>
          </Trackpoint>
          <Trackpoint>
            <Time>2021-07-31T15:39:21.000Z</Time>
            <Position>
              <LatitudeDegrees>42.19744504429399967193603515625</LatitudeDegrees>
              <LongitudeDegrees>-2.28609745390713214874267578125</LongitudeDegrees>
            </Position>
            <AltitudeMeters>977.5999755859375</AltitudeMeters>
            <DistanceMeters>327615.9496517</DistanceMeters>
          </Trackpoint>
          <Trackpoint>
            <Time>2021-07-31T15:39:23.000Z</Time>
            <Position>
              <LatitudeDegrees>42.19733725301921367645263671875</LatitudeDegrees>
              <LongitudeDegrees>-2.28615277446806430816650390625</LongitudeDegrees>
            </Position>
            <AltitudeMeters>976.4000244140625</AltitudeMeters>
            <DistanceMeters>327628.78494346</DistanceMeters>
          </Trackpoint>
          <Trackpoint>
            <Time>2021-07-31T15:39:24.000Z</Time>
            <Position>
              <LatitudeDegrees>42.197275646030902862548828125</LatitudeDegrees>
              <LongitudeDegrees>-2.2861877270042896270751953125</LongitudeDegrees>
            </Position>
            <AltitudeMeters>975.20001220703125</AltitudeMeters>
            <DistanceMeters>327636.2237813</DistanceMeters>
          </Trackpoint>
          <Trackpoint>
            <Time>2021-07-31T15:39:25.000Z</Time>
            <Position>
              <LatitudeDegrees>42.1972064115107059478759765625</LatitudeDegrees>
              <LongitudeDegrees>-2.28622117079794406890869140625</LongitudeDegrees>
            </Position>
            <AltitudeMeters>973.5999755859375</AltitudeMeters>
            <DistanceMeters>327644.40822429</DistanceMeters>
          </Trackpoint>
          <Trackpoint>
            <Time>2021-07-31T15:39:26.000Z</Time>
            <Position>
              <LatitudeDegrees>42.197129465639591217041015625</LatitudeDegrees>
              <LongitudeDegrees>-2.28625268675386905670166015625</LongitudeDegrees>
            </Position>
            <AltitudeMeters>971.79998779296875</AltitudeMeters>
            <DistanceMeters>327653.35790463</DistanceMeters>
          </Trackpoint>
          <Trackpoint>
            <Time>2021-07-31T15:39:27.000Z</Time>
            <Position>
              <LatitudeDegrees>42.1970478259027004241943359375</LatitudeDegrees>
              <LongitudeDegrees>-2.2862789221107959747314453125</LongitudeDegrees>
            </Position>
            <AltitudeMeters>970.5999755859375</AltitudeMeters>
            <DistanceMeters>327662.69860046</DistanceMeters>
          </Trackpoint>
          <Trackpoint>
            <Time>2021-07-31T15:39:29.000Z</Time>
            <Position>
              <LatitudeDegrees>42.19688496552407741546630859375</LatitudeDegrees>
              <LongitudeDegrees>-2.286303900182247161865234375</LongitudeDegrees>
            </Position>
            <AltitudeMeters>969</AltitudeMeters>
            <DistanceMeters>327680.94199728</DistanceMeters>
          </Trackpoint>
          <Trackpoint>
            <Time>2021-07-31T15:39:33.000Z</Time>
            <Position>
              <LatitudeDegrees>42.196598052978515625</LatitudeDegrees>
              <LongitudeDegrees>-2.28629954159259796142578125</LongitudeDegrees>
            </Position>
            <AltitudeMeters>968</AltitudeMeters>
            <DistanceMeters>327712.8777602</DistanceMeters>
          </Trackpoint>
          <Trackpoint>
            <Time>2021-07-31T15:39:45.000Z</Time>
            <Position>
              <LatitudeDegrees>42.1962525509297847747802734375</LatitudeDegrees>
              <LongitudeDegrees>-2.2863686084747314453125</LongitudeDegrees>
            </Position>
            <AltitudeMeters>967.79998779296875</AltitudeMeters>
            <DistanceMeters>327751.75239812</DistanceMeters>
          </Trackpoint>
          <Trackpoint>
            <Time>2021-07-31T15:40:20.000Z</Time>
            <Position>
              <LatitudeDegrees>42.196085751056671142578125</LatitudeDegrees>
              <LongitudeDegrees>-2.2864137031137943267822265625</LongitudeDegrees>
            </Position>
            <AltitudeMeters>969.20001220703125</AltitudeMeters>
            <DistanceMeters>327770.68657529</DistanceMeters>
          </Trackpoint>
          <Trackpoint>
            <Time>2021-07-31T15:40:28.000Z</Time>
            <Position>
              <LatitudeDegrees>42.19589992426335811614990234375</LatitudeDegrees>
              <LongitudeDegrees>-2.28633533231914043426513671875</LongitudeDegrees>
            </Position>
            <AltitudeMeters>968</AltitudeMeters>
            <DistanceMeters>327792.35579182</DistanceMeters>
          </Trackpoint>
          <Trackpoint>
            <Time>2021-07-31T15:40:33.000Z</Time>
            <Position>
              <LatitudeDegrees>42.1957275085151195526123046875</LatitudeDegrees>
              <LongitudeDegrees>-2.28624816052615642547607421875</LongitudeDegrees>
            </Position>
            <AltitudeMeters>967</AltitudeMeters>
            <DistanceMeters>327812.84809952</DistanceMeters>
          </Trackpoint>
          <Trackpoint>
            <Time>2021-07-31T15:40:51.000Z</Time>
            <Position>
              <LatitudeDegrees>42.19535417854785919189453125</LatitudeDegrees>
              <LongitudeDegrees>-2.28593082167208194732666015625</LongitudeDegrees>
            </Position>
            <AltitudeMeters>966.4000244140625</AltitudeMeters>
            <DistanceMeters>327861.95347024</DistanceMeters>
          </Trackpoint>
          <Trackpoint>
            <Time>2021-07-31T15:41:11.000Z</Time>
            <Position>
              <LatitudeDegrees>42.19533632509410381317138671875</LatitudeDegrees>
              <LongitudeDegrees>-2.2859151475131511688232421875</LongitudeDegrees>
            </Position>
            <AltitudeMeters>966</AltitudeMeters>
            <DistanceMeters>327864.32342963</DistanceMeters>
          </Trackpoint>
          <Trackpoint>
            <Time>2021-07-31T15:41:17.000Z</Time>
            <Position>
              <LatitudeDegrees>42.19528687186539173126220703125</LatitudeDegrees>
              <LongitudeDegrees>-2.2858631797134876251220703125</LongitudeDegrees>
            </Position>
            <AltitudeMeters>965.5999755859375</AltitudeMeters>
            <DistanceMeters>327871.29867528</DistanceMeters>
          </Trackpoint>
          <Trackpoint>
            <Time>2021-07-31T15:59:51.000Z</Time>
            <Position>
              <LatitudeDegrees>42.19622950069606304168701171875</LatitudeDegrees>
              <LongitudeDegrees>-2.28634472005069255828857421875</LongitudeDegrees>
            </Position>
            <AltitudeMeters>968.5999755859375</AltitudeMeters>
            <DistanceMeters>327983.47762104</DistanceMeters>
          </Trackpoint>
          <Trackpoint>
            <Time>2021-07-31T15:59:56.000Z</Time>
            <Position>
              <LatitudeDegrees>42.19610611908137798309326171875</LatitudeDegrees>
              <LongitudeDegrees>-2.28632560931146144866943359375</LongitudeDegrees>
            </Position>
            <AltitudeMeters>967.4000244140625</AltitudeMeters>
            <DistanceMeters>327997.30000714</DistanceMeters>
          </Trackpoint>
          <Trackpoint>
            <Time>2021-07-31T15:59:59.000Z</Time>
            <Position>
              <LatitudeDegrees>42.19600729644298553466796875</LatitudeDegrees>
              <LongitudeDegrees>-2.2862755693495273590087890625</LongitudeDegrees>
            </Position>
            <AltitudeMeters>966.4000244140625</AltitudeMeters>
            <DistanceMeters>328009.04724631</DistanceMeters>
          </Trackpoint>
          <Trackpoint>
            <Time>2021-07-31T16:00:00.000Z</Time>
            <Position>
              <LatitudeDegrees>42.1959722600877285003662109375</LatitudeDegrees>
              <LongitudeDegrees>-2.286247909069061279296875</LongitudeDegrees>
            </Position>
            <AltitudeMeters>966</AltitudeMeters>
            <DistanceMeters>328013.56476474</DistanceMeters>
          </Trackpoint>
          <Trackpoint>
            <Time>2021-07-31T16:00:02.000Z</Time>
            <Position>
              <LatitudeDegrees>42.1958958171308040618896484375</LatitudeDegrees>
              <LongitudeDegrees>-2.28617188520729541778564453125</LongitudeDegrees>
            </Position>
            <AltitudeMeters>964.79998779296875</AltitudeMeters>
            <DistanceMeters>328024.13325638</DistanceMeters>
          </Trackpoint>
          <Trackpoint>
            <Time>2021-07-31T16:00:03.000Z</Time>
            <Position>
              <LatitudeDegrees>42.1958529017865657806396484375</LatitudeDegrees>
              <LongitudeDegrees>-2.28612779639661312103271484375</LongitudeDegrees>
            </Position>
            <AltitudeMeters>963.5999755859375</AltitudeMeters>
            <DistanceMeters>328030.13575628</DistanceMeters>
          </Trackpoint>
          <Trackpoint>
            <Time>2021-07-31T16:00:05.000Z</Time>
            <Position>
              <LatitudeDegrees>42.19576857984066009521484375</LatitudeDegrees>
              <LongitudeDegrees>-2.286028973758220672607421875</LongitudeDegrees>
            </Position>
            <AltitudeMeters>962</AltitudeMeters>
            <DistanceMeters>328042.56501803</DistanceMeters>
          </Trackpoint>
          <Trackpoint>
            <Time>2021-07-31T16:00:07.000Z</Time>
            <Position>
              <LatitudeDegrees>42.19568417407572269439697265625</LatitudeDegrees>
              <LongitudeDegrees>-2.28592394851148128509521484375</LongitudeDegrees>
            </Position>
            <AltitudeMeters>961</AltitudeMeters>
            <DistanceMeters>328055.34178296</DistanceMeters>
          </Trackpoint>
          <Trackpoint>
            <Time>2021-07-31T16:00:09.000Z</Time>
            <Position>
              <LatitudeDegrees>42.1956051327288150787353515625</LatitudeDegrees>
              <LongitudeDegrees>-2.28580324910581111907958984375</LongitudeDegrees>
            </Position>
            <AltitudeMeters>959.5999755859375</AltitudeMeters>
            <DistanceMeters>328068.62548439</DistanceMeters>
          </Trackpoint>
          <Trackpoint>
            <Time>2021-07-31T16:00:11.000Z</Time>
            <Position>
              <LatitudeDegrees>42.1955270133912563323974609375</LatitudeDegrees>
              <LongitudeDegrees>-2.28567182086408138275146484375</LongitudeDegrees>
            </Position>
            <AltitudeMeters>958.4000244140625</AltitudeMeters>
            <DistanceMeters>328082.52019685</DistanceMeters>
          </Trackpoint>
          <Trackpoint>
            <Time>2021-07-31T16:00:13.000Z</Time>
            <Position>
              <LatitudeDegrees>42.1954515762627124786376953125</LatitudeDegrees>
              <LongitudeDegrees>-2.2855315916240215301513671875</LongitudeDegrees>
            </Position>
            <AltitudeMeters>956.79998779296875</AltitudeMeters>
            <DistanceMeters>328096.81026854</DistanceMeters>
          </Trackpoint>
          <Trackpoint>
            <Time>2021-07-31T16:00:15.000Z</Time>
            <Position>
              <LatitudeDegrees>42.1953784860670566558837890625</LatitudeDegrees>
              <LongitudeDegrees>-2.2853944636881351470947265625</LongitudeDegrees>
            </Position>
            <AltitudeMeters>955.4000244140625</AltitudeMeters>
            <DistanceMeters>328110.74003101</DistanceMeters>
          </Trackpoint>
          <Trackpoint>
            <Time>2021-07-31T16:00:17.000Z</Time>
            <Position>
              <LatitudeDegrees>42.19530933536589145660400390625</LatitudeDegrees>
              <LongitudeDegrees>-2.285270579159259796142578125</LongitudeDegrees>
            </Position>
            <AltitudeMeters>954.20001220703125</AltitudeMeters>
            <DistanceMeters>328123.53092328</DistanceMeters>
          </Trackpoint>
          <Trackpoint>
            <Time>2021-07-31T16:00:18.000Z</Time>
            <Position>
              <LatitudeDegrees>42.1952802501618862152099609375</LatitudeDegrees>
              <LongitudeDegrees>-2.285208888351917266845703125</LongitudeDegrees>
            </Position>
            <AltitudeMeters>953.5999755859375</AltitudeMeters>
            <DistanceMeters>328129.56119009</DistanceMeters>
          </Trackpoint>
          <Trackpoint>
            <Time>2021-07-31T16:00:19.000Z</Time>
            <Position>
              <LatitudeDegrees>42.19525384716689586639404296875</LatitudeDegrees>
              <LongitudeDegrees>-2.28514485061168670654296875</LongitudeDegrees>
            </Position>
            <AltitudeMeters>953.20001220703125</AltitudeMeters>
            <DistanceMeters>328135.60491901</DistanceMeters>
          </Trackpoint>
          <Trackpoint>
            <Time>2021-07-31T16:00:22.000Z</Time>
            <Position>
              <LatitudeDegrees>42.1951766498386859893798828125</LatitudeDegrees>
              <LongitudeDegrees>-2.28496941737830638885498046875</LongitudeDegrees>
            </Position>
            <AltitudeMeters>952</AltitudeMeters>
            <DistanceMeters>328152.43028369</DistanceMeters>
          </Trackpoint>
          <Trackpoint>
            <Time>2021-07-31T16:00:24.000Z</Time>
            <Position>
              <LatitudeDegrees>42.1951317228376865386962890625</LatitudeDegrees>
              <LongitudeDegrees>-2.2848684154450893402099609375</LongitudeDegrees>
            </Position>
            <AltitudeMeters>950.79998779296875</AltitudeMeters>
            <DistanceMeters>328162.14534205</DistanceMeters>
          </Trackpoint>
          <Trackpoint>
            <Time>2021-07-31T16:00:27.000Z</Time>
            <Position>
              <LatitudeDegrees>42.19507162459194660186767578125</LatitudeDegrees>
              <LongitudeDegrees>-2.28473589755594730377197265625</LongitudeDegrees>
            </Position>
            <AltitudeMeters>949.5999755859375</AltitudeMeters>
            <DistanceMeters>328174.95739612</DistanceMeters>
          </Trackpoint>
          <Trackpoint>
            <Time>2021-07-31T16:00:30.000Z</Time>
            <Position>
              <LatitudeDegrees>42.19501948915421962738037109375</LatitudeDegrees>
              <LongitudeDegrees>-2.28461838327348232269287109375</LongitudeDegrees>
            </Position>
            <AltitudeMeters>948.4000244140625</AltitudeMeters>
            <DistanceMeters>328186.25199173</DistanceMeters>
          </Trackpoint>
          <Trackpoint>
            <Time>2021-07-31T16:00:35.000Z</Time>
            <Position>
              <LatitudeDegrees>42.194936089217662811279296875</LatitudeDegrees>
              <LongitudeDegrees>-2.2844667546451091766357421875</LongitudeDegrees>
            </Position>
            <AltitudeMeters>947.4000244140625</AltitudeMeters>
            <DistanceMeters>328201.82420008</DistanceMeters>
          </Trackpoint>
          <Trackpoint>
            <Time>2021-07-31T16:00:45.000Z</Time>
            <Position>
              <LatitudeDegrees>42.19475814141333103179931640625</LatitudeDegrees>
              <LongitudeDegrees>-2.28425863198935985565185546875</LongitudeDegrees>
            </Position>
            <AltitudeMeters>947.4000244140625</AltitudeMeters>
            <DistanceMeters>328228.03107941</DistanceMeters>
          </Trackpoint>
          <Trackpoint>
            <Time>2021-07-31T16:00:59.000Z</Time>
            <Position>
              <LatitudeDegrees>42.19454457052052021026611328125</LatitudeDegrees>
              <LongitudeDegrees>-2.2840550355613231658935546875</LongitudeDegrees>
            </Position>
            <AltitudeMeters>948.4000244140625</AltitudeMeters>
            <DistanceMeters>328257.13284584</DistanceMeters>
          </Trackpoint>
          <Trackpoint>
            <Time>2021-07-31T16:01:04.000Z</Time>
            <Position>
              <LatitudeDegrees>42.19445873983204364776611328125</LatitudeDegrees>
              <LongitudeDegrees>-2.28408730588853359222412109375</LongitudeDegrees>
            </Position>
            <AltitudeMeters>948.4000244140625</AltitudeMeters>
            <DistanceMeters>328267.04937409</DistanceMeters>
          </Trackpoint>
          <Trackpoint>
            <Time>2021-07-31T16:01:08.000Z</Time>
            <Position>
              <LatitudeDegrees>42.19446695409715175628662109375</LatitudeDegrees>
              <LongitudeDegrees>-2.284272797405719757080078125</LongitudeDegrees>
            </Position>
            <AltitudeMeters>947.20001220703125</AltitudeMeters>
            <DistanceMeters>328282.37256069</DistanceMeters>
          </Trackpoint>
          <Trackpoint>
            <Time>2021-07-31T16:01:20.000Z</Time>
            <Position>
              <LatitudeDegrees>42.1945788525044918060302734375</LatitudeDegrees>
              <LongitudeDegrees>-2.28472416289150714874267578125</LongitudeDegrees>
            </Position>
            <AltitudeMeters>948.20001220703125</AltitudeMeters>
            <DistanceMeters>328321.62077951</DistanceMeters>
          </Trackpoint>
          <Trackpoint>
            <Time>2021-07-31T16:01:23.000Z</Time>
            <Position>
              <LatitudeDegrees>42.19460207037627696990966796875</LatitudeDegrees>
              <LongitudeDegrees>-2.2848127596080303192138671875</LongitudeDegrees>
            </Position>
            <AltitudeMeters>949.4000244140625</AltitudeMeters>
            <DistanceMeters>328329.36939089</DistanceMeters>
          </Trackpoint>
          <Trackpoint>
            <Time>2021-07-31T16:01:28.000Z</Time>
            <Position>
              <LatitudeDegrees>42.194663174450397491455078125</LatitudeDegrees>
              <LongitudeDegrees>-2.2849679924547672271728515625</LongitudeDegrees>
            </Position>
            <AltitudeMeters>950.20001220703125</AltitudeMeters>
            <DistanceMeters>328343.86400225</DistanceMeters>
          </Trackpoint>
          <Trackpoint>
            <Time>2021-07-31T16:01:29.000Z</Time>
            <Position>
              <LatitudeDegrees>42.19467616640031337738037109375</LatitudeDegrees>
              <LongitudeDegrees>-2.28499959222972393035888671875</LongitudeDegrees>
            </Position>
            <AltitudeMeters>950.5999755859375</AltitudeMeters>
            <DistanceMeters>328346.8448738</DistanceMeters>
          </Trackpoint>
          <Trackpoint>
            <Time>2021-07-31T16:01:32.000Z</Time>
            <Position>
              <LatitudeDegrees>42.1947102807462215423583984375</LatitudeDegrees>
              <LongitudeDegrees>-2.28509246371686458587646484375</LongitudeDegrees>
            </Position>
            <AltitudeMeters>951.79998779296875</AltitudeMeters>
            <DistanceMeters>328355.39305364</DistanceMeters>
          </Trackpoint>
          <Trackpoint>
            <Time>2021-07-31T16:01:37.000Z</Time>
            <Position>
              <LatitudeDegrees>42.194766104221343994140625</LatitudeDegrees>
              <LongitudeDegrees>-2.285245098173618316650390625</LongitudeDegrees>
            </Position>
            <AltitudeMeters>953</AltitudeMeters>
            <DistanceMeters>328369.4293711</DistanceMeters>
          </Trackpoint>
          <Trackpoint>
            <Time>2021-07-31T16:01:42.000Z</Time>
            <Position>
              <LatitudeDegrees>42.1948168985545635223388671875</LatitudeDegrees>
              <LongitudeDegrees>-2.285385914146900177001953125</LongitudeDegrees>
            </Position>
            <AltitudeMeters>954</AltitudeMeters>
            <DistanceMeters>328382.34426723</DistanceMeters>
          </Trackpoint>
          <Trackpoint>
            <Time>2021-07-31T16:01:47.000Z</Time>
            <Position>
              <LatitudeDegrees>42.19485721550881862640380859375</LatitudeDegrees>
              <LongitudeDegrees>-2.28549127466976642608642578125</LongitudeDegrees>
            </Position>
            <AltitudeMeters>955.20001220703125</AltitudeMeters>
            <DistanceMeters>328392.12278856</DistanceMeters>
          </Trackpoint>
          <Trackpoint>
            <Time>2021-07-31T16:01:52.000Z</Time>
            <Position>
              <LatitudeDegrees>42.194878756999969482421875</LatitudeDegrees>
              <LongitudeDegrees>-2.28557978756725788116455078125</LongitudeDegrees>
            </Position>
            <AltitudeMeters>956.5999755859375</AltitudeMeters>
            <DistanceMeters>328399.80527382</DistanceMeters>
          </Trackpoint>
          <Trackpoint>
            <Time>2021-07-31T16:02:02.000Z</Time>
            <Position>
              <LatitudeDegrees>42.19492435455322265625</LatitudeDegrees>
              <LongitudeDegrees>-2.2857022471725940704345703125</LongitudeDegrees>
            </Position>
            <AltitudeMeters>957.5999755859375</AltitudeMeters>
            <DistanceMeters>328411.10706267</DistanceMeters>
          </Trackpoint>
          <Trackpoint>
            <Time>2021-07-31T16:03:14.000Z</Time>
            <Position>
              <LatitudeDegrees>42.19493214972317218780517578125</LatitudeDegrees>
              <LongitudeDegrees>-2.28574432432651519775390625</LongitudeDegrees>
            </Position>
            <AltitudeMeters>957</AltitudeMeters>
            <DistanceMeters>328414.68415902</DistanceMeters>
          </Trackpoint>
          <Trackpoint>
            <Time>2021-07-31T16:03:20.000Z</Time>
            <Position>
              <LatitudeDegrees>42.19498244114220142364501953125</LatitudeDegrees>
              <LongitudeDegrees>-2.28593685664236545562744140625</LongitudeDegrees>
            </Position>
            <AltitudeMeters>955.5999755859375</AltitudeMeters>
            <DistanceMeters>328431.51810862</DistanceMeters>
          </Trackpoint>
          <Trackpoint>
            <Time>2021-07-31T16:03:24.000Z</Time>
            <Position>
              <LatitudeDegrees>42.19501814804971218109130859375</LatitudeDegrees>
              <LongitudeDegrees>-2.2861283831298351287841796875</LongitudeDegrees>
            </Position>
            <AltitudeMeters>954.4000244140625</AltitudeMeters>
            <DistanceMeters>328447.80348074</DistanceMeters>
          </Trackpoint>
          <Trackpoint>
            <Time>2021-07-31T16:03:29.000Z</Time>
            <Position>
              <LatitudeDegrees>42.19505871646106243133544921875</LatitudeDegrees>
              <LongitudeDegrees>-2.2864271141588687896728515625</LongitudeDegrees>
            </Position>
            <AltitudeMeters>953</AltitudeMeters>
            <DistanceMeters>328472.84712184</DistanceMeters>
          </Trackpoint>
          <Trackpoint>
            <Time>2021-07-31T16:03:31.000Z</Time>
            <Position>
              <LatitudeDegrees>42.19507363624870777130126953125</LatitudeDegrees>
              <LongitudeDegrees>-2.286539264023303985595703125</LongitudeDegrees>
            </Position>
            <AltitudeMeters>951.79998779296875</AltitudeMeters>
            <DistanceMeters>328482.24276058</DistanceMeters>
          </Trackpoint>
          <Trackpoint>
            <Time>2021-07-31T16:03:36.000Z</Time>
            <Position>
              <LatitudeDegrees>42.19509358517825603485107421875</LatitudeDegrees>
              <LongitudeDegrees>-2.2867647372186183929443359375</LongitudeDegrees>
            </Position>
            <AltitudeMeters>950.79998779296875</AltitudeMeters>
            <DistanceMeters>328500.967123</DistanceMeters>
          </Trackpoint>
          <Trackpoint>
            <Time>2021-07-31T16:03:39.000Z</Time>
            <Position>
              <LatitudeDegrees>42.19509266316890716552734375</LatitudeDegrees>
              <LongitudeDegrees>-2.286932878196239471435546875</LongitudeDegrees>
            </Position>
            <AltitudeMeters>949</AltitudeMeters>
            <DistanceMeters>328514.83190815</DistanceMeters>
          </Trackpoint>
          <Trackpoint>
            <Time>2021-07-31T16:03:40.000Z</Time>
            <Position>
              <LatitudeDegrees>42.19509509392082691192626953125</LatitudeDegrees>
              <LongitudeDegrees>-2.28700705803930759429931640625</LongitudeDegrees>
            </Position>
            <AltitudeMeters>947.79998779296875</AltitudeMeters>
            <DistanceMeters>328520.9543135</DistanceMeters>
          </Trackpoint>
          <Trackpoint>
            <Time>2021-07-31T16:03:41.000Z</Time>
            <Position>
              <LatitudeDegrees>42.19509844668209552764892578125</LatitudeDegrees>
              <LongitudeDegrees>-2.28708635084331035614013671875</LongitudeDegrees>
            </Position>
            <AltitudeMeters>946.4000244140625</AltitudeMeters>
            <DistanceMeters>328527.50288839</DistanceMeters>
          </Trackpoint>
          <Trackpoint>
            <Time>2021-07-31T16:03:42.000Z</Time>
            <Position>
              <LatitudeDegrees>42.1951022185385227203369140625</LatitudeDegrees>
              <LongitudeDegrees>-2.28717503137886524200439453125</LongitudeDegrees>
            </Position>
            <AltitudeMeters>945</AltitudeMeters>
            <DistanceMeters>328534.82796274</DistanceMeters>
          </Trackpoint>
          <Trackpoint>
            <Time>2021-07-31T16:03:43.000Z</Time>
            <Position>
              <LatitudeDegrees>42.1951054036617279052734375</LatitudeDegrees>
              <LongitudeDegrees>-2.2872730158269405364990234375</LongitudeDegrees>
            </Position>
            <AltitudeMeters>943.5999755859375</AltitudeMeters>
            <DistanceMeters>328542.91528885</DistanceMeters>
          </Trackpoint>
          <Trackpoint>
            <Time>2021-07-31T16:03:44.000Z</Time>
            <Position>
              <LatitudeDegrees>42.1951080858707427978515625</LatitudeDegrees>
              <LongitudeDegrees>-2.287377454340457916259765625</LongitudeDegrees>
            </Position>
            <AltitudeMeters>942</AltitudeMeters>
            <DistanceMeters>328551.53185943</DistanceMeters>
          </Trackpoint>
          <Trackpoint>
            <Time>2021-07-31T16:03:45.000Z</Time>
            <Position>
              <LatitudeDegrees>42.19511009752750396728515625</LatitudeDegrees>
              <LongitudeDegrees>-2.287486083805561065673828125</LongitudeDegrees>
            </Position>
            <AltitudeMeters>940.5999755859375</AltitudeMeters>
            <DistanceMeters>328560.4926317</DistanceMeters>
          </Trackpoint>
          <Trackpoint>
            <Time>2021-07-31T16:03:47.000Z</Time>
            <Position>
              <LatitudeDegrees>42.19510364346206188201904296875</LatitudeDegrees>
              <LongitudeDegrees>-2.28771231137216091156005859375</LongitudeDegrees>
            </Position>
            <AltitudeMeters>938.5999755859375</AltitudeMeters>
            <DistanceMeters>328579.16120959</DistanceMeters>
          </Trackpoint>
          <Trackpoint>
            <Time>2021-07-31T16:03:48.000Z</Time>
            <Position>
              <LatitudeDegrees>42.1950955130159854888916015625</LatitudeDegrees>
              <LongitudeDegrees>-2.2878277301788330078125</LongitudeDegrees>
            </Position>
            <AltitudeMeters>937.5999755859375</AltitudeMeters>
            <DistanceMeters>328588.7216716</DistanceMeters>
          </Trackpoint>
          <Trackpoint>
            <Time>2021-07-31T16:03:49.000Z</Time>
            <Position>
              <LatitudeDegrees>42.1950878016650676727294921875</LatitudeDegrees>
              <LongitudeDegrees>-2.28794633410871028900146484375</LongitudeDegrees>
            </Position>
            <AltitudeMeters>936.5999755859375</AltitudeMeters>
            <DistanceMeters>328598.53936155</DistanceMeters>
          </Trackpoint>
          <Trackpoint>
            <Time>2021-07-31T16:03:50.000Z</Time>
            <Position>
              <LatitudeDegrees>42.1950780786573886871337890625</LatitudeDegrees>
              <LongitudeDegrees>-2.28806854225695133209228515625</LongitudeDegrees>
            </Position>
            <AltitudeMeters>935.4000244140625</AltitudeMeters>
            <DistanceMeters>328608.67475249</DistanceMeters>
          </Trackpoint>
          <Trackpoint>
            <Time>2021-07-31T16:03:52.000Z</Time>
            <Position>
              <LatitudeDegrees>42.19505268149077892303466796875</LatitudeDegrees>
              <LongitudeDegrees>-2.2883184067904949188232421875</LongitudeDegrees>
            </Position>
            <AltitudeMeters>933.5999755859375</AltitudeMeters>
            <DistanceMeters>328629.47149602</DistanceMeters>
          </Trackpoint>
          <Trackpoint>
            <Time>2021-07-31T16:03:53.000Z</Time>
            <Position>
              <LatitudeDegrees>42.19503541477024555206298828125</LatitudeDegrees>
              <LongitudeDegrees>-2.2884438000619411468505859375</LongitudeDegrees>
            </Position>
            <AltitudeMeters>932</AltitudeMeters>
            <DistanceMeters>328639.98902598</DistanceMeters>
          </Trackpoint>
          <Trackpoint>
            <Time>2021-07-31T16:03:56.000Z</Time>
            <Position>
              <LatitudeDegrees>42.194952853024005889892578125</LatitudeDegrees>
              <LongitudeDegrees>-2.288809753954410552978515625</LongitudeDegrees>
            </Position>
            <AltitudeMeters>930.79998779296875</AltitudeMeters>
            <DistanceMeters>328671.53374462</DistanceMeters>
          </Trackpoint>
          <Trackpoint>
            <Time>2021-07-31T16:04:02.000Z</Time>
            <Position>
              <LatitudeDegrees>42.1947860531508922576904296875</LatitudeDegrees>
              <LongitudeDegrees>-2.2894196212291717529296875</LongitudeDegrees>
            </Position>
            <AltitudeMeters>931.79998779296875</AltitudeMeters>
            <DistanceMeters>328725.14060432</DistanceMeters>
          </Trackpoint>
          <Trackpoint>
            <Time>2021-07-31T16:04:05.000Z</Time>
            <Position>
              <LatitudeDegrees>42.194728218019008636474609375</LatitudeDegrees>
              <LongitudeDegrees>-2.28963159956037998199462890625</LongitudeDegrees>
            </Position>
            <AltitudeMeters>933</AltitudeMeters>
            <DistanceMeters>328743.76802194</DistanceMeters>
          </Trackpoint>
          <Trackpoint>
            <Time>2021-07-31T16:04:08.000Z</Time>
            <Position>
              <LatitudeDegrees>42.19468371011316776275634765625</LatitudeDegrees>
              <LongitudeDegrees>-2.2898211143910884857177734375</LongitudeDegrees>
            </Position>
            <AltitudeMeters>933.20001220703125</AltitudeMeters>
            <DistanceMeters>328760.16226469</DistanceMeters>
          </Trackpoint>
          <Trackpoint>
            <Time>2021-07-31T16:04:16.000Z</Time>
            <Position>
              <LatitudeDegrees>42.1943408064544200897216796875</LatitudeDegrees>
              <LongitudeDegrees>-2.29008371941745281219482421875</LongitudeDegrees>
            </Position>
            <AltitudeMeters>931.79998779296875</AltitudeMeters>
            <DistanceMeters>328804.04331311</DistanceMeters>
          </Trackpoint>
          <Trackpoint>
            <Time>2021-07-31T16:04:18.000Z</Time>
            <Position>
              <LatitudeDegrees>42.194221951067447662353515625</LatitudeDegrees>
              <LongitudeDegrees>-2.2900202684104442596435546875</LongitudeDegrees>
            </Position>
            <AltitudeMeters>930.4000244140625</AltitudeMeters>
            <DistanceMeters>328818.26941846</DistanceMeters>
          </Trackpoint>
          <Trackpoint>
            <Time>2021-07-31T16:04:20.000Z</Time>
            <Position>
              <LatitudeDegrees>42.1941103041172027587890625</LatitudeDegrees>
              <LongitudeDegrees>-2.28993234224617481231689453125</LongitudeDegrees>
            </Position>
            <AltitudeMeters>929</AltitudeMeters>
            <DistanceMeters>328832.65647557</DistanceMeters>
          </Trackpoint>
          <Trackpoint>
            <Time>2021-07-31T16:04:22.000Z</Time>
            <Position>
              <LatitudeDegrees>42.19400628469884395599365234375</LatitudeDegrees>
              <LongitudeDegrees>-2.28982605971395969390869140625</LongitudeDegrees>
            </Position>
            <AltitudeMeters>928.4000244140625</AltitudeMeters>
            <DistanceMeters>328847.17722916</DistanceMeters>
          </Trackpoint>
          <Trackpoint>
            <Time>2021-07-31T16:04:23.000Z</Time>
            <Position>
              <LatitudeDegrees>42.1939602680504322052001953125</LatitudeDegrees>
              <LongitudeDegrees>-2.28976252488791942596435546875</LongitudeDegrees>
            </Position>
            <AltitudeMeters>928</AltitudeMeters>
            <DistanceMeters>328854.50353617</DistanceMeters>
          </Trackpoint>
          <Trackpoint>
            <Time>2021-07-31T16:04:26.000Z</Time>
            <Position>
              <LatitudeDegrees>42.1938422508537769317626953125</LatitudeDegrees>
              <LongitudeDegrees>-2.28952514939010143280029296875</LongitudeDegrees>
            </Position>
            <AltitudeMeters>926.4000244140625</AltitudeMeters>
            <DistanceMeters>328878.07629129</DistanceMeters>
          </Trackpoint>
          <Trackpoint>
            <Time>2021-07-31T16:04:28.000Z</Time>
            <Position>
              <LatitudeDegrees>42.19375415705144405364990234375</LatitudeDegrees>
              <LongitudeDegrees>-2.2893456928431987762451171875</LongitudeDegrees>
            </Position>
            <AltitudeMeters>924.79998779296875</AltitudeMeters>
            <DistanceMeters>328895.82798354</DistanceMeters>
          </Trackpoint>
          <Trackpoint>
            <Time>2021-07-31T16:04:29.000Z</Time>
            <Position>
              <LatitudeDegrees>42.19370520673692226409912109375</LatitudeDegrees>
              <LongitudeDegrees>-2.28925139643251895904541015625</LongitudeDegrees>
            </Position>
            <AltitudeMeters>923.79998779296875</AltitudeMeters>
            <DistanceMeters>328905.32209872</DistanceMeters>
          </Trackpoint>
          <Trackpoint>
            <Time>2021-07-31T16:04:31.000Z</Time>
            <Position>
              <LatitudeDegrees>42.1936058811843395233154296875</LatitudeDegrees>
              <LongitudeDegrees>-2.2890486381947994232177734375</LongitudeDegrees>
            </Position>
            <AltitudeMeters>921.79998779296875</AltitudeMeters>
            <DistanceMeters>328925.36620412</DistanceMeters>
          </Trackpoint>
          <Trackpoint>
            <Time>2021-07-31T16:04:33.000Z</Time>
            <Position>
              <LatitudeDegrees>42.193507812917232513427734375</LatitudeDegrees>
              <LongitudeDegrees>-2.28883179835975170135498046875</LongitudeDegrees>
            </Position>
            <AltitudeMeters>920.20001220703125</AltitudeMeters>
            <DistanceMeters>328946.31523071</DistanceMeters>
          </Trackpoint>
          <Trackpoint>
            <Time>2021-07-31T16:04:35.000Z</Time>
            <Position>
              <LatitudeDegrees>42.19342106021940708160400390625</LatitudeDegrees>
              <LongitudeDegrees>-2.2886288724839687347412109375</LongitudeDegrees>
            </Position>
            <AltitudeMeters>919.20001220703125</AltitudeMeters>
            <DistanceMeters>328965.63488857</DistanceMeters>
          </Trackpoint>
          <Trackpoint>
            <Time>2021-07-31T16:04:38.000Z</Time>
            <Position>
              <LatitudeDegrees>42.1933098323643207550048828125</LatitudeDegrees>
              <LongitudeDegrees>-2.288321591913700103759765625</LongitudeDegrees>
            </Position>
            <AltitudeMeters>917.79998779296875</AltitudeMeters>
            <DistanceMeters>328993.83637759</DistanceMeters>
          </Trackpoint>
          <Trackpoint>
            <Time>2021-07-31T16:04:39.000Z</Time>
            <Position>
              <LatitudeDegrees>42.19327278435230255126953125</LatitudeDegrees>
              <LongitudeDegrees>-2.288229055702686309814453125</LongitudeDegrees>
            </Position>
            <AltitudeMeters>916.79998779296875</AltitudeMeters>
            <DistanceMeters>329002.50987555</DistanceMeters>
          </Trackpoint>
          <Trackpoint>
            <Time>2021-07-31T16:04:40.000Z</Time>
            <Position>
              <LatitudeDegrees>42.19323347322642803192138671875</LatitudeDegrees>
              <LongitudeDegrees>-2.28814397938549518585205078125</LongitudeDegrees>
            </Position>
            <AltitudeMeters>915.5999755859375</AltitudeMeters>
            <DistanceMeters>329010.77829188</DistanceMeters>
          </Trackpoint>
          <Trackpoint>
            <Time>2021-07-31T16:04:42.000Z</Time>
            <Position>
              <LatitudeDegrees>42.193151079118251800537109375</LatitudeDegrees>
              <LongitudeDegrees>-2.2879993915557861328125</LongitudeDegrees>
            </Position>
            <AltitudeMeters>914</AltitudeMeters>
            <DistanceMeters>329025.82015332</DistanceMeters>
          </Trackpoint>
          <Trackpoint>
            <Time>2021-07-31T16:04:45.000Z</Time>
            <Position>
              <LatitudeDegrees>42.1930401027202606201171875</LatitudeDegrees>
              <LongitudeDegrees>-2.28781742043793201446533203125</LongitudeDegrees>
            </Position>
            <AltitudeMeters>912.5999755859375</AltitudeMeters>
            <DistanceMeters>329045.2558462</DistanceMeters>
          </Trackpoint>
          <Trackpoint>
            <Time>2021-07-31T16:04:48.000Z</Time>
            <Position>
              <LatitudeDegrees>42.192926444113254547119140625</LatitudeDegrees>
              <LongitudeDegrees>-2.2876136563718318939208984375</LongitudeDegrees>
            </Position>
            <AltitudeMeters>910.5999755859375</AltitudeMeters>
            <DistanceMeters>329066.28833024</DistanceMeters>
          </Trackpoint>
          <Trackpoint>
            <Time>2021-07-31T16:04:49.000Z</Time>
            <Position>
              <LatitudeDegrees>42.1928900666534900665283203125</LatitudeDegrees>
              <LongitudeDegrees>-2.28754383511841297149658203125</LongitudeDegrees>
            </Position>
            <AltitudeMeters>909.5999755859375</AltitudeMeters>
            <DistanceMeters>329073.3267249</DistanceMeters>
          </Trackpoint>
          <Trackpoint>
            <Time>2021-07-31T16:04:51.000Z</Time>
            <Position>
              <LatitudeDegrees>42.19281814992427825927734375</LatitudeDegrees>
              <LongitudeDegrees>-2.2874024324119091033935546875</LongitudeDegrees>
            </Position>
            <AltitudeMeters>908.20001220703125</AltitudeMeters>
            <DistanceMeters>329087.47007151</DistanceMeters>
          </Trackpoint>
          <Trackpoint>
            <Time>2021-07-31T16:04:53.000Z</Time>
            <Position>
              <LatitudeDegrees>42.19275235198438167572021484375</LatitudeDegrees>
              <LongitudeDegrees>-2.28726773522794246673583984375</LongitudeDegrees>
            </Position>
            <AltitudeMeters>907</AltitudeMeters>
            <DistanceMeters>329100.77449027</DistanceMeters>
          </Trackpoint>
          <Trackpoint>
            <Time>2021-07-31T16:04:55.000Z</Time>
            <Position>
              <LatitudeDegrees>42.19267875887453556060791015625</LatitudeDegrees>
              <LongitudeDegrees>-2.28714586235582828521728515625</LongitudeDegrees>
            </Position>
            <AltitudeMeters>905.5999755859375</AltitudeMeters>
            <DistanceMeters>329113.73963095</DistanceMeters>
          </Trackpoint>
          <Trackpoint>
            <Time>2021-07-31T16:04:57.000Z</Time>
            <Position>
              <LatitudeDegrees>42.19259686768054962158203125</LatitudeDegrees>
              <LongitudeDegrees>-2.287049554288387298583984375</LongitudeDegrees>
            </Position>
            <AltitudeMeters>904.4000244140625</AltitudeMeters>
            <DistanceMeters>329125.82858282</DistanceMeters>
          </Trackpoint>
          <Trackpoint>
            <Time>2021-07-31T16:04:59.000Z</Time>
            <Position>
              <LatitudeDegrees>42.1925117075443267822265625</LatitudeDegrees>
              <LongitudeDegrees>-2.28698677383363246917724609375</LongitudeDegrees>
            </Position>
            <AltitudeMeters>903.4000244140625</AltitudeMeters>
            <DistanceMeters>329136.62823408</DistanceMeters>
          </Trackpoint>
          <Trackpoint>
            <Time>2021-07-31T16:05:01.000Z</Time>
            <Position>
              <LatitudeDegrees>42.192432917654514312744140625</LatitudeDegrees>
              <LongitudeDegrees>-2.286956347525119781494140625</LongitudeDegrees>
            </Position>
            <AltitudeMeters>902.4000244140625</AltitudeMeters>
            <DistanceMeters>329145.74881872</DistanceMeters>
          </Trackpoint>
          <Trackpoint>
            <Time>2021-07-31T16:05:04.000Z</Time>
            <Position>
              <LatitudeDegrees>42.19231850467622280120849609375</LatitudeDegrees>
              <LongitudeDegrees>-2.28695458732545375823974609375</LongitudeDegrees>
            </Position>
            <AltitudeMeters>901.4000244140625</AltitudeMeters>
            <DistanceMeters>329158.48381667</DistanceMeters>
          </Trackpoint>
          <Trackpoint>
            <Time>2021-07-31T16:05:05.000Z</Time>
            <Position>
              <LatitudeDegrees>42.192277349531650543212890625</LatitudeDegrees>
              <LongitudeDegrees>-2.28696095757186412811279296875</LongitudeDegrees>
            </Position>
            <AltitudeMeters>901</AltitudeMeters>
            <DistanceMeters>329163.09530559</DistanceMeters>
          </Trackpoint>
          <Trackpoint>
            <Time>2021-07-31T16:05:06.000Z</Time>
            <Position>
              <LatitudeDegrees>42.1922325901687145233154296875</LatitudeDegrees>
              <LongitudeDegrees>-2.28696984238922595977783203125</LongitudeDegrees>
            </Position>
            <AltitudeMeters>900.4000244140625</AltitudeMeters>
            <DistanceMeters>329168.13082489</DistanceMeters>
          </Trackpoint>
          <Trackpoint>
            <Time>2021-07-31T16:05:07.000Z</Time>
            <Position>
              <LatitudeDegrees>42.1921856515109539031982421875</LatitudeDegrees>
              <LongitudeDegrees>-2.2869836725294589996337890625</LongitudeDegrees>
            </Position>
            <AltitudeMeters>899.5999755859375</AltitudeMeters>
            <DistanceMeters>329173.4777139</DistanceMeters>
          </Trackpoint>
          <Trackpoint>
            <Time>2021-07-31T16:05:09.000Z</Time>
            <Position>
              <LatitudeDegrees>42.19209085218608379364013671875</LatitudeDegrees>
              <LongitudeDegrees>-2.28701309300959110260009765625</LongitudeDegrees>
            </Position>
            <AltitudeMeters>898.4000244140625</AltitudeMeters>
            <DistanceMeters>329184.30492279</DistanceMeters>
          </Trackpoint>
          <Trackpoint>
            <Time>2021-07-31T16:05:11.000Z</Time>
            <Position>
              <LatitudeDegrees>42.19200518913567066192626953125</LatitudeDegrees>
              <LongitudeDegrees>-2.28705324232578277587890625</LongitudeDegrees>
            </Position>
            <AltitudeMeters>897.4000244140625</AltitudeMeters>
            <DistanceMeters>329194.39790512</DistanceMeters>
          </Trackpoint>
          <Trackpoint>
            <Time>2021-07-31T16:05:13.000Z</Time>
            <Position>
              <LatitudeDegrees>42.19193830154836177825927734375</LatitudeDegrees>
              <LongitudeDegrees>-2.2871375642716884613037109375</LongitudeDegrees>
            </Position>
            <AltitudeMeters>895.79998779296875</AltitudeMeters>
            <DistanceMeters>329204.58483982</DistanceMeters>
          </Trackpoint>
          <Trackpoint>
            <Time>2021-07-31T16:05:16.000Z</Time>
            <Position>
              <LatitudeDegrees>42.19189119525253772735595703125</LatitudeDegrees>
              <LongitudeDegrees>-2.287328504025936126708984375</LongitudeDegrees>
            </Position>
            <AltitudeMeters>894.5999755859375</AltitudeMeters>
            <DistanceMeters>329221.18026996</DistanceMeters>
          </Trackpoint>
          <Trackpoint>
            <Time>2021-07-31T16:05:18.000Z</Time>
            <Position>
              <LatitudeDegrees>42.19186068512499332427978515625</LatitudeDegrees>
              <LongitudeDegrees>-2.28747879154980182647705078125</LongitudeDegrees>
            </Position>
            <AltitudeMeters>892.79998779296875</AltitudeMeters>
            <DistanceMeters>329234.03032746</DistanceMeters>
          </Trackpoint>
          <Trackpoint>
            <Time>2021-07-31T16:05:20.000Z</Time>
            <Position>
              <LatitudeDegrees>42.1918171830475330352783203125</LatitudeDegrees>
              <LongitudeDegrees>-2.28763687424361705780029296875</LongitudeDegrees>
            </Position>
            <AltitudeMeters>891.4000244140625</AltitudeMeters>
            <DistanceMeters>329247.93673307</DistanceMeters>
          </Trackpoint>
          <Trackpoint>
            <Time>2021-07-31T16:05:22.000Z</Time>
            <Position>
              <LatitudeDegrees>42.1917692385613918304443359375</LatitudeDegrees>
              <LongitudeDegrees>-2.287793196737766265869140625</LongitudeDegrees>
            </Position>
            <AltitudeMeters>889.79998779296875</AltitudeMeters>
            <DistanceMeters>329261.88819528</DistanceMeters>
          </Trackpoint>
          <Trackpoint>
            <Time>2021-07-31T16:05:24.000Z</Time>
            <Position>
              <LatitudeDegrees>42.1917226351797580718994140625</LatitudeDegrees>
              <LongitudeDegrees>-2.28795387782156467437744140625</LongitudeDegrees>
            </Position>
            <AltitudeMeters>888.4000244140625</AltitudeMeters>
            <DistanceMeters>329276.11779135</DistanceMeters>
          </Trackpoint>
          <Trackpoint>
            <Time>2021-07-31T16:05:26.000Z</Time>
            <Position>
              <LatitudeDegrees>42.19167209230363368988037109375</LatitudeDegrees>
              <LongitudeDegrees>-2.288125455379486083984375</LongitudeDegrees>
            </Position>
            <AltitudeMeters>887</AltitudeMeters>
            <DistanceMeters>329291.34402472</DistanceMeters>
          </Trackpoint>
          <Trackpoint>
            <Time>2021-07-31T16:05:28.000Z</Time>
            <Position>
              <LatitudeDegrees>42.19161140732467174530029296875</LatitudeDegrees>
              <LongitudeDegrees>-2.2883073426783084869384765625</LongitudeDegrees>
            </Position>
            <AltitudeMeters>885.79998779296875</AltitudeMeters>
            <DistanceMeters>329307.79380498</DistanceMeters>
          </Trackpoint>
          <Trackpoint>
            <Time>2021-07-31T16:05:31.000Z</Time>
            <Position>
              <LatitudeDegrees>42.19151350669562816619873046875</LatitudeDegrees>
              <LongitudeDegrees>-2.2885671816766262054443359375</LongitudeDegrees>
            </Position>
            <AltitudeMeters>883.79998779296875</AltitudeMeters>
            <DistanceMeters>329331.83274655</DistanceMeters>
          </Trackpoint>
          <Trackpoint>
            <Time>2021-07-31T16:05:33.000Z</Time>
            <Position>
              <LatitudeDegrees>42.19146321527659893035888671875</LatitudeDegrees>
              <LongitudeDegrees>-2.28869500569999217987060546875</LongitudeDegrees>
            </Position>
            <AltitudeMeters>882.79998779296875</AltitudeMeters>
            <DistanceMeters>329343.76758739</DistanceMeters>
          </Trackpoint>
          <Trackpoint>
            <Time>2021-07-31T16:05:34.000Z</Time>
            <Position>
              <LatitudeDegrees>42.19144226051867008209228515625</LatitudeDegrees>
              <LongitudeDegrees>-2.28874714113771915435791015625</LongitudeDegrees>
            </Position>
            <AltitudeMeters>882.4000244140625</AltitudeMeters>
            <DistanceMeters>329348.65938691</DistanceMeters>
          </Trackpoint>
          <Trackpoint>
            <Time>2021-07-31T16:05:38.000Z</Time>
            <Position>
              <LatitudeDegrees>42.19137771986424922943115234375</LatitudeDegrees>
              <LongitudeDegrees>-2.2889705188572406768798828125</LongitudeDegrees>
            </Position>
            <AltitudeMeters>881.5999755859375</AltitudeMeters>
            <DistanceMeters>329368.4313385</DistanceMeters>
          </Trackpoint>
          <Trackpoint>
            <Time>2021-07-31T16:05:39.000Z</Time>
            <Position>
              <LatitudeDegrees>42.19135978259146213531494140625</LatitudeDegrees>
              <LongitudeDegrees>-2.28902592323720455169677734375</LongitudeDegrees>
            </Position>
            <AltitudeMeters>881.20001220703125</AltitudeMeters>
            <DistanceMeters>329373.4182043</DistanceMeters>
          </Trackpoint>
          <Trackpoint>
            <Time>2021-07-31T16:05:41.000Z</Time>
            <Position>
              <LatitudeDegrees>42.19130027107894420623779296875</LatitudeDegrees>
              <LongitudeDegrees>-2.28913656435906887054443359375</LongitudeDegrees>
            </Position>
            <AltitudeMeters>880.20001220703125</AltitudeMeters>
            <DistanceMeters>329384.69319504</DistanceMeters>
          </Trackpoint>
          <Trackpoint>
            <Time>2021-07-31T16:05:43.000Z</Time>
            <Position>
              <LatitudeDegrees>42.19120320864021778106689453125</LatitudeDegrees>
              <LongitudeDegrees>-2.289223484694957733154296875</LongitudeDegrees>
            </Position>
            <AltitudeMeters>879</AltitudeMeters>
            <DistanceMeters>329397.65868396</DistanceMeters>
          </Trackpoint>
          <Trackpoint>
            <Time>2021-07-31T16:05:47.000Z</Time>
            <Position>
              <LatitudeDegrees>42.19099533744156360626220703125</LatitudeDegrees>
              <LongitudeDegrees>-2.289250977337360382080078125</LongitudeDegrees>
            </Position>
            <AltitudeMeters>878.5999755859375</AltitudeMeters>
            <DistanceMeters>329420.90587767</DistanceMeters>
          </Trackpoint>
          <Trackpoint>
            <Time>2021-07-31T16:05:48.000Z</Time>
            <Position>
              <LatitudeDegrees>42.19094856642186641693115234375</LatitudeDegrees>
              <LongitudeDegrees>-2.28924150578677654266357421875</LongitudeDegrees>
            </Position>
            <AltitudeMeters>878.5999755859375</AltitudeMeters>
            <DistanceMeters>329426.17022042</DistanceMeters>
          </Trackpoint>
          <Trackpoint>
            <Time>2021-07-31T16:05:52.000Z</Time>
            <Position>
              <LatitudeDegrees>42.19082057476043701171875</LatitudeDegrees>
              <LongitudeDegrees>-2.2891173698008060455322265625</LongitudeDegrees>
            </Position>
            <AltitudeMeters>877.79998779296875</AltitudeMeters>
            <DistanceMeters>329443.71236809</DistanceMeters>
          </Trackpoint>
          <Trackpoint>
            <Time>2021-07-31T16:05:55.000Z</Time>
            <Position>
              <LatitudeDegrees>42.19084865413606166839599609375</LatitudeDegrees>
              <LongitudeDegrees>-2.288959287106990814208984375</LongitudeDegrees>
            </Position>
            <AltitudeMeters>876.4000244140625</AltitudeMeters>
            <DistanceMeters>329457.11787261</DistanceMeters>
          </Trackpoint>
          <Trackpoint>
            <Time>2021-07-31T16:05:57.000Z</Time>
            <Position>
              <LatitudeDegrees>42.190931551158428192138671875</LatitudeDegrees>
              <LongitudeDegrees>-2.2888697683811187744140625</LongitudeDegrees>
            </Position>
            <AltitudeMeters>874.4000244140625</AltitudeMeters>
            <DistanceMeters>329468.93409205</DistanceMeters>
          </Trackpoint>
          <Trackpoint>
            <Time>2021-07-31T16:05:58.000Z</Time>
            <Position>
              <LatitudeDegrees>42.1909736283123493194580078125</LatitudeDegrees>
              <LongitudeDegrees>-2.2888186387717723846435546875</LongitudeDegrees>
            </Position>
            <AltitudeMeters>873.5999755859375</AltitudeMeters>
            <DistanceMeters>329475.23530195</DistanceMeters>
          </Trackpoint>
          <Trackpoint>
            <Time>2021-07-31T16:05:59.000Z</Time>
            <Position>
              <LatitudeDegrees>42.19100941903889179229736328125</LatitudeDegrees>
              <LongitudeDegrees>-2.2887562774121761322021484375</LongitudeDegrees>
            </Position>
            <AltitudeMeters>872.5999755859375</AltitudeMeters>
            <DistanceMeters>329481.74029528</DistanceMeters>
          </Trackpoint>
          <Trackpoint>
            <Time>2021-07-31T16:06:01.000Z</Time>
            <Position>
              <LatitudeDegrees>42.19106222502887248992919921875</LatitudeDegrees>
              <LongitudeDegrees>-2.28862258605659008026123046875</LongitudeDegrees>
            </Position>
            <AltitudeMeters>871.20001220703125</AltitudeMeters>
            <DistanceMeters>329494.23404977</DistanceMeters>
          </Trackpoint>
          <Trackpoint>
            <Time>2021-07-31T16:06:04.000Z</Time>
            <Position>
              <LatitudeDegrees>42.19111151061952114105224609375</LatitudeDegrees>
              <LongitudeDegrees>-2.28839744813740253448486328125</LongitudeDegrees>
            </Position>
            <AltitudeMeters>870.5999755859375</AltitudeMeters>
            <DistanceMeters>329513.59339616</DistanceMeters>
          </Trackpoint>
          <Trackpoint>
            <Time>2021-07-31T16:06:07.000Z</Time>
            <Position>
              <LatitudeDegrees>42.19116364605724811553955078125</LatitudeDegrees>
              <LongitudeDegrees>-2.28816895745694637298583984375</LongitudeDegrees>
            </Position>
            <AltitudeMeters>869.79998779296875</AltitudeMeters>
            <DistanceMeters>329533.30909221</DistanceMeters>
          </Trackpoint>
          <Trackpoint>
            <Time>2021-07-31T16:06:08.000Z</Time>
            <Position>
              <LatitudeDegrees>42.1911774761974811553955078125</LatitudeDegrees>
              <LongitudeDegrees>-2.28810223750770092010498046875</LongitudeDegrees>
            </Position>
            <AltitudeMeters>869.5999755859375</AltitudeMeters>
            <DistanceMeters>329539.02256106</DistanceMeters>
          </Trackpoint>
          <Trackpoint>
            <Time>2021-07-31T16:06:11.000Z</Time>
            <Position>
              <LatitudeDegrees>42.19119499437510967254638671875</LatitudeDegrees>
              <LongitudeDegrees>-2.28790392167866230010986328125</LongitudeDegrees>
            </Position>
            <AltitudeMeters>868.79998779296875</AltitudeMeters>
            <DistanceMeters>329555.49263989</DistanceMeters>
          </Trackpoint>
          <Trackpoint>
            <Time>2021-07-31T16:06:14.000Z</Time>
            <Position>
              <LatitudeDegrees>42.1911959163844585418701171875</LatitudeDegrees>
              <LongitudeDegrees>-2.287695966660976409912109375</LongitudeDegrees>
            </Position>
            <AltitudeMeters>867.5999755859375</AltitudeMeters>
            <DistanceMeters>329572.64173694</DistanceMeters>
          </Trackpoint>
          <Trackpoint>
            <Time>2021-07-31T16:06:16.000Z</Time>
            <Position>
              <LatitudeDegrees>42.19119432382285594940185546875</LatitudeDegrees>
              <LongitudeDegrees>-2.2875566594302654266357421875</LongitudeDegrees>
            </Position>
            <AltitudeMeters>866.4000244140625</AltitudeMeters>
            <DistanceMeters>329584.13093436</DistanceMeters>
          </Trackpoint>
          <Trackpoint>
            <Time>2021-07-31T16:06:20.000Z</Time>
            <Position>
              <LatitudeDegrees>42.19117571599781513214111328125</LatitudeDegrees>
              <LongitudeDegrees>-2.2873028554022312164306640625</LongitudeDegrees>
            </Position>
            <AltitudeMeters>865</AltitudeMeters>
            <DistanceMeters>329605.16298906</DistanceMeters>
          </Trackpoint>
          <Trackpoint>
            <Time>2021-07-31T16:06:22.000Z</Time>
            <Position>
              <LatitudeDegrees>42.1911536715924739837646484375</LatitudeDegrees>
              <LongitudeDegrees>-2.2871834971010684967041015625</LongitudeDegrees>
            </Position>
            <AltitudeMeters>863.79998779296875</AltitudeMeters>
            <DistanceMeters>329615.30728554</DistanceMeters>
          </Trackpoint>
          <Trackpoint>
            <Time>2021-07-31T16:06:24.000Z</Time>
            <Position>
              <LatitudeDegrees>42.191121317446231842041015625</LatitudeDegrees>
              <LongitudeDegrees>-2.28706086985766887664794921875</LongitudeDegrees>
            </Position>
            <AltitudeMeters>862.20001220703125</AltitudeMeters>
            <DistanceMeters>329626.04109872</DistanceMeters>
          </Trackpoint>
          <Trackpoint>
            <Time>2021-07-31T16:06:28.000Z</Time>
            <Position>
              <LatitudeDegrees>42.19105334021151065826416015625</LatitudeDegrees>
              <LongitudeDegrees>-2.2868321277201175689697265625</LongitudeDegrees>
            </Position>
            <AltitudeMeters>861</AltitudeMeters>
            <DistanceMeters>329646.36504486</DistanceMeters>
          </Trackpoint>
          <Trackpoint>
            <Time>2021-07-31T16:06:31.000Z</Time>
            <Position>
              <LatitudeDegrees>42.19098611734807491302490234375</LatitudeDegrees>
              <LongitudeDegrees>-2.286645211279392242431640625</LongitudeDegrees>
            </Position>
            <AltitudeMeters>860</AltitudeMeters>
            <DistanceMeters>329663.49886478</DistanceMeters>
          </Trackpoint>
          <Trackpoint>
            <Time>2021-07-31T16:06:33.000Z</Time>
            <Position>
              <LatitudeDegrees>42.1909360773861408233642578125</LatitudeDegrees>
              <LongitudeDegrees>-2.28651755489408969879150390625</LongitudeDegrees>
            </Position>
            <AltitudeMeters>858.79998779296875</AltitudeMeters>
            <DistanceMeters>329675.40795294</DistanceMeters>
          </Trackpoint>
          <Trackpoint>
            <Time>2021-07-31T16:06:35.000Z</Time>
            <Position>
              <LatitudeDegrees>42.19089156948029994964599609375</LatitudeDegrees>
              <LongitudeDegrees>-2.2864090092480182647705078125</LongitudeDegrees>
            </Position>
            <AltitudeMeters>857.5999755859375</AltitudeMeters>
            <DistanceMeters>329685.63823084</DistanceMeters>
          </Trackpoint>
          <Trackpoint>
            <Time>2021-07-31T16:06:36.000Z</Time>
            <Position>
              <LatitudeDegrees>42.190876565873622894287109375</LatitudeDegrees>
              <LongitudeDegrees>-2.28635720908641815185546875</LongitudeDegrees>
            </Position>
            <AltitudeMeters>857.4000244140625</AltitudeMeters>
            <DistanceMeters>329690.22517733</DistanceMeters>
          </Trackpoint>
          <Trackpoint>
            <Time>2021-07-31T16:06:38.000Z</Time>
            <Position>
              <LatitudeDegrees>42.19086156226694583892822265625</LatitudeDegrees>
              <LongitudeDegrees>-2.28624648414552211761474609375</LongitudeDegrees>
            </Position>
            <AltitudeMeters>856.20001220703125</AltitudeMeters>
            <DistanceMeters>329699.5076872</DistanceMeters>
          </Trackpoint>
          <Trackpoint>
            <Time>2021-07-31T16:06:40.000Z</Time>
            <Position>
              <LatitudeDegrees>42.19087631441652774810791015625</LatitudeDegrees>
              <LongitudeDegrees>-2.28613818995654582977294921875</LongitudeDegrees>
            </Position>
            <AltitudeMeters>855</AltitudeMeters>
            <DistanceMeters>329708.58808521</DistanceMeters>
          </Trackpoint>
          <Trackpoint>
            <Time>2021-07-31T16:06:42.000Z</Time>
            <Position>
              <LatitudeDegrees>42.19093113206326961517333984375</LatitudeDegrees>
              <LongitudeDegrees>-2.28602754883468151092529296875</LongitudeDegrees>
            </Position>
            <AltitudeMeters>853.79998779296875</AltitudeMeters>
            <DistanceMeters>329719.56397924</DistanceMeters>
          </Trackpoint>
          <Trackpoint>
            <Time>2021-07-31T16:06:43.000Z</Time>
            <Position>
              <LatitudeDegrees>42.19097421504557132720947265625</LatitudeDegrees>
              <LongitudeDegrees>-2.28597172535955905914306640625</LongitudeDegrees>
            </Position>
            <AltitudeMeters>853</AltitudeMeters>
            <DistanceMeters>329726.21177543</DistanceMeters>
          </Trackpoint>
          <Trackpoint>
            <Time>2021-07-31T16:06:44.000Z</Time>
            <Position>
              <LatitudeDegrees>42.191023416817188262939453125</LatitudeDegrees>
              <LongitudeDegrees>-2.28591590188443660736083984375</LongitudeDegrees>
            </Position>
            <AltitudeMeters>852</AltitudeMeters>
            <DistanceMeters>329733.36596813</DistanceMeters>
          </Trackpoint>
          <Trackpoint>
            <Time>2021-07-31T16:06:46.000Z</Time>
            <Position>
              <LatitudeDegrees>42.19113313592970371246337890625</LatitudeDegrees>
              <LongitudeDegrees>-2.2858021594583988189697265625</LongitudeDegrees>
            </Position>
            <AltitudeMeters>850.4000244140625</AltitudeMeters>
            <DistanceMeters>329748.76440141</DistanceMeters>
          </Trackpoint>
          <Trackpoint>
            <Time>2021-07-31T16:06:48.000Z</Time>
            <Position>
              <LatitudeDegrees>42.1912443637847900390625</LatitudeDegrees>
              <LongitudeDegrees>-2.2856821306049823760986328125</LongitudeDegrees>
            </Position>
            <AltitudeMeters>848.5999755859375</AltitudeMeters>
            <DistanceMeters>329764.614789</DistanceMeters>
          </Trackpoint>
          <Trackpoint>
            <Time>2021-07-31T16:06:50.000Z</Time>
            <Position>
              <LatitudeDegrees>42.19133849255740642547607421875</LatitudeDegrees>
              <LongitudeDegrees>-2.2855641134083271026611328125</LongitudeDegrees>
            </Position>
            <AltitudeMeters>846.79998779296875</AltitudeMeters>
            <DistanceMeters>329778.91433623</DistanceMeters>
          </Trackpoint>
          <Trackpoint>
            <Time>2021-07-31T16:06:52.000Z</Time>
            <Position>
              <LatitudeDegrees>42.19142314977943897247314453125</LatitudeDegrees>
              <LongitudeDegrees>-2.28545196354389190673828125</LongitudeDegrees>
            </Position>
            <AltitudeMeters>845.79998779296875</AltitudeMeters>
            <DistanceMeters>329792.11723726</DistanceMeters>
          </Trackpoint>
          <Trackpoint>
            <Time>2021-07-31T16:06:55.000Z</Time>
            <Position>
              <LatitudeDegrees>42.1915305219590663909912109375</LatitudeDegrees>
              <LongitudeDegrees>-2.28529614396393299102783203125</LongitudeDegrees>
            </Position>
            <AltitudeMeters>844.5999755859375</AltitudeMeters>
            <DistanceMeters>329809.66504643</DistanceMeters>
          </Trackpoint>
          <Trackpoint>
            <Time>2021-07-31T16:06:58.000Z</Time>
            <Position>
              <LatitudeDegrees>42.1916220523416996002197265625</LatitudeDegrees>
              <LongitudeDegrees>-2.28515088558197021484375</LongitudeDegrees>
            </Position>
            <AltitudeMeters>843</AltitudeMeters>
            <DistanceMeters>329825.38988612</DistanceMeters>
          </Trackpoint>
          <Trackpoint>
            <Time>2021-07-31T16:06:59.000Z</Time>
            <Position>
              <LatitudeDegrees>42.1916589327156543731689453125</LatitudeDegrees>
              <LongitudeDegrees>-2.28510084562003612518310546875</LongitudeDegrees>
            </Position>
            <AltitudeMeters>842</AltitudeMeters>
            <DistanceMeters>329831.21061175</DistanceMeters>
          </Trackpoint>
          <Trackpoint>
            <Time>2021-07-31T16:07:01.000Z</Time>
            <Position>
              <LatitudeDegrees>42.19173143617808818817138671875</LatitudeDegrees>
              <LongitudeDegrees>-2.28501744568347930908203125</LongitudeDegrees>
            </Position>
            <AltitudeMeters>840.5999755859375</AltitudeMeters>
            <DistanceMeters>329841.81365149</DistanceMeters>
          </Trackpoint>
          <Trackpoint>
            <Time>2021-07-31T16:07:03.000Z</Time>
            <Position>
              <LatitudeDegrees>42.1918101422488689422607421875</LatitudeDegrees>
              <LongitudeDegrees>-2.2849403321743011474609375</LongitudeDegrees>
            </Position>
            <AltitudeMeters>838.79998779296875</AltitudeMeters>
            <DistanceMeters>329852.63835804</DistanceMeters>
          </Trackpoint>
          <Trackpoint>
            <Time>2021-07-31T16:07:04.000Z</Time>
            <Position>
              <LatitudeDegrees>42.19185414724051952362060546875</LatitudeDegrees>
              <LongitudeDegrees>-2.28490613400936126708984375</LongitudeDegrees>
            </Position>
            <AltitudeMeters>838</AltitudeMeters>
            <DistanceMeters>329858.28985168</DistanceMeters>
          </Trackpoint>
          <Trackpoint>
            <Time>2021-07-31T16:07:05.000Z</Time>
            <Position>
              <LatitudeDegrees>42.19190075062215328216552734375</LatitudeDegrees>
              <LongitudeDegrees>-2.28487805463373661041259765625</LongitudeDegrees>
            </Position>
            <AltitudeMeters>837.5999755859375</AltitudeMeters>
            <DistanceMeters>329863.97082811</DistanceMeters>
          </Trackpoint>
          <Trackpoint>
            <Time>2021-07-31T16:07:07.000Z</Time>
            <Position>
              <LatitudeDegrees>42.191989682614803314208984375</LatitudeDegrees>
              <LongitudeDegrees>-2.28483413346111774444580078125</LongitudeDegrees>
            </Position>
            <AltitudeMeters>836.79998779296875</AltitudeMeters>
            <DistanceMeters>329874.51065735</DistanceMeters>
          </Trackpoint>
          <Trackpoint>
            <Time>2021-07-31T16:07:08.000Z</Time>
            <Position>
              <LatitudeDegrees>42.1920310892164707183837890625</LatitudeDegrees>
              <LongitudeDegrees>-2.284820973873138427734375</LongitudeDegrees>
            </Position>
            <AltitudeMeters>836.4000244140625</AltitudeMeters>
            <DistanceMeters>329879.24581098</DistanceMeters>
          </Trackpoint>
          <Trackpoint>
            <Time>2021-07-31T16:07:13.000Z</Time>
            <Position>
              <LatitudeDegrees>42.19208263792097568511962890625</LatitudeDegrees>
              <LongitudeDegrees>-2.28467269800603389739990234375</LongitudeDegrees>
            </Position>
            <AltitudeMeters>835.20001220703125</AltitudeMeters>
            <DistanceMeters>329892.75231327</DistanceMeters>
          </Trackpoint>
          <Trackpoint>
            <Time>2021-07-31T16:07:16.000Z</Time>
            <Position>
              <LatitudeDegrees>42.1919784508645534515380859375</LatitudeDegrees>
              <LongitudeDegrees>-2.28463548235595226287841796875</LongitudeDegrees>
            </Position>
            <AltitudeMeters>834.20001220703125</AltitudeMeters>
            <DistanceMeters>329904.74753057</DistanceMeters>
          </Trackpoint>
          <Trackpoint>
            <Time>2021-07-31T16:07:17.000Z</Time>
            <Position>
              <LatitudeDegrees>42.1919331885874271392822265625</LatitudeDegrees>
              <LongitudeDegrees>-2.2846320457756519317626953125</LongitudeDegrees>
            </Position>
            <AltitudeMeters>833.5999755859375</AltitudeMeters>
            <DistanceMeters>329909.79379806</DistanceMeters>
          </Trackpoint>
          <Trackpoint>
            <Time>2021-07-31T16:07:19.000Z</Time>
            <Position>
              <LatitudeDegrees>42.1918295882642269134521484375</LatitudeDegrees>
              <LongitudeDegrees>-2.28463590145111083984375</LongitudeDegrees>
            </Position>
            <AltitudeMeters>832.5999755859375</AltitudeMeters>
            <DistanceMeters>329921.32966546</DistanceMeters>
          </Trackpoint>
          <Trackpoint>
            <Time>2021-07-31T16:07:21.000Z</Time>
            <Position>
              <LatitudeDegrees>42.19170930795371532440185546875</LatitudeDegrees>
              <LongitudeDegrees>-2.284657694399356842041015625</LongitudeDegrees>
            </Position>
            <AltitudeMeters>830.79998779296875</AltitudeMeters>
            <DistanceMeters>329934.83750483</DistanceMeters>
          </Trackpoint>
          <Trackpoint>
            <Time>2021-07-31T16:07:23.000Z</Time>
            <Position>
              <LatitudeDegrees>42.19157385639846324920654296875</LatitudeDegrees>
              <LongitudeDegrees>-2.28469549678266048431396484375</LongitudeDegrees>
            </Position>
            <AltitudeMeters>829</AltitudeMeters>
            <DistanceMeters>329950.23300569</DistanceMeters>
          </Trackpoint>
          <Trackpoint>
            <Time>2021-07-31T16:07:24.000Z</Time>
            <Position>
              <LatitudeDegrees>42.19150076620280742645263671875</LatitudeDegrees>
              <LongitudeDegrees>-2.28471728973090648651123046875</LongitudeDegrees>
            </Position>
            <AltitudeMeters>828</AltitudeMeters>
            <DistanceMeters>329958.56398207</DistanceMeters>
          </Trackpoint>
          <Trackpoint>
            <Time>2021-07-31T16:07:26.000Z</Time>
            <Position>
              <LatitudeDegrees>42.1913565136492252349853515625</LatitudeDegrees>
              <LongitudeDegrees>-2.2847668267786502838134765625</LongitudeDegrees>
            </Position>
            <AltitudeMeters>826.5999755859375</AltitudeMeters>
            <DistanceMeters>329975.13109327</DistanceMeters>
          </Trackpoint>
          <Trackpoint>
            <Time>2021-07-31T16:07:28.000Z</Time>
            <Position>
              <LatitudeDegrees>42.19122416339814662933349609375</LatitudeDegrees>
              <LongitudeDegrees>-2.28482625447213649749755859375</LongitudeDegrees>
            </Position>
            <AltitudeMeters>825</AltitudeMeters>
            <DistanceMeters>329990.6556783</DistanceMeters>
          </Trackpoint>
          <Trackpoint>
            <Time>2021-07-31T16:07:32.000Z</Time>
            <Position>
              <LatitudeDegrees>42.19098276458680629730224609375</LatitudeDegrees>
              <LongitudeDegrees>-2.2849887795746326446533203125</LongitudeDegrees>
            </Position>
            <AltitudeMeters>823.79998779296875</AltitudeMeters>
            <DistanceMeters>330020.68096234</DistanceMeters>
          </Trackpoint>
          <Trackpoint>
            <Time>2021-07-31T16:07:35.000Z</Time>
            <Position>
              <LatitudeDegrees>42.1908063255250453948974609375</LatitudeDegrees>
              <LongitudeDegrees>-2.2850367240607738494873046875</LongitudeDegrees>
            </Position>
            <AltitudeMeters>822.79998779296875</AltitudeMeters>
            <DistanceMeters>330040.71312566</DistanceMeters>
          </Trackpoint>
          <Trackpoint>
            <Time>2021-07-31T16:07:38.000Z</Time>
            <Position>
              <LatitudeDegrees>42.19063307158648967742919921875</LatitudeDegrees>
              <LongitudeDegrees>-2.28501082397997379302978515625</LongitudeDegrees>
            </Position>
            <AltitudeMeters>822.4000244140625</AltitudeMeters>
            <DistanceMeters>330060.11440671</DistanceMeters>
          </Trackpoint>
          <Trackpoint>
            <Time>2021-07-31T16:07:40.000Z</Time>
            <Position>
              <LatitudeDegrees>42.19052745960652828216552734375</LatitudeDegrees>
              <LongitudeDegrees>-2.28497679345309734344482421875</LongitudeDegrees>
            </Position>
            <AltitudeMeters>821.5999755859375</AltitudeMeters>
            <DistanceMeters>330072.19962315</DistanceMeters>
          </Trackpoint>
          <Trackpoint>
            <Time>2021-07-31T16:07:42.000Z</Time>
            <Position>
              <LatitudeDegrees>42.19041916541755199432373046875</LatitudeDegrees>
              <LongitudeDegrees>-2.28492918424308300018310546875</LongitudeDegrees>
            </Position>
            <AltitudeMeters>820.79998779296875</AltitudeMeters>
            <DistanceMeters>330084.87634356</DistanceMeters>
          </Trackpoint>
          <Trackpoint>
            <Time>2021-07-31T16:07:46.000Z</Time>
            <Position>
              <LatitudeDegrees>42.19019687734544277191162109375</LatitudeDegrees>
              <LongitudeDegrees>-2.2848375700414180755615234375</LongitudeDegrees>
            </Position>
            <AltitudeMeters>819.5999755859375</AltitudeMeters>
            <DistanceMeters>330110.7452613</DistanceMeters>
          </Trackpoint>
          <Trackpoint>
            <Time>2021-07-31T16:07:47.000Z</Time>
            <Position>
              <LatitudeDegrees>42.19014323316514492034912109375</LatitudeDegrees>
              <LongitudeDegrees>-2.28483329527080059051513671875</LongitudeDegrees>
            </Position>
            <AltitudeMeters>819.4000244140625</AltitudeMeters>
            <DistanceMeters>330116.72666272</DistanceMeters>
          </Trackpoint>
          <Trackpoint>
            <Time>2021-07-31T16:07:51.000Z</Time>
            <Position>
              <LatitudeDegrees>42.18995329923927783966064453125</LatitudeDegrees>
              <LongitudeDegrees>-2.28491996414959430694580078125</LongitudeDegrees>
            </Position>
            <AltitudeMeters>818.4000244140625</AltitudeMeters>
            <DistanceMeters>330139.04236696</DistanceMeters>
          </Trackpoint>
          <Trackpoint>
            <Time>2021-07-31T16:07:54.000Z</Time>
            <Position>
              <LatitudeDegrees>42.18983796425163745880126953125</LatitudeDegrees>
              <LongitudeDegrees>-2.28506966494023799896240234375</LongitudeDegrees>
            </Position>
            <AltitudeMeters>817.5999755859375</AltitudeMeters>
            <DistanceMeters>330156.85220876</DistanceMeters>
          </Trackpoint>
          <Trackpoint>
            <Time>2021-07-31T16:07:56.000Z</Time>
            <Position>
              <LatitudeDegrees>42.18976713716983795166015625</LatitudeDegrees>
              <LongitudeDegrees>-2.285184077918529510498046875</LongitudeDegrees>
            </Position>
            <AltitudeMeters>817.20001220703125</AltitudeMeters>
            <DistanceMeters>330169.14706458</DistanceMeters>
          </Trackpoint>
          <Trackpoint>
            <Time>2021-07-31T16:07:59.000Z</Time>
            <Position>
              <LatitudeDegrees>42.18966026790440082550048828125</LatitudeDegrees>
              <LongitudeDegrees>-2.28535850532352924346923828125</LongitudeDegrees>
            </Position>
            <AltitudeMeters>816.20001220703125</AltitudeMeters>
            <DistanceMeters>330187.81249813</DistanceMeters>
          </Trackpoint>
          <Trackpoint>
            <Time>2021-07-31T16:08:01.000Z</Time>
            <Position>
              <LatitudeDegrees>42.18960343860089778900146484375</LatitudeDegrees>
              <LongitudeDegrees>-2.28549160994589328765869140625</LongitudeDegrees>
            </Position>
            <AltitudeMeters>815.5999755859375</AltitudeMeters>
            <DistanceMeters>330200.48102403</DistanceMeters>
          </Trackpoint>
          <Trackpoint>
            <Time>2021-07-31T16:08:03.000Z</Time>
            <Position>
              <LatitudeDegrees>42.18956999480724334716796875</LatitudeDegrees>
              <LongitudeDegrees>-2.28563929907977581024169921875</LongitudeDegrees>
            </Position>
            <AltitudeMeters>814.5999755859375</AltitudeMeters>
            <DistanceMeters>330213.21637652</DistanceMeters>
          </Trackpoint>
          <Trackpoint>
            <Time>2021-07-31T16:08:06.000Z</Time>
            <Position>
              <LatitudeDegrees>42.18958701007068157196044921875</LatitudeDegrees>
              <LongitudeDegrees>-2.2858645208179950714111328125</LongitudeDegrees>
            </Position>
            <AltitudeMeters>813.5999755859375</AltitudeMeters>
            <DistanceMeters>330231.88592179</DistanceMeters>
          </Trackpoint>
          <Trackpoint>
            <Time>2021-07-31T16:08:08.000Z</Time>
            <Position>
              <LatitudeDegrees>42.18962959013879299163818359375</LatitudeDegrees>
              <LongitudeDegrees>-2.2860016487538814544677734375</LongitudeDegrees>
            </Position>
            <AltitudeMeters>812.79998779296875</AltitudeMeters>
            <DistanceMeters>330244.14768239</DistanceMeters>
          </Trackpoint>
          <Trackpoint>
            <Time>2021-07-31T16:08:14.000Z</Time>
            <Position>
              <LatitudeDegrees>42.18973620794713497161865234375</LatitudeDegrees>
              <LongitudeDegrees>-2.28638830594718456268310546875</LongitudeDegrees>
            </Position>
            <AltitudeMeters>813.79998779296875</AltitudeMeters>
            <DistanceMeters>330278.17069665</DistanceMeters>
          </Trackpoint>
          <Trackpoint>
            <Time>2021-07-31T16:08:24.000Z</Time>
            <Position>
              <LatitudeDegrees>42.1893773786723613739013671875</LatitudeDegrees>
              <LongitudeDegrees>-2.28677605278789997100830078125</LongitudeDegrees>
            </Position>
            <AltitudeMeters>813.4000244140625</AltitudeMeters>
            <DistanceMeters>330329.33276549</DistanceMeters>
          </Trackpoint>
          <Trackpoint>
            <Time>2021-07-31T16:08:26.000Z</Time>
            <Position>
              <LatitudeDegrees>42.18928660266101360321044921875</LatitudeDegrees>
              <LongitudeDegrees>-2.286793403327465057373046875</LongitudeDegrees>
            </Position>
            <AltitudeMeters>813</AltitudeMeters>
            <DistanceMeters>330339.53697107</DistanceMeters>
          </Trackpoint>
          <Trackpoint>
            <Time>2021-07-31T16:08:28.000Z</Time>
            <Position>
              <LatitudeDegrees>42.189200185239315032958984375</LatitudeDegrees>
              <LongitudeDegrees>-2.286864481866359710693359375</LongitudeDegrees>
            </Position>
            <AltitudeMeters>812.4000244140625</AltitudeMeters>
            <DistanceMeters>330350.80074371</DistanceMeters>
          </Trackpoint>
          <Trackpoint>
            <Time>2021-07-31T16:08:30.000Z</Time>
            <Position>
              <LatitudeDegrees>42.1891192160546779632568359375</LatitudeDegrees>
              <LongitudeDegrees>-2.28697755374014377593994140625</LongitudeDegrees>
            </Position>
            <AltitudeMeters>811.20001220703125</AltitudeMeters>
            <DistanceMeters>330363.76832188</DistanceMeters>
          </Trackpoint>
          <Trackpoint>
            <Time>2021-07-31T16:08:32.000Z</Time>
            <Position>
              <LatitudeDegrees>42.1890543401241302490234375</LatitudeDegrees>
              <LongitudeDegrees>-2.287134043872356414794921875</LongitudeDegrees>
            </Position>
            <AltitudeMeters>809.20001220703125</AltitudeMeters>
            <DistanceMeters>330378.55650606</DistanceMeters>
          </Trackpoint>
          <Trackpoint>
            <Time>2021-07-31T16:08:33.000Z</Time>
            <Position>
              <LatitudeDegrees>42.18902709893882274627685546875</LatitudeDegrees>
              <LongitudeDegrees>-2.2872254066169261932373046875</LongitudeDegrees>
            </Position>
            <AltitudeMeters>808.4000244140625</AltitudeMeters>
            <DistanceMeters>330386.6778162</DistanceMeters>
          </Trackpoint>
          <Trackpoint>
            <Time>2021-07-31T16:08:34.000Z</Time>
            <Position>
              <LatitudeDegrees>42.18899759463965892791748046875</LatitudeDegrees>
              <LongitudeDegrees>-2.28732070885598659515380859375</LongitudeDegrees>
            </Position>
            <AltitudeMeters>807.5999755859375</AltitudeMeters>
            <DistanceMeters>330395.19530609</DistanceMeters>
          </Trackpoint>
          <Trackpoint>
            <Time>2021-07-31T16:08:36.000Z</Time>
            <Position>
              <LatitudeDegrees>42.188931293785572052001953125</LatitudeDegrees>
              <LongitudeDegrees>-2.28751935996115207672119140625</LongitudeDegrees>
            </Position>
            <AltitudeMeters>805.79998779296875</AltitudeMeters>
            <DistanceMeters>330413.16264404</DistanceMeters>
          </Trackpoint>
          <Trackpoint>
            <Time>2021-07-31T16:08:37.000Z</Time>
            <Position>
              <LatitudeDegrees>42.1889002807438373565673828125</LatitudeDegrees>
              <LongitudeDegrees>-2.2876186855137348175048828125</LongitudeDegrees>
            </Position>
            <AltitudeMeters>804.5999755859375</AltitudeMeters>
            <DistanceMeters>330422.05107128</DistanceMeters>
          </Trackpoint>
          <Trackpoint>
            <Time>2021-07-31T16:08:39.000Z</Time>
            <Position>
              <LatitudeDegrees>42.1888479776680469512939453125</LatitudeDegrees>
              <LongitudeDegrees>-2.28780702687799930572509765625</LongitudeDegrees>
            </Position>
            <AltitudeMeters>803.4000244140625</AltitudeMeters>
            <DistanceMeters>330438.63833745</DistanceMeters>
          </Trackpoint>
          <Trackpoint>
            <Time>2021-07-31T16:08:42.000Z</Time>
            <Position>
              <LatitudeDegrees>42.1887916512787342071533203125</LatitudeDegrees>
              <LongitudeDegrees>-2.2880535386502742767333984375</LongitudeDegrees>
            </Position>
            <AltitudeMeters>802.4000244140625</AltitudeMeters>
            <DistanceMeters>330459.91243982</DistanceMeters>
          </Trackpoint>
          <Trackpoint>
            <Time>2021-07-31T16:08:43.000Z</Time>
            <Position>
              <LatitudeDegrees>42.1887822635471820831298828125</LatitudeDegrees>
              <LongitudeDegrees>-2.2881267964839935302734375</LongitudeDegrees>
            </Position>
            <AltitudeMeters>802.20001220703125</AltitudeMeters>
            <DistanceMeters>330466.04442468</DistanceMeters>
          </Trackpoint>
          <Trackpoint>
            <Time>2021-07-31T16:08:47.000Z</Time>
            <Position>
              <LatitudeDegrees>42.188802547752857208251953125</LatitudeDegrees>
              <LongitudeDegrees>-2.28841655887663364410400390625</LongitudeDegrees>
            </Position>
            <AltitudeMeters>800.79998779296875</AltitudeMeters>
            <DistanceMeters>330490.04690116</DistanceMeters>
          </Trackpoint>
          <Trackpoint>
            <Time>2021-07-31T16:08:49.000Z</Time>
            <Position>
              <LatitudeDegrees>42.1888285316526889801025390625</LatitudeDegrees>
              <LongitudeDegrees>-2.28857045061886310577392578125</LongitudeDegrees>
            </Position>
            <AltitudeMeters>799.20001220703125</AltitudeMeters>
            <DistanceMeters>330503.06347998</DistanceMeters>
          </Trackpoint>
          <Trackpoint>
            <Time>2021-07-31T16:08:52.000Z</Time>
            <Position>
              <LatitudeDegrees>42.18887798488140106201171875</LatitudeDegrees>
              <LongitudeDegrees>-2.2888176329433917999267578125</LongitudeDegrees>
            </Position>
            <AltitudeMeters>798</AltitudeMeters>
            <DistanceMeters>330524.17802246</DistanceMeters>
          </Trackpoint>
          <Trackpoint>
            <Time>2021-07-31T16:08:56.000Z</Time>
            <Position>
              <LatitudeDegrees>42.18895233236253261566162109375</LatitudeDegrees>
              <LongitudeDegrees>-2.289128266274929046630859375</LongitudeDegrees>
            </Position>
            <AltitudeMeters>796.79998779296875</AltitudeMeters>
            <DistanceMeters>330551.09827051</DistanceMeters>
          </Trackpoint>
          <Trackpoint>
            <Time>2021-07-31T16:08:59.000Z</Time>
            <Position>
              <LatitudeDegrees>42.18902039341628551483154296875</LatitudeDegrees>
              <LongitudeDegrees>-2.28933311998844146728515625</LongitudeDegrees>
            </Position>
            <AltitudeMeters>795.79998779296875</AltitudeMeters>
            <DistanceMeters>330569.61263525</DistanceMeters>
          </Trackpoint>
          <Trackpoint>
            <Time>2021-07-31T16:09:02.000Z</Time>
            <Position>
              <LatitudeDegrees>42.18908292241394519805908203125</LatitudeDegrees>
              <LongitudeDegrees>-2.2894999198615550994873046875</LongitudeDegrees>
            </Position>
            <AltitudeMeters>794.5999755859375</AltitudeMeters>
            <DistanceMeters>330585.02865133</DistanceMeters>
          </Trackpoint>
          <Trackpoint>
            <Time>2021-07-31T16:09:06.000Z</Time>
            <Position>
              <LatitudeDegrees>42.18917411752045154571533203125</LatitudeDegrees>
              <LongitudeDegrees>-2.28974827565252780914306640625</LongitudeDegrees>
            </Position>
            <AltitudeMeters>793.4000244140625</AltitudeMeters>
            <DistanceMeters>330607.88726772</DistanceMeters>
          </Trackpoint>
          <Trackpoint>
            <Time>2021-07-31T16:09:11.000Z</Time>
            <Position>
              <LatitudeDegrees>42.1892382390797138214111328125</LatitudeDegrees>
              <LongitudeDegrees>-2.2900122217833995819091796875</LongitudeDegrees>
            </Position>
            <AltitudeMeters>792</AltitudeMeters>
            <DistanceMeters>330630.79422545</DistanceMeters>
          </Trackpoint>
          <Trackpoint>
            <Time>2021-07-31T16:09:12.000Z</Time>
            <Position>
              <LatitudeDegrees>42.18924921937286853790283203125</LatitudeDegrees>
              <LongitudeDegrees>-2.29006879962980747222900390625</LongitudeDegrees>
            </Position>
            <AltitudeMeters>791.5999755859375</AltitudeMeters>
            <DistanceMeters>330635.61724078</DistanceMeters>
          </Trackpoint>
          <Trackpoint>
            <Time>2021-07-31T16:09:13.000Z</Time>
            <Position>
              <LatitudeDegrees>42.18925693072378635406494140625</LatitudeDegrees>
              <LongitudeDegrees>-2.29012831114232540130615234375</LongitudeDegrees>
            </Position>
            <AltitudeMeters>791</AltitudeMeters>
            <DistanceMeters>330640.59867131</DistanceMeters>
          </Trackpoint>
          <Trackpoint>
            <Time>2021-07-31T16:09:17.000Z</Time>
            <Position>
              <LatitudeDegrees>42.18927101232111454010009765625</LatitudeDegrees>
              <LongitudeDegrees>-2.29035411961376667022705078125</LongitudeDegrees>
            </Position>
            <AltitudeMeters>790.20001220703125</AltitudeMeters>
            <DistanceMeters>330659.28634576</DistanceMeters>
          </Trackpoint>
          <Trackpoint>
            <Time>2021-07-31T16:09:18.000Z</Time>
            <Position>
              <LatitudeDegrees>42.189269922673702239990234375</LatitudeDegrees>
              <LongitudeDegrees>-2.29040860198438167572021484375</LongitudeDegrees>
            </Position>
            <AltitudeMeters>789.5999755859375</AltitudeMeters>
            <DistanceMeters>330663.78081803</DistanceMeters>
          </Trackpoint>
          <Trackpoint>
            <Time>2021-07-31T16:09:22.000Z</Time>
            <Position>
              <LatitudeDegrees>42.18925877474248409271240234375</LatitudeDegrees>
              <LongitudeDegrees>-2.29061664082109928131103515625</LongitudeDegrees>
            </Position>
            <AltitudeMeters>788.5999755859375</AltitudeMeters>
            <DistanceMeters>330680.9819658</DistanceMeters>
          </Trackpoint>
          <Trackpoint>
            <Time>2021-07-31T16:09:26.000Z</Time>
            <Position>
              <LatitudeDegrees>42.1892405860126018524169921875</LatitudeDegrees>
              <LongitudeDegrees>-2.290672548115253448486328125</LongitudeDegrees>
            </Position>
            <AltitudeMeters>788.79998779296875</AltitudeMeters>
            <DistanceMeters>330686.01658839</DistanceMeters>
          </Trackpoint>
          <Trackpoint>
            <Time>2021-07-31T16:25:46.000Z</Time>
            <Position>
              <LatitudeDegrees>42.18921124935150146484375</LatitudeDegrees>
              <LongitudeDegrees>-2.2907434590160846710205078125</LongitudeDegrees>
            </Position>
            <AltitudeMeters>787.5999755859375</AltitudeMeters>
            <DistanceMeters>330692.7144552</DistanceMeters>
          </Trackpoint>
          <Trackpoint>
            <Time>2021-07-31T16:25:51.000Z</Time>
            <Position>
              <LatitudeDegrees>42.18921015970408916473388671875</LatitudeDegrees>
              <LongitudeDegrees>-2.2906358353793621063232421875</LongitudeDegrees>
            </Position>
            <AltitudeMeters>787.79998779296875</AltitudeMeters>
            <DistanceMeters>330701.59068283</DistanceMeters>
          </Trackpoint>
          <Trackpoint>
            <Time>2021-07-31T16:26:14.000Z</Time>
            <Position>
              <LatitudeDegrees>42.1891064755618572235107421875</LatitudeDegrees>
              <LongitudeDegrees>-2.2899230383336544036865234375</LongitudeDegrees>
            </Position>
            <AltitudeMeters>788.20001220703125</AltitudeMeters>
            <DistanceMeters>330761.49505929</DistanceMeters>
          </Trackpoint>
          <Trackpoint>
            <Time>2021-07-31T16:26:24.000Z</Time>
            <Position>
              <LatitudeDegrees>42.1889938227832317352294921875</LatitudeDegrees>
              <LongitudeDegrees>-2.28957594372332096099853515625</LongitudeDegrees>
            </Position>
            <AltitudeMeters>788.79998779296875</AltitudeMeters>
            <DistanceMeters>330792.74483668</DistanceMeters>
          </Trackpoint>
          <Trackpoint>
            <Time>2021-07-31T16:26:43.000Z</Time>
            <Position>
              <LatitudeDegrees>42.188738845288753509521484375</LatitudeDegrees>
              <LongitudeDegrees>-2.2889162041246891021728515625</LongitudeDegrees>
            </Position>
            <AltitudeMeters>789.4000244140625</AltitudeMeters>
            <DistanceMeters>330854.10877435</DistanceMeters>
          </Trackpoint>
          <Trackpoint>
            <Time>2021-07-31T16:26:58.000Z</Time>
            <Position>
              <LatitudeDegrees>42.18861353583633899688720703125</LatitudeDegrees>
              <LongitudeDegrees>-2.28821421973407268524169921875</LongitudeDegrees>
            </Position>
            <AltitudeMeters>788.5999755859375</AltitudeMeters>
            <DistanceMeters>330913.65626236</DistanceMeters>
          </Trackpoint>
          <Trackpoint>
            <Time>2021-07-31T16:27:04.000Z</Time>
            <Position>
              <LatitudeDegrees>42.188624180853366851806640625</LatitudeDegrees>
              <LongitudeDegrees>-2.28780987672507762908935546875</LongitudeDegrees>
            </Position>
            <AltitudeMeters>787.5999755859375</AltitudeMeters>
            <DistanceMeters>330947.02254916</DistanceMeters>
          </Trackpoint>
          <Trackpoint>
            <Time>2021-07-31T16:27:07.000Z</Time>
            <Position>
              <LatitudeDegrees>42.1886592172086238861083984375</LatitudeDegrees>
              <LongitudeDegrees>-2.287571243941783905029296875</LongitudeDegrees>
            </Position>
            <AltitudeMeters>786.20001220703125</AltitudeMeters>
            <DistanceMeters>330967.08444182</DistanceMeters>
          </Trackpoint>
          <Trackpoint>
            <Time>2021-07-31T16:27:11.000Z</Time>
            <Position>
              <LatitudeDegrees>42.18873440288007259368896484375</LatitudeDegrees>
              <LongitudeDegrees>-2.28722096420824527740478515625</LongitudeDegrees>
            </Position>
            <AltitudeMeters>785</AltitudeMeters>
            <DistanceMeters>330997.15885814</DistanceMeters>
          </Trackpoint>
          <Trackpoint>
            <Time>2021-07-31T16:27:15.000Z</Time>
            <Position>
              <LatitudeDegrees>42.1887993626296520233154296875</LatitudeDegrees>
              <LongitudeDegrees>-2.2868988476693630218505859375</LongitudeDegrees>
            </Position>
            <AltitudeMeters>783.79998779296875</AltitudeMeters>
            <DistanceMeters>331024.68939457</DistanceMeters>
          </Trackpoint>
          <Trackpoint>
            <Time>2021-07-31T16:27:19.000Z</Time>
            <Position>
              <LatitudeDegrees>42.18886465765535831451416015625</LatitudeDegrees>
              <LongitudeDegrees>-2.28659919463098049163818359375</LongitudeDegrees>
            </Position>
            <AltitudeMeters>782.79998779296875</AltitudeMeters>
            <DistanceMeters>331050.44741927</DistanceMeters>
          </Trackpoint>
          <Trackpoint>
            <Time>2021-07-31T16:27:24.000Z</Time>
            <Position>
              <LatitudeDegrees>42.18893959186971187591552734375</LatitudeDegrees>
              <LongitudeDegrees>-2.28618429042398929595947265625</LongitudeDegrees>
            </Position>
            <AltitudeMeters>781.4000244140625</AltitudeMeters>
            <DistanceMeters>331085.6652991</DistanceMeters>
          </Trackpoint>
          <Trackpoint>
            <Time>2021-07-31T16:27:38.000Z</Time>
            <Position>
              <LatitudeDegrees>42.1889229118824005126953125</LatitudeDegrees>
              <LongitudeDegrees>-2.28541114367544651031494140625</LongitudeDegrees>
            </Position>
            <AltitudeMeters>780.4000244140625</AltitudeMeters>
            <DistanceMeters>331149.45179974</DistanceMeters>
          </Trackpoint>
          <Trackpoint>
            <Time>2021-07-31T16:27:44.000Z</Time>
            <Position>
              <LatitudeDegrees>42.1889317966997623443603515625</LatitudeDegrees>
              <LongitudeDegrees>-2.28500939905643463134765625</LongitudeDegrees>
            </Position>
            <AltitudeMeters>779.20001220703125</AltitudeMeters>
            <DistanceMeters>331182.59733021</DistanceMeters>
          </Trackpoint>
          <Trackpoint>
            <Time>2021-07-31T16:27:48.000Z</Time>
            <Position>
              <LatitudeDegrees>42.18896783888339996337890625</LatitudeDegrees>
              <LongitudeDegrees>-2.28467336855828762054443359375</LongitudeDegrees>
            </Position>
            <AltitudeMeters>777.5999755859375</AltitudeMeters>
            <DistanceMeters>331210.59765748</DistanceMeters>
          </Trackpoint>
          <Trackpoint>
            <Time>2021-07-31T16:27:51.000Z</Time>
            <Position>
              <LatitudeDegrees>42.189021147787570953369140625</LatitudeDegrees>
              <LongitudeDegrees>-2.284382097423076629638671875</LongitudeDegrees>
            </Position>
            <AltitudeMeters>776.5999755859375</AltitudeMeters>
            <DistanceMeters>331235.34021257</DistanceMeters>
          </Trackpoint>
          <Trackpoint>
            <Time>2021-07-31T16:27:54.000Z</Time>
            <Position>
              <LatitudeDegrees>42.1890947408974170684814453125</LatitudeDegrees>
              <LongitudeDegrees>-2.2840734757483005523681640625</LongitudeDegrees>
            </Position>
            <AltitudeMeters>775.4000244140625</AltitudeMeters>
            <DistanceMeters>331262.07702188</DistanceMeters>
          </Trackpoint>
          <Trackpoint>
            <Time>2021-07-31T16:27:57.000Z</Time>
            <Position>
              <LatitudeDegrees>42.18920395709574222564697265625</LatitudeDegrees>
              <LongitudeDegrees>-2.28375957347452640533447265625</LongitudeDegrees>
            </Position>
            <AltitudeMeters>774.20001220703125</AltitudeMeters>
            <DistanceMeters>331290.67580059</DistanceMeters>
          </Trackpoint>
          <Trackpoint>
            <Time>2021-07-31T16:28:00.000Z</Time>
            <Position>
              <LatitudeDegrees>42.18933287076652050018310546875</LatitudeDegrees>
              <LongitudeDegrees>-2.28344357572495937347412109375</LongitudeDegrees>
            </Position>
            <AltitudeMeters>773</AltitudeMeters>
            <DistanceMeters>331320.42417116</DistanceMeters>
          </Trackpoint>
          <Trackpoint>
            <Time>2021-07-31T16:28:07.000Z</Time>
            <Position>
              <LatitudeDegrees>42.1895899437367916107177734375</LatitudeDegrees>
              <LongitudeDegrees>-2.282707728445529937744140625</LongitudeDegrees>
            </Position>
            <AltitudeMeters>772.79998779296875</AltitudeMeters>
            <DistanceMeters>331387.51451207</DistanceMeters>
          </Trackpoint>
          <Trackpoint>
            <Time>2021-07-31T16:28:11.000Z</Time>
            <Position>
              <LatitudeDegrees>42.189637385308742523193359375</LatitudeDegrees>
              <LongitudeDegrees>-2.2824165411293506622314453125</LongitudeDegrees>
            </Position>
            <AltitudeMeters>774.5999755859375</AltitudeMeters>
            <DistanceMeters>331412.10146934</DistanceMeters>
          </Trackpoint>
          <Trackpoint>
            <Time>2021-07-31T16:28:14.000Z</Time>
            <Position>
              <LatitudeDegrees>42.18964316882193088531494140625</LatitudeDegrees>
              <LongitudeDegrees>-2.28225745260715484619140625</LongitudeDegrees>
            </Position>
            <AltitudeMeters>775</AltitudeMeters>
            <DistanceMeters>331425.23648516</DistanceMeters>
          </Trackpoint>
          <Trackpoint>
            <Time>2021-07-31T16:28:22.000Z</Time>
            <Position>
              <LatitudeDegrees>42.18962875194847583770751953125</LatitudeDegrees>
              <LongitudeDegrees>-2.28179871104657649993896484375</LongitudeDegrees>
            </Position>
            <AltitudeMeters>773.5999755859375</AltitudeMeters>
            <DistanceMeters>331463.10138166</DistanceMeters>
          </Trackpoint>
          <Trackpoint>
            <Time>2021-07-31T16:28:24.000Z</Time>
            <Position>
              <LatitudeDegrees>42.1896160952746868133544921875</LatitudeDegrees>
              <LongitudeDegrees>-2.281643562018871307373046875</LongitudeDegrees>
            </Position>
            <AltitudeMeters>772.4000244140625</AltitudeMeters>
            <DistanceMeters>331475.97390677</DistanceMeters>
          </Trackpoint>
          <Trackpoint>
            <Time>2021-07-31T16:28:27.000Z</Time>
            <Position>
              <LatitudeDegrees>42.18959840945899486541748046875</LatitudeDegrees>
              <LongitudeDegrees>-2.281370647251605987548828125</LongitudeDegrees>
            </Position>
            <AltitudeMeters>771</AltitudeMeters>
            <DistanceMeters>331498.56629578</DistanceMeters>
          </Trackpoint>
          <Trackpoint>
            <Time>2021-07-31T16:28:29.000Z</Time>
            <Position>
              <LatitudeDegrees>42.18958483077585697174072265625</LatitudeDegrees>
              <LongitudeDegrees>-2.28117040358483791351318359375</LongitudeDegrees>
            </Position>
            <AltitudeMeters>769.4000244140625</AltitudeMeters>
            <DistanceMeters>331515.14838937</DistanceMeters>
          </Trackpoint>
          <Trackpoint>
            <Time>2021-07-31T16:28:31.000Z</Time>
            <Position>
              <LatitudeDegrees>42.1895607747137546539306640625</LatitudeDegrees>
              <LongitudeDegrees>-2.28096722625195980072021484375</LongitudeDegrees>
            </Position>
            <AltitudeMeters>768</AltitudeMeters>
            <DistanceMeters>331532.11618024</DistanceMeters>
          </Trackpoint>
          <Trackpoint>
            <Time>2021-07-31T16:28:39.000Z</Time>
            <Position>
              <LatitudeDegrees>42.1893602795898914337158203125</LatitudeDegrees>
              <LongitudeDegrees>-2.28023665957152843475341796875</LongitudeDegrees>
            </Position>
            <AltitudeMeters>768.4000244140625</AltitudeMeters>
            <DistanceMeters>331596.36372707</DistanceMeters>
          </Trackpoint>
          <Trackpoint>
            <Time>2021-07-31T16:28:45.000Z</Time>
            <Position>
              <LatitudeDegrees>42.189300768077373504638671875</LatitudeDegrees>
              <LongitudeDegrees>-2.279751934111118316650390625</LongitudeDegrees>
            </Position>
            <AltitudeMeters>769.20001220703125</AltitudeMeters>
            <DistanceMeters>331636.88256539</DistanceMeters>
          </Trackpoint>
          <Trackpoint>
            <Time>2021-07-31T16:28:55.000Z</Time>
            <Position>
              <LatitudeDegrees>42.1894296817481517791748046875</LatitudeDegrees>
              <LongitudeDegrees>-2.27902815677225589752197265625</LongitudeDegrees>
            </Position>
            <AltitudeMeters>769.20001220703125</AltitudeMeters>
            <DistanceMeters>331698.27055837</DistanceMeters>
          </Trackpoint>
          <Trackpoint>
            <Time>2021-07-31T16:29:02.000Z</Time>
            <Position>
              <LatitudeDegrees>42.18966177664697170257568359375</LatitudeDegrees>
              <LongitudeDegrees>-2.27860294282436370849609375</LongitudeDegrees>
            </Position>
            <AltitudeMeters>770.4000244140625</AltitudeMeters>
            <DistanceMeters>331741.82452671</DistanceMeters>
          </Trackpoint>
          <Trackpoint>
            <Time>2021-07-31T16:29:12.000Z</Time>
            <Position>
              <LatitudeDegrees>42.1900697238743305206298828125</LatitudeDegrees>
              <LongitudeDegrees>-2.27811302058398723602294921875</LongitudeDegrees>
            </Position>
            <AltitudeMeters>770.20001220703125</AltitudeMeters>
            <DistanceMeters>331802.60263561</DistanceMeters>
          </Trackpoint>
          <Trackpoint>
            <Time>2021-07-31T16:29:19.000Z</Time>
            <Position>
              <LatitudeDegrees>42.19026326201856136322021484375</LatitudeDegrees>
              <LongitudeDegrees>-2.27770096622407436370849609375</LongitudeDegrees>
            </Position>
            <AltitudeMeters>771</AltitudeMeters>
            <DistanceMeters>331842.83564921</DistanceMeters>
          </Trackpoint>
          <Trackpoint>
            <Time>2021-07-31T16:29:22.000Z</Time>
            <Position>
              <LatitudeDegrees>42.1903104521334171295166015625</LatitudeDegrees>
              <LongitudeDegrees>-2.27747079916298389434814453125</LongitudeDegrees>
            </Position>
            <AltitudeMeters>769.79998779296875</AltitudeMeters>
            <DistanceMeters>331862.5298068</DistanceMeters>
          </Trackpoint>
          <Trackpoint>
            <Time>2021-07-31T16:29:24.000Z</Time>
            <Position>
              <LatitudeDegrees>42.1903288923203945159912109375</LatitudeDegrees>
              <LongitudeDegrees>-2.27729528211057186126708984375</LongitudeDegrees>
            </Position>
            <AltitudeMeters>768.79998779296875</AltitudeMeters>
            <DistanceMeters>331877.14879511</DistanceMeters>
          </Trackpoint>
          <Trackpoint>
            <Time>2021-07-31T16:29:28.000Z</Time>
            <Position>
              <LatitudeDegrees>42.1903728134930133819580078125</LatitudeDegrees>
              <LongitudeDegrees>-2.27692379616200923919677734375</LongitudeDegrees>
            </Position>
            <AltitudeMeters>767.4000244140625</AltitudeMeters>
            <DistanceMeters>331908.17119713</DistanceMeters>
          </Trackpoint>
          <Trackpoint>
            <Time>2021-07-31T16:29:31.000Z</Time>
            <Position>
              <LatitudeDegrees>42.1904050000011920928955078125</LatitudeDegrees>
              <LongitudeDegrees>-2.27662615478038787841796875</LongitudeDegrees>
            </Position>
            <AltitudeMeters>766.4000244140625</AltitudeMeters>
            <DistanceMeters>331932.97626413</DistanceMeters>
          </Trackpoint>
          <Trackpoint>
            <Time>2021-07-31T16:29:35.000Z</Time>
            <Position>
              <LatitudeDegrees>42.19045235775411128997802734375</LatitudeDegrees>
              <LongitudeDegrees>-2.27620773017406463623046875</LongitudeDegrees>
            </Position>
            <AltitudeMeters>765.20001220703125</AltitudeMeters>
            <DistanceMeters>331967.88225523</DistanceMeters>
          </Trackpoint>
          <Trackpoint>
            <Time>2021-07-31T16:29:42.000Z</Time>
            <Position>
              <LatitudeDegrees>42.19058076851069927215576171875</LatitudeDegrees>
              <LongitudeDegrees>-2.275482527911663055419921875</LongitudeDegrees>
            </Position>
            <AltitudeMeters>764.20001220703125</AltitudeMeters>
            <DistanceMeters>332029.37048749</DistanceMeters>
          </Trackpoint>
          <Trackpoint>
            <Time>2021-07-31T16:29:43.000Z</Time>
            <Position>
              <LatitudeDegrees>42.19061312265694141387939453125</LatitudeDegrees>
              <LongitudeDegrees>-2.27538789622485637664794921875</LongitudeDegrees>
            </Position>
            <AltitudeMeters>764</AltitudeMeters>
            <DistanceMeters>332037.96502211</DistanceMeters>
          </Trackpoint>
          <Trackpoint>
            <Time>2021-07-31T16:29:48.000Z</Time>
            <Position>
              <LatitudeDegrees>42.19082384370267391204833984375</LatitudeDegrees>
              <LongitudeDegrees>-2.27495647966861724853515625</LongitudeDegrees>
            </Position>
            <AltitudeMeters>762.5999755859375</AltitudeMeters>
            <DistanceMeters>332080.57706068</DistanceMeters>
          </Trackpoint>
          <Trackpoint>
            <Time>2021-07-31T16:29:51.000Z</Time>
            <Position>
              <LatitudeDegrees>42.19096206128597259521484375</LatitudeDegrees>
              <LongitudeDegrees>-2.27471080608665943145751953125</LongitudeDegrees>
            </Position>
            <AltitudeMeters>761.5999755859375</AltitudeMeters>
            <DistanceMeters>332106.01548316</DistanceMeters>
          </Trackpoint>
          <Trackpoint>
            <Time>2021-07-31T16:29:59.000Z</Time>
            <Position>
              <LatitudeDegrees>42.191326506435871124267578125</LatitudeDegrees>
              <LongitudeDegrees>-2.2740691713988780975341796875</LongitudeDegrees>
            </Position>
            <AltitudeMeters>760.5999755859375</AltitudeMeters>
            <DistanceMeters>332172.68706841</DistanceMeters>
          </Trackpoint>
          <Trackpoint>
            <Time>2021-07-31T16:30:00.000Z</Time>
            <Position>
              <LatitudeDegrees>42.19137101434171199798583984375</LatitudeDegrees>
              <LongitudeDegrees>-2.273988537490367889404296875</LongitudeDegrees>
            </Position>
            <AltitudeMeters>760.5999755859375</AltitudeMeters>
            <DistanceMeters>332180.98002097</DistanceMeters>
          </Trackpoint>
          <Trackpoint>
            <Time>2021-07-31T16:30:08.000Z</Time>
            <Position>
              <LatitudeDegrees>42.19171349890530109405517578125</LatitudeDegrees>
              <LongitudeDegrees>-2.27333885617554187774658203125</LongitudeDegrees>
            </Position>
            <AltitudeMeters>760</AltitudeMeters>
            <DistanceMeters>332246.73260221</DistanceMeters>
          </Trackpoint>
          <Trackpoint>
            <Time>2021-07-31T16:30:15.000Z</Time>
            <Position>
              <LatitudeDegrees>42.191921286284923553466796875</LatitudeDegrees>
              <LongitudeDegrees>-2.27282068692147731781005859375</LongitudeDegrees>
            </Position>
            <AltitudeMeters>762</AltitudeMeters>
            <DistanceMeters>332295.31997593</DistanceMeters>
          </Trackpoint>
          <Trackpoint>
            <Time>2021-07-31T16:30:18.000Z</Time>
            <Position>
              <LatitudeDegrees>42.19199605286121368408203125</LatitudeDegrees>
              <LongitudeDegrees>-2.272629998624324798583984375</LongitudeDegrees>
            </Position>
            <AltitudeMeters>763</AltitudeMeters>
            <DistanceMeters>332313.11104783</DistanceMeters>
          </Trackpoint>
          <Trackpoint>
            <Time>2021-07-31T16:30:23.000Z</Time>
            <Position>
              <LatitudeDegrees>42.19212236814200878143310546875</LatitudeDegrees>
              <LongitudeDegrees>-2.27233286015689373016357421875</LongitudeDegrees>
            </Position>
            <AltitudeMeters>764.20001220703125</AltitudeMeters>
            <DistanceMeters>332341.36100528</DistanceMeters>
          </Trackpoint>
          <Trackpoint>
            <Time>2021-07-31T16:30:31.000Z</Time>
            <Position>
              <LatitudeDegrees>42.192337028682231903076171875</LatitudeDegrees>
              <LongitudeDegrees>-2.27186799980700016021728515625</LongitudeDegrees>
            </Position>
            <AltitudeMeters>765.20001220703125</AltitudeMeters>
            <DistanceMeters>332386.53089218</DistanceMeters>
          </Trackpoint>
          <Trackpoint>
            <Time>2021-07-31T16:30:39.000Z</Time>
            <Position>
              <LatitudeDegrees>42.19254045747220516204833984375</LatitudeDegrees>
              <LongitudeDegrees>-2.27139408700168132781982421875</LongitudeDegrees>
            </Position>
            <AltitudeMeters>766.20001220703125</AltitudeMeters>
            <DistanceMeters>332431.69648073</DistanceMeters>
          </Trackpoint>
          <Trackpoint>
            <Time>2021-07-31T16:30:43.000Z</Time>
            <Position>
              <LatitudeDegrees>42.1926350891590118408203125</LatitudeDegrees>
              <LongitudeDegrees>-2.27115537039935588836669921875</LongitudeDegrees>
            </Position>
            <AltitudeMeters>767.4000244140625</AltitudeMeters>
            <DistanceMeters>332454.02229896</DistanceMeters>
          </Trackpoint>
          <Trackpoint>
            <Time>2021-07-31T16:30:52.000Z</Time>
            <Position>
              <LatitudeDegrees>42.19281856901943683624267578125</LatitudeDegrees>
              <LongitudeDegrees>-2.27060652337968349456787109375</LongitudeDegrees>
            </Position>
            <AltitudeMeters>768.4000244140625</AltitudeMeters>
            <DistanceMeters>332503.67555314</DistanceMeters>
          </Trackpoint>
          <Trackpoint>
            <Time>2021-07-31T16:30:57.000Z</Time>
            <Position>
              <LatitudeDegrees>42.1929113566875457763671875</LatitudeDegrees>
              <LongitudeDegrees>-2.27031382732093334197998046875</LongitudeDegrees>
            </Position>
            <AltitudeMeters>769.20001220703125</AltitudeMeters>
            <DistanceMeters>332529.92839212</DistanceMeters>
          </Trackpoint>
          <Trackpoint>
            <Time>2021-07-31T16:31:07.000Z</Time>
            <Position>
              <LatitudeDegrees>42.1931002847850322723388671875</LatitudeDegrees>
              <LongitudeDegrees>-2.26965802721679210662841796875</LongitudeDegrees>
            </Position>
            <AltitudeMeters>767.20001220703125</AltitudeMeters>
            <DistanceMeters>332587.95159809</DistanceMeters>
          </Trackpoint>
          <Trackpoint>
            <Time>2021-07-31T16:31:09.000Z</Time>
            <Position>
              <LatitudeDegrees>42.19312735833227634429931640625</LatitudeDegrees>
              <LongitudeDegrees>-2.2694795764982700347900390625</LongitudeDegrees>
            </Position>
            <AltitudeMeters>765.79998779296875</AltitudeMeters>
            <DistanceMeters>332602.9721327</DistanceMeters>
          </Trackpoint>
          <Trackpoint>
            <Time>2021-07-31T16:31:10.000Z</Time>
            <Position>
              <LatitudeDegrees>42.19313540495932102203369140625</LatitudeDegrees>
              <LongitudeDegrees>-2.26938092149794101715087890625</LongitudeDegrees>
            </Position>
            <AltitudeMeters>764.79998779296875</AltitudeMeters>
            <DistanceMeters>332611.15657569</DistanceMeters>
          </Trackpoint>
          <Trackpoint>
            <Time>2021-07-31T16:31:11.000Z</Time>
            <Position>
              <LatitudeDegrees>42.1931366622447967529296875</LatitudeDegrees>
              <LongitudeDegrees>-2.26927648298442363739013671875</LongitudeDegrees>
            </Position>
            <AltitudeMeters>764</AltitudeMeters>
            <DistanceMeters>332619.77000173</DistanceMeters>
          </Trackpoint>
          <Trackpoint>
            <Time>2021-07-31T16:31:13.000Z</Time>
            <Position>
              <LatitudeDegrees>42.1931227482855319976806640625</LatitudeDegrees>
              <LongitudeDegrees>-2.269055284559726715087890625</LongitudeDegrees>
            </Position>
            <AltitudeMeters>762.79998779296875</AltitudeMeters>
            <DistanceMeters>332638.07590615</DistanceMeters>
          </Trackpoint>
          <Trackpoint>
            <Time>2021-07-31T16:31:16.000Z</Time>
            <Position>
              <LatitudeDegrees>42.19310338608920574188232421875</LatitudeDegrees>
              <LongitudeDegrees>-2.26868907921016216278076171875</LongitudeDegrees>
            </Position>
            <AltitudeMeters>761.5999755859375</AltitudeMeters>
            <DistanceMeters>332668.35082678</DistanceMeters>
          </Trackpoint>
          <Trackpoint>
            <Time>2021-07-31T16:31:18.000Z</Time>
            <Position>
              <LatitudeDegrees>42.1931525878608226776123046875</LatitudeDegrees>
              <LongitudeDegrees>-2.26843066513538360595703125</LongitudeDegrees>
            </Position>
            <AltitudeMeters>760.20001220703125</AltitudeMeters>
            <DistanceMeters>332690.35274347</DistanceMeters>
          </Trackpoint>
          <Trackpoint>
            <Time>2021-07-31T16:31:20.000Z</Time>
            <Position>
              <LatitudeDegrees>42.1932531706988811492919921875</LatitudeDegrees>
              <LongitudeDegrees>-2.26817761547863483428955078125</LongitudeDegrees>
            </Position>
            <AltitudeMeters>758.20001220703125</AltitudeMeters>
            <DistanceMeters>332714.03289734</DistanceMeters>
          </Trackpoint>
          <Trackpoint>
            <Time>2021-07-31T16:31:21.000Z</Time>
            <Position>
              <LatitudeDegrees>42.193308658897876739501953125</LatitudeDegrees>
              <LongitudeDegrees>-2.26804912090301513671875</LongitudeDegrees>
            </Position>
            <AltitudeMeters>756.5999755859375</AltitudeMeters>
            <DistanceMeters>332726.2972352</DistanceMeters>
          </Trackpoint>
          <Trackpoint>
            <Time>2021-07-31T16:31:22.000Z</Time>
            <Position>
              <LatitudeDegrees>42.1933654882013797760009765625</LatitudeDegrees>
              <LongitudeDegrees>-2.26791878230869770050048828125</LongitudeDegrees>
            </Position>
            <AltitudeMeters>754.5999755859375</AltitudeMeters>
            <DistanceMeters>332738.76856379</DistanceMeters>
          </Trackpoint>
          <Trackpoint>
            <Time>2021-07-31T16:31:23.000Z</Time>
            <Position>
              <LatitudeDegrees>42.19342374242842197418212890625</LatitudeDegrees>
              <LongitudeDegrees>-2.26778718642890453338623046875</LongitudeDegrees>
            </Position>
            <AltitudeMeters>753</AltitudeMeters>
            <DistanceMeters>332751.40961726</DistanceMeters>
          </Trackpoint>
          <Trackpoint>
            <Time>2021-07-31T16:31:24.000Z</Time>
            <Position>
              <LatitudeDegrees>42.1934853494167327880859375</LatitudeDegrees>
              <LongitudeDegrees>-2.2676563449203968048095703125</LongitudeDegrees>
            </Position>
            <AltitudeMeters>751.79998779296875</AltitudeMeters>
            <DistanceMeters>332764.19415415</DistanceMeters>
          </Trackpoint>
          <Trackpoint>
            <Time>2021-07-31T16:31:25.000Z</Time>
            <Position>
              <LatitudeDegrees>42.19355483539402484893798828125</LatitudeDegrees>
              <LongitudeDegrees>-2.26753170602023601531982421875</LongitudeDegrees>
            </Position>
            <AltitudeMeters>750.79998779296875</AltitudeMeters>
            <DistanceMeters>332777.05720553</DistanceMeters>
          </Trackpoint>
          <Trackpoint>
            <Time>2021-07-31T16:31:26.000Z</Time>
            <Position>
              <LatitudeDegrees>42.1936367265880107879638671875</LatitudeDegrees>
              <LongitudeDegrees>-2.26742081344127655029296875</LongitudeDegrees>
            </Position>
            <AltitudeMeters>749.79998779296875</AltitudeMeters>
            <DistanceMeters>332789.96825549</DistanceMeters>
          </Trackpoint>
          <Trackpoint>
            <Time>2021-07-31T16:31:27.000Z</Time>
            <Position>
              <LatitudeDegrees>42.19372917897999286651611328125</LatitudeDegrees>
              <LongitudeDegrees>-2.26732559502124786376953125</LongitudeDegrees>
            </Position>
            <AltitudeMeters>748</AltitudeMeters>
            <DistanceMeters>332802.91213583</DistanceMeters>
          </Trackpoint>
          <Trackpoint>
            <Time>2021-07-31T16:31:28.000Z</Time>
            <Position>
              <LatitudeDegrees>42.19383068382740020751953125</LatitudeDegrees>
              <LongitudeDegrees>-2.26724588312208652496337890625</LongitudeDegrees>
            </Position>
            <AltitudeMeters>747</AltitudeMeters>
            <DistanceMeters>332815.98305953</DistanceMeters>
          </Trackpoint>
          <Trackpoint>
            <Time>2021-07-31T16:31:30.000Z</Time>
            <Position>
              <LatitudeDegrees>42.19405640847980976104736328125</LatitudeDegrees>
              <LongitudeDegrees>-2.26714010350406169891357421875</LongitudeDegrees>
            </Position>
            <AltitudeMeters>745.5999755859375</AltitudeMeters>
            <DistanceMeters>332842.57797949</DistanceMeters>
          </Trackpoint>
          <Trackpoint>
            <Time>2021-07-31T16:31:33.000Z</Time>
            <Position>
              <LatitudeDegrees>42.194429151713848114013671875</LatitudeDegrees>
              <LongitudeDegrees>-2.26711965166032314300537109375</LongitudeDegrees>
            </Position>
            <AltitudeMeters>743.79998779296875</AltitudeMeters>
            <DistanceMeters>332884.09932574</DistanceMeters>
          </Trackpoint>
          <Trackpoint>
            <Time>2021-07-31T16:31:34.000Z</Time>
            <Position>
              <LatitudeDegrees>42.19455714337527751922607421875</LatitudeDegrees>
              <LongitudeDegrees>-2.2671250998973846435546875</LongitudeDegrees>
            </Position>
            <AltitudeMeters>742.4000244140625</AltitudeMeters>
            <DistanceMeters>332898.3523826</DistanceMeters>
          </Trackpoint>
          <Trackpoint>
            <Time>2021-07-31T16:31:35.000Z</Time>
            <Position>
              <LatitudeDegrees>42.19468630850315093994140625</LatitudeDegrees>
              <LongitudeDegrees>-2.26712686009705066680908203125</LongitudeDegrees>
            </Position>
            <AltitudeMeters>741.20001220703125</AltitudeMeters>
            <DistanceMeters>332912.72939376</DistanceMeters>
          </Trackpoint>
          <Trackpoint>
            <Time>2021-07-31T16:31:36.000Z</Time>
            <Position>
              <LatitudeDegrees>42.19481664709746837615966796875</LatitudeDegrees>
              <LongitudeDegrees>-2.26712442934513092041015625</LongitudeDegrees>
            </Position>
            <AltitudeMeters>739.79998779296875</AltitudeMeters>
            <DistanceMeters>332927.23739334</DistanceMeters>
          </Trackpoint>
          <Trackpoint>
            <Time>2021-07-31T16:31:38.000Z</Time>
            <Position>
              <LatitudeDegrees>42.19507296569645404815673828125</LatitudeDegrees>
              <LongitudeDegrees>-2.26711160503327846527099609375</LongitudeDegrees>
            </Position>
            <AltitudeMeters>738.20001220703125</AltitudeMeters>
            <DistanceMeters>332955.78560728</DistanceMeters>
          </Trackpoint>
          <Trackpoint>
            <Time>2021-07-31T16:31:39.000Z</Time>
            <Position>
              <LatitudeDegrees>42.19519332982599735260009765625</LatitudeDegrees>
              <LongitudeDegrees>-2.26709014736115932464599609375</LongitudeDegrees>
            </Position>
            <AltitudeMeters>737.79998779296875</AltitudeMeters>
            <DistanceMeters>332969.29879365</DistanceMeters>
          </Trackpoint>
          <Trackpoint>
            <Time>2021-07-31T16:31:40.000Z</Time>
            <Position>
              <LatitudeDegrees>42.19530723989009857177734375</LatitudeDegrees>
              <LongitudeDegrees>-2.26705628447234630584716796875</LongitudeDegrees>
            </Position>
            <AltitudeMeters>737.20001220703125</AltitudeMeters>
            <DistanceMeters>332982.2809871</DistanceMeters>
          </Trackpoint>
          <Trackpoint>
            <Time>2021-07-31T16:31:42.000Z</Time>
            <Position>
              <LatitudeDegrees>42.19551376998424530029296875</LatitudeDegrees>
              <LongitudeDegrees>-2.2669629938900470733642578125</LongitudeDegrees>
            </Position>
            <AltitudeMeters>735.79998779296875</AltitudeMeters>
            <DistanceMeters>333006.52118252</DistanceMeters>
          </Trackpoint>
          <Trackpoint>
            <Time>2021-07-31T16:31:52.000Z</Time>
            <Position>
              <LatitudeDegrees>42.19600905664265155792236328125</LatitudeDegrees>
              <LongitudeDegrees>-2.26666820235550403594970703125</LongitudeDegrees>
            </Position>
            <AltitudeMeters>736</AltitudeMeters>
            <DistanceMeters>333066.76901873</DistanceMeters>
          </Trackpoint>
          <Trackpoint>
            <Time>2021-07-31T16:31:56.000Z</Time>
            <Position>
              <LatitudeDegrees>42.196014337241649627685546875</LatitudeDegrees>
              <LongitudeDegrees>-2.26663769222795963287353515625</LongitudeDegrees>
            </Position>
            <AltitudeMeters>736.5999755859375</AltitudeMeters>
            <DistanceMeters>333069.35227762</DistanceMeters>
          </Trackpoint>
          <Trackpoint>
            <Time>2021-07-31T16:32:24.000Z</Time>
            <Position>
              <LatitudeDegrees>42.19598776660859584808349609375</LatitudeDegrees>
              <LongitudeDegrees>-2.26663291454315185546875</LongitudeDegrees>
            </Position>
            <AltitudeMeters>735.79998779296875</AltitudeMeters>
            <DistanceMeters>333072.33617698</DistanceMeters>
          </Trackpoint>
          <Trackpoint>
            <Time>2021-07-31T16:32:29.000Z</Time>
            <Position>
              <LatitudeDegrees>42.1958857588469982147216796875</LatitudeDegrees>
              <LongitudeDegrees>-2.26668647490441799163818359375</LongitudeDegrees>
            </Position>
            <AltitudeMeters>734.5999755859375</AltitudeMeters>
            <DistanceMeters>333084.51888343</DistanceMeters>
          </Trackpoint>
          <Trackpoint>
            <Time>2021-07-31T16:32:34.000Z</Time>
            <Position>
              <LatitudeDegrees>42.19570898450911045074462890625</LatitudeDegrees>
              <LongitudeDegrees>-2.26676895283162593841552734375</LongitudeDegrees>
            </Position>
            <AltitudeMeters>733.4000244140625</AltitudeMeters>
            <DistanceMeters>333105.33645842</DistanceMeters>
          </Trackpoint>
          <Trackpoint>
            <Time>2021-07-31T16:32:37.000Z</Time>
            <Position>
              <LatitudeDegrees>42.19556984491646289825439453125</LatitudeDegrees>
              <LongitudeDegrees>-2.26682662032544612884521484375</LongitudeDegrees>
            </Position>
            <AltitudeMeters>732.20001220703125</AltitudeMeters>
            <DistanceMeters>333121.53677144</DistanceMeters>
          </Trackpoint>
          <Trackpoint>
            <Time>2021-07-31T16:32:40.000Z</Time>
            <Position>
              <LatitudeDegrees>42.1954157017171382904052734375</LatitudeDegrees>
              <LongitudeDegrees>-2.26689116097986698150634765625</LongitudeDegrees>
            </Position>
            <AltitudeMeters>731</AltitudeMeters>
            <DistanceMeters>333139.49983692</DistanceMeters>
          </Trackpoint>
          <Trackpoint>
            <Time>2021-07-31T16:32:46.000Z</Time>
            <Position>
              <LatitudeDegrees>42.1950609795749187469482421875</LatitudeDegrees>
              <LongitudeDegrees>-2.2669827751815319061279296875</LongitudeDegrees>
            </Position>
            <AltitudeMeters>729.79998779296875</AltitudeMeters>
            <DistanceMeters>333179.69737265</DistanceMeters>
          </Trackpoint>
          <Trackpoint>
            <Time>2021-07-31T16:32:49.000Z</Time>
            <Position>
              <LatitudeDegrees>42.19486601650714874267578125</LatitudeDegrees>
              <LongitudeDegrees>-2.26696358062326908111572265625</LongitudeDegrees>
            </Position>
            <AltitudeMeters>729</AltitudeMeters>
            <DistanceMeters>333201.45475525</DistanceMeters>
          </Trackpoint>
          <Trackpoint>
            <Time>2021-07-31T16:32:52.000Z</Time>
            <Position>
              <LatitudeDegrees>42.194668538868427276611328125</LatitudeDegrees>
              <LongitudeDegrees>-2.26690742187201976776123046875</LongitudeDegrees>
            </Position>
            <AltitudeMeters>727.79998779296875</AltitudeMeters>
            <DistanceMeters>333223.9168676</DistanceMeters>
          </Trackpoint>
          <Trackpoint>
            <Time>2021-07-31T16:32:56.000Z</Time>
            <Position>
              <LatitudeDegrees>42.19442387111485004425048828125</LatitudeDegrees>
              <LongitudeDegrees>-2.26675353012979030609130859375</LongitudeDegrees>
            </Position>
            <AltitudeMeters>726.79998779296875</AltitudeMeters>
            <DistanceMeters>333253.96034145</DistanceMeters>
          </Trackpoint>
          <Trackpoint>
            <Time>2021-07-31T16:33:00.000Z</Time>
            <Position>
              <LatitudeDegrees>42.19421432353556156158447265625</LatitudeDegrees>
              <LongitudeDegrees>-2.2665418870747089385986328125</LongitudeDegrees>
            </Position>
            <AltitudeMeters>726.20001220703125</AltitudeMeters>
            <DistanceMeters>333283.09002087</DistanceMeters>
          </Trackpoint>
          <Trackpoint>
            <Time>2021-07-31T16:33:07.000Z</Time>
            <Position>
              <LatitudeDegrees>42.19409714452922344207763671875</LatitudeDegrees>
              <LongitudeDegrees>-2.26602715440094470977783203125</LongitudeDegrees>
            </Position>
            <AltitudeMeters>727.4000244140625</AltitudeMeters>
            <DistanceMeters>333327.49383976</DistanceMeters>
          </Trackpoint>
          <Trackpoint>
            <Time>2021-07-31T16:33:11.000Z</Time>
            <Position>
              <LatitudeDegrees>42.1941044367849826812744140625</LatitudeDegrees>
              <LongitudeDegrees>-2.26576580666005611419677734375</LongitudeDegrees>
            </Position>
            <AltitudeMeters>727.4000244140625</AltitudeMeters>
            <DistanceMeters>333349.06008925</DistanceMeters>
          </Trackpoint>
          <Trackpoint>
            <Time>2021-07-31T16:33:15.000Z</Time>
            <Position>
              <LatitudeDegrees>42.1940675564110279083251953125</LatitudeDegrees>
              <LongitudeDegrees>-2.26553061045706272125244140625</LongitudeDegrees>
            </Position>
            <AltitudeMeters>727.5999755859375</AltitudeMeters>
            <DistanceMeters>333368.88403757</DistanceMeters>
          </Trackpoint>
          <Trackpoint>
            <Time>2021-07-31T16:33:16.000Z</Time>
            <Position>
              <LatitudeDegrees>42.19404660165309906005859375</LatitudeDegrees>
              <LongitudeDegrees>-2.2654807381331920623779296875</LongitudeDegrees>
            </Position>
            <AltitudeMeters>727.79998779296875</AltitudeMeters>
            <DistanceMeters>333373.61155692</DistanceMeters>
          </Trackpoint>
          <Trackpoint>
            <Time>2021-07-31T16:33:21.000Z</Time>
            <Position>
              <LatitudeDegrees>42.1939198672771453857421875</LatitudeDegrees>
              <LongitudeDegrees>-2.26526272483170032501220703125</LongitudeDegrees>
            </Position>
            <AltitudeMeters>729</AltitudeMeters>
            <DistanceMeters>333396.46246873</DistanceMeters>
          </Trackpoint>
          <Trackpoint>
            <Time>2021-07-31T16:33:27.000Z</Time>
            <Position>
              <LatitudeDegrees>42.193795144557952880859375</LatitudeDegrees>
              <LongitudeDegrees>-2.2650220803916454315185546875</LongitudeDegrees>
            </Position>
            <AltitudeMeters>730</AltitudeMeters>
            <DistanceMeters>333420.67992947</DistanceMeters>
          </Trackpoint>
          <Trackpoint>
            <Time>2021-07-31T16:33:38.000Z</Time>
            <Position>
              <LatitudeDegrees>42.1935213916003704071044921875</LatitudeDegrees>
              <LongitudeDegrees>-2.26468772627413272857666015625</LongitudeDegrees>
            </Position>
            <AltitudeMeters>731.20001220703125</AltitudeMeters>
            <DistanceMeters>333461.77192449</DistanceMeters>
          </Trackpoint>
          <Trackpoint>
            <Time>2021-07-31T16:33:44.000Z</Time>
            <Position>
              <LatitudeDegrees>42.19333103857934474945068359375</LatitudeDegrees>
              <LongitudeDegrees>-2.26460709236562252044677734375</LongitudeDegrees>
            </Position>
            <AltitudeMeters>732.4000244140625</AltitudeMeters>
            <DistanceMeters>333483.97749415</DistanceMeters>
          </Trackpoint>
          <Trackpoint>
            <Time>2021-07-31T16:33:51.000Z</Time>
            <Position>
              <LatitudeDegrees>42.193092741072177886962890625</LatitudeDegrees>
              <LongitudeDegrees>-2.2645890712738037109375</LongitudeDegrees>
            </Position>
            <AltitudeMeters>733.4000244140625</AltitudeMeters>
            <DistanceMeters>333510.54217774</DistanceMeters>
          </Trackpoint>
          <Trackpoint>
            <Time>2021-07-31T16:34:00.000Z</Time>
            <Position>
              <LatitudeDegrees>42.19278671778738498687744140625</LatitudeDegrees>
              <LongitudeDegrees>-2.26465989835560321807861328125</LongitudeDegrees>
            </Position>
            <AltitudeMeters>734.4000244140625</AltitudeMeters>
            <DistanceMeters>333545.10029878</DistanceMeters>
          </Trackpoint>
          <Trackpoint>
            <Time>2021-07-31T16:34:07.000Z</Time>
            <Position>
              <LatitudeDegrees>42.19256610609591007232666015625</LatitudeDegrees>
              <LongitudeDegrees>-2.2647501714527606964111328125</LongitudeDegrees>
            </Position>
            <AltitudeMeters>735.4000244140625</AltitudeMeters>
            <DistanceMeters>333570.75856749</DistanceMeters>
          </Trackpoint>
          <Trackpoint>
            <Time>2021-07-31T16:34:17.000Z</Time>
            <Position>
              <LatitudeDegrees>42.19227542169392108917236328125</LatitudeDegrees>
              <LongitudeDegrees>-2.26500204764306545257568359375</LongitudeDegrees>
            </Position>
            <AltitudeMeters>736.5999755859375</AltitudeMeters>
            <DistanceMeters>333609.20565273</DistanceMeters>
          </Trackpoint>
          <Trackpoint>
            <Time>2021-07-31T16:34:32.000Z</Time>
            <Position>
              <LatitudeDegrees>42.19186864793300628662109375</LatitudeDegrees>
              <LongitudeDegrees>-2.265483923256397247314453125</LongitudeDegrees>
            </Position>
            <AltitudeMeters>737</AltitudeMeters>
            <DistanceMeters>333669.44546971</DistanceMeters>
          </Trackpoint>
          <Trackpoint>
            <Time>2021-07-31T16:34:45.000Z</Time>
            <Position>
              <LatitudeDegrees>42.19141175039112567901611328125</LatitudeDegrees>
              <LongitudeDegrees>-2.265765555202960968017578125</LongitudeDegrees>
            </Position>
            <AltitudeMeters>737.5999755859375</AltitudeMeters>
            <DistanceMeters>333725.35130991</DistanceMeters>
          </Trackpoint>
          <Trackpoint>
            <Time>2021-07-31T16:34:59.000Z</Time>
            <Position>
              <LatitudeDegrees>42.19104395247995853424072265625</LatitudeDegrees>
              <LongitudeDegrees>-2.26616277359426021575927734375</LongitudeDegrees>
            </Position>
            <AltitudeMeters>738.79998779296875</AltitudeMeters>
            <DistanceMeters>333777.78022741</DistanceMeters>
          </Trackpoint>
          <Trackpoint>
            <Time>2021-07-31T16:35:03.000Z</Time>
            <Position>
              <LatitudeDegrees>42.190963737666606903076171875</LatitudeDegrees>
              <LongitudeDegrees>-2.26627894677221775054931640625</LongitudeDegrees>
            </Position>
            <AltitudeMeters>739.79998779296875</AltitudeMeters>
            <DistanceMeters>333790.87599817</DistanceMeters>
          </Trackpoint>
          <Trackpoint>
            <Time>2021-07-31T16:35:11.000Z</Time>
            <Position>
              <LatitudeDegrees>42.19080624170601367950439453125</LatitudeDegrees>
              <LongitudeDegrees>-2.26650592871010303497314453125</LongitudeDegrees>
            </Position>
            <AltitudeMeters>741</AltitudeMeters>
            <DistanceMeters>333816.52071375</DistanceMeters>
          </Trackpoint>
          <Trackpoint>
            <Time>2021-07-31T16:35:16.000Z</Time>
            <Position>
              <LatitudeDegrees>42.1907064132392406463623046875</LatitudeDegrees>
              <LongitudeDegrees>-2.26664959453046321868896484375</LongitudeDegrees>
            </Position>
            <AltitudeMeters>742</AltitudeMeters>
            <DistanceMeters>333832.76333403</DistanceMeters>
          </Trackpoint>
          <Trackpoint>
            <Time>2021-07-31T16:35:22.000Z</Time>
            <Position>
              <LatitudeDegrees>42.1905803494155406951904296875</LatitudeDegrees>
              <LongitudeDegrees>-2.2668288834393024444580078125</LongitudeDegrees>
            </Position>
            <AltitudeMeters>743.20001220703125</AltitudeMeters>
            <DistanceMeters>333853.14650888</DistanceMeters>
          </Trackpoint>
          <Trackpoint>
            <Time>2021-07-31T16:35:27.000Z</Time>
            <Position>
              <LatitudeDegrees>42.19047063030302524566650390625</LatitudeDegrees>
              <LongitudeDegrees>-2.2669690288603305816650390625</LongitudeDegrees>
            </Position>
            <AltitudeMeters>744.20001220703125</AltitudeMeters>
            <DistanceMeters>333869.96033067</DistanceMeters>
          </Trackpoint>
          <Trackpoint>
            <Time>2021-07-31T16:35:33.000Z</Time>
            <Position>
              <LatitudeDegrees>42.1903456561267375946044921875</LatitudeDegrees>
              <LongitudeDegrees>-2.2671197354793548583984375</LongitudeDegrees>
            </Position>
            <AltitudeMeters>745.4000244140625</AltitudeMeters>
            <DistanceMeters>333888.61366565</DistanceMeters>
          </Trackpoint>
          <Trackpoint>
            <Time>2021-07-31T16:35:41.000Z</Time>
            <Position>
              <LatitudeDegrees>42.1901575662195682525634765625</LatitudeDegrees>
              <LongitudeDegrees>-2.26730053313076496124267578125</LongitudeDegrees>
            </Position>
            <AltitudeMeters>746.5999755859375</AltitudeMeters>
            <DistanceMeters>333914.31518607</DistanceMeters>
          </Trackpoint>
          <Trackpoint>
            <Time>2021-07-31T16:35:50.000Z</Time>
            <Position>
              <LatitudeDegrees>42.18994290567934513092041015625</LatitudeDegrees>
              <LongitudeDegrees>-2.267463393509387969970703125</LongitudeDegrees>
            </Position>
            <AltitudeMeters>747.5999755859375</AltitudeMeters>
            <DistanceMeters>333941.72343409</DistanceMeters>
          </Trackpoint>
          <Trackpoint>
            <Time>2021-07-31T16:35:58.000Z</Time>
            <Position>
              <LatitudeDegrees>42.18973604030907154083251953125</LatitudeDegrees>
              <LongitudeDegrees>-2.26760462857782840728759765625</LongitudeDegrees>
            </Position>
            <AltitudeMeters>748.5999755859375</AltitudeMeters>
            <DistanceMeters>333967.52629316</DistanceMeters>
          </Trackpoint>
          <Trackpoint>
            <Time>2021-07-31T16:36:04.000Z</Time>
            <Position>
              <LatitudeDegrees>42.18958868645131587982177734375</LatitudeDegrees>
              <LongitudeDegrees>-2.2677098214626312255859375</LongitudeDegrees>
            </Position>
            <AltitudeMeters>750</AltitudeMeters>
            <DistanceMeters>333986.08012225</DistanceMeters>
          </Trackpoint>
          <Trackpoint>
            <Time>2021-07-31T16:36:10.000Z</Time>
            <Position>
              <LatitudeDegrees>42.189442254602909088134765625</LatitudeDegrees>
              <LongitudeDegrees>-2.2678075544536113739013671875</LongitudeDegrees>
            </Position>
            <AltitudeMeters>750.79998779296875</AltitudeMeters>
            <DistanceMeters>334004.26228655</DistanceMeters>
          </Trackpoint>
          <Trackpoint>
            <Time>2021-07-31T16:36:18.000Z</Time>
            <Position>
              <LatitudeDegrees>42.18924284912645816802978515625</LatitudeDegrees>
              <LongitudeDegrees>-2.26794526912271976470947265625</LongitudeDegrees>
            </Position>
            <AltitudeMeters>751.79998779296875</AltitudeMeters>
            <DistanceMeters>334029.19335596</DistanceMeters>
          </Trackpoint>
          <Trackpoint>
            <Time>2021-07-31T16:36:25.000Z</Time>
            <Position>
              <LatitudeDegrees>42.189074456691741943359375</LatitudeDegrees>
              <LongitudeDegrees>-2.26806127466261386871337890625</LongitudeDegrees>
            </Position>
            <AltitudeMeters>753</AltitudeMeters>
            <DistanceMeters>334050.23614162</DistanceMeters>
          </Trackpoint>
          <Trackpoint>
            <Time>2021-07-31T16:36:32.000Z</Time>
            <Position>
              <LatitudeDegrees>42.18889516778290271759033203125</LatitudeDegrees>
              <LongitudeDegrees>-2.26816588081419467926025390625</LongitudeDegrees>
            </Position>
            <AltitudeMeters>754.20001220703125</AltitudeMeters>
            <DistanceMeters>334071.97608576</DistanceMeters>
          </Trackpoint>
          <Trackpoint>
            <Time>2021-07-31T16:36:41.000Z</Time>
            <Position>
              <LatitudeDegrees>42.18862376175820827484130859375</LatitudeDegrees>
              <LongitudeDegrees>-2.2682782821357250213623046875</LongitudeDegrees>
            </Position>
            <AltitudeMeters>755.4000244140625</AltitudeMeters>
            <DistanceMeters>334103.57429018</DistanceMeters>
          </Trackpoint>
          <Trackpoint>
            <Time>2021-07-31T16:36:57.000Z</Time>
            <Position>
              <LatitudeDegrees>42.18806452117860317230224609375</LatitudeDegrees>
              <LongitudeDegrees>-2.268430329859256744384765625</LongitudeDegrees>
            </Position>
            <AltitudeMeters>756.20001220703125</AltitudeMeters>
            <DistanceMeters>334167.06934596</DistanceMeters>
          </Trackpoint>
          <Trackpoint>
            <Time>2021-07-31T16:37:10.000Z</Time>
            <Position>
              <LatitudeDegrees>42.18752221204340457916259765625</LatitudeDegrees>
              <LongitudeDegrees>-2.268535606563091278076171875</LongitudeDegrees>
            </Position>
            <AltitudeMeters>755.4000244140625</AltitudeMeters>
            <DistanceMeters>334228.05073625</DistanceMeters>
          </Trackpoint>
          <Trackpoint>
            <Time>2021-07-31T16:37:15.000Z</Time>
            <Position>
              <LatitudeDegrees>42.18730394728481769561767578125</LatitudeDegrees>
              <LongitudeDegrees>-2.26857927627861499786376953125</LongitudeDegrees>
            </Position>
            <AltitudeMeters>756.4000244140625</AltitudeMeters>
            <DistanceMeters>334252.60958121</DistanceMeters>
          </Trackpoint>
          <Trackpoint>
            <Time>2021-07-31T16:37:27.000Z</Time>
            <Position>
              <LatitudeDegrees>42.18673598952591419219970703125</LatitudeDegrees>
              <LongitudeDegrees>-2.2686953656375408172607421875</LongitudeDegrees>
            </Position>
            <AltitudeMeters>757.20001220703125</AltitudeMeters>
            <DistanceMeters>334316.5452608</DistanceMeters>
          </Trackpoint>
          <Trackpoint>
            <Time>2021-07-31T16:37:38.000Z</Time>
            <Position>
              <LatitudeDegrees>42.1861966140568256378173828125</LatitudeDegrees>
              <LongitudeDegrees>-2.2688029892742633819580078125</LongitudeDegrees>
            </Position>
            <AltitudeMeters>756.79998779296875</AltitudeMeters>
            <DistanceMeters>334377.23140681</DistanceMeters>
          </Trackpoint>
          <Trackpoint>
            <Time>2021-07-31T16:37:49.000Z</Time>
            <Position>
              <LatitudeDegrees>42.18561918474733829498291015625</LatitudeDegrees>
              <LongitudeDegrees>-2.2689122892916202545166015625</LongitudeDegrees>
            </Position>
            <AltitudeMeters>757.20001220703125</AltitudeMeters>
            <DistanceMeters>334442.12943509</DistanceMeters>
          </Trackpoint>
          <Trackpoint>
            <Time>2021-07-31T16:37:59.000Z</Time>
            <Position>
              <LatitudeDegrees>42.1850831620395183563232421875</LatitudeDegrees>
              <LongitudeDegrees>-2.26900692097842693328857421875</LongitudeDegrees>
            </Position>
            <AltitudeMeters>757.4000244140625</AltitudeMeters>
            <DistanceMeters>334502.29808147</DistanceMeters>
          </Trackpoint>
          <Trackpoint>
            <Time>2021-07-31T16:38:10.000Z</Time>
            <Position>
              <LatitudeDegrees>42.18451176770031452178955078125</LatitudeDegrees>
              <LongitudeDegrees>-2.269121669232845306396484375</LongitudeDegrees>
            </Position>
            <AltitudeMeters>757.4000244140625</AltitudeMeters>
            <DistanceMeters>334566.59571531</DistanceMeters>
          </Trackpoint>
          <Trackpoint>
            <Time>2021-07-31T16:38:20.000Z</Time>
            <Position>
              <LatitudeDegrees>42.184020839631557464599609375</LatitudeDegrees>
              <LongitudeDegrees>-2.26922468282282352447509765625</LongitudeDegrees>
            </Position>
            <AltitudeMeters>758.5999755859375</AltitudeMeters>
            <DistanceMeters>334621.89342526</DistanceMeters>
          </Trackpoint>
          <Trackpoint>
            <Time>2021-07-31T16:38:27.000Z</Time>
            <Position>
              <LatitudeDegrees>42.183720432221889495849609375</LatitudeDegrees>
              <LongitudeDegrees>-2.269281931221485137939453125</LongitudeDegrees>
            </Position>
            <AltitudeMeters>759.5999755859375</AltitudeMeters>
            <DistanceMeters>334655.66121869</DistanceMeters>
          </Trackpoint>
          <Trackpoint>
            <Time>2021-07-31T16:38:37.000Z</Time>
            <Position>
              <LatitudeDegrees>42.18330762349069118499755859375</LatitudeDegrees>
              <LongitudeDegrees>-2.2693642415106296539306640625</LongitudeDegrees>
            </Position>
            <AltitudeMeters>761</AltitudeMeters>
            <DistanceMeters>334702.10644279</DistanceMeters>
          </Trackpoint>
          <Trackpoint>
            <Time>2021-07-31T16:38:43.000Z</Time>
            <Position>
              <LatitudeDegrees>42.1830649673938751220703125</LatitudeDegrees>
              <LongitudeDegrees>-2.26941796950995922088623046875</LongitudeDegrees>
            </Position>
            <AltitudeMeters>762.4000244140625</AltitudeMeters>
            <DistanceMeters>334729.47562128</DistanceMeters>
          </Trackpoint>
          <Trackpoint>
            <Time>2021-07-31T16:38:47.000Z</Time>
            <Position>
              <LatitudeDegrees>42.18290881253778934478759765625</LatitudeDegrees>
              <LongitudeDegrees>-2.26944596506655216217041015625</LongitudeDegrees>
            </Position>
            <AltitudeMeters>763.20001220703125</AltitudeMeters>
            <DistanceMeters>334747.00850074</DistanceMeters>
          </Trackpoint>
          <Trackpoint>
            <Time>2021-07-31T16:38:58.000Z</Time>
            <Position>
              <LatitudeDegrees>42.18249675817787647247314453125</LatitudeDegrees>
              <LongitudeDegrees>-2.26955191232264041900634765625</LongitudeDegrees>
            </Position>
            <AltitudeMeters>764.5999755859375</AltitudeMeters>
            <DistanceMeters>334793.69592916</DistanceMeters>
          </Trackpoint>
          <Trackpoint>
            <Time>2021-07-31T16:39:12.000Z</Time>
            <Position>
              <LatitudeDegrees>42.18196936883032321929931640625</LatitudeDegrees>
              <LongitudeDegrees>-2.26980856619775295257568359375</LongitudeDegrees>
            </Position>
            <AltitudeMeters>764.5999755859375</AltitudeMeters>
            <DistanceMeters>334856.09556684</DistanceMeters>
          </Trackpoint>
          <Trackpoint>
            <Time>2021-07-31T16:39:24.000Z</Time>
            <Position>
              <LatitudeDegrees>42.18142840079963207244873046875</LatitudeDegrees>
              <LongitudeDegrees>-2.26996798999607563018798828125</LongitudeDegrees>
            </Position>
            <AltitudeMeters>763.79998779296875</AltitudeMeters>
            <DistanceMeters>334917.72535472</DistanceMeters>
          </Trackpoint>
          <Trackpoint>
            <Time>2021-07-31T16:39:35.000Z</Time>
            <Position>
              <LatitudeDegrees>42.18087066896259784698486328125</LatitudeDegrees>
              <LongitudeDegrees>-2.26994502358138561248779296875</LongitudeDegrees>
            </Position>
            <AltitudeMeters>763.79998779296875</AltitudeMeters>
            <DistanceMeters>334979.83096519</DistanceMeters>
          </Trackpoint>
          <Trackpoint>
            <Time>2021-07-31T16:39:37.000Z</Time>
            <Position>
              <LatitudeDegrees>42.1807658113539218902587890625</LatitudeDegrees>
              <LongitudeDegrees>-2.26991836912930011749267578125</LongitudeDegrees>
            </Position>
            <AltitudeMeters>763.4000244140625</AltitudeMeters>
            <DistanceMeters>334991.70702363</DistanceMeters>
          </Trackpoint>
          <Trackpoint>
            <Time>2021-07-31T16:39:48.000Z</Time>
            <Position>
              <LatitudeDegrees>42.18020598404109477996826171875</LatitudeDegrees>
              <LongitudeDegrees>-2.26973983459174633026123046875</LongitudeDegrees>
            </Position>
            <AltitudeMeters>762.5999755859375</AltitudeMeters>
            <DistanceMeters>335055.73317206</DistanceMeters>
          </Trackpoint>
          <Trackpoint>
            <Time>2021-07-31T16:39:52.000Z</Time>
            <Position>
              <LatitudeDegrees>42.1800030581653118133544921875</LatitudeDegrees>
              <LongitudeDegrees>-2.26964964531362056732177734375</LongitudeDegrees>
            </Position>
            <AltitudeMeters>762.20001220703125</AltitudeMeters>
            <DistanceMeters>335079.51264612</DistanceMeters>
          </Trackpoint>
          <Trackpoint>
            <Time>2021-07-31T16:39:59.000Z</Time>
            <Position>
              <LatitudeDegrees>42.1796386130154132843017578125</LatitudeDegrees>
              <LongitudeDegrees>-2.26944697089493274688720703125</LongitudeDegrees>
            </Position>
            <AltitudeMeters>761.20001220703125</AltitudeMeters>
            <DistanceMeters>335123.38546236</DistanceMeters>
          </Trackpoint>
          <Trackpoint>
            <Time>2021-07-31T16:40:08.000Z</Time>
            <Position>
              <LatitudeDegrees>42.1791286580264568328857421875</LatitudeDegrees>
              <LongitudeDegrees>-2.26915259845554828643798828125</LongitudeDegrees>
            </Position>
            <AltitudeMeters>760.79998779296875</AltitudeMeters>
            <DistanceMeters>335185.11948526</DistanceMeters>
          </Trackpoint>
          <Trackpoint>
            <Time>2021-07-31T16:40:18.000Z</Time>
            <Position>
              <LatitudeDegrees>42.17858961783349514007568359375</LatitudeDegrees>
              <LongitudeDegrees>-2.2688532806932926177978515625</LongitudeDegrees>
            </Position>
            <AltitudeMeters>760.5999755859375</AltitudeMeters>
            <DistanceMeters>335249.9966388</DistanceMeters>
          </Trackpoint>
          <Trackpoint>
            <Time>2021-07-31T16:40:27.000Z</Time>
            <Position>
              <LatitudeDegrees>42.1781620569527149200439453125</LatitudeDegrees>
              <LongitudeDegrees>-2.26865873672068119049072265625</LongitudeDegrees>
            </Position>
            <AltitudeMeters>762.20001220703125</AltitudeMeters>
            <DistanceMeters>335300.21751564</DistanceMeters>
          </Trackpoint>
          <Trackpoint>
            <Time>2021-07-31T16:40:34.000Z</Time>
            <Position>
              <LatitudeDegrees>42.17785418964922428131103515625</LatitudeDegrees>
              <LongitudeDegrees>-2.2686340101063251495361328125</LongitudeDegrees>
            </Position>
            <AltitudeMeters>763.4000244140625</AltitudeMeters>
            <DistanceMeters>335334.54439542</DistanceMeters>
          </Trackpoint>
          <Trackpoint>
            <Time>2021-07-31T16:40:38.000Z</Time>
            <Position>
              <LatitudeDegrees>42.1776812709867954254150390625</LatitudeDegrees>
              <LongitudeDegrees>-2.26863987743854522705078125</LongitudeDegrees>
            </Position>
            <AltitudeMeters>764.4000244140625</AltitudeMeters>
            <DistanceMeters>335353.79662952</DistanceMeters>
          </Trackpoint>
          <Trackpoint>
            <Time>2021-07-31T16:40:45.000Z</Time>
            <Position>
              <LatitudeDegrees>42.17738061212003231048583984375</LatitudeDegrees>
              <LongitudeDegrees>-2.26864599622786045074462890625</LongitudeDegrees>
            </Position>
            <AltitudeMeters>765.5999755859375</AltitudeMeters>
            <DistanceMeters>335387.26438537</DistanceMeters>
          </Trackpoint>
          <Trackpoint>
            <Time>2021-07-31T16:40:49.000Z</Time>
            <Position>
              <LatitudeDegrees>42.1772115491330623626708984375</LatitudeDegrees>
              <LongitudeDegrees>-2.26862286217510700225830078125</LongitudeDegrees>
            </Position>
            <AltitudeMeters>766.79998779296875</AltitudeMeters>
            <DistanceMeters>335406.1782826</DistanceMeters>
          </Trackpoint>
          <Trackpoint>
            <Time>2021-07-31T16:41:01.000Z</Time>
            <Position>
              <LatitudeDegrees>42.17667125165462493896484375</LatitudeDegrees>
              <LongitudeDegrees>-2.2684459201991558074951171875</LongitudeDegrees>
            </Position>
            <AltitudeMeters>767.4000244140625</AltitudeMeters>
            <DistanceMeters>335468.06015763</DistanceMeters>
          </Trackpoint>
          <Trackpoint>
            <Time>2021-07-31T16:41:06.000Z</Time>
            <Position>
              <LatitudeDegrees>42.17644686810672283172607421875</LatitudeDegrees>
              <LongitudeDegrees>-2.26835765875875949859619140625</LongitudeDegrees>
            </Position>
            <AltitudeMeters>767.79998779296875</AltitudeMeters>
            <DistanceMeters>335494.07388341</DistanceMeters>
          </Trackpoint>
          <Trackpoint>
            <Time>2021-07-31T16:41:17.000Z</Time>
            <Position>
              <LatitudeDegrees>42.17598821036517620086669921875</LatitudeDegrees>
              <LongitudeDegrees>-2.26806915365159511566162109375</LongitudeDegrees>
            </Position>
            <AltitudeMeters>768.4000244140625</AltitudeMeters>
            <DistanceMeters>335550.39755655</DistanceMeters>
          </Trackpoint>
          <Trackpoint>
            <Time>2021-07-31T16:41:23.000Z</Time>
            <Position>
              <LatitudeDegrees>42.175738178193569183349609375</LatitudeDegrees>
              <LongitudeDegrees>-2.26778165437281131744384765625</LongitudeDegrees>
            </Position>
            <AltitudeMeters>766.5999755859375</AltitudeMeters>
            <DistanceMeters>335586.96012684</DistanceMeters>
          </Trackpoint>
          <Trackpoint>
            <Time>2021-07-31T16:41:26.000Z</Time>
            <Position>
              <LatitudeDegrees>42.175589315593242645263671875</LatitudeDegrees>
              <LongitudeDegrees>-2.267610244452953338623046875</LongitudeDegrees>
            </Position>
            <AltitudeMeters>765.4000244140625</AltitudeMeters>
            <DistanceMeters>335608.74136088</DistanceMeters>
          </Trackpoint>
          <Trackpoint>
            <Time>2021-07-31T16:41:31.000Z</Time>
            <Position>
              <LatitudeDegrees>42.1753148920834064483642578125</LatitudeDegrees>
              <LongitudeDegrees>-2.26728410460054874420166015625</LongitudeDegrees>
            </Position>
            <AltitudeMeters>764</AltitudeMeters>
            <DistanceMeters>335649.44297884</DistanceMeters>
          </Trackpoint>
          <Trackpoint>
            <Time>2021-07-31T16:41:33.000Z</Time>
            <Position>
              <LatitudeDegrees>42.17519746161997318267822265625</LatitudeDegrees>
              <LongitudeDegrees>-2.26714043878018856048583984375</LongitudeDegrees>
            </Position>
            <AltitudeMeters>763</AltitudeMeters>
            <DistanceMeters>335667.08547597</DistanceMeters>
          </Trackpoint>
          <Trackpoint>
            <Time>2021-07-31T16:41:35.000Z</Time>
            <Position>
              <LatitudeDegrees>42.17507726512849330902099609375</LatitudeDegrees>
              <LongitudeDegrees>-2.266983278095722198486328125</LongitudeDegrees>
            </Position>
            <AltitudeMeters>761.79998779296875</AltitudeMeters>
            <DistanceMeters>335685.71386311</DistanceMeters>
          </Trackpoint>
          <Trackpoint>
            <Time>2021-07-31T16:41:37.000Z</Time>
            <Position>
              <LatitudeDegrees>42.17496545054018497467041015625</LatitudeDegrees>
              <LongitudeDegrees>-2.2668007202446460723876953125</LongitudeDegrees>
            </Position>
            <AltitudeMeters>760.5999755859375</AltitudeMeters>
            <DistanceMeters>335705.24919241</DistanceMeters>
          </Trackpoint>
          <Trackpoint>
            <Time>2021-07-31T16:41:39.000Z</Time>
            <Position>
              <LatitudeDegrees>42.17487174086272716522216796875</LatitudeDegrees>
              <LongitudeDegrees>-2.26658857427537441253662109375</LongitudeDegrees>
            </Position>
            <AltitudeMeters>758.79998779296875</AltitudeMeters>
            <DistanceMeters>335725.62040231</DistanceMeters>
          </Trackpoint>
          <Trackpoint>
            <Time>2021-07-31T16:41:40.000Z</Time>
            <Position>
              <LatitudeDegrees>42.17483519576489925384521484375</LatitudeDegrees>
              <LongitudeDegrees>-2.2664701379835605621337890625</LongitudeDegrees>
            </Position>
            <AltitudeMeters>758.20001220703125</AltitudeMeters>
            <DistanceMeters>335736.20212939</DistanceMeters>
          </Trackpoint>
          <Trackpoint>
            <Time>2021-07-31T16:41:41.000Z</Time>
            <Position>
              <LatitudeDegrees>42.17479982413351535797119140625</LatitudeDegrees>
              <LongitudeDegrees>-2.2663480974733829498291015625</LongitudeDegrees>
            </Position>
            <AltitudeMeters>757.79998779296875</AltitudeMeters>
            <DistanceMeters>335747.01097433</DistanceMeters>
          </Trackpoint>
          <Trackpoint>
            <Time>2021-07-31T16:41:44.000Z</Time>
            <Position>
              <LatitudeDegrees>42.17466454021632671356201171875</LatitudeDegrees>
              <LongitudeDegrees>-2.2659900225698947906494140625</LongitudeDegrees>
            </Position>
            <AltitudeMeters>756.5999755859375</AltitudeMeters>
            <DistanceMeters>335780.16399598</DistanceMeters>
          </Trackpoint>
          <Trackpoint>
            <Time>2021-07-31T16:41:46.000Z</Time>
            <Position>
              <LatitudeDegrees>42.1745491214096546173095703125</LatitudeDegrees>
              <LongitudeDegrees>-2.26576781831681728363037109375</LongitudeDegrees>
            </Position>
            <AltitudeMeters>754.79998779296875</AltitudeMeters>
            <DistanceMeters>335802.54636809</DistanceMeters>
          </Trackpoint>
          <Trackpoint>
            <Time>2021-07-31T16:41:49.000Z</Time>
            <Position>
              <LatitudeDegrees>42.17432172037661075592041015625</LatitudeDegrees>
              <LongitudeDegrees>-2.26552105508744716644287109375</LongitudeDegrees>
            </Position>
            <AltitudeMeters>753.5999755859375</AltitudeMeters>
            <DistanceMeters>335835.02577064</DistanceMeters>
          </Trackpoint>
          <Trackpoint>
            <Time>2021-07-31T16:41:51.000Z</Time>
            <Position>
              <LatitudeDegrees>42.17415944673120975494384765625</LatitudeDegrees>
              <LongitudeDegrees>-2.26541720330715179443359375</LongitudeDegrees>
            </Position>
            <AltitudeMeters>753.5999755859375</AltitudeMeters>
            <DistanceMeters>335855.01596756</DistanceMeters>
          </Trackpoint>
          <Trackpoint>
            <Time>2021-07-31T16:41:57.000Z</Time>
            <Position>
              <LatitudeDegrees>42.17371084727346897125244140625</LatitudeDegrees>
              <LongitudeDegrees>-2.2651920653879642486572265625</LongitudeDegrees>
            </Position>
            <AltitudeMeters>754.5999755859375</AltitudeMeters>
            <DistanceMeters>335908.28782837</DistanceMeters>
          </Trackpoint>
          <Trackpoint>
            <Time>2021-07-31T16:42:06.000Z</Time>
            <Position>
              <LatitudeDegrees>42.1731379441916942596435546875</LatitudeDegrees>
              <LongitudeDegrees>-2.265026271343231201171875</LongitudeDegrees>
            </Position>
            <AltitudeMeters>755.79998779296875</AltitudeMeters>
            <DistanceMeters>335973.5031608</DistanceMeters>
          </Trackpoint>
          <Trackpoint>
            <Time>2021-07-31T16:42:09.000Z</Time>
            <Position>
              <LatitudeDegrees>42.1729840524494647979736328125</LatitudeDegrees>
              <LongitudeDegrees>-2.2649835236370563507080078125</LongitudeDegrees>
            </Position>
            <AltitudeMeters>757.20001220703125</AltitudeMeters>
            <DistanceMeters>335990.9906583</DistanceMeters>
          </Trackpoint>
          <Trackpoint>
            <Time>2021-07-31T16:42:13.000Z</Time>
            <Position>
              <LatitudeDegrees>42.17279721982777118682861328125</LatitudeDegrees>
              <LongitudeDegrees>-2.26492946036159992218017578125</LongitudeDegrees>
            </Position>
            <AltitudeMeters>758.4000244140625</AltitudeMeters>
            <DistanceMeters>336012.25839276</DistanceMeters>
          </Trackpoint>
          <Trackpoint>
            <Time>2021-07-31T16:42:18.000Z</Time>
            <Position>
              <LatitudeDegrees>42.17256554402410984039306640625</LatitudeDegrees>
              <LongitudeDegrees>-2.26485955528914928436279296875</LongitudeDegrees>
            </Position>
            <AltitudeMeters>759.4000244140625</AltitudeMeters>
            <DistanceMeters>336038.6809462</DistanceMeters>
          </Trackpoint>
          <Trackpoint>
            <Time>2021-07-31T16:42:27.000Z</Time>
            <Position>
              <LatitudeDegrees>42.17215617187321186065673828125</LatitudeDegrees>
              <LongitudeDegrees>-2.26473198272287845611572265625</LongitudeDegrees>
            </Position>
            <AltitudeMeters>760.5999755859375</AltitudeMeters>
            <DistanceMeters>336085.44432517</DistanceMeters>
          </Trackpoint>
          <Trackpoint>
            <Time>2021-07-31T16:42:34.000Z</Time>
            <Position>
              <LatitudeDegrees>42.1718478016555309295654296875</LatitudeDegrees>
              <LongitudeDegrees>-2.26463265717029571533203125</LongitudeDegrees>
            </Position>
            <AltitudeMeters>761.5999755859375</AltitudeMeters>
            <DistanceMeters>336120.73098286</DistanceMeters>
          </Trackpoint>
          <Trackpoint>
            <Time>2021-07-31T16:42:39.000Z</Time>
            <Position>
              <LatitudeDegrees>42.1716198138892650604248046875</LatitudeDegrees>
              <LongitudeDegrees>-2.2645661048591136932373046875</LongitudeDegrees>
            </Position>
            <AltitudeMeters>762.5999755859375</AltitudeMeters>
            <DistanceMeters>336146.69328295</DistanceMeters>
          </Trackpoint>
          <Trackpoint>
            <Time>2021-07-31T16:42:47.000Z</Time>
            <Position>
              <LatitudeDegrees>42.17124656774103641510009765625</LatitudeDegrees>
              <LongitudeDegrees>-2.264451943337917327880859375</LongitudeDegrees>
            </Position>
            <AltitudeMeters>763.5999755859375</AltitudeMeters>
            <DistanceMeters>336189.29027299</DistanceMeters>
          </Trackpoint>
          <Trackpoint>
            <Time>2021-07-31T16:42:54.000Z</Time>
            <Position>
              <LatitudeDegrees>42.1709160692989826202392578125</LatitudeDegrees>
              <LongitudeDegrees>-2.26434926502406597137451171875</LongitudeDegrees>
            </Position>
            <AltitudeMeters>764.79998779296875</AltitudeMeters>
            <DistanceMeters>336227.03777387</DistanceMeters>
          </Trackpoint>
          <Trackpoint>
            <Time>2021-07-31T16:43:06.000Z</Time>
            <Position>
              <LatitudeDegrees>42.170348949730396270751953125</LatitudeDegrees>
              <LongitudeDegrees>-2.264170981943607330322265625</LongitudeDegrees>
            </Position>
            <AltitudeMeters>765.4000244140625</AltitudeMeters>
            <DistanceMeters>336291.84989434</DistanceMeters>
          </Trackpoint>
          <Trackpoint>
            <Time>2021-07-31T16:43:14.000Z</Time>
            <Position>
              <LatitudeDegrees>42.16996975243091583251953125</LatitudeDegrees>
              <LongitudeDegrees>-2.26405757479369640350341796875</LongitudeDegrees>
            </Position>
            <AltitudeMeters>765.79998779296875</AltitudeMeters>
            <DistanceMeters>336335.07963457</DistanceMeters>
          </Trackpoint>
          <Trackpoint>
            <Time>2021-07-31T16:43:25.000Z</Time>
            <Position>
              <LatitudeDegrees>42.16943087987601757049560546875</LatitudeDegrees>
              <LongitudeDegrees>-2.26389236748218536376953125</LongitudeDegrees>
            </Position>
            <AltitudeMeters>766</AltitudeMeters>
            <DistanceMeters>336396.5860746</DistanceMeters>
          </Trackpoint>
          <Trackpoint>
            <Time>2021-07-31T16:43:32.000Z</Time>
            <Position>
              <LatitudeDegrees>42.16906995512545108795166015625</LatitudeDegrees>
              <LongitudeDegrees>-2.26377862505614757537841796875</LongitudeDegrees>
            </Position>
            <AltitudeMeters>766.79998779296875</AltitudeMeters>
            <DistanceMeters>336437.83905276</DistanceMeters>
          </Trackpoint>
          <Trackpoint>
            <Time>2021-07-31T16:43:42.000Z</Time>
            <Position>
              <LatitudeDegrees>42.16853745281696319580078125</LatitudeDegrees>
              <LongitudeDegrees>-2.26361651904881000518798828125</LongitudeDegrees>
            </Position>
            <AltitudeMeters>767.4000244140625</AltitudeMeters>
            <DistanceMeters>336498.59762097</DistanceMeters>
          </Trackpoint>
          <Trackpoint>
            <Time>2021-07-31T16:43:46.000Z</Time>
            <Position>
              <LatitudeDegrees>42.1683289110660552978515625</LatitudeDegrees>
              <LongitudeDegrees>-2.26355298422276973724365234375</LongitudeDegrees>
            </Position>
            <AltitudeMeters>768</AltitudeMeters>
            <DistanceMeters>336522.39303887</DistanceMeters>
          </Trackpoint>
          <Trackpoint>
            <Time>2021-07-31T16:43:53.000Z</Time>
            <Position>
              <LatitudeDegrees>42.16797427274286746978759765625</LatitudeDegrees>
              <LongitudeDegrees>-2.26344251073896884918212890625</LongitudeDegrees>
            </Position>
            <AltitudeMeters>769</AltitudeMeters>
            <DistanceMeters>336562.90340758</DistanceMeters>
          </Trackpoint>
          <Trackpoint>
            <Time>2021-07-31T16:44:04.000Z</Time>
            <Position>
              <LatitudeDegrees>42.1674245037138462066650390625</LatitudeDegrees>
              <LongitudeDegrees>-2.26326917298138141632080078125</LongitudeDegrees>
            </Position>
            <AltitudeMeters>770</AltitudeMeters>
            <DistanceMeters>336625.74244058</DistanceMeters>
          </Trackpoint>
          <Trackpoint>
            <Time>2021-07-31T16:44:12.000Z</Time>
            <Position>
              <LatitudeDegrees>42.16703943908214569091796875</LatitudeDegrees>
              <LongitudeDegrees>-2.2631500661373138427734375</LongitudeDegrees>
            </Position>
            <AltitudeMeters>771.20001220703125</AltitudeMeters>
            <DistanceMeters>336669.71281182</DistanceMeters>
          </Trackpoint>
          <Trackpoint>
            <Time>2021-07-31T16:44:19.000Z</Time>
            <Position>
              <LatitudeDegrees>42.1667197532951831817626953125</LatitudeDegrees>
              <LongitudeDegrees>-2.26304789073765277862548828125</LongitudeDegrees>
            </Position>
            <AltitudeMeters>772.4000244140625</AltitudeMeters>
            <DistanceMeters>336706.27921004</DistanceMeters>
          </Trackpoint>
          <Trackpoint>
            <Time>2021-07-31T16:44:24.000Z</Time>
            <Position>
              <LatitudeDegrees>42.16650861315429210662841796875</LatitudeDegrees>
              <LongitudeDegrees>-2.26298552937805652618408203125</LongitudeDegrees>
            </Position>
            <AltitudeMeters>773.4000244140625</AltitudeMeters>
            <DistanceMeters>336730.33617576</DistanceMeters>
          </Trackpoint>
          <Trackpoint>
            <Time>2021-07-31T16:44:31.000Z</Time>
            <Position>
              <LatitudeDegrees>42.1662218682467937469482421875</LatitudeDegrees>
              <LongitudeDegrees>-2.262896932661533355712890625</LongitudeDegrees>
            </Position>
            <AltitudeMeters>774.5999755859375</AltitudeMeters>
            <DistanceMeters>336763.07767122</DistanceMeters>
          </Trackpoint>
          <Trackpoint>
            <Time>2021-07-31T16:44:35.000Z</Time>
            <Position>
              <LatitudeDegrees>42.16605934314429759979248046875</LatitudeDegrees>
              <LongitudeDegrees>-2.26284622214734554290771484375</LongitudeDegrees>
            </Position>
            <AltitudeMeters>775.79998779296875</AltitudeMeters>
            <DistanceMeters>336781.64463646</DistanceMeters>
          </Trackpoint>
          <Trackpoint>
            <Time>2021-07-31T16:44:41.000Z</Time>
            <Position>
              <LatitudeDegrees>42.16581811197102069854736328125</LatitudeDegrees>
              <LongitudeDegrees>-2.2627760656177997589111328125</LongitudeDegrees>
            </Position>
            <AltitudeMeters>777.20001220703125</AltitudeMeters>
            <DistanceMeters>336809.11080923</DistanceMeters>
          </Trackpoint>
          <Trackpoint>
            <Time>2021-07-31T16:44:51.000Z</Time>
            <Position>
              <LatitudeDegrees>42.1654061414301395416259765625</LatitudeDegrees>
              <LongitudeDegrees>-2.2626654244959354400634765625</LongitudeDegrees>
            </Position>
            <AltitudeMeters>778.20001220703125</AltitudeMeters>
            <DistanceMeters>336855.86356641</DistanceMeters>
          </Trackpoint>
          <Trackpoint>
            <Time>2021-07-31T16:45:04.000Z</Time>
            <Position>
              <LatitudeDegrees>42.16484229080379009246826171875</LatitudeDegrees>
              <LongitudeDegrees>-2.26252133958041667938232421875</LongitudeDegrees>
            </Position>
            <AltitudeMeters>778.79998779296875</AltitudeMeters>
            <DistanceMeters>336919.73707154</DistanceMeters>
          </Trackpoint>
          <Trackpoint>
            <Time>2021-07-31T16:45:07.000Z</Time>
            <Position>
              <LatitudeDegrees>42.1647104434669017791748046875</LatitudeDegrees>
              <LongitudeDegrees>-2.2624917514622211456298828125</LongitudeDegrees>
            </Position>
            <AltitudeMeters>779.20001220703125</AltitudeMeters>
            <DistanceMeters>336934.61353326</DistanceMeters>
          </Trackpoint>
          <Trackpoint>
            <Time>2021-07-31T16:45:20.000Z</Time>
            <Position>
              <LatitudeDegrees>42.16413460671901702880859375</LatitudeDegrees>
              <LongitudeDegrees>-2.2623720578849315643310546875</LongitudeDegrees>
            </Position>
            <AltitudeMeters>779.20001220703125</AltitudeMeters>
            <DistanceMeters>336999.46159013</DistanceMeters>
          </Trackpoint>
          <Trackpoint>
            <Time>2021-07-31T16:45:29.000Z</Time>
            <Position>
              <LatitudeDegrees>42.163680978119373321533203125</LatitudeDegrees>
              <LongitudeDegrees>-2.26232218556106090545654296875</LongitudeDegrees>
            </Position>
            <AltitudeMeters>778.20001220703125</AltitudeMeters>
            <DistanceMeters>337050.11876202</DistanceMeters>
          </Trackpoint>
          <Trackpoint>
            <Time>2021-07-31T16:45:34.000Z</Time>
            <Position>
              <LatitudeDegrees>42.16340060345828533172607421875</LatitudeDegrees>
              <LongitudeDegrees>-2.26230491884052753448486328125</LongitudeDegrees>
            </Position>
            <AltitudeMeters>777.20001220703125</AltitudeMeters>
            <DistanceMeters>337081.35755683</DistanceMeters>
          </Trackpoint>
          <Trackpoint>
            <Time>2021-07-31T16:45:38.000Z</Time>
            <Position>
              <LatitudeDegrees>42.16316775418817996978759765625</LatitudeDegrees>
              <LongitudeDegrees>-2.2622889094054698944091796875</LongitudeDegrees>
            </Position>
            <AltitudeMeters>776</AltitudeMeters>
            <DistanceMeters>337107.30768054</DistanceMeters>
          </Trackpoint>
          <Trackpoint>
            <Time>2021-07-31T16:45:47.000Z</Time>
            <Position>
              <LatitudeDegrees>42.16261806897819042205810546875</LatitudeDegrees>
              <LongitudeDegrees>-2.26224842481315135955810546875</LongitudeDegrees>
            </Position>
            <AltitudeMeters>775.20001220703125</AltitudeMeters>
            <DistanceMeters>337168.57994508</DistanceMeters>
          </Trackpoint>
          <Trackpoint>
            <Time>2021-07-31T16:45:48.000Z</Time>
            <Position>
              <LatitudeDegrees>42.1625552885234355926513671875</LatitudeDegrees>
              <LongitudeDegrees>-2.26224490441381931304931640625</LongitudeDegrees>
            </Position>
            <AltitudeMeters>775</AltitudeMeters>
            <DistanceMeters>337175.57458261</DistanceMeters>
          </Trackpoint>
          <Trackpoint>
            <Time>2021-07-31T16:45:58.000Z</Time>
            <Position>
              <LatitudeDegrees>42.16196260415017604827880859375</LatitudeDegrees>
              <LongitudeDegrees>-2.262194193899631500244140625</LongitudeDegrees>
            </Position>
            <AltitudeMeters>775</AltitudeMeters>
            <DistanceMeters>337241.67404764</DistanceMeters>
          </Trackpoint>
          <Trackpoint>
            <Time>2021-07-31T16:46:05.000Z</Time>
            <Position>
              <LatitudeDegrees>42.16156664304435253143310546875</LatitudeDegrees>
              <LongitudeDegrees>-2.26216024719178676605224609375</LongitudeDegrees>
            </Position>
            <AltitudeMeters>775.4000244140625</AltitudeMeters>
            <DistanceMeters>337285.83428177</DistanceMeters>
          </Trackpoint>
          <Trackpoint>
            <Time>2021-07-31T16:46:10.000Z</Time>
            <Position>
              <LatitudeDegrees>42.16125433333218097686767578125</LatitudeDegrees>
              <LongitudeDegrees>-2.26198288612067699432373046875</LongitudeDegrees>
            </Position>
            <AltitudeMeters>775.79998779296875</AltitudeMeters>
            <DistanceMeters>337323.54935398</DistanceMeters>
          </Trackpoint>
          <Trackpoint>
            <Time>2021-07-31T16:46:11.000Z</Time>
            <Position>
              <LatitudeDegrees>42.16119364835321903228759765625</LatitudeDegrees>
              <LongitudeDegrees>-2.26193309761583805084228515625</LongitudeDegrees>
            </Position>
            <AltitudeMeters>776.20001220703125</AltitudeMeters>
            <DistanceMeters>337331.45543956</DistanceMeters>
          </Trackpoint>
          <Trackpoint>
            <Time>2021-07-31T16:46:16.000Z</Time>
            <Position>
              <LatitudeDegrees>42.16088301502168178558349609375</LatitudeDegrees>
              <LongitudeDegrees>-2.26167962886393070220947265625</LongitudeDegrees>
            </Position>
            <AltitudeMeters>777.4000244140625</AltitudeMeters>
            <DistanceMeters>337371.86191146</DistanceMeters>
          </Trackpoint>
          <Trackpoint>
            <Time>2021-07-31T16:46:19.000Z</Time>
            <Position>
              <LatitudeDegrees>42.160697691142559051513671875</LatitudeDegrees>
              <LongitudeDegrees>-2.26152397692203521728515625</LongitudeDegrees>
            </Position>
            <AltitudeMeters>778.5999755859375</AltitudeMeters>
            <DistanceMeters>337396.15977963</DistanceMeters>
          </Trackpoint>
          <Trackpoint>
            <Time>2021-07-31T16:46:23.000Z</Time>
            <Position>
              <LatitudeDegrees>42.16045570559799671173095703125</LatitudeDegrees>
              <LongitudeDegrees>-2.26132591255009174346923828125</LongitudeDegrees>
            </Position>
            <AltitudeMeters>780</AltitudeMeters>
            <DistanceMeters>337427.66296283</DistanceMeters>
          </Trackpoint>
          <Trackpoint>
            <Time>2021-07-31T16:46:27.000Z</Time>
            <Position>
              <LatitudeDegrees>42.16022671200335025787353515625</LatitudeDegrees>
              <LongitudeDegrees>-2.261147461831569671630859375</LongitudeDegrees>
            </Position>
            <AltitudeMeters>781</AltitudeMeters>
            <DistanceMeters>337457.09732463</DistanceMeters>
          </Trackpoint>
          <Trackpoint>
            <Time>2021-07-31T16:46:37.000Z</Time>
            <Position>
              <LatitudeDegrees>42.15967484749853610992431640625</LatitudeDegrees>
              <LongitudeDegrees>-2.26095509715378284454345703125</LongitudeDegrees>
            </Position>
            <AltitudeMeters>781.79998779296875</AltitudeMeters>
            <DistanceMeters>337520.53824377</DistanceMeters>
          </Trackpoint>
          <Trackpoint>
            <Time>2021-07-31T16:46:40.000Z</Time>
            <Position>
              <LatitudeDegrees>42.1595220454037189483642578125</LatitudeDegrees>
              <LongitudeDegrees>-2.2609357349574565887451171875</LongitudeDegrees>
            </Position>
            <AltitudeMeters>782.20001220703125</AltitudeMeters>
            <DistanceMeters>337537.62007213</DistanceMeters>
          </Trackpoint>
          <Trackpoint>
            <Time>2021-07-31T16:46:47.000Z</Time>
            <Position>
              <LatitudeDegrees>42.15917713008821010589599609375</LatitudeDegrees>
              <LongitudeDegrees>-2.2609444521367549896240234375</LongitudeDegrees>
            </Position>
            <AltitudeMeters>783.4000244140625</AltitudeMeters>
            <DistanceMeters>337576.01650947</DistanceMeters>
          </Trackpoint>
          <Trackpoint>
            <Time>2021-07-31T16:46:48.000Z</Time>
            <Position>
              <LatitudeDegrees>42.15912616811692714691162109375</LatitudeDegrees>
              <LongitudeDegrees>-2.260960377752780914306640625</LongitudeDegrees>
            </Position>
            <AltitudeMeters>783.4000244140625</AltitudeMeters>
            <DistanceMeters>337581.83878626</DistanceMeters>
          </Trackpoint>
          <Trackpoint>
            <Time>2021-07-31T16:46:52.000Z</Time>
            <Position>
              <LatitudeDegrees>42.1589336358010768890380859375</LatitudeDegrees>
              <LongitudeDegrees>-2.2610847651958465576171875</LongitudeDegrees>
            </Position>
            <AltitudeMeters>784.4000244140625</AltitudeMeters>
            <DistanceMeters>337605.59869554</DistanceMeters>
          </Trackpoint>
          <Trackpoint>
            <Time>2021-07-31T16:46:59.000Z</Time>
            <Position>
              <LatitudeDegrees>42.1586634032428264617919921875</LatitudeDegrees>
              <LongitudeDegrees>-2.261376120150089263916015625</LongitudeDegrees>
            </Position>
            <AltitudeMeters>785.5999755859375</AltitudeMeters>
            <DistanceMeters>337644.10199111</DistanceMeters>
          </Trackpoint>
          <Trackpoint>
            <Time>2021-07-31T16:47:06.000Z</Time>
            <Position>
              <LatitudeDegrees>42.1583998762071132659912109375</LatitudeDegrees>
              <LongitudeDegrees>-2.261642329394817352294921875</LongitudeDegrees>
            </Position>
            <AltitudeMeters>786.5999755859375</AltitudeMeters>
            <DistanceMeters>337680.74535677</DistanceMeters>
          </Trackpoint>
          <Trackpoint>
            <Time>2021-07-31T16:47:17.000Z</Time>
            <Position>
              <LatitudeDegrees>42.157901488244533538818359375</LatitudeDegrees>
              <LongitudeDegrees>-2.26184676401317119598388671875</LongitudeDegrees>
            </Position>
            <AltitudeMeters>787.79998779296875</AltitudeMeters>
            <DistanceMeters>337738.72465884</DistanceMeters>
          </Trackpoint>
          <Trackpoint>
            <Time>2021-07-31T16:47:24.000Z</Time>
            <Position>
              <LatitudeDegrees>42.15757953934371471405029296875</LatitudeDegrees>
              <LongitudeDegrees>-2.2619610093533992767333984375</LongitudeDegrees>
            </Position>
            <AltitudeMeters>789</AltitudeMeters>
            <DistanceMeters>337775.7771577</DistanceMeters>
          </Trackpoint>
          <Trackpoint>
            <Time>2021-07-31T16:47:28.000Z</Time>
            <Position>
              <LatitudeDegrees>42.15741030871868133544921875</LatitudeDegrees>
              <LongitudeDegrees>-2.262060754001140594482421875</LongitudeDegrees>
            </Position>
            <AltitudeMeters>790.20001220703125</AltitudeMeters>
            <DistanceMeters>337796.33238275</DistanceMeters>
          </Trackpoint>
          <Trackpoint>
            <Time>2021-07-31T16:47:31.000Z</Time>
            <Position>
              <LatitudeDegrees>42.1572948060929775238037109375</LatitudeDegrees>
              <LongitudeDegrees>-2.2621427290141582489013671875</LongitudeDegrees>
            </Position>
            <AltitudeMeters>791.20001220703125</AltitudeMeters>
            <DistanceMeters>337810.85873213</DistanceMeters>
          </Trackpoint>
          <Trackpoint>
            <Time>2021-07-31T16:47:40.000Z</Time>
            <Position>
              <LatitudeDegrees>42.15698040090501308441162109375</LatitudeDegrees>
              <LongitudeDegrees>-2.2623633407056331634521484375</LongitudeDegrees>
            </Position>
            <AltitudeMeters>792.4000244140625</AltitudeMeters>
            <DistanceMeters>337850.30363334</DistanceMeters>
          </Trackpoint>
          <Trackpoint>
            <Time>2021-07-31T16:47:55.000Z</Time>
            <Position>
              <LatitudeDegrees>42.156476564705371856689453125</LatitudeDegrees>
              <LongitudeDegrees>-2.26271144114434719085693359375</LongitudeDegrees>
            </Position>
            <AltitudeMeters>793.20001220703125</AltitudeMeters>
            <DistanceMeters>337913.30885316</DistanceMeters>
          </Trackpoint>
          <Trackpoint>
            <Time>2021-07-31T16:48:07.000Z</Time>
            <Position>
              <LatitudeDegrees>42.15599812567234039306640625</LatitudeDegrees>
              <LongitudeDegrees>-2.26306465454399585723876953125</LongitudeDegrees>
            </Position>
            <AltitudeMeters>792.79998779296875</AltitudeMeters>
            <DistanceMeters>337974.01344752</DistanceMeters>
          </Trackpoint>
          <Trackpoint>
            <Time>2021-07-31T16:48:18.000Z</Time>
            <Position>
              <LatitudeDegrees>42.155498564243316650390625</LatitudeDegrees>
              <LongitudeDegrees>-2.26343949325382709503173828125</LongitudeDegrees>
            </Position>
            <AltitudeMeters>791.5999755859375</AltitudeMeters>
            <DistanceMeters>338037.63856976</DistanceMeters>
          </Trackpoint>
          <Trackpoint>
            <Time>2021-07-31T16:48:19.000Z</Time>
            <Position>
              <LatitudeDegrees>42.15545087121427059173583984375</LatitudeDegrees>
              <LongitudeDegrees>-2.26347503252327442169189453125</LongitudeDegrees>
            </Position>
            <AltitudeMeters>791.20001220703125</AltitudeMeters>
            <DistanceMeters>338043.70243579</DistanceMeters>
          </Trackpoint>
          <Trackpoint>
            <Time>2021-07-31T16:48:24.000Z</Time>
            <Position>
              <LatitudeDegrees>42.1552160941064357757568359375</LatitudeDegrees>
              <LongitudeDegrees>-2.26365440525114536285400390625</LongitudeDegrees>
            </Position>
            <AltitudeMeters>790</AltitudeMeters>
            <DistanceMeters>338073.73373421</DistanceMeters>
          </Trackpoint>
          <Trackpoint>
            <Time>2021-07-31T16:48:32.000Z</Time>
            <Position>
              <LatitudeDegrees>42.15483077801764011383056640625</LatitudeDegrees>
              <LongitudeDegrees>-2.2639466822147369384765625</LongitudeDegrees>
            </Position>
            <AltitudeMeters>789</AltitudeMeters>
            <DistanceMeters>338122.93582872</DistanceMeters>
          </Trackpoint>
          <Trackpoint>
            <Time>2021-07-31T16:48:42.000Z</Time>
            <Position>
              <LatitudeDegrees>42.154345214366912841796875</LatitudeDegrees>
              <LongitudeDegrees>-2.264323197305202484130859375</LongitudeDegrees>
            </Position>
            <AltitudeMeters>788.4000244140625</AltitudeMeters>
            <DistanceMeters>338185.27320848</DistanceMeters>
          </Trackpoint>
          <Trackpoint>
            <Time>2021-07-31T16:48:52.000Z</Time>
            <Position>
              <LatitudeDegrees>42.153868116438388824462890625</LatitudeDegrees>
              <LongitudeDegrees>-2.26467800326645374298095703125</LongitudeDegrees>
            </Position>
            <AltitudeMeters>788.5999755859375</AltitudeMeters>
            <DistanceMeters>338245.91067748</DistanceMeters>
          </Trackpoint>
          <Trackpoint>
            <Time>2021-07-31T16:49:03.000Z</Time>
            <Position>
              <LatitudeDegrees>42.153319604694843292236328125</LatitudeDegrees>
              <LongitudeDegrees>-2.2648747265338897705078125</LongitudeDegrees>
            </Position>
            <AltitudeMeters>789.20001220703125</AltitudeMeters>
            <DistanceMeters>338309.08221873</DistanceMeters>
          </Trackpoint>
          <Trackpoint>
            <Time>2021-07-31T16:49:05.000Z</Time>
            <Position>
              <LatitudeDegrees>42.15322933159768581390380859375</LatitudeDegrees>
              <LongitudeDegrees>-2.26490548811852931976318359375</LongitudeDegrees>
            </Position>
            <AltitudeMeters>790</AltitudeMeters>
            <DistanceMeters>338319.4453601</DistanceMeters>
          </Trackpoint>
          <Trackpoint>
            <Time>2021-07-31T16:49:09.000Z</Time>
            <Position>
              <LatitudeDegrees>42.1530424989759922027587890625</LatitudeDegrees>
              <LongitudeDegrees>-2.2649748064577579498291015625</LongitudeDegrees>
            </Position>
            <AltitudeMeters>790.5999755859375</AltitudeMeters>
            <DistanceMeters>338341.01244701</DistanceMeters>
          </Trackpoint>
          <Trackpoint>
            <Time>2021-07-31T16:49:11.000Z</Time>
            <Position>
              <LatitudeDegrees>42.15294870547950267791748046875</LatitudeDegrees>
              <LongitudeDegrees>-2.265022583305835723876953125</LongitudeDegrees>
            </Position>
            <AltitudeMeters>790.5999755859375</AltitudeMeters>
            <DistanceMeters>338352.17151301</DistanceMeters>
          </Trackpoint>
          <Trackpoint>
            <Time>2021-07-31T16:49:16.000Z</Time>
            <Position>
              <LatitudeDegrees>42.152748964726924896240234375</LatitudeDegrees>
              <LongitudeDegrees>-2.2652289457619190216064453125</LongitudeDegrees>
            </Position>
            <AltitudeMeters>790.20001220703125</AltitudeMeters>
            <DistanceMeters>338380.17490385</DistanceMeters>
          </Trackpoint>
          <Trackpoint>
            <Time>2021-07-31T16:49:23.000Z</Time>
            <Position>
              <LatitudeDegrees>42.15250228531658649444580078125</LatitudeDegrees>
              <LongitudeDegrees>-2.26562331430613994598388671875</LongitudeDegrees>
            </Position>
            <AltitudeMeters>789</AltitudeMeters>
            <DistanceMeters>338422.75132604</DistanceMeters>
          </Trackpoint>
          <Trackpoint>
            <Time>2021-07-31T16:49:28.000Z</Time>
            <Position>
              <LatitudeDegrees>42.15232081711292266845703125</LatitudeDegrees>
              <LongitudeDegrees>-2.26591181941330432891845703125</LongitudeDegrees>
            </Position>
            <AltitudeMeters>787.79998779296875</AltitudeMeters>
            <DistanceMeters>338453.97103665</DistanceMeters>
          </Trackpoint>
          <Trackpoint>
            <Time>2021-07-31T16:49:38.000Z</Time>
            <Position>
              <LatitudeDegrees>42.15192812494933605194091796875</LatitudeDegrees>
              <LongitudeDegrees>-2.2665046714246273040771484375</LongitudeDegrees>
            </Position>
            <AltitudeMeters>787</AltitudeMeters>
            <DistanceMeters>338519.57168811</DistanceMeters>
          </Trackpoint>
          <Trackpoint>
            <Time>2021-07-31T16:49:41.000Z</Time>
            <Position>
              <LatitudeDegrees>42.1517929248511791229248046875</LatitudeDegrees>
              <LongitudeDegrees>-2.266654707491397857666015625</LongitudeDegrees>
            </Position>
            <AltitudeMeters>787</AltitudeMeters>
            <DistanceMeters>338539.057958</DistanceMeters>
          </Trackpoint>
          <Trackpoint>
            <Time>2021-07-31T16:49:44.000Z</Time>
            <Position>
              <LatitudeDegrees>42.151642553508281707763671875</LatitudeDegrees>
              <LongitudeDegrees>-2.26673928089439868927001953125</LongitudeDegrees>
            </Position>
            <AltitudeMeters>786.79998779296875</AltitudeMeters>
            <DistanceMeters>338557.1913858</DistanceMeters>
          </Trackpoint>
          <Trackpoint>
            <Time>2021-07-31T16:49:50.000Z</Time>
            <Position>
              <LatitudeDegrees>42.151323370635509490966796875</LatitudeDegrees>
              <LongitudeDegrees>-2.26688931696116924285888671875</LongitudeDegrees>
            </Position>
            <AltitudeMeters>786</AltitudeMeters>
            <DistanceMeters>338594.81260483</DistanceMeters>
          </Trackpoint>
          <Trackpoint>
            <Time>2021-07-31T16:50:00.000Z</Time>
            <Position>
              <LatitudeDegrees>42.15077158994972705841064453125</LatitudeDegrees>
              <LongitudeDegrees>-2.26707120425999164581298828125</LongitudeDegrees>
            </Position>
            <AltitudeMeters>784.79998779296875</AltitudeMeters>
            <DistanceMeters>338658.03429997</DistanceMeters>
          </Trackpoint>
          <Trackpoint>
            <Time>2021-07-31T16:50:01.000Z</Time>
            <Position>
              <LatitudeDegrees>42.15071794576942920684814453125</LatitudeDegrees>
              <LongitudeDegrees>-2.2670769877731800079345703125</LongitudeDegrees>
            </Position>
            <AltitudeMeters>785</AltitudeMeters>
            <DistanceMeters>338664.02475269</DistanceMeters>
          </Trackpoint>
          <Trackpoint>
            <Time>2021-07-31T16:50:12.000Z</Time>
            <Position>
              <LatitudeDegrees>42.1501956693828105926513671875</LatitudeDegrees>
              <LongitudeDegrees>-2.2671202383935451507568359375</LongitudeDegrees>
            </Position>
            <AltitudeMeters>786.20001220703125</AltitudeMeters>
            <DistanceMeters>338722.26457853</DistanceMeters>
          </Trackpoint>
          <Trackpoint>
            <Time>2021-07-31T16:50:15.000Z</Time>
            <Position>
              <LatitudeDegrees>42.150112688541412353515625</LatitudeDegrees>
              <LongitudeDegrees>-2.26713306270539760589599609375</LongitudeDegrees>
            </Position>
            <AltitudeMeters>787.20001220703125</AltitudeMeters>
            <DistanceMeters>338731.5606977</DistanceMeters>
          </Trackpoint>
          <Trackpoint>
            <Time>2021-07-31T16:50:21.000Z</Time>
            <Position>
              <LatitudeDegrees>42.15001671575009822845458984375</LatitudeDegrees>
              <LongitudeDegrees>-2.26715904660522937774658203125</LongitudeDegrees>
            </Position>
            <AltitudeMeters>788.20001220703125</AltitudeMeters>
            <DistanceMeters>338742.45566695</DistanceMeters>
          </Trackpoint>
          <Trackpoint>
            <Time>2021-07-31T16:50:31.000Z</Time>
            <Position>
              <LatitudeDegrees>42.14993524365127086639404296875</LatitudeDegrees>
              <LongitudeDegrees>-2.26715929806232452392578125</LongitudeDegrees>
            </Position>
            <AltitudeMeters>788.79998779296875</AltitudeMeters>
            <DistanceMeters>338751.52362571</DistanceMeters>
          </Trackpoint>
          <Trackpoint>
            <Time>2021-07-31T16:50:42.000Z</Time>
            <Position>
              <LatitudeDegrees>42.14994261972606182098388671875</LatitudeDegrees>
              <LongitudeDegrees>-2.26713792420923709869384765625</LongitudeDegrees>
            </Position>
            <AltitudeMeters>788.4000244140625</AltitudeMeters>
            <DistanceMeters>338753.47109383</DistanceMeters>
          </Trackpoint>
          <Trackpoint>
            <Time>2021-07-31T16:50:48.000Z</Time>
            <Position>
              <LatitudeDegrees>42.150009088218212127685546875</LatitudeDegrees>
              <LongitudeDegrees>-2.2671614773571491241455078125</LongitudeDegrees>
            </Position>
            <AltitudeMeters>788.20001220703125</AltitudeMeters>
            <DistanceMeters>338761.12059678</DistanceMeters>
          </Trackpoint>
          <Trackpoint>
            <Time>2021-08-01T07:11:22.000Z</Time>
            <Position>
              <LatitudeDegrees>42.1479654125869274139404296875</LatitudeDegrees>
              <LongitudeDegrees>-2.268545329570770263671875</LongitudeDegrees>
            </Position>
            <AltitudeMeters>797.4000244140625</AltitudeMeters>
            <DistanceMeters>339015.64145135</DistanceMeters>
          </Trackpoint>
          <Trackpoint>
            <Time>2021-08-01T07:11:31.000Z</Time>
            <Position>
              <LatitudeDegrees>42.1478447131812572479248046875</LatitudeDegrees>
              <LongitudeDegrees>-2.2688720561563968658447265625</LongitudeDegrees>
            </Position>
            <AltitudeMeters>796</AltitudeMeters>
            <DistanceMeters>339045.76476992</DistanceMeters>
          </Trackpoint>
          <Trackpoint>
            <Time>2021-08-01T07:11:34.000Z</Time>
            <Position>
              <LatitudeDegrees>42.14778947643935680389404296875</LatitudeDegrees>
              <LongitudeDegrees>-2.2690634988248348236083984375</LongitudeDegrees>
            </Position>
            <AltitudeMeters>795.20001220703125</AltitudeMeters>
            <DistanceMeters>339062.71712028</DistanceMeters>
          </Trackpoint>
          <Trackpoint>
            <Time>2021-08-01T07:11:40.000Z</Time>
            <Position>
              <LatitudeDegrees>42.14769073761999607086181640625</LatitudeDegrees>
              <LongitudeDegrees>-2.26951737888157367706298828125</LongitudeDegrees>
            </Position>
            <AltitudeMeters>794</AltitudeMeters>
            <DistanceMeters>339101.75101323</DistanceMeters>
          </Trackpoint>
          <Trackpoint>
            <Time>2021-08-01T07:11:47.000Z</Time>
            <Position>
              <LatitudeDegrees>42.1476251073181629180908203125</LatitudeDegrees>
              <LongitudeDegrees>-2.27001761086285114288330078125</LongitudeDegrees>
            </Position>
            <AltitudeMeters>793.79998779296875</AltitudeMeters>
            <DistanceMeters>339143.67212124</DistanceMeters>
          </Trackpoint>
          <Trackpoint>
            <Time>2021-08-01T07:11:52.000Z</Time>
            <Position>
              <LatitudeDegrees>42.14764262549579143524169921875</LatitudeDegrees>
              <LongitudeDegrees>-2.2702688165009021759033203125</LongitudeDegrees>
            </Position>
            <AltitudeMeters>795.20001220703125</AltitudeMeters>
            <DistanceMeters>339164.49359982</DistanceMeters>
          </Trackpoint>
          <Trackpoint>
            <Time>2021-08-01T07:11:57.000Z</Time>
            <Position>
              <LatitudeDegrees>42.14767145924270153045654296875</LatitudeDegrees>
              <LongitudeDegrees>-2.2704632766544818878173828125</LongitudeDegrees>
            </Position>
            <AltitudeMeters>796.20001220703125</AltitudeMeters>
            <DistanceMeters>339180.85862371</DistanceMeters>
          </Trackpoint>
          <Trackpoint>
            <Time>2021-08-01T07:12:08.000Z</Time>
            <Position>
              <LatitudeDegrees>42.147743292152881622314453125</LatitudeDegrees>
              <LongitudeDegrees>-2.2708131372928619384765625</LongitudeDegrees>
            </Position>
            <AltitudeMeters>797.4000244140625</AltitudeMeters>
            <DistanceMeters>339210.8163135</DistanceMeters>
          </Trackpoint>
          <Trackpoint>
            <Time>2021-08-01T07:12:20.000Z</Time>
            <Position>
              <LatitudeDegrees>42.14785468764603137969970703125</LatitudeDegrees>
              <LongitudeDegrees>-2.2711376845836639404296875</LongitudeDegrees>
            </Position>
            <AltitudeMeters>798.4000244140625</AltitudeMeters>
            <DistanceMeters>339240.32910824</DistanceMeters>
          </Trackpoint>
          <Trackpoint>
            <Time>2021-08-01T07:12:32.000Z</Time>
            <Position>
              <LatitudeDegrees>42.14795459993183612823486328125</LatitudeDegrees>
              <LongitudeDegrees>-2.27144923992455005645751953125</LongitudeDegrees>
            </Position>
            <AltitudeMeters>799.79998779296875</AltitudeMeters>
            <DistanceMeters>339268.3407207</DistanceMeters>
          </Trackpoint>
          <Trackpoint>
            <Time>2021-08-01T07:12:40.000Z</Time>
            <Position>
              <LatitudeDegrees>42.1480354852974414825439453125</LatitudeDegrees>
              <LongitudeDegrees>-2.27165577001869678497314453125</LongitudeDegrees>
            </Position>
            <AltitudeMeters>801.4000244140625</AltitudeMeters>
            <DistanceMeters>339287.61498709</DistanceMeters>
          </Trackpoint>
          <Trackpoint>
            <Time>2021-08-01T07:12:48.000Z</Time>
            <Position>
              <LatitudeDegrees>42.148112766444683074951171875</LatitudeDegrees>
              <LongitudeDegrees>-2.27185408584773540496826171875</LongitudeDegrees>
            </Position>
            <AltitudeMeters>802.4000244140625</AltitudeMeters>
            <DistanceMeters>339306.10323968</DistanceMeters>
          </Trackpoint>
          <Trackpoint>
            <Time>2021-08-01T07:12:52.000Z</Time>
            <Position>
              <LatitudeDegrees>42.14814872480928897857666015625</LatitudeDegrees>
              <LongitudeDegrees>-2.271953411400318145751953125</LongitudeDegrees>
            </Position>
            <AltitudeMeters>803.5999755859375</AltitudeMeters>
            <DistanceMeters>339315.22481434</DistanceMeters>
          </Trackpoint>
          <Trackpoint>
            <Time>2021-08-01T07:13:02.000Z</Time>
            <Position>
              <LatitudeDegrees>42.1482393331825733184814453125</LatitudeDegrees>
              <LongitudeDegrees>-2.27219439111649990081787109375</LongitudeDegrees>
            </Position>
            <AltitudeMeters>804.79998779296875</AltitudeMeters>
            <DistanceMeters>339337.52149186</DistanceMeters>
          </Trackpoint>
          <Trackpoint>
            <Time>2021-08-01T07:13:09.000Z</Time>
            <Position>
              <LatitudeDegrees>42.1482983417809009552001953125</LatitudeDegrees>
              <LongitudeDegrees>-2.27236278355121612548828125</LongitudeDegrees>
            </Position>
            <AltitudeMeters>806</AltitudeMeters>
            <DistanceMeters>339352.89116329</DistanceMeters>
          </Trackpoint>
          <Trackpoint>
            <Time>2021-08-01T07:13:18.000Z</Time>
            <Position>
              <LatitudeDegrees>42.148366235196590423583984375</LatitudeDegrees>
              <LongitudeDegrees>-2.272570319473743438720703125</LongitudeDegrees>
            </Position>
            <AltitudeMeters>807.4000244140625</AltitudeMeters>
            <DistanceMeters>339371.61022006</DistanceMeters>
          </Trackpoint>
          <Trackpoint>
            <Time>2021-08-01T07:13:23.000Z</Time>
            <Position>
              <LatitudeDegrees>42.1484135091304779052734375</LatitudeDegrees>
              <LongitudeDegrees>-2.27267920039594173431396484375</LongitudeDegrees>
            </Position>
            <AltitudeMeters>808.4000244140625</AltitudeMeters>
            <DistanceMeters>339382.02247715</DistanceMeters>
          </Trackpoint>
          <Trackpoint>
            <Time>2021-08-01T07:13:30.000Z</Time>
            <Position>
              <LatitudeDegrees>42.148460447788238525390625</LatitudeDegrees>
              <LongitudeDegrees>-2.27284734137356281280517578125</LongitudeDegrees>
            </Position>
            <AltitudeMeters>809.4000244140625</AltitudeMeters>
            <DistanceMeters>339396.84877645</DistanceMeters>
          </Trackpoint>
          <Trackpoint>
            <Time>2021-08-01T07:13:38.000Z</Time>
            <Position>
              <LatitudeDegrees>42.14849556796252727508544921875</LatitudeDegrees>
              <LongitudeDegrees>-2.2730428911745548248291015625</LongitudeDegrees>
            </Position>
            <AltitudeMeters>810.79998779296875</AltitudeMeters>
            <DistanceMeters>339413.45263847</DistanceMeters>
          </Trackpoint>
          <Trackpoint>
            <Time>2021-08-01T07:13:45.000Z</Time>
            <Position>
              <LatitudeDegrees>42.1485189534723758697509765625</LatitudeDegrees>
              <LongitudeDegrees>-2.27321530692279338836669921875</LongitudeDegrees>
            </Position>
            <AltitudeMeters>812</AltitudeMeters>
            <DistanceMeters>339427.91669084</DistanceMeters>
          </Trackpoint>
          <Trackpoint>
            <Time>2021-08-01T07:13:52.000Z</Time>
            <Position>
              <LatitudeDegrees>42.148520462214946746826171875</LatitudeDegrees>
              <LongitudeDegrees>-2.2733831964433193206787109375</LongitudeDegrees>
            </Position>
            <AltitudeMeters>813.20001220703125</AltitudeMeters>
            <DistanceMeters>339441.77235485</DistanceMeters>
          </Trackpoint>
          <Trackpoint>
            <Time>2021-08-01T07:14:02.000Z</Time>
            <Position>
              <LatitudeDegrees>42.14850562624633312225341796875</LatitudeDegrees>
              <LongitudeDegrees>-2.27361897937953472137451171875</LongitudeDegrees>
            </Position>
            <AltitudeMeters>814.4000244140625</AltitudeMeters>
            <DistanceMeters>339461.29913077</DistanceMeters>
          </Trackpoint>
          <Trackpoint>
            <Time>2021-08-01T07:14:10.000Z</Time>
            <Position>
              <LatitudeDegrees>42.14849003590643405914306640625</LatitudeDegrees>
              <LongitudeDegrees>-2.2738046385347843170166015625</LongitudeDegrees>
            </Position>
            <AltitudeMeters>815.79998779296875</AltitudeMeters>
            <DistanceMeters>339476.71778255</DistanceMeters>
          </Trackpoint>
          <Trackpoint>
            <Time>2021-08-01T07:14:17.000Z</Time>
            <Position>
              <LatitudeDegrees>42.1484723500907421112060546875</LatitudeDegrees>
              <LongitudeDegrees>-2.273969091475009918212890625</LongitudeDegrees>
            </Position>
            <AltitudeMeters>816.79998779296875</AltitudeMeters>
            <DistanceMeters>339490.43063462</DistanceMeters>
          </Trackpoint>
          <Trackpoint>
            <Time>2021-08-01T07:14:25.000Z</Time>
            <Position>
              <LatitudeDegrees>42.1484515629708766937255859375</LatitudeDegrees>
              <LongitudeDegrees>-2.2741482965648174285888671875</LongitudeDegrees>
            </Position>
            <AltitudeMeters>817.79998779296875</AltitudeMeters>
            <DistanceMeters>339505.398775</DistanceMeters>
          </Trackpoint>
          <Trackpoint>
            <Time>2021-08-01T07:14:34.000Z</Time>
            <Position>
              <LatitudeDegrees>42.14843538589775562286376953125</LatitudeDegrees>
              <LongitudeDegrees>-2.27434585802257061004638671875</LongitudeDegrees>
            </Position>
            <AltitudeMeters>819</AltitudeMeters>
            <DistanceMeters>339521.80072725</DistanceMeters>
          </Trackpoint>
          <Trackpoint>
            <Time>2021-08-01T07:14:42.000Z</Time>
            <Position>
              <LatitudeDegrees>42.1484324522316455841064453125</LatitudeDegrees>
              <LongitudeDegrees>-2.27451500482857227325439453125</LongitudeDegrees>
            </Position>
            <AltitudeMeters>820.20001220703125</AltitudeMeters>
            <DistanceMeters>339535.76286499</DistanceMeters>
          </Trackpoint>
          <Trackpoint>
            <Time>2021-08-01T07:14:52.000Z</Time>
            <Position>
              <LatitudeDegrees>42.1484456956386566162109375</LatitudeDegrees>
              <LongitudeDegrees>-2.2747045196592807769775390625</LongitudeDegrees>
            </Position>
            <AltitudeMeters>821.4000244140625</AltitudeMeters>
            <DistanceMeters>339551.47104244</DistanceMeters>
          </Trackpoint>
          <Trackpoint>
            <Time>2021-08-01T07:15:00.000Z</Time>
            <Position>
              <LatitudeDegrees>42.14847243390977382659912109375</LatitudeDegrees>
              <LongitudeDegrees>-2.27486821822822093963623046875</LongitudeDegrees>
            </Position>
            <AltitudeMeters>822.4000244140625</AltitudeMeters>
            <DistanceMeters>339565.30355088</DistanceMeters>
          </Trackpoint>
          <Trackpoint>
            <Time>2021-08-01T07:15:07.000Z</Time>
            <Position>
              <LatitudeDegrees>42.14850537478923797607421875</LatitudeDegrees>
              <LongitudeDegrees>-2.27501339279115200042724609375</LongitudeDegrees>
            </Position>
            <AltitudeMeters>823.79998779296875</AltitudeMeters>
            <DistanceMeters>339577.83195017</DistanceMeters>
          </Trackpoint>
          <Trackpoint>
            <Time>2021-08-01T07:15:17.000Z</Time>
            <Position>
              <LatitudeDegrees>42.14856245554983615875244140625</LatitudeDegrees>
              <LongitudeDegrees>-2.275219000875949859619140625</LongitudeDegrees>
            </Position>
            <AltitudeMeters>825</AltitudeMeters>
            <DistanceMeters>339595.94943561</DistanceMeters>
          </Trackpoint>
          <Trackpoint>
            <Time>2021-08-01T07:15:24.000Z</Time>
            <Position>
              <LatitudeDegrees>42.14860989712178707122802734375</LatitudeDegrees>
              <LongitudeDegrees>-2.27536073885858058929443359375</LongitudeDegrees>
            </Position>
            <AltitudeMeters>826</AltitudeMeters>
            <DistanceMeters>339608.7826166</DistanceMeters>
          </Trackpoint>
          <Trackpoint>
            <Time>2021-08-01T07:15:31.000Z</Time>
            <Position>
              <LatitudeDegrees>42.14867058210074901580810546875</LatitudeDegrees>
              <LongitudeDegrees>-2.2754962742328643798828125</LongitudeDegrees>
            </Position>
            <AltitudeMeters>827</AltitudeMeters>
            <DistanceMeters>339621.84870343</DistanceMeters>
          </Trackpoint>
          <Trackpoint>
            <Time>2021-08-01T07:15:40.000Z</Time>
            <Position>
              <LatitudeDegrees>42.14875205419957637786865234375</LatitudeDegrees>
              <LongitudeDegrees>-2.2756587155163288116455078125</LongitudeDegrees>
            </Position>
            <AltitudeMeters>828.4000244140625</AltitudeMeters>
            <DistanceMeters>339638.03256475</DistanceMeters>
          </Trackpoint>
          <Trackpoint>
            <Time>2021-08-01T07:15:46.000Z</Time>
            <Position>
              <LatitudeDegrees>42.14880988933145999908447265625</LatitudeDegrees>
              <LongitudeDegrees>-2.275766171514987945556640625</LongitudeDegrees>
            </Position>
            <AltitudeMeters>829.20001220703125</AltitudeMeters>
            <DistanceMeters>339648.98993197</DistanceMeters>
          </Trackpoint>
          <Trackpoint>
            <Time>2021-08-01T07:15:47.000Z</Time>
            <Position>
              <LatitudeDegrees>42.1488212049007415771484375</LatitudeDegrees>
              <LongitudeDegrees>-2.27578234858810901641845703125</LongitudeDegrees>
            </Position>
            <AltitudeMeters>829.4000244140625</AltitudeMeters>
            <DistanceMeters>339650.82520267</DistanceMeters>
          </Trackpoint>
          <Trackpoint>
            <Time>2021-08-01T07:15:55.000Z</Time>
            <Position>
              <LatitudeDegrees>42.14891617186367511749267578125</LatitudeDegrees>
              <LongitudeDegrees>-2.27591008879244327545166015625</LongitudeDegrees>
            </Position>
            <AltitudeMeters>830.5999755859375</AltitudeMeters>
            <DistanceMeters>339665.75286814</DistanceMeters>
          </Trackpoint>
          <Trackpoint>
            <Time>2021-08-01T07:16:03.000Z</Time>
            <Position>
              <LatitudeDegrees>42.14901692233979701995849609375</LatitudeDegrees>
              <LongitudeDegrees>-2.2760271839797496795654296875</LongitudeDegrees>
            </Position>
            <AltitudeMeters>831.79998779296875</AltitudeMeters>
            <DistanceMeters>339680.55509009</DistanceMeters>
          </Trackpoint>
          <Trackpoint>
            <Time>2021-08-01T07:16:10.000Z</Time>
            <Position>
              <LatitudeDegrees>42.149111889302730560302734375</LatitudeDegrees>
              <LongitudeDegrees>-2.2761257551610469818115234375</LongitudeDegrees>
            </Position>
            <AltitudeMeters>832.79998779296875</AltitudeMeters>
            <DistanceMeters>339693.89204798</DistanceMeters>
          </Trackpoint>
          <Trackpoint>
            <Time>2021-08-01T07:16:17.000Z</Time>
            <Position>
              <LatitudeDegrees>42.14920300059020519256591796875</LatitudeDegrees>
              <LongitudeDegrees>-2.2762186266481876373291015625</LongitudeDegrees>
            </Position>
            <AltitudeMeters>834</AltitudeMeters>
            <DistanceMeters>339706.60291451</DistanceMeters>
          </Trackpoint>
          <Trackpoint>
            <Time>2021-08-01T07:16:26.000Z</Time>
            <Position>
              <LatitudeDegrees>42.1493195928633213043212890625</LatitudeDegrees>
              <LongitudeDegrees>-2.2763393260538578033447265625</LongitudeDegrees>
            </Position>
            <AltitudeMeters>835.4000244140625</AltitudeMeters>
            <DistanceMeters>339722.96159157</DistanceMeters>
          </Trackpoint>
          <Trackpoint>
            <Time>2021-08-01T07:16:35.000Z</Time>
            <Position>
              <LatitudeDegrees>42.14943735860288143157958984375</LatitudeDegrees>
              <LongitudeDegrees>-2.2764511406421661376953125</LongitudeDegrees>
            </Position>
            <AltitudeMeters>836.4000244140625</AltitudeMeters>
            <DistanceMeters>339738.99099565</DistanceMeters>
          </Trackpoint>
          <Trackpoint>
            <Time>2021-08-01T07:16:44.000Z</Time>
            <Position>
              <LatitudeDegrees>42.14955545961856842041015625</LatitudeDegrees>
              <LongitudeDegrees>-2.27656404487788677215576171875</LongitudeDegrees>
            </Position>
            <AltitudeMeters>837.5999755859375</AltitudeMeters>
            <DistanceMeters>339755.10271833</DistanceMeters>
          </Trackpoint>
          <Trackpoint>
            <Time>2021-08-01T07:16:53.000Z</Time>
            <Position>
              <LatitudeDegrees>42.149673812091350555419921875</LatitudeDegrees>
              <LongitudeDegrees>-2.276670746505260467529296875</LongitudeDegrees>
            </Position>
            <AltitudeMeters>838.5999755859375</AltitudeMeters>
            <DistanceMeters>339770.94740783</DistanceMeters>
          </Trackpoint>
          <Trackpoint>
            <Time>2021-08-01T07:17:01.000Z</Time>
            <Position>
              <LatitudeDegrees>42.149775065481662750244140625</LatitudeDegrees>
              <LongitudeDegrees>-2.27676806040108203887939453125</LongitudeDegrees>
            </Position>
            <AltitudeMeters>839.79998779296875</AltitudeMeters>
            <DistanceMeters>339784.78546409</DistanceMeters>
          </Trackpoint>
          <Trackpoint>
            <Time>2021-08-01T07:17:09.000Z</Time>
            <Position>
              <LatitudeDegrees>42.14987472631037235260009765625</LatitudeDegrees>
              <LongitudeDegrees>-2.27687031961977481842041015625</LongitudeDegrees>
            </Position>
            <AltitudeMeters>841.20001220703125</AltitudeMeters>
            <DistanceMeters>339798.72235557</DistanceMeters>
          </Trackpoint>
          <Trackpoint>
            <Time>2021-08-01T07:17:15.000Z</Time>
            <Position>
              <LatitudeDegrees>42.149951420724391937255859375</LatitudeDegrees>
              <LongitudeDegrees>-2.2769468463957309722900390625</LongitudeDegrees>
            </Position>
            <AltitudeMeters>842.20001220703125</AltitudeMeters>
            <DistanceMeters>339809.34071394</DistanceMeters>
          </Trackpoint>
          <Trackpoint>
            <Time>2021-08-01T07:17:24.000Z</Time>
            <Position>
              <LatitudeDegrees>42.15007019229233264923095703125</LatitudeDegrees>
              <LongitudeDegrees>-2.27706477977335453033447265625</LongitudeDegrees>
            </Position>
            <AltitudeMeters>843.4000244140625</AltitudeMeters>
            <DistanceMeters>339825.75587404</DistanceMeters>
          </Trackpoint>
          <Trackpoint>
            <Time>2021-08-01T07:17:34.000Z</Time>
            <Position>
              <LatitudeDegrees>42.15021050535142421722412109375</LatitudeDegrees>
              <LongitudeDegrees>-2.2771812044084072113037109375</LongitudeDegrees>
            </Position>
            <AltitudeMeters>844.4000244140625</AltitudeMeters>
            <DistanceMeters>339844.09135184</DistanceMeters>
          </Trackpoint>
          <Trackpoint>
            <Time>2021-08-01T07:17:43.000Z</Time>
            <Position>
              <LatitudeDegrees>42.15032869018614292144775390625</LatitudeDegrees>
              <LongitudeDegrees>-2.27729092352092266082763671875</LongitudeDegrees>
            </Position>
            <AltitudeMeters>845.5999755859375</AltitudeMeters>
            <DistanceMeters>339860.06036429</DistanceMeters>
          </Trackpoint>
          <Trackpoint>
            <Time>2021-08-01T07:17:50.000Z</Time>
            <Position>
              <LatitudeDegrees>42.15041686780750751495361328125</LatitudeDegrees>
              <LongitudeDegrees>-2.2773803584277629852294921875</LongitudeDegrees>
            </Position>
            <AltitudeMeters>846.79998779296875</AltitudeMeters>
            <DistanceMeters>339872.33978677</DistanceMeters>
          </Trackpoint>
          <Trackpoint>
            <Time>2021-08-01T07:17:57.000Z</Time>
            <Position>
              <LatitudeDegrees>42.150504291057586669921875</LatitudeDegrees>
              <LongitudeDegrees>-2.277469374239444732666015625</LongitudeDegrees>
            </Position>
            <AltitudeMeters>847.79998779296875</AltitudeMeters>
            <DistanceMeters>339884.53138463</DistanceMeters>
          </Trackpoint>
          <Trackpoint>
            <Time>2021-08-01T07:18:02.000Z</Time>
            <Position>
              <LatitudeDegrees>42.15056673623621463775634765625</LatitudeDegrees>
              <LongitudeDegrees>-2.2775339148938655853271484375</LongitudeDegrees>
            </Position>
            <AltitudeMeters>849.20001220703125</AltitudeMeters>
            <DistanceMeters>339893.28725974</DistanceMeters>
          </Trackpoint>
          <Trackpoint>
            <Time>2021-08-01T07:18:12.000Z</Time>
            <Position>
              <LatitudeDegrees>42.150686345994472503662109375</LatitudeDegrees>
              <LongitudeDegrees>-2.27767221629619598388671875</LongitudeDegrees>
            </Position>
            <AltitudeMeters>850.20001220703125</AltitudeMeters>
            <DistanceMeters>339910.82219923</DistanceMeters>
          </Trackpoint>
          <Trackpoint>
            <Time>2021-08-01T07:18:21.000Z</Time>
            <Position>
              <LatitudeDegrees>42.15077309869229793548583984375</LatitudeDegrees>
              <LongitudeDegrees>-2.27781848050653934478759765625</LongitudeDegrees>
            </Position>
            <AltitudeMeters>851.20001220703125</AltitudeMeters>
            <DistanceMeters>339926.27857987</DistanceMeters>
          </Trackpoint>
          <Trackpoint>
            <Time>2021-08-01T07:18:26.000Z</Time>
            <Position>
              <LatitudeDegrees>42.15080478228628635406494140625</LatitudeDegrees>
              <LongitudeDegrees>-2.27791906334459781646728515625</LongitudeDegrees>
            </Position>
            <AltitudeMeters>852.20001220703125</AltitudeMeters>
            <DistanceMeters>339935.29610938</DistanceMeters>
          </Trackpoint>
          <Trackpoint>
            <Time>2021-08-01T07:18:37.000Z</Time>
            <Position>
              <LatitudeDegrees>42.1508548222482204437255859375</LatitudeDegrees>
              <LongitudeDegrees>-2.27815057151019573211669921875</LongitudeDegrees>
            </Position>
            <AltitudeMeters>853.4000244140625</AltitudeMeters>
            <DistanceMeters>339955.19462168</DistanceMeters>
          </Trackpoint>
          <Trackpoint>
            <Time>2021-08-01T07:18:44.000Z</Time>
            <Position>
              <LatitudeDegrees>42.15087066404521465301513671875</LatitudeDegrees>
              <LongitudeDegrees>-2.2783080674707889556884765625</LongitudeDegrees>
            </Position>
            <AltitudeMeters>854.5999755859375</AltitudeMeters>
            <DistanceMeters>339968.31002965</DistanceMeters>
          </Trackpoint>
          <Trackpoint>
            <Time>2021-08-01T07:18:51.000Z</Time>
            <Position>
              <LatitudeDegrees>42.150863707065582275390625</LatitudeDegrees>
              <LongitudeDegrees>-2.27846874855458736419677734375</LongitudeDegrees>
            </Position>
            <AltitudeMeters>856</AltitudeMeters>
            <DistanceMeters>339981.59135162</DistanceMeters>
          </Trackpoint>
          <Trackpoint>
            <Time>2021-08-01T07:18:57.000Z</Time>
            <Position>
              <LatitudeDegrees>42.15083898045122623443603515625</LatitudeDegrees>
              <LongitudeDegrees>-2.2785997577011585235595703125</LongitudeDegrees>
            </Position>
            <AltitudeMeters>857</AltitudeMeters>
            <DistanceMeters>339992.74637082</DistanceMeters>
          </Trackpoint>
          <Trackpoint>
            <Time>2021-08-01T07:19:07.000Z</Time>
            <Position>
              <LatitudeDegrees>42.15076756663620471954345703125</LatitudeDegrees>
              <LongitudeDegrees>-2.27880670689046382904052734375</LongitudeDegrees>
            </Position>
            <AltitudeMeters>858</AltitudeMeters>
            <DistanceMeters>340011.58252578</DistanceMeters>
          </Trackpoint>
          <Trackpoint>
            <Time>2021-08-01T07:19:13.000Z</Time>
            <Position>
              <LatitudeDegrees>42.15072154998779296875</LatitudeDegrees>
              <LongitudeDegrees>-2.2789266519248485565185546875</LongitudeDegrees>
            </Position>
            <AltitudeMeters>859.20001220703125</AltitudeMeters>
            <DistanceMeters>340022.72701641</DistanceMeters>
          </Trackpoint>
          <Trackpoint>
            <Time>2021-08-01T07:19:20.000Z</Time>
            <Position>
              <LatitudeDegrees>42.15065005235373973846435546875</LatitudeDegrees>
              <LongitudeDegrees>-2.27904777042567729949951171875</LongitudeDegrees>
            </Position>
            <AltitudeMeters>860.4000244140625</AltitudeMeters>
            <DistanceMeters>340035.50272115</DistanceMeters>
          </Trackpoint>
          <Trackpoint>
            <Time>2021-08-01T07:19:28.000Z</Time>
            <Position>
              <LatitudeDegrees>42.1505410037934780120849609375</LatitudeDegrees>
              <LongitudeDegrees>-2.2791556455194950103759765625</LongitudeDegrees>
            </Position>
            <AltitudeMeters>861.5999755859375</AltitudeMeters>
            <DistanceMeters>340050.5541848</DistanceMeters>
          </Trackpoint>
          <Trackpoint>
            <Time>2021-08-01T07:19:35.000Z</Time>
            <Position>
              <LatitudeDegrees>42.1504357270896434783935546875</LatitudeDegrees>
              <LongitudeDegrees>-2.27922446094453334808349609375</LongitudeDegrees>
            </Position>
            <AltitudeMeters>862.79998779296875</AltitudeMeters>
            <DistanceMeters>340063.57527213</DistanceMeters>
          </Trackpoint>
          <Trackpoint>
            <Time>2021-08-01T07:19:44.000Z</Time>
            <Position>
              <LatitudeDegrees>42.15028627775609493255615234375</LatitudeDegrees>
              <LongitudeDegrees>-2.2792659513652324676513671875</LongitudeDegrees>
            </Position>
            <AltitudeMeters>864</AltitudeMeters>
            <DistanceMeters>340080.55822363</DistanceMeters>
          </Trackpoint>
          <Trackpoint>
            <Time>2021-08-01T07:19:52.000Z</Time>
            <Position>
              <LatitudeDegrees>42.1501433663070201873779296875</LatitudeDegrees>
              <LongitudeDegrees>-2.27927559055387973785400390625</LongitudeDegrees>
            </Position>
            <AltitudeMeters>865</AltitudeMeters>
            <DistanceMeters>340096.48476899</DistanceMeters>
          </Trackpoint>
          <Trackpoint>
            <Time>2021-08-01T07:19:59.000Z</Time>
            <Position>
              <LatitudeDegrees>42.1500233374536037445068359375</LatitudeDegrees>
              <LongitudeDegrees>-2.2792686335742473602294921875</LongitudeDegrees>
            </Position>
            <AltitudeMeters>866</AltitudeMeters>
            <DistanceMeters>340109.85655061</DistanceMeters>
          </Trackpoint>
          <Trackpoint>
            <Time>2021-08-01T07:20:07.000Z</Time>
            <Position>
              <LatitudeDegrees>42.14988931082189083099365234375</LatitudeDegrees>
              <LongitudeDegrees>-2.279219515621662139892578125</LongitudeDegrees>
            </Position>
            <AltitudeMeters>867.4000244140625</AltitudeMeters>
            <DistanceMeters>340125.31526799</DistanceMeters>
          </Trackpoint>
          <Trackpoint>
            <Time>2021-08-01T07:20:14.000Z</Time>
            <Position>
              <LatitudeDegrees>42.14976542629301548004150390625</LatitudeDegrees>
              <LongitudeDegrees>-2.279172576963901519775390625</LongitudeDegrees>
            </Position>
            <AltitudeMeters>868.4000244140625</AltitudeMeters>
            <DistanceMeters>340139.6378462</DistanceMeters>
          </Trackpoint>
          <Trackpoint>
            <Time>2021-08-01T07:20:22.000Z</Time>
            <Position>
              <LatitudeDegrees>42.14962762780487537384033203125</LatitudeDegrees>
              <LongitudeDegrees>-2.279097139835357666015625</LongitudeDegrees>
            </Position>
            <AltitudeMeters>869.5999755859375</AltitudeMeters>
            <DistanceMeters>340156.18996145</DistanceMeters>
          </Trackpoint>
          <Trackpoint>
            <Time>2021-08-01T07:20:29.000Z</Time>
            <Position>
              <LatitudeDegrees>42.149506509304046630859375</LatitudeDegrees>
              <LongitudeDegrees>-2.27903502993285655975341796875</LongitudeDegrees>
            </Position>
            <AltitudeMeters>870.79998779296875</AltitudeMeters>
            <DistanceMeters>340170.61181122</DistanceMeters>
          </Trackpoint>
          <Trackpoint>
            <Time>2021-08-01T07:20:36.000Z</Time>
            <Position>
              <LatitudeDegrees>42.14938572607934474945068359375</LatitudeDegrees>
              <LongitudeDegrees>-2.27896998636424541473388671875</LongitudeDegrees>
            </Position>
            <AltitudeMeters>871.79998779296875</AltitudeMeters>
            <DistanceMeters>340185.08709684</DistanceMeters>
          </Trackpoint>
          <Trackpoint>
            <Time>2021-08-01T07:20:43.000Z</Time>
            <Position>
              <LatitudeDegrees>42.14927206747233867645263671875</LatitudeDegrees>
              <LongitudeDegrees>-2.27890712209045886993408203125</LongitudeDegrees>
            </Position>
            <AltitudeMeters>872.79998779296875</AltitudeMeters>
            <DistanceMeters>340198.75972068</DistanceMeters>
          </Trackpoint>
          <Trackpoint>
            <Time>2021-08-01T07:20:50.000Z</Time>
            <Position>
              <LatitudeDegrees>42.1491553075611591339111328125</LatitudeDegrees>
              <LongitudeDegrees>-2.2788428328931331634521484375</LongitudeDegrees>
            </Position>
            <AltitudeMeters>874.20001220703125</AltitudeMeters>
            <DistanceMeters>340212.7963598</DistanceMeters>
          </Trackpoint>
          <Trackpoint>
            <Time>2021-08-01T07:20:57.000Z</Time>
            <Position>
              <LatitudeDegrees>42.14903921820223331451416015625</LatitudeDegrees>
              <LongitudeDegrees>-2.27877569384872913360595703125</LongitudeDegrees>
            </Position>
            <AltitudeMeters>875.20001220703125</AltitudeMeters>
            <DistanceMeters>340226.85453369</DistanceMeters>
          </Trackpoint>
          <Trackpoint>
            <Time>2021-08-01T07:21:05.000Z</Time>
            <Position>
              <LatitudeDegrees>42.1488951332867145538330078125</LatitudeDegrees>
              <LongitudeDegrees>-2.27870629169046878814697265625</LongitudeDegrees>
            </Position>
            <AltitudeMeters>876.4000244140625</AltitudeMeters>
            <DistanceMeters>340243.88315121</DistanceMeters>
          </Trackpoint>
          <Trackpoint>
            <Time>2021-08-01T07:21:11.000Z</Time>
            <Position>
              <LatitudeDegrees>42.14878826402127742767333984375</LatitudeDegrees>
              <LongitudeDegrees>-2.278648205101490020751953125</LongitudeDegrees>
            </Position>
            <AltitudeMeters>877.5999755859375</AltitudeMeters>
            <DistanceMeters>340256.70718148</DistanceMeters>
          </Trackpoint>
          <Trackpoint>
            <Time>2021-08-01T07:21:17.000Z</Time>
            <Position>
              <LatitudeDegrees>42.1486790478229522705078125</LatitudeDegrees>
              <LongitudeDegrees>-2.278597243130207061767578125</LongitudeDegrees>
            </Position>
            <AltitudeMeters>878.79998779296875</AltitudeMeters>
            <DistanceMeters>340269.57023285</DistanceMeters>
          </Trackpoint>
          <Trackpoint>
            <Time>2021-08-01T07:21:27.000Z</Time>
            <Position>
              <LatitudeDegrees>42.14850160293281078338623046875</LatitudeDegrees>
              <LongitudeDegrees>-2.27849590592086315155029296875</LongitudeDegrees>
            </Position>
            <AltitudeMeters>880</AltitudeMeters>
            <DistanceMeters>340291.01786965</DistanceMeters>
          </Trackpoint>
          <Trackpoint>
            <Time>2021-08-01T07:21:36.000Z</Time>
            <Position>
              <LatitudeDegrees>42.1483384072780609130859375</LatitudeDegrees>
              <LongitudeDegrees>-2.2784073092043399810791015625</LongitudeDegrees>
            </Position>
            <AltitudeMeters>881.20001220703125</AltitudeMeters>
            <DistanceMeters>340310.59798521</DistanceMeters>
          </Trackpoint>
          <Trackpoint>
            <Time>2021-08-01T07:21:43.000Z</Time>
            <Position>
              <LatitudeDegrees>42.14820806868374347686767578125</LatitudeDegrees>
              <LongitudeDegrees>-2.27834503166377544403076171875</LongitudeDegrees>
            </Position>
            <AltitudeMeters>882.4000244140625</AltitudeMeters>
            <DistanceMeters>340325.98849967</DistanceMeters>
          </Trackpoint>
          <Trackpoint>
            <Time>2021-08-01T07:21:52.000Z</Time>
            <Position>
              <LatitudeDegrees>42.14804646559059619903564453125</LatitudeDegrees>
              <LongitudeDegrees>-2.27825869806110858917236328125</LongitudeDegrees>
            </Position>
            <AltitudeMeters>883.5999755859375</AltitudeMeters>
            <DistanceMeters>340345.33478118</DistanceMeters>
          </Trackpoint>
          <Trackpoint>
            <Time>2021-08-01T07:22:04.000Z</Time>
            <Position>
              <LatitudeDegrees>42.1478621475398540496826171875</LatitudeDegrees>
              <LongitudeDegrees>-2.27816264145076274871826171875</LongitudeDegrees>
            </Position>
            <AltitudeMeters>884.79998779296875</AltitudeMeters>
            <DistanceMeters>340367.32807732</DistanceMeters>
          </Trackpoint>
          <Trackpoint>
            <Time>2021-08-01T07:22:21.000Z</Time>
            <Position>
              <LatitudeDegrees>42.14764706790447235107421875</LatitudeDegrees>
              <LongitudeDegrees>-2.27807681076228618621826171875</LongitudeDegrees>
            </Position>
            <AltitudeMeters>885.79998779296875</AltitudeMeters>
            <DistanceMeters>340392.29280876</DistanceMeters>
          </Trackpoint>
          <Trackpoint>
            <Time>2021-08-01T07:22:36.000Z</Time>
            <Position>
              <LatitudeDegrees>42.14743140153586864471435546875</LatitudeDegrees>
              <LongitudeDegrees>-2.27803842164576053619384765625</LongitudeDegrees>
            </Position>
            <AltitudeMeters>887</AltitudeMeters>
            <DistanceMeters>340416.5050487</DistanceMeters>
          </Trackpoint>
          <Trackpoint>
            <Time>2021-08-01T07:22:53.000Z</Time>
            <Position>
              <LatitudeDegrees>42.14715354144573211669921875</LatitudeDegrees>
              <LongitudeDegrees>-2.27808804251253604888916015625</LongitudeDegrees>
            </Position>
            <AltitudeMeters>888.20001220703125</AltitudeMeters>
            <DistanceMeters>340447.70132185</DistanceMeters>
          </Trackpoint>
          <Trackpoint>
            <Time>2021-08-01T07:22:56.000Z</Time>
            <Position>
              <LatitudeDegrees>42.1470997296273708343505859375</LatitudeDegrees>
              <LongitudeDegrees>-2.2781092487275600433349609375</LongitudeDegrees>
            </Position>
            <AltitudeMeters>888.4000244140625</AltitudeMeters>
            <DistanceMeters>340453.94132903</DistanceMeters>
          </Trackpoint>
          <Trackpoint>
            <Time>2021-08-01T07:23:17.000Z</Time>
            <Position>
              <LatitudeDegrees>42.14674693532288074493408203125</LatitudeDegrees>
              <LongitudeDegrees>-2.2783281840384006500244140625</LongitudeDegrees>
            </Position>
            <AltitudeMeters>889.4000244140625</AltitudeMeters>
            <DistanceMeters>340497.16511561</DistanceMeters>
          </Trackpoint>
          <Trackpoint>
            <Time>2021-08-01T07:23:32.000Z</Time>
            <Position>
              <LatitudeDegrees>42.14652816765010356903076171875</LatitudeDegrees>
              <LongitudeDegrees>-2.27856338024139404296875</LongitudeDegrees>
            </Position>
            <AltitudeMeters>890.5999755859375</AltitudeMeters>
            <DistanceMeters>340528.30344292</DistanceMeters>
          </Trackpoint>
          <Trackpoint>
            <Time>2021-08-01T07:23:44.000Z</Time>
            <Position>
              <LatitudeDegrees>42.146389447152614593505859375</LatitudeDegrees>
              <LongitudeDegrees>-2.278811819851398468017578125</LongitudeDegrees>
            </Position>
            <AltitudeMeters>891.79998779296875</AltitudeMeters>
            <DistanceMeters>340553.96910123</DistanceMeters>
          </Trackpoint>
          <Trackpoint>
            <Time>2021-08-01T07:23:58.000Z</Time>
            <Position>
              <LatitudeDegrees>42.14626966975629329681396484375</LatitudeDegrees>
              <LongitudeDegrees>-2.2791281528770923614501953125</LongitudeDegrees>
            </Position>
            <AltitudeMeters>892.79998779296875</AltitudeMeters>
            <DistanceMeters>340583.28079947</DistanceMeters>
          </Trackpoint>
          <Trackpoint>
            <Time>2021-08-01T07:24:08.000Z</Time>
            <Position>
              <LatitudeDegrees>42.146217115223407745361328125</LatitudeDegrees>
              <LongitudeDegrees>-2.2793584875762462615966796875</LongitudeDegrees>
            </Position>
            <AltitudeMeters>893.79998779296875</AltitudeMeters>
            <DistanceMeters>340603.16841743</DistanceMeters>
          </Trackpoint>
          <Trackpoint>
            <Time>2021-08-01T07:24:16.000Z</Time>
            <Position>
              <LatitudeDegrees>42.14619062840938568115234375</LatitudeDegrees>
              <LongitudeDegrees>-2.27954464964568614959716796875</LongitudeDegrees>
            </Position>
            <AltitudeMeters>895</AltitudeMeters>
            <DistanceMeters>340618.81121167</DistanceMeters>
          </Trackpoint>
          <Trackpoint>
            <Time>2021-08-01T07:24:24.000Z</Time>
            <Position>
              <LatitudeDegrees>42.1461676619946956634521484375</LatitudeDegrees>
              <LongitudeDegrees>-2.27971731685101985931396484375</LongitudeDegrees>
            </Position>
            <AltitudeMeters>896.20001220703125</AltitudeMeters>
            <DistanceMeters>340633.28774489</DistanceMeters>
          </Trackpoint>
          <Trackpoint>
            <Time>2021-08-01T07:24:30.000Z</Time>
            <Position>
              <LatitudeDegrees>42.1461700089275836944580078125</LatitudeDegrees>
              <LongitudeDegrees>-2.279845811426639556884765625</LongitudeDegrees>
            </Position>
            <AltitudeMeters>897.20001220703125</AltitudeMeters>
            <DistanceMeters>340643.89546767</DistanceMeters>
          </Trackpoint>
          <Trackpoint>
            <Time>2021-08-01T07:24:38.000Z</Time>
            <Position>
              <LatitudeDegrees>42.14618526399135589599609375</LatitudeDegrees>
              <LongitudeDegrees>-2.28001973591744899749755859375</LongitudeDegrees>
            </Position>
            <AltitudeMeters>898.4000244140625</AltitudeMeters>
            <DistanceMeters>340658.34827806</DistanceMeters>
          </Trackpoint>
          <Trackpoint>
            <Time>2021-08-01T07:24:44.000Z</Time>
            <Position>
              <LatitudeDegrees>42.1462028659880161285400390625</LatitudeDegrees>
              <LongitudeDegrees>-2.2801463864743709564208984375</LongitudeDegrees>
            </Position>
            <AltitudeMeters>899.5999755859375</AltitudeMeters>
            <DistanceMeters>340668.98193299</DistanceMeters>
          </Trackpoint>
          <Trackpoint>
            <Time>2021-08-01T07:24:52.000Z</Time>
            <Position>
              <LatitudeDegrees>42.1462360583245754241943359375</LatitudeDegrees>
              <LongitudeDegrees>-2.28031427599489688873291015625</LongitudeDegrees>
            </Position>
            <AltitudeMeters>900.79998779296875</AltitudeMeters>
            <DistanceMeters>340683.32089427</DistanceMeters>
          </Trackpoint>
          <Trackpoint>
            <Time>2021-08-01T07:24:58.000Z</Time>
            <Position>
              <LatitudeDegrees>42.146263383328914642333984375</LatitudeDegrees>
              <LongitudeDegrees>-2.28043866343796253204345703125</LongitudeDegrees>
            </Position>
            <AltitudeMeters>901.79998779296875</AltitudeMeters>
            <DistanceMeters>340694.02648768</DistanceMeters>
          </Trackpoint>
          <Trackpoint>
            <Time>2021-08-01T07:25:05.000Z</Time>
            <Position>
              <LatitudeDegrees>42.1463031135499477386474609375</LatitudeDegrees>
              <LongitudeDegrees>-2.28058316744863986968994140625</LongitudeDegrees>
            </Position>
            <AltitudeMeters>903</AltitudeMeters>
            <DistanceMeters>340706.74445644</DistanceMeters>
          </Trackpoint>
          <Trackpoint>
            <Time>2021-08-01T07:25:12.000Z</Time>
            <Position>
              <LatitudeDegrees>42.14634343050420284271240234375</LatitudeDegrees>
              <LongitudeDegrees>-2.28073102422058582305908203125</LongitudeDegrees>
            </Position>
            <AltitudeMeters>904.20001220703125</AltitudeMeters>
            <DistanceMeters>340719.74506953</DistanceMeters>
          </Trackpoint>
          <Trackpoint>
            <Time>2021-08-01T07:25:19.000Z</Time>
            <Position>
              <LatitudeDegrees>42.14638374745845794677734375</LatitudeDegrees>
              <LongitudeDegrees>-2.2808793000876903533935546875</LongitudeDegrees>
            </Position>
            <AltitudeMeters>905.20001220703125</AltitudeMeters>
            <DistanceMeters>340732.77794097</DistanceMeters>
          </Trackpoint>
          <Trackpoint>
            <Time>2021-08-01T07:25:25.000Z</Time>
            <Position>
              <LatitudeDegrees>42.14641450904309749603271484375</LatitudeDegrees>
              <LongitudeDegrees>-2.2810023464262485504150390625</LongitudeDegrees>
            </Position>
            <AltitudeMeters>906.20001220703125</AltitudeMeters>
            <DistanceMeters>340743.49365149</DistanceMeters>
          </Trackpoint>
          <Trackpoint>
            <Time>2021-08-01T07:25:33.000Z</Time>
            <Position>
              <LatitudeDegrees>42.1464462764561176300048828125</LatitudeDegrees>
              <LongitudeDegrees>-2.28117073886096477508544921875</LongitudeDegrees>
            </Position>
            <AltitudeMeters>907.5999755859375</AltitudeMeters>
            <DistanceMeters>340757.83229789</DistanceMeters>
          </Trackpoint>
          <Trackpoint>
            <Time>2021-08-01T07:25:41.000Z</Time>
            <Position>
              <LatitudeDegrees>42.14646178297698497772216796875</LatitudeDegrees>
              <LongitudeDegrees>-2.281343154609203338623046875</LongitudeDegrees>
            </Position>
            <AltitudeMeters>908.5999755859375</AltitudeMeters>
            <DistanceMeters>340772.16464518</DistanceMeters>
          </Trackpoint>
          <Trackpoint>
            <Time>2021-08-01T07:25:48.000Z</Time>
            <Position>
              <LatitudeDegrees>42.14645843021571636199951171875</LatitudeDegrees>
              <LongitudeDegrees>-2.28150132112205028533935546875</LongitudeDegrees>
            </Position>
            <AltitudeMeters>909.79998779296875</AltitudeMeters>
            <DistanceMeters>340785.22174453</DistanceMeters>
          </Trackpoint>
          <Trackpoint>
            <Time>2021-08-01T07:25:55.000Z</Time>
            <Position>
              <LatitudeDegrees>42.1464367210865020751953125</LatitudeDegrees>
              <LongitudeDegrees>-2.2816581465303897857666015625</LongitudeDegrees>
            </Position>
            <AltitudeMeters>910.79998779296875</AltitudeMeters>
            <DistanceMeters>340798.38697477</DistanceMeters>
          </Trackpoint>
          <Trackpoint>
            <Time>2021-08-01T07:26:08.000Z</Time>
            <Position>
              <LatitudeDegrees>42.146343849599361419677734375</LatitudeDegrees>
              <LongitudeDegrees>-2.281929887831211090087890625</LongitudeDegrees>
            </Position>
            <AltitudeMeters>912.20001220703125</AltitudeMeters>
            <DistanceMeters>340823.07966238</DistanceMeters>
          </Trackpoint>
          <Trackpoint>
            <Time>2021-08-01T07:26:17.000Z</Time>
            <Position>
              <LatitudeDegrees>42.1462384052574634552001953125</LatitudeDegrees>
              <LongitudeDegrees>-2.2820956818759441375732421875</LongitudeDegrees>
            </Position>
            <AltitudeMeters>913.20001220703125</AltitudeMeters>
            <DistanceMeters>340841.10545614</DistanceMeters>
          </Trackpoint>
          <Trackpoint>
            <Time>2021-08-01T07:26:25.000Z</Time>
            <Position>
              <LatitudeDegrees>42.14611812494695186614990234375</LatitudeDegrees>
              <LongitudeDegrees>-2.2822140343487262725830078125</LongitudeDegrees>
            </Position>
            <AltitudeMeters>914.20001220703125</AltitudeMeters>
            <DistanceMeters>340857.67719971</DistanceMeters>
          </Trackpoint>
          <Trackpoint>
            <Time>2021-08-01T07:26:37.000Z</Time>
            <Position>
              <LatitudeDegrees>42.145914025604724884033203125</LatitudeDegrees>
              <LongitudeDegrees>-2.282328866422176361083984375</LongitudeDegrees>
            </Position>
            <AltitudeMeters>915.20001220703125</AltitudeMeters>
            <DistanceMeters>340882.29132002</DistanceMeters>
          </Trackpoint>
          <Trackpoint>
            <Time>2021-08-01T07:26:46.000Z</Time>
            <Position>
              <LatitudeDegrees>42.14573054574429988861083984375</LatitudeDegrees>
              <LongitudeDegrees>-2.28238091804087162017822265625</LongitudeDegrees>
            </Position>
            <AltitudeMeters>916.20001220703125</AltitudeMeters>
            <DistanceMeters>340903.16001732</DistanceMeters>
          </Trackpoint>
          <Trackpoint>
            <Time>2021-08-01T07:26:54.000Z</Time>
            <Position>
              <LatitudeDegrees>42.14555150829255580902099609375</LatitudeDegrees>
              <LongitudeDegrees>-2.282381169497966766357421875</LongitudeDegrees>
            </Position>
            <AltitudeMeters>917.5999755859375</AltitudeMeters>
            <DistanceMeters>340923.0873255</DistanceMeters>
          </Trackpoint>
          <Trackpoint>
            <Time>2021-08-01T07:27:05.000Z</Time>
            <Position>
              <LatitudeDegrees>42.145308516919612884521484375</LatitudeDegrees>
              <LongitudeDegrees>-2.2823464684188365936279296875</LongitudeDegrees>
            </Position>
            <AltitudeMeters>918.79998779296875</AltitudeMeters>
            <DistanceMeters>340950.28406412</DistanceMeters>
          </Trackpoint>
          <Trackpoint>
            <Time>2021-08-01T07:27:12.000Z</Time>
            <Position>
              <LatitudeDegrees>42.1451537869870662689208984375</LatitudeDegrees>
              <LongitudeDegrees>-2.2823501564562320709228515625</LongitudeDegrees>
            </Position>
            <AltitudeMeters>919.79998779296875</AltitudeMeters>
            <DistanceMeters>340967.50829506</DistanceMeters>
          </Trackpoint>
          <Trackpoint>
            <Time>2021-08-01T07:27:21.000Z</Time>
            <Position>
              <LatitudeDegrees>42.14495689608156681060791015625</LatitudeDegrees>
              <LongitudeDegrees>-2.28240287862718105316162109375</LongitudeDegrees>
            </Position>
            <AltitudeMeters>921.20001220703125</AltitudeMeters>
            <DistanceMeters>340989.85028615</DistanceMeters>
          </Trackpoint>
          <Trackpoint>
            <Time>2021-08-01T07:27:29.000Z</Time>
            <Position>
              <LatitudeDegrees>42.1447856537997722625732421875</LatitudeDegrees>
              <LongitudeDegrees>-2.28249675594270229339599609375</LongitudeDegrees>
            </Position>
            <AltitudeMeters>922.20001220703125</AltitudeMeters>
            <DistanceMeters>341010.42395386</DistanceMeters>
          </Trackpoint>
          <Trackpoint>
            <Time>2021-08-01T07:27:39.000Z</Time>
            <Position>
              <LatitudeDegrees>42.1445999108254909515380859375</LatitudeDegrees>
              <LongitudeDegrees>-2.28269054554402828216552734375</LongitudeDegrees>
            </Position>
            <AltitudeMeters>923.4000244140625</AltitudeMeters>
            <DistanceMeters>341036.56096485</DistanceMeters>
          </Trackpoint>
          <Trackpoint>
            <Time>2021-08-01T07:27:59.000Z</Time>
            <Position>
              <LatitudeDegrees>42.1443994157016277313232421875</LatitudeDegrees>
              <LongitudeDegrees>-2.28333109058439731597900390625</LongitudeDegrees>
            </Position>
            <AltitudeMeters>924.4000244140625</AltitudeMeters>
            <DistanceMeters>341093.93947677</DistanceMeters>
          </Trackpoint>
          <Trackpoint>
            <Time>2021-08-01T07:28:17.000Z</Time>
            <Position>
              <LatitudeDegrees>42.14447929523885250091552734375</LatitudeDegrees>
              <LongitudeDegrees>-2.2840500064194202423095703125</LongitudeDegrees>
            </Position>
            <AltitudeMeters>923.79998779296875</AltitudeMeters>
            <DistanceMeters>341153.93076803</DistanceMeters>
          </Trackpoint>
          <Trackpoint>
            <Time>2021-08-01T07:28:26.000Z</Time>
            <Position>
              <LatitudeDegrees>42.14458138681948184967041015625</LatitudeDegrees>
              <LongitudeDegrees>-2.28443934582173824310302734375</LongitudeDegrees>
            </Position>
            <AltitudeMeters>922.79998779296875</AltitudeMeters>
            <DistanceMeters>341188.01106281</DistanceMeters>
          </Trackpoint>
          <Trackpoint>
            <Time>2021-08-01T07:28:39.000Z</Time>
            <Position>
              <LatitudeDegrees>42.1447571553289890289306640625</LatitudeDegrees>
              <LongitudeDegrees>-2.28510570712387561798095703125</LongitudeDegrees>
            </Position>
            <AltitudeMeters>921.5999755859375</AltitudeMeters>
            <DistanceMeters>341246.37881933</DistanceMeters>
          </Trackpoint>
          <Trackpoint>
            <Time>2021-08-01T07:28:44.000Z</Time>
            <Position>
              <LatitudeDegrees>42.14478355832397937774658203125</LatitudeDegrees>
              <LongitudeDegrees>-2.28545330464839935302734375</LongitudeDegrees>
            </Position>
            <AltitudeMeters>920.4000244140625</AltitudeMeters>
            <DistanceMeters>341275.21437791</DistanceMeters>
          </Trackpoint>
          <Trackpoint>
            <Time>2021-08-01T07:28:45.000Z</Time>
            <Position>
              <LatitudeDegrees>42.14477735571563243865966796875</LatitudeDegrees>
              <LongitudeDegrees>-2.2855304181575775146484375</LongitudeDegrees>
            </Position>
            <AltitudeMeters>920</AltitudeMeters>
            <DistanceMeters>341281.61582204</DistanceMeters>
          </Trackpoint>
          <Trackpoint>
            <Time>2021-08-01T07:28:47.000Z</Time>
            <Position>
              <LatitudeDegrees>42.1447460912168025970458984375</LatitudeDegrees>
              <LongitudeDegrees>-2.28569042868912220001220703125</LongitudeDegrees>
            </Position>
            <AltitudeMeters>919</AltitudeMeters>
            <DistanceMeters>341295.27159403</DistanceMeters>
          </Trackpoint>
          <Trackpoint>
            <Time>2021-08-01T07:28:50.000Z</Time>
            <Position>
              <LatitudeDegrees>42.1446515433490276336669921875</LatitudeDegrees>
              <LongitudeDegrees>-2.28593652136623859405517578125</LongitudeDegrees>
            </Position>
            <AltitudeMeters>917.20001220703125</AltitudeMeters>
            <DistanceMeters>341318.14521703</DistanceMeters>
          </Trackpoint>
          <Trackpoint>
            <Time>2021-08-01T07:28:52.000Z</Time>
            <Position>
              <LatitudeDegrees>42.1445482783019542694091796875</LatitudeDegrees>
              <LongitudeDegrees>-2.2860884852707386016845703125</LongitudeDegrees>
            </Position>
            <AltitudeMeters>915.79998779296875</AltitudeMeters>
            <DistanceMeters>341335.15632604</DistanceMeters>
          </Trackpoint>
          <Trackpoint>
            <Time>2021-08-01T07:28:54.000Z</Time>
            <Position>
              <LatitudeDegrees>42.1444134972989559173583984375</LatitudeDegrees>
              <LongitudeDegrees>-2.2862168960273265838623046875</LongitudeDegrees>
            </Position>
            <AltitudeMeters>914.4000244140625</AltitudeMeters>
            <DistanceMeters>341353.52305045</DistanceMeters>
          </Trackpoint>
          <Trackpoint>
            <Time>2021-08-01T07:28:56.000Z</Time>
            <Position>
              <LatitudeDegrees>42.14424912817776203155517578125</LatitudeDegrees>
              <LongitudeDegrees>-2.28630649857223033905029296875</LongitudeDegrees>
            </Position>
            <AltitudeMeters>912.5999755859375</AltitudeMeters>
            <DistanceMeters>341373.25568576</DistanceMeters>
          </Trackpoint>
          <Trackpoint>
            <Time>2021-08-01T07:28:58.000Z</Time>
            <Position>
              <LatitudeDegrees>42.14406229555606842041015625</LatitudeDegrees>
              <LongitudeDegrees>-2.2863349132239818572998046875</LongitudeDegrees>
            </Position>
            <AltitudeMeters>911.20001220703125</AltitudeMeters>
            <DistanceMeters>341394.18250151</DistanceMeters>
          </Trackpoint>
          <Trackpoint>
            <Time>2021-08-01T07:29:00.000Z</Time>
            <Position>
              <LatitudeDegrees>42.143862135708332061767578125</LatitudeDegrees>
              <LongitudeDegrees>-2.2863074205815792083740234375</LongitudeDegrees>
            </Position>
            <AltitudeMeters>909.20001220703125</AltitudeMeters>
            <DistanceMeters>341416.57596563</DistanceMeters>
          </Trackpoint>
          <Trackpoint>
            <Time>2021-08-01T07:29:01.000Z</Time>
            <Position>
              <LatitudeDegrees>42.14375979267060756683349609375</LatitudeDegrees>
              <LongitudeDegrees>-2.28627565316855907440185546875</LongitudeDegrees>
            </Position>
            <AltitudeMeters>907.79998779296875</AltitudeMeters>
            <DistanceMeters>341428.26463777</DistanceMeters>
          </Trackpoint>
          <Trackpoint>
            <Time>2021-08-01T07:29:02.000Z</Time>
            <Position>
              <LatitudeDegrees>42.1436554379761219024658203125</LatitudeDegrees>
              <LongitudeDegrees>-2.28623793460428714752197265625</LongitudeDegrees>
            </Position>
            <AltitudeMeters>906.79998779296875</AltitudeMeters>
            <DistanceMeters>341440.28955416</DistanceMeters>
          </Trackpoint>
          <Trackpoint>
            <Time>2021-08-01T07:29:03.000Z</Time>
            <Position>
              <LatitudeDegrees>42.1435484848916530609130859375</LatitudeDegrees>
              <LongitudeDegrees>-2.286199629306793212890625</LongitudeDegrees>
            </Position>
            <AltitudeMeters>905.5999755859375</AltitudeMeters>
            <DistanceMeters>341452.60642407</DistanceMeters>
          </Trackpoint>
          <Trackpoint>
            <Time>2021-08-01T07:29:04.000Z</Time>
            <Position>
              <LatitudeDegrees>42.1434380114078521728515625</LatitudeDegrees>
              <LongitudeDegrees>-2.28616870008409023284912109375</LongitudeDegrees>
            </Position>
            <AltitudeMeters>904.4000244140625</AltitudeMeters>
            <DistanceMeters>341465.1643401</DistanceMeters>
          </Trackpoint>
          <Trackpoint>
            <Time>2021-08-01T07:29:05.000Z</Time>
            <Position>
              <LatitudeDegrees>42.143323682248592376708984375</LatitudeDegrees>
              <LongitudeDegrees>-2.28615344502031803131103515625</LongitudeDegrees>
            </Position>
            <AltitudeMeters>903</AltitudeMeters>
            <DistanceMeters>341477.9513489</DistanceMeters>
          </Trackpoint>
          <Trackpoint>
            <Time>2021-08-01T07:29:06.000Z</Time>
            <Position>
              <LatitudeDegrees>42.143206335604190826416015625</LatitudeDegrees>
              <LongitudeDegrees>-2.286161072552204132080078125</LongitudeDegrees>
            </Position>
            <AltitudeMeters>901.5999755859375</AltitudeMeters>
            <DistanceMeters>341491.02779825</DistanceMeters>
          </Trackpoint>
          <Trackpoint>
            <Time>2021-08-01T07:29:07.000Z</Time>
            <Position>
              <LatitudeDegrees>42.1430915035307407379150390625</LatitudeDegrees>
              <LongitudeDegrees>-2.286198623478412628173828125</LongitudeDegrees>
            </Position>
            <AltitudeMeters>900</AltitudeMeters>
            <DistanceMeters>341504.17930327</DistanceMeters>
          </Trackpoint>
          <Trackpoint>
            <Time>2021-08-01T07:29:08.000Z</Time>
            <Position>
              <LatitudeDegrees>42.142982371151447296142578125</LatitudeDegrees>
              <LongitudeDegrees>-2.28626978583633899688720703125</LongitudeDegrees>
            </Position>
            <AltitudeMeters>898.5999755859375</AltitudeMeters>
            <DistanceMeters>341517.67108895</DistanceMeters>
          </Trackpoint>
          <Trackpoint>
            <Time>2021-08-01T07:29:09.000Z</Time>
            <Position>
              <LatitudeDegrees>42.1428856439888477325439453125</LatitudeDegrees>
              <LongitudeDegrees>-2.28636869229376316070556640625</LongitudeDegrees>
            </Position>
            <AltitudeMeters>896.79998779296875</AltitudeMeters>
            <DistanceMeters>341531.1812679</DistanceMeters>
          </Trackpoint>
          <Trackpoint>
            <Time>2021-08-01T07:29:10.000Z</Time>
            <Position>
              <LatitudeDegrees>42.142795622348785400390625</LatitudeDegrees>
              <LongitudeDegrees>-2.28648587130010128021240234375</LongitudeDegrees>
            </Position>
            <AltitudeMeters>895.20001220703125</AltitudeMeters>
            <DistanceMeters>341545.10649183</DistanceMeters>
          </Trackpoint>
          <Trackpoint>
            <Time>2021-08-01T07:29:11.000Z</Time>
            <Position>
              <LatitudeDegrees>42.14272563345730304718017578125</LatitudeDegrees>
              <LongitudeDegrees>-2.28661528788506984710693359375</LongitudeDegrees>
            </Position>
            <AltitudeMeters>894</AltitudeMeters>
            <DistanceMeters>341558.32579738</DistanceMeters>
          </Trackpoint>
          <Trackpoint>
            <Time>2021-08-01T07:29:13.000Z</Time>
            <Position>
              <LatitudeDegrees>42.14260694570839405059814453125</LatitudeDegrees>
              <LongitudeDegrees>-2.2869105823338031768798828125</LongitudeDegrees>
            </Position>
            <AltitudeMeters>892.79998779296875</AltitudeMeters>
            <DistanceMeters>341586.04608517</DistanceMeters>
          </Trackpoint>
          <Trackpoint>
            <Time>2021-08-01T07:29:14.000Z</Time>
            <Position>
              <LatitudeDegrees>42.14254374615848064422607421875</LatitudeDegrees>
              <LongitudeDegrees>-2.28705324232578277587890625</LongitudeDegrees>
            </Position>
            <AltitudeMeters>892.4000244140625</AltitudeMeters>
            <DistanceMeters>341599.76091263</DistanceMeters>
          </Trackpoint>
          <Trackpoint>
            <Time>2021-08-01T07:29:16.000Z</Time>
            <Position>
              <LatitudeDegrees>42.14237761683762073516845703125</LatitudeDegrees>
              <LongitudeDegrees>-2.28730000555515289306640625</LongitudeDegrees>
            </Position>
            <AltitudeMeters>891.4000244140625</AltitudeMeters>
            <DistanceMeters>341627.26782277</DistanceMeters>
          </Trackpoint>
          <Trackpoint>
            <Time>2021-08-01T07:29:17.000Z</Time>
            <Position>
              <LatitudeDegrees>42.14227384887635707855224609375</LatitudeDegrees>
              <LongitudeDegrees>-2.287395894527435302734375</LongitudeDegrees>
            </Position>
            <AltitudeMeters>890.4000244140625</AltitudeMeters>
            <DistanceMeters>341641.26838952</DistanceMeters>
          </Trackpoint>
          <Trackpoint>
            <Time>2021-08-01T07:29:19.000Z</Time>
            <Position>
              <LatitudeDegrees>42.1420397423207759857177734375</LatitudeDegrees>
              <LongitudeDegrees>-2.28751433081924915313720703125</LongitudeDegrees>
            </Position>
            <AltitudeMeters>889</AltitudeMeters>
            <DistanceMeters>341669.09807864</DistanceMeters>
          </Trackpoint>
          <Trackpoint>
            <Time>2021-08-01T07:29:21.000Z</Time>
            <Position>
              <LatitudeDegrees>42.14179859496653079986572265625</LatitudeDegrees>
              <LongitudeDegrees>-2.28756914846599102020263671875</LongitudeDegrees>
            </Position>
            <AltitudeMeters>888</AltitudeMeters>
            <DistanceMeters>341696.31688816</DistanceMeters>
          </Trackpoint>
          <Trackpoint>
            <Time>2021-08-01T07:29:22.000Z</Time>
            <Position>
              <LatitudeDegrees>42.141679488122463226318359375</LatitudeDegrees>
              <LongitudeDegrees>-2.287590019404888153076171875</LongitudeDegrees>
            </Position>
            <AltitudeMeters>887.5999755859375</AltitudeMeters>
            <DistanceMeters>341709.68563055</DistanceMeters>
          </Trackpoint>
          <Trackpoint>
            <Time>2021-08-01T07:29:27.000Z</Time>
            <Position>
              <LatitudeDegrees>42.14113533496856689453125</LatitudeDegrees>
              <LongitudeDegrees>-2.2876971401274204254150390625</LongitudeDegrees>
            </Position>
            <AltitudeMeters>888.20001220703125</AltitudeMeters>
            <DistanceMeters>341770.89279389</DistanceMeters>
          </Trackpoint>
          <Trackpoint>
            <Time>2021-08-01T07:29:28.000Z</Time>
            <Position>
              <LatitudeDegrees>42.1410389430820941925048828125</LatitudeDegrees>
              <LongitudeDegrees>-2.28771532885730266571044921875</LongitudeDegrees>
            </Position>
            <AltitudeMeters>888.79998779296875</AltitudeMeters>
            <DistanceMeters>341781.72583933</DistanceMeters>
          </Trackpoint>
          <Trackpoint>
            <Time>2021-08-01T07:29:30.000Z</Time>
            <Position>
              <LatitudeDegrees>42.14086015708744525909423828125</LatitudeDegrees>
              <LongitudeDegrees>-2.28775103576481342315673828125</LongitudeDegrees>
            </Position>
            <AltitudeMeters>890.4000244140625</AltitudeMeters>
            <DistanceMeters>341801.84212168</DistanceMeters>
          </Trackpoint>
          <Trackpoint>
            <Time>2021-08-01T07:29:32.000Z</Time>
            <Position>
              <LatitudeDegrees>42.14070207439363002777099609375</LatitudeDegrees>
              <LongitudeDegrees>-2.287783809006214141845703125</LongitudeDegrees>
            </Position>
            <AltitudeMeters>891.5999755859375</AltitudeMeters>
            <DistanceMeters>341819.64359557</DistanceMeters>
          </Trackpoint>
          <Trackpoint>
            <Time>2021-08-01T07:29:34.000Z</Time>
            <Position>
              <LatitudeDegrees>42.14056477881968021392822265625</LatitudeDegrees>
              <LongitudeDegrees>-2.2878102958202362060546875</LongitudeDegrees>
            </Position>
            <AltitudeMeters>893.20001220703125</AltitudeMeters>
            <DistanceMeters>341835.0803921</DistanceMeters>
          </Trackpoint>
          <Trackpoint>
            <Time>2021-08-01T07:29:36.000Z</Time>
            <Position>
              <LatitudeDegrees>42.1404485218226909637451171875</LatitudeDegrees>
              <LongitudeDegrees>-2.287837453186511993408203125</LongitudeDegrees>
            </Position>
            <AltitudeMeters>894.4000244140625</AltitudeMeters>
            <DistanceMeters>341848.21265771</DistanceMeters>
          </Trackpoint>
          <Trackpoint>
            <Time>2021-08-01T07:29:39.000Z</Time>
            <Position>
              <LatitudeDegrees>42.1403127349913120269775390625</LatitudeDegrees>
              <LongitudeDegrees>-2.287878692150115966796875</LongitudeDegrees>
            </Position>
            <AltitudeMeters>895.79998779296875</AltitudeMeters>
            <DistanceMeters>341863.70463537</DistanceMeters>
          </Trackpoint>
          <Trackpoint>
            <Time>2021-08-01T07:29:41.000Z</Time>
            <Position>
              <LatitudeDegrees>42.14024039916694164276123046875</LatitudeDegrees>
              <LongitudeDegrees>-2.287908531725406646728515625</LongitudeDegrees>
            </Position>
            <AltitudeMeters>897</AltitudeMeters>
            <DistanceMeters>341872.12455996</DistanceMeters>
          </Trackpoint>
          <Trackpoint>
            <Time>2021-08-01T07:29:44.000Z</Time>
            <Position>
              <LatitudeDegrees>42.1401440910995006561279296875</LatitudeDegrees>
              <LongitudeDegrees>-2.287954799830913543701171875</LongitudeDegrees>
            </Position>
            <AltitudeMeters>898.20001220703125</AltitudeMeters>
            <DistanceMeters>341883.50398421</DistanceMeters>
          </Trackpoint>
          <Trackpoint>
            <Time>2021-08-01T07:29:49.000Z</Time>
            <Position>
              <LatitudeDegrees>42.1400046162307262420654296875</LatitudeDegrees>
              <LongitudeDegrees>-2.2880528680980205535888671875</LongitudeDegrees>
            </Position>
            <AltitudeMeters>899.4000244140625</AltitudeMeters>
            <DistanceMeters>341901.0110929</DistanceMeters>
          </Trackpoint>
          <Trackpoint>
            <Time>2021-08-01T07:29:57.000Z</Time>
            <Position>
              <LatitudeDegrees>42.13982113637030124664306640625</LatitudeDegrees>
              <LongitudeDegrees>-2.288232743740081787109375</LongitudeDegrees>
            </Position>
            <AltitudeMeters>900.5999755859375</AltitudeMeters>
            <DistanceMeters>341926.25853032</DistanceMeters>
          </Trackpoint>
          <Trackpoint>
            <Time>2021-08-01T07:30:02.000Z</Time>
            <Position>
              <LatitudeDegrees>42.13972357101738452911376953125</LatitudeDegrees>
              <LongitudeDegrees>-2.28835905902087688446044921875</LongitudeDegrees>
            </Position>
            <AltitudeMeters>901.79998779296875</AltitudeMeters>
            <DistanceMeters>341941.31179369</DistanceMeters>
          </Trackpoint>
          <Trackpoint>
            <Time>2021-08-01T07:30:08.000Z</Time>
            <Position>
              <LatitudeDegrees>42.139625251293182373046875</LatitudeDegrees>
              <LongitudeDegrees>-2.2885225899517536163330078125</LongitudeDegrees>
            </Position>
            <AltitudeMeters>902.79998779296875</AltitudeMeters>
            <DistanceMeters>341958.68713673</DistanceMeters>
          </Trackpoint>
          <Trackpoint>
            <Time>2021-08-01T07:30:15.000Z</Time>
            <Position>
              <LatitudeDegrees>42.139525674283504486083984375</LatitudeDegrees>
              <LongitudeDegrees>-2.288729287683963775634765625</LongitudeDegrees>
            </Position>
            <AltitudeMeters>903.79998779296875</AltitudeMeters>
            <DistanceMeters>341979.03040106</DistanceMeters>
          </Trackpoint>
          <Trackpoint>
            <Time>2021-08-01T07:30:24.000Z</Time>
            <Position>
              <LatitudeDegrees>42.139410674571990966796875</LatitudeDegrees>
              <LongitudeDegrees>-2.28898703120648860931396484375</LongitudeDegrees>
            </Position>
            <AltitudeMeters>905</AltitudeMeters>
            <DistanceMeters>342003.85639162</DistanceMeters>
          </Trackpoint>
          <Trackpoint>
            <Time>2021-08-01T07:30:31.000Z</Time>
            <Position>
              <LatitudeDegrees>42.13930397294461727142333984375</LatitudeDegrees>
              <LongitudeDegrees>-2.28916145861148834228515625</LongitudeDegrees>
            </Position>
            <AltitudeMeters>906.20001220703125</AltitudeMeters>
            <DistanceMeters>342022.51843836</DistanceMeters>
          </Trackpoint>
          <Trackpoint>
            <Time>2021-08-01T07:30:41.000Z</Time>
            <Position>
              <LatitudeDegrees>42.13911135680973529815673828125</LatitudeDegrees>
              <LongitudeDegrees>-2.28934963233768939971923828125</LongitudeDegrees>
            </Position>
            <AltitudeMeters>907.4000244140625</AltitudeMeters>
            <DistanceMeters>342048.99101176</DistanceMeters>
          </Trackpoint>
          <Trackpoint>
            <Time>2021-08-01T07:30:50.000Z</Time>
            <Position>
              <LatitudeDegrees>42.13890298269689083099365234375</LatitudeDegrees>
              <LongitudeDegrees>-2.289430685341358184814453125</LongitudeDegrees>
            </Position>
            <AltitudeMeters>908.4000244140625</AltitudeMeters>
            <DistanceMeters>342073.12891955</DistanceMeters>
          </Trackpoint>
          <Trackpoint>
            <Time>2021-08-01T07:30:59.000Z</Time>
            <Position>
              <LatitudeDegrees>42.1386851370334625244140625</LatitudeDegrees>
              <LongitudeDegrees>-2.28940662927925586700439453125</LongitudeDegrees>
            </Position>
            <AltitudeMeters>909.5999755859375</AltitudeMeters>
            <DistanceMeters>342097.4566864</DistanceMeters>
          </Trackpoint>
          <Trackpoint>
            <Time>2021-08-01T07:31:10.000Z</Time>
            <Position>
              <LatitudeDegrees>42.13843560777604579925537109375</LatitudeDegrees>
              <LongitudeDegrees>-2.28926606476306915283203125</LongitudeDegrees>
            </Position>
            <AltitudeMeters>910.79998779296875</AltitudeMeters>
            <DistanceMeters>342127.55526376</DistanceMeters>
          </Trackpoint>
          <Trackpoint>
            <Time>2021-08-01T07:31:16.000Z</Time>
            <Position>
              <LatitudeDegrees>42.1383242122828960418701171875</LatitudeDegrees>
              <LongitudeDegrees>-2.28914762847125530242919921875</LongitudeDegrees>
            </Position>
            <AltitudeMeters>911.79998779296875</AltitudeMeters>
            <DistanceMeters>342143.34343117</DistanceMeters>
          </Trackpoint>
          <Trackpoint>
            <Time>2021-08-01T07:31:38.000Z</Time>
            <Position>
              <LatitudeDegrees>42.13794141076505184173583984375</LatitudeDegrees>
              <LongitudeDegrees>-2.28858352638781070709228515625</LongitudeDegrees>
            </Position>
            <AltitudeMeters>913</AltitudeMeters>
            <DistanceMeters>342206.45376216</DistanceMeters>
          </Trackpoint>
          <Trackpoint>
            <Time>2021-08-01T07:31:51.000Z</Time>
            <Position>
              <LatitudeDegrees>42.137533128261566162109375</LatitudeDegrees>
              <LongitudeDegrees>-2.28837934322655200958251953125</LongitudeDegrees>
            </Position>
            <AltitudeMeters>911.20001220703125</AltitudeMeters>
            <DistanceMeters>342254.92055394</DistanceMeters>
          </Trackpoint>
          <Trackpoint>
            <Time>2021-08-01T07:31:52.000Z</Time>
            <Position>
              <LatitudeDegrees>42.1374910511076450347900390625</LatitudeDegrees>
              <LongitudeDegrees>-2.28838227689266204833984375</LongitudeDegrees>
            </Position>
            <AltitudeMeters>910.79998779296875</AltitudeMeters>
            <DistanceMeters>342259.61164084</DistanceMeters>
          </Trackpoint>
          <Trackpoint>
            <Time>2021-08-01T07:31:57.000Z</Time>
            <Position>
              <LatitudeDegrees>42.1372466348111629486083984375</LatitudeDegrees>
              <LongitudeDegrees>-2.28848629631102085113525390625</LongitudeDegrees>
            </Position>
            <AltitudeMeters>910</AltitudeMeters>
            <DistanceMeters>342288.13817934</DistanceMeters>
          </Trackpoint>
          <Trackpoint>
            <Time>2021-08-01T07:31:59.000Z</Time>
            <Position>
              <LatitudeDegrees>42.13713909499347209930419921875</LatitudeDegrees>
              <LongitudeDegrees>-2.2885735519230365753173828125</LongitudeDegrees>
            </Position>
            <AltitudeMeters>909.20001220703125</AltitudeMeters>
            <DistanceMeters>342302.10742957</DistanceMeters>
          </Trackpoint>
          <Trackpoint>
            <Time>2021-08-01T07:32:00.000Z</Time>
            <Position>
              <LatitudeDegrees>42.13708779774606227874755859375</LatitudeDegrees>
              <LongitudeDegrees>-2.2886315546929836273193359375</LongitudeDegrees>
            </Position>
            <AltitudeMeters>908.79998779296875</AltitudeMeters>
            <DistanceMeters>342309.55839662</DistanceMeters>
          </Trackpoint>
          <Trackpoint>
            <Time>2021-08-01T07:32:02.000Z</Time>
            <Position>
              <LatitudeDegrees>42.13699576444923877716064453125</LatitudeDegrees>
              <LongitudeDegrees>-2.28877647779881954193115234375</LongitudeDegrees>
            </Position>
            <AltitudeMeters>907.79998779296875</AltitudeMeters>
            <DistanceMeters>342325.30647649</DistanceMeters>
          </Trackpoint>
          <Trackpoint>
            <Time>2021-08-01T07:32:03.000Z</Time>
            <Position>
              <LatitudeDegrees>42.13695754297077655792236328125</LatitudeDegrees>
              <LongitudeDegrees>-2.28885971009731292724609375</LongitudeDegrees>
            </Position>
            <AltitudeMeters>906.5999755859375</AltitudeMeters>
            <DistanceMeters>342333.38654163</DistanceMeters>
          </Trackpoint>
          <Trackpoint>
            <Time>2021-08-01T07:32:05.000Z</Time>
            <Position>
              <LatitudeDegrees>42.13689677417278289794921875</LatitudeDegrees>
              <LongitudeDegrees>-2.28903807699680328369140625</LongitudeDegrees>
            </Position>
            <AltitudeMeters>905.20001220703125</AltitudeMeters>
            <DistanceMeters>342349.58769072</DistanceMeters>
          </Trackpoint>
          <Trackpoint>
            <Time>2021-08-01T07:32:14.000Z</Time>
            <Position>
              <LatitudeDegrees>42.136664427816867828369140625</LatitudeDegrees>
              <LongitudeDegrees>-2.28974475525319576263427734375</LongitudeDegrees>
            </Position>
            <AltitudeMeters>906.4000244140625</AltitudeMeters>
            <DistanceMeters>342413.38969109</DistanceMeters>
          </Trackpoint>
          <Trackpoint>
            <Time>2021-08-01T07:32:18.000Z</Time>
            <Position>
              <LatitudeDegrees>42.13656711392104625701904296875</LatitudeDegrees>
              <LongitudeDegrees>-2.2899495251476764678955078125</LongitudeDegrees>
            </Position>
            <AltitudeMeters>907.5999755859375</AltitudeMeters>
            <DistanceMeters>342433.46350814</DistanceMeters>
          </Trackpoint>
          <Trackpoint>
            <Time>2021-08-01T07:32:23.000Z</Time>
            <Position>
              <LatitudeDegrees>42.136469297111034393310546875</LatitudeDegrees>
              <LongitudeDegrees>-2.2901325859129428863525390625</LongitudeDegrees>
            </Position>
            <AltitudeMeters>908.79998779296875</AltitudeMeters>
            <DistanceMeters>342452.08631985</DistanceMeters>
          </Trackpoint>
          <Trackpoint>
            <Time>2021-08-01T07:32:28.000Z</Time>
            <Position>
              <LatitudeDegrees>42.136378772556781768798828125</LatitudeDegrees>
              <LongitudeDegrees>-2.290287315845489501953125</LongitudeDegrees>
            </Position>
            <AltitudeMeters>909.79998779296875</AltitudeMeters>
            <DistanceMeters>342468.35338351</DistanceMeters>
          </Trackpoint>
          <Trackpoint>
            <Time>2021-08-01T07:32:34.000Z</Time>
            <Position>
              <LatitudeDegrees>42.1362766809761524200439453125</LatitudeDegrees>
              <LongitudeDegrees>-2.2904601506888866424560546875</LongitudeDegrees>
            </Position>
            <AltitudeMeters>910.79998779296875</AltitudeMeters>
            <DistanceMeters>342486.59059206</DistanceMeters>
          </Trackpoint>
          <Trackpoint>
            <Time>2021-08-01T07:32:41.000Z</Time>
            <Position>
              <LatitudeDegrees>42.1361740864813327789306640625</LatitudeDegrees>
              <LongitudeDegrees>-2.29066542349755764007568359375</LongitudeDegrees>
            </Position>
            <AltitudeMeters>912.20001220703125</AltitudeMeters>
            <DistanceMeters>342507.02199861</DistanceMeters>
          </Trackpoint>
          <Trackpoint>
            <Time>2021-08-01T07:32:50.000Z</Time>
            <Position>
              <LatitudeDegrees>42.13605581782758235931396484375</LatitudeDegrees>
              <LongitudeDegrees>-2.29094219394028186798095703125</LongitudeDegrees>
            </Position>
            <AltitudeMeters>913.20001220703125</AltitudeMeters>
            <DistanceMeters>342533.38707446</DistanceMeters>
          </Trackpoint>
          <Trackpoint>
            <Time>2021-08-01T07:33:00.000Z</Time>
            <Position>
              <LatitudeDegrees>42.13594417087733745574951171875</LatitudeDegrees>
              <LongitudeDegrees>-2.2912708483636379241943359375</LongitudeDegrees>
            </Position>
            <AltitudeMeters>914.20001220703125</AltitudeMeters>
            <DistanceMeters>342563.22394957</DistanceMeters>
          </Trackpoint>
          <Trackpoint>
            <Time>2021-08-01T07:33:18.000Z</Time>
            <Position>
              <LatitudeDegrees>42.1357415802776813507080078125</LatitudeDegrees>
              <LongitudeDegrees>-2.29194701649248600006103515625</LongitudeDegrees>
            </Position>
            <AltitudeMeters>914.5999755859375</AltitudeMeters>
            <DistanceMeters>342623.41577876</DistanceMeters>
          </Trackpoint>
          <Trackpoint>
            <Time>2021-08-01T07:33:25.000Z</Time>
            <Position>
              <LatitudeDegrees>42.13557017035782337188720703125</LatitudeDegrees>
              <LongitudeDegrees>-2.292263768613338470458984375</LongitudeDegrees>
            </Position>
            <AltitudeMeters>913.20001220703125</AltitudeMeters>
            <DistanceMeters>342655.78043243</DistanceMeters>
          </Trackpoint>
          <Trackpoint>
            <Time>2021-08-01T07:33:27.000Z</Time>
            <Position>
              <LatitudeDegrees>42.13548903353512287139892578125</LatitudeDegrees>
              <LongitudeDegrees>-2.292357981204986572265625</LongitudeDegrees>
            </Position>
            <AltitudeMeters>912.79998779296875</AltitudeMeters>
            <DistanceMeters>342667.69710068</DistanceMeters>
          </Trackpoint>
          <Trackpoint>
            <Time>2021-08-01T07:33:29.000Z</Time>
            <Position>
              <LatitudeDegrees>42.1353861875832080841064453125</LatitudeDegrees>
              <LongitudeDegrees>-2.29243911802768707275390625</LongitudeDegrees>
            </Position>
            <AltitudeMeters>912.20001220703125</AltitudeMeters>
            <DistanceMeters>342680.95869066</DistanceMeters>
          </Trackpoint>
          <Trackpoint>
            <Time>2021-08-01T07:33:32.000Z</Time>
            <Position>
              <LatitudeDegrees>42.13519901968538761138916015625</LatitudeDegrees>
              <LongitudeDegrees>-2.29252159595489501953125</LongitudeDegrees>
            </Position>
            <AltitudeMeters>910.79998779296875</AltitudeMeters>
            <DistanceMeters>342702.87507326</DistanceMeters>
          </Trackpoint>
          <Trackpoint>
            <Time>2021-08-01T07:33:34.000Z</Time>
            <Position>
              <LatitudeDegrees>42.13506390340626239776611328125</LatitudeDegrees>
              <LongitudeDegrees>-2.2925314866006374359130859375</LongitudeDegrees>
            </Position>
            <AltitudeMeters>909.4000244140625</AltitudeMeters>
            <DistanceMeters>342717.93613299</DistanceMeters>
          </Trackpoint>
          <Trackpoint>
            <Time>2021-08-01T07:33:38.000Z</Time>
            <Position>
              <LatitudeDegrees>42.13480171747505664825439453125</LatitudeDegrees>
              <LongitudeDegrees>-2.292454876005649566650390625</LongitudeDegrees>
            </Position>
            <AltitudeMeters>908.4000244140625</AltitudeMeters>
            <DistanceMeters>342747.79524446</DistanceMeters>
          </Trackpoint>
          <Trackpoint>
            <Time>2021-08-01T07:33:43.000Z</Time>
            <Position>
              <LatitudeDegrees>42.13455646298825740814208984375</LatitudeDegrees>
              <LongitudeDegrees>-2.292226217687129974365234375</LongitudeDegrees>
            </Position>
            <AltitudeMeters>908.4000244140625</AltitudeMeters>
            <DistanceMeters>342780.98147931</DistanceMeters>
          </Trackpoint>
          <Trackpoint>
            <Time>2021-08-01T07:33:46.000Z</Time>
            <Position>
              <LatitudeDegrees>42.13446258567273616790771484375</LatitudeDegrees>
              <LongitudeDegrees>-2.292073667049407958984375</LongitudeDegrees>
            </Position>
            <AltitudeMeters>909.20001220703125</AltitudeMeters>
            <DistanceMeters>342797.34319212</DistanceMeters>
          </Trackpoint>
          <Trackpoint>
            <Time>2021-08-01T07:33:47.000Z</Time>
            <Position>
              <LatitudeDegrees>42.13443911634385585784912109375</LatitudeDegrees>
              <LongitudeDegrees>-2.292025052011013031005859375</LongitudeDegrees>
            </Position>
            <AltitudeMeters>909.4000244140625</AltitudeMeters>
            <DistanceMeters>342802.13238769</DistanceMeters>
          </Trackpoint>
          <Trackpoint>
            <Time>2021-08-01T07:33:52.000Z</Time>
            <Position>
              <LatitudeDegrees>42.134352363646030426025390625</LatitudeDegrees>
              <LongitudeDegrees>-2.29180988855659961700439453125</LongitudeDegrees>
            </Position>
            <AltitudeMeters>910.79998779296875</AltitudeMeters>
            <DistanceMeters>342822.34696211</DistanceMeters>
          </Trackpoint>
          <Trackpoint>
            <Time>2021-08-01T07:34:03.000Z</Time>
            <Position>
              <LatitudeDegrees>42.1341889165341854095458984375</LatitudeDegrees>
              <LongitudeDegrees>-2.29139649309217929840087890625</LongitudeDegrees>
            </Position>
            <AltitudeMeters>911.79998779296875</AltitudeMeters>
            <DistanceMeters>342861.01477893</DistanceMeters>
          </Trackpoint>
          <Trackpoint>
            <Time>2021-08-01T07:34:10.000Z</Time>
            <Position>
              <LatitudeDegrees>42.1340688876807689666748046875</LatitudeDegrees>
              <LongitudeDegrees>-2.29118107818067073822021484375</LongitudeDegrees>
            </Position>
            <AltitudeMeters>912.79998779296875</AltitudeMeters>
            <DistanceMeters>342883.25468467</DistanceMeters>
          </Trackpoint>
          <Trackpoint>
            <Time>2021-08-01T07:34:20.000Z</Time>
            <Position>
              <LatitudeDegrees>42.1338472701609134674072265625</LatitudeDegrees>
              <LongitudeDegrees>-2.29096298106014728546142578125</LongitudeDegrees>
            </Position>
            <AltitudeMeters>914.20001220703125</AltitudeMeters>
            <DistanceMeters>342913.79139772</DistanceMeters>
          </Trackpoint>
          <Trackpoint>
            <Time>2021-08-01T07:34:28.000Z</Time>
            <Position>
              <LatitudeDegrees>42.1336300112307071685791015625</LatitudeDegrees>
              <LongitudeDegrees>-2.29087228886783123016357421875</LongitudeDegrees>
            </Position>
            <AltitudeMeters>915.20001220703125</AltitudeMeters>
            <DistanceMeters>342939.10527306</DistanceMeters>
          </Trackpoint>
          <Trackpoint>
            <Time>2021-08-01T07:34:37.000Z</Time>
            <Position>
              <LatitudeDegrees>42.1333721838891506195068359375</LatitudeDegrees>
              <LongitudeDegrees>-2.29085250757634639739990234375</LongitudeDegrees>
            </Position>
            <AltitudeMeters>916.20001220703125</AltitudeMeters>
            <DistanceMeters>342967.84845875</DistanceMeters>
          </Trackpoint>
          <Trackpoint>
            <Time>2021-08-01T07:34:48.000Z</Time>
            <Position>
              <LatitudeDegrees>42.133069597184658050537109375</LatitudeDegrees>
              <LongitudeDegrees>-2.29093465022742748260498046875</LongitudeDegrees>
            </Position>
            <AltitudeMeters>917.5999755859375</AltitudeMeters>
            <DistanceMeters>343002.20268602</DistanceMeters>
          </Trackpoint>
          <Trackpoint>
            <Time>2021-08-01T07:34:56.000Z</Time>
            <Position>
              <LatitudeDegrees>42.13285560719668865203857421875</LatitudeDegrees>
              <LongitudeDegrees>-2.29100883007049560546875</LongitudeDegrees>
            </Position>
            <AltitudeMeters>918.5999755859375</AltitudeMeters>
            <DistanceMeters>343026.79460094</DistanceMeters>
          </Trackpoint>
          <Trackpoint>
            <Time>2021-08-01T07:35:09.000Z</Time>
            <Position>
              <LatitudeDegrees>42.13250474072992801666259765625</LatitudeDegrees>
              <LongitudeDegrees>-2.29109340347349643707275390625</LongitudeDegrees>
            </Position>
            <AltitudeMeters>919.79998779296875</AltitudeMeters>
            <DistanceMeters>343066.46572196</DistanceMeters>
          </Trackpoint>
          <Trackpoint>
            <Time>2021-08-01T07:35:20.000Z</Time>
            <Position>
              <LatitudeDegrees>42.13220802135765552520751953125</LatitudeDegrees>
              <LongitudeDegrees>-2.2910897992551326751708984375</LongitudeDegrees>
            </Position>
            <AltitudeMeters>921</AltitudeMeters>
            <DistanceMeters>343099.49252962</DistanceMeters>
          </Trackpoint>
          <Trackpoint>
            <Time>2021-08-01T07:35:34.000Z</Time>
            <Position>
              <LatitudeDegrees>42.1318426541984081268310546875</LatitudeDegrees>
              <LongitudeDegrees>-2.29098058305680751800537109375</LongitudeDegrees>
            </Position>
            <AltitudeMeters>922.20001220703125</AltitudeMeters>
            <DistanceMeters>343141.14589404</DistanceMeters>
          </Trackpoint>
          <Trackpoint>
            <Time>2021-08-01T07:35:50.000Z</Time>
            <Position>
              <LatitudeDegrees>42.13145750574767589569091796875</LatitudeDegrees>
              <LongitudeDegrees>-2.290728874504566192626953125</LongitudeDegrees>
            </Position>
            <AltitudeMeters>923.20001220703125</AltitudeMeters>
            <DistanceMeters>343188.78319446</DistanceMeters>
          </Trackpoint>
          <Trackpoint>
            <Time>2021-08-01T07:36:07.000Z</Time>
            <Position>
              <LatitudeDegrees>42.13106489740312099456787109375</LatitudeDegrees>
              <LongitudeDegrees>-2.2904254496097564697265625</LongitudeDegrees>
            </Position>
            <AltitudeMeters>924.20001220703125</AltitudeMeters>
            <DistanceMeters>343239.14986315</DistanceMeters>
          </Trackpoint>
          <Trackpoint>
            <Time>2021-08-01T07:36:15.000Z</Time>
            <Position>
              <LatitudeDegrees>42.13086423464119434356689453125</LatitudeDegrees>
              <LongitudeDegrees>-2.290337942540645599365234375</LongitudeDegrees>
            </Position>
            <AltitudeMeters>925.5999755859375</AltitudeMeters>
            <DistanceMeters>343262.62319279</DistanceMeters>
          </Trackpoint>
          <Trackpoint>
            <Time>2021-08-01T07:36:25.000Z</Time>
            <Position>
              <LatitudeDegrees>42.13060003705322742462158203125</LatitudeDegrees>
              <LongitudeDegrees>-2.29031346738338470458984375</LongitudeDegrees>
            </Position>
            <AltitudeMeters>926.5999755859375</AltitudeMeters>
            <DistanceMeters>343292.09817582</DistanceMeters>
          </Trackpoint>
          <Trackpoint>
            <Time>2021-08-01T07:36:39.000Z</Time>
            <Position>
              <LatitudeDegrees>42.1302390284836292266845703125</LatitudeDegrees>
              <LongitudeDegrees>-2.29045160114765167236328125</LongitudeDegrees>
            </Position>
            <AltitudeMeters>927.5999755859375</AltitudeMeters>
            <DistanceMeters>343333.86541667</DistanceMeters>
          </Trackpoint>
          <Trackpoint>
            <Time>2021-08-01T07:36:48.000Z</Time>
            <Position>
              <LatitudeDegrees>42.130047418177127838134765625</LatitudeDegrees>
              <LongitudeDegrees>-2.29064203798770904541015625</LongitudeDegrees>
            </Position>
            <AltitudeMeters>929</AltitudeMeters>
            <DistanceMeters>343360.35930091</DistanceMeters>
          </Trackpoint>
          <Trackpoint>
            <Time>2021-08-01T07:36:57.000Z</Time>
            <Position>
              <LatitudeDegrees>42.129895873367786407470703125</LatitudeDegrees>
              <LongitudeDegrees>-2.290893159806728363037109375</LongitudeDegrees>
            </Position>
            <AltitudeMeters>930</AltitudeMeters>
            <DistanceMeters>343387.08361093</DistanceMeters>
          </Trackpoint>
          <Trackpoint>
            <Time>2021-08-01T07:37:08.000Z</Time>
            <Position>
              <LatitudeDegrees>42.129786573350429534912109375</LatitudeDegrees>
              <LongitudeDegrees>-2.2912648133933544158935546875</LongitudeDegrees>
            </Position>
            <AltitudeMeters>931</AltitudeMeters>
            <DistanceMeters>343420.08566511</DistanceMeters>
          </Trackpoint>
          <Trackpoint>
            <Time>2021-08-01T07:37:28.000Z</Time>
            <Position>
              <LatitudeDegrees>42.1298195980489253997802734375</LatitudeDegrees>
              <LongitudeDegrees>-2.292014658451080322265625</LongitudeDegrees>
            </Position>
            <AltitudeMeters>932</AltitudeMeters>
            <DistanceMeters>343482.09035958</DistanceMeters>
          </Trackpoint>
          <Trackpoint>
            <Time>2021-08-01T07:37:43.000Z</Time>
            <Position>
              <LatitudeDegrees>42.12994976900517940521240234375</LatitudeDegrees>
              <LongitudeDegrees>-2.29272569529712200164794921875</LongitudeDegrees>
            </Position>
            <AltitudeMeters>930.20001220703125</AltitudeMeters>
            <DistanceMeters>343542.54423124</DistanceMeters>
          </Trackpoint>
          <Trackpoint>
            <Time>2021-08-01T07:37:46.000Z</Time>
            <Position>
              <LatitudeDegrees>42.12997139431536197662353515625</LatitudeDegrees>
              <LongitudeDegrees>-2.2929467260837554931640625</LongitudeDegrees>
            </Position>
            <AltitudeMeters>928.79998779296875</AltitudeMeters>
            <DistanceMeters>343560.94705675</DistanceMeters>
          </Trackpoint>
          <Trackpoint>
            <Time>2021-08-01T07:37:48.000Z</Time>
            <Position>
              <LatitudeDegrees>42.129986397922039031982421875</LatitudeDegrees>
              <LongitudeDegrees>-2.29312450625002384185791015625</LongitudeDegrees>
            </Position>
            <AltitudeMeters>927.20001220703125</AltitudeMeters>
            <DistanceMeters>343575.71660504</DistanceMeters>
          </Trackpoint>
          <Trackpoint>
            <Time>2021-08-01T07:37:50.000Z</Time>
            <Position>
              <LatitudeDegrees>42.13000894524157047271728515625</LatitudeDegrees>
              <LongitudeDegrees>-2.293328605592250823974609375</LongitudeDegrees>
            </Position>
            <AltitudeMeters>925.4000244140625</AltitudeMeters>
            <DistanceMeters>343592.74999449</DistanceMeters>
          </Trackpoint>
          <Trackpoint>
            <Time>2021-08-01T07:37:52.000Z</Time>
            <Position>
              <LatitudeDegrees>42.1300385333597660064697265625</LatitudeDegrees>
              <LongitudeDegrees>-2.29355583898723125457763671875</LongitudeDegrees>
            </Position>
            <AltitudeMeters>922.5999755859375</AltitudeMeters>
            <DistanceMeters>343611.79378429</DistanceMeters>
          </Trackpoint>
          <Trackpoint>
            <Time>2021-08-01T07:37:53.000Z</Time>
            <Position>
              <LatitudeDegrees>42.13005856610834598541259765625</LatitudeDegrees>
              <LongitudeDegrees>-2.29367352090775966644287109375</LongitudeDegrees>
            </Position>
            <AltitudeMeters>921.20001220703125</AltitudeMeters>
            <DistanceMeters>343621.76072319</DistanceMeters>
          </Trackpoint>
          <Trackpoint>
            <Time>2021-08-01T07:37:55.000Z</Time>
            <Position>
              <LatitudeDegrees>42.1301045827567577362060546875</LatitudeDegrees>
              <LongitudeDegrees>-2.2939203679561614990234375</LongitudeDegrees>
            </Position>
            <AltitudeMeters>919.4000244140625</AltitudeMeters>
            <DistanceMeters>343642.77043991</DistanceMeters>
          </Trackpoint>
          <Trackpoint>
            <Time>2021-08-01T07:37:57.000Z</Time>
            <Position>
              <LatitudeDegrees>42.13013484142720699310302734375</LatitudeDegrees>
              <LongitudeDegrees>-2.294187583029270172119140625</LongitudeDegrees>
            </Position>
            <AltitudeMeters>918.4000244140625</AltitudeMeters>
            <DistanceMeters>343665.08290671</DistanceMeters>
          </Trackpoint>
          <Trackpoint>
            <Time>2021-08-01T07:37:59.000Z</Time>
            <Position>
              <LatitudeDegrees>42.13011707179248332977294921875</LatitudeDegrees>
              <LongitudeDegrees>-2.29447131045162677764892578125</LongitudeDegrees>
            </Position>
            <AltitudeMeters>916.5999755859375</AltitudeMeters>
            <DistanceMeters>343688.58622342</DistanceMeters>
          </Trackpoint>
          <Trackpoint>
            <Time>2021-08-01T07:38:01.000Z</Time>
            <Position>
              <LatitudeDegrees>42.13003568351268768310546875</LatitudeDegrees>
              <LongitudeDegrees>-2.29474875144660472869873046875</LongitudeDegrees>
            </Position>
            <AltitudeMeters>914.20001220703125</AltitudeMeters>
            <DistanceMeters>343713.21409735</DistanceMeters>
          </Trackpoint>
          <Trackpoint>
            <Time>2021-08-01T07:38:02.000Z</Time>
            <Position>
              <LatitudeDegrees>42.12997089140117168426513671875</LatitudeDegrees>
              <LongitudeDegrees>-2.2948720492422580718994140625</LongitudeDegrees>
            </Position>
            <AltitudeMeters>912.79998779296875</AltitudeMeters>
            <DistanceMeters>343725.68759795</DistanceMeters>
          </Trackpoint>
          <Trackpoint>
            <Time>2021-08-01T07:38:04.000Z</Time>
            <Position>
              <LatitudeDegrees>42.12980006821453571319580078125</LatitudeDegrees>
              <LongitudeDegrees>-2.29506659321486949920654296875</LongitudeDegrees>
            </Position>
            <AltitudeMeters>911</AltitudeMeters>
            <DistanceMeters>343750.57480236</DistanceMeters>
          </Trackpoint>
          <Trackpoint>
            <Time>2021-08-01T07:38:06.000Z</Time>
            <Position>
              <LatitudeDegrees>42.12959856726229190826416015625</LatitudeDegrees>
              <LongitudeDegrees>-2.2951798327267169952392578125</LongitudeDegrees>
            </Position>
            <AltitudeMeters>909.5999755859375</AltitudeMeters>
            <DistanceMeters>343774.87229889</DistanceMeters>
          </Trackpoint>
          <Trackpoint>
            <Time>2021-08-01T07:38:08.000Z</Time>
            <Position>
              <LatitudeDegrees>42.129386924207210540771484375</LatitudeDegrees>
              <LongitudeDegrees>-2.295222580432891845703125</LongitudeDegrees>
            </Position>
            <AltitudeMeters>908.5999755859375</AltitudeMeters>
            <DistanceMeters>343798.69161255</DistanceMeters>
          </Trackpoint>
          <Trackpoint>
            <Time>2021-08-01T07:38:09.000Z</Time>
            <Position>
              <LatitudeDegrees>42.12928223423659801483154296875</LatitudeDegrees>
              <LongitudeDegrees>-2.29523808695375919342041015625</LongitudeDegrees>
            </Position>
            <AltitudeMeters>908</AltitudeMeters>
            <DistanceMeters>343810.41422758</DistanceMeters>
          </Trackpoint>
          <Trackpoint>
            <Time>2021-08-01T07:38:10.000Z</Time>
            <Position>
              <LatitudeDegrees>42.1291798911988735198974609375</LatitudeDegrees>
              <LongitudeDegrees>-2.29526356793940067291259765625</LongitudeDegrees>
            </Position>
            <AltitudeMeters>907.5999755859375</AltitudeMeters>
            <DistanceMeters>343821.99813608</DistanceMeters>
          </Trackpoint>
          <Trackpoint>
            <Time>2021-08-01T07:38:15.000Z</Time>
            <Position>
              <LatitudeDegrees>42.12872944772243499755859375</LatitudeDegrees>
              <LongitudeDegrees>-2.29556900449097156524658203125</LongitudeDegrees>
            </Position>
            <AltitudeMeters>907.20001220703125</AltitudeMeters>
            <DistanceMeters>343878.11589654</DistanceMeters>
          </Trackpoint>
          <Trackpoint>
            <Time>2021-08-01T07:38:18.000Z</Time>
            <Position>
              <LatitudeDegrees>42.1285039745271205902099609375</LatitudeDegrees>
              <LongitudeDegrees>-2.2958168573677539825439453125</LongitudeDegrees>
            </Position>
            <AltitudeMeters>907</AltitudeMeters>
            <DistanceMeters>343910.49449773</DistanceMeters>
          </Trackpoint>
          <Trackpoint>
            <Time>2021-08-01T07:38:23.000Z</Time>
            <Position>
              <LatitudeDegrees>42.12807767093181610107421875</LatitudeDegrees>
              <LongitudeDegrees>-2.29608415625989437103271484375</LongitudeDegrees>
            </Position>
            <AltitudeMeters>906</AltitudeMeters>
            <DistanceMeters>343962.82238838</DistanceMeters>
          </Trackpoint>
          <Trackpoint>
            <Time>2021-08-01T07:38:26.000Z</Time>
            <Position>
              <LatitudeDegrees>42.1278032474219799041748046875</LatitudeDegrees>
              <LongitudeDegrees>-2.2961921989917755126953125</LongitudeDegrees>
            </Position>
            <AltitudeMeters>905</AltitudeMeters>
            <DistanceMeters>343994.64172576</DistanceMeters>
          </Trackpoint>
          <Trackpoint>
            <Time>2021-08-01T07:38:30.000Z</Time>
            <Position>
              <LatitudeDegrees>42.1274418197572231292724609375</LatitudeDegrees>
              <LongitudeDegrees>-2.29633561335504055023193359375</LongitudeDegrees>
            </Position>
            <AltitudeMeters>903.79998779296875</AltitudeMeters>
            <DistanceMeters>344036.57511014</DistanceMeters>
          </Trackpoint>
          <Trackpoint>
            <Time>2021-08-01T07:38:36.000Z</Time>
            <Position>
              <LatitudeDegrees>42.12695784866809844970703125</LatitudeDegrees>
              <LongitudeDegrees>-2.29652370326220989227294921875</LongitudeDegrees>
            </Position>
            <AltitudeMeters>904.79998779296875</AltitudeMeters>
            <DistanceMeters>344092.63507308</DistanceMeters>
          </Trackpoint>
          <Trackpoint>
            <Time>2021-08-01T07:38:38.000Z</Time>
            <Position>
              <LatitudeDegrees>42.12682683952152729034423828125</LatitudeDegrees>
              <LongitudeDegrees>-2.29656309820711612701416015625</LongitudeDegrees>
            </Position>
            <AltitudeMeters>906.20001220703125</AltitudeMeters>
            <DistanceMeters>344107.5748321</DistanceMeters>
          </Trackpoint>
          <Trackpoint>
            <Time>2021-08-01T07:38:40.000Z</Time>
            <Position>
              <LatitudeDegrees>42.1267144381999969482421875</LatitudeDegrees>
              <LongitudeDegrees>-2.2965822927653789520263671875</LongitudeDegrees>
            </Position>
            <AltitudeMeters>907.20001220703125</AltitudeMeters>
            <DistanceMeters>344120.18513131</DistanceMeters>
          </Trackpoint>
          <Trackpoint>
            <Time>2021-08-01T07:38:42.000Z</Time>
            <Position>
              <LatitudeDegrees>42.12662232108414173126220703125</LatitudeDegrees>
              <LongitudeDegrees>-2.2965876571834087371826171875</LongitudeDegrees>
            </Position>
            <AltitudeMeters>908.20001220703125</AltitudeMeters>
            <DistanceMeters>344130.44713655</DistanceMeters>
          </Trackpoint>
          <Trackpoint>
            <Time>2021-08-01T07:38:43.000Z</Time>
            <Position>
              <LatitudeDegrees>42.1265828423202037811279296875</LatitudeDegrees>
              <LongitudeDegrees>-2.29658489115536212921142578125</LongitudeDegrees>
            </Position>
            <AltitudeMeters>908.79998779296875</AltitudeMeters>
            <DistanceMeters>344134.84719153</DistanceMeters>
          </Trackpoint>
          <Trackpoint>
            <Time>2021-08-01T07:38:46.000Z</Time>
            <Position>
              <LatitudeDegrees>42.12647429667413234710693359375</LatitudeDegrees>
              <LongitudeDegrees>-2.29656175710260868072509765625</LongitudeDegrees>
            </Position>
            <AltitudeMeters>910.20001220703125</AltitudeMeters>
            <DistanceMeters>344147.07872073</DistanceMeters>
          </Trackpoint>
          <Trackpoint>
            <Time>2021-08-01T07:38:51.000Z</Time>
            <Position>
              <LatitudeDegrees>42.1263166330754756927490234375</LatitudeDegrees>
              <LongitudeDegrees>-2.29652403853833675384521484375</LongitudeDegrees>
            </Position>
            <AltitudeMeters>911.4000244140625</AltitudeMeters>
            <DistanceMeters>344164.90123371</DistanceMeters>
          </Trackpoint>
          <Trackpoint>
            <Time>2021-08-01T07:39:03.000Z</Time>
            <Position>
              <LatitudeDegrees>42.1259347535669803619384765625</LatitudeDegrees>
              <LongitudeDegrees>-2.296411134302616119384765625</LongitudeDegrees>
            </Position>
            <AltitudeMeters>912.4000244140625</AltitudeMeters>
            <DistanceMeters>344208.41496131</DistanceMeters>
          </Trackpoint>
          <Trackpoint>
            <Time>2021-08-01T07:39:19.000Z</Time>
            <Position>
              <LatitudeDegrees>42.12541549466550350189208984375</LatitudeDegrees>
              <LongitudeDegrees>-2.29659813456237316131591796875</LongitudeDegrees>
            </Position>
            <AltitudeMeters>913.20001220703125</AltitudeMeters>
            <DistanceMeters>344268.23561772</DistanceMeters>
          </Trackpoint>
          <Trackpoint>
            <Time>2021-08-01T07:39:27.000Z</Time>
            <Position>
              <LatitudeDegrees>42.12518130429089069366455078125</LatitudeDegrees>
              <LongitudeDegrees>-2.29698923416435718536376953125</LongitudeDegrees>
            </Position>
            <AltitudeMeters>911.5999755859375</AltitudeMeters>
            <DistanceMeters>344309.72998765</DistanceMeters>
          </Trackpoint>
          <Trackpoint>
            <Time>2021-08-01T07:39:30.000Z</Time>
            <Position>
              <LatitudeDegrees>42.125098742544651031494140625</LatitudeDegrees>
              <LongitudeDegrees>-2.29719928465783596038818359375</LongitudeDegrees>
            </Position>
            <AltitudeMeters>910.20001220703125</AltitudeMeters>
            <DistanceMeters>344329.35432713</DistanceMeters>
          </Trackpoint>
          <Trackpoint>
            <Time>2021-08-01T07:39:33.000Z</Time>
            <Position>
              <LatitudeDegrees>42.12501584552228450775146484375</LatitudeDegrees>
              <LongitudeDegrees>-2.29743397794663906097412109375</LongitudeDegrees>
            </Position>
            <AltitudeMeters>909</AltitudeMeters>
            <DistanceMeters>344350.81311829</DistanceMeters>
          </Trackpoint>
          <Trackpoint>
            <Time>2021-08-01T07:39:35.000Z</Time>
            <Position>
              <LatitudeDegrees>42.12495365180075168609619140625</LatitudeDegrees>
              <LongitudeDegrees>-2.29759574867784976959228515625</LongitudeDegrees>
            </Position>
            <AltitudeMeters>907.79998779296875</AltitudeMeters>
            <DistanceMeters>344365.85497973</DistanceMeters>
          </Trackpoint>
          <Trackpoint>
            <Time>2021-08-01T07:39:38.000Z</Time>
            <Position>
              <LatitudeDegrees>42.12485005147755146026611328125</LatitudeDegrees>
              <LongitudeDegrees>-2.29784050025045871734619140625</LongitudeDegrees>
            </Position>
            <AltitudeMeters>906.79998779296875</AltitudeMeters>
            <DistanceMeters>344389.11848208</DistanceMeters>
          </Trackpoint>
          <Trackpoint>
            <Time>2021-08-01T07:39:42.000Z</Time>
            <Position>
              <LatitudeDegrees>42.12468643672764301300048828125</LatitudeDegrees>
              <LongitudeDegrees>-2.29815297760069370269775390625</LongitudeDegrees>
            </Position>
            <AltitudeMeters>905.79998779296875</AltitudeMeters>
            <DistanceMeters>344420.69424494</DistanceMeters>
          </Trackpoint>
          <Trackpoint>
            <Time>2021-08-01T07:39:46.000Z</Time>
            <Position>
              <LatitudeDegrees>42.124499268829822540283203125</LatitudeDegrees>
              <LongitudeDegrees>-2.298439554870128631591796875</LongitudeDegrees>
            </Position>
            <AltitudeMeters>904.79998779296875</AltitudeMeters>
            <DistanceMeters>344452.21619747</DistanceMeters>
          </Trackpoint>
          <Trackpoint>
            <Time>2021-08-01T07:39:54.000Z</Time>
            <Position>
              <LatitudeDegrees>42.124125100672245025634765625</LatitudeDegrees>
              <LongitudeDegrees>-2.29897339828312397003173828125</LongitudeDegrees>
            </Position>
            <AltitudeMeters>904.4000244140625</AltitudeMeters>
            <DistanceMeters>344512.85024124</DistanceMeters>
          </Trackpoint>
          <Trackpoint>
            <Time>2021-08-01T07:40:04.000Z</Time>
            <Position>
              <LatitudeDegrees>42.12376778014004230499267578125</LatitudeDegrees>
              <LongitudeDegrees>-2.29959198273718357086181640625</LongitudeDegrees>
            </Position>
            <AltitudeMeters>905.20001220703125</AltitudeMeters>
            <DistanceMeters>344577.57564232</DistanceMeters>
          </Trackpoint>
          <Trackpoint>
            <Time>2021-08-01T07:40:09.000Z</Time>
            <Position>
              <LatitudeDegrees>42.1236424706876277923583984375</LatitudeDegrees>
              <LongitudeDegrees>-2.299882583320140838623046875</LongitudeDegrees>
            </Position>
            <AltitudeMeters>905.79998779296875</AltitudeMeters>
            <DistanceMeters>344605.32523274</DistanceMeters>
          </Trackpoint>
          <Trackpoint>
            <Time>2021-08-01T07:40:15.000Z</Time>
            <Position>
              <LatitudeDegrees>42.12351615540683269500732421875</LatitudeDegrees>
              <LongitudeDegrees>-2.30022330768406391143798828125</LongitudeDegrees>
            </Position>
            <AltitudeMeters>907</AltitudeMeters>
            <DistanceMeters>344636.77089208</DistanceMeters>
          </Trackpoint>
          <Trackpoint>
            <Time>2021-08-01T07:40:24.000Z</Time>
            <Position>
              <LatitudeDegrees>42.123349942266941070556640625</LatitudeDegrees>
              <LongitudeDegrees>-2.3006746731698513031005859375</LongitudeDegrees>
            </Position>
            <AltitudeMeters>908.4000244140625</AltitudeMeters>
            <DistanceMeters>344678.37197705</DistanceMeters>
          </Trackpoint>
          <Trackpoint>
            <Time>2021-08-01T07:40:32.000Z</Time>
            <Position>
              <LatitudeDegrees>42.12314919568598270416259765625</LatitudeDegrees>
              <LongitudeDegrees>-2.30097927153110504150390625</LongitudeDegrees>
            </Position>
            <AltitudeMeters>909.4000244140625</AltitudeMeters>
            <DistanceMeters>344712.01036017</DistanceMeters>
          </Trackpoint>
          <Trackpoint>
            <Time>2021-08-01T07:40:39.000Z</Time>
            <Position>
              <LatitudeDegrees>42.12291819043457508087158203125</LatitudeDegrees>
              <LongitudeDegrees>-2.30111815966665744781494140625</LongitudeDegrees>
            </Position>
            <AltitudeMeters>910.5999755859375</AltitudeMeters>
            <DistanceMeters>344740.16233504</DistanceMeters>
          </Trackpoint>
          <Trackpoint>
            <Time>2021-08-01T07:40:51.000Z</Time>
            <Position>
              <LatitudeDegrees>42.1225028671324253082275390625</LatitudeDegrees>
              <LongitudeDegrees>-2.30109167285263538360595703125</LongitudeDegrees>
            </Position>
            <AltitudeMeters>911.79998779296875</AltitudeMeters>
            <DistanceMeters>344786.44024738</DistanceMeters>
          </Trackpoint>
          <Trackpoint>
            <Time>2021-08-01T07:41:07.000Z</Time>
            <Position>
              <LatitudeDegrees>42.12207715027034282684326171875</LatitudeDegrees>
              <LongitudeDegrees>-2.30062161572277545928955078125</LongitudeDegrees>
            </Position>
            <AltitudeMeters>913.20001220703125</AltitudeMeters>
            <DistanceMeters>344847.68568357</DistanceMeters>
          </Trackpoint>
          <Trackpoint>
            <Time>2021-08-01T07:41:19.000Z</Time>
            <Position>
              <LatitudeDegrees>42.1218427084386348724365234375</LatitudeDegrees>
              <LongitudeDegrees>-2.30016564019024372100830078125</LongitudeDegrees>
            </Position>
            <AltitudeMeters>914.20001220703125</AltitudeMeters>
            <DistanceMeters>344893.48836274</DistanceMeters>
          </Trackpoint>
          <Trackpoint>
            <Time>2021-08-01T07:41:27.000Z</Time>
            <Position>
              <LatitudeDegrees>42.1216289699077606201171875</LatitudeDegrees>
              <LongitudeDegrees>-2.29994737543165683746337890625</LongitudeDegrees>
            </Position>
            <AltitudeMeters>903.5999755859375</AltitudeMeters>
            <DistanceMeters>344923.33159279</DistanceMeters>
          </Trackpoint>
          <Trackpoint>
            <Time>2021-08-01T07:41:36.000Z</Time>
            <Position>
              <LatitudeDegrees>42.1213394589722156524658203125</LatitudeDegrees>
              <LongitudeDegrees>-2.2998629696667194366455078125</LongitudeDegrees>
            </Position>
            <AltitudeMeters>916.20001220703125</AltitudeMeters>
            <DistanceMeters>344956.29942652</DistanceMeters>
          </Trackpoint>
          <Trackpoint>
            <Time>2021-08-01T07:41:52.000Z</Time>
            <Position>
              <LatitudeDegrees>42.1208315156400203704833984375</LatitudeDegrees>
              <LongitudeDegrees>-2.30017083697021007537841796875</LongitudeDegrees>
            </Position>
            <AltitudeMeters>917</AltitudeMeters>
            <DistanceMeters>345018.28489414</DistanceMeters>
          </Trackpoint>
          <Trackpoint>
            <Time>2021-08-01T07:42:06.000Z</Time>
            <Position>
              <LatitudeDegrees>42.12048157118260860443115234375</LatitudeDegrees>
              <LongitudeDegrees>-2.30076092295348644256591796875</LongitudeDegrees>
            </Position>
            <AltitudeMeters>916.5999755859375</AltitudeMeters>
            <DistanceMeters>345080.65688539</DistanceMeters>
          </Trackpoint>
          <Trackpoint>
            <Time>2021-08-01T07:42:19.000Z</Time>
            <Position>
              <LatitudeDegrees>42.12005275301635265350341796875</LatitudeDegrees>
              <LongitudeDegrees>-2.3012490011751651763916015625</LongitudeDegrees>
            </Position>
            <AltitudeMeters>915.4000244140625</AltitudeMeters>
            <DistanceMeters>345143.11980318</DistanceMeters>
          </Trackpoint>
          <Trackpoint>
            <Time>2021-08-01T07:42:21.000Z</Time>
            <Position>
              <LatitudeDegrees>42.11997597478330135345458984375</LatitudeDegrees>
              <LongitudeDegrees>-2.3013033159077167510986328125</LongitudeDegrees>
            </Position>
            <AltitudeMeters>915.4000244140625</AltitudeMeters>
            <DistanceMeters>345152.77051344</DistanceMeters>
          </Trackpoint>
          <Trackpoint>
            <Time>2021-08-01T07:42:30.000Z</Time>
            <Position>
              <LatitudeDegrees>42.11959225125610828399658203125</LatitudeDegrees>
              <LongitudeDegrees>-2.30146299116313457489013671875</LongitudeDegrees>
            </Position>
            <AltitudeMeters>914.5999755859375</AltitudeMeters>
            <DistanceMeters>345197.4678314</DistanceMeters>
          </Trackpoint>
          <Trackpoint>
            <Time>2021-08-01T07:42:35.000Z</Time>
            <Position>
              <LatitudeDegrees>42.11931950412690639495849609375</LatitudeDegrees>
              <LongitudeDegrees>-2.30149216018617153167724609375</LongitudeDegrees>
            </Position>
            <AltitudeMeters>913.4000244140625</AltitudeMeters>
            <DistanceMeters>345227.92029814</DistanceMeters>
          </Trackpoint>
          <Trackpoint>
            <Time>2021-08-01T07:42:38.000Z</Time>
            <Position>
              <LatitudeDegrees>42.119122445583343505859375</LatitudeDegrees>
              <LongitudeDegrees>-2.30148361064493656158447265625</LongitudeDegrees>
            </Position>
            <AltitudeMeters>912</AltitudeMeters>
            <DistanceMeters>345249.86468049</DistanceMeters>
          </Trackpoint>
          <Trackpoint>
            <Time>2021-08-01T07:42:41.000Z</Time>
            <Position>
              <LatitudeDegrees>42.118903510272502899169921875</LatitudeDegrees>
              <LongitudeDegrees>-2.30145226232707500457763671875</LongitudeDegrees>
            </Position>
            <AltitudeMeters>910.5999755859375</AltitudeMeters>
            <DistanceMeters>345274.3697837</DistanceMeters>
          </Trackpoint>
          <Trackpoint>
            <Time>2021-08-01T07:42:43.000Z</Time>
            <Position>
              <LatitudeDegrees>42.1187471039593219757080078125</LatitudeDegrees>
              <LongitudeDegrees>-2.30141647160053253173828125</LongitudeDegrees>
            </Position>
            <AltitudeMeters>909.20001220703125</AltitudeMeters>
            <DistanceMeters>345292.02711785</DistanceMeters>
          </Trackpoint>
          <Trackpoint>
            <Time>2021-08-01T07:42:45.000Z</Time>
            <Position>
              <LatitudeDegrees>42.11858474649488925933837890625</LatitudeDegrees>
              <LongitudeDegrees>-2.30137313716113567352294921875</LongitudeDegrees>
            </Position>
            <AltitudeMeters>907.5999755859375</AltitudeMeters>
            <DistanceMeters>345310.44858014</DistanceMeters>
          </Trackpoint>
          <Trackpoint>
            <Time>2021-08-01T07:42:47.000Z</Time>
            <Position>
              <LatitudeDegrees>42.11841895245015621185302734375</LatitudeDegrees>
              <LongitudeDegrees>-2.30131060816347599029541015625</LongitudeDegrees>
            </Position>
            <AltitudeMeters>906.20001220703125</AltitudeMeters>
            <DistanceMeters>345329.61054685</DistanceMeters>
          </Trackpoint>
          <Trackpoint>
            <Time>2021-08-01T07:42:49.000Z</Time>
            <Position>
              <LatitudeDegrees>42.11825148202478885650634765625</LatitudeDegrees>
              <LongitudeDegrees>-2.301230728626251220703125</LongitudeDegrees>
            </Position>
            <AltitudeMeters>904.20001220703125</AltitudeMeters>
            <DistanceMeters>345349.38295514</DistanceMeters>
          </Trackpoint>
          <Trackpoint>
            <Time>2021-08-01T07:42:51.000Z</Time>
            <Position>
              <LatitudeDegrees>42.11808166466653347015380859375</LatitudeDegrees>
              <LongitudeDegrees>-2.30113961733877658843994140625</LongitudeDegrees>
            </Position>
            <AltitudeMeters>903.20001220703125</AltitudeMeters>
            <DistanceMeters>345369.72577558</DistanceMeters>
          </Trackpoint>
          <Trackpoint>
            <Time>2021-08-01T07:42:55.000Z</Time>
            <Position>
              <LatitudeDegrees>42.11773700080811977386474609375</LatitudeDegrees>
              <LongitudeDegrees>-2.30090727098286151885986328125</LongitudeDegrees>
            </Position>
            <AltitudeMeters>901.5999755859375</AltitudeMeters>
            <DistanceMeters>345412.61620706</DistanceMeters>
          </Trackpoint>
          <Trackpoint>
            <Time>2021-08-01T07:42:57.000Z</Time>
            <Position>
              <LatitudeDegrees>42.11756802164018154144287109375</LatitudeDegrees>
              <LongitudeDegrees>-2.30077014304697513580322265625</LongitudeDegrees>
            </Position>
            <AltitudeMeters>900.4000244140625</AltitudeMeters>
            <DistanceMeters>345434.56840649</DistanceMeters>
          </Trackpoint>
          <Trackpoint>
            <Time>2021-08-01T07:43:00.000Z</Time>
            <Position>
              <LatitudeDegrees>42.11732427589595317840576171875</LatitudeDegrees>
              <LongitudeDegrees>-2.3005647026002407073974609375</LongitudeDegrees>
            </Position>
            <AltitudeMeters>899.20001220703125</AltitudeMeters>
            <DistanceMeters>345466.56363451</DistanceMeters>
          </Trackpoint>
          <Trackpoint>
            <Time>2021-08-01T07:43:05.000Z</Time>
            <Position>
              <LatitudeDegrees>42.1169698052108287811279296875</LatitudeDegrees>
              <LongitudeDegrees>-2.30026219971477985382080078125</LongitudeDegrees>
            </Position>
            <AltitudeMeters>900.5999755859375</AltitudeMeters>
            <DistanceMeters>345513.25725181</DistanceMeters>
          </Trackpoint>
          <Trackpoint>
            <Time>2021-08-01T07:43:07.000Z</Time>
            <Position>
              <LatitudeDegrees>42.11684986017644405364990234375</LatitudeDegrees>
              <LongitudeDegrees>-2.30016413144767284393310546875</LongitudeDegrees>
            </Position>
            <AltitudeMeters>901.5999755859375</AltitudeMeters>
            <DistanceMeters>345528.87057765</DistanceMeters>
          </Trackpoint>
          <Trackpoint>
            <Time>2021-08-01T07:43:10.000Z</Time>
            <Position>
              <LatitudeDegrees>42.11668054573237895965576171875</LatitudeDegrees>
              <LongitudeDegrees>-2.300069332122802734375</LongitudeDegrees>
            </Position>
            <AltitudeMeters>902.79998779296875</AltitudeMeters>
            <DistanceMeters>345549.27633382</DistanceMeters>
          </Trackpoint>
          <Trackpoint>
            <Time>2021-08-01T07:43:13.000Z</Time>
            <Position>
              <LatitudeDegrees>42.1165282465517520904541015625</LatitudeDegrees>
              <LongitudeDegrees>-2.30002499185502529144287109375</LongitudeDegrees>
            </Position>
            <AltitudeMeters>904</AltitudeMeters>
            <DistanceMeters>345566.61812341</DistanceMeters>
          </Trackpoint>
          <Trackpoint>
            <Time>2021-08-01T07:43:16.000Z</Time>
            <Position>
              <LatitudeDegrees>42.1163891069591045379638671875</LatitudeDegrees>
              <LongitudeDegrees>-2.30002532713115215301513671875</LongitudeDegrees>
            </Position>
            <AltitudeMeters>905</AltitudeMeters>
            <DistanceMeters>345582.10427109</DistanceMeters>
          </Trackpoint>
          <Trackpoint>
            <Time>2021-08-01T07:43:22.000Z</Time>
            <Position>
              <LatitudeDegrees>42.1161480434238910675048828125</LatitudeDegrees>
              <LongitudeDegrees>-2.300136722624301910400390625</LongitudeDegrees>
            </Position>
            <AltitudeMeters>905.79998779296875</AltitudeMeters>
            <DistanceMeters>345610.46747702</DistanceMeters>
          </Trackpoint>
          <Trackpoint>
            <Time>2021-08-01T07:43:24.000Z</Time>
            <Position>
              <LatitudeDegrees>42.11608040146529674530029296875</LatitudeDegrees>
              <LongitudeDegrees>-2.30019799433648586273193359375</LongitudeDegrees>
            </Position>
            <AltitudeMeters>906.20001220703125</AltitudeMeters>
            <DistanceMeters>345619.5374272</DistanceMeters>
          </Trackpoint>
          <Trackpoint>
            <Time>2021-08-01T07:43:26.000Z</Time>
            <Position>
              <LatitudeDegrees>42.11602055467665195465087890625</LatitudeDegrees>
              <LongitudeDegrees>-2.300271503627300262451171875</LongitudeDegrees>
            </Position>
            <AltitudeMeters>906.5999755859375</AltitudeMeters>
            <DistanceMeters>345628.54844531</DistanceMeters>
          </Trackpoint>
          <Trackpoint>
            <Time>2021-08-01T07:43:29.000Z</Time>
            <Position>
              <LatitudeDegrees>42.11594402790069580078125</LatitudeDegrees>
              <LongitudeDegrees>-2.30039832182228565216064453125</LongitudeDegrees>
            </Position>
            <AltitudeMeters>907.20001220703125</AltitudeMeters>
            <DistanceMeters>345642.04591886</DistanceMeters>
          </Trackpoint>
          <Trackpoint>
            <Time>2021-08-01T07:43:30.000Z</Time>
            <Position>
              <LatitudeDegrees>42.1159217320382595062255859375</LatitudeDegrees>
              <LongitudeDegrees>-2.3004429973661899566650390625</LongitudeDegrees>
            </Position>
            <AltitudeMeters>907.5999755859375</AltitudeMeters>
            <DistanceMeters>345646.49089437</DistanceMeters>
          </Trackpoint>
          <Trackpoint>
            <Time>2021-08-01T07:43:39.000Z</Time>
            <Position>
              <LatitudeDegrees>42.11583950556814670562744140625</LatitudeDegrees>
              <LongitudeDegrees>-2.3009155690670013427734375</LongitudeDegrees>
            </Position>
            <AltitudeMeters>907.79998779296875</AltitudeMeters>
            <DistanceMeters>345686.56671422</DistanceMeters>
          </Trackpoint>
          <Trackpoint>
            <Time>2021-08-01T07:43:46.000Z</Time>
            <Position>
              <LatitudeDegrees>42.115928940474987030029296875</LatitudeDegrees>
              <LongitudeDegrees>-2.3013150505721569061279296875</LongitudeDegrees>
            </Position>
            <AltitudeMeters>906.5999755859375</AltitudeMeters>
            <DistanceMeters>345721.01832155</DistanceMeters>
          </Trackpoint>
          <Trackpoint>
            <Time>2021-08-01T07:43:47.000Z</Time>
            <Position>
              <LatitudeDegrees>42.11595634929835796356201171875</LatitudeDegrees>
              <LongitudeDegrees>-2.3013717122375965118408203125</LongitudeDegrees>
            </Position>
            <AltitudeMeters>906.20001220703125</AltitudeMeters>
            <DistanceMeters>345726.60311197</DistanceMeters>
          </Trackpoint>
          <Trackpoint>
            <Time>2021-08-01T07:43:50.000Z</Time>
            <Position>
              <LatitudeDegrees>42.11606481112539768218994140625</LatitudeDegrees>
              <LongitudeDegrees>-2.30153675191104412078857421875</LongitudeDegrees>
            </Position>
            <AltitudeMeters>905</AltitudeMeters>
            <DistanceMeters>345744.80761156</DistanceMeters>
          </Trackpoint>
          <Trackpoint>
            <Time>2021-08-01T07:43:53.000Z</Time>
            <Position>
              <LatitudeDegrees>42.116206549108028411865234375</LatitudeDegrees>
              <LongitudeDegrees>-2.30169064365327358245849609375</LongitudeDegrees>
            </Position>
            <AltitudeMeters>903.4000244140625</AltitudeMeters>
            <DistanceMeters>345765.06368753</DistanceMeters>
          </Trackpoint>
          <Trackpoint>
            <Time>2021-08-01T07:43:56.000Z</Time>
            <Position>
              <LatitudeDegrees>42.11637343280017375946044921875</LatitudeDegrees>
              <LongitudeDegrees>-2.30183221399784088134765625</LongitudeDegrees>
            </Position>
            <AltitudeMeters>901.79998779296875</AltitudeMeters>
            <DistanceMeters>345787.00971581</DistanceMeters>
          </Trackpoint>
          <Trackpoint>
            <Time>2021-08-01T07:43:59.000Z</Time>
            <Position>
              <LatitudeDegrees>42.11654484272003173828125</LatitudeDegrees>
              <LongitudeDegrees>-2.30199775658547878265380859375</LongitudeDegrees>
            </Position>
            <AltitudeMeters>900.4000244140625</AltitudeMeters>
            <DistanceMeters>345810.47842865</DistanceMeters>
          </Trackpoint>
          <Trackpoint>
            <Time>2021-08-01T07:44:02.000Z</Time>
            <Position>
              <LatitudeDegrees>42.11670669727027416229248046875</LatitudeDegrees>
              <LongitudeDegrees>-2.30220235884189605712890625</LongitudeDegrees>
            </Position>
            <AltitudeMeters>899</AltitudeMeters>
            <DistanceMeters>345835.17440733</DistanceMeters>
          </Trackpoint>
          <Trackpoint>
            <Time>2021-08-01T07:44:04.000Z</Time>
            <Position>
              <LatitudeDegrees>42.11680225096642971038818359375</LatitudeDegrees>
              <LongitudeDegrees>-2.30236521922051906585693359375</LongitudeDegrees>
            </Position>
            <AltitudeMeters>898</AltitudeMeters>
            <DistanceMeters>345852.31823795</DistanceMeters>
          </Trackpoint>
          <Trackpoint>
            <Time>2021-08-01T07:44:05.000Z</Time>
            <Position>
              <LatitudeDegrees>42.1168434061110019683837890625</LatitudeDegrees>
              <LongitudeDegrees>-2.3024543188512325286865234375</LongitudeDegrees>
            </Position>
            <AltitudeMeters>897</AltitudeMeters>
            <DistanceMeters>345860.98392405</DistanceMeters>
          </Trackpoint>
          <Trackpoint>
            <Time>2021-08-01T07:44:06.000Z</Time>
            <Position>
              <LatitudeDegrees>42.11687953211367130279541015625</LatitudeDegrees>
              <LongitudeDegrees>-2.302549369633197784423828125</LongitudeDegrees>
            </Position>
            <AltitudeMeters>896.20001220703125</AltitudeMeters>
            <DistanceMeters>345869.80146102</DistanceMeters>
          </Trackpoint>
          <Trackpoint>
            <Time>2021-08-01T07:44:09.000Z</Time>
            <Position>
              <LatitudeDegrees>42.11697407998144626617431640625</LatitudeDegrees>
              <LongitudeDegrees>-2.302854470908641815185546875</LongitudeDegrees>
            </Position>
            <AltitudeMeters>894.79998779296875</AltitudeMeters>
            <DistanceMeters>345897.10076887</DistanceMeters>
          </Trackpoint>
          <Trackpoint>
            <Time>2021-08-01T07:44:13.000Z</Time>
            <Position>
              <LatitudeDegrees>42.11709008552134037017822265625</LatitudeDegrees>
              <LongitudeDegrees>-2.30330432765185832977294921875</LongitudeDegrees>
            </Position>
            <AltitudeMeters>893.5999755859375</AltitudeMeters>
            <DistanceMeters>345936.42185416</DistanceMeters>
          </Trackpoint>
          <Trackpoint>
            <Time>2021-08-01T07:44:15.000Z</Time>
            <Position>
              <LatitudeDegrees>42.117163427174091339111328125</LatitudeDegrees>
              <LongitudeDegrees>-2.3035332374274730682373046875</LongitudeDegrees>
            </Position>
            <AltitudeMeters>891.4000244140625</AltitudeMeters>
            <DistanceMeters>345957.0086851</DistanceMeters>
          </Trackpoint>
          <Trackpoint>
            <Time>2021-08-01T07:44:17.000Z</Time>
            <Position>
              <LatitudeDegrees>42.117260657250881195068359375</LatitudeDegrees>
              <LongitudeDegrees>-2.30375058017671108245849609375</LongitudeDegrees>
            </Position>
            <AltitudeMeters>889.79998779296875</AltitudeMeters>
            <DistanceMeters>345977.96331459</DistanceMeters>
          </Trackpoint>
          <Trackpoint>
            <Time>2021-08-01T07:44:18.000Z</Time>
            <Position>
              <LatitudeDegrees>42.117320001125335693359375</LatitudeDegrees>
              <LongitudeDegrees>-2.303851582109928131103515625</LongitudeDegrees>
            </Position>
            <AltitudeMeters>889.4000244140625</AltitudeMeters>
            <DistanceMeters>345988.60121466</DistanceMeters>
          </Trackpoint>
          <Trackpoint>
            <Time>2021-08-01T07:44:20.000Z</Time>
            <Position>
              <LatitudeDegrees>42.11745855398476123809814453125</LatitudeDegrees>
              <LongitudeDegrees>-2.30403296649456024169921875</LongitudeDegrees>
            </Position>
            <AltitudeMeters>888.4000244140625</AltitudeMeters>
            <DistanceMeters>346010.09700522</DistanceMeters>
          </Trackpoint>
          <Trackpoint>
            <Time>2021-08-01T07:44:25.000Z</Time>
            <Position>
              <LatitudeDegrees>42.11784613318741321563720703125</LatitudeDegrees>
              <LongitudeDegrees>-2.30434016324579715728759765625</LongitudeDegrees>
            </Position>
            <AltitudeMeters>888.4000244140625</AltitudeMeters>
            <DistanceMeters>346060.13865406</DistanceMeters>
          </Trackpoint>
          <Trackpoint>
            <Time>2021-08-01T07:44:28.000Z</Time>
            <Position>
              <LatitudeDegrees>42.11805350147187709808349609375</LatitudeDegrees>
              <LongitudeDegrees>-2.304465472698211669921875</LongitudeDegrees>
            </Position>
            <AltitudeMeters>889.79998779296875</AltitudeMeters>
            <DistanceMeters>346085.43183092</DistanceMeters>
          </Trackpoint>
          <Trackpoint>
            <Time>2021-08-01T07:44:31.000Z</Time>
            <Position>
              <LatitudeDegrees>42.11823505349457263946533203125</LatitudeDegrees>
              <LongitudeDegrees>-2.30457603000104427337646484375</LongitudeDegrees>
            </Position>
            <AltitudeMeters>891</AltitudeMeters>
            <DistanceMeters>346107.6050477</DistanceMeters>
          </Trackpoint>
          <Trackpoint>
            <Time>2021-08-01T07:44:39.000Z</Time>
            <Position>
              <LatitudeDegrees>42.118596732616424560546875</LatitudeDegrees>
              <LongitudeDegrees>-2.30486713349819183349609375</LongitudeDegrees>
            </Position>
            <AltitudeMeters>892</AltitudeMeters>
            <DistanceMeters>346154.48915234</DistanceMeters>
          </Trackpoint>
          <Trackpoint>
            <Time>2021-08-01T07:44:46.000Z</Time>
            <Position>
              <LatitudeDegrees>42.118838466703891754150390625</LatitudeDegrees>
              <LongitudeDegrees>-2.305125296115875244140625</LongitudeDegrees>
            </Position>
            <AltitudeMeters>893.4000244140625</AltitudeMeters>
            <DistanceMeters>346188.81366448</DistanceMeters>
          </Trackpoint>
          <Trackpoint>
            <Time>2021-08-01T07:44:51.000Z</Time>
            <Position>
              <LatitudeDegrees>42.11899898014962673187255859375</LatitudeDegrees>
              <LongitudeDegrees>-2.305306009948253631591796875</LongitudeDegrees>
            </Position>
            <AltitudeMeters>894.4000244140625</AltitudeMeters>
            <DistanceMeters>346212.08958479</DistanceMeters>
          </Trackpoint>
          <Trackpoint>
            <Time>2021-08-01T07:44:56.000Z</Time>
            <Position>
              <LatitudeDegrees>42.11914993822574615478515625</LatitudeDegrees>
              <LongitudeDegrees>-2.30548429302871227264404296875</LongitudeDegrees>
            </Position>
            <AltitudeMeters>895.5999755859375</AltitudeMeters>
            <DistanceMeters>346234.42672525</DistanceMeters>
          </Trackpoint>
          <Trackpoint>
            <Time>2021-08-01T07:45:02.000Z</Time>
            <Position>
              <LatitudeDegrees>42.11931983940303325653076171875</LatitudeDegrees>
              <LongitudeDegrees>-2.3057088442146778106689453125</LongitudeDegrees>
            </Position>
            <AltitudeMeters>896.5999755859375</AltitudeMeters>
            <DistanceMeters>346260.90833654</DistanceMeters>
          </Trackpoint>
          <Trackpoint>
            <Time>2021-08-01T07:45:12.000Z</Time>
            <Position>
              <LatitudeDegrees>42.119542546570301055908203125</LatitudeDegrees>
              <LongitudeDegrees>-2.30610899627208709716796875</LongitudeDegrees>
            </Position>
            <AltitudeMeters>897.5999755859375</AltitudeMeters>
            <DistanceMeters>346302.20966219</DistanceMeters>
          </Trackpoint>
          <Trackpoint>
            <Time>2021-08-01T07:45:18.000Z</Time>
            <Position>
              <LatitudeDegrees>42.11965813301503658294677734375</LatitudeDegrees>
              <LongitudeDegrees>-2.30633296072483062744140625</LongitudeDegrees>
            </Position>
            <AltitudeMeters>898.5999755859375</AltitudeMeters>
            <DistanceMeters>346324.73480227</DistanceMeters>
          </Trackpoint>
          <Trackpoint>
            <Time>2021-08-01T07:45:26.000Z</Time>
            <Position>
              <LatitudeDegrees>42.1197903156280517578125</LatitudeDegrees>
              <LongitudeDegrees>-2.3065969906747341156005859375</LongitudeDegrees>
            </Position>
            <AltitudeMeters>899.79998779296875</AltitudeMeters>
            <DistanceMeters>346351.03300553</DistanceMeters>
          </Trackpoint>
          <Trackpoint>
            <Time>2021-08-01T07:45:36.000Z</Time>
            <Position>
              <LatitudeDegrees>42.11989735253155231475830078125</LatitudeDegrees>
              <LongitudeDegrees>-2.30692178942263126373291015625</LongitudeDegrees>
            </Position>
            <AltitudeMeters>901</AltitudeMeters>
            <DistanceMeters>346380.37487916</DistanceMeters>
          </Trackpoint>
          <Trackpoint>
            <Time>2021-08-01T07:45:45.000Z</Time>
            <Position>
              <LatitudeDegrees>42.11989215575158596038818359375</LatitudeDegrees>
              <LongitudeDegrees>-2.3072323389351367950439453125</LongitudeDegrees>
            </Position>
            <AltitudeMeters>902</AltitudeMeters>
            <DistanceMeters>346406.0197708</DistanceMeters>
          </Trackpoint>
          <Trackpoint>
            <Time>2021-08-01T07:45:58.000Z</Time>
            <Position>
              <LatitudeDegrees>42.11973574943840503692626953125</LatitudeDegrees>
              <LongitudeDegrees>-2.307590581476688385009765625</LongitudeDegrees>
            </Position>
            <AltitudeMeters>903.20001220703125</AltitudeMeters>
            <DistanceMeters>346440.33823158</DistanceMeters>
          </Trackpoint>
          <Trackpoint>
            <Time>2021-08-01T07:46:04.000Z</Time>
            <Position>
              <LatitudeDegrees>42.1196204982697963714599609375</LatitudeDegrees>
              <LongitudeDegrees>-2.30770499445497989654541015625</LongitudeDegrees>
            </Position>
            <AltitudeMeters>904.4000244140625</AltitudeMeters>
            <DistanceMeters>346456.26817848</DistanceMeters>
          </Trackpoint>
          <Trackpoint>
            <Time>2021-08-01T07:46:11.000Z</Time>
            <Position>
              <LatitudeDegrees>42.119474150240421295166015625</LatitudeDegrees>
              <LongitudeDegrees>-2.30778881348669528961181640625</LongitudeDegrees>
            </Position>
            <AltitudeMeters>905.5999755859375</AltitudeMeters>
            <DistanceMeters>346473.96612276</DistanceMeters>
          </Trackpoint>
          <Trackpoint>
            <Time>2021-08-01T07:46:21.000Z</Time>
            <Position>
              <LatitudeDegrees>42.1192392893135547637939453125</LatitudeDegrees>
              <LongitudeDegrees>-2.3078626580536365509033203125</LongitudeDegrees>
            </Position>
            <AltitudeMeters>906.5999755859375</AltitudeMeters>
            <DistanceMeters>346500.80809994</DistanceMeters>
          </Trackpoint>
          <Trackpoint>
            <Time>2021-08-01T07:46:30.000Z</Time>
            <Position>
              <LatitudeDegrees>42.11902119219303131103515625</LatitudeDegrees>
              <LongitudeDegrees>-2.30789878405630588531494140625</LongitudeDegrees>
            </Position>
            <AltitudeMeters>907.79998779296875</AltitudeMeters>
            <DistanceMeters>346525.26525153</DistanceMeters>
          </Trackpoint>
          <Trackpoint>
            <Time>2021-08-01T07:46:38.000Z</Time>
            <Position>
              <LatitudeDegrees>42.11883016861975193023681640625</LatitudeDegrees>
              <LongitudeDegrees>-2.3078777454793453216552734375</LongitudeDegrees>
            </Position>
            <AltitudeMeters>908.79998779296875</AltitudeMeters>
            <DistanceMeters>346546.59742611</DistanceMeters>
          </Trackpoint>
          <Trackpoint>
            <Time>2021-08-01T07:46:46.000Z</Time>
            <Position>
              <LatitudeDegrees>42.11864291690289974212646484375</LatitudeDegrees>
              <LongitudeDegrees>-2.30780339799821376800537109375</LongitudeDegrees>
            </Position>
            <AltitudeMeters>909.79998779296875</AltitudeMeters>
            <DistanceMeters>346568.32386659</DistanceMeters>
          </Trackpoint>
          <Trackpoint>
            <Time>2021-08-01T07:46:56.000Z</Time>
            <Position>
              <LatitudeDegrees>42.11841409094631671905517578125</LatitudeDegrees>
              <LongitudeDegrees>-2.3076970316469669342041015625</LongitudeDegrees>
            </Position>
            <AltitudeMeters>911.20001220703125</AltitudeMeters>
            <DistanceMeters>346595.26389822</DistanceMeters>
          </Trackpoint>
          <Trackpoint>
            <Time>2021-08-01T07:47:05.000Z</Time>
            <Position>
              <LatitudeDegrees>42.11820638738572597503662109375</LatitudeDegrees>
              <LongitudeDegrees>-2.30760030448436737060546875</LongitudeDegrees>
            </Position>
            <AltitudeMeters>912.4000244140625</AltitudeMeters>
            <DistanceMeters>346619.72215744</DistanceMeters>
          </Trackpoint>
          <Trackpoint>
            <Time>2021-08-01T07:47:15.000Z</Time>
            <Position>
              <LatitudeDegrees>42.11798250675201416015625</LatitudeDegrees>
              <LongitudeDegrees>-2.3074858076870441436767578125</LongitudeDegrees>
            </Position>
            <AltitudeMeters>913.4000244140625</AltitudeMeters>
            <DistanceMeters>346646.37321225</DistanceMeters>
          </Trackpoint>
          <Trackpoint>
            <Time>2021-08-01T07:47:22.000Z</Time>
            <Position>
              <LatitudeDegrees>42.117834985256195068359375</LatitudeDegrees>
              <LongitudeDegrees>-2.30738447047770023345947265625</LongitudeDegrees>
            </Position>
            <AltitudeMeters>914.4000244140625</AltitudeMeters>
            <DistanceMeters>346664.80104595</DistanceMeters>
          </Trackpoint>
          <Trackpoint>
            <Time>2021-08-01T07:47:30.000Z</Time>
            <Position>
              <LatitudeDegrees>42.1176727116107940673828125</LatitudeDegrees>
              <LongitudeDegrees>-2.30724566616117954254150390625</LongitudeDegrees>
            </Position>
            <AltitudeMeters>915.5999755859375</AltitudeMeters>
            <DistanceMeters>346686.190924</DistanceMeters>
          </Trackpoint>
          <Trackpoint>
            <Time>2021-08-01T07:47:39.000Z</Time>
            <Position>
              <LatitudeDegrees>42.11747355759143829345703125</LatitudeDegrees>
              <LongitudeDegrees>-2.3071166686713695526123046875</LongitudeDegrees>
            </Position>
            <AltitudeMeters>916.5999755859375</AltitudeMeters>
            <DistanceMeters>346710.78283893</DistanceMeters>
          </Trackpoint>
          <Trackpoint>
            <Time>2021-08-01T07:47:46.000Z</Time>
            <Position>
              <LatitudeDegrees>42.11731455288827419281005859375</LatitudeDegrees>
              <LongitudeDegrees>-2.3071649484336376190185546875</LongitudeDegrees>
            </Position>
            <AltitudeMeters>917.5999755859375</AltitudeMeters>
            <DistanceMeters>346728.92373488</DistanceMeters>
          </Trackpoint>
          <Trackpoint>
            <Time>2021-08-01T07:47:52.000Z</Time>
            <Position>
              <LatitudeDegrees>42.1172195859253406524658203125</LatitudeDegrees>
              <LongitudeDegrees>-2.307296209037303924560546875</LongitudeDegrees>
            </Position>
            <AltitudeMeters>918.5999755859375</AltitudeMeters>
            <DistanceMeters>346744.0622391</DistanceMeters>
          </Trackpoint>
          <Trackpoint>
            <Time>2021-08-01T07:47:58.000Z</Time>
            <Position>
              <LatitudeDegrees>42.11714607663452625274658203125</LatitudeDegrees>
              <LongitudeDegrees>-2.30744666419923305511474609375</LongitudeDegrees>
            </Position>
            <AltitudeMeters>919.79998779296875</AltitudeMeters>
            <DistanceMeters>346758.93627261</DistanceMeters>
          </Trackpoint>
          <Trackpoint>
            <Time>2021-08-01T07:48:06.000Z</Time>
            <Position>
              <LatitudeDegrees>42.11708069778978824615478515625</LatitudeDegrees>
              <LongitudeDegrees>-2.30767917819321155548095703125</LongitudeDegrees>
            </Position>
            <AltitudeMeters>921</AltitudeMeters>
            <DistanceMeters>346779.46556212</DistanceMeters>
          </Trackpoint>
          <Trackpoint>
            <Time>2021-08-01T07:48:12.000Z</Time>
            <Position>
              <LatitudeDegrees>42.11704666726291179656982421875</LatitudeDegrees>
              <LongitudeDegrees>-2.30785888619720935821533203125</LongitudeDegrees>
            </Position>
            <AltitudeMeters>922.20001220703125</AltitudeMeters>
            <DistanceMeters>346794.77813751</DistanceMeters>
          </Trackpoint>
          <Trackpoint>
            <Time>2021-08-01T07:48:22.000Z</Time>
            <Position>
              <LatitudeDegrees>42.11699721403419971466064453125</LatitudeDegrees>
              <LongitudeDegrees>-2.3081737942993640899658203125</LongitudeDegrees>
            </Position>
            <AltitudeMeters>923.20001220703125</AltitudeMeters>
            <DistanceMeters>346821.35352666</DistanceMeters>
          </Trackpoint>
          <Trackpoint>
            <Time>2021-08-01T07:48:41.000Z</Time>
            <Position>
              <LatitudeDegrees>42.11667886935174465179443359375</LatitudeDegrees>
              <LongitudeDegrees>-2.308781147003173828125</LongitudeDegrees>
            </Position>
            <AltitudeMeters>923.5999755859375</AltitudeMeters>
            <DistanceMeters>346882.75277164</DistanceMeters>
          </Trackpoint>
          <Trackpoint>
            <Time>2021-08-01T07:48:56.000Z</Time>
            <Position>
              <LatitudeDegrees>42.1162201277911663055419921875</LatitudeDegrees>
              <LongitudeDegrees>-2.30919764377176761627197265625</LongitudeDegrees>
            </Position>
            <AltitudeMeters>923.4000244140625</AltitudeMeters>
            <DistanceMeters>346944.31130898</DistanceMeters>
          </Trackpoint>
          <Trackpoint>
            <Time>2021-08-01T07:49:11.000Z</Time>
            <Position>
              <LatitudeDegrees>42.11570874787867069244384765625</LatitudeDegrees>
              <LongitudeDegrees>-2.309478186070919036865234375</LongitudeDegrees>
            </Position>
            <AltitudeMeters>923.4000244140625</AltitudeMeters>
            <DistanceMeters>347005.76134614</DistanceMeters>
          </Trackpoint>
          <Trackpoint>
            <Time>2021-08-01T07:49:24.000Z</Time>
            <Position>
              <LatitudeDegrees>42.115293256938457489013671875</LatitudeDegrees>
              <LongitudeDegrees>-2.3096939362585544586181640625</LongitudeDegrees>
            </Position>
            <AltitudeMeters>924.4000244140625</AltitudeMeters>
            <DistanceMeters>347055.31839266</DistanceMeters>
          </Trackpoint>
          <Trackpoint>
            <Time>2021-08-01T07:49:31.000Z</Time>
            <Position>
              <LatitudeDegrees>42.1150815300643444061279296875</LatitudeDegrees>
              <LongitudeDegrees>-2.3098065890371799468994140625</LongitudeDegrees>
            </Position>
            <AltitudeMeters>925.5999755859375</AltitudeMeters>
            <DistanceMeters>347080.65294957</DistanceMeters>
          </Trackpoint>
          <Trackpoint>
            <Time>2021-08-01T07:49:40.000Z</Time>
            <Position>
              <LatitudeDegrees>42.1148166619241237640380859375</LatitudeDegrees>
              <LongitudeDegrees>-2.30994698591530323028564453125</LongitudeDegrees>
            </Position>
            <AltitudeMeters>926.5999755859375</AltitudeMeters>
            <DistanceMeters>347112.33035815</DistanceMeters>
          </Trackpoint>
          <Trackpoint>
            <Time>2021-08-01T07:49:46.000Z</Time>
            <Position>
              <LatitudeDegrees>42.1146406419575214385986328125</LatitudeDegrees>
              <LongitudeDegrees>-2.310035414993762969970703125</LongitudeDegrees>
            </Position>
            <AltitudeMeters>927.79998779296875</AltitudeMeters>
            <DistanceMeters>347133.237963</DistanceMeters>
          </Trackpoint>
          <Trackpoint>
            <Time>2021-08-01T07:50:03.000Z</Time>
            <Position>
              <LatitudeDegrees>42.11410746909677982330322265625</LatitudeDegrees>
              <LongitudeDegrees>-2.31031646020710468292236328125</LongitudeDegrees>
            </Position>
            <AltitudeMeters>927</AltitudeMeters>
            <DistanceMeters>347196.95647515</DistanceMeters>
          </Trackpoint>
          <Trackpoint>
            <Time>2021-08-01T07:50:05.000Z</Time>
            <Position>
              <LatitudeDegrees>42.11403974331915378570556640625</LatitudeDegrees>
              <LongitudeDegrees>-2.31036792509257793426513671875</LongitudeDegrees>
            </Position>
            <AltitudeMeters>926.79998779296875</AltitudeMeters>
            <DistanceMeters>347205.60964762</DistanceMeters>
          </Trackpoint>
          <Trackpoint>
            <Time>2021-08-01T07:50:08.000Z</Time>
            <Position>
              <LatitudeDegrees>42.1139365620911121368408203125</LatitudeDegrees>
              <LongitudeDegrees>-2.31046163477003574371337890625</LongitudeDegrees>
            </Position>
            <AltitudeMeters>926</AltitudeMeters>
            <DistanceMeters>347219.45683663</DistanceMeters>
          </Trackpoint>
          <Trackpoint>
            <Time>2021-08-01T07:50:10.000Z</Time>
            <Position>
              <LatitudeDegrees>42.113872356712818145751953125</LatitudeDegrees>
              <LongitudeDegrees>-2.31054310686886310577392578125</LongitudeDegrees>
            </Position>
            <AltitudeMeters>925.5999755859375</AltitudeMeters>
            <DistanceMeters>347229.27130683</DistanceMeters>
          </Trackpoint>
          <Trackpoint>
            <Time>2021-08-01T07:50:14.000Z</Time>
            <Position>
              <LatitudeDegrees>42.11376917548477649688720703125</LatitudeDegrees>
              <LongitudeDegrees>-2.31077729724347591400146484375</LongitudeDegrees>
            </Position>
            <AltitudeMeters>924.4000244140625</AltitudeMeters>
            <DistanceMeters>347251.7607395</DistanceMeters>
          </Trackpoint>
          <Trackpoint>
            <Time>2021-08-01T07:50:16.000Z</Time>
            <Position>
              <LatitudeDegrees>42.11373045109212398529052734375</LatitudeDegrees>
              <LongitudeDegrees>-2.31092683039605617523193359375</LongitudeDegrees>
            </Position>
            <AltitudeMeters>923</AltitudeMeters>
            <DistanceMeters>347264.83787939</DistanceMeters>
          </Trackpoint>
          <Trackpoint>
            <Time>2021-08-01T07:50:18.000Z</Time>
            <Position>
              <LatitudeDegrees>42.11370312608778476715087890625</LatitudeDegrees>
              <LongitudeDegrees>-2.311090864241123199462890625</LongitudeDegrees>
            </Position>
            <AltitudeMeters>922.20001220703125</AltitudeMeters>
            <DistanceMeters>347278.71893739</DistanceMeters>
          </Trackpoint>
          <Trackpoint>
            <Time>2021-08-01T07:50:20.000Z</Time>
            <Position>
              <LatitudeDegrees>42.11369692347943782806396484375</LatitudeDegrees>
              <LongitudeDegrees>-2.31126093305647373199462890625</LongitudeDegrees>
            </Position>
            <AltitudeMeters>921.79998779296875</AltitudeMeters>
            <DistanceMeters>347292.77775359</DistanceMeters>
          </Trackpoint>
          <Trackpoint>
            <Time>2021-08-01T07:50:25.000Z</Time>
            <Position>
              <LatitudeDegrees>42.1137632243335247039794921875</LatitudeDegrees>
              <LongitudeDegrees>-2.31165220029652118682861328125</LongitudeDegrees>
            </Position>
            <AltitudeMeters>920.79998779296875</AltitudeMeters>
            <DistanceMeters>347325.91510994</DistanceMeters>
          </Trackpoint>
          <Trackpoint>
            <Time>2021-08-01T07:50:36.000Z</Time>
            <Position>
              <LatitudeDegrees>42.11398534476757049560546875</LatitudeDegrees>
              <LongitudeDegrees>-2.31233146972954273223876953125</LongitudeDegrees>
            </Position>
            <AltitudeMeters>921.5999755859375</AltitudeMeters>
            <DistanceMeters>347387.20638307</DistanceMeters>
          </Trackpoint>
          <Trackpoint>
            <Time>2021-08-01T07:50:48.000Z</Time>
            <Position>
              <LatitudeDegrees>42.11421626619994640350341796875</LatitudeDegrees>
              <LongitudeDegrees>-2.31303320266306400299072265625</LongitudeDegrees>
            </Position>
            <AltitudeMeters>921.20001220703125</AltitudeMeters>
            <DistanceMeters>347450.58998513</DistanceMeters>
          </Trackpoint>
          <Trackpoint>
            <Time>2021-08-01T07:50:55.000Z</Time>
            <Position>
              <LatitudeDegrees>42.1143308468163013458251953125</LatitudeDegrees>
              <LongitudeDegrees>-2.31341399252414703369140625</LongitudeDegrees>
            </Position>
            <AltitudeMeters>921.5999755859375</AltitudeMeters>
            <DistanceMeters>347484.51784926</DistanceMeters>
          </Trackpoint>
          <Trackpoint>
            <Time>2021-08-01T07:50:59.000Z</Time>
            <Position>
              <LatitudeDegrees>42.1143519692122936248779296875</LatitudeDegrees>
              <LongitudeDegrees>-2.31364172883331775665283203125</LongitudeDegrees>
            </Position>
            <AltitudeMeters>921.4000244140625</AltitudeMeters>
            <DistanceMeters>347503.4672817</DistanceMeters>
          </Trackpoint>
          <Trackpoint>
            <Time>2021-08-01T07:51:13.000Z</Time>
            <Position>
              <LatitudeDegrees>42.11422028951346874237060546875</LatitudeDegrees>
              <LongitudeDegrees>-2.31438218615949153900146484375</LongitudeDegrees>
            </Position>
            <AltitudeMeters>921.20001220703125</AltitudeMeters>
            <DistanceMeters>347566.33519211</DistanceMeters>
          </Trackpoint>
          <Trackpoint>
            <Time>2021-08-01T07:51:19.000Z</Time>
            <Position>
              <LatitudeDegrees>42.1140659786760807037353515625</LatitudeDegrees>
              <LongitudeDegrees>-2.31465761549770832061767578125</LongitudeDegrees>
            </Position>
            <AltitudeMeters>921</AltitudeMeters>
            <DistanceMeters>347594.83306843</DistanceMeters>
          </Trackpoint>
          <Trackpoint>
            <Time>2021-08-01T07:51:33.000Z</Time>
            <Position>
              <LatitudeDegrees>42.11364612914621829986572265625</LatitudeDegrees>
              <LongitudeDegrees>-2.31518550775945186614990234375</LongitudeDegrees>
            </Position>
            <AltitudeMeters>920.79998779296875</AltitudeMeters>
            <DistanceMeters>347658.73470087</DistanceMeters>
          </Trackpoint>
          <Trackpoint>
            <Time>2021-08-01T07:51:48.000Z</Time>
            <Position>
              <LatitudeDegrees>42.11312142200767993927001953125</LatitudeDegrees>
              <LongitudeDegrees>-2.31545054353773593902587890625</LongitudeDegrees>
            </Position>
            <AltitudeMeters>921.20001220703125</AltitudeMeters>
            <DistanceMeters>347721.10090075</DistanceMeters>
          </Trackpoint>
          <Trackpoint>
            <Time>2021-08-01T07:52:00.000Z</Time>
            <Position>
              <LatitudeDegrees>42.11272059939801692962646484375</LatitudeDegrees>
              <LongitudeDegrees>-2.315465547144412994384765625</LongitudeDegrees>
            </Position>
            <AltitudeMeters>922</AltitudeMeters>
            <DistanceMeters>347765.73048826</DistanceMeters>
          </Trackpoint>
          <Trackpoint>
            <Time>2021-08-01T07:52:16.000Z</Time>
            <Position>
              <LatitudeDegrees>42.11234559305012226104736328125</LatitudeDegrees>
              <LongitudeDegrees>-2.3158901743590831756591796875</LongitudeDegrees>
            </Position>
            <AltitudeMeters>923.4000244140625</AltitudeMeters>
            <DistanceMeters>347820.24071404</DistanceMeters>
          </Trackpoint>
          <Trackpoint>
            <Time>2021-08-01T07:52:20.000Z</Time>
            <Position>
              <LatitudeDegrees>42.11231189779937267303466796875</LatitudeDegrees>
              <LongitudeDegrees>-2.31603962369263172149658203125</LongitudeDegrees>
            </Position>
            <AltitudeMeters>924.4000244140625</AltitudeMeters>
            <DistanceMeters>347833.13776828</DistanceMeters>
          </Trackpoint>
          <Trackpoint>
            <Time>2021-08-01T07:52:26.000Z</Time>
            <Position>
              <LatitudeDegrees>42.1122585050761699676513671875</LatitudeDegrees>
              <LongitudeDegrees>-2.31626107357442378997802734375</LongitudeDegrees>
            </Position>
            <AltitudeMeters>925.4000244140625</AltitudeMeters>
            <DistanceMeters>347852.36418784</DistanceMeters>
          </Trackpoint>
          <Trackpoint>
            <Time>2021-08-01T07:52:32.000Z</Time>
            <Position>
              <LatitudeDegrees>42.1121984906494617462158203125</LatitudeDegrees>
              <LongitudeDegrees>-2.316461987793445587158203125</LongitudeDegrees>
            </Position>
            <AltitudeMeters>926.20001220703125</AltitudeMeters>
            <DistanceMeters>347870.24739749</DistanceMeters>
          </Trackpoint>
          <Trackpoint>
            <Time>2021-08-01T07:52:43.000Z</Time>
            <Position>
              <LatitudeDegrees>42.11208340711891651153564453125</LatitudeDegrees>
              <LongitudeDegrees>-2.316844202578067779541015625</LongitudeDegrees>
            </Position>
            <AltitudeMeters>927.5999755859375</AltitudeMeters>
            <DistanceMeters>347904.30635593</DistanceMeters>
          </Trackpoint>
          <Trackpoint>
            <Time>2021-08-01T07:52:49.000Z</Time>
            <Position>
              <LatitudeDegrees>42.11202607490122318267822265625</LatitudeDegrees>
              <LongitudeDegrees>-2.3170485533773899078369140625</LongitudeDegrees>
            </Position>
            <AltitudeMeters>928.5999755859375</AltitudeMeters>
            <DistanceMeters>347922.34542006</DistanceMeters>
          </Trackpoint>
          <Trackpoint>
            <Time>2021-08-01T07:52:56.000Z</Time>
            <Position>
              <LatitudeDegrees>42.1119453571736812591552734375</LatitudeDegrees>
              <LongitudeDegrees>-2.31727880425751209259033203125</LongitudeDegrees>
            </Position>
            <AltitudeMeters>929.5999755859375</AltitudeMeters>
            <DistanceMeters>347943.37253667</DistanceMeters>
          </Trackpoint>
          <Trackpoint>
            <Time>2021-08-01T07:53:03.000Z</Time>
            <Position>
              <LatitudeDegrees>42.111841924488544464111328125</LatitudeDegrees>
              <LongitudeDegrees>-2.31748332269489765167236328125</LongitudeDegrees>
            </Position>
            <AltitudeMeters>930.79998779296875</AltitudeMeters>
            <DistanceMeters>347963.81012988</DistanceMeters>
          </Trackpoint>
          <Trackpoint>
            <Time>2021-08-01T07:53:04.000Z</Time>
            <Position>
              <LatitudeDegrees>42.11182306520640850067138671875</LatitudeDegrees>
              <LongitudeDegrees>-2.31751064769923686981201171875</LongitudeDegrees>
            </Position>
            <AltitudeMeters>931</AltitudeMeters>
            <DistanceMeters>347966.89227855</DistanceMeters>
          </Trackpoint>
          <Trackpoint>
            <Time>2021-08-01T07:53:11.000Z</Time>
            <Position>
              <LatitudeDegrees>42.11168535053730010986328125</LatitudeDegrees>
              <LongitudeDegrees>-2.31768214143812656402587890625</LongitudeDegrees>
            </Position>
            <AltitudeMeters>932</AltitudeMeters>
            <DistanceMeters>347987.7594613</DistanceMeters>
          </Trackpoint>
          <Trackpoint>
            <Time>2021-08-01T07:53:17.000Z</Time>
            <Position>
              <LatitudeDegrees>42.1115567721426486968994140625</LatitudeDegrees>
              <LongitudeDegrees>-2.31780267320573329925537109375</LongitudeDegrees>
            </Position>
            <AltitudeMeters>933</AltitudeMeters>
            <DistanceMeters>348005.19058325</DistanceMeters>
          </Trackpoint>
          <Trackpoint>
            <Time>2021-08-01T07:53:26.000Z</Time>
            <Position>
              <LatitudeDegrees>42.11134680546820163726806640625</LatitudeDegrees>
              <LongitudeDegrees>-2.31791985221207141876220703125</LongitudeDegrees>
            </Position>
            <AltitudeMeters>934.20001220703125</AltitudeMeters>
            <DistanceMeters>348030.48411712</DistanceMeters>
          </Trackpoint>
          <Trackpoint>
            <Time>2021-08-01T07:53:32.000Z</Time>
            <Position>
              <LatitudeDegrees>42.11119760759174823760986328125</LatitudeDegrees>
              <LongitudeDegrees>-2.3179497756063938140869140625</LongitudeDegrees>
            </Position>
            <AltitudeMeters>935.20001220703125</AltitudeMeters>
            <DistanceMeters>348047.27294692</DistanceMeters>
          </Trackpoint>
          <Trackpoint>
            <Time>2021-08-01T07:53:41.000Z</Time>
            <Position>
              <LatitudeDegrees>42.11096241138875484466552734375</LatitudeDegrees>
              <LongitudeDegrees>-2.3179454170167446136474609375</LongitudeDegrees>
            </Position>
            <AltitudeMeters>936.20001220703125</AltitudeMeters>
            <DistanceMeters>348073.453281</DistanceMeters>
          </Trackpoint>
          <Trackpoint>
            <Time>2021-08-01T07:53:50.000Z</Time>
            <Position>
              <LatitudeDegrees>42.11074280552566051483154296875</LatitudeDegrees>
              <LongitudeDegrees>-2.3179206065833568572998046875</LongitudeDegrees>
            </Position>
            <AltitudeMeters>937.4000244140625</AltitudeMeters>
            <DistanceMeters>348097.98158859</DistanceMeters>
          </Trackpoint>
          <Trackpoint>
            <Time>2021-08-01T07:54:01.000Z</Time>
            <Position>
              <LatitudeDegrees>42.110474668443202972412109375</LatitudeDegrees>
              <LongitudeDegrees>-2.3178322613239288330078125</LongitudeDegrees>
            </Position>
            <AltitudeMeters>938.4000244140625</AltitudeMeters>
            <DistanceMeters>348128.70432936</DistanceMeters>
          </Trackpoint>
          <Trackpoint>
            <Time>2021-08-01T07:54:18.000Z</Time>
            <Position>
              <LatitudeDegrees>42.11004693992435932159423828125</LatitudeDegrees>
              <LongitudeDegrees>-2.31761039234697818756103515625</LongitudeDegrees>
            </Position>
            <AltitudeMeters>939.5999755859375</AltitudeMeters>
            <DistanceMeters>348179.71455988</DistanceMeters>
          </Trackpoint>
          <Trackpoint>
            <Time>2021-08-01T07:54:37.000Z</Time>
            <Position>
              <LatitudeDegrees>42.10949524305760860443115234375</LatitudeDegrees>
              <LongitudeDegrees>-2.3176218755543231964111328125</LongitudeDegrees>
            </Position>
            <AltitudeMeters>940.5999755859375</AltitudeMeters>
            <DistanceMeters>348241.12689282</DistanceMeters>
          </Trackpoint>
          <Trackpoint>
            <Time>2021-08-01T07:54:38.000Z</Time>
            <Position>
              <LatitudeDegrees>42.10946582257747650146484375</LatitudeDegrees>
              <LongitudeDegrees>-2.317636124789714813232421875</LongitudeDegrees>
            </Position>
            <AltitudeMeters>940.79998779296875</AltitudeMeters>
            <DistanceMeters>348244.60803668</DistanceMeters>
          </Trackpoint>
          <Trackpoint>
            <Time>2021-08-01T07:54:55.000Z</Time>
            <Position>
              <LatitudeDegrees>42.1090760640799999237060546875</LatitudeDegrees>
              <LongitudeDegrees>-2.3181687109172344207763671875</LongitudeDegrees>
            </Position>
            <AltitudeMeters>941</AltitudeMeters>
            <DistanceMeters>348306.38037145</DistanceMeters>
          </Trackpoint>
          <Trackpoint>
            <Time>2021-08-01T07:55:03.000Z</Time>
            <Position>
              <LatitudeDegrees>42.10897489450871944427490234375</LatitudeDegrees>
              <LongitudeDegrees>-2.31856877915561199188232421875</LongitudeDegrees>
            </Position>
            <AltitudeMeters>940</AltitudeMeters>
            <DistanceMeters>348341.28092949</DistanceMeters>
          </Trackpoint>
          <Trackpoint>
            <Time>2021-08-01T07:55:06.000Z</Time>
            <Position>
              <LatitudeDegrees>42.10898210294544696807861328125</LatitudeDegrees>
              <LongitudeDegrees>-2.31876608915627002716064453125</LongitudeDegrees>
            </Position>
            <AltitudeMeters>939.5999755859375</AltitudeMeters>
            <DistanceMeters>348357.59261862</DistanceMeters>
          </Trackpoint>
          <Trackpoint>
            <Time>2021-08-01T07:55:08.000Z</Time>
            <Position>
              <LatitudeDegrees>42.10899501107633113861083984375</LatitudeDegrees>
              <LongitudeDegrees>-2.3189136944711208343505859375</LongitudeDegrees>
            </Position>
            <AltitudeMeters>938.4000244140625</AltitudeMeters>
            <DistanceMeters>348369.86468507</DistanceMeters>
          </Trackpoint>
          <Trackpoint>
            <Time>2021-08-01T07:55:11.000Z</Time>
            <Position>
              <LatitudeDegrees>42.1090066619217395782470703125</LatitudeDegrees>
              <LongitudeDegrees>-2.3191678337752819061279296875</LongitudeDegrees>
            </Position>
            <AltitudeMeters>937.20001220703125</AltitudeMeters>
            <DistanceMeters>348390.88943958</DistanceMeters>
          </Trackpoint>
          <Trackpoint>
            <Time>2021-08-01T07:55:14.000Z</Time>
            <Position>
              <LatitudeDegrees>42.1090170554816722869873046875</LatitudeDegrees>
              <LongitudeDegrees>-2.3194544948637485504150390625</LongitudeDegrees>
            </Position>
            <AltitudeMeters>935.5999755859375</AltitudeMeters>
            <DistanceMeters>348414.58769994</DistanceMeters>
          </Trackpoint>
          <Trackpoint>
            <Time>2021-08-01T07:55:22.000Z</Time>
            <Position>
              <LatitudeDegrees>42.10903289727866649627685546875</LatitudeDegrees>
              <LongitudeDegrees>-2.320199310779571533203125</LongitudeDegrees>
            </Position>
            <AltitudeMeters>935.20001220703125</AltitudeMeters>
            <DistanceMeters>348476.1135899</DistanceMeters>
          </Trackpoint>
          <Trackpoint>
            <Time>2021-08-01T07:55:27.000Z</Time>
            <Position>
              <LatitudeDegrees>42.109003476798534393310546875</LatitudeDegrees>
              <LongitudeDegrees>-2.3205300606787204742431640625</LongitudeDegrees>
            </Position>
            <AltitudeMeters>936.79998779296875</AltitudeMeters>
            <DistanceMeters>348503.61984346</DistanceMeters>
          </Trackpoint>
          <Trackpoint>
            <Time>2021-08-01T07:55:31.000Z</Time>
            <Position>
              <LatitudeDegrees>42.10893432609736919403076171875</LatitudeDegrees>
              <LongitudeDegrees>-2.32071404345333576202392578125</LongitudeDegrees>
            </Position>
            <AltitudeMeters>938.20001220703125</AltitudeMeters>
            <DistanceMeters>348520.65005178</DistanceMeters>
          </Trackpoint>
          <Trackpoint>
            <Time>2021-08-01T07:55:37.000Z</Time>
            <Position>
              <LatitudeDegrees>42.1087820269167423248291015625</LatitudeDegrees>
              <LongitudeDegrees>-2.32086592353880405426025390625</LongitudeDegrees>
            </Position>
            <AltitudeMeters>939.20001220703125</AltitudeMeters>
            <DistanceMeters>348541.73613496</DistanceMeters>
          </Trackpoint>
          <Trackpoint>
            <Time>2021-08-01T07:55:43.000Z</Time>
            <Position>
              <LatitudeDegrees>42.108618915081024169921875</LatitudeDegrees>
              <LongitudeDegrees>-2.32091889716684818267822265625</LongitudeDegrees>
            </Position>
            <AltitudeMeters>940.20001220703125</AltitudeMeters>
            <DistanceMeters>348560.4105164</DistanceMeters>
          </Trackpoint>
          <Trackpoint>
            <Time>2021-08-01T07:55:50.000Z</Time>
            <Position>
              <LatitudeDegrees>42.108398973941802978515625</LatitudeDegrees>
              <LongitudeDegrees>-2.32094605453312397003173828125</LongitudeDegrees>
            </Position>
            <AltitudeMeters>941.4000244140625</AltitudeMeters>
            <DistanceMeters>348584.99288235</DistanceMeters>
          </Trackpoint>
          <Trackpoint>
            <Time>2021-08-01T07:55:58.000Z</Time>
            <Position>
              <LatitudeDegrees>42.10812069475650787353515625</LatitudeDegrees>
              <LongitudeDegrees>-2.3209007084369659423828125</LongitudeDegrees>
            </Position>
            <AltitudeMeters>942.4000244140625</AltitudeMeters>
            <DistanceMeters>348616.1914711</DistanceMeters>
          </Trackpoint>
          <Trackpoint>
            <Time>2021-08-01T07:56:09.000Z</Time>
            <Position>
              <LatitudeDegrees>42.10773454047739505767822265625</LatitudeDegrees>
              <LongitudeDegrees>-2.3207734711468219757080078125</LongitudeDegrees>
            </Position>
            <AltitudeMeters>943.4000244140625</AltitudeMeters>
            <DistanceMeters>348660.4365869</DistanceMeters>
          </Trackpoint>
          <Trackpoint>
            <Time>2021-08-01T07:56:24.000Z</Time>
            <Position>
              <LatitudeDegrees>42.1072115935385227203369140625</LatitudeDegrees>
              <LongitudeDegrees>-2.32059518806636333465576171875</LongitudeDegrees>
            </Position>
            <AltitudeMeters>944.20001220703125</AltitudeMeters>
            <DistanceMeters>348720.47444699</DistanceMeters>
          </Trackpoint>
          <Trackpoint>
            <Time>2021-08-01T07:56:28.000Z</Time>
            <Position>
              <LatitudeDegrees>42.10711645893752574920654296875</LatitudeDegrees>
              <LongitudeDegrees>-2.32074723578989505767822265625</LongitudeDegrees>
            </Position>
            <AltitudeMeters>944.4000244140625</AltitudeMeters>
            <DistanceMeters>348736.89840643</DistanceMeters>
          </Trackpoint>
          <Trackpoint>
            <Time>2021-08-01T07:56:32.000Z</Time>
            <Position>
              <LatitudeDegrees>42.10715887136757373809814453125</LatitudeDegrees>
              <LongitudeDegrees>-2.32096650637686252593994140625</LongitudeDegrees>
            </Position>
            <AltitudeMeters>944.20001220703125</AltitudeMeters>
            <DistanceMeters>348755.6097432</DistanceMeters>
          </Trackpoint>
          <Trackpoint>
            <Time>2021-08-01T07:56:46.000Z</Time>
            <Position>
              <LatitudeDegrees>42.10736003704369068145751953125</LatitudeDegrees>
              <LongitudeDegrees>-2.32168735004961490631103515625</LongitudeDegrees>
            </Position>
            <AltitudeMeters>944.20001220703125</AltitudeMeters>
            <DistanceMeters>348819.20455696</DistanceMeters>
          </Trackpoint>
          <Trackpoint>
            <Time>2021-08-01T07:56:50.000Z</Time>
            <Position>
              <LatitudeDegrees>42.10737311281263828277587890625</LatitudeDegrees>
              <LongitudeDegrees>-2.3218788765370845794677734375</LongitudeDegrees>
            </Position>
            <AltitudeMeters>944.5999755859375</AltitudeMeters>
            <DistanceMeters>348835.08624752</DistanceMeters>
          </Trackpoint>
          <Trackpoint>
            <Time>2021-08-01T07:56:56.000Z</Time>
            <Position>
              <LatitudeDegrees>42.10731712169945240020751953125</LatitudeDegrees>
              <LongitudeDegrees>-2.3221796192228794097900390625</LongitudeDegrees>
            </Position>
            <AltitudeMeters>945.5999755859375</AltitudeMeters>
            <DistanceMeters>348860.689908</DistanceMeters>
          </Trackpoint>
          <Trackpoint>
            <Time>2021-08-01T07:57:07.000Z</Time>
            <Position>
              <LatitudeDegrees>42.107056863605976104736328125</LatitudeDegrees>
              <LongitudeDegrees>-2.32258538715541362762451171875</LongitudeDegrees>
            </Position>
            <AltitudeMeters>946.79998779296875</AltitudeMeters>
            <DistanceMeters>348904.98153234</DistanceMeters>
          </Trackpoint>
          <Trackpoint>
            <Time>2021-08-01T07:57:16.000Z</Time>
            <Position>
              <LatitudeDegrees>42.1067834459245204925537109375</LatitudeDegrees>
              <LongitudeDegrees>-2.322798036038875579833984375</LongitudeDegrees>
            </Position>
            <AltitudeMeters>947.79998779296875</AltitudeMeters>
            <DistanceMeters>348940.1161099</DistanceMeters>
          </Trackpoint>
          <Trackpoint>
            <Time>2021-08-01T07:57:27.000Z</Time>
            <Position>
              <LatitudeDegrees>42.10645311512053012847900390625</LatitudeDegrees>
              <LongitudeDegrees>-2.3230174742639064788818359375</LongitudeDegrees>
            </Position>
            <AltitudeMeters>948.79998779296875</AltitudeMeters>
            <DistanceMeters>348981.10524179</DistanceMeters>
          </Trackpoint>
          <Trackpoint>
            <Time>2021-08-01T07:57:28.000Z</Time>
            <Position>
              <LatitudeDegrees>42.106424868106842041015625</LatitudeDegrees>
              <LongitudeDegrees>-2.3230355791747570037841796875</LongitudeDegrees>
            </Position>
            <AltitudeMeters>949</AltitudeMeters>
            <DistanceMeters>348984.58638565</DistanceMeters>
          </Trackpoint>
          <Trackpoint>
            <Time>2021-08-01T07:57:39.000Z</Time>
            <Position>
              <LatitudeDegrees>42.10612169466912746429443359375</LatitudeDegrees>
              <LongitudeDegrees>-2.3232717812061309814453125</LongitudeDegrees>
            </Position>
            <AltitudeMeters>950</AltitudeMeters>
            <DistanceMeters>349023.56170578</DistanceMeters>
          </Trackpoint>
          <Trackpoint>
            <Time>2021-08-01T07:57:46.000Z</Time>
            <Position>
              <LatitudeDegrees>42.10600376129150390625</LatitudeDegrees>
              <LongitudeDegrees>-2.323507480323314666748046875</LongitudeDegrees>
            </Position>
            <AltitudeMeters>951</AltitudeMeters>
            <DistanceMeters>349047.03734348</DistanceMeters>
          </Trackpoint>
          <Trackpoint>
            <Time>2021-08-01T07:57:53.000Z</Time>
            <Position>
              <LatitudeDegrees>42.105990014970302581787109375</LatitudeDegrees>
              <LongitudeDegrees>-2.3237939737737178802490234375</LongitudeDegrees>
            </Position>
            <AltitudeMeters>952.20001220703125</AltitudeMeters>
            <DistanceMeters>349070.74398533</DistanceMeters>
          </Trackpoint>
          <Trackpoint>
            <Time>2021-08-01T07:58:06.000Z</Time>
            <Position>
              <LatitudeDegrees>42.1060560643672943115234375</LatitudeDegrees>
              <LongitudeDegrees>-2.32438431121408939361572265625</LongitudeDegrees>
            </Position>
            <AltitudeMeters>953.20001220703125</AltitudeMeters>
            <DistanceMeters>349120.04252227</DistanceMeters>
          </Trackpoint>
          <Trackpoint>
            <Time>2021-08-01T07:58:16.000Z</Time>
            <Position>
              <LatitudeDegrees>42.106046341359615325927734375</LatitudeDegrees>
              <LongitudeDegrees>-2.3248286359012126922607421875</LongitudeDegrees>
            </Position>
            <AltitudeMeters>954.20001220703125</AltitudeMeters>
            <DistanceMeters>349156.74892016</DistanceMeters>
          </Trackpoint>
          <Trackpoint>
            <Time>2021-08-01T07:58:32.000Z</Time>
            <Position>
              <LatitudeDegrees>42.1062094531953334808349609375</LatitudeDegrees>
              <LongitudeDegrees>-2.3255022056400775909423828125</LongitudeDegrees>
            </Position>
            <AltitudeMeters>954.5999755859375</AltitudeMeters>
            <DistanceMeters>349215.25713906</DistanceMeters>
          </Trackpoint>
          <Trackpoint>
            <Time>2021-08-01T07:58:40.000Z</Time>
            <Position>
              <LatitudeDegrees>42.10642126388847827911376953125</LatitudeDegrees>
              <LongitudeDegrees>-2.32572189532220363616943359375</LongitudeDegrees>
            </Position>
            <AltitudeMeters>955.20001220703125</AltitudeMeters>
            <DistanceMeters>349245.00399185</DistanceMeters>
          </Trackpoint>
          <Trackpoint>
            <Time>2021-08-01T07:58:56.000Z</Time>
            <Position>
              <LatitudeDegrees>42.106934823095798492431640625</LatitudeDegrees>
              <LongitudeDegrees>-2.32602196745574474334716796875</LongitudeDegrees>
            </Position>
            <AltitudeMeters>956.20001220703125</AltitudeMeters>
            <DistanceMeters>349307.30369712</DistanceMeters>
          </Trackpoint>
          <Trackpoint>
            <Time>2021-08-01T07:59:10.000Z</Time>
            <Position>
              <LatitudeDegrees>42.10743430070579051971435546875</LatitudeDegrees>
              <LongitudeDegrees>-2.326316423714160919189453125</LongitudeDegrees>
            </Position>
            <AltitudeMeters>956.20001220703125</AltitudeMeters>
            <DistanceMeters>349367.98121213</DistanceMeters>
          </Trackpoint>
          <Trackpoint>
            <Time>2021-08-01T07:59:16.000Z</Time>
            <Position>
              <LatitudeDegrees>42.10762716829776763916015625</LatitudeDegrees>
              <LongitudeDegrees>-2.32645782642066478729248046875</LongitudeDegrees>
            </Position>
            <AltitudeMeters>956.20001220703125</AltitudeMeters>
            <DistanceMeters>349392.41767863</DistanceMeters>
          </Trackpoint>
          <Trackpoint>
            <Time>2021-08-01T07:59:31.000Z</Time>
            <Position>
              <LatitudeDegrees>42.1079790405929088592529296875</LatitudeDegrees>
              <LongitudeDegrees>-2.32698705978691577911376953125</LongitudeDegrees>
            </Position>
            <AltitudeMeters>957</AltitudeMeters>
            <DistanceMeters>349451.09957935</DistanceMeters>
          </Trackpoint>
          <Trackpoint>
            <Time>2021-08-01T07:59:34.000Z</Time>
            <Position>
              <LatitudeDegrees>42.10800862871110439300537109375</LatitudeDegrees>
              <LongitudeDegrees>-2.32712854631245136260986328125</LongitudeDegrees>
            </Position>
            <AltitudeMeters>957.4000244140625</AltitudeMeters>
            <DistanceMeters>349463.23773107</DistanceMeters>
          </Trackpoint>
          <Trackpoint>
            <Time>2021-08-01T07:59:48.000Z</Time>
            <Position>
              <LatitudeDegrees>42.10789882577955722808837890625</LatitudeDegrees>
              <LongitudeDegrees>-2.3278263397514820098876953125</LongitudeDegrees>
            </Position>
            <AltitudeMeters>957.5999755859375</AltitudeMeters>
            <DistanceMeters>349522.13842851</DistanceMeters>
          </Trackpoint>
          <Trackpoint>
            <Time>2021-08-01T08:00:00.000Z</Time>
            <Position>
              <LatitudeDegrees>42.107673771679401397705078125</LatitudeDegrees>
              <LongitudeDegrees>-2.328423969447612762451171875</LongitudeDegrees>
            </Position>
            <AltitudeMeters>958.4000244140625</AltitudeMeters>
            <DistanceMeters>349577.48004854</DistanceMeters>
          </Trackpoint>
          <Trackpoint>
            <Time>2021-08-01T08:00:14.000Z</Time>
            <Position>
              <LatitudeDegrees>42.10736908949911594390869140625</LatitudeDegrees>
              <LongitudeDegrees>-2.329081781208515167236328125</LongitudeDegrees>
            </Position>
            <AltitudeMeters>958.5999755859375</AltitudeMeters>
            <DistanceMeters>349641.51465865</DistanceMeters>
          </Trackpoint>
          <Trackpoint>
            <Time>2021-08-01T08:00:28.000Z</Time>
            <Position>
              <LatitudeDegrees>42.1070369146764278411865234375</LatitudeDegrees>
              <LongitudeDegrees>-2.32969072647392749786376953125</LongitudeDegrees>
            </Position>
            <AltitudeMeters>958</AltitudeMeters>
            <DistanceMeters>349703.92688514</DistanceMeters>
          </Trackpoint>
          <Trackpoint>
            <Time>2021-08-01T08:00:42.000Z</Time>
            <Position>
              <LatitudeDegrees>42.10664925165474414825439453125</LatitudeDegrees>
              <LongitudeDegrees>-2.3302054591476917266845703125</LongitudeDegrees>
            </Position>
            <AltitudeMeters>958.79998779296875</AltitudeMeters>
            <DistanceMeters>349764.49342718</DistanceMeters>
          </Trackpoint>
          <Trackpoint>
            <Time>2021-08-01T08:00:56.000Z</Time>
            <Position>
              <LatitudeDegrees>42.10615840740501880645751953125</LatitudeDegrees>
              <LongitudeDegrees>-2.3305888473987579345703125</LongitudeDegrees>
            </Position>
            <AltitudeMeters>958.4000244140625</AltitudeMeters>
            <DistanceMeters>349827.6353718</DistanceMeters>
          </Trackpoint>
          <Trackpoint>
            <Time>2021-08-01T08:01:10.000Z</Time>
            <Position>
              <LatitudeDegrees>42.10568047128617763519287109375</LatitudeDegrees>
              <LongitudeDegrees>-2.330998890101909637451171875</LongitudeDegrees>
            </Position>
            <AltitudeMeters>958.20001220703125</AltitudeMeters>
            <DistanceMeters>349890.69252469</DistanceMeters>
          </Trackpoint>
          <Trackpoint>
            <Time>2021-08-01T08:01:22.000Z</Time>
            <Position>
              <LatitudeDegrees>42.1053789742290973663330078125</LatitudeDegrees>
              <LongitudeDegrees>-2.331438101828098297119140625</LongitudeDegrees>
            </Position>
            <AltitudeMeters>959.20001220703125</AltitudeMeters>
            <DistanceMeters>349940.10404044</DistanceMeters>
          </Trackpoint>
          <Trackpoint>
            <Time>2021-08-01T08:01:38.000Z</Time>
            <Position>
              <LatitudeDegrees>42.10500807501375675201416015625</LatitudeDegrees>
              <LongitudeDegrees>-2.33199097216129302978515625</LongitudeDegrees>
            </Position>
            <AltitudeMeters>960.20001220703125</AltitudeMeters>
            <DistanceMeters>350001.65472932</DistanceMeters>
          </Trackpoint>
          <Trackpoint>
            <Time>2021-08-01T08:01:39.000Z</Time>
            <Position>
              <LatitudeDegrees>42.1049796603620052337646484375</LatitudeDegrees>
              <LongitudeDegrees>-2.332022152841091156005859375</LongitudeDegrees>
            </Position>
            <AltitudeMeters>960.20001220703125</AltitudeMeters>
            <DistanceMeters>350005.73202876</DistanceMeters>
          </Trackpoint>
          <Trackpoint>
            <Time>2021-08-01T08:01:48.000Z</Time>
            <Position>
              <LatitudeDegrees>42.1047349087893962860107421875</LatitudeDegrees>
              <LongitudeDegrees>-2.3322942294180393218994140625</LongitudeDegrees>
            </Position>
            <AltitudeMeters>961.20001220703125</AltitudeMeters>
            <DistanceMeters>350041.04311704</DistanceMeters>
          </Trackpoint>
          <Trackpoint>
            <Time>2021-08-01T08:01:59.000Z</Time>
            <Position>
              <LatitudeDegrees>42.104468531906604766845703125</LatitudeDegrees>
              <LongitudeDegrees>-2.33264249749481678009033203125</LongitudeDegrees>
            </Position>
            <AltitudeMeters>962.20001220703125</AltitudeMeters>
            <DistanceMeters>350082.34815938</DistanceMeters>
          </Trackpoint>
          <Trackpoint>
            <Time>2021-08-01T08:02:12.000Z</Time>
            <Position>
              <LatitudeDegrees>42.10425504483282566070556640625</LatitudeDegrees>
              <LongitudeDegrees>-2.33313602395355701446533203125</LongitudeDegrees>
            </Position>
            <AltitudeMeters>963.20001220703125</AltitudeMeters>
            <DistanceMeters>350129.52373124</DistanceMeters>
          </Trackpoint>
          <Trackpoint>
            <Time>2021-08-01T08:02:18.000Z</Time>
            <Position>
              <LatitudeDegrees>42.1042859740555286407470703125</LatitudeDegrees>
              <LongitudeDegrees>-2.3334153927862644195556640625</LongitudeDegrees>
            </Position>
            <AltitudeMeters>964.20001220703125</AltitudeMeters>
            <DistanceMeters>350152.8492573</DistanceMeters>
          </Trackpoint>
          <Trackpoint>
            <Time>2021-08-01T08:02:33.000Z</Time>
            <Position>
              <LatitudeDegrees>42.104628123342990875244140625</LatitudeDegrees>
              <LongitudeDegrees>-2.333993576467037200927734375</LongitudeDegrees>
            </Position>
            <AltitudeMeters>964.79998779296875</AltitudeMeters>
            <DistanceMeters>350213.92150054</DistanceMeters>
          </Trackpoint>
          <Trackpoint>
            <Time>2021-08-01T08:02:38.000Z</Time>
            <Position>
              <LatitudeDegrees>42.10474454797804355621337890625</LatitudeDegrees>
              <LongitudeDegrees>-2.33414151705801486968994140625</LongitudeDegrees>
            </Position>
            <AltitudeMeters>965.4000244140625</AltitudeMeters>
            <DistanceMeters>350231.73032826</DistanceMeters>
          </Trackpoint>
          <Trackpoint>
            <Time>2021-08-01T08:02:51.000Z</Time>
            <Position>
              <LatitudeDegrees>42.10498644970357418060302734375</LatitudeDegrees>
              <LongitudeDegrees>-2.33462565578520298004150390625</LongitudeDegrees>
            </Position>
            <AltitudeMeters>966.4000244140625</AltitudeMeters>
            <DistanceMeters>350279.92995365</DistanceMeters>
          </Trackpoint>
          <Trackpoint>
            <Time>2021-08-01T08:03:04.000Z</Time>
            <Position>
              <LatitudeDegrees>42.10511284880340099334716796875</LatitudeDegrees>
              <LongitudeDegrees>-2.33515438623726367950439453125</LongitudeDegrees>
            </Position>
            <AltitudeMeters>967.5999755859375</AltitudeMeters>
            <DistanceMeters>350325.80158402</DistanceMeters>
          </Trackpoint>
          <Trackpoint>
            <Time>2021-08-01T08:03:16.000Z</Time>
            <Position>
              <LatitudeDegrees>42.10504177026450634002685546875</LatitudeDegrees>
              <LongitudeDegrees>-2.33567758463323116302490234375</LongitudeDegrees>
            </Position>
            <AltitudeMeters>968.79998779296875</AltitudeMeters>
            <DistanceMeters>350369.72407862</DistanceMeters>
          </Trackpoint>
          <Trackpoint>
            <Time>2021-08-01T08:03:24.000Z</Time>
            <Position>
              <LatitudeDegrees>42.10492325015366077423095703125</LatitudeDegrees>
              <LongitudeDegrees>-2.3359832726418972015380859375</LongitudeDegrees>
            </Position>
            <AltitudeMeters>969.79998779296875</AltitudeMeters>
            <DistanceMeters>350398.20594859</DistanceMeters>
          </Trackpoint>
          <Trackpoint>
            <Time>2021-08-01T08:03:34.000Z</Time>
            <Position>
              <LatitudeDegrees>42.10470163263380527496337890625</LatitudeDegrees>
              <LongitudeDegrees>-2.3362565226852893829345703125</LongitudeDegrees>
            </Position>
            <AltitudeMeters>970.79998779296875</AltitudeMeters>
            <DistanceMeters>350431.63604418</DistanceMeters>
          </Trackpoint>
          <Trackpoint>
            <Time>2021-08-01T08:03:41.000Z</Time>
            <Position>
              <LatitudeDegrees>42.10451739840209484100341796875</LatitudeDegrees>
              <LongitudeDegrees>-2.336322404444217681884765625</LongitudeDegrees>
            </Position>
            <AltitudeMeters>971.79998779296875</AltitudeMeters>
            <DistanceMeters>350452.85063844</DistanceMeters>
          </Trackpoint>
          <Trackpoint>
            <Time>2021-08-01T08:03:50.000Z</Time>
            <Position>
              <LatitudeDegrees>42.10432545281946659088134765625</LatitudeDegrees>
              <LongitudeDegrees>-2.3365066386759281158447265625</LongitudeDegrees>
            </Position>
            <AltitudeMeters>973</AltitudeMeters>
            <DistanceMeters>350479.07801161</DistanceMeters>
          </Trackpoint>
          <Trackpoint>
            <Time>2021-08-01T08:03:57.000Z</Time>
            <Position>
              <LatitudeDegrees>42.10420978255569934844970703125</LatitudeDegrees>
              <LongitudeDegrees>-2.33671325258910655975341796875</LongitudeDegrees>
            </Position>
            <AltitudeMeters>974</AltitudeMeters>
            <DistanceMeters>350500.45205258</DistanceMeters>
          </Trackpoint>
          <Trackpoint>
            <Time>2021-08-01T08:04:04.000Z</Time>
            <Position>
              <LatitudeDegrees>42.104036696255207061767578125</LatitudeDegrees>
              <LongitudeDegrees>-2.33686588704586029052734375</LongitudeDegrees>
            </Position>
            <AltitudeMeters>975</AltitudeMeters>
            <DistanceMeters>350523.4738309</DistanceMeters>
          </Trackpoint>
          <Trackpoint>
            <Time>2021-08-01T08:04:13.000Z</Time>
            <Position>
              <LatitudeDegrees>42.10381918586790561676025390625</LatitudeDegrees>
              <LongitudeDegrees>-2.3370243050158023834228515625</LongitudeDegrees>
            </Position>
            <AltitudeMeters>976.20001220703125</AltitudeMeters>
            <DistanceMeters>350550.99157227</DistanceMeters>
          </Trackpoint>
          <Trackpoint>
            <Time>2021-08-01T08:04:23.000Z</Time>
            <Position>
              <LatitudeDegrees>42.10356303490698337554931640625</LatitudeDegrees>
              <LongitudeDegrees>-2.3371996544301509857177734375</LongitudeDegrees>
            </Position>
            <AltitudeMeters>977.20001220703125</AltitudeMeters>
            <DistanceMeters>350582.96830875</DistanceMeters>
          </Trackpoint>
          <Trackpoint>
            <Time>2021-08-01T08:04:42.000Z</Time>
            <Position>
              <LatitudeDegrees>42.10305743850767612457275390625</LatitudeDegrees>
              <LongitudeDegrees>-2.33754926361143589019775390625</LongitudeDegrees>
            </Position>
            <AltitudeMeters>977.5999755859375</AltitudeMeters>
            <DistanceMeters>350646.21592257</DistanceMeters>
          </Trackpoint>
          <Trackpoint>
            <Time>2021-08-01T08:04:49.000Z</Time>
            <Position>
              <LatitudeDegrees>42.102789469063282012939453125</LatitudeDegrees>
              <LongitudeDegrees>-2.337690331041812896728515625</LongitudeDegrees>
            </Position>
            <AltitudeMeters>976.20001220703125</AltitudeMeters>
            <DistanceMeters>350678.23569536</DistanceMeters>
          </Trackpoint>
          <Trackpoint>
            <Time>2021-08-01T08:04:51.000Z</Time>
            <Position>
              <LatitudeDegrees>42.102696262300014495849609375</LatitudeDegrees>
              <LongitudeDegrees>-2.33770868740975856781005859375</LongitudeDegrees>
            </Position>
            <AltitudeMeters>975.4000244140625</AltitudeMeters>
            <DistanceMeters>350688.71968747</DistanceMeters>
          </Trackpoint>
          <Trackpoint>
            <Time>2021-08-01T08:04:52.000Z</Time>
            <Position>
              <LatitudeDegrees>42.10264605470001697540283203125</LatitudeDegrees>
              <LongitudeDegrees>-2.337709106504917144775390625</LongitudeDegrees>
            </Position>
            <AltitudeMeters>975.20001220703125</AltitudeMeters>
            <DistanceMeters>350694.30771076</DistanceMeters>
          </Trackpoint>
          <Trackpoint>
            <Time>2021-08-01T08:04:57.000Z</Time>
            <Position>
              <LatitudeDegrees>42.10239107720553874969482421875</LatitudeDegrees>
              <LongitudeDegrees>-2.33760642819106578826904296875</LongitudeDegrees>
            </Position>
            <AltitudeMeters>974.20001220703125</AltitudeMeters>
            <DistanceMeters>350723.92679222</DistanceMeters>
          </Trackpoint>
          <Trackpoint>
            <Time>2021-08-01T08:04:59.000Z</Time>
            <Position>
              <LatitudeDegrees>42.1022971160709857940673828125</LatitudeDegrees>
              <LongitudeDegrees>-2.337537445127964019775390625</LongitudeDegrees>
            </Position>
            <AltitudeMeters>974</AltitudeMeters>
            <DistanceMeters>350735.83588038</DistanceMeters>
          </Trackpoint>
          <Trackpoint>
            <Time>2021-08-01T08:05:05.000Z</Time>
            <Position>
              <LatitudeDegrees>42.10201640613377094268798828125</LatitudeDegrees>
              <LongitudeDegrees>-2.33732856810092926025390625</LongitudeDegrees>
            </Position>
            <AltitudeMeters>973.5999755859375</AltitudeMeters>
            <DistanceMeters>350771.52495913</DistanceMeters>
          </Trackpoint>
          <Trackpoint>
            <Time>2021-08-01T08:05:08.000Z</Time>
            <Position>
              <LatitudeDegrees>42.1018763445317745208740234375</LatitudeDegrees>
              <LongitudeDegrees>-2.33723871409893035888671875</LongitudeDegrees>
            </Position>
            <AltitudeMeters>973.4000244140625</AltitudeMeters>
            <DistanceMeters>350788.79003439</DistanceMeters>
          </Trackpoint>
          <Trackpoint>
            <Time>2021-08-01T08:05:11.000Z</Time>
            <Position>
              <LatitudeDegrees>42.1017385460436344146728515625</LatitudeDegrees>
              <LongitudeDegrees>-2.3371763527393341064453125</LongitudeDegrees>
            </Position>
            <AltitudeMeters>973.4000244140625</AltitudeMeters>
            <DistanceMeters>350804.96859414</DistanceMeters>
          </Trackpoint>
          <Trackpoint>
            <Time>2021-08-01T08:05:15.000Z</Time>
            <Position>
              <LatitudeDegrees>42.1015638671815395355224609375</LatitudeDegrees>
              <LongitudeDegrees>-2.337117008864879608154296875</LongitudeDegrees>
            </Position>
            <AltitudeMeters>973.5999755859375</AltitudeMeters>
            <DistanceMeters>350825.01878051</DistanceMeters>
          </Trackpoint>
          <Trackpoint>
            <Time>2021-08-01T08:05:29.000Z</Time>
            <Position>
              <LatitudeDegrees>42.10101158358156681060791015625</LatitudeDegrees>
              <LongitudeDegrees>-2.33698482625186443328857421875</LongitudeDegrees>
            </Position>
            <AltitudeMeters>974</AltitudeMeters>
            <DistanceMeters>350887.45082561</DistanceMeters>
          </Trackpoint>
          <Trackpoint>
            <Time>2021-08-01T08:05:44.000Z</Time>
            <Position>
              <LatitudeDegrees>42.10046759806573390960693359375</LatitudeDegrees>
              <LongitudeDegrees>-2.33694769442081451416015625</LongitudeDegrees>
            </Position>
            <AltitudeMeters>975</AltitudeMeters>
            <DistanceMeters>350948.07518832</DistanceMeters>
          </Trackpoint>
          <Trackpoint>
            <Time>2021-08-01T08:05:52.000Z</Time>
            <Position>
              <LatitudeDegrees>42.1001979522407054901123046875</LatitudeDegrees>
              <LongitudeDegrees>-2.33697795309126377105712890625</LongitudeDegrees>
            </Position>
            <AltitudeMeters>975.4000244140625</AltitudeMeters>
            <DistanceMeters>350978.19116162</DistanceMeters>
          </Trackpoint>
          <Trackpoint>
            <Time>2021-08-01T08:06:06.000Z</Time>
            <Position>
              <LatitudeDegrees>42.0997904241085052490234375</LatitudeDegrees>
              <LongitudeDegrees>-2.33695431612432003021240234375</LongitudeDegrees>
            </Position>
            <AltitudeMeters>976.4000244140625</AltitudeMeters>
            <DistanceMeters>351023.59185885</DistanceMeters>
          </Trackpoint>
          <Trackpoint>
            <Time>2021-08-01T08:06:24.000Z</Time>
            <Position>
              <LatitudeDegrees>42.0994925312697887420654296875</LatitudeDegrees>
              <LongitudeDegrees>-2.3369505442678928375244140625</LongitudeDegrees>
            </Position>
            <AltitudeMeters>977</AltitudeMeters>
            <DistanceMeters>351056.7493744</DistanceMeters>
          </Trackpoint>
          <Trackpoint>
            <Time>2021-08-01T08:23:52.000Z</Time>
            <Position>
              <LatitudeDegrees>42.09934894926846027374267578125</LatitudeDegrees>
              <LongitudeDegrees>-2.3369230516254901885986328125</LongitudeDegrees>
            </Position>
            <AltitudeMeters>979</AltitudeMeters>
            <DistanceMeters>351072.89105417</DistanceMeters>
          </Trackpoint>
          <Trackpoint>
            <Time>2021-08-01T08:24:16.000Z</Time>
            <Position>
              <LatitudeDegrees>42.09879976697266101837158203125</LatitudeDegrees>
              <LongitudeDegrees>-2.33684803359210491180419921875</LongitudeDegrees>
            </Position>
            <AltitudeMeters>979.79998779296875</AltitudeMeters>
            <DistanceMeters>351134.32933421</DistanceMeters>
          </Trackpoint>
          <Trackpoint>
            <Time>2021-08-01T08:24:28.000Z</Time>
            <Position>
              <LatitudeDegrees>42.09847203455865383148193359375</LatitudeDegrees>
              <LongitudeDegrees>-2.3368321917951107025146484375</LongitudeDegrees>
            </Position>
            <AltitudeMeters>980</AltitudeMeters>
            <DistanceMeters>351170.82998459</DistanceMeters>
          </Trackpoint>
          <Trackpoint>
            <Time>2021-08-01T08:24:37.000Z</Time>
            <Position>
              <LatitudeDegrees>42.0982023887336254119873046875</LatitudeDegrees>
              <LongitudeDegrees>-2.3367772065103054046630859375</LongitudeDegrees>
            </Position>
            <AltitudeMeters>980.79998779296875</AltitudeMeters>
            <DistanceMeters>351201.18384365</DistanceMeters>
          </Trackpoint>
          <Trackpoint>
            <Time>2021-08-01T08:24:47.000Z</Time>
            <Position>
              <LatitudeDegrees>42.09787909872829914093017578125</LatitudeDegrees>
              <LongitudeDegrees>-2.33680411241948604583740234375</LongitudeDegrees>
            </Position>
            <AltitudeMeters>981.79998779296875</AltitudeMeters>
            <DistanceMeters>351237.23518069</DistanceMeters>
          </Trackpoint>
          <Trackpoint>
            <Time>2021-08-01T08:24:53.000Z</Time>
            <Position>
              <LatitudeDegrees>42.09769838489592075347900390625</LatitudeDegrees>
              <LongitudeDegrees>-2.33683780767023563385009765625</LongitudeDegrees>
            </Position>
            <AltitudeMeters>982.5999755859375</AltitudeMeters>
            <DistanceMeters>351257.54067971</DistanceMeters>
          </Trackpoint>
          <Trackpoint>
            <Time>2021-08-01T08:24:55.000Z</Time>
            <Position>
              <LatitudeDegrees>42.09764071740210056304931640625</LatitudeDegrees>
              <LongitudeDegrees>-2.3368486203253269195556640625</LongitudeDegrees>
            </Position>
            <AltitudeMeters>982.79998779296875</AltitudeMeters>
            <DistanceMeters>351264.0206377</DistanceMeters>
          </Trackpoint>
          <Trackpoint>
            <Time>2021-08-01T08:25:01.000Z</Time>
            <Position>
              <LatitudeDegrees>42.097470648586750030517578125</LatitudeDegrees>
              <LongitudeDegrees>-2.336889691650867462158203125</LongitudeDegrees>
            </Position>
            <AltitudeMeters>984</AltitudeMeters>
            <DistanceMeters>351283.25081426</DistanceMeters>
          </Trackpoint>
          <Trackpoint>
            <Time>2021-08-01T08:25:10.000Z</Time>
            <Position>
              <LatitudeDegrees>42.09722849540412425994873046875</LatitudeDegrees>
              <LongitudeDegrees>-2.336933948099613189697265625</LongitudeDegrees>
            </Position>
            <AltitudeMeters>985.20001220703125</AltitudeMeters>
            <DistanceMeters>351310.44937897</DistanceMeters>
          </Trackpoint>
          <Trackpoint>
            <Time>2021-08-01T08:25:18.000Z</Time>
            <Position>
              <LatitudeDegrees>42.09702037274837493896484375</LatitudeDegrees>
              <LongitudeDegrees>-2.33695037662982940673828125</LongitudeDegrees>
            </Position>
            <AltitudeMeters>986.4000244140625</AltitudeMeters>
            <DistanceMeters>351333.65341608</DistanceMeters>
          </Trackpoint>
          <Trackpoint>
            <Time>2021-08-01T08:25:25.000Z</Time>
            <Position>
              <LatitudeDegrees>42.0968445204198360443115234375</LatitudeDegrees>
              <LongitudeDegrees>-2.3369384743273258209228515625</LongitudeDegrees>
            </Position>
            <AltitudeMeters>987.4000244140625</AltitudeMeters>
            <DistanceMeters>351353.25104888</DistanceMeters>
          </Trackpoint>
          <Trackpoint>
            <Time>2021-08-01T08:25:41.000Z</Time>
            <Position>
              <LatitudeDegrees>42.0964351482689380645751953125</LatitudeDegrees>
              <LongitudeDegrees>-2.33666933141648769378662109375</LongitudeDegrees>
            </Position>
            <AltitudeMeters>988.4000244140625</AltitudeMeters>
            <DistanceMeters>351403.94777873</DistanceMeters>
          </Trackpoint>
          <Trackpoint>
            <Time>2021-08-01T08:25:57.000Z</Time>
            <Position>
              <LatitudeDegrees>42.09602150134742259979248046875</LatitudeDegrees>
              <LongitudeDegrees>-2.3361395113170146942138671875</LongitudeDegrees>
            </Position>
            <AltitudeMeters>988.20001220703125</AltitudeMeters>
            <DistanceMeters>351467.46416348</DistanceMeters>
          </Trackpoint>
          <Trackpoint>
            <Time>2021-08-01T08:26:08.000Z</Time>
            <Position>
              <LatitudeDegrees>42.0957273803651332855224609375</LatitudeDegrees>
              <LongitudeDegrees>-2.3358250223100185394287109375</LongitudeDegrees>
            </Position>
            <AltitudeMeters>989.4000244140625</AltitudeMeters>
            <DistanceMeters>351509.25247851</DistanceMeters>
          </Trackpoint>
          <Trackpoint>
            <Time>2021-08-01T08:26:18.000Z</Time>
            <Position>
              <LatitudeDegrees>42.09545798599720001220703125</LatitudeDegrees>
              <LongitudeDegrees>-2.33575721271336078643798828125</LongitudeDegrees>
            </Position>
            <AltitudeMeters>990.5999755859375</AltitudeMeters>
            <DistanceMeters>351539.75501769</DistanceMeters>
          </Trackpoint>
          <Trackpoint>
            <Time>2021-08-01T08:26:26.000Z</Time>
            <Position>
              <LatitudeDegrees>42.09525254555046558380126953125</LatitudeDegrees>
              <LongitudeDegrees>-2.33577950857579708099365234375</LongitudeDegrees>
            </Position>
            <AltitudeMeters>991.5999755859375</AltitudeMeters>
            <DistanceMeters>351562.69506488</DistanceMeters>
          </Trackpoint>
          <Trackpoint>
            <Time>2021-08-01T08:26:34.000Z</Time>
            <Position>
              <LatitudeDegrees>42.09503528662025928497314453125</LatitudeDegrees>
              <LongitudeDegrees>-2.335793673992156982421875</LongitudeDegrees>
            </Position>
            <AltitudeMeters>992.79998779296875</AltitudeMeters>
            <DistanceMeters>351586.90469399</DistanceMeters>
          </Trackpoint>
          <Trackpoint>
            <Time>2021-08-01T08:26:44.000Z</Time>
            <Position>
              <LatitudeDegrees>42.094758935272693634033203125</LatitudeDegrees>
              <LongitudeDegrees>-2.3356743156909942626953125</LongitudeDegrees>
            </Position>
            <AltitudeMeters>993.79998779296875</AltitudeMeters>
            <DistanceMeters>351619.20427281</DistanceMeters>
          </Trackpoint>
          <Trackpoint>
            <Time>2021-08-01T08:27:00.000Z</Time>
            <Position>
              <LatitudeDegrees>42.09429097361862659454345703125</LatitudeDegrees>
              <LongitudeDegrees>-2.33528447337448596954345703125</LongitudeDegrees>
            </Position>
            <AltitudeMeters>993</AltitudeMeters>
            <DistanceMeters>351680.43761766</DistanceMeters>
          </Trackpoint>
          <Trackpoint>
            <Time>2021-08-01T08:27:16.000Z</Time>
            <Position>
              <LatitudeDegrees>42.093809433281421661376953125</LatitudeDegrees>
              <LongitudeDegrees>-2.33489706180989742279052734375</LongitudeDegrees>
            </Position>
            <AltitudeMeters>994.20001220703125</AltitudeMeters>
            <DistanceMeters>351742.85852461</DistanceMeters>
          </Trackpoint>
          <Trackpoint>
            <Time>2021-08-01T08:27:18.000Z</Time>
            <Position>
              <LatitudeDegrees>42.09375972859561443328857421875</LatitudeDegrees>
              <LongitudeDegrees>-2.334864623844623565673828125</LongitudeDegrees>
            </Position>
            <AltitudeMeters>994.5999755859375</AltitudeMeters>
            <DistanceMeters>351749.00521801</DistanceMeters>
          </Trackpoint>
          <Trackpoint>
            <Time>2021-08-01T08:27:24.000Z</Time>
            <Position>
              <LatitudeDegrees>42.09361220709979534149169921875</LatitudeDegrees>
              <LongitudeDegrees>-2.3347772844135761260986328125</LongitudeDegrees>
            </Position>
            <AltitudeMeters>995.79998779296875</AltitudeMeters>
            <DistanceMeters>351766.93935481</DistanceMeters>
          </Trackpoint>
          <Trackpoint>
            <Time>2021-08-01T08:27:29.000Z</Time>
            <Position>
              <LatitudeDegrees>42.09349083714187145233154296875</LatitudeDegrees>
              <LongitudeDegrees>-2.3347216285765171051025390625</LongitudeDegrees>
            </Position>
            <AltitudeMeters>996.79998779296875</AltitudeMeters>
            <DistanceMeters>351781.20855814</DistanceMeters>
          </Trackpoint>
          <Trackpoint>
            <Time>2021-08-01T08:27:36.000Z</Time>
            <Position>
              <LatitudeDegrees>42.09334029816091060638427734375</LatitudeDegrees>
              <LongitudeDegrees>-2.33466873876750469207763671875</LongitudeDegrees>
            </Position>
            <AltitudeMeters>998</AltitudeMeters>
            <DistanceMeters>351798.52377105</DistanceMeters>
          </Trackpoint>
          <Trackpoint>
            <Time>2021-08-01T08:27:42.000Z</Time>
            <Position>
              <LatitudeDegrees>42.0931970514357089996337890625</LatitudeDegrees>
              <LongitudeDegrees>-2.3346324451267719268798828125</LongitudeDegrees>
            </Position>
            <AltitudeMeters>999.20001220703125</AltitudeMeters>
            <DistanceMeters>351814.74692143</DistanceMeters>
          </Trackpoint>
          <Trackpoint>
            <Time>2021-08-01T08:27:51.000Z</Time>
            <Position>
              <LatitudeDegrees>42.0929734222590923309326171875</LatitudeDegrees>
              <LongitudeDegrees>-2.33459003269672393798828125</LongitudeDegrees>
            </Position>
            <AltitudeMeters>1000.20001220703125</AltitudeMeters>
            <DistanceMeters>351839.88252026</DistanceMeters>
          </Trackpoint>
          <Trackpoint>
            <Time>2021-08-01T08:28:03.000Z</Time>
            <Position>
              <LatitudeDegrees>42.09267829544842243194580078125</LatitudeDegrees>
              <LongitudeDegrees>-2.33455189503729343414306640625</LongitudeDegrees>
            </Position>
            <AltitudeMeters>1001.20001220703125</AltitudeMeters>
            <DistanceMeters>351872.88142764</DistanceMeters>
          </Trackpoint>
          <Trackpoint>
            <Time>2021-08-01T08:28:21.000Z</Time>
            <Position>
              <LatitudeDegrees>42.09216021001338958740234375</LatitudeDegrees>
              <LongitudeDegrees>-2.334795892238616943359375</LongitudeDegrees>
            </Position>
            <AltitudeMeters>1002</AltitudeMeters>
            <DistanceMeters>351933.96549845</DistanceMeters>
          </Trackpoint>
          <Trackpoint>
            <Time>2021-08-01T08:28:33.000Z</Time>
            <Position>
              <LatitudeDegrees>42.09168906323611736297607421875</LatitudeDegrees>
              <LongitudeDegrees>-2.33504877425730228424072265625</LongitudeDegrees>
            </Position>
            <AltitudeMeters>1000</AltitudeMeters>
            <DistanceMeters>351990.41152676</DistanceMeters>
          </Trackpoint>
          <Trackpoint>
            <Time>2021-08-01T08:28:37.000Z</Time>
            <Position>
              <LatitudeDegrees>42.091494016349315643310546875</LatitudeDegrees>
              <LongitudeDegrees>-2.33508666045963764190673828125</LongitudeDegrees>
            </Position>
            <AltitudeMeters>998.79998779296875</AltitudeMeters>
            <DistanceMeters>352012.34500169</DistanceMeters>
          </Trackpoint>
          <Trackpoint>
            <Time>2021-08-01T08:28:48.000Z</Time>
            <Position>
              <LatitudeDegrees>42.09092061035335063934326171875</LatitudeDegrees>
              <LongitudeDegrees>-2.33519864268600940704345703125</LongitudeDegrees>
            </Position>
            <AltitudeMeters>997.5999755859375</AltitudeMeters>
            <DistanceMeters>352076.83293347</DistanceMeters>
          </Trackpoint>
          <Trackpoint>
            <Time>2021-08-01T08:28:51.000Z</Time>
            <Position>
              <LatitudeDegrees>42.09076252765953540802001953125</LatitudeDegrees>
              <LongitudeDegrees>-2.33521171845495700836181640625</LongitudeDegrees>
            </Position>
            <AltitudeMeters>997.20001220703125</AltitudeMeters>
            <DistanceMeters>352094.46083722</DistanceMeters>
          </Trackpoint>
          <Trackpoint>
            <Time>2021-08-01T08:28:56.000Z</Time>
            <Position>
              <LatitudeDegrees>42.0905061252415180206298828125</LatitudeDegrees>
              <LongitudeDegrees>-2.33516897074878215789794921875</LongitudeDegrees>
            </Position>
            <AltitudeMeters>997</AltitudeMeters>
            <DistanceMeters>352123.21658674</DistanceMeters>
          </Trackpoint>
          <Trackpoint>
            <Time>2021-08-01T08:29:08.000Z</Time>
            <Position>
              <LatitudeDegrees>42.09003464318811893463134765625</LatitudeDegrees>
              <LongitudeDegrees>-2.3350213654339313507080078125</LongitudeDegrees>
            </Position>
            <AltitudeMeters>998.5999755859375</AltitudeMeters>
            <DistanceMeters>352177.09103523</DistanceMeters>
          </Trackpoint>
          <Trackpoint>
            <Time>2021-08-01T08:29:18.000Z</Time>
            <Position>
              <LatitudeDegrees>42.0896712876856327056884765625</LatitudeDegrees>
              <LongitudeDegrees>-2.33498574234545230865478515625</LongitudeDegrees>
            </Position>
            <AltitudeMeters>999.79998779296875</AltitudeMeters>
            <DistanceMeters>352217.64017134</DistanceMeters>
          </Trackpoint>
          <Trackpoint>
            <Time>2021-08-01T08:29:24.000Z</Time>
            <Position>
              <LatitudeDegrees>42.089458219707012176513671875</LatitudeDegrees>
              <LongitudeDegrees>-2.33501373790204524993896484375</LongitudeDegrees>
            </Position>
            <AltitudeMeters>1000.79998779296875</AltitudeMeters>
            <DistanceMeters>352241.46744492</DistanceMeters>
          </Trackpoint>
          <Trackpoint>
            <Time>2021-08-01T08:29:27.000Z</Time>
            <Position>
              <LatitudeDegrees>42.08935285918414592742919921875</LatitudeDegrees>
              <LongitudeDegrees>-2.33502714894711971282958984375</LongitudeDegrees>
            </Position>
            <AltitudeMeters>1001.20001220703125</AltitudeMeters>
            <DistanceMeters>352253.24654185</DistanceMeters>
          </Trackpoint>
          <Trackpoint>
            <Time>2021-08-01T08:29:32.000Z</Time>
            <Position>
              <LatitudeDegrees>42.08918103016912937164306640625</LatitudeDegrees>
              <LongitudeDegrees>-2.3350461758673191070556640625</LongitudeDegrees>
            </Position>
            <AltitudeMeters>1001.79998779296875</AltitudeMeters>
            <DistanceMeters>352272.43605689</DistanceMeters>
          </Trackpoint>
          <Trackpoint>
            <Time>2021-08-01T08:29:38.000Z</Time>
            <Position>
              <LatitudeDegrees>42.088983468711376190185546875</LatitudeDegrees>
              <LongitudeDegrees>-2.33507014811038970947265625</LongitudeDegrees>
            </Position>
            <AltitudeMeters>1003</AltitudeMeters>
            <DistanceMeters>352294.51418014</DistanceMeters>
          </Trackpoint>
          <Trackpoint>
            <Time>2021-08-01T08:29:47.000Z</Time>
            <Position>
              <LatitudeDegrees>42.08867778070271015167236328125</LatitudeDegrees>
              <LongitudeDegrees>-2.33510778285562992095947265625</LongitudeDegrees>
            </Position>
            <AltitudeMeters>1004</AltitudeMeters>
            <DistanceMeters>352328.67968704</DistanceMeters>
          </Trackpoint>
          <Trackpoint>
            <Time>2021-08-01T08:30:02.000Z</Time>
            <Position>
              <LatitudeDegrees>42.0881404168903827667236328125</LatitudeDegrees>
              <LongitudeDegrees>-2.3352315835654735565185546875</LongitudeDegrees>
            </Position>
            <AltitudeMeters>1005</AltitudeMeters>
            <DistanceMeters>352389.35735087</DistanceMeters>
          </Trackpoint>
          <Trackpoint>
            <Time>2021-08-01T08:30:14.000Z</Time>
            <Position>
              <LatitudeDegrees>42.0877457968890666961669921875</LatitudeDegrees>
              <LongitudeDegrees>-2.3354248702526092529296875</LongitudeDegrees>
            </Position>
            <AltitudeMeters>1006</AltitudeMeters>
            <DistanceMeters>352436.09107937</DistanceMeters>
          </Trackpoint>
          <Trackpoint>
            <Time>2021-08-01T08:30:30.000Z</Time>
            <Position>
              <LatitudeDegrees>42.08720474503934383392333984375</LatitudeDegrees>
              <LongitudeDegrees>-2.335688062012195587158203125</LongitudeDegrees>
            </Position>
            <AltitudeMeters>1006.5999755859375</AltitudeMeters>
            <DistanceMeters>352500.1151122</DistanceMeters>
          </Trackpoint>
          <Trackpoint>
            <Time>2021-08-01T08:30:36.000Z</Time>
            <Position>
              <LatitudeDegrees>42.0869920961558818817138671875</LatitudeDegrees>
              <LongitudeDegrees>-2.33579174615442752838134765625</LongitudeDegrees>
            </Position>
            <AltitudeMeters>1007</AltitudeMeters>
            <DistanceMeters>352525.28517583</DistanceMeters>
          </Trackpoint>
          <Trackpoint>
            <Time>2021-08-01T08:30:51.000Z</Time>
            <Position>
              <LatitudeDegrees>42.08648373372852802276611328125</LatitudeDegrees>
              <LongitudeDegrees>-2.33614705502986907958984375</LongitudeDegrees>
            </Position>
            <AltitudeMeters>1007</AltitudeMeters>
            <DistanceMeters>352589.02565053</DistanceMeters>
          </Trackpoint>
          <Trackpoint>
            <Time>2021-08-01T08:31:05.000Z</Time>
            <Position>
              <LatitudeDegrees>42.086029350757598876953125</LatitudeDegrees>
              <LongitudeDegrees>-2.3365438543260097503662109375</LongitudeDegrees>
            </Position>
            <AltitudeMeters>1007.20001220703125</AltitudeMeters>
            <DistanceMeters>352649.29161975</DistanceMeters>
          </Trackpoint>
          <Trackpoint>
            <Time>2021-08-01T08:31:19.000Z</Time>
            <Position>
              <LatitudeDegrees>42.08554948680102825164794921875</LatitudeDegrees>
              <LongitudeDegrees>-2.33696236275136470794677734375</LongitudeDegrees>
            </Position>
            <AltitudeMeters>1006.79998779296875</AltitudeMeters>
            <DistanceMeters>352712.9128389</DistanceMeters>
          </Trackpoint>
          <Trackpoint>
            <Time>2021-08-01T08:31:33.000Z</Time>
            <Position>
              <LatitudeDegrees>42.08507389761507511138916015625</LatitudeDegrees>
              <LongitudeDegrees>-2.337383888661861419677734375</LongitudeDegrees>
            </Position>
            <AltitudeMeters>1006.20001220703125</AltitudeMeters>
            <DistanceMeters>352776.27186062</DistanceMeters>
          </Trackpoint>
          <Trackpoint>
            <Time>2021-08-01T08:31:47.000Z</Time>
            <Position>
              <LatitudeDegrees>42.08460082300007343292236328125</LatitudeDegrees>
              <LongitudeDegrees>-2.3377347551286220550537109375</LongitudeDegrees>
            </Position>
            <AltitudeMeters>1006.5999755859375</AltitudeMeters>
            <DistanceMeters>352836.37548747</DistanceMeters>
          </Trackpoint>
          <Trackpoint>
            <Time>2021-08-01T08:32:02.000Z</Time>
            <Position>
              <LatitudeDegrees>42.0840688236057758331298828125</LatitudeDegrees>
              <LongitudeDegrees>-2.3380080051720142364501953125</LongitudeDegrees>
            </Position>
            <AltitudeMeters>1007.79998779296875</AltitudeMeters>
            <DistanceMeters>352899.74427122</DistanceMeters>
          </Trackpoint>
          <Trackpoint>
            <Time>2021-08-01T08:32:16.000Z</Time>
            <Position>
              <LatitudeDegrees>42.083542607724666595458984375</LatitudeDegrees>
              <LongitudeDegrees>-2.3382225818932056427001953125</LongitudeDegrees>
            </Position>
            <AltitudeMeters>1007.5999755859375</AltitudeMeters>
            <DistanceMeters>352960.93645813</DistanceMeters>
          </Trackpoint>
          <Trackpoint>
            <Time>2021-08-01T08:32:23.000Z</Time>
            <Position>
              <LatitudeDegrees>42.0832706987857818603515625</LatitudeDegrees>
              <LongitudeDegrees>-2.3383302055299282073974609375</LongitudeDegrees>
            </Position>
            <AltitudeMeters>1008</AltitudeMeters>
            <DistanceMeters>352992.47917287</DistanceMeters>
          </Trackpoint>
          <Trackpoint>
            <Time>2021-08-01T08:32:37.000Z</Time>
            <Position>
              <LatitudeDegrees>42.08273635245859622955322265625</LatitudeDegrees>
              <LongitudeDegrees>-2.338545620441436767578125</LongitudeDegrees>
            </Position>
            <AltitudeMeters>1008.79998779296875</AltitudeMeters>
            <DistanceMeters>353054.55795148</DistanceMeters>
          </Trackpoint>
          <Trackpoint>
            <Time>2021-08-01T08:32:41.000Z</Time>
            <Position>
              <LatitudeDegrees>42.08258497528731822967529296875</LatitudeDegrees>
              <LongitudeDegrees>-2.33860571868717670440673828125</LongitudeDegrees>
            </Position>
            <AltitudeMeters>1009.20001220703125</AltitudeMeters>
            <DistanceMeters>353072.12273419</DistanceMeters>
          </Trackpoint>
          <Trackpoint>
            <Time>2021-08-01T08:32:57.000Z</Time>
            <Position>
              <LatitudeDegrees>42.08204920403659343719482421875</LatitudeDegrees>
              <LongitudeDegrees>-2.3387878574430942535400390625</LongitudeDegrees>
            </Position>
            <AltitudeMeters>1009.79998779296875</AltitudeMeters>
            <DistanceMeters>353133.62388865</DistanceMeters>
          </Trackpoint>
          <Trackpoint>
            <Time>2021-08-01T08:33:11.000Z</Time>
            <Position>
              <LatitudeDegrees>42.08159272558987140655517578125</LatitudeDegrees>
              <LongitudeDegrees>-2.3387033678591251373291015625</LongitudeDegrees>
            </Position>
            <AltitudeMeters>1008.20001220703125</AltitudeMeters>
            <DistanceMeters>353184.90794967</DistanceMeters>
          </Trackpoint>
          <Trackpoint>
            <Time>2021-08-01T08:33:14.000Z</Time>
            <Position>
              <LatitudeDegrees>42.0814226567745208740234375</LatitudeDegrees>
              <LongitudeDegrees>-2.3386976681649684906005859375</LongitudeDegrees>
            </Position>
            <AltitudeMeters>1007</AltitudeMeters>
            <DistanceMeters>353203.8428422</DistanceMeters>
          </Trackpoint>
          <Trackpoint>
            <Time>2021-08-01T08:33:17.000Z</Time>
            <Position>
              <LatitudeDegrees>42.0812263526022434234619140625</LatitudeDegrees>
              <LongitudeDegrees>-2.3386810719966888427734375</LongitudeDegrees>
            </Position>
            <AltitudeMeters>1006</AltitudeMeters>
            <DistanceMeters>353225.7344894</DistanceMeters>
          </Trackpoint>
          <Trackpoint>
            <Time>2021-08-01T08:33:18.000Z</Time>
            <Position>
              <LatitudeDegrees>42.08116726018488407135009765625</LatitudeDegrees>
              <LongitudeDegrees>-2.3386624641716480255126953125</LongitudeDegrees>
            </Position>
            <AltitudeMeters>1005.5999755859375</AltitudeMeters>
            <DistanceMeters>353232.48874333</DistanceMeters>
          </Trackpoint>
          <Trackpoint>
            <Time>2021-08-01T08:33:21.000Z</Time>
            <Position>
              <LatitudeDegrees>42.0809976942837238311767578125</LatitudeDegrees>
              <LongitudeDegrees>-2.33853287994861602783203125</LongitudeDegrees>
            </Position>
            <AltitudeMeters>1004.4000244140625</AltitudeMeters>
            <DistanceMeters>353254.18648666</DistanceMeters>
          </Trackpoint>
          <Trackpoint>
            <Time>2021-08-01T08:33:23.000Z</Time>
            <Position>
              <LatitudeDegrees>42.08089451305568218231201171875</LatitudeDegrees>
              <LongitudeDegrees>-2.338389717042446136474609375</LongitudeDegrees>
            </Position>
            <AltitudeMeters>1002.4000244140625</AltitudeMeters>
            <DistanceMeters>353270.67136217</DistanceMeters>
          </Trackpoint>
          <Trackpoint>
            <Time>2021-08-01T08:33:24.000Z</Time>
            <Position>
              <LatitudeDegrees>42.08084656856954097747802734375</LatitudeDegrees>
              <LongitudeDegrees>-2.33831017278134822845458984375</LongitudeDegrees>
            </Position>
            <AltitudeMeters>1002</AltitudeMeters>
            <DistanceMeters>353279.13567705</DistanceMeters>
          </Trackpoint>
          <Trackpoint>
            <Time>2021-08-01T08:33:27.000Z</Time>
            <Position>
              <LatitudeDegrees>42.08070407621562480926513671875</LatitudeDegrees>
              <LongitudeDegrees>-2.33807556331157684326171875</LongitudeDegrees>
            </Position>
            <AltitudeMeters>1001.4000244140625</AltitudeMeters>
            <DistanceMeters>353304.17859699</DistanceMeters>
          </Trackpoint>
          <Trackpoint>
            <Time>2021-08-01T08:33:36.000Z</Time>
            <Position>
              <LatitudeDegrees>42.08033041097223758697509765625</LatitudeDegrees>
              <LongitudeDegrees>-2.3374470882117748260498046875</LongitudeDegrees>
            </Position>
            <AltitudeMeters>1002</AltitudeMeters>
            <DistanceMeters>353370.70028354</DistanceMeters>
          </Trackpoint>
          <Trackpoint>
            <Time>2021-08-01T08:33:41.000Z</Time>
            <Position>
              <LatitudeDegrees>42.0801645331084728240966796875</LatitudeDegrees>
              <LongitudeDegrees>-2.3371683061122894287109375</LongitudeDegrees>
            </Position>
            <AltitudeMeters>1002.5999755859375</AltitudeMeters>
            <DistanceMeters>353400.21690268</DistanceMeters>
          </Trackpoint>
          <Trackpoint>
            <Time>2021-08-01T08:33:46.000Z</Time>
            <Position>
              <LatitudeDegrees>42.08003369159996509552001953125</LatitudeDegrees>
              <LongitudeDegrees>-2.336953394114971160888671875</LongitudeDegrees>
            </Position>
            <AltitudeMeters>1003.79998779296875</AltitudeMeters>
            <DistanceMeters>353423.17937628</DistanceMeters>
          </Trackpoint>
          <Trackpoint>
            <Time>2021-08-01T08:33:55.000Z</Time>
            <Position>
              <LatitudeDegrees>42.0798104815185070037841796875</LatitudeDegrees>
              <LongitudeDegrees>-2.336595319211483001708984375</LongitudeDegrees>
            </Position>
            <AltitudeMeters>1004.79998779296875</AltitudeMeters>
            <DistanceMeters>353461.80864151</DistanceMeters>
          </Trackpoint>
          <Trackpoint>
            <Time>2021-08-01T08:33:59.000Z</Time>
            <Position>
              <LatitudeDegrees>42.079722471535205841064453125</LatitudeDegrees>
              <LongitudeDegrees>-2.3364521563053131103515625</LongitudeDegrees>
            </Position>
            <AltitudeMeters>1006</AltitudeMeters>
            <DistanceMeters>353477.16538193</DistanceMeters>
          </Trackpoint>
          <Trackpoint>
            <Time>2021-08-01T08:34:05.000Z</Time>
            <Position>
              <LatitudeDegrees>42.07960638217628002166748046875</LatitudeDegrees>
              <LongitudeDegrees>-2.33624973334372043609619140625</LongitudeDegrees>
            </Position>
            <AltitudeMeters>1007</AltitudeMeters>
            <DistanceMeters>353498.29787896</DistanceMeters>
          </Trackpoint>
          <Trackpoint>
            <Time>2021-08-01T08:34:12.000Z</Time>
            <Position>
              <LatitudeDegrees>42.07948543131351470947265625</LatitudeDegrees>
              <LongitudeDegrees>-2.33603817410767078399658203125</LongitudeDegrees>
            </Position>
            <AltitudeMeters>1008.20001220703125</AltitudeMeters>
            <DistanceMeters>353520.35840796</DistanceMeters>
          </Trackpoint>
          <Trackpoint>
            <Time>2021-08-01T08:34:19.000Z</Time>
            <Position>
              <LatitudeDegrees>42.0793756283819675445556640625</LatitudeDegrees>
              <LongitudeDegrees>-2.335864417254924774169921875</LongitudeDegrees>
            </Position>
            <AltitudeMeters>1009.20001220703125</AltitudeMeters>
            <DistanceMeters>353539.21061602</DistanceMeters>
          </Trackpoint>
          <Trackpoint>
            <Time>2021-08-01T08:34:31.000Z</Time>
            <Position>
              <LatitudeDegrees>42.07921184599399566650390625</LatitudeDegrees>
              <LongitudeDegrees>-2.33557783998548984527587890625</LongitudeDegrees>
            </Position>
            <AltitudeMeters>1010.20001220703125</AltitudeMeters>
            <DistanceMeters>353569.08998294</DistanceMeters>
          </Trackpoint>
          <Trackpoint>
            <Time>2021-08-01T08:34:35.000Z</Time>
            <Position>
              <LatitudeDegrees>42.07915954291820526123046875</LatitudeDegrees>
              <LongitudeDegrees>-2.33549050055444240570068359375</LongitudeDegrees>
            </Position>
            <AltitudeMeters>1011.4000244140625</AltitudeMeters>
            <DistanceMeters>353578.36032476</DistanceMeters>
          </Trackpoint>
          <Trackpoint>
            <Time>2021-08-01T08:34:43.000Z</Time>
            <Position>
              <LatitudeDegrees>42.079053930938243865966796875</LatitudeDegrees>
              <LongitudeDegrees>-2.33531213365495204925537109375</LongitudeDegrees>
            </Position>
            <AltitudeMeters>1012.4000244140625</AltitudeMeters>
            <DistanceMeters>353597.20965864</DistanceMeters>
          </Trackpoint>
          <Trackpoint>
            <Time>2021-08-01T08:34:50.000Z</Time>
            <Position>
              <LatitudeDegrees>42.07895594649016857147216796875</LatitudeDegrees>
              <LongitudeDegrees>-2.33514348976314067840576171875</LongitudeDegrees>
            </Position>
            <AltitudeMeters>1013.5999755859375</AltitudeMeters>
            <DistanceMeters>353614.90224466</DistanceMeters>
          </Trackpoint>
          <Trackpoint>
            <Time>2021-08-01T08:34:58.000Z</Time>
            <Position>
              <LatitudeDegrees>42.07884580828249454498291015625</LatitudeDegrees>
              <LongitudeDegrees>-2.33494970016181468963623046875</LongitudeDegrees>
            </Position>
            <AltitudeMeters>1014.5999755859375</AltitudeMeters>
            <DistanceMeters>353635.0658297</DistanceMeters>
          </Trackpoint>
          <Trackpoint>
            <Time>2021-08-01T08:35:07.000Z</Time>
            <Position>
              <LatitudeDegrees>42.0786970295011997222900390625</LatitudeDegrees>
              <LongitudeDegrees>-2.3347055353224277496337890625</LongitudeDegrees>
            </Position>
            <AltitudeMeters>1015.5999755859375</AltitudeMeters>
            <DistanceMeters>353661.16307909</DistanceMeters>
          </Trackpoint>
          <Trackpoint>
            <Time>2021-08-01T08:35:25.000Z</Time>
            <Position>
              <LatitudeDegrees>42.07834926433861255645751953125</LatitudeDegrees>
              <LongitudeDegrees>-2.3341238312423229217529296875</LongitudeDegrees>
            </Position>
            <AltitudeMeters>1015.5999755859375</AltitudeMeters>
            <DistanceMeters>353722.8682793</DistanceMeters>
          </Trackpoint>
          <Trackpoint>
            <Time>2021-08-01T08:35:27.000Z</Time>
            <Position>
              <LatitudeDegrees>42.07830936647951602935791015625</LatitudeDegrees>
              <LongitudeDegrees>-2.3340597935020923614501953125</LongitudeDegrees>
            </Position>
            <AltitudeMeters>1015.79998779296875</AltitudeMeters>
            <DistanceMeters>353729.7758783</DistanceMeters>
          </Trackpoint>
          <Trackpoint>
            <Time>2021-08-01T08:35:38.000Z</Time>
            <Position>
              <LatitudeDegrees>42.07809512503445148468017578125</LatitudeDegrees>
              <LongitudeDegrees>-2.33370800502598285675048828125</LongitudeDegrees>
            </Position>
            <AltitudeMeters>1016.5999755859375</AltitudeMeters>
            <DistanceMeters>353767.36852337</DistanceMeters>
          </Trackpoint>
          <Trackpoint>
            <Time>2021-08-01T08:35:51.000Z</Time>
            <Position>
              <LatitudeDegrees>42.07786981947720050811767578125</LatitudeDegrees>
              <LongitudeDegrees>-2.33332495205104351043701171875</LongitudeDegrees>
            </Position>
            <AltitudeMeters>1017.79998779296875</AltitudeMeters>
            <DistanceMeters>353807.74492589</DistanceMeters>
          </Trackpoint>
          <Trackpoint>
            <Time>2021-08-01T08:36:04.000Z</Time>
            <Position>
              <LatitudeDegrees>42.07764501683413982391357421875</LatitudeDegrees>
              <LongitudeDegrees>-2.332949526607990264892578125</LongitudeDegrees>
            </Position>
            <AltitudeMeters>1018.79998779296875</AltitudeMeters>
            <DistanceMeters>353847.5943307</DistanceMeters>
          </Trackpoint>
          <Trackpoint>
            <Time>2021-08-01T08:36:13.000Z</Time>
            <Position>
              <LatitudeDegrees>42.07748609595000743865966796875</LatitudeDegrees>
              <LongitudeDegrees>-2.332676947116851806640625</LongitudeDegrees>
            </Position>
            <AltitudeMeters>1020</AltitudeMeters>
            <DistanceMeters>353876.22924001</DistanceMeters>
          </Trackpoint>
          <Trackpoint>
            <Time>2021-08-01T08:36:23.000Z</Time>
            <Position>
              <LatitudeDegrees>42.07730789668858051300048828125</LatitudeDegrees>
              <LongitudeDegrees>-2.33237360604107379913330078125</LongitudeDegrees>
            </Position>
            <AltitudeMeters>1021.20001220703125</AltitudeMeters>
            <DistanceMeters>353908.18818064</DistanceMeters>
          </Trackpoint>
          <Trackpoint>
            <Time>2021-08-01T08:36:29.000Z</Time>
            <Position>
              <LatitudeDegrees>42.0772020332515239715576171875</LatitudeDegrees>
              <LongitudeDegrees>-2.33219406567513942718505859375</LongitudeDegrees>
            </Position>
            <AltitudeMeters>1022.20001220703125</AltitudeMeters>
            <DistanceMeters>353927.13117876</DistanceMeters>
          </Trackpoint>
          <Trackpoint>
            <Time>2021-08-01T08:36:42.000Z</Time>
            <Position>
              <LatitudeDegrees>42.07694831304252147674560546875</LatitudeDegrees>
              <LongitudeDegrees>-2.33177161775529384613037109375</LongitudeDegrees>
            </Position>
            <AltitudeMeters>1023.20001220703125</AltitudeMeters>
            <DistanceMeters>353972.02524231</DistanceMeters>
          </Trackpoint>
          <Trackpoint>
            <Time>2021-08-01T08:36:59.000Z</Time>
            <Position>
              <LatitudeDegrees>42.07660071551799774169921875</LatitudeDegrees>
              <LongitudeDegrees>-2.3311921767890453338623046875</LongitudeDegrees>
            </Position>
            <AltitudeMeters>1024</AltitudeMeters>
            <DistanceMeters>354033.57439072</DistanceMeters>
          </Trackpoint>
          <Trackpoint>
            <Time>2021-08-01T08:37:06.000Z</Time>
            <Position>
              <LatitudeDegrees>42.0764637552201747894287109375</LatitudeDegrees>
              <LongitudeDegrees>-2.33095832169055938720703125</LongitudeDegrees>
            </Position>
            <AltitudeMeters>1024.4000244140625</AltitudeMeters>
            <DistanceMeters>354058.18392478</DistanceMeters>
          </Trackpoint>
          <Trackpoint>
            <Time>2021-08-01T08:37:16.000Z</Time>
            <Position>
              <LatitudeDegrees>42.0762716419994831085205078125</LatitudeDegrees>
              <LongitudeDegrees>-2.330646514892578125</LongitudeDegrees>
            </Position>
            <AltitudeMeters>1025.4000244140625</AltitudeMeters>
            <DistanceMeters>354091.66193201</DistanceMeters>
          </Trackpoint>
          <Trackpoint>
            <Time>2021-08-01T08:37:31.000Z</Time>
            <Position>
              <LatitudeDegrees>42.07599051296710968017578125</LatitudeDegrees>
              <LongitudeDegrees>-2.3301702551543712615966796875</LongitudeDegrees>
            </Position>
            <AltitudeMeters>1026.5999755859375</AltitudeMeters>
            <DistanceMeters>354141.93295004</DistanceMeters>
          </Trackpoint>
          <Trackpoint>
            <Time>2021-08-01T08:37:40.000Z</Time>
            <Position>
              <LatitudeDegrees>42.0758227072656154632568359375</LatitudeDegrees>
              <LongitudeDegrees>-2.32989021576941013336181640625</LongitudeDegrees>
            </Position>
            <AltitudeMeters>1027.4000244140625</AltitudeMeters>
            <DistanceMeters>354171.66659486</DistanceMeters>
          </Trackpoint>
          <Trackpoint>
            <Time>2021-08-01T08:37:56.000Z</Time>
            <Position>
              <LatitudeDegrees>42.07550092600286006927490234375</LatitudeDegrees>
              <LongitudeDegrees>-2.329426445066928863525390625</LongitudeDegrees>
            </Position>
            <AltitudeMeters>1028.5999755859375</AltitudeMeters>
            <DistanceMeters>354224.11376605</DistanceMeters>
          </Trackpoint>
          <Trackpoint>
            <Time>2021-08-01T08:38:05.000Z</Time>
            <Position>
              <LatitudeDegrees>42.07528484053909778594970703125</LatitudeDegrees>
              <LongitudeDegrees>-2.3292241059243679046630859375</LongitudeDegrees>
            </Position>
            <AltitudeMeters>1029.5999755859375</AltitudeMeters>
            <DistanceMeters>354253.4032748</DistanceMeters>
          </Trackpoint>
          <Trackpoint>
            <Time>2021-08-01T08:38:11.000Z</Time>
            <Position>
              <LatitudeDegrees>42.07513011060655117034912109375</LatitudeDegrees>
              <LongitudeDegrees>-2.3291194997727870941162109375</LongitudeDegrees>
            </Position>
            <AltitudeMeters>1030.5999755859375</AltitudeMeters>
            <DistanceMeters>354272.67191831</DistanceMeters>
          </Trackpoint>
          <Trackpoint>
            <Time>2021-08-01T08:38:20.000Z</Time>
            <Position>
              <LatitudeDegrees>42.07490916363894939422607421875</LatitudeDegrees>
              <LongitudeDegrees>-2.329006679356098175048828125</LongitudeDegrees>
            </Position>
            <AltitudeMeters>1031.800048828125</AltitudeMeters>
            <DistanceMeters>354298.97080831</DistanceMeters>
          </Trackpoint>
          <Trackpoint>
            <Time>2021-08-01T08:38:29.000Z</Time>
            <Position>
              <LatitudeDegrees>42.07468830049037933349609375</LatitudeDegrees>
              <LongitudeDegrees>-2.3289102874696254730224609375</LongitudeDegrees>
            </Position>
            <AltitudeMeters>1032.800048828125</AltitudeMeters>
            <DistanceMeters>354324.81108642</DistanceMeters>
          </Trackpoint>
          <Trackpoint>
            <Time>2021-08-01T08:38:37.000Z</Time>
            <Position>
              <LatitudeDegrees>42.07448780536651611328125</LatitudeDegrees>
              <LongitudeDegrees>-2.3288301564753055572509765625</LongitudeDegrees>
            </Position>
            <AltitudeMeters>1034</AltitudeMeters>
            <DistanceMeters>354348.08778263</DistanceMeters>
          </Trackpoint>
          <Trackpoint>
            <Time>2021-08-01T08:38:49.000Z</Time>
            <Position>
              <LatitudeDegrees>42.07416736520826816558837890625</LatitudeDegrees>
              <LongitudeDegrees>-2.32868506573140621185302734375</LongitudeDegrees>
            </Position>
            <AltitudeMeters>1035</AltitudeMeters>
            <DistanceMeters>354385.71380188</DistanceMeters>
          </Trackpoint>
          <Trackpoint>
            <Time>2021-08-01T08:38:55.000Z</Time>
            <Position>
              <LatitudeDegrees>42.07398899830877780914306640625</LatitudeDegrees>
              <LongitudeDegrees>-2.328642569482326507568359375</LongitudeDegrees>
            </Position>
            <AltitudeMeters>1035.4000244140625</AltitudeMeters>
            <DistanceMeters>354405.87447575</DistanceMeters>
          </Trackpoint>
          <Trackpoint>
            <Time>2021-08-01T08:38:59.000Z</Time>
            <Position>
              <LatitudeDegrees>42.07387156784534454345703125</LatitudeDegrees>
              <LongitudeDegrees>-2.32862907461822032928466796875</LongitudeDegrees>
            </Position>
            <AltitudeMeters>1036</AltitudeMeters>
            <DistanceMeters>354418.99229328</DistanceMeters>
          </Trackpoint>
          <Trackpoint>
            <Time>2021-08-01T08:39:12.000Z</Time>
            <Position>
              <LatitudeDegrees>42.0734717510640621185302734375</LatitudeDegrees>
              <LongitudeDegrees>-2.32860459946095943450927734375</LongitudeDegrees>
            </Position>
            <AltitudeMeters>1037</AltitudeMeters>
            <DistanceMeters>354463.53864396</DistanceMeters>
          </Trackpoint>
          <Trackpoint>
            <Time>2021-08-01T08:39:25.000Z</Time>
            <Position>
              <LatitudeDegrees>42.0730788074433803558349609375</LatitudeDegrees>
              <LongitudeDegrees>-2.328578196465969085693359375</LongitudeDegrees>
            </Position>
            <AltitudeMeters>1038</AltitudeMeters>
            <DistanceMeters>354507.32853769</DistanceMeters>
          </Trackpoint>
          <Trackpoint>
            <Time>2021-08-01T08:39:36.000Z</Time>
            <Position>
              <LatitudeDegrees>42.0727629773318767547607421875</LatitudeDegrees>
              <LongitudeDegrees>-2.3285555653274059295654296875</LongitudeDegrees>
            </Position>
            <AltitudeMeters>1039</AltitudeMeters>
            <DistanceMeters>354542.53077328</DistanceMeters>
          </Trackpoint>
          <Trackpoint>
            <Time>2021-08-01T08:39:48.000Z</Time>
            <Position>
              <LatitudeDegrees>42.07240666262805461883544921875</LatitudeDegrees>
              <LongitudeDegrees>-2.32852731831371784210205078125</LongitudeDegrees>
            </Position>
            <AltitudeMeters>1040.199951171875</AltitudeMeters>
            <DistanceMeters>354582.25796385</DistanceMeters>
          </Trackpoint>
          <Trackpoint>
            <Time>2021-08-01T08:39:59.000Z</Time>
            <Position>
              <LatitudeDegrees>42.07210809923708438873291015625</LatitudeDegrees>
              <LongitudeDegrees>-2.32844777405261993408203125</LongitudeDegrees>
            </Position>
            <AltitudeMeters>1041.199951171875</AltitudeMeters>
            <DistanceMeters>354616.13228855</DistanceMeters>
          </Trackpoint>
          <Trackpoint>
            <Time>2021-08-01T08:40:06.000Z</Time>
            <Position>
              <LatitudeDegrees>42.071921937167644500732421875</LatitudeDegrees>
              <LongitudeDegrees>-2.3283560760319232940673828125</LongitudeDegrees>
            </Position>
            <AltitudeMeters>1042.199951171875</AltitudeMeters>
            <DistanceMeters>354638.19404551</DistanceMeters>
          </Trackpoint>
          <Trackpoint>
            <Time>2021-08-01T08:40:17.000Z</Time>
            <Position>
              <LatitudeDegrees>42.071630246937274932861328125</LatitudeDegrees>
              <LongitudeDegrees>-2.32823814265429973602294921875</LongitudeDegrees>
            </Position>
            <AltitudeMeters>1043.199951171875</AltitudeMeters>
            <DistanceMeters>354672.09022238</DistanceMeters>
          </Trackpoint>
          <Trackpoint>
            <Time>2021-08-01T08:40:25.000Z</Time>
            <Position>
              <LatitudeDegrees>42.07143385894596576690673828125</LatitudeDegrees>
              <LongitudeDegrees>-2.3281482048332691192626953125</LongitudeDegrees>
            </Position>
            <AltitudeMeters>1044.199951171875</AltitudeMeters>
            <DistanceMeters>354695.17721639</DistanceMeters>
          </Trackpoint>
          <Trackpoint>
            <Time>2021-08-01T08:40:33.000Z</Time>
            <Position>
              <LatitudeDegrees>42.071255408227443695068359375</LatitudeDegrees>
              <LongitudeDegrees>-2.328050471842288970947265625</LongitudeDegrees>
            </Position>
            <AltitudeMeters>1045.199951171875</AltitudeMeters>
            <DistanceMeters>354716.61790508</DistanceMeters>
          </Trackpoint>
          <Trackpoint>
            <Time>2021-08-01T08:40:40.000Z</Time>
            <Position>
              <LatitudeDegrees>42.0711026899516582489013671875</LatitudeDegrees>
              <LongitudeDegrees>-2.32796338386833667755126953125</LongitudeDegrees>
            </Position>
            <AltitudeMeters>1046.5999755859375</AltitudeMeters>
            <DistanceMeters>354735.07560602</DistanceMeters>
          </Trackpoint>
          <Trackpoint>
            <Time>2021-08-01T08:40:47.000Z</Time>
            <Position>
              <LatitudeDegrees>42.0709531567990779876708984375</LatitudeDegrees>
              <LongitudeDegrees>-2.32788543216884136199951171875</LongitudeDegrees>
            </Position>
            <AltitudeMeters>1047.5999755859375</AltitudeMeters>
            <DistanceMeters>354752.92166346</DistanceMeters>
          </Trackpoint>
          <Trackpoint>
            <Time>2021-08-01T08:40:55.000Z</Time>
            <Position>
              <LatitudeDegrees>42.07078660838305950164794921875</LatitudeDegrees>
              <LongitudeDegrees>-2.32779289595782756805419921875</LongitudeDegrees>
            </Position>
            <AltitudeMeters>1048.800048828125</AltitudeMeters>
            <DistanceMeters>354772.9738764</DistanceMeters>
          </Trackpoint>
          <Trackpoint>
            <Time>2021-08-01T08:41:00.000Z</Time>
            <Position>
              <LatitudeDegrees>42.07068250514566898345947265625</LatitudeDegrees>
              <LongitudeDegrees>-2.3277395032346248626708984375</LongitudeDegrees>
            </Position>
            <AltitudeMeters>1049.800048828125</AltitudeMeters>
            <DistanceMeters>354785.37222272</DistanceMeters>
          </Trackpoint>
          <Trackpoint>
            <Time>2021-08-01T08:41:07.000Z</Time>
            <Position>
              <LatitudeDegrees>42.07053347490727901458740234375</LatitudeDegrees>
              <LongitudeDegrees>-2.32765912078320980072021484375</LongitudeDegrees>
            </Position>
            <AltitudeMeters>1051</AltitudeMeters>
            <DistanceMeters>354803.23977214</DistanceMeters>
          </Trackpoint>
          <Trackpoint>
            <Time>2021-08-01T08:41:14.000Z</Time>
            <Position>
              <LatitudeDegrees>42.07039031200110912322998046875</LatitudeDegrees>
              <LongitudeDegrees>-2.32757697813212871551513671875</LongitudeDegrees>
            </Position>
            <AltitudeMeters>1052</AltitudeMeters>
            <DistanceMeters>354820.55941733</DistanceMeters>
          </Trackpoint>
          <Trackpoint>
            <Time>2021-08-01T08:41:23.000Z</Time>
            <Position>
              <LatitudeDegrees>42.07024916075170040130615234375</LatitudeDegrees>
              <LongitudeDegrees>-2.32750019989907741546630859375</LongitudeDegrees>
            </Position>
            <AltitudeMeters>1053.199951171875</AltitudeMeters>
            <DistanceMeters>354837.50217685</DistanceMeters>
          </Trackpoint>
          <Trackpoint>
            <Time>2021-08-01T08:41:31.000Z</Time>
            <Position>
              <LatitudeDegrees>42.07009258680045604705810546875</LatitudeDegrees>
              <LongitudeDegrees>-2.3274263553321361541748046875</LongitudeDegrees>
            </Position>
            <AltitudeMeters>1054.4000244140625</AltitudeMeters>
            <DistanceMeters>354855.9662367</DistanceMeters>
          </Trackpoint>
          <Trackpoint>
            <Time>2021-08-01T08:41:39.000Z</Time>
            <Position>
              <LatitudeDegrees>42.06992276944220066070556640625</LatitudeDegrees>
              <LongitudeDegrees>-2.327339351177215576171875</LongitudeDegrees>
            </Position>
            <AltitudeMeters>1055.5999755859375</AltitudeMeters>
            <DistanceMeters>354876.18818051</DistanceMeters>
          </Trackpoint>
          <Trackpoint>
            <Time>2021-08-01T08:41:46.000Z</Time>
            <Position>
              <LatitudeDegrees>42.0697800256311893463134765625</LatitudeDegrees>
              <LongitudeDegrees>-2.32726030983030796051025390625</LongitudeDegrees>
            </Position>
            <AltitudeMeters>1056.5999755859375</AltitudeMeters>
            <DistanceMeters>354893.36568842</DistanceMeters>
          </Trackpoint>
          <Trackpoint>
            <Time>2021-08-01T08:41:53.000Z</Time>
            <Position>
              <LatitudeDegrees>42.0696343481540679931640625</LatitudeDegrees>
              <LongitudeDegrees>-2.32718319632112979888916015625</LongitudeDegrees>
            </Position>
            <AltitudeMeters>1057.800048828125</AltitudeMeters>
            <DistanceMeters>354910.78696476</DistanceMeters>
          </Trackpoint>
          <Trackpoint>
            <Time>2021-08-01T08:42:08.000Z</Time>
            <Position>
              <LatitudeDegrees>42.06927317194640636444091796875</LatitudeDegrees>
              <LongitudeDegrees>-2.32697524130344390869140625</LongitudeDegrees>
            </Position>
            <AltitudeMeters>1058.800048828125</AltitudeMeters>
            <DistanceMeters>354954.50462412</DistanceMeters>
          </Trackpoint>
          <Trackpoint>
            <Time>2021-08-01T08:42:28.000Z</Time>
            <Position>
              <LatitudeDegrees>42.06877964548766613006591796875</LatitudeDegrees>
              <LongitudeDegrees>-2.32668262906372547149658203125</LongitudeDegrees>
            </Position>
            <AltitudeMeters>1059.800048828125</AltitudeMeters>
            <DistanceMeters>355014.52021994</DistanceMeters>
          </Trackpoint>
          <Trackpoint>
            <Time>2021-08-01T08:42:40.000Z</Time>
            <Position>
              <LatitudeDegrees>42.0684875361621379852294921875</LatitudeDegrees>
              <LongitudeDegrees>-2.326503507792949676513671875</LongitudeDegrees>
            </Position>
            <AltitudeMeters>1060.800048828125</AltitudeMeters>
            <DistanceMeters>355050.24242903</DistanceMeters>
          </Trackpoint>
          <Trackpoint>
            <Time>2021-08-01T08:42:55.000Z</Time>
            <Position>
              <LatitudeDegrees>42.06811931915581226348876953125</LatitudeDegrees>
              <LongitudeDegrees>-2.32627510093152523040771484375</LongitudeDegrees>
            </Position>
            <AltitudeMeters>1061.800048828125</AltitudeMeters>
            <DistanceMeters>355095.3621097</DistanceMeters>
          </Trackpoint>
          <Trackpoint>
            <Time>2021-08-01T08:43:10.000Z</Time>
            <Position>
              <LatitudeDegrees>42.0677593164145946502685546875</LatitudeDegrees>
              <LongitudeDegrees>-2.32608399353921413421630859375</LongitudeDegrees>
            </Position>
            <AltitudeMeters>1063</AltitudeMeters>
            <DistanceMeters>355138.43028824</DistanceMeters>
          </Trackpoint>
          <Trackpoint>
            <Time>2021-08-01T08:43:20.000Z</Time>
            <Position>
              <LatitudeDegrees>42.0675288140773773193359375</LatitudeDegrees>
              <LongitudeDegrees>-2.32598760165274143218994140625</LongitudeDegrees>
            </Position>
            <AltitudeMeters>1064</AltitudeMeters>
            <DistanceMeters>355165.29378743</DistanceMeters>
          </Trackpoint>
          <Trackpoint>
            <Time>2021-08-01T08:43:33.000Z</Time>
            <Position>
              <LatitudeDegrees>42.06722446717321872711181640625</LatitudeDegrees>
              <LongitudeDegrees>-2.32583907432854175567626953125</LongitudeDegrees>
            </Position>
            <AltitudeMeters>1065.199951171875</AltitudeMeters>
            <DistanceMeters>355201.32282501</DistanceMeters>
          </Trackpoint>
          <Trackpoint>
            <Time>2021-08-01T08:43:50.000Z</Time>
            <Position>
              <LatitudeDegrees>42.066839821636676788330078125</LatitudeDegrees>
              <LongitudeDegrees>-2.32561670243740081787109375</LongitudeDegrees>
            </Position>
            <AltitudeMeters>1066.4000244140625</AltitudeMeters>
            <DistanceMeters>355247.91092558</DistanceMeters>
          </Trackpoint>
          <Trackpoint>
            <Time>2021-08-01T08:44:00.000Z</Time>
            <Position>
              <LatitudeDegrees>42.06656657159328460693359375</LatitudeDegrees>
              <LongitudeDegrees>-2.3254187218844890594482421875</LongitudeDegrees>
            </Position>
            <AltitudeMeters>1067.800048828125</AltitudeMeters>
            <DistanceMeters>355282.44447558</DistanceMeters>
          </Trackpoint>
          <Trackpoint>
            <Time>2021-08-01T08:44:07.000Z</Time>
            <Position>
              <LatitudeDegrees>42.06639247946441173553466796875</LatitudeDegrees>
              <LongitudeDegrees>-2.325307913124561309814453125</LongitudeDegrees>
            </Position>
            <AltitudeMeters>1069</AltitudeMeters>
            <DistanceMeters>355303.87547528</DistanceMeters>
          </Trackpoint>
          <Trackpoint>
            <Time>2021-08-01T08:44:15.000Z</Time>
            <Position>
              <LatitudeDegrees>42.0662136934697628021240234375</LatitudeDegrees>
              <LongitudeDegrees>-2.32519534416496753692626953125</LongitudeDegrees>
            </Position>
            <AltitudeMeters>1070</AltitudeMeters>
            <DistanceMeters>355325.84124511</DistanceMeters>
          </Trackpoint>
          <Trackpoint>
            <Time>2021-08-01T08:44:23.000Z</Time>
            <Position>
              <LatitudeDegrees>42.06603683531284332275390625</LatitudeDegrees>
              <LongitudeDegrees>-2.32507799752056598663330078125</LongitudeDegrees>
            </Position>
            <AltitudeMeters>1071.199951171875</AltitudeMeters>
            <DistanceMeters>355347.78439293</DistanceMeters>
          </Trackpoint>
          <Trackpoint>
            <Time>2021-08-01T08:44:32.000Z</Time>
            <Position>
              <LatitudeDegrees>42.06586056388914585113525390625</LatitudeDegrees>
              <LongitudeDegrees>-2.324953190982341766357421875</LongitudeDegrees>
            </Position>
            <AltitudeMeters>1072.199951171875</AltitudeMeters>
            <DistanceMeters>355369.94905577</DistanceMeters>
          </Trackpoint>
          <Trackpoint>
            <Time>2021-08-01T08:44:39.000Z</Time>
            <Position>
              <LatitudeDegrees>42.06573299132287502288818359375</LatitudeDegrees>
              <LongitudeDegrees>-2.32487104833126068115234375</LongitudeDegrees>
            </Position>
            <AltitudeMeters>1073.4000244140625</AltitudeMeters>
            <DistanceMeters>355385.68738468</DistanceMeters>
          </Trackpoint>
          <Trackpoint>
            <Time>2021-08-01T08:44:47.000Z</Time>
            <Position>
              <LatitudeDegrees>42.06558915786445140838623046875</LatitudeDegrees>
              <LongitudeDegrees>-2.32477180659770965576171875</LongitudeDegrees>
            </Position>
            <AltitudeMeters>1074.5999755859375</AltitudeMeters>
            <DistanceMeters>355403.67406166</DistanceMeters>
          </Trackpoint>
          <Trackpoint>
            <Time>2021-08-01T08:44:56.000Z</Time>
            <Position>
              <LatitudeDegrees>42.06542755477130413055419921875</LatitudeDegrees>
              <LongitudeDegrees>-2.32465504668653011322021484375</LongitudeDegrees>
            </Position>
            <AltitudeMeters>1075.800048828125</AltitudeMeters>
            <DistanceMeters>355424.08468504</DistanceMeters>
          </Trackpoint>
          <Trackpoint>
            <Time>2021-08-01T08:45:04.000Z</Time>
            <Position>
              <LatitudeDegrees>42.06528640352189540863037109375</LatitudeDegrees>
              <LongitudeDegrees>-2.32454708777368068695068359375</LongitudeDegrees>
            </Position>
            <AltitudeMeters>1076.800048828125</AltitudeMeters>
            <DistanceMeters>355442.15076051</DistanceMeters>
          </Trackpoint>
          <Trackpoint>
            <Time>2021-08-01T08:45:10.000Z</Time>
            <Position>
              <LatitudeDegrees>42.06518179737031459808349609375</LatitudeDegrees>
              <LongitudeDegrees>-2.3244559764862060546875</LongitudeDegrees>
            </Position>
            <AltitudeMeters>1078</AltitudeMeters>
            <DistanceMeters>355456.01554566</DistanceMeters>
          </Trackpoint>
          <Trackpoint>
            <Time>2021-08-01T08:45:19.000Z</Time>
            <Position>
              <LatitudeDegrees>42.06502430140972137451171875</LatitudeDegrees>
              <LongitudeDegrees>-2.32430082745850086212158203125</LongitudeDegrees>
            </Position>
            <AltitudeMeters>1079</AltitudeMeters>
            <DistanceMeters>355477.73284045</DistanceMeters>
          </Trackpoint>
          <Trackpoint>
            <Time>2021-08-01T08:45:27.000Z</Time>
            <Position>
              <LatitudeDegrees>42.0648906938731670379638671875</LatitudeDegrees>
              <LongitudeDegrees>-2.32417124323546886444091796875</LongitudeDegrees>
            </Position>
            <AltitudeMeters>1080.199951171875</AltitudeMeters>
            <DistanceMeters>355496.05723382</DistanceMeters>
          </Trackpoint>
          <Trackpoint>
            <Time>2021-08-01T08:45:36.000Z</Time>
            <Position>
              <LatitudeDegrees>42.06474627368152141571044921875</LatitudeDegrees>
              <LongitudeDegrees>-2.324032522737979888916015625</LongitudeDegrees>
            </Position>
            <AltitudeMeters>1081</AltitudeMeters>
            <DistanceMeters>355515.79947684</DistanceMeters>
          </Trackpoint>
          <Trackpoint>
            <Time>2021-08-01T08:45:42.000Z</Time>
            <Position>
              <LatitudeDegrees>42.06464585848152637481689453125</LatitudeDegrees>
              <LongitudeDegrees>-2.323937974870204925537109375</LongitudeDegrees>
            </Position>
            <AltitudeMeters>1082</AltitudeMeters>
            <DistanceMeters>355529.43572758</DistanceMeters>
          </Trackpoint>
          <Trackpoint>
            <Time>2021-08-01T08:45:49.000Z</Time>
            <Position>
              <LatitudeDegrees>42.064523398876190185546875</LatitudeDegrees>
              <LongitudeDegrees>-2.323816604912281036376953125</LongitudeDegrees>
            </Position>
            <AltitudeMeters>1083</AltitudeMeters>
            <DistanceMeters>355546.3579551</DistanceMeters>
          </Trackpoint>
          <Trackpoint>
            <Time>2021-08-01T08:45:57.000Z</Time>
            <Position>
              <LatitudeDegrees>42.06439037807285785675048828125</LatitudeDegrees>
              <LongitudeDegrees>-2.3236652277410030364990234375</LongitudeDegrees>
            </Position>
            <AltitudeMeters>1084</AltitudeMeters>
            <DistanceMeters>355565.73967793</DistanceMeters>
          </Trackpoint>
          <Trackpoint>
            <Time>2021-08-01T08:46:08.000Z</Time>
            <Position>
              <LatitudeDegrees>42.06421871669590473175048828125</LatitudeDegrees>
              <LongitudeDegrees>-2.32342324219644069671630859375</LongitudeDegrees>
            </Position>
            <AltitudeMeters>1085.199951171875</AltitudeMeters>
            <DistanceMeters>355593.39555389</DistanceMeters>
          </Trackpoint>
          <Trackpoint>
            <Time>2021-08-01T08:46:16.000Z</Time>
            <Position>
              <LatitudeDegrees>42.064104974269866943359375</LatitudeDegrees>
              <LongitudeDegrees>-2.32324303127825260162353515625</LongitudeDegrees>
            </Position>
            <AltitudeMeters>1086.199951171875</AltitudeMeters>
            <DistanceMeters>355612.94058788</DistanceMeters>
          </Trackpoint>
          <Trackpoint>
            <Time>2021-08-01T08:46:26.000Z</Time>
            <Position>
              <LatitudeDegrees>42.0639586262404918670654296875</LatitudeDegrees>
              <LongitudeDegrees>-2.3230184800922870635986328125</LongitudeDegrees>
            </Position>
            <AltitudeMeters>1087.4000244140625</AltitudeMeters>
            <DistanceMeters>355637.63071547</DistanceMeters>
          </Trackpoint>
          <Trackpoint>
            <Time>2021-08-01T08:46:35.000Z</Time>
            <Position>
              <LatitudeDegrees>42.06383951939642429351806640625</LatitudeDegrees>
              <LongitudeDegrees>-2.32282318174839019775390625</LongitudeDegrees>
            </Position>
            <AltitudeMeters>1088.4000244140625</AltitudeMeters>
            <DistanceMeters>355658.51498449</DistanceMeters>
          </Trackpoint>
          <Trackpoint>
            <Time>2021-08-01T08:46:42.000Z</Time>
            <Position>
              <LatitudeDegrees>42.06375502981245517730712890625</LatitudeDegrees>
              <LongitudeDegrees>-2.32266166247427463531494140625</LongitudeDegrees>
            </Position>
            <AltitudeMeters>1089.5999755859375</AltitudeMeters>
            <DistanceMeters>355674.8418904</DistanceMeters>
          </Trackpoint>
          <Trackpoint>
            <Time>2021-08-01T08:46:49.000Z</Time>
            <Position>
              <LatitudeDegrees>42.06367540173232555389404296875</LatitudeDegrees>
              <LongitudeDegrees>-2.322500646114349365234375</LongitudeDegrees>
            </Position>
            <AltitudeMeters>1090.5999755859375</AltitudeMeters>
            <DistanceMeters>355690.82870539</DistanceMeters>
          </Trackpoint>
          <Trackpoint>
            <Time>2021-08-01T08:46:57.000Z</Time>
            <Position>
              <LatitudeDegrees>42.06358990631997585296630859375</LatitudeDegrees>
              <LongitudeDegrees>-2.32231758534908294677734375</LongitudeDegrees>
            </Position>
            <AltitudeMeters>1091.4000244140625</AltitudeMeters>
            <DistanceMeters>355708.6992869</DistanceMeters>
          </Trackpoint>
          <Trackpoint>
            <Time>2021-08-01T08:47:05.000Z</Time>
            <Position>
              <LatitudeDegrees>42.06349988467991352081298828125</LatitudeDegrees>
              <LongitudeDegrees>-2.322125136852264404296875</LongitudeDegrees>
            </Position>
            <AltitudeMeters>1092.5999755859375</AltitudeMeters>
            <DistanceMeters>355727.4948888</DistanceMeters>
          </Trackpoint>
          <Trackpoint>
            <Time>2021-08-01T08:47:11.000Z</Time>
            <Position>
              <LatitudeDegrees>42.0634386129677295684814453125</LatitudeDegrees>
              <LongitudeDegrees>-2.3219851590692996978759765625</LongitudeDegrees>
            </Position>
            <AltitudeMeters>1093.5999755859375</AltitudeMeters>
            <DistanceMeters>355740.92226778</DistanceMeters>
          </Trackpoint>
          <Trackpoint>
            <Time>2021-08-01T08:47:21.000Z</Time>
            <Position>
              <LatitudeDegrees>42.06332168541848659515380859375</LatitudeDegrees>
              <LongitudeDegrees>-2.3217414133250713348388671875</LongitudeDegrees>
            </Position>
            <AltitudeMeters>1094.5999755859375</AltitudeMeters>
            <DistanceMeters>355764.90216077</DistanceMeters>
          </Trackpoint>
          <Trackpoint>
            <Time>2021-08-01T08:47:30.000Z</Time>
            <Position>
              <LatitudeDegrees>42.06321808509528636932373046875</LatitudeDegrees>
              <LongitudeDegrees>-2.32152055017650127410888671875</LongitudeDegrees>
            </Position>
            <AltitudeMeters>1095.5999755859375</AltitudeMeters>
            <DistanceMeters>355786.49017238</DistanceMeters>
          </Trackpoint>
          <Trackpoint>
            <Time>2021-08-01T08:47:39.000Z</Time>
            <Position>
              <LatitudeDegrees>42.06311046145856380462646484375</LatitudeDegrees>
              <LongitudeDegrees>-2.3212978430092334747314453125</LongitudeDegrees>
            </Position>
            <AltitudeMeters>1096.800048828125</AltitudeMeters>
            <DistanceMeters>355808.44812997</DistanceMeters>
          </Trackpoint>
          <Trackpoint>
            <Time>2021-08-01T08:47:48.000Z</Time>
            <Position>
              <LatitudeDegrees>42.06300870515406131744384765625</LatitudeDegrees>
              <LongitudeDegrees>-2.321081422269344329833984375</LongitudeDegrees>
            </Position>
            <AltitudeMeters>1097.800048828125</AltitudeMeters>
            <DistanceMeters>355829.61606382</DistanceMeters>
          </Trackpoint>
          <Trackpoint>
            <Time>2021-08-01T08:48:01.000Z</Time>
            <Position>
              <LatitudeDegrees>42.06285037100315093994140625</LatitudeDegrees>
              <LongitudeDegrees>-2.32076416723430156707763671875</LongitudeDegrees>
            </Position>
            <AltitudeMeters>1098.800048828125</AltitudeMeters>
            <DistanceMeters>355861.20412148</DistanceMeters>
          </Trackpoint>
          <Trackpoint>
            <Time>2021-08-01T08:48:09.000Z</Time>
            <Position>
              <LatitudeDegrees>42.06274718977510929107666015625</LatitudeDegrees>
              <LongitudeDegrees>-2.32057658024132251739501953125</LongitudeDegrees>
            </Position>
            <AltitudeMeters>1099.800048828125</AltitudeMeters>
            <DistanceMeters>355880.49524665</DistanceMeters>
          </Trackpoint>
          <Trackpoint>
            <Time>2021-08-01T08:48:20.000Z</Time>
            <Position>
              <LatitudeDegrees>42.06260805018246173858642578125</LatitudeDegrees>
              <LongitudeDegrees>-2.32031774707138538360595703125</LongitudeDegrees>
            </Position>
            <AltitudeMeters>1100.800048828125</AltitudeMeters>
            <DistanceMeters>355906.9012197</DistanceMeters>
          </Trackpoint>
          <Trackpoint>
            <Time>2021-08-01T08:48:31.000Z</Time>
            <Position>
              <LatitudeDegrees>42.06246505491435527801513671875</LatitudeDegrees>
              <LongitudeDegrees>-2.32005086727440357208251953125</LongitudeDegrees>
            </Position>
            <AltitudeMeters>1102</AltitudeMeters>
            <DistanceMeters>355934.09746028</DistanceMeters>
          </Trackpoint>
          <Trackpoint>
            <Time>2021-08-01T08:48:40.000Z</Time>
            <Position>
              <LatitudeDegrees>42.0623494684696197509765625</LatitudeDegrees>
              <LongitudeDegrees>-2.319828830659389495849609375</LongitudeDegrees>
            </Position>
            <AltitudeMeters>1103</AltitudeMeters>
            <DistanceMeters>355956.50583953</DistanceMeters>
          </Trackpoint>
          <Trackpoint>
            <Time>2021-08-01T08:48:48.000Z</Time>
            <Position>
              <LatitudeDegrees>42.0622537471354007720947265625</LatitudeDegrees>
              <LongitudeDegrees>-2.31962590478360652923583984375</LongitudeDegrees>
            </Position>
            <AltitudeMeters>1104</AltitudeMeters>
            <DistanceMeters>355976.37210544</DistanceMeters>
          </Trackpoint>
          <Trackpoint>
            <Time>2021-08-01T08:48:56.000Z</Time>
            <Position>
              <LatitudeDegrees>42.06215701997280120849609375</LatitudeDegrees>
              <LongitudeDegrees>-2.31942121870815753936767578125</LongitudeDegrees>
            </Position>
            <AltitudeMeters>1105</AltitudeMeters>
            <DistanceMeters>355996.42161623</DistanceMeters>
          </Trackpoint>
          <Trackpoint>
            <Time>2021-08-01T08:49:04.000Z</Time>
            <Position>
              <LatitudeDegrees>42.06205517984926700592041015625</LatitudeDegrees>
              <LongitudeDegrees>-2.31921368278563022613525390625</LongitudeDegrees>
            </Position>
            <AltitudeMeters>1106</AltitudeMeters>
            <DistanceMeters>356016.9783788</DistanceMeters>
          </Trackpoint>
          <Trackpoint>
            <Time>2021-08-01T08:49:17.000Z</Time>
            <Position>
              <LatitudeDegrees>42.0618852786719799041748046875</LatitudeDegrees>
              <LongitudeDegrees>-2.31886130757629871368408203125</LongitudeDegrees>
            </Position>
            <AltitudeMeters>1107</AltitudeMeters>
            <DistanceMeters>356051.69799854</DistanceMeters>
          </Trackpoint>
          <Trackpoint>
            <Time>2021-08-01T08:49:28.000Z</Time>
            <Position>
              <LatitudeDegrees>42.0617464743554592132568359375</LatitudeDegrees>
              <LongitudeDegrees>-2.31857347302138805389404296875</LongitudeDegrees>
            </Position>
            <AltitudeMeters>1108</AltitudeMeters>
            <DistanceMeters>356080.05961255</DistanceMeters>
          </Trackpoint>
          <Trackpoint>
            <Time>2021-08-01T08:49:37.000Z</Time>
            <Position>
              <LatitudeDegrees>42.06163977272808551788330078125</LatitudeDegrees>
              <LongitudeDegrees>-2.31833517551422119140625</LongitudeDegrees>
            </Position>
            <AltitudeMeters>1109</AltitudeMeters>
            <DistanceMeters>356103.05509573</DistanceMeters>
          </Trackpoint>
          <Trackpoint>
            <Time>2021-08-01T08:49:47.000Z</Time>
            <Position>
              <LatitudeDegrees>42.0615221746265888214111328125</LatitudeDegrees>
              <LongitudeDegrees>-2.31807055883109569549560546875</LongitudeDegrees>
            </Position>
            <AltitudeMeters>1110</AltitudeMeters>
            <DistanceMeters>356128.53926921</DistanceMeters>
          </Trackpoint>
          <Trackpoint>
            <Time>2021-08-01T08:50:00.000Z</Time>
            <Position>
              <LatitudeDegrees>42.06134540028870105743408203125</LatitudeDegrees>
              <LongitudeDegrees>-2.31772421859204769134521484375</LongitudeDegrees>
            </Position>
            <AltitudeMeters>1111</AltitudeMeters>
            <DistanceMeters>356163.26942082</DistanceMeters>
          </Trackpoint>
          <Trackpoint>
            <Time>2021-08-01T08:50:10.000Z</Time>
            <Position>
              <LatitudeDegrees>42.0612227730453014373779296875</LatitudeDegrees>
              <LongitudeDegrees>-2.317420206964015960693359375</LongitudeDegrees>
            </Position>
            <AltitudeMeters>1112.199951171875</AltitudeMeters>
            <DistanceMeters>356191.85919923</DistanceMeters>
          </Trackpoint>
          <Trackpoint>
            <Time>2021-08-01T08:50:19.000Z</Time>
            <Position>
              <LatitudeDegrees>42.06111238338053226470947265625</LatitudeDegrees>
              <LongitudeDegrees>-2.31719054281711578369140625</LongitudeDegrees>
            </Position>
            <AltitudeMeters>1113.199951171875</AltitudeMeters>
            <DistanceMeters>356214.46717098</DistanceMeters>
          </Trackpoint>
          <Trackpoint>
            <Time>2021-08-01T08:50:28.000Z</Time>
            <Position>
              <LatitudeDegrees>42.06101146526634693145751953125</LatitudeDegrees>
              <LongitudeDegrees>-2.31696548871695995330810546875</LongitudeDegrees>
            </Position>
            <AltitudeMeters>1114</AltitudeMeters>
            <DistanceMeters>356236.19298802</DistanceMeters>
          </Trackpoint>
          <Trackpoint>
            <Time>2021-08-01T08:50:36.000Z</Time>
            <Position>
              <LatitudeDegrees>42.06090467981994152069091796875</LatitudeDegrees>
              <LongitudeDegrees>-2.31676683761179447174072265625</LongitudeDegrees>
            </Position>
            <AltitudeMeters>1115.199951171875</AltitudeMeters>
            <DistanceMeters>356256.45931469</DistanceMeters>
          </Trackpoint>
          <Trackpoint>
            <Time>2021-08-01T08:50:44.000Z</Time>
            <Position>
              <LatitudeDegrees>42.060795463621616363525390625</LatitudeDegrees>
              <LongitudeDegrees>-2.31656265445053577423095703125</LongitudeDegrees>
            </Position>
            <AltitudeMeters>1116.199951171875</AltitudeMeters>
            <DistanceMeters>356277.25475556</DistanceMeters>
          </Trackpoint>
          <Trackpoint>
            <Time>2021-08-01T08:50:52.000Z</Time>
            <Position>
              <LatitudeDegrees>42.060705609619617462158203125</LatitudeDegrees>
              <LongitudeDegrees>-2.3163582198321819305419921875</LongitudeDegrees>
            </Position>
            <AltitudeMeters>1117.199951171875</AltitudeMeters>
            <DistanceMeters>356296.88645601</DistanceMeters>
          </Trackpoint>
          <Trackpoint>
            <Time>2021-08-01T08:51:04.000Z</Time>
            <Position>
              <LatitudeDegrees>42.06056454218924045562744140625</LatitudeDegrees>
              <LongitudeDegrees>-2.31605974026024341583251953125</LongitudeDegrees>
            </Position>
            <AltitudeMeters>1118.199951171875</AltitudeMeters>
            <DistanceMeters>356326.12474148</DistanceMeters>
          </Trackpoint>
          <Trackpoint>
            <Time>2021-08-01T08:51:11.000Z</Time>
            <Position>
              <LatitudeDegrees>42.06048340536653995513916015625</LatitudeDegrees>
              <LongitudeDegrees>-2.315886318683624267578125</LongitudeDegrees>
            </Position>
            <AltitudeMeters>1119.4000244140625</AltitudeMeters>
            <DistanceMeters>356343.06350321</DistanceMeters>
          </Trackpoint>
          <Trackpoint>
            <Time>2021-08-01T08:51:20.000Z</Time>
            <Position>
              <LatitudeDegrees>42.0603755302727222442626953125</LatitudeDegrees>
              <LongitudeDegrees>-2.31565606780350208282470703125</LongitudeDegrees>
            </Position>
            <AltitudeMeters>1120.199951171875</AltitudeMeters>
            <DistanceMeters>356365.56196838</DistanceMeters>
          </Trackpoint>
          <Trackpoint>
            <Time>2021-08-01T08:51:35.000Z</Time>
            <Position>
              <LatitudeDegrees>42.0601907931268215179443359375</LatitudeDegrees>
              <LongitudeDegrees>-2.31525055132806301116943359375</LongitudeDegrees>
            </Position>
            <AltitudeMeters>1121.199951171875</AltitudeMeters>
            <DistanceMeters>356404.87731201</DistanceMeters>
          </Trackpoint>
          <Trackpoint>
            <Time>2021-08-01T08:51:48.000Z</Time>
            <Position>
              <LatitudeDegrees>42.0600365661084651947021484375</LatitudeDegrees>
              <LongitudeDegrees>-2.31487403623759746551513671875</LongitudeDegrees>
            </Position>
            <AltitudeMeters>1122.199951171875</AltitudeMeters>
            <DistanceMeters>356440.41196706</DistanceMeters>
          </Trackpoint>
          <Trackpoint>
            <Time>2021-08-01T08:51:58.000Z</Time>
            <Position>
              <LatitudeDegrees>42.05990689806640148162841796875</LatitudeDegrees>
              <LongitudeDegrees>-2.31462811119854450225830078125</LongitudeDegrees>
            </Position>
            <AltitudeMeters>1123.4000244140625</AltitudeMeters>
            <DistanceMeters>356465.33760285</DistanceMeters>
          </Trackpoint>
          <Trackpoint>
            <Time>2021-08-01T08:52:07.000Z</Time>
            <Position>
              <LatitudeDegrees>42.0597928203642368316650390625</LatitudeDegrees>
              <LongitudeDegrees>-2.3143810965120792388916015625</LongitudeDegrees>
            </Position>
            <AltitudeMeters>1124.5999755859375</AltitudeMeters>
            <DistanceMeters>356489.37654442</DistanceMeters>
          </Trackpoint>
          <Trackpoint>
            <Time>2021-08-01T08:52:13.000Z</Time>
            <Position>
              <LatitudeDegrees>42.0597235858440399169921875</LatitudeDegrees>
              <LongitudeDegrees>-2.314218319952487945556640625</LongitudeDegrees>
            </Position>
            <AltitudeMeters>1125.5999755859375</AltitudeMeters>
            <DistanceMeters>356504.878428</DistanceMeters>
          </Trackpoint>
          <Trackpoint>
            <Time>2021-08-01T08:52:20.000Z</Time>
            <Position>
              <LatitudeDegrees>42.0596372522413730621337890625</LatitudeDegrees>
              <LongitudeDegrees>-2.31404456309974193572998046875</LongitudeDegrees>
            </Position>
            <AltitudeMeters>1126.800048828125</AltitudeMeters>
            <DistanceMeters>356522.15552865</DistanceMeters>
          </Trackpoint>
          <Trackpoint>
            <Time>2021-08-01T08:52:28.000Z</Time>
            <Position>
              <LatitudeDegrees>42.05950289033353328704833984375</LatitudeDegrees>
              <LongitudeDegrees>-2.31389502994716167449951171875</LongitudeDegrees>
            </Position>
            <AltitudeMeters>1127.800048828125</AltitudeMeters>
            <DistanceMeters>356541.55494786</DistanceMeters>
          </Trackpoint>
          <Trackpoint>
            <Time>2021-08-01T08:52:34.000Z</Time>
            <Position>
              <LatitudeDegrees>42.05939811654388904571533203125</LatitudeDegrees>
              <LongitudeDegrees>-2.3137936927378177642822265625</LongitudeDegrees>
            </Position>
            <AltitudeMeters>1129</AltitudeMeters>
            <DistanceMeters>356555.91184603</DistanceMeters>
          </Trackpoint>
          <Trackpoint>
            <Time>2021-08-01T08:52:40.000Z</Time>
            <Position>
              <LatitudeDegrees>42.05928646959364414215087890625</LatitudeDegrees>
              <LongitudeDegrees>-2.313712723553180694580078125</LongitudeDegrees>
            </Position>
            <AltitudeMeters>1130.199951171875</AltitudeMeters>
            <DistanceMeters>356570.02515274</DistanceMeters>
          </Trackpoint>
          <Trackpoint>
            <Time>2021-08-01T08:52:49.000Z</Time>
            <Position>
              <LatitudeDegrees>42.0591309852898120880126953125</LatitudeDegrees>
              <LongitudeDegrees>-2.3136024177074432373046875</LongitudeDegrees>
            </Position>
            <AltitudeMeters>1131.199951171875</AltitudeMeters>
            <DistanceMeters>356589.58450392</DistanceMeters>
          </Trackpoint>
          <Trackpoint>
            <Time>2021-08-01T08:52:56.000Z</Time>
            <Position>
              <LatitudeDegrees>42.059020511806011199951171875</LatitudeDegrees>
              <LongitudeDegrees>-2.313497476279735565185546875</LongitudeDegrees>
            </Position>
            <AltitudeMeters>1132.4000244140625</AltitudeMeters>
            <DistanceMeters>356604.63056707</DistanceMeters>
          </Trackpoint>
          <Trackpoint>
            <Time>2021-08-01T08:53:03.000Z</Time>
            <Position>
              <LatitudeDegrees>42.05890961922705173492431640625</LatitudeDegrees>
              <LongitudeDegrees>-2.31340619735419750213623046875</LongitudeDegrees>
            </Position>
            <AltitudeMeters>1133.4000244140625</AltitudeMeters>
            <DistanceMeters>356619.09586801</DistanceMeters>
          </Trackpoint>
          <Trackpoint>
            <Time>2021-08-01T08:53:10.000Z</Time>
            <Position>
              <LatitudeDegrees>42.05879529006779193878173828125</LatitudeDegrees>
              <LongitudeDegrees>-2.313307039439678192138671875</LongitudeDegrees>
            </Position>
            <AltitudeMeters>1134.4000244140625</AltitudeMeters>
            <DistanceMeters>356634.23109115</DistanceMeters>
          </Trackpoint>
          <Trackpoint>
            <Time>2021-08-01T08:53:16.000Z</Time>
            <Position>
              <LatitudeDegrees>42.0586914382874965667724609375</LatitudeDegrees>
              <LongitudeDegrees>-2.3132310993969440460205078125</LongitudeDegrees>
            </Position>
            <AltitudeMeters>1135.5999755859375</AltitudeMeters>
            <DistanceMeters>356647.38396933</DistanceMeters>
          </Trackpoint>
          <Trackpoint>
            <Time>2021-08-01T08:53:25.000Z</Time>
            <Position>
              <LatitudeDegrees>42.05854274332523345947265625</LatitudeDegrees>
              <LongitudeDegrees>-2.31311266310513019561767578125</LongitudeDegrees>
            </Position>
            <AltitudeMeters>1136.800048828125</AltitudeMeters>
            <DistanceMeters>356666.61132821</DistanceMeters>
          </Trackpoint>
          <Trackpoint>
            <Time>2021-08-01T08:53:32.000Z</Time>
            <Position>
              <LatitudeDegrees>42.05843000672757625579833984375</LatitudeDegrees>
              <LongitudeDegrees>-2.31301325373351573944091796875</LongitudeDegrees>
            </Position>
            <AltitudeMeters>1137.800048828125</AltitudeMeters>
            <DistanceMeters>356681.60869945</DistanceMeters>
          </Trackpoint>
          <Trackpoint>
            <Time>2021-08-01T08:53:38.000Z</Time>
            <Position>
              <LatitudeDegrees>42.05834157764911651611328125</LatitudeDegrees>
              <LongitudeDegrees>-2.31291183270514011383056640625</LongitudeDegrees>
            </Position>
            <AltitudeMeters>1138.5999755859375</AltitudeMeters>
            <DistanceMeters>356694.53617503</DistanceMeters>
          </Trackpoint>
          <Trackpoint>
            <Time>2021-08-01T08:53:45.000Z</Time>
            <Position>
              <LatitudeDegrees>42.05824661068618297576904296875</LatitudeDegrees>
              <LongitudeDegrees>-2.3127923905849456787109375</LongitudeDegrees>
            </Position>
            <AltitudeMeters>1139.5999755859375</AltitudeMeters>
            <DistanceMeters>356708.99835434</DistanceMeters>
          </Trackpoint>
          <Trackpoint>
            <Time>2021-08-01T08:53:51.000Z</Time>
            <Position>
              <LatitudeDegrees>42.05816865898668766021728515625</LatitudeDegrees>
              <LongitudeDegrees>-2.3126896284520626068115234375</LongitudeDegrees>
            </Position>
            <AltitudeMeters>1140.800048828125</AltitudeMeters>
            <DistanceMeters>356721.13873769</DistanceMeters>
          </Trackpoint>
          <Trackpoint>
            <Time>2021-08-01T08:53:59.000Z</Time>
            <Position>
              <LatitudeDegrees>42.058064304292201995849609375</LatitudeDegrees>
              <LongitudeDegrees>-2.3125592060387134552001953125</LongitudeDegrees>
            </Position>
            <AltitudeMeters>1141.800048828125</AltitudeMeters>
            <DistanceMeters>356736.98342718</DistanceMeters>
          </Trackpoint>
          <Trackpoint>
            <Time>2021-08-01T08:54:06.000Z</Time>
            <Position>
              <LatitudeDegrees>42.05797755159437656402587890625</LatitudeDegrees>
              <LongitudeDegrees>-2.3124410212039947509765625</LongitudeDegrees>
            </Position>
            <AltitudeMeters>1142.800048828125</AltitudeMeters>
            <DistanceMeters>356750.71667795</DistanceMeters>
          </Trackpoint>
          <Trackpoint>
            <Time>2021-08-01T08:54:14.000Z</Time>
            <Position>
              <LatitudeDegrees>42.05787881277501583099365234375</LatitudeDegrees>
              <LongitudeDegrees>-2.3123030550777912139892578125</LongitudeDegrees>
            </Position>
            <AltitudeMeters>1144</AltitudeMeters>
            <DistanceMeters>356766.55224623</DistanceMeters>
          </Trackpoint>
          <Trackpoint>
            <Time>2021-08-01T08:54:20.000Z</Time>
            <Position>
              <LatitudeDegrees>42.05780069343745708465576171875</LatitudeDegrees>
              <LongitudeDegrees>-2.31219769455492496490478515625</LongitudeDegrees>
            </Position>
            <AltitudeMeters>1145.199951171875</AltitudeMeters>
            <DistanceMeters>356778.85701327</DistanceMeters>
          </Trackpoint>
          <Trackpoint>
            <Time>2021-08-01T08:54:27.000Z</Time>
            <Position>
              <LatitudeDegrees>42.05771385692059993743896484375</LatitudeDegrees>
              <LongitudeDegrees>-2.31207565404474735260009765625</LongitudeDegrees>
            </Position>
            <AltitudeMeters>1146.4000244140625</AltitudeMeters>
            <DistanceMeters>356792.82561705</DistanceMeters>
          </Trackpoint>
          <Trackpoint>
            <Time>2021-08-01T08:54:34.000Z</Time>
            <Position>
              <LatitudeDegrees>42.0576266013085842132568359375</LatitudeDegrees>
              <LongitudeDegrees>-2.311951853334903717041015625</LongitudeDegrees>
            </Position>
            <AltitudeMeters>1147.4000244140625</AltitudeMeters>
            <DistanceMeters>356806.93188391</DistanceMeters>
          </Trackpoint>
          <Trackpoint>
            <Time>2021-08-01T08:54:40.000Z</Time>
            <Position>
              <LatitudeDegrees>42.05754890106618404388427734375</LatitudeDegrees>
              <LongitudeDegrees>-2.311846911907196044921875</LongitudeDegrees>
            </Position>
            <AltitudeMeters>1148.5999755859375</AltitudeMeters>
            <DistanceMeters>356819.17964411</DistanceMeters>
          </Trackpoint>
          <Trackpoint>
            <Time>2021-08-01T08:54:46.000Z</Time>
            <Position>
              <LatitudeDegrees>42.05747078172862529754638671875</LatitudeDegrees>
              <LongitudeDegrees>-2.31173518113791942596435546875</LongitudeDegrees>
            </Position>
            <AltitudeMeters>1149.4000244140625</AltitudeMeters>
            <DistanceMeters>356831.86241792</DistanceMeters>
          </Trackpoint>
          <Trackpoint>
            <Time>2021-08-01T08:54:52.000Z</Time>
            <Position>
              <LatitudeDegrees>42.05739609897136688232421875</LatitudeDegrees>
              <LongitudeDegrees>-2.311619929969310760498046875</LongitudeDegrees>
            </Position>
            <AltitudeMeters>1150.5999755859375</AltitudeMeters>
            <DistanceMeters>356844.50347139</DistanceMeters>
          </Trackpoint>
          <Trackpoint>
            <Time>2021-08-01T08:54:58.000Z</Time>
            <Position>
              <LatitudeDegrees>42.05732166767120361328125</LatitudeDegrees>
              <LongitudeDegrees>-2.3115050978958606719970703125</LongitudeDegrees>
            </Position>
            <AltitudeMeters>1151.5999755859375</AltitudeMeters>
            <DistanceMeters>356857.10015759</DistanceMeters>
          </Trackpoint>
          <Trackpoint>
            <Time>2021-08-01T08:55:05.000Z</Time>
            <Position>
              <LatitudeDegrees>42.05723625607788562774658203125</LatitudeDegrees>
              <LongitudeDegrees>-2.31135950423777103424072265625</LongitudeDegrees>
            </Position>
            <AltitudeMeters>1152.800048828125</AltitudeMeters>
            <DistanceMeters>356872.43394807</DistanceMeters>
          </Trackpoint>
          <Trackpoint>
            <Time>2021-08-01T08:55:12.000Z</Time>
            <Position>
              <LatitudeDegrees>42.0571531914174556732177734375</LatitudeDegrees>
              <LongitudeDegrees>-2.31121324002742767333984375</LongitudeDegrees>
            </Position>
            <AltitudeMeters>1153.800048828125</AltitudeMeters>
            <DistanceMeters>356887.65157963</DistanceMeters>
          </Trackpoint>
          <Trackpoint>
            <Time>2021-08-01T08:55:21.000Z</Time>
            <Position>
              <LatitudeDegrees>42.0570415444672107696533203125</LatitudeDegrees>
              <LongitudeDegrees>-2.311022467911243438720703125</LongitudeDegrees>
            </Position>
            <AltitudeMeters>1154.800048828125</AltitudeMeters>
            <DistanceMeters>356907.72562161</DistanceMeters>
          </Trackpoint>
          <Trackpoint>
            <Time>2021-08-01T08:55:29.000Z</Time>
            <Position>
              <LatitudeDegrees>42.05695043317973613739013671875</LatitudeDegrees>
              <LongitudeDegrees>-2.31085524894297122955322265625</LongitudeDegrees>
            </Position>
            <AltitudeMeters>1156.199951171875</AltitudeMeters>
            <DistanceMeters>356924.86602817</DistanceMeters>
          </Trackpoint>
          <Trackpoint>
            <Time>2021-08-01T08:55:38.000Z</Time>
            <Position>
              <LatitudeDegrees>42.05684549175202846527099609375</LatitudeDegrees>
              <LongitudeDegrees>-2.3106679134070873260498046875</LongitudeDegrees>
            </Position>
            <AltitudeMeters>1157.199951171875</AltitudeMeters>
            <DistanceMeters>356944.25916237</DistanceMeters>
          </Trackpoint>
          <Trackpoint>
            <Time>2021-08-01T08:55:45.000Z</Time>
            <Position>
              <LatitudeDegrees>42.05676150508224964141845703125</LatitudeDegrees>
              <LongitudeDegrees>-2.31051494367420673370361328125</LongitudeDegrees>
            </Position>
            <AltitudeMeters>1158.199951171875</AltitudeMeters>
            <DistanceMeters>356959.98141769</DistanceMeters>
          </Trackpoint>
          <Trackpoint>
            <Time>2021-08-01T08:55:55.000Z</Time>
            <Position>
              <LatitudeDegrees>42.0566365309059619903564453125</LatitudeDegrees>
              <LongitudeDegrees>-2.31029701419174671173095703125</LongitudeDegrees>
            </Position>
            <AltitudeMeters>1159.199951171875</AltitudeMeters>
            <DistanceMeters>356982.73748861</DistanceMeters>
          </Trackpoint>
          <Trackpoint>
            <Time>2021-08-01T08:56:04.000Z</Time>
            <Position>
              <LatitudeDegrees>42.05651708878576755523681640625</LatitudeDegrees>
              <LongitudeDegrees>-2.310105152428150177001953125</LongitudeDegrees>
            </Position>
            <AltitudeMeters>1160.4000244140625</AltitudeMeters>
            <DistanceMeters>357003.42888742</DistanceMeters>
          </Trackpoint>
          <Trackpoint>
            <Time>2021-08-01T08:56:15.000Z</Time>
            <Position>
              <LatitudeDegrees>42.05637007020413875579833984375</LatitudeDegrees>
              <LongitudeDegrees>-2.30987791903316974639892578125</LongitudeDegrees>
            </Position>
            <AltitudeMeters>1161.5999755859375</AltitudeMeters>
            <DistanceMeters>357028.33658386</DistanceMeters>
          </Trackpoint>
          <Trackpoint>
            <Time>2021-08-01T08:56:24.000Z</Time>
            <Position>
              <LatitudeDegrees>42.05624836497008800506591796875</LatitudeDegrees>
              <LongitudeDegrees>-2.309693433344364166259765625</LongitudeDegrees>
            </Position>
            <AltitudeMeters>1162.5999755859375</AltitudeMeters>
            <DistanceMeters>357048.73127388</DistanceMeters>
          </Trackpoint>
          <Trackpoint>
            <Time>2021-08-01T08:56:35.000Z</Time>
            <Position>
              <LatitudeDegrees>42.056091539561748504638671875</LatitudeDegrees>
              <LongitudeDegrees>-2.309468127787113189697265625</LongitudeDegrees>
            </Position>
            <AltitudeMeters>1163.5999755859375</AltitudeMeters>
            <DistanceMeters>357074.25297982</DistanceMeters>
          </Trackpoint>
          <Trackpoint>
            <Time>2021-08-01T08:56:42.000Z</Time>
            <Position>
              <LatitudeDegrees>42.0559954829514026641845703125</LatitudeDegrees>
              <LongitudeDegrees>-2.3093147389590740203857421875</LongitudeDegrees>
            </Position>
            <AltitudeMeters>1164.5999755859375</AltitudeMeters>
            <DistanceMeters>357090.83561796</DistanceMeters>
          </Trackpoint>
          <Trackpoint>
            <Time>2021-08-01T08:56:50.000Z</Time>
            <Position>
              <LatitudeDegrees>42.05588065087795257568359375</LatitudeDegrees>
              <LongitudeDegrees>-2.30913930572569370269775390625</LongitudeDegrees>
            </Position>
            <AltitudeMeters>1165.5999755859375</AltitudeMeters>
            <DistanceMeters>357110.16322005</DistanceMeters>
          </Trackpoint>
          <Trackpoint>
            <Time>2021-08-01T08:57:12.000Z</Time>
            <Position>
              <LatitudeDegrees>42.05563078634440898895263671875</LatitudeDegrees>
              <LongitudeDegrees>-2.308467328548431396484375</LongitudeDegrees>
            </Position>
            <AltitudeMeters>1166</AltitudeMeters>
            <DistanceMeters>357172.27050259</DistanceMeters>
          </Trackpoint>
          <Trackpoint>
            <Time>2021-08-01T08:57:19.000Z</Time>
            <Position>
              <LatitudeDegrees>42.05556624568998813629150390625</LatitudeDegrees>
              <LongitudeDegrees>-2.3082452081143856048583984375</LongitudeDegrees>
            </Position>
            <AltitudeMeters>1166.5999755859375</AltitudeMeters>
            <DistanceMeters>357191.98230512</DistanceMeters>
          </Trackpoint>
          <Trackpoint>
            <Time>2021-08-01T08:57:37.000Z</Time>
            <Position>
              <LatitudeDegrees>42.05538955517113208770751953125</LatitudeDegrees>
              <LongitudeDegrees>-2.30769217014312744140625</LongitudeDegrees>
            </Position>
            <AltitudeMeters>1167.5999755859375</AltitudeMeters>
            <DistanceMeters>357241.73757044</DistanceMeters>
          </Trackpoint>
          <Trackpoint>
            <Time>2021-08-01T08:57:46.000Z</Time>
            <Position>
              <LatitudeDegrees>42.05531009472906589508056640625</LatitudeDegrees>
              <LongitudeDegrees>-2.30743275023996829986572265625</LongitudeDegrees>
            </Position>
            <AltitudeMeters>1168.5999755859375</AltitudeMeters>
            <DistanceMeters>357264.92876172</DistanceMeters>
          </Trackpoint>
          <Trackpoint>
            <Time>2021-08-01T08:57:53.000Z</Time>
            <Position>
              <LatitudeDegrees>42.05525041557848453521728515625</LatitudeDegrees>
              <LongitudeDegrees>-2.3072336800396442413330078125</LongitudeDegrees>
            </Position>
            <AltitudeMeters>1169.4000244140625</AltitudeMeters>
            <DistanceMeters>357282.6700228</DistanceMeters>
          </Trackpoint>
          <Trackpoint>
            <Time>2021-08-01T08:58:01.000Z</Time>
            <Position>
              <LatitudeDegrees>42.05517732538282871246337890625</LatitudeDegrees>
              <LongitudeDegrees>-2.30700158514082431793212890625</LongitudeDegrees>
            </Position>
            <AltitudeMeters>1170.5999755859375</AltitudeMeters>
            <DistanceMeters>357303.50472473</DistanceMeters>
          </Trackpoint>
          <Trackpoint>
            <Time>2021-08-01T08:58:08.000Z</Time>
            <Position>
              <LatitudeDegrees>42.05511446110904216766357421875</LatitudeDegrees>
              <LongitudeDegrees>-2.3068031854927539825439453125</LongitudeDegrees>
            </Position>
            <AltitudeMeters>1171.800048828125</AltitudeMeters>
            <DistanceMeters>357321.33154386</DistanceMeters>
          </Trackpoint>
          <Trackpoint>
            <Time>2021-08-01T08:58:18.000Z</Time>
            <Position>
              <LatitudeDegrees>42.05502904951572418212890625</LatitudeDegrees>
              <LongitudeDegrees>-2.30652348138391971588134765625</LongitudeDegrees>
            </Position>
            <AltitudeMeters>1173</AltitudeMeters>
            <DistanceMeters>357346.32519562</DistanceMeters>
          </Trackpoint>
          <Trackpoint>
            <Time>2021-08-01T08:58:26.000Z</Time>
            <Position>
              <LatitudeDegrees>42.0549534447491168975830078125</LatitudeDegrees>
              <LongitudeDegrees>-2.3062865249812602996826171875</LongitudeDegrees>
            </Position>
            <AltitudeMeters>1174</AltitudeMeters>
            <DistanceMeters>357367.63916019</DistanceMeters>
          </Trackpoint>
          <Trackpoint>
            <Time>2021-08-01T08:58:34.000Z</Time>
            <Position>
              <LatitudeDegrees>42.054881192743778228759765625</LatitudeDegrees>
              <LongitudeDegrees>-2.30604219250380992889404296875</LongitudeDegrees>
            </Position>
            <AltitudeMeters>1175.199951171875</AltitudeMeters>
            <DistanceMeters>357389.37370388</DistanceMeters>
          </Trackpoint>
          <Trackpoint>
            <Time>2021-08-01T08:58:42.000Z</Time>
            <Position>
              <LatitudeDegrees>42.05480617471039295196533203125</LatitudeDegrees>
              <LongitudeDegrees>-2.30581034906208515167236328125</LongitudeDegrees>
            </Position>
            <AltitudeMeters>1176.199951171875</AltitudeMeters>
            <DistanceMeters>357410.27396507</DistanceMeters>
          </Trackpoint>
          <Trackpoint>
            <Time>2021-08-01T08:58:51.000Z</Time>
            <Position>
              <LatitudeDegrees>42.05472595989704132080078125</LatitudeDegrees>
              <LongitudeDegrees>-2.305554114282131195068359375</LongitudeDegrees>
            </Position>
            <AltitudeMeters>1177</AltitudeMeters>
            <DistanceMeters>357433.25471768</DistanceMeters>
          </Trackpoint>
          <Trackpoint>
            <Time>2021-08-01T08:59:01.000Z</Time>
            <Position>
              <LatitudeDegrees>42.0546406321227550506591796875</LatitudeDegrees>
              <LongitudeDegrees>-2.30526887811720371246337890625</LongitudeDegrees>
            </Position>
            <AltitudeMeters>1178</AltitudeMeters>
            <DistanceMeters>357458.66863489</DistanceMeters>
          </Trackpoint>
          <Trackpoint>
            <Time>2021-08-01T08:59:09.000Z</Time>
            <Position>
              <LatitudeDegrees>42.05456779338419437408447265625</LatitudeDegrees>
              <LongitudeDegrees>-2.30503619648516178131103515625</LongitudeDegrees>
            </Position>
            <AltitudeMeters>1179</AltitudeMeters>
            <DistanceMeters>357479.53733218</DistanceMeters>
          </Trackpoint>
          <Trackpoint>
            <Time>2021-08-01T08:59:19.000Z</Time>
            <Position>
              <LatitudeDegrees>42.05447383224964141845703125</LatitudeDegrees>
              <LongitudeDegrees>-2.3047449253499507904052734375</LongitudeDegrees>
            </Position>
            <AltitudeMeters>1180.199951171875</AltitudeMeters>
            <DistanceMeters>357505.78260282</DistanceMeters>
          </Trackpoint>
          <Trackpoint>
            <Time>2021-08-01T08:59:27.000Z</Time>
            <Position>
              <LatitudeDegrees>42.05440216697752475738525390625</LatitudeDegrees>
              <LongitudeDegrees>-2.30451107025146484375</LongitudeDegrees>
            </Position>
            <AltitudeMeters>1181</AltitudeMeters>
            <DistanceMeters>357526.69042362</DistanceMeters>
          </Trackpoint>
          <Trackpoint>
            <Time>2021-08-01T08:59:34.000Z</Time>
            <Position>
              <LatitudeDegrees>42.054340727627277374267578125</LatitudeDegrees>
              <LongitudeDegrees>-2.3043085634708404541015625</LongitudeDegrees>
            </Position>
            <AltitudeMeters>1182.199951171875</AltitudeMeters>
            <DistanceMeters>357544.76949016</DistanceMeters>
          </Trackpoint>
          <Trackpoint>
            <Time>2021-08-01T08:59:40.000Z</Time>
            <Position>
              <LatitudeDegrees>42.05428716726601123809814453125</LatitudeDegrees>
              <LongitudeDegrees>-2.304135896265506744384765625</LongitudeDegrees>
            </Position>
            <AltitudeMeters>1183.199951171875</AltitudeMeters>
            <DistanceMeters>357560.23463176</DistanceMeters>
          </Trackpoint>
          <Trackpoint>
            <Time>2021-08-01T08:59:47.000Z</Time>
            <Position>
              <LatitudeDegrees>42.054226398468017578125</LatitudeDegrees>
              <LongitudeDegrees>-2.30393640697002410888671875</LongitudeDegrees>
            </Position>
            <AltitudeMeters>1184.199951171875</AltitudeMeters>
            <DistanceMeters>357578.05461123</DistanceMeters>
          </Trackpoint>
          <Trackpoint>
            <Time>2021-08-01T08:59:54.000Z</Time>
            <Position>
              <LatitudeDegrees>42.05416227690875530242919921875</LatitudeDegrees>
              <LongitudeDegrees>-2.30373951606452465057373046875</LongitudeDegrees>
            </Position>
            <AltitudeMeters>1185.4000244140625</AltitudeMeters>
            <DistanceMeters>357595.82231993</DistanceMeters>
          </Trackpoint>
          <Trackpoint>
            <Time>2021-08-01T09:00:00.000Z</Time>
            <Position>
              <LatitudeDegrees>42.054112739861011505126953125</LatitudeDegrees>
              <LongitudeDegrees>-2.30356969870626926422119140625</LongitudeDegrees>
            </Position>
            <AltitudeMeters>1186.4000244140625</AltitudeMeters>
            <DistanceMeters>357610.90075701</DistanceMeters>
          </Trackpoint>
          <Trackpoint>
            <Time>2021-08-01T09:00:07.000Z</Time>
            <Position>
              <LatitudeDegrees>42.05405582673847675323486328125</LatitudeDegrees>
              <LongitudeDegrees>-2.3033766634762287139892578125</LongitudeDegrees>
            </Position>
            <AltitudeMeters>1187.5999755859375</AltitudeMeters>
            <DistanceMeters>357628.06564367</DistanceMeters>
          </Trackpoint>
          <Trackpoint>
            <Time>2021-08-01T09:00:14.000Z</Time>
            <Position>
              <LatitudeDegrees>42.0539958961308002471923828125</LatitudeDegrees>
              <LongitudeDegrees>-2.30318832211196422576904296875</LongitudeDegrees>
            </Position>
            <AltitudeMeters>1188.5999755859375</AltitudeMeters>
            <DistanceMeters>357645.00014005</DistanceMeters>
          </Trackpoint>
          <Trackpoint>
            <Time>2021-08-01T09:00:22.000Z</Time>
            <Position>
              <LatitudeDegrees>42.05392934381961822509765625</LatitudeDegrees>
              <LongitudeDegrees>-2.302970476448535919189453125</LongitudeDegrees>
            </Position>
            <AltitudeMeters>1189.5999755859375</AltitudeMeters>
            <DistanceMeters>357664.46786484</DistanceMeters>
          </Trackpoint>
          <Trackpoint>
            <Time>2021-08-01T09:00:30.000Z</Time>
            <Position>
              <LatitudeDegrees>42.05386455170810222625732421875</LatitudeDegrees>
              <LongitudeDegrees>-2.3027496971189975738525390625</LongitudeDegrees>
            </Position>
            <AltitudeMeters>1190.800048828125</AltitudeMeters>
            <DistanceMeters>357684.08714206</DistanceMeters>
          </Trackpoint>
          <Trackpoint>
            <Time>2021-08-01T09:00:39.000Z</Time>
            <Position>
              <LatitudeDegrees>42.05378115177154541015625</LatitudeDegrees>
              <LongitudeDegrees>-2.3024948872625827789306640625</LongitudeDegrees>
            </Position>
            <AltitudeMeters>1191.800048828125</AltitudeMeters>
            <DistanceMeters>357707.10087803</DistanceMeters>
          </Trackpoint>
          <Trackpoint>
            <Time>2021-08-01T09:00:46.000Z</Time>
            <Position>
              <LatitudeDegrees>42.05371904186904430389404296875</LatitudeDegrees>
              <LongitudeDegrees>-2.3022927157580852508544921875</LongitudeDegrees>
            </Position>
            <AltitudeMeters>1192.800048828125</AltitudeMeters>
            <DistanceMeters>357725.18294119</DistanceMeters>
          </Trackpoint>
          <Trackpoint>
            <Time>2021-08-01T09:00:54.000Z</Time>
            <Position>
              <LatitudeDegrees>42.053646706044673919677734375</LatitudeDegrees>
              <LongitudeDegrees>-2.3020643927156925201416015625</LongitudeDegrees>
            </Position>
            <AltitudeMeters>1193.800048828125</AltitudeMeters>
            <DistanceMeters>357745.69837033</DistanceMeters>
          </Trackpoint>
          <Trackpoint>
            <Time>2021-08-01T09:01:01.000Z</Time>
            <Position>
              <LatitudeDegrees>42.05358023755252361297607421875</LatitudeDegrees>
              <LongitudeDegrees>-2.30186314322054386138916015625</LongitudeDegrees>
            </Position>
            <AltitudeMeters>1194.800048828125</AltitudeMeters>
            <DistanceMeters>357763.9016298</DistanceMeters>
          </Trackpoint>
          <Trackpoint>
            <Time>2021-08-01T09:01:11.000Z</Time>
            <Position>
              <LatitudeDegrees>42.05349071882665157318115234375</LatitudeDegrees>
              <LongitudeDegrees>-2.30157229118049144744873046875</LongitudeDegrees>
            </Position>
            <AltitudeMeters>1195.800048828125</AltitudeMeters>
            <DistanceMeters>357789.92195015</DistanceMeters>
          </Trackpoint>
          <Trackpoint>
            <Time>2021-08-01T09:01:18.000Z</Time>
            <Position>
              <LatitudeDegrees>42.05343221314251422882080078125</LatitudeDegrees>
              <LongitudeDegrees>-2.3013720475137233734130859375</LongitudeDegrees>
            </Position>
            <AltitudeMeters>1197</AltitudeMeters>
            <DistanceMeters>357807.70591477</DistanceMeters>
          </Trackpoint>
          <Trackpoint>
            <Time>2021-08-01T09:01:27.000Z</Time>
            <Position>
              <LatitudeDegrees>42.053362391889095306396484375</LatitudeDegrees>
              <LongitudeDegrees>-2.30112276971340179443359375</LongitudeDegrees>
            </Position>
            <AltitudeMeters>1197.800048828125</AltitudeMeters>
            <DistanceMeters>357829.72424223</DistanceMeters>
          </Trackpoint>
          <Trackpoint>
            <Time>2021-08-01T09:01:35.000Z</Time>
            <Position>
              <LatitudeDegrees>42.05331050790846347808837890625</LatitudeDegrees>
              <LongitudeDegrees>-2.3008808679878711700439453125</LongitudeDegrees>
            </Position>
            <AltitudeMeters>1198.800048828125</AltitudeMeters>
            <DistanceMeters>357850.53335695</DistanceMeters>
          </Trackpoint>
          <Trackpoint>
            <Time>2021-08-01T09:01:45.000Z</Time>
            <Position>
              <LatitudeDegrees>42.05326876603066921234130859375</LatitudeDegrees>
              <LongitudeDegrees>-2.30056696571409702301025390625</LongitudeDegrees>
            </Position>
            <AltitudeMeters>1199.800048828125</AltitudeMeters>
            <DistanceMeters>357876.88832707</DistanceMeters>
          </Trackpoint>
          <Trackpoint>
            <Time>2021-08-01T09:01:54.000Z</Time>
            <Position>
              <LatitudeDegrees>42.05323993228375911712646484375</LatitudeDegrees>
              <LongitudeDegrees>-2.30028055608272552490234375</LongitudeDegrees>
            </Position>
            <AltitudeMeters>1200.800048828125</AltitudeMeters>
            <DistanceMeters>357900.77502652</DistanceMeters>
          </Trackpoint>
          <Trackpoint>
            <Time>2021-08-01T09:02:01.000Z</Time>
            <Position>
              <LatitudeDegrees>42.05320439301431179046630859375</LatitudeDegrees>
              <LongitudeDegrees>-2.30005332268774509429931640625</LongitudeDegrees>
            </Position>
            <AltitudeMeters>1201.800048828125</AltitudeMeters>
            <DistanceMeters>357919.96665901</DistanceMeters>
          </Trackpoint>
          <Trackpoint>
            <Time>2021-08-01T09:02:12.000Z</Time>
            <Position>
              <LatitudeDegrees>42.053169943392276763916015625</LatitudeDegrees>
              <LongitudeDegrees>-2.2996976785361766815185546875</LongitudeDegrees>
            </Position>
            <AltitudeMeters>1202.800048828125</AltitudeMeters>
            <DistanceMeters>357949.60768325</DistanceMeters>
          </Trackpoint>
          <Trackpoint>
            <Time>2021-08-01T09:02:23.000Z</Time>
            <Position>
              <LatitudeDegrees>42.05312845297157764434814453125</LatitudeDegrees>
              <LongitudeDegrees>-2.2993464767932891845703125</LongitudeDegrees>
            </Position>
            <AltitudeMeters>1203.800048828125</AltitudeMeters>
            <DistanceMeters>357978.99752728</DistanceMeters>
          </Trackpoint>
          <Trackpoint>
            <Time>2021-08-01T09:02:33.000Z</Time>
            <Position>
              <LatitudeDegrees>42.05309450626373291015625</LatitudeDegrees>
              <LongitudeDegrees>-2.2990378551185131072998046875</LongitudeDegrees>
            </Position>
            <AltitudeMeters>1204.800048828125</AltitudeMeters>
            <DistanceMeters>358004.78148136</DistanceMeters>
          </Trackpoint>
          <Trackpoint>
            <Time>2021-08-01T09:02:42.000Z</Time>
            <Position>
              <LatitudeDegrees>42.05306441523134708404541015625</LatitudeDegrees>
              <LongitudeDegrees>-2.29875396005809307098388671875</LongitudeDegrees>
            </Position>
            <AltitudeMeters>1205.800048828125</AltitudeMeters>
            <DistanceMeters>358028.48183737</DistanceMeters>
          </Trackpoint>
          <Trackpoint>
            <Time>2021-08-01T09:02:48.000Z</Time>
            <Position>
              <LatitudeDegrees>42.05304429866373538970947265625</LatitudeDegrees>
              <LongitudeDegrees>-2.2985745035111904144287109375</LongitudeDegrees>
            </Position>
            <AltitudeMeters>1206.800048828125</AltitudeMeters>
            <DistanceMeters>358043.48131585</DistanceMeters>
          </Trackpoint>
          <Trackpoint>
            <Time>2021-08-01T09:02:55.000Z</Time>
            <Position>
              <LatitudeDegrees>42.05302200280129909515380859375</LatitudeDegrees>
              <LongitudeDegrees>-2.29837744496762752532958984375</LongitudeDegrees>
            </Position>
            <AltitudeMeters>1208</AltitudeMeters>
            <DistanceMeters>358059.95523213</DistanceMeters>
          </Trackpoint>
          <Trackpoint>
            <Time>2021-08-01T09:03:01.000Z</Time>
            <Position>
              <LatitudeDegrees>42.0530044846236705780029296875</LatitudeDegrees>
              <LongitudeDegrees>-2.2982030175626277923583984375</LongitudeDegrees>
            </Position>
            <AltitudeMeters>1209</AltitudeMeters>
            <DistanceMeters>358074.50208097</DistanceMeters>
          </Trackpoint>
          <Trackpoint>
            <Time>2021-08-01T09:03:07.000Z</Time>
            <Position>
              <LatitudeDegrees>42.05298612825572490692138671875</LatitudeDegrees>
              <LongitudeDegrees>-2.2980236448347568511962890625</LongitudeDegrees>
            </Position>
            <AltitudeMeters>1209.800048828125</AltitudeMeters>
            <DistanceMeters>358089.46629948</DistanceMeters>
          </Trackpoint>
          <Trackpoint>
            <Time>2021-08-01T09:03:14.000Z</Time>
            <Position>
              <LatitudeDegrees>42.05296098254621028900146484375</LatitudeDegrees>
              <LongitudeDegrees>-2.29781837202608585357666015625</LongitudeDegrees>
            </Position>
            <AltitudeMeters>1210.800048828125</AltitudeMeters>
            <DistanceMeters>358106.6606213</DistanceMeters>
          </Trackpoint>
          <Trackpoint>
            <Time>2021-08-01T09:03:19.000Z</Time>
            <Position>
              <LatitudeDegrees>42.05294270999729633331298828125</LatitudeDegrees>
              <LongitudeDegrees>-2.29766582138836383819580078125</LongitudeDegrees>
            </Position>
            <AltitudeMeters>1212</AltitudeMeters>
            <DistanceMeters>358119.43102382</DistanceMeters>
          </Trackpoint>
          <Trackpoint>
            <Time>2021-08-01T09:03:26.000Z</Time>
            <Position>
              <LatitudeDegrees>42.052919827401638031005859375</LatitudeDegrees>
              <LongitudeDegrees>-2.2974769771099090576171875</LongitudeDegrees>
            </Position>
            <AltitudeMeters>1213</AltitudeMeters>
            <DistanceMeters>358135.2443371</DistanceMeters>
          </Trackpoint>
          <Trackpoint>
            <Time>2021-08-01T09:03:32.000Z</Time>
            <Position>
              <LatitudeDegrees>42.05289962701499462127685546875</LatitudeDegrees>
              <LongitudeDegrees>-2.29732342064380645751953125</LongitudeDegrees>
            </Position>
            <AltitudeMeters>1214.199951171875</AltitudeMeters>
            <DistanceMeters>358148.1326363</DistanceMeters>
          </Trackpoint>
          <Trackpoint>
            <Time>2021-08-01T09:03:39.000Z</Time>
            <Position>
              <LatitudeDegrees>42.0528777502477169036865234375</LatitudeDegrees>
              <LongitudeDegrees>-2.29714195244014263153076171875</LongitudeDegrees>
            </Position>
            <AltitudeMeters>1215.199951171875</AltitudeMeters>
            <DistanceMeters>358163.32681066</DistanceMeters>
          </Trackpoint>
          <Trackpoint>
            <Time>2021-08-01T09:03:47.000Z</Time>
            <Position>
              <LatitudeDegrees>42.05285352654755115509033203125</LatitudeDegrees>
              <LongitudeDegrees>-2.2969383560121059417724609375</LongitudeDegrees>
            </Position>
            <AltitudeMeters>1216.4000244140625</AltitudeMeters>
            <DistanceMeters>358180.36762045</DistanceMeters>
          </Trackpoint>
          <Trackpoint>
            <Time>2021-08-01T09:03:53.000Z</Time>
            <Position>
              <LatitudeDegrees>42.0528385229408740997314453125</LatitudeDegrees>
              <LongitudeDegrees>-2.29678169824182987213134765625</LongitudeDegrees>
            </Position>
            <AltitudeMeters>1217.199951171875</AltitudeMeters>
            <DistanceMeters>358193.42195316</DistanceMeters>
          </Trackpoint>
          <Trackpoint>
            <Time>2021-08-01T09:04:01.000Z</Time>
            <Position>
              <LatitudeDegrees>42.052810192108154296875</LatitudeDegrees>
              <LongitudeDegrees>-2.296578772366046905517578125</LongitudeDegrees>
            </Position>
            <AltitudeMeters>1218.4000244140625</AltitudeMeters>
            <DistanceMeters>358210.48685677</DistanceMeters>
          </Trackpoint>
          <Trackpoint>
            <Time>2021-08-01T09:04:07.000Z</Time>
            <Position>
              <LatitudeDegrees>42.05279334448277950286865234375</LatitudeDegrees>
              <LongitudeDegrees>-2.296431921422481536865234375</LongitudeDegrees>
            </Position>
            <AltitudeMeters>1219.4000244140625</AltitudeMeters>
            <DistanceMeters>358222.76774993</DistanceMeters>
          </Trackpoint>
          <Trackpoint>
            <Time>2021-08-01T09:04:15.000Z</Time>
            <Position>
              <LatitudeDegrees>42.052767612040042877197265625</LatitudeDegrees>
              <LongitudeDegrees>-2.29623469524085521697998046875</LongitudeDegrees>
            </Position>
            <AltitudeMeters>1220.5999755859375</AltitudeMeters>
            <DistanceMeters>358239.31713719</DistanceMeters>
          </Trackpoint>
          <Trackpoint>
            <Time>2021-08-01T09:04:22.000Z</Time>
            <Position>
              <LatitudeDegrees>42.05274305306375026702880859375</LatitudeDegrees>
              <LongitudeDegrees>-2.29606051929295063018798828125</LongitudeDegrees>
            </Position>
            <AltitudeMeters>1221.800048828125</AltitudeMeters>
            <DistanceMeters>358253.96913491</DistanceMeters>
          </Trackpoint>
          <Trackpoint>
            <Time>2021-08-01T09:04:29.000Z</Time>
            <Position>
              <LatitudeDegrees>42.0527205057442188262939453125</LatitudeDegrees>
              <LongitudeDegrees>-2.29587863199412822723388671875</LongitudeDegrees>
            </Position>
            <AltitudeMeters>1222.5999755859375</AltitudeMeters>
            <DistanceMeters>358269.20959509</DistanceMeters>
          </Trackpoint>
          <Trackpoint>
            <Time>2021-08-01T09:04:37.000Z</Time>
            <Position>
              <LatitudeDegrees>42.05270759761333465576171875</LatitudeDegrees>
              <LongitudeDegrees>-2.295673526823520660400390625</LongitudeDegrees>
            </Position>
            <AltitudeMeters>1223.5999755859375</AltitudeMeters>
            <DistanceMeters>358286.22123492</DistanceMeters>
          </Trackpoint>
          <Trackpoint>
            <Time>2021-08-01T09:04:43.000Z</Time>
            <Position>
              <LatitudeDegrees>42.05268790014088153839111328125</LatitudeDegrees>
              <LongitudeDegrees>-2.2955288551747798919677734375</LongitudeDegrees>
            </Position>
            <AltitudeMeters>1224.800048828125</AltitudeMeters>
            <DistanceMeters>358298.3768567</DistanceMeters>
          </Trackpoint>
          <Trackpoint>
            <Time>2021-08-01T09:04:51.000Z</Time>
            <Position>
              <LatitudeDegrees>42.0526658557355403900146484375</LatitudeDegrees>
              <LongitudeDegrees>-2.2953360714018344879150390625</LongitudeDegrees>
            </Position>
            <AltitudeMeters>1226</AltitudeMeters>
            <DistanceMeters>358314.49754434</DistanceMeters>
          </Trackpoint>
          <Trackpoint>
            <Time>2021-08-01T09:04:59.000Z</Time>
            <Position>
              <LatitudeDegrees>42.05263945274055004119873046875</LatitudeDegrees>
              <LongitudeDegrees>-2.295143119990825653076171875</LongitudeDegrees>
            </Position>
            <AltitudeMeters>1227</AltitudeMeters>
            <DistanceMeters>358330.71234331</DistanceMeters>
          </Trackpoint>
          <Trackpoint>
            <Time>2021-08-01T09:05:06.000Z</Time>
            <Position>
              <LatitudeDegrees>42.05261430703103542327880859375</LatitudeDegrees>
              <LongitudeDegrees>-2.294971458613872528076171875</LongitudeDegrees>
            </Position>
            <AltitudeMeters>1228.199951171875</AltitudeMeters>
            <DistanceMeters>358345.17296157</DistanceMeters>
          </Trackpoint>
          <Trackpoint>
            <Time>2021-08-01T09:05:11.000Z</Time>
            <Position>
              <LatitudeDegrees>42.052598297595977783203125</LatitudeDegrees>
              <LongitudeDegrees>-2.29484112001955509185791015625</LongitudeDegrees>
            </Position>
            <AltitudeMeters>1229.199951171875</AltitudeMeters>
            <DistanceMeters>358356.09111338</DistanceMeters>
          </Trackpoint>
          <Trackpoint>
            <Time>2021-08-01T09:05:19.000Z</Time>
            <Position>
              <LatitudeDegrees>42.052573822438716888427734375</LatitudeDegrees>
              <LongitudeDegrees>-2.29463978670537471771240234375</LongitudeDegrees>
            </Position>
            <AltitudeMeters>1230.199951171875</AltitudeMeters>
            <DistanceMeters>358372.95159489</DistanceMeters>
          </Trackpoint>
          <Trackpoint>
            <Time>2021-08-01T09:05:26.000Z</Time>
            <Position>
              <LatitudeDegrees>42.052550353109836578369140625</LatitudeDegrees>
              <LongitudeDegrees>-2.29445991106331348419189453125</LongitudeDegrees>
            </Position>
            <AltitudeMeters>1231.199951171875</AltitudeMeters>
            <DistanceMeters>358388.04499638</DistanceMeters>
          </Trackpoint>
          <Trackpoint>
            <Time>2021-08-01T09:05:34.000Z</Time>
            <Position>
              <LatitudeDegrees>42.05250970087945461273193359375</LatitudeDegrees>
              <LongitudeDegrees>-2.2942581586539745330810546875</LongitudeDegrees>
            </Position>
            <AltitudeMeters>1232.4000244140625</AltitudeMeters>
            <DistanceMeters>358405.32209703</DistanceMeters>
          </Trackpoint>
          <Trackpoint>
            <Time>2021-08-01T09:05:40.000Z</Time>
            <Position>
              <LatitudeDegrees>42.05245169810950756072998046875</LatitudeDegrees>
              <LongitudeDegrees>-2.29411549866199493408203125</LongitudeDegrees>
            </Position>
            <AltitudeMeters>1233.199951171875</AltitudeMeters>
            <DistanceMeters>358418.76426314</DistanceMeters>
          </Trackpoint>
          <Trackpoint>
            <Time>2021-08-01T09:05:47.000Z</Time>
            <Position>
              <LatitudeDegrees>42.05236150883138179779052734375</LatitudeDegrees>
              <LongitudeDegrees>-2.29397426359355449676513671875</LongitudeDegrees>
            </Position>
            <AltitudeMeters>1234.199951171875</AltitudeMeters>
            <DistanceMeters>358434.15947072</DistanceMeters>
          </Trackpoint>
          <Trackpoint>
            <Time>2021-08-01T09:05:54.000Z</Time>
            <Position>
              <LatitudeDegrees>42.0522571541368961334228515625</LatitudeDegrees>
              <LongitudeDegrees>-2.29383118450641632080078125</LongitudeDegrees>
            </Position>
            <AltitudeMeters>1235.199951171875</AltitudeMeters>
            <DistanceMeters>358450.73448341</DistanceMeters>
          </Trackpoint>
          <Trackpoint>
            <Time>2021-08-01T09:06:00.000Z</Time>
            <Position>
              <LatitudeDegrees>42.05217140726745128631591796875</LatitudeDegrees>
              <LongitudeDegrees>-2.29371056891977787017822265625</LongitudeDegrees>
            </Position>
            <AltitudeMeters>1236.4000244140625</AltitudeMeters>
            <DistanceMeters>358464.53496682</DistanceMeters>
          </Trackpoint>
          <Trackpoint>
            <Time>2021-08-01T09:06:09.000Z</Time>
            <Position>
              <LatitudeDegrees>42.05203830264508724212646484375</LatitudeDegrees>
              <LongitudeDegrees>-2.293523736298084259033203125</LongitudeDegrees>
            </Position>
            <AltitudeMeters>1237.4000244140625</AltitudeMeters>
            <DistanceMeters>358485.93349752</DistanceMeters>
          </Trackpoint>
          <Trackpoint>
            <Time>2021-08-01T09:06:17.000Z</Time>
            <Position>
              <LatitudeDegrees>42.051922716200351715087890625</LatitudeDegrees>
              <LongitudeDegrees>-2.2933616302907466888427734375</LongitudeDegrees>
            </Position>
            <AltitudeMeters>1238.5999755859375</AltitudeMeters>
            <DistanceMeters>358504.50751352</DistanceMeters>
          </Trackpoint>
          <Trackpoint>
            <Time>2021-08-01T09:06:25.000Z</Time>
            <Position>
              <LatitudeDegrees>42.05181132070720195770263671875</LatitudeDegrees>
              <LongitudeDegrees>-2.2931943275034427642822265625</LongitudeDegrees>
            </Position>
            <AltitudeMeters>1239.4000244140625</AltitudeMeters>
            <DistanceMeters>358523.07909853</DistanceMeters>
          </Trackpoint>
          <Trackpoint>
            <Time>2021-08-01T09:06:33.000Z</Time>
            <Position>
              <LatitudeDegrees>42.0516948960721492767333984375</LatitudeDegrees>
              <LongitudeDegrees>-2.2930297069251537322998046875</LongitudeDegrees>
            </Position>
            <AltitudeMeters>1240.4000244140625</AltitudeMeters>
            <DistanceMeters>358541.86821343</DistanceMeters>
          </Trackpoint>
          <Trackpoint>
            <Time>2021-08-01T09:06:41.000Z</Time>
            <Position>
              <LatitudeDegrees>42.0515857636928558349609375</LatitudeDegrees>
              <LongitudeDegrees>-2.2928647510707378387451171875</LongitudeDegrees>
            </Position>
            <AltitudeMeters>1241.5999755859375</AltitudeMeters>
            <DistanceMeters>358560.12768994</DistanceMeters>
          </Trackpoint>
          <Trackpoint>
            <Time>2021-08-01T09:06:47.000Z</Time>
            <Position>
              <LatitudeDegrees>42.05149934627115726470947265625</LatitudeDegrees>
              <LongitudeDegrees>-2.29274363256990909576416015625</LongitudeDegrees>
            </Position>
            <AltitudeMeters>1242.5999755859375</AltitudeMeters>
            <DistanceMeters>358574.0097237</DistanceMeters>
          </Trackpoint>
          <Trackpoint>
            <Time>2021-08-01T09:06:55.000Z</Time>
            <Position>
              <LatitudeDegrees>42.051384262740612030029296875</LatitudeDegrees>
              <LongitudeDegrees>-2.2925790958106517791748046875</LongitudeDegrees>
            </Position>
            <AltitudeMeters>1243.800048828125</AltitudeMeters>
            <DistanceMeters>358592.69111537</DistanceMeters>
          </Trackpoint>
          <Trackpoint>
            <Time>2021-08-01T09:07:04.000Z</Time>
            <Position>
              <LatitudeDegrees>42.05125593580305576324462890625</LatitudeDegrees>
              <LongitudeDegrees>-2.292399890720844268798828125</LongitudeDegrees>
            </Position>
            <AltitudeMeters>1244.800048828125</AltitudeMeters>
            <DistanceMeters>358613.26697754</DistanceMeters>
          </Trackpoint>
          <Trackpoint>
            <Time>2021-08-01T09:07:12.000Z</Time>
            <Position>
              <LatitudeDegrees>42.05114244483411312103271484375</LatitudeDegrees>
              <LongitudeDegrees>-2.29223786853253841400146484375</LongitudeDegrees>
            </Position>
            <AltitudeMeters>1245.800048828125</AltitudeMeters>
            <DistanceMeters>358631.67544512</DistanceMeters>
          </Trackpoint>
          <Trackpoint>
            <Time>2021-08-01T09:07:19.000Z</Time>
            <Position>
              <LatitudeDegrees>42.05104487948119640350341796875</LatitudeDegrees>
              <LongitudeDegrees>-2.29209839366376399993896484375</LongitudeDegrees>
            </Position>
            <AltitudeMeters>1247</AltitudeMeters>
            <DistanceMeters>358647.51215384</DistanceMeters>
          </Trackpoint>
          <Trackpoint>
            <Time>2021-08-01T09:07:26.000Z</Time>
            <Position>
              <LatitudeDegrees>42.050952427089214324951171875</LatitudeDegrees>
              <LongitudeDegrees>-2.29195707477629184722900390625</LongitudeDegrees>
            </Position>
            <AltitudeMeters>1248</AltitudeMeters>
            <DistanceMeters>358663.07827221</DistanceMeters>
          </Trackpoint>
          <Trackpoint>
            <Time>2021-08-01T09:07:35.000Z</Time>
            <Position>
              <LatitudeDegrees>42.05082912929356098175048828125</LatitudeDegrees>
              <LongitudeDegrees>-2.29178063571453094482421875</LongitudeDegrees>
            </Position>
            <AltitudeMeters>1249.199951171875</AltitudeMeters>
            <DistanceMeters>358683.10254534</DistanceMeters>
          </Trackpoint>
          <Trackpoint>
            <Time>2021-08-01T09:07:44.000Z</Time>
            <Position>
              <LatitudeDegrees>42.05069862306118011474609375</LatitudeDegrees>
              <LongitudeDegrees>-2.2916091419756412506103515625</LongitudeDegrees>
            </Position>
            <AltitudeMeters>1250.4000244140625</AltitudeMeters>
            <DistanceMeters>358703.3973685</DistanceMeters>
          </Trackpoint>
          <Trackpoint>
            <Time>2021-08-01T09:07:51.000Z</Time>
            <Position>
              <LatitudeDegrees>42.0505975373089313507080078125</LatitudeDegrees>
              <LongitudeDegrees>-2.29147176258265972137451171875</LongitudeDegrees>
            </Position>
            <AltitudeMeters>1251.4000244140625</AltitudeMeters>
            <DistanceMeters>358719.38164148</DistanceMeters>
          </Trackpoint>
          <Trackpoint>
            <Time>2021-08-01T09:08:00.000Z</Time>
            <Position>
              <LatitudeDegrees>42.050469629466533660888671875</LatitudeDegrees>
              <LongitudeDegrees>-2.29128979146480560302734375</LongitudeDegrees>
            </Position>
            <AltitudeMeters>1252.199951171875</AltitudeMeters>
            <DistanceMeters>358740.0904896</DistanceMeters>
          </Trackpoint>
          <Trackpoint>
            <Time>2021-08-01T09:08:07.000Z</Time>
            <Position>
              <LatitudeDegrees>42.0503680408000946044921875</LatitudeDegrees>
              <LongitudeDegrees>-2.29114151559770107269287109375</LongitudeDegrees>
            </Position>
            <AltitudeMeters>1253.199951171875</AltitudeMeters>
            <DistanceMeters>358756.76463197</DistanceMeters>
          </Trackpoint>
          <Trackpoint>
            <Time>2021-08-01T09:08:14.000Z</Time>
            <Position>
              <LatitudeDegrees>42.0502662844955921173095703125</LatitudeDegrees>
              <LongitudeDegrees>-2.290991730988025665283203125</LongitudeDegrees>
            </Position>
            <AltitudeMeters>1254.199951171875</AltitudeMeters>
            <DistanceMeters>358773.54323928</DistanceMeters>
          </Trackpoint>
          <Trackpoint>
            <Time>2021-08-01T09:08:24.000Z</Time>
            <Position>
              <LatitudeDegrees>42.0501214452087879180908203125</LatitudeDegrees>
              <LongitudeDegrees>-2.290784530341625213623046875</LongitudeDegrees>
            </Position>
            <AltitudeMeters>1255.4000244140625</AltitudeMeters>
            <DistanceMeters>358797.06211112</DistanceMeters>
          </Trackpoint>
          <Trackpoint>
            <Time>2021-08-01T09:08:32.000Z</Time>
            <Position>
              <LatitudeDegrees>42.05000284127891063690185546875</LatitudeDegrees>
              <LongitudeDegrees>-2.290611527860164642333984375</LongitudeDegrees>
            </Position>
            <AltitudeMeters>1256.199951171875</AltitudeMeters>
            <DistanceMeters>358816.52241291</DistanceMeters>
          </Trackpoint>
          <Trackpoint>
            <Time>2021-08-01T09:08:41.000Z</Time>
            <Position>
              <LatitudeDegrees>42.04989052377641201019287109375</LatitudeDegrees>
              <LongitudeDegrees>-2.29038613848388195037841796875</LongitudeDegrees>
            </Position>
            <AltitudeMeters>1257.4000244140625</AltitudeMeters>
            <DistanceMeters>358838.95636665</DistanceMeters>
          </Trackpoint>
          <Trackpoint>
            <Time>2021-08-01T09:08:49.000Z</Time>
            <Position>
              <LatitudeDegrees>42.0498213730752468109130859375</LatitudeDegrees>
              <LongitudeDegrees>-2.29015898890793323516845703125</LongitudeDegrees>
            </Position>
            <AltitudeMeters>1258.4000244140625</AltitudeMeters>
            <DistanceMeters>358859.24673987</DistanceMeters>
          </Trackpoint>
          <Trackpoint>
            <Time>2021-08-01T09:08:59.000Z</Time>
            <Position>
              <LatitudeDegrees>42.04974367283284664154052734375</LatitudeDegrees>
              <LongitudeDegrees>-2.28987132199108600616455078125</LongitudeDegrees>
            </Position>
            <AltitudeMeters>1259.4000244140625</AltitudeMeters>
            <DistanceMeters>358884.54598528</DistanceMeters>
          </Trackpoint>
          <Trackpoint>
            <Time>2021-08-01T09:09:07.000Z</Time>
            <Position>
              <LatitudeDegrees>42.04968131147325038909912109375</LatitudeDegrees>
              <LongitudeDegrees>-2.289633192121982574462890625</LongitudeDegrees>
            </Position>
            <AltitudeMeters>1260.5999755859375</AltitudeMeters>
            <DistanceMeters>358905.41533163</DistanceMeters>
          </Trackpoint>
          <Trackpoint>
            <Time>2021-08-01T09:09:15.000Z</Time>
            <Position>
              <LatitudeDegrees>42.04961358569562435150146484375</LatitudeDegrees>
              <LongitudeDegrees>-2.289392463862895965576171875</LongitudeDegrees>
            </Position>
            <AltitudeMeters>1261.5999755859375</AltitudeMeters>
            <DistanceMeters>358926.69134399</DistanceMeters>
          </Trackpoint>
          <Trackpoint>
            <Time>2021-08-01T09:09:25.000Z</Time>
            <Position>
              <LatitudeDegrees>42.0495464466512203216552734375</LatitudeDegrees>
              <LongitudeDegrees>-2.289093397557735443115234375</LongitudeDegrees>
            </Position>
            <AltitudeMeters>1262.4000244140625</AltitudeMeters>
            <DistanceMeters>358952.51379362</DistanceMeters>
          </Trackpoint>
          <Trackpoint>
            <Time>2021-08-01T09:09:31.000Z</Time>
            <Position>
              <LatitudeDegrees>42.04949590377509593963623046875</LatitudeDegrees>
              <LongitudeDegrees>-2.288920395076274871826171875</LongitudeDegrees>
            </Position>
            <AltitudeMeters>1263.5999755859375</AltitudeMeters>
            <DistanceMeters>358967.87935181</DistanceMeters>
          </Trackpoint>
          <Trackpoint>
            <Time>2021-08-01T09:09:38.000Z</Time>
            <Position>
              <LatitudeDegrees>42.049439661204814910888671875</LatitudeDegrees>
              <LongitudeDegrees>-2.28870606981217861175537109375</LongitudeDegrees>
            </Position>
            <AltitudeMeters>1264.5999755859375</AltitudeMeters>
            <DistanceMeters>358986.66654421</DistanceMeters>
          </Trackpoint>
          <Trackpoint>
            <Time>2021-08-01T09:10:00.000Z</Time>
            <Position>
              <LatitudeDegrees>42.04926473088562488555908203125</LatitudeDegrees>
              <LongitudeDegrees>-2.28801104240119457244873046875</LongitudeDegrees>
            </Position>
            <AltitudeMeters>1264.4000244140625</AltitudeMeters>
            <DistanceMeters>359047.32009433</DistanceMeters>
          </Trackpoint>
          <Trackpoint>
            <Time>2021-08-01T09:10:12.000Z</Time>
            <Position>
              <LatitudeDegrees>42.049037329852581024169921875</LatitudeDegrees>
              <LongitudeDegrees>-2.2875797934830188751220703125</LongitudeDegrees>
            </Position>
            <AltitudeMeters>1263.800048828125</AltitudeMeters>
            <DistanceMeters>359091.0350684</DistanceMeters>
          </Trackpoint>
          <Trackpoint>
            <Time>2021-08-01T09:10:14.000Z</Time>
            <Position>
              <LatitudeDegrees>42.0489748008549213409423828125</LatitudeDegrees>
              <LongitudeDegrees>-2.28748315013945102691650390625</LongitudeDegrees>
            </Position>
            <AltitudeMeters>1263.4000244140625</AltitudeMeters>
            <DistanceMeters>359101.62916204</DistanceMeters>
          </Trackpoint>
          <Trackpoint>
            <Time>2021-08-01T09:10:17.000Z</Time>
            <Position>
              <LatitudeDegrees>42.04886156134307384490966796875</LatitudeDegrees>
              <LongitudeDegrees>-2.28732137940824031829833984375</LongitudeDegrees>
            </Position>
            <AltitudeMeters>1262.199951171875</AltitudeMeters>
            <DistanceMeters>359120.00375124</DistanceMeters>
          </Trackpoint>
          <Trackpoint>
            <Time>2021-08-01T09:10:19.000Z</Time>
            <Position>
              <LatitudeDegrees>42.048773132264614105224609375</LatitudeDegrees>
              <LongitudeDegrees>-2.287200428545475006103515625</LongitudeDegrees>
            </Position>
            <AltitudeMeters>1261</AltitudeMeters>
            <DistanceMeters>359134.03234654</DistanceMeters>
          </Trackpoint>
          <Trackpoint>
            <Time>2021-08-01T09:10:21.000Z</Time>
            <Position>
              <LatitudeDegrees>42.0486780814826488494873046875</LatitudeDegrees>
              <LongitudeDegrees>-2.28705986402928829193115234375</LongitudeDegrees>
            </Position>
            <AltitudeMeters>1259.5999755859375</AltitudeMeters>
            <DistanceMeters>359149.74540958</DistanceMeters>
          </Trackpoint>
          <Trackpoint>
            <Time>2021-08-01T09:10:22.000Z</Time>
            <Position>
              <LatitudeDegrees>42.0486281253397464752197265625</LatitudeDegrees>
              <LongitudeDegrees>-2.28698325343430042266845703125</LongitudeDegrees>
            </Position>
            <AltitudeMeters>1258.5999755859375</AltitudeMeters>
            <DistanceMeters>359158.17176651</DistanceMeters>
          </Trackpoint>
          <Trackpoint>
            <Time>2021-08-01T09:10:24.000Z</Time>
            <Position>
              <LatitudeDegrees>42.0485241897404193878173828125</LatitudeDegrees>
              <LongitudeDegrees>-2.28681745938956737518310546875</LongitudeDegrees>
            </Position>
            <AltitudeMeters>1257.4000244140625</AltitudeMeters>
            <DistanceMeters>359176.10464448</DistanceMeters>
          </Trackpoint>
          <Trackpoint>
            <Time>2021-08-01T09:10:26.000Z</Time>
            <Position>
              <LatitudeDegrees>42.048413045704364776611328125</LatitudeDegrees>
              <LongitudeDegrees>-2.286639176309108734130859375</LongitudeDegrees>
            </Position>
            <AltitudeMeters>1254.800048828125</AltitudeMeters>
            <DistanceMeters>359195.34421032</DistanceMeters>
          </Trackpoint>
          <Trackpoint>
            <Time>2021-08-01T09:10:28.000Z</Time>
            <Position>
              <LatitudeDegrees>42.04829402267932891845703125</LatitudeDegrees>
              <LongitudeDegrees>-2.2864495776593685150146484375</LongitudeDegrees>
            </Position>
            <AltitudeMeters>1253.199951171875</AltitudeMeters>
            <DistanceMeters>359215.86404059</DistanceMeters>
          </Trackpoint>
          <Trackpoint>
            <Time>2021-08-01T09:10:30.000Z</Time>
            <Position>
              <LatitudeDegrees>42.0481691323220729827880859375</LatitudeDegrees>
              <LongitudeDegrees>-2.28624933399260044097900390625</LongitudeDegrees>
            </Position>
            <AltitudeMeters>1251.5999755859375</AltitudeMeters>
            <DistanceMeters>359237.47734401</DistanceMeters>
          </Trackpoint>
          <Trackpoint>
            <Time>2021-08-01T09:10:32.000Z</Time>
            <Position>
              <LatitudeDegrees>42.04803745262324810028076171875</LatitudeDegrees>
              <LongitudeDegrees>-2.286042384803295135498046875</LongitudeDegrees>
            </Position>
            <AltitudeMeters>1249.5999755859375</AltitudeMeters>
            <DistanceMeters>359260.00208319</DistanceMeters>
          </Trackpoint>
          <Trackpoint>
            <Time>2021-08-01T09:10:34.000Z</Time>
            <Position>
              <LatitudeDegrees>42.04790350981056690216064453125</LatitudeDegrees>
              <LongitudeDegrees>-2.28582336567342281341552734375</LongitudeDegrees>
            </Position>
            <AltitudeMeters>1248.199951171875</AltitudeMeters>
            <DistanceMeters>359283.45308989</DistanceMeters>
          </Trackpoint>
          <Trackpoint>
            <Time>2021-08-01T09:10:35.000Z</Time>
            <Position>
              <LatitudeDegrees>42.0478405617177486419677734375</LatitudeDegrees>
              <LongitudeDegrees>-2.28570534847676753997802734375</LongitudeDegrees>
            </Position>
            <AltitudeMeters>1247.5999755859375</AltitudeMeters>
            <DistanceMeters>359295.46297795</DistanceMeters>
          </Trackpoint>
          <Trackpoint>
            <Time>2021-08-01T09:10:36.000Z</Time>
            <Position>
              <LatitudeDegrees>42.0477882586419582366943359375</LatitudeDegrees>
              <LongitudeDegrees>-2.2855758480727672576904296875</LongitudeDegrees>
            </Position>
            <AltitudeMeters>1247.199951171875</AltitudeMeters>
            <DistanceMeters>359307.64716675</DistanceMeters>
          </Trackpoint>
          <Trackpoint>
            <Time>2021-08-01T09:10:38.000Z</Time>
            <Position>
              <LatitudeDegrees>42.0477394759654998779296875</LatitudeDegrees>
              <LongitudeDegrees>-2.28528390638530254364013671875</LongitudeDegrees>
            </Position>
            <AltitudeMeters>1245.199951171875</AltitudeMeters>
            <DistanceMeters>359332.37968337</DistanceMeters>
          </Trackpoint>
          <Trackpoint>
            <Time>2021-08-01T09:10:40.000Z</Time>
            <Position>
              <LatitudeDegrees>42.0477590896189212799072265625</LatitudeDegrees>
              <LongitudeDegrees>-2.28497612290084362030029296875</LongitudeDegrees>
            </Position>
            <AltitudeMeters>1243.800048828125</AltitudeMeters>
            <DistanceMeters>359357.91200168</DistanceMeters>
          </Trackpoint>
          <Trackpoint>
            <Time>2021-08-01T09:10:42.000Z</Time>
            <Position>
              <LatitudeDegrees>42.04782069660723209381103515625</LatitudeDegrees>
              <LongitudeDegrees>-2.28467420674860477447509765625</LongitudeDegrees>
            </Position>
            <AltitudeMeters>1242.800048828125</AltitudeMeters>
            <DistanceMeters>359383.79069155</DistanceMeters>
          </Trackpoint>
          <Trackpoint>
            <Time>2021-08-01T09:10:44.000Z</Time>
            <Position>
              <LatitudeDegrees>42.0478801243007183074951171875</LatitudeDegrees>
              <LongitudeDegrees>-2.28437237441539764404296875</LongitudeDegrees>
            </Position>
            <AltitudeMeters>1241.199951171875</AltitudeMeters>
            <DistanceMeters>359409.59932439</DistanceMeters>
          </Trackpoint>
          <Trackpoint>
            <Time>2021-08-01T09:10:46.000Z</Time>
            <Position>
              <LatitudeDegrees>42.04793284647166728973388671875</LatitudeDegrees>
              <LongitudeDegrees>-2.284070961177349090576171875</LongitudeDegrees>
            </Position>
            <AltitudeMeters>1239.5999755859375</AltitudeMeters>
            <DistanceMeters>359435.19346054</DistanceMeters>
          </Trackpoint>
          <Trackpoint>
            <Time>2021-08-01T09:10:48.000Z</Time>
            <Position>
              <LatitudeDegrees>42.04799235798418521881103515625</LatitudeDegrees>
              <LongitudeDegrees>-2.28377549909055233001708984375</LongitudeDegrees>
            </Position>
            <AltitudeMeters>1238</AltitudeMeters>
            <DistanceMeters>359460.496275</DistanceMeters>
          </Trackpoint>
          <Trackpoint>
            <Time>2021-08-01T09:10:50.000Z</Time>
            <Position>
              <LatitudeDegrees>42.04805673100054264068603515625</LatitudeDegrees>
              <LongitudeDegrees>-2.2834847308695316314697265625</LongitudeDegrees>
            </Position>
            <AltitudeMeters>1236.4000244140625</AltitudeMeters>
            <DistanceMeters>359485.57396716</DistanceMeters>
          </Trackpoint>
          <Trackpoint>
            <Time>2021-08-01T09:10:52.000Z</Time>
            <Position>
              <LatitudeDegrees>42.04812177456915378570556640625</LatitudeDegrees>
              <LongitudeDegrees>-2.28319488465785980224609375</LongitudeDegrees>
            </Position>
            <AltitudeMeters>1235.4000244140625</AltitudeMeters>
            <DistanceMeters>359510.5997535</DistanceMeters>
          </Trackpoint>
          <Trackpoint>
            <Time>2021-08-01T09:10:53.000Z</Time>
            <Position>
              <LatitudeDegrees>42.04814507625997066497802734375</LatitudeDegrees>
              <LongitudeDegrees>-2.2830492071807384490966796875</LongitudeDegrees>
            </Position>
            <AltitudeMeters>1234.5999755859375</AltitudeMeters>
            <DistanceMeters>359522.91625683</DistanceMeters>
          </Trackpoint>
          <Trackpoint>
            <Time>2021-08-01T09:10:54.000Z</Time>
            <Position>
              <LatitudeDegrees>42.0481463335454463958740234375</LatitudeDegrees>
              <LongitudeDegrees>-2.28290663100779056549072265625</LongitudeDegrees>
            </Position>
            <AltitudeMeters>1234.199951171875</AltitudeMeters>
            <DistanceMeters>359534.70148511</DistanceMeters>
          </Trackpoint>
          <Trackpoint>
            <Time>2021-08-01T09:10:59.000Z</Time>
            <Position>
              <LatitudeDegrees>42.047812230885028839111328125</LatitudeDegrees>
              <LongitudeDegrees>-2.282465659081935882568359375</LongitudeDegrees>
            </Position>
            <AltitudeMeters>1234.199951171875</AltitudeMeters>
            <DistanceMeters>359586.77057529</DistanceMeters>
          </Trackpoint>
          <Trackpoint>
            <Time>2021-08-01T09:11:05.000Z</Time>
            <Position>
              <LatitudeDegrees>42.04730973578989505767822265625</LatitudeDegrees>
              <LongitudeDegrees>-2.28207162581384181976318359375</LongitudeDegrees>
            </Position>
            <AltitudeMeters>1234.5999755859375</AltitudeMeters>
            <DistanceMeters>359651.49039558</DistanceMeters>
          </Trackpoint>
          <Trackpoint>
            <Time>2021-08-01T09:11:10.000Z</Time>
            <Position>
              <LatitudeDegrees>42.046882174909114837646484375</LatitudeDegrees>
              <LongitudeDegrees>-2.281719334423542022705078125</LongitudeDegrees>
            </Position>
            <AltitudeMeters>1232.800048828125</AltitudeMeters>
            <DistanceMeters>359707.28006083</DistanceMeters>
          </Trackpoint>
          <Trackpoint>
            <Time>2021-08-01T09:11:12.000Z</Time>
            <Position>
              <LatitudeDegrees>42.04670992679893970489501953125</LatitudeDegrees>
              <LongitudeDegrees>-2.28158078156411647796630859375</LongitudeDegrees>
            </Position>
            <AltitudeMeters>1231.5999755859375</AltitudeMeters>
            <DistanceMeters>359729.61133871</DistanceMeters>
          </Trackpoint>
          <Trackpoint>
            <Time>2021-08-01T09:11:17.000Z</Time>
            <Position>
              <LatitudeDegrees>42.04628169536590576171875</LatitudeDegrees>
              <LongitudeDegrees>-2.281222455203533172607421875</LongitudeDegrees>
            </Position>
            <AltitudeMeters>1230.5999755859375</AltitudeMeters>
            <DistanceMeters>359785.72652451</DistanceMeters>
          </Trackpoint>
          <Trackpoint>
            <Time>2021-08-01T09:11:20.000Z</Time>
            <Position>
              <LatitudeDegrees>42.04603702761232852935791015625</LatitudeDegrees>
              <LongitudeDegrees>-2.2809929586946964263916015625</LongitudeDegrees>
            </Position>
            <AltitudeMeters>1230</AltitudeMeters>
            <DistanceMeters>359818.91384775</DistanceMeters>
          </Trackpoint>
          <Trackpoint>
            <Time>2021-08-01T09:11:23.000Z</Time>
            <Position>
              <LatitudeDegrees>42.045854888856410980224609375</LatitudeDegrees>
              <LongitudeDegrees>-2.28068442083895206451416015625</LongitudeDegrees>
            </Position>
            <AltitudeMeters>1229.5999755859375</AltitudeMeters>
            <DistanceMeters>359851.49152238</DistanceMeters>
          </Trackpoint>
          <Trackpoint>
            <Time>2021-08-01T09:11:29.000Z</Time>
            <Position>
              <LatitudeDegrees>42.04556621611118316650390625</LatitudeDegrees>
              <LongitudeDegrees>-2.280060388147830963134765625</LongitudeDegrees>
            </Position>
            <AltitudeMeters>1229.4000244140625</AltitudeMeters>
            <DistanceMeters>359912.25915587</DistanceMeters>
          </Trackpoint>
          <Trackpoint>
            <Time>2021-08-01T09:11:34.000Z</Time>
            <Position>
              <LatitudeDegrees>42.045350633561611175537109375</LatitudeDegrees>
              <LongitudeDegrees>-2.2795858047902584075927734375</LongitudeDegrees>
            </Position>
            <AltitudeMeters>1230.4000244140625</AltitudeMeters>
            <DistanceMeters>359958.24236596</DistanceMeters>
          </Trackpoint>
          <Trackpoint>
            <Time>2021-08-01T09:11:38.000Z</Time>
            <Position>
              <LatitudeDegrees>42.0451774634420871734619140625</LatitudeDegrees>
              <LongitudeDegrees>-2.27921021170914173126220703125</LongitudeDegrees>
            </Position>
            <AltitudeMeters>1229</AltitudeMeters>
            <DistanceMeters>359994.78356659</DistanceMeters>
          </Trackpoint>
          <Trackpoint>
            <Time>2021-08-01T09:11:40.000Z</Time>
            <Position>
              <LatitudeDegrees>42.04509054310619831085205078125</LatitudeDegrees>
              <LongitudeDegrees>-2.27901466190814971923828125</LongitudeDegrees>
            </Position>
            <AltitudeMeters>1227.5999755859375</AltitudeMeters>
            <DistanceMeters>360013.62092001</DistanceMeters>
          </Trackpoint>
          <Trackpoint>
            <Time>2021-08-01T09:11:43.000Z</Time>
            <Position>
              <LatitudeDegrees>42.04497210681438446044921875</LatitudeDegrees>
              <LongitudeDegrees>-2.2787130810320377349853515625</LongitudeDegrees>
            </Position>
            <AltitudeMeters>1226.4000244140625</AltitudeMeters>
            <DistanceMeters>360041.81904675</DistanceMeters>
          </Trackpoint>
          <Trackpoint>
            <Time>2021-08-01T09:11:46.000Z</Time>
            <Position>
              <LatitudeDegrees>42.04488183371722698211669921875</LatitudeDegrees>
              <LongitudeDegrees>-2.278390042483806610107421875</LongitudeDegrees>
            </Position>
            <AltitudeMeters>1225.4000244140625</AltitudeMeters>
            <DistanceMeters>360070.34780101</DistanceMeters>
          </Trackpoint>
          <Trackpoint>
            <Time>2021-08-01T09:11:47.000Z</Time>
            <Position>
              <LatitudeDegrees>42.044863812625408172607421875</LatitudeDegrees>
              <LongitudeDegrees>-2.278276719152927398681640625</LongitudeDegrees>
            </Position>
            <AltitudeMeters>1225</AltitudeMeters>
            <DistanceMeters>360079.92666351</DistanceMeters>
          </Trackpoint>
          <Trackpoint>
            <Time>2021-08-01T09:11:48.000Z</Time>
            <Position>
              <LatitudeDegrees>42.04484361223876476287841796875</LatitudeDegrees>
              <LongitudeDegrees>-2.278164066374301910400390625</LongitudeDegrees>
            </Position>
            <AltitudeMeters>1224.800048828125</AltitudeMeters>
            <DistanceMeters>360089.50505464</DistanceMeters>
          </Trackpoint>
          <Trackpoint>
            <Time>2021-08-01T09:11:50.000Z</Time>
            <Position>
              <LatitudeDegrees>42.04476901330053806304931640625</LatitudeDegrees>
              <LongitudeDegrees>-2.277964241802692413330078125</LongitudeDegrees>
            </Position>
            <AltitudeMeters>1223.800048828125</AltitudeMeters>
            <DistanceMeters>360107.99135343</DistanceMeters>
          </Trackpoint>
          <Trackpoint>
            <Time>2021-08-01T09:11:53.000Z</Time>
            <Position>
              <LatitudeDegrees>42.0446074940264225006103515625</LatitudeDegrees>
              <LongitudeDegrees>-2.2777538560330867767333984375</LongitudeDegrees>
            </Position>
            <AltitudeMeters>1223.800048828125</AltitudeMeters>
            <DistanceMeters>360133.00288289</DistanceMeters>
          </Trackpoint>
          <Trackpoint>
            <Time>2021-08-01T09:11:54.000Z</Time>
            <Position>
              <LatitudeDegrees>42.04455368220806121826171875</LatitudeDegrees>
              <LongitudeDegrees>-2.2776983678340911865234375</LongitudeDegrees>
            </Position>
            <AltitudeMeters>1224.800048828125</AltitudeMeters>
            <DistanceMeters>360140.5459931</DistanceMeters>
          </Trackpoint>
          <Trackpoint>
            <Time>2021-08-01T09:11:57.000Z</Time>
            <Position>
              <LatitudeDegrees>42.044405825436115264892578125</LatitudeDegrees>
              <LongitudeDegrees>-2.27755126543343067169189453125</LongitudeDegrees>
            </Position>
            <AltitudeMeters>1226</AltitudeMeters>
            <DistanceMeters>360161.00743157</DistanceMeters>
          </Trackpoint>
          <Trackpoint>
            <Time>2021-08-01T09:12:00.000Z</Time>
            <Position>
              <LatitudeDegrees>42.0442765764892101287841796875</LatitudeDegrees>
              <LongitudeDegrees>-2.27742251940071582794189453125</LongitudeDegrees>
            </Position>
            <AltitudeMeters>1227</AltitudeMeters>
            <DistanceMeters>360178.90124197</DistanceMeters>
          </Trackpoint>
          <Trackpoint>
            <Time>2021-08-01T09:12:06.000Z</Time>
            <Position>
              <LatitudeDegrees>42.0440428890287876129150390625</LatitudeDegrees>
              <LongitudeDegrees>-2.27716988883912563323974609375</LongitudeDegrees>
            </Position>
            <AltitudeMeters>1228</AltitudeMeters>
            <DistanceMeters>360212.25616017</DistanceMeters>
          </Trackpoint>
          <Trackpoint>
            <Time>2021-08-01T09:12:08.000Z</Time>
            <Position>
              <LatitudeDegrees>42.043971978127956390380859375</LatitudeDegrees>
              <LongitudeDegrees>-2.27708305232226848602294921875</LongitudeDegrees>
            </Position>
            <AltitudeMeters>1228.5999755859375</AltitudeMeters>
            <DistanceMeters>360222.92415218</DistanceMeters>
          </Trackpoint>
          <Trackpoint>
            <Time>2021-08-01T09:12:11.000Z</Time>
            <Position>
              <LatitudeDegrees>42.04388774000108242034912109375</LatitudeDegrees>
              <LongitudeDegrees>-2.2769341059029102325439453125</LongitudeDegrees>
            </Position>
            <AltitudeMeters>1229.199951171875</AltitudeMeters>
            <DistanceMeters>360238.39921687</DistanceMeters>
          </Trackpoint>
          <Trackpoint>
            <Time>2021-08-01T09:12:23.000Z</Time>
            <Position>
              <LatitudeDegrees>42.04359588213264942169189453125</LatitudeDegrees>
              <LongitudeDegrees>-2.27625668048858642578125</LongitudeDegrees>
            </Position>
            <AltitudeMeters>1228.800048828125</AltitudeMeters>
            <DistanceMeters>360303.13354621</DistanceMeters>
          </Trackpoint>
          <Trackpoint>
            <Time>2021-08-01T09:12:27.000Z</Time>
            <Position>
              <LatitudeDegrees>42.0434916950762271881103515625</LatitudeDegrees>
              <LongitudeDegrees>-2.27601905353367328643798828125</LongitudeDegrees>
            </Position>
            <AltitudeMeters>1228</AltitudeMeters>
            <DistanceMeters>360325.94292705</DistanceMeters>
          </Trackpoint>
          <Trackpoint>
            <Time>2021-08-01T09:12:37.000Z</Time>
            <Position>
              <LatitudeDegrees>42.04315700568258762359619140625</LatitudeDegrees>
              <LongitudeDegrees>-2.2754360921680927276611328125</LongitudeDegrees>
            </Position>
            <AltitudeMeters>1227.4000244140625</AltitudeMeters>
            <DistanceMeters>360386.8491949</DistanceMeters>
          </Trackpoint>
          <Trackpoint>
            <Time>2021-08-01T09:12:40.000Z</Time>
            <Position>
              <LatitudeDegrees>42.04304820857942104339599609375</LatitudeDegrees>
              <LongitudeDegrees>-2.275257892906665802001953125</LongitudeDegrees>
            </Position>
            <AltitudeMeters>1227</AltitudeMeters>
            <DistanceMeters>360405.91738905</DistanceMeters>
          </Trackpoint>
          <Trackpoint>
            <Time>2021-08-01T09:12:50.000Z</Time>
            <Position>
              <LatitudeDegrees>42.04267303459346294403076171875</LatitudeDegrees>
              <LongitudeDegrees>-2.27463369257748126983642578125</LongitudeDegrees>
            </Position>
            <AltitudeMeters>1225.800048828125</AltitudeMeters>
            <DistanceMeters>360472.29325994</DistanceMeters>
          </Trackpoint>
          <Trackpoint>
            <Time>2021-08-01T09:12:51.000Z</Time>
            <Position>
              <LatitudeDegrees>42.04263531602919101715087890625</LatitudeDegrees>
              <LongitudeDegrees>-2.2745668888092041015625</LongitudeDegrees>
            </Position>
            <AltitudeMeters>1225.800048828125</AltitudeMeters>
            <DistanceMeters>360479.22955919</DistanceMeters>
          </Trackpoint>
          <Trackpoint>
            <Time>2021-08-01T09:12:53.000Z</Time>
            <Position>
              <LatitudeDegrees>42.042559124529361724853515625</LatitudeDegrees>
              <LongitudeDegrees>-2.274433113634586334228515625</LongitudeDegrees>
            </Position>
            <AltitudeMeters>1225.5999755859375</AltitudeMeters>
            <DistanceMeters>360493.16483077</DistanceMeters>
          </Trackpoint>
          <Trackpoint>
            <Time>2021-08-01T09:13:02.000Z</Time>
            <Position>
              <LatitudeDegrees>42.042354606091976165771484375</LatitudeDegrees>
              <LongitudeDegrees>-2.27375828661024570465087890625</LongitudeDegrees>
            </Position>
            <AltitudeMeters>1226</AltitudeMeters>
            <DistanceMeters>360553.41079342</DistanceMeters>
          </Trackpoint>
          <Trackpoint>
            <Time>2021-08-01T09:13:06.000Z</Time>
            <Position>
              <LatitudeDegrees>42.04227724112570285797119140625</LatitudeDegrees>
              <LongitudeDegrees>-2.2734643332660198211669921875</LongitudeDegrees>
            </Position>
            <AltitudeMeters>1227</AltitudeMeters>
            <DistanceMeters>360579.18914336</DistanceMeters>
          </Trackpoint>
          <Trackpoint>
            <Time>2021-08-01T09:13:16.000Z</Time>
            <Position>
              <LatitudeDegrees>42.0421167276799678802490234375</LatitudeDegrees>
              <LongitudeDegrees>-2.27271373383700847625732421875</LongitudeDegrees>
            </Position>
            <AltitudeMeters>1227</AltitudeMeters>
            <DistanceMeters>360643.75362469</DistanceMeters>
          </Trackpoint>
          <Trackpoint>
            <Time>2021-08-01T09:13:25.000Z</Time>
            <Position>
              <LatitudeDegrees>42.041952274739742279052734375</LatitudeDegrees>
              <LongitudeDegrees>-2.27200328372418880462646484375</LongitudeDegrees>
            </Position>
            <AltitudeMeters>1226.4000244140625</AltitudeMeters>
            <DistanceMeters>360705.26505623</DistanceMeters>
          </Trackpoint>
          <Trackpoint>
            <Time>2021-08-01T09:13:31.000Z</Time>
            <Position>
              <LatitudeDegrees>42.0418444834649562835693359375</LatitudeDegrees>
              <LongitudeDegrees>-2.27152015082538127899169921875</LongitudeDegrees>
            </Position>
            <AltitudeMeters>1225.800048828125</AltitudeMeters>
            <DistanceMeters>360746.96348881</DistanceMeters>
          </Trackpoint>
          <Trackpoint>
            <Time>2021-08-01T09:13:36.000Z</Time>
            <Position>
              <LatitudeDegrees>42.04174331389367580413818359375</LatitudeDegrees>
              <LongitudeDegrees>-2.27107641287147998809814453125</LongitudeDegrees>
            </Position>
            <AltitudeMeters>1224.4000244140625</AltitudeMeters>
            <DistanceMeters>360785.33204719</DistanceMeters>
          </Trackpoint>
          <Trackpoint>
            <Time>2021-08-01T09:13:38.000Z</Time>
            <Position>
              <LatitudeDegrees>42.041698805987834930419921875</LatitudeDegrees>
              <LongitudeDegrees>-2.27087575010955333709716796875</LongitudeDegrees>
            </Position>
            <AltitudeMeters>1222.800048828125</AltitudeMeters>
            <DistanceMeters>360802.64256587</DistanceMeters>
          </Trackpoint>
          <Trackpoint>
            <Time>2021-08-01T09:13:40.000Z</Time>
            <Position>
              <LatitudeDegrees>42.04165379516780376434326171875</LatitudeDegrees>
              <LongitudeDegrees>-2.27066033519804477691650390625</LongitudeDegrees>
            </Position>
            <AltitudeMeters>1221.4000244140625</AltitudeMeters>
            <DistanceMeters>360821.13985206</DistanceMeters>
          </Trackpoint>
          <Trackpoint>
            <Time>2021-08-01T09:13:42.000Z</Time>
            <Position>
              <LatitudeDegrees>42.0416057668626308441162109375</LatitudeDegrees>
              <LongitudeDegrees>-2.2704324312508106231689453125</LongitudeDegrees>
            </Position>
            <AltitudeMeters>1220</AltitudeMeters>
            <DistanceMeters>360840.72227342</DistanceMeters>
          </Trackpoint>
          <Trackpoint>
            <Time>2021-08-01T09:13:44.000Z</Time>
            <Position>
              <LatitudeDegrees>42.04154399223625659942626953125</LatitudeDegrees>
              <LongitudeDegrees>-2.27019480429589748382568359375</LongitudeDegrees>
            </Position>
            <AltitudeMeters>1218.5999755859375</AltitudeMeters>
            <DistanceMeters>360861.53290691</DistanceMeters>
          </Trackpoint>
          <Trackpoint>
            <Time>2021-08-01T09:13:46.000Z</Time>
            <Position>
              <LatitudeDegrees>42.04146620817482471466064453125</LatitudeDegrees>
              <LongitudeDegrees>-2.269951142370700836181640625</LongitudeDegrees>
            </Position>
            <AltitudeMeters>1216.800048828125</AltitudeMeters>
            <DistanceMeters>360883.4558809</DistanceMeters>
          </Trackpoint>
          <Trackpoint>
            <Time>2021-08-01T09:13:48.000Z</Time>
            <Position>
              <LatitudeDegrees>42.04137098975479602813720703125</LatitudeDegrees>
              <LongitudeDegrees>-2.2697025351226329803466796875</LongitudeDegrees>
            </Position>
            <AltitudeMeters>1215.4000244140625</AltitudeMeters>
            <DistanceMeters>360906.5776595</DistanceMeters>
          </Trackpoint>
          <Trackpoint>
            <Time>2021-08-01T09:13:49.000Z</Time>
            <Position>
              <LatitudeDegrees>42.0413211174309253692626953125</LatitudeDegrees>
              <LongitudeDegrees>-2.26957521401345729827880859375</LongitudeDegrees>
            </Position>
            <AltitudeMeters>1214.199951171875</AltitudeMeters>
            <DistanceMeters>360918.47612741</DistanceMeters>
          </Trackpoint>
          <Trackpoint>
            <Time>2021-08-01T09:13:51.000Z</Time>
            <Position>
              <LatitudeDegrees>42.04121835529804229736328125</LatitudeDegrees>
              <LongitudeDegrees>-2.2693142853677272796630859375</LongitudeDegrees>
            </Position>
            <AltitudeMeters>1212.4000244140625</AltitudeMeters>
            <DistanceMeters>360942.88948718</DistanceMeters>
          </Trackpoint>
          <Trackpoint>
            <Time>2021-08-01T09:13:52.000Z</Time>
            <Position>
              <LatitudeDegrees>42.04116462729871273040771484375</LatitudeDegrees>
              <LongitudeDegrees>-2.269181348383426666259765625</LongitudeDegrees>
            </Position>
            <AltitudeMeters>1211.4000244140625</AltitudeMeters>
            <DistanceMeters>360955.39985428</DistanceMeters>
          </Trackpoint>
          <Trackpoint>
            <Time>2021-08-01T09:13:53.000Z</Time>
            <Position>
              <LatitudeDegrees>42.04110930673778057098388671875</LatitudeDegrees>
              <LongitudeDegrees>-2.26904765702784061431884765625</LongitudeDegrees>
            </Position>
            <AltitudeMeters>1210</AltitudeMeters>
            <DistanceMeters>360968.05019083</DistanceMeters>
          </Trackpoint>
          <Trackpoint>
            <Time>2021-08-01T09:13:54.000Z</Time>
            <Position>
              <LatitudeDegrees>42.041053064167499542236328125</LatitudeDegrees>
              <LongitudeDegrees>-2.26891287602484226226806640625</LongitudeDegrees>
            </Position>
            <AltitudeMeters>1208.5999755859375</AltitudeMeters>
            <DistanceMeters>360980.82907585</DistanceMeters>
          </Trackpoint>
          <Trackpoint>
            <Time>2021-08-01T09:13:55.000Z</Time>
            <Position>
              <LatitudeDegrees>42.04099548049271106719970703125</LatitudeDegrees>
              <LongitudeDegrees>-2.2687773406505584716796875</LongitudeDegrees>
            </Position>
            <AltitudeMeters>1207.4000244140625</AltitudeMeters>
            <DistanceMeters>360993.7362785</DistanceMeters>
          </Trackpoint>
          <Trackpoint>
            <Time>2021-08-01T09:13:57.000Z</Time>
            <Position>
              <LatitudeDegrees>42.0408772118389606475830078125</LatitudeDegrees>
              <LongitudeDegrees>-2.26850216276943683624267578125</LongitudeDegrees>
            </Position>
            <AltitudeMeters>1206.199951171875</AltitudeMeters>
            <DistanceMeters>361020.01696394</DistanceMeters>
          </Trackpoint>
          <Trackpoint>
            <Time>2021-08-01T09:13:58.000Z</Time>
            <Position>
              <LatitudeDegrees>42.0408185385167598724365234375</LatitudeDegrees>
              <LongitudeDegrees>-2.26836134679615497589111328125</LongitudeDegrees>
            </Position>
            <AltitudeMeters>1205</AltitudeMeters>
            <DistanceMeters>361033.36407404</DistanceMeters>
          </Trackpoint>
          <Trackpoint>
            <Time>2021-08-01T09:13:59.000Z</Time>
            <Position>
              <LatitudeDegrees>42.0407602004706859588623046875</LatitudeDegrees>
              <LongitudeDegrees>-2.2682186029851436614990234375</LongitudeDegrees>
            </Position>
            <AltitudeMeters>1203.800048828125</AltitudeMeters>
            <DistanceMeters>361046.83207855</DistanceMeters>
          </Trackpoint>
          <Trackpoint>
            <Time>2021-08-01T09:14:01.000Z</Time>
            <Position>
              <LatitudeDegrees>42.04064444638788700103759765625</LatitudeDegrees>
              <LongitudeDegrees>-2.26793043315410614013671875</LongitudeDegrees>
            </Position>
            <AltitudeMeters>1202.5999755859375</AltitudeMeters>
            <DistanceMeters>361073.91319168</DistanceMeters>
          </Trackpoint>
          <Trackpoint>
            <Time>2021-08-01T09:14:03.000Z</Time>
            <Position>
              <LatitudeDegrees>42.04053028486669063568115234375</LatitudeDegrees>
              <LongitudeDegrees>-2.26764502935111522674560546875</LongitudeDegrees>
            </Position>
            <AltitudeMeters>1201.5999755859375</AltitudeMeters>
            <DistanceMeters>361100.70920871</DistanceMeters>
          </Trackpoint>
          <Trackpoint>
            <Time>2021-08-01T09:14:07.000Z</Time>
            <Position>
              <LatitudeDegrees>42.04028050415217876434326171875</LatitudeDegrees>
              <LongitudeDegrees>-2.26709785871207714080810546875</LongitudeDegrees>
            </Position>
            <AltitudeMeters>1200.199951171875</AltitudeMeters>
            <DistanceMeters>361153.799895</DistanceMeters>
          </Trackpoint>
          <Trackpoint>
            <Time>2021-08-01T09:14:10.000Z</Time>
            <Position>
              <LatitudeDegrees>42.040067352354526519775390625</LatitudeDegrees>
              <LongitudeDegrees>-2.26670508272945880889892578125</LongitudeDegrees>
            </Position>
            <AltitudeMeters>1198.800048828125</AltitudeMeters>
            <DistanceMeters>361194.01146844</DistanceMeters>
          </Trackpoint>
          <Trackpoint>
            <Time>2021-08-01T09:14:12.000Z</Time>
            <Position>
              <LatitudeDegrees>42.03992829658091068267822265625</LatitudeDegrees>
              <LongitudeDegrees>-2.26645052433013916015625</LongitudeDegrees>
            </Position>
            <AltitudeMeters>1197.5999755859375</AltitudeMeters>
            <DistanceMeters>361220.13258205</DistanceMeters>
          </Trackpoint>
          <Trackpoint>
            <Time>2021-08-01T09:14:17.000Z</Time>
            <Position>
              <LatitudeDegrees>42.039576508104801177978515625</LatitudeDegrees>
              <LongitudeDegrees>-2.26583772338926792144775390625</LongitudeDegrees>
            </Position>
            <AltitudeMeters>1197</AltitudeMeters>
            <DistanceMeters>361284.1563328</DistanceMeters>
          </Trackpoint>
          <Trackpoint>
            <Time>2021-08-01T09:14:21.000Z</Time>
            <Position>
              <LatitudeDegrees>42.03930594027042388916015625</LatitudeDegrees>
              <LongitudeDegrees>-2.26533581502735614776611328125</LongitudeDegrees>
            </Position>
            <AltitudeMeters>1196</AltitudeMeters>
            <DistanceMeters>361335.42269477</DistanceMeters>
          </Trackpoint>
          <Trackpoint>
            <Time>2021-08-01T09:14:24.000Z</Time>
            <Position>
              <LatitudeDegrees>42.0391403138637542724609375</LatitudeDegrees>
              <LongitudeDegrees>-2.264901883900165557861328125</LongitudeDegrees>
            </Position>
            <AltitudeMeters>1194.199951171875</AltitudeMeters>
            <DistanceMeters>361375.7523279</DistanceMeters>
          </Trackpoint>
          <Trackpoint>
            <Time>2021-08-01T09:14:25.000Z</Time>
            <Position>
              <LatitudeDegrees>42.0391009189188480377197265625</LatitudeDegrees>
              <LongitudeDegrees>-2.26474287919700145721435546875</LongitudeDegrees>
            </Position>
            <AltitudeMeters>1193.199951171875</AltitudeMeters>
            <DistanceMeters>361389.60799191</DistanceMeters>
          </Trackpoint>
          <Trackpoint>
            <Time>2021-08-01T09:14:27.000Z</Time>
            <Position>
              <LatitudeDegrees>42.03903797082602977752685546875</LatitudeDegrees>
              <LongitudeDegrees>-2.2644195891916751861572265625</LongitudeDegrees>
            </Position>
            <AltitudeMeters>1192</AltitudeMeters>
            <DistanceMeters>361417.23511955</DistanceMeters>
          </Trackpoint>
          <Trackpoint>
            <Time>2021-08-01T09:14:29.000Z</Time>
            <Position>
              <LatitudeDegrees>42.038981728255748748779296875</LatitudeDegrees>
              <LongitudeDegrees>-2.2640980593860149383544921875</LongitudeDegrees>
            </Position>
            <AltitudeMeters>1190.5999755859375</AltitudeMeters>
            <DistanceMeters>361444.5407115</DistanceMeters>
          </Trackpoint>
          <Trackpoint>
            <Time>2021-08-01T09:14:30.000Z</Time>
            <Position>
              <LatitudeDegrees>42.03895582817494869232177734375</LatitudeDegrees>
              <LongitudeDegrees>-2.26393737830221652984619140625</LongitudeDegrees>
            </Position>
            <AltitudeMeters>1189.199951171875</AltitudeMeters>
            <DistanceMeters>361458.13218949</DistanceMeters>
          </Trackpoint>
          <Trackpoint>
            <Time>2021-08-01T09:14:32.000Z</Time>
            <Position>
              <LatitudeDegrees>42.03889346681535243988037109375</LatitudeDegrees>
              <LongitudeDegrees>-2.263616435229778289794921875</LongitudeDegrees>
            </Position>
            <AltitudeMeters>1187.199951171875</AltitudeMeters>
            <DistanceMeters>361485.55525945</DistanceMeters>
          </Trackpoint>
          <Trackpoint>
            <Time>2021-08-01T09:14:33.000Z</Time>
            <Position>
              <LatitudeDegrees>42.0388464443385601043701171875</LatitudeDegrees>
              <LongitudeDegrees>-2.26346530951559543609619140625</LongitudeDegrees>
            </Position>
            <AltitudeMeters>1186.199951171875</AltitudeMeters>
            <DistanceMeters>361499.09948342</DistanceMeters>
          </Trackpoint>
          <Trackpoint>
            <Time>2021-08-01T09:14:34.000Z</Time>
            <Position>
              <LatitudeDegrees>42.0387867651879787445068359375</LatitudeDegrees>
              <LongitudeDegrees>-2.26332466118037700653076171875</LongitudeDegrees>
            </Position>
            <AltitudeMeters>1185</AltitudeMeters>
            <DistanceMeters>361512.48914875</DistanceMeters>
          </Trackpoint>
          <Trackpoint>
            <Time>2021-08-01T09:14:36.000Z</Time>
            <Position>
              <LatitudeDegrees>42.0386412553489208221435546875</LatitudeDegrees>
              <LongitudeDegrees>-2.26306096650660037994384765625</LongitudeDegrees>
            </Position>
            <AltitudeMeters>1183.5999755859375</AltitudeMeters>
            <DistanceMeters>361539.64501723</DistanceMeters>
          </Trackpoint>
          <Trackpoint>
            <Time>2021-08-01T09:14:38.000Z</Time>
            <Position>
              <LatitudeDegrees>42.03849482350051403045654296875</LatitudeDegrees>
              <LongitudeDegrees>-2.26279475726187229156494140625</LongitudeDegrees>
            </Position>
            <AltitudeMeters>1182.4000244140625</AltitudeMeters>
            <DistanceMeters>361567.02887394</DistanceMeters>
          </Trackpoint>
          <Trackpoint>
            <Time>2021-08-01T09:14:42.000Z</Time>
            <Position>
              <LatitudeDegrees>42.03823112882673740386962890625</LatitudeDegrees>
              <LongitudeDegrees>-2.26229821331799030303955078125</LongitudeDegrees>
            </Position>
            <AltitudeMeters>1181.199951171875</AltitudeMeters>
            <DistanceMeters>361617.48868562</DistanceMeters>
          </Trackpoint>
          <Trackpoint>
            <Time>2021-08-01T09:14:44.000Z</Time>
            <Position>
              <LatitudeDegrees>42.038129456341266632080078125</LatitudeDegrees>
              <LongitudeDegrees>-2.2620501928031444549560546875</LongitudeDegrees>
            </Position>
            <AltitudeMeters>1180.800048828125</AltitudeMeters>
            <DistanceMeters>361640.90693924</DistanceMeters>
          </Trackpoint>
          <Trackpoint>
            <Time>2021-08-01T09:14:48.000Z</Time>
            <Position>
              <LatitudeDegrees>42.03804387710988521575927734375</LatitudeDegrees>
              <LongitudeDegrees>-2.261521629989147186279296875</LongitudeDegrees>
            </Position>
            <AltitudeMeters>1180</AltitudeMeters>
            <DistanceMeters>361685.62627274</DistanceMeters>
          </Trackpoint>
          <Trackpoint>
            <Time>2021-08-01T09:14:53.000Z</Time>
            <Position>
              <LatitudeDegrees>42.037972547113895416259765625</LatitudeDegrees>
              <LongitudeDegrees>-2.2608737088739871978759765625</LongitudeDegrees>
            </Position>
            <AltitudeMeters>1178.800048828125</AltitudeMeters>
            <DistanceMeters>361739.77132384</DistanceMeters>
          </Trackpoint>
          <Trackpoint>
            <Time>2021-08-01T09:14:56.000Z</Time>
            <Position>
              <LatitudeDegrees>42.0379331521689891815185546875</LatitudeDegrees>
              <LongitudeDegrees>-2.2604817710816860198974609375</LongitudeDegrees>
            </Position>
            <AltitudeMeters>1177.4000244140625</AltitudeMeters>
            <DistanceMeters>361772.46603793</DistanceMeters>
          </Trackpoint>
          <Trackpoint>
            <Time>2021-08-01T09:14:58.000Z</Time>
            <Position>
              <LatitudeDegrees>42.0379038155078887939453125</LatitudeDegrees>
              <LongitudeDegrees>-2.26020558737218379974365234375</LongitudeDegrees>
            </Position>
            <AltitudeMeters>1175.800048828125</AltitudeMeters>
            <DistanceMeters>361795.5291605</DistanceMeters>
          </Trackpoint>
          <Trackpoint>
            <Time>2021-08-01T09:15:00.000Z</Time>
            <Position>
              <LatitudeDegrees>42.03787271864712238311767578125</LatitudeDegrees>
              <LongitudeDegrees>-2.25991708226501941680908203125</LongitudeDegrees>
            </Position>
            <AltitudeMeters>1174.5999755859375</AltitudeMeters>
            <DistanceMeters>361819.62813011</DistanceMeters>
          </Trackpoint>
          <Trackpoint>
            <Time>2021-08-01T09:15:02.000Z</Time>
            <Position>
              <LatitudeDegrees>42.037842459976673126220703125</LatitudeDegrees>
              <LongitudeDegrees>-2.2596248053014278411865234375</LongitudeDegrees>
            </Position>
            <AltitudeMeters>1173.199951171875</AltitudeMeters>
            <DistanceMeters>361844.02261858</DistanceMeters>
          </Trackpoint>
          <Trackpoint>
            <Time>2021-08-01T09:15:04.000Z</Time>
            <Position>
              <LatitudeDegrees>42.03781035728752613067626953125</LatitudeDegrees>
              <LongitudeDegrees>-2.2593337856233119964599609375</LongitudeDegrees>
            </Position>
            <AltitudeMeters>1171.4000244140625</AltitudeMeters>
            <DistanceMeters>361868.34333192</DistanceMeters>
          </Trackpoint>
          <Trackpoint>
            <Time>2021-08-01T09:15:06.000Z</Time>
            <Position>
              <LatitudeDegrees>42.0377790927886962890625</LatitudeDegrees>
              <LongitudeDegrees>-2.2590451128780841827392578125</LongitudeDegrees>
            </Position>
            <AltitudeMeters>1170</AltitudeMeters>
            <DistanceMeters>361892.45859582</DistanceMeters>
          </Trackpoint>
          <Trackpoint>
            <Time>2021-08-01T09:15:09.000Z</Time>
            <Position>
              <LatitudeDegrees>42.0377289690077304840087890625</LatitudeDegrees>
              <LongitudeDegrees>-2.25860171020030975341796875</LongitudeDegrees>
            </Position>
            <AltitudeMeters>1168.800048828125</AltitudeMeters>
            <DistanceMeters>361929.53436172</DistanceMeters>
          </Trackpoint>
          <Trackpoint>
            <Time>2021-08-01T09:15:12.000Z</Time>
            <Position>
              <LatitudeDegrees>42.03768789768218994140625</LatitudeDegrees>
              <LongitudeDegrees>-2.258167527616024017333984375</LongitudeDegrees>
            </Position>
            <AltitudeMeters>1167.5999755859375</AltitudeMeters>
            <DistanceMeters>361965.71571302</DistanceMeters>
          </Trackpoint>
          <Trackpoint>
            <Time>2021-08-01T09:15:15.000Z</Time>
            <Position>
              <LatitudeDegrees>42.03763752244412899017333984375</LatitudeDegrees>
              <LongitudeDegrees>-2.25776578299701213836669921875</LongitudeDegrees>
            </Position>
            <AltitudeMeters>1165.4000244140625</AltitudeMeters>
            <DistanceMeters>361999.39567951</DistanceMeters>
          </Trackpoint>
          <Trackpoint>
            <Time>2021-08-01T09:15:18.000Z</Time>
            <Position>
              <LatitudeDegrees>42.0375953614711761474609375</LatitudeDegrees>
              <LongitudeDegrees>-2.2573486156761646270751953125</LongitudeDegrees>
            </Position>
            <AltitudeMeters>1164.4000244140625</AltitudeMeters>
            <DistanceMeters>362034.19842716</DistanceMeters>
          </Trackpoint>
          <Trackpoint>
            <Time>2021-08-01T09:15:20.000Z</Time>
            <Position>
              <LatitudeDegrees>42.03756510280072689056396484375</LatitudeDegrees>
              <LongitudeDegrees>-2.25705868564546108245849609375</LongitudeDegrees>
            </Position>
            <AltitudeMeters>1162.5999755859375</AltitudeMeters>
            <DistanceMeters>362058.40096832</DistanceMeters>
          </Trackpoint>
          <Trackpoint>
            <Time>2021-08-01T09:15:21.000Z</Time>
            <Position>
              <LatitudeDegrees>42.0375489257276058197021484375</LatitudeDegrees>
              <LongitudeDegrees>-2.25690831430256366729736328125</LongitudeDegrees>
            </Position>
            <AltitudeMeters>1161.4000244140625</AltitudeMeters>
            <DistanceMeters>362070.96104139</DistanceMeters>
          </Trackpoint>
          <Trackpoint>
            <Time>2021-08-01T09:15:22.000Z</Time>
            <Position>
              <LatitudeDegrees>42.03753241337835788726806640625</LatitudeDegrees>
              <LongitudeDegrees>-2.2567548416554927825927734375</LongitudeDegrees>
            </Position>
            <AltitudeMeters>1159.800048828125</AltitudeMeters>
            <DistanceMeters>362083.78014163</DistanceMeters>
          </Trackpoint>
          <Trackpoint>
            <Time>2021-08-01T09:15:23.000Z</Time>
            <Position>
              <LatitudeDegrees>42.037515901029109954833984375</LatitudeDegrees>
              <LongitudeDegrees>-2.25659818388521671295166015625</LongitudeDegrees>
            </Position>
            <AltitudeMeters>1158.5999755859375</AltitudeMeters>
            <DistanceMeters>362096.86004333</DistanceMeters>
          </Trackpoint>
          <Trackpoint>
            <Time>2021-08-01T09:15:24.000Z</Time>
            <Position>
              <LatitudeDegrees>42.037499137222766876220703125</LatitudeDegrees>
              <LongitudeDegrees>-2.2564386762678623199462890625</LongitudeDegrees>
            </Position>
            <AltitudeMeters>1157.5999755859375</AltitudeMeters>
            <DistanceMeters>362110.17735167</DistanceMeters>
          </Trackpoint>
          <Trackpoint>
            <Time>2021-08-01T09:15:25.000Z</Time>
            <Position>
              <LatitudeDegrees>42.0374795235693454742431640625</LatitudeDegrees>
              <LongitudeDegrees>-2.25627715699374675750732421875</LongitudeDegrees>
            </Position>
            <AltitudeMeters>1156.199951171875</AltitudeMeters>
            <DistanceMeters>362123.70656633</DistanceMeters>
          </Trackpoint>
          <Trackpoint>
            <Time>2021-08-01T09:15:26.000Z</Time>
            <Position>
              <LatitudeDegrees>42.03745865263044834136962890625</LatitudeDegrees>
              <LongitudeDegrees>-2.2561127878725528717041015625</LongitudeDegrees>
            </Position>
            <AltitudeMeters>1155</AltitudeMeters>
            <DistanceMeters>362137.49100932</DistanceMeters>
          </Trackpoint>
          <Trackpoint>
            <Time>2021-08-01T09:15:28.000Z</Time>
            <Position>
              <LatitudeDegrees>42.03742093406617641448974609375</LatitudeDegrees>
              <LongitudeDegrees>-2.25578279234468936920166015625</LongitudeDegrees>
            </Position>
            <AltitudeMeters>1153.4000244140625</AltitudeMeters>
            <DistanceMeters>362165.09115821</DistanceMeters>
          </Trackpoint>
          <Trackpoint>
            <Time>2021-08-01T09:15:31.000Z</Time>
            <Position>
              <LatitudeDegrees>42.03737097792327404022216796875</LatitudeDegrees>
              <LongitudeDegrees>-2.25530837662518024444580078125</LongitudeDegrees>
            </Position>
            <AltitudeMeters>1152.199951171875</AltitudeMeters>
            <DistanceMeters>362204.7010012</DistanceMeters>
          </Trackpoint>
          <Trackpoint>
            <Time>2021-08-01T09:15:33.000Z</Time>
            <Position>
              <LatitudeDegrees>42.0373229496181011199951171875</LatitudeDegrees>
              <LongitudeDegrees>-2.25501014851033687591552734375</LongitudeDegrees>
            </Position>
            <AltitudeMeters>1150.4000244140625</AltitudeMeters>
            <DistanceMeters>362229.92696971</DistanceMeters>
          </Trackpoint>
          <Trackpoint>
            <Time>2021-08-01T09:15:36.000Z</Time>
            <Position>
              <LatitudeDegrees>42.0371754281222820281982421875</LatitudeDegrees>
              <LongitudeDegrees>-2.25463564507663249969482421875</LongitudeDegrees>
            </Position>
            <AltitudeMeters>1149.4000244140625</AltitudeMeters>
            <DistanceMeters>362264.96980201</DistanceMeters>
          </Trackpoint>
          <Trackpoint>
            <Time>2021-08-01T09:15:42.000Z</Time>
            <Position>
              <LatitudeDegrees>42.03681324608623981475830078125</LatitudeDegrees>
              <LongitudeDegrees>-2.25400038063526153564453125</LongitudeDegrees>
            </Position>
            <AltitudeMeters>1148.800048828125</AltitudeMeters>
            <DistanceMeters>362331.17232985</DistanceMeters>
          </Trackpoint>
          <Trackpoint>
            <Time>2021-08-01T09:15:45.000Z</Time>
            <Position>
              <LatitudeDegrees>42.03663856722414493560791015625</LatitudeDegrees>
              <LongitudeDegrees>-2.25368983112275600433349609375</LongitudeDegrees>
            </Position>
            <AltitudeMeters>1148.199951171875</AltitudeMeters>
            <DistanceMeters>362363.37531168</DistanceMeters>
          </Trackpoint>
          <Trackpoint>
            <Time>2021-08-01T09:15:49.000Z</Time>
            <Position>
              <LatitudeDegrees>42.03641443513333797454833984375</LatitudeDegrees>
              <LongitudeDegrees>-2.25327978841960430145263671875</LongitudeDegrees>
            </Position>
            <AltitudeMeters>1147</AltitudeMeters>
            <DistanceMeters>362405.4620631</DistanceMeters>
          </Trackpoint>
          <Trackpoint>
            <Time>2021-08-01T09:15:55.000Z</Time>
            <Position>
              <LatitudeDegrees>42.03608938492834568023681640625</LatitudeDegrees>
              <LongitudeDegrees>-2.2526842541992664337158203125</LongitudeDegrees>
            </Position>
            <AltitudeMeters>1146.4000244140625</AltitudeMeters>
            <DistanceMeters>362466.55677677</DistanceMeters>
          </Trackpoint>
          <Trackpoint>
            <Time>2021-08-01T09:15:57.000Z</Time>
            <Position>
              <LatitudeDegrees>42.035982348024845123291015625</LatitudeDegrees>
              <LongitudeDegrees>-2.2524861060082912445068359375</LongitudeDegrees>
            </Position>
            <AltitudeMeters>1146</AltitudeMeters>
            <DistanceMeters>362486.81106947</DistanceMeters>
          </Trackpoint>
          <Trackpoint>
            <Time>2021-08-01T09:16:00.000Z</Time>
            <Position>
              <LatitudeDegrees>42.03581496141850948333740234375</LatitudeDegrees>
              <LongitudeDegrees>-2.25217019207775592803955078125</LongitudeDegrees>
            </Position>
            <AltitudeMeters>1143.800048828125</AltitudeMeters>
            <DistanceMeters>362518.89099609</DistanceMeters>
          </Trackpoint>
          <Trackpoint>
            <Time>2021-08-01T09:16:02.000Z</Time>
            <Position>
              <LatitudeDegrees>42.03569560311734676361083984375</LatitudeDegrees>
              <LongitudeDegrees>-2.2519456408917903900146484375</LongitudeDegrees>
            </Position>
            <AltitudeMeters>1141.5999755859375</AltitudeMeters>
            <DistanceMeters>362541.71798737</DistanceMeters>
          </Trackpoint>
          <Trackpoint>
            <Time>2021-08-01T09:16:04.000Z</Time>
            <Position>
              <LatitudeDegrees>42.03556685708463191986083984375</LatitudeDegrees>
              <LongitudeDegrees>-2.25171337835490703582763671875</LongitudeDegrees>
            </Position>
            <AltitudeMeters>1140.199951171875</AltitudeMeters>
            <DistanceMeters>362565.67640634</DistanceMeters>
          </Trackpoint>
          <Trackpoint>
            <Time>2021-08-01T09:16:07.000Z</Time>
            <Position>
              <LatitudeDegrees>42.0353669486939907073974609375</LatitudeDegrees>
              <LongitudeDegrees>-2.251338623464107513427734375</LongitudeDegrees>
            </Position>
            <AltitudeMeters>1138.199951171875</AltitudeMeters>
            <DistanceMeters>362603.81859539</DistanceMeters>
          </Trackpoint>
          <Trackpoint>
            <Time>2021-08-01T09:16:08.000Z</Time>
            <Position>
              <LatitudeDegrees>42.035298384726047515869140625</LatitudeDegrees>
              <LongitudeDegrees>-2.25120912306010723114013671875</LongitudeDegrees>
            </Position>
            <AltitudeMeters>1136.5999755859375</AltitudeMeters>
            <DistanceMeters>362616.96563663</DistanceMeters>
          </Trackpoint>
          <Trackpoint>
            <Time>2021-08-01T09:16:10.000Z</Time>
            <Position>
              <LatitudeDegrees>42.03515832312405109405517578125</LatitudeDegrees>
              <LongitudeDegrees>-2.25094241090118885040283203125</LongitudeDegrees>
            </Position>
            <AltitudeMeters>1134.800048828125</AltitudeMeters>
            <DistanceMeters>362643.96861077</DistanceMeters>
          </Trackpoint>
          <Trackpoint>
            <Time>2021-08-01T09:16:12.000Z</Time>
            <Position>
              <LatitudeDegrees>42.03501314856112003326416015625</LatitudeDegrees>
              <LongitudeDegrees>-2.25066932849586009979248046875</LongitudeDegrees>
            </Position>
            <AltitudeMeters>1133</AltitudeMeters>
            <DistanceMeters>362671.73072677</DistanceMeters>
          </Trackpoint>
          <Trackpoint>
            <Time>2021-08-01T09:16:13.000Z</Time>
            <Position>
              <LatitudeDegrees>42.03494089655578136444091796875</LatitudeDegrees>
              <LongitudeDegrees>-2.2505297698080539703369140625</LongitudeDegrees>
            </Position>
            <AltitudeMeters>1131.5999755859375</AltitudeMeters>
            <DistanceMeters>362685.79403841</DistanceMeters>
          </Trackpoint>
          <Trackpoint>
            <Time>2021-08-01T09:16:14.000Z</Time>
            <Position>
              <LatitudeDegrees>42.034868896007537841796875</LatitudeDegrees>
              <LongitudeDegrees>-2.25039088167250156402587890625</LongitudeDegrees>
            </Position>
            <AltitudeMeters>1130.5999755859375</AltitudeMeters>
            <DistanceMeters>362699.7955726</DistanceMeters>
          </Trackpoint>
          <Trackpoint>
            <Time>2021-08-01T09:16:16.000Z</Time>
            <Position>
              <LatitudeDegrees>42.03472279943525791168212890625</LatitudeDegrees>
              <LongitudeDegrees>-2.25012199021875858306884765625</LongitudeDegrees>
            </Position>
            <AltitudeMeters>1129</AltitudeMeters>
            <DistanceMeters>362727.33693097</DistanceMeters>
          </Trackpoint>
          <Trackpoint>
            <Time>2021-08-01T09:16:21.000Z</Time>
            <Position>
              <LatitudeDegrees>42.0343718491494655609130859375</LatitudeDegrees>
              <LongitudeDegrees>-2.249473147094249725341796875</LongitudeDegrees>
            </Position>
            <AltitudeMeters>1129.199951171875</AltitudeMeters>
            <DistanceMeters>362793.69157552</DistanceMeters>
          </Trackpoint>
          <Trackpoint>
            <Time>2021-08-01T09:16:26.000Z</Time>
            <Position>
              <LatitudeDegrees>42.03403347171843051910400390625</LatitudeDegrees>
              <LongitudeDegrees>-2.24884827621281147003173828125</LongitudeDegrees>
            </Position>
            <AltitudeMeters>1128.5999755859375</AltitudeMeters>
            <DistanceMeters>362857.62061664</DistanceMeters>
          </Trackpoint>
          <Trackpoint>
            <Time>2021-08-01T09:16:27.000Z</Time>
            <Position>
              <LatitudeDegrees>42.03396859578788280487060546875</LatitudeDegrees>
              <LongitudeDegrees>-2.248724140226840972900390625</LongitudeDegrees>
            </Position>
            <AltitudeMeters>1128</AltitudeMeters>
            <DistanceMeters>362870.16810175</DistanceMeters>
          </Trackpoint>
          <Trackpoint>
            <Time>2021-08-01T09:16:30.000Z</Time>
            <Position>
              <LatitudeDegrees>42.0338059030473232269287109375</LatitudeDegrees>
              <LongitudeDegrees>-2.2483377344906330108642578125</LongitudeDegrees>
            </Position>
            <AltitudeMeters>1126.800048828125</AltitudeMeters>
            <DistanceMeters>362906.88753577</DistanceMeters>
          </Trackpoint>
          <Trackpoint>
            <Time>2021-08-01T09:16:36.000Z</Time>
            <Position>
              <LatitudeDegrees>42.0335641689598560333251953125</LatitudeDegrees>
              <LongitudeDegrees>-2.2475391067564487457275390625</LongitudeDegrees>
            </Position>
            <AltitudeMeters>1125.5999755859375</AltitudeMeters>
            <DistanceMeters>362978.18164091</DistanceMeters>
          </Trackpoint>
          <Trackpoint>
            <Time>2021-08-01T09:16:40.000Z</Time>
            <Position>
              <LatitudeDegrees>42.03343114815652370452880859375</LatitudeDegrees>
              <LongitudeDegrees>-2.24699386395514011383056640625</LongitudeDegrees>
            </Position>
            <AltitudeMeters>1124.199951171875</AltitudeMeters>
            <DistanceMeters>363025.62605371</DistanceMeters>
          </Trackpoint>
          <Trackpoint>
            <Time>2021-08-01T09:16:41.000Z</Time>
            <Position>
              <LatitudeDegrees>42.03340466134250164031982421875</LatitudeDegrees>
              <LongitudeDegrees>-2.24684818647801876068115234375</LongitudeDegrees>
            </Position>
            <AltitudeMeters>1123</AltitudeMeters>
            <DistanceMeters>363038.02476418</DistanceMeters>
          </Trackpoint>
          <Trackpoint>
            <Time>2021-08-01T09:16:42.000Z</Time>
            <Position>
              <LatitudeDegrees>42.03338035382330417633056640625</LatitudeDegrees>
              <LongitudeDegrees>-2.2467000782489776611328125</LongitudeDegrees>
            </Position>
            <AltitudeMeters>1122</AltitudeMeters>
            <DistanceMeters>363050.56397034</DistanceMeters>
          </Trackpoint>
          <Trackpoint>
            <Time>2021-08-01T09:16:44.000Z</Time>
            <Position>
              <LatitudeDegrees>42.03334682621061801910400390625</LatitudeDegrees>
              <LongitudeDegrees>-2.246394641697406768798828125</LongitudeDegrees>
            </Position>
            <AltitudeMeters>1120.199951171875</AltitudeMeters>
            <DistanceMeters>363076.08868357</DistanceMeters>
          </Trackpoint>
          <Trackpoint>
            <Time>2021-08-01T09:16:45.000Z</Time>
            <Position>
              <LatitudeDegrees>42.03333995305001735687255859375</LatitudeDegrees>
              <LongitudeDegrees>-2.246237732470035552978515625</LongitudeDegrees>
            </Position>
            <AltitudeMeters>1119</AltitudeMeters>
            <DistanceMeters>363089.08269639</DistanceMeters>
          </Trackpoint>
          <Trackpoint>
            <Time>2021-08-01T09:16:47.000Z</Time>
            <Position>
              <LatitudeDegrees>42.03334749676287174224853515625</LatitudeDegrees>
              <LongitudeDegrees>-2.2459195554256439208984375</LongitudeDegrees>
            </Position>
            <AltitudeMeters>1117.5999755859375</AltitudeMeters>
            <DistanceMeters>363115.39977836</DistanceMeters>
          </Trackpoint>
          <Trackpoint>
            <Time>2021-08-01T09:16:49.000Z</Time>
            <Position>
              <LatitudeDegrees>42.033369876444339752197265625</LatitudeDegrees>
              <LongitudeDegrees>-2.24559777416288852691650390625</LongitudeDegrees>
            </Position>
            <AltitudeMeters>1116.199951171875</AltitudeMeters>
            <DistanceMeters>363142.11800553</DistanceMeters>
          </Trackpoint>
          <Trackpoint>
            <Time>2021-08-01T09:16:51.000Z</Time>
            <Position>
              <LatitudeDegrees>42.0333950221538543701171875</LatitudeDegrees>
              <LongitudeDegrees>-2.24527456797659397125244140625</LongitudeDegrees>
            </Position>
            <AltitudeMeters>1114.4000244140625</AltitudeMeters>
            <DistanceMeters>363168.98368959</DistanceMeters>
          </Trackpoint>
          <Trackpoint>
            <Time>2021-08-01T09:16:53.000Z</Time>
            <Position>
              <LatitudeDegrees>42.03342092223465442657470703125</LatitudeDegrees>
              <LongitudeDegrees>-2.244950272142887115478515625</LongitudeDegrees>
            </Position>
            <AltitudeMeters>1113.199951171875</AltitudeMeters>
            <DistanceMeters>363195.94750933</DistanceMeters>
          </Trackpoint>
          <Trackpoint>
            <Time>2021-08-01T09:16:55.000Z</Time>
            <Position>
              <LatitudeDegrees>42.033441960811614990234375</LatitudeDegrees>
              <LongitudeDegrees>-2.2446228750050067901611328125</LongitudeDegrees>
            </Position>
            <AltitudeMeters>1112</AltitudeMeters>
            <DistanceMeters>363223.1145152</DistanceMeters>
          </Trackpoint>
          <Trackpoint>
            <Time>2021-08-01T09:16:57.000Z</Time>
            <Position>
              <LatitudeDegrees>42.0334391109645366668701171875</LatitudeDegrees>
              <LongitudeDegrees>-2.24429405294358730316162109375</LongitudeDegrees>
            </Position>
            <AltitudeMeters>1110.800048828125</AltitudeMeters>
            <DistanceMeters>363250.29979644</DistanceMeters>
          </Trackpoint>
          <Trackpoint>
            <Time>2021-08-01T09:16:58.000Z</Time>
            <Position>
              <LatitudeDegrees>42.03342117369174957275390625</LatitudeDegrees>
              <LongitudeDegrees>-2.24413144402205944061279296875</LongitudeDegrees>
            </Position>
            <AltitudeMeters>1110.199951171875</AltitudeMeters>
            <DistanceMeters>363263.8902778</DistanceMeters>
          </Trackpoint>
          <Trackpoint>
            <Time>2021-08-01T09:16:59.000Z</Time>
            <Position>
              <LatitudeDegrees>42.03338873572647571563720703125</LatitudeDegrees>
              <LongitudeDegrees>-2.24397302605211734771728515625</LongitudeDegrees>
            </Position>
            <AltitudeMeters>1109.4000244140625</AltitudeMeters>
            <DistanceMeters>363277.47477787</DistanceMeters>
          </Trackpoint>
          <Trackpoint>
            <Time>2021-08-01T09:17:01.000Z</Time>
            <Position>
              <LatitudeDegrees>42.033300139009952545166015625</LatitudeDegrees>
              <LongitudeDegrees>-2.2436686791479587554931640625</LongitudeDegrees>
            </Position>
            <AltitudeMeters>1107.5999755859375</AltitudeMeters>
            <DistanceMeters>363304.49847751</DistanceMeters>
          </Trackpoint>
          <Trackpoint>
            <Time>2021-08-01T09:17:03.000Z</Time>
            <Position>
              <LatitudeDegrees>42.0331957004964351654052734375</LatitudeDegrees>
              <LongitudeDegrees>-2.24337975494563579559326171875</LongitudeDegrees>
            </Position>
            <AltitudeMeters>1106.199951171875</AltitudeMeters>
            <DistanceMeters>363331.06214129</DistanceMeters>
          </Trackpoint>
          <Trackpoint>
            <Time>2021-08-01T09:17:08.000Z</Time>
            <Position>
              <LatitudeDegrees>42.03294114209711551666259765625</LatitudeDegrees>
              <LongitudeDegrees>-2.2426848113536834716796875</LongitudeDegrees>
            </Position>
            <AltitudeMeters>1105.199951171875</AltitudeMeters>
            <DistanceMeters>363395.11994478</DistanceMeters>
          </Trackpoint>
          <Trackpoint>
            <Time>2021-08-01T09:17:13.000Z</Time>
            <Position>
              <LatitudeDegrees>42.03266772441565990447998046875</LatitudeDegrees>
              <LongitudeDegrees>-2.24204267375171184539794921875</LongitudeDegrees>
            </Position>
            <AltitudeMeters>1104.5999755859375</AltitudeMeters>
            <DistanceMeters>363456.31021326</DistanceMeters>
          </Trackpoint>
          <Trackpoint>
            <Time>2021-08-01T09:17:14.000Z</Time>
            <Position>
              <LatitudeDegrees>42.03260888345539569854736328125</LatitudeDegrees>
              <LongitudeDegrees>-2.24192247726023197174072265625</LongitudeDegrees>
            </Position>
            <AltitudeMeters>1104.199951171875</AltitudeMeters>
            <DistanceMeters>363468.21095773</DistanceMeters>
          </Trackpoint>
          <Trackpoint>
            <Time>2021-08-01T09:17:19.000Z</Time>
            <Position>
              <LatitudeDegrees>42.032323814928531646728515625</LatitudeDegrees>
              <LongitudeDegrees>-2.2413289546966552734375</LongitudeDegrees>
            </Position>
            <AltitudeMeters>1103</AltitudeMeters>
            <DistanceMeters>363526.64303816</DistanceMeters>
          </Trackpoint>
          <Trackpoint>
            <Time>2021-08-01T09:17:25.000Z</Time>
            <Position>
              <LatitudeDegrees>42.03203522600233554840087890625</LatitudeDegrees>
              <LongitudeDegrees>-2.24061322398483753204345703125</LongitudeDegrees>
            </Position>
            <AltitudeMeters>1102.199951171875</AltitudeMeters>
            <DistanceMeters>363593.96978384</DistanceMeters>
          </Trackpoint>
          <Trackpoint>
            <Time>2021-08-01T09:17:26.000Z</Time>
            <Position>
              <LatitudeDegrees>42.03198895789682865142822265625</LatitudeDegrees>
              <LongitudeDegrees>-2.24049679934978485107421875</LongitudeDegrees>
            </Position>
            <AltitudeMeters>1101.800048828125</AltitudeMeters>
            <DistanceMeters>363604.88586779</DistanceMeters>
          </Trackpoint>
          <Trackpoint>
            <Time>2021-08-01T09:17:29.000Z</Time>
            <Position>
              <LatitudeDegrees>42.03184939920902252197265625</LatitudeDegrees>
              <LongitudeDegrees>-2.2401492856442928314208984375</LongitudeDegrees>
            </Position>
            <AltitudeMeters>1100.5999755859375</AltitudeMeters>
            <DistanceMeters>363637.5460394</DistanceMeters>
          </Trackpoint>
          <Trackpoint>
            <Time>2021-08-01T09:17:31.000Z</Time>
            <Position>
              <LatitudeDegrees>42.03175711445510387420654296875</LatitudeDegrees>
              <LongitudeDegrees>-2.23991333507001399993896484375</LongitudeDegrees>
            </Position>
            <AltitudeMeters>1099</AltitudeMeters>
            <DistanceMeters>363659.59162273</DistanceMeters>
          </Trackpoint>
          <Trackpoint>
            <Time>2021-08-01T09:17:34.000Z</Time>
            <Position>
              <LatitudeDegrees>42.03161160461604595184326171875</LatitudeDegrees>
              <LongitudeDegrees>-2.23955660127103328704833984375</LongitudeDegrees>
            </Position>
            <AltitudeMeters>1097.4000244140625</AltitudeMeters>
            <DistanceMeters>363693.23778988</DistanceMeters>
          </Trackpoint>
          <Trackpoint>
            <Time>2021-08-01T09:17:36.000Z</Time>
            <Position>
              <LatitudeDegrees>42.03151571564376354217529296875</LatitudeDegrees>
              <LongitudeDegrees>-2.239313609898090362548828125</LongitudeDegrees>
            </Position>
            <AltitudeMeters>1096.4000244140625</AltitudeMeters>
            <DistanceMeters>363715.98552604</DistanceMeters>
          </Trackpoint>
          <Trackpoint>
            <Time>2021-08-01T09:17:38.000Z</Time>
            <Position>
              <LatitudeDegrees>42.031425274908542633056640625</LatitudeDegrees>
              <LongitudeDegrees>-2.23906449973583221435546875</LongitudeDegrees>
            </Position>
            <AltitudeMeters>1095</AltitudeMeters>
            <DistanceMeters>363738.90844357</DistanceMeters>
          </Trackpoint>
          <Trackpoint>
            <Time>2021-08-01T09:17:41.000Z</Time>
            <Position>
              <LatitudeDegrees>42.0313074253499507904052734375</LatitudeDegrees>
              <LongitudeDegrees>-2.23867147229611873626708984375</LongitudeDegrees>
            </Position>
            <AltitudeMeters>1093.199951171875</AltitudeMeters>
            <DistanceMeters>363773.94869891</DistanceMeters>
          </Trackpoint>
          <Trackpoint>
            <Time>2021-08-01T09:17:44.000Z</Time>
            <Position>
              <LatitudeDegrees>42.03119686804711818695068359375</LatitudeDegrees>
              <LongitudeDegrees>-2.2382690571248531341552734375</LongitudeDegrees>
            </Position>
            <AltitudeMeters>1091.800048828125</AltitudeMeters>
            <DistanceMeters>363809.42027615</DistanceMeters>
          </Trackpoint>
          <Trackpoint>
            <Time>2021-08-01T09:17:46.000Z</Time>
            <Position>
              <LatitudeDegrees>42.03112629242241382598876953125</LatitudeDegrees>
              <LongitudeDegrees>-2.2379971481859683990478515625</LongitudeDegrees>
            </Position>
            <AltitudeMeters>1090.199951171875</AltitudeMeters>
            <DistanceMeters>363833.23276489</DistanceMeters>
          </Trackpoint>
          <Trackpoint>
            <Time>2021-08-01T09:17:47.000Z</Time>
            <Position>
              <LatitudeDegrees>42.03109125606715679168701171875</LatitudeDegrees>
              <LongitudeDegrees>-2.23786060698330402374267578125</LongitudeDegrees>
            </Position>
            <AltitudeMeters>1089</AltitudeMeters>
            <DistanceMeters>363845.17592559</DistanceMeters>
          </Trackpoint>
          <Trackpoint>
            <Time>2021-08-01T09:17:49.000Z</Time>
            <Position>
              <LatitudeDegrees>42.03102084808051586151123046875</LatitudeDegrees>
              <LongitudeDegrees>-2.23758785985410213470458984375</LongitudeDegrees>
            </Position>
            <AltitudeMeters>1087.4000244140625</AltitudeMeters>
            <DistanceMeters>363869.04768787</DistanceMeters>
          </Trackpoint>
          <Trackpoint>
            <Time>2021-08-01T09:17:51.000Z</Time>
            <Position>
              <LatitudeDegrees>42.03094189055263996124267578125</LatitudeDegrees>
              <LongitudeDegrees>-2.23731762729585170745849609375</LongitudeDegrees>
            </Position>
            <AltitudeMeters>1086.199951171875</AltitudeMeters>
            <DistanceMeters>363893.05505463</DistanceMeters>
          </Trackpoint>
          <Trackpoint>
            <Time>2021-08-01T09:17:57.000Z</Time>
            <Position>
              <LatitudeDegrees>42.030739299952983856201171875</LatitudeDegrees>
              <LongitudeDegrees>-2.23657482303678989410400390625</LongitudeDegrees>
            </Position>
            <AltitudeMeters>1085.800048828125</AltitudeMeters>
            <DistanceMeters>363958.4741669</DistanceMeters>
          </Trackpoint>
          <Trackpoint>
            <Time>2021-08-01T09:17:59.000Z</Time>
            <Position>
              <LatitudeDegrees>42.03068339265882968902587890625</LatitudeDegrees>
              <LongitudeDegrees>-2.2363574802875518798828125</LongitudeDegrees>
            </Position>
            <AltitudeMeters>1087.199951171875</AltitudeMeters>
            <DistanceMeters>363977.48948496</DistanceMeters>
          </Trackpoint>
          <Trackpoint>
            <Time>2021-08-01T09:18:01.000Z</Time>
            <Position>
              <LatitudeDegrees>42.03063460998237133026123046875</LatitudeDegrees>
              <LongitudeDegrees>-2.2361589968204498291015625</LongitudeDegrees>
            </Position>
            <AltitudeMeters>1088.4000244140625</AltitudeMeters>
            <DistanceMeters>363994.77390132</DistanceMeters>
          </Trackpoint>
          <Trackpoint>
            <Time>2021-08-01T09:18:03.000Z</Time>
            <Position>
              <LatitudeDegrees>42.0305902697145938873291015625</LatitudeDegrees>
              <LongitudeDegrees>-2.2359791211783885955810546875</LongitudeDegrees>
            </Position>
            <AltitudeMeters>1089.5999755859375</AltitudeMeters>
            <DistanceMeters>364010.44207474</DistanceMeters>
          </Trackpoint>
          <Trackpoint>
            <Time>2021-08-01T09:18:06.000Z</Time>
            <Position>
              <LatitudeDegrees>42.0305299200117588043212890625</LatitudeDegrees>
              <LongitudeDegrees>-2.23573990166187286376953125</LongitudeDegrees>
            </Position>
            <AltitudeMeters>1091</AltitudeMeters>
            <DistanceMeters>364031.32893791</DistanceMeters>
          </Trackpoint>
          <Trackpoint>
            <Time>2021-08-01T09:18:11.000Z</Time>
            <Position>
              <LatitudeDegrees>42.0304499566555023193359375</LatitudeDegrees>
              <LongitudeDegrees>-2.23539314232766628265380859375</LongitudeDegrees>
            </Position>
            <AltitudeMeters>1092</AltitudeMeters>
            <DistanceMeters>364061.34670228</DistanceMeters>
          </Trackpoint>
          <Trackpoint>
            <Time>2021-08-01T09:18:22.000Z</Time>
            <Position>
              <LatitudeDegrees>42.03030176460742950439453125</LatitudeDegrees>
              <LongitudeDegrees>-2.23467850126326084136962890625</LongitudeDegrees>
            </Position>
            <AltitudeMeters>1092.4000244140625</AltitudeMeters>
            <DistanceMeters>364122.68819455</DistanceMeters>
          </Trackpoint>
          <Trackpoint>
            <Time>2021-08-01T09:18:34.000Z</Time>
            <Position>
              <LatitudeDegrees>42.030169330537319183349609375</LatitudeDegrees>
              <LongitudeDegrees>-2.23391893319785594940185546875</LongitudeDegrees>
            </Position>
            <AltitudeMeters>1093.199951171875</AltitudeMeters>
            <DistanceMeters>364187.1915975</DistanceMeters>
          </Trackpoint>
          <Trackpoint>
            <Time>2021-08-01T09:18:40.000Z</Time>
            <Position>
              <LatitudeDegrees>42.03007369302213191986083984375</LatitudeDegrees>
              <LongitudeDegrees>-2.23356957547366619110107421875</LongitudeDegrees>
            </Position>
            <AltitudeMeters>1093.4000244140625</AltitudeMeters>
            <DistanceMeters>364217.9735065</DistanceMeters>
          </Trackpoint>
          <Trackpoint>
            <Time>2021-08-01T09:18:50.000Z</Time>
            <Position>
              <LatitudeDegrees>42.02989834360778331756591796875</LatitudeDegrees>
              <LongitudeDegrees>-2.233075462281703948974609375</LongitudeDegrees>
            </Position>
            <AltitudeMeters>1094.4000244140625</AltitudeMeters>
            <DistanceMeters>364263.24683023</DistanceMeters>
          </Trackpoint>
          <Trackpoint>
            <Time>2021-08-01T09:19:01.000Z</Time>
            <Position>
              <LatitudeDegrees>42.02969701029360294342041015625</LatitudeDegrees>
              <LongitudeDegrees>-2.23251094110310077667236328125</LongitudeDegrees>
            </Position>
            <AltitudeMeters>1093.199951171875</AltitudeMeters>
            <DistanceMeters>364315.01938658</DistanceMeters>
          </Trackpoint>
          <Trackpoint>
            <Time>2021-08-01T09:19:06.000Z</Time>
            <Position>
              <LatitudeDegrees>42.02957631088793277740478515625</LatitudeDegrees>
              <LongitudeDegrees>-2.23217801190912723541259765625</LongitudeDegrees>
            </Position>
            <AltitudeMeters>1092</AltitudeMeters>
            <DistanceMeters>364345.64792803</DistanceMeters>
          </Trackpoint>
          <Trackpoint>
            <Time>2021-08-01T09:19:09.000Z</Time>
            <Position>
              <LatitudeDegrees>42.0294942520558834075927734375</LatitudeDegrees>
              <LongitudeDegrees>-2.23194968886673450469970703125</LongitudeDegrees>
            </Position>
            <AltitudeMeters>1090.800048828125</AltitudeMeters>
            <DistanceMeters>364366.61806543</DistanceMeters>
          </Trackpoint>
          <Trackpoint>
            <Time>2021-08-01T09:19:12.000Z</Time>
            <Position>
              <LatitudeDegrees>42.02939844690263271331787109375</LatitudeDegrees>
              <LongitudeDegrees>-2.2317066974937915802001953125</LongitudeDegrees>
            </Position>
            <AltitudeMeters>1089.800048828125</AltitudeMeters>
            <DistanceMeters>364389.36203011</DistanceMeters>
          </Trackpoint>
          <Trackpoint>
            <Time>2021-08-01T09:19:14.000Z</Time>
            <Position>
              <LatitudeDegrees>42.029327116906642913818359375</LatitudeDegrees>
              <LongitudeDegrees>-2.2315554879605770111083984375</LongitudeDegrees>
            </Position>
            <AltitudeMeters>1088.4000244140625</AltitudeMeters>
            <DistanceMeters>364404.17126596</DistanceMeters>
          </Trackpoint>
          <Trackpoint>
            <Time>2021-08-01T09:19:17.000Z</Time>
            <Position>
              <LatitudeDegrees>42.029215134680271148681640625</LatitudeDegrees>
              <LongitudeDegrees>-2.2313798032701015472412109375</LongitudeDegrees>
            </Position>
            <AltitudeMeters>1087.199951171875</AltitudeMeters>
            <DistanceMeters>364423.31059931</DistanceMeters>
          </Trackpoint>
          <Trackpoint>
            <Time>2021-08-01T09:19:28.000Z</Time>
            <Position>
              <LatitudeDegrees>42.0290832035243511199951171875</LatitudeDegrees>
              <LongitudeDegrees>-2.2311524860560894012451171875</LongitudeDegrees>
            </Position>
            <AltitudeMeters>1087</AltitudeMeters>
            <DistanceMeters>364447.16060089</DistanceMeters>
          </Trackpoint>
          <Trackpoint>
            <Time>2021-08-01T09:19:33.000Z</Time>
            <Position>
              <LatitudeDegrees>42.029119916260242462158203125</LatitudeDegrees>
              <LongitudeDegrees>-2.2311025299131870269775390625</LongitudeDegrees>
            </Position>
            <AltitudeMeters>1086.4000244140625</AltitudeMeters>
            <DistanceMeters>364452.9704568</DistanceMeters>
          </Trackpoint>
          <Trackpoint>
            <Time>2021-08-01T09:27:05.000Z</Time>
            <Position>
              <LatitudeDegrees>42.029165513813495635986328125</LatitudeDegrees>
              <LongitudeDegrees>-2.23102550022304058074951171875</LongitudeDegrees>
            </Position>
            <AltitudeMeters>1086.199951171875</AltitudeMeters>
            <DistanceMeters>364461.1134201</DistanceMeters>
          </Trackpoint>
          <Trackpoint>
            <Time>2021-08-01T09:27:06.000Z</Time>
            <Position>
              <LatitudeDegrees>42.02917481772601604461669921875</LatitudeDegrees>
              <LongitudeDegrees>-2.23100504837930202484130859375</LongitudeDegrees>
            </Position>
            <AltitudeMeters>1086</AltitudeMeters>
            <DistanceMeters>364463.09763615</DistanceMeters>
          </Trackpoint>
          <Trackpoint>
            <Time>2021-08-01T09:27:12.000Z</Time>
            <Position>
              <LatitudeDegrees>42.0292122848331928253173828125</LatitudeDegrees>
              <LongitudeDegrees>-2.23080153577029705047607421875</LongitudeDegrees>
            </Position>
            <AltitudeMeters>1085.199951171875</AltitudeMeters>
            <DistanceMeters>364480.43213423</DistanceMeters>
          </Trackpoint>
          <Trackpoint>
            <Time>2021-08-01T09:27:21.000Z</Time>
            <Position>
              <LatitudeDegrees>42.02923835255205631256103515625</LatitudeDegrees>
              <LongitudeDegrees>-2.230589725077152252197265625</LongitudeDegrees>
            </Position>
            <AltitudeMeters>1084</AltitudeMeters>
            <DistanceMeters>364498.18204598</DistanceMeters>
          </Trackpoint>
          <Trackpoint>
            <Time>2021-08-01T09:27:24.000Z</Time>
            <Position>
              <LatitudeDegrees>42.02923650853335857391357421875</LatitudeDegrees>
              <LongitudeDegrees>-2.23055041395127773284912109375</LongitudeDegrees>
            </Position>
            <AltitudeMeters>1083.199951171875</AltitudeMeters>
            <DistanceMeters>364501.43801124</DistanceMeters>
          </Trackpoint>
          <Trackpoint>
            <Time>2021-08-01T09:47:08.000Z</Time>
            <Position>
              <LatitudeDegrees>42.0292917452752590179443359375</LatitudeDegrees>
              <LongitudeDegrees>-2.23055980168282985687255859375</LongitudeDegrees>
            </Position>
            <AltitudeMeters>1084.4000244140625</AltitudeMeters>
            <DistanceMeters>364507.63445256</DistanceMeters>
          </Trackpoint>
          <Trackpoint>
            <Time>2021-08-01T09:47:13.000Z</Time>
            <Position>
              <LatitudeDegrees>42.0292847044765949249267578125</LatitudeDegrees>
              <LongitudeDegrees>-2.23032074980437755584716796875</LongitudeDegrees>
            </Position>
            <AltitudeMeters>1083</AltitudeMeters>
            <DistanceMeters>364527.41325363</DistanceMeters>
          </Trackpoint>
          <Trackpoint>
            <Time>2021-08-01T09:47:15.000Z</Time>
            <Position>
              <LatitudeDegrees>42.02926768921315670013427734375</LatitudeDegrees>
              <LongitudeDegrees>-2.23018504679203033447265625</LongitudeDegrees>
            </Position>
            <AltitudeMeters>1081.5999755859375</AltitudeMeters>
            <DistanceMeters>364538.79109068</DistanceMeters>
          </Trackpoint>
          <Trackpoint>
            <Time>2021-08-01T09:47:17.000Z</Time>
            <Position>
              <LatitudeDegrees>42.02924438752233982086181640625</LatitudeDegrees>
              <LongitudeDegrees>-2.23004163242876529693603515625</LongitudeDegrees>
            </Position>
            <AltitudeMeters>1080.4000244140625</AltitudeMeters>
            <DistanceMeters>364550.92775443</DistanceMeters>
          </Trackpoint>
          <Trackpoint>
            <Time>2021-08-01T09:47:21.000Z</Time>
            <Position>
              <LatitudeDegrees>42.02918034978210926055908203125</LatitudeDegrees>
              <LongitudeDegrees>-2.22973653115332126617431640625</LongitudeDegrees>
            </Position>
            <AltitudeMeters>1079.4000244140625</AltitudeMeters>
            <DistanceMeters>364577.13962953</DistanceMeters>
          </Trackpoint>
          <Trackpoint>
            <Time>2021-08-01T09:47:27.000Z</Time>
            <Position>
              <LatitudeDegrees>42.02901824377477169036865234375</LatitudeDegrees>
              <LongitudeDegrees>-2.2292561642825603485107421875</LongitudeDegrees>
            </Position>
            <AltitudeMeters>1078.4000244140625</AltitudeMeters>
            <DistanceMeters>364620.76072131</DistanceMeters>
          </Trackpoint>
          <Trackpoint>
            <Time>2021-08-01T09:47:32.000Z</Time>
            <Position>
              <LatitudeDegrees>42.02884004451334476470947265625</LatitudeDegrees>
              <LongitudeDegrees>-2.2288773022592067718505859375</LongitudeDegrees>
            </Position>
            <AltitudeMeters>1077.199951171875</AltitudeMeters>
            <DistanceMeters>364657.83502583</DistanceMeters>
          </Trackpoint>
          <Trackpoint>
            <Time>2021-08-01T09:47:41.000Z</Time>
            <Position>
              <LatitudeDegrees>42.0285641960799694061279296875</LatitudeDegrees>
              <LongitudeDegrees>-2.22822443582117557525634765625</LongitudeDegrees>
            </Position>
            <AltitudeMeters>1077</AltitudeMeters>
            <DistanceMeters>364719.93256615</DistanceMeters>
          </Trackpoint>
          <Trackpoint>
            <Time>2021-08-01T09:47:52.000Z</Time>
            <Position>
              <LatitudeDegrees>42.0282748527824878692626953125</LatitudeDegrees>
              <LongitudeDegrees>-2.22754080779850482940673828125</LongitudeDegrees>
            </Position>
            <AltitudeMeters>1077.4000244140625</AltitudeMeters>
            <DistanceMeters>364784.98360998</DistanceMeters>
          </Trackpoint>
          <Trackpoint>
            <Time>2021-08-01T09:48:03.000Z</Time>
            <Position>
              <LatitudeDegrees>42.0278497226536273956298828125</LatitudeDegrees>
              <LongitudeDegrees>-2.22701123915612697601318359375</LongitudeDegrees>
            </Position>
            <AltitudeMeters>1076.5999755859375</AltitudeMeters>
            <DistanceMeters>364849.45025408</DistanceMeters>
          </Trackpoint>
          <Trackpoint>
            <Time>2021-08-01T09:48:06.000Z</Time>
            <Position>
              <LatitudeDegrees>42.027718462049961090087890625</LatitudeDegrees>
              <LongitudeDegrees>-2.226863466203212738037109375</LongitudeDegrees>
            </Position>
            <AltitudeMeters>1076</AltitudeMeters>
            <DistanceMeters>364868.49499221</DistanceMeters>
          </Trackpoint>
          <Trackpoint>
            <Time>2021-08-01T09:48:16.000Z</Time>
            <Position>
              <LatitudeDegrees>42.02726877294480800628662109375</LatitudeDegrees>
              <LongitudeDegrees>-2.226384691894054412841796875</LongitudeDegrees>
            </Position>
            <AltitudeMeters>1075.800048828125</AltitudeMeters>
            <DistanceMeters>364932.30739439</DistanceMeters>
          </Trackpoint>
          <Trackpoint>
            <Time>2021-08-01T09:48:26.000Z</Time>
            <Position>
              <LatitudeDegrees>42.0268123783171176910400390625</LatitudeDegrees>
              <LongitudeDegrees>-2.22593165002763271331787109375</LongitudeDegrees>
            </Position>
            <AltitudeMeters>1075.800048828125</AltitudeMeters>
            <DistanceMeters>364995.42158853</DistanceMeters>
          </Trackpoint>
          <Trackpoint>
            <Time>2021-08-01T09:48:35.000Z</Time>
            <Position>
              <LatitudeDegrees>42.02634659595787525177001953125</LatitudeDegrees>
              <LongitudeDegrees>-2.22560651600360870361328125</LongitudeDegrees>
            </Position>
            <AltitudeMeters>1076</AltitudeMeters>
            <DistanceMeters>365053.81919644</DistanceMeters>
          </Trackpoint>
          <Trackpoint>
            <Time>2021-08-01T09:48:45.000Z</Time>
            <Position>
              <LatitudeDegrees>42.0258360542356967926025390625</LatitudeDegrees>
              <LongitudeDegrees>-2.22525388933718204498291015625</LongitudeDegrees>
            </Position>
            <AltitudeMeters>1076.199951171875</AltitudeMeters>
            <DistanceMeters>365117.68648079</DistanceMeters>
          </Trackpoint>
          <Trackpoint>
            <Time>2021-08-01T09:48:55.000Z</Time>
            <Position>
              <LatitudeDegrees>42.025389969348907470703125</LatitudeDegrees>
              <LongitudeDegrees>-2.224835045635700225830078125</LongitudeDegrees>
            </Position>
            <AltitudeMeters>1076.199951171875</AltitudeMeters>
            <DistanceMeters>365178.22051172</DistanceMeters>
          </Trackpoint>
          <Trackpoint>
            <Time>2021-08-01T09:49:00.000Z</Time>
            <Position>
              <LatitudeDegrees>42.0251624844968318939208984375</LatitudeDegrees>
              <LongitudeDegrees>-2.22467134706676006317138671875</LongitudeDegrees>
            </Position>
            <AltitudeMeters>1077.199951171875</AltitudeMeters>
            <DistanceMeters>365206.93053398</DistanceMeters>
          </Trackpoint>
          <Trackpoint>
            <Time>2021-08-01T09:49:11.000Z</Time>
            <Position>
              <LatitudeDegrees>42.02465060167014598846435546875</LatitudeDegrees>
              <LongitudeDegrees>-2.2243265993893146514892578125</LongitudeDegrees>
            </Position>
            <AltitudeMeters>1078</AltitudeMeters>
            <DistanceMeters>365270.63671544</DistanceMeters>
          </Trackpoint>
          <Trackpoint>
            <Time>2021-08-01T09:49:18.000Z</Time>
            <Position>
              <LatitudeDegrees>42.024354971945285797119140625</LatitudeDegrees>
              <LongitudeDegrees>-2.2240872122347354888916015625</LongitudeDegrees>
            </Position>
            <AltitudeMeters>1078.199951171875</AltitudeMeters>
            <DistanceMeters>365309.03526935</DistanceMeters>
          </Trackpoint>
          <Trackpoint>
            <Time>2021-08-01T09:49:30.000Z</Time>
            <Position>
              <LatitudeDegrees>42.0239159278571605682373046875</LatitudeDegrees>
              <LongitudeDegrees>-2.22362830303609371185302734375</LongitudeDegrees>
            </Position>
            <AltitudeMeters>1079.199951171875</AltitudeMeters>
            <DistanceMeters>365370.90328001</DistanceMeters>
          </Trackpoint>
          <Trackpoint>
            <Time>2021-08-01T09:49:39.000Z</Time>
            <Position>
              <LatitudeDegrees>42.0235779695212841033935546875</LatitudeDegrees>
              <LongitudeDegrees>-2.2233351878821849822998046875</LongitudeDegrees>
            </Position>
            <AltitudeMeters>1080</AltitudeMeters>
            <DistanceMeters>365415.65026907</DistanceMeters>
          </Trackpoint>
          <Trackpoint>
            <Time>2021-08-01T09:49:50.000Z</Time>
            <Position>
              <LatitudeDegrees>42.02320422045886516571044921875</LatitudeDegrees>
              <LongitudeDegrees>-2.2230123169720172882080078125</LongitudeDegrees>
            </Position>
            <AltitudeMeters>1080.5999755859375</AltitudeMeters>
            <DistanceMeters>365465.07850384</DistanceMeters>
          </Trackpoint>
          <Trackpoint>
            <Time>2021-08-01T09:50:04.000Z</Time>
            <Position>
              <LatitudeDegrees>42.022779844701290130615234375</LatitudeDegrees>
              <LongitudeDegrees>-2.222529351711273193359375</LongitudeDegrees>
            </Position>
            <AltitudeMeters>1081.4000244140625</AltitudeMeters>
            <DistanceMeters>365526.93074912</DistanceMeters>
          </Trackpoint>
          <Trackpoint>
            <Time>2021-08-01T09:50:14.000Z</Time>
            <Position>
              <LatitudeDegrees>42.02248572371900081634521484375</LatitudeDegrees>
              <LongitudeDegrees>-2.2222539223730564117431640625</LongitudeDegrees>
            </Position>
            <AltitudeMeters>1081.5999755859375</AltitudeMeters>
            <DistanceMeters>365566.80926204</DistanceMeters>
          </Trackpoint>
          <Trackpoint>
            <Time>2021-08-01T09:50:20.000Z</Time>
            <Position>
              <LatitudeDegrees>42.02232529409229755401611328125</LatitudeDegrees>
              <LongitudeDegrees>-2.22212693654000759124755859375</LongitudeDegrees>
            </Position>
            <AltitudeMeters>1082.800048828125</AltitudeMeters>
            <DistanceMeters>365587.52377803</DistanceMeters>
          </Trackpoint>
          <Trackpoint>
            <Time>2021-08-01T09:50:31.000Z</Time>
            <Position>
              <LatitudeDegrees>42.0220672152936458587646484375</LatitudeDegrees>
              <LongitudeDegrees>-2.22197078168392181396484375</LongitudeDegrees>
            </Position>
            <AltitudeMeters>1084</AltitudeMeters>
            <DistanceMeters>365619.01678386</DistanceMeters>
          </Trackpoint>
          <Trackpoint>
            <Time>2021-08-01T09:50:44.000Z</Time>
            <Position>
              <LatitudeDegrees>42.0217274129390716552734375</LatitudeDegrees>
              <LongitudeDegrees>-2.22190146334469318389892578125</LongitudeDegrees>
            </Position>
            <AltitudeMeters>1085</AltitudeMeters>
            <DistanceMeters>365657.26925629</DistanceMeters>
          </Trackpoint>
          <Trackpoint>
            <Time>2021-08-01T09:50:59.000Z</Time>
            <Position>
              <LatitudeDegrees>42.0212132669985294342041015625</LatitudeDegrees>
              <LongitudeDegrees>-2.22206306643784046173095703125</LongitudeDegrees>
            </Position>
            <AltitudeMeters>1083.800048828125</AltitudeMeters>
            <DistanceMeters>365716.03404076</DistanceMeters>
          </Trackpoint>
          <Trackpoint>
            <Time>2021-08-01T09:51:03.000Z</Time>
            <Position>
              <LatitudeDegrees>42.02098242938518524169921875</LatitudeDegrees>
              <LongitudeDegrees>-2.22212970256805419921875</LongitudeDegrees>
            </Position>
            <AltitudeMeters>1082.4000244140625</AltitudeMeters>
            <DistanceMeters>365742.31094631</DistanceMeters>
          </Trackpoint>
          <Trackpoint>
            <Time>2021-08-01T09:51:05.000Z</Time>
            <Position>
              <LatitudeDegrees>42.02085963450372219085693359375</LatitudeDegrees>
              <LongitudeDegrees>-2.2221754677593708038330078125</LongitudeDegrees>
            </Position>
            <AltitudeMeters>1081.4000244140625</AltitudeMeters>
            <DistanceMeters>365756.49254927</DistanceMeters>
          </Trackpoint>
          <Trackpoint>
            <Time>2021-08-01T09:51:10.000Z</Time>
            <Position>
              <LatitudeDegrees>42.02056509442627429962158203125</LatitudeDegrees>
              <LongitudeDegrees>-2.2222804091870784759521484375</LongitudeDegrees>
            </Position>
            <AltitudeMeters>1080.4000244140625</AltitudeMeters>
            <DistanceMeters>365790.40417405</DistanceMeters>
          </Trackpoint>
          <Trackpoint>
            <Time>2021-08-01T09:51:16.000Z</Time>
            <Position>
              <LatitudeDegrees>42.020269297063350677490234375</LatitudeDegrees>
              <LongitudeDegrees>-2.22239884547889232635498046875</LongitudeDegrees>
            </Position>
            <AltitudeMeters>1080</AltitudeMeters>
            <DistanceMeters>365824.75261809</DistanceMeters>
          </Trackpoint>
          <Trackpoint>
            <Time>2021-08-01T09:51:34.000Z</Time>
            <Position>
              <LatitudeDegrees>42.01974869705736637115478515625</LatitudeDegrees>
              <LongitudeDegrees>-2.22252524457871913909912109375</LongitudeDegrees>
            </Position>
            <AltitudeMeters>1081.4000244140625</AltitudeMeters>
            <DistanceMeters>365883.63154146</DistanceMeters>
          </Trackpoint>
          <Trackpoint>
            <Time>2021-08-01T09:51:48.000Z</Time>
            <Position>
              <LatitudeDegrees>42.01941761188209056854248046875</LatitudeDegrees>
              <LongitudeDegrees>-2.22259766422212123870849609375</LongitudeDegrees>
            </Position>
            <AltitudeMeters>1082.5999755859375</AltitudeMeters>
            <DistanceMeters>365920.96531115</DistanceMeters>
          </Trackpoint>
          <Trackpoint>
            <Time>2021-08-01T09:52:06.000Z</Time>
            <Position>
              <LatitudeDegrees>42.01892626471817493438720703125</LatitudeDegrees>
              <LongitudeDegrees>-2.22295381128787994384765625</LongitudeDegrees>
            </Position>
            <AltitudeMeters>1083.4000244140625</AltitudeMeters>
            <DistanceMeters>365983.0784092</DistanceMeters>
          </Trackpoint>
          <Trackpoint>
            <Time>2021-08-01T09:52:07.000Z</Time>
            <Position>
              <LatitudeDegrees>42.0189025439321994781494140625</LatitudeDegrees>
              <LongitudeDegrees>-2.222979962825775146484375</LongitudeDegrees>
            </Position>
            <AltitudeMeters>1083.5999755859375</AltitudeMeters>
            <DistanceMeters>365986.49144284</DistanceMeters>
          </Trackpoint>
          <Trackpoint>
            <Time>2021-08-01T09:52:20.000Z</Time>
            <Position>
              <LatitudeDegrees>42.01854052953422069549560546875</LatitudeDegrees>
              <LongitudeDegrees>-2.2232902608811855316162109375</LongitudeDegrees>
            </Position>
            <AltitudeMeters>1084.800048828125</AltitudeMeters>
            <DistanceMeters>366034.26030506</DistanceMeters>
          </Trackpoint>
          <Trackpoint>
            <Time>2021-08-01T09:52:34.000Z</Time>
            <Position>
              <LatitudeDegrees>42.01804817654192447662353515625</LatitudeDegrees>
              <LongitudeDegrees>-2.22334885038435459136962890625</LongitudeDegrees>
            </Position>
            <AltitudeMeters>1085.800048828125</AltitudeMeters>
            <DistanceMeters>366089.27396119</DistanceMeters>
          </Trackpoint>
          <Trackpoint>
            <Time>2021-08-01T09:52:46.000Z</Time>
            <Position>
              <LatitudeDegrees>42.017694376409053802490234375</LatitudeDegrees>
              <LongitudeDegrees>-2.223145924508571624755859375</LongitudeDegrees>
            </Position>
            <AltitudeMeters>1086.800048828125</AltitudeMeters>
            <DistanceMeters>366132.07872331</DistanceMeters>
          </Trackpoint>
          <Trackpoint>
            <Time>2021-08-01T09:52:56.000Z</Time>
            <Position>
              <LatitudeDegrees>42.0175014249980449676513671875</LatitudeDegrees>
              <LongitudeDegrees>-2.22282095812261104583740234375</LongitudeDegrees>
            </Position>
            <AltitudeMeters>1088</AltitudeMeters>
            <DistanceMeters>366166.4778689</DistanceMeters>
          </Trackpoint>
          <Trackpoint>
            <Time>2021-08-01T09:53:05.000Z</Time>
            <Position>
              <LatitudeDegrees>42.01734694652259349822998046875</LatitudeDegrees>
              <LongitudeDegrees>-2.22256354987621307373046875</LongitudeDegrees>
            </Position>
            <AltitudeMeters>1089.199951171875</AltitudeMeters>
            <DistanceMeters>366193.83995285</DistanceMeters>
          </Trackpoint>
          <Trackpoint>
            <Time>2021-08-01T09:53:13.000Z</Time>
            <Position>
              <LatitudeDegrees>42.0172234810888767242431640625</LatitudeDegrees>
              <LongitudeDegrees>-2.222358696162700653076171875</LongitudeDegrees>
            </Position>
            <AltitudeMeters>1090.199951171875</AltitudeMeters>
            <DistanceMeters>366215.65246526</DistanceMeters>
          </Trackpoint>
          <Trackpoint>
            <Time>2021-08-01T09:53:20.000Z</Time>
            <Position>
              <LatitudeDegrees>42.01715500093996524810791015625</LatitudeDegrees>
              <LongitudeDegrees>-2.22219449467957019805908203125</LongitudeDegrees>
            </Position>
            <AltitudeMeters>1091.199951171875</AltitudeMeters>
            <DistanceMeters>366231.2235138</DistanceMeters>
          </Trackpoint>
          <Trackpoint>
            <Time>2021-08-01T09:53:26.000Z</Time>
            <Position>
              <LatitudeDegrees>42.017123736441135406494140625</LatitudeDegrees>
              <LongitudeDegrees>-2.22206792794167995452880859375</LongitudeDegrees>
            </Position>
            <AltitudeMeters>1092.4000244140625</AltitudeMeters>
            <DistanceMeters>366242.25275492</DistanceMeters>
          </Trackpoint>
          <Trackpoint>
            <Time>2021-08-01T09:53:32.000Z</Time>
            <Position>
              <LatitudeDegrees>42.01711870729923248291015625</LatitudeDegrees>
              <LongitudeDegrees>-2.22195158712565898895263671875</LongitudeDegrees>
            </Position>
            <AltitudeMeters>1093.5999755859375</AltitudeMeters>
            <DistanceMeters>366251.8894196</DistanceMeters>
          </Trackpoint>
          <Trackpoint>
            <Time>2021-08-01T09:53:37.000Z</Time>
            <Position>
              <LatitudeDegrees>42.017114348709583282470703125</LatitudeDegrees>
              <LongitudeDegrees>-2.22184740006923675537109375</LongitudeDegrees>
            </Position>
            <AltitudeMeters>1094.800048828125</AltitudeMeters>
            <DistanceMeters>366260.51855689</DistanceMeters>
          </Trackpoint>
          <Trackpoint>
            <Time>2021-08-01T09:53:43.000Z</Time>
            <Position>
              <LatitudeDegrees>42.01711426489055156707763671875</LatitudeDegrees>
              <LongitudeDegrees>-2.22172527574002742767333984375</LongitudeDegrees>
            </Position>
            <AltitudeMeters>1095.800048828125</AltitudeMeters>
            <DistanceMeters>366270.61735303</DistanceMeters>
          </Trackpoint>
          <Trackpoint>
            <Time>2021-08-01T09:53:49.000Z</Time>
            <Position>
              <LatitudeDegrees>42.01711812056601047515869140625</LatitudeDegrees>
              <LongitudeDegrees>-2.22160709090530872344970703125</LongitudeDegrees>
            </Position>
            <AltitudeMeters>1097</AltitudeMeters>
            <DistanceMeters>366280.40002905</DistanceMeters>
          </Trackpoint>
          <Trackpoint>
            <Time>2021-08-01T09:53:54.000Z</Time>
            <Position>
              <LatitudeDegrees>42.0171319507062435150146484375</LatitudeDegrees>
              <LongitudeDegrees>-2.22150131128728389739990234375</LongitudeDegrees>
            </Position>
            <AltitudeMeters>1098.199951171875</AltitudeMeters>
            <DistanceMeters>366289.28134189</DistanceMeters>
          </Trackpoint>
          <Trackpoint>
            <Time>2021-08-01T09:53:55.000Z</Time>
            <Position>
              <LatitudeDegrees>42.0171369798481464385986328125</LatitudeDegrees>
              <LongitudeDegrees>-2.22148035652935504913330078125</LongitudeDegrees>
            </Position>
            <AltitudeMeters>1098.199951171875</AltitudeMeters>
            <DistanceMeters>366291.09930998</DistanceMeters>
          </Trackpoint>
          <Trackpoint>
            <Time>2021-08-01T09:53:59.000Z</Time>
            <Position>
              <LatitudeDegrees>42.01715416274964809417724609375</LatitudeDegrees>
              <LongitudeDegrees>-2.2213969565927982330322265625</LongitudeDegrees>
            </Position>
            <AltitudeMeters>1099.199951171875</AltitudeMeters>
            <DistanceMeters>366298.25665751</DistanceMeters>
          </Trackpoint>
          <Trackpoint>
            <Time>2021-08-01T09:54:05.000Z</Time>
            <Position>
              <LatitudeDegrees>42.01720529235899448394775390625</LatitudeDegrees>
              <LongitudeDegrees>-2.22128857858479022979736328125</LongitudeDegrees>
            </Position>
            <AltitudeMeters>1100.199951171875</AltitudeMeters>
            <DistanceMeters>366308.87246431</DistanceMeters>
          </Trackpoint>
          <Trackpoint>
            <Time>2021-08-01T09:54:13.000Z</Time>
            <Position>
              <LatitudeDegrees>42.01726698316633701324462890625</LatitudeDegrees>
              <LongitudeDegrees>-2.22115564160048961639404296875</LongitudeDegrees>
            </Position>
            <AltitudeMeters>1101.4000244140625</AltitudeMeters>
            <DistanceMeters>366321.83307703</DistanceMeters>
          </Trackpoint>
          <Trackpoint>
            <Time>2021-08-01T09:54:20.000Z</Time>
            <Position>
              <LatitudeDegrees>42.0173243992030620574951171875</LatitudeDegrees>
              <LongitudeDegrees>-2.22105070017278194427490234375</LongitudeDegrees>
            </Position>
            <AltitudeMeters>1102.4000244140625</AltitudeMeters>
            <DistanceMeters>366332.61012872</DistanceMeters>
          </Trackpoint>
          <Trackpoint>
            <Time>2021-08-01T09:54:29.000Z</Time>
            <Position>
              <LatitudeDegrees>42.01739807613193988800048828125</LatitudeDegrees>
              <LongitudeDegrees>-2.22091709263622760772705078125</LongitudeDegrees>
            </Position>
            <AltitudeMeters>1103.4000244140625</AltitudeMeters>
            <DistanceMeters>366346.36899941</DistanceMeters>
          </Trackpoint>
          <Trackpoint>
            <Time>2021-08-01T09:54:35.000Z</Time>
            <Position>
              <LatitudeDegrees>42.01744333840906620025634765625</LatitudeDegrees>
              <LongitudeDegrees>-2.22082338295876979827880859375</LongitudeDegrees>
            </Position>
            <AltitudeMeters>1104.5999755859375</AltitudeMeters>
            <DistanceMeters>366355.61153819</DistanceMeters>
          </Trackpoint>
          <Trackpoint>
            <Time>2021-08-01T09:54:44.000Z</Time>
            <Position>
              <LatitudeDegrees>42.01752212829887866973876953125</LatitudeDegrees>
              <LongitudeDegrees>-2.2207019291818141937255859375</LongitudeDegrees>
            </Position>
            <AltitudeMeters>1105.800048828125</AltitudeMeters>
            <DistanceMeters>366368.94443303</DistanceMeters>
          </Trackpoint>
          <Trackpoint>
            <Time>2021-08-01T09:54:51.000Z</Time>
            <Position>
              <LatitudeDegrees>42.0175708271563053131103515625</LatitudeDegrees>
              <LongitudeDegrees>-2.22058852203190326690673828125</LongitudeDegrees>
            </Position>
            <AltitudeMeters>1106.800048828125</AltitudeMeters>
            <DistanceMeters>366379.77581121</DistanceMeters>
          </Trackpoint>
          <Trackpoint>
            <Time>2021-08-01T09:54:59.000Z</Time>
            <Position>
              <LatitudeDegrees>42.01763444580137729644775390625</LatitudeDegrees>
              <LongitudeDegrees>-2.22046899609267711639404296875</LongitudeDegrees>
            </Position>
            <AltitudeMeters>1107.800048828125</AltitudeMeters>
            <DistanceMeters>366391.93403276</DistanceMeters>
          </Trackpoint>
          <Trackpoint>
            <Time>2021-08-01T09:55:05.000Z</Time>
            <Position>
              <LatitudeDegrees>42.017676942050457000732421875</LatitudeDegrees>
              <LongitudeDegrees>-2.2203733585774898529052734375</LongitudeDegrees>
            </Position>
            <AltitudeMeters>1109</AltitudeMeters>
            <DistanceMeters>366401.14868462</DistanceMeters>
          </Trackpoint>
          <Trackpoint>
            <Time>2021-08-01T09:55:13.000Z</Time>
            <Position>
              <LatitudeDegrees>42.01773351989686489105224609375</LatitudeDegrees>
              <LongitudeDegrees>-2.2202513180673122406005859375</LongitudeDegrees>
            </Position>
            <AltitudeMeters>1110</AltitudeMeters>
            <DistanceMeters>366413.04373686</DistanceMeters>
          </Trackpoint>
          <Trackpoint>
            <Time>2021-08-01T09:55:22.000Z</Time>
            <Position>
              <LatitudeDegrees>42.0177994854748249053955078125</LatitudeDegrees>
              <LongitudeDegrees>-2.2201178781688213348388671875</LongitudeDegrees>
            </Position>
            <AltitudeMeters>1111.199951171875</AltitudeMeters>
            <DistanceMeters>366426.29715328</DistanceMeters>
          </Trackpoint>
          <Trackpoint>
            <Time>2021-08-01T09:55:27.000Z</Time>
            <Position>
              <LatitudeDegrees>42.0178355276584625244140625</LatitudeDegrees>
              <LongitudeDegrees>-2.22004269249737262725830078125</LongitudeDegrees>
            </Position>
            <AltitudeMeters>1112.199951171875</AltitudeMeters>
            <DistanceMeters>366433.69582366</DistanceMeters>
          </Trackpoint>
          <Trackpoint>
            <Time>2021-08-01T09:55:33.000Z</Time>
            <Position>
              <LatitudeDegrees>42.0178822986781597137451171875</LatitudeDegrees>
              <LongitudeDegrees>-2.21995116211473941802978515625</LongitudeDegrees>
            </Position>
            <AltitudeMeters>1113.4000244140625</AltitudeMeters>
            <DistanceMeters>366442.88152093</DistanceMeters>
          </Trackpoint>
          <Trackpoint>
            <Time>2021-08-01T09:55:43.000Z</Time>
            <Position>
              <LatitudeDegrees>42.017963938415050506591796875</LatitudeDegrees>
              <LongitudeDegrees>-2.21980481408536434173583984375</LongitudeDegrees>
            </Position>
            <AltitudeMeters>1114.4000244140625</AltitudeMeters>
            <DistanceMeters>366458.01435737</DistanceMeters>
          </Trackpoint>
          <Trackpoint>
            <Time>2021-08-01T09:55:50.000Z</Time>
            <Position>
              <LatitudeDegrees>42.01801179908215999603271484375</LatitudeDegrees>
              <LongitudeDegrees>-2.21969358623027801513671875</LongitudeDegrees>
            </Position>
            <AltitudeMeters>1115.5999755859375</AltitudeMeters>
            <DistanceMeters>366468.64291589</DistanceMeters>
          </Trackpoint>
          <Trackpoint>
            <Time>2021-08-01T09:55:53.000Z</Time>
            <Position>
              <LatitudeDegrees>42.01803577132523059844970703125</LatitudeDegrees>
              <LongitudeDegrees>-2.2196461446583271026611328125</LongitudeDegrees>
            </Position>
            <AltitudeMeters>1116</AltitudeMeters>
            <DistanceMeters>366473.38664338</DistanceMeters>
          </Trackpoint>
          <Trackpoint>
            <Time>2021-08-01T09:55:57.000Z</Time>
            <Position>
              <LatitudeDegrees>42.01806058175861835479736328125</LatitudeDegrees>
              <LongitudeDegrees>-2.21957632340490818023681640625</LongitudeDegrees>
            </Position>
            <AltitudeMeters>1116.5999755859375</AltitudeMeters>
            <DistanceMeters>366479.78667672</DistanceMeters>
          </Trackpoint>
          <Trackpoint>
            <Time>2021-08-01T09:56:03.000Z</Time>
            <Position>
              <LatitudeDegrees>42.01809042133390903472900390625</LatitudeDegrees>
              <LongitudeDegrees>-2.219472639262676239013671875</LongitudeDegrees>
            </Position>
            <AltitudeMeters>1117.800048828125</AltitudeMeters>
            <DistanceMeters>366488.98121726</DistanceMeters>
          </Trackpoint>
          <Trackpoint>
            <Time>2021-08-01T09:56:10.000Z</Time>
            <Position>
              <LatitudeDegrees>42.01810500584542751312255859375</LatitudeDegrees>
              <LongitudeDegrees>-2.219343893229961395263671875</LongitudeDegrees>
            </Position>
            <AltitudeMeters>1118.800048828125</AltitudeMeters>
            <DistanceMeters>366499.74988671</DistanceMeters>
          </Trackpoint>
          <Trackpoint>
            <Time>2021-08-01T09:56:17.000Z</Time>
            <Position>
              <LatitudeDegrees>42.0181076042354106903076171875</LatitudeDegrees>
              <LongitudeDegrees>-2.2192126326262950897216796875</LongitudeDegrees>
            </Position>
            <AltitudeMeters>1119.800048828125</AltitudeMeters>
            <DistanceMeters>366510.60749455</DistanceMeters>
          </Trackpoint>
          <Trackpoint>
            <Time>2021-08-01T09:56:25.000Z</Time>
            <Position>
              <LatitudeDegrees>42.0180941931903362274169921875</LatitudeDegrees>
              <LongitudeDegrees>-2.2190677933394908905029296875</LongitudeDegrees>
            </Position>
            <AltitudeMeters>1120.800048828125</AltitudeMeters>
            <DistanceMeters>366522.67700958</DistanceMeters>
          </Trackpoint>
          <Trackpoint>
            <Time>2021-08-01T09:56:33.000Z</Time>
            <Position>
              <LatitudeDegrees>42.018080614507198333740234375</LatitudeDegrees>
              <LongitudeDegrees>-2.218924798071384429931640625</LongitudeDegrees>
            </Position>
            <AltitudeMeters>1122</AltitudeMeters>
            <DistanceMeters>366534.59746607</DistanceMeters>
          </Trackpoint>
          <Trackpoint>
            <Time>2021-08-01T09:56:42.000Z</Time>
            <Position>
              <LatitudeDegrees>42.0180650241672992706298828125</LatitudeDegrees>
              <LongitudeDegrees>-2.2187657095491886138916015625</LongitudeDegrees>
            </Position>
            <AltitudeMeters>1123</AltitudeMeters>
            <DistanceMeters>366547.86620378</DistanceMeters>
          </Trackpoint>
          <Trackpoint>
            <Time>2021-08-01T09:56:51.000Z</Time>
            <Position>
              <LatitudeDegrees>42.01805689372122287750244140625</LatitudeDegrees>
              <LongitudeDegrees>-2.21860553137958049774169921875</LongitudeDegrees>
            </Position>
            <AltitudeMeters>1124</AltitudeMeters>
            <DistanceMeters>366561.14242546</DistanceMeters>
          </Trackpoint>
          <Trackpoint>
            <Time>2021-08-01T09:57:02.000Z</Time>
            <Position>
              <LatitudeDegrees>42.0180361904203891754150390625</LatitudeDegrees>
              <LongitudeDegrees>-2.21840478479862213134765625</LongitudeDegrees>
            </Position>
            <AltitudeMeters>1125.199951171875</AltitudeMeters>
            <DistanceMeters>366577.90137733</DistanceMeters>
          </Trackpoint>
          <Trackpoint>
            <Time>2021-08-01T09:57:09.000Z</Time>
            <Position>
              <LatitudeDegrees>42.01802386902272701263427734375</LatitudeDegrees>
              <LongitudeDegrees>-2.21827947534620761871337890625</LongitudeDegrees>
            </Position>
            <AltitudeMeters>1126.199951171875</AltitudeMeters>
            <DistanceMeters>366588.35345199</DistanceMeters>
          </Trackpoint>
          <Trackpoint>
            <Time>2021-08-01T09:57:19.000Z</Time>
            <Position>
              <LatitudeDegrees>42.0180127210915088653564453125</LatitudeDegrees>
              <LongitudeDegrees>-2.2180991806089878082275390625</LongitudeDegrees>
            </Position>
            <AltitudeMeters>1127.199951171875</AltitudeMeters>
            <DistanceMeters>366603.3137476</DistanceMeters>
          </Trackpoint>
          <Trackpoint>
            <Time>2021-08-01T09:57:27.000Z</Time>
            <Position>
              <LatitudeDegrees>42.0179999805986881256103515625</LatitudeDegrees>
              <LongitudeDegrees>-2.2179575264453887939453125</LongitudeDegrees>
            </Position>
            <AltitudeMeters>1128.199951171875</AltitudeMeters>
            <DistanceMeters>366615.11314244</DistanceMeters>
          </Trackpoint>
          <Trackpoint>
            <Time>2021-08-01T09:57:37.000Z</Time>
            <Position>
              <LatitudeDegrees>42.0179791934788227081298828125</LatitudeDegrees>
              <LongitudeDegrees>-2.21776918508112430572509765625</LongitudeDegrees>
            </Position>
            <AltitudeMeters>1129.199951171875</AltitudeMeters>
            <DistanceMeters>366630.85778148</DistanceMeters>
          </Trackpoint>
          <Trackpoint>
            <Time>2021-08-01T09:57:45.000Z</Time>
            <Position>
              <LatitudeDegrees>42.01794625259935855865478515625</LatitudeDegrees>
              <LongitudeDegrees>-2.2176254354417324066162109375</LongitudeDegrees>
            </Position>
            <AltitudeMeters>1130.4000244140625</AltitudeMeters>
            <DistanceMeters>366643.29721033</DistanceMeters>
          </Trackpoint>
          <Trackpoint>
            <Time>2021-08-01T09:57:51.000Z</Time>
            <Position>
              <LatitudeDegrees>42.01790082268416881561279296875</LatitudeDegrees>
              <LongitudeDegrees>-2.21752158366143703460693359375</LongitudeDegrees>
            </Position>
            <AltitudeMeters>1131.4000244140625</AltitudeMeters>
            <DistanceMeters>366653.26324318</DistanceMeters>
          </Trackpoint>
          <Trackpoint>
            <Time>2021-08-01T09:57:59.000Z</Time>
            <Position>
              <LatitudeDegrees>42.0178474299609661102294921875</LatitudeDegrees>
              <LongitudeDegrees>-2.21738344989717006683349609375</LongitudeDegrees>
            </Position>
            <AltitudeMeters>1132.5999755859375</AltitudeMeters>
            <DistanceMeters>366666.13927531</DistanceMeters>
          </Trackpoint>
          <Trackpoint>
            <Time>2021-08-01T09:58:08.000Z</Time>
            <Position>
              <LatitudeDegrees>42.0177652873098850250244140625</LatitudeDegrees>
              <LongitudeDegrees>-2.21723676659166812896728515625</LongitudeDegrees>
            </Position>
            <AltitudeMeters>1133.5999755859375</AltitudeMeters>
            <DistanceMeters>366681.32809992</DistanceMeters>
          </Trackpoint>
          <Trackpoint>
            <Time>2021-08-01T09:58:15.000Z</Time>
            <Position>
              <LatitudeDegrees>42.01771005056798458099365234375</LatitudeDegrees>
              <LongitudeDegrees>-2.2171195037662982940673828125</LongitudeDegrees>
            </Position>
            <AltitudeMeters>1134.5999755859375</AltitudeMeters>
            <DistanceMeters>366692.80904178</DistanceMeters>
          </Trackpoint>
          <Trackpoint>
            <Time>2021-08-01T09:58:24.000Z</Time>
            <Position>
              <LatitudeDegrees>42.017630003392696380615234375</LatitudeDegrees>
              <LongitudeDegrees>-2.21696569584310054779052734375</LongitudeDegrees>
            </Position>
            <AltitudeMeters>1135.800048828125</AltitudeMeters>
            <DistanceMeters>366708.33769791</DistanceMeters>
          </Trackpoint>
          <Trackpoint>
            <Time>2021-08-01T09:58:33.000Z</Time>
            <Position>
              <LatitudeDegrees>42.01754920184612274169921875</LatitudeDegrees>
              <LongitudeDegrees>-2.21681331284344196319580078125</LongitudeDegrees>
            </Position>
            <AltitudeMeters>1136.800048828125</AltitudeMeters>
            <DistanceMeters>366723.81859675</DistanceMeters>
          </Trackpoint>
          <Trackpoint>
            <Time>2021-08-01T09:58:40.000Z</Time>
            <Position>
              <LatitudeDegrees>42.01747904531657695770263671875</LatitudeDegrees>
              <LongitudeDegrees>-2.21668590791523456573486328125</LongitudeDegrees>
            </Position>
            <AltitudeMeters>1137.5999755859375</AltitudeMeters>
            <DistanceMeters>366736.93159471</DistanceMeters>
          </Trackpoint>
          <Trackpoint>
            <Time>2021-08-01T09:58:42.000Z</Time>
            <Position>
              <LatitudeDegrees>42.01745892874896526336669921875</LatitudeDegrees>
              <LongitudeDegrees>-2.216648273169994354248046875</LongitudeDegrees>
            </Position>
            <AltitudeMeters>1137.800048828125</AltitudeMeters>
            <DistanceMeters>366740.76342251</DistanceMeters>
          </Trackpoint>
          <Trackpoint>
            <Time>2021-08-01T09:58:53.000Z</Time>
            <Position>
              <LatitudeDegrees>42.0173404924571514129638671875</LatitudeDegrees>
              <LongitudeDegrees>-2.21643914468586444854736328125</LongitudeDegrees>
            </Position>
            <AltitudeMeters>1138.800048828125</AltitudeMeters>
            <DistanceMeters>366762.50793522</DistanceMeters>
          </Trackpoint>
          <Trackpoint>
            <Time>2021-08-01T09:59:16.000Z</Time>
            <Position>
              <LatitudeDegrees>42.01695349998772144317626953125</LatitudeDegrees>
              <LongitudeDegrees>-2.21591460518538951873779296875</LongitudeDegrees>
            </Position>
            <AltitudeMeters>1139.4000244140625</AltitudeMeters>
            <DistanceMeters>366823.63619131</DistanceMeters>
          </Trackpoint>
          <Trackpoint>
            <Time>2021-08-01T09:59:35.000Z</Time>
            <Position>
              <LatitudeDegrees>42.0165318064391613006591796875</LatitudeDegrees>
              <LongitudeDegrees>-2.21541940234601497650146484375</LongitudeDegrees>
            </Position>
            <AltitudeMeters>1139.5999755859375</AltitudeMeters>
            <DistanceMeters>366885.92386492</DistanceMeters>
          </Trackpoint>
          <Trackpoint>
            <Time>2021-08-01T09:59:44.000Z</Time>
            <Position>
              <LatitudeDegrees>42.0163406990468502044677734375</LatitudeDegrees>
              <LongitudeDegrees>-2.2151437215507030487060546875</LongitudeDegrees>
            </Position>
            <AltitudeMeters>1139.800048828125</AltitudeMeters>
            <DistanceMeters>366917.10262082</DistanceMeters>
          </Trackpoint>
          <Trackpoint>
            <Time>2021-08-01T10:00:02.000Z</Time>
            <Position>
              <LatitudeDegrees>42.01609569601714611053466796875</LatitudeDegrees>
              <LongitudeDegrees>-2.2144795395433902740478515625</LongitudeDegrees>
            </Position>
            <AltitudeMeters>1140.199951171875</AltitudeMeters>
            <DistanceMeters>366978.42246941</DistanceMeters>
          </Trackpoint>
          <Trackpoint>
            <Time>2021-08-01T10:00:18.000Z</Time>
            <Position>
              <LatitudeDegrees>42.0156895928084850311279296875</LatitudeDegrees>
              <LongitudeDegrees>-2.21398090012371540069580078125</LongitudeDegrees>
            </Position>
            <AltitudeMeters>1140.4000244140625</AltitudeMeters>
            <DistanceMeters>367039.60484219</DistanceMeters>
          </Trackpoint>
          <Trackpoint>
            <Time>2021-08-01T10:00:23.000Z</Time>
            <Position>
              <LatitudeDegrees>42.0155625231564044952392578125</LatitudeDegrees>
              <LongitudeDegrees>-2.21385600976645946502685546875</LongitudeDegrees>
            </Position>
            <AltitudeMeters>1141</AltitudeMeters>
            <DistanceMeters>367057.11736589</DistanceMeters>
          </Trackpoint>
          <Trackpoint>
            <Time>2021-08-01T10:00:30.000Z</Time>
            <Position>
              <LatitudeDegrees>42.0154027640819549560546875</LatitudeDegrees>
              <LongitudeDegrees>-2.21368116326630115509033203125</LongitudeDegrees>
            </Position>
            <AltitudeMeters>1142</AltitudeMeters>
            <DistanceMeters>367080.03535874</DistanceMeters>
          </Trackpoint>
          <Trackpoint>
            <Time>2021-08-01T10:00:38.000Z</Time>
            <Position>
              <LatitudeDegrees>42.0152272470295429229736328125</LatitudeDegrees>
              <LongitudeDegrees>-2.21349810250103473663330078125</LongitudeDegrees>
            </Position>
            <AltitudeMeters>1143</AltitudeMeters>
            <DistanceMeters>367104.74924776</DistanceMeters>
          </Trackpoint>
          <Trackpoint>
            <Time>2021-08-01T10:00:47.000Z</Time>
            <Position>
              <LatitudeDegrees>42.0150337927043437957763671875</LatitudeDegrees>
              <LongitudeDegrees>-2.2133104316890239715576171875</LongitudeDegrees>
            </Position>
            <AltitudeMeters>1144.199951171875</AltitudeMeters>
            <DistanceMeters>367131.29080618</DistanceMeters>
          </Trackpoint>
          <Trackpoint>
            <Time>2021-08-01T10:00:56.000Z</Time>
            <Position>
              <LatitudeDegrees>42.0148470439016819000244140625</LatitudeDegrees>
              <LongitudeDegrees>-2.2131122834980487823486328125</LongitudeDegrees>
            </Position>
            <AltitudeMeters>1145.199951171875</AltitudeMeters>
            <DistanceMeters>367157.75809184</DistanceMeters>
          </Trackpoint>
          <Trackpoint>
            <Time>2021-08-01T10:01:05.000Z</Time>
            <Position>
              <LatitudeDegrees>42.014668174088001251220703125</LatitudeDegrees>
              <LongitudeDegrees>-2.21290013752877712249755859375</LongitudeDegrees>
            </Position>
            <AltitudeMeters>1146.4000244140625</AltitudeMeters>
            <DistanceMeters>367184.29335538</DistanceMeters>
          </Trackpoint>
          <Trackpoint>
            <Time>2021-08-01T10:01:16.000Z</Time>
            <Position>
              <LatitudeDegrees>42.01445384882390499114990234375</LatitudeDegrees>
              <LongitudeDegrees>-2.21264608204364776611328125</LongitudeDegrees>
            </Position>
            <AltitudeMeters>1147.4000244140625</AltitudeMeters>
            <DistanceMeters>367216.08060807</DistanceMeters>
          </Trackpoint>
          <Trackpoint>
            <Time>2021-08-01T10:01:23.000Z</Time>
            <Position>
              <LatitudeDegrees>42.01431957073509693145751953125</LatitudeDegrees>
              <LongitudeDegrees>-2.212494872510433197021484375</LongitudeDegrees>
            </Position>
            <AltitudeMeters>1148.4000244140625</AltitudeMeters>
            <DistanceMeters>367235.56687796</DistanceMeters>
          </Trackpoint>
          <Trackpoint>
            <Time>2021-08-01T10:01:31.000Z</Time>
            <Position>
              <LatitudeDegrees>42.014183700084686279296875</LatitudeDegrees>
              <LongitudeDegrees>-2.21230736933648586273193359375</LongitudeDegrees>
            </Position>
            <AltitudeMeters>1149.5999755859375</AltitudeMeters>
            <DistanceMeters>367257.22609082</DistanceMeters>
          </Trackpoint>
          <Trackpoint>
            <Time>2021-08-01T10:01:39.000Z</Time>
            <Position>
              <LatitudeDegrees>42.0140551216900348663330078125</LatitudeDegrees>
              <LongitudeDegrees>-2.2121175192296504974365234375</LongitudeDegrees>
            </Position>
            <AltitudeMeters>1150.5999755859375</AltitudeMeters>
            <DistanceMeters>367278.46960984</DistanceMeters>
          </Trackpoint>
          <Trackpoint>
            <Time>2021-08-01T10:01:48.000Z</Time>
            <Position>
              <LatitudeDegrees>42.01390936039388179779052734375</LatitudeDegrees>
              <LongitudeDegrees>-2.2119056247174739837646484375</LongitudeDegrees>
            </Position>
            <AltitudeMeters>1151.800048828125</AltitudeMeters>
            <DistanceMeters>367302.34931455</DistanceMeters>
          </Trackpoint>
          <Trackpoint>
            <Time>2021-08-01T10:01:53.000Z</Time>
            <Position>
              <LatitudeDegrees>42.01383342035114765167236328125</LatitudeDegrees>
              <LongitudeDegrees>-2.21179272048175334930419921875</LongitudeDegrees>
            </Position>
            <AltitudeMeters>1152.5999755859375</AltitudeMeters>
            <DistanceMeters>367314.94349149</DistanceMeters>
          </Trackpoint>
          <Trackpoint>
            <Time>2021-08-01T10:02:00.000Z</Time>
            <Position>
              <LatitudeDegrees>42.0137339271605014801025390625</LatitudeDegrees>
              <LongitudeDegrees>-2.211637236177921295166015625</LongitudeDegrees>
            </Position>
            <AltitudeMeters>1153.800048828125</AltitudeMeters>
            <DistanceMeters>367331.91261279</DistanceMeters>
          </Trackpoint>
          <Trackpoint>
            <Time>2021-08-01T10:02:07.000Z</Time>
            <Position>
              <LatitudeDegrees>42.0136343501508235931396484375</LatitudeDegrees>
              <LongitudeDegrees>-2.2114925645291805267333984375</LongitudeDegrees>
            </Position>
            <AltitudeMeters>1154.800048828125</AltitudeMeters>
            <DistanceMeters>367348.22098001</DistanceMeters>
          </Trackpoint>
          <Trackpoint>
            <Time>2021-08-01T10:02:13.000Z</Time>
            <Position>
              <LatitudeDegrees>42.01354709453880786895751953125</LatitudeDegrees>
              <LongitudeDegrees>-2.21137781627476215362548828125</LongitudeDegrees>
            </Position>
            <AltitudeMeters>1156.199951171875</AltitudeMeters>
            <DistanceMeters>367361.79949616</DistanceMeters>
          </Trackpoint>
          <Trackpoint>
            <Time>2021-08-01T10:02:18.000Z</Time>
            <Position>
              <LatitudeDegrees>42.01347551308572292327880859375</LatitudeDegrees>
              <LongitudeDegrees>-2.2112796641886234283447265625</LongitudeDegrees>
            </Position>
            <AltitudeMeters>1157.199951171875</AltitudeMeters>
            <DistanceMeters>367373.17336424</DistanceMeters>
          </Trackpoint>
          <Trackpoint>
            <Time>2021-08-01T10:02:23.000Z</Time>
            <Position>
              <LatitudeDegrees>42.01340091414749622344970703125</LatitudeDegrees>
              <LongitudeDegrees>-2.211188636720180511474609375</LongitudeDegrees>
            </Position>
            <AltitudeMeters>1158.199951171875</AltitudeMeters>
            <DistanceMeters>367384.38047508</DistanceMeters>
          </Trackpoint>
          <Trackpoint>
            <Time>2021-08-01T10:02:30.000Z</Time>
            <Position>
              <LatitudeDegrees>42.01329882256686687469482421875</LatitudeDegrees>
              <LongitudeDegrees>-2.2110463120043277740478515625</LongitudeDegrees>
            </Position>
            <AltitudeMeters>1159.4000244140625</AltitudeMeters>
            <DistanceMeters>367400.7405321</DistanceMeters>
          </Trackpoint>
          <Trackpoint>
            <Time>2021-08-01T10:02:36.000Z</Time>
            <Position>
              <LatitudeDegrees>42.0132085494697093963623046875</LatitudeDegrees>
              <LongitudeDegrees>-2.21090574748814105987548828125</LongitudeDegrees>
            </Position>
            <AltitudeMeters>1160.4000244140625</AltitudeMeters>
            <DistanceMeters>367416.10491489</DistanceMeters>
          </Trackpoint>
          <Trackpoint>
            <Time>2021-08-01T10:02:56.000Z</Time>
            <Position>
              <LatitudeDegrees>42.01290906406939029693603515625</LatitudeDegrees>
              <LongitudeDegrees>-2.21029621548950672149658203125</LongitudeDegrees>
            </Position>
            <AltitudeMeters>1161.199951171875</AltitudeMeters>
            <DistanceMeters>367476.53577898</DistanceMeters>
          </Trackpoint>
          <Trackpoint>
            <Time>2021-08-01T10:02:58.000Z</Time>
            <Position>
              <LatitudeDegrees>42.01285994611680507659912109375</LatitudeDegrees>
              <LongitudeDegrees>-2.21025891602039337158203125</LongitudeDegrees>
            </Position>
            <AltitudeMeters>1161.5999755859375</AltitudeMeters>
            <DistanceMeters>367482.81329868</DistanceMeters>
          </Trackpoint>
          <Trackpoint>
            <Time>2021-08-01T10:03:11.000Z</Time>
            <Position>
              <LatitudeDegrees>42.0124957524240016937255859375</LatitudeDegrees>
              <LongitudeDegrees>-2.21008683554828166961669921875</LongitudeDegrees>
            </Position>
            <AltitudeMeters>1162.4000244140625</AltitudeMeters>
            <DistanceMeters>367525.77409749</DistanceMeters>
          </Trackpoint>
          <Trackpoint>
            <Time>2021-08-01T10:03:30.000Z</Time>
            <Position>
              <LatitudeDegrees>42.0119561254978179931640625</LatitudeDegrees>
              <LongitudeDegrees>-2.209874689579010009765625</LongitudeDegrees>
            </Position>
            <AltitudeMeters>1163.199951171875</AltitudeMeters>
            <DistanceMeters>367588.3454909</DistanceMeters>
          </Trackpoint>
          <Trackpoint>
            <Time>2021-08-01T10:03:35.000Z</Time>
            <Position>
              <LatitudeDegrees>42.01181807555258274078369140625</LatitudeDegrees>
              <LongitudeDegrees>-2.20980226993560791015625</LongitudeDegrees>
            </Position>
            <AltitudeMeters>1163.4000244140625</AltitudeMeters>
            <DistanceMeters>367604.83666467</DistanceMeters>
          </Trackpoint>
          <Trackpoint>
            <Time>2021-08-01T10:03:53.000Z</Time>
            <Position>
              <LatitudeDegrees>42.0113209448754787445068359375</LatitudeDegrees>
              <LongitudeDegrees>-2.20944218337535858154296875</LongitudeDegrees>
            </Position>
            <AltitudeMeters>1164</AltitudeMeters>
            <DistanceMeters>367667.67253615</DistanceMeters>
          </Trackpoint>
          <Trackpoint>
            <Time>2021-08-01T10:04:10.000Z</Time>
            <Position>
              <LatitudeDegrees>42.010968066751956939697265625</LatitudeDegrees>
              <LongitudeDegrees>-2.2088418714702129364013671875</LongitudeDegrees>
            </Position>
            <AltitudeMeters>1164.199951171875</AltitudeMeters>
            <DistanceMeters>367730.97537917</DistanceMeters>
          </Trackpoint>
          <Trackpoint>
            <Time>2021-08-01T10:04:24.000Z</Time>
            <Position>
              <LatitudeDegrees>42.0106228999793529510498046875</LatitudeDegrees>
              <LongitudeDegrees>-2.20827885903418064117431640625</LongitudeDegrees>
            </Position>
            <AltitudeMeters>1164.199951171875</AltitudeMeters>
            <DistanceMeters>367791.33956148</DistanceMeters>
          </Trackpoint>
          <Trackpoint>
            <Time>2021-08-01T10:04:31.000Z</Time>
            <Position>
              <LatitudeDegrees>42.0104156993329524993896484375</LatitudeDegrees>
              <LongitudeDegrees>-2.20805388875305652618408203125</LongitudeDegrees>
            </Position>
            <AltitudeMeters>1164.4000244140625</AltitudeMeters>
            <DistanceMeters>367820.97053063</DistanceMeters>
          </Trackpoint>
          <Trackpoint>
            <Time>2021-08-01T10:04:38.000Z</Time>
            <Position>
              <LatitudeDegrees>42.01020154170691967010498046875</LatitudeDegrees>
              <LongitudeDegrees>-2.2078923694789409637451171875</LongitudeDegrees>
            </Position>
            <AltitudeMeters>1165.5999755859375</AltitudeMeters>
            <DistanceMeters>367848.29430526</DistanceMeters>
          </Trackpoint>
          <Trackpoint>
            <Time>2021-08-01T10:04:47.000Z</Time>
            <Position>
              <LatitudeDegrees>42.00993281789124011993408203125</LatitudeDegrees>
              <LongitudeDegrees>-2.2077086381614208221435546875</LongitudeDegrees>
            </Position>
            <AltitudeMeters>1166.5999755859375</AltitudeMeters>
            <DistanceMeters>367881.84210024</DistanceMeters>
          </Trackpoint>
          <Trackpoint>
            <Time>2021-08-01T10:04:55.000Z</Time>
            <Position>
              <LatitudeDegrees>42.00970499776303768157958984375</LatitudeDegrees>
              <LongitudeDegrees>-2.20754628069698810577392578125</LongitudeDegrees>
            </Position>
            <AltitudeMeters>1167.5999755859375</AltitudeMeters>
            <DistanceMeters>367910.53450357</DistanceMeters>
          </Trackpoint>
          <Trackpoint>
            <Time>2021-08-01T10:05:01.000Z</Time>
            <Position>
              <LatitudeDegrees>42.0095570571720600128173828125</LatitudeDegrees>
              <LongitudeDegrees>-2.207396663725376129150390625</LongitudeDegrees>
            </Position>
            <AltitudeMeters>1168.5999755859375</AltitudeMeters>
            <DistanceMeters>367931.13163982</DistanceMeters>
          </Trackpoint>
          <Trackpoint>
            <Time>2021-08-01T10:05:09.000Z</Time>
            <Position>
              <LatitudeDegrees>42.00939956121146678924560546875</LatitudeDegrees>
              <LongitudeDegrees>-2.20713037066161632537841796875</LongitudeDegrees>
            </Position>
            <AltitudeMeters>1169.5999755859375</AltitudeMeters>
            <DistanceMeters>367959.27912367</DistanceMeters>
          </Trackpoint>
          <Trackpoint>
            <Time>2021-08-01T10:05:19.000Z</Time>
            <Position>
              <LatitudeDegrees>42.00921683572232723236083984375</LatitudeDegrees>
              <LongitudeDegrees>-2.20678185112774372100830078125</LongitudeDegrees>
            </Position>
            <AltitudeMeters>1170.800048828125</AltitudeMeters>
            <DistanceMeters>367994.55490366</DistanceMeters>
          </Trackpoint>
          <Trackpoint>
            <Time>2021-08-01T10:05:33.000Z</Time>
            <Position>
              <LatitudeDegrees>42.008949033915996551513671875</LatitudeDegrees>
              <LongitudeDegrees>-2.20630056224763393402099609375</LongitudeDegrees>
            </Position>
            <AltitudeMeters>1171.800048828125</AltitudeMeters>
            <DistanceMeters>368044.28175771</DistanceMeters>
          </Trackpoint>
          <Trackpoint>
            <Time>2021-08-01T10:05:47.000Z</Time>
            <Position>
              <LatitudeDegrees>42.008684836328029632568359375</LatitudeDegrees>
              <LongitudeDegrees>-2.205818183720111846923828125</LongitudeDegrees>
            </Position>
            <AltitudeMeters>1172.800048828125</AltitudeMeters>
            <DistanceMeters>368093.8418107</DistanceMeters>
          </Trackpoint>
          <Trackpoint>
            <Time>2021-08-01T10:05:55.000Z</Time>
            <Position>
              <LatitudeDegrees>42.0085351355373859405517578125</LatitudeDegrees>
              <LongitudeDegrees>-2.205550968647003173828125</LongitudeDegrees>
            </Position>
            <AltitudeMeters>1174</AltitudeMeters>
            <DistanceMeters>368121.51857577</DistanceMeters>
          </Trackpoint>
          <Trackpoint>
            <Time>2021-08-01T10:06:03.000Z</Time>
            <Position>
              <LatitudeDegrees>42.00838568620383739471435546875</LatitudeDegrees>
              <LongitudeDegrees>-2.20528584904968738555908203125</LongitudeDegrees>
            </Position>
            <AltitudeMeters>1175</AltitudeMeters>
            <DistanceMeters>368149.04025472</DistanceMeters>
          </Trackpoint>
          <Trackpoint>
            <Time>2021-08-01T10:06:15.000Z</Time>
            <Position>
              <LatitudeDegrees>42.0081663317978382110595703125</LatitudeDegrees>
              <LongitudeDegrees>-2.20488871447741985321044921875</LongitudeDegrees>
            </Position>
            <AltitudeMeters>1176</AltitudeMeters>
            <DistanceMeters>368189.96467625</DistanceMeters>
          </Trackpoint>
          <Trackpoint>
            <Time>2021-08-01T10:06:27.000Z</Time>
            <Position>
              <LatitudeDegrees>42.00794748030602931976318359375</LatitudeDegrees>
              <LongitudeDegrees>-2.20449543558061122894287109375</LongitudeDegrees>
            </Position>
            <AltitudeMeters>1177</AltitudeMeters>
            <DistanceMeters>368230.60012603</DistanceMeters>
          </Trackpoint>
          <Trackpoint>
            <Time>2021-08-01T10:06:33.000Z</Time>
            <Position>
              <LatitudeDegrees>42.007843293249607086181640625</LatitudeDegrees>
              <LongitudeDegrees>-2.204333581030368804931640625</LongitudeDegrees>
            </Position>
            <AltitudeMeters>1178.199951171875</AltitudeMeters>
            <DistanceMeters>368248.31031166</DistanceMeters>
          </Trackpoint>
          <Trackpoint>
            <Time>2021-08-01T10:06:39.000Z</Time>
            <Position>
              <LatitudeDegrees>42.00774698518216609954833984375</LatitudeDegrees>
              <LongitudeDegrees>-2.20420927740633487701416015625</LongitudeDegrees>
            </Position>
            <AltitudeMeters>1179.199951171875</AltitudeMeters>
            <DistanceMeters>368263.16247337</DistanceMeters>
          </Trackpoint>
          <Trackpoint>
            <Time>2021-08-01T10:06:46.000Z</Time>
            <Position>
              <LatitudeDegrees>42.00763416476547718048095703125</LatitudeDegrees>
              <LongitudeDegrees>-2.204104922711849212646484375</LongitudeDegrees>
            </Position>
            <AltitudeMeters>1180.4000244140625</AltitudeMeters>
            <DistanceMeters>368278.39967441</DistanceMeters>
          </Trackpoint>
          <Trackpoint>
            <Time>2021-08-01T10:06:52.000Z</Time>
            <Position>
              <LatitudeDegrees>42.007538862526416778564453125</LatitudeDegrees>
              <LongitudeDegrees>-2.2040407173335552215576171875</LongitudeDegrees>
            </Position>
            <AltitudeMeters>1181.5999755859375</AltitudeMeters>
            <DistanceMeters>368290.26127721</DistanceMeters>
          </Trackpoint>
          <Trackpoint>
            <Time>2021-08-01T10:06:58.000Z</Time>
            <Position>
              <LatitudeDegrees>42.0074407942593097686767578125</LatitudeDegrees>
              <LongitudeDegrees>-2.2039937786757946014404296875</LongitudeDegrees>
            </Position>
            <AltitudeMeters>1182.800048828125</AltitudeMeters>
            <DistanceMeters>368301.84635495</DistanceMeters>
          </Trackpoint>
          <Trackpoint>
            <Time>2021-08-01T10:07:04.000Z</Time>
            <Position>
              <LatitudeDegrees>42.0073462463915348052978515625</LatitudeDegrees>
              <LongitudeDegrees>-2.20394231379032135009765625</LongitudeDegrees>
            </Position>
            <AltitudeMeters>1183.800048828125</AltitudeMeters>
            <DistanceMeters>368313.19797117</DistanceMeters>
          </Trackpoint>
          <Trackpoint>
            <Time>2021-08-01T10:07:10.000Z</Time>
            <Position>
              <LatitudeDegrees>42.00725086033344268798828125</LatitudeDegrees>
              <LongitudeDegrees>-2.20390166155993938446044921875</LongitudeDegrees>
            </Position>
            <AltitudeMeters>1184.800048828125</AltitudeMeters>
            <DistanceMeters>368324.33435613</DistanceMeters>
          </Trackpoint>
          <Trackpoint>
            <Time>2021-08-01T10:07:17.000Z</Time>
            <Position>
              <LatitudeDegrees>42.0071574859321117401123046875</LatitudeDegrees>
              <LongitudeDegrees>-2.20385505817830562591552734375</LongitudeDegrees>
            </Position>
            <AltitudeMeters>1186</AltitudeMeters>
            <DistanceMeters>368335.4187244</DistanceMeters>
          </Trackpoint>
          <Trackpoint>
            <Time>2021-08-01T10:07:24.000Z</Time>
            <Position>
              <LatitudeDegrees>42.00707492418587207794189453125</LatitudeDegrees>
              <LongitudeDegrees>-2.20379001460969448089599609375</LongitudeDegrees>
            </Position>
            <AltitudeMeters>1187</AltitudeMeters>
            <DistanceMeters>368346.06680591</DistanceMeters>
          </Trackpoint>
          <Trackpoint>
            <Time>2021-08-01T10:07:30.000Z</Time>
            <Position>
              <LatitudeDegrees>42.007023878395557403564453125</LatitudeDegrees>
              <LongitudeDegrees>-2.2037057764828205108642578125</LongitudeDegrees>
            </Position>
            <AltitudeMeters>1188</AltitudeMeters>
            <DistanceMeters>368355.05575046</DistanceMeters>
          </Trackpoint>
          <Trackpoint>
            <Time>2021-08-01T10:07:36.000Z</Time>
            <Position>
              <LatitudeDegrees>42.00698507018387317657470703125</LatitudeDegrees>
              <LongitudeDegrees>-2.20360309816896915435791015625</LongitudeDegrees>
            </Position>
            <AltitudeMeters>1189.199951171875</AltitudeMeters>
            <DistanceMeters>368364.5830968</DistanceMeters>
          </Trackpoint>
          <Trackpoint>
            <Time>2021-08-01T10:07:45.000Z</Time>
            <Position>
              <LatitudeDegrees>42.00693930499255657196044921875</LatitudeDegrees>
              <LongitudeDegrees>-2.2034362144768238067626953125</LongitudeDegrees>
            </Position>
            <AltitudeMeters>1190.199951171875</AltitudeMeters>
            <DistanceMeters>368379.2950614</DistanceMeters>
          </Trackpoint>
          <Trackpoint>
            <Time>2021-08-01T10:07:53.000Z</Time>
            <Position>
              <LatitudeDegrees>42.00690091587603092193603515625</LatitudeDegrees>
              <LongitudeDegrees>-2.20329045318067073822021484375</LongitudeDegrees>
            </Position>
            <AltitudeMeters>1191.199951171875</AltitudeMeters>
            <DistanceMeters>368392.08524767</DistanceMeters>
          </Trackpoint>
          <Trackpoint>
            <Time>2021-08-01T10:08:01.000Z</Time>
            <Position>
              <LatitudeDegrees>42.006850875914096832275390625</LatitudeDegrees>
              <LongitudeDegrees>-2.20315030775964260101318359375</LongitudeDegrees>
            </Position>
            <AltitudeMeters>1192.4000244140625</AltitudeMeters>
            <DistanceMeters>368404.94478849</DistanceMeters>
          </Trackpoint>
          <Trackpoint>
            <Time>2021-08-01T10:08:10.000Z</Time>
            <Position>
              <LatitudeDegrees>42.00680561363697052001953125</LatitudeDegrees>
              <LongitudeDegrees>-2.2029859386384487152099609375</LongitudeDegrees>
            </Position>
            <AltitudeMeters>1193.4000244140625</AltitudeMeters>
            <DistanceMeters>368419.44189161</DistanceMeters>
          </Trackpoint>
          <Trackpoint>
            <Time>2021-08-01T10:08:17.000Z</Time>
            <Position>
              <LatitudeDegrees>42.0067645423114299774169921875</LatitudeDegrees>
              <LongitudeDegrees>-2.2028558515012264251708984375</LongitudeDegrees>
            </Position>
            <AltitudeMeters>1194.4000244140625</AltitudeMeters>
            <DistanceMeters>368431.13210876</DistanceMeters>
          </Trackpoint>
          <Trackpoint>
            <Time>2021-08-01T10:08:27.000Z</Time>
            <Position>
              <LatitudeDegrees>42.0067186094820499420166015625</LatitudeDegrees>
              <LongitudeDegrees>-2.20266021788120269775390625</LongitudeDegrees>
            </Position>
            <AltitudeMeters>1195.4000244140625</AltitudeMeters>
            <DistanceMeters>368448.10016573</DistanceMeters>
          </Trackpoint>
          <Trackpoint>
            <Time>2021-08-01T10:08:36.000Z</Time>
            <Position>
              <LatitudeDegrees>42.00666806660592555999755859375</LatitudeDegrees>
              <LongitudeDegrees>-2.202488221228122711181640625</LongitudeDegrees>
            </Position>
            <AltitudeMeters>1196.4000244140625</AltitudeMeters>
            <DistanceMeters>368463.39710565</DistanceMeters>
          </Trackpoint>
          <Trackpoint>
            <Time>2021-08-01T10:08:46.000Z</Time>
            <Position>
              <LatitudeDegrees>42.00660754926502704620361328125</LatitudeDegrees>
              <LongitudeDegrees>-2.20229141414165496826171875</LongitudeDegrees>
            </Position>
            <AltitudeMeters>1197.4000244140625</AltitudeMeters>
            <DistanceMeters>368481.01296717</DistanceMeters>
          </Trackpoint>
          <Trackpoint>
            <Time>2021-08-01T10:08:57.000Z</Time>
            <Position>
              <LatitudeDegrees>42.0065439306199550628662109375</LatitudeDegrees>
              <LongitudeDegrees>-2.20207222737371921539306640625</LongitudeDegrees>
            </Position>
            <AltitudeMeters>1198.5999755859375</AltitudeMeters>
            <DistanceMeters>368500.47466099</DistanceMeters>
          </Trackpoint>
          <Trackpoint>
            <Time>2021-08-01T10:09:08.000Z</Time>
            <Position>
              <LatitudeDegrees>42.0064795576035976409912109375</LatitudeDegrees>
              <LongitudeDegrees>-2.2018426470458507537841796875</LongitudeDegrees>
            </Position>
            <AltitudeMeters>1199.5999755859375</AltitudeMeters>
            <DistanceMeters>368520.76903919</DistanceMeters>
          </Trackpoint>
          <Trackpoint>
            <Time>2021-08-01T10:09:15.000Z</Time>
            <Position>
              <LatitudeDegrees>42.00643479824066162109375</LatitudeDegrees>
              <LongitudeDegrees>-2.201693616807460784912109375</LongitudeDegrees>
            </Position>
            <AltitudeMeters>1200.5999755859375</AltitudeMeters>
            <DistanceMeters>368534.06327313</DistanceMeters>
          </Trackpoint>
          <Trackpoint>
            <Time>2021-08-01T10:09:25.000Z</Time>
            <Position>
              <LatitudeDegrees>42.006376124918460845947265625</LatitudeDegrees>
              <LongitudeDegrees>-2.20149437896907329559326171875</LongitudeDegrees>
            </Position>
            <AltitudeMeters>1201.5999755859375</AltitudeMeters>
            <DistanceMeters>368551.78823913</DistanceMeters>
          </Trackpoint>
          <Trackpoint>
            <Time>2021-08-01T10:09:33.000Z</Time>
            <Position>
              <LatitudeDegrees>42.0063310302793979644775390625</LatitudeDegrees>
              <LongitudeDegrees>-2.20133788883686065673828125</LongitudeDegrees>
            </Position>
            <AltitudeMeters>1202.800048828125</AltitudeMeters>
            <DistanceMeters>368565.66994765</DistanceMeters>
          </Trackpoint>
          <Trackpoint>
            <Time>2021-08-01T10:09:43.000Z</Time>
            <Position>
              <LatitudeDegrees>42.00627026148140430450439453125</LatitudeDegrees>
              <LongitudeDegrees>-2.20113714225590229034423828125</LongitudeDegrees>
            </Position>
            <AltitudeMeters>1203.800048828125</AltitudeMeters>
            <DistanceMeters>368583.59778943</DistanceMeters>
          </Trackpoint>
          <Trackpoint>
            <Time>2021-08-01T10:09:52.000Z</Time>
            <Position>
              <LatitudeDegrees>42.00622935779392719268798828125</LatitudeDegrees>
              <LongitudeDegrees>-2.20095240511000156402587890625</LongitudeDegrees>
            </Position>
            <AltitudeMeters>1204.5999755859375</AltitudeMeters>
            <DistanceMeters>368599.54020241</DistanceMeters>
          </Trackpoint>
          <Trackpoint>
            <Time>2021-08-01T10:10:00.000Z</Time>
            <Position>
              <LatitudeDegrees>42.0061768032610416412353515625</LatitudeDegrees>
              <LongitudeDegrees>-2.20080077648162841796875</LongitudeDegrees>
            </Position>
            <AltitudeMeters>1205.800048828125</AltitudeMeters>
            <DistanceMeters>368613.37793239</DistanceMeters>
          </Trackpoint>
          <Trackpoint>
            <Time>2021-08-01T10:10:08.000Z</Time>
            <Position>
              <LatitudeDegrees>42.00612793676555156707763671875</LatitudeDegrees>
              <LongitudeDegrees>-2.2006571106612682342529296875</LongitudeDegrees>
            </Position>
            <AltitudeMeters>1206.800048828125</AltitudeMeters>
            <DistanceMeters>368626.44540137</DistanceMeters>
          </Trackpoint>
          <Trackpoint>
            <Time>2021-08-01T10:10:16.000Z</Time>
            <Position>
              <LatitudeDegrees>42.0060862787067890167236328125</LatitudeDegrees>
              <LongitudeDegrees>-2.200515456497669219970703125</LongitudeDegrees>
            </Position>
            <AltitudeMeters>1207.800048828125</AltitudeMeters>
            <DistanceMeters>368639.04495469</DistanceMeters>
          </Trackpoint>
          <Trackpoint>
            <Time>2021-08-01T10:10:24.000Z</Time>
            <Position>
              <LatitudeDegrees>42.00604814104735851287841796875</LatitudeDegrees>
              <LongitudeDegrees>-2.2003729641437530517578125</LongitudeDegrees>
            </Position>
            <AltitudeMeters>1209</AltitudeMeters>
            <DistanceMeters>368651.57119148</DistanceMeters>
          </Trackpoint>
          <Trackpoint>
            <Time>2021-08-01T10:10:32.000Z</Time>
            <Position>
              <LatitudeDegrees>42.00600631535053253173828125</LatitudeDegrees>
              <LongitudeDegrees>-2.20022971741855144500732421875</LongitudeDegrees>
            </Position>
            <AltitudeMeters>1210.199951171875</AltitudeMeters>
            <DistanceMeters>368664.30051557</DistanceMeters>
          </Trackpoint>
          <Trackpoint>
            <Time>2021-08-01T10:10:39.000Z</Time>
            <Position>
              <LatitudeDegrees>42.0059672556817531585693359375</LatitudeDegrees>
              <LongitudeDegrees>-2.200108431279659271240234375</LongitudeDegrees>
            </Position>
            <AltitudeMeters>1211.199951171875</AltitudeMeters>
            <DistanceMeters>368675.23313153</DistanceMeters>
          </Trackpoint>
          <Trackpoint>
            <Time>2021-08-01T10:10:46.000Z</Time>
            <Position>
              <LatitudeDegrees>42.00592895038425922393798828125</LatitudeDegrees>
              <LongitudeDegrees>-2.19997876323759555816650390625</LongitudeDegrees>
            </Position>
            <AltitudeMeters>1212.199951171875</AltitudeMeters>
            <DistanceMeters>368686.77369467</DistanceMeters>
          </Trackpoint>
          <Trackpoint>
            <Time>2021-08-01T10:10:54.000Z</Time>
            <Position>
              <LatitudeDegrees>42.0058837719261646270751953125</LatitudeDegrees>
              <LongitudeDegrees>-2.19983140937983989715576171875</LongitudeDegrees>
            </Position>
            <AltitudeMeters>1213.199951171875</AltitudeMeters>
            <DistanceMeters>368699.95743129</DistanceMeters>
          </Trackpoint>
          <Trackpoint>
            <Time>2021-08-01T10:11:01.000Z</Time>
            <Position>
              <LatitudeDegrees>42.00585032813251018524169921875</LatitudeDegrees>
              <LongitudeDegrees>-2.19970216043293476104736328125</LongitudeDegrees>
            </Position>
            <AltitudeMeters>1214.4000244140625</AltitudeMeters>
            <DistanceMeters>368711.27638551</DistanceMeters>
          </Trackpoint>
          <Trackpoint>
            <Time>2021-08-01T10:11:11.000Z</Time>
            <Position>
              <LatitudeDegrees>42.00579710304737091064453125</LatitudeDegrees>
              <LongitudeDegrees>-2.19950719736516475677490234375</LongitudeDegrees>
            </Position>
            <AltitudeMeters>1215.5999755859375</AltitudeMeters>
            <DistanceMeters>368728.45468194</DistanceMeters>
          </Trackpoint>
          <Trackpoint>
            <Time>2021-08-01T10:11:20.000Z</Time>
            <Position>
              <LatitudeDegrees>42.0057556964457035064697265625</LatitudeDegrees>
              <LongitudeDegrees>-2.19932849518954753875732421875</LongitudeDegrees>
            </Position>
            <AltitudeMeters>1216.5999755859375</AltitudeMeters>
            <DistanceMeters>368743.93616407</DistanceMeters>
          </Trackpoint>
          <Trackpoint>
            <Time>2021-08-01T10:11:26.000Z</Time>
            <Position>
              <LatitudeDegrees>42.0057307183742523193359375</LatitudeDegrees>
              <LongitudeDegrees>-2.19919748604297637939453125</LongitudeDegrees>
            </Position>
            <AltitudeMeters>1217.800048828125</AltitudeMeters>
            <DistanceMeters>368755.12270953</DistanceMeters>
          </Trackpoint>
          <Trackpoint>
            <Time>2021-08-01T10:11:41.000Z</Time>
            <Position>
              <LatitudeDegrees>42.00568269006907939910888671875</LatitudeDegrees>
              <LongitudeDegrees>-2.19884452410042285919189453125</LongitudeDegrees>
            </Position>
            <AltitudeMeters>1218.800048828125</AltitudeMeters>
            <DistanceMeters>368784.800269</DistanceMeters>
          </Trackpoint>
          <Trackpoint>
            <Time>2021-08-01T10:11:51.000Z</Time>
            <Position>
              <LatitudeDegrees>42.005655951797962188720703125</LatitudeDegrees>
              <LongitudeDegrees>-2.19859926961362361907958984375</LongitudeDegrees>
            </Position>
            <AltitudeMeters>1219.800048828125</AltitudeMeters>
            <DistanceMeters>368805.30182841</DistanceMeters>
          </Trackpoint>
          <Trackpoint>
            <Time>2021-08-01T10:12:01.000Z</Time>
            <Position>
              <LatitudeDegrees>42.005628459155559539794921875</LatitudeDegrees>
              <LongitudeDegrees>-2.19834345392882823944091796875</LongitudeDegrees>
            </Position>
            <AltitudeMeters>1220.5999755859375</AltitudeMeters>
            <DistanceMeters>368826.67967135</DistanceMeters>
          </Trackpoint>
          <Trackpoint>
            <Time>2021-08-01T10:12:18.000Z</Time>
            <Position>
              <LatitudeDegrees>42.00558210723102092742919921875</LatitudeDegrees>
              <LongitudeDegrees>-2.197906337678432464599609375</LongitudeDegrees>
            </Position>
            <AltitudeMeters>1221.800048828125</AltitudeMeters>
            <DistanceMeters>368863.19812983</DistanceMeters>
          </Trackpoint>
          <Trackpoint>
            <Time>2021-08-01T10:12:32.000Z</Time>
            <Position>
              <LatitudeDegrees>42.0055082626640796661376953125</LatitudeDegrees>
              <LongitudeDegrees>-2.19754658639430999755859375</LongitudeDegrees>
            </Position>
            <AltitudeMeters>1222.800048828125</AltitudeMeters>
            <DistanceMeters>368894.06616517</DistanceMeters>
          </Trackpoint>
          <Trackpoint>
            <Time>2021-08-01T10:12:45.000Z</Time>
            <Position>
              <LatitudeDegrees>42.00539074838161468505859375</LatitudeDegrees>
              <LongitudeDegrees>-2.19722296111285686492919921875</LongitudeDegrees>
            </Position>
            <AltitudeMeters>1223.800048828125</AltitudeMeters>
            <DistanceMeters>368923.85700224</DistanceMeters>
          </Trackpoint>
          <Trackpoint>
            <Time>2021-08-01T10:13:00.000Z</Time>
            <Position>
              <LatitudeDegrees>42.00520492158830165863037109375</LatitudeDegrees>
              <LongitudeDegrees>-2.19677017070353031158447265625</LongitudeDegrees>
            </Position>
            <AltitudeMeters>1225</AltitudeMeters>
            <DistanceMeters>368966.63781375</DistanceMeters>
          </Trackpoint>
          <Trackpoint>
            <Time>2021-08-01T10:13:04.000Z</Time>
            <Position>
              <LatitudeDegrees>42.00515337288379669189453125</LatitudeDegrees>
              <LongitudeDegrees>-2.1966455318033695220947265625</LongitudeDegrees>
            </Position>
            <AltitudeMeters>1225</AltitudeMeters>
            <DistanceMeters>368978.43567789</DistanceMeters>
          </Trackpoint>
          <Trackpoint>
            <Time>2021-08-01T10:13:24.000Z</Time>
            <Position>
              <LatitudeDegrees>42.005110792815685272216796875</LatitudeDegrees>
              <LongitudeDegrees>-2.19597254879772663116455078125</LongitudeDegrees>
            </Position>
            <AltitudeMeters>1225.800048828125</AltitudeMeters>
            <DistanceMeters>369034.2973241</DistanceMeters>
          </Trackpoint>
          <Trackpoint>
            <Time>2021-08-01T10:13:30.000Z</Time>
            <Position>
              <LatitudeDegrees>42.00512847863137722015380859375</LatitudeDegrees>
              <LongitudeDegrees>-2.19578127376735210418701171875</LongitudeDegrees>
            </Position>
            <AltitudeMeters>1226.800048828125</AltitudeMeters>
            <DistanceMeters>369050.23917065</DistanceMeters>
          </Trackpoint>
          <Trackpoint>
            <Time>2021-08-01T10:13:38.000Z</Time>
            <Position>
              <LatitudeDegrees>42.0051572285592555999755859375</LatitudeDegrees>
              <LongitudeDegrees>-2.19553702510893344879150390625</LongitudeDegrees>
            </Position>
            <AltitudeMeters>1228</AltitudeMeters>
            <DistanceMeters>369070.69222229</DistanceMeters>
          </Trackpoint>
          <Trackpoint>
            <Time>2021-08-01T10:13:46.000Z</Time>
            <Position>
              <LatitudeDegrees>42.00519067235291004180908203125</LatitudeDegrees>
              <LongitudeDegrees>-2.1952802874147891998291015625</LongitudeDegrees>
            </Position>
            <AltitudeMeters>1229</AltitudeMeters>
            <DistanceMeters>369092.25009589</DistanceMeters>
          </Trackpoint>
          <Trackpoint>
            <Time>2021-08-01T10:13:57.000Z</Time>
            <Position>
              <LatitudeDegrees>42.005230486392974853515625</LatitudeDegrees>
              <LongitudeDegrees>-2.19495850615203380584716796875</LongitudeDegrees>
            </Position>
            <AltitudeMeters>1230.199951171875</AltitudeMeters>
            <DistanceMeters>369119.22998585</DistanceMeters>
          </Trackpoint>
          <Trackpoint>
            <Time>2021-08-01T10:14:06.000Z</Time>
            <Position>
              <LatitudeDegrees>42.00526074506342411041259765625</LatitudeDegrees>
              <LongitudeDegrees>-2.19469380564987659454345703125</LongitudeDegrees>
            </Position>
            <AltitudeMeters>1231.199951171875</AltitudeMeters>
            <DistanceMeters>369141.38018096</DistanceMeters>
          </Trackpoint>
          <Trackpoint>
            <Time>2021-08-01T10:14:15.000Z</Time>
            <Position>
              <LatitudeDegrees>42.0052990503609180450439453125</LatitudeDegrees>
              <LongitudeDegrees>-2.19444368965923786163330078125</LongitudeDegrees>
            </Position>
            <AltitudeMeters>1232.4000244140625</AltitudeMeters>
            <DistanceMeters>369162.5013513</DistanceMeters>
          </Trackpoint>
          <Trackpoint>
            <Time>2021-08-01T10:14:24.000Z</Time>
            <Position>
              <LatitudeDegrees>42.00535713694989681243896484375</LatitudeDegrees>
              <LongitudeDegrees>-2.19419290311634540557861328125</LongitudeDegrees>
            </Position>
            <AltitudeMeters>1233.4000244140625</AltitudeMeters>
            <DistanceMeters>369184.22737615</DistanceMeters>
          </Trackpoint>
          <Trackpoint>
            <Time>2021-08-01T10:14:32.000Z</Time>
            <Position>
              <LatitudeDegrees>42.00541513971984386444091796875</LatitudeDegrees>
              <LongitudeDegrees>-2.1939733810722827911376953125</LongitudeDegrees>
            </Position>
            <AltitudeMeters>1234.4000244140625</AltitudeMeters>
            <DistanceMeters>369203.49695693</DistanceMeters>
          </Trackpoint>
          <Trackpoint>
            <Time>2021-08-01T10:14:40.000Z</Time>
            <Position>
              <LatitudeDegrees>42.005474567413330078125</LatitudeDegrees>
              <LongitudeDegrees>-2.19375285319983959197998046875</LongitudeDegrees>
            </Position>
            <AltitudeMeters>1235.4000244140625</AltitudeMeters>
            <DistanceMeters>369222.8984707</DistanceMeters>
          </Trackpoint>
          <Trackpoint>
            <Time>2021-08-01T10:14:54.000Z</Time>
            <Position>
              <LatitudeDegrees>42.00557724572718143463134765625</LatitudeDegrees>
              <LongitudeDegrees>-2.19336410053074359893798828125</LongitudeDegrees>
            </Position>
            <AltitudeMeters>1236.4000244140625</AltitudeMeters>
            <DistanceMeters>369257.02139814</DistanceMeters>
          </Trackpoint>
          <Trackpoint>
            <Time>2021-08-01T10:15:01.000Z</Time>
            <Position>
              <LatitudeDegrees>42.00562921352684497833251953125</LatitudeDegrees>
              <LongitudeDegrees>-2.19317534007132053375244140625</LongitudeDegrees>
            </Position>
            <AltitudeMeters>1237.4000244140625</AltitudeMeters>
            <DistanceMeters>369273.67033884</DistanceMeters>
          </Trackpoint>
          <Trackpoint>
            <Time>2021-08-01T10:15:10.000Z</Time>
            <Position>
              <LatitudeDegrees>42.00568738393485546112060546875</LatitudeDegrees>
              <LongitudeDegrees>-2.1929370425641536712646484375</LongitudeDegrees>
            </Position>
            <AltitudeMeters>1238.5999755859375</AltitudeMeters>
            <DistanceMeters>369294.41534747</DistanceMeters>
          </Trackpoint>
          <Trackpoint>
            <Time>2021-08-01T10:15:18.000Z</Time>
            <Position>
              <LatitudeDegrees>42.00573180802166461944580078125</LatitudeDegrees>
              <LongitudeDegrees>-2.19273545779287815093994140625</LongitudeDegrees>
            </Position>
            <AltitudeMeters>1239.5999755859375</AltitudeMeters>
            <DistanceMeters>369311.80549584</DistanceMeters>
          </Trackpoint>
          <Trackpoint>
            <Time>2021-08-01T10:15:23.000Z</Time>
            <Position>
              <LatitudeDegrees>42.00575075112283229827880859375</LatitudeDegrees>
              <LongitudeDegrees>-2.19261023215949535369873046875</LongitudeDegrees>
            </Position>
            <AltitudeMeters>1240.800048828125</AltitudeMeters>
            <DistanceMeters>369322.37526905</DistanceMeters>
          </Trackpoint>
          <Trackpoint>
            <Time>2021-08-01T10:15:32.000Z</Time>
            <Position>
              <LatitudeDegrees>42.0057533495128154754638671875</LatitudeDegrees>
              <LongitudeDegrees>-2.1924552507698535919189453125</LongitudeDegrees>
            </Position>
            <AltitudeMeters>1241.800048828125</AltitudeMeters>
            <DistanceMeters>369335.19613023</DistanceMeters>
          </Trackpoint>
          <Trackpoint>
            <Time>2021-08-01T10:15:43.000Z</Time>
            <Position>
              <LatitudeDegrees>42.00574555434286594390869140625</LatitudeDegrees>
              <LongitudeDegrees>-2.1923010237514972686767578125</LongitudeDegrees>
            </Position>
            <AltitudeMeters>1242.800048828125</AltitudeMeters>
            <DistanceMeters>369347.98102029</DistanceMeters>
          </Trackpoint>
          <Trackpoint>
            <Time>2021-08-01T10:15:50.000Z</Time>
            <Position>
              <LatitudeDegrees>42.00572862289845943450927734375</LatitudeDegrees>
              <LongitudeDegrees>-2.1921716071665287017822265625</LongitudeDegrees>
            </Position>
            <AltitudeMeters>1243.800048828125</AltitudeMeters>
            <DistanceMeters>369358.84901918</DistanceMeters>
          </Trackpoint>
          <Trackpoint>
            <Time>2021-08-01T10:15:56.000Z</Time>
            <Position>
              <LatitudeDegrees>42.0057060755789279937744140625</LatitudeDegrees>
              <LongitudeDegrees>-2.1920509077608585357666015625</LongitudeDegrees>
            </Position>
            <AltitudeMeters>1245</AltitudeMeters>
            <DistanceMeters>369369.14221532</DistanceMeters>
          </Trackpoint>
          <Trackpoint>
            <Time>2021-08-01T10:16:04.000Z</Time>
            <Position>
              <LatitudeDegrees>42.00567665509879589080810546875</LatitudeDegrees>
              <LongitudeDegrees>-2.1918856166303157806396484375</LongitudeDegrees>
            </Position>
            <AltitudeMeters>1246</AltitudeMeters>
            <DistanceMeters>369383.19942567</DistanceMeters>
          </Trackpoint>
          <Trackpoint>
            <Time>2021-08-01T10:16:13.000Z</Time>
            <Position>
              <LatitudeDegrees>42.00563977472484111785888671875</LatitudeDegrees>
              <LongitudeDegrees>-2.191707082092761993408203125</LongitudeDegrees>
            </Position>
            <AltitudeMeters>1247</AltitudeMeters>
            <DistanceMeters>369398.52555854</DistanceMeters>
          </Trackpoint>
          <Trackpoint>
            <Time>2021-08-01T10:16:22.000Z</Time>
            <Position>
              <LatitudeDegrees>42.00559535063803195953369140625</LatitudeDegrees>
              <LongitudeDegrees>-2.19152309931814670562744140625</LongitudeDegrees>
            </Position>
            <AltitudeMeters>1248</AltitudeMeters>
            <DistanceMeters>369414.5250775</DistanceMeters>
          </Trackpoint>
          <Trackpoint>
            <Time>2021-08-01T10:16:29.000Z</Time>
            <Position>
              <LatitudeDegrees>42.005552351474761962890625</LatitudeDegrees>
              <LongitudeDegrees>-2.1913847140967845916748046875</LongitudeDegrees>
            </Position>
            <AltitudeMeters>1249.199951171875</AltitudeMeters>
            <DistanceMeters>369426.93106891</DistanceMeters>
          </Trackpoint>
          <Trackpoint>
            <Time>2021-08-01T10:16:41.000Z</Time>
            <Position>
              <LatitudeDegrees>42.00545989908277988433837890625</LatitudeDegrees>
              <LongitudeDegrees>-2.19115479849278926849365234375</LongitudeDegrees>
            </Position>
            <AltitudeMeters>1250.199951171875</AltitudeMeters>
            <DistanceMeters>369448.55251792</DistanceMeters>
          </Trackpoint>
          <Trackpoint>
            <Time>2021-08-01T10:16:54.000Z</Time>
            <Position>
              <LatitudeDegrees>42.0053471624851226806640625</LatitudeDegrees>
              <LongitudeDegrees>-2.19092161394655704498291015625</LongitudeDegrees>
            </Position>
            <AltitudeMeters>1251.199951171875</AltitudeMeters>
            <DistanceMeters>369471.56115243</DistanceMeters>
          </Trackpoint>
          <Trackpoint>
            <Time>2021-08-01T10:17:06.000Z</Time>
            <Position>
              <LatitudeDegrees>42.00524264015257358551025390625</LatitudeDegrees>
              <LongitudeDegrees>-2.19071474857628345489501953125</LongitudeDegrees>
            </Position>
            <AltitudeMeters>1252.199951171875</AltitudeMeters>
            <DistanceMeters>369492.25080549</DistanceMeters>
          </Trackpoint>
          <Trackpoint>
            <Time>2021-08-01T10:17:21.000Z</Time>
            <Position>
              <LatitudeDegrees>42.0051406323909759521484375</LatitudeDegrees>
              <LongitudeDegrees>-2.1904251538217067718505859375</LongitudeDegrees>
            </Position>
            <AltitudeMeters>1253.199951171875</AltitudeMeters>
            <DistanceMeters>369518.75695699</DistanceMeters>
          </Trackpoint>
          <Trackpoint>
            <Time>2021-08-01T10:17:32.000Z</Time>
            <Position>
              <LatitudeDegrees>42.005100734531879425048828125</LatitudeDegrees>
              <LongitudeDegrees>-2.19026614911854267120361328125</LongitudeDegrees>
            </Position>
            <AltitudeMeters>1253.800048828125</AltitudeMeters>
            <DistanceMeters>369532.63736444</DistanceMeters>
          </Trackpoint>
          <Trackpoint>
            <Time>2021-08-01T10:19:48.000Z</Time>
            <Position>
              <LatitudeDegrees>42.00509176589548587799072265625</LatitudeDegrees>
              <LongitudeDegrees>-2.19019733369350433349609375</LongitudeDegrees>
            </Position>
            <AltitudeMeters>1253.800048828125</AltitudeMeters>
            <DistanceMeters>369538.41448851</DistanceMeters>
          </Trackpoint>
          <Trackpoint>
            <Time>2021-08-01T10:20:07.000Z</Time>
            <Position>
              <LatitudeDegrees>42.004870735108852386474609375</LatitudeDegrees>
              <LongitudeDegrees>-2.18952686525881290435791015625</LongitudeDegrees>
            </Position>
            <AltitudeMeters>1252.199951171875</AltitudeMeters>
            <DistanceMeters>369599.07905473</DistanceMeters>
          </Trackpoint>
          <Trackpoint>
            <Time>2021-08-01T10:20:08.000Z</Time>
            <Position>
              <LatitudeDegrees>42.00485589914023876190185546875</LatitudeDegrees>
              <LongitudeDegrees>-2.18946986831724643707275390625</LongitudeDegrees>
            </Position>
            <AltitudeMeters>1251.800048828125</AltitudeMeters>
            <DistanceMeters>369604.07315837</DistanceMeters>
          </Trackpoint>
          <Trackpoint>
            <Time>2021-08-01T10:20:13.000Z</Time>
            <Position>
              <LatitudeDegrees>42.00475380755960941314697265625</LatitudeDegrees>
              <LongitudeDegrees>-2.189193852245807647705078125</LongitudeDegrees>
            </Position>
            <AltitudeMeters>1251.5999755859375</AltitudeMeters>
            <DistanceMeters>369629.57327219</DistanceMeters>
          </Trackpoint>
          <Trackpoint>
            <Time>2021-08-01T10:20:22.000Z</Time>
            <Position>
              <LatitudeDegrees>42.0044223032891750335693359375</LatitudeDegrees>
              <LongitudeDegrees>-2.18923266045749187469482421875</LongitudeDegrees>
            </Position>
            <AltitudeMeters>1251.800048828125</AltitudeMeters>
            <DistanceMeters>369666.60980459</DistanceMeters>
          </Trackpoint>
          <Trackpoint>
            <Time>2021-08-01T10:20:38.000Z</Time>
            <Position>
              <LatitudeDegrees>42.00395216234028339385986328125</LatitudeDegrees>
              <LongitudeDegrees>-2.1896266937255859375</LongitudeDegrees>
            </Position>
            <AltitudeMeters>1252.800048828125</AltitudeMeters>
            <DistanceMeters>369728.25614715</DistanceMeters>
          </Trackpoint>
          <Trackpoint>
            <Time>2021-08-01T10:20:44.000Z</Time>
            <Position>
              <LatitudeDegrees>42.00379776768386363983154296875</LatitudeDegrees>
              <LongitudeDegrees>-2.18982391990721225738525390625</LongitudeDegrees>
            </Position>
            <AltitudeMeters>1252.800048828125</AltitudeMeters>
            <DistanceMeters>369751.94983455</DistanceMeters>
          </Trackpoint>
          <Trackpoint>
            <Time>2021-08-01T10:21:00.000Z</Time>
            <Position>
              <LatitudeDegrees>42.00344924814999103546142578125</LatitudeDegrees>
              <LongitudeDegrees>-2.19039657153189182281494140625</LongitudeDegrees>
            </Position>
            <AltitudeMeters>1253.199951171875</AltitudeMeters>
            <DistanceMeters>369813.17093817</DistanceMeters>
          </Trackpoint>
          <Trackpoint>
            <Time>2021-08-01T10:21:06.000Z</Time>
            <Position>
              <LatitudeDegrees>42.00333441607654094696044921875</LatitudeDegrees>
              <LongitudeDegrees>-2.19060880132019519805908203125</LongitudeDegrees>
            </Position>
            <AltitudeMeters>1253.800048828125</AltitudeMeters>
            <DistanceMeters>369834.88428248</DistanceMeters>
          </Trackpoint>
          <Trackpoint>
            <Time>2021-08-01T10:21:23.000Z</Time>
            <Position>
              <LatitudeDegrees>42.00289101339876651763916015625</LatitudeDegrees>
              <LongitudeDegrees>-2.19104616902768611907958984375</LongitudeDegrees>
            </Position>
            <AltitudeMeters>1254.4000244140625</AltitudeMeters>
            <DistanceMeters>369896.07396067</DistanceMeters>
          </Trackpoint>
          <Trackpoint>
            <Time>2021-08-01T10:21:27.000Z</Time>
            <Position>
              <LatitudeDegrees>42.0027435757219791412353515625</LatitudeDegrees>
              <LongitudeDegrees>-2.19110685400664806365966796875</LongitudeDegrees>
            </Position>
            <AltitudeMeters>1253.5999755859375</AltitudeMeters>
            <DistanceMeters>369913.23463819</DistanceMeters>
          </Trackpoint>
          <Trackpoint>
            <Time>2021-08-01T10:21:31.000Z</Time>
            <Position>
              <LatitudeDegrees>42.00255221687257289886474609375</LatitudeDegrees>
              <LongitudeDegrees>-2.19111691229045391082763671875</LongitudeDegrees>
            </Position>
            <AltitudeMeters>1252.199951171875</AltitudeMeters>
            <DistanceMeters>369934.54945008</DistanceMeters>
          </Trackpoint>
          <Trackpoint>
            <Time>2021-08-01T10:21:34.000Z</Time>
            <Position>
              <LatitudeDegrees>42.00239731930196285247802734375</LatitudeDegrees>
              <LongitudeDegrees>-2.19111288897693157196044921875</LongitudeDegrees>
            </Position>
            <AltitudeMeters>1251.199951171875</AltitudeMeters>
            <DistanceMeters>369951.79306795</DistanceMeters>
          </Trackpoint>
          <Trackpoint>
            <Time>2021-08-01T10:21:45.000Z</Time>
            <Position>
              <LatitudeDegrees>42.001856267452239990234375</LatitudeDegrees>
              <LongitudeDegrees>-2.19105354510247707366943359375</LongitudeDegrees>
            </Position>
            <AltitudeMeters>1251.5999755859375</AltitudeMeters>
            <DistanceMeters>370012.21294807</DistanceMeters>
          </Trackpoint>
          <Trackpoint>
            <Time>2021-08-01T10:21:52.000Z</Time>
            <Position>
              <LatitudeDegrees>42.00155745260417461395263671875</LatitudeDegrees>
              <LongitudeDegrees>-2.191022448241710662841796875</LongitudeDegrees>
            </Position>
            <AltitudeMeters>1252.199951171875</AltitudeMeters>
            <DistanceMeters>370045.57097948</DistanceMeters>
          </Trackpoint>
          <Trackpoint>
            <Time>2021-08-01T10:22:05.000Z</Time>
            <Position>
              <LatitudeDegrees>42.00100039131939411163330078125</LatitudeDegrees>
              <LongitudeDegrees>-2.19094541855156421661376953125</LongitudeDegrees>
            </Position>
            <AltitudeMeters>1252</AltitudeMeters>
            <DistanceMeters>370107.89952228</DistanceMeters>
          </Trackpoint>
          <Trackpoint>
            <Time>2021-08-01T10:22:19.000Z</Time>
            <Position>
              <LatitudeDegrees>42.0004284940659999847412109375</LatitudeDegrees>
              <LongitudeDegrees>-2.1909398026764392852783203125</LongitudeDegrees>
            </Position>
            <AltitudeMeters>1253</AltitudeMeters>
            <DistanceMeters>370171.55458392</DistanceMeters>
          </Trackpoint>
          <Trackpoint>
            <Time>2021-08-01T10:22:20.000Z</Time>
            <Position>
              <LatitudeDegrees>42.00039085932075977325439453125</LatitudeDegrees>
              <LongitudeDegrees>-2.190943658351898193359375</LongitudeDegrees>
            </Position>
            <AltitudeMeters>1253.4000244140625</AltitudeMeters>
            <DistanceMeters>370175.75515166</DistanceMeters>
          </Trackpoint>
          <Trackpoint>
            <Time>2021-08-01T10:22:27.000Z</Time>
            <Position>
              <LatitudeDegrees>42.0001249015331268310546875</LatitudeDegrees>
              <LongitudeDegrees>-2.19096452929079532623291015625</LongitudeDegrees>
            </Position>
            <AltitudeMeters>1254.4000244140625</AltitudeMeters>
            <DistanceMeters>370205.40714119</DistanceMeters>
          </Trackpoint>
          <Trackpoint>
            <Time>2021-08-01T10:22:32.000Z</Time>
            <Position>
              <LatitudeDegrees>41.99992901645600795745849609375</LatitudeDegrees>
              <LongitudeDegrees>-2.190946005284786224365234375</LongitudeDegrees>
            </Position>
            <AltitudeMeters>1255.4000244140625</AltitudeMeters>
            <DistanceMeters>370227.2632855</DistanceMeters>
          </Trackpoint>
          <Trackpoint>
            <Time>2021-08-01T10:22:39.000Z</Time>
            <Position>
              <LatitudeDegrees>41.99965677224099636077880859375</LatitudeDegrees>
              <LongitudeDegrees>-2.1908975578844547271728515625</LongitudeDegrees>
            </Position>
            <AltitudeMeters>1256.5999755859375</AltitudeMeters>
            <DistanceMeters>370257.82837373</DistanceMeters>
          </Trackpoint>
          <Trackpoint>
            <Time>2021-08-01T10:22:52.000Z</Time>
            <Position>
              <LatitudeDegrees>41.99914832599461078643798828125</LatitudeDegrees>
              <LongitudeDegrees>-2.19061751849949359893798828125</LongitudeDegrees>
            </Position>
            <AltitudeMeters>1256.4000244140625</AltitudeMeters>
            <DistanceMeters>370318.97642156</DistanceMeters>
          </Trackpoint>
          <Trackpoint>
            <Time>2021-08-01T10:22:57.000Z</Time>
            <Position>
              <LatitudeDegrees>41.99894414283335208892822265625</LatitudeDegrees>
              <LongitudeDegrees>-2.1905173547565937042236328125</LongitudeDegrees>
            </Position>
            <AltitudeMeters>1256</AltitudeMeters>
            <DistanceMeters>370343.16552723</DistanceMeters>
          </Trackpoint>
          <Trackpoint>
            <Time>2021-08-01T10:23:04.000Z</Time>
            <Position>
              <LatitudeDegrees>41.99871431104838848114013671875</LatitudeDegrees>
              <LongitudeDegrees>-2.19071692787110805511474609375</LongitudeDegrees>
            </Position>
            <AltitudeMeters>1256</AltitudeMeters>
            <DistanceMeters>370373.6099866</DistanceMeters>
          </Trackpoint>
          <Trackpoint>
            <Time>2021-08-01T10:23:11.000Z</Time>
            <Position>
              <LatitudeDegrees>41.99856494553387165069580078125</LatitudeDegrees>
              <LongitudeDegrees>-2.19099990092217922210693359375</LongitudeDegrees>
            </Position>
            <AltitudeMeters>1257.5999755859375</AltitudeMeters>
            <DistanceMeters>370402.31922253</DistanceMeters>
          </Trackpoint>
          <Trackpoint>
            <Time>2021-08-01T10:23:16.000Z</Time>
            <Position>
              <LatitudeDegrees>41.99846536852419376373291015625</LatitudeDegrees>
              <LongitudeDegrees>-2.19118078239262104034423828125</LongitudeDegrees>
            </Position>
            <AltitudeMeters>1258.800048828125</AltitudeMeters>
            <DistanceMeters>370420.93863967</DistanceMeters>
          </Trackpoint>
          <Trackpoint>
            <Time>2021-08-01T10:23:20.000Z</Time>
            <Position>
              <LatitudeDegrees>41.99839009903371334075927734375</LatitudeDegrees>
              <LongitudeDegrees>-2.19132495112717151641845703125</LongitudeDegrees>
            </Position>
            <AltitudeMeters>1260</AltitudeMeters>
            <DistanceMeters>370435.51215668</DistanceMeters>
          </Trackpoint>
          <Trackpoint>
            <Time>2021-08-01T10:23:24.000Z</Time>
            <Position>
              <LatitudeDegrees>41.99831373989582061767578125</LatitudeDegrees>
              <LongitudeDegrees>-2.19146358780562877655029296875</LongitudeDegrees>
            </Position>
            <AltitudeMeters>1261</AltitudeMeters>
            <DistanceMeters>370449.78578918</DistanceMeters>
          </Trackpoint>
          <Trackpoint>
            <Time>2021-08-01T10:23:29.000Z</Time>
            <Position>
              <LatitudeDegrees>41.99817921034991741180419921875</LatitudeDegrees>
              <LongitudeDegrees>-2.191594429314136505126953125</LongitudeDegrees>
            </Position>
            <AltitudeMeters>1262.199951171875</AltitudeMeters>
            <DistanceMeters>370468.26109404</DistanceMeters>
          </Trackpoint>
          <Trackpoint>
            <Time>2021-08-01T10:23:41.000Z</Time>
            <Position>
              <LatitudeDegrees>41.9978086464107036590576171875</LatitudeDegrees>
              <LongitudeDegrees>-2.1916200779378414154052734375</LongitudeDegrees>
            </Position>
            <AltitudeMeters>1261.5999755859375</AltitudeMeters>
            <DistanceMeters>370509.56012392</DistanceMeters>
          </Trackpoint>
          <Trackpoint>
            <Time>2021-08-01T10:23:42.000Z</Time>
            <Position>
              <LatitudeDegrees>41.9977677427232265472412109375</LatitudeDegrees>
              <LongitudeDegrees>-2.1915982849895954132080078125</LongitudeDegrees>
            </Position>
            <AltitudeMeters>1261</AltitudeMeters>
            <DistanceMeters>370514.45745819</DistanceMeters>
          </Trackpoint>
          <Trackpoint>
            <Time>2021-08-01T10:23:45.000Z</Time>
            <Position>
              <LatitudeDegrees>41.9976277649402618408203125</LatitudeDegrees>
              <LongitudeDegrees>-2.191493511199951171875</LongitudeDegrees>
            </Position>
            <AltitudeMeters>1259.5999755859375</AltitudeMeters>
            <DistanceMeters>370532.28554364</DistanceMeters>
          </Trackpoint>
          <Trackpoint>
            <Time>2021-08-01T10:23:48.000Z</Time>
            <Position>
              <LatitudeDegrees>41.99747630394995212554931640625</LatitudeDegrees>
              <LongitudeDegrees>-2.19134758226573467254638671875</LongitudeDegrees>
            </Position>
            <AltitudeMeters>1258.4000244140625</AltitudeMeters>
            <DistanceMeters>370553.01923167</DistanceMeters>
          </Trackpoint>
          <Trackpoint>
            <Time>2021-08-01T10:23:50.000Z</Time>
            <Position>
              <LatitudeDegrees>41.99738577939569950103759765625</LatitudeDegrees>
              <LongitudeDegrees>-2.1912425570189952850341796875</LongitudeDegrees>
            </Position>
            <AltitudeMeters>1257.5999755859375</AltitudeMeters>
            <DistanceMeters>370566.32297168</DistanceMeters>
          </Trackpoint>
          <Trackpoint>
            <Time>2021-08-01T10:23:51.000Z</Time>
            <Position>
              <LatitudeDegrees>41.99734789319336414337158203125</LatitudeDegrees>
              <LongitudeDegrees>-2.19118312932550907135009765625</LongitudeDegrees>
            </Position>
            <AltitudeMeters>1257</AltitudeMeters>
            <DistanceMeters>370572.80014198</DistanceMeters>
          </Trackpoint>
          <Trackpoint>
            <Time>2021-08-01T10:23:54.000Z</Time>
            <Position>
              <LatitudeDegrees>41.99723004363477230072021484375</LatitudeDegrees>
              <LongitudeDegrees>-2.190991602838039398193359375</LongitudeDegrees>
            </Position>
            <AltitudeMeters>1255.5999755859375</AltitudeMeters>
            <DistanceMeters>370593.36810302</DistanceMeters>
          </Trackpoint>
          <Trackpoint>
            <Time>2021-08-01T10:23:56.000Z</Time>
            <Position>
              <LatitudeDegrees>41.99714270420372486114501953125</LatitudeDegrees>
              <LongitudeDegrees>-2.190847434103488922119140625</LongitudeDegrees>
            </Position>
            <AltitudeMeters>1254.4000244140625</AltitudeMeters>
            <DistanceMeters>370608.75362946</DistanceMeters>
          </Trackpoint>
          <Trackpoint>
            <Time>2021-08-01T10:23:58.000Z</Time>
            <Position>
              <LatitudeDegrees>41.997055113315582275390625</LatitudeDegrees>
              <LongitudeDegrees>-2.1906933747231960296630859375</LongitudeDegrees>
            </Position>
            <AltitudeMeters>1253.4000244140625</AltitudeMeters>
            <DistanceMeters>370624.79823663</DistanceMeters>
          </Trackpoint>
          <Trackpoint>
            <Time>2021-08-01T10:24:00.000Z</Time>
            <Position>
              <LatitudeDegrees>41.9969785027205944061279296875</LatitudeDegrees>
              <LongitudeDegrees>-2.19053403474390506744384765625</LongitudeDegrees>
            </Position>
            <AltitudeMeters>1252</AltitudeMeters>
            <DistanceMeters>370640.49635073</DistanceMeters>
          </Trackpoint>
          <Trackpoint>
            <Time>2021-08-01T10:24:02.000Z</Time>
            <Position>
              <LatitudeDegrees>41.996908597648143768310546875</LatitudeDegrees>
              <LongitudeDegrees>-2.19037880189716815948486328125</LongitudeDegrees>
            </Position>
            <AltitudeMeters>1250.5999755859375</AltitudeMeters>
            <DistanceMeters>370655.50997015</DistanceMeters>
          </Trackpoint>
          <Trackpoint>
            <Time>2021-08-01T10:24:03.000Z</Time>
            <Position>
              <LatitudeDegrees>41.99686995707452297210693359375</LatitudeDegrees>
              <LongitudeDegrees>-2.1903071366250514984130859375</LongitudeDegrees>
            </Position>
            <AltitudeMeters>1250</AltitudeMeters>
            <DistanceMeters>370662.83381164</DistanceMeters>
          </Trackpoint>
          <Trackpoint>
            <Time>2021-08-01T10:24:05.000Z</Time>
            <Position>
              <LatitudeDegrees>41.996776498854160308837890625</LatitudeDegrees>
              <LongitudeDegrees>-2.1901901252567768096923828125</LongitudeDegrees>
            </Position>
            <AltitudeMeters>1249.199951171875</AltitudeMeters>
            <DistanceMeters>370677.04245052</DistanceMeters>
          </Trackpoint>
          <Trackpoint>
            <Time>2021-08-01T10:24:10.000Z</Time>
            <Position>
              <LatitudeDegrees>41.9965255446732044219970703125</LatitudeDegrees>
              <LongitudeDegrees>-2.190233208239078521728515625</LongitudeDegrees>
            </Position>
            <AltitudeMeters>1248</AltitudeMeters>
            <DistanceMeters>370705.20051921</DistanceMeters>
          </Trackpoint>
          <Trackpoint>
            <Time>2021-08-01T10:24:23.000Z</Time>
            <Position>
              <LatitudeDegrees>41.9960653781890869140625</LatitudeDegrees>
              <LongitudeDegrees>-2.1906903572380542755126953125</LongitudeDegrees>
            </Position>
            <AltitudeMeters>1248.4000244140625</AltitudeMeters>
            <DistanceMeters>370768.86501381</DistanceMeters>
          </Trackpoint>
          <Trackpoint>
            <Time>2021-08-01T10:24:36.000Z</Time>
            <Position>
              <LatitudeDegrees>41.9955227337777614593505859375</LatitudeDegrees>
              <LongitudeDegrees>-2.1908717416226863861083984375</LongitudeDegrees>
            </Position>
            <AltitudeMeters>1247.5999755859375</AltitudeMeters>
            <DistanceMeters>370831.09822597</DistanceMeters>
          </Trackpoint>
          <Trackpoint>
            <Time>2021-08-01T10:24:37.000Z</Time>
            <Position>
              <LatitudeDegrees>41.99547671712934970855712890625</LatitudeDegrees>
              <LongitudeDegrees>-2.1908737532794475555419921875</LongitudeDegrees>
            </Position>
            <AltitudeMeters>1247.4000244140625</AltitudeMeters>
            <DistanceMeters>370836.2226247</DistanceMeters>
          </Trackpoint>
          <Trackpoint>
            <Time>2021-08-01T10:24:44.000Z</Time>
            <Position>
              <LatitudeDegrees>41.9952575303614139556884765625</LatitudeDegrees>
              <LongitudeDegrees>-2.19063444994390010833740234375</LongitudeDegrees>
            </Position>
            <AltitudeMeters>1247</AltitudeMeters>
            <DistanceMeters>370867.63926703</DistanceMeters>
          </Trackpoint>
          <Trackpoint>
            <Time>2021-08-01T10:24:46.000Z</Time>
            <Position>
              <LatitudeDegrees>41.995235569775104522705078125</LatitudeDegrees>
              <LongitudeDegrees>-2.19052799977362155914306640625</LongitudeDegrees>
            </Position>
            <AltitudeMeters>1247</AltitudeMeters>
            <DistanceMeters>370876.77765567</DistanceMeters>
          </Trackpoint>
          <Trackpoint>
            <Time>2021-08-01T10:25:00.000Z</Time>
            <Position>
              <LatitudeDegrees>41.9950915686786174774169921875</LatitudeDegrees>
              <LongitudeDegrees>-2.189798019826412200927734375</LongitudeDegrees>
            </Position>
            <AltitudeMeters>1247.4000244140625</AltitudeMeters>
            <DistanceMeters>370939.25235456</DistanceMeters>
          </Trackpoint>
          <Trackpoint>
            <Time>2021-08-01T10:25:15.000Z</Time>
            <Position>
              <LatitudeDegrees>41.99491395615041255950927734375</LatitudeDegrees>
              <LongitudeDegrees>-2.189090251922607421875</LongitudeDegrees>
            </Position>
            <AltitudeMeters>1248</AltitudeMeters>
            <DistanceMeters>371001.04639372</DistanceMeters>
          </Trackpoint>
          <Trackpoint>
            <Time>2021-08-01T10:25:27.000Z</Time>
            <Position>
              <LatitudeDegrees>41.9948709569871425628662109375</LatitudeDegrees>
              <LongitudeDegrees>-2.18851097859442234039306640625</LongitudeDegrees>
            </Position>
            <AltitudeMeters>1249.199951171875</AltitudeMeters>
            <DistanceMeters>371049.20234737</DistanceMeters>
          </Trackpoint>
          <Trackpoint>
            <Time>2021-08-01T10:25:31.000Z</Time>
            <Position>
              <LatitudeDegrees>41.99478956870734691619873046875</LatitudeDegrees>
              <LongitudeDegrees>-2.1884131617844104766845703125</LongitudeDegrees>
            </Position>
            <AltitudeMeters>1250.4000244140625</AltitudeMeters>
            <DistanceMeters>371061.34830796</DistanceMeters>
          </Trackpoint>
          <Trackpoint>
            <Time>2021-08-01T10:25:35.000Z</Time>
            <Position>
              <LatitudeDegrees>41.9946929253637790679931640625</LatitudeDegrees>
              <LongitudeDegrees>-2.18835809268057346343994140625</LongitudeDegrees>
            </Position>
            <AltitudeMeters>1251.800048828125</AltitudeMeters>
            <DistanceMeters>371073.02963859</DistanceMeters>
          </Trackpoint>
          <Trackpoint>
            <Time>2021-08-01T10:25:39.000Z</Time>
            <Position>
              <LatitudeDegrees>41.99462033808231353759765625</LatitudeDegrees>
              <LongitudeDegrees>-2.1882601082324981689453125</LongitudeDegrees>
            </Position>
            <AltitudeMeters>1252.800048828125</AltitudeMeters>
            <DistanceMeters>371084.47355394</DistanceMeters>
          </Trackpoint>
          <Trackpoint>
            <Time>2021-08-01T10:25:58.000Z</Time>
            <Position>
              <LatitudeDegrees>41.99410996399819850921630859375</LatitudeDegrees>
              <LongitudeDegrees>-2.18829841352999210357666015625</LongitudeDegrees>
            </Position>
            <AltitudeMeters>1252</AltitudeMeters>
            <DistanceMeters>371141.36750092</DistanceMeters>
          </Trackpoint>
          <Trackpoint>
            <Time>2021-08-01T10:25:59.000Z</Time>
            <Position>
              <LatitudeDegrees>41.9940669648349285125732421875</LatitudeDegrees>
              <LongitudeDegrees>-2.1883202902972698211669921875</LongitudeDegrees>
            </Position>
            <AltitudeMeters>1251.5999755859375</AltitudeMeters>
            <DistanceMeters>371146.4848461</DistanceMeters>
          </Trackpoint>
          <Trackpoint>
            <Time>2021-08-01T10:26:06.000Z</Time>
            <Position>
              <LatitudeDegrees>41.99378256686031818389892578125</LatitudeDegrees>
              <LongitudeDegrees>-2.1884879283607006072998046875</LongitudeDegrees>
            </Position>
            <AltitudeMeters>1250.4000244140625</AltitudeMeters>
            <DistanceMeters>371181.04322844</DistanceMeters>
          </Trackpoint>
          <Trackpoint>
            <Time>2021-08-01T10:26:10.000Z</Time>
            <Position>
              <LatitudeDegrees>41.993580646812915802001953125</LatitudeDegrees>
              <LongitudeDegrees>-2.1886072866618633270263671875</LongitudeDegrees>
            </Position>
            <AltitudeMeters>1249</AltitudeMeters>
            <DistanceMeters>371205.59048839</DistanceMeters>
          </Trackpoint>
          <Trackpoint>
            <Time>2021-08-01T10:26:13.000Z</Time>
            <Position>
              <LatitudeDegrees>41.99342248030006885528564453125</LatitudeDegrees>
              <LongitudeDegrees>-2.1886894293129444122314453125</LongitudeDegrees>
            </Position>
            <AltitudeMeters>1248</AltitudeMeters>
            <DistanceMeters>371224.46041087</DistanceMeters>
          </Trackpoint>
          <Trackpoint>
            <Time>2021-08-01T10:26:15.000Z</Time>
            <Position>
              <LatitudeDegrees>41.99332139454782009124755859375</LatitudeDegrees>
              <LongitudeDegrees>-2.18871901743113994598388671875</LongitudeDegrees>
            </Position>
            <AltitudeMeters>1247.5999755859375</AltitudeMeters>
            <DistanceMeters>371235.97433949</DistanceMeters>
          </Trackpoint>
          <Trackpoint>
            <Time>2021-08-01T10:26:18.000Z</Time>
            <Position>
              <LatitudeDegrees>41.9931489787995815277099609375</LatitudeDegrees>
              <LongitudeDegrees>-2.1887021698057651519775390625</LongitudeDegrees>
            </Position>
            <AltitudeMeters>1246.800048828125</AltitudeMeters>
            <DistanceMeters>371255.21507866</DistanceMeters>
          </Trackpoint>
          <Trackpoint>
            <Time>2021-08-01T10:26:20.000Z</Time>
            <Position>
              <LatitudeDegrees>41.993022076785564422607421875</LatitudeDegrees>
              <LongitudeDegrees>-2.1886502020061016082763671875</LongitudeDegrees>
            </Position>
            <AltitudeMeters>1245.800048828125</AltitudeMeters>
            <DistanceMeters>371269.97942915</DistanceMeters>
          </Trackpoint>
          <Trackpoint>
            <Time>2021-08-01T10:26:22.000Z</Time>
            <Position>
              <LatitudeDegrees>41.9928904809057712554931640625</LatitudeDegrees>
              <LongitudeDegrees>-2.1885690651834011077880859375</LongitudeDegrees>
            </Position>
            <AltitudeMeters>1244.4000244140625</AltitudeMeters>
            <DistanceMeters>371286.09087159</DistanceMeters>
          </Trackpoint>
          <Trackpoint>
            <Time>2021-08-01T10:26:25.000Z</Time>
            <Position>
              <LatitudeDegrees>41.992672719061374664306640625</LatitudeDegrees>
              <LongitudeDegrees>-2.1884557418525218963623046875</LongitudeDegrees>
            </Position>
            <AltitudeMeters>1242.800048828125</AltitudeMeters>
            <DistanceMeters>371312.07820229</DistanceMeters>
          </Trackpoint>
          <Trackpoint>
            <Time>2021-08-01T10:26:34.000Z</Time>
            <Position>
              <LatitudeDegrees>41.9921045936644077301025390625</LatitudeDegrees>
              <LongitudeDegrees>-2.1883057057857513427734375</LongitudeDegrees>
            </Position>
            <AltitudeMeters>1243</AltitudeMeters>
            <DistanceMeters>371376.51829698</DistanceMeters>
          </Trackpoint>
          <Trackpoint>
            <Time>2021-08-01T10:26:38.000Z</Time>
            <Position>
              <LatitudeDegrees>41.99192865751683712005615234375</LatitudeDegrees>
              <LongitudeDegrees>-2.1882574260234832763671875</LongitudeDegrees>
            </Position>
            <AltitudeMeters>1243.199951171875</AltitudeMeters>
            <DistanceMeters>371396.50375022</DistanceMeters>
          </Trackpoint>
          <Trackpoint>
            <Time>2021-08-01T10:26:42.000Z</Time>
            <Position>
              <LatitudeDegrees>41.99177811853587627410888671875</LatitudeDegrees>
              <LongitudeDegrees>-2.1881769597530364990234375</LongitudeDegrees>
            </Position>
            <AltitudeMeters>1242.5999755859375</AltitudeMeters>
            <DistanceMeters>371414.53279988</DistanceMeters>
          </Trackpoint>
          <Trackpoint>
            <Time>2021-08-01T10:26:45.000Z</Time>
            <Position>
              <LatitudeDegrees>41.99167904444038867950439453125</LatitudeDegrees>
              <LongitudeDegrees>-2.18806304968893527984619140625</LongitudeDegrees>
            </Position>
            <AltitudeMeters>1241.199951171875</AltitudeMeters>
            <DistanceMeters>371429.03737575</DistanceMeters>
          </Trackpoint>
          <Trackpoint>
            <Time>2021-08-01T10:26:47.000Z</Time>
            <Position>
              <LatitudeDegrees>41.99159606359899044036865234375</LatitudeDegrees>
              <LongitudeDegrees>-2.187962718307971954345703125</LongitudeDegrees>
            </Position>
            <AltitudeMeters>1239</AltitudeMeters>
            <DistanceMeters>371441.45500778</DistanceMeters>
          </Trackpoint>
          <Trackpoint>
            <Time>2021-08-01T10:26:49.000Z</Time>
            <Position>
              <LatitudeDegrees>41.99150889180600643157958984375</LatitudeDegrees>
              <LongitudeDegrees>-2.18784612603485584259033203125</LongitudeDegrees>
            </Position>
            <AltitudeMeters>1237.199951171875</AltitudeMeters>
            <DistanceMeters>371455.13588474</DistanceMeters>
          </Trackpoint>
          <Trackpoint>
            <Time>2021-08-01T10:26:50.000Z</Time>
            <Position>
              <LatitudeDegrees>41.991466395556926727294921875</LatitudeDegrees>
              <LongitudeDegrees>-2.1877868659794330596923828125</LongitudeDegrees>
            </Position>
            <AltitudeMeters>1236</AltitudeMeters>
            <DistanceMeters>371461.94871036</DistanceMeters>
          </Trackpoint>
          <Trackpoint>
            <Time>2021-08-01T10:26:52.000Z</Time>
            <Position>
              <LatitudeDegrees>41.991384588181972503662109375</LatitudeDegrees>
              <LongitudeDegrees>-2.18767027370631694793701171875</LongitudeDegrees>
            </Position>
            <AltitudeMeters>1234.4000244140625</AltitudeMeters>
            <DistanceMeters>371475.21302374</DistanceMeters>
          </Trackpoint>
          <Trackpoint>
            <Time>2021-08-01T10:26:54.000Z</Time>
            <Position>
              <LatitudeDegrees>41.99131728149950504302978515625</LatitudeDegrees>
              <LongitudeDegrees>-2.18755041249096393585205078125</LongitudeDegrees>
            </Position>
            <AltitudeMeters>1233.199951171875</AltitudeMeters>
            <DistanceMeters>371487.64046907</DistanceMeters>
          </Trackpoint>
          <Trackpoint>
            <Time>2021-08-01T10:26:56.000Z</Time>
            <Position>
              <LatitudeDegrees>41.99125609360635280609130859375</LatitudeDegrees>
              <LongitudeDegrees>-2.18741747550666332244873046875</LongitudeDegrees>
            </Position>
            <AltitudeMeters>1231.199951171875</AltitudeMeters>
            <DistanceMeters>371500.57597511</DistanceMeters>
          </Trackpoint>
          <Trackpoint>
            <Time>2021-08-01T10:26:58.000Z</Time>
            <Position>
              <LatitudeDegrees>41.9912092387676239013671875</LatitudeDegrees>
              <LongitudeDegrees>-2.1872779168188571929931640625</LongitudeDegrees>
            </Position>
            <AltitudeMeters>1229.5999755859375</AltitudeMeters>
            <DistanceMeters>371513.24414461</DistanceMeters>
          </Trackpoint>
          <Trackpoint>
            <Time>2021-08-01T10:26:59.000Z</Time>
            <Position>
              <LatitudeDegrees>41.9911852665245532989501953125</LatitudeDegrees>
              <LongitudeDegrees>-2.187202312052249908447265625</LongitudeDegrees>
            </Position>
            <AltitudeMeters>1228.4000244140625</AltitudeMeters>
            <DistanceMeters>371520.04436678</DistanceMeters>
          </Trackpoint>
          <Trackpoint>
            <Time>2021-08-01T10:27:00.000Z</Time>
            <Position>
              <LatitudeDegrees>41.991156600415706634521484375</LatitudeDegrees>
              <LongitudeDegrees>-2.1871230192482471466064453125</LongitudeDegrees>
            </Position>
            <AltitudeMeters>1227.4000244140625</AltitudeMeters>
            <DistanceMeters>371527.33855696</DistanceMeters>
          </Trackpoint>
          <Trackpoint>
            <Time>2021-08-01T10:27:02.000Z</Time>
            <Position>
              <LatitudeDegrees>41.99107906781136989593505859375</LatitudeDegrees>
              <LongitudeDegrees>-2.18696300871670246124267578125</LongitudeDegrees>
            </Position>
            <AltitudeMeters>1225.800048828125</AltitudeMeters>
            <DistanceMeters>371543.13987379</DistanceMeters>
          </Trackpoint>
          <Trackpoint>
            <Time>2021-08-01T10:27:04.000Z</Time>
            <Position>
              <LatitudeDegrees>41.99098586104810237884521484375</LatitudeDegrees>
              <LongitudeDegrees>-2.186828814446926116943359375</LongitudeDegrees>
            </Position>
            <AltitudeMeters>1225</AltitudeMeters>
            <DistanceMeters>371558.33404815</DistanceMeters>
          </Trackpoint>
          <Trackpoint>
            <Time>2021-08-01T10:27:05.000Z</Time>
            <Position>
              <LatitudeDegrees>41.99094110168516635894775390625</LatitudeDegrees>
              <LongitudeDegrees>-2.18676050193607807159423828125</LongitudeDegrees>
            </Position>
            <AltitudeMeters>1224.5999755859375</AltitudeMeters>
            <DistanceMeters>371565.86817454</DistanceMeters>
          </Trackpoint>
          <Trackpoint>
            <Time>2021-08-01T10:27:07.000Z</Time>
            <Position>
              <LatitudeDegrees>41.9908556900918483734130859375</LatitudeDegrees>
              <LongitudeDegrees>-2.186604849994182586669921875</LongitudeDegrees>
            </Position>
            <AltitudeMeters>1223.4000244140625</AltitudeMeters>
            <DistanceMeters>371581.87390067</DistanceMeters>
          </Trackpoint>
          <Trackpoint>
            <Time>2021-08-01T10:27:10.000Z</Time>
            <Position>
              <LatitudeDegrees>41.990738846361637115478515625</LatitudeDegrees>
              <LongitudeDegrees>-2.18632967211306095123291015625</LongitudeDegrees>
            </Position>
            <AltitudeMeters>1222</AltitudeMeters>
            <DistanceMeters>371608.09094281</DistanceMeters>
          </Trackpoint>
          <Trackpoint>
            <Time>2021-08-01T10:27:12.000Z</Time>
            <Position>
              <LatitudeDegrees>41.99066231958568096160888671875</LatitudeDegrees>
              <LongitudeDegrees>-2.18613915145397186279296875</LongitudeDegrees>
            </Position>
            <AltitudeMeters>1220.800048828125</AltitudeMeters>
            <DistanceMeters>371626.00643993</DistanceMeters>
          </Trackpoint>
          <Trackpoint>
            <Time>2021-08-01T10:27:14.000Z</Time>
            <Position>
              <LatitudeDegrees>41.990585960447788238525390625</LatitudeDegrees>
              <LongitudeDegrees>-2.1859532408416271209716796875</LongitudeDegrees>
            </Position>
            <AltitudeMeters>1219.5999755859375</AltitudeMeters>
            <DistanceMeters>371643.57790469</DistanceMeters>
          </Trackpoint>
          <Trackpoint>
            <Time>2021-08-01T10:27:17.000Z</Time>
            <Position>
              <LatitudeDegrees>41.99045746587216854095458984375</LatitudeDegrees>
              <LongitudeDegrees>-2.185694910585880279541015625</LongitudeDegrees>
            </Position>
            <AltitudeMeters>1218.800048828125</AltitudeMeters>
            <DistanceMeters>371669.29242155</DistanceMeters>
          </Trackpoint>
          <Trackpoint>
            <Time>2021-08-01T10:27:18.000Z</Time>
            <Position>
              <LatitudeDegrees>41.99040415696799755096435546875</LatitudeDegrees>
              <LongitudeDegrees>-2.185621149837970733642578125</LongitudeDegrees>
            </Position>
            <AltitudeMeters>1218.5999755859375</AltitudeMeters>
            <DistanceMeters>371677.80354799</DistanceMeters>
          </Trackpoint>
          <Trackpoint>
            <Time>2021-08-01T10:27:21.000Z</Time>
            <Position>
              <LatitudeDegrees>41.99024674482643604278564453125</LatitudeDegrees>
              <LongitudeDegrees>-2.1854027174413204193115234375</LongitudeDegrees>
            </Position>
            <AltitudeMeters>1217</AltitudeMeters>
            <DistanceMeters>371702.97289409</DistanceMeters>
          </Trackpoint>
          <Trackpoint>
            <Time>2021-08-01T10:27:23.000Z</Time>
            <Position>
              <LatitudeDegrees>41.99014347977936267852783203125</LatitudeDegrees>
              <LongitudeDegrees>-2.1852585487067699432373046875</LongitudeDegrees>
            </Position>
            <AltitudeMeters>1215.5999755859375</AltitudeMeters>
            <DistanceMeters>371719.53646202</DistanceMeters>
          </Trackpoint>
          <Trackpoint>
            <Time>2021-08-01T10:27:26.000Z</Time>
            <Position>
              <LatitudeDegrees>41.98999361135065555572509765625</LatitudeDegrees>
              <LongitudeDegrees>-2.18503952957689762115478515625</LongitudeDegrees>
            </Position>
            <AltitudeMeters>1214.5999755859375</AltitudeMeters>
            <DistanceMeters>371744.16470261</DistanceMeters>
          </Trackpoint>
          <Trackpoint>
            <Time>2021-08-01T10:27:32.000Z</Time>
            <Position>
              <LatitudeDegrees>41.98969756253063678741455078125</LatitudeDegrees>
              <LongitudeDegrees>-2.1845876611769199371337890625</LongitudeDegrees>
            </Position>
            <AltitudeMeters>1213.199951171875</AltitudeMeters>
            <DistanceMeters>371793.99586355</DistanceMeters>
          </Trackpoint>
          <Trackpoint>
            <Time>2021-08-01T10:27:34.000Z</Time>
            <Position>
              <LatitudeDegrees>41.989596895873546600341796875</LatitudeDegrees>
              <LongitudeDegrees>-2.18443050049245357513427734375</LongitudeDegrees>
            </Position>
            <AltitudeMeters>1212</AltitudeMeters>
            <DistanceMeters>371811.15917191</DistanceMeters>
          </Trackpoint>
          <Trackpoint>
            <Time>2021-08-01T10:27:37.000Z</Time>
            <Position>
              <LatitudeDegrees>41.98944308795034885406494140625</LatitudeDegrees>
              <LongitudeDegrees>-2.18419513665139675140380859375</LongitudeDegrees>
            </Position>
            <AltitudeMeters>1210.800048828125</AltitudeMeters>
            <DistanceMeters>371837.08562231</DistanceMeters>
          </Trackpoint>
          <Trackpoint>
            <Time>2021-08-01T10:27:45.000Z</Time>
            <Position>
              <LatitudeDegrees>41.9890713505446910858154296875</LatitudeDegrees>
              <LongitudeDegrees>-2.1836559288203716278076171875</LongitudeDegrees>
            </Position>
            <AltitudeMeters>1211.199951171875</AltitudeMeters>
            <DistanceMeters>371897.92736207</DistanceMeters>
          </Trackpoint>
          <Trackpoint>
            <Time>2021-08-01T10:27:47.000Z</Time>
            <Position>
              <LatitudeDegrees>41.98899247683584690093994140625</LatitudeDegrees>
              <LongitudeDegrees>-2.18353740870952606201171875</LongitudeDegrees>
            </Position>
            <AltitudeMeters>1211.199951171875</AltitudeMeters>
            <DistanceMeters>371911.08779011</DistanceMeters>
          </Trackpoint>
          <Trackpoint>
            <Time>2021-08-01T10:27:54.000Z</Time>
            <Position>
              <LatitudeDegrees>41.98877588845789432525634765625</LatitudeDegrees>
              <LongitudeDegrees>-2.18300792388617992401123046875</LongitudeDegrees>
            </Position>
            <AltitudeMeters>1209.4000244140625</AltitudeMeters>
            <DistanceMeters>371961.08629251</DistanceMeters>
          </Trackpoint>
          <Trackpoint>
            <Time>2021-08-01T10:27:56.000Z</Time>
            <Position>
              <LatitudeDegrees>41.9887122698128223419189453125</LatitudeDegrees>
              <LongitudeDegrees>-2.182801477611064910888671875</LongitudeDegrees>
            </Position>
            <AltitudeMeters>1207.800048828125</AltitudeMeters>
            <DistanceMeters>371979.57478931</DistanceMeters>
          </Trackpoint>
          <Trackpoint>
            <Time>2021-08-01T10:27:57.000Z</Time>
            <Position>
              <LatitudeDegrees>41.9886790774762630462646484375</LatitudeDegrees>
              <LongitudeDegrees>-2.18268446624279022216796875</LongitudeDegrees>
            </Position>
            <AltitudeMeters>1206</AltitudeMeters>
            <DistanceMeters>371989.93575204</DistanceMeters>
          </Trackpoint>
          <Trackpoint>
            <Time>2021-08-01T10:27:58.000Z</Time>
            <Position>
              <LatitudeDegrees>41.98864580132067203521728515625</LatitudeDegrees>
              <LongitudeDegrees>-2.18256452120840549468994140625</LongitudeDegrees>
            </Position>
            <AltitudeMeters>1204.199951171875</AltitudeMeters>
            <DistanceMeters>372000.52728827</DistanceMeters>
          </Trackpoint>
          <Trackpoint>
            <Time>2021-08-01T10:27:59.000Z</Time>
            <Position>
              <LatitudeDegrees>41.98861294426023960113525390625</LatitudeDegrees>
              <LongitudeDegrees>-2.18244901858270168304443359375</LongitudeDegrees>
            </Position>
            <AltitudeMeters>1202.199951171875</AltitudeMeters>
            <DistanceMeters>372010.75844881</DistanceMeters>
          </Trackpoint>
          <Trackpoint>
            <Time>2021-08-01T10:28:00.000Z</Time>
            <Position>
              <LatitudeDegrees>41.98858176358044147491455078125</LatitudeDegrees>
              <LongitudeDegrees>-2.18233938328921794891357421875</LongitudeDegrees>
            </Position>
            <AltitudeMeters>1201</AltitudeMeters>
            <DistanceMeters>372020.46978849</DistanceMeters>
          </Trackpoint>
          <Trackpoint>
            <Time>2021-08-01T10:28:02.000Z</Time>
            <Position>
              <LatitudeDegrees>41.98851135559380054473876953125</LatitudeDegrees>
              <LongitudeDegrees>-2.182121537625789642333984375</LongitudeDegrees>
            </Position>
            <AltitudeMeters>1199.199951171875</AltitudeMeters>
            <DistanceMeters>372040.12194714</DistanceMeters>
          </Trackpoint>
          <Trackpoint>
            <Time>2021-08-01T10:28:04.000Z</Time>
            <Position>
              <LatitudeDegrees>41.98842351324856281280517578125</LatitudeDegrees>
              <LongitudeDegrees>-2.18190536834299564361572265625</LongitudeDegrees>
            </Position>
            <AltitudeMeters>1197.5999755859375</AltitudeMeters>
            <DistanceMeters>372060.50334985</DistanceMeters>
          </Trackpoint>
          <Trackpoint>
            <Time>2021-08-01T10:28:05.000Z</Time>
            <Position>
              <LatitudeDegrees>41.9883753173053264617919921875</LatitudeDegrees>
              <LongitudeDegrees>-2.1818040311336517333984375</LongitudeDegrees>
            </Position>
            <AltitudeMeters>1196.800048828125</AltitudeMeters>
            <DistanceMeters>372070.45578214</DistanceMeters>
          </Trackpoint>
          <Trackpoint>
            <Time>2021-08-01T10:28:06.000Z</Time>
            <Position>
              <LatitudeDegrees>41.9883199967443943023681640625</LatitudeDegrees>
              <LongitudeDegrees>-2.1817130036652088165283203125</LongitudeDegrees>
            </Position>
            <AltitudeMeters>1196.199951171875</AltitudeMeters>
            <DistanceMeters>372080.18291641</DistanceMeters>
          </Trackpoint>
          <Trackpoint>
            <Time>2021-08-01T10:28:10.000Z</Time>
            <Position>
              <LatitudeDegrees>41.988042891025543212890625</LatitudeDegrees>
              <LongitudeDegrees>-2.181523405015468597412109375</LongitudeDegrees>
            </Position>
            <AltitudeMeters>1195.4000244140625</AltitudeMeters>
            <DistanceMeters>372114.78464722</DistanceMeters>
          </Trackpoint>
          <Trackpoint>
            <Time>2021-08-01T10:28:13.000Z</Time>
            <Position>
              <LatitudeDegrees>41.98787047527730464935302734375</LatitudeDegrees>
              <LongitudeDegrees>-2.18147613108158111572265625</LongitudeDegrees>
            </Position>
            <AltitudeMeters>1197.800048828125</AltitudeMeters>
            <DistanceMeters>372134.36937411</DistanceMeters>
          </Trackpoint>
          <Trackpoint>
            <Time>2021-08-01T10:28:15.000Z</Time>
            <Position>
              <LatitudeDegrees>41.9877706468105316162109375</LatitudeDegrees>
              <LongitudeDegrees>-2.18144738115370273590087890625</LongitudeDegrees>
            </Position>
            <AltitudeMeters>1199</AltitudeMeters>
            <DistanceMeters>372145.73291639</DistanceMeters>
          </Trackpoint>
          <Trackpoint>
            <Time>2021-08-01T10:28:17.000Z</Time>
            <Position>
              <LatitudeDegrees>41.98768003843724727630615234375</LatitudeDegrees>
              <LongitudeDegrees>-2.18140513636171817779541015625</LongitudeDegrees>
            </Position>
            <AltitudeMeters>1199.800048828125</AltitudeMeters>
            <DistanceMeters>372156.40640899</DistanceMeters>
          </Trackpoint>
          <Trackpoint>
            <Time>2021-08-01T10:28:18.000Z</Time>
            <Position>
              <LatitudeDegrees>41.98763879947364330291748046875</LatitudeDegrees>
              <LongitudeDegrees>-2.18137529678642749786376953125</LongitudeDegrees>
            </Position>
            <AltitudeMeters>1200</AltitudeMeters>
            <DistanceMeters>372161.61817165</DistanceMeters>
          </Trackpoint>
          <Trackpoint>
            <Time>2021-08-01T10:28:27.000Z</Time>
            <Position>
              <LatitudeDegrees>41.98747694492340087890625</LatitudeDegrees>
              <LongitudeDegrees>-2.18078554607927799224853515625</LongitudeDegrees>
            </Position>
            <AltitudeMeters>1198.4000244140625</AltitudeMeters>
            <DistanceMeters>372213.62756944</DistanceMeters>
          </Trackpoint>
          <Trackpoint>
            <Time>2021-08-01T10:28:29.000Z</Time>
            <Position>
              <LatitudeDegrees>41.98748591355979442596435546875</LatitudeDegrees>
              <LongitudeDegrees>-2.18059611506760120391845703125</LongitudeDegrees>
            </Position>
            <AltitudeMeters>1197.199951171875</AltitudeMeters>
            <DistanceMeters>372229.33085978</DistanceMeters>
          </Trackpoint>
          <Trackpoint>
            <Time>2021-08-01T10:28:30.000Z</Time>
            <Position>
              <LatitudeDegrees>41.98748792521655559539794921875</LatitudeDegrees>
              <LongitudeDegrees>-2.18049469403922557830810546875</LongitudeDegrees>
            </Position>
            <AltitudeMeters>1196.5999755859375</AltitudeMeters>
            <DistanceMeters>372237.72446785</DistanceMeters>
          </Trackpoint>
          <Trackpoint>
            <Time>2021-08-01T10:28:32.000Z</Time>
            <Position>
              <LatitudeDegrees>41.98748675175011157989501953125</LatitudeDegrees>
              <LongitudeDegrees>-2.1802766807377338409423828125</LongitudeDegrees>
            </Position>
            <AltitudeMeters>1195.4000244140625</AltitudeMeters>
            <DistanceMeters>372255.76152953</DistanceMeters>
          </Trackpoint>
          <Trackpoint>
            <Time>2021-08-01T10:28:33.000Z</Time>
            <Position>
              <LatitudeDegrees>41.9874777831137180328369140625</LatitudeDegrees>
              <LongitudeDegrees>-2.18016176484525203704833984375</LongitudeDegrees>
            </Position>
            <AltitudeMeters>1194.4000244140625</AltitudeMeters>
            <DistanceMeters>372265.32104697</DistanceMeters>
          </Trackpoint>
          <Trackpoint>
            <Time>2021-08-01T10:28:34.000Z</Time>
            <Position>
              <LatitudeDegrees>41.9874613545835018157958984375</LatitudeDegrees>
              <LongitudeDegrees>-2.18004383146762847900390625</LongitudeDegrees>
            </Position>
            <AltitudeMeters>1193</AltitudeMeters>
            <DistanceMeters>372275.24758686</DistanceMeters>
          </Trackpoint>
          <Trackpoint>
            <Time>2021-08-01T10:28:35.000Z</Time>
            <Position>
              <LatitudeDegrees>41.9874380528926849365234375</LatitudeDegrees>
              <LongitudeDegrees>-2.1799249760806560516357421875</LongitudeDegrees>
            </Position>
            <AltitudeMeters>1191.800048828125</AltitudeMeters>
            <DistanceMeters>372285.41677736</DistanceMeters>
          </Trackpoint>
          <Trackpoint>
            <Time>2021-08-01T10:28:37.000Z</Time>
            <Position>
              <LatitudeDegrees>41.98738030157983303070068359375</LatitudeDegrees>
              <LongitudeDegrees>-2.179691791534423828125</LongitudeDegrees>
            </Position>
            <AltitudeMeters>1190.199951171875</AltitudeMeters>
            <DistanceMeters>372305.75094</DistanceMeters>
          </Trackpoint>
          <Trackpoint>
            <Time>2021-08-01T10:28:44.000Z</Time>
            <Position>
              <LatitudeDegrees>41.98717041872441768646240234375</LatitudeDegrees>
              <LongitudeDegrees>-2.1790240891277790069580078125</LongitudeDegrees>
            </Position>
            <AltitudeMeters>1191</AltitudeMeters>
            <DistanceMeters>372365.72642425</DistanceMeters>
          </Trackpoint>
          <Trackpoint>
            <Time>2021-08-01T10:28:52.000Z</Time>
            <Position>
              <LatitudeDegrees>41.9869919680058956146240234375</LatitudeDegrees>
              <LongitudeDegrees>-2.17835261486470699310302734375</LongitudeDegrees>
            </Position>
            <AltitudeMeters>1190</AltitudeMeters>
            <DistanceMeters>372424.72171477</DistanceMeters>
          </Trackpoint>
          <Trackpoint>
            <Time>2021-08-01T10:28:56.000Z</Time>
            <Position>
              <LatitudeDegrees>41.98698869906365871429443359375</LatitudeDegrees>
              <LongitudeDegrees>-2.177941985428333282470703125</LongitudeDegrees>
            </Position>
            <AltitudeMeters>1188.800048828125</AltitudeMeters>
            <DistanceMeters>372458.69532675</DistanceMeters>
          </Trackpoint>
          <Trackpoint>
            <Time>2021-08-01T10:28:57.000Z</Time>
            <Position>
              <LatitudeDegrees>41.98698341846466064453125</LatitudeDegrees>
              <LongitudeDegrees>-2.1778338588774204254150390625</LongitudeDegrees>
            </Position>
            <AltitudeMeters>1188.199951171875</AltitudeMeters>
            <DistanceMeters>372467.65912171</DistanceMeters>
          </Trackpoint>
          <Trackpoint>
            <Time>2021-08-01T10:28:58.000Z</Time>
            <Position>
              <LatitudeDegrees>41.98697067797183990478515625</LatitudeDegrees>
              <LongitudeDegrees>-2.17772631905972957611083984375</LongitudeDegrees>
            </Position>
            <AltitudeMeters>1187.4000244140625</AltitudeMeters>
            <DistanceMeters>372476.66763419</DistanceMeters>
          </Trackpoint>
          <Trackpoint>
            <Time>2021-08-01T10:29:00.000Z</Time>
            <Position>
              <LatitudeDegrees>41.9869212247431278228759765625</LatitudeDegrees>
              <LongitudeDegrees>-2.17751660384237766265869140625</LongitudeDegrees>
            </Position>
            <AltitudeMeters>1186.199951171875</AltitudeMeters>
            <DistanceMeters>372494.86965344</DistanceMeters>
          </Trackpoint>
          <Trackpoint>
            <Time>2021-08-01T10:29:01.000Z</Time>
            <Position>
              <LatitudeDegrees>41.98688811622560024261474609375</LatitudeDegrees>
              <LongitudeDegrees>-2.17741526663303375244140625</LongitudeDegrees>
            </Position>
            <AltitudeMeters>1185.5999755859375</AltitudeMeters>
            <DistanceMeters>372504.02729068</DistanceMeters>
          </Trackpoint>
          <Trackpoint>
            <Time>2021-08-01T10:29:02.000Z</Time>
            <Position>
              <LatitudeDegrees>41.9868521578609943389892578125</LatitudeDegrees>
              <LongitudeDegrees>-2.17731602489948272705078125</LongitudeDegrees>
            </Position>
            <AltitudeMeters>1184.5999755859375</AltitudeMeters>
            <DistanceMeters>372513.16123158</DistanceMeters>
          </Trackpoint>
          <Trackpoint>
            <Time>2021-08-01T10:29:05.000Z</Time>
            <Position>
              <LatitudeDegrees>41.986720561981201171875</LatitudeDegrees>
              <LongitudeDegrees>-2.1770412661135196685791015625</LongitudeDegrees>
            </Position>
            <AltitudeMeters>1184</AltitudeMeters>
            <DistanceMeters>372540.20263558</DistanceMeters>
          </Trackpoint>
          <Trackpoint>
            <Time>2021-08-01T10:29:06.000Z</Time>
            <Position>
              <LatitudeDegrees>41.98666364885866641998291015625</LatitudeDegrees>
              <LongitudeDegrees>-2.176965661346912384033203125</LongitudeDegrees>
            </Position>
            <AltitudeMeters>1183.5999755859375</AltitudeMeters>
            <DistanceMeters>372549.10527456</DistanceMeters>
          </Trackpoint>
          <Trackpoint>
            <Time>2021-08-01T10:29:09.000Z</Time>
            <Position>
              <LatitudeDegrees>41.98644957505166530609130859375</LatitudeDegrees>
              <LongitudeDegrees>-2.1768012084066867828369140625</LongitudeDegrees>
            </Position>
            <AltitudeMeters>1182.4000244140625</AltitudeMeters>
            <DistanceMeters>372576.54299391</DistanceMeters>
          </Trackpoint>
          <Trackpoint>
            <Time>2021-08-01T10:29:11.000Z</Time>
            <Position>
              <LatitudeDegrees>41.98629165999591350555419921875</LatitudeDegrees>
              <LongitudeDegrees>-2.176717557013034820556640625</LongitudeDegrees>
            </Position>
            <AltitudeMeters>1181.4000244140625</AltitudeMeters>
            <DistanceMeters>372595.43252648</DistanceMeters>
          </Trackpoint>
          <Trackpoint>
            <Time>2021-08-01T10:29:15.000Z</Time>
            <Position>
              <LatitudeDegrees>41.98597155511379241943359375</LatitudeDegrees>
              <LongitudeDegrees>-2.176561318337917327880859375</LongitudeDegrees>
            </Position>
            <AltitudeMeters>1180</AltitudeMeters>
            <DistanceMeters>372633.3330592</DistanceMeters>
          </Trackpoint>
          <Trackpoint>
            <Time>2021-08-01T10:29:19.000Z</Time>
            <Position>
              <LatitudeDegrees>41.98568715713918209075927734375</LatitudeDegrees>
              <LongitudeDegrees>-2.17641212046146392822265625</LongitudeDegrees>
            </Position>
            <AltitudeMeters>1178.800048828125</AltitudeMeters>
            <DistanceMeters>372667.30879748</DistanceMeters>
          </Trackpoint>
          <Trackpoint>
            <Time>2021-08-01T10:29:22.000Z</Time>
            <Position>
              <LatitudeDegrees>41.98548875749111175537109375</LatitudeDegrees>
              <LongitudeDegrees>-2.17631614767014980316162109375</LongitudeDegrees>
            </Position>
            <AltitudeMeters>1177.5999755859375</AltitudeMeters>
            <DistanceMeters>372690.77520159</DistanceMeters>
          </Trackpoint>
          <Trackpoint>
            <Time>2021-08-01T10:29:24.000Z</Time>
            <Position>
              <LatitudeDegrees>41.985350288450717926025390625</LatitudeDegrees>
              <LongitudeDegrees>-2.17624942772090435028076171875</LongitudeDegrees>
            </Position>
            <AltitudeMeters>1176.4000244140625</AltitudeMeters>
            <DistanceMeters>372707.14574247</DistanceMeters>
          </Trackpoint>
          <Trackpoint>
            <Time>2021-08-01T10:29:26.000Z</Time>
            <Position>
              <LatitudeDegrees>41.9852170161902904510498046875</LatitudeDegrees>
              <LongitudeDegrees>-2.17619930393993854522705078125</LongitudeDegrees>
            </Position>
            <AltitudeMeters>1175.4000244140625</AltitudeMeters>
            <DistanceMeters>372722.5482802</DistanceMeters>
          </Trackpoint>
          <Trackpoint>
            <Time>2021-08-01T10:29:27.000Z</Time>
            <Position>
              <LatitudeDegrees>41.98515188880264759063720703125</LatitudeDegrees>
              <LongitudeDegrees>-2.17618572525680065155029296875</LongitudeDegrees>
            </Position>
            <AltitudeMeters>1175</AltitudeMeters>
            <DistanceMeters>372729.88321001</DistanceMeters>
          </Trackpoint>
          <Trackpoint>
            <Time>2021-08-01T10:29:31.000Z</Time>
            <Position>
              <LatitudeDegrees>41.98491887189447879791259765625</LatitudeDegrees>
              <LongitudeDegrees>-2.17616669833660125732421875</LongitudeDegrees>
            </Position>
            <AltitudeMeters>1173.800048828125</AltitudeMeters>
            <DistanceMeters>372755.86637062</DistanceMeters>
          </Trackpoint>
          <Trackpoint>
            <Time>2021-08-01T10:29:35.000Z</Time>
            <Position>
              <LatitudeDegrees>41.98473279364407062530517578125</LatitudeDegrees>
              <LongitudeDegrees>-2.17616175301373004913330078125</LongitudeDegrees>
            </Position>
            <AltitudeMeters>1172.4000244140625</AltitudeMeters>
            <DistanceMeters>372776.58154049</DistanceMeters>
          </Trackpoint>
          <Trackpoint>
            <Time>2021-08-01T10:29:37.000Z</Time>
            <Position>
              <LatitudeDegrees>41.9846400059759616851806640625</LatitudeDegrees>
              <LongitudeDegrees>-2.17613861896097660064697265625</LongitudeDegrees>
            </Position>
            <AltitudeMeters>1170.199951171875</AltitudeMeters>
            <DistanceMeters>372787.08532429</DistanceMeters>
          </Trackpoint>
          <Trackpoint>
            <Time>2021-08-01T10:29:39.000Z</Time>
            <Position>
              <LatitudeDegrees>41.984550319612026214599609375</LatitudeDegrees>
              <LongitudeDegrees>-2.17609469778835773468017578125</LongitudeDegrees>
            </Position>
            <AltitudeMeters>1169</AltitudeMeters>
            <DistanceMeters>372797.70793391</DistanceMeters>
          </Trackpoint>
          <Trackpoint>
            <Time>2021-08-01T10:29:42.000Z</Time>
            <Position>
              <LatitudeDegrees>41.984451748430728912353515625</LatitudeDegrees>
              <LongitudeDegrees>-2.1760176680982112884521484375</LongitudeDegrees>
            </Position>
            <AltitudeMeters>1167.5999755859375</AltitudeMeters>
            <DistanceMeters>372810.39604657</DistanceMeters>
          </Trackpoint>
          <Trackpoint>
            <Time>2021-08-01T10:29:45.000Z</Time>
            <Position>
              <LatitudeDegrees>41.98434638790786266326904296875</LatitudeDegrees>
              <LongitudeDegrees>-2.1759219467639923095703125</LongitudeDegrees>
            </Position>
            <AltitudeMeters>1166</AltitudeMeters>
            <DistanceMeters>372824.54641459</DistanceMeters>
          </Trackpoint>
          <Trackpoint>
            <Time>2021-08-01T10:29:46.000Z</Time>
            <Position>
              <LatitudeDegrees>41.98430280201137065887451171875</LatitudeDegrees>
              <LongitudeDegrees>-2.17588883824646472930908203125</LongitudeDegrees>
            </Position>
            <AltitudeMeters>1164.800048828125</AltitudeMeters>
            <DistanceMeters>372830.11825475</DistanceMeters>
          </Trackpoint>
          <Trackpoint>
            <Time>2021-08-01T10:29:47.000Z</Time>
            <Position>
              <LatitudeDegrees>41.9842554442584514617919921875</LatitudeDegrees>
              <LongitudeDegrees>-2.17585497535765171051025390625</LongitudeDegrees>
            </Position>
            <AltitudeMeters>1163.5999755859375</AltitudeMeters>
            <DistanceMeters>372836.08756641</DistanceMeters>
          </Trackpoint>
          <Trackpoint>
            <Time>2021-08-01T10:29:49.000Z</Time>
            <Position>
              <LatitudeDegrees>41.98414589278399944305419921875</LatitudeDegrees>
              <LongitudeDegrees>-2.1757990680634975433349609375</LongitudeDegrees>
            </Position>
            <AltitudeMeters>1161.5999755859375</AltitudeMeters>
            <DistanceMeters>372849.12874963</DistanceMeters>
          </Trackpoint>
          <Trackpoint>
            <Time>2021-08-01T10:29:51.000Z</Time>
            <Position>
              <LatitudeDegrees>41.98401865549385547637939453125</LatitudeDegrees>
              <LongitudeDegrees>-2.1757645346224308013916015625</LongitudeDegrees>
            </Position>
            <AltitudeMeters>1159.800048828125</AltitudeMeters>
            <DistanceMeters>372863.57562323</DistanceMeters>
          </Trackpoint>
          <Trackpoint>
            <Time>2021-08-01T10:29:53.000Z</Time>
            <Position>
              <LatitudeDegrees>41.9838839583098888397216796875</LatitudeDegrees>
              <LongitudeDegrees>-2.17574936337769031524658203125</LongitudeDegrees>
            </Position>
            <AltitudeMeters>1157.800048828125</AltitudeMeters>
            <DistanceMeters>372878.6201859</DistanceMeters>
          </Trackpoint>
          <Trackpoint>
            <Time>2021-08-01T10:29:54.000Z</Time>
            <Position>
              <LatitudeDegrees>41.9838192500174045562744140625</LatitudeDegrees>
              <LongitudeDegrees>-2.175744585692882537841796875</LongitudeDegrees>
            </Position>
            <AltitudeMeters>1156.800048828125</AltitudeMeters>
            <DistanceMeters>372885.83220645</DistanceMeters>
          </Trackpoint>
          <Trackpoint>
            <Time>2021-08-01T10:29:56.000Z</Time>
            <Position>
              <LatitudeDegrees>41.98370039463043212890625</LatitudeDegrees>
              <LongitudeDegrees>-2.1757383830845355987548828125</LongitudeDegrees>
            </Position>
            <AltitudeMeters>1155.4000244140625</AltitudeMeters>
            <DistanceMeters>372899.07062492</DistanceMeters>
          </Trackpoint>
          <Trackpoint>
            <Time>2021-08-01T10:29:58.000Z</Time>
            <Position>
              <LatitudeDegrees>41.98358564637601375579833984375</LatitudeDegrees>
              <LongitudeDegrees>-2.1757296659052371978759765625</LongitudeDegrees>
            </Position>
            <AltitudeMeters>1154.199951171875</AltitudeMeters>
            <DistanceMeters>372911.86222314</DistanceMeters>
          </Trackpoint>
          <Trackpoint>
            <Time>2021-08-01T10:30:00.000Z</Time>
            <Position>
              <LatitudeDegrees>41.98347483761608600616455078125</LatitudeDegrees>
              <LongitudeDegrees>-2.175730504095554351806640625</LongitudeDegrees>
            </Position>
            <AltitudeMeters>1152.5999755859375</AltitudeMeters>
            <DistanceMeters>372924.19521174</DistanceMeters>
          </Trackpoint>
          <Trackpoint>
            <Time>2021-08-01T10:30:02.000Z</Time>
            <Position>
              <LatitudeDegrees>41.98337291367352008819580078125</LatitudeDegrees>
              <LongitudeDegrees>-2.17574634589254856109619140625</LongitudeDegrees>
            </Position>
            <AltitudeMeters>1151.199951171875</AltitudeMeters>
            <DistanceMeters>372935.61503503</DistanceMeters>
          </Trackpoint>
          <Trackpoint>
            <Time>2021-08-01T10:30:04.000Z</Time>
            <Position>
              <LatitudeDegrees>41.9832838140428066253662109375</LatitudeDegrees>
              <LongitudeDegrees>-2.17577165924012660980224609375</LongitudeDegrees>
            </Position>
            <AltitudeMeters>1150.199951171875</AltitudeMeters>
            <DistanceMeters>372945.75042597</DistanceMeters>
          </Trackpoint>
          <Trackpoint>
            <Time>2021-08-01T10:30:07.000Z</Time>
            <Position>
              <LatitudeDegrees>41.9831792078912258148193359375</LatitudeDegrees>
              <LongitudeDegrees>-2.175834439694881439208984375</LongitudeDegrees>
            </Position>
            <AltitudeMeters>1149</AltitudeMeters>
            <DistanceMeters>372958.49959755</DistanceMeters>
          </Trackpoint>
          <Trackpoint>
            <Time>2021-08-01T10:30:08.000Z</Time>
            <Position>
              <LatitudeDegrees>41.98314341716468334197998046875</LatitudeDegrees>
              <LongitudeDegrees>-2.175860591232776641845703125</LongitudeDegrees>
            </Position>
            <AltitudeMeters>1148.5999755859375</AltitudeMeters>
            <DistanceMeters>372963.0310867</DistanceMeters>
          </Trackpoint>
          <Trackpoint>
            <Time>2021-08-01T10:30:09.000Z</Time>
            <Position>
              <LatitudeDegrees>41.9831049442291259765625</LatitudeDegrees>
              <LongitudeDegrees>-2.17588146217167377471923828125</LongitudeDegrees>
            </Position>
            <AltitudeMeters>1147.800048828125</AltitudeMeters>
            <DistanceMeters>372967.64746844</DistanceMeters>
          </Trackpoint>
          <Trackpoint>
            <Time>2021-08-01T10:30:11.000Z</Time>
            <Position>
              <LatitudeDegrees>41.98301835916936397552490234375</LatitudeDegrees>
              <LongitudeDegrees>-2.1759127266705036163330078125</LongitudeDegrees>
            </Position>
            <AltitudeMeters>1146.4000244140625</AltitudeMeters>
            <DistanceMeters>372977.62617842</DistanceMeters>
          </Trackpoint>
          <Trackpoint>
            <Time>2021-08-01T10:30:13.000Z</Time>
            <Position>
              <LatitudeDegrees>41.9829247333109378814697265625</LatitudeDegrees>
              <LongitudeDegrees>-2.17593242414295673370361328125</LongitudeDegrees>
            </Position>
            <AltitudeMeters>1145.199951171875</AltitudeMeters>
            <DistanceMeters>372988.17371566</DistanceMeters>
          </Trackpoint>
          <Trackpoint>
            <Time>2021-08-01T10:30:15.000Z</Time>
            <Position>
              <LatitudeDegrees>41.982828341424465179443359375</LatitudeDegrees>
              <LongitudeDegrees>-2.17592823319137096405029296875</LongitudeDegrees>
            </Position>
            <AltitudeMeters>1144.199951171875</AltitudeMeters>
            <DistanceMeters>372998.90794947</DistanceMeters>
          </Trackpoint>
          <Trackpoint>
            <Time>2021-08-01T10:30:18.000Z</Time>
            <Position>
              <LatitudeDegrees>41.98268987238407135009765625</LatitudeDegrees>
              <LongitudeDegrees>-2.17586235143244266510009765625</LongitudeDegrees>
            </Position>
            <AltitudeMeters>1142.800048828125</AltitudeMeters>
            <DistanceMeters>373015.25530651</DistanceMeters>
          </Trackpoint>
          <Trackpoint>
            <Time>2021-08-01T10:30:22.000Z</Time>
            <Position>
              <LatitudeDegrees>41.982533633708953857421875</LatitudeDegrees>
              <LongitudeDegrees>-2.1757543087005615234375</LongitudeDegrees>
            </Position>
            <AltitudeMeters>1141.4000244140625</AltitudeMeters>
            <DistanceMeters>373034.80796225</DistanceMeters>
          </Trackpoint>
          <Trackpoint>
            <Time>2021-08-01T10:30:26.000Z</Time>
            <Position>
              <LatitudeDegrees>41.98240295983850955963134765625</LatitudeDegrees>
              <LongitudeDegrees>-2.175643332302570343017578125</LongitudeDegrees>
            </Position>
            <AltitudeMeters>1140</AltitudeMeters>
            <DistanceMeters>373052.00779755</DistanceMeters>
          </Trackpoint>
          <Trackpoint>
            <Time>2021-08-01T10:30:29.000Z</Time>
            <Position>
              <LatitudeDegrees>41.982310004532337188720703125</LatitudeDegrees>
              <LongitudeDegrees>-2.1755335293710231781005859375</LongitudeDegrees>
            </Position>
            <AltitudeMeters>1138.5999755859375</AltitudeMeters>
            <DistanceMeters>373065.77650936</DistanceMeters>
          </Trackpoint>
          <Trackpoint>
            <Time>2021-08-01T10:30:31.000Z</Time>
            <Position>
              <LatitudeDegrees>41.98225376196205615997314453125</LatitudeDegrees>
              <LongitudeDegrees>-2.1754503808915615081787109375</LongitudeDegrees>
            </Position>
            <AltitudeMeters>1137.5999755859375</AltitudeMeters>
            <DistanceMeters>373075.07796959</DistanceMeters>
          </Trackpoint>
          <Trackpoint>
            <Time>2021-08-01T10:30:33.000Z</Time>
            <Position>
              <LatitudeDegrees>41.9822025485336780548095703125</LatitudeDegrees>
              <LongitudeDegrees>-2.17535667121410369873046875</LongitudeDegrees>
            </Position>
            <AltitudeMeters>1136.4000244140625</AltitudeMeters>
            <DistanceMeters>373084.70056819</DistanceMeters>
          </Trackpoint>
          <Trackpoint>
            <Time>2021-08-01T10:30:35.000Z</Time>
            <Position>
              <LatitudeDegrees>41.98215208947658538818359375</LatitudeDegrees>
              <LongitudeDegrees>-2.17525684274733066558837890625</LongitudeDegrees>
            </Position>
            <AltitudeMeters>1134.800048828125</AltitudeMeters>
            <DistanceMeters>373094.68877547</DistanceMeters>
          </Trackpoint>
          <Trackpoint>
            <Time>2021-08-01T10:30:37.000Z</Time>
            <Position>
              <LatitudeDegrees>41.9821049831807613372802734375</LatitudeDegrees>
              <LongitudeDegrees>-2.17515273950994014739990234375</LongitudeDegrees>
            </Position>
            <AltitudeMeters>1133.4000244140625</AltitudeMeters>
            <DistanceMeters>373104.77235919</DistanceMeters>
          </Trackpoint>
          <Trackpoint>
            <Time>2021-08-01T10:30:39.000Z</Time>
            <Position>
              <LatitudeDegrees>41.9820627383887767791748046875</LatitudeDegrees>
              <LongitudeDegrees>-2.17504285275936126708984375</LongitudeDegrees>
            </Position>
            <AltitudeMeters>1132.199951171875</AltitudeMeters>
            <DistanceMeters>373115.00793181</DistanceMeters>
          </Trackpoint>
          <Trackpoint>
            <Time>2021-08-01T10:30:41.000Z</Time>
            <Position>
              <LatitudeDegrees>41.982025690376758575439453125</LatitudeDegrees>
              <LongitudeDegrees>-2.17493011616170406341552734375</LongitudeDegrees>
            </Position>
            <AltitudeMeters>1130.800048828125</AltitudeMeters>
            <DistanceMeters>373125.20638368</DistanceMeters>
          </Trackpoint>
          <Trackpoint>
            <Time>2021-08-01T10:30:43.000Z</Time>
            <Position>
              <LatitudeDegrees>41.98200129903852939605712890625</LatitudeDegrees>
              <LongitudeDegrees>-2.17481310479342937469482421875</LongitudeDegrees>
            </Position>
            <AltitudeMeters>1129.199951171875</AltitudeMeters>
            <DistanceMeters>373135.2608208</DistanceMeters>
          </Trackpoint>
          <Trackpoint>
            <Time>2021-08-01T10:30:45.000Z</Time>
            <Position>
              <LatitudeDegrees>41.98199425823986530303955078125</LatitudeDegrees>
              <LongitudeDegrees>-2.17469307594001293182373046875</LongitudeDegrees>
            </Position>
            <AltitudeMeters>1128</AltitudeMeters>
            <DistanceMeters>373145.22232219</DistanceMeters>
          </Trackpoint>
          <Trackpoint>
            <Time>2021-08-01T10:30:47.000Z</Time>
            <Position>
              <LatitudeDegrees>41.98201655410230159759521484375</LatitudeDegrees>
              <LongitudeDegrees>-2.1745739690959453582763671875</LongitudeDegrees>
            </Position>
            <AltitudeMeters>1126.5999755859375</AltitudeMeters>
            <DistanceMeters>373155.38440634</DistanceMeters>
          </Trackpoint>
          <Trackpoint>
            <Time>2021-08-01T10:30:48.000Z</Time>
            <Position>
              <LatitudeDegrees>41.9820399396121501922607421875</LatitudeDegrees>
              <LongitudeDegrees>-2.17451554723083972930908203125</LongitudeDegrees>
            </Position>
            <AltitudeMeters>1125.5999755859375</AltitudeMeters>
            <DistanceMeters>373160.87461537</DistanceMeters>
          </Trackpoint>
          <Trackpoint>
            <Time>2021-08-01T10:30:49.000Z</Time>
            <Position>
              <LatitudeDegrees>41.98207120411098003387451171875</LatitudeDegrees>
              <LongitudeDegrees>-2.17446240596473217010498046875</LongitudeDegrees>
            </Position>
            <AltitudeMeters>1124.199951171875</AltitudeMeters>
            <DistanceMeters>373166.48199677</DistanceMeters>
          </Trackpoint>
          <Trackpoint>
            <Time>2021-08-01T10:30:50.000Z</Time>
            <Position>
              <LatitudeDegrees>41.98210556991398334503173828125</LatitudeDegrees>
              <LongitudeDegrees>-2.17441446147859096527099609375</LongitudeDegrees>
            </Position>
            <AltitudeMeters>1122.800048828125</AltitudeMeters>
            <DistanceMeters>373171.99190757</DistanceMeters>
          </Trackpoint>
          <Trackpoint>
            <Time>2021-08-01T10:30:51.000Z</Time>
            <Position>
              <LatitudeDegrees>41.98213926516473293304443359375</LatitudeDegrees>
              <LongitudeDegrees>-2.17436986975371837615966796875</LongitudeDegrees>
            </Position>
            <AltitudeMeters>1121.5999755859375</AltitudeMeters>
            <DistanceMeters>373177.25196025</DistanceMeters>
          </Trackpoint>
          <Trackpoint>
            <Time>2021-08-01T10:30:53.000Z</Time>
            <Position>
              <LatitudeDegrees>41.98219978250563144683837890625</LatitudeDegrees>
              <LongitudeDegrees>-2.1742896549403667449951171875</LongitudeDegrees>
            </Position>
            <AltitudeMeters>1120</AltitudeMeters>
            <DistanceMeters>373186.70890887</DistanceMeters>
          </Trackpoint>
          <Trackpoint>
            <Time>2021-08-01T10:30:56.000Z</Time>
            <Position>
              <LatitudeDegrees>41.98227320797741413116455078125</LatitudeDegrees>
              <LongitudeDegrees>-2.17416736297309398651123046875</LongitudeDegrees>
            </Position>
            <AltitudeMeters>1118.5999755859375</AltitudeMeters>
            <DistanceMeters>373199.71542462</DistanceMeters>
          </Trackpoint>
          <Trackpoint>
            <Time>2021-08-01T10:30:59.000Z</Time>
            <Position>
              <LatitudeDegrees>41.98231092654168605804443359375</LatitudeDegrees>
              <LongitudeDegrees>-2.173951528966426849365234375</LongitudeDegrees>
            </Position>
            <AltitudeMeters>1117.4000244140625</AltitudeMeters>
            <DistanceMeters>373218.05976513</DistanceMeters>
          </Trackpoint>
          <Trackpoint>
            <Time>2021-08-01T10:31:00.000Z</Time>
            <Position>
              <LatitudeDegrees>41.98230992071330547332763671875</LatitudeDegrees>
              <LongitudeDegrees>-2.17386075295507907867431640625</LongitudeDegrees>
            </Position>
            <AltitudeMeters>1116.5999755859375</AltitudeMeters>
            <DistanceMeters>373225.57108443</DistanceMeters>
          </Trackpoint>
          <Trackpoint>
            <Time>2021-08-01T10:31:01.000Z</Time>
            <Position>
              <LatitudeDegrees>41.98230723850429058074951171875</LatitudeDegrees>
              <LongitudeDegrees>-2.1737676300108432769775390625</LongitudeDegrees>
            </Position>
            <AltitudeMeters>1115.800048828125</AltitudeMeters>
            <DistanceMeters>373233.28172794</DistanceMeters>
          </Trackpoint>
          <Trackpoint>
            <Time>2021-08-01T10:31:02.000Z</Time>
            <Position>
              <LatitudeDegrees>41.98229885660111904144287109375</LatitudeDegrees>
              <LongitudeDegrees>-2.1736734174191951751708984375</LongitudeDegrees>
            </Position>
            <AltitudeMeters>1115.199951171875</AltitudeMeters>
            <DistanceMeters>373241.13279805</DistanceMeters>
          </Trackpoint>
          <Trackpoint>
            <Time>2021-08-01T10:31:04.000Z</Time>
            <Position>
              <LatitudeDegrees>41.98225460015237331390380859375</LatitudeDegrees>
              <LongitudeDegrees>-2.1734930388629436492919921875</LongitudeDegrees>
            </Position>
            <AltitudeMeters>1114.4000244140625</AltitudeMeters>
            <DistanceMeters>373256.84873425</DistanceMeters>
          </Trackpoint>
          <Trackpoint>
            <Time>2021-08-01T10:31:07.000Z</Time>
            <Position>
              <LatitudeDegrees>41.9821334816515445709228515625</LatitudeDegrees>
              <LongitudeDegrees>-2.17327921651303768157958984375</LongitudeDegrees>
            </Position>
            <AltitudeMeters>1114.199951171875</AltitudeMeters>
            <DistanceMeters>373279.09067005</DistanceMeters>
          </Trackpoint>
          <Trackpoint>
            <Time>2021-08-01T10:31:13.000Z</Time>
            <Position>
              <LatitudeDegrees>41.98187054134905338287353515625</LatitudeDegrees>
              <LongitudeDegrees>-2.1729291044175624847412109375</LongitudeDegrees>
            </Position>
            <AltitudeMeters>1115.800048828125</AltitudeMeters>
            <DistanceMeters>373320.26806013</DistanceMeters>
          </Trackpoint>
          <Trackpoint>
            <Time>2021-08-01T10:31:17.000Z</Time>
            <Position>
              <LatitudeDegrees>41.98169603012502193450927734375</LatitudeDegrees>
              <LongitudeDegrees>-2.172688543796539306640625</LongitudeDegrees>
            </Position>
            <AltitudeMeters>1117</AltitudeMeters>
            <DistanceMeters>373348.07827385</DistanceMeters>
          </Trackpoint>
          <Trackpoint>
            <Time>2021-08-01T10:31:24.000Z</Time>
            <Position>
              <LatitudeDegrees>41.98139436542987823486328125</LatitudeDegrees>
              <LongitudeDegrees>-2.17228353023529052734375</LongitudeDegrees>
            </Position>
            <AltitudeMeters>1118.4000244140625</AltitudeMeters>
            <DistanceMeters>373395.51497767</DistanceMeters>
          </Trackpoint>
          <Trackpoint>
            <Time>2021-08-01T10:31:28.000Z</Time>
            <Position>
              <LatitudeDegrees>41.981246508657932281494140625</LatitudeDegrees>
              <LongitudeDegrees>-2.172035761177539825439453125</LongitudeDegrees>
            </Position>
            <AltitudeMeters>1119.5999755859375</AltitudeMeters>
            <DistanceMeters>373421.80287774</DistanceMeters>
          </Trackpoint>
          <Trackpoint>
            <Time>2021-08-01T10:31:39.000Z</Time>
            <Position>
              <LatitudeDegrees>41.98091022670269012451171875</LatitudeDegrees>
              <LongitudeDegrees>-2.17138993553817272186279296875</LongitudeDegrees>
            </Position>
            <AltitudeMeters>1119.800048828125</AltitudeMeters>
            <DistanceMeters>373487.0420219</DistanceMeters>
          </Trackpoint>
          <Trackpoint>
            <Time>2021-08-01T10:31:43.000Z</Time>
            <Position>
              <LatitudeDegrees>41.980736553668975830078125</LatitudeDegrees>
              <LongitudeDegrees>-2.17113328166306018829345703125</LongitudeDegrees>
            </Position>
            <AltitudeMeters>1118.5999755859375</AltitudeMeters>
            <DistanceMeters>373515.75770508</DistanceMeters>
          </Trackpoint>
          <Trackpoint>
            <Time>2021-08-01T10:31:45.000Z</Time>
            <Position>
              <LatitudeDegrees>41.98062566109001636505126953125</LatitudeDegrees>
              <LongitudeDegrees>-2.17100101523101329803466796875</LongitudeDegrees>
            </Position>
            <AltitudeMeters>1117.199951171875</AltitudeMeters>
            <DistanceMeters>373532.25298512</DistanceMeters>
          </Trackpoint>
          <Trackpoint>
            <Time>2021-08-01T10:31:47.000Z</Time>
            <Position>
              <LatitudeDegrees>41.9805023632943630218505859375</LatitudeDegrees>
              <LongitudeDegrees>-2.17086941935122013092041015625</LongitudeDegrees>
            </Position>
            <AltitudeMeters>1115.199951171875</AltitudeMeters>
            <DistanceMeters>373549.77066441</DistanceMeters>
          </Trackpoint>
          <Trackpoint>
            <Time>2021-08-01T10:31:48.000Z</Time>
            <Position>
              <LatitudeDegrees>41.9804343022406101226806640625</LatitudeDegrees>
              <LongitudeDegrees>-2.17080487869679927825927734375</LongitudeDegrees>
            </Position>
            <AltitudeMeters>1114</AltitudeMeters>
            <DistanceMeters>373559.03905786</DistanceMeters>
          </Trackpoint>
          <Trackpoint>
            <Time>2021-08-01T10:31:50.000Z</Time>
            <Position>
              <LatitudeDegrees>41.980291642248630523681640625</LatitudeDegrees>
              <LongitudeDegrees>-2.1706780605018138885498046875</LongitudeDegrees>
            </Position>
            <AltitudeMeters>1111.800048828125</AltitudeMeters>
            <DistanceMeters>373578.07122685</DistanceMeters>
          </Trackpoint>
          <Trackpoint>
            <Time>2021-08-01T10:31:51.000Z</Time>
            <Position>
              <LatitudeDegrees>41.980222575366497039794921875</LatitudeDegrees>
              <LongitudeDegrees>-2.17061880044639110565185546875</LongitudeDegrees>
            </Position>
            <AltitudeMeters>1110.4000244140625</AltitudeMeters>
            <DistanceMeters>373587.18884078</DistanceMeters>
          </Trackpoint>
          <Trackpoint>
            <Time>2021-08-01T10:31:52.000Z</Time>
            <Position>
              <LatitudeDegrees>41.98015593923628330230712890625</LatitudeDegrees>
              <LongitudeDegrees>-2.1705628931522369384765625</LongitudeDegrees>
            </Position>
            <AltitudeMeters>1109.4000244140625</AltitudeMeters>
            <DistanceMeters>373595.93026554</DistanceMeters>
          </Trackpoint>
          <Trackpoint>
            <Time>2021-08-01T10:31:54.000Z</Time>
            <Position>
              <LatitudeDegrees>41.98002375662326812744140625</LatitudeDegrees>
              <LongitudeDegrees>-2.1704648248851299285888671875</LongitudeDegrees>
            </Position>
            <AltitudeMeters>1107.800048828125</AltitudeMeters>
            <DistanceMeters>373612.73199908</DistanceMeters>
          </Trackpoint>
          <Trackpoint>
            <Time>2021-08-01T10:31:56.000Z</Time>
            <Position>
              <LatitudeDegrees>41.9799022190272808074951171875</LatitudeDegrees>
              <LongitudeDegrees>-2.170375473797321319580078125</LongitudeDegrees>
            </Position>
            <AltitudeMeters>1106.4000244140625</AltitudeMeters>
            <DistanceMeters>373628.14801516</DistanceMeters>
          </Trackpoint>
          <Trackpoint>
            <Time>2021-08-01T10:31:58.000Z</Time>
            <Position>
              <LatitudeDegrees>41.97978562675416469573974609375</LatitudeDegrees>
              <LongitudeDegrees>-2.17028059065341949462890625</LongitudeDegrees>
            </Position>
            <AltitudeMeters>1104.5999755859375</AltitudeMeters>
            <DistanceMeters>373643.31482653</DistanceMeters>
          </Trackpoint>
          <Trackpoint>
            <Time>2021-08-01T10:31:59.000Z</Time>
            <Position>
              <LatitudeDegrees>41.97973064146935939788818359375</LatitudeDegrees>
              <LongitudeDegrees>-2.1702321432530879974365234375</LongitudeDegrees>
            </Position>
            <AltitudeMeters>1103.4000244140625</AltitudeMeters>
            <DistanceMeters>373650.63003214</DistanceMeters>
          </Trackpoint>
          <Trackpoint>
            <Time>2021-08-01T10:32:01.000Z</Time>
            <Position>
              <LatitudeDegrees>41.9796199165284633636474609375</LatitudeDegrees>
              <LongitudeDegrees>-2.1701379306614398956298828125</LongitudeDegrees>
            </Position>
            <AltitudeMeters>1102.199951171875</AltitudeMeters>
            <DistanceMeters>373665.21222128</DistanceMeters>
          </Trackpoint>
          <Trackpoint>
            <Time>2021-08-01T10:32:03.000Z</Time>
            <Position>
              <LatitudeDegrees>41.9795035757124423980712890625</LatitudeDegrees>
              <LongitudeDegrees>-2.17003458179533481597900390625</LongitudeDegrees>
            </Position>
            <AltitudeMeters>1100.800048828125</AltitudeMeters>
            <DistanceMeters>373680.72982478</DistanceMeters>
          </Trackpoint>
          <Trackpoint>
            <Time>2021-08-01T10:32:05.000Z</Time>
            <Position>
              <LatitudeDegrees>41.9793868996202945709228515625</LatitudeDegrees>
              <LongitudeDegrees>-2.16991673223674297332763671875</LongitudeDegrees>
            </Position>
            <AltitudeMeters>1099.4000244140625</AltitudeMeters>
            <DistanceMeters>373696.96910901</DistanceMeters>
          </Trackpoint>
          <Trackpoint>
            <Time>2021-08-01T10:32:07.000Z</Time>
            <Position>
              <LatitudeDegrees>41.97927835397422313690185546875</LatitudeDegrees>
              <LongitudeDegrees>-2.169773988425731658935546875</LongitudeDegrees>
            </Position>
            <AltitudeMeters>1098.199951171875</AltitudeMeters>
            <DistanceMeters>373713.86409988</DistanceMeters>
          </Trackpoint>
          <Trackpoint>
            <Time>2021-08-01T10:32:10.000Z</Time>
            <Position>
              <LatitudeDegrees>41.97913862764835357666015625</LatitudeDegrees>
              <LongitudeDegrees>-2.16952429153025150299072265625</LongitudeDegrees>
            </Position>
            <AltitudeMeters>1096.800048828125</AltitudeMeters>
            <DistanceMeters>373739.7230672</DistanceMeters>
          </Trackpoint>
          <Trackpoint>
            <Time>2021-08-01T10:32:12.000Z</Time>
            <Position>
              <LatitudeDegrees>41.97906260378658771514892578125</LatitudeDegrees>
              <LongitudeDegrees>-2.16934382915496826171875</LongitudeDegrees>
            </Position>
            <AltitudeMeters>1095</AltitudeMeters>
            <DistanceMeters>373756.88584942</DistanceMeters>
          </Trackpoint>
          <Trackpoint>
            <Time>2021-08-01T10:32:15.000Z</Time>
            <Position>
              <LatitudeDegrees>41.97896989993751049041748046875</LatitudeDegrees>
              <LongitudeDegrees>-2.1690687350928783416748046875</LongitudeDegrees>
            </Position>
            <AltitudeMeters>1093.5999755859375</AltitudeMeters>
            <DistanceMeters>373781.87679132</DistanceMeters>
          </Trackpoint>
          <Trackpoint>
            <Time>2021-08-01T10:32:18.000Z</Time>
            <Position>
              <LatitudeDegrees>41.978875435888767242431640625</LatitudeDegrees>
              <LongitudeDegrees>-2.16878592967987060546875</LongitudeDegrees>
            </Position>
            <AltitudeMeters>1091.800048828125</AltitudeMeters>
            <DistanceMeters>373807.52978044</DistanceMeters>
          </Trackpoint>
          <Trackpoint>
            <Time>2021-08-01T10:32:20.000Z</Time>
            <Position>
              <LatitudeDegrees>41.9788098894059658050537109375</LatitudeDegrees>
              <LongitudeDegrees>-2.1685949899256229400634765625</LongitudeDegrees>
            </Position>
            <AltitudeMeters>1090.5999755859375</AltitudeMeters>
            <DistanceMeters>373824.9310894</DistanceMeters>
          </Trackpoint>
          <Trackpoint>
            <Time>2021-08-01T10:32:23.000Z</Time>
            <Position>
              <LatitudeDegrees>41.97870335541665554046630859375</LatitudeDegrees>
              <LongitudeDegrees>-2.168316878378391265869140625</LongitudeDegrees>
            </Position>
            <AltitudeMeters>1089.5999755859375</AltitudeMeters>
            <DistanceMeters>373850.81780362</DistanceMeters>
          </Trackpoint>
          <Trackpoint>
            <Time>2021-08-01T10:32:27.000Z</Time>
            <Position>
              <LatitudeDegrees>41.97858718223869800567626953125</LatitudeDegrees>
              <LongitudeDegrees>-2.1680424548685550689697265625</LongitudeDegrees>
            </Position>
            <AltitudeMeters>1090.800048828125</AltitudeMeters>
            <DistanceMeters>373876.9475583</DistanceMeters>
          </Trackpoint>
          <Trackpoint>
            <Time>2021-08-01T10:32:30.000Z</Time>
            <Position>
              <LatitudeDegrees>41.97857025079429149627685546875</LatitudeDegrees>
              <LongitudeDegrees>-2.16799744404852390289306640625</LongitudeDegrees>
            </Position>
            <AltitudeMeters>1092.199951171875</AltitudeMeters>
            <DistanceMeters>373881.12224961</DistanceMeters>
          </Trackpoint>
          <Trackpoint>
            <Time>2021-08-01T10:51:43.000Z</Time>
            <Position>
              <LatitudeDegrees>41.9785544089972972869873046875</LatitudeDegrees>
              <LongitudeDegrees>-2.16819140128791332244873046875</LongitudeDegrees>
            </Position>
            <AltitudeMeters>1092.4000244140625</AltitudeMeters>
            <DistanceMeters>373897.26728559</DistanceMeters>
          </Trackpoint>
          <Trackpoint>
            <Time>2021-08-01T10:51:46.000Z</Time>
            <Position>
              <LatitudeDegrees>41.97847880423069000244140625</LatitudeDegrees>
              <LongitudeDegrees>-2.16817773878574371337890625</LongitudeDegrees>
            </Position>
            <AltitudeMeters>1091.199951171875</AltitudeMeters>
            <DistanceMeters>373905.75822961</DistanceMeters>
          </Trackpoint>
          <Trackpoint>
            <Time>2021-08-01T10:51:47.000Z</Time>
            <Position>
              <LatitudeDegrees>41.978452317416667938232421875</LatitudeDegrees>
              <LongitudeDegrees>-2.168166674673557281494140625</LongitudeDegrees>
            </Position>
            <AltitudeMeters>1090.800048828125</AltitudeMeters>
            <DistanceMeters>373908.84623231</DistanceMeters>
          </Trackpoint>
          <Trackpoint>
            <Time>2021-08-01T10:51:49.000Z</Time>
            <Position>
              <LatitudeDegrees>41.978384591639041900634765625</LatitudeDegrees>
              <LongitudeDegrees>-2.1681403554975986480712890625</LongitudeDegrees>
            </Position>
            <AltitudeMeters>1089.800048828125</AltitudeMeters>
            <DistanceMeters>373916.69212494</DistanceMeters>
          </Trackpoint>
          <Trackpoint>
            <Time>2021-08-01T10:51:51.000Z</Time>
            <Position>
              <LatitudeDegrees>41.978290714323520660400390625</LatitudeDegrees>
              <LongitudeDegrees>-2.16811093501746654510498046875</LongitudeDegrees>
            </Position>
            <AltitudeMeters>1088.4000244140625</AltitudeMeters>
            <DistanceMeters>373927.42046845</DistanceMeters>
          </Trackpoint>
          <Trackpoint>
            <Time>2021-08-01T10:51:52.000Z</Time>
            <Position>
              <LatitudeDegrees>41.97823606431484222412109375</LatitudeDegrees>
              <LongitudeDegrees>-2.168092243373394012451171875</LongitudeDegrees>
            </Position>
            <AltitudeMeters>1086.800048828125</AltitudeMeters>
            <DistanceMeters>373933.6965495</DistanceMeters>
          </Trackpoint>
          <Trackpoint>
            <Time>2021-08-01T10:51:54.000Z</Time>
            <Position>
              <LatitudeDegrees>41.97811377234756946563720703125</LatitudeDegrees>
              <LongitudeDegrees>-2.16805578209459781646728515625</LongitudeDegrees>
            </Position>
            <AltitudeMeters>1085.5999755859375</AltitudeMeters>
            <DistanceMeters>373947.63829959</DistanceMeters>
          </Trackpoint>
          <Trackpoint>
            <Time>2021-08-01T10:51:55.000Z</Time>
            <Position>
              <LatitudeDegrees>41.97805057279765605926513671875</LatitudeDegrees>
              <LongitudeDegrees>-2.1680404432117938995361328125</LongitudeDegrees>
            </Position>
            <AltitudeMeters>1084.5999755859375</AltitudeMeters>
            <DistanceMeters>373954.78617847</DistanceMeters>
          </Trackpoint>
          <Trackpoint>
            <Time>2021-08-01T10:51:57.000Z</Time>
            <Position>
              <LatitudeDegrees>41.97791813872754573822021484375</LatitudeDegrees>
              <LongitudeDegrees>-2.16801772825419902801513671875</LongitudeDegrees>
            </Position>
            <AltitudeMeters>1083</AltitudeMeters>
            <DistanceMeters>373969.64563436</DistanceMeters>
          </Trackpoint>
          <Trackpoint>
            <Time>2021-08-01T10:51:59.000Z</Time>
            <Position>
              <LatitudeDegrees>41.97777313180267810821533203125</LatitudeDegrees>
              <LongitudeDegrees>-2.1680203266441822052001953125</LongitudeDegrees>
            </Position>
            <AltitudeMeters>1080.5999755859375</AltitudeMeters>
            <DistanceMeters>373985.78619523</DistanceMeters>
          </Trackpoint>
          <Trackpoint>
            <Time>2021-08-01T10:52:00.000Z</Time>
            <Position>
              <LatitudeDegrees>41.9776987843215465545654296875</LatitudeDegrees>
              <LongitudeDegrees>-2.1680307202041149139404296875</LongitudeDegrees>
            </Position>
            <AltitudeMeters>1079.5999755859375</AltitudeMeters>
            <DistanceMeters>373994.10524</DistanceMeters>
          </Trackpoint>
          <Trackpoint>
            <Time>2021-08-01T10:52:01.000Z</Time>
            <Position>
              <LatitudeDegrees>41.9776300527155399322509765625</LatitudeDegrees>
              <LongitudeDegrees>-2.16804455034434795379638671875</LongitudeDegrees>
            </Position>
            <AltitudeMeters>1078.4000244140625</AltitudeMeters>
            <DistanceMeters>374001.83985418</DistanceMeters>
          </Trackpoint>
          <Trackpoint>
            <Time>2021-08-01T10:52:04.000Z</Time>
            <Position>
              <LatitudeDegrees>41.977458558976650238037109375</LatitudeDegrees>
              <LongitudeDegrees>-2.16808847151696681976318359375</LongitudeDegrees>
            </Position>
            <AltitudeMeters>1076.800048828125</AltitudeMeters>
            <DistanceMeters>374021.2699709</DistanceMeters>
          </Trackpoint>
          <Trackpoint>
            <Time>2021-08-01T10:52:06.000Z</Time>
            <Position>
              <LatitudeDegrees>41.97735319845378398895263671875</LatitudeDegrees>
              <LongitudeDegrees>-2.168122418224811553955078125</LongitudeDegrees>
            </Position>
            <AltitudeMeters>1075.199951171875</AltitudeMeters>
            <DistanceMeters>374033.32825813</DistanceMeters>
          </Trackpoint>
          <Trackpoint>
            <Time>2021-08-01T10:52:07.000Z</Time>
            <Position>
              <LatitudeDegrees>41.97729595005512237548828125</LatitudeDegrees>
              <LongitudeDegrees>-2.16814152896404266357421875</LongitudeDegrees>
            </Position>
            <AltitudeMeters>1074</AltitudeMeters>
            <DistanceMeters>374039.89267165</DistanceMeters>
          </Trackpoint>
          <Trackpoint>
            <Time>2021-08-01T10:52:09.000Z</Time>
            <Position>
              <LatitudeDegrees>41.97717751376330852508544921875</LatitudeDegrees>
              <LongitudeDegrees>-2.1681728772819042205810546875</LongitudeDegrees>
            </Position>
            <AltitudeMeters>1072.199951171875</AltitudeMeters>
            <DistanceMeters>374053.32744623</DistanceMeters>
          </Trackpoint>
          <Trackpoint>
            <Time>2021-08-01T10:52:11.000Z</Time>
            <Position>
              <LatitudeDegrees>41.977052204310894012451171875</LatitudeDegrees>
              <LongitudeDegrees>-2.16820280067622661590576171875</LongitudeDegrees>
            </Position>
            <AltitudeMeters>1070.800048828125</AltitudeMeters>
            <DistanceMeters>374067.49248412</DistanceMeters>
          </Trackpoint>
          <Trackpoint>
            <Time>2021-08-01T10:52:15.000Z</Time>
            <Position>
              <LatitudeDegrees>41.97684533894062042236328125</LatitudeDegrees>
              <LongitudeDegrees>-2.16826918534934520721435546875</LongitudeDegrees>
            </Position>
            <AltitudeMeters>1069.5999755859375</AltitudeMeters>
            <DistanceMeters>374091.16310269</DistanceMeters>
          </Trackpoint>
          <Trackpoint>
            <Time>2021-08-01T10:52:18.000Z</Time>
            <Position>
              <LatitudeDegrees>41.97667476721107959747314453125</LatitudeDegrees>
              <LongitudeDegrees>-2.1683002822101116180419921875</LongitudeDegrees>
            </Position>
            <AltitudeMeters>1068.4000244140625</AltitudeMeters>
            <DistanceMeters>374110.3215347</DistanceMeters>
          </Trackpoint>
          <Trackpoint>
            <Time>2021-08-01T10:52:20.000Z</Time>
            <Position>
              <LatitudeDegrees>41.9765670597553253173828125</LatitudeDegrees>
              <LongitudeDegrees>-2.16831427998840808868408203125</LongitudeDegrees>
            </Position>
            <AltitudeMeters>1067.199951171875</AltitudeMeters>
            <DistanceMeters>374122.36558501</DistanceMeters>
          </Trackpoint>
          <Trackpoint>
            <Time>2021-08-01T10:52:23.000Z</Time>
            <Position>
              <LatitudeDegrees>41.97642481885850429534912109375</LatitudeDegrees>
              <LongitudeDegrees>-2.1683317981660366058349609375</LongitudeDegrees>
            </Position>
            <AltitudeMeters>1066</AltitudeMeters>
            <DistanceMeters>374138.26375597</DistanceMeters>
          </Trackpoint>
          <Trackpoint>
            <Time>2021-08-01T10:52:27.000Z</Time>
            <Position>
              <LatitudeDegrees>41.9762524031102657318115234375</LatitudeDegrees>
              <LongitudeDegrees>-2.168347053229808807373046875</LongitudeDegrees>
            </Position>
            <AltitudeMeters>1064.5999755859375</AltitudeMeters>
            <DistanceMeters>374157.49534121</DistanceMeters>
          </Trackpoint>
          <Trackpoint>
            <Time>2021-08-01T10:52:31.000Z</Time>
            <Position>
              <LatitudeDegrees>41.9760532490909099578857421875</LatitudeDegrees>
              <LongitudeDegrees>-2.1683663316071033477783203125</LongitudeDegrees>
            </Position>
            <AltitudeMeters>1062.800048828125</AltitudeMeters>
            <DistanceMeters>374179.7189998</DistanceMeters>
          </Trackpoint>
          <Trackpoint>
            <Time>2021-08-01T10:52:33.000Z</Time>
            <Position>
              <LatitudeDegrees>41.97594068013131618499755859375</LatitudeDegrees>
              <LongitudeDegrees>-2.16837764717638492584228515625</LongitudeDegrees>
            </Position>
            <AltitudeMeters>1061.800048828125</AltitudeMeters>
            <DistanceMeters>374192.28266711</DistanceMeters>
          </Trackpoint>
          <Trackpoint>
            <Time>2021-08-01T10:52:35.000Z</Time>
            <Position>
              <LatitudeDegrees>41.97581964544951915740966796875</LatitudeDegrees>
              <LongitudeDegrees>-2.16839005239307880401611328125</LongitudeDegrees>
            </Position>
            <AltitudeMeters>1060.5999755859375</AltitudeMeters>
            <DistanceMeters>374205.79318025</DistanceMeters>
          </Trackpoint>
          <Trackpoint>
            <Time>2021-08-01T10:52:38.000Z</Time>
            <Position>
              <LatitudeDegrees>41.97563054971396923065185546875</LatitudeDegrees>
              <LongitudeDegrees>-2.168423496186733245849609375</LongitudeDegrees>
            </Position>
            <AltitudeMeters>1059.5999755859375</AltitudeMeters>
            <DistanceMeters>374227.02096569</DistanceMeters>
          </Trackpoint>
          <Trackpoint>
            <Time>2021-08-01T10:52:47.000Z</Time>
            <Position>
              <LatitudeDegrees>41.9750797748565673828125</LatitudeDegrees>
              <LongitudeDegrees>-2.16863312758505344390869140625</LongitudeDegrees>
            </Position>
            <AltitudeMeters>1058.199951171875</AltitudeMeters>
            <DistanceMeters>374290.73012374</DistanceMeters>
          </Trackpoint>
          <Trackpoint>
            <Time>2021-08-01T10:52:49.000Z</Time>
            <Position>
              <LatitudeDegrees>41.97495765052735805511474609375</LatitudeDegrees>
              <LongitudeDegrees>-2.168675959110260009765625</LongitudeDegrees>
            </Position>
            <AltitudeMeters>1057.4000244140625</AltitudeMeters>
            <DistanceMeters>374304.77737367</DistanceMeters>
          </Trackpoint>
          <Trackpoint>
            <Time>2021-08-01T10:52:50.000Z</Time>
            <Position>
              <LatitudeDegrees>41.97489562444388866424560546875</LatitudeDegrees>
              <LongitudeDegrees>-2.1686902083456516265869140625</LongitudeDegrees>
            </Position>
            <AltitudeMeters>1057.199951171875</AltitudeMeters>
            <DistanceMeters>374311.78104237</DistanceMeters>
          </Trackpoint>
          <Trackpoint>
            <Time>2021-08-01T10:52:56.000Z</Time>
            <Position>
              <LatitudeDegrees>41.97451986372470855712890625</LatitudeDegrees>
              <LongitudeDegrees>-2.1687076427042484283447265625</LongitudeDegrees>
            </Position>
            <AltitudeMeters>1056</AltitudeMeters>
            <DistanceMeters>374353.62874021</DistanceMeters>
          </Trackpoint>
          <Trackpoint>
            <Time>2021-08-01T10:53:01.000Z</Time>
            <Position>
              <LatitudeDegrees>41.97420026175677776336669921875</LatitudeDegrees>
              <LongitudeDegrees>-2.16871686279773712158203125</LongitudeDegrees>
            </Position>
            <AltitudeMeters>1054.800048828125</AltitudeMeters>
            <DistanceMeters>374389.20923441</DistanceMeters>
          </Trackpoint>
          <Trackpoint>
            <Time>2021-08-01T10:53:06.000Z</Time>
            <Position>
              <LatitudeDegrees>41.9738741219043731689453125</LatitudeDegrees>
              <LongitudeDegrees>-2.168729938566684722900390625</LongitudeDegrees>
            </Position>
            <AltitudeMeters>1053.800048828125</AltitudeMeters>
            <DistanceMeters>374425.52535651</DistanceMeters>
          </Trackpoint>
          <Trackpoint>
            <Time>2021-08-01T10:53:10.000Z</Time>
            <Position>
              <LatitudeDegrees>41.97360145859420299530029296875</LatitudeDegrees>
              <LongitudeDegrees>-2.16872918419539928436279296875</LongitudeDegrees>
            </Position>
            <AltitudeMeters>1052.4000244140625</AltitudeMeters>
            <DistanceMeters>374455.87341389</DistanceMeters>
          </Trackpoint>
          <Trackpoint>
            <Time>2021-08-01T10:53:12.000Z</Time>
            <Position>
              <LatitudeDegrees>41.97346634231507778167724609375</LatitudeDegrees>
              <LongitudeDegrees>-2.16872314922511577606201171875</LongitudeDegrees>
            </Position>
            <AltitudeMeters>1051.4000244140625</AltitudeMeters>
            <DistanceMeters>374470.92037726</DistanceMeters>
          </Trackpoint>
          <Trackpoint>
            <Time>2021-08-01T10:53:19.000Z</Time>
            <Position>
              <LatitudeDegrees>41.97305344976484775543212890625</LatitudeDegrees>
              <LongitudeDegrees>-2.16871275566518306732177734375</LongitudeDegrees>
            </Position>
            <AltitudeMeters>1049.800048828125</AltitudeMeters>
            <DistanceMeters>374516.88424008</DistanceMeters>
          </Trackpoint>
          <Trackpoint>
            <Time>2021-08-01T10:53:22.000Z</Time>
            <Position>
              <LatitudeDegrees>41.9728902541100978851318359375</LatitudeDegrees>
              <LongitudeDegrees>-2.168702781200408935546875</LongitudeDegrees>
            </Position>
            <AltitudeMeters>1048.800048828125</AltitudeMeters>
            <DistanceMeters>374535.06690101</DistanceMeters>
          </Trackpoint>
          <Trackpoint>
            <Time>2021-08-01T10:53:24.000Z</Time>
            <Position>
              <LatitudeDegrees>41.97279092855751514434814453125</LatitudeDegrees>
              <LongitudeDegrees>-2.168697752058506011962890625</LongitudeDegrees>
            </Position>
            <AltitudeMeters>1047.800048828125</AltitudeMeters>
            <DistanceMeters>374546.12965953</DistanceMeters>
          </Trackpoint>
          <Trackpoint>
            <Time>2021-08-01T10:53:26.000Z</Time>
            <Position>
              <LatitudeDegrees>41.9727071933448314666748046875</LatitudeDegrees>
              <LongitudeDegrees>-2.16870286501944065093994140625</LongitudeDegrees>
            </Position>
            <AltitudeMeters>1046.5999755859375</AltitudeMeters>
            <DistanceMeters>374555.4587472</DistanceMeters>
          </Trackpoint>
          <Trackpoint>
            <Time>2021-08-01T10:53:27.000Z</Time>
            <Position>
              <LatitudeDegrees>41.9726642780005931854248046875</LatitudeDegrees>
              <LongitudeDegrees>-2.1687014400959014892578125</LongitudeDegrees>
            </Position>
            <AltitudeMeters>1046</AltitudeMeters>
            <DistanceMeters>374560.23756121</DistanceMeters>
          </Trackpoint>
          <Trackpoint>
            <Time>2021-08-01T10:53:28.000Z</Time>
            <Position>
              <LatitudeDegrees>41.9726180098950862884521484375</LatitudeDegrees>
              <LongitudeDegrees>-2.16869481839239597320556640625</LongitudeDegrees>
            </Position>
            <AltitudeMeters>1045.4000244140625</AltitudeMeters>
            <DistanceMeters>374565.41629919</DistanceMeters>
          </Trackpoint>
          <Trackpoint>
            <Time>2021-08-01T10:53:30.000Z</Time>
            <Position>
              <LatitudeDegrees>41.97251482866704463958740234375</LatitudeDegrees>
              <LongitudeDegrees>-2.16868140734732151031494140625</LongitudeDegrees>
            </Position>
            <AltitudeMeters>1044.4000244140625</AltitudeMeters>
            <DistanceMeters>374576.95412338</DistanceMeters>
          </Trackpoint>
          <Trackpoint>
            <Time>2021-08-01T10:53:32.000Z</Time>
            <Position>
              <LatitudeDegrees>41.97241173125803470611572265625</LatitudeDegrees>
              <LongitudeDegrees>-2.1686657331883907318115234375</LongitudeDegrees>
            </Position>
            <AltitudeMeters>1043.199951171875</AltitudeMeters>
            <DistanceMeters>374588.50211753</DistanceMeters>
          </Trackpoint>
          <Trackpoint>
            <Time>2021-08-01T10:53:34.000Z</Time>
            <Position>
              <LatitudeDegrees>41.97231416590511798858642578125</LatitudeDegrees>
              <LongitudeDegrees>-2.16866028495132923126220703125</LongitudeDegrees>
            </Position>
            <AltitudeMeters>1042.199951171875</AltitudeMeters>
            <DistanceMeters>374599.37094727</DistanceMeters>
          </Trackpoint>
          <Trackpoint>
            <Time>2021-08-01T10:53:37.000Z</Time>
            <Position>
              <LatitudeDegrees>41.9721843302249908447265625</LatitudeDegrees>
              <LongitudeDegrees>-2.1686493046581745147705078125</LongitudeDegrees>
            </Position>
            <AltitudeMeters>1040.800048828125</AltitudeMeters>
            <DistanceMeters>374613.85059903</DistanceMeters>
          </Trackpoint>
          <Trackpoint>
            <Time>2021-08-01T10:53:40.000Z</Time>
            <Position>
              <LatitudeDegrees>41.9720292650163173675537109375</LatitudeDegrees>
              <LongitudeDegrees>-2.1686127595603466033935546875</LongitudeDegrees>
            </Position>
            <AltitudeMeters>1039.199951171875</AltitudeMeters>
            <DistanceMeters>374631.37265938</DistanceMeters>
          </Trackpoint>
          <Trackpoint>
            <Time>2021-08-01T10:53:42.000Z</Time>
            <Position>
              <LatitudeDegrees>41.97191703133285045623779296875</LatitudeDegrees>
              <LongitudeDegrees>-2.168577723205089569091796875</LongitudeDegrees>
            </Position>
            <AltitudeMeters>1038</AltitudeMeters>
            <DistanceMeters>374644.19668964</DistanceMeters>
          </Trackpoint>
          <Trackpoint>
            <Time>2021-08-01T10:53:44.000Z</Time>
            <Position>
              <LatitudeDegrees>41.97180991061031818389892578125</LatitudeDegrees>
              <LongitudeDegrees>-2.16854008845984935760498046875</LongitudeDegrees>
            </Position>
            <AltitudeMeters>1036.5999755859375</AltitudeMeters>
            <DistanceMeters>374656.52015611</DistanceMeters>
          </Trackpoint>
          <Trackpoint>
            <Time>2021-08-01T10:53:46.000Z</Time>
            <Position>
              <LatitudeDegrees>41.97171435691416263580322265625</LatitudeDegrees>
              <LongitudeDegrees>-2.1685058064758777618408203125</LongitudeDegrees>
            </Position>
            <AltitudeMeters>1035.199951171875</AltitudeMeters>
            <DistanceMeters>374667.52767925</DistanceMeters>
          </Trackpoint>
          <Trackpoint>
            <Time>2021-08-01T10:53:47.000Z</Time>
            <Position>
              <LatitudeDegrees>41.97167135775089263916015625</LatitudeDegrees>
              <LongitudeDegrees>-2.168493904173374176025390625</LongitudeDegrees>
            </Position>
            <AltitudeMeters>1034.5999755859375</AltitudeMeters>
            <DistanceMeters>374672.41301363</DistanceMeters>
          </Trackpoint>
          <Trackpoint>
            <Time>2021-08-01T10:53:49.000Z</Time>
            <Position>
              <LatitudeDegrees>41.9716076552867889404296875</LatitudeDegrees>
              <LongitudeDegrees>-2.16848594136536121368408203125</LongitudeDegrees>
            </Position>
            <AltitudeMeters>1034</AltitudeMeters>
            <DistanceMeters>374679.53431332</DistanceMeters>
          </Trackpoint>
          <Trackpoint>
            <Time>2021-08-01T10:53:52.000Z</Time>
            <Position>
              <LatitudeDegrees>41.97152383625507354736328125</LatitudeDegrees>
              <LongitudeDegrees>-2.16850488446652889251708984375</LongitudeDegrees>
            </Position>
            <AltitudeMeters>1032.5999755859375</AltitudeMeters>
            <DistanceMeters>374688.99412609</DistanceMeters>
          </Trackpoint>
          <Trackpoint>
            <Time>2021-08-01T10:53:53.000Z</Time>
            <Position>
              <LatitudeDegrees>41.97148787789046764373779296875</LatitudeDegrees>
              <LongitudeDegrees>-2.168528772890567779541015625</LongitudeDegrees>
            </Position>
            <AltitudeMeters>1032.4000244140625</AltitudeMeters>
            <DistanceMeters>374693.45734787</DistanceMeters>
          </Trackpoint>
          <Trackpoint>
            <Time>2021-08-01T10:53:56.000Z</Time>
            <Position>
              <LatitudeDegrees>41.97136281989514827728271484375</LatitudeDegrees>
              <LongitudeDegrees>-2.16862994246184825897216796875</LongitudeDegrees>
            </Position>
            <AltitudeMeters>1031.4000244140625</AltitudeMeters>
            <DistanceMeters>374709.70052408</DistanceMeters>
          </Trackpoint>
          <Trackpoint>
            <Time>2021-08-01T10:54:03.000Z</Time>
            <Position>
              <LatitudeDegrees>41.9709996320307254791259765625</LatitudeDegrees>
              <LongitudeDegrees>-2.16866296716034412384033203125</LongitudeDegrees>
            </Position>
            <AltitudeMeters>1030.199951171875</AltitudeMeters>
            <DistanceMeters>374750.21635366</DistanceMeters>
          </Trackpoint>
          <Trackpoint>
            <Time>2021-08-01T10:54:05.000Z</Time>
            <Position>
              <LatitudeDegrees>41.97089108638465404510498046875</LatitudeDegrees>
              <LongitudeDegrees>-2.1686097420752048492431640625</LongitudeDegrees>
            </Position>
            <AltitudeMeters>1029.4000244140625</AltitudeMeters>
            <DistanceMeters>374763.07554336</DistanceMeters>
          </Trackpoint>
          <Trackpoint>
            <Time>2021-08-01T10:54:07.000Z</Time>
            <Position>
              <LatitudeDegrees>41.9707820378243923187255859375</LatitudeDegrees>
              <LongitudeDegrees>-2.16855919919908046722412109375</LongitudeDegrees>
            </Position>
            <AltitudeMeters>1028.800048828125</AltitudeMeters>
            <DistanceMeters>374775.91294556</DistanceMeters>
          </Trackpoint>
          <Trackpoint>
            <Time>2021-08-01T10:54:09.000Z</Time>
            <Position>
              <LatitudeDegrees>41.9706744141876697540283203125</LatitudeDegrees>
              <LongitudeDegrees>-2.1685158647596836090087890625</LongitudeDegrees>
            </Position>
            <AltitudeMeters>1027.800048828125</AltitudeMeters>
            <DistanceMeters>374788.4168147</DistanceMeters>
          </Trackpoint>
          <Trackpoint>
            <Time>2021-08-01T10:54:10.000Z</Time>
            <Position>
              <LatitudeDegrees>41.9706157408654689788818359375</LatitudeDegrees>
              <LongitudeDegrees>-2.168498598039150238037109375</LongitudeDegrees>
            </Position>
            <AltitudeMeters>1027</AltitudeMeters>
            <DistanceMeters>374795.10118589</DistanceMeters>
          </Trackpoint>
          <Trackpoint>
            <Time>2021-08-01T10:54:12.000Z</Time>
            <Position>
              <LatitudeDegrees>41.970488168299198150634765625</LatitudeDegrees>
              <LongitudeDegrees>-2.1684561856091022491455078125</LongitudeDegrees>
            </Position>
            <AltitudeMeters>1025.5999755859375</AltitudeMeters>
            <DistanceMeters>374809.72758467</DistanceMeters>
          </Trackpoint>
          <Trackpoint>
            <Time>2021-08-01T10:54:14.000Z</Time>
            <Position>
              <LatitudeDegrees>41.97033905424177646636962890625</LatitudeDegrees>
              <LongitudeDegrees>-2.16840111650526523590087890625</LongitudeDegrees>
            </Position>
            <AltitudeMeters>1023.79998779296875</AltitudeMeters>
            <DistanceMeters>374826.93870397</DistanceMeters>
          </Trackpoint>
          <Trackpoint>
            <Time>2021-08-01T10:54:15.000Z</Time>
            <Position>
              <LatitudeDegrees>41.9702600128948688507080078125</LatitudeDegrees>
              <LongitudeDegrees>-2.1683666668832302093505859375</LongitudeDegrees>
            </Position>
            <AltitudeMeters>1022.20001220703125</AltitudeMeters>
            <DistanceMeters>374836.18612652</DistanceMeters>
          </Trackpoint>
          <Trackpoint>
            <Time>2021-08-01T10:54:16.000Z</Time>
            <Position>
              <LatitudeDegrees>41.97017946280539035797119140625</LatitudeDegrees>
              <LongitudeDegrees>-2.1683250926434993743896484375</LongitudeDegrees>
            </Position>
            <AltitudeMeters>1021</AltitudeMeters>
            <DistanceMeters>374845.788998</DistanceMeters>
          </Trackpoint>
          <Trackpoint>
            <Time>2021-08-01T10:54:18.000Z</Time>
            <Position>
              <LatitudeDegrees>41.9700166024267673492431640625</LatitudeDegrees>
              <LongitudeDegrees>-2.16822442598640918731689453125</LongitudeDegrees>
            </Position>
            <AltitudeMeters>1019.20001220703125</AltitudeMeters>
            <DistanceMeters>374865.7382719</DistanceMeters>
          </Trackpoint>
          <Trackpoint>
            <Time>2021-08-01T10:54:20.000Z</Time>
            <Position>
              <LatitudeDegrees>41.96985407732427120208740234375</LatitudeDegrees>
              <LongitudeDegrees>-2.168104313313961029052734375</LongitudeDegrees>
            </Position>
            <AltitudeMeters>1018</AltitudeMeters>
            <DistanceMeters>374886.37854677</DistanceMeters>
          </Trackpoint>
          <Trackpoint>
            <Time>2021-08-01T10:54:22.000Z</Time>
            <Position>
              <LatitudeDegrees>41.9696917198598384857177734375</LatitudeDegrees>
              <LongitudeDegrees>-2.16797498054802417755126953125</LongitudeDegrees>
            </Position>
            <AltitudeMeters>1016.4000244140625</AltitudeMeters>
            <DistanceMeters>374907.38095554</DistanceMeters>
          </Trackpoint>
          <Trackpoint>
            <Time>2021-08-01T10:54:24.000Z</Time>
            <Position>
              <LatitudeDegrees>41.9695321284234523773193359375</LatitudeDegrees>
              <LongitudeDegrees>-2.16784103773534297943115234375</LongitudeDegrees>
            </Position>
            <AltitudeMeters>1015.4000244140625</AltitudeMeters>
            <DistanceMeters>374928.31834055</DistanceMeters>
          </Trackpoint>
          <Trackpoint>
            <Time>2021-08-01T10:54:26.000Z</Time>
            <Position>
              <LatitudeDegrees>41.96937496773898601531982421875</LatitudeDegrees>
              <LongitudeDegrees>-2.16771505773067474365234375</LongitudeDegrees>
            </Position>
            <AltitudeMeters>1014.20001220703125</AltitudeMeters>
            <DistanceMeters>374948.68156991</DistanceMeters>
          </Trackpoint>
          <Trackpoint>
            <Time>2021-08-01T10:54:28.000Z</Time>
            <Position>
              <LatitudeDegrees>41.9692236743867397308349609375</LatitudeDegrees>
              <LongitudeDegrees>-2.16761187650263309478759765625</LongitudeDegrees>
            </Position>
            <AltitudeMeters>1013.20001220703125</AltitudeMeters>
            <DistanceMeters>374967.56201741</DistanceMeters>
          </Trackpoint>
          <Trackpoint>
            <Time>2021-08-01T10:54:31.000Z</Time>
            <Position>
              <LatitudeDegrees>41.96898118592798709869384765625</LatitudeDegrees>
              <LongitudeDegrees>-2.1675013191998004913330078125</LongitudeDegrees>
            </Position>
            <AltitudeMeters>1012.20001220703125</AltitudeMeters>
            <DistanceMeters>374996.05989374</DistanceMeters>
          </Trackpoint>
          <Trackpoint>
            <Time>2021-08-01T10:54:36.000Z</Time>
            <Position>
              <LatitudeDegrees>41.968556977808475494384765625</LatitudeDegrees>
              <LongitudeDegrees>-2.167386822402477264404296875</LongitudeDegrees>
            </Position>
            <AltitudeMeters>1011</AltitudeMeters>
            <DistanceMeters>375044.21640993</DistanceMeters>
          </Trackpoint>
          <Trackpoint>
            <Time>2021-08-01T10:54:39.000Z</Time>
            <Position>
              <LatitudeDegrees>41.968288756906986236572265625</LatitudeDegrees>
              <LongitudeDegrees>-2.16731046326458454132080078125</LongitudeDegrees>
            </Position>
            <AltitudeMeters>1010</AltitudeMeters>
            <DistanceMeters>375074.7313804</DistanceMeters>
          </Trackpoint>
          <Trackpoint>
            <Time>2021-08-01T10:54:42.000Z</Time>
            <Position>
              <LatitudeDegrees>41.96800804696977138519287109375</LatitudeDegrees>
              <LongitudeDegrees>-2.16724156402051448822021484375</LongitudeDegrees>
            </Position>
            <AltitudeMeters>1008</AltitudeMeters>
            <DistanceMeters>375106.49078119</DistanceMeters>
          </Trackpoint>
          <Trackpoint>
            <Time>2021-08-01T10:54:44.000Z</Time>
            <Position>
              <LatitudeDegrees>41.96781442500650882720947265625</LatitudeDegrees>
              <LongitudeDegrees>-2.1671921946108341217041015625</LongitudeDegrees>
            </Position>
            <AltitudeMeters>1006.4000244140625</AltitudeMeters>
            <DistanceMeters>375128.42528536</DistanceMeters>
          </Trackpoint>
          <Trackpoint>
            <Time>2021-08-01T10:54:47.000Z</Time>
            <Position>
              <LatitudeDegrees>41.96751837618649005889892578125</LatitudeDegrees>
              <LongitudeDegrees>-2.16711482964456081390380859375</LongitudeDegrees>
            </Position>
            <AltitudeMeters>1004.5999755859375</AltitudeMeters>
            <DistanceMeters>375161.99245501</DistanceMeters>
          </Trackpoint>
          <Trackpoint>
            <Time>2021-08-01T10:54:49.000Z</Time>
            <Position>
              <LatitudeDegrees>41.96732081472873687744140625</LatitudeDegrees>
              <LongitudeDegrees>-2.1670647896826267242431640625</LongitudeDegrees>
            </Position>
            <AltitudeMeters>1003</AltitudeMeters>
            <DistanceMeters>375184.36796748</DistanceMeters>
          </Trackpoint>
          <Trackpoint>
            <Time>2021-08-01T10:54:50.000Z</Time>
            <Position>
              <LatitudeDegrees>41.96722215972840785980224609375</LatitudeDegrees>
              <LongitudeDegrees>-2.16703821904957294464111328125</LongitudeDegrees>
            </Position>
            <AltitudeMeters>1002</AltitudeMeters>
            <DistanceMeters>375195.5666148</DistanceMeters>
          </Trackpoint>
          <Trackpoint>
            <Time>2021-08-01T10:54:52.000Z</Time>
            <Position>
              <LatitudeDegrees>41.967027448117733001708984375</LatitudeDegrees>
              <LongitudeDegrees>-2.16699010692536830902099609375</LongitudeDegrees>
            </Position>
            <AltitudeMeters>1000.79998779296875</AltitudeMeters>
            <DistanceMeters>375217.6013408</DistanceMeters>
          </Trackpoint>
          <Trackpoint>
            <Time>2021-08-01T10:54:56.000Z</Time>
            <Position>
              <LatitudeDegrees>41.96667280979454517364501953125</LatitudeDegrees>
              <LongitudeDegrees>-2.166902683675289154052734375</LongitudeDegrees>
            </Position>
            <AltitudeMeters>999.5999755859375</AltitudeMeters>
            <DistanceMeters>375257.73097714</DistanceMeters>
          </Trackpoint>
          <Trackpoint>
            <Time>2021-08-01T10:54:59.000Z</Time>
            <Position>
              <LatitudeDegrees>41.96640215814113616943359375</LatitudeDegrees>
              <LongitudeDegrees>-2.1668346226215362548828125</LongitudeDegrees>
            </Position>
            <AltitudeMeters>998.4000244140625</AltitudeMeters>
            <DistanceMeters>375288.3770557</DistanceMeters>
          </Trackpoint>
          <Trackpoint>
            <Time>2021-08-01T10:55:02.000Z</Time>
            <Position>
              <LatitudeDegrees>41.966121532022953033447265625</LatitudeDegrees>
              <LongitudeDegrees>-2.1667633764445781707763671875</LongitudeDegrees>
            </Position>
            <AltitudeMeters>997.20001220703125</AltitudeMeters>
            <DistanceMeters>375320.16303001</DistanceMeters>
          </Trackpoint>
          <Trackpoint>
            <Time>2021-08-01T10:55:04.000Z</Time>
            <Position>
              <LatitudeDegrees>41.96592933498322963714599609375</LatitudeDegrees>
              <LongitudeDegrees>-2.16671191155910491943359375</LongitudeDegrees>
            </Position>
            <AltitudeMeters>995.4000244140625</AltitudeMeters>
            <DistanceMeters>375341.97492143</DistanceMeters>
          </Trackpoint>
          <Trackpoint>
            <Time>2021-08-01T10:55:06.000Z</Time>
            <Position>
              <LatitudeDegrees>41.96573353372514247894287109375</LatitudeDegrees>
              <LongitudeDegrees>-2.166658937931060791015625</LongitudeDegrees>
            </Position>
            <AltitudeMeters>994</AltitudeMeters>
            <DistanceMeters>375364.20467409</DistanceMeters>
          </Trackpoint>
          <Trackpoint>
            <Time>2021-08-01T10:55:08.000Z</Time>
            <Position>
              <LatitudeDegrees>41.96553823538124561309814453125</LatitudeDegrees>
              <LongitudeDegrees>-2.166600935161113739013671875</LongitudeDegrees>
            </Position>
            <AltitudeMeters>992.79998779296875</AltitudeMeters>
            <DistanceMeters>375386.46548057</DistanceMeters>
          </Trackpoint>
          <Trackpoint>
            <Time>2021-08-01T10:55:11.000Z</Time>
            <Position>
              <LatitudeDegrees>41.965241096913814544677734375</LatitudeDegrees>
              <LongitudeDegrees>-2.1665189601480960845947265625</LongitudeDegrees>
            </Position>
            <AltitudeMeters>991.20001220703125</AltitudeMeters>
            <DistanceMeters>375420.22632044</DistanceMeters>
          </Trackpoint>
          <Trackpoint>
            <Time>2021-08-01T10:55:13.000Z</Time>
            <Position>
              <LatitudeDegrees>41.9650414399802684783935546875</LatitudeDegrees>
              <LongitudeDegrees>-2.16646992601454257965087890625</LongitudeDegrees>
            </Position>
            <AltitudeMeters>990.20001220703125</AltitudeMeters>
            <DistanceMeters>375442.81591141</DistanceMeters>
          </Trackpoint>
          <Trackpoint>
            <Time>2021-08-01T10:55:16.000Z</Time>
            <Position>
              <LatitudeDegrees>41.9647645018994808197021484375</LatitudeDegrees>
              <LongitudeDegrees>-2.16641712002456188201904296875</LongitudeDegrees>
            </Position>
            <AltitudeMeters>989</AltitudeMeters>
            <DistanceMeters>375473.94814815</DistanceMeters>
          </Trackpoint>
          <Trackpoint>
            <Time>2021-08-01T10:55:24.000Z</Time>
            <Position>
              <LatitudeDegrees>41.96422009728848934173583984375</LatitudeDegrees>
              <LongitudeDegrees>-2.16650261543691158294677734375</LongitudeDegrees>
            </Position>
            <AltitudeMeters>988.79998779296875</AltitudeMeters>
            <DistanceMeters>375534.95322651</DistanceMeters>
          </Trackpoint>
          <Trackpoint>
            <Time>2021-08-01T10:55:27.000Z</Time>
            <Position>
              <LatitudeDegrees>41.96404516696929931640625</LatitudeDegrees>
              <LongitudeDegrees>-2.166568078100681304931640625</LongitudeDegrees>
            </Position>
            <AltitudeMeters>987.79998779296875</AltitudeMeters>
            <DistanceMeters>375555.16288652</DistanceMeters>
          </Trackpoint>
          <Trackpoint>
            <Time>2021-08-01T10:55:31.000Z</Time>
            <Position>
              <LatitudeDegrees>41.9638042710721492767333984375</LatitudeDegrees>
              <LongitudeDegrees>-2.16668299399316310882568359375</LongitudeDegrees>
            </Position>
            <AltitudeMeters>986.5999755859375</AltitudeMeters>
            <DistanceMeters>375583.61192326</DistanceMeters>
          </Trackpoint>
          <Trackpoint>
            <Time>2021-08-01T10:55:33.000Z</Time>
            <Position>
              <LatitudeDegrees>41.963676698505878448486328125</LatitudeDegrees>
              <LongitudeDegrees>-2.1667405776679515838623046875</LongitudeDegrees>
            </Position>
            <AltitudeMeters>985.79998779296875</AltitudeMeters>
            <DistanceMeters>375598.58941167</DistanceMeters>
          </Trackpoint>
          <Trackpoint>
            <Time>2021-08-01T10:55:34.000Z</Time>
            <Position>
              <LatitudeDegrees>41.9636114872992038726806640625</LatitudeDegrees>
              <LongitudeDegrees>-2.166769243776798248291015625</LongitudeDegrees>
            </Position>
            <AltitudeMeters>985.20001220703125</AltitudeMeters>
            <DistanceMeters>375606.22473573</DistanceMeters>
          </Trackpoint>
          <Trackpoint>
            <Time>2021-08-01T10:55:37.000Z</Time>
            <Position>
              <LatitudeDegrees>41.96340990252792835235595703125</LatitudeDegrees>
              <LongitudeDegrees>-2.16685230843722820281982421875</LongitudeDegrees>
            </Position>
            <AltitudeMeters>984.20001220703125</AltitudeMeters>
            <DistanceMeters>375629.69094743</DistanceMeters>
          </Trackpoint>
          <Trackpoint>
            <Time>2021-08-01T10:55:40.000Z</Time>
            <Position>
              <LatitudeDegrees>41.96320840157568454742431640625</LatitudeDegrees>
              <LongitudeDegrees>-2.166936881840229034423828125</LongitudeDegrees>
            </Position>
            <AltitudeMeters>983.20001220703125</AltitudeMeters>
            <DistanceMeters>375653.1852336</DistanceMeters>
          </Trackpoint>
          <Trackpoint>
            <Time>2021-08-01T10:55:43.000Z</Time>
            <Position>
              <LatitudeDegrees>41.963015533983707427978515625</LatitudeDegrees>
              <LongitudeDegrees>-2.16703251935541629791259765625</LongitudeDegrees>
            </Position>
            <AltitudeMeters>982</AltitudeMeters>
            <DistanceMeters>375676.06438287</DistanceMeters>
          </Trackpoint>
          <Trackpoint>
            <Time>2021-08-01T10:55:46.000Z</Time>
            <Position>
              <LatitudeDegrees>41.96283054538071155548095703125</LatitudeDegrees>
              <LongitudeDegrees>-2.16712765395641326904296875</LongitudeDegrees>
            </Position>
            <AltitudeMeters>980.79998779296875</AltitudeMeters>
            <DistanceMeters>375698.10791806</DistanceMeters>
          </Trackpoint>
          <Trackpoint>
            <Time>2021-08-01T10:55:54.000Z</Time>
            <Position>
              <LatitudeDegrees>41.9623716361820697784423828125</LatitudeDegrees>
              <LongitudeDegrees>-2.16740618459880352020263671875</LongitudeDegrees>
            </Position>
            <AltitudeMeters>979.79998779296875</AltitudeMeters>
            <DistanceMeters>375754.14629227</DistanceMeters>
          </Trackpoint>
          <Trackpoint>
            <Time>2021-08-01T10:55:58.000Z</Time>
            <Position>
              <LatitudeDegrees>41.9621429778635501861572265625</LatitudeDegrees>
              <LongitudeDegrees>-2.16751297004520893096923828125</LongitudeDegrees>
            </Position>
            <AltitudeMeters>978.5999755859375</AltitudeMeters>
            <DistanceMeters>375781.08716186</DistanceMeters>
          </Trackpoint>
          <Trackpoint>
            <Time>2021-08-01T10:56:05.000Z</Time>
            <Position>
              <LatitudeDegrees>41.96175933815538883209228515625</LatitudeDegrees>
              <LongitudeDegrees>-2.167702652513980865478515625</LongitudeDegrees>
            </Position>
            <AltitudeMeters>977.20001220703125</AltitudeMeters>
            <DistanceMeters>375826.58134403</DistanceMeters>
          </Trackpoint>
          <Trackpoint>
            <Time>2021-08-01T10:56:09.000Z</Time>
            <Position>
              <LatitudeDegrees>41.9615267403423786163330078125</LatitudeDegrees>
              <LongitudeDegrees>-2.16783483512699604034423828125</LongitudeDegrees>
            </Position>
            <AltitudeMeters>976.20001220703125</AltitudeMeters>
            <DistanceMeters>375854.68660932</DistanceMeters>
          </Trackpoint>
          <Trackpoint>
            <Time>2021-08-01T10:56:11.000Z</Time>
            <Position>
              <LatitudeDegrees>41.96140495128929615020751953125</LatitudeDegrees>
              <LongitudeDegrees>-2.1679106913506984710693359375</LongitudeDegrees>
            </Position>
            <AltitudeMeters>975.20001220703125</AltitudeMeters>
            <DistanceMeters>375869.62515942</DistanceMeters>
          </Trackpoint>
          <Trackpoint>
            <Time>2021-08-01T10:56:14.000Z</Time>
            <Position>
              <LatitudeDegrees>41.96121501736342906951904296875</LatitudeDegrees>
              <LongitudeDegrees>-2.1680152975022792816162109375</LongitudeDegrees>
            </Position>
            <AltitudeMeters>974</AltitudeMeters>
            <DistanceMeters>375892.46915464</DistanceMeters>
          </Trackpoint>
          <Trackpoint>
            <Time>2021-08-01T10:56:16.000Z</Time>
            <Position>
              <LatitudeDegrees>41.96109406650066375732421875</LatitudeDegrees>
              <LongitudeDegrees>-2.16810020618140697479248046875</LongitudeDegrees>
            </Position>
            <AltitudeMeters>972.79998779296875</AltitudeMeters>
            <DistanceMeters>375907.65500635</DistanceMeters>
          </Trackpoint>
          <Trackpoint>
            <Time>2021-08-01T10:56:18.000Z</Time>
            <Position>
              <LatitudeDegrees>41.9609795697033405303955078125</LatitudeDegrees>
              <LongitudeDegrees>-2.16821185313165187835693359375</LongitudeDegrees>
            </Position>
            <AltitudeMeters>971.5999755859375</AltitudeMeters>
            <DistanceMeters>375923.39620382</DistanceMeters>
          </Trackpoint>
          <Trackpoint>
            <Time>2021-08-01T10:56:20.000Z</Time>
            <Position>
              <LatitudeDegrees>41.960871107876300811767578125</LatitudeDegrees>
              <LongitudeDegrees>-2.16833925805985927581787109375</LongitudeDegrees>
            </Position>
            <AltitudeMeters>970.4000244140625</AltitudeMeters>
            <DistanceMeters>375939.42476286</DistanceMeters>
          </Trackpoint>
          <Trackpoint>
            <Time>2021-08-01T10:56:24.000Z</Time>
            <Position>
              <LatitudeDegrees>41.96063700132071971893310546875</LatitudeDegrees>
              <LongitudeDegrees>-2.1686006896197795867919921875</LongitudeDegrees>
            </Position>
            <AltitudeMeters>969.20001220703125</AltitudeMeters>
            <DistanceMeters>375973.29375562</DistanceMeters>
          </Trackpoint>
          <Trackpoint>
            <Time>2021-08-01T10:56:27.000Z</Time>
            <Position>
              <LatitudeDegrees>41.96044052951037883758544921875</LatitudeDegrees>
              <LongitudeDegrees>-2.1687924675643444061279296875</LongitudeDegrees>
            </Position>
            <AltitudeMeters>968</AltitudeMeters>
            <DistanceMeters>376000.3147819</DistanceMeters>
          </Trackpoint>
          <Trackpoint>
            <Time>2021-08-01T10:56:29.000Z</Time>
            <Position>
              <LatitudeDegrees>41.96031413041055202484130859375</LatitudeDegrees>
              <LongitudeDegrees>-2.168939821422100067138671875</LongitudeDegrees>
            </Position>
            <AltitudeMeters>966.5999755859375</AltitudeMeters>
            <DistanceMeters>376018.93347156</DistanceMeters>
          </Trackpoint>
          <Trackpoint>
            <Time>2021-08-01T10:56:30.000Z</Time>
            <Position>
              <LatitudeDegrees>41.9602486677467823028564453125</LatitudeDegrees>
              <LongitudeDegrees>-2.16900779865682125091552734375</LongitudeDegrees>
            </Position>
            <AltitudeMeters>966</AltitudeMeters>
            <DistanceMeters>376028.1383185</DistanceMeters>
          </Trackpoint>
          <Trackpoint>
            <Time>2021-08-01T10:56:31.000Z</Time>
            <Position>
              <LatitudeDegrees>41.96017934940755367279052734375</LatitudeDegrees>
              <LongitudeDegrees>-2.16906714253127574920654296875</LongitudeDegrees>
            </Position>
            <AltitudeMeters>965.4000244140625</AltitudeMeters>
            <DistanceMeters>376037.28362156</DistanceMeters>
          </Trackpoint>
          <Trackpoint>
            <Time>2021-08-01T10:56:37.000Z</Time>
            <Position>
              <LatitudeDegrees>41.9597420655190944671630859375</LatitudeDegrees>
              <LongitudeDegrees>-2.169373668730258941650390625</LongitudeDegrees>
            </Position>
            <AltitudeMeters>964.4000244140625</AltitudeMeters>
            <DistanceMeters>376092.1694263</DistanceMeters>
          </Trackpoint>
          <Trackpoint>
            <Time>2021-08-01T10:56:45.000Z</Time>
            <Position>
              <LatitudeDegrees>41.95931978523731231689453125</LatitudeDegrees>
              <LongitudeDegrees>-2.16949193738400936126708984375</LongitudeDegrees>
            </Position>
            <AltitudeMeters>965.5999755859375</AltitudeMeters>
            <DistanceMeters>376140.17861148</DistanceMeters>
          </Trackpoint>
          <Trackpoint>
            <Time>2021-08-01T10:56:48.000Z</Time>
            <Position>
              <LatitudeDegrees>41.959291286766529083251953125</LatitudeDegrees>
              <LongitudeDegrees>-2.16948456130921840667724609375</LongitudeDegrees>
            </Position>
            <AltitudeMeters>966</AltitudeMeters>
            <DistanceMeters>376143.40951977</DistanceMeters>
          </Trackpoint>
          <Trackpoint>
            <Time>2021-08-01T10:57:16.000Z</Time>
            <Position>
              <LatitudeDegrees>41.95929187349975109100341796875</LatitudeDegrees>
              <LongitudeDegrees>-2.16944298706948757171630859375</LongitudeDegrees>
            </Position>
            <AltitudeMeters>966.20001220703125</AltitudeMeters>
            <DistanceMeters>376146.85022177</DistanceMeters>
          </Trackpoint>
          <Trackpoint>
            <Time>2021-08-01T10:57:20.000Z</Time>
            <Position>
              <LatitudeDegrees>41.95926672779023647308349609375</LatitudeDegrees>
              <LongitudeDegrees>-2.1693077869713306427001953125</LongitudeDegrees>
            </Position>
            <AltitudeMeters>965.79998779296875</AltitudeMeters>
            <DistanceMeters>376158.38491493</DistanceMeters>
          </Trackpoint>
          <Trackpoint>
            <Time>2021-08-01T10:57:26.000Z</Time>
            <Position>
              <LatitudeDegrees>41.9591070525348186492919921875</LatitudeDegrees>
              <LongitudeDegrees>-2.1690922044217586517333984375</LongitudeDegrees>
            </Position>
            <AltitudeMeters>964.79998779296875</AltitudeMeters>
            <DistanceMeters>376183.56896641</DistanceMeters>
          </Trackpoint>
          <Trackpoint>
            <Time>2021-08-01T10:57:36.000Z</Time>
            <Position>
              <LatitudeDegrees>41.95878191851079463958740234375</LatitudeDegrees>
              <LongitudeDegrees>-2.1686503104865550994873046875</LongitudeDegrees>
            </Position>
            <AltitudeMeters>963.5999755859375</AltitudeMeters>
            <DistanceMeters>376235.02046989</DistanceMeters>
          </Trackpoint>
          <Trackpoint>
            <Time>2021-08-01T10:57:42.000Z</Time>
            <Position>
              <LatitudeDegrees>41.95855594240128993988037109375</LatitudeDegrees>
              <LongitudeDegrees>-2.168359458446502685546875</LongitudeDegrees>
            </Position>
            <AltitudeMeters>962.5999755859375</AltitudeMeters>
            <DistanceMeters>376269.83579929</DistanceMeters>
          </Trackpoint>
          <Trackpoint>
            <Time>2021-08-01T10:57:48.000Z</Time>
            <Position>
              <LatitudeDegrees>41.958308927714824676513671875</LatitudeDegrees>
              <LongitudeDegrees>-2.1680163033306598663330078125</LongitudeDegrees>
            </Position>
            <AltitudeMeters>961.4000244140625</AltitudeMeters>
            <DistanceMeters>376309.36508499</DistanceMeters>
          </Trackpoint>
          <Trackpoint>
            <Time>2021-08-01T10:57:51.000Z</Time>
            <Position>
              <LatitudeDegrees>41.9581793434917926788330078125</LatitudeDegrees>
              <LongitudeDegrees>-2.1678339131176471710205078125</LongitudeDegrees>
            </Position>
            <AltitudeMeters>960.4000244140625</AltitudeMeters>
            <DistanceMeters>376330.24373222</DistanceMeters>
          </Trackpoint>
          <Trackpoint>
            <Time>2021-08-01T10:58:00.000Z</Time>
            <Position>
              <LatitudeDegrees>41.9577934406697750091552734375</LatitudeDegrees>
              <LongitudeDegrees>-2.16727358289062976837158203125</LongitudeDegrees>
            </Position>
            <AltitudeMeters>959.5999755859375</AltitudeMeters>
            <DistanceMeters>376393.45542833</DistanceMeters>
          </Trackpoint>
          <Trackpoint>
            <Time>2021-08-01T10:58:09.000Z</Time>
            <Position>
              <LatitudeDegrees>41.9574739225208759307861328125</LatitudeDegrees>
              <LongitudeDegrees>-2.16663354076445102691650390625</LongitudeDegrees>
            </Position>
            <AltitudeMeters>959.4000244140625</AltitudeMeters>
            <DistanceMeters>376457.26068387</DistanceMeters>
          </Trackpoint>
          <Trackpoint>
            <Time>2021-08-01T10:58:13.000Z</Time>
            <Position>
              <LatitudeDegrees>41.957343332469463348388671875</LatitudeDegrees>
              <LongitudeDegrees>-2.1663196384906768798828125</LongitudeDegrees>
            </Position>
            <AltitudeMeters>958.20001220703125</AltitudeMeters>
            <DistanceMeters>376487.03120524</DistanceMeters>
          </Trackpoint>
          <Trackpoint>
            <Time>2021-08-01T10:58:16.000Z</Time>
            <Position>
              <LatitudeDegrees>41.9572459347546100616455078125</LatitudeDegrees>
              <LongitudeDegrees>-2.16608670540153980255126953125</LongitudeDegrees>
            </Position>
            <AltitudeMeters>957</AltitudeMeters>
            <DistanceMeters>376509.14937473</DistanceMeters>
          </Trackpoint>
          <Trackpoint>
            <Time>2021-08-01T10:58:20.000Z</Time>
            <Position>
              <LatitudeDegrees>41.95715230889618396759033203125</LatitudeDegrees>
              <LongitudeDegrees>-2.16577003709971904754638671875</LongitudeDegrees>
            </Position>
            <AltitudeMeters>956.79998779296875</AltitudeMeters>
            <DistanceMeters>376537.3551861</DistanceMeters>
          </Trackpoint>
          <Trackpoint>
            <Time>2021-08-01T10:58:24.000Z</Time>
            <Position>
              <LatitudeDegrees>41.95714627392590045928955078125</LatitudeDegrees>
              <LongitudeDegrees>-2.1654645167291164398193359375</LongitudeDegrees>
            </Position>
            <AltitudeMeters>957</AltitudeMeters>
            <DistanceMeters>376562.6515759</DistanceMeters>
          </Trackpoint>
          <Trackpoint>
            <Time>2021-08-01T10:58:32.000Z</Time>
            <Position>
              <LatitudeDegrees>41.95724249817430973052978515625</LatitudeDegrees>
              <LongitudeDegrees>-2.1648873388767242431640625</LongitudeDegrees>
            </Position>
            <AltitudeMeters>955.79998779296875</AltitudeMeters>
            <DistanceMeters>376611.60979657</DistanceMeters>
          </Trackpoint>
          <Trackpoint>
            <Time>2021-08-01T10:58:38.000Z</Time>
            <Position>
              <LatitudeDegrees>41.957337297499179840087890625</LatitudeDegrees>
              <LongitudeDegrees>-2.1644690819084644317626953125</LongitudeDegrees>
            </Position>
            <AltitudeMeters>957.20001220703125</AltitudeMeters>
            <DistanceMeters>376647.80088011</DistanceMeters>
          </Trackpoint>
          <Trackpoint>
            <Time>2021-08-01T10:58:41.000Z</Time>
            <Position>
              <LatitudeDegrees>41.9573946297168731689453125</LatitudeDegrees>
              <LongitudeDegrees>-2.16426095925271511077880859375</LongitudeDegrees>
            </Position>
            <AltitudeMeters>958.5999755859375</AltitudeMeters>
            <DistanceMeters>376666.17104578</DistanceMeters>
          </Trackpoint>
          <Trackpoint>
            <Time>2021-08-01T10:58:45.000Z</Time>
            <Position>
              <LatitudeDegrees>41.95748372934758663177490234375</LatitudeDegrees>
              <LongitudeDegrees>-2.16400028206408023834228515625</LongitudeDegrees>
            </Position>
            <AltitudeMeters>960</AltitudeMeters>
            <DistanceMeters>376689.91688886</DistanceMeters>
          </Trackpoint>
          <Trackpoint>
            <Time>2021-08-01T10:58:52.000Z</Time>
            <Position>
              <LatitudeDegrees>41.95760493166744709014892578125</LatitudeDegrees>
              <LongitudeDegrees>-2.16356911696493625640869140625</LongitudeDegrees>
            </Position>
            <AltitudeMeters>960.20001220703125</AltitudeMeters>
            <DistanceMeters>376728.0684283</DistanceMeters>
          </Trackpoint>
          <Trackpoint>
            <Time>2021-08-01T10:58:56.000Z</Time>
            <Position>
              <LatitudeDegrees>41.9576110504567623138427734375</LatitudeDegrees>
              <LongitudeDegrees>-2.16326284222304821014404296875</LongitudeDegrees>
            </Position>
            <AltitudeMeters>958.5999755859375</AltitudeMeters>
            <DistanceMeters>376753.42721108</DistanceMeters>
          </Trackpoint>
          <Trackpoint>
            <Time>2021-08-01T10:58:58.000Z</Time>
            <Position>
              <LatitudeDegrees>41.9576036743819713592529296875</LatitudeDegrees>
              <LongitudeDegrees>-2.1630934439599514007568359375</LongitudeDegrees>
            </Position>
            <AltitudeMeters>957.20001220703125</AltitudeMeters>
            <DistanceMeters>376767.47188942</DistanceMeters>
          </Trackpoint>
          <Trackpoint>
            <Time>2021-08-01T10:59:03.000Z</Time>
            <Position>
              <LatitudeDegrees>41.95758749730885028839111328125</LatitudeDegrees>
              <LongitudeDegrees>-2.1626579202711582183837890625</LongitudeDegrees>
            </Position>
            <AltitudeMeters>956.20001220703125</AltitudeMeters>
            <DistanceMeters>376803.56453172</DistanceMeters>
          </Trackpoint>
          <Trackpoint>
            <Time>2021-08-01T10:59:09.000Z</Time>
            <Position>
              <LatitudeDegrees>41.95756637491285800933837890625</LatitudeDegrees>
              <LongitudeDegrees>-2.162097506225109100341796875</LongitudeDegrees>
            </Position>
            <AltitudeMeters>954.79998779296875</AltitudeMeters>
            <DistanceMeters>376850.00878368</DistanceMeters>
          </Trackpoint>
          <Trackpoint>
            <Time>2021-08-01T10:59:17.000Z</Time>
            <Position>
              <LatitudeDegrees>41.95753485895693302154541015625</LatitudeDegrees>
              <LongitudeDegrees>-2.16132762841880321502685546875</LongitudeDegrees>
            </Position>
            <AltitudeMeters>953.79998779296875</AltitudeMeters>
            <DistanceMeters>376913.8269875</DistanceMeters>
          </Trackpoint>
          <Trackpoint>
            <Time>2021-08-01T10:59:23.000Z</Time>
            <Position>
              <LatitudeDegrees>41.95750124752521514892578125</LatitudeDegrees>
              <LongitudeDegrees>-2.16073804534971714019775390625</LongitudeDegrees>
            </Position>
            <AltitudeMeters>952.4000244140625</AltitudeMeters>
            <DistanceMeters>376962.76925111</DistanceMeters>
          </Trackpoint>
          <Trackpoint>
            <Time>2021-08-01T10:59:26.000Z</Time>
            <Position>
              <LatitudeDegrees>41.95748247206211090087890625</LatitudeDegrees>
              <LongitudeDegrees>-2.1604442596435546875</LongitudeDegrees>
            </Position>
            <AltitudeMeters>951.4000244140625</AltitudeMeters>
            <DistanceMeters>376987.17502712</DistanceMeters>
          </Trackpoint>
          <Trackpoint>
            <Time>2021-08-01T10:59:30.000Z</Time>
            <Position>
              <LatitudeDegrees>41.957447938621044158935546875</LatitudeDegrees>
              <LongitudeDegrees>-2.16006363742053508758544921875</LongitudeDegrees>
            </Position>
            <AltitudeMeters>950.4000244140625</AltitudeMeters>
            <DistanceMeters>377018.9122426</DistanceMeters>
          </Trackpoint>
          <Trackpoint>
            <Time>2021-08-01T10:59:35.000Z</Time>
            <Position>
              <LatitudeDegrees>41.9573629461228847503662109375</LatitudeDegrees>
              <LongitudeDegrees>-2.15959643013775348663330078125</LongitudeDegrees>
            </Position>
            <AltitudeMeters>949</AltitudeMeters>
            <DistanceMeters>377058.72265226</DistanceMeters>
          </Trackpoint>
          <Trackpoint>
            <Time>2021-08-01T10:59:39.000Z</Time>
            <Position>
              <LatitudeDegrees>41.9572573341429233551025390625</LatitudeDegrees>
              <LongitudeDegrees>-2.1592104434967041015625</LongitudeDegrees>
            </Position>
            <AltitudeMeters>948</AltitudeMeters>
            <DistanceMeters>377092.7642402</DistanceMeters>
          </Trackpoint>
          <Trackpoint>
            <Time>2021-08-01T10:59:43.000Z</Time>
            <Position>
              <LatitudeDegrees>41.95715717040002346038818359375</LatitudeDegrees>
              <LongitudeDegrees>-2.15881406329572200775146484375</LongitudeDegrees>
            </Position>
            <AltitudeMeters>946.5999755859375</AltitudeMeters>
            <DistanceMeters>377127.41486869</DistanceMeters>
          </Trackpoint>
          <Trackpoint>
            <Time>2021-08-01T10:59:46.000Z</Time>
            <Position>
              <LatitudeDegrees>41.95707418955862522125244140625</LatitudeDegrees>
              <LongitudeDegrees>-2.15851751156151294708251953125</LongitudeDegrees>
            </Position>
            <AltitudeMeters>945.4000244140625</AltitudeMeters>
            <DistanceMeters>377153.6405203</DistanceMeters>
          </Trackpoint>
          <Trackpoint>
            <Time>2021-08-01T10:59:50.000Z</Time>
            <Position>
              <LatitudeDegrees>41.9569627940654754638671875</LatitudeDegrees>
              <LongitudeDegrees>-2.1581280045211315155029296875</LongitudeDegrees>
            </Position>
            <AltitudeMeters>944.4000244140625</AltitudeMeters>
            <DistanceMeters>377188.18165259</DistanceMeters>
          </Trackpoint>
          <Trackpoint>
            <Time>2021-08-01T10:59:58.000Z</Time>
            <Position>
              <LatitudeDegrees>41.9567426852881908416748046875</LatitudeDegrees>
              <LongitudeDegrees>-2.1573843620717525482177734375</LongitudeDegrees>
            </Position>
            <AltitudeMeters>944</AltitudeMeters>
            <DistanceMeters>377254.42890478</DistanceMeters>
          </Trackpoint>
          <Trackpoint>
            <Time>2021-08-01T11:00:00.000Z</Time>
            <Position>
              <LatitudeDegrees>41.95669096894562244415283203125</LatitudeDegrees>
              <LongitudeDegrees>-2.1572059951722621917724609375</LongitudeDegrees>
            </Position>
            <AltitudeMeters>943.4000244140625</AltitudeMeters>
            <DistanceMeters>377270.27473406</DistanceMeters>
          </Trackpoint>
          <Trackpoint>
            <Time>2021-08-01T11:00:09.000Z</Time>
            <Position>
              <LatitudeDegrees>41.95645845495164394378662109375</LatitudeDegrees>
              <LongitudeDegrees>-2.15647215954959392547607421875</LongitudeDegrees>
            </Position>
            <AltitudeMeters>942.79998779296875</AltitudeMeters>
            <DistanceMeters>377336.29771961</DistanceMeters>
          </Trackpoint>
          <Trackpoint>
            <Time>2021-08-01T11:00:14.000Z</Time>
            <Position>
              <LatitudeDegrees>41.95627656765282154083251953125</LatitudeDegrees>
              <LongitudeDegrees>-2.15614928863942623138427734375</LongitudeDegrees>
            </Position>
            <AltitudeMeters>942.5999755859375</AltitudeMeters>
            <DistanceMeters>377369.82424337</DistanceMeters>
          </Trackpoint>
          <Trackpoint>
            <Time>2021-08-01T11:00:15.000Z</Time>
            <Position>
              <LatitudeDegrees>41.9562317244708538055419921875</LatitudeDegrees>
              <LongitudeDegrees>-2.15609480626881122589111328125</LongitudeDegrees>
            </Position>
            <AltitudeMeters>942.20001220703125</AltitudeMeters>
            <DistanceMeters>377376.55036283</DistanceMeters>
          </Trackpoint>
          <Trackpoint>
            <Time>2021-08-01T11:00:24.000Z</Time>
            <Position>
              <LatitudeDegrees>41.9557626731693744659423828125</LatitudeDegrees>
              <LongitudeDegrees>-2.155644111335277557373046875</LongitudeDegrees>
            </Position>
            <AltitudeMeters>942</AltitudeMeters>
            <DistanceMeters>377440.71507154</DistanceMeters>
          </Trackpoint>
          <Trackpoint>
            <Time>2021-08-01T11:00:26.000Z</Time>
            <Position>
              <LatitudeDegrees>41.9556510262191295623779296875</LatitudeDegrees>
              <LongitudeDegrees>-2.155547551810741424560546875</LongitudeDegrees>
            </Position>
            <AltitudeMeters>941.4000244140625</AltitudeMeters>
            <DistanceMeters>377455.4898158</DistanceMeters>
          </Trackpoint>
          <Trackpoint>
            <Time>2021-08-01T11:00:32.000Z</Time>
            <Position>
              <LatitudeDegrees>41.955314911901950836181640625</LatitudeDegrees>
              <LongitudeDegrees>-2.15525485575199127197265625</LongitudeDegrees>
            </Position>
            <AltitudeMeters>940.4000244140625</AltitudeMeters>
            <DistanceMeters>377500.05947225</DistanceMeters>
          </Trackpoint>
          <Trackpoint>
            <Time>2021-08-01T11:00:36.000Z</Time>
            <Position>
              <LatitudeDegrees>41.9550907798111438751220703125</LatitudeDegrees>
              <LongitudeDegrees>-2.15503181330859661102294921875</LongitudeDegrees>
            </Position>
            <AltitudeMeters>939.4000244140625</AltitudeMeters>
            <DistanceMeters>377531.09409733</DistanceMeters>
          </Trackpoint>
          <Trackpoint>
            <Time>2021-08-01T11:00:41.000Z</Time>
            <Position>
              <LatitudeDegrees>41.954815685749053955078125</LatitudeDegrees>
              <LongitudeDegrees>-2.1546967886388301849365234375</LongitudeDegrees>
            </Position>
            <AltitudeMeters>938</AltitudeMeters>
            <DistanceMeters>377572.40373042</DistanceMeters>
          </Trackpoint>
          <Trackpoint>
            <Time>2021-08-01T11:00:43.000Z</Time>
            <Position>
              <LatitudeDegrees>41.9547032006084918975830078125</LatitudeDegrees>
              <LongitudeDegrees>-2.15454717166721820831298828125</LongitudeDegrees>
            </Position>
            <AltitudeMeters>936.79998779296875</AltitudeMeters>
            <DistanceMeters>377590.01343954</DistanceMeters>
          </Trackpoint>
          <Trackpoint>
            <Time>2021-08-01T11:00:45.000Z</Time>
            <Position>
              <LatitudeDegrees>41.954594068229198455810546875</LatitudeDegrees>
              <LongitudeDegrees>-2.1543869934976100921630859375</LongitudeDegrees>
            </Position>
            <AltitudeMeters>935.5999755859375</AltitudeMeters>
            <DistanceMeters>377607.9943421</DistanceMeters>
          </Trackpoint>
          <Trackpoint>
            <Time>2021-08-01T11:00:47.000Z</Time>
            <Position>
              <LatitudeDegrees>41.95448300801217555999755859375</LatitudeDegrees>
              <LongitudeDegrees>-2.1542230434715747833251953125</LongitudeDegrees>
            </Position>
            <AltitudeMeters>934.20001220703125</AltitudeMeters>
            <DistanceMeters>377626.35049291</DistanceMeters>
          </Trackpoint>
          <Trackpoint>
            <Time>2021-08-01T11:00:50.000Z</Time>
            <Position>
              <LatitudeDegrees>41.95432014763355255126953125</LatitudeDegrees>
              <LongitudeDegrees>-2.153977118432521820068359375</LongitudeDegrees>
            </Position>
            <AltitudeMeters>932.79998779296875</AltitudeMeters>
            <DistanceMeters>377653.60742797</DistanceMeters>
          </Trackpoint>
          <Trackpoint>
            <Time>2021-08-01T11:00:56.000Z</Time>
            <Position>
              <LatitudeDegrees>41.95401663891971111297607421875</LatitudeDegrees>
              <LongitudeDegrees>-2.1535018645226955413818359375</LongitudeDegrees>
            </Position>
            <AltitudeMeters>931.5999755859375</AltitudeMeters>
            <DistanceMeters>377705.45963218</DistanceMeters>
          </Trackpoint>
          <Trackpoint>
            <Time>2021-08-01T11:00:59.000Z</Time>
            <Position>
              <LatitudeDegrees>41.95387297309935092926025390625</LatitudeDegrees>
              <LongitudeDegrees>-2.153276391327381134033203125</LongitudeDegrees>
            </Position>
            <AltitudeMeters>930.79998779296875</AltitudeMeters>
            <DistanceMeters>377730.03611999</DistanceMeters>
          </Trackpoint>
          <Trackpoint>
            <Time>2021-08-01T11:01:07.000Z</Time>
            <Position>
              <LatitudeDegrees>41.95351774804294109344482421875</LatitudeDegrees>
              <LongitudeDegrees>-2.1527203358709812164306640625</LongitudeDegrees>
            </Position>
            <AltitudeMeters>930.4000244140625</AltitudeMeters>
            <DistanceMeters>377790.71274207</DistanceMeters>
          </Trackpoint>
          <Trackpoint>
            <Time>2021-08-01T11:01:15.000Z</Time>
            <Position>
              <LatitudeDegrees>41.95320124737918376922607421875</LatitudeDegrees>
              <LongitudeDegrees>-2.1521661244332790374755859375</LongitudeDegrees>
            </Position>
            <AltitudeMeters>930.5999755859375</AltitudeMeters>
            <DistanceMeters>377848.55232688</DistanceMeters>
          </Trackpoint>
          <Trackpoint>
            <Time>2021-08-01T11:01:23.000Z</Time>
            <Position>
              <LatitudeDegrees>41.95325958542525768280029296875</LatitudeDegrees>
              <LongitudeDegrees>-2.15151107870042324066162109375</LongitudeDegrees>
            </Position>
            <AltitudeMeters>930.20001220703125</AltitudeMeters>
            <DistanceMeters>377903.16069972</DistanceMeters>
          </Trackpoint>
          <Trackpoint>
            <Time>2021-08-01T11:01:28.000Z</Time>
            <Position>
              <LatitudeDegrees>41.9534271396696567535400390625</LatitudeDegrees>
              <LongitudeDegrees>-2.1511234156787395477294921875</LongitudeDegrees>
            </Position>
            <AltitudeMeters>930</AltitudeMeters>
            <DistanceMeters>377940.27492773</DistanceMeters>
          </Trackpoint>
          <Trackpoint>
            <Time>2021-08-01T11:01:33.000Z</Time>
            <Position>
              <LatitudeDegrees>41.95360508747398853302001953125</LatitudeDegrees>
              <LongitudeDegrees>-2.1507184021174907684326171875</LongitudeDegrees>
            </Position>
            <AltitudeMeters>928.79998779296875</AltitudeMeters>
            <DistanceMeters>377979.21292839</DistanceMeters>
          </Trackpoint>
          <Trackpoint>
            <Time>2021-08-01T11:01:41.000Z</Time>
            <Position>
              <LatitudeDegrees>41.9538821093738079071044921875</LatitudeDegrees>
              <LongitudeDegrees>-2.1500706486403942108154296875</LongitudeDegrees>
            </Position>
            <AltitudeMeters>928</AltitudeMeters>
            <DistanceMeters>378041.06312972</DistanceMeters>
          </Trackpoint>
          <Trackpoint>
            <Time>2021-08-01T11:01:43.000Z</Time>
            <Position>
              <LatitudeDegrees>41.95395126007497310638427734375</LatitudeDegrees>
              <LongitudeDegrees>-2.1499036811292171478271484375</LongitudeDegrees>
            </Position>
            <AltitudeMeters>927.5999755859375</AltitudeMeters>
            <DistanceMeters>378056.88215239</DistanceMeters>
          </Trackpoint>
          <Trackpoint>
            <Time>2021-08-01T11:01:51.000Z</Time>
            <Position>
              <LatitudeDegrees>41.95422551594674587249755859375</LatitudeDegrees>
              <LongitudeDegrees>-2.1492301113903522491455078125</LongitudeDegrees>
            </Position>
            <AltitudeMeters>926.5999755859375</AltitudeMeters>
            <DistanceMeters>378120.44500949</DistanceMeters>
          </Trackpoint>
          <Trackpoint>
            <Time>2021-08-01T11:01:59.000Z</Time>
            <Position>
              <LatitudeDegrees>41.95440405048429965972900390625</LatitudeDegrees>
              <LongitudeDegrees>-2.1485364250838756561279296875</LongitudeDegrees>
            </Position>
            <AltitudeMeters>925.5999755859375</AltitudeMeters>
            <DistanceMeters>378181.20469236</DistanceMeters>
          </Trackpoint>
          <Trackpoint>
            <Time>2021-08-01T11:02:00.000Z</Time>
            <Position>
              <LatitudeDegrees>41.9544074870645999908447265625</LatitudeDegrees>
              <LongitudeDegrees>-2.148447073996067047119140625</LongitudeDegrees>
            </Position>
            <AltitudeMeters>925.4000244140625</AltitudeMeters>
            <DistanceMeters>378188.61068212</DistanceMeters>
          </Trackpoint>
          <Trackpoint>
            <Time>2021-08-01T11:02:05.000Z</Time>
            <Position>
              <LatitudeDegrees>41.95433531887829303741455078125</LatitudeDegrees>
              <LongitudeDegrees>-2.14799277484416961669921875</LongitudeDegrees>
            </Position>
            <AltitudeMeters>924.79998779296875</AltitudeMeters>
            <DistanceMeters>378227.0625819</DistanceMeters>
          </Trackpoint>
          <Trackpoint>
            <Time>2021-08-01T11:02:06.000Z</Time>
            <Position>
              <LatitudeDegrees>41.9543062336742877960205078125</LatitudeDegrees>
              <LongitudeDegrees>-2.1479044295847415924072265625</LongitudeDegrees>
            </Position>
            <AltitudeMeters>924.20001220703125</AltitudeMeters>
            <DistanceMeters>378235.0595189</DistanceMeters>
          </Trackpoint>
          <Trackpoint>
            <Time>2021-08-01T11:02:08.000Z</Time>
            <Position>
              <LatitudeDegrees>41.95424764417111873626708984375</LatitudeDegrees>
              <LongitudeDegrees>-2.14772949926555156707763671875</LongitudeDegrees>
            </Position>
            <AltitudeMeters>923.4000244140625</AltitudeMeters>
            <DistanceMeters>378250.93950362</DistanceMeters>
          </Trackpoint>
          <Trackpoint>
            <Time>2021-08-01T11:02:11.000Z</Time>
            <Position>
              <LatitudeDegrees>41.9541597180068492889404296875</LatitudeDegrees>
              <LongitudeDegrees>-2.1474672295153141021728515625</LongitudeDegrees>
            </Position>
            <AltitudeMeters>922.20001220703125</AltitudeMeters>
            <DistanceMeters>378274.75218197</DistanceMeters>
          </Trackpoint>
          <Trackpoint>
            <Time>2021-08-01T11:02:19.000Z</Time>
            <Position>
              <LatitudeDegrees>41.95391890592873096466064453125</LatitudeDegrees>
              <LongitudeDegrees>-2.14677480049431324005126953125</LongitudeDegrees>
            </Position>
            <AltitudeMeters>921.79998779296875</AltitudeMeters>
            <DistanceMeters>378338.02427669</DistanceMeters>
          </Trackpoint>
          <Trackpoint>
            <Time>2021-08-01T11:02:23.000Z</Time>
            <Position>
              <LatitudeDegrees>41.95379569195210933685302734375</LatitudeDegrees>
              <LongitudeDegrees>-2.14643667452037334442138671875</LongitudeDegrees>
            </Position>
            <AltitudeMeters>921.20001220703125</AltitudeMeters>
            <DistanceMeters>378369.1915904</DistanceMeters>
          </Trackpoint>
          <Trackpoint>
            <Time>2021-08-01T11:02:32.000Z</Time>
            <Position>
              <LatitudeDegrees>41.9535263814032077789306640625</LatitudeDegrees>
              <LongitudeDegrees>-2.1457204408943653106689453125</LongitudeDegrees>
            </Position>
            <AltitudeMeters>920.79998779296875</AltitudeMeters>
            <DistanceMeters>378435.62375986</DistanceMeters>
          </Trackpoint>
          <Trackpoint>
            <Time>2021-08-01T11:02:35.000Z</Time>
            <Position>
              <LatitudeDegrees>41.95343996398150920867919921875</LatitudeDegrees>
              <LongitudeDegrees>-2.1454874239861965179443359375</LongitudeDegrees>
            </Position>
            <AltitudeMeters>920.4000244140625</AltitudeMeters>
            <DistanceMeters>378457.17660637</DistanceMeters>
          </Trackpoint>
          <Trackpoint>
            <Time>2021-08-01T11:02:44.000Z</Time>
            <Position>
              <LatitudeDegrees>41.95317492820322513580322265625</LatitudeDegrees>
              <LongitudeDegrees>-2.1447893790900707244873046875</LongitudeDegrees>
            </Position>
            <AltitudeMeters>920.4000244140625</AltitudeMeters>
            <DistanceMeters>378522.05139368</DistanceMeters>
          </Trackpoint>
          <Trackpoint>
            <Time>2021-08-01T11:02:46.000Z</Time>
            <Position>
              <LatitudeDegrees>41.95309630595147609710693359375</LatitudeDegrees>
              <LongitudeDegrees>-2.14464680291712284088134765625</LongitudeDegrees>
            </Position>
            <AltitudeMeters>920</AltitudeMeters>
            <DistanceMeters>378536.74339652</DistanceMeters>
          </Trackpoint>
          <Trackpoint>
            <Time>2021-08-01T11:02:49.000Z</Time>
            <Position>
              <LatitudeDegrees>41.95294677279889583587646484375</LatitudeDegrees>
              <LongitudeDegrees>-2.14447430334985256195068359375</LongitudeDegrees>
            </Position>
            <AltitudeMeters>919.20001220703125</AltitudeMeters>
            <DistanceMeters>378558.67234225</DistanceMeters>
          </Trackpoint>
          <Trackpoint>
            <Time>2021-08-01T11:02:50.000Z</Time>
            <Position>
              <LatitudeDegrees>41.952891536056995391845703125</LatitudeDegrees>
              <LongitudeDegrees>-2.1444256044924259185791015625</LongitudeDegrees>
            </Position>
            <AltitudeMeters>918.79998779296875</AltitudeMeters>
            <DistanceMeters>378566.02448735</DistanceMeters>
          </Trackpoint>
          <Trackpoint>
            <Time>2021-08-01T11:02:54.000Z</Time>
            <Position>
              <LatitudeDegrees>41.95266212336719036102294921875</LatitudeDegrees>
              <LongitudeDegrees>-2.14425000362098217010498046875</LongitudeDegrees>
            </Position>
            <AltitudeMeters>918.20001220703125</AltitudeMeters>
            <DistanceMeters>378595.40603442</DistanceMeters>
          </Trackpoint>
          <Trackpoint>
            <Time>2021-08-01T11:03:03.000Z</Time>
            <Position>
              <LatitudeDegrees>41.9521401822566986083984375</LatitudeDegrees>
              <LongitudeDegrees>-2.14389964006841182708740234375</LongitudeDegrees>
            </Position>
            <AltitudeMeters>917.79998779296875</AltitudeMeters>
            <DistanceMeters>378660.33598806</DistanceMeters>
          </Trackpoint>
          <Trackpoint>
            <Time>2021-08-01T11:03:12.000Z</Time>
            <Position>
              <LatitudeDegrees>41.95164866745471954345703125</LatitudeDegrees>
              <LongitudeDegrees>-2.1435813792049884796142578125</LongitudeDegrees>
            </Position>
            <AltitudeMeters>918.5999755859375</AltitudeMeters>
            <DistanceMeters>378721.05530731</DistanceMeters>
          </Trackpoint>
          <Trackpoint>
            <Time>2021-08-01T11:03:16.000Z</Time>
            <Position>
              <LatitudeDegrees>41.95147097110748291015625</LatitudeDegrees>
              <LongitudeDegrees>-2.14343729428946971893310546875</LongitudeDegrees>
            </Position>
            <AltitudeMeters>919.4000244140625</AltitudeMeters>
            <DistanceMeters>378744.15129561</DistanceMeters>
          </Trackpoint>
          <Trackpoint>
            <Time>2021-08-01T11:03:19.000Z</Time>
            <Position>
              <LatitudeDegrees>41.95138522423803806304931640625</LatitudeDegrees>
              <LongitudeDegrees>-2.1433572471141815185546875</LongitudeDegrees>
            </Position>
            <AltitudeMeters>920.5999755859375</AltitudeMeters>
            <DistanceMeters>378755.76945307</DistanceMeters>
          </Trackpoint>
          <Trackpoint>
            <Time>2021-08-01T11:03:25.000Z</Time>
            <Position>
              <LatitudeDegrees>41.95137432776391506195068359375</LatitudeDegrees>
              <LongitudeDegrees>-2.143602669239044189453125</LongitudeDegrees>
            </Position>
            <AltitudeMeters>919</AltitudeMeters>
            <DistanceMeters>378776.12070576</DistanceMeters>
          </Trackpoint>
          <Trackpoint>
            <Time>2021-08-01T11:03:26.000Z</Time>
            <Position>
              <LatitudeDegrees>41.9513849727809429168701171875</LatitudeDegrees>
              <LongitudeDegrees>-2.143676094710826873779296875</LongitudeDegrees>
            </Position>
            <AltitudeMeters>918.20001220703125</AltitudeMeters>
            <DistanceMeters>378782.31277364</DistanceMeters>
          </Trackpoint>
          <Trackpoint>
            <Time>2021-08-01T11:03:27.000Z</Time>
            <Position>
              <LatitudeDegrees>41.95138254202902317047119140625</LatitudeDegrees>
              <LongitudeDegrees>-2.143745832145214080810546875</LongitudeDegrees>
            </Position>
            <AltitudeMeters>917.20001220703125</AltitudeMeters>
            <DistanceMeters>378788.09146057</DistanceMeters>
          </Trackpoint>
          <Trackpoint>
            <Time>2021-08-01T11:03:30.000Z</Time>
            <Position>
              <LatitudeDegrees>41.951309703290462493896484375</LatitudeDegrees>
              <LongitudeDegrees>-2.14392093010246753692626953125</LongitudeDegrees>
            </Position>
            <AltitudeMeters>916.20001220703125</AltitudeMeters>
            <DistanceMeters>378804.69885727</DistanceMeters>
          </Trackpoint>
          <Trackpoint>
            <Time>2021-08-01T11:03:36.000Z</Time>
            <Position>
              <LatitudeDegrees>41.9510403089225292205810546875</LatitudeDegrees>
              <LongitudeDegrees>-2.14405654929578304290771484375</LongitudeDegrees>
            </Position>
            <AltitudeMeters>915</AltitudeMeters>
            <DistanceMeters>378836.71552773</DistanceMeters>
          </Trackpoint>
          <Trackpoint>
            <Time>2021-08-01T11:03:37.000Z</Time>
            <Position>
              <LatitudeDegrees>41.95099513046443462371826171875</LatitudeDegrees>
              <LongitudeDegrees>-2.1440594829618930816650390625</LongitudeDegrees>
            </Position>
            <AltitudeMeters>914.79998779296875</AltitudeMeters>
            <DistanceMeters>378841.75104703</DistanceMeters>
          </Trackpoint>
          <Trackpoint>
            <Time>2021-08-01T11:03:41.000Z</Time>
            <Position>
              <LatitudeDegrees>41.95081843994557857513427734375</LatitudeDegrees>
              <LongitudeDegrees>-2.14410164393484592437744140625</LongitudeDegrees>
            </Position>
            <AltitudeMeters>913.79998779296875</AltitudeMeters>
            <DistanceMeters>378861.72429707</DistanceMeters>
          </Trackpoint>
          <Trackpoint>
            <Time>2021-08-01T11:03:42.000Z</Time>
            <Position>
              <LatitudeDegrees>41.95077418349683284759521484375</LatitudeDegrees>
              <LongitudeDegrees>-2.14411891065537929534912109375</LongitudeDegrees>
            </Position>
            <AltitudeMeters>913.5999755859375</AltitudeMeters>
            <DistanceMeters>378866.85221893</DistanceMeters>
          </Trackpoint>
          <Trackpoint>
            <Time>2021-08-01T11:03:43.000Z</Time>
            <Position>
              <LatitudeDegrees>41.950731016695499420166015625</LatitudeDegrees>
              <LongitudeDegrees>-2.14414003305137157440185546875</LongitudeDegrees>
            </Position>
            <AltitudeMeters>913.5999755859375</AltitudeMeters>
            <DistanceMeters>378871.96426757</DistanceMeters>
          </Trackpoint>
          <Trackpoint>
            <Time>2021-08-01T11:03:46.000Z</Time>
            <Position>
              <LatitudeDegrees>41.95060738362371921539306640625</LatitudeDegrees>
              <LongitudeDegrees>-2.1442388556897640228271484375</LongitudeDegrees>
            </Position>
            <AltitudeMeters>913.4000244140625</AltitudeMeters>
            <DistanceMeters>378887.97281433</DistanceMeters>
          </Trackpoint>
          <Trackpoint>
            <Time>2021-08-01T11:03:49.000Z</Time>
            <Position>
              <LatitudeDegrees>41.95048400200903415679931640625</LatitudeDegrees>
              <LongitudeDegrees>-2.14435779489576816558837890625</LongitudeDegrees>
            </Position>
            <AltitudeMeters>913.4000244140625</AltitudeMeters>
            <DistanceMeters>378904.8702102</DistanceMeters>
          </Trackpoint>
          <Trackpoint>
            <Time>2021-08-01T11:03:56.000Z</Time>
            <Position>
              <LatitudeDegrees>41.9501457922160625457763671875</LatitudeDegrees>
              <LongitudeDegrees>-2.14429744519293308258056640625</LongitudeDegrees>
            </Position>
            <AltitudeMeters>912.5999755859375</AltitudeMeters>
            <DistanceMeters>378942.84357964</DistanceMeters>
          </Trackpoint>
          <Trackpoint>
            <Time>2021-08-01T11:04:00.000Z</Time>
            <Position>
              <LatitudeDegrees>41.9499607197940349578857421875</LatitudeDegrees>
              <LongitudeDegrees>-2.14421362616121768951416015625</LongitudeDegrees>
            </Position>
            <AltitudeMeters>912</AltitudeMeters>
            <DistanceMeters>378964.57957742</DistanceMeters>
          </Trackpoint>
          <Trackpoint>
            <Time>2021-08-01T11:04:02.000Z</Time>
            <Position>
              <LatitudeDegrees>41.94988243281841278076171875</LatitudeDegrees>
              <LongitudeDegrees>-2.14412461034953594207763671875</LongitudeDegrees>
            </Position>
            <AltitudeMeters>911.79998779296875</AltitudeMeters>
            <DistanceMeters>378975.99149061</DistanceMeters>
          </Trackpoint>
          <Trackpoint>
            <Time>2021-08-01T11:04:04.000Z</Time>
            <Position>
              <LatitudeDegrees>41.949825771152973175048828125</LatitudeDegrees>
              <LongitudeDegrees>-2.1439991332590579986572265625</LongitudeDegrees>
            </Position>
            <AltitudeMeters>911.4000244140625</AltitudeMeters>
            <DistanceMeters>378988.1430259</DistanceMeters>
          </Trackpoint>
          <Trackpoint>
            <Time>2021-08-01T11:04:08.000Z</Time>
            <Position>
              <LatitudeDegrees>41.94976667873561382293701171875</LatitudeDegrees>
              <LongitudeDegrees>-2.1437044255435466766357421875</LongitudeDegrees>
            </Position>
            <AltitudeMeters>910.5999755859375</AltitudeMeters>
            <DistanceMeters>379013.40976974</DistanceMeters>
          </Trackpoint>
          <Trackpoint>
            <Time>2021-08-01T11:04:09.000Z</Time>
            <Position>
              <LatitudeDegrees>41.94976416416466236114501953125</LatitudeDegrees>
              <LongitudeDegrees>-2.1436254680156707763671875</LongitudeDegrees>
            </Position>
            <AltitudeMeters>910.20001220703125</AltitudeMeters>
            <DistanceMeters>379019.95213647</DistanceMeters>
          </Trackpoint>
          <Trackpoint>
            <Time>2021-08-01T11:04:13.000Z</Time>
            <Position>
              <LatitudeDegrees>41.94974538870155811309814453125</LatitudeDegrees>
              <LongitudeDegrees>-2.14330301620066165924072265625</LongitudeDegrees>
            </Position>
            <AltitudeMeters>909.5999755859375</AltitudeMeters>
            <DistanceMeters>379046.72607134</DistanceMeters>
          </Trackpoint>
          <Trackpoint>
            <Time>2021-08-01T11:04:22.000Z</Time>
            <Position>
              <LatitudeDegrees>41.9497159682214260101318359375</LatitudeDegrees>
              <LongitudeDegrees>-2.14255191385746002197265625</LongitudeDegrees>
            </Position>
            <AltitudeMeters>908.4000244140625</AltitudeMeters>
            <DistanceMeters>379108.98764421</DistanceMeters>
          </Trackpoint>
          <Trackpoint>
            <Time>2021-08-01T11:04:30.000Z</Time>
            <Position>
              <LatitudeDegrees>41.94977237842977046966552734375</LatitudeDegrees>
              <LongitudeDegrees>-2.1420307271182537078857421875</LongitudeDegrees>
            </Position>
            <AltitudeMeters>908.5999755859375</AltitudeMeters>
            <DistanceMeters>379152.58533739</DistanceMeters>
          </Trackpoint>
          <Trackpoint>
            <Time>2021-08-01T11:04:32.000Z</Time>
            <Position>
              <LatitudeDegrees>41.9497575424611568450927734375</LatitudeDegrees>
              <LongitudeDegrees>-2.14191220700740814208984375</LongitudeDegrees>
            </Position>
            <AltitudeMeters>908.4000244140625</AltitudeMeters>
            <DistanceMeters>379162.53368589</DistanceMeters>
          </Trackpoint>
          <Trackpoint>
            <Time>2021-08-01T11:04:34.000Z</Time>
            <Position>
              <LatitudeDegrees>41.949719153344631195068359375</LatitudeDegrees>
              <LongitudeDegrees>-2.141779102385044097900390625</LongitudeDegrees>
            </Position>
            <AltitudeMeters>907.4000244140625</AltitudeMeters>
            <DistanceMeters>379174.35143366</DistanceMeters>
          </Trackpoint>
          <Trackpoint>
            <Time>2021-08-01T11:04:35.000Z</Time>
            <Position>
              <LatitudeDegrees>41.9497028924524784088134765625</LatitudeDegrees>
              <LongitudeDegrees>-2.14170928113162517547607421875</LongitudeDegrees>
            </Position>
            <AltitudeMeters>907</AltitudeMeters>
            <DistanceMeters>379180.40784931</DistanceMeters>
          </Trackpoint>
          <Trackpoint>
            <Time>2021-08-01T11:04:39.000Z</Time>
            <Position>
              <LatitudeDegrees>41.94970062933862209320068359375</LatitudeDegrees>
              <LongitudeDegrees>-2.14141608215868473052978515625</LongitudeDegrees>
            </Position>
            <AltitudeMeters>906.20001220703125</AltitudeMeters>
            <DistanceMeters>379204.67987471</DistanceMeters>
          </Trackpoint>
          <Trackpoint>
            <Time>2021-08-01T11:04:40.000Z</Time>
            <Position>
              <LatitudeDegrees>41.9496965222060680389404296875</LatitudeDegrees>
              <LongitudeDegrees>-2.1413482725620269775390625</LongitudeDegrees>
            </Position>
            <AltitudeMeters>906.20001220703125</AltitudeMeters>
            <DistanceMeters>379210.31136017</DistanceMeters>
          </Trackpoint>
          <Trackpoint>
            <Time>2021-08-01T11:04:46.000Z</Time>
            <Position>
              <LatitudeDegrees>41.94967129267752170562744140625</LatitudeDegrees>
              <LongitudeDegrees>-2.140919454395771026611328125</LongitudeDegrees>
            </Position>
            <AltitudeMeters>905.20001220703125</AltitudeMeters>
            <DistanceMeters>379245.91925345</DistanceMeters>
          </Trackpoint>
          <Trackpoint>
            <Time>2021-08-01T11:04:53.000Z</Time>
            <Position>
              <LatitudeDegrees>41.9496257789433002471923828125</LatitudeDegrees>
              <LongitudeDegrees>-2.14044244028627872467041015625</LongitudeDegrees>
            </Position>
            <AltitudeMeters>904.79998779296875</AltitudeMeters>
            <DistanceMeters>379285.7296631</DistanceMeters>
          </Trackpoint>
          <Trackpoint>
            <Time>2021-08-01T11:05:08.000Z</Time>
            <Position>
              <LatitudeDegrees>41.9494380243122577667236328125</LatitudeDegrees>
              <LongitudeDegrees>-2.13973986916244029998779296875</LongitudeDegrees>
            </Position>
            <AltitudeMeters>904.5999755859375</AltitudeMeters>
            <DistanceMeters>379347.5283783</DistanceMeters>
          </Trackpoint>
          <Trackpoint>
            <Time>2021-08-01T11:05:17.000Z</Time>
            <Position>
              <LatitudeDegrees>41.94930299185216426849365234375</LatitudeDegrees>
              <LongitudeDegrees>-2.1394035033881664276123046875</LongitudeDegrees>
            </Position>
            <AltitudeMeters>904</AltitudeMeters>
            <DistanceMeters>379379.16984848</DistanceMeters>
          </Trackpoint>
          <Trackpoint>
            <Time>2021-08-01T11:05:25.000Z</Time>
            <Position>
              <LatitudeDegrees>41.94912076927721500396728515625</LatitudeDegrees>
              <LongitudeDegrees>-2.1390501223504543304443359375</LongitudeDegrees>
            </Position>
            <AltitudeMeters>903.5999755859375</AltitudeMeters>
            <DistanceMeters>379414.76569384</DistanceMeters>
          </Trackpoint>
          <Trackpoint>
            <Time>2021-08-01T11:05:27.000Z</Time>
            <Position>
              <LatitudeDegrees>41.94905119948089122772216796875</LatitudeDegrees>
              <LongitudeDegrees>-2.1389766968786716461181640625</LongitudeDegrees>
            </Position>
            <AltitudeMeters>903</AltitudeMeters>
            <DistanceMeters>379424.60910383</DistanceMeters>
          </Trackpoint>
          <Trackpoint>
            <Time>2021-08-01T11:05:40.000Z</Time>
            <Position>
              <LatitudeDegrees>41.94864325225353240966796875</LatitudeDegrees>
              <LongitudeDegrees>-2.1384402550756931304931640625</LongitudeDegrees>
            </Position>
            <AltitudeMeters>902.79998779296875</AltitudeMeters>
            <DistanceMeters>379488.11973047</DistanceMeters>
          </Trackpoint>
          <Trackpoint>
            <Time>2021-08-01T11:05:45.000Z</Time>
            <Position>
              <LatitudeDegrees>41.94844166748225688934326171875</LatitudeDegrees>
              <LongitudeDegrees>-2.13821922428905963897705078125</LongitudeDegrees>
            </Position>
            <AltitudeMeters>901.79998779296875</AltitudeMeters>
            <DistanceMeters>379517.07123743</DistanceMeters>
          </Trackpoint>
          <Trackpoint>
            <Time>2021-08-01T11:05:51.000Z</Time>
            <Position>
              <LatitudeDegrees>41.94818585179746150970458984375</LatitudeDegrees>
              <LongitudeDegrees>-2.1379614807665348052978515625</LongitudeDegrees>
            </Position>
            <AltitudeMeters>900.79998779296875</AltitudeMeters>
            <DistanceMeters>379552.65109714</DistanceMeters>
          </Trackpoint>
          <Trackpoint>
            <Time>2021-08-01T11:06:11.000Z</Time>
            <Position>
              <LatitudeDegrees>41.94787572138011455535888671875</LatitudeDegrees>
              <LongitudeDegrees>-2.13735572062432765960693359375</LongitudeDegrees>
            </Position>
            <AltitudeMeters>900.5999755859375</AltitudeMeters>
            <DistanceMeters>379613.52859539</DistanceMeters>
          </Trackpoint>
          <Trackpoint>
            <Time>2021-08-01T11:06:31.000Z</Time>
            <Position>
              <LatitudeDegrees>41.94764371030032634735107421875</LatitudeDegrees>
              <LongitudeDegrees>-2.13668600656092166900634765625</LongitudeDegrees>
            </Position>
            <AltitudeMeters>900.5999755859375</AltitudeMeters>
            <DistanceMeters>379674.68764407</DistanceMeters>
          </Trackpoint>
          <Trackpoint>
            <Time>2021-08-01T11:06:34.000Z</Time>
            <Position>
              <LatitudeDegrees>41.9475862942636013031005859375</LatitudeDegrees>
              <LongitudeDegrees>-2.13653915561735630035400390625</LongitudeDegrees>
            </Position>
            <AltitudeMeters>900</AltitudeMeters>
            <DistanceMeters>379688.4218811</DistanceMeters>
          </Trackpoint>
          <Trackpoint>
            <Time>2021-08-01T11:06:39.000Z</Time>
            <Position>
              <LatitudeDegrees>41.94752334617078304290771484375</LatitudeDegrees>
              <LongitudeDegrees>-2.1362629719078540802001953125</LongitudeDegrees>
            </Position>
            <AltitudeMeters>899</AltitudeMeters>
            <DistanceMeters>379712.33446211</DistanceMeters>
          </Trackpoint>
          <Trackpoint>
            <Time>2021-08-01T11:06:46.000Z</Time>
            <Position>
              <LatitudeDegrees>41.94747137837111949920654296875</LatitudeDegrees>
              <LongitudeDegrees>-2.1358497440814971923828125</LongitudeDegrees>
            </Position>
            <AltitudeMeters>898.79998779296875</AltitudeMeters>
            <DistanceMeters>379747.02767311</DistanceMeters>
          </Trackpoint>
          <Trackpoint>
            <Time>2021-08-01T11:06:50.000Z</Time>
            <Position>
              <LatitudeDegrees>41.947367526590824127197265625</LatitudeDegrees>
              <LongitudeDegrees>-2.13562770746648311614990234375</LongitudeDegrees>
            </Position>
            <AltitudeMeters>898</AltitudeMeters>
            <DistanceMeters>379768.74080948</DistanceMeters>
          </Trackpoint>
          <Trackpoint>
            <Time>2021-08-01T11:06:58.000Z</Time>
            <Position>
              <LatitudeDegrees>41.94710609503090381622314453125</LatitudeDegrees>
              <LongitudeDegrees>-2.13515547104179859161376953125</LongitudeDegrees>
            </Position>
            <AltitudeMeters>897</AltitudeMeters>
            <DistanceMeters>379817.47404419</DistanceMeters>
          </Trackpoint>
          <Trackpoint>
            <Time>2021-08-01T11:07:08.000Z</Time>
            <Position>
              <LatitudeDegrees>41.94670661352574825286865234375</LatitudeDegrees>
              <LongitudeDegrees>-2.13462087325751781463623046875</LongitudeDegrees>
            </Position>
            <AltitudeMeters>896.5999755859375</AltitudeMeters>
            <DistanceMeters>379880.20751146</DistanceMeters>
          </Trackpoint>
          <Trackpoint>
            <Time>2021-08-01T11:07:10.000Z</Time>
            <Position>
              <LatitudeDegrees>41.9466243870556354522705078125</LatitudeDegrees>
              <LongitudeDegrees>-2.1345141716301441192626953125</LongitudeDegrees>
            </Position>
            <AltitudeMeters>896.20001220703125</AltitudeMeters>
            <DistanceMeters>379892.92690018</DistanceMeters>
          </Trackpoint>
          <Trackpoint>
            <Time>2021-08-01T11:07:20.000Z</Time>
            <Position>
              <LatitudeDegrees>41.94627754390239715576171875</LatitudeDegrees>
              <LongitudeDegrees>-2.13390874676406383514404296875</LongitudeDegrees>
            </Position>
            <AltitudeMeters>895</AltitudeMeters>
            <DistanceMeters>379956.18986028</DistanceMeters>
          </Trackpoint>
          <Trackpoint>
            <Time>2021-08-01T11:07:24.000Z</Time>
            <Position>
              <LatitudeDegrees>41.94613446481525897979736328125</LatitudeDegrees>
              <LongitudeDegrees>-2.13364899158477783203125</LongitudeDegrees>
            </Position>
            <AltitudeMeters>894</AltitudeMeters>
            <DistanceMeters>379982.94810745</DistanceMeters>
          </Trackpoint>
          <Trackpoint>
            <Time>2021-08-01T11:07:25.000Z</Time>
            <Position>
              <LatitudeDegrees>41.94609322585165500640869140625</LatitudeDegrees>
              <LongitudeDegrees>-2.1335854567587375640869140625</LongitudeDegrees>
            </Position>
            <AltitudeMeters>893.79998779296875</AltitudeMeters>
            <DistanceMeters>379989.92917632</DistanceMeters>
          </Trackpoint>
          <Trackpoint>
            <Time>2021-08-01T11:07:29.000Z</Time>
            <Position>
              <LatitudeDegrees>41.94594184868037700653076171875</LatitudeDegrees>
              <LongitudeDegrees>-2.133299969136714935302734375</LongitudeDegrees>
            </Position>
            <AltitudeMeters>892.79998779296875</AltitudeMeters>
            <DistanceMeters>380018.95388806</DistanceMeters>
          </Trackpoint>
          <Trackpoint>
            <Time>2021-08-01T11:07:33.000Z</Time>
            <Position>
              <LatitudeDegrees>41.9458006136119365692138671875</LatitudeDegrees>
              <LongitudeDegrees>-2.13301355950534343719482421875</LongitudeDegrees>
            </Position>
            <AltitudeMeters>892</AltitudeMeters>
            <DistanceMeters>380047.40181383</DistanceMeters>
          </Trackpoint>
          <Trackpoint>
            <Time>2021-08-01T11:07:38.000Z</Time>
            <Position>
              <LatitudeDegrees>41.94558444432914257049560546875</LatitudeDegrees>
              <LongitudeDegrees>-2.13275916874408721923828125</LongitudeDegrees>
            </Position>
            <AltitudeMeters>891.5999755859375</AltitudeMeters>
            <DistanceMeters>380079.3767147</DistanceMeters>
          </Trackpoint>
          <Trackpoint>
            <Time>2021-08-01T11:07:39.000Z</Time>
            <Position>
              <LatitudeDegrees>41.94553968496620655059814453125</LatitudeDegrees>
              <LongitudeDegrees>-2.13270711712539196014404296875</LongitudeDegrees>
            </Position>
            <AltitudeMeters>891.5999755859375</AltitudeMeters>
            <DistanceMeters>380085.96378668</DistanceMeters>
          </Trackpoint>
          <Trackpoint>
            <Time>2021-08-01T11:07:46.000Z</Time>
            <Position>
              <LatitudeDegrees>41.9452195800840854644775390625</LatitudeDegrees>
              <LongitudeDegrees>-2.1323147602379322052001953125</LongitudeDegrees>
            </Position>
            <AltitudeMeters>891</AltitudeMeters>
            <DistanceMeters>380134.17577541</DistanceMeters>
          </Trackpoint>
          <Trackpoint>
            <Time>2021-08-01T11:07:56.000Z</Time>
            <Position>
              <LatitudeDegrees>41.944660507142543792724609375</LatitudeDegrees>
              <LongitudeDegrees>-2.13230964727699756622314453125</LongitudeDegrees>
            </Position>
            <AltitudeMeters>891.5999755859375</AltitudeMeters>
            <DistanceMeters>380196.40311072</DistanceMeters>
          </Trackpoint>
          <Trackpoint>
            <Time>2021-08-01T11:08:00.000Z</Time>
            <Position>
              <LatitudeDegrees>41.94442539475858211517333984375</LatitudeDegrees>
              <LongitudeDegrees>-2.13232423178851604461669921875</LongitudeDegrees>
            </Position>
            <AltitudeMeters>890.5999755859375</AltitudeMeters>
            <DistanceMeters>380222.59965094</DistanceMeters>
          </Trackpoint>
          <Trackpoint>
            <Time>2021-08-01T11:08:02.000Z</Time>
            <Position>
              <LatitudeDegrees>41.9443089701235294342041015625</LatitudeDegrees>
              <LongitudeDegrees>-2.1322824060916900634765625</LongitudeDegrees>
            </Position>
            <AltitudeMeters>889.5999755859375</AltitudeMeters>
            <DistanceMeters>380236.01256312</DistanceMeters>
          </Trackpoint>
          <Trackpoint>
            <Time>2021-08-01T11:08:04.000Z</Time>
            <Position>
              <LatitudeDegrees>41.94419556297361850738525390625</LatitudeDegrees>
              <LongitudeDegrees>-2.1322198770940303802490234375</LongitudeDegrees>
            </Position>
            <AltitudeMeters>889</AltitudeMeters>
            <DistanceMeters>380249.65543436</DistanceMeters>
          </Trackpoint>
          <Trackpoint>
            <Time>2021-08-01T11:08:05.000Z</Time>
            <Position>
              <LatitudeDegrees>41.944140493869781494140625</LatitudeDegrees>
              <LongitudeDegrees>-2.132178805768489837646484375</LongitudeDegrees>
            </Position>
            <AltitudeMeters>888.79998779296875</AltitudeMeters>
            <DistanceMeters>380256.6642585</DistanceMeters>
          </Trackpoint>
          <Trackpoint>
            <Time>2021-08-01T11:08:07.000Z</Time>
            <Position>
              <LatitudeDegrees>41.94404033012688159942626953125</LatitudeDegrees>
              <LongitudeDegrees>-2.13207310996949672698974609375</LongitudeDegrees>
            </Position>
            <AltitudeMeters>888.4000244140625</AltitudeMeters>
            <DistanceMeters>380270.83630705</DistanceMeters>
          </Trackpoint>
          <Trackpoint>
            <Time>2021-08-01T11:08:15.000Z</Time>
            <Position>
              <LatitudeDegrees>41.943673454225063323974609375</LatitudeDegrees>
              <LongitudeDegrees>-2.1316126920282840728759765625</LongitudeDegrees>
            </Position>
            <AltitudeMeters>887.20001220703125</AltitudeMeters>
            <DistanceMeters>380326.6956901</DistanceMeters>
          </Trackpoint>
          <Trackpoint>
            <Time>2021-08-01T11:08:19.000Z</Time>
            <Position>
              <LatitudeDegrees>41.94349785335361957550048828125</LatitudeDegrees>
              <LongitudeDegrees>-2.13142334483563899993896484375</LongitudeDegrees>
            </Position>
            <AltitudeMeters>886.5999755859375</AltitudeMeters>
            <DistanceMeters>380351.74996586</DistanceMeters>
          </Trackpoint>
          <Trackpoint>
            <Time>2021-08-01T11:08:28.000Z</Time>
            <Position>
              <LatitudeDegrees>41.9433309696614742279052734375</LatitudeDegrees>
              <LongitudeDegrees>-2.13099989108741283416748046875</LongitudeDegrees>
            </Position>
            <AltitudeMeters>886.4000244140625</AltitudeMeters>
            <DistanceMeters>380391.42324925</DistanceMeters>
          </Trackpoint>
          <Trackpoint>
            <Time>2021-08-01T11:08:36.000Z</Time>
            <Position>
              <LatitudeDegrees>41.9431780837476253509521484375</LatitudeDegrees>
              <LongitudeDegrees>-2.1308023296296596527099609375</LongitudeDegrees>
            </Position>
            <AltitudeMeters>887.5999755859375</AltitudeMeters>
            <DistanceMeters>380415.02548253</DistanceMeters>
          </Trackpoint>
          <Trackpoint>
            <Time>2021-08-01T11:08:40.000Z</Time>
            <Position>
              <LatitudeDegrees>41.9430530257523059844970703125</LatitudeDegrees>
              <LongitudeDegrees>-2.1307785250246524810791015625</LongitudeDegrees>
            </Position>
            <AltitudeMeters>888.79998779296875</AltitudeMeters>
            <DistanceMeters>380429.08365642</DistanceMeters>
          </Trackpoint>
          <Trackpoint>
            <Time>2021-08-01T11:08:47.000Z</Time>
            <Position>
              <LatitudeDegrees>41.942822523415088653564453125</LatitudeDegrees>
              <LongitudeDegrees>-2.13067115284502506256103515625</LongitudeDegrees>
            </Position>
            <AltitudeMeters>889.79998779296875</AltitudeMeters>
            <DistanceMeters>380456.23536798</DistanceMeters>
          </Trackpoint>
          <Trackpoint>
            <Time>2021-08-01T11:08:50.000Z</Time>
            <Position>
              <LatitudeDegrees>41.9427442364394664764404296875</LatitudeDegrees>
              <LongitudeDegrees>-2.13055699132382869720458984375</LongitudeDegrees>
            </Position>
            <AltitudeMeters>889.5999755859375</AltitudeMeters>
            <DistanceMeters>380469.09034363</DistanceMeters>
          </Trackpoint>
          <Trackpoint>
            <Time>2021-08-01T11:08:57.000Z</Time>
            <Position>
              <LatitudeDegrees>41.94258942268788814544677734375</LatitudeDegrees>
              <LongitudeDegrees>-2.13015851564705371856689453125</LongitudeDegrees>
            </Position>
            <AltitudeMeters>888.79998779296875</AltitudeMeters>
            <DistanceMeters>380506.30831787</DistanceMeters>
          </Trackpoint>
          <Trackpoint>
            <Time>2021-08-01T11:08:59.000Z</Time>
            <Position>
              <LatitudeDegrees>41.94253611378371715545654296875</LatitudeDegrees>
              <LongitudeDegrees>-2.1300335414707660675048828125</LongitudeDegrees>
            </Position>
            <AltitudeMeters>888.4000244140625</AltitudeMeters>
            <DistanceMeters>380518.23559016</DistanceMeters>
          </Trackpoint>
          <Trackpoint>
            <Time>2021-08-01T11:09:01.000Z</Time>
            <Position>
              <LatitudeDegrees>41.9424572400748729705810546875</LatitudeDegrees>
              <LongitudeDegrees>-2.12991845794022083282470703125</LongitudeDegrees>
            </Position>
            <AltitudeMeters>887.4000244140625</AltitudeMeters>
            <DistanceMeters>380531.19062782</DistanceMeters>
          </Trackpoint>
          <Trackpoint>
            <Time>2021-08-01T11:09:04.000Z</Time>
            <Position>
              <LatitudeDegrees>41.94231399334967136383056640625</LatitudeDegrees>
              <LongitudeDegrees>-2.1297358162701129913330078125</LongitudeDegrees>
            </Position>
            <AltitudeMeters>886</AltitudeMeters>
            <DistanceMeters>380553.16420712</DistanceMeters>
          </Trackpoint>
          <Trackpoint>
            <Time>2021-08-01T11:09:06.000Z</Time>
            <Position>
              <LatitudeDegrees>41.9422225467860698699951171875</LatitudeDegrees>
              <LongitudeDegrees>-2.12958837859332561492919921875</LongitudeDegrees>
            </Position>
            <AltitudeMeters>884.5999755859375</AltitudeMeters>
            <DistanceMeters>380569.05754939</DistanceMeters>
          </Trackpoint>
          <Trackpoint>
            <Time>2021-08-01T11:09:08.000Z</Time>
            <Position>
              <LatitudeDegrees>41.9421336986124515533447265625</LatitudeDegrees>
              <LongitudeDegrees>-2.12943188846111297607421875</LongitudeDegrees>
            </Position>
            <AltitudeMeters>883.4000244140625</AltitudeMeters>
            <DistanceMeters>380585.35594682</DistanceMeters>
          </Trackpoint>
          <Trackpoint>
            <Time>2021-08-01T11:09:12.000Z</Time>
            <Position>
              <LatitudeDegrees>41.94196547381579875946044921875</LatitudeDegrees>
              <LongitudeDegrees>-2.1291085146367549896240234375</LongitudeDegrees>
            </Position>
            <AltitudeMeters>882.20001220703125</AltitudeMeters>
            <DistanceMeters>380618.0256558</DistanceMeters>
          </Trackpoint>
          <Trackpoint>
            <Time>2021-08-01T11:09:20.000Z</Time>
            <Position>
              <LatitudeDegrees>41.94160521961748600006103515625</LatitudeDegrees>
              <LongitudeDegrees>-2.12851029820740222930908203125</LongitudeDegrees>
            </Position>
            <AltitudeMeters>881.4000244140625</AltitudeMeters>
            <DistanceMeters>380681.74827765</DistanceMeters>
          </Trackpoint>
          <Trackpoint>
            <Time>2021-08-01T11:09:29.000Z</Time>
            <Position>
              <LatitudeDegrees>41.9411895610392093658447265625</LatitudeDegrees>
              <LongitudeDegrees>-2.12791836820542812347412109375</LongitudeDegrees>
            </Position>
            <AltitudeMeters>880.79998779296875</AltitudeMeters>
            <DistanceMeters>380749.14178356</DistanceMeters>
          </Trackpoint>
          <Trackpoint>
            <Time>2021-08-01T11:09:30.000Z</Time>
            <Position>
              <LatitudeDegrees>41.9411473162472248077392578125</LatitudeDegrees>
              <LongitudeDegrees>-2.12783723138272762298583984375</LongitudeDegrees>
            </Position>
            <AltitudeMeters>880.4000244140625</AltitudeMeters>
            <DistanceMeters>380757.34165851</DistanceMeters>
          </Trackpoint>
          <Trackpoint>
            <Time>2021-08-01T11:09:31.000Z</Time>
            <Position>
              <LatitudeDegrees>41.9411101005971431732177734375</LatitudeDegrees>
              <LongitudeDegrees>-2.12775022722780704498291015625</LongitudeDegrees>
            </Position>
            <AltitudeMeters>879.79998779296875</AltitudeMeters>
            <DistanceMeters>380765.6509283</DistanceMeters>
          </Trackpoint>
          <Trackpoint>
            <Time>2021-08-01T11:09:32.000Z</Time>
            <Position>
              <LatitudeDegrees>41.941079087555408477783203125</LatitudeDegrees>
              <LongitudeDegrees>-2.12765886448323726654052734375</LongitudeDegrees>
            </Position>
            <AltitudeMeters>878.79998779296875</AltitudeMeters>
            <DistanceMeters>380773.96508702</DistanceMeters>
          </Trackpoint>
          <Trackpoint>
            <Time>2021-08-01T11:09:34.000Z</Time>
            <Position>
              <LatitudeDegrees>41.9410296343266963958740234375</LatitudeDegrees>
              <LongitudeDegrees>-2.12747043929994106292724609375</LongitudeDegrees>
            </Position>
            <AltitudeMeters>878</AltitudeMeters>
            <DistanceMeters>380790.50737938</DistanceMeters>
          </Trackpoint>
          <Trackpoint>
            <Time>2021-08-01T11:09:35.000Z</Time>
            <Position>
              <LatitudeDegrees>41.94100205786526203155517578125</LatitudeDegrees>
              <LongitudeDegrees>-2.127380669116973876953125</LongitudeDegrees>
            </Position>
            <AltitudeMeters>877.5999755859375</AltitudeMeters>
            <DistanceMeters>380798.54823427</DistanceMeters>
          </Trackpoint>
          <Trackpoint>
            <Time>2021-08-01T11:09:42.000Z</Time>
            <Position>
              <LatitudeDegrees>41.94069846533238887786865234375</LatitudeDegrees>
              <LongitudeDegrees>-2.1268578059971332550048828125</LongitudeDegrees>
            </Position>
            <AltitudeMeters>878</AltitudeMeters>
            <DistanceMeters>380853.46315218</DistanceMeters>
          </Trackpoint>
          <Trackpoint>
            <Time>2021-08-01T11:09:44.000Z</Time>
            <Position>
              <LatitudeDegrees>41.94062612950801849365234375</LatitudeDegrees>
              <LongitudeDegrees>-2.1266975440084934234619140625</LongitudeDegrees>
            </Position>
            <AltitudeMeters>877.4000244140625</AltitudeMeters>
            <DistanceMeters>380868.98279228</DistanceMeters>
          </Trackpoint>
          <Trackpoint>
            <Time>2021-08-01T11:09:47.000Z</Time>
            <Position>
              <LatitudeDegrees>41.9404911808669567108154296875</LatitudeDegrees>
              <LongitudeDegrees>-2.12648958899080753326416015625</LongitudeDegrees>
            </Position>
            <AltitudeMeters>876.79998779296875</AltitudeMeters>
            <DistanceMeters>380891.83054248</DistanceMeters>
          </Trackpoint>
          <Trackpoint>
            <Time>2021-08-01T11:09:48.000Z</Time>
            <Position>
              <LatitudeDegrees>41.94044834934175014495849609375</LatitudeDegrees>
              <LongitudeDegrees>-2.1264162473380565643310546875</LongitudeDegrees>
            </Position>
            <AltitudeMeters>876.79998779296875</AltitudeMeters>
            <DistanceMeters>380899.55054925</DistanceMeters>
          </Trackpoint>
          <Trackpoint>
            <Time>2021-08-01T11:09:54.000Z</Time>
            <Position>
              <LatitudeDegrees>41.94026277400553226470947265625</LatitudeDegrees>
              <LongitudeDegrees>-2.12593755684792995452880859375</LongitudeDegrees>
            </Position>
            <AltitudeMeters>877.20001220703125</AltitudeMeters>
            <DistanceMeters>380944.24130084</DistanceMeters>
          </Trackpoint>
          <Trackpoint>
            <Time>2021-08-01T11:09:55.000Z</Time>
            <Position>
              <LatitudeDegrees>41.94023896940052509307861328125</LatitudeDegrees>
              <LongitudeDegrees>-2.12587955407798290252685546875</LongitudeDegrees>
            </Position>
            <AltitudeMeters>877.5999755859375</AltitudeMeters>
            <DistanceMeters>380949.72492689</DistanceMeters>
          </Trackpoint>
          <Trackpoint>
            <Time>2021-08-01T11:09:56.000Z</Time>
            <Position>
              <LatitudeDegrees>41.94022723473608493804931640625</LatitudeDegrees>
              <LongitudeDegrees>-2.12582171894609928131103515625</LongitudeDegrees>
            </Position>
            <AltitudeMeters>878</AltitudeMeters>
            <DistanceMeters>380954.68819683</DistanceMeters>
          </Trackpoint>
          <Trackpoint>
            <Time>2021-08-01T11:09:59.000Z</Time>
            <Position>
              <LatitudeDegrees>41.94025305099785327911376953125</LatitudeDegrees>
              <LongitudeDegrees>-2.12561870925128459930419921875</LongitudeDegrees>
            </Position>
            <AltitudeMeters>878.5999755859375</AltitudeMeters>
            <DistanceMeters>380971.7396015</DistanceMeters>
          </Trackpoint>
          <Trackpoint>
            <Time>2021-08-01T11:10:04.000Z</Time>
            <Position>
              <LatitudeDegrees>41.94015028886497020721435546875</LatitudeDegrees>
              <LongitudeDegrees>-2.12521336041390895843505859375</LongitudeDegrees>
            </Position>
            <AltitudeMeters>877.20001220703125</AltitudeMeters>
            <DistanceMeters>381007.19462769</DistanceMeters>
          </Trackpoint>
          <Trackpoint>
            <Time>2021-08-01T11:10:05.000Z</Time>
            <Position>
              <LatitudeDegrees>41.94011173211038112640380859375</LatitudeDegrees>
              <LongitudeDegrees>-2.12513641454279422760009765625</LongitudeDegrees>
            </Position>
            <AltitudeMeters>877</AltitudeMeters>
            <DistanceMeters>381014.87593744</DistanceMeters>
          </Trackpoint>
          <Trackpoint>
            <Time>2021-08-01T11:10:13.000Z</Time>
            <Position>
              <LatitudeDegrees>41.9397435151040554046630859375</LatitudeDegrees>
              <LongitudeDegrees>-2.1245222724974155426025390625</LongitudeDegrees>
            </Position>
            <AltitudeMeters>876.20001220703125</AltitudeMeters>
            <DistanceMeters>381080.18231664</DistanceMeters>
          </Trackpoint>
          <Trackpoint>
            <Time>2021-08-01T11:10:14.000Z</Time>
            <Position>
              <LatitudeDegrees>41.9396969117224216461181640625</LatitudeDegrees>
              <LongitudeDegrees>-2.124441303312778472900390625</LongitudeDegrees>
            </Position>
            <AltitudeMeters>875.79998779296875</AltitudeMeters>
            <DistanceMeters>381088.65835865</DistanceMeters>
          </Trackpoint>
          <Trackpoint>
            <Time>2021-08-01T11:10:19.000Z</Time>
            <Position>
              <LatitudeDegrees>41.93948711268603801727294921875</LatitudeDegrees>
              <LongitudeDegrees>-2.1239915303885936737060546875</LongitudeDegrees>
            </Position>
            <AltitudeMeters>874.4000244140625</AltitudeMeters>
            <DistanceMeters>381132.61188655</DistanceMeters>
          </Trackpoint>
          <Trackpoint>
            <Time>2021-08-01T11:10:22.000Z</Time>
            <Position>
              <LatitudeDegrees>41.93936607800424098968505859375</LatitudeDegrees>
              <LongitudeDegrees>-2.12370537221431732177734375</LongitudeDegrees>
            </Position>
            <AltitudeMeters>873.20001220703125</AltitudeMeters>
            <DistanceMeters>381159.86550847</DistanceMeters>
          </Trackpoint>
          <Trackpoint>
            <Time>2021-08-01T11:10:29.000Z</Time>
            <Position>
              <LatitudeDegrees>41.93908025510609149932861328125</LatitudeDegrees>
              <LongitudeDegrees>-2.123008333146572113037109375</LongitudeDegrees>
            </Position>
            <AltitudeMeters>871.79998779296875</AltitudeMeters>
            <DistanceMeters>381225.76268095</DistanceMeters>
          </Trackpoint>
          <Trackpoint>
            <Time>2021-08-01T11:10:32.000Z</Time>
            <Position>
              <LatitudeDegrees>41.93894128315150737762451171875</LatitudeDegrees>
              <LongitudeDegrees>-2.12272091768682003021240234375</LongitudeDegrees>
            </Position>
            <AltitudeMeters>870.79998779296875</AltitudeMeters>
            <DistanceMeters>381254.14386924</DistanceMeters>
          </Trackpoint>
          <Trackpoint>
            <Time>2021-08-01T11:10:38.000Z</Time>
            <Position>
              <LatitudeDegrees>41.93861849606037139892578125</LatitudeDegrees>
              <LongitudeDegrees>-2.12219185195863246917724609375</LongitudeDegrees>
            </Position>
            <AltitudeMeters>869.79998779296875</AltitudeMeters>
            <DistanceMeters>381310.79573284</DistanceMeters>
          </Trackpoint>
          <Trackpoint>
            <Time>2021-08-01T11:10:45.000Z</Time>
            <Position>
              <LatitudeDegrees>41.9382384605705738067626953125</LatitudeDegrees>
              <LongitudeDegrees>-2.1216187812387943267822265625</LongitudeDegrees>
            </Position>
            <AltitudeMeters>869</AltitudeMeters>
            <DistanceMeters>381374.35944233</DistanceMeters>
          </Trackpoint>
          <Trackpoint>
            <Time>2021-08-01T11:10:48.000Z</Time>
            <Position>
              <LatitudeDegrees>41.9380825571715831756591796875</LatitudeDegrees>
              <LongitudeDegrees>-2.12137444876134395599365234375</LongitudeDegrees>
            </Position>
            <AltitudeMeters>868.79998779296875</AltitudeMeters>
            <DistanceMeters>381401.0115136</DistanceMeters>
          </Trackpoint>
          <Trackpoint>
            <Time>2021-08-01T11:10:55.000Z</Time>
            <Position>
              <LatitudeDegrees>41.93773060105741024017333984375</LatitudeDegrees>
              <LongitudeDegrees>-2.1208134479820728302001953125</LongitudeDegrees>
            </Position>
            <AltitudeMeters>868.5999755859375</AltitudeMeters>
            <DistanceMeters>381461.77275696</DistanceMeters>
          </Trackpoint>
          <Trackpoint>
            <Time>2021-08-01T11:11:02.000Z</Time>
            <Position>
              <LatitudeDegrees>41.93749004043638706207275390625</LatitudeDegrees>
              <LongitudeDegrees>-2.1201787702739238739013671875</LongitudeDegrees>
            </Position>
            <AltitudeMeters>867.79998779296875</AltitudeMeters>
            <DistanceMeters>381520.74875822</DistanceMeters>
          </Trackpoint>
          <Trackpoint>
            <Time>2021-08-01T11:11:05.000Z</Time>
            <Position>
              <LatitudeDegrees>41.937401108443737030029296875</LatitudeDegrees>
              <LongitudeDegrees>-2.1198961324989795684814453125</LongitudeDegrees>
            </Position>
            <AltitudeMeters>866.4000244140625</AltitudeMeters>
            <DistanceMeters>381546.15698966</DistanceMeters>
          </Trackpoint>
          <Trackpoint>
            <Time>2021-08-01T11:11:13.000Z</Time>
            <Position>
              <LatitudeDegrees>41.93718913011252880096435546875</LatitudeDegrees>
              <LongitudeDegrees>-2.11916506290435791015625</LongitudeDegrees>
            </Position>
            <AltitudeMeters>865.20001220703125</AltitudeMeters>
            <DistanceMeters>381611.12163303</DistanceMeters>
          </Trackpoint>
          <Trackpoint>
            <Time>2021-08-01T11:11:19.000Z</Time>
            <Position>
              <LatitudeDegrees>41.93708133883774280548095703125</LatitudeDegrees>
              <LongitudeDegrees>-2.118618898093700408935546875</LongitudeDegrees>
            </Position>
            <AltitudeMeters>864.20001220703125</AltitudeMeters>
            <DistanceMeters>381657.90595881</DistanceMeters>
          </Trackpoint>
          <Trackpoint>
            <Time>2021-08-01T11:11:25.000Z</Time>
            <Position>
              <LatitudeDegrees>41.93697991780936717987060546875</LatitudeDegrees>
              <LongitudeDegrees>-2.118080444633960723876953125</LongitudeDegrees>
            </Position>
            <AltitudeMeters>863</AltitudeMeters>
            <DistanceMeters>381703.89437261</DistanceMeters>
          </Trackpoint>
          <Trackpoint>
            <Time>2021-08-01T11:11:34.000Z</Time>
            <Position>
              <LatitudeDegrees>41.93684698082506656646728515625</LatitudeDegrees>
              <LongitudeDegrees>-2.1173406578600406646728515625</LongitudeDegrees>
            </Position>
            <AltitudeMeters>863.79998779296875</AltitudeMeters>
            <DistanceMeters>381766.90704478</DistanceMeters>
          </Trackpoint>
          <Trackpoint>
            <Time>2021-08-01T11:11:36.000Z</Time>
            <Position>
              <LatitudeDegrees>41.93681814707815647125244140625</LatitudeDegrees>
              <LongitudeDegrees>-2.1171961538493633270263671875</LongitudeDegrees>
            </Position>
            <AltitudeMeters>864.5999755859375</AltitudeMeters>
            <DistanceMeters>381779.29409684</DistanceMeters>
          </Trackpoint>
          <Trackpoint>
            <Time>2021-08-01T11:11:41.000Z</Time>
            <Position>
              <LatitudeDegrees>41.936758719384670257568359375</LatitudeDegrees>
              <LongitudeDegrees>-2.11685140617191791534423828125</LongitudeDegrees>
            </Position>
            <AltitudeMeters>865.5999755859375</AltitudeMeters>
            <DistanceMeters>381808.59408605</DistanceMeters>
          </Trackpoint>
          <Trackpoint>
            <Time>2021-08-01T11:11:45.000Z</Time>
            <Position>
              <LatitudeDegrees>41.936743296682834625244140625</LatitudeDegrees>
              <LongitudeDegrees>-2.1166003681719303131103515625</LongitudeDegrees>
            </Position>
            <AltitudeMeters>866.79998779296875</AltitudeMeters>
            <DistanceMeters>381829.44958154</DistanceMeters>
          </Trackpoint>
          <Trackpoint>
            <Time>2021-08-01T11:11:49.000Z</Time>
            <Position>
              <LatitudeDegrees>41.93678897805511951446533203125</LatitudeDegrees>
              <LongitudeDegrees>-2.1163797564804553985595703125</LongitudeDegrees>
            </Position>
            <AltitudeMeters>867.79998779296875</AltitudeMeters>
            <DistanceMeters>381848.409733</DistanceMeters>
          </Trackpoint>
          <Trackpoint>
            <Time>2021-08-01T11:11:53.000Z</Time>
            <Position>
              <LatitudeDegrees>41.93689576350152492523193359375</LatitudeDegrees>
              <LongitudeDegrees>-2.1162092685699462890625</LongitudeDegrees>
            </Position>
            <AltitudeMeters>869</AltitudeMeters>
            <DistanceMeters>381866.86303033</DistanceMeters>
          </Trackpoint>
          <Trackpoint>
            <Time>2021-08-01T11:11:56.000Z</Time>
            <Position>
              <LatitudeDegrees>41.937011182308197021484375</LatitudeDegrees>
              <LongitudeDegrees>-2.11612486280500888824462890625</LongitudeDegrees>
            </Position>
            <AltitudeMeters>870</AltitudeMeters>
            <DistanceMeters>381881.48788557</DistanceMeters>
          </Trackpoint>
          <Trackpoint>
            <Time>2021-08-01T11:11:57.000Z</Time>
            <Position>
              <LatitudeDegrees>41.9370532594621181488037109375</LatitudeDegrees>
              <LongitudeDegrees>-2.11610273458063602447509765625</LongitudeDegrees>
            </Position>
            <AltitudeMeters>870.20001220703125</AltitudeMeters>
            <DistanceMeters>381886.51802217</DistanceMeters>
          </Trackpoint>
          <Trackpoint>
            <Time>2021-08-01T11:12:00.000Z</Time>
            <Position>
              <LatitudeDegrees>41.937183849513530731201171875</LatitudeDegrees>
              <LongitudeDegrees>-2.11605143733322620391845703125</LongitudeDegrees>
            </Position>
            <AltitudeMeters>871.20001220703125</AltitudeMeters>
            <DistanceMeters>381901.66099946</DistanceMeters>
          </Trackpoint>
          <Trackpoint>
            <Time>2021-08-01T11:12:12.000Z</Time>
            <Position>
              <LatitudeDegrees>41.937716938555240631103515625</LatitudeDegrees>
              <LongitudeDegrees>-2.115841805934906005859375</LongitudeDegrees>
            </Position>
            <AltitudeMeters>871.20001220703125</AltitudeMeters>
            <DistanceMeters>381963.48126372</DistanceMeters>
          </Trackpoint>
          <Trackpoint>
            <Time>2021-08-01T11:12:24.000Z</Time>
            <Position>
              <LatitudeDegrees>41.938248686492443084716796875</LatitudeDegrees>
              <LongitudeDegrees>-2.1156300790607929229736328125</LongitudeDegrees>
            </Position>
            <AltitudeMeters>870.5999755859375</AltitudeMeters>
            <DistanceMeters>382025.20738732</DistanceMeters>
          </Trackpoint>
          <Trackpoint>
            <Time>2021-08-01T11:12:37.000Z</Time>
            <Position>
              <LatitudeDegrees>41.9387977011501789093017578125</LatitudeDegrees>
              <LongitudeDegrees>-2.11540217511355876922607421875</LongitudeDegrees>
            </Position>
            <AltitudeMeters>872.20001220703125</AltitudeMeters>
            <DistanceMeters>382089.16071908</DistanceMeters>
          </Trackpoint>
          <Trackpoint>
            <Time>2021-08-01T11:12:39.000Z</Time>
            <Position>
              <LatitudeDegrees>41.93887867033481597900390625</LatitudeDegrees>
              <LongitudeDegrees>-2.11536630056798458099365234375</LongitudeDegrees>
            </Position>
            <AltitudeMeters>872</AltitudeMeters>
            <DistanceMeters>382098.64960164</DistanceMeters>
          </Trackpoint>
          <Trackpoint>
            <Time>2021-08-01T11:12:43.000Z</Time>
            <Position>
              <LatitudeDegrees>41.93902350962162017822265625</LatitudeDegrees>
              <LongitudeDegrees>-2.11525800637900829315185546875</LongitudeDegrees>
            </Position>
            <AltitudeMeters>871.5999755859375</AltitudeMeters>
            <DistanceMeters>382117.09604684</DistanceMeters>
          </Trackpoint>
          <Trackpoint>
            <Time>2021-08-01T11:12:47.000Z</Time>
            <Position>
              <LatitudeDegrees>41.93912970833480358123779296875</LatitudeDegrees>
              <LongitudeDegrees>-2.1150953136384487152099609375</LongitudeDegrees>
            </Position>
            <AltitudeMeters>872.4000244140625</AltitudeMeters>
            <DistanceMeters>382135.01658363</DistanceMeters>
          </Trackpoint>
          <Trackpoint>
            <Time>2021-08-01T11:12:50.000Z</Time>
            <Position>
              <LatitudeDegrees>41.93917765282094478607177734375</LatitudeDegrees>
              <LongitudeDegrees>-2.11494435556232929229736328125</LongitudeDegrees>
            </Position>
            <AltitudeMeters>873.5999755859375</AltitudeMeters>
            <DistanceMeters>382148.60640053</DistanceMeters>
          </Trackpoint>
          <Trackpoint>
            <Time>2021-08-01T11:12:53.000Z</Time>
            <Position>
              <LatitudeDegrees>41.9392000325024127960205078125</LatitudeDegrees>
              <LongitudeDegrees>-2.1147764660418033599853515625</LongitudeDegrees>
            </Position>
            <AltitudeMeters>874.20001220703125</AltitudeMeters>
            <DistanceMeters>382162.72802254</DistanceMeters>
          </Trackpoint>
          <Trackpoint>
            <Time>2021-08-01T11:13:03.000Z</Time>
            <Position>
              <LatitudeDegrees>41.93922911770641803741455078125</LatitudeDegrees>
              <LongitudeDegrees>-2.1141877211630344390869140625</LongitudeDegrees>
            </Position>
            <AltitudeMeters>874.5999755859375</AltitudeMeters>
            <DistanceMeters>382211.57905582</DistanceMeters>
          </Trackpoint>
          <Trackpoint>
            <Time>2021-08-01T11:13:12.000Z</Time>
            <Position>
              <LatitudeDegrees>41.9392439536750316619873046875</LatitudeDegrees>
              <LongitudeDegrees>-2.1136732399463653564453125</LongitudeDegrees>
            </Position>
            <AltitudeMeters>873.4000244140625</AltitudeMeters>
            <DistanceMeters>382254.20624353</DistanceMeters>
          </Trackpoint>
          <Trackpoint>
            <Time>2021-08-01T11:13:23.000Z</Time>
            <Position>
              <LatitudeDegrees>41.939275301992893218994140625</LatitudeDegrees>
              <LongitudeDegrees>-2.11304116062819957733154296875</LongitudeDegrees>
            </Position>
            <AltitudeMeters>874.79998779296875</AltitudeMeters>
            <DistanceMeters>382306.65375907</DistanceMeters>
          </Trackpoint>
          <Trackpoint>
            <Time>2021-08-01T11:13:35.000Z</Time>
            <Position>
              <LatitudeDegrees>41.93940748460590839385986328125</LatitudeDegrees>
              <LongitudeDegrees>-2.1122843585908412933349609375</LongitudeDegrees>
            </Position>
            <AltitudeMeters>874.20001220703125</AltitudeMeters>
            <DistanceMeters>382371.01526222</DistanceMeters>
          </Trackpoint>
          <Trackpoint>
            <Time>2021-08-01T11:13:38.000Z</Time>
            <Position>
              <LatitudeDegrees>41.9394612126052379608154296875</LatitudeDegrees>
              <LongitudeDegrees>-2.11207757703959941864013671875</LongitudeDegrees>
            </Position>
            <AltitudeMeters>873.5999755859375</AltitudeMeters>
            <DistanceMeters>382389.14943697</DistanceMeters>
          </Trackpoint>
          <Trackpoint>
            <Time>2021-08-01T11:13:49.000Z</Time>
            <Position>
              <LatitudeDegrees>41.9396278448402881622314453125</LatitudeDegrees>
              <LongitudeDegrees>-2.11131633259356021881103515625</LongitudeDegrees>
            </Position>
            <AltitudeMeters>874</AltitudeMeters>
            <DistanceMeters>382454.84664922</DistanceMeters>
          </Trackpoint>
          <Trackpoint>
            <Time>2021-08-01T11:13:53.000Z</Time>
            <Position>
              <LatitudeDegrees>41.93966112099587917327880859375</LatitudeDegrees>
              <LongitudeDegrees>-2.11103285662829875946044921875</LongitudeDegrees>
            </Position>
            <AltitudeMeters>874.79998779296875</AltitudeMeters>
            <DistanceMeters>382478.60674853</DistanceMeters>
          </Trackpoint>
          <Trackpoint>
            <Time>2021-08-01T11:13:57.000Z</Time>
            <Position>
              <LatitudeDegrees>41.93966380320489406585693359375</LatitudeDegrees>
              <LongitudeDegrees>-2.11074636317789554595947265625</LongitudeDegrees>
            </Position>
            <AltitudeMeters>874.4000244140625</AltitudeMeters>
            <DistanceMeters>382502.32786051</DistanceMeters>
          </Trackpoint>
          <Trackpoint>
            <Time>2021-08-01T11:14:03.000Z</Time>
            <Position>
              <LatitudeDegrees>41.939524747431278228759765625</LatitudeDegrees>
              <LongitudeDegrees>-2.11037253029644489288330078125</LongitudeDegrees>
            </Position>
            <AltitudeMeters>875</AltitudeMeters>
            <DistanceMeters>382536.93220095</DistanceMeters>
          </Trackpoint>
          <Trackpoint>
            <Time>2021-08-01T11:14:14.000Z</Time>
            <Position>
              <LatitudeDegrees>41.93919290788471698760986328125</LatitudeDegrees>
              <LongitudeDegrees>-2.10982703603804111480712890625</LongitudeDegrees>
            </Position>
            <AltitudeMeters>875</AltitudeMeters>
            <DistanceMeters>382595.27442472</DistanceMeters>
          </Trackpoint>
          <Trackpoint>
            <Time>2021-08-01T11:14:19.000Z</Time>
            <Position>
              <LatitudeDegrees>41.93915569223463535308837890625</LatitudeDegrees>
              <LongitudeDegrees>-2.1095324121415615081787109375</LongitudeDegrees>
            </Position>
            <AltitudeMeters>874.5999755859375</AltitudeMeters>
            <DistanceMeters>382620.01624988</DistanceMeters>
          </Trackpoint>
          <Trackpoint>
            <Time>2021-08-01T11:14:23.000Z</Time>
            <Position>
              <LatitudeDegrees>41.9391596317291259765625</LatitudeDegrees>
              <LongitudeDegrees>-2.10929394699633121490478515625</LongitudeDegrees>
            </Position>
            <AltitudeMeters>874.20001220703125</AltitudeMeters>
            <DistanceMeters>382639.76420956</DistanceMeters>
          </Trackpoint>
          <Trackpoint>
            <Time>2021-08-01T11:14:26.000Z</Time>
            <Position>
              <LatitudeDegrees>41.9391219131648540496826171875</LatitudeDegrees>
              <LongitudeDegrees>-2.10913569666445255279541015625</LongitudeDegrees>
            </Position>
            <AltitudeMeters>873.79998779296875</AltitudeMeters>
            <DistanceMeters>382653.52209574</DistanceMeters>
          </Trackpoint>
          <Trackpoint>
            <Time>2021-08-01T11:14:29.000Z</Time>
            <Position>
              <LatitudeDegrees>41.9390427879989147186279296875</LatitudeDegrees>
              <LongitudeDegrees>-2.1090154163539409637451171875</LongitudeDegrees>
            </Position>
            <AltitudeMeters>873.79998779296875</AltitudeMeters>
            <DistanceMeters>382666.81565042</DistanceMeters>
          </Trackpoint>
          <Trackpoint>
            <Time>2021-08-01T11:14:39.000Z</Time>
            <Position>
              <LatitudeDegrees>41.93873190321028232574462890625</LatitudeDegrees>
              <LongitudeDegrees>-2.1087518893182277679443359375</LongitudeDegrees>
            </Position>
            <AltitudeMeters>875</AltitudeMeters>
            <DistanceMeters>382707.72208483</DistanceMeters>
          </Trackpoint>
          <Trackpoint>
            <Time>2021-08-01T11:14:54.000Z</Time>
            <Position>
              <LatitudeDegrees>41.93828615359961986541748046875</LatitudeDegrees>
              <LongitudeDegrees>-2.108683325350284576416015625</LongitudeDegrees>
            </Position>
            <AltitudeMeters>874.20001220703125</AltitudeMeters>
            <DistanceMeters>382757.65860062</DistanceMeters>
          </Trackpoint>
          <Trackpoint>
            <Time>2021-08-01T11:14:59.000Z</Time>
            <Position>
              <LatitudeDegrees>41.93813125602900981903076171875</LatitudeDegrees>
              <LongitudeDegrees>-2.10871861316263675689697265625</LongitudeDegrees>
            </Position>
            <AltitudeMeters>873</AltitudeMeters>
            <DistanceMeters>382775.14506535</DistanceMeters>
          </Trackpoint>
          <Trackpoint>
            <Time>2021-08-01T11:15:04.000Z</Time>
            <Position>
              <LatitudeDegrees>41.9380532205104827880859375</LatitudeDegrees>
              <LongitudeDegrees>-2.1086744405329227447509765625</LongitudeDegrees>
            </Position>
            <AltitudeMeters>872.4000244140625</AltitudeMeters>
            <DistanceMeters>382784.56949275</DistanceMeters>
          </Trackpoint>
          <Trackpoint>
            <Time>2021-08-01T11:15:08.000Z</Time>
            <Position>
              <LatitudeDegrees>41.93802044726908206939697265625</LatitudeDegrees>
              <LongitudeDegrees>-2.1085751987993717193603515625</LongitudeDegrees>
            </Position>
            <AltitudeMeters>872</AltitudeMeters>
            <DistanceMeters>382793.55944182</DistanceMeters>
          </Trackpoint>
          <Trackpoint>
            <Time>2021-08-01T11:15:15.000Z</Time>
            <Position>
              <LatitudeDegrees>41.93795087747275829315185546875</LatitudeDegrees>
              <LongitudeDegrees>-2.10843396373093128204345703125</LongitudeDegrees>
            </Position>
            <AltitudeMeters>872.20001220703125</AltitudeMeters>
            <DistanceMeters>382807.5838525</DistanceMeters>
          </Trackpoint>
          <Trackpoint>
            <Time>2021-08-01T11:15:35.000Z</Time>
            <Position>
              <LatitudeDegrees>41.93796428851783275604248046875</LatitudeDegrees>
              <LongitudeDegrees>-2.108456008136272430419921875</LongitudeDegrees>
            </Position>
            <AltitudeMeters>872.4000244140625</AltitudeMeters>
            <DistanceMeters>382809.93852168</DistanceMeters>
          </Trackpoint>
          <Trackpoint>
            <Time>2021-08-01T11:15:50.000Z</Time>
            <Position>
              <LatitudeDegrees>41.9380129873752593994140625</LatitudeDegrees>
              <LongitudeDegrees>-2.10897442884743213653564453125</LongitudeDegrees>
            </Position>
            <AltitudeMeters>871.20001220703125</AltitudeMeters>
            <DistanceMeters>382853.20146199</DistanceMeters>
          </Trackpoint>
          <Trackpoint>
            <Time>2021-08-01T11:15:53.000Z</Time>
            <Position>
              <LatitudeDegrees>41.93801994435489177703857421875</LatitudeDegrees>
              <LongitudeDegrees>-2.109064869582653045654296875</LongitudeDegrees>
            </Position>
            <AltitudeMeters>870.79998779296875</AltitudeMeters>
            <DistanceMeters>382860.72959322</DistanceMeters>
          </Trackpoint>
          <Trackpoint>
            <Time>2021-08-01T11:15:58.000Z</Time>
            <Position>
              <LatitudeDegrees>41.9379819743335247039794921875</LatitudeDegrees>
              <LongitudeDegrees>-2.1090878359973430633544921875</LongitudeDegrees>
            </Position>
            <AltitudeMeters>870.5999755859375</AltitudeMeters>
            <DistanceMeters>382865.36549464</DistanceMeters>
          </Trackpoint>
          <Trackpoint>
            <Time>2021-08-01T11:22:13.000Z</Time>
            <Position>
              <LatitudeDegrees>41.93794534541666507720947265625</LatitudeDegrees>
              <LongitudeDegrees>-2.10903326980769634246826171875</LongitudeDegrees>
            </Position>
            <AltitudeMeters>870.5999755859375</AltitudeMeters>
            <DistanceMeters>382871.45017322</DistanceMeters>
          </Trackpoint>
          <Trackpoint>
            <Time>2021-08-01T11:22:32.000Z</Time>
            <Position>
              <LatitudeDegrees>41.9379437528550624847412109375</LatitudeDegrees>
              <LongitudeDegrees>-2.10908330976963043212890625</LongitudeDegrees>
            </Position>
            <AltitudeMeters>870.79998779296875</AltitudeMeters>
            <DistanceMeters>382875.5966495</DistanceMeters>
          </Trackpoint>
          <Trackpoint>
            <Time>2021-08-01T11:22:37.000Z</Time>
            <Position>
              <LatitudeDegrees>41.9378974847495555877685546875</LatitudeDegrees>
              <LongitudeDegrees>-2.1090754307806491851806640625</LongitudeDegrees>
            </Position>
            <AltitudeMeters>871</AltitudeMeters>
            <DistanceMeters>382880.78670904</DistanceMeters>
          </Trackpoint>
          <Trackpoint>
            <Time>2021-08-01T11:28:03.000Z</Time>
            <Position>
              <LatitudeDegrees>41.93785062991082668304443359375</LatitudeDegrees>
              <LongitudeDegrees>-2.10903494618833065032958984375</LongitudeDegrees>
            </Position>
            <AltitudeMeters>870.79998779296875</AltitudeMeters>
            <DistanceMeters>382886.98533592</DistanceMeters>
          </Trackpoint>
          <Trackpoint>
            <Time>2021-08-01T11:28:07.000Z</Time>
            <Position>
              <LatitudeDegrees>41.93778072483837604522705078125</LatitudeDegrees>
              <LongitudeDegrees>-2.10899613797664642333984375</LongitudeDegrees>
            </Position>
            <AltitudeMeters>870.5999755859375</AltitudeMeters>
            <DistanceMeters>382895.40257893</DistanceMeters>
          </Trackpoint>
          <Trackpoint>
            <Time>2021-08-01T11:28:13.000Z</Time>
            <Position>
              <LatitudeDegrees>41.9377452693879604339599609375</LatitudeDegrees>
              <LongitudeDegrees>-2.1088732592761516571044921875</LongitudeDegrees>
            </Position>
            <AltitudeMeters>870.79998779296875</AltitudeMeters>
            <DistanceMeters>382906.31493972</DistanceMeters>
          </Trackpoint>
          <Trackpoint>
            <Time>2021-08-01T11:28:15.000Z</Time>
            <Position>
              <LatitudeDegrees>41.93773412145674228668212890625</LatitudeDegrees>
              <LongitudeDegrees>-2.1088290028274059295654296875</LongitudeDegrees>
            </Position>
            <AltitudeMeters>870.79998779296875</AltitudeMeters>
            <DistanceMeters>382910.18428937</DistanceMeters>
          </Trackpoint>
          <Trackpoint>
            <Time>2021-08-01T11:28:19.000Z</Time>
            <Position>
              <LatitudeDegrees>41.93764728493988513946533203125</LatitudeDegrees>
              <LongitudeDegrees>-2.1087996661663055419921875</LongitudeDegrees>
            </Position>
            <AltitudeMeters>869.79998779296875</AltitudeMeters>
            <DistanceMeters>382920.15032223</DistanceMeters>
          </Trackpoint>
          <Trackpoint>
            <Time>2021-08-01T11:28:28.000Z</Time>
            <Position>
              <LatitudeDegrees>41.93741041235625743865966796875</LatitudeDegrees>
              <LongitudeDegrees>-2.10861660540103912353515625</LongitudeDegrees>
            </Position>
            <AltitudeMeters>868.79998779296875</AltitudeMeters>
            <DistanceMeters>382950.56094946</DistanceMeters>
          </Trackpoint>
          <Trackpoint>
            <Time>2021-08-01T11:28:29.000Z</Time>
            <Position>
              <LatitudeDegrees>41.93738333880901336669921875</LatitudeDegrees>
              <LongitudeDegrees>-2.10860026068985462188720703125</LongitudeDegrees>
            </Position>
            <AltitudeMeters>868.5999755859375</AltitudeMeters>
            <DistanceMeters>382953.86645888</DistanceMeters>
          </Trackpoint>
          <Trackpoint>
            <Time>2021-08-01T11:28:33.000Z</Time>
            <Position>
              <LatitudeDegrees>41.9372514076530933380126953125</LatitudeDegrees>
              <LongitudeDegrees>-2.1085601113736629486083984375</LongitudeDegrees>
            </Position>
            <AltitudeMeters>867.4000244140625</AltitudeMeters>
            <DistanceMeters>382968.92212156</DistanceMeters>
          </Trackpoint>
          <Trackpoint>
            <Time>2021-08-01T11:28:34.000Z</Time>
            <Position>
              <LatitudeDegrees>41.93721301853656768798828125</LatitudeDegrees>
              <LongitudeDegrees>-2.1085537411272525787353515625</LongitudeDegrees>
            </Position>
            <AltitudeMeters>867</AltitudeMeters>
            <DistanceMeters>382973.22778608</DistanceMeters>
          </Trackpoint>
          <Trackpoint>
            <Time>2021-08-01T11:28:36.000Z</Time>
            <Position>
              <LatitudeDegrees>41.9371236674487590789794921875</LatitudeDegrees>
              <LongitudeDegrees>-2.1085215546190738677978515625</LongitudeDegrees>
            </Position>
            <AltitudeMeters>866.20001220703125</AltitudeMeters>
            <DistanceMeters>382983.52361375</DistanceMeters>
          </Trackpoint>
          <Trackpoint>
            <Time>2021-08-01T11:28:37.000Z</Time>
            <Position>
              <LatitudeDegrees>41.93707630969583988189697265625</LatitudeDegrees>
              <LongitudeDegrees>-2.10850068368017673492431640625</LongitudeDegrees>
            </Position>
            <AltitudeMeters>866</AltitudeMeters>
            <DistanceMeters>382989.0710907</DistanceMeters>
          </Trackpoint>
          <Trackpoint>
            <Time>2021-08-01T11:28:40.000Z</Time>
            <Position>
              <LatitudeDegrees>41.93695913068950176239013671875</LatitudeDegrees>
              <LongitudeDegrees>-2.1084055490791797637939453125</LongitudeDegrees>
            </Position>
            <AltitudeMeters>865.20001220703125</AltitudeMeters>
            <DistanceMeters>383004.30681008</DistanceMeters>
          </Trackpoint>
          <Trackpoint>
            <Time>2021-08-01T11:28:41.000Z</Time>
            <Position>
              <LatitudeDegrees>41.936920993030071258544921875</LatitudeDegrees>
              <LongitudeDegrees>-2.1083656512200832366943359375</LongitudeDegrees>
            </Position>
            <AltitudeMeters>865</AltitudeMeters>
            <DistanceMeters>383009.68569146</DistanceMeters>
          </Trackpoint>
          <Trackpoint>
            <Time>2021-08-01T11:28:44.000Z</Time>
            <Position>
              <LatitudeDegrees>41.9368319772183895111083984375</LatitudeDegrees>
              <LongitudeDegrees>-2.10819281637668609619140625</LongitudeDegrees>
            </Position>
            <AltitudeMeters>864</AltitudeMeters>
            <DistanceMeters>383027.09089197</DistanceMeters>
          </Trackpoint>
          <Trackpoint>
            <Time>2021-08-01T11:28:46.000Z</Time>
            <Position>
              <LatitudeDegrees>41.93680322729051113128662109375</LatitudeDegrees>
              <LongitudeDegrees>-2.10805376060307025909423828125</LongitudeDegrees>
            </Position>
            <AltitudeMeters>862.79998779296875</AltitudeMeters>
            <DistanceMeters>383039.04085552</DistanceMeters>
          </Trackpoint>
          <Trackpoint>
            <Time>2021-08-01T11:28:47.000Z</Time>
            <Position>
              <LatitudeDegrees>41.93679635412991046905517578125</LatitudeDegrees>
              <LongitudeDegrees>-2.10798368789255619049072265625</LongitudeDegrees>
            </Position>
            <AltitudeMeters>862</AltitudeMeters>
            <DistanceMeters>383044.89252621</DistanceMeters>
          </Trackpoint>
          <Trackpoint>
            <Time>2021-08-01T11:28:48.000Z</Time>
            <Position>
              <LatitudeDegrees>41.9367925822734832763671875</LatitudeDegrees>
              <LongitudeDegrees>-2.107918895781040191650390625</LongitudeDegrees>
            </Position>
            <AltitudeMeters>861.5999755859375</AltitudeMeters>
            <DistanceMeters>383050.27308613</DistanceMeters>
          </Trackpoint>
          <Trackpoint>
            <Time>2021-08-01T11:28:51.000Z</Time>
            <Position>
              <LatitudeDegrees>41.9367954321205615997314453125</LatitudeDegrees>
              <LongitudeDegrees>-2.1078017167747020721435546875</LongitudeDegrees>
            </Position>
            <AltitudeMeters>862.79998779296875</AltitudeMeters>
            <DistanceMeters>383059.98024059</DistanceMeters>
          </Trackpoint>
          <Trackpoint>
            <Time>2021-08-01T11:28:58.000Z</Time>
            <Position>
              <LatitudeDegrees>41.93680456839501857757568359375</LatitudeDegrees>
              <LongitudeDegrees>-2.107639610767364501953125</LongitudeDegrees>
            </Position>
            <AltitudeMeters>862</AltitudeMeters>
            <DistanceMeters>383073.44019689</DistanceMeters>
          </Trackpoint>
          <Trackpoint>
            <Time>2021-08-01T11:29:01.000Z</Time>
            <Position>
              <LatitudeDegrees>41.9367863796651363372802734375</LatitudeDegrees>
              <LongitudeDegrees>-2.1074795164167881011962890625</LongitudeDegrees>
            </Position>
            <AltitudeMeters>860</AltitudeMeters>
            <DistanceMeters>383086.84906903</DistanceMeters>
          </Trackpoint>
          <Trackpoint>
            <Time>2021-08-01T11:29:02.000Z</Time>
            <Position>
              <LatitudeDegrees>41.93678026087582111358642578125</LatitudeDegrees>
              <LongitudeDegrees>-2.10741304792463779449462890625</LongitudeDegrees>
            </Position>
            <AltitudeMeters>858</AltitudeMeters>
            <DistanceMeters>383092.39491797</DistanceMeters>
          </Trackpoint>
          <Trackpoint>
            <Time>2021-08-01T11:29:03.000Z</Time>
            <Position>
              <LatitudeDegrees>41.9367759861052036285400390625</LatitudeDegrees>
              <LongitudeDegrees>-2.10733828134834766387939453125</LongitudeDegrees>
            </Position>
            <AltitudeMeters>856.79998779296875</AltitudeMeters>
            <DistanceMeters>383098.60300674</DistanceMeters>
          </Trackpoint>
          <Trackpoint>
            <Time>2021-08-01T11:29:05.000Z</Time>
            <Position>
              <LatitudeDegrees>41.93677657283842563629150390625</LatitudeDegrees>
              <LongitudeDegrees>-2.10718438960611820220947265625</LongitudeDegrees>
            </Position>
            <AltitudeMeters>855.20001220703125</AltitudeMeters>
            <DistanceMeters>383111.34509348</DistanceMeters>
          </Trackpoint>
          <Trackpoint>
            <Time>2021-08-01T11:29:06.000Z</Time>
            <Position>
              <LatitudeDegrees>41.93678210489451885223388671875</LatitudeDegrees>
              <LongitudeDegrees>-2.10711180232465267181396484375</LongitudeDegrees>
            </Position>
            <AltitudeMeters>854.79998779296875</AltitudeMeters>
            <DistanceMeters>383117.3865808</DistanceMeters>
          </Trackpoint>
          <Trackpoint>
            <Time>2021-08-01T11:29:12.000Z</Time>
            <Position>
              <LatitudeDegrees>41.9368095137178897857666015625</LatitudeDegrees>
              <LongitudeDegrees>-2.10680334828794002532958984375</LongitudeDegrees>
            </Position>
            <AltitudeMeters>856.5999755859375</AltitudeMeters>
            <DistanceMeters>383143.10671571</DistanceMeters>
          </Trackpoint>
          <Trackpoint>
            <Time>2021-08-01T11:29:14.000Z</Time>
            <Position>
              <LatitudeDegrees>41.9368061609566211700439453125</LatitudeDegrees>
              <LongitudeDegrees>-2.10674836300313472747802734375</LongitudeDegrees>
            </Position>
            <AltitudeMeters>857.4000244140625</AltitudeMeters>
            <DistanceMeters>383147.67393331</DistanceMeters>
          </Trackpoint>
          <Trackpoint>
            <Time>2021-08-01T11:29:15.000Z</Time>
            <Position>
              <LatitudeDegrees>41.93680473603308200836181640625</LatitudeDegrees>
              <LongitudeDegrees>-2.1067238040268421173095703125</LongitudeDegrees>
            </Position>
            <AltitudeMeters>857.5999755859375</AltitudeMeters>
            <DistanceMeters>383149.71202928</DistanceMeters>
          </Trackpoint>
          <Trackpoint>
            <Time>2021-08-01T11:29:17.000Z</Time>
            <Position>
              <LatitudeDegrees>41.93680574186146259307861328125</LatitudeDegrees>
              <LongitudeDegrees>-2.106677703559398651123046875</LongitudeDegrees>
            </Position>
            <AltitudeMeters>858.20001220703125</AltitudeMeters>
            <DistanceMeters>383153.53205592</DistanceMeters>
          </Trackpoint>
          <Trackpoint>
            <Time>2021-08-01T11:29:19.000Z</Time>
            <Position>
              <LatitudeDegrees>41.93680020980536937713623046875</LatitudeDegrees>
              <LongitudeDegrees>-2.106628753244876861572265625</LongitudeDegrees>
            </Position>
            <AltitudeMeters>858.79998779296875</AltitudeMeters>
            <DistanceMeters>383157.63034119</DistanceMeters>
          </Trackpoint>
          <Trackpoint>
            <Time>2021-08-01T11:29:25.000Z</Time>
            <Position>
              <LatitudeDegrees>41.9367565400898456573486328125</LatitudeDegrees>
              <LongitudeDegrees>-2.10645684041082859039306640625</LongitudeDegrees>
            </Position>
            <AltitudeMeters>859.79998779296875</AltitudeMeters>
            <DistanceMeters>383172.67100192</DistanceMeters>
          </Trackpoint>
          <Trackpoint>
            <Time>2021-08-01T11:29:41.000Z</Time>
            <Position>
              <LatitudeDegrees>41.93663558922708034515380859375</LatitudeDegrees>
              <LongitudeDegrees>-2.10576348938047885894775390625</LongitudeDegrees>
            </Position>
            <AltitudeMeters>858.79998779296875</AltitudeMeters>
            <DistanceMeters>383231.63482932</DistanceMeters>
          </Trackpoint>
          <Trackpoint>
            <Time>2021-08-01T11:29:43.000Z</Time>
            <Position>
              <LatitudeDegrees>41.9366334937512874603271484375</LatitudeDegrees>
              <LongitudeDegrees>-2.1056284569203853607177734375</LongitudeDegrees>
            </Position>
            <AltitudeMeters>858</AltitudeMeters>
            <DistanceMeters>383242.81733792</DistanceMeters>
          </Trackpoint>
          <Trackpoint>
            <Time>2021-08-01T11:29:44.000Z</Time>
            <Position>
              <LatitudeDegrees>41.93664179183542728424072265625</LatitudeDegrees>
              <LongitudeDegrees>-2.10554807446897029876708984375</LongitudeDegrees>
            </Position>
            <AltitudeMeters>857.4000244140625</AltitudeMeters>
            <DistanceMeters>383249.53674134</DistanceMeters>
          </Trackpoint>
          <Trackpoint>
            <Time>2021-08-01T11:29:46.000Z</Time>
            <Position>
              <LatitudeDegrees>41.9366611540317535400390625</LatitudeDegrees>
              <LongitudeDegrees>-2.105369456112384796142578125</LongitudeDegrees>
            </Position>
            <AltitudeMeters>855.79998779296875</AltitudeMeters>
            <DistanceMeters>383264.48163715</DistanceMeters>
          </Trackpoint>
          <Trackpoint>
            <Time>2021-08-01T11:29:47.000Z</Time>
            <Position>
              <LatitudeDegrees>41.93666190840303897857666015625</LatitudeDegrees>
              <LongitudeDegrees>-2.10528287105262279510498046875</LongitudeDegrees>
            </Position>
            <AltitudeMeters>855.20001220703125</AltitudeMeters>
            <DistanceMeters>383271.65096034</DistanceMeters>
          </Trackpoint>
          <Trackpoint>
            <Time>2021-08-01T11:29:48.000Z</Time>
            <Position>
              <LatitudeDegrees>41.9366515986621379852294921875</LatitudeDegrees>
              <LongitudeDegrees>-2.10520274005830287933349609375</LongitudeDegrees>
            </Position>
            <AltitudeMeters>854.5999755859375</AltitudeMeters>
            <DistanceMeters>383278.38378915</DistanceMeters>
          </Trackpoint>
          <Trackpoint>
            <Time>2021-08-01T11:29:59.000Z</Time>
            <Position>
              <LatitudeDegrees>41.9365184940397739410400390625</LatitudeDegrees>
              <LongitudeDegrees>-2.10450318641960620880126953125</LongitudeDegrees>
            </Position>
            <AltitudeMeters>855.5999755859375</AltitudeMeters>
            <DistanceMeters>383338.16865912</DistanceMeters>
          </Trackpoint>
          <Trackpoint>
            <Time>2021-08-01T11:30:11.000Z</Time>
            <Position>
              <LatitudeDegrees>41.9363944418728351593017578125</LatitudeDegrees>
              <LongitudeDegrees>-2.10385392419993877410888671875</LongitudeDegrees>
            </Position>
            <AltitudeMeters>855.4000244140625</AltitudeMeters>
            <DistanceMeters>383393.66987377</DistanceMeters>
          </Trackpoint>
          <Trackpoint>
            <Time>2021-08-01T11:30:17.000Z</Time>
            <Position>
              <LatitudeDegrees>41.93632177077233791351318359375</LatitudeDegrees>
              <LongitudeDegrees>-2.10351780988276004791259765625</LongitudeDegrees>
            </Position>
            <AltitudeMeters>854.4000244140625</AltitudeMeters>
            <DistanceMeters>383422.65037324</DistanceMeters>
          </Trackpoint>
          <Trackpoint>
            <Time>2021-08-01T11:30:20.000Z</Time>
            <Position>
              <LatitudeDegrees>41.93629880435764789581298828125</LatitudeDegrees>
              <LongitudeDegrees>-2.10334346629679203033447265625</LongitudeDegrees>
            </Position>
            <AltitudeMeters>853.79998779296875</AltitudeMeters>
            <DistanceMeters>383437.30976475</DistanceMeters>
          </Trackpoint>
          <Trackpoint>
            <Time>2021-08-01T11:30:21.000Z</Time>
            <Position>
              <LatitudeDegrees>41.93629863671958446502685546875</LatitudeDegrees>
              <LongitudeDegrees>-2.10328261367976665496826171875</LongitudeDegrees>
            </Position>
            <AltitudeMeters>853.4000244140625</AltitudeMeters>
            <DistanceMeters>383442.34707701</DistanceMeters>
          </Trackpoint>
          <Trackpoint>
            <Time>2021-08-01T11:30:34.000Z</Time>
            <Position>
              <LatitudeDegrees>41.9363843835890293121337890625</LatitudeDegrees>
              <LongitudeDegrees>-2.10251214914023876190185546875</LongitudeDegrees>
            </Position>
            <AltitudeMeters>852.79998779296875</AltitudeMeters>
            <DistanceMeters>383506.84852001</DistanceMeters>
          </Trackpoint>
          <Trackpoint>
            <Time>2021-08-01T11:30:46.000Z</Time>
            <Position>
              <LatitudeDegrees>41.936451606452465057373046875</LatitudeDegrees>
              <LongitudeDegrees>-2.10194461047649383544921875</LongitudeDegrees>
            </Position>
            <AltitudeMeters>854.4000244140625</AltitudeMeters>
            <DistanceMeters>383554.43053191</DistanceMeters>
          </Trackpoint>
          <Trackpoint>
            <Time>2021-08-01T11:30:59.000Z</Time>
            <Position>
              <LatitudeDegrees>41.93643995560705661773681640625</LatitudeDegrees>
              <LongitudeDegrees>-2.10145133547484874725341796875</LongitudeDegrees>
            </Position>
            <AltitudeMeters>853.20001220703125</AltitudeMeters>
            <DistanceMeters>383595.29246107</DistanceMeters>
          </Trackpoint>
          <Trackpoint>
            <Time>2021-08-01T11:31:06.000Z</Time>
            <Position>
              <LatitudeDegrees>41.93635404109954833984375</LatitudeDegrees>
              <LongitudeDegrees>-2.101104073226451873779296875</LongitudeDegrees>
            </Position>
            <AltitudeMeters>852</AltitudeMeters>
            <DistanceMeters>383625.59287299</DistanceMeters>
          </Trackpoint>
          <Trackpoint>
            <Time>2021-08-01T11:31:08.000Z</Time>
            <Position>
              <LatitudeDegrees>41.9363250397145748138427734375</LatitudeDegrees>
              <LongitudeDegrees>-2.10098479874432086944580078125</LongitudeDegrees>
            </Position>
            <AltitudeMeters>851.5999755859375</AltitudeMeters>
            <DistanceMeters>383635.982557</DistanceMeters>
          </Trackpoint>
          <Trackpoint>
            <Time>2021-08-01T11:31:13.000Z</Time>
            <Position>
              <LatitudeDegrees>41.93624633364379405975341796875</LatitudeDegrees>
              <LongitudeDegrees>-2.1006626822054386138916015625</LongitudeDegrees>
            </Position>
            <AltitudeMeters>850.79998779296875</AltitudeMeters>
            <DistanceMeters>383664.0542269</DistanceMeters>
          </Trackpoint>
          <Trackpoint>
            <Time>2021-08-01T11:31:21.000Z</Time>
            <Position>
              <LatitudeDegrees>41.936110295355319976806640625</LatitudeDegrees>
              <LongitudeDegrees>-2.10014610551297664642333984375</LongitudeDegrees>
            </Position>
            <AltitudeMeters>849.79998779296875</AltitudeMeters>
            <DistanceMeters>383709.42587583</DistanceMeters>
          </Trackpoint>
          <Trackpoint>
            <Time>2021-08-01T11:31:33.000Z</Time>
            <Position>
              <LatitudeDegrees>41.93589982576668262481689453125</LatitudeDegrees>
              <LongitudeDegrees>-2.09944722242653369903564453125</LongitudeDegrees>
            </Position>
            <AltitudeMeters>851</AltitudeMeters>
            <DistanceMeters>383771.85300304</DistanceMeters>
          </Trackpoint>
          <Trackpoint>
            <Time>2021-08-01T11:31:44.000Z</Time>
            <Position>
              <LatitudeDegrees>41.93575792014598846435546875</LatitudeDegrees>
              <LongitudeDegrees>-2.09874129854142665863037109375</LongitudeDegrees>
            </Position>
            <AltitudeMeters>851</AltitudeMeters>
            <DistanceMeters>383832.39777351</DistanceMeters>
          </Trackpoint>
          <Trackpoint>
            <Time>2021-08-01T11:31:49.000Z</Time>
            <Position>
              <LatitudeDegrees>41.9357081316411495208740234375</LatitudeDegrees>
              <LongitudeDegrees>-2.0984840579330921173095703125</LongitudeDegrees>
            </Position>
            <AltitudeMeters>852.20001220703125</AltitudeMeters>
            <DistanceMeters>383854.40543536</DistanceMeters>
          </Trackpoint>
          <Trackpoint>
            <Time>2021-08-01T11:31:52.000Z</Time>
            <Position>
              <LatitudeDegrees>41.93569145165383815765380859375</LatitudeDegrees>
              <LongitudeDegrees>-2.0983455888926982879638671875</LongitudeDegrees>
            </Position>
            <AltitudeMeters>853.20001220703125</AltitudeMeters>
            <DistanceMeters>383866.01970598</DistanceMeters>
          </Trackpoint>
          <Trackpoint>
            <Time>2021-08-01T11:31:59.000Z</Time>
            <Position>
              <LatitudeDegrees>41.93567787297070026397705078125</LatitudeDegrees>
              <LongitudeDegrees>-2.09799145348370075225830078125</LongitudeDegrees>
            </Position>
            <AltitudeMeters>852.5999755859375</AltitudeMeters>
            <DistanceMeters>383895.38019282</DistanceMeters>
          </Trackpoint>
          <Trackpoint>
            <Time>2021-08-01T11:32:03.000Z</Time>
            <Position>
              <LatitudeDegrees>41.935598663985729217529296875</LatitudeDegrees>
              <LongitudeDegrees>-2.09780068136751651763916015625</LongitudeDegrees>
            </Position>
            <AltitudeMeters>852.20001220703125</AltitudeMeters>
            <DistanceMeters>383913.46924614</DistanceMeters>
          </Trackpoint>
          <Trackpoint>
            <Time>2021-08-01T11:32:04.000Z</Time>
            <Position>
              <LatitudeDegrees>41.93557427264750003814697265625</LatitudeDegrees>
              <LongitudeDegrees>-2.097758017480373382568359375</LongitudeDegrees>
            </Position>
            <AltitudeMeters>852.20001220703125</AltitudeMeters>
            <DistanceMeters>383917.92436769</DistanceMeters>
          </Trackpoint>
          <Trackpoint>
            <Time>2021-08-01T11:32:17.000Z</Time>
            <Position>
              <LatitudeDegrees>41.93531267344951629638671875</LatitudeDegrees>
              <LongitudeDegrees>-2.0971228368580341339111328125</LongitudeDegrees>
            </Position>
            <AltitudeMeters>851.79998779296875</AltitudeMeters>
            <DistanceMeters>383978.03768436</DistanceMeters>
          </Trackpoint>
          <Trackpoint>
            <Time>2021-08-01T11:32:22.000Z</Time>
            <Position>
              <LatitudeDegrees>41.93524134345352649688720703125</LatitudeDegrees>
              <LongitudeDegrees>-2.09684078581631183624267578125</LongitudeDegrees>
            </Position>
            <AltitudeMeters>851</AltitudeMeters>
            <DistanceMeters>384002.7034785</DistanceMeters>
          </Trackpoint>
          <Trackpoint>
            <Time>2021-08-01T11:32:23.000Z</Time>
            <Position>
              <LatitudeDegrees>41.935225166380405426025390625</LatitudeDegrees>
              <LongitudeDegrees>-2.0967825315892696380615234375</LongitudeDegrees>
            </Position>
            <AltitudeMeters>851</AltitudeMeters>
            <DistanceMeters>384007.85248854</DistanceMeters>
          </Trackpoint>
          <Trackpoint>
            <Time>2021-08-01T11:32:37.000Z</Time>
            <Position>
              <LatitudeDegrees>41.935084350407123565673828125</LatitudeDegrees>
              <LongitudeDegrees>-2.0960935391485691070556640625</LongitudeDegrees>
            </Position>
            <AltitudeMeters>851.79998779296875</AltitudeMeters>
            <DistanceMeters>384067.01331552</DistanceMeters>
          </Trackpoint>
          <Trackpoint>
            <Time>2021-08-01T11:32:38.000Z</Time>
            <Position>
              <LatitudeDegrees>41.93507303483784198760986328125</LatitudeDegrees>
              <LongitudeDegrees>-2.0960412360727787017822265625</LongitudeDegrees>
            </Position>
            <AltitudeMeters>851.79998779296875</AltitudeMeters>
            <DistanceMeters>384071.52283126</DistanceMeters>
          </Trackpoint>
          <Trackpoint>
            <Time>2021-08-01T11:32:53.000Z</Time>
            <Position>
              <LatitudeDegrees>41.934828199446201324462890625</LatitudeDegrees>
              <LongitudeDegrees>-2.09539390169084072113037109375</LongitudeDegrees>
            </Position>
            <AltitudeMeters>851.5999755859375</AltitudeMeters>
            <DistanceMeters>384131.65056708</DistanceMeters>
          </Trackpoint>
          <Trackpoint>
            <Time>2021-08-01T11:33:08.000Z</Time>
            <Position>
              <LatitudeDegrees>41.93469651974737644195556640625</LatitudeDegrees>
              <LongitudeDegrees>-2.09467045962810516357421875</LongitudeDegrees>
            </Position>
            <AltitudeMeters>852</AltitudeMeters>
            <DistanceMeters>384193.31726727</DistanceMeters>
          </Trackpoint>
          <Trackpoint>
            <Time>2021-08-01T11:33:12.000Z</Time>
            <Position>
              <LatitudeDegrees>41.93466768600046634674072265625</LatitudeDegrees>
              <LongitudeDegrees>-2.09450458176434040069580078125</LongitudeDegrees>
            </Position>
            <AltitudeMeters>853.20001220703125</AltitudeMeters>
            <DistanceMeters>384207.42193367</DistanceMeters>
          </Trackpoint>
          <Trackpoint>
            <Time>2021-08-01T11:33:23.000Z</Time>
            <Position>
              <LatitudeDegrees>41.9345903210341930389404296875</LatitudeDegrees>
              <LongitudeDegrees>-2.0941871590912342071533203125</LongitudeDegrees>
            </Position>
            <AltitudeMeters>854.20001220703125</AltitudeMeters>
            <DistanceMeters>384235.0786259</DistanceMeters>
          </Trackpoint>
          <Trackpoint>
            <Time>2021-08-01T11:33:31.000Z</Time>
            <Position>
              <LatitudeDegrees>41.93454246036708354949951171875</LatitudeDegrees>
              <LongitudeDegrees>-2.09396059624850749969482421875</LongitudeDegrees>
            </Position>
            <AltitudeMeters>855.20001220703125</AltitudeMeters>
            <DistanceMeters>384254.57925613</DistanceMeters>
          </Trackpoint>
          <Trackpoint>
            <Time>2021-08-01T11:33:40.000Z</Time>
            <Position>
              <LatitudeDegrees>41.93450390361249446868896484375</LatitudeDegrees>
              <LongitudeDegrees>-2.0936963148415088653564453125</LongitudeDegrees>
            </Position>
            <AltitudeMeters>856.4000244140625</AltitudeMeters>
            <DistanceMeters>384276.8783635</DistanceMeters>
          </Trackpoint>
          <Trackpoint>
            <Time>2021-08-01T11:33:51.000Z</Time>
            <Position>
              <LatitudeDegrees>41.9344163127243518829345703125</LatitudeDegrees>
              <LongitudeDegrees>-2.09328115917742252349853515625</LongitudeDegrees>
            </Position>
            <AltitudeMeters>855.20001220703125</AltitudeMeters>
            <DistanceMeters>384312.6084081</DistanceMeters>
          </Trackpoint>
          <Trackpoint>
            <Time>2021-08-01T11:33:54.000Z</Time>
            <Position>
              <LatitudeDegrees>41.9343375228345394134521484375</LatitudeDegrees>
              <LongitudeDegrees>-2.093125842511653900146484375</LongitudeDegrees>
            </Position>
            <AltitudeMeters>854</AltitudeMeters>
            <DistanceMeters>384328.17365628</DistanceMeters>
          </Trackpoint>
          <Trackpoint>
            <Time>2021-08-01T11:33:56.000Z</Time>
            <Position>
              <LatitudeDegrees>41.9342771731317043304443359375</LatitudeDegrees>
              <LongitudeDegrees>-2.0930043049156665802001953125</LongitudeDegrees>
            </Position>
            <AltitudeMeters>852.5999755859375</AltitudeMeters>
            <DistanceMeters>384340.27231485</DistanceMeters>
          </Trackpoint>
          <Trackpoint>
            <Time>2021-08-01T11:33:58.000Z</Time>
            <Position>
              <LatitudeDegrees>41.934212632477283477783203125</LatitudeDegrees>
              <LongitudeDegrees>-2.09285887889564037322998046875</LongitudeDegrees>
            </Position>
            <AltitudeMeters>851.4000244140625</AltitudeMeters>
            <DistanceMeters>384354.29318373</DistanceMeters>
          </Trackpoint>
          <Trackpoint>
            <Time>2021-08-01T11:34:00.000Z</Time>
            <Position>
              <LatitudeDegrees>41.93414482288062572479248046875</LatitudeDegrees>
              <LongitudeDegrees>-2.092695347964763641357421875</LongitudeDegrees>
            </Position>
            <AltitudeMeters>850.20001220703125</AltitudeMeters>
            <DistanceMeters>384369.79477605</DistanceMeters>
          </Trackpoint>
          <Trackpoint>
            <Time>2021-08-01T11:34:02.000Z</Time>
            <Position>
              <LatitudeDegrees>41.93407215178012847900390625</LatitudeDegrees>
              <LongitudeDegrees>-2.09251857362687587738037109375</LongitudeDegrees>
            </Position>
            <AltitudeMeters>848.5999755859375</AltitudeMeters>
            <DistanceMeters>384386.51785792</DistanceMeters>
          </Trackpoint>
          <Trackpoint>
            <Time>2021-08-01T11:34:04.000Z</Time>
            <Position>
              <LatitudeDegrees>41.93400082178413867950439453125</LatitudeDegrees>
              <LongitudeDegrees>-2.0923226885497570037841796875</LongitudeDegrees>
            </Position>
            <AltitudeMeters>846.79998779296875</AltitudeMeters>
            <DistanceMeters>384404.57593425</DistanceMeters>
          </Trackpoint>
          <Trackpoint>
            <Time>2021-08-01T11:34:06.000Z</Time>
            <Position>
              <LatitudeDegrees>41.93392806686460971832275390625</LatitudeDegrees>
              <LongitudeDegrees>-2.09212797693908214569091796875</LongitudeDegrees>
            </Position>
            <AltitudeMeters>845.5999755859375</AltitudeMeters>
            <DistanceMeters>384422.61750113</DistanceMeters>
          </Trackpoint>
          <Trackpoint>
            <Time>2021-08-01T11:34:08.000Z</Time>
            <Position>
              <LatitudeDegrees>41.9338674657046794891357421875</LatitudeDegrees>
              <LongitudeDegrees>-2.0919431559741497039794921875</LongitudeDegrees>
            </Position>
            <AltitudeMeters>845.20001220703125</AltitudeMeters>
            <DistanceMeters>384439.34112297</DistanceMeters>
          </Trackpoint>
          <Trackpoint>
            <Time>2021-08-01T11:34:13.000Z</Time>
            <Position>
              <LatitudeDegrees>41.9338248856365680694580078125</LatitudeDegrees>
              <LongitudeDegrees>-2.091492712497711181640625</LongitudeDegrees>
            </Position>
            <AltitudeMeters>845.4000244140625</AltitudeMeters>
            <DistanceMeters>384476.937371</DistanceMeters>
          </Trackpoint>
          <Trackpoint>
            <Time>2021-08-01T11:34:17.000Z</Time>
            <Position>
              <LatitudeDegrees>41.93385665304958820343017578125</LatitudeDegrees>
              <LongitudeDegrees>-2.09113354794681072235107421875</LongitudeDegrees>
            </Position>
            <AltitudeMeters>844.5999755859375</AltitudeMeters>
            <DistanceMeters>384506.88541355</DistanceMeters>
          </Trackpoint>
          <Trackpoint>
            <Time>2021-08-01T11:34:26.000Z</Time>
            <Position>
              <LatitudeDegrees>41.93396192975342273712158203125</LatitudeDegrees>
              <LongitudeDegrees>-2.0903834514319896697998046875</LongitudeDegrees>
            </Position>
            <AltitudeMeters>843.79998779296875</AltitudeMeters>
            <DistanceMeters>384570.08860925</DistanceMeters>
          </Trackpoint>
          <Trackpoint>
            <Time>2021-08-01T11:34:27.000Z</Time>
            <Position>
              <LatitudeDegrees>41.93397349677979946136474609375</LatitudeDegrees>
              <LongitudeDegrees>-2.09030474536120891571044921875</LongitudeDegrees>
            </Position>
            <AltitudeMeters>843.5999755859375</AltitudeMeters>
            <DistanceMeters>384576.73164949</DistanceMeters>
          </Trackpoint>
          <Trackpoint>
            <Time>2021-08-01T11:34:29.000Z</Time>
            <Position>
              <LatitudeDegrees>41.933988668024539947509765625</LatitudeDegrees>
              <LongitudeDegrees>-2.09014356136322021484375</LongitudeDegrees>
            </Position>
            <AltitudeMeters>843.20001220703125</AltitudeMeters>
            <DistanceMeters>384590.18422404</DistanceMeters>
          </Trackpoint>
          <Trackpoint>
            <Time>2021-08-01T11:34:31.000Z</Time>
            <Position>
              <LatitudeDegrees>41.93398623727262020111083984375</LatitudeDegrees>
              <LongitudeDegrees>-2.08997634239494800567626953125</LongitudeDegrees>
            </Position>
            <AltitudeMeters>842.4000244140625</AltitudeMeters>
            <DistanceMeters>384604.03206514</DistanceMeters>
          </Trackpoint>
          <Trackpoint>
            <Time>2021-08-01T11:34:34.000Z</Time>
            <Position>
              <LatitudeDegrees>41.93398363888263702392578125</LatitudeDegrees>
              <LongitudeDegrees>-2.08971734158694744110107421875</LongitudeDegrees>
            </Position>
            <AltitudeMeters>841.20001220703125</AltitudeMeters>
            <DistanceMeters>384625.47907039</DistanceMeters>
          </Trackpoint>
          <Trackpoint>
            <Time>2021-08-01T11:34:38.000Z</Time>
            <Position>
              <LatitudeDegrees>41.933973915874958038330078125</LatitudeDegrees>
              <LongitudeDegrees>-2.0893675647675991058349609375</LongitudeDegrees>
            </Position>
            <AltitudeMeters>840.20001220703125</AltitudeMeters>
            <DistanceMeters>384654.46050462</DistanceMeters>
          </Trackpoint>
          <Trackpoint>
            <Time>2021-08-01T11:34:45.000Z</Time>
            <Position>
              <LatitudeDegrees>41.9339382089674472808837890625</LatitudeDegrees>
              <LongitudeDegrees>-2.088786028325557708740234375</LongitudeDegrees>
            </Position>
            <AltitudeMeters>839</AltitudeMeters>
            <DistanceMeters>384702.7750244</DistanceMeters>
          </Trackpoint>
          <Trackpoint>
            <Time>2021-08-01T11:34:46.000Z</Time>
            <Position>
              <LatitudeDegrees>41.93393795751035213470458984375</LatitudeDegrees>
              <LongitudeDegrees>-2.088701538741588592529296875</LongitudeDegrees>
            </Position>
            <AltitudeMeters>838.79998779296875</AltitudeMeters>
            <DistanceMeters>384709.77095281</DistanceMeters>
          </Trackpoint>
          <Trackpoint>
            <Time>2021-08-01T11:34:49.000Z</Time>
            <Position>
              <LatitudeDegrees>41.9339613430202007293701171875</LatitudeDegrees>
              <LongitudeDegrees>-2.08844647742807865142822265625</LongitudeDegrees>
            </Position>
            <AltitudeMeters>838</AltitudeMeters>
            <DistanceMeters>384731.04951157</DistanceMeters>
          </Trackpoint>
          <Trackpoint>
            <Time>2021-08-01T11:34:53.000Z</Time>
            <Position>
              <LatitudeDegrees>41.9338738359510898590087890625</LatitudeDegrees>
              <LongitudeDegrees>-2.08814607001841068267822265625</LongitudeDegrees>
            </Position>
            <AltitudeMeters>837.5999755859375</AltitudeMeters>
            <DistanceMeters>384757.76199256</DistanceMeters>
          </Trackpoint>
          <Trackpoint>
            <Time>2021-08-01T11:34:55.000Z</Time>
            <Position>
              <LatitudeDegrees>41.93381239660084247589111328125</LatitudeDegrees>
              <LongitudeDegrees>-2.0880217663943767547607421875</LongitudeDegrees>
            </Position>
            <AltitudeMeters>837.5999755859375</AltitudeMeters>
            <DistanceMeters>384770.11875438</DistanceMeters>
          </Trackpoint>
          <Trackpoint>
            <Time>2021-08-01T11:35:00.000Z</Time>
            <Position>
              <LatitudeDegrees>41.93374886177480220794677734375</LatitudeDegrees>
              <LongitudeDegrees>-2.08766243420541286468505859375</LongitudeDegrees>
            </Position>
            <AltitudeMeters>836.79998779296875</AltitudeMeters>
            <DistanceMeters>384800.70008736</DistanceMeters>
          </Trackpoint>
          <Trackpoint>
            <Time>2021-08-01T11:35:01.000Z</Time>
            <Position>
              <LatitudeDegrees>41.93374894559383392333984375</LatitudeDegrees>
              <LongitudeDegrees>-2.08758146502077579498291015625</LongitudeDegrees>
            </Position>
            <AltitudeMeters>836.20001220703125</AltitudeMeters>
            <DistanceMeters>384807.40469179</DistanceMeters>
          </Trackpoint>
          <Trackpoint>
            <Time>2021-08-01T11:35:02.000Z</Time>
            <Position>
              <LatitudeDegrees>41.9337504543364048004150390625</LatitudeDegrees>
              <LongitudeDegrees>-2.0874989032745361328125</LongitudeDegrees>
            </Position>
            <AltitudeMeters>835.79998779296875</AltitudeMeters>
            <DistanceMeters>384814.24265463</DistanceMeters>
          </Trackpoint>
          <Trackpoint>
            <Time>2021-08-01T11:35:03.000Z</Time>
            <Position>
              <LatitudeDegrees>41.9337487779557704925537109375</LatitudeDegrees>
              <LongitudeDegrees>-2.087415754795074462890625</LongitudeDegrees>
            </Position>
            <AltitudeMeters>835.20001220703125</AltitudeMeters>
            <DistanceMeters>384821.12996118</DistanceMeters>
          </Trackpoint>
          <Trackpoint>
            <Time>2021-08-01T11:35:06.000Z</Time>
            <Position>
              <LatitudeDegrees>41.93373042158782482147216796875</LatitudeDegrees>
              <LongitudeDegrees>-2.0871637947857379913330078125</LongitudeDegrees>
            </Position>
            <AltitudeMeters>834.5999755859375</AltitudeMeters>
            <DistanceMeters>384842.09191528</DistanceMeters>
          </Trackpoint>
          <Trackpoint>
            <Time>2021-08-01T11:35:11.000Z</Time>
            <Position>
              <LatitudeDegrees>41.93371265195310115814208984375</LatitudeDegrees>
              <LongitudeDegrees>-2.0867403410375118255615234375</LongitudeDegrees>
            </Position>
            <AltitudeMeters>833.5999755859375</AltitudeMeters>
            <DistanceMeters>384877.20939725</DistanceMeters>
          </Trackpoint>
          <Trackpoint>
            <Time>2021-08-01T11:35:21.000Z</Time>
            <Position>
              <LatitudeDegrees>41.933641992509365081787109375</LatitudeDegrees>
              <LongitudeDegrees>-2.085975743830204010009765625</LongitudeDegrees>
            </Position>
            <AltitudeMeters>833.4000244140625</AltitudeMeters>
            <DistanceMeters>384941.00446213</DistanceMeters>
          </Trackpoint>
          <Trackpoint>
            <Time>2021-08-01T11:35:29.000Z</Time>
            <Position>
              <LatitudeDegrees>41.9335891865193843841552734375</LatitudeDegrees>
              <LongitudeDegrees>-2.08538339473307132720947265625</LongitudeDegrees>
            </Position>
            <AltitudeMeters>832</AltitudeMeters>
            <DistanceMeters>384990.40172113</DistanceMeters>
          </Trackpoint>
          <Trackpoint>
            <Time>2021-08-01T11:35:33.000Z</Time>
            <Position>
              <LatitudeDegrees>41.93355121649801731109619140625</LatitudeDegrees>
              <LongitudeDegrees>-2.085045687854290008544921875</LongitudeDegrees>
            </Position>
            <AltitudeMeters>830.79998779296875</AltitudeMeters>
            <DistanceMeters>385018.68139033</DistanceMeters>
          </Trackpoint>
          <Trackpoint>
            <Time>2021-08-01T11:35:36.000Z</Time>
            <Position>
              <LatitudeDegrees>41.93350712768733501434326171875</LatitudeDegrees>
              <LongitudeDegrees>-2.084781490266323089599609375</LongitudeDegrees>
            </Position>
            <AltitudeMeters>829.5999755859375</AltitudeMeters>
            <DistanceMeters>385041.10044595</DistanceMeters>
          </Trackpoint>
          <Trackpoint>
            <Time>2021-08-01T11:35:38.000Z</Time>
            <Position>
              <LatitudeDegrees>41.93346857093274593353271484375</LatitudeDegrees>
              <LongitudeDegrees>-2.08460203371942043304443359375</LongitudeDegrees>
            </Position>
            <AltitudeMeters>828.4000244140625</AltitudeMeters>
            <DistanceMeters>385056.56675531</DistanceMeters>
          </Trackpoint>
          <Trackpoint>
            <Time>2021-08-01T11:35:40.000Z</Time>
            <Position>
              <LatitudeDegrees>41.9334299303591251373291015625</LatitudeDegrees>
              <LongitudeDegrees>-2.08441947586834430694580078125</LongitudeDegrees>
            </Position>
            <AltitudeMeters>827.4000244140625</AltitudeMeters>
            <DistanceMeters>385072.28211692</DistanceMeters>
          </Trackpoint>
          <Trackpoint>
            <Time>2021-08-01T11:35:42.000Z</Time>
            <Position>
              <LatitudeDegrees>41.93337804637849330902099609375</LatitudeDegrees>
              <LongitudeDegrees>-2.08425267599523067474365234375</LongitudeDegrees>
            </Position>
            <AltitudeMeters>827</AltitudeMeters>
            <DistanceMeters>385087.25176545</DistanceMeters>
          </Trackpoint>
          <Trackpoint>
            <Time>2021-08-01T11:35:57.000Z</Time>
            <Position>
              <LatitudeDegrees>41.9330685026943683624267578125</LatitudeDegrees>
              <LongitudeDegrees>-2.08375445567071437835693359375</LongitudeDegrees>
            </Position>
            <AltitudeMeters>826.20001220703125</AltitudeMeters>
            <DistanceMeters>385140.99926488</DistanceMeters>
          </Trackpoint>
          <Trackpoint>
            <Time>2021-08-01T11:36:02.000Z</Time>
            <Position>
              <LatitudeDegrees>41.9329417683184146881103515625</LatitudeDegrees>
              <LongitudeDegrees>-2.08352345041930675506591796875</LongitudeDegrees>
            </Position>
            <AltitudeMeters>824.79998779296875</AltitudeMeters>
            <DistanceMeters>385164.76563422</DistanceMeters>
          </Trackpoint>
          <Trackpoint>
            <Time>2021-08-01T11:36:04.000Z</Time>
            <Position>
              <LatitudeDegrees>41.9329018704593181610107421875</LatitudeDegrees>
              <LongitudeDegrees>-2.0834194310009479522705078125</LongitudeDegrees>
            </Position>
            <AltitudeMeters>823.4000244140625</AltitudeMeters>
            <DistanceMeters>385174.45649564</DistanceMeters>
          </Trackpoint>
          <Trackpoint>
            <Time>2021-08-01T11:36:07.000Z</Time>
            <Position>
              <LatitudeDegrees>41.93285836838185787200927734375</LatitudeDegrees>
              <LongitudeDegrees>-2.083258330821990966796875</LongitudeDegrees>
            </Position>
            <AltitudeMeters>822.20001220703125</AltitudeMeters>
            <DistanceMeters>385188.64764657</DistanceMeters>
          </Trackpoint>
          <Trackpoint>
            <Time>2021-08-01T11:36:09.000Z</Time>
            <Position>
              <LatitudeDegrees>41.93283422850072383880615234375</LatitudeDegrees>
              <LongitudeDegrees>-2.0831451751291751861572265625</LongitudeDegrees>
            </Position>
            <AltitudeMeters>821.20001220703125</AltitudeMeters>
            <DistanceMeters>385198.3951829</DistanceMeters>
          </Trackpoint>
          <Trackpoint>
            <Time>2021-08-01T11:36:10.000Z</Time>
            <Position>
              <LatitudeDegrees>41.9328271038830280303955078125</LatitudeDegrees>
              <LongitudeDegrees>-2.083081640303134918212890625</LongitudeDegrees>
            </Position>
            <AltitudeMeters>820.20001220703125</AltitudeMeters>
            <DistanceMeters>385203.71498172</DistanceMeters>
          </Trackpoint>
          <Trackpoint>
            <Time>2021-08-01T11:36:12.000Z</Time>
            <Position>
              <LatitudeDegrees>41.93282132036983966827392578125</LatitudeDegrees>
              <LongitudeDegrees>-2.0829369686543941497802734375</LongitudeDegrees>
            </Position>
            <AltitudeMeters>818.79998779296875</AltitudeMeters>
            <DistanceMeters>385215.71132818</DistanceMeters>
          </Trackpoint>
          <Trackpoint>
            <Time>2021-08-01T11:36:14.000Z</Time>
            <Position>
              <LatitudeDegrees>41.9328190572559833526611328125</LatitudeDegrees>
              <LongitudeDegrees>-2.08277125842869281768798828125</LongitudeDegrees>
            </Position>
            <AltitudeMeters>818</AltitudeMeters>
            <DistanceMeters>385229.4347124</DistanceMeters>
          </Trackpoint>
          <Trackpoint>
            <Time>2021-08-01T11:36:15.000Z</Time>
            <Position>
              <LatitudeDegrees>41.93280472420156002044677734375</LatitudeDegrees>
              <LongitudeDegrees>-2.08268810994923114776611328125</LongitudeDegrees>
            </Position>
            <AltitudeMeters>817.5999755859375</AltitudeMeters>
            <DistanceMeters>385236.50127611</DistanceMeters>
          </Trackpoint>
          <Trackpoint>
            <Time>2021-08-01T11:36:19.000Z</Time>
            <Position>
              <LatitudeDegrees>41.9326494075357913970947265625</LatitudeDegrees>
              <LongitudeDegrees>-2.08247403614223003387451171875</LongitudeDegrees>
            </Position>
            <AltitudeMeters>817</AltitudeMeters>
            <DistanceMeters>385261.26079609</DistanceMeters>
          </Trackpoint>
          <Trackpoint>
            <Time>2021-08-01T11:36:22.000Z</Time>
            <Position>
              <LatitudeDegrees>41.932505071163177490234375</LatitudeDegrees>
              <LongitudeDegrees>-2.08235216327011585235595703125</LongitudeDegrees>
            </Position>
            <AltitudeMeters>816.4000244140625</AltitudeMeters>
            <DistanceMeters>385280.2321365</DistanceMeters>
          </Trackpoint>
          <Trackpoint>
            <Time>2021-08-01T11:36:24.000Z</Time>
            <Position>
              <LatitudeDegrees>41.9324120320379734039306640625</LatitudeDegrees>
              <LongitudeDegrees>-2.0822644047439098358154296875</LongitudeDegrees>
            </Position>
            <AltitudeMeters>815.20001220703125</AltitudeMeters>
            <DistanceMeters>385292.88282995</DistanceMeters>
          </Trackpoint>
          <Trackpoint>
            <Time>2021-08-01T11:36:27.000Z</Time>
            <Position>
              <LatitudeDegrees>41.93228387273848056793212890625</LatitudeDegrees>
              <LongitudeDegrees>-2.08212451077997684478759765625</LongitudeDegrees>
            </Position>
            <AltitudeMeters>814</AltitudeMeters>
            <DistanceMeters>385311.2581563</DistanceMeters>
          </Trackpoint>
          <Trackpoint>
            <Time>2021-08-01T11:36:31.000Z</Time>
            <Position>
              <LatitudeDegrees>41.93214205093681812286376953125</LatitudeDegrees>
              <LongitudeDegrees>-2.0818828605115413665771484375</LongitudeDegrees>
            </Position>
            <AltitudeMeters>812.5999755859375</AltitudeMeters>
            <DistanceMeters>385336.74392426</DistanceMeters>
          </Trackpoint>
          <Trackpoint>
            <Time>2021-08-01T11:36:34.000Z</Time>
            <Position>
              <LatitudeDegrees>41.93206175230443477630615234375</LatitudeDegrees>
              <LongitudeDegrees>-2.08164640702307224273681640625</LongitudeDegrees>
            </Position>
            <AltitudeMeters>811.5999755859375</AltitudeMeters>
            <DistanceMeters>385358.26616395</DistanceMeters>
          </Trackpoint>
          <Trackpoint>
            <Time>2021-08-01T11:36:37.000Z</Time>
            <Position>
              <LatitudeDegrees>41.93196854554116725921630859375</LatitudeDegrees>
              <LongitudeDegrees>-2.0814117975533008575439453125</LongitudeDegrees>
            </Position>
            <AltitudeMeters>810</AltitudeMeters>
            <DistanceMeters>385380.28859219</DistanceMeters>
          </Trackpoint>
          <Trackpoint>
            <Time>2021-08-01T11:36:40.000Z</Time>
            <Position>
              <LatitudeDegrees>41.93189780227839946746826171875</LatitudeDegrees>
              <LongitudeDegrees>-2.0811801217496395111083984375</LongitudeDegrees>
            </Position>
            <AltitudeMeters>809.79998779296875</AltitudeMeters>
            <DistanceMeters>385401.02445774</DistanceMeters>
          </Trackpoint>
          <Trackpoint>
            <Time>2021-08-01T11:36:44.000Z</Time>
            <Position>
              <LatitudeDegrees>41.93188522942364215850830078125</LatitudeDegrees>
              <LongitudeDegrees>-2.08090594969689846038818359375</LongitudeDegrees>
            </Position>
            <AltitudeMeters>811</AltitudeMeters>
            <DistanceMeters>385423.76941497</DistanceMeters>
          </Trackpoint>
          <Trackpoint>
            <Time>2021-08-01T11:36:48.000Z</Time>
            <Position>
              <LatitudeDegrees>41.93190534599125385284423828125</LatitudeDegrees>
              <LongitudeDegrees>-2.08070092834532260894775390625</LongitudeDegrees>
            </Position>
            <AltitudeMeters>812.20001220703125</AltitudeMeters>
            <DistanceMeters>385440.89216364</DistanceMeters>
          </Trackpoint>
          <Trackpoint>
            <Time>2021-08-01T11:36:53.000Z</Time>
            <Position>
              <LatitudeDegrees>41.93192076869308948516845703125</LatitudeDegrees>
              <LongitudeDegrees>-2.08046573214232921600341796875</LongitudeDegrees>
            </Position>
            <AltitudeMeters>813.4000244140625</AltitudeMeters>
            <DistanceMeters>385460.44227912</DistanceMeters>
          </Trackpoint>
          <Trackpoint>
            <Time>2021-08-01T11:37:07.000Z</Time>
            <Position>
              <LatitudeDegrees>41.9318071939051151275634765625</LatitudeDegrees>
              <LongitudeDegrees>-2.07989123649895191192626953125</LongitudeDegrees>
            </Position>
            <AltitudeMeters>814.4000244140625</AltitudeMeters>
            <DistanceMeters>385509.66263151</DistanceMeters>
          </Trackpoint>
          <Trackpoint>
            <Time>2021-08-01T11:37:21.000Z</Time>
            <Position>
              <LatitudeDegrees>41.9314963929355144500732421875</LatitudeDegrees>
              <LongitudeDegrees>-2.07925018854439258575439453125</LongitudeDegrees>
            </Position>
            <AltitudeMeters>814.20001220703125</AltitudeMeters>
            <DistanceMeters>385573.02015673</DistanceMeters>
          </Trackpoint>
          <Trackpoint>
            <Time>2021-08-01T11:37:23.000Z</Time>
            <Position>
              <LatitudeDegrees>41.9314434193074703216552734375</LatitudeDegrees>
              <LongitudeDegrees>-2.0791121385991573333740234375</LongitudeDegrees>
            </Position>
            <AltitudeMeters>813.20001220703125</AltitudeMeters>
            <DistanceMeters>385585.88215503</DistanceMeters>
          </Trackpoint>
          <Trackpoint>
            <Time>2021-08-01T11:37:34.000Z</Time>
            <Position>
              <LatitudeDegrees>41.93109867163002490997314453125</LatitudeDegrees>
              <LongitudeDegrees>-2.07850746810436248779296875</LongitudeDegrees>
            </Position>
            <AltitudeMeters>813</AltitudeMeters>
            <DistanceMeters>385648.96300384</DistanceMeters>
          </Trackpoint>
          <Trackpoint>
            <Time>2021-08-01T11:37:39.000Z</Time>
            <Position>
              <LatitudeDegrees>41.9309156946837902069091796875</LatitudeDegrees>
              <LongitudeDegrees>-2.07820437848567962646484375</LongitudeDegrees>
            </Position>
            <AltitudeMeters>811.79998779296875</AltitudeMeters>
            <DistanceMeters>385681.2834041</DistanceMeters>
          </Trackpoint>
          <Trackpoint>
            <Time>2021-08-01T11:37:41.000Z</Time>
            <Position>
              <LatitudeDegrees>41.93082458339631557464599609375</LatitudeDegrees>
              <LongitudeDegrees>-2.0780714415013790130615234375</LongitudeDegrees>
            </Position>
            <AltitudeMeters>810.4000244140625</AltitudeMeters>
            <DistanceMeters>385696.2500362</DistanceMeters>
          </Trackpoint>
          <Trackpoint>
            <Time>2021-08-01T11:37:43.000Z</Time>
            <Position>
              <LatitudeDegrees>41.930727772414684295654296875</LatitudeDegrees>
              <LongitudeDegrees>-2.077926434576511383056640625</LongitudeDegrees>
            </Position>
            <AltitudeMeters>809.20001220703125</AltitudeMeters>
            <DistanceMeters>385712.38332239</DistanceMeters>
          </Trackpoint>
          <Trackpoint>
            <Time>2021-08-01T11:37:45.000Z</Time>
            <Position>
              <LatitudeDegrees>41.9306288659572601318359375</LatitudeDegrees>
              <LongitudeDegrees>-2.07776340655982494354248046875</LongitudeDegrees>
            </Position>
            <AltitudeMeters>807.79998779296875</AltitudeMeters>
            <DistanceMeters>385729.80252526</DistanceMeters>
          </Trackpoint>
          <Trackpoint>
            <Time>2021-08-01T11:37:47.000Z</Time>
            <Position>
              <LatitudeDegrees>41.93051780574023723602294921875</LatitudeDegrees>
              <LongitudeDegrees>-2.0776090957224369049072265625</LongitudeDegrees>
            </Position>
            <AltitudeMeters>806.20001220703125</AltitudeMeters>
            <DistanceMeters>385747.58090358</DistanceMeters>
          </Trackpoint>
          <Trackpoint>
            <Time>2021-08-01T11:37:49.000Z</Time>
            <Position>
              <LatitudeDegrees>41.93040213547646999359130859375</LatitudeDegrees>
              <LongitudeDegrees>-2.0774659328162670135498046875</LongitudeDegrees>
            </Position>
            <AltitudeMeters>805.20001220703125</AltitudeMeters>
            <DistanceMeters>385765.08156365</DistanceMeters>
          </Trackpoint>
          <Trackpoint>
            <Time>2021-08-01T11:37:57.000Z</Time>
            <Position>
              <LatitudeDegrees>41.93001640029251575469970703125</LatitudeDegrees>
              <LongitudeDegrees>-2.076943404972553253173828125</LongitudeDegrees>
            </Position>
            <AltitudeMeters>806.20001220703125</AltitudeMeters>
            <DistanceMeters>385826.03496053</DistanceMeters>
          </Trackpoint>
          <Trackpoint>
            <Time>2021-08-01T11:37:58.000Z</Time>
            <Position>
              <LatitudeDegrees>41.929980106651782989501953125</LatitudeDegrees>
              <LongitudeDegrees>-2.0768921077251434326171875</LongitudeDegrees>
            </Position>
            <AltitudeMeters>806.4000244140625</AltitudeMeters>
            <DistanceMeters>385831.89588288</DistanceMeters>
          </Trackpoint>
          <Trackpoint>
            <Time>2021-08-01T11:38:03.000Z</Time>
            <Position>
              <LatitudeDegrees>41.92980349995195865631103515625</LatitudeDegrees>
              <LongitudeDegrees>-2.0766133256256580352783203125</LongitudeDegrees>
            </Position>
            <AltitudeMeters>807.20001220703125</AltitudeMeters>
            <DistanceMeters>385862.21551089</DistanceMeters>
          </Trackpoint>
          <Trackpoint>
            <Time>2021-08-01T11:38:06.000Z</Time>
            <Position>
              <LatitudeDegrees>41.92968045361340045928955078125</LatitudeDegrees>
              <LongitudeDegrees>-2.07646429538726806640625</LongitudeDegrees>
            </Position>
            <AltitudeMeters>807</AltitudeMeters>
            <DistanceMeters>385880.65044856</DistanceMeters>
          </Trackpoint>
          <Trackpoint>
            <Time>2021-08-01T11:38:13.000Z</Time>
            <Position>
              <LatitudeDegrees>41.929328329861164093017578125</LatitudeDegrees>
              <LongitudeDegrees>-2.07614067010581493377685546875</LongitudeDegrees>
            </Position>
            <AltitudeMeters>805.20001220703125</AltitudeMeters>
            <DistanceMeters>385928.12825245</DistanceMeters>
          </Trackpoint>
          <Trackpoint>
            <Time>2021-08-01T11:38:14.000Z</Time>
            <Position>
              <LatitudeDegrees>41.92926940508186817169189453125</LatitudeDegrees>
              <LongitudeDegrees>-2.0760929770767688751220703125</LongitudeDegrees>
            </Position>
            <AltitudeMeters>804.4000244140625</AltitudeMeters>
            <DistanceMeters>385935.78365552</DistanceMeters>
          </Trackpoint>
          <Trackpoint>
            <Time>2021-08-01T11:38:15.000Z</Time>
            <Position>
              <LatitudeDegrees>41.9292074628174304962158203125</LatitudeDegrees>
              <LongitudeDegrees>-2.07605668343603610992431640625</LongitudeDegrees>
            </Position>
            <AltitudeMeters>804.20001220703125</AltitudeMeters>
            <DistanceMeters>385943.30458623</DistanceMeters>
          </Trackpoint>
          <Trackpoint>
            <Time>2021-08-01T11:38:21.000Z</Time>
            <Position>
              <LatitudeDegrees>41.92889171652495861053466796875</LatitudeDegrees>
              <LongitudeDegrees>-2.07582056522369384765625</LongitudeDegrees>
            </Position>
            <AltitudeMeters>803.5999755859375</AltitudeMeters>
            <DistanceMeters>385983.52053843</DistanceMeters>
          </Trackpoint>
          <Trackpoint>
            <Time>2021-08-01T11:38:23.000Z</Time>
            <Position>
              <LatitudeDegrees>41.92879096604883670806884765625</LatitudeDegrees>
              <LongitudeDegrees>-2.07570933736860752105712890625</LongitudeDegrees>
            </Position>
            <AltitudeMeters>802.79998779296875</AltitudeMeters>
            <DistanceMeters>385998.03133864</DistanceMeters>
          </Trackpoint>
          <Trackpoint>
            <Time>2021-08-01T11:38:26.000Z</Time>
            <Position>
              <LatitudeDegrees>41.92863506264984607696533203125</LatitudeDegrees>
              <LongitudeDegrees>-2.0755505003035068511962890625</LongitudeDegrees>
            </Position>
            <AltitudeMeters>801.5999755859375</AltitudeMeters>
            <DistanceMeters>386019.80510895</DistanceMeters>
          </Trackpoint>
          <Trackpoint>
            <Time>2021-08-01T11:38:31.000Z</Time>
            <Position>
              <LatitudeDegrees>41.92835946567356586456298828125</LatitudeDegrees>
              <LongitudeDegrees>-2.0753023959696292877197265625</LongitudeDegrees>
            </Position>
            <AltitudeMeters>800.5999755859375</AltitudeMeters>
            <DistanceMeters>386056.72417988</DistanceMeters>
          </Trackpoint>
          <Trackpoint>
            <Time>2021-08-01T11:38:34.000Z</Time>
            <Position>
              <LatitudeDegrees>41.928176321089267730712890625</LatitudeDegrees>
              <LongitudeDegrees>-2.07518287003040313720703125</LongitudeDegrees>
            </Position>
            <AltitudeMeters>799.5999755859375</AltitudeMeters>
            <DistanceMeters>386079.38441525</DistanceMeters>
          </Trackpoint>
          <Trackpoint>
            <Time>2021-08-01T11:38:43.000Z</Time>
            <Position>
              <LatitudeDegrees>41.92766569554805755615234375</LatitudeDegrees>
              <LongitudeDegrees>-2.07487919367849826812744140625</LongitudeDegrees>
            </Position>
            <AltitudeMeters>798.79998779296875</AltitudeMeters>
            <DistanceMeters>386141.53275824</DistanceMeters>
          </Trackpoint>
          <Trackpoint>
            <Time>2021-08-01T11:38:49.000Z</Time>
            <Position>
              <LatitudeDegrees>41.92736922763288021087646484375</LatitudeDegrees>
              <LongitudeDegrees>-2.07464617677032947540283203125</LongitudeDegrees>
            </Position>
            <AltitudeMeters>798.5999755859375</AltitudeMeters>
            <DistanceMeters>386179.75783731</DistanceMeters>
          </Trackpoint>
          <Trackpoint>
            <Time>2021-08-01T11:38:52.000Z</Time>
            <Position>
              <LatitudeDegrees>41.92724031396210193634033203125</LatitudeDegrees>
              <LongitudeDegrees>-2.07447786815464496612548828125</LongitudeDegrees>
            </Position>
            <AltitudeMeters>797.20001220703125</AltitudeMeters>
            <DistanceMeters>386199.76090425</DistanceMeters>
          </Trackpoint>
          <Trackpoint>
            <Time>2021-08-01T11:39:02.000Z</Time>
            <Position>
              <LatitudeDegrees>41.92685508169233798980712890625</LatitudeDegrees>
              <LongitudeDegrees>-2.07390253432095050811767578125</LongitudeDegrees>
            </Position>
            <AltitudeMeters>796.4000244140625</AltitudeMeters>
            <DistanceMeters>386263.85654637</DistanceMeters>
          </Trackpoint>
          <Trackpoint>
            <Time>2021-08-01T11:39:05.000Z</Time>
            <Position>
              <LatitudeDegrees>41.92673052661120891571044921875</LatitudeDegrees>
              <LongitudeDegrees>-2.0737440325319766998291015625</LongitudeDegrees>
            </Position>
            <AltitudeMeters>796.20001220703125</AltitudeMeters>
            <DistanceMeters>386282.94769472</DistanceMeters>
          </Trackpoint>
          <Trackpoint>
            <Time>2021-08-01T11:39:10.000Z</Time>
            <Position>
              <LatitudeDegrees>41.92650438286364078521728515625</LatitudeDegrees>
              <LongitudeDegrees>-2.07347002811729907989501953125</LongitudeDegrees>
            </Position>
            <AltitudeMeters>795.20001220703125</AltitudeMeters>
            <DistanceMeters>386316.83534559</DistanceMeters>
          </Trackpoint>
          <Trackpoint>
            <Time>2021-08-01T11:39:16.000Z</Time>
            <Position>
              <LatitudeDegrees>41.9262221641838550567626953125</LatitudeDegrees>
              <LongitudeDegrees>-2.0731579698622226715087890625</LongitudeDegrees>
            </Position>
            <AltitudeMeters>794</AltitudeMeters>
            <DistanceMeters>386357.51044259</DistanceMeters>
          </Trackpoint>
          <Trackpoint>
            <Time>2021-08-01T11:39:18.000Z</Time>
            <Position>
              <LatitudeDegrees>41.92612267099320888519287109375</LatitudeDegrees>
              <LongitudeDegrees>-2.0730526931583881378173828125</LongitudeDegrees>
            </Position>
            <AltitudeMeters>793</AltitudeMeters>
            <DistanceMeters>386371.60454141</DistanceMeters>
          </Trackpoint>
          <Trackpoint>
            <Time>2021-08-01T11:39:21.000Z</Time>
            <Position>
              <LatitudeDegrees>41.92595754750072956085205078125</LatitudeDegrees>
              <LongitudeDegrees>-2.07289285026490688323974609375</LongitudeDegrees>
            </Position>
            <AltitudeMeters>791.79998779296875</AltitudeMeters>
            <DistanceMeters>386394.25361607</DistanceMeters>
          </Trackpoint>
          <Trackpoint>
            <Time>2021-08-01T11:39:24.000Z</Time>
            <Position>
              <LatitudeDegrees>41.925781108438968658447265625</LatitudeDegrees>
              <LongitudeDegrees>-2.0727177523076534271240234375</LongitudeDegrees>
            </Position>
            <AltitudeMeters>790.5999755859375</AltitudeMeters>
            <DistanceMeters>386418.66457149</DistanceMeters>
          </Trackpoint>
          <Trackpoint>
            <Time>2021-08-01T11:39:27.000Z</Time>
            <Position>
              <LatitudeDegrees>41.92559444345533847808837890625</LatitudeDegrees>
              <LongitudeDegrees>-2.07256293855607509613037109375</LongitudeDegrees>
            </Position>
            <AltitudeMeters>789.4000244140625</AltitudeMeters>
            <DistanceMeters>386443.07774632</DistanceMeters>
          </Trackpoint>
          <Trackpoint>
            <Time>2021-08-01T11:39:29.000Z</Time>
            <Position>
              <LatitudeDegrees>41.92547324113547801971435546875</LatitudeDegrees>
              <LongitudeDegrees>-2.07248213700950145721435546875</LongitudeDegrees>
            </Position>
            <AltitudeMeters>789</AltitudeMeters>
            <DistanceMeters>386458.13580793</DistanceMeters>
          </Trackpoint>
          <Trackpoint>
            <Time>2021-08-01T11:39:31.000Z</Time>
            <Position>
              <LatitudeDegrees>41.92536578513681888580322265625</LatitudeDegrees>
              <LongitudeDegrees>-2.0724092982709407806396484375</LongitudeDegrees>
            </Position>
            <AltitudeMeters>789.4000244140625</AltitudeMeters>
            <DistanceMeters>386471.53086743</DistanceMeters>
          </Trackpoint>
          <Trackpoint>
            <Time>2021-08-01T11:39:34.000Z</Time>
            <Position>
              <LatitudeDegrees>41.92522865720093250274658203125</LatitudeDegrees>
              <LongitudeDegrees>-2.07228750921785831451416015625</LongitudeDegrees>
            </Position>
            <AltitudeMeters>790</AltitudeMeters>
            <DistanceMeters>386489.82468232</DistanceMeters>
          </Trackpoint>
          <Trackpoint>
            <Time>2021-08-01T11:39:38.000Z</Time>
            <Position>
              <LatitudeDegrees>41.92506504245102405548095703125</LatitudeDegrees>
              <LongitudeDegrees>-2.07210595719516277313232421875</LongitudeDegrees>
            </Position>
            <AltitudeMeters>789.4000244140625</AltitudeMeters>
            <DistanceMeters>386513.43953783</DistanceMeters>
          </Trackpoint>
          <Trackpoint>
            <Time>2021-08-01T11:39:46.000Z</Time>
            <Position>
              <LatitudeDegrees>41.92481358535587787628173828125</LatitudeDegrees>
              <LongitudeDegrees>-2.07168669439852237701416015625</LongitudeDegrees>
            </Position>
            <AltitudeMeters>789</AltitudeMeters>
            <DistanceMeters>386558.03501905</DistanceMeters>
          </Trackpoint>
          <Trackpoint>
            <Time>2021-08-01T11:39:49.000Z</Time>
            <Position>
              <LatitudeDegrees>41.924759186804294586181640625</LatitudeDegrees>
              <LongitudeDegrees>-2.07152701914310455322265625</LongitudeDegrees>
            </Position>
            <AltitudeMeters>788.4000244140625</AltitudeMeters>
            <DistanceMeters>386572.57814288</DistanceMeters>
          </Trackpoint>
          <Trackpoint>
            <Time>2021-08-01T11:39:54.000Z</Time>
            <Position>
              <LatitudeDegrees>41.924690790474414825439453125</LatitudeDegrees>
              <LongitudeDegrees>-2.0712881349027156829833984375</LongitudeDegrees>
            </Position>
            <AltitudeMeters>790.20001220703125</AltitudeMeters>
            <DistanceMeters>386593.77442612</DistanceMeters>
          </Trackpoint>
          <Trackpoint>
            <Time>2021-08-01T11:40:09.000Z</Time>
            <Position>
              <LatitudeDegrees>41.92454771138727664947509765625</LatitudeDegrees>
              <LongitudeDegrees>-2.07056486047804355621337890625</LongitudeDegrees>
            </Position>
            <AltitudeMeters>789.79998779296875</AltitudeMeters>
            <DistanceMeters>386655.75064234</DistanceMeters>
          </Trackpoint>
          <Trackpoint>
            <Time>2021-08-01T11:40:16.000Z</Time>
            <Position>
              <LatitudeDegrees>41.9246088154613971710205078125</LatitudeDegrees>
              <LongitudeDegrees>-2.07024165429174900054931640625</LongitudeDegrees>
            </Position>
            <AltitudeMeters>789.20001220703125</AltitudeMeters>
            <DistanceMeters>386683.36632766</DistanceMeters>
          </Trackpoint>
          <Trackpoint>
            <Time>2021-08-01T11:40:21.000Z</Time>
            <Position>
              <LatitudeDegrees>41.924687437713146209716796875</LatitudeDegrees>
              <LongitudeDegrees>-2.06998349167406558990478515625</LongitudeDegrees>
            </Position>
            <AltitudeMeters>788.4000244140625</AltitudeMeters>
            <DistanceMeters>386706.46700725</DistanceMeters>
          </Trackpoint>
          <Trackpoint>
            <Time>2021-08-01T11:40:23.000Z</Time>
            <Position>
              <LatitudeDegrees>41.92472599446773529052734375</LatitudeDegrees>
              <LongitudeDegrees>-2.06987787969410419464111328125</LongitudeDegrees>
            </Position>
            <AltitudeMeters>788</AltitudeMeters>
            <DistanceMeters>386716.20898361</DistanceMeters>
          </Trackpoint>
          <Trackpoint>
            <Time>2021-08-01T11:40:24.000Z</Time>
            <Position>
              <LatitudeDegrees>41.92474544048309326171875</LatitudeDegrees>
              <LongitudeDegrees>-2.0698276720941066741943359375</LongitudeDegrees>
            </Position>
            <AltitudeMeters>787.79998779296875</AltitudeMeters>
            <DistanceMeters>386720.89525568</DistanceMeters>
          </Trackpoint>
          <Trackpoint>
            <Time>2021-08-01T11:40:31.000Z</Time>
            <Position>
              <LatitudeDegrees>41.92492422647774219512939453125</LatitudeDegrees>
              <LongitudeDegrees>-2.069498263299465179443359375</LongitudeDegrees>
            </Position>
            <AltitudeMeters>786.79998779296875</AltitudeMeters>
            <DistanceMeters>386754.66064227</DistanceMeters>
          </Trackpoint>
          <Trackpoint>
            <Time>2021-08-01T11:40:32.000Z</Time>
            <Position>
              <LatitudeDegrees>41.92494736053049564361572265625</LatitudeDegrees>
              <LongitudeDegrees>-2.06944587640464305877685546875</LongitudeDegrees>
            </Position>
            <AltitudeMeters>786.4000244140625</AltitudeMeters>
            <DistanceMeters>386759.70511999</DistanceMeters>
          </Trackpoint>
          <Trackpoint>
            <Time>2021-08-01T11:40:40.000Z</Time>
            <Position>
              <LatitudeDegrees>41.925108544528484344482421875</LatitudeDegrees>
              <LongitudeDegrees>-2.0689995400607585906982421875</LongitudeDegrees>
            </Position>
            <AltitudeMeters>785.79998779296875</AltitudeMeters>
            <DistanceMeters>386800.790412</DistanceMeters>
          </Trackpoint>
          <Trackpoint>
            <Time>2021-08-01T11:40:42.000Z</Time>
            <Position>
              <LatitudeDegrees>41.9251804612576961517333984375</LatitudeDegrees>
              <LongitudeDegrees>-2.068869955837726593017578125</LongitudeDegrees>
            </Position>
            <AltitudeMeters>784.20001220703125</AltitudeMeters>
            <DistanceMeters>386814.1777167</DistanceMeters>
          </Trackpoint>
          <Trackpoint>
            <Time>2021-08-01T11:40:45.000Z</Time>
            <Position>
              <LatitudeDegrees>41.9253397174179553985595703125</LatitudeDegrees>
              <LongitudeDegrees>-2.068713046610355377197265625</LongitudeDegrees>
            </Position>
            <AltitudeMeters>782.79998779296875</AltitudeMeters>
            <DistanceMeters>386836.15581601</DistanceMeters>
          </Trackpoint>
          <Trackpoint>
            <Time>2021-08-01T11:40:47.000Z</Time>
            <Position>
              <LatitudeDegrees>41.9254577346146106719970703125</LatitudeDegrees>
              <LongitudeDegrees>-2.0686186663806438446044921875</LongitudeDegrees>
            </Position>
            <AltitudeMeters>781.79998779296875</AltitudeMeters>
            <DistanceMeters>386851.44064959</DistanceMeters>
          </Trackpoint>
          <Trackpoint>
            <Time>2021-08-01T11:40:49.000Z</Time>
            <Position>
              <LatitudeDegrees>41.9255894981324672698974609375</LatitudeDegrees>
              <LongitudeDegrees>-2.0685432292520999908447265625</LongitudeDegrees>
            </Position>
            <AltitudeMeters>780.5999755859375</AltitudeMeters>
            <DistanceMeters>386867.38136323</DistanceMeters>
          </Trackpoint>
          <Trackpoint>
            <Time>2021-08-01T11:40:53.000Z</Time>
            <Position>
              <LatitudeDegrees>41.92585914395749568939208984375</LatitudeDegrees>
              <LongitudeDegrees>-2.06839679740369319915771484375</LongitudeDegrees>
            </Position>
            <AltitudeMeters>780.20001220703125</AltitudeMeters>
            <DistanceMeters>386899.75062025</DistanceMeters>
          </Trackpoint>
          <Trackpoint>
            <Time>2021-08-01T11:40:56.000Z</Time>
            <Position>
              <LatitudeDegrees>41.9260300509631633758544921875</LatitudeDegrees>
              <LongitudeDegrees>-2.06836477853357791900634765625</LongitudeDegrees>
            </Position>
            <AltitudeMeters>781.5999755859375</AltitudeMeters>
            <DistanceMeters>386918.95683337</DistanceMeters>
          </Trackpoint>
          <Trackpoint>
            <Time>2021-08-01T11:40:58.000Z</Time>
            <Position>
              <LatitudeDegrees>41.9261219166219234466552734375</LatitudeDegrees>
              <LongitudeDegrees>-2.06835689954459667205810546875</LongitudeDegrees>
            </Position>
            <AltitudeMeters>782.79998779296875</AltitudeMeters>
            <DistanceMeters>386929.20298722</DistanceMeters>
          </Trackpoint>
          <Trackpoint>
            <Time>2021-08-01T11:41:01.000Z</Time>
            <Position>
              <LatitudeDegrees>41.92624152638018131256103515625</LatitudeDegrees>
              <LongitudeDegrees>-2.06832923926413059234619140625</LongitudeDegrees>
            </Position>
            <AltitudeMeters>784</AltitudeMeters>
            <DistanceMeters>386942.71149509</DistanceMeters>
          </Trackpoint>
          <Trackpoint>
            <Time>2021-08-01T11:41:11.000Z</Time>
            <Position>
              <LatitudeDegrees>41.92668090574443340301513671875</LatitudeDegrees>
              <LongitudeDegrees>-2.0681105554103851318359375</LongitudeDegrees>
            </Position>
            <AltitudeMeters>785</AltitudeMeters>
            <DistanceMeters>386994.86047286</DistanceMeters>
          </Trackpoint>
          <Trackpoint>
            <Time>2021-08-01T11:41:13.000Z</Time>
            <Position>
              <LatitudeDegrees>41.92676874808967113494873046875</LatitudeDegrees>
              <LongitudeDegrees>-2.06806940026581287384033203125</LongitudeDegrees>
            </Position>
            <AltitudeMeters>785.20001220703125</AltitudeMeters>
            <DistanceMeters>387005.21446086</DistanceMeters>
          </Trackpoint>
          <Trackpoint>
            <Time>2021-08-01T11:41:17.000Z</Time>
            <Position>
              <LatitudeDegrees>41.92690922878682613372802734375</LatitudeDegrees>
              <LongitudeDegrees>-2.067878544330596923828125</LongitudeDegrees>
            </Position>
            <AltitudeMeters>784.79998779296875</AltitudeMeters>
            <DistanceMeters>387027.44644759</DistanceMeters>
          </Trackpoint>
          <Trackpoint>
            <Time>2021-08-01T11:41:22.000Z</Time>
            <Position>
              <LatitudeDegrees>41.9270358793437480926513671875</LatitudeDegrees>
              <LongitudeDegrees>-2.06754368729889392852783203125</LongitudeDegrees>
            </Position>
            <AltitudeMeters>784</AltitudeMeters>
            <DistanceMeters>387058.55256839</DistanceMeters>
          </Trackpoint>
          <Trackpoint>
            <Time>2021-08-01T11:41:27.000Z</Time>
            <Position>
              <LatitudeDegrees>41.9271870888769626617431640625</LatitudeDegrees>
              <LongitudeDegrees>-2.06721193157136440277099609375</LongitudeDegrees>
            </Position>
            <AltitudeMeters>782.79998779296875</AltitudeMeters>
            <DistanceMeters>387090.76984802</DistanceMeters>
          </Trackpoint>
          <Trackpoint>
            <Time>2021-08-01T11:41:34.000Z</Time>
            <Position>
              <LatitudeDegrees>41.927456147968769073486328125</LatitudeDegrees>
              <LongitudeDegrees>-2.06679870374500751495361328125</LongitudeDegrees>
            </Position>
            <AltitudeMeters>781.79998779296875</AltitudeMeters>
            <DistanceMeters>387136.24199262</DistanceMeters>
          </Trackpoint>
          <Trackpoint>
            <Time>2021-08-01T11:41:36.000Z</Time>
            <Position>
              <LatitudeDegrees>41.92751943133771419525146484375</LatitudeDegrees>
              <LongitudeDegrees>-2.06666140817105770111083984375</LongitudeDegrees>
            </Position>
            <AltitudeMeters>781.20001220703125</AltitudeMeters>
            <DistanceMeters>387149.61613761</DistanceMeters>
          </Trackpoint>
          <Trackpoint>
            <Time>2021-08-01T11:41:38.000Z</Time>
            <Position>
              <LatitudeDegrees>41.9275615923106670379638671875</LatitudeDegrees>
              <LongitudeDegrees>-2.0665039122104644775390625</LongitudeDegrees>
            </Position>
            <AltitudeMeters>780.79998779296875</AltitudeMeters>
            <DistanceMeters>387163.47636294</DistanceMeters>
          </Trackpoint>
          <Trackpoint>
            <Time>2021-08-01T11:41:41.000Z</Time>
            <Position>
              <LatitudeDegrees>41.92757743410766124725341796875</LatitudeDegrees>
              <LongitudeDegrees>-2.0662593282759189605712890625</LongitudeDegrees>
            </Position>
            <AltitudeMeters>780.20001220703125</AltitudeMeters>
            <DistanceMeters>387183.80675052</DistanceMeters>
          </Trackpoint>
          <Trackpoint>
            <Time>2021-08-01T11:41:43.000Z</Time>
            <Position>
              <LatitudeDegrees>41.92758564837276935577392578125</LatitudeDegrees>
              <LongitudeDegrees>-2.0661084540188312530517578125</LongitudeDegrees>
            </Position>
            <AltitudeMeters>780</AltitudeMeters>
            <DistanceMeters>387196.33370819</DistanceMeters>
          </Trackpoint>
          <Trackpoint>
            <Time>2021-08-01T11:41:47.000Z</Time>
            <Position>
              <LatitudeDegrees>41.92762789316475391387939453125</LatitudeDegrees>
              <LongitudeDegrees>-2.06582372076809406280517578125</LongitudeDegrees>
            </Position>
            <AltitudeMeters>780</AltitudeMeters>
            <DistanceMeters>387220.37621811</DistanceMeters>
          </Trackpoint>
          <Trackpoint>
            <Time>2021-08-01T11:41:49.000Z</Time>
            <Position>
              <LatitudeDegrees>41.927670054137706756591796875</LatitudeDegrees>
              <LongitudeDegrees>-2.06568676047027111053466796875</LongitudeDegrees>
            </Position>
            <AltitudeMeters>779.5999755859375</AltitudeMeters>
            <DistanceMeters>387232.65012398</DistanceMeters>
          </Trackpoint>
          <Trackpoint>
            <Time>2021-08-01T11:41:51.000Z</Time>
            <Position>
              <LatitudeDegrees>41.92772998474538326263427734375</LatitudeDegrees>
              <LongitudeDegrees>-2.0655559189617633819580078125</LongitudeDegrees>
            </Position>
            <AltitudeMeters>779.20001220703125</AltitudeMeters>
            <DistanceMeters>387245.37306194</DistanceMeters>
          </Trackpoint>
          <Trackpoint>
            <Time>2021-08-01T11:42:01.000Z</Time>
            <Position>
              <LatitudeDegrees>41.928137429058551788330078125</LatitudeDegrees>
              <LongitudeDegrees>-2.065010927617549896240234375</LongitudeDegrees>
            </Position>
            <AltitudeMeters>778.79998779296875</AltitudeMeters>
            <DistanceMeters>387309.35123971</DistanceMeters>
          </Trackpoint>
          <Trackpoint>
            <Time>2021-08-01T11:42:03.000Z</Time>
            <Position>
              <LatitudeDegrees>41.92824446596205234527587890625</LatitudeDegrees>
              <LongitudeDegrees>-2.064933478832244873046875</LongitudeDegrees>
            </Position>
            <AltitudeMeters>778.5999755859375</AltitudeMeters>
            <DistanceMeters>387322.88112181</DistanceMeters>
          </Trackpoint>
          <Trackpoint>
            <Time>2021-08-01T11:42:09.000Z</Time>
            <Position>
              <LatitudeDegrees>41.92858661524951457977294921875</LatitudeDegrees>
              <LongitudeDegrees>-2.06472703255712985992431640625</LongitudeDegrees>
            </Position>
            <AltitudeMeters>777.5999755859375</AltitudeMeters>
            <DistanceMeters>387364.62403308</DistanceMeters>
          </Trackpoint>
          <Trackpoint>
            <Time>2021-08-01T11:42:14.000Z</Time>
            <Position>
              <LatitudeDegrees>41.92887059412896633148193359375</LatitudeDegrees>
              <LongitudeDegrees>-2.06454615108668804168701171875</LongitudeDegrees>
            </Position>
            <AltitudeMeters>776.79998779296875</AltitudeMeters>
            <DistanceMeters>387399.60057717</DistanceMeters>
          </Trackpoint>
          <Trackpoint>
            <Time>2021-08-01T11:42:25.000Z</Time>
            <Position>
              <LatitudeDegrees>41.9292906112968921661376953125</LatitudeDegrees>
              <LongitudeDegrees>-2.0640384592115879058837890625</LongitudeDegrees>
            </Position>
            <AltitudeMeters>777.4000244140625</AltitudeMeters>
            <DistanceMeters>387462.47164748</DistanceMeters>
          </Trackpoint>
          <Trackpoint>
            <Time>2021-08-01T11:42:32.000Z</Time>
            <Position>
              <LatitudeDegrees>41.92954164929687976837158203125</LatitudeDegrees>
              <LongitudeDegrees>-2.06380435265600681304931640625</LongitudeDegrees>
            </Position>
            <AltitudeMeters>777.5999755859375</AltitudeMeters>
            <DistanceMeters>387496.47873336</DistanceMeters>
          </Trackpoint>
          <Trackpoint>
            <Time>2021-08-01T11:42:37.000Z</Time>
            <Position>
              <LatitudeDegrees>41.92968078888952732086181640625</LatitudeDegrees>
              <LongitudeDegrees>-2.06352422945201396942138671875</LongitudeDegrees>
            </Position>
            <AltitudeMeters>776.5999755859375</AltitudeMeters>
            <DistanceMeters>387524.36903356</DistanceMeters>
          </Trackpoint>
          <Trackpoint>
            <Time>2021-08-01T11:42:41.000Z</Time>
            <Position>
              <LatitudeDegrees>41.9298283942043781280517578125</LatitudeDegrees>
              <LongitudeDegrees>-2.063362710177898406982421875</LongitudeDegrees>
            </Position>
            <AltitudeMeters>776.4000244140625</AltitudeMeters>
            <DistanceMeters>387545.55359796</DistanceMeters>
          </Trackpoint>
          <Trackpoint>
            <Time>2021-08-01T11:42:51.000Z</Time>
            <Position>
              <LatitudeDegrees>41.9301998801529407501220703125</LatitudeDegrees>
              <LongitudeDegrees>-2.06307227723300457000732421875</LongitudeDegrees>
            </Position>
            <AltitudeMeters>777.4000244140625</AltitudeMeters>
            <DistanceMeters>387593.38612318</DistanceMeters>
          </Trackpoint>
          <Trackpoint>
            <Time>2021-08-01T11:42:54.000Z</Time>
            <Position>
              <LatitudeDegrees>41.93031814880669116973876953125</LatitudeDegrees>
              <LongitudeDegrees>-2.063025422394275665283203125</LongitudeDegrees>
            </Position>
            <AltitudeMeters>777.5999755859375</AltitudeMeters>
            <DistanceMeters>387607.1095074</DistanceMeters>
          </Trackpoint>
          <Trackpoint>
            <Time>2021-08-01T11:43:04.000Z</Time>
            <Position>
              <LatitudeDegrees>41.9307312928140163421630859375</LatitudeDegrees>
              <LongitudeDegrees>-2.062993906438350677490234375</LongitudeDegrees>
            </Position>
            <AltitudeMeters>778.4000244140625</AltitudeMeters>
            <DistanceMeters>387653.16728055</DistanceMeters>
          </Trackpoint>
          <Trackpoint>
            <Time>2021-08-01T11:43:07.000Z</Time>
            <Position>
              <LatitudeDegrees>41.93084637634456157684326171875</LatitudeDegrees>
              <LongitudeDegrees>-2.06295945681631565093994140625</LongitudeDegrees>
            </Position>
            <AltitudeMeters>778.5999755859375</AltitudeMeters>
            <DistanceMeters>387666.28991587</DistanceMeters>
          </Trackpoint>
          <Trackpoint>
            <Time>2021-08-01T11:43:20.000Z</Time>
            <Position>
              <LatitudeDegrees>41.93133571185171604156494140625</LatitudeDegrees>
              <LongitudeDegrees>-2.0626051537692546844482421875</LongitudeDegrees>
            </Position>
            <AltitudeMeters>778.5999755859375</AltitudeMeters>
            <DistanceMeters>387728.15274484</DistanceMeters>
          </Trackpoint>
          <Trackpoint>
            <Time>2021-08-01T11:43:30.000Z</Time>
            <Position>
              <LatitudeDegrees>41.93169680424034595489501953125</LatitudeDegrees>
              <LongitudeDegrees>-2.0621944405138492584228515625</LongitudeDegrees>
            </Position>
            <AltitudeMeters>777.5999755859375</AltitudeMeters>
            <DistanceMeters>387780.80063202</DistanceMeters>
          </Trackpoint>
          <Trackpoint>
            <Time>2021-08-01T11:43:42.000Z</Time>
            <Position>
              <LatitudeDegrees>41.93210609257221221923828125</LatitudeDegrees>
              <LongitudeDegrees>-2.0616512931883335113525390625</LongitudeDegrees>
            </Position>
            <AltitudeMeters>777.4000244140625</AltitudeMeters>
            <DistanceMeters>387844.81507328</DistanceMeters>
          </Trackpoint>
          <Trackpoint>
            <Time>2021-08-01T11:43:55.000Z</Time>
            <Position>
              <LatitudeDegrees>41.9324509240686893463134765625</LatitudeDegrees>
              <LongitudeDegrees>-2.06107537262141704559326171875</LongitudeDegrees>
            </Position>
            <AltitudeMeters>777</AltitudeMeters>
            <DistanceMeters>387906.02880149</DistanceMeters>
          </Trackpoint>
          <Trackpoint>
            <Time>2021-08-01T11:43:56.000Z</Time>
            <Position>
              <LatitudeDegrees>41.9324841164052486419677734375</LatitudeDegrees>
              <LongitudeDegrees>-2.0610166154801845550537109375</LongitudeDegrees>
            </Position>
            <AltitudeMeters>776.79998779296875</AltitudeMeters>
            <DistanceMeters>387912.13791812</DistanceMeters>
          </Trackpoint>
          <Trackpoint>
            <Time>2021-08-01T11:44:00.000Z</Time>
            <Position>
              <LatitudeDegrees>41.93263943307101726531982421875</LatitudeDegrees>
              <LongitudeDegrees>-2.06087035126984119415283203125</LongitudeDegrees>
            </Position>
            <AltitudeMeters>776.79998779296875</AltitudeMeters>
            <DistanceMeters>387933.24540285</DistanceMeters>
          </Trackpoint>
          <Trackpoint>
            <Time>2021-08-01T11:44:18.000Z</Time>
            <Position>
              <LatitudeDegrees>41.93308551795780658721923828125</LatitudeDegrees>
              <LongitudeDegrees>-2.06041102297604084014892578125</LongitudeDegrees>
            </Position>
            <AltitudeMeters>777.79998779296875</AltitudeMeters>
            <DistanceMeters>387995.78828728</DistanceMeters>
          </Trackpoint>
          <Trackpoint>
            <Time>2021-08-01T11:44:22.000Z</Time>
            <Position>
              <LatitudeDegrees>41.933212839066982269287109375</LatitudeDegrees>
              <LongitudeDegrees>-2.06028898246586322784423828125</LongitudeDegrees>
            </Position>
            <AltitudeMeters>777.20001220703125</AltitudeMeters>
            <DistanceMeters>388013.19296896</DistanceMeters>
          </Trackpoint>
          <Trackpoint>
            <Time>2021-08-01T11:44:26.000Z</Time>
            <Position>
              <LatitudeDegrees>41.93329171277582645416259765625</LatitudeDegrees>
              <LongitudeDegrees>-2.060056887567043304443359375</LongitudeDegrees>
            </Position>
            <AltitudeMeters>777.20001220703125</AltitudeMeters>
            <DistanceMeters>388034.32055138</DistanceMeters>
          </Trackpoint>
          <Trackpoint>
            <Time>2021-08-01T11:44:28.000Z</Time>
            <Position>
              <LatitudeDegrees>41.93332515656948089599609375</LatitudeDegrees>
              <LongitudeDegrees>-2.05993023701012134552001953125</LongitudeDegrees>
            </Position>
            <AltitudeMeters>776.79998779296875</AltitudeMeters>
            <DistanceMeters>388045.44801327</DistanceMeters>
          </Trackpoint>
          <Trackpoint>
            <Time>2021-08-01T11:44:29.000Z</Time>
            <Position>
              <LatitudeDegrees>41.9333487935364246368408203125</LatitudeDegrees>
              <LongitudeDegrees>-2.0598693005740642547607421875</LongitudeDegrees>
            </Position>
            <AltitudeMeters>776.5999755859375</AltitudeMeters>
            <DistanceMeters>388051.13851889</DistanceMeters>
          </Trackpoint>
          <Trackpoint>
            <Time>2021-08-01T11:44:38.000Z</Time>
            <Position>
              <LatitudeDegrees>41.933554150164127349853515625</LatitudeDegrees>
              <LongitudeDegrees>-2.05932087264955043792724609375</LongitudeDegrees>
            </Position>
            <AltitudeMeters>776.20001220703125</AltitudeMeters>
            <DistanceMeters>388101.97630128</DistanceMeters>
          </Trackpoint>
          <Trackpoint>
            <Time>2021-08-01T11:44:43.000Z</Time>
            <Position>
              <LatitudeDegrees>41.93366252817213535308837890625</LatitudeDegrees>
              <LongitudeDegrees>-2.05903857015073299407958984375</LongitudeDegrees>
            </Position>
            <AltitudeMeters>775.4000244140625</AltitudeMeters>
            <DistanceMeters>388128.27999793</DistanceMeters>
          </Trackpoint>
          <Trackpoint>
            <Time>2021-08-01T11:44:47.000Z</Time>
            <Position>
              <LatitudeDegrees>41.9337631948292255401611328125</LatitudeDegrees>
              <LongitudeDegrees>-2.0587719418108463287353515625</LongitudeDegrees>
            </Position>
            <AltitudeMeters>774.4000244140625</AltitudeMeters>
            <DistanceMeters>388153.03732954</DistanceMeters>
          </Trackpoint>
          <Trackpoint>
            <Time>2021-08-01T11:44:49.000Z</Time>
            <Position>
              <LatitudeDegrees>41.93383234553039073944091796875</LatitudeDegrees>
              <LongitudeDegrees>-2.0586361549794673919677734375</LongitudeDegrees>
            </Position>
            <AltitudeMeters>773.5999755859375</AltitudeMeters>
            <DistanceMeters>388166.66264941</DistanceMeters>
          </Trackpoint>
          <Trackpoint>
            <Time>2021-08-01T11:44:50.000Z</Time>
            <Position>
              <LatitudeDegrees>41.93387727253139019012451171875</LatitudeDegrees>
              <LongitudeDegrees>-2.058578319847583770751953125</LongitudeDegrees>
            </Position>
            <AltitudeMeters>773</AltitudeMeters>
            <DistanceMeters>388173.58656997</DistanceMeters>
          </Trackpoint>
          <Trackpoint>
            <Time>2021-08-01T11:44:53.000Z</Time>
            <Position>
              <LatitudeDegrees>41.93401926197111606597900390625</LatitudeDegrees>
              <LongitudeDegrees>-2.0584393478929996490478515625</LongitudeDegrees>
            </Position>
            <AltitudeMeters>771.5999755859375</AltitudeMeters>
            <DistanceMeters>388193.13576164</DistanceMeters>
          </Trackpoint>
          <Trackpoint>
            <Time>2021-08-01T11:44:57.000Z</Time>
            <Position>
              <LatitudeDegrees>41.9341608323156833648681640625</LatitudeDegrees>
              <LongitudeDegrees>-2.05817573703825473785400390625</LongitudeDegrees>
            </Position>
            <AltitudeMeters>771.20001220703125</AltitudeMeters>
            <DistanceMeters>388220.05584197</DistanceMeters>
          </Trackpoint>
          <Trackpoint>
            <Time>2021-08-01T11:44:59.000Z</Time>
            <Position>
              <LatitudeDegrees>41.93422495387494564056396484375</LatitudeDegrees>
              <LongitudeDegrees>-2.05803156830370426177978515625</LongitudeDegrees>
            </Position>
            <AltitudeMeters>770.5999755859375</AltitudeMeters>
            <DistanceMeters>388233.96354622</DistanceMeters>
          </Trackpoint>
          <Trackpoint>
            <Time>2021-08-01T11:45:00.000Z</Time>
            <Position>
              <LatitudeDegrees>41.93426853977143764495849609375</LatitudeDegrees>
              <LongitudeDegrees>-2.0579649321734905242919921875</LongitudeDegrees>
            </Position>
            <AltitudeMeters>770.4000244140625</AltitudeMeters>
            <DistanceMeters>388241.31077679</DistanceMeters>
          </Trackpoint>
          <Trackpoint>
            <Time>2021-08-01T11:45:02.000Z</Time>
            <Position>
              <LatitudeDegrees>41.93437926471233367919921875</LatitudeDegrees>
              <LongitudeDegrees>-2.05784565769135951995849609375</LongitudeDegrees>
            </Position>
            <AltitudeMeters>768.5999755859375</AltitudeMeters>
            <DistanceMeters>388257.10351915</DistanceMeters>
          </Trackpoint>
          <Trackpoint>
            <Time>2021-08-01T11:45:04.000Z</Time>
            <Position>
              <LatitudeDegrees>41.93449367769062519073486328125</LatitudeDegrees>
              <LongitudeDegrees>-2.057707607746124267578125</LongitudeDegrees>
            </Position>
            <AltitudeMeters>767.20001220703125</AltitudeMeters>
            <DistanceMeters>388274.2151894</DistanceMeters>
          </Trackpoint>
          <Trackpoint>
            <Time>2021-08-01T11:45:06.000Z</Time>
            <Position>
              <LatitudeDegrees>41.93459342233836650848388671875</LatitudeDegrees>
              <LongitudeDegrees>-2.05754541791975498199462890625</LongitudeDegrees>
            </Position>
            <AltitudeMeters>766.4000244140625</AltitudeMeters>
            <DistanceMeters>388291.63905723</DistanceMeters>
          </Trackpoint>
          <Trackpoint>
            <Time>2021-08-01T11:45:07.000Z</Time>
            <Position>
              <LatitudeDegrees>41.9346441328525543212890625</LatitudeDegrees>
              <LongitudeDegrees>-2.057480625808238983154296875</LongitudeDegrees>
            </Position>
            <AltitudeMeters>766.4000244140625</AltitudeMeters>
            <DistanceMeters>388299.42545134</DistanceMeters>
          </Trackpoint>
          <Trackpoint>
            <Time>2021-08-01T11:45:10.000Z</Time>
            <Position>
              <LatitudeDegrees>41.9348300434648990631103515625</LatitudeDegrees>
              <LongitudeDegrees>-2.05735246650874614715576171875</LongitudeDegrees>
            </Position>
            <AltitudeMeters>766</AltitudeMeters>
            <DistanceMeters>388322.68002418</DistanceMeters>
          </Trackpoint>
          <Trackpoint>
            <Time>2021-08-01T11:45:11.000Z</Time>
            <Position>
              <LatitudeDegrees>41.93489718250930309295654296875</LatitudeDegrees>
              <LongitudeDegrees>-2.05732162110507488250732421875</LongitudeDegrees>
            </Position>
            <AltitudeMeters>765</AltitudeMeters>
            <DistanceMeters>388330.57696712</DistanceMeters>
          </Trackpoint>
          <Trackpoint>
            <Time>2021-08-01T11:45:13.000Z</Time>
            <Position>
              <LatitudeDegrees>41.9350385852158069610595703125</LatitudeDegrees>
              <LongitudeDegrees>-2.05727082677185535430908203125</LongitudeDegrees>
            </Position>
            <AltitudeMeters>763.4000244140625</AltitudeMeters>
            <DistanceMeters>388346.8678832</DistanceMeters>
          </Trackpoint>
          <Trackpoint>
            <Time>2021-08-01T11:45:17.000Z</Time>
            <Position>
              <LatitudeDegrees>41.9353292696177959442138671875</LatitudeDegrees>
              <LongitudeDegrees>-2.05723143182694911956787109375</LongitudeDegrees>
            </Position>
            <AltitudeMeters>762.4000244140625</AltitudeMeters>
            <DistanceMeters>388379.38563053</DistanceMeters>
          </Trackpoint>
          <Trackpoint>
            <Time>2021-08-01T11:45:21.000Z</Time>
            <Position>
              <LatitudeDegrees>41.935591958463191986083984375</LatitudeDegrees>
              <LongitudeDegrees>-2.0572517998516559600830078125</LongitudeDegrees>
            </Position>
            <AltitudeMeters>761.20001220703125</AltitudeMeters>
            <DistanceMeters>388408.67205607</DistanceMeters>
          </Trackpoint>
          <Trackpoint>
            <Time>2021-08-01T11:45:31.000Z</Time>
            <Position>
              <LatitudeDegrees>41.9361617602407932281494140625</LatitudeDegrees>
              <LongitudeDegrees>-2.05740979872643947601318359375</LongitudeDegrees>
            </Position>
            <AltitudeMeters>760.4000244140625</AltitudeMeters>
            <DistanceMeters>388473.42737591</DistanceMeters>
          </Trackpoint>
          <Trackpoint>
            <Time>2021-08-01T11:45:32.000Z</Time>
            <Position>
              <LatitudeDegrees>41.9362227804958820343017578125</LatitudeDegrees>
              <LongitudeDegrees>-2.057414241135120391845703125</LongitudeDegrees>
            </Position>
            <AltitudeMeters>760</AltitudeMeters>
            <DistanceMeters>388480.22958965</DistanceMeters>
          </Trackpoint>
          <Trackpoint>
            <Time>2021-08-01T11:45:34.000Z</Time>
            <Position>
              <LatitudeDegrees>41.93633451126515865325927734375</LatitudeDegrees>
              <LongitudeDegrees>-2.0574097149074077606201171875</LongitudeDegrees>
            </Position>
            <AltitudeMeters>759.5999755859375</AltitudeMeters>
            <DistanceMeters>388492.67083317</DistanceMeters>
          </Trackpoint>
          <Trackpoint>
            <Time>2021-08-01T11:45:37.000Z</Time>
            <Position>
              <LatitudeDegrees>41.93644515238702297210693359375</LatitudeDegrees>
              <LongitudeDegrees>-2.0573855750262737274169921875</LongitudeDegrees>
            </Position>
            <AltitudeMeters>758.79998779296875</AltitudeMeters>
            <DistanceMeters>388505.1468673</DistanceMeters>
          </Trackpoint>
          <Trackpoint>
            <Time>2021-08-01T11:45:40.000Z</Time>
            <Position>
              <LatitudeDegrees>41.93652260117232799530029296875</LatitudeDegrees>
              <LongitudeDegrees>-2.0573225431144237518310546875</LongitudeDegrees>
            </Position>
            <AltitudeMeters>757.5999755859375</AltitudeMeters>
            <DistanceMeters>388515.22373237</DistanceMeters>
          </Trackpoint>
          <Trackpoint>
            <Time>2021-08-01T11:45:53.000Z</Time>
            <Position>
              <LatitudeDegrees>41.93680406548082828521728515625</LatitudeDegrees>
              <LongitudeDegrees>-2.057041414082050323486328125</LongitudeDegrees>
            </Position>
            <AltitudeMeters>758.79998779296875</AltitudeMeters>
            <DistanceMeters>388554.2518414</DistanceMeters>
          </Trackpoint>
          <Trackpoint>
            <Time>2021-08-01T11:45:55.000Z</Time>
            <Position>
              <LatitudeDegrees>41.93683214485645294189453125</LatitudeDegrees>
              <LongitudeDegrees>-2.0570519752800464630126953125</LongitudeDegrees>
            </Position>
            <AltitudeMeters>759.4000244140625</AltitudeMeters>
            <DistanceMeters>388557.49669412</DistanceMeters>
          </Trackpoint>
          <Trackpoint>
            <Time>2021-08-01T11:46:04.000Z</Time>
            <Position>
              <LatitudeDegrees>41.937020905315876007080078125</LatitudeDegrees>
              <LongitudeDegrees>-2.05712665803730487823486328125</LongitudeDegrees>
            </Position>
            <AltitudeMeters>760</AltitudeMeters>
            <DistanceMeters>388579.39700188</DistanceMeters>
          </Trackpoint>
          <Trackpoint>
            <Time>2021-08-01T11:46:14.000Z</Time>
            <Position>
              <LatitudeDegrees>41.9372229091823101043701171875</LatitudeDegrees>
              <LongitudeDegrees>-2.05703906714916229248046875</LongitudeDegrees>
            </Position>
            <AltitudeMeters>761</AltitudeMeters>
            <DistanceMeters>388603.02122408</DistanceMeters>
          </Trackpoint>
          <Trackpoint>
            <Time>2021-08-01T11:46:18.000Z</Time>
            <Position>
              <LatitudeDegrees>41.937306560575962066650390625</LatitudeDegrees>
              <LongitudeDegrees>-2.05698735080659389495849609375</LongitudeDegrees>
            </Position>
            <AltitudeMeters>762.4000244140625</AltitudeMeters>
            <DistanceMeters>388613.26914041</DistanceMeters>
          </Trackpoint>
          <Trackpoint>
            <Time>2021-08-01T11:46:23.000Z</Time>
            <Position>
              <LatitudeDegrees>41.93739951588213443756103515625</LatitudeDegrees>
              <LongitudeDegrees>-2.05687888897955417633056640625</LongitudeDegrees>
            </Position>
            <AltitudeMeters>763.20001220703125</AltitudeMeters>
            <DistanceMeters>388626.96947504</DistanceMeters>
          </Trackpoint>
          <Trackpoint>
            <Time>2021-08-01T11:46:34.000Z</Time>
            <Position>
              <LatitudeDegrees>41.93747461773455142974853515625</LatitudeDegrees>
              <LongitudeDegrees>-2.0564214885234832763671875</LongitudeDegrees>
            </Position>
            <AltitudeMeters>764.20001220703125</AltitudeMeters>
            <DistanceMeters>388665.75143608</DistanceMeters>
          </Trackpoint>
          <Trackpoint>
            <Time>2021-08-01T11:46:40.000Z</Time>
            <Position>
              <LatitudeDegrees>41.937452070415019989013671875</LatitudeDegrees>
              <LongitudeDegrees>-2.05619107000529766082763671875</LongitudeDegrees>
            </Position>
            <AltitudeMeters>765.4000244140625</AltitudeMeters>
            <DistanceMeters>388684.99287923</DistanceMeters>
          </Trackpoint>
          <Trackpoint>
            <Time>2021-08-01T11:46:57.000Z</Time>
            <Position>
              <LatitudeDegrees>41.9374723546206951141357421875</LatitudeDegrees>
              <LongitudeDegrees>-2.05556494183838367462158203125</LongitudeDegrees>
            </Position>
            <AltitudeMeters>766.5999755859375</AltitudeMeters>
            <DistanceMeters>388736.88199016</DistanceMeters>
          </Trackpoint>
          <Trackpoint>
            <Time>2021-08-01T11:47:00.000Z</Time>
            <Position>
              <LatitudeDegrees>41.93749037571251392364501953125</LatitudeDegrees>
              <LongitudeDegrees>-2.05546461045742034912109375</LongitudeDegrees>
            </Position>
            <AltitudeMeters>767.79998779296875</AltitudeMeters>
            <DistanceMeters>388745.42752865</DistanceMeters>
          </Trackpoint>
          <Trackpoint>
            <Time>2021-08-01T11:47:05.000Z</Time>
            <Position>
              <LatitudeDegrees>41.93750864826142787933349609375</LatitudeDegrees>
              <LongitudeDegrees>-2.055299989879131317138671875</LongitudeDegrees>
            </Position>
            <AltitudeMeters>769</AltitudeMeters>
            <DistanceMeters>388759.20804053</DistanceMeters>
          </Trackpoint>
          <Trackpoint>
            <Time>2021-08-01T11:47:14.000Z</Time>
            <Position>
              <LatitudeDegrees>41.93753362633287906646728515625</LatitudeDegrees>
              <LongitudeDegrees>-2.05500486306846141815185546875</LongitudeDegrees>
            </Position>
            <AltitudeMeters>770</AltitudeMeters>
            <DistanceMeters>388783.80087343</DistanceMeters>
          </Trackpoint>
          <Trackpoint>
            <Time>2021-08-01T11:47:18.000Z</Time>
            <Position>
              <LatitudeDegrees>41.937553994357585906982421875</LatitudeDegrees>
              <LongitudeDegrees>-2.05487108789384365081787109375</LongitudeDegrees>
            </Position>
            <AltitudeMeters>771.4000244140625</AltitudeMeters>
            <DistanceMeters>388795.10665655</DistanceMeters>
          </Trackpoint>
          <Trackpoint>
            <Time>2021-08-01T11:47:22.000Z</Time>
            <Position>
              <LatitudeDegrees>41.93755902349948883056640625</LatitudeDegrees>
              <LongitudeDegrees>-2.0547343790531158447265625</LongitudeDegrees>
            </Position>
            <AltitudeMeters>772.5999755859375</AltitudeMeters>
            <DistanceMeters>388806.43916498</DistanceMeters>
          </Trackpoint>
          <Trackpoint>
            <Time>2021-08-01T11:47:37.000Z</Time>
            <Position>
              <LatitudeDegrees>41.937562711536884307861328125</LatitudeDegrees>
              <LongitudeDegrees>-2.054182849824428558349609375</LongitudeDegrees>
            </Position>
            <AltitudeMeters>773.5999755859375</AltitudeMeters>
            <DistanceMeters>388852.10461815</DistanceMeters>
          </Trackpoint>
          <Trackpoint>
            <Time>2021-08-01T11:47:43.000Z</Time>
            <Position>
              <LatitudeDegrees>41.9375487975776195526123046875</LatitudeDegrees>
              <LongitudeDegrees>-2.05396793782711029052734375</LongitudeDegrees>
            </Position>
            <AltitudeMeters>774.5999755859375</AltitudeMeters>
            <DistanceMeters>388869.9655963</DistanceMeters>
          </Trackpoint>
          <Trackpoint>
            <Time>2021-08-01T11:47:51.000Z</Time>
            <Position>
              <LatitudeDegrees>41.93752993829548358917236328125</LatitudeDegrees>
              <LongitudeDegrees>-2.05368437804281711578369140625</LongitudeDegrees>
            </Position>
            <AltitudeMeters>775.5999755859375</AltitudeMeters>
            <DistanceMeters>388893.53643599</DistanceMeters>
          </Trackpoint>
          <Trackpoint>
            <Time>2021-08-01T11:48:02.000Z</Time>
            <Position>
              <LatitudeDegrees>41.9374747015535831451416015625</LatitudeDegrees>
              <LongitudeDegrees>-2.05331590957939624786376953125</LongitudeDegrees>
            </Position>
            <AltitudeMeters>776.5999755859375</AltitudeMeters>
            <DistanceMeters>388924.65692327</DistanceMeters>
          </Trackpoint>
          <Trackpoint>
            <Time>2021-08-01T11:48:07.000Z</Time>
            <Position>
              <LatitudeDegrees>41.93744293414056301116943359375</LatitudeDegrees>
              <LongitudeDegrees>-2.053163610398769378662109375</LongitudeDegrees>
            </Position>
            <AltitudeMeters>777.20001220703125</AltitudeMeters>
            <DistanceMeters>388937.7530388</DistanceMeters>
          </Trackpoint>
          <Trackpoint>
            <Time>2021-08-01T11:48:15.000Z</Time>
            <Position>
              <LatitudeDegrees>41.93739532493054866790771484375</LatitudeDegrees>
              <LongitudeDegrees>-2.0529364608228206634521484375</LongitudeDegrees>
            </Position>
            <AltitudeMeters>777.79998779296875</AltitudeMeters>
            <DistanceMeters>388957.29206569</DistanceMeters>
          </Trackpoint>
          <Trackpoint>
            <Time>2021-08-01T11:48:22.000Z</Time>
            <Position>
              <LatitudeDegrees>41.9373483024537563323974609375</LatitudeDegrees>
              <LongitudeDegrees>-2.05276362597942352294921875</LongitudeDegrees>
            </Position>
            <AltitudeMeters>778.79998779296875</AltitudeMeters>
            <DistanceMeters>388972.52867408</DistanceMeters>
          </Trackpoint>
          <Trackpoint>
            <Time>2021-08-01T11:48:27.000Z</Time>
            <Position>
              <LatitudeDegrees>41.93733681924641132354736328125</LatitudeDegrees>
              <LongitudeDegrees>-2.0526541583240032196044921875</LongitudeDegrees>
            </Position>
            <AltitudeMeters>780.20001220703125</AltitudeMeters>
            <DistanceMeters>388981.68236619</DistanceMeters>
          </Trackpoint>
          <Trackpoint>
            <Time>2021-08-01T11:48:31.000Z</Time>
            <Position>
              <LatitudeDegrees>41.9373436085879802703857421875</LatitudeDegrees>
              <LongitudeDegrees>-2.05257494933903217315673828125</LongitudeDegrees>
            </Position>
            <AltitudeMeters>781.4000244140625</AltitudeMeters>
            <DistanceMeters>388988.28450062</DistanceMeters>
          </Trackpoint>
          <Trackpoint>
            <Time>2021-08-01T11:48:34.000Z</Time>
            <Position>
              <LatitudeDegrees>41.93735919892787933349609375</LatitudeDegrees>
              <LongitudeDegrees>-2.05252164043486118316650390625</LongitudeDegrees>
            </Position>
            <AltitudeMeters>782.4000244140625</AltitudeMeters>
            <DistanceMeters>388993.02727622</DistanceMeters>
          </Trackpoint>
          <Trackpoint>
            <Time>2021-08-01T11:48:38.000Z</Time>
            <Position>
              <LatitudeDegrees>41.93741024471819400787353515625</LatitudeDegrees>
              <LongitudeDegrees>-2.05247922800481319427490234375</LongitudeDegrees>
            </Position>
            <AltitudeMeters>783.4000244140625</AltitudeMeters>
            <DistanceMeters>388999.70691751</DistanceMeters>
          </Trackpoint>
          <Trackpoint>
            <Time>2021-08-01T11:48:41.000Z</Time>
            <Position>
              <LatitudeDegrees>41.93745902739465236663818359375</LatitudeDegrees>
              <LongitudeDegrees>-2.05247771926224231719970703125</LongitudeDegrees>
            </Position>
            <AltitudeMeters>784.5999755859375</AltitudeMeters>
            <DistanceMeters>389005.13759239</DistanceMeters>
          </Trackpoint>
          <Trackpoint>
            <Time>2021-08-01T11:48:45.000Z</Time>
            <Position>
              <LatitudeDegrees>41.9375263340771198272705078125</LatitudeDegrees>
              <LongitudeDegrees>-2.05248023383319377899169921875</LongitudeDegrees>
            </Position>
            <AltitudeMeters>785.5999755859375</AltitudeMeters>
            <DistanceMeters>389012.63206205</DistanceMeters>
          </Trackpoint>
          <Trackpoint>
            <Time>2021-08-01T11:48:50.000Z</Time>
            <Position>
              <LatitudeDegrees>41.937615014612674713134765625</LatitudeDegrees>
              <LongitudeDegrees>-2.0524737797677516937255859375</LongitudeDegrees>
            </Position>
            <AltitudeMeters>786.79998779296875</AltitudeMeters>
            <DistanceMeters>389022.51666761</DistanceMeters>
          </Trackpoint>
          <Trackpoint>
            <Time>2021-08-01T11:48:57.000Z</Time>
            <Position>
              <LatitudeDegrees>41.937743760645389556884765625</LatitudeDegrees>
              <LongitudeDegrees>-2.05246615223586559295654296875</LongitudeDegrees>
            </Position>
            <AltitudeMeters>788</AltitudeMeters>
            <DistanceMeters>389036.8603513</DistanceMeters>
          </Trackpoint>
          <Trackpoint>
            <Time>2021-08-01T11:49:05.000Z</Time>
            <Position>
              <LatitudeDegrees>41.9378984905779361724853515625</LatitudeDegrees>
              <LongitudeDegrees>-2.05244310200214385986328125</LongitudeDegrees>
            </Position>
            <AltitudeMeters>789</AltitudeMeters>
            <DistanceMeters>389054.18755481</DistanceMeters>
          </Trackpoint>
          <Trackpoint>
            <Time>2021-08-01T11:49:26.000Z</Time>
            <Position>
              <LatitudeDegrees>41.9384728185832500457763671875</LatitudeDegrees>
              <LongitudeDegrees>-2.05239540897309780120849609375</LongitudeDegrees>
            </Position>
            <AltitudeMeters>788.79998779296875</AltitudeMeters>
            <DistanceMeters>389118.23323394</DistanceMeters>
          </Trackpoint>
          <Trackpoint>
            <Time>2021-08-01T11:49:29.000Z</Time>
            <Position>
              <LatitudeDegrees>41.93860701285302639007568359375</LatitudeDegrees>
              <LongitudeDegrees>-2.05237629823386669158935546875</LongitudeDegrees>
            </Position>
            <AltitudeMeters>787.79998779296875</AltitudeMeters>
            <DistanceMeters>389133.25286675</DistanceMeters>
          </Trackpoint>
          <Trackpoint>
            <Time>2021-08-01T11:49:32.000Z</Time>
            <Position>
              <LatitudeDegrees>41.938757635653018951416015625</LatitudeDegrees>
              <LongitudeDegrees>-2.0523577742278575897216796875</LongitudeDegrees>
            </Position>
            <AltitudeMeters>786.5999755859375</AltitudeMeters>
            <DistanceMeters>389150.08762095</DistanceMeters>
          </Trackpoint>
          <Trackpoint>
            <Time>2021-08-01T11:49:36.000Z</Time>
            <Position>
              <LatitudeDegrees>41.93900045938789844512939453125</LatitudeDegrees>
              <LongitudeDegrees>-2.052318714559078216552734375</LongitudeDegrees>
            </Position>
            <AltitudeMeters>785.4000244140625</AltitudeMeters>
            <DistanceMeters>389177.30709398</DistanceMeters>
          </Trackpoint>
          <Trackpoint>
            <Time>2021-08-01T11:49:38.000Z</Time>
            <Position>
              <LatitudeDegrees>41.9391433708369731903076171875</LatitudeDegrees>
              <LongitudeDegrees>-2.0522957481443881988525390625</LongitudeDegrees>
            </Position>
            <AltitudeMeters>783.5999755859375</AltitudeMeters>
            <DistanceMeters>389193.3266365</DistanceMeters>
          </Trackpoint>
          <Trackpoint>
            <Time>2021-08-01T11:49:40.000Z</Time>
            <Position>
              <LatitudeDegrees>41.9392999447882175445556640625</LatitudeDegrees>
              <LongitudeDegrees>-2.05227202735841274261474609375</LongitudeDegrees>
            </Position>
            <AltitudeMeters>782</AltitudeMeters>
            <DistanceMeters>389210.86389323</DistanceMeters>
          </Trackpoint>
          <Trackpoint>
            <Time>2021-08-01T11:49:41.000Z</Time>
            <Position>
              <LatitudeDegrees>41.93938116542994976043701171875</LatitudeDegrees>
              <LongitudeDegrees>-2.05225710757076740264892578125</LongitudeDegrees>
            </Position>
            <AltitudeMeters>780.79998779296875</AltitudeMeters>
            <DistanceMeters>389219.98794248</DistanceMeters>
          </Trackpoint>
          <Trackpoint>
            <Time>2021-08-01T11:49:43.000Z</Time>
            <Position>
              <LatitudeDegrees>41.93954788148403167724609375</LatitudeDegrees>
              <LongitudeDegrees>-2.05221712589263916015625</LongitudeDegrees>
            </Position>
            <AltitudeMeters>779.4000244140625</AltitudeMeters>
            <DistanceMeters>389238.83631821</DistanceMeters>
          </Trackpoint>
          <Trackpoint>
            <Time>2021-08-01T11:49:46.000Z</Time>
            <Position>
              <LatitudeDegrees>41.93981199525296688079833984375</LatitudeDegrees>
              <LongitudeDegrees>-2.05217421054840087890625</LongitudeDegrees>
            </Position>
            <AltitudeMeters>778.4000244140625</AltitudeMeters>
            <DistanceMeters>389268.4467095</DistanceMeters>
          </Trackpoint>
          <Trackpoint>
            <Time>2021-08-01T11:49:49.000Z</Time>
            <Position>
              <LatitudeDegrees>41.94008591584861278533935546875</LatitudeDegrees>
              <LongitudeDegrees>-2.05216121859848499298095703125</LongitudeDegrees>
            </Position>
            <AltitudeMeters>777.20001220703125</AltitudeMeters>
            <DistanceMeters>389298.953393</DistanceMeters>
          </Trackpoint>
          <Trackpoint>
            <Time>2021-08-01T11:49:53.000Z</Time>
            <Position>
              <LatitudeDegrees>41.9404591619968414306640625</LatitudeDegrees>
              <LongitudeDegrees>-2.05217898823320865631103515625</LongitudeDegrees>
            </Position>
            <AltitudeMeters>776.20001220703125</AltitudeMeters>
            <DistanceMeters>389340.52255739</DistanceMeters>
          </Trackpoint>
          <Trackpoint>
            <Time>2021-08-01T11:49:59.000Z</Time>
            <Position>
              <LatitudeDegrees>41.94102066569030284881591796875</LatitudeDegrees>
              <LongitudeDegrees>-2.05218066461384296417236328125</LongitudeDegrees>
            </Position>
            <AltitudeMeters>775.20001220703125</AltitudeMeters>
            <DistanceMeters>389403.01922246</DistanceMeters>
          </Trackpoint>
          <Trackpoint>
            <Time>2021-08-01T11:50:00.000Z</Time>
            <Position>
              <LatitudeDegrees>41.941114962100982666015625</LatitudeDegrees>
              <LongitudeDegrees>-2.05218066461384296417236328125</LongitudeDegrees>
            </Position>
            <AltitudeMeters>774.79998779296875</AltitudeMeters>
            <DistanceMeters>389413.51526613</DistanceMeters>
          </Trackpoint>
          <Trackpoint>
            <Time>2021-08-01T11:50:04.000Z</Time>
            <Position>
              <LatitudeDegrees>41.94148954935371875762939453125</LatitudeDegrees>
              <LongitudeDegrees>-2.05219239927828311920166015625</LongitudeDegrees>
            </Position>
            <AltitudeMeters>773.5999755859375</AltitudeMeters>
            <DistanceMeters>389455.21889574</DistanceMeters>
          </Trackpoint>
          <Trackpoint>
            <Time>2021-08-01T11:50:06.000Z</Time>
            <Position>
              <LatitudeDegrees>41.9416780583560466766357421875</LatitudeDegrees>
              <LongitudeDegrees>-2.0522099174559116363525390625</LongitudeDegrees>
            </Position>
            <AltitudeMeters>772</AltitudeMeters>
            <DistanceMeters>389476.25009172</DistanceMeters>
          </Trackpoint>
          <Trackpoint>
            <Time>2021-08-01T11:50:08.000Z</Time>
            <Position>
              <LatitudeDegrees>41.9418631307780742645263671875</LatitudeDegrees>
              <LongitudeDegrees>-2.05225056968629360198974609375</LongitudeDegrees>
            </Position>
            <AltitudeMeters>770.5999755859375</AltitudeMeters>
            <DistanceMeters>389497.12181776</DistanceMeters>
          </Trackpoint>
          <Trackpoint>
            <Time>2021-08-01T11:50:13.000Z</Time>
            <Position>
              <LatitudeDegrees>41.94226873107254505157470703125</LatitudeDegrees>
              <LongitudeDegrees>-2.0524030365049839019775390625</LongitudeDegrees>
            </Position>
            <AltitudeMeters>771.79998779296875</AltitudeMeters>
            <DistanceMeters>389543.99725441</DistanceMeters>
          </Trackpoint>
          <Trackpoint>
            <Time>2021-08-01T11:50:22.000Z</Time>
            <Position>
              <LatitudeDegrees>41.94281724281609058380126953125</LatitudeDegrees>
              <LongitudeDegrees>-2.05262373201549053192138671875</LongitudeDegrees>
            </Position>
            <AltitudeMeters>771</AltitudeMeters>
            <DistanceMeters>389607.72299378</DistanceMeters>
          </Trackpoint>
          <Trackpoint>
            <Time>2021-08-01T11:50:25.000Z</Time>
            <Position>
              <LatitudeDegrees>41.9429621659219264984130859375</LatitudeDegrees>
              <LongitudeDegrees>-2.05266480334103107452392578125</LongitudeDegrees>
            </Position>
            <AltitudeMeters>771.79998779296875</AltitudeMeters>
            <DistanceMeters>389624.20786929</DistanceMeters>
          </Trackpoint>
          <Trackpoint>
            <Time>2021-08-01T11:50:28.000Z</Time>
            <Position>
              <LatitudeDegrees>41.94309451617300510406494140625</LatitudeDegrees>
              <LongitudeDegrees>-2.05267838202416896820068359375</LongitudeDegrees>
            </Position>
            <AltitudeMeters>772.79998779296875</AltitudeMeters>
            <DistanceMeters>389638.98169675</DistanceMeters>
          </Trackpoint>
          <Trackpoint>
            <Time>2021-08-01T11:50:31.000Z</Time>
            <Position>
              <LatitudeDegrees>41.94321773014962673187255859375</LatitudeDegrees>
              <LongitudeDegrees>-2.05268659628927707672119140625</LongitudeDegrees>
            </Position>
            <AltitudeMeters>774.4000244140625</AltitudeMeters>
            <DistanceMeters>389652.71231713</DistanceMeters>
          </Trackpoint>
          <Trackpoint>
            <Time>2021-08-01T11:50:33.000Z</Time>
            <Position>
              <LatitudeDegrees>41.943297944962978363037109375</LatitudeDegrees>
              <LongitudeDegrees>-2.0526932179927825927734375</LongitudeDegrees>
            </Position>
            <AltitudeMeters>775.5999755859375</AltitudeMeters>
            <DistanceMeters>389661.65695112</DistanceMeters>
          </Trackpoint>
          <Trackpoint>
            <Time>2021-08-01T11:50:36.000Z</Time>
            <Position>
              <LatitudeDegrees>41.94340934045612812042236328125</LatitudeDegrees>
              <LongitudeDegrees>-2.05269346944987773895263671875</LongitudeDegrees>
            </Position>
            <AltitudeMeters>776.20001220703125</AltitudeMeters>
            <DistanceMeters>389674.05566159</DistanceMeters>
          </Trackpoint>
          <Trackpoint>
            <Time>2021-08-01T11:50:38.000Z</Time>
            <Position>
              <LatitudeDegrees>41.94347958080470561981201171875</LatitudeDegrees>
              <LongitudeDegrees>-2.052697241306304931640625</LongitudeDegrees>
            </Position>
            <AltitudeMeters>776.5999755859375</AltitudeMeters>
            <DistanceMeters>389681.88023304</DistanceMeters>
          </Trackpoint>
          <Trackpoint>
            <Time>2021-08-01T11:50:45.000Z</Time>
            <Position>
              <LatitudeDegrees>41.9437105022370815277099609375</LatitudeDegrees>
              <LongitudeDegrees>-2.05270989798009395599365234375</LongitudeDegrees>
            </Position>
            <AltitudeMeters>777.5999755859375</AltitudeMeters>
            <DistanceMeters>389707.60352757</DistanceMeters>
          </Trackpoint>
          <Trackpoint>
            <Time>2021-08-01T11:50:52.000Z</Time>
            <Position>
              <LatitudeDegrees>41.94393253885209560394287109375</LatitudeDegrees>
              <LongitudeDegrees>-2.0527403242886066436767578125</LongitudeDegrees>
            </Position>
            <AltitudeMeters>778.79998779296875</AltitudeMeters>
            <DistanceMeters>389732.44460854</DistanceMeters>
          </Trackpoint>
          <Trackpoint>
            <Time>2021-08-01T11:51:09.000Z</Time>
            <Position>
              <LatitudeDegrees>41.9444556534290313720703125</LatitudeDegrees>
              <LongitudeDegrees>-2.05264451913535594940185546875</LongitudeDegrees>
            </Position>
            <AltitudeMeters>779.5999755859375</AltitudeMeters>
            <DistanceMeters>389791.20601229</DistanceMeters>
          </Trackpoint>
          <Trackpoint>
            <Time>2021-08-01T11:51:13.000Z</Time>
            <Position>
              <LatitudeDegrees>41.9445513747632503509521484375</LatitudeDegrees>
              <LongitudeDegrees>-2.0525173656642436981201171875</LongitudeDegrees>
            </Position>
            <AltitudeMeters>779.79998779296875</AltitudeMeters>
            <DistanceMeters>389806.18289777</DistanceMeters>
          </Trackpoint>
          <Trackpoint>
            <Time>2021-08-01T11:51:27.000Z</Time>
            <Position>
              <LatitudeDegrees>41.94479671306908130645751953125</LatitudeDegrees>
              <LongitudeDegrees>-2.052122913300991058349609375</LongitudeDegrees>
            </Position>
            <AltitudeMeters>780.79998779296875</AltitudeMeters>
            <DistanceMeters>389848.7504112</DistanceMeters>
          </Trackpoint>
          <Trackpoint>
            <Time>2021-08-01T11:51:30.000Z</Time>
            <Position>
              <LatitudeDegrees>41.94484448991715908050537109375</LatitudeDegrees>
              <LongitudeDegrees>-2.05206566490232944488525390625</LongitudeDegrees>
            </Position>
            <AltitudeMeters>782.20001220703125</AltitudeMeters>
            <DistanceMeters>389855.87297882</DistanceMeters>
          </Trackpoint>
          <Trackpoint>
            <Time>2021-08-01T11:51:36.000Z</Time>
            <Position>
              <LatitudeDegrees>41.94495655596256256103515625</LatitudeDegrees>
              <LongitudeDegrees>-2.05198553390800952911376953125</LongitudeDegrees>
            </Position>
            <AltitudeMeters>783.20001220703125</AltitudeMeters>
            <DistanceMeters>389870.0006743</DistanceMeters>
          </Trackpoint>
          <Trackpoint>
            <Time>2021-08-01T11:51:42.000Z</Time>
            <Position>
              <LatitudeDegrees>41.9450740702450275421142578125</LatitudeDegrees>
              <LongitudeDegrees>-2.051931805908679962158203125</LongitudeDegrees>
            </Position>
            <AltitudeMeters>784.4000244140625</AltitudeMeters>
            <DistanceMeters>389883.81619911</DistanceMeters>
          </Trackpoint>
          <Trackpoint>
            <Time>2021-08-01T11:51:49.000Z</Time>
            <Position>
              <LatitudeDegrees>41.9452182389795780181884765625</LatitudeDegrees>
              <LongitudeDegrees>-2.05186919309198856353759765625</LongitudeDegrees>
            </Position>
            <AltitudeMeters>785.5999755859375</AltitudeMeters>
            <DistanceMeters>389900.67882279</DistanceMeters>
          </Trackpoint>
          <Trackpoint>
            <Time>2021-08-01T11:52:01.000Z</Time>
            <Position>
              <LatitudeDegrees>41.94546843878924846649169921875</LatitudeDegrees>
              <LongitudeDegrees>-2.0517536066472530364990234375</LongitudeDegrees>
            </Position>
            <AltitudeMeters>786.79998779296875</AltitudeMeters>
            <DistanceMeters>389930.12484018</DistanceMeters>
          </Trackpoint>
          <Trackpoint>
            <Time>2021-08-01T11:52:04.000Z</Time>
            <Position>
              <LatitudeDegrees>41.94553214125335216522216796875</LatitudeDegrees>
              <LongitudeDegrees>-2.05172820948064327239990234375</LongitudeDegrees>
            </Position>
            <AltitudeMeters>787.79998779296875</AltitudeMeters>
            <DistanceMeters>389937.52045868</DistanceMeters>
          </Trackpoint>
          <Trackpoint>
            <Time>2021-08-01T11:52:07.000Z</Time>
            <Position>
              <LatitudeDegrees>41.94559467025101184844970703125</LatitudeDegrees>
              <LongitudeDegrees>-2.0516992919147014617919921875</LongitudeDegrees>
            </Position>
            <AltitudeMeters>788.79998779296875</AltitudeMeters>
            <DistanceMeters>389944.88119632</DistanceMeters>
          </Trackpoint>
          <Trackpoint>
            <Time>2021-08-01T11:52:10.000Z</Time>
            <Position>
              <LatitudeDegrees>41.94565686397254467010498046875</LatitudeDegrees>
              <LongitudeDegrees>-2.051669619977474212646484375</LongitudeDegrees>
            </Position>
            <AltitudeMeters>789.79998779296875</AltitudeMeters>
            <DistanceMeters>389952.22596839</DistanceMeters>
          </Trackpoint>
          <Trackpoint>
            <Time>2021-08-01T11:52:19.000Z</Time>
            <Position>
              <LatitudeDegrees>41.94585585035383701324462890625</LatitudeDegrees>
              <LongitudeDegrees>-2.05161186866462230682373046875</LongitudeDegrees>
            </Position>
            <AltitudeMeters>791</AltitudeMeters>
            <DistanceMeters>389974.88361336</DistanceMeters>
          </Trackpoint>
          <Trackpoint>
            <Time>2021-08-01T11:52:30.000Z</Time>
            <Position>
              <LatitudeDegrees>41.9460943154990673065185546875</LatitudeDegrees>
              <LongitudeDegrees>-2.05176576040685176849365234375</LongitudeDegrees>
            </Position>
            <AltitudeMeters>792.20001220703125</AltitudeMeters>
            <DistanceMeters>390004.32441698</DistanceMeters>
          </Trackpoint>
          <Trackpoint>
            <Time>2021-08-01T11:52:44.000Z</Time>
            <Position>
              <LatitudeDegrees>41.9463772885501384735107421875</LatitudeDegrees>
              <LongitudeDegrees>-2.05201017670333385467529296875</LongitudeDegrees>
            </Position>
            <AltitudeMeters>793.4000244140625</AltitudeMeters>
            <DistanceMeters>390041.75915356</DistanceMeters>
          </Trackpoint>
          <Trackpoint>
            <Time>2021-08-01T11:52:48.000Z</Time>
            <Position>
              <LatitudeDegrees>41.94645532406866550445556640625</LatitudeDegrees>
              <LongitudeDegrees>-2.05206130631268024444580078125</LongitudeDegrees>
            </Position>
            <AltitudeMeters>794.5999755859375</AltitudeMeters>
            <DistanceMeters>390051.42108558</DistanceMeters>
          </Trackpoint>
          <Trackpoint>
            <Time>2021-08-01T11:52:55.000Z</Time>
            <Position>
              <LatitudeDegrees>41.9465841539204120635986328125</LatitudeDegrees>
              <LongitudeDegrees>-2.05213506706058979034423828125</LongitudeDegrees>
            </Position>
            <AltitudeMeters>795.5999755859375</AltitudeMeters>
            <DistanceMeters>390067.00604616</DistanceMeters>
          </Trackpoint>
          <Trackpoint>
            <Time>2021-08-01T11:52:59.000Z</Time>
            <Position>
              <LatitudeDegrees>41.94665699265897274017333984375</LatitudeDegrees>
              <LongitudeDegrees>-2.05216021277010440826416015625</LongitudeDegrees>
            </Position>
            <AltitudeMeters>796.79998779296875</AltitudeMeters>
            <DistanceMeters>390075.37595255</DistanceMeters>
          </Trackpoint>
          <Trackpoint>
            <Time>2021-08-01T11:53:05.000Z</Time>
            <Position>
              <LatitudeDegrees>41.9467702321708202362060546875</LatitudeDegrees>
              <LongitudeDegrees>-2.05217890441417694091796875</LongitudeDegrees>
            </Position>
            <AltitudeMeters>798</AltitudeMeters>
            <DistanceMeters>390088.07473616</DistanceMeters>
          </Trackpoint>
          <Trackpoint>
            <Time>2021-08-01T11:53:13.000Z</Time>
            <Position>
              <LatitudeDegrees>41.94692035205662250518798828125</LatitudeDegrees>
              <LongitudeDegrees>-2.05218695104122161865234375</LongitudeDegrees>
            </Position>
            <AltitudeMeters>799</AltitudeMeters>
            <DistanceMeters>390104.79673805</DistanceMeters>
          </Trackpoint>
          <Trackpoint>
            <Time>2021-08-01T11:53:21.000Z</Time>
            <Position>
              <LatitudeDegrees>41.94707239978015422821044921875</LatitudeDegrees>
              <LongitudeDegrees>-2.0521916449069976806640625</LongitudeDegrees>
            </Position>
            <AltitudeMeters>800.20001220703125</AltitudeMeters>
            <DistanceMeters>390121.72430095</DistanceMeters>
          </Trackpoint>
          <Trackpoint>
            <Time>2021-08-01T11:53:29.000Z</Time>
            <Position>
              <LatitudeDegrees>41.94721556268632411956787109375</LatitudeDegrees>
              <LongitudeDegrees>-2.05216758884489536285400390625</LongitudeDegrees>
            </Position>
            <AltitudeMeters>801.5999755859375</AltitudeMeters>
            <DistanceMeters>390137.78240989</DistanceMeters>
          </Trackpoint>
          <Trackpoint>
            <Time>2021-08-01T11:53:32.000Z</Time>
            <Position>
              <LatitudeDegrees>41.94726853631436824798583984375</LatitudeDegrees>
              <LongitudeDegrees>-2.0521602965891361236572265625</LongitudeDegrees>
            </Position>
            <AltitudeMeters>802.5999755859375</AltitudeMeters>
            <DistanceMeters>390143.7092132</DistanceMeters>
          </Trackpoint>
          <Trackpoint>
            <Time>2021-08-01T11:53:40.000Z</Time>
            <Position>
              <LatitudeDegrees>41.94740834645926952362060546875</LatitudeDegrees>
              <LongitudeDegrees>-2.0521559379994869232177734375</LongitudeDegrees>
            </Position>
            <AltitudeMeters>803.5999755859375</AltitudeMeters>
            <DistanceMeters>390159.27446138</DistanceMeters>
          </Trackpoint>
          <Trackpoint>
            <Time>2021-08-01T11:53:45.000Z</Time>
            <Position>
              <LatitudeDegrees>41.94749736227095127105712890625</LatitudeDegrees>
              <LongitudeDegrees>-2.05214965157210826873779296875</LongitudeDegrees>
            </Position>
            <AltitudeMeters>804.5999755859375</AltitudeMeters>
            <DistanceMeters>390169.19554162</DistanceMeters>
          </Trackpoint>
          <Trackpoint>
            <Time>2021-08-01T11:53:50.000Z</Time>
            <Position>
              <LatitudeDegrees>41.9475852884352207183837890625</LatitudeDegrees>
              <LongitudeDegrees>-2.0521552674472332000732421875</LongitudeDegrees>
            </Position>
            <AltitudeMeters>805.79998779296875</AltitudeMeters>
            <DistanceMeters>390178.9929756</DistanceMeters>
          </Trackpoint>
          <Trackpoint>
            <Time>2021-08-01T11:53:55.000Z</Time>
            <Position>
              <LatitudeDegrees>41.9476716220378875732421875</LatitudeDegrees>
              <LongitudeDegrees>-2.0521589554846286773681640625</LongitudeDegrees>
            </Position>
            <AltitudeMeters>806.79998779296875</AltitudeMeters>
            <DistanceMeters>390188.60759429</DistanceMeters>
          </Trackpoint>
          <Trackpoint>
            <Time>2021-08-01T11:53:58.000Z</Time>
            <Position>
              <LatitudeDegrees>41.9477237574756145477294921875</LatitudeDegrees>
              <LongitudeDegrees>-2.05216172151267528533935546875</LongitudeDegrees>
            </Position>
            <AltitudeMeters>808</AltitudeMeters>
            <DistanceMeters>390194.41511834</DistanceMeters>
          </Trackpoint>
          <Trackpoint>
            <Time>2021-08-01T11:54:02.000Z</Time>
            <Position>
              <LatitudeDegrees>41.94779575802385807037353515625</LatitudeDegrees>
              <LongitudeDegrees>-2.05216507427394390106201171875</LongitudeDegrees>
            </Position>
            <AltitudeMeters>809</AltitudeMeters>
            <DistanceMeters>390202.43348128</DistanceMeters>
          </Trackpoint>
          <Trackpoint>
            <Time>2021-08-01T11:54:07.000Z</Time>
            <Position>
              <LatitudeDegrees>41.94788309745490550994873046875</LatitudeDegrees>
              <LongitudeDegrees>-2.05215803347527980804443359375</LongitudeDegrees>
            </Position>
            <AltitudeMeters>810.20001220703125</AltitudeMeters>
            <DistanceMeters>390212.17174924</DistanceMeters>
          </Trackpoint>
          <Trackpoint>
            <Time>2021-08-01T11:54:12.000Z</Time>
            <Position>
              <LatitudeDegrees>41.947971023619174957275390625</LatitudeDegrees>
              <LongitudeDegrees>-2.0521559379994869232177734375</LongitudeDegrees>
            </Position>
            <AltitudeMeters>811.20001220703125</AltitudeMeters>
            <DistanceMeters>390221.95950082</DistanceMeters>
          </Trackpoint>
          <Trackpoint>
            <Time>2021-08-01T11:54:22.000Z</Time>
            <Position>
              <LatitudeDegrees>41.9481515698134899139404296875</LatitudeDegrees>
              <LongitudeDegrees>-2.052158452570438385009765625</LongitudeDegrees>
            </Position>
            <AltitudeMeters>812.20001220703125</AltitudeMeters>
            <DistanceMeters>390242.05579746</DistanceMeters>
          </Trackpoint>
          <Trackpoint>
            <Time>2021-08-01T11:54:28.000Z</Time>
            <Position>
              <LatitudeDegrees>41.94826263003051280975341796875</LatitudeDegrees>
              <LongitudeDegrees>-2.0521602965891361236572265625</LongitudeDegrees>
            </Position>
            <AltitudeMeters>813.4000244140625</AltitudeMeters>
            <DistanceMeters>390254.41803892</DistanceMeters>
          </Trackpoint>
          <Trackpoint>
            <Time>2021-08-01T11:54:37.000Z</Time>
            <Position>
              <LatitudeDegrees>41.9484333693981170654296875</LatitudeDegrees>
              <LongitudeDegrees>-2.052163816988468170166015625</LongitudeDegrees>
            </Position>
            <AltitudeMeters>814.4000244140625</AltitudeMeters>
            <DistanceMeters>390273.42385692</DistanceMeters>
          </Trackpoint>
          <Trackpoint>
            <Time>2021-08-01T11:54:46.000Z</Time>
            <Position>
              <LatitudeDegrees>41.94863093085587024688720703125</LatitudeDegrees>
              <LongitudeDegrees>-2.05219910480082035064697265625</LongitudeDegrees>
            </Position>
            <AltitudeMeters>815.4000244140625</AltitudeMeters>
            <DistanceMeters>390295.60582787</DistanceMeters>
          </Trackpoint>
          <Trackpoint>
            <Time>2021-08-01T11:55:07.000Z</Time>
            <Position>
              <LatitudeDegrees>41.9491835497319698333740234375</LatitudeDegrees>
              <LongitudeDegrees>-2.0522638969123363494873046875</LongitudeDegrees>
            </Position>
            <AltitudeMeters>815.5999755859375</AltitudeMeters>
            <DistanceMeters>390357.34679839</DistanceMeters>
          </Trackpoint>
          <Trackpoint>
            <Time>2021-08-01T11:55:15.000Z</Time>
            <Position>
              <LatitudeDegrees>41.94938563741743564605712890625</LatitudeDegrees>
              <LongitudeDegrees>-2.05221922136843204498291015625</LongitudeDegrees>
            </Position>
            <AltitudeMeters>816.79998779296875</AltitudeMeters>
            <DistanceMeters>390380.14172455</DistanceMeters>
          </Trackpoint>
          <Trackpoint>
            <Time>2021-08-01T11:55:24.000Z</Time>
            <Position>
              <LatitudeDegrees>41.94958093576133251190185546875</LatitudeDegrees>
              <LongitudeDegrees>-2.05214403569698333740234375</LongitudeDegrees>
            </Position>
            <AltitudeMeters>817.79998779296875</AltitudeMeters>
            <DistanceMeters>390402.75249207</DistanceMeters>
          </Trackpoint>
          <Trackpoint>
            <Time>2021-08-01T11:55:29.000Z</Time>
            <Position>
              <LatitudeDegrees>41.94968621246516704559326171875</LatitudeDegrees>
              <LongitudeDegrees>-2.05209173262119293212890625</LongitudeDegrees>
            </Position>
            <AltitudeMeters>819</AltitudeMeters>
            <DistanceMeters>390415.24443952</DistanceMeters>
          </Trackpoint>
          <Trackpoint>
            <Time>2021-08-01T11:55:35.000Z</Time>
            <Position>
              <LatitudeDegrees>41.94980808533728122711181640625</LatitudeDegrees>
              <LongitudeDegrees>-2.05201554112136363983154296875</LongitudeDegrees>
            </Position>
            <AltitudeMeters>820.4000244140625</AltitudeMeters>
            <DistanceMeters>390430.20382969</DistanceMeters>
          </Trackpoint>
          <Trackpoint>
            <Time>2021-08-01T11:55:43.000Z</Time>
            <Position>
              <LatitudeDegrees>41.94996281526982784271240234375</LatitudeDegrees>
              <LongitudeDegrees>-2.05191646702587604522705078125</LongitudeDegrees>
            </Position>
            <AltitudeMeters>821.4000244140625</AltitudeMeters>
            <DistanceMeters>390449.27888933</DistanceMeters>
          </Trackpoint>
          <Trackpoint>
            <Time>2021-08-01T11:55:49.000Z</Time>
            <Position>
              <LatitudeDegrees>41.95005987770855426788330078125</LatitudeDegrees>
              <LongitudeDegrees>-2.05182728357613086700439453125</LongitudeDegrees>
            </Position>
            <AltitudeMeters>822.5999755859375</AltitudeMeters>
            <DistanceMeters>390462.36362278</DistanceMeters>
          </Trackpoint>
          <Trackpoint>
            <Time>2021-08-01T11:55:53.000Z</Time>
            <Position>
              <LatitudeDegrees>41.95012894459068775177001953125</LatitudeDegrees>
              <LongitudeDegrees>-2.05177657306194305419921875</LongitudeDegrees>
            </Position>
            <AltitudeMeters>823.79998779296875</AltitudeMeters>
            <DistanceMeters>390471.1225913</DistanceMeters>
          </Trackpoint>
          <Trackpoint>
            <Time>2021-08-01T11:55:57.000Z</Time>
            <Position>
              <LatitudeDegrees>41.950191222131252288818359375</LatitudeDegrees>
              <LongitudeDegrees>-2.0517195761203765869140625</LongitudeDegrees>
            </Position>
            <AltitudeMeters>825</AltitudeMeters>
            <DistanceMeters>390479.50758833</DistanceMeters>
          </Trackpoint>
          <Trackpoint>
            <Time>2021-08-01T11:56:01.000Z</Time>
            <Position>
              <LatitudeDegrees>41.950257606804370880126953125</LatitudeDegrees>
              <LongitudeDegrees>-2.0516650937497615814208984375</LongitudeDegrees>
            </Position>
            <AltitudeMeters>826.20001220703125</AltitudeMeters>
            <DistanceMeters>390488.1638909</DistanceMeters>
          </Trackpoint>
          <Trackpoint>
            <Time>2021-08-01T11:56:07.000Z</Time>
            <Position>
              <LatitudeDegrees>41.95035542361438274383544921875</LatitudeDegrees>
              <LongitudeDegrees>-2.05156627111136913299560546875</LongitudeDegrees>
            </Position>
            <AltitudeMeters>827.4000244140625</AltitudeMeters>
            <DistanceMeters>390501.7822502</DistanceMeters>
          </Trackpoint>
          <Trackpoint>
            <Time>2021-08-01T11:56:13.000Z</Time>
            <Position>
              <LatitudeDegrees>41.9504639692604541778564453125</LatitudeDegrees>
              <LongitudeDegrees>-2.05148396082222461700439453125</LongitudeDegrees>
            </Position>
            <AltitudeMeters>828.4000244140625</AltitudeMeters>
            <DistanceMeters>390515.65257027</DistanceMeters>
          </Trackpoint>
          <Trackpoint>
            <Time>2021-08-01T11:56:22.000Z</Time>
            <Position>
              <LatitudeDegrees>41.95064811967313289642333984375</LatitudeDegrees>
              <LongitudeDegrees>-2.0513744093477725982666015625</LongitudeDegrees>
            </Position>
            <AltitudeMeters>829.5999755859375</AltitudeMeters>
            <DistanceMeters>390538.06538184</DistanceMeters>
          </Trackpoint>
          <Trackpoint>
            <Time>2021-08-01T11:56:33.000Z</Time>
            <Position>
              <LatitudeDegrees>41.950913406908512115478515625</LatitudeDegrees>
              <LongitudeDegrees>-2.05124859698116779327392578125</LongitudeDegrees>
            </Position>
            <AltitudeMeters>828</AltitudeMeters>
            <DistanceMeters>390569.37520615</DistanceMeters>
          </Trackpoint>
          <Trackpoint>
            <Time>2021-08-01T11:56:34.000Z</Time>
            <Position>
              <LatitudeDegrees>41.95095925591886043548583984375</LatitudeDegrees>
              <LongitudeDegrees>-2.0512225292623043060302734375</LongitudeDegrees>
            </Position>
            <AltitudeMeters>826.79998779296875</AltitudeMeters>
            <DistanceMeters>390574.91616816</DistanceMeters>
          </Trackpoint>
          <Trackpoint>
            <Time>2021-08-01T11:56:35.000Z</Time>
            <Position>
              <LatitudeDegrees>41.95100753568112850189208984375</LatitudeDegrees>
              <LongitudeDegrees>-2.05118405632674694061279296875</LongitudeDegrees>
            </Position>
            <AltitudeMeters>826</AltitudeMeters>
            <DistanceMeters>390581.16340678</DistanceMeters>
          </Trackpoint>
          <Trackpoint>
            <Time>2021-08-01T11:56:36.000Z</Time>
            <Position>
              <LatitudeDegrees>41.95105724036693572998046875</LatitudeDegrees>
              <LongitudeDegrees>-2.051127813756465911865234375</LongitudeDegrees>
            </Position>
            <AltitudeMeters>824.79998779296875</AltitudeMeters>
            <DistanceMeters>390588.39543296</DistanceMeters>
          </Trackpoint>
          <Trackpoint>
            <Time>2021-08-01T11:56:37.000Z</Time>
            <Position>
              <LatitudeDegrees>41.95110811851918697357177734375</LatitudeDegrees>
              <LongitudeDegrees>-2.05105531029403209686279296875</LongitudeDegrees>
            </Position>
            <AltitudeMeters>822.79998779296875</AltitudeMeters>
            <DistanceMeters>390596.64745129</DistanceMeters>
          </Trackpoint>
          <Trackpoint>
            <Time>2021-08-01T11:56:38.000Z</Time>
            <Position>
              <LatitudeDegrees>41.95115790702402591705322265625</LatitudeDegrees>
              <LongitudeDegrees>-2.05096562393009662628173828125</LongitudeDegrees>
            </Position>
            <AltitudeMeters>821.4000244140625</AltitudeMeters>
            <DistanceMeters>390605.91145941</DistanceMeters>
          </Trackpoint>
          <Trackpoint>
            <Time>2021-08-01T11:56:39.000Z</Time>
            <Position>
              <LatitudeDegrees>41.95120518095791339874267578125</LatitudeDegrees>
              <LongitudeDegrees>-2.05085766501724720001220703125</LongitudeDegrees>
            </Position>
            <AltitudeMeters>819.20001220703125</AltitudeMeters>
            <DistanceMeters>390616.28200474</DistanceMeters>
          </Trackpoint>
          <Trackpoint>
            <Time>2021-08-01T11:56:40.000Z</Time>
            <Position>
              <LatitudeDegrees>41.951249353587627410888671875</LatitudeDegrees>
              <LongitudeDegrees>-2.05073176883161067962646484375</LongitudeDegrees>
            </Position>
            <AltitudeMeters>816.79998779296875</AltitudeMeters>
            <DistanceMeters>390627.80455715</DistanceMeters>
          </Trackpoint>
          <Trackpoint>
            <Time>2021-08-01T11:56:41.000Z</Time>
            <Position>
              <LatitudeDegrees>41.9512900896370410919189453125</LatitudeDegrees>
              <LongitudeDegrees>-2.050589025020599365234375</LongitudeDegrees>
            </Position>
            <AltitudeMeters>815</AltitudeMeters>
            <DistanceMeters>390640.46060298</DistanceMeters>
          </Trackpoint>
          <Trackpoint>
            <Time>2021-08-01T11:56:42.000Z</Time>
            <Position>
              <LatitudeDegrees>41.95132101885974407196044921875</LatitudeDegrees>
              <LongitudeDegrees>-2.0504292659461498260498046875</LongitudeDegrees>
            </Position>
            <AltitudeMeters>811.5999755859375</AltitudeMeters>
            <DistanceMeters>390654.12529912</DistanceMeters>
          </Trackpoint>
          <Trackpoint>
            <Time>2021-08-01T11:56:43.000Z</Time>
            <Position>
              <LatitudeDegrees>41.95133761502802371978759765625</LatitudeDegrees>
              <LongitudeDegrees>-2.05025785602629184722900390625</LongitudeDegrees>
            </Position>
            <AltitudeMeters>808.4000244140625</AltitudeMeters>
            <DistanceMeters>390668.43368453</DistanceMeters>
          </Trackpoint>
          <Trackpoint>
            <Time>2021-08-01T11:56:44.000Z</Time>
            <Position>
              <LatitudeDegrees>41.95135454647243022918701171875</LatitudeDegrees>
              <LongitudeDegrees>-2.05008384771645069122314453125</LongitudeDegrees>
            </Position>
            <AltitudeMeters>805.5999755859375</AltitudeMeters>
            <DistanceMeters>390682.96003392</DistanceMeters>
          </Trackpoint>
          <Trackpoint>
            <Time>2021-08-01T11:56:45.000Z</Time>
            <Position>
              <LatitudeDegrees>41.9513893313705921173095703125</LatitudeDegrees>
              <LongitudeDegrees>-2.049911431968212127685546875</LongitudeDegrees>
            </Position>
            <AltitudeMeters>803</AltitudeMeters>
            <DistanceMeters>390697.74760745</DistanceMeters>
          </Trackpoint>
          <Trackpoint>
            <Time>2021-08-01T11:56:46.000Z</Time>
            <Position>
              <LatitudeDegrees>41.95144574157893657684326171875</LatitudeDegrees>
              <LongitudeDegrees>-2.04974572174251079559326171875</LongitudeDegrees>
            </Position>
            <AltitudeMeters>801.20001220703125</AltitudeMeters>
            <DistanceMeters>390712.8332293</DistanceMeters>
          </Trackpoint>
          <Trackpoint>
            <Time>2021-08-01T11:56:47.000Z</Time>
            <Position>
              <LatitudeDegrees>41.95151723921298980712890625</LatitudeDegrees>
              <LongitudeDegrees>-2.0495974458754062652587890625</LongitudeDegrees>
            </Position>
            <AltitudeMeters>798.5999755859375</AltitudeMeters>
            <DistanceMeters>390727.46086279</DistanceMeters>
          </Trackpoint>
          <Trackpoint>
            <Time>2021-08-01T11:56:48.000Z</Time>
            <Position>
              <LatitudeDegrees>41.95160684175789356231689453125</LatitudeDegrees>
              <LongitudeDegrees>-2.0494799315929412841796875</LongitudeDegrees>
            </Position>
            <AltitudeMeters>797.20001220703125</AltitudeMeters>
            <DistanceMeters>390741.3925699</DistanceMeters>
          </Trackpoint>
          <Trackpoint>
            <Time>2021-08-01T11:56:50.000Z</Time>
            <Position>
              <LatitudeDegrees>41.951838098466396331787109375</LatitudeDegrees>
              <LongitudeDegrees>-2.04935747198760509490966796875</LongitudeDegrees>
            </Position>
            <AltitudeMeters>795.4000244140625</AltitudeMeters>
            <DistanceMeters>390769.05611791</DistanceMeters>
          </Trackpoint>
          <Trackpoint>
            <Time>2021-08-01T11:56:51.000Z</Time>
            <Position>
              <LatitudeDegrees>41.95196525193750858306884765625</LatitudeDegrees>
              <LongitudeDegrees>-2.04933903180062770843505859375</LongitudeDegrees>
            </Position>
            <AltitudeMeters>794.20001220703125</AltitudeMeters>
            <DistanceMeters>390783.29110703</DistanceMeters>
          </Trackpoint>
          <Trackpoint>
            <Time>2021-08-01T11:56:52.000Z</Time>
            <Position>
              <LatitudeDegrees>41.9520960934460163116455078125</LatitudeDegrees>
              <LongitudeDegrees>-2.0493352599442005157470703125</LongitudeDegrees>
            </Position>
            <AltitudeMeters>793</AltitudeMeters>
            <DistanceMeters>390797.8578066</DistanceMeters>
          </Trackpoint>
          <Trackpoint>
            <Time>2021-08-01T11:56:53.000Z</Time>
            <Position>
              <LatitudeDegrees>41.9522286951541900634765625</LatitudeDegrees>
              <LongitudeDegrees>-2.04933165572583675384521484375</LongitudeDegrees>
            </Position>
            <AltitudeMeters>791.4000244140625</AltitudeMeters>
            <DistanceMeters>390812.61971043</DistanceMeters>
          </Trackpoint>
          <Trackpoint>
            <Time>2021-08-01T11:56:54.000Z</Time>
            <Position>
              <LatitudeDegrees>41.952360458672046661376953125</LatitudeDegrees>
              <LongitudeDegrees>-2.04931070096790790557861328125</LongitudeDegrees>
            </Position>
            <AltitudeMeters>789.5999755859375</AltitudeMeters>
            <DistanceMeters>390827.38711867</DistanceMeters>
          </Trackpoint>
          <Trackpoint>
            <Time>2021-08-01T11:56:55.000Z</Time>
            <Position>
              <LatitudeDegrees>41.9524873606860637664794921875</LatitudeDegrees>
              <LongitudeDegrees>-2.04926242120563983917236328125</LongitudeDegrees>
            </Position>
            <AltitudeMeters>787.79998779296875</AltitudeMeters>
            <DistanceMeters>390842.0662087</DistanceMeters>
          </Trackpoint>
          <Trackpoint>
            <Time>2021-08-01T11:56:57.000Z</Time>
            <Position>
              <LatitudeDegrees>41.9527049548923969268798828125</LatitudeDegrees>
              <LongitudeDegrees>-2.04909075982868671417236328125</LongitudeDegrees>
            </Position>
            <AltitudeMeters>786.79998779296875</AltitudeMeters>
            <DistanceMeters>390870.14559785</DistanceMeters>
          </Trackpoint>
          <Trackpoint>
            <Time>2021-08-01T11:56:58.000Z</Time>
            <Position>
              <LatitudeDegrees>41.95279874838888645172119140625</LatitudeDegrees>
              <LongitudeDegrees>-2.04899369738996028900146484375</LongitudeDegrees>
            </Position>
            <AltitudeMeters>787.20001220703125</AltitudeMeters>
            <DistanceMeters>390883.31905635</DistanceMeters>
          </Trackpoint>
          <Trackpoint>
            <Time>2021-08-01T11:57:00.000Z</Time>
            <Position>
              <LatitudeDegrees>41.95297644473612308502197265625</LatitudeDegrees>
              <LongitudeDegrees>-2.04882421530783176422119140625</LongitudeDegrees>
            </Position>
            <AltitudeMeters>788.20001220703125</AltitudeMeters>
            <DistanceMeters>390907.56744594</DistanceMeters>
          </Trackpoint>
          <Trackpoint>
            <Time>2021-08-01T11:57:04.000Z</Time>
            <Position>
              <LatitudeDegrees>41.95328271947801113128662109375</LatitudeDegrees>
              <LongitudeDegrees>-2.04852732829749584197998046875</LongitudeDegrees>
            </Position>
            <AltitudeMeters>789.4000244140625</AltitudeMeters>
            <DistanceMeters>390949.59096233</DistanceMeters>
          </Trackpoint>
          <Trackpoint>
            <Time>2021-08-01T11:57:11.000Z</Time>
            <Position>
              <LatitudeDegrees>41.95381580851972103118896484375</LatitudeDegrees>
              <LongitudeDegrees>-2.0480652339756488800048828125</LongitudeDegrees>
            </Position>
            <AltitudeMeters>788.79998779296875</AltitudeMeters>
            <DistanceMeters>391020.18493911</DistanceMeters>
          </Trackpoint>
          <Trackpoint>
            <Time>2021-08-01T11:57:13.000Z</Time>
            <Position>
              <LatitudeDegrees>41.9539907388389110565185546875</LatitudeDegrees>
              <LongitudeDegrees>-2.04792953096330165863037109375</LongitudeDegrees>
            </Position>
            <AltitudeMeters>787.20001220703125</AltitudeMeters>
            <DistanceMeters>391042.66272453</DistanceMeters>
          </Trackpoint>
          <Trackpoint>
            <Time>2021-08-01T11:57:14.000Z</Time>
            <Position>
              <LatitudeDegrees>41.9540832750499248504638671875</LatitudeDegrees>
              <LongitudeDegrees>-2.04786096699535846710205078125</LongitudeDegrees>
            </Position>
            <AltitudeMeters>785.4000244140625</AltitudeMeters>
            <DistanceMeters>391054.42225644</DistanceMeters>
          </Trackpoint>
          <Trackpoint>
            <Time>2021-08-01T11:57:15.000Z</Time>
            <Position>
              <LatitudeDegrees>41.95417933166027069091796875</LatitudeDegrees>
              <LongitudeDegrees>-2.04779206775128841400146484375</LongitudeDegrees>
            </Position>
            <AltitudeMeters>783.5999755859375</AltitudeMeters>
            <DistanceMeters>391066.53955989</DistanceMeters>
          </Trackpoint>
          <Trackpoint>
            <Time>2021-08-01T11:57:16.000Z</Time>
            <Position>
              <LatitudeDegrees>41.95427781902253627777099609375</LatitudeDegrees>
              <LongitudeDegrees>-2.0477215759456157684326171875</LongitudeDegrees>
            </Position>
            <AltitudeMeters>782</AltitudeMeters>
            <DistanceMeters>391078.9579191</DistanceMeters>
          </Trackpoint>
          <Trackpoint>
            <Time>2021-08-01T11:57:17.000Z</Time>
            <Position>
              <LatitudeDegrees>41.95437756367027759552001953125</LatitudeDegrees>
              <LongitudeDegrees>-2.04764907248318195343017578125</LongitudeDegrees>
            </Position>
            <AltitudeMeters>779.5999755859375</AltitudeMeters>
            <DistanceMeters>391091.57823955</DistanceMeters>
          </Trackpoint>
          <Trackpoint>
            <Time>2021-08-01T11:57:18.000Z</Time>
            <Position>
              <LatitudeDegrees>41.954479403793811798095703125</LatitudeDegrees>
              <LongitudeDegrees>-2.0475774072110652923583984375</LongitudeDegrees>
            </Position>
            <AltitudeMeters>778.4000244140625</AltitudeMeters>
            <DistanceMeters>391104.3716025</DistanceMeters>
          </Trackpoint>
          <Trackpoint>
            <Time>2021-08-01T11:57:19.000Z</Time>
            <Position>
              <LatitudeDegrees>41.954585015773773193359375</LatitudeDegrees>
              <LongitudeDegrees>-2.0475076697766780853271484375</LongitudeDegrees>
            </Position>
            <AltitudeMeters>777.4000244140625</AltitudeMeters>
            <DistanceMeters>391117.46737326</DistanceMeters>
          </Trackpoint>
          <Trackpoint>
            <Time>2021-08-01T11:57:21.000Z</Time>
            <Position>
              <LatitudeDegrees>41.95480403490364551544189453125</LatitudeDegrees>
              <LongitudeDegrees>-2.04736190848052501678466796875</LongitudeDegrees>
            </Position>
            <AltitudeMeters>775.79998779296875</AltitudeMeters>
            <DistanceMeters>391144.66693398</DistanceMeters>
          </Trackpoint>
          <Trackpoint>
            <Time>2021-08-01T11:57:23.000Z</Time>
            <Position>
              <LatitudeDegrees>41.95502649061381816864013671875</LatitudeDegrees>
              <LongitudeDegrees>-2.04718588851392269134521484375</LongitudeDegrees>
            </Position>
            <AltitudeMeters>772.5999755859375</AltitudeMeters>
            <DistanceMeters>391173.395193</DistanceMeters>
          </Trackpoint>
          <Trackpoint>
            <Time>2021-08-01T11:57:24.000Z</Time>
            <Position>
              <LatitudeDegrees>41.95513361133635044097900390625</LatitudeDegrees>
              <LongitudeDegrees>-2.04707424156367778778076171875</LongitudeDegrees>
            </Position>
            <AltitudeMeters>771</AltitudeMeters>
            <DistanceMeters>391188.48021625</DistanceMeters>
          </Trackpoint>
          <Trackpoint>
            <Time>2021-08-01T11:57:25.000Z</Time>
            <Position>
              <LatitudeDegrees>41.95523369126021862030029296875</LatitudeDegrees>
              <LongitudeDegrees>-2.0469410531222820281982421875</LongitudeDegrees>
            </Position>
            <AltitudeMeters>768.4000244140625</AltitudeMeters>
            <DistanceMeters>391204.15242347</DistanceMeters>
          </Trackpoint>
          <Trackpoint>
            <Time>2021-08-01T11:57:26.000Z</Time>
            <Position>
              <LatitudeDegrees>41.95532706566154956817626953125</LatitudeDegrees>
              <LongitudeDegrees>-2.046789340674877166748046875</LongitudeDegrees>
            </Position>
            <AltitudeMeters>764.20001220703125</AltitudeMeters>
            <DistanceMeters>391220.45275995</DistanceMeters>
          </Trackpoint>
          <Trackpoint>
            <Time>2021-08-01T11:57:27.000Z</Time>
            <Position>
              <LatitudeDegrees>41.95541759021580219268798828125</LatitudeDegrees>
              <LongitudeDegrees>-2.04662664793431758880615234375</LongitudeDegrees>
            </Position>
            <AltitudeMeters>759.79998779296875</AltitudeMeters>
            <DistanceMeters>391237.27114616</DistanceMeters>
          </Trackpoint>
          <Trackpoint>
            <Time>2021-08-01T11:57:28.000Z</Time>
            <Position>
              <LatitudeDegrees>41.95550660602748394012451171875</LatitudeDegrees>
              <LongitudeDegrees>-2.0464585907757282257080078125</LongitudeDegrees>
            </Position>
            <AltitudeMeters>755.5999755859375</AltitudeMeters>
            <DistanceMeters>391254.34900928</DistanceMeters>
          </Trackpoint>
          <Trackpoint>
            <Time>2021-08-01T11:57:29.000Z</Time>
            <Position>
              <LatitudeDegrees>41.9555963762104511260986328125</LatitudeDegrees>
              <LongitudeDegrees>-2.0462882705032825469970703125</LongitudeDegrees>
            </Position>
            <AltitudeMeters>752.20001220703125</AltitudeMeters>
            <DistanceMeters>391271.62846175</DistanceMeters>
          </Trackpoint>
          <Trackpoint>
            <Time>2021-08-01T11:57:30.000Z</Time>
            <Position>
              <LatitudeDegrees>41.955687738955020904541015625</LatitudeDegrees>
              <LongitudeDegrees>-2.04611652530729770660400390625</LongitudeDegrees>
            </Position>
            <AltitudeMeters>749.79998779296875</AltitudeMeters>
            <DistanceMeters>391289.10666206</DistanceMeters>
          </Trackpoint>
          <Trackpoint>
            <Time>2021-08-01T11:57:31.000Z</Time>
            <Position>
              <LatitudeDegrees>41.95578220300376415252685546875</LatitudeDegrees>
              <LongitudeDegrees>-2.0459442771971225738525390625</LongitudeDegrees>
            </Position>
            <AltitudeMeters>748.20001220703125</AltitudeMeters>
            <DistanceMeters>391306.82143603</DistanceMeters>
          </Trackpoint>
          <Trackpoint>
            <Time>2021-08-01T11:57:32.000Z</Time>
            <Position>
              <LatitudeDegrees>41.95588077418506145477294921875</LatitudeDegrees>
              <LongitudeDegrees>-2.04577404074370861053466796875</LongitudeDegrees>
            </Position>
            <AltitudeMeters>746</AltitudeMeters>
            <DistanceMeters>391324.6796333</DistanceMeters>
          </Trackpoint>
          <Trackpoint>
            <Time>2021-08-01T11:57:33.000Z</Time>
            <Position>
              <LatitudeDegrees>41.955984123051166534423828125</LatitudeDegrees>
              <LongitudeDegrees>-2.0456068217754364013671875</LongitudeDegrees>
            </Position>
            <AltitudeMeters>743</AltitudeMeters>
            <DistanceMeters>391342.67659921</DistanceMeters>
          </Trackpoint>
          <Trackpoint>
            <Time>2021-08-01T11:57:34.000Z</Time>
            <Position>
              <LatitudeDegrees>41.9560919143259525299072265625</LatitudeDegrees>
              <LongitudeDegrees>-2.0454423688352108001708984375</LongitudeDegrees>
            </Position>
            <AltitudeMeters>741</AltitudeMeters>
            <DistanceMeters>391360.82097924</DistanceMeters>
          </Trackpoint>
          <Trackpoint>
            <Time>2021-08-01T11:57:35.000Z</Time>
            <Position>
              <LatitudeDegrees>41.95620297454297542572021484375</LatitudeDegrees>
              <LongitudeDegrees>-2.04528068192303180694580078125</LongitudeDegrees>
            </Position>
            <AltitudeMeters>739.4000244140625</AltitudeMeters>
            <DistanceMeters>391379.03911471</DistanceMeters>
          </Trackpoint>
          <Trackpoint>
            <Time>2021-08-01T11:57:36.000Z</Time>
            <Position>
              <LatitudeDegrees>41.95631437003612518310546875</LatitudeDegrees>
              <LongitudeDegrees>-2.04512125812470912933349609375</LongitudeDegrees>
            </Position>
            <AltitudeMeters>737.20001220703125</AltitudeMeters>
            <DistanceMeters>391397.14538228</DistanceMeters>
          </Trackpoint>
          <Trackpoint>
            <Time>2021-08-01T11:57:37.000Z</Time>
            <Position>
              <LatitudeDegrees>41.95642308332026004791259765625</LatitudeDegrees>
              <LongitudeDegrees>-2.0449605770409107208251953125</LongitudeDegrees>
            </Position>
            <AltitudeMeters>735.20001220703125</AltitudeMeters>
            <DistanceMeters>391415.12578263</DistanceMeters>
          </Trackpoint>
          <Trackpoint>
            <Time>2021-08-01T11:57:38.000Z</Time>
            <Position>
              <LatitudeDegrees>41.9565274380147457122802734375</LatitudeDegrees>
              <LongitudeDegrees>-2.0447966270148754119873046875</LongitudeDegrees>
            </Position>
            <AltitudeMeters>733.79998779296875</AltitudeMeters>
            <DistanceMeters>391432.9877719</DistanceMeters>
          </Trackpoint>
          <Trackpoint>
            <Time>2021-08-01T11:57:39.000Z</Time>
            <Position>
              <LatitudeDegrees>41.95662659592926502227783203125</LatitudeDegrees>
              <LongitudeDegrees>-2.0446276478469371795654296875</LongitudeDegrees>
            </Position>
            <AltitudeMeters>732.79998779296875</AltitudeMeters>
            <DistanceMeters>391450.80420385</DistanceMeters>
          </Trackpoint>
          <Trackpoint>
            <Time>2021-08-01T11:57:41.000Z</Time>
            <Position>
              <LatitudeDegrees>41.956800520420074462890625</LatitudeDegrees>
              <LongitudeDegrees>-2.044269740581512451171875</LongitudeDegrees>
            </Position>
            <AltitudeMeters>730.20001220703125</AltitudeMeters>
            <DistanceMeters>391486.19243807</DistanceMeters>
          </Trackpoint>
          <Trackpoint>
            <Time>2021-08-01T11:57:42.000Z</Time>
            <Position>
              <LatitudeDegrees>41.9568729400634765625</LatitudeDegrees>
              <LongitudeDegrees>-2.044081985950469970703125</LongitudeDegrees>
            </Position>
            <AltitudeMeters>727.79998779296875</AltitudeMeters>
            <DistanceMeters>391503.69877305</DistanceMeters>
          </Trackpoint>
          <Trackpoint>
            <Time>2021-08-01T11:57:43.000Z</Time>
            <Position>
              <LatitudeDegrees>41.95694007910788059234619140625</LatitudeDegrees>
              <LongitudeDegrees>-2.0438907109200954437255859375</LongitudeDegrees>
            </Position>
            <AltitudeMeters>726</AltitudeMeters>
            <DistanceMeters>391521.20562384</DistanceMeters>
          </Trackpoint>
          <Trackpoint>
            <Time>2021-08-01T11:57:45.000Z</Time>
            <Position>
              <LatitudeDegrees>41.9570799730718135833740234375</LatitudeDegrees>
              <LongitudeDegrees>-2.04351277090609073638916015625</LongitudeDegrees>
            </Position>
            <AltitudeMeters>724.20001220703125</AltitudeMeters>
            <DistanceMeters>391556.14833061</DistanceMeters>
          </Trackpoint>
          <Trackpoint>
            <Time>2021-08-01T11:57:46.000Z</Time>
            <Position>
              <LatitudeDegrees>41.9571532309055328369140625</LatitudeDegrees>
              <LongitudeDegrees>-2.043327279388904571533203125</LongitudeDegrees>
            </Position>
            <AltitudeMeters>722.20001220703125</AltitudeMeters>
            <DistanceMeters>391573.53224669</DistanceMeters>
          </Trackpoint>
          <Trackpoint>
            <Time>2021-08-01T11:57:47.000Z</Time>
            <Position>
              <LatitudeDegrees>41.9572261534631252288818359375</LatitudeDegrees>
              <LongitudeDegrees>-2.04314262606203556060791015625</LongitudeDegrees>
            </Position>
            <AltitudeMeters>720.79998779296875</AltitudeMeters>
            <DistanceMeters>391590.83702623</DistanceMeters>
          </Trackpoint>
          <Trackpoint>
            <Time>2021-08-01T11:57:48.000Z</Time>
            <Position>
              <LatitudeDegrees>41.9573009200394153594970703125</LatitudeDegrees>
              <LongitudeDegrees>-2.04295839183032512664794921875</LongitudeDegrees>
            </Position>
            <AltitudeMeters>719.79998779296875</AltitudeMeters>
            <DistanceMeters>391608.20899085</DistanceMeters>
          </Trackpoint>
          <Trackpoint>
            <Time>2021-08-01T11:57:50.000Z</Time>
            <Position>
              <LatitudeDegrees>41.95745539851486682891845703125</LatitudeDegrees>
              <LongitudeDegrees>-2.04259403049945831298828125</LongitudeDegrees>
            </Position>
            <AltitudeMeters>716.5999755859375</AltitudeMeters>
            <DistanceMeters>391642.92379867</DistanceMeters>
          </Trackpoint>
          <Trackpoint>
            <Time>2021-08-01T11:57:51.000Z</Time>
            <Position>
              <LatitudeDegrees>41.95753745734691619873046875</LatitudeDegrees>
              <LongitudeDegrees>-2.0424178428947925567626953125</LongitudeDegrees>
            </Position>
            <AltitudeMeters>714</AltitudeMeters>
            <DistanceMeters>391660.13072014</DistanceMeters>
          </Trackpoint>
          <Trackpoint>
            <Time>2021-08-01T11:57:52.000Z</Time>
            <Position>
              <LatitudeDegrees>41.9576231203973293304443359375</LatitudeDegrees>
              <LongitudeDegrees>-2.0422461815178394317626953125</LongitudeDegrees>
            </Position>
            <AltitudeMeters>712.20001220703125</AltitudeMeters>
            <DistanceMeters>391677.2415988</DistanceMeters>
          </Trackpoint>
          <Trackpoint>
            <Time>2021-08-01T11:57:54.000Z</Time>
            <Position>
              <LatitudeDegrees>41.95779520086944103240966796875</LatitudeDegrees>
              <LongitudeDegrees>-2.04191283322870731353759765625</LongitudeDegrees>
            </Position>
            <AltitudeMeters>710.79998779296875</AltitudeMeters>
            <DistanceMeters>391710.82840082</DistanceMeters>
          </Trackpoint>
          <Trackpoint>
            <Time>2021-08-01T11:57:56.000Z</Time>
            <Position>
              <LatitudeDegrees>41.95795864798128604888916015625</LatitudeDegrees>
              <LongitudeDegrees>-2.04159365035593509674072265625</LongitudeDegrees>
            </Position>
            <AltitudeMeters>709.5999755859375</AltitudeMeters>
            <DistanceMeters>391742.90424562</DistanceMeters>
          </Trackpoint>
          <Trackpoint>
            <Time>2021-08-01T11:57:59.000Z</Time>
            <Position>
              <LatitudeDegrees>41.9582065008580684661865234375</LatitudeDegrees>
              <LongitudeDegrees>-2.04116432927548885345458984375</LongitudeDegrees>
            </Position>
            <AltitudeMeters>709</AltitudeMeters>
            <DistanceMeters>391787.88963527</DistanceMeters>
          </Trackpoint>
          <Trackpoint>
            <Time>2021-08-01T11:58:04.000Z</Time>
            <Position>
              <LatitudeDegrees>41.95867949165403842926025390625</LatitudeDegrees>
              <LongitudeDegrees>-2.04065479338169097900390625</LongitudeDegrees>
            </Position>
            <AltitudeMeters>708.20001220703125</AltitudeMeters>
            <DistanceMeters>391855.34367761</DistanceMeters>
          </Trackpoint>
          <Trackpoint>
            <Time>2021-08-01T11:58:08.000Z</Time>
            <Position>
              <LatitudeDegrees>41.95877940393984317779541015625</LatitudeDegrees>
              <LongitudeDegrees>-2.040091194212436676025390625</LongitudeDegrees>
            </Position>
            <AltitudeMeters>709.20001220703125</AltitudeMeters>
            <DistanceMeters>391903.29837965</DistanceMeters>
          </Trackpoint>
          <Trackpoint>
            <Time>2021-08-01T11:58:09.000Z</Time>
            <Position>
              <LatitudeDegrees>41.95878493599593639373779296875</LatitudeDegrees>
              <LongitudeDegrees>-2.0399545691907405853271484375</LongitudeDegrees>
            </Position>
            <AltitudeMeters>710.4000244140625</AltitudeMeters>
            <DistanceMeters>391914.62291697</DistanceMeters>
          </Trackpoint>
          <Trackpoint>
            <Time>2021-08-01T11:58:13.000Z</Time>
            <Position>
              <LatitudeDegrees>41.9588294439017772674560546875</LatitudeDegrees>
              <LongitudeDegrees>-2.03942357562482357025146484375</LongitudeDegrees>
            </Position>
            <AltitudeMeters>710.5999755859375</AltitudeMeters>
            <DistanceMeters>391958.85006903</DistanceMeters>
          </Trackpoint>
          <Trackpoint>
            <Time>2021-08-01T11:58:16.000Z</Time>
            <Position>
              <LatitudeDegrees>41.95892441086471080780029296875</LatitudeDegrees>
              <LongitudeDegrees>-2.03905644826591014862060546875</LongitudeDegrees>
            </Position>
            <AltitudeMeters>709</AltitudeMeters>
            <DistanceMeters>391991.0220505</DistanceMeters>
          </Trackpoint>
          <Trackpoint>
            <Time>2021-08-01T11:58:19.000Z</Time>
            <Position>
              <LatitudeDegrees>41.9589705951511859893798828125</LatitudeDegrees>
              <LongitudeDegrees>-2.0386761613190174102783203125</LongitudeDegrees>
            </Position>
            <AltitudeMeters>708</AltitudeMeters>
            <DistanceMeters>392022.91423905</DistanceMeters>
          </Trackpoint>
          <Trackpoint>
            <Time>2021-08-01T11:58:21.000Z</Time>
            <Position>
              <LatitudeDegrees>41.958977468311786651611328125</LatitudeDegrees>
              <LongitudeDegrees>-2.0384185016155242919921875</LongitudeDegrees>
            </Position>
            <AltitudeMeters>706.20001220703125</AltitudeMeters>
            <DistanceMeters>392044.25339707</DistanceMeters>
          </Trackpoint>
          <Trackpoint>
            <Time>2021-08-01T11:58:23.000Z</Time>
            <Position>
              <LatitudeDegrees>41.95896028541028499603271484375</LatitudeDegrees>
              <LongitudeDegrees>-2.0381688885390758514404296875</LongitudeDegrees>
            </Position>
            <AltitudeMeters>705.20001220703125</AltitudeMeters>
            <DistanceMeters>392065.00123489</DistanceMeters>
          </Trackpoint>
          <Trackpoint>
            <Time>2021-08-01T11:58:29.000Z</Time>
            <Position>
              <LatitudeDegrees>41.9588465429842472076416015625</LatitudeDegrees>
              <LongitudeDegrees>-2.0375441014766693115234375</LongitudeDegrees>
            </Position>
            <AltitudeMeters>706.5999755859375</AltitudeMeters>
            <DistanceMeters>392118.23994631</DistanceMeters>
          </Trackpoint>
          <Trackpoint>
            <Time>2021-08-01T11:58:31.000Z</Time>
            <Position>
              <LatitudeDegrees>41.95879231207072734832763671875</LatitudeDegrees>
              <LongitudeDegrees>-2.037372104823589324951171875</LongitudeDegrees>
            </Position>
            <AltitudeMeters>707.5999755859375</AltitudeMeters>
            <DistanceMeters>392133.70246014</DistanceMeters>
          </Trackpoint>
          <Trackpoint>
            <Time>2021-08-01T11:58:34.000Z</Time>
            <Position>
              <LatitudeDegrees>41.95871871896088123321533203125</LatitudeDegrees>
              <LongitudeDegrees>-2.0371322147548198699951171875</LongitudeDegrees>
            </Position>
            <AltitudeMeters>708.79998779296875</AltitudeMeters>
            <DistanceMeters>392155.18081006</DistanceMeters>
          </Trackpoint>
          <Trackpoint>
            <Time>2021-08-01T11:58:36.000Z</Time>
            <Position>
              <LatitudeDegrees>41.95869374088943004608154296875</LatitudeDegrees>
              <LongitudeDegrees>-2.03697069548070430755615234375</LongitudeDegrees>
            </Position>
            <AltitudeMeters>709.20001220703125</AltitudeMeters>
            <DistanceMeters>392168.83525946</DistanceMeters>
          </Trackpoint>
          <Trackpoint>
            <Time>2021-08-01T11:58:42.000Z</Time>
            <Position>
              <LatitudeDegrees>41.95874512195587158203125</LatitudeDegrees>
              <LongitudeDegrees>-2.03649443574249744415283203125</LongitudeDegrees>
            </Position>
            <AltitudeMeters>709.5999755859375</AltitudeMeters>
            <DistanceMeters>392208.66653173</DistanceMeters>
          </Trackpoint>
          <Trackpoint>
            <Time>2021-08-01T11:58:48.000Z</Time>
            <Position>
              <LatitudeDegrees>41.95889054797589778900146484375</LatitudeDegrees>
              <LongitudeDegrees>-2.03602236695587635040283203125</LongitudeDegrees>
            </Position>
            <AltitudeMeters>707.5999755859375</AltitudeMeters>
            <DistanceMeters>392250.95822408</DistanceMeters>
          </Trackpoint>
          <Trackpoint>
            <Time>2021-08-01T11:58:53.000Z</Time>
            <Position>
              <LatitudeDegrees>41.9590322859585285186767578125</LatitudeDegrees>
              <LongitudeDegrees>-2.03563327901065349578857421875</LongitudeDegrees>
            </Position>
            <AltitudeMeters>706.5999755859375</AltitudeMeters>
            <DistanceMeters>392286.81818875</DistanceMeters>
          </Trackpoint>
          <Trackpoint>
            <Time>2021-08-01T11:59:01.000Z</Time>
            <Position>
              <LatitudeDegrees>41.959267146885395050048828125</LatitudeDegrees>
              <LongitudeDegrees>-2.03496775589883327484130859375</LongitudeDegrees>
            </Position>
            <AltitudeMeters>705.5999755859375</AltitudeMeters>
            <DistanceMeters>392347.7892126</DistanceMeters>
          </Trackpoint>
          <Trackpoint>
            <Time>2021-08-01T11:59:02.000Z</Time>
            <Position>
              <LatitudeDegrees>41.959306038916110992431640625</LatitudeDegrees>
              <LongitudeDegrees>-2.03487387858331203460693359375</LongitudeDegrees>
            </Position>
            <AltitudeMeters>705.4000244140625</AltitudeMeters>
            <DistanceMeters>392356.68322574</DistanceMeters>
          </Trackpoint>
          <Trackpoint>
            <Time>2021-08-01T11:59:04.000Z</Time>
            <Position>
              <LatitudeDegrees>41.9593913666903972625732421875</LatitudeDegrees>
              <LongitudeDegrees>-2.03468143008649349212646484375</LongitudeDegrees>
            </Position>
            <AltitudeMeters>704.4000244140625</AltitudeMeters>
            <DistanceMeters>392375.2278053</DistanceMeters>
          </Trackpoint>
          <Trackpoint>
            <Time>2021-08-01T11:59:05.000Z</Time>
            <Position>
              <LatitudeDegrees>41.9594453461468219757080078125</LatitudeDegrees>
              <LongitudeDegrees>-2.03459140844643115997314453125</LongitudeDegrees>
            </Position>
            <AltitudeMeters>703.79998779296875</AltitudeMeters>
            <DistanceMeters>392384.79959488</DistanceMeters>
          </Trackpoint>
          <Trackpoint>
            <Time>2021-08-01T11:59:07.000Z</Time>
            <Position>
              <LatitudeDegrees>41.95957048796117305755615234375</LatitudeDegrees>
              <LongitudeDegrees>-2.03442896716296672821044921875</LongitudeDegrees>
            </Position>
            <AltitudeMeters>701.79998779296875</AltitudeMeters>
            <DistanceMeters>392404.15824159</DistanceMeters>
          </Trackpoint>
          <Trackpoint>
            <Time>2021-08-01T11:59:09.000Z</Time>
            <Position>
              <LatitudeDegrees>41.95969336666166782379150390625</LatitudeDegrees>
              <LongitudeDegrees>-2.0342706330120563507080078125</LongitudeDegrees>
            </Position>
            <AltitudeMeters>700</AltitudeMeters>
            <DistanceMeters>392423.09980956</DistanceMeters>
          </Trackpoint>
          <Trackpoint>
            <Time>2021-08-01T11:59:11.000Z</Time>
            <Position>
              <LatitudeDegrees>41.9597978889942169189453125</LatitudeDegrees>
              <LongitudeDegrees>-2.0341040007770061492919921875</LongitudeDegrees>
            </Position>
            <AltitudeMeters>698.79998779296875</AltitudeMeters>
            <DistanceMeters>392441.14237744</DistanceMeters>
          </Trackpoint>
          <Trackpoint>
            <Time>2021-08-01T11:59:17.000Z</Time>
            <Position>
              <LatitudeDegrees>41.959943063557147979736328125</LatitudeDegrees>
              <LongitudeDegrees>-2.0335192792117595672607421875</LongitudeDegrees>
            </Position>
            <AltitudeMeters>698.79998779296875</AltitudeMeters>
            <DistanceMeters>392492.16349383</DistanceMeters>
          </Trackpoint>
          <Trackpoint>
            <Time>2021-08-01T11:59:25.000Z</Time>
            <Position>
              <LatitudeDegrees>41.96006217040121555328369140625</LatitudeDegrees>
              <LongitudeDegrees>-2.03276348300278186798095703125</LongitudeDegrees>
            </Position>
            <AltitudeMeters>699.20001220703125</AltitudeMeters>
            <DistanceMeters>392556.10665854</DistanceMeters>
          </Trackpoint>
          <Trackpoint>
            <Time>2021-08-01T11:59:31.000Z</Time>
            <Position>
              <LatitudeDegrees>41.9601760804653167724609375</LatitudeDegrees>
              <LongitudeDegrees>-2.03225612640380859375</LongitudeDegrees>
            </Position>
            <AltitudeMeters>698</AltitudeMeters>
            <DistanceMeters>392599.97052052</DistanceMeters>
          </Trackpoint>
          <Trackpoint>
            <Time>2021-08-01T11:59:40.000Z</Time>
            <Position>
              <LatitudeDegrees>41.96034732274711132049560546875</LatitudeDegrees>
              <LongitudeDegrees>-2.03152832575142383575439453125</LongitudeDegrees>
            </Position>
            <AltitudeMeters>698</AltitudeMeters>
            <DistanceMeters>392663.15049497</DistanceMeters>
          </Trackpoint>
          <Trackpoint>
            <Time>2021-08-01T11:59:41.000Z</Time>
            <Position>
              <LatitudeDegrees>41.96037657558917999267578125</LatitudeDegrees>
              <LongitudeDegrees>-2.031454481184482574462890625</LongitudeDegrees>
            </Position>
            <AltitudeMeters>697.79998779296875</AltitudeMeters>
            <DistanceMeters>392670.07506759</DistanceMeters>
          </Trackpoint>
          <Trackpoint>
            <Time>2021-08-01T11:59:45.000Z</Time>
            <Position>
              <LatitudeDegrees>41.96052904240787029266357421875</LatitudeDegrees>
              <LongitudeDegrees>-2.0311924628913402557373046875</LongitudeDegrees>
            </Position>
            <AltitudeMeters>697.4000244140625</AltitudeMeters>
            <DistanceMeters>392697.61150742</DistanceMeters>
          </Trackpoint>
          <Trackpoint>
            <Time>2021-08-01T11:59:47.000Z</Time>
            <Position>
              <LatitudeDegrees>41.96061797440052032470703125</LatitudeDegrees>
              <LongitudeDegrees>-2.031075619161128997802734375</LongitudeDegrees>
            </Position>
            <AltitudeMeters>696.79998779296875</AltitudeMeters>
            <DistanceMeters>392711.44988996</DistanceMeters>
          </Trackpoint>
          <Trackpoint>
            <Time>2021-08-01T11:59:54.000Z</Time>
            <Position>
              <LatitudeDegrees>41.96095098741352558135986328125</LatitudeDegrees>
              <LongitudeDegrees>-2.03069885261356830596923828125</LongitudeDegrees>
            </Position>
            <AltitudeMeters>695.79998779296875</AltitudeMeters>
            <DistanceMeters>392759.8874215</DistanceMeters>
          </Trackpoint>
          <Trackpoint>
            <Time>2021-08-01T11:59:55.000Z</Time>
            <Position>
              <LatitudeDegrees>41.96100714616477489471435546875</LatitudeDegrees>
              <LongitudeDegrees>-2.0306560210883617401123046875</LongitudeDegrees>
            </Position>
            <AltitudeMeters>695.20001220703125</AltitudeMeters>
            <DistanceMeters>392767.07310011</DistanceMeters>
          </Trackpoint>
          <Trackpoint>
            <Time>2021-08-01T11:59:57.000Z</Time>
            <Position>
              <LatitudeDegrees>41.9611337967216968536376953125</LatitudeDegrees>
              <LongitudeDegrees>-2.030590474605560302734375</LongitudeDegrees>
            </Position>
            <AltitudeMeters>694.4000244140625</AltitudeMeters>
            <DistanceMeters>392782.17726679</DistanceMeters>
          </Trackpoint>
          <Trackpoint>
            <Time>2021-08-01T11:59:59.000Z</Time>
            <Position>
              <LatitudeDegrees>41.96127519942820072174072265625</LatitudeDegrees>
              <LongitudeDegrees>-2.030549235641956329345703125</LongitudeDegrees>
            </Position>
            <AltitudeMeters>693.5999755859375</AltitudeMeters>
            <DistanceMeters>392798.2814214</DistanceMeters>
          </Trackpoint>
          <Trackpoint>
            <Time>2021-08-01T12:00:00.000Z</Time>
            <Position>
              <LatitudeDegrees>41.961348541080951690673828125</LatitudeDegrees>
              <LongitudeDegrees>-2.03053289093077182769775390625</LongitudeDegrees>
            </Position>
            <AltitudeMeters>692.79998779296875</AltitudeMeters>
            <DistanceMeters>392806.55529652</DistanceMeters>
          </Trackpoint>
          <Trackpoint>
            <Time>2021-08-01T12:00:01.000Z</Time>
            <Position>
              <LatitudeDegrees>41.96142238564789295196533203125</LatitudeDegrees>
              <LongitudeDegrees>-2.0305155403912067413330078125</LongitudeDegrees>
            </Position>
            <AltitudeMeters>691.4000244140625</AltitudeMeters>
            <DistanceMeters>392814.89872862</DistanceMeters>
          </Trackpoint>
          <Trackpoint>
            <Time>2021-08-01T12:00:03.000Z</Time>
            <Position>
              <LatitudeDegrees>41.96156680583953857421875</LatitudeDegrees>
              <LongitudeDegrees>-2.03046550042927265167236328125</LongitudeDegrees>
            </Position>
            <AltitudeMeters>690</AltitudeMeters>
            <DistanceMeters>392831.49769523</DistanceMeters>
          </Trackpoint>
          <Trackpoint>
            <Time>2021-08-01T12:00:09.000Z</Time>
            <Position>
              <LatitudeDegrees>41.96193250827491283416748046875</LatitudeDegrees>
              <LongitudeDegrees>-2.030189819633960723876953125</LongitudeDegrees>
            </Position>
            <AltitudeMeters>689.5999755859375</AltitudeMeters>
            <DistanceMeters>392878.15958581</DistanceMeters>
          </Trackpoint>
          <Trackpoint>
            <Time>2021-08-01T12:00:13.000Z</Time>
            <Position>
              <LatitudeDegrees>41.9620858132839202880859375</LatitudeDegrees>
              <LongitudeDegrees>-2.0299019850790500640869140625</LongitudeDegrees>
            </Position>
            <AltitudeMeters>689</AltitudeMeters>
            <DistanceMeters>392907.46204046</DistanceMeters>
          </Trackpoint>
          <Trackpoint>
            <Time>2021-08-01T12:00:17.000Z</Time>
            <Position>
              <LatitudeDegrees>41.96216166950762271881103515625</LatitudeDegrees>
              <LongitudeDegrees>-2.029576599597930908203125</LongitudeDegrees>
            </Position>
            <AltitudeMeters>687.5999755859375</AltitudeMeters>
            <DistanceMeters>392935.68433471</DistanceMeters>
          </Trackpoint>
          <Trackpoint>
            <Time>2021-08-01T12:00:18.000Z</Time>
            <Position>
              <LatitudeDegrees>41.9621728174388408660888671875</LatitudeDegrees>
              <LongitudeDegrees>-2.029493115842342376708984375</LongitudeDegrees>
            </Position>
            <AltitudeMeters>687.4000244140625</AltitudeMeters>
            <DistanceMeters>392942.70345838</DistanceMeters>
          </Trackpoint>
          <Trackpoint>
            <Time>2021-08-01T12:00:24.000Z</Time>
            <Position>
              <LatitudeDegrees>41.96223861537873744964599609375</LatitudeDegrees>
              <LongitudeDegrees>-2.02898274175822734832763671875</LongitudeDegrees>
            </Position>
            <AltitudeMeters>686.4000244140625</AltitudeMeters>
            <DistanceMeters>392985.57346279</DistanceMeters>
          </Trackpoint>
          <Trackpoint>
            <Time>2021-08-01T12:00:32.000Z</Time>
            <Position>
              <LatitudeDegrees>41.9623143039643764495849609375</LatitudeDegrees>
              <LongitudeDegrees>-2.0283248461782932281494140625</LongitudeDegrees>
            </Position>
            <AltitudeMeters>685.4000244140625</AltitudeMeters>
            <DistanceMeters>393040.67044019</DistanceMeters>
          </Trackpoint>
          <Trackpoint>
            <Time>2021-08-01T12:00:42.000Z</Time>
            <Position>
              <LatitudeDegrees>41.9622613303363323211669921875</LatitudeDegrees>
              <LongitudeDegrees>-2.0275309123098850250244140625</LongitudeDegrees>
            </Position>
            <AltitudeMeters>686.5999755859375</AltitudeMeters>
            <DistanceMeters>393106.64239017</DistanceMeters>
          </Trackpoint>
          <Trackpoint>
            <Time>2021-08-01T12:00:51.000Z</Time>
            <Position>
              <LatitudeDegrees>41.9624028168618679046630859375</LatitudeDegrees>
              <LongitudeDegrees>-2.0268305204808712005615234375</LongitudeDegrees>
            </Position>
            <AltitudeMeters>685.5999755859375</AltitudeMeters>
            <DistanceMeters>393166.70949718</DistanceMeters>
          </Trackpoint>
          <Trackpoint>
            <Time>2021-08-01T12:00:52.000Z</Time>
            <Position>
              <LatitudeDegrees>41.96243005804717540740966796875</LatitudeDegrees>
              <LongitudeDegrees>-2.02676120214164257049560546875</LongitudeDegrees>
            </Position>
            <AltitudeMeters>685.4000244140625</AltitudeMeters>
            <DistanceMeters>393173.19850685</DistanceMeters>
          </Trackpoint>
          <Trackpoint>
            <Time>2021-08-01T12:00:56.000Z</Time>
            <Position>
              <LatitudeDegrees>41.96252561174333095550537109375</LatitudeDegrees>
              <LongitudeDegrees>-2.02648409642279148101806640625</LongitudeDegrees>
            </Position>
            <AltitudeMeters>684.4000244140625</AltitudeMeters>
            <DistanceMeters>393198.47847065</DistanceMeters>
          </Trackpoint>
          <Trackpoint>
            <Time>2021-08-01T12:00:59.000Z</Time>
            <Position>
              <LatitudeDegrees>41.96258160285651683807373046875</LatitudeDegrees>
              <LongitudeDegrees>-2.02625962905585765838623046875</LongitudeDegrees>
            </Position>
            <AltitudeMeters>683.4000244140625</AltitudeMeters>
            <DistanceMeters>393218.07333861</DistanceMeters>
          </Trackpoint>
          <Trackpoint>
            <Time>2021-08-01T12:01:06.000Z</Time>
            <Position>
              <LatitudeDegrees>41.9627054035663604736328125</LatitudeDegrees>
              <LongitudeDegrees>-2.0256600715219974517822265625</LongitudeDegrees>
            </Position>
            <AltitudeMeters>682</AltitudeMeters>
            <DistanceMeters>393269.57150568</DistanceMeters>
          </Trackpoint>
          <Trackpoint>
            <Time>2021-08-01T12:01:10.000Z</Time>
            <Position>
              <LatitudeDegrees>41.96278494782745838165283203125</LatitudeDegrees>
              <LongitudeDegrees>-2.02529805712401866912841796875</LongitudeDegrees>
            </Position>
            <AltitudeMeters>680.5999755859375</AltitudeMeters>
            <DistanceMeters>393300.81319101</DistanceMeters>
          </Trackpoint>
          <Trackpoint>
            <Time>2021-08-01T12:01:13.000Z</Time>
            <Position>
              <LatitudeDegrees>41.96283423341810703277587890625</LatitudeDegrees>
              <LongitudeDegrees>-2.025024890899658203125</LongitudeDegrees>
            </Position>
            <AltitudeMeters>679.5999755859375</AltitudeMeters>
            <DistanceMeters>393324.07708152</DistanceMeters>
          </Trackpoint>
          <Trackpoint>
            <Time>2021-08-01T12:01:21.000Z</Time>
            <Position>
              <LatitudeDegrees>41.96294034831225872039794921875</LatitudeDegrees>
              <LongitudeDegrees>-2.02428996562957763671875</LongitudeDegrees>
            </Position>
            <AltitudeMeters>678.79998779296875</AltitudeMeters>
            <DistanceMeters>393386.03697693</DistanceMeters>
          </Trackpoint>
          <Trackpoint>
            <Time>2021-08-01T12:01:24.000Z</Time>
            <Position>
              <LatitudeDegrees>41.96298326365649700164794921875</LatitudeDegrees>
              <LongitudeDegrees>-2.024024426937103271484375</LongitudeDegrees>
            </Position>
            <AltitudeMeters>678.4000244140625</AltitudeMeters>
            <DistanceMeters>393408.52661036</DistanceMeters>
          </Trackpoint>
          <Trackpoint>
            <Time>2021-08-01T12:01:33.000Z</Time>
            <Position>
              <LatitudeDegrees>41.96313480846583843231201171875</LatitudeDegrees>
              <LongitudeDegrees>-2.0233242027461528778076171875</LongitudeDegrees>
            </Position>
            <AltitudeMeters>679</AltitudeMeters>
            <DistanceMeters>393468.88293852</DistanceMeters>
          </Trackpoint>
          <Trackpoint>
            <Time>2021-08-01T12:01:43.000Z</Time>
            <Position>
              <LatitudeDegrees>41.96330554783344268798828125</LatitudeDegrees>
              <LongitudeDegrees>-2.02258475124835968017578125</LongitudeDegrees>
            </Position>
            <AltitudeMeters>678.4000244140625</AltitudeMeters>
            <DistanceMeters>393532.96350423</DistanceMeters>
          </Trackpoint>
          <Trackpoint>
            <Time>2021-08-01T12:01:45.000Z</Time>
            <Position>
              <LatitudeDegrees>41.96332524530589580535888671875</LatitudeDegrees>
              <LongitudeDegrees>-2.02242071740329265594482421875</LongitudeDegrees>
            </Position>
            <AltitudeMeters>677.4000244140625</AltitudeMeters>
            <DistanceMeters>393546.71482529</DistanceMeters>
          </Trackpoint>
          <Trackpoint>
            <Time>2021-08-01T12:01:54.000Z</Time>
            <Position>
              <LatitudeDegrees>41.96334100328385829925537109375</LatitudeDegrees>
              <LongitudeDegrees>-2.02167321927845478057861328125</LongitudeDegrees>
            </Position>
            <AltitudeMeters>676.5999755859375</AltitudeMeters>
            <DistanceMeters>393608.60348543</DistanceMeters>
          </Trackpoint>
          <Trackpoint>
            <Time>2021-08-01T12:01:55.000Z</Time>
            <Position>
              <LatitudeDegrees>41.96334033273160457611083984375</LatitudeDegrees>
              <LongitudeDegrees>-2.02158487401902675628662109375</LongitudeDegrees>
            </Position>
            <AltitudeMeters>676.4000244140625</AltitudeMeters>
            <DistanceMeters>393615.91498682</DistanceMeters>
          </Trackpoint>
          <Trackpoint>
            <Time>2021-08-01T12:01:58.000Z</Time>
            <Position>
              <LatitudeDegrees>41.96334787644445896148681640625</LatitudeDegrees>
              <LongitudeDegrees>-2.02131229452788829803466796875</LongitudeDegrees>
            </Position>
            <AltitudeMeters>675.20001220703125</AltitudeMeters>
            <DistanceMeters>393638.48958237</DistanceMeters>
          </Trackpoint>
          <Trackpoint>
            <Time>2021-08-01T12:02:02.000Z</Time>
            <Position>
              <LatitudeDegrees>41.9634103216230869293212890625</LatitudeDegrees>
              <LongitudeDegrees>-2.02092002145946025848388671875</LongitudeDegrees>
            </Position>
            <AltitudeMeters>673.79998779296875</AltitudeMeters>
            <DistanceMeters>393671.69009955</DistanceMeters>
          </Trackpoint>
          <Trackpoint>
            <Time>2021-08-01T12:02:03.000Z</Time>
            <Position>
              <LatitudeDegrees>41.9634404964745044708251953125</LatitudeDegrees>
              <LongitudeDegrees>-2.02081390656530857086181640625</LongitudeDegrees>
            </Position>
            <AltitudeMeters>672.4000244140625</AltitudeMeters>
            <DistanceMeters>393681.09246353</DistanceMeters>
          </Trackpoint>
          <Trackpoint>
            <Time>2021-08-01T12:02:04.000Z</Time>
            <Position>
              <LatitudeDegrees>41.96347561664879322052001953125</LatitudeDegrees>
              <LongitudeDegrees>-2.02070477418601512908935546875</LongitudeDegrees>
            </Position>
            <AltitudeMeters>670.5999755859375</AltitudeMeters>
            <DistanceMeters>393690.93403861</DistanceMeters>
          </Trackpoint>
          <Trackpoint>
            <Time>2021-08-01T12:02:05.000Z</Time>
            <Position>
              <LatitudeDegrees>41.963516771793365478515625</LatitudeDegrees>
              <LongitudeDegrees>-2.0205940492451190948486328125</LongitudeDegrees>
            </Position>
            <AltitudeMeters>669.4000244140625</AltitudeMeters>
            <DistanceMeters>393701.17842968</DistanceMeters>
          </Trackpoint>
          <Trackpoint>
            <Time>2021-08-01T12:02:06.000Z</Time>
            <Position>
              <LatitudeDegrees>41.96356731466948986053466796875</LatitudeDegrees>
              <LongitudeDegrees>-2.020487599074840545654296875</LongitudeDegrees>
            </Position>
            <AltitudeMeters>668.5999755859375</AltitudeMeters>
            <DistanceMeters>393711.63093631</DistanceMeters>
          </Trackpoint>
          <Trackpoint>
            <Time>2021-08-01T12:02:07.000Z</Time>
            <Position>
              <LatitudeDegrees>41.9636279158294200897216796875</LatitudeDegrees>
              <LongitudeDegrees>-2.02038802206516265869140625</LongitudeDegrees>
            </Position>
            <AltitudeMeters>667.5999755859375</AltitudeMeters>
            <DistanceMeters>393722.28028981</DistanceMeters>
          </Trackpoint>
          <Trackpoint>
            <Time>2021-08-01T12:02:10.000Z</Time>
            <Position>
              <LatitudeDegrees>41.96385162882506847381591796875</LatitudeDegrees>
              <LongitudeDegrees>-2.02015944756567478179931640625</LongitudeDegrees>
            </Position>
            <AltitudeMeters>666.5999755859375</AltitudeMeters>
            <DistanceMeters>393753.55086573</DistanceMeters>
          </Trackpoint>
          <Trackpoint>
            <Time>2021-08-01T12:02:11.000Z</Time>
            <Position>
              <LatitudeDegrees>41.96393192745745182037353515625</LatitudeDegrees>
              <LongitudeDegrees>-2.02010815031826496124267578125</LongitudeDegrees>
            </Position>
            <AltitudeMeters>666.5999755859375</AltitudeMeters>
            <DistanceMeters>393763.44551523</DistanceMeters>
          </Trackpoint>
          <Trackpoint>
            <Time>2021-08-01T12:02:18.000Z</Time>
            <Position>
              <LatitudeDegrees>41.96443852968513965606689453125</LatitudeDegrees>
              <LongitudeDegrees>-2.01981763355433940887451171875</LongitudeDegrees>
            </Position>
            <AltitudeMeters>667.5999755859375</AltitudeMeters>
            <DistanceMeters>393824.74341788</DistanceMeters>
          </Trackpoint>
          <Trackpoint>
            <Time>2021-08-01T12:02:19.000Z</Time>
            <Position>
              <LatitudeDegrees>41.96450307033956050872802734375</LatitudeDegrees>
              <LongitudeDegrees>-2.01978293247520923614501953125</LongitudeDegrees>
            </Position>
            <AltitudeMeters>667.79998779296875</AltitudeMeters>
            <DistanceMeters>393832.47978309</DistanceMeters>
          </Trackpoint>
          <Trackpoint>
            <Time>2021-08-01T12:02:25.000Z</Time>
            <Position>
              <LatitudeDegrees>41.96486114524304866790771484375</LatitudeDegrees>
              <LongitudeDegrees>-2.01958646066486835479736328125</LongitudeDegrees>
            </Position>
            <AltitudeMeters>668.79998779296875</AltitudeMeters>
            <DistanceMeters>393875.52342332</DistanceMeters>
          </Trackpoint>
          <Trackpoint>
            <Time>2021-08-01T12:02:28.000Z</Time>
            <Position>
              <LatitudeDegrees>41.96502727456390857696533203125</LatitudeDegrees>
              <LongitudeDegrees>-2.01947615481913089752197265625</LongitudeDegrees>
            </Position>
            <AltitudeMeters>669</AltitudeMeters>
            <DistanceMeters>393896.14487719</DistanceMeters>
          </Trackpoint>
          <Trackpoint>
            <Time>2021-08-01T12:02:33.000Z</Time>
            <Position>
              <LatitudeDegrees>41.9651785679161548614501953125</LatitudeDegrees>
              <LongitudeDegrees>-2.019134424626827239990234375</LongitudeDegrees>
            </Position>
            <AltitudeMeters>668.4000244140625</AltitudeMeters>
            <DistanceMeters>393929.05980468</DistanceMeters>
          </Trackpoint>
          <Trackpoint>
            <Time>2021-08-01T12:02:36.000Z</Time>
            <Position>
              <LatitudeDegrees>41.9652402587234973907470703125</LatitudeDegrees>
              <LongitudeDegrees>-2.01891205273568630218505859375</LongitudeDegrees>
            </Position>
            <AltitudeMeters>668.20001220703125</AltitudeMeters>
            <DistanceMeters>393948.70231155</DistanceMeters>
          </Trackpoint>
          <Trackpoint>
            <Time>2021-08-01T12:02:42.000Z</Time>
            <Position>
              <LatitudeDegrees>41.96547922678291797637939453125</LatitudeDegrees>
              <LongitudeDegrees>-2.01858364976942539215087890625</LongitudeDegrees>
            </Position>
            <AltitudeMeters>668.5999755859375</AltitudeMeters>
            <DistanceMeters>393986.7298608</DistanceMeters>
          </Trackpoint>
          <Trackpoint>
            <Time>2021-08-01T12:02:45.000Z</Time>
            <Position>
              <LatitudeDegrees>41.96561115793883800506591796875</LatitudeDegrees>
              <LongitudeDegrees>-2.018453814089298248291015625</LongitudeDegrees>
            </Position>
            <AltitudeMeters>669</AltitudeMeters>
            <DistanceMeters>394004.92542957</DistanceMeters>
          </Trackpoint>
          <Trackpoint>
            <Time>2021-08-01T12:02:51.000Z</Time>
            <Position>
              <LatitudeDegrees>41.9657005928456783294677734375</LatitudeDegrees>
              <LongitudeDegrees>-2.01807872392237186431884765625</LongitudeDegrees>
            </Position>
            <AltitudeMeters>670</AltitudeMeters>
            <DistanceMeters>394037.52416353</DistanceMeters>
          </Trackpoint>
          <Trackpoint>
            <Time>2021-08-01T12:02:58.000Z</Time>
            <Position>
              <LatitudeDegrees>41.9657398201525211334228515625</LatitudeDegrees>
              <LongitudeDegrees>-2.017622329294681549072265625</LongitudeDegrees>
            </Position>
            <AltitudeMeters>671.4000244140625</AltitudeMeters>
            <DistanceMeters>394075.54601328</DistanceMeters>
          </Trackpoint>
          <Trackpoint>
            <Time>2021-08-01T12:03:05.000Z</Time>
            <Position>
              <LatitudeDegrees>41.965952552855014801025390625</LatitudeDegrees>
              <LongitudeDegrees>-2.01726584695279598236083984375</LongitudeDegrees>
            </Position>
            <AltitudeMeters>671.79998779296875</AltitudeMeters>
            <DistanceMeters>394113.37428517</DistanceMeters>
          </Trackpoint>
          <Trackpoint>
            <Time>2021-08-01T12:03:08.000Z</Time>
            <Position>
              <LatitudeDegrees>41.966067217290401458740234375</LatitudeDegrees>
              <LongitudeDegrees>-2.01717448420822620391845703125</LongitudeDegrees>
            </Position>
            <AltitudeMeters>671.79998779296875</AltitudeMeters>
            <DistanceMeters>394128.20880447</DistanceMeters>
          </Trackpoint>
          <Trackpoint>
            <Time>2021-08-01T12:03:14.000Z</Time>
            <Position>
              <LatitudeDegrees>41.96634356863796710968017578125</LatitudeDegrees>
              <LongitudeDegrees>-2.01697834767401218414306640625</LongitudeDegrees>
            </Position>
            <AltitudeMeters>671</AltitudeMeters>
            <DistanceMeters>394162.98754337</DistanceMeters>
          </Trackpoint>
          <Trackpoint>
            <Time>2021-08-01T12:03:16.000Z</Time>
            <Position>
              <LatitudeDegrees>41.96643291972577571868896484375</LatitudeDegrees>
              <LongitudeDegrees>-2.0168563909828662872314453125</LongitudeDegrees>
            </Position>
            <AltitudeMeters>670</AltitudeMeters>
            <DistanceMeters>394177.157043</DistanceMeters>
          </Trackpoint>
          <Trackpoint>
            <Time>2021-08-01T12:03:18.000Z</Time>
            <Position>
              <LatitudeDegrees>41.96651883423328399658203125</LatitudeDegrees>
              <LongitudeDegrees>-2.01670928858220577239990234375</LongitudeDegrees>
            </Position>
            <AltitudeMeters>668.79998779296875</AltitudeMeters>
            <DistanceMeters>394192.63735852</DistanceMeters>
          </Trackpoint>
          <Trackpoint>
            <Time>2021-08-01T12:03:20.000Z</Time>
            <Position>
              <LatitudeDegrees>41.96660994552075862884521484375</LatitudeDegrees>
              <LongitudeDegrees>-2.016548104584217071533203125</LongitudeDegrees>
            </Position>
            <AltitudeMeters>667.4000244140625</AltitudeMeters>
            <DistanceMeters>394209.39334661</DistanceMeters>
          </Trackpoint>
          <Trackpoint>
            <Time>2021-08-01T12:03:21.000Z</Time>
            <Position>
              <LatitudeDegrees>41.9666554592549800872802734375</LatitudeDegrees>
              <LongitudeDegrees>-2.01646453700959682464599609375</LongitudeDegrees>
            </Position>
            <AltitudeMeters>666.4000244140625</AltitudeMeters>
            <DistanceMeters>394217.96684194</DistanceMeters>
          </Trackpoint>
          <Trackpoint>
            <Time>2021-08-01T12:03:24.000Z</Time>
            <Position>
              <LatitudeDegrees>41.96678445674479007720947265625</LatitudeDegrees>
              <LongitudeDegrees>-2.01623034663498401641845703125</LongitudeDegrees>
            </Position>
            <AltitudeMeters>665.4000244140625</AltitudeMeters>
            <DistanceMeters>394242.08659888</DistanceMeters>
          </Trackpoint>
          <Trackpoint>
            <Time>2021-08-01T12:03:28.000Z</Time>
            <Position>
              <LatitudeDegrees>41.96689560078084468841552734375</LatitudeDegrees>
              <LongitudeDegrees>-2.015979476273059844970703125</LongitudeDegrees>
            </Position>
            <AltitudeMeters>666</AltitudeMeters>
            <DistanceMeters>394266.25366913</DistanceMeters>
          </Trackpoint>
          <Trackpoint>
            <Time>2021-08-01T12:03:30.000Z</Time>
            <Position>
              <LatitudeDegrees>41.96691186167299747467041015625</LatitudeDegrees>
              <LongitudeDegrees>-2.0158643089234828948974609375</LongitudeDegrees>
            </Position>
            <AltitudeMeters>666.5999755859375</AltitudeMeters>
            <DistanceMeters>394275.95477508</DistanceMeters>
          </Trackpoint>
          <Trackpoint>
            <Time>2021-08-01T12:03:40.000Z</Time>
            <Position>
              <LatitudeDegrees>41.96699752472341060638427734375</LatitudeDegrees>
              <LongitudeDegrees>-2.01513047330081462860107421875</LongitudeDegrees>
            </Position>
            <AltitudeMeters>665.79998779296875</AltitudeMeters>
            <DistanceMeters>394337.42831972</DistanceMeters>
          </Trackpoint>
          <Trackpoint>
            <Time>2021-08-01T12:03:42.000Z</Time>
            <Position>
              <LatitudeDegrees>41.96699484251439571380615234375</LatitudeDegrees>
              <LongitudeDegrees>-2.01497398316860198974609375</LongitudeDegrees>
            </Position>
            <AltitudeMeters>665.5999755859375</AltitudeMeters>
            <DistanceMeters>394350.38196324</DistanceMeters>
          </Trackpoint>
          <Trackpoint>
            <Time>2021-08-01T12:03:47.000Z</Time>
            <Position>
              <LatitudeDegrees>41.96690616197884082794189453125</LatitudeDegrees>
              <LongitudeDegrees>-2.0146165788173675537109375</LongitudeDegrees>
            </Position>
            <AltitudeMeters>666.20001220703125</AltitudeMeters>
            <DistanceMeters>394381.56289124</DistanceMeters>
          </Trackpoint>
          <Trackpoint>
            <Time>2021-08-01T12:03:56.000Z</Time>
            <Position>
              <LatitudeDegrees>41.96668320335447788238525390625</LatitudeDegrees>
              <LongitudeDegrees>-2.014051638543605804443359375</LongitudeDegrees>
            </Position>
            <AltitudeMeters>667.5999755859375</AltitudeMeters>
            <DistanceMeters>394434.49319765</DistanceMeters>
          </Trackpoint>
          <Trackpoint>
            <Time>2021-08-01T12:04:00.000Z</Time>
            <Position>
              <LatitudeDegrees>41.96659938432276248931884765625</LatitudeDegrees>
              <LongitudeDegrees>-2.01380948536098003387451171875</LongitudeDegrees>
            </Position>
            <AltitudeMeters>668</AltitudeMeters>
            <DistanceMeters>394456.59829879</DistanceMeters>
          </Trackpoint>
          <Trackpoint>
            <Time>2021-08-01T12:04:03.000Z</Time>
            <Position>
              <LatitudeDegrees>41.96655730716884136199951171875</LatitudeDegrees>
              <LongitudeDegrees>-2.01360337436199188232421875</LongitudeDegrees>
            </Position>
            <AltitudeMeters>667.4000244140625</AltitudeMeters>
            <DistanceMeters>394474.28680124</DistanceMeters>
          </Trackpoint>
          <Trackpoint>
            <Time>2021-08-01T12:04:07.000Z</Time>
            <Position>
              <LatitudeDegrees>41.9665481708943843841552734375</LatitudeDegrees>
              <LongitudeDegrees>-2.0132754743099212646484375</LongitudeDegrees>
            </Position>
            <AltitudeMeters>666.79998779296875</AltitudeMeters>
            <DistanceMeters>394501.44200465</DistanceMeters>
          </Trackpoint>
          <Trackpoint>
            <Time>2021-08-01T12:04:08.000Z</Time>
            <Position>
              <LatitudeDegrees>41.96655864827334880828857421875</LatitudeDegrees>
              <LongitudeDegrees>-2.01318620704114437103271484375</LongitudeDegrees>
            </Position>
            <AltitudeMeters>666.20001220703125</AltitudeMeters>
            <DistanceMeters>394508.92139792</DistanceMeters>
          </Trackpoint>
          <Trackpoint>
            <Time>2021-08-01T12:04:10.000Z</Time>
            <Position>
              <LatitudeDegrees>41.9666028209030628204345703125</LatitudeDegrees>
              <LongitudeDegrees>-2.01301756314933300018310546875</LongitudeDegrees>
            </Position>
            <AltitudeMeters>664.5999755859375</AltitudeMeters>
            <DistanceMeters>394523.71843355</DistanceMeters>
          </Trackpoint>
          <Trackpoint>
            <Time>2021-08-01T12:04:12.000Z</Time>
            <Position>
              <LatitudeDegrees>41.96667381562292575836181640625</LatitudeDegrees>
              <LongitudeDegrees>-2.01285101473331451416015625</LongitudeDegrees>
            </Position>
            <AltitudeMeters>663.5999755859375</AltitudeMeters>
            <DistanceMeters>394539.60609313</DistanceMeters>
          </Trackpoint>
          <Trackpoint>
            <Time>2021-08-01T12:04:13.000Z</Time>
            <Position>
              <LatitudeDegrees>41.96671195328235626220703125</LatitudeDegrees>
              <LongitudeDegrees>-2.012764178216457366943359375</LongitudeDegrees>
            </Position>
            <AltitudeMeters>663</AltitudeMeters>
            <DistanceMeters>394547.95223054</DistanceMeters>
          </Trackpoint>
          <Trackpoint>
            <Time>2021-08-01T12:04:15.000Z</Time>
            <Position>
              <LatitudeDegrees>41.96679283864796161651611328125</LatitudeDegrees>
              <LongitudeDegrees>-2.01258941553533077239990234375</LongitudeDegrees>
            </Position>
            <AltitudeMeters>662</AltitudeMeters>
            <DistanceMeters>394564.98827048</DistanceMeters>
          </Trackpoint>
          <Trackpoint>
            <Time>2021-08-01T12:04:23.000Z</Time>
            <Position>
              <LatitudeDegrees>41.96709609590470790863037109375</LatitudeDegrees>
              <LongitudeDegrees>-2.01193076558411121368408203125</LongitudeDegrees>
            </Position>
            <AltitudeMeters>661.4000244140625</AltitudeMeters>
            <DistanceMeters>394629.1002531</DistanceMeters>
          </Trackpoint>
          <Trackpoint>
            <Time>2021-08-01T12:04:27.000Z</Time>
            <Position>
              <LatitudeDegrees>41.9672046415507793426513671875</LatitudeDegrees>
              <LongitudeDegrees>-2.011650390923023223876953125</LongitudeDegrees>
            </Position>
            <AltitudeMeters>661.79998779296875</AltitudeMeters>
            <DistanceMeters>394655.2598839</DistanceMeters>
          </Trackpoint>
          <Trackpoint>
            <Time>2021-08-01T12:04:35.000Z</Time>
            <Position>
              <LatitudeDegrees>41.9670349918305873870849609375</LatitudeDegrees>
              <LongitudeDegrees>-2.01110833324491977691650390625</LongitudeDegrees>
            </Position>
            <AltitudeMeters>661.4000244140625</AltitudeMeters>
            <DistanceMeters>394703.93072654</DistanceMeters>
          </Trackpoint>
          <Trackpoint>
            <Time>2021-08-01T12:04:37.000Z</Time>
            <Position>
              <LatitudeDegrees>41.9669303856790065765380859375</LatitudeDegrees>
              <LongitudeDegrees>-2.0109920762479305267333984375</LongitudeDegrees>
            </Position>
            <AltitudeMeters>660.79998779296875</AltitudeMeters>
            <DistanceMeters>394719.03459429</DistanceMeters>
          </Trackpoint>
          <Trackpoint>
            <Time>2021-08-01T12:04:41.000Z</Time>
            <Position>
              <LatitudeDegrees>41.96674673818051815032958984375</LatitudeDegrees>
              <LongitudeDegrees>-2.0107141323387622833251953125</LongitudeDegrees>
            </Position>
            <AltitudeMeters>660</AltitudeMeters>
            <DistanceMeters>394749.80608737</DistanceMeters>
          </Trackpoint>
          <Trackpoint>
            <Time>2021-08-01T12:04:42.000Z</Time>
            <Position>
              <LatitudeDegrees>41.96671195328235626220703125</LatitudeDegrees>
              <LongitudeDegrees>-2.01063257642090320587158203125</LongitudeDegrees>
            </Position>
            <AltitudeMeters>659.79998779296875</AltitudeMeters>
            <DistanceMeters>394757.58726096</DistanceMeters>
          </Trackpoint>
          <Trackpoint>
            <Time>2021-08-01T12:04:47.000Z</Time>
            <Position>
              <LatitudeDegrees>41.966571807861328125</LatitudeDegrees>
              <LongitudeDegrees>-2.01018431223928928375244140625</LongitudeDegrees>
            </Position>
            <AltitudeMeters>658.4000244140625</AltitudeMeters>
            <DistanceMeters>394797.8302611</DistanceMeters>
          </Trackpoint>
          <Trackpoint>
            <Time>2021-08-01T12:04:50.000Z</Time>
            <Position>
              <LatitudeDegrees>41.96649410761892795562744140625</LatitudeDegrees>
              <LongitudeDegrees>-2.0098953880369663238525390625</LongitudeDegrees>
            </Position>
            <AltitudeMeters>656.79998779296875</AltitudeMeters>
            <DistanceMeters>394823.25661146</DistanceMeters>
          </Trackpoint>
          <Trackpoint>
            <Time>2021-08-01T12:04:52.000Z</Time>
            <Position>
              <LatitudeDegrees>41.966456137597560882568359375</LatitudeDegrees>
              <LongitudeDegrees>-2.00969782657921314239501953125</LongitudeDegrees>
            </Position>
            <AltitudeMeters>655.4000244140625</AltitudeMeters>
            <DistanceMeters>394840.14358319</DistanceMeters>
          </Trackpoint>
          <Trackpoint>
            <Time>2021-08-01T12:04:54.000Z</Time>
            <Position>
              <LatitudeDegrees>41.96644029580056667327880859375</LatitudeDegrees>
              <LongitudeDegrees>-2.0094990916550159454345703125</LongitudeDegrees>
            </Position>
            <AltitudeMeters>654.5999755859375</AltitudeMeters>
            <DistanceMeters>394856.6845108</DistanceMeters>
          </Trackpoint>
          <Trackpoint>
            <Time>2021-08-01T12:04:57.000Z</Time>
            <Position>
              <LatitudeDegrees>41.96645756252110004425048828125</LatitudeDegrees>
              <LongitudeDegrees>-2.00920446775853633880615234375</LongitudeDegrees>
            </Position>
            <AltitudeMeters>654.4000244140625</AltitudeMeters>
            <DistanceMeters>394881.14240081</DistanceMeters>
          </Trackpoint>
          <Trackpoint>
            <Time>2021-08-01T12:05:04.000Z</Time>
            <Position>
              <LatitudeDegrees>41.96652478538453578948974609375</LatitudeDegrees>
              <LongitudeDegrees>-2.008498795330524444580078125</LongitudeDegrees>
            </Position>
            <AltitudeMeters>653.20001220703125</AltitudeMeters>
            <DistanceMeters>394940.01910033</DistanceMeters>
          </Trackpoint>
          <Trackpoint>
            <Time>2021-08-01T12:05:10.000Z</Time>
            <Position>
              <LatitudeDegrees>41.9665612466633319854736328125</LatitudeDegrees>
              <LongitudeDegrees>-2.0078854076564311981201171875</LongitudeDegrees>
            </Position>
            <AltitudeMeters>650.20001220703125</AltitudeMeters>
            <DistanceMeters>394990.94313545</DistanceMeters>
          </Trackpoint>
          <Trackpoint>
            <Time>2021-08-01T12:05:11.000Z</Time>
            <Position>
              <LatitudeDegrees>41.9665669463574886322021484375</LatitudeDegrees>
              <LongitudeDegrees>-2.007788009941577911376953125</LongitudeDegrees>
            </Position>
            <AltitudeMeters>648.5999755859375</AltitudeMeters>
            <DistanceMeters>394999.02878653</DistanceMeters>
          </Trackpoint>
          <Trackpoint>
            <Time>2021-08-01T12:05:19.000Z</Time>
            <Position>
              <LatitudeDegrees>41.966582871973514556884765625</LatitudeDegrees>
              <LongitudeDegrees>-2.007051743566989898681640625</LongitudeDegrees>
            </Position>
            <AltitudeMeters>648.20001220703125</AltitudeMeters>
            <DistanceMeters>395059.98573885</DistanceMeters>
          </Trackpoint>
          <Trackpoint>
            <Time>2021-08-01T12:05:23.000Z</Time>
            <Position>
              <LatitudeDegrees>41.9665384478867053985595703125</LatitudeDegrees>
              <LongitudeDegrees>-2.00669542886316776275634765625</LongitudeDegrees>
            </Position>
            <AltitudeMeters>647.4000244140625</AltitudeMeters>
            <DistanceMeters>395089.88489449</DistanceMeters>
          </Trackpoint>
          <Trackpoint>
            <Time>2021-08-01T12:05:27.000Z</Time>
            <Position>
              <LatitudeDegrees>41.96642906405031681060791015625</LatitudeDegrees>
              <LongitudeDegrees>-2.0063739828765392303466796875</LongitudeDegrees>
            </Position>
            <AltitudeMeters>647.20001220703125</AltitudeMeters>
            <DistanceMeters>395119.14031579</DistanceMeters>
          </Trackpoint>
          <Trackpoint>
            <Time>2021-08-01T12:05:28.000Z</Time>
            <Position>
              <LatitudeDegrees>41.96640106849372386932373046875</LatitudeDegrees>
              <LongitudeDegrees>-2.0062951929867267608642578125</LongitudeDegrees>
            </Position>
            <AltitudeMeters>647.5999755859375</AltitudeMeters>
            <DistanceMeters>395126.36734575</DistanceMeters>
          </Trackpoint>
          <Trackpoint>
            <Time>2021-08-01T12:05:33.000Z</Time>
            <Position>
              <LatitudeDegrees>41.96628740988671779632568359375</LatitudeDegrees>
              <LongitudeDegrees>-2.00588925741612911224365234375</LongitudeDegrees>
            </Position>
            <AltitudeMeters>645.79998779296875</AltitudeMeters>
            <DistanceMeters>395162.26443392</DistanceMeters>
          </Trackpoint>
          <Trackpoint>
            <Time>2021-08-01T12:05:41.000Z</Time>
            <Position>
              <LatitudeDegrees>41.96618414483964443206787109375</LatitudeDegrees>
              <LongitudeDegrees>-2.0051985047757625579833984375</LongitudeDegrees>
            </Position>
            <AltitudeMeters>644.79998779296875</AltitudeMeters>
            <DistanceMeters>395220.57321612</DistanceMeters>
          </Trackpoint>
          <Trackpoint>
            <Time>2021-08-01T12:05:46.000Z</Time>
            <Position>
              <LatitudeDegrees>41.9661434926092624664306640625</LatitudeDegrees>
              <LongitudeDegrees>-2.00475518591701984405517578125</LongitudeDegrees>
            </Position>
            <AltitudeMeters>643.5999755859375</AltitudeMeters>
            <DistanceMeters>395257.53897443</DistanceMeters>
          </Trackpoint>
          <Trackpoint>
            <Time>2021-08-01T12:05:49.000Z</Time>
            <Position>
              <LatitudeDegrees>41.9661354459822177886962890625</LatitudeDegrees>
              <LongitudeDegrees>-2.00447447597980499267578125</LongitudeDegrees>
            </Position>
            <AltitudeMeters>642.4000244140625</AltitudeMeters>
            <DistanceMeters>395280.786945</DistanceMeters>
          </Trackpoint>
          <Trackpoint>
            <Time>2021-08-01T12:05:57.000Z</Time>
            <Position>
              <LatitudeDegrees>41.96615816093981266021728515625</LatitudeDegrees>
              <LongitudeDegrees>-2.00371515937149524688720703125</LongitudeDegrees>
            </Position>
            <AltitudeMeters>642.20001220703125</AltitudeMeters>
            <DistanceMeters>395343.67682783</DistanceMeters>
          </Trackpoint>
          <Trackpoint>
            <Time>2021-08-01T12:05:59.000Z</Time>
            <Position>
              <LatitudeDegrees>41.966185905039310455322265625</LatitudeDegrees>
              <LongitudeDegrees>-2.00353142805397510528564453125</LongitudeDegrees>
            </Position>
            <AltitudeMeters>641.20001220703125</AltitudeMeters>
            <DistanceMeters>395359.19210346</DistanceMeters>
          </Trackpoint>
          <Trackpoint>
            <Time>2021-08-01T12:06:07.000Z</Time>
            <Position>
              <LatitudeDegrees>41.96633418090641498565673828125</LatitudeDegrees>
              <LongitudeDegrees>-2.00282885693013668060302734375</LongitudeDegrees>
            </Position>
            <AltitudeMeters>641</AltitudeMeters>
            <DistanceMeters>395419.63178317</DistanceMeters>
          </Trackpoint>
          <Trackpoint>
            <Time>2021-08-01T12:06:12.000Z</Time>
            <Position>
              <LatitudeDegrees>41.96641833521425724029541015625</LatitudeDegrees>
              <LongitudeDegrees>-2.00239098630845546722412109375</LongitudeDegrees>
            </Position>
            <AltitudeMeters>639.79998779296875</AltitudeMeters>
            <DistanceMeters>395457.05976493</DistanceMeters>
          </Trackpoint>
          <Trackpoint>
            <Time>2021-08-01T12:06:21.000Z</Time>
            <Position>
              <LatitudeDegrees>41.96650316007435321807861328125</LatitudeDegrees>
              <LongitudeDegrees>-2.00162722729146480560302734375</LongitudeDegrees>
            </Position>
            <AltitudeMeters>638.5999755859375</AltitudeMeters>
            <DistanceMeters>395520.9674735</DistanceMeters>
          </Trackpoint>
          <Trackpoint>
            <Time>2021-08-01T12:06:30.000Z</Time>
            <Position>
              <LatitudeDegrees>41.96657004766166210174560546875</LatitudeDegrees>
              <LongitudeDegrees>-2.00090236030519008636474609375</LongitudeDegrees>
            </Position>
            <AltitudeMeters>639</AltitudeMeters>
            <DistanceMeters>395581.41544471</DistanceMeters>
          </Trackpoint>
          <Trackpoint>
            <Time>2021-08-01T12:06:39.000Z</Time>
            <Position>
              <LatitudeDegrees>41.9667064212262630462646484375</LatitudeDegrees>
              <LongitudeDegrees>-2.00019442476332187652587890625</LongitudeDegrees>
            </Position>
            <AltitudeMeters>638.4000244140625</AltitudeMeters>
            <DistanceMeters>395641.93634694</DistanceMeters>
          </Trackpoint>
          <Trackpoint>
            <Time>2021-08-01T12:06:44.000Z</Time>
            <Position>
              <LatitudeDegrees>41.96687665767967700958251953125</LatitudeDegrees>
              <LongitudeDegrees>-1.99985881336033344268798828125</LongitudeDegrees>
            </Position>
            <AltitudeMeters>637.5999755859375</AltitudeMeters>
            <DistanceMeters>395675.55808232</DistanceMeters>
          </Trackpoint>
          <Trackpoint>
            <Time>2021-08-01T12:06:53.000Z</Time>
            <Position>
              <LatitudeDegrees>41.96702149696648120880126953125</LatitudeDegrees>
              <LongitudeDegrees>-1.99917401187121868133544921875</LongitudeDegrees>
            </Position>
            <AltitudeMeters>636.79998779296875</AltitudeMeters>
            <DistanceMeters>395734.4781703</DistanceMeters>
          </Trackpoint>
          <Trackpoint>
            <Time>2021-08-01T12:06:58.000Z</Time>
            <Position>
              <LatitudeDegrees>41.96681027300655841827392578125</LatitudeDegrees>
              <LongitudeDegrees>-1.99892976321280002593994140625</LongitudeDegrees>
            </Position>
            <AltitudeMeters>637</AltitudeMeters>
            <DistanceMeters>395765.48266559</DistanceMeters>
          </Trackpoint>
          <Trackpoint>
            <Time>2021-08-01T12:07:03.000Z</Time>
            <Position>
              <LatitudeDegrees>41.96653450839221477508544921875</LatitudeDegrees>
              <LongitudeDegrees>-1.99877385981380939483642578125</LongitudeDegrees>
            </Position>
            <AltitudeMeters>637</AltitudeMeters>
            <DistanceMeters>395798.77729254</DistanceMeters>
          </Trackpoint>
          <Trackpoint>
            <Time>2021-08-01T12:07:13.000Z</Time>
            <Position>
              <LatitudeDegrees>41.96601918898522853851318359375</LatitudeDegrees>
              <LongitudeDegrees>-1.9984500668942928314208984375</LongitudeDegrees>
            </Position>
            <AltitudeMeters>637.5999755859375</AltitudeMeters>
            <DistanceMeters>395862.08405828</DistanceMeters>
          </Trackpoint>
          <Trackpoint>
            <Time>2021-08-01T12:07:24.000Z</Time>
            <Position>
              <LatitudeDegrees>41.96549691259860992431640625</LatitudeDegrees>
              <LongitudeDegrees>-1.9981221668422222137451171875</LongitudeDegrees>
            </Position>
            <AltitudeMeters>637.5999755859375</AltitudeMeters>
            <DistanceMeters>395926.23645168</DistanceMeters>
          </Trackpoint>
          <Trackpoint>
            <Time>2021-08-01T12:07:29.000Z</Time>
            <Position>
              <LatitudeDegrees>41.965272612869739532470703125</LatitudeDegrees>
              <LongitudeDegrees>-1.9979562051594257354736328125</LongitudeDegrees>
            </Position>
            <AltitudeMeters>637</AltitudeMeters>
            <DistanceMeters>395954.73052534</DistanceMeters>
          </Trackpoint>
          <Trackpoint>
            <Time>2021-08-01T12:07:32.000Z</Time>
            <Position>
              <LatitudeDegrees>41.9651664979755878448486328125</LatitudeDegrees>
              <LongitudeDegrees>-1.997824944555759429931640625</LongitudeDegrees>
            </Position>
            <AltitudeMeters>636.5999755859375</AltitudeMeters>
            <DistanceMeters>395970.77738359</DistanceMeters>
          </Trackpoint>
          <Trackpoint>
            <Time>2021-08-01T12:07:36.000Z</Time>
            <Position>
              <LatitudeDegrees>41.965040601789951324462890625</LatitudeDegrees>
              <LongitudeDegrees>-1.99767113663256168365478515625</LongitudeDegrees>
            </Position>
            <AltitudeMeters>638</AltitudeMeters>
            <DistanceMeters>395989.70822203</DistanceMeters>
          </Trackpoint>
          <Trackpoint>
            <Time>2021-08-01T12:07:38.000Z</Time>
            <Position>
              <LatitudeDegrees>41.96498997509479522705078125</LatitudeDegrees>
              <LongitudeDegrees>-1.9976145587861537933349609375</LongitudeDegrees>
            </Position>
            <AltitudeMeters>639.79998779296875</AltitudeMeters>
            <DistanceMeters>395997.03452903</DistanceMeters>
          </Trackpoint>
          <Trackpoint>
            <Time>2021-08-01T12:07:42.000Z</Time>
            <Position>
              <LatitudeDegrees>41.96488201618194580078125</LatitudeDegrees>
              <LongitudeDegrees>-1.99754406698048114776611328125</LongitudeDegrees>
            </Position>
            <AltitudeMeters>641</AltitudeMeters>
            <DistanceMeters>396010.39212165</DistanceMeters>
          </Trackpoint>
          <Trackpoint>
            <Time>2021-08-01T12:07:50.000Z</Time>
            <Position>
              <LatitudeDegrees>41.96463148109614849090576171875</LatitudeDegrees>
              <LongitudeDegrees>-1.99738766066730022430419921875</LongitudeDegrees>
            </Position>
            <AltitudeMeters>642</AltitudeMeters>
            <DistanceMeters>396041.13498945</DistanceMeters>
          </Trackpoint>
          <Trackpoint>
            <Time>2021-08-01T12:07:54.000Z</Time>
            <Position>
              <LatitudeDegrees>41.9645304791629314422607421875</LatitudeDegrees>
              <LongitudeDegrees>-1.9972787797451019287109375</LongitudeDegrees>
            </Position>
            <AltitudeMeters>643.20001220703125</AltitudeMeters>
            <DistanceMeters>396055.54211745</DistanceMeters>
          </Trackpoint>
          <Trackpoint>
            <Time>2021-08-01T12:07:59.000Z</Time>
            <Position>
              <LatitudeDegrees>41.96445059962570667266845703125</LatitudeDegrees>
              <LongitudeDegrees>-1.99710451997816562652587890625</LongitudeDegrees>
            </Position>
            <AltitudeMeters>644.20001220703125</AltitudeMeters>
            <DistanceMeters>396072.48354448</DistanceMeters>
          </Trackpoint>
          <Trackpoint>
            <Time>2021-08-01T12:08:04.000Z</Time>
            <Position>
              <LatitudeDegrees>41.964411623775959014892578125</LatitudeDegrees>
              <LongitudeDegrees>-1.99691073037683963775634765625</LongitudeDegrees>
            </Position>
            <AltitudeMeters>645.5999755859375</AltitudeMeters>
            <DistanceMeters>396089.09773651</DistanceMeters>
          </Trackpoint>
          <Trackpoint>
            <Time>2021-08-01T12:08:10.000Z</Time>
            <Position>
              <LatitudeDegrees>41.96441137231886386871337890625</LatitudeDegrees>
              <LongitudeDegrees>-1.996678300201892852783203125</LongitudeDegrees>
            </Position>
            <AltitudeMeters>646.5999755859375</AltitudeMeters>
            <DistanceMeters>396108.33354718</DistanceMeters>
          </Trackpoint>
          <Trackpoint>
            <Time>2021-08-01T12:08:14.000Z</Time>
            <Position>
              <LatitudeDegrees>41.9644248671829700469970703125</LatitudeDegrees>
              <LongitudeDegrees>-1.99652750976383686065673828125</LongitudeDegrees>
            </Position>
            <AltitudeMeters>647.79998779296875</AltitudeMeters>
            <DistanceMeters>396120.90296314</DistanceMeters>
          </Trackpoint>
          <Trackpoint>
            <Time>2021-08-01T12:08:20.000Z</Time>
            <Position>
              <LatitudeDegrees>41.96440969593822956085205078125</LatitudeDegrees>
              <LongitudeDegrees>-1.9963099993765354156494140625</LongitudeDegrees>
            </Position>
            <AltitudeMeters>648.79998779296875</AltitudeMeters>
            <DistanceMeters>396138.9830286</DistanceMeters>
          </Trackpoint>
          <Trackpoint>
            <Time>2021-08-01T12:08:25.000Z</Time>
            <Position>
              <LatitudeDegrees>41.9643356837332248687744140625</LatitudeDegrees>
              <LongitudeDegrees>-1.9961480610072612762451171875</LongitudeDegrees>
            </Position>
            <AltitudeMeters>650</AltitudeMeters>
            <DistanceMeters>396154.71447085</DistanceMeters>
          </Trackpoint>
          <Trackpoint>
            <Time>2021-08-01T12:08:29.000Z</Time>
            <Position>
              <LatitudeDegrees>41.96425907313823699951171875</LatitudeDegrees>
              <LongitudeDegrees>-1.9960193149745464324951171875</LongitudeDegrees>
            </Position>
            <AltitudeMeters>651.20001220703125</AltitudeMeters>
            <DistanceMeters>396168.36164369</DistanceMeters>
          </Trackpoint>
          <Trackpoint>
            <Time>2021-08-01T12:08:35.000Z</Time>
            <Position>
              <LatitudeDegrees>41.96414373815059661865234375</LatitudeDegrees>
              <LongitudeDegrees>-1.99581764638423919677734375</LongitudeDegrees>
            </Position>
            <AltitudeMeters>652.20001220703125</AltitudeMeters>
            <DistanceMeters>396189.41772816</DistanceMeters>
          </Trackpoint>
          <Trackpoint>
            <Time>2021-08-01T12:08:52.000Z</Time>
            <Position>
              <LatitudeDegrees>41.96381541900336742401123046875</LatitudeDegrees>
              <LongitudeDegrees>-1.99521088041365146636962890625</LongitudeDegrees>
            </Position>
            <AltitudeMeters>652.4000244140625</AltitudeMeters>
            <DistanceMeters>396251.52261164</DistanceMeters>
          </Trackpoint>
          <Trackpoint>
            <Time>2021-08-01T12:08:56.000Z</Time>
            <Position>
              <LatitudeDegrees>41.963746435940265655517578125</LatitudeDegrees>
              <LongitudeDegrees>-1.9950490258634090423583984375</LongitudeDegrees>
            </Position>
            <AltitudeMeters>653.5999755859375</AltitudeMeters>
            <DistanceMeters>396266.96233275</DistanceMeters>
          </Trackpoint>
          <Trackpoint>
            <Time>2021-08-01T12:08:57.000Z</Time>
            <Position>
              <LatitudeDegrees>41.96372908540070056915283203125</LatitudeDegrees>
              <LongitudeDegrees>-1.9950094632804393768310546875</LongitudeDegrees>
            </Position>
            <AltitudeMeters>653.79998779296875</AltitudeMeters>
            <DistanceMeters>396270.76340133</DistanceMeters>
          </Trackpoint>
          <Trackpoint>
            <Time>2021-08-01T12:09:14.000Z</Time>
            <Position>
              <LatitudeDegrees>41.96344435214996337890625</LatitudeDegrees>
              <LongitudeDegrees>-1.9943791441619396209716796875</LongitudeDegrees>
            </Position>
            <AltitudeMeters>654.4000244140625</AltitudeMeters>
            <DistanceMeters>396331.80118372</DistanceMeters>
          </Trackpoint>
          <Trackpoint>
            <Time>2021-08-01T12:09:15.000Z</Time>
            <Position>
              <LatitudeDegrees>41.9634242355823516845703125</LatitudeDegrees>
              <LongitudeDegrees>-1.99434787966310977935791015625</LongitudeDegrees>
            </Position>
            <AltitudeMeters>654.79998779296875</AltitudeMeters>
            <DistanceMeters>396335.22214543</DistanceMeters>
          </Trackpoint>
          <Trackpoint>
            <Time>2021-08-01T12:09:30.000Z</Time>
            <Position>
              <LatitudeDegrees>41.96329339407384395599365234375</LatitudeDegrees>
              <LongitudeDegrees>-1.9938091747462749481201171875</LongitudeDegrees>
            </Position>
            <AltitudeMeters>655.79998779296875</AltitudeMeters>
            <DistanceMeters>396382.12406258</DistanceMeters>
          </Trackpoint>
          <Trackpoint>
            <Time>2021-08-01T12:09:37.000Z</Time>
            <Position>
              <LatitudeDegrees>41.96322298608720302581787109375</LatitudeDegrees>
              <LongitudeDegrees>-1.9936435483396053314208984375</LongitudeDegrees>
            </Position>
            <AltitudeMeters>657</AltitudeMeters>
            <DistanceMeters>396397.9130879</DistanceMeters>
          </Trackpoint>
          <Trackpoint>
            <Time>2021-08-01T12:09:38.000Z</Time>
            <Position>
              <LatitudeDegrees>41.9632064737379550933837890625</LatitudeDegrees>
              <LongitudeDegrees>-1.9936338253319263458251953125</LongitudeDegrees>
            </Position>
            <AltitudeMeters>657.20001220703125</AltitudeMeters>
            <DistanceMeters>396399.91992972</DistanceMeters>
          </Trackpoint>
          <Trackpoint>
            <Time>2021-08-01T12:09:42.000Z</Time>
            <Position>
              <LatitudeDegrees>41.9631300307810306549072265625</LatitudeDegrees>
              <LongitudeDegrees>-1.99361328966915607452392578125</LongitudeDegrees>
            </Position>
            <AltitudeMeters>657.79998779296875</AltitudeMeters>
            <DistanceMeters>396408.59603007</DistanceMeters>
          </Trackpoint>
          <Trackpoint>
            <Time>2021-08-01T12:09:43.000Z</Time>
            <Position>
              <LatitudeDegrees>41.96310848928987979888916015625</LatitudeDegrees>
              <LongitudeDegrees>-1.9936093501746654510498046875</LongitudeDegrees>
            </Position>
            <AltitudeMeters>658</AltitudeMeters>
            <DistanceMeters>396411.01501529</DistanceMeters>
          </Trackpoint>
          <Trackpoint>
            <Time>2021-08-01T12:09:52.000Z</Time>
            <Position>
              <LatitudeDegrees>41.9629798270761966705322265625</LatitudeDegrees>
              <LongitudeDegrees>-1.9935603998601436614990234375</LongitudeDegrees>
            </Position>
            <AltitudeMeters>659.20001220703125</AltitudeMeters>
            <DistanceMeters>396425.89754583</DistanceMeters>
          </Trackpoint>
          <Trackpoint>
            <Time>2021-08-01T12:09:58.000Z</Time>
            <Position>
              <LatitudeDegrees>41.962823085486888885498046875</LatitudeDegrees>
              <LongitudeDegrees>-1.99356182478368282318115234375</LongitudeDegrees>
            </Position>
            <AltitudeMeters>660.4000244140625</AltitudeMeters>
            <DistanceMeters>396443.34368456</DistanceMeters>
          </Trackpoint>
          <Trackpoint>
            <Time>2021-08-01T12:10:03.000Z</Time>
            <Position>
              <LatitudeDegrees>41.9626955129206180572509765625</LatitudeDegrees>
              <LongitudeDegrees>-1.99357439763844013214111328125</LongitudeDegrees>
            </Position>
            <AltitudeMeters>661.4000244140625</AltitudeMeters>
            <DistanceMeters>396457.58089376</DistanceMeters>
          </Trackpoint>
          <Trackpoint>
            <Time>2021-08-01T12:10:08.000Z</Time>
            <Position>
              <LatitudeDegrees>41.96259677410125732421875</LatitudeDegrees>
              <LongitudeDegrees>-1.99357791803777217864990234375</LongitudeDegrees>
            </Position>
            <AltitudeMeters>662.79998779296875</AltitudeMeters>
            <DistanceMeters>396468.57446202</DistanceMeters>
          </Trackpoint>
          <Trackpoint>
            <Time>2021-08-01T12:10:20.000Z</Time>
            <Position>
              <LatitudeDegrees>41.9624157249927520751953125</LatitudeDegrees>
              <LongitudeDegrees>-1.99358244426548480987548828125</LongitudeDegrees>
            </Position>
            <AltitudeMeters>664</AltitudeMeters>
            <DistanceMeters>396488.72908826</DistanceMeters>
          </Trackpoint>
          <Trackpoint>
            <Time>2021-08-01T12:10:30.000Z</Time>
            <Position>
              <LatitudeDegrees>41.96223442442715167999267578125</LatitudeDegrees>
              <LongitudeDegrees>-1.9937012158334255218505859375</LongitudeDegrees>
            </Position>
            <AltitudeMeters>665.4000244140625</AltitudeMeters>
            <DistanceMeters>396511.1751143</DistanceMeters>
          </Trackpoint>
          <Trackpoint>
            <Time>2021-08-01T12:10:35.000Z</Time>
            <Position>
              <LatitudeDegrees>41.96211892180144786834716796875</LatitudeDegrees>
              <LongitudeDegrees>-1.993795931339263916015625</LongitudeDegrees>
            </Position>
            <AltitudeMeters>666.79998779296875</AltitudeMeters>
            <DistanceMeters>396526.23257622</DistanceMeters>
          </Trackpoint>
          <Trackpoint>
            <Time>2021-08-01T12:10:40.000Z</Time>
            <Position>
              <LatitudeDegrees>41.962025128304958343505859375</LatitudeDegrees>
              <LongitudeDegrees>-1.9937937520444393157958984375</LongitudeDegrees>
            </Position>
            <AltitudeMeters>667.79998779296875</AltitudeMeters>
            <DistanceMeters>396536.67384592</DistanceMeters>
          </Trackpoint>
          <Trackpoint>
            <Time>2021-08-01T12:10:52.000Z</Time>
            <Position>
              <LatitudeDegrees>41.96184081025421619415283203125</LatitudeDegrees>
              <LongitudeDegrees>-1.993748657405376434326171875</LongitudeDegrees>
            </Position>
            <AltitudeMeters>669.4000244140625</AltitudeMeters>
            <DistanceMeters>396557.52566073</DistanceMeters>
          </Trackpoint>
          <Trackpoint>
            <Time>2021-08-01T12:11:03.000Z</Time>
            <Position>
              <LatitudeDegrees>41.96175581775605678558349609375</LatitudeDegrees>
              <LongitudeDegrees>-1.99358177371323108673095703125</LongitudeDegrees>
            </Position>
            <AltitudeMeters>670.20001220703125</AltitudeMeters>
            <DistanceMeters>396574.26655235</DistanceMeters>
          </Trackpoint>
          <Trackpoint>
            <Time>2021-08-01T13:29:44.000Z</Time>
            <Position>
              <LatitudeDegrees>41.96167417801916599273681640625</LatitudeDegrees>
              <LongitudeDegrees>-1.99337826110422611236572265625</LongitudeDegrees>
            </Position>
            <AltitudeMeters>673.5999755859375</AltitudeMeters>
            <DistanceMeters>396593.40470615</DistanceMeters>
          </Trackpoint>
          <Trackpoint>
            <Time>2021-08-01T13:29:57.000Z</Time>
            <Position>
              <LatitudeDegrees>41.96157862432301044464111328125</LatitudeDegrees>
              <LongitudeDegrees>-1.99318681843578815460205078125</LongitudeDegrees>
            </Position>
            <AltitudeMeters>674.79998779296875</AltitudeMeters>
            <DistanceMeters>396612.48733864</DistanceMeters>
          </Trackpoint>
          <Trackpoint>
            <Time>2021-08-01T13:30:15.000Z</Time>
            <Position>
              <LatitudeDegrees>41.961465887725353240966796875</LatitudeDegrees>
              <LongitudeDegrees>-1.99294793419539928436279296875</LongitudeDegrees>
            </Position>
            <AltitudeMeters>676</AltitudeMeters>
            <DistanceMeters>396635.90404981</DistanceMeters>
          </Trackpoint>
          <Trackpoint>
            <Time>2021-08-01T13:30:19.000Z</Time>
            <Position>
              <LatitudeDegrees>41.96143412031233310699462890625</LatitudeDegrees>
              <LongitudeDegrees>-1.9928958825767040252685546875</LongitudeDegrees>
            </Position>
            <AltitudeMeters>676.4000244140625</AltitudeMeters>
            <DistanceMeters>396641.4775104</DistanceMeters>
          </Trackpoint>
          <Trackpoint>
            <Time>2021-08-01T13:30:23.000Z</Time>
            <Position>
              <LatitudeDegrees>41.96140998043119907379150390625</LatitudeDegrees>
              <LongitudeDegrees>-1.9928429089486598968505859375</LongitudeDegrees>
            </Position>
            <AltitudeMeters>676.20001220703125</AltitudeMeters>
            <DistanceMeters>396646.62037865</DistanceMeters>
          </Trackpoint>
          <Trackpoint>
            <Time>2021-08-01T13:30:34.000Z</Time>
            <Position>
              <LatitudeDegrees>41.9613359682261943817138671875</LatitudeDegrees>
              <LongitudeDegrees>-1.9927037693560123443603515625</LongitudeDegrees>
            </Position>
            <AltitudeMeters>676.79998779296875</AltitudeMeters>
            <DistanceMeters>396660.77904021</DistanceMeters>
          </Trackpoint>
          <Trackpoint>
            <Time>2021-08-01T13:30:35.000Z</Time>
            <Position>
              <LatitudeDegrees>41.9613249041140079498291015625</LatitudeDegrees>
              <LongitudeDegrees>-1.99269421398639678955078125</LongitudeDegrees>
            </Position>
            <AltitudeMeters>676.79998779296875</AltitudeMeters>
            <DistanceMeters>396662.24504096</DistanceMeters>
          </Trackpoint>
          <Trackpoint>
            <Time>2021-08-01T13:30:45.000Z</Time>
            <Position>
              <LatitudeDegrees>41.96121686138212680816650390625</LatitudeDegrees>
              <LongitudeDegrees>-1.99253738857805728912353515625</LongitudeDegrees>
            </Position>
            <AltitudeMeters>677.79998779296875</AltitudeMeters>
            <DistanceMeters>396679.9389029</DistanceMeters>
          </Trackpoint>
          <Trackpoint>
            <Time>2021-08-01T13:31:11.000Z</Time>
            <Position>
              <LatitudeDegrees>41.960707493126392364501953125</LatitudeDegrees>
              <LongitudeDegrees>-1.9923795573413372039794921875</LongitudeDegrees>
            </Position>
            <AltitudeMeters>678.5999755859375</AltitudeMeters>
            <DistanceMeters>396738.11799505</DistanceMeters>
          </Trackpoint>
          <Trackpoint>
            <Time>2021-08-01T13:31:21.000Z</Time>
            <Position>
              <LatitudeDegrees>41.96056977845728397369384765625</LatitudeDegrees>
              <LongitudeDegrees>-1.99229280464351177215576171875</LongitudeDegrees>
            </Position>
            <AltitudeMeters>679.4000244140625</AltitudeMeters>
            <DistanceMeters>396755.04395751</DistanceMeters>
          </Trackpoint>
          <Trackpoint>
            <Time>2021-08-01T13:31:29.000Z</Time>
            <Position>
              <LatitudeDegrees>41.96056676097214221954345703125</LatitudeDegrees>
              <LongitudeDegrees>-1.99213388375937938690185546875</LongitudeDegrees>
            </Position>
            <AltitudeMeters>680</AltitudeMeters>
            <DistanceMeters>396768.20164065</DistanceMeters>
          </Trackpoint>
          <Trackpoint>
            <Time>2021-08-01T13:31:40.000Z</Time>
            <Position>
              <LatitudeDegrees>41.96065896190702915191650390625</LatitudeDegrees>
              <LongitudeDegrees>-1.99192198924720287322998046875</LongitudeDegrees>
            </Position>
            <AltitudeMeters>680.20001220703125</AltitudeMeters>
            <DistanceMeters>396788.52092103</DistanceMeters>
          </Trackpoint>
          <Trackpoint>
            <Time>2021-08-01T13:31:52.000Z</Time>
            <Position>
              <LatitudeDegrees>41.96072551421821117401123046875</LatitudeDegrees>
              <LongitudeDegrees>-1.9916771538555622100830078125</LongitudeDegrees>
            </Position>
            <AltitudeMeters>681.20001220703125</AltitudeMeters>
            <DistanceMeters>396810.09617099</DistanceMeters>
          </Trackpoint>
          <Trackpoint>
            <Time>2021-08-01T13:32:00.000Z</Time>
            <Position>
              <LatitudeDegrees>41.9607398472726345062255859375</LatitudeDegrees>
              <LongitudeDegrees>-1.99151362292468547821044921875</LongitudeDegrees>
            </Position>
            <AltitudeMeters>682.20001220703125</AltitudeMeters>
            <DistanceMeters>396823.72447287</DistanceMeters>
          </Trackpoint>
          <Trackpoint>
            <Time>2021-08-01T13:32:06.000Z</Time>
            <Position>
              <LatitudeDegrees>41.96075200103223323822021484375</LatitudeDegrees>
              <LongitudeDegrees>-1.99139577336609363555908203125</LongitudeDegrees>
            </Position>
            <AltitudeMeters>683.20001220703125</AltitudeMeters>
            <DistanceMeters>396833.57155167</DistanceMeters>
          </Trackpoint>
          <Trackpoint>
            <Time>2021-08-01T13:32:11.000Z</Time>
            <Position>
              <LatitudeDegrees>41.96075342595577239990234375</LatitudeDegrees>
              <LongitudeDegrees>-1.99129301123321056365966796875</LongitudeDegrees>
            </Position>
            <AltitudeMeters>684.20001220703125</AltitudeMeters>
            <DistanceMeters>396842.07790239</DistanceMeters>
          </Trackpoint>
          <Trackpoint>
            <Time>2021-08-01T13:32:42.000Z</Time>
            <Position>
              <LatitudeDegrees>41.9606992788612842559814453125</LatitudeDegrees>
              <LongitudeDegrees>-1.990545429289340972900390625</LongitudeDegrees>
            </Position>
            <AltitudeMeters>684</AltitudeMeters>
            <DistanceMeters>396904.24396931</DistanceMeters>
          </Trackpoint>
          <Trackpoint>
            <Time>2021-08-01T13:32:50.000Z</Time>
            <Position>
              <LatitudeDegrees>41.96067371405661106109619140625</LatitudeDegrees>
              <LongitudeDegrees>-1.99023387394845485687255859375</LongitudeDegrees>
            </Position>
            <AltitudeMeters>682.79998779296875</AltitudeMeters>
            <DistanceMeters>396930.18626233</DistanceMeters>
          </Trackpoint>
          <Trackpoint>
            <Time>2021-08-01T13:32:59.000Z</Time>
            <Position>
              <LatitudeDegrees>41.96060121059417724609375</LatitudeDegrees>
              <LongitudeDegrees>-1.98983606882393360137939453125</LongitudeDegrees>
            </Position>
            <AltitudeMeters>681.79998779296875</AltitudeMeters>
            <DistanceMeters>396964.08496994</DistanceMeters>
          </Trackpoint>
          <Trackpoint>
            <Time>2021-08-01T13:33:08.000Z</Time>
            <Position>
              <LatitudeDegrees>41.96047489531338214874267578125</LatitudeDegrees>
              <LongitudeDegrees>-1.98938931338489055633544921875</LongitudeDegrees>
            </Position>
            <AltitudeMeters>680.4000244140625</AltitudeMeters>
            <DistanceMeters>397003.64314277</DistanceMeters>
          </Trackpoint>
          <Trackpoint>
            <Time>2021-08-01T13:33:11.000Z</Time>
            <Position>
              <LatitudeDegrees>41.960421837866306304931640625</LatitudeDegrees>
              <LongitudeDegrees>-1.98922100476920604705810546875</LongitudeDegrees>
            </Position>
            <AltitudeMeters>679.5999755859375</AltitudeMeters>
            <DistanceMeters>397018.77329372</DistanceMeters>
          </Trackpoint>
          <Trackpoint>
            <Time>2021-08-01T13:33:19.000Z</Time>
            <Position>
              <LatitudeDegrees>41.96033089421689510345458984375</LatitudeDegrees>
              <LongitudeDegrees>-1.98876678943634033203125</LongitudeDegrees>
            </Position>
            <AltitudeMeters>679.20001220703125</AltitudeMeters>
            <DistanceMeters>397057.70526428</DistanceMeters>
          </Trackpoint>
          <Trackpoint>
            <Time>2021-08-01T13:33:24.000Z</Time>
            <Position>
              <LatitudeDegrees>41.96030055172741413116455078125</LatitudeDegrees>
              <LongitudeDegrees>-1.98846512474119663238525390625</LongitudeDegrees>
            </Position>
            <AltitudeMeters>678.20001220703125</AltitudeMeters>
            <DistanceMeters>397082.89989116</DistanceMeters>
          </Trackpoint>
          <Trackpoint>
            <Time>2021-08-01T13:33:30.000Z</Time>
            <Position>
              <LatitudeDegrees>41.96026400662958621978759765625</LatitudeDegrees>
              <LongitudeDegrees>-1.98806782253086566925048828125</LongitudeDegrees>
            </Position>
            <AltitudeMeters>677</AltitudeMeters>
            <DistanceMeters>397116.03329596</DistanceMeters>
          </Trackpoint>
          <Trackpoint>
            <Time>2021-08-01T13:33:31.000Z</Time>
            <Position>
              <LatitudeDegrees>41.96025780402123928070068359375</LatitudeDegrees>
              <LongitudeDegrees>-1.987991295754909515380859375</LongitudeDegrees>
            </Position>
            <AltitudeMeters>676.79998779296875</AltitudeMeters>
            <DistanceMeters>397122.40433933</DistanceMeters>
          </Trackpoint>
          <Trackpoint>
            <Time>2021-08-01T13:33:34.000Z</Time>
            <Position>
              <LatitudeDegrees>41.96022905409336090087890625</LatitudeDegrees>
              <LongitudeDegrees>-1.98774327524006366729736328125</LongitudeDegrees>
            </Position>
            <AltitudeMeters>675.79998779296875</AltitudeMeters>
            <DistanceMeters>397143.17979585</DistanceMeters>
          </Trackpoint>
          <Trackpoint>
            <Time>2021-08-01T13:33:36.000Z</Time>
            <Position>
              <LatitudeDegrees>41.96020902134478092193603515625</LatitudeDegrees>
              <LongitudeDegrees>-1.98756314814090728759765625</LongitudeDegrees>
            </Position>
            <AltitudeMeters>674.4000244140625</AltitudeMeters>
            <DistanceMeters>397158.25374071</DistanceMeters>
          </Trackpoint>
          <Trackpoint>
            <Time>2021-08-01T13:33:38.000Z</Time>
            <Position>
              <LatitudeDegrees>41.96018538437783718109130859375</LatitudeDegrees>
              <LongitudeDegrees>-1.98737681843340396881103515625</LongitudeDegrees>
            </Position>
            <AltitudeMeters>672.79998779296875</AltitudeMeters>
            <DistanceMeters>397173.89797805</DistanceMeters>
          </Trackpoint>
          <Trackpoint>
            <Time>2021-08-01T13:33:42.000Z</Time>
            <Position>
              <LatitudeDegrees>41.9601219333708286285400390625</LatitudeDegrees>
              <LongitudeDegrees>-1.98702343739569187164306640625</LongitudeDegrees>
            </Position>
            <AltitudeMeters>671.5999755859375</AltitudeMeters>
            <DistanceMeters>397203.98620305</DistanceMeters>
          </Trackpoint>
          <Trackpoint>
            <Time>2021-08-01T13:33:51.000Z</Time>
            <Position>
              <LatitudeDegrees>41.95989151485264301300048828125</LatitudeDegrees>
              <LongitudeDegrees>-1.98631726205348968505859375</LongitudeDegrees>
            </Position>
            <AltitudeMeters>671.79998779296875</AltitudeMeters>
            <DistanceMeters>397267.81225946</DistanceMeters>
          </Trackpoint>
          <Trackpoint>
            <Time>2021-08-01T13:34:01.000Z</Time>
            <Position>
              <LatitudeDegrees>41.95964324288070201873779296875</LatitudeDegrees>
              <LongitudeDegrees>-1.98562919162213802337646484375</LongitudeDegrees>
            </Position>
            <AltitudeMeters>670.79998779296875</AltitudeMeters>
            <DistanceMeters>397331.11103684</DistanceMeters>
          </Trackpoint>
          <Trackpoint>
            <Time>2021-08-01T13:34:02.000Z</Time>
            <Position>
              <LatitudeDegrees>41.95961994118988513946533203125</LatitudeDegrees>
              <LongitudeDegrees>-1.985563896596431732177734375</LongitudeDegrees>
            </Position>
            <AltitudeMeters>670.4000244140625</AltitudeMeters>
            <DistanceMeters>397337.10450363</DistanceMeters>
          </Trackpoint>
          <Trackpoint>
            <Time>2021-08-01T13:34:08.000Z</Time>
            <Position>
              <LatitudeDegrees>41.9594721682369709014892578125</LatitudeDegrees>
              <LongitudeDegrees>-1.98517355136573314666748046875</LongitudeDegrees>
            </Position>
            <AltitudeMeters>669.20001220703125</AltitudeMeters>
            <DistanceMeters>397373.3576622</DistanceMeters>
          </Trackpoint>
          <Trackpoint>
            <Time>2021-08-01T13:34:10.000Z</Time>
            <Position>
              <LatitudeDegrees>41.9594116508960723876953125</LatitudeDegrees>
              <LongitudeDegrees>-1.98503776453435420989990234375</LongitudeDegrees>
            </Position>
            <AltitudeMeters>668.5999755859375</AltitudeMeters>
            <DistanceMeters>397386.45998196</DistanceMeters>
          </Trackpoint>
          <Trackpoint>
            <Time>2021-08-01T13:34:12.000Z</Time>
            <Position>
              <LatitudeDegrees>41.95931710302829742431640625</LatitudeDegrees>
              <LongitudeDegrees>-1.9849106110632419586181640625</LongitudeDegrees>
            </Position>
            <AltitudeMeters>667.5999755859375</AltitudeMeters>
            <DistanceMeters>397401.34251249</DistanceMeters>
          </Trackpoint>
          <Trackpoint>
            <Time>2021-08-01T13:34:14.000Z</Time>
            <Position>
              <LatitudeDegrees>41.9591918773949146270751953125</LatitudeDegrees>
              <LongitudeDegrees>-1.98479368351399898529052734375</LongitudeDegrees>
            </Position>
            <AltitudeMeters>666.20001220703125</AltitudeMeters>
            <DistanceMeters>397418.31056946</DistanceMeters>
          </Trackpoint>
          <Trackpoint>
            <Time>2021-08-01T13:34:15.000Z</Time>
            <Position>
              <LatitudeDegrees>41.9591221399605274200439453125</LatitudeDegrees>
              <LongitudeDegrees>-1.98473534546792507171630859375</LongitudeDegrees>
            </Position>
            <AltitudeMeters>665.5999755859375</AltitudeMeters>
            <DistanceMeters>397427.45192207</DistanceMeters>
          </Trackpoint>
          <Trackpoint>
            <Time>2021-08-01T13:34:16.000Z</Time>
            <Position>
              <LatitudeDegrees>41.959049887955188751220703125</LatitudeDegrees>
              <LongitudeDegrees>-1.98467281647026538848876953125</LongitudeDegrees>
            </Position>
            <AltitudeMeters>665</AltitudeMeters>
            <DistanceMeters>397437.01474509</DistanceMeters>
          </Trackpoint>
          <Trackpoint>
            <Time>2021-08-01T13:34:18.000Z</Time>
            <Position>
              <LatitudeDegrees>41.9589082337915897369384765625</LatitudeDegrees>
              <LongitudeDegrees>-1.98454172350466251373291015625</LongitudeDegrees>
            </Position>
            <AltitudeMeters>663.20001220703125</AltitudeMeters>
            <DistanceMeters>397456.15384253</DistanceMeters>
          </Trackpoint>
          <Trackpoint>
            <Time>2021-08-01T13:34:21.000Z</Time>
            <Position>
              <LatitudeDegrees>41.958699524402618408203125</LatitudeDegrees>
              <LongitudeDegrees>-1.984359584748744964599609375</LongitudeDegrees>
            </Position>
            <AltitudeMeters>661.4000244140625</AltitudeMeters>
            <DistanceMeters>397483.84642714</DistanceMeters>
          </Trackpoint>
          <Trackpoint>
            <Time>2021-08-01T13:34:22.000Z</Time>
            <Position>
              <LatitudeDegrees>41.95862752385437488555908203125</LatitudeDegrees>
              <LongitudeDegrees>-1.9843044318258762359619140625</LongitudeDegrees>
            </Position>
            <AltitudeMeters>660.20001220703125</AltitudeMeters>
            <DistanceMeters>397493.06940497</DistanceMeters>
          </Trackpoint>
          <Trackpoint>
            <Time>2021-08-01T13:34:24.000Z</Time>
            <Position>
              <LatitudeDegrees>41.9584784097969532012939453125</LatitudeDegrees>
              <LongitudeDegrees>-1.98420368134975433349609375</LongitudeDegrees>
            </Position>
            <AltitudeMeters>658.4000244140625</AltitudeMeters>
            <DistanceMeters>397511.6429348</DistanceMeters>
          </Trackpoint>
          <Trackpoint>
            <Time>2021-08-01T13:34:26.000Z</Time>
            <Position>
              <LatitudeDegrees>41.95833164267241954803466796875</LatitudeDegrees>
              <LongitudeDegrees>-1.98409278877079486846923828125</LongitudeDegrees>
            </Position>
            <AltitudeMeters>656.79998779296875</AltitudeMeters>
            <DistanceMeters>397530.38031381</DistanceMeters>
          </Trackpoint>
          <Trackpoint>
            <Time>2021-08-01T13:34:28.000Z</Time>
            <Position>
              <LatitudeDegrees>41.9582155533134937286376953125</LatitudeDegrees>
              <LongitudeDegrees>-1.9839245639741420745849609375</LongitudeDegrees>
            </Position>
            <AltitudeMeters>655.5999755859375</AltitudeMeters>
            <DistanceMeters>397549.37567626</DistanceMeters>
          </Trackpoint>
          <Trackpoint>
            <Time>2021-08-01T13:34:30.000Z</Time>
            <Position>
              <LatitudeDegrees>41.95814992301166057586669921875</LatitudeDegrees>
              <LongitudeDegrees>-1.98369766585528850555419921875</LongitudeDegrees>
            </Position>
            <AltitudeMeters>654.20001220703125</AltitudeMeters>
            <DistanceMeters>397569.52626973</DistanceMeters>
          </Trackpoint>
          <Trackpoint>
            <Time>2021-08-01T13:34:34.000Z</Time>
            <Position>
              <LatitudeDegrees>41.958158724009990692138671875</LatitudeDegrees>
              <LongitudeDegrees>-1.9832657463848590850830078125</LongitudeDegrees>
            </Position>
            <AltitudeMeters>654.20001220703125</AltitudeMeters>
            <DistanceMeters>397605.28864922</DistanceMeters>
          </Trackpoint>
          <Trackpoint>
            <Time>2021-08-01T13:34:37.000Z</Time>
            <Position>
              <LatitudeDegrees>41.958205997943878173828125</LatitudeDegrees>
              <LongitudeDegrees>-1.98300045914947986602783203125</LongitudeDegrees>
            </Position>
            <AltitudeMeters>655.20001220703125</AltitudeMeters>
            <DistanceMeters>397627.86784442</DistanceMeters>
          </Trackpoint>
          <Trackpoint>
            <Time>2021-08-01T13:34:39.000Z</Time>
            <Position>
              <LatitudeDegrees>41.95823206566274166107177734375</LatitudeDegrees>
              <LongitudeDegrees>-1.98284111917018890380859375</LongitudeDegrees>
            </Position>
            <AltitudeMeters>656.4000244140625</AltitudeMeters>
            <DistanceMeters>397641.37167217</DistanceMeters>
          </Trackpoint>
          <Trackpoint>
            <Time>2021-08-01T13:34:50.000Z</Time>
            <Position>
              <LatitudeDegrees>41.9584053196012973785400390625</LatitudeDegrees>
              <LongitudeDegrees>-1.9821157492697238922119140625</LongitudeDegrees>
            </Position>
            <AltitudeMeters>655.79998779296875</AltitudeMeters>
            <DistanceMeters>397704.42968428</DistanceMeters>
          </Trackpoint>
          <Trackpoint>
            <Time>2021-08-01T13:34:56.000Z</Time>
            <Position>
              <LatitudeDegrees>41.9585612230002880096435546875</LatitudeDegrees>
              <LongitudeDegrees>-1.98177318088710308074951171875</LongitudeDegrees>
            </Position>
            <AltitudeMeters>656</AltitudeMeters>
            <DistanceMeters>397737.67165345</DistanceMeters>
          </Trackpoint>
          <Trackpoint>
            <Time>2021-08-01T13:35:07.000Z</Time>
            <Position>
              <LatitudeDegrees>41.95896279998123645782470703125</LatitudeDegrees>
              <LongitudeDegrees>-1.98128853924572467803955078125</LongitudeDegrees>
            </Position>
            <AltitudeMeters>656.5999755859375</AltitudeMeters>
            <DistanceMeters>397797.72801068</DistanceMeters>
          </Trackpoint>
          <Trackpoint>
            <Time>2021-08-01T13:35:10.000Z</Time>
            <Position>
              <LatitudeDegrees>41.95903941057622432708740234375</LatitudeDegrees>
              <LongitudeDegrees>-1.981148310005664825439453125</LongitudeDegrees>
            </Position>
            <AltitudeMeters>656.4000244140625</AltitudeMeters>
            <DistanceMeters>397812.13012357</DistanceMeters>
          </Trackpoint>
          <Trackpoint>
            <Time>2021-08-01T13:35:12.000Z</Time>
            <Position>
              <LatitudeDegrees>41.95907444693148136138916015625</LatitudeDegrees>
              <LongitudeDegrees>-1.98105116374790668487548828125</LongitudeDegrees>
            </Position>
            <AltitudeMeters>656.79998779296875</AltitudeMeters>
            <DistanceMeters>397821.06566698</DistanceMeters>
          </Trackpoint>
          <Trackpoint>
            <Time>2021-08-01T13:35:13.000Z</Time>
            <Position>
              <LatitudeDegrees>41.9590892829000949859619140625</LatitudeDegrees>
              <LongitudeDegrees>-1.98100070469081401824951171875</LongitudeDegrees>
            </Position>
            <AltitudeMeters>657.20001220703125</AltitudeMeters>
            <DistanceMeters>397825.55712451</DistanceMeters>
          </Trackpoint>
          <Trackpoint>
            <Time>2021-08-01T13:35:17.000Z</Time>
            <Position>
              <LatitudeDegrees>41.9591355510056018829345703125</LatitudeDegrees>
              <LongitudeDegrees>-1.98080138303339481353759765625</LongitudeDegrees>
            </Position>
            <AltitudeMeters>658.4000244140625</AltitudeMeters>
            <DistanceMeters>397842.83918974</DistanceMeters>
          </Trackpoint>
          <Trackpoint>
            <Time>2021-08-01T13:35:20.000Z</Time>
            <Position>
              <LatitudeDegrees>41.9591653905808925628662109375</LatitudeDegrees>
              <LongitudeDegrees>-1.980655454099178314208984375</LongitudeDegrees>
            </Position>
            <AltitudeMeters>659.4000244140625</AltitudeMeters>
            <DistanceMeters>397855.36542653</DistanceMeters>
          </Trackpoint>
          <Trackpoint>
            <Time>2021-08-01T13:35:25.000Z</Time>
            <Position>
              <LatitudeDegrees>41.959218196570873260498046875</LatitudeDegrees>
              <LongitudeDegrees>-1.98045336641371250152587890625</LongitudeDegrees>
            </Position>
            <AltitudeMeters>660.4000244140625</AltitudeMeters>
            <DistanceMeters>397873.09395836</DistanceMeters>
          </Trackpoint>
          <Trackpoint>
            <Time>2021-08-01T13:35:32.000Z</Time>
            <Position>
              <LatitudeDegrees>41.95923672057688236236572265625</LatitudeDegrees>
              <LongitudeDegrees>-1.98018363676965236663818359375</LongitudeDegrees>
            </Position>
            <AltitudeMeters>661.5999755859375</AltitudeMeters>
            <DistanceMeters>397895.51361815</DistanceMeters>
          </Trackpoint>
          <Trackpoint>
            <Time>2021-08-01T13:35:38.000Z</Time>
            <Position>
              <LatitudeDegrees>41.95922398008406162261962890625</LatitudeDegrees>
              <LongitudeDegrees>-1.9799659587442874908447265625</LongitudeDegrees>
            </Position>
            <AltitudeMeters>662.5999755859375</AltitudeMeters>
            <DistanceMeters>397913.58569066</DistanceMeters>
          </Trackpoint>
          <Trackpoint>
            <Time>2021-08-01T13:35:50.000Z</Time>
            <Position>
              <LatitudeDegrees>41.95910613052546977996826171875</LatitudeDegrees>
              <LongitudeDegrees>-1.9795468635857105255126953125</LongitudeDegrees>
            </Position>
            <AltitudeMeters>663.5999755859375</AltitudeMeters>
            <DistanceMeters>397950.67010183</DistanceMeters>
          </Trackpoint>
          <Trackpoint>
            <Time>2021-08-01T13:36:08.000Z</Time>
            <Position>
              <LatitudeDegrees>41.95887864567339420318603515625</LatitudeDegrees>
              <LongitudeDegrees>-1.978972367942333221435546875</LongitudeDegrees>
            </Position>
            <AltitudeMeters>664.4000244140625</AltitudeMeters>
            <DistanceMeters>398004.54044365</DistanceMeters>
          </Trackpoint>
          <Trackpoint>
            <Time>2021-08-01T13:36:23.000Z</Time>
            <Position>
              <LatitudeDegrees>41.958677060902118682861328125</LatitudeDegrees>
              <LongitudeDegrees>-1.978468112647533416748046875</LongitudeDegrees>
            </Position>
            <AltitudeMeters>665.5999755859375</AltitudeMeters>
            <DistanceMeters>398051.92486469</DistanceMeters>
          </Trackpoint>
          <Trackpoint>
            <Time>2021-08-01T13:36:41.000Z</Time>
            <Position>
              <LatitudeDegrees>41.9584219157695770263671875</LatitudeDegrees>
              <LongitudeDegrees>-1.9778292439877986907958984375</LongitudeDegrees>
            </Position>
            <AltitudeMeters>665.5999755859375</AltitudeMeters>
            <DistanceMeters>398111.94550078</DistanceMeters>
          </Trackpoint>
          <Trackpoint>
            <Time>2021-08-01T13:36:58.000Z</Time>
            <Position>
              <LatitudeDegrees>41.9581067562103271484375</LatitudeDegrees>
              <LongitudeDegrees>-1.977198086678981781005859375</LongitudeDegrees>
            </Position>
            <AltitudeMeters>666</AltitudeMeters>
            <DistanceMeters>398174.86940417</DistanceMeters>
          </Trackpoint>
          <Trackpoint>
            <Time>2021-08-01T13:37:12.000Z</Time>
            <Position>
              <LatitudeDegrees>41.95781582035124301910400390625</LatitudeDegrees>
              <LongitudeDegrees>-1.9766953401267528533935546875</LongitudeDegrees>
            </Position>
            <AltitudeMeters>666.4000244140625</AltitudeMeters>
            <DistanceMeters>398227.59578822</DistanceMeters>
          </Trackpoint>
          <Trackpoint>
            <Time>2021-08-01T13:37:24.000Z</Time>
            <Position>
              <LatitudeDegrees>41.9576459191739559173583984375</LatitudeDegrees>
              <LongitudeDegrees>-1.97616116143763065338134765625</LongitudeDegrees>
            </Position>
            <AltitudeMeters>665</AltitudeMeters>
            <DistanceMeters>398275.68315543</DistanceMeters>
          </Trackpoint>
          <Trackpoint>
            <Time>2021-08-01T13:37:28.000Z</Time>
            <Position>
              <LatitudeDegrees>41.9575743377208709716796875</LatitudeDegrees>
              <LongitudeDegrees>-1.9759480096399784088134765625</LongitudeDegrees>
            </Position>
            <AltitudeMeters>664.5999755859375</AltitudeMeters>
            <DistanceMeters>398295.0408692</DistanceMeters>
          </Trackpoint>
          <Trackpoint>
            <Time>2021-08-01T13:37:30.000Z</Time>
            <Position>
              <LatitudeDegrees>41.9575218670070171356201171875</LatitudeDegrees>
              <LongitudeDegrees>-1.97583795525133609771728515625</LongitudeDegrees>
            </Position>
            <AltitudeMeters>664.4000244140625</AltitudeMeters>
            <DistanceMeters>398305.8614039</DistanceMeters>
          </Trackpoint>
          <Trackpoint>
            <Time>2021-08-01T13:37:31.000Z</Time>
            <Position>
              <LatitudeDegrees>41.95749077014625072479248046875</LatitudeDegrees>
              <LongitudeDegrees>-1.9757843948900699615478515625</LongitudeDegrees>
            </Position>
            <AltitudeMeters>664</AltitudeMeters>
            <DistanceMeters>398311.48566899</DistanceMeters>
          </Trackpoint>
          <Trackpoint>
            <Time>2021-08-01T13:37:38.000Z</Time>
            <Position>
              <LatitudeDegrees>41.95721567608416080474853515625</LatitudeDegrees>
              <LongitudeDegrees>-1.97543562389910221099853515625</LongitudeDegrees>
            </Position>
            <AltitudeMeters>662.79998779296875</AltitudeMeters>
            <DistanceMeters>398353.56673421</DistanceMeters>
          </Trackpoint>
          <Trackpoint>
            <Time>2021-08-01T13:37:49.000Z</Time>
            <Position>
              <LatitudeDegrees>41.95673388428986072540283203125</LatitudeDegrees>
              <LongitudeDegrees>-1.97503547184169292449951171875</LongitudeDegrees>
            </Position>
            <AltitudeMeters>662.79998779296875</AltitudeMeters>
            <DistanceMeters>398416.59480986</DistanceMeters>
          </Trackpoint>
          <Trackpoint>
            <Time>2021-08-01T13:38:01.000Z</Time>
            <Position>
              <LatitudeDegrees>41.95629802532494068145751953125</LatitudeDegrees>
              <LongitudeDegrees>-1.97458653710782527923583984375</LongitudeDegrees>
            </Position>
            <AltitudeMeters>662.5999755859375</AltitudeMeters>
            <DistanceMeters>398477.70252894</DistanceMeters>
          </Trackpoint>
          <Trackpoint>
            <Time>2021-08-01T13:38:14.000Z</Time>
            <Position>
              <LatitudeDegrees>41.955962665379047393798828125</LatitudeDegrees>
              <LongitudeDegrees>-1.97401396930217742919921875</LongitudeDegrees>
            </Position>
            <AltitudeMeters>663.20001220703125</AltitudeMeters>
            <DistanceMeters>398538.02855291</DistanceMeters>
          </Trackpoint>
          <Trackpoint>
            <Time>2021-08-01T13:38:20.000Z</Time>
            <Position>
              <LatitudeDegrees>41.9558260403573513031005859375</LatitudeDegrees>
              <LongitudeDegrees>-1.9737747497856616973876953125</LongitudeDegrees>
            </Position>
            <AltitudeMeters>663.5999755859375</AltitudeMeters>
            <DistanceMeters>398562.99436947</DistanceMeters>
          </Trackpoint>
          <Trackpoint>
            <Time>2021-08-01T13:38:34.000Z</Time>
            <Position>
              <LatitudeDegrees>41.95550593547523021697998046875</LatitudeDegrees>
              <LongitudeDegrees>-1.9731870107352733612060546875</LongitudeDegrees>
            </Position>
            <AltitudeMeters>664.20001220703125</AltitudeMeters>
            <DistanceMeters>398623.29351847</DistanceMeters>
          </Trackpoint>
          <Trackpoint>
            <Time>2021-08-01T13:38:38.000Z</Time>
            <Position>
              <LatitudeDegrees>41.9554330967366695404052734375</LatitudeDegrees>
              <LongitudeDegrees>-1.97300269268453121185302734375</LongitudeDegrees>
            </Position>
            <AltitudeMeters>664.4000244140625</AltitudeMeters>
            <DistanceMeters>398640.57009645</DistanceMeters>
          </Trackpoint>
          <Trackpoint>
            <Time>2021-08-01T13:38:51.000Z</Time>
            <Position>
              <LatitudeDegrees>41.95521390996873378753662109375</LatitudeDegrees>
              <LongitudeDegrees>-1.97240238077938556671142578125</LongitudeDegrees>
            </Position>
            <AltitudeMeters>665.5999755859375</AltitudeMeters>
            <DistanceMeters>398695.92468695</DistanceMeters>
          </Trackpoint>
          <Trackpoint>
            <Time>2021-08-01T13:39:01.000Z</Time>
            <Position>
              <LatitudeDegrees>41.95499832741916179656982421875</LatitudeDegrees>
              <LongitudeDegrees>-1.97198194451630115509033203125</LongitudeDegrees>
            </Position>
            <AltitudeMeters>666.4000244140625</AltitudeMeters>
            <DistanceMeters>398738.19534245</DistanceMeters>
          </Trackpoint>
          <Trackpoint>
            <Time>2021-08-01T13:39:17.000Z</Time>
            <Position>
              <LatitudeDegrees>41.95462013594806194305419921875</LatitudeDegrees>
              <LongitudeDegrees>-1.97142337448894977569580078125</LongitudeDegrees>
            </Position>
            <AltitudeMeters>667.4000244140625</AltitudeMeters>
            <DistanceMeters>398800.72104305</DistanceMeters>
          </Trackpoint>
          <Trackpoint>
            <Time>2021-08-01T13:39:18.000Z</Time>
            <Position>
              <LatitudeDegrees>41.95459716953337192535400390625</LatitudeDegrees>
              <LongitudeDegrees>-1.971393115818500518798828125</LongitudeDegrees>
            </Position>
            <AltitudeMeters>667.5999755859375</AltitudeMeters>
            <DistanceMeters>398804.30066293</DistanceMeters>
          </Trackpoint>
          <Trackpoint>
            <Time>2021-08-01T13:39:23.000Z</Time>
            <Position>
              <LatitudeDegrees>41.95448451675474643707275390625</LatitudeDegrees>
              <LongitudeDegrees>-1.97124450467526912689208984375</LongitudeDegrees>
            </Position>
            <AltitudeMeters>668.5999755859375</AltitudeMeters>
            <DistanceMeters>398821.86544564</DistanceMeters>
          </Trackpoint>
          <Trackpoint>
            <Time>2021-08-01T13:39:27.000Z</Time>
            <Position>
              <LatitudeDegrees>41.95439013652503490447998046875</LatitudeDegrees>
              <LongitudeDegrees>-1.97112984023988246917724609375</LongitudeDegrees>
            </Position>
            <AltitudeMeters>669.20001220703125</AltitudeMeters>
            <DistanceMeters>398836.02251267</DistanceMeters>
          </Trackpoint>
          <Trackpoint>
            <Time>2021-08-01T13:39:31.000Z</Time>
            <Position>
              <LatitudeDegrees>41.9542978517711162567138671875</LatitudeDegrees>
              <LongitudeDegrees>-1.9710217975080013275146484375</LongitudeDegrees>
            </Position>
            <AltitudeMeters>669.5999755859375</AltitudeMeters>
            <DistanceMeters>398849.64153503</DistanceMeters>
          </Trackpoint>
          <Trackpoint>
            <Time>2021-08-01T13:39:40.000Z</Time>
            <Position>
              <LatitudeDegrees>41.954080425202846527099609375</LatitudeDegrees>
              <LongitudeDegrees>-1.9708115793764591217041015625</LongitudeDegrees>
            </Position>
            <AltitudeMeters>670.5999755859375</AltitudeMeters>
            <DistanceMeters>398879.44767552</DistanceMeters>
          </Trackpoint>
          <Trackpoint>
            <Time>2021-08-01T13:39:51.000Z</Time>
            <Position>
              <LatitudeDegrees>41.95381991565227508544921875</LatitudeDegrees>
              <LongitudeDegrees>-1.970579735934734344482421875</LongitudeDegrees>
            </Position>
            <AltitudeMeters>671.79998779296875</AltitudeMeters>
            <DistanceMeters>398914.21823468</DistanceMeters>
          </Trackpoint>
          <Trackpoint>
            <Time>2021-08-01T13:40:00.000Z</Time>
            <Position>
              <LatitudeDegrees>41.953613050282001495361328125</LatitudeDegrees>
              <LongitudeDegrees>-1.97039256803691387176513671875</LongitudeDegrees>
            </Position>
            <AltitudeMeters>672.79998779296875</AltitudeMeters>
            <DistanceMeters>398941.96977752</DistanceMeters>
          </Trackpoint>
          <Trackpoint>
            <Time>2021-08-01T13:40:01.000Z</Time>
            <Position>
              <LatitudeDegrees>41.95359100587666034698486328125</LatitudeDegrees>
              <LongitudeDegrees>-1.970372535288333892822265625</LongitudeDegrees>
            </Position>
            <AltitudeMeters>673</AltitudeMeters>
            <DistanceMeters>398944.93089289</DistanceMeters>
          </Trackpoint>
          <Trackpoint>
            <Time>2021-08-01T13:40:08.000Z</Time>
            <Position>
              <LatitudeDegrees>41.9534303247928619384765625</LatitudeDegrees>
              <LongitudeDegrees>-1.97023130021989345550537109375</LongitudeDegrees>
            </Position>
            <AltitudeMeters>674</AltitudeMeters>
            <DistanceMeters>398966.29690526</DistanceMeters>
          </Trackpoint>
          <Trackpoint>
            <Time>2021-08-01T13:40:14.000Z</Time>
            <Position>
              <LatitudeDegrees>41.95329780690371990203857421875</LatitudeDegrees>
              <LongitudeDegrees>-1.97011127136647701263427734375</LongitudeDegrees>
            </Position>
            <AltitudeMeters>675</AltitudeMeters>
            <DistanceMeters>398984.08061598</DistanceMeters>
          </Trackpoint>
          <Trackpoint>
            <Time>2021-08-01T13:40:21.000Z</Time>
            <Position>
              <LatitudeDegrees>41.95313871838152408599853515625</LatitudeDegrees>
              <LongitudeDegrees>-1.96997313760221004486083984375</LongitudeDegrees>
            </Position>
            <AltitudeMeters>675.79998779296875</AltitudeMeters>
            <DistanceMeters>399005.15813246</DistanceMeters>
          </Trackpoint>
          <Trackpoint>
            <Time>2021-08-01T13:40:31.000Z</Time>
            <Position>
              <LatitudeDegrees>41.952907629311084747314453125</LatitudeDegrees>
              <LongitudeDegrees>-1.96976509876549243927001953125</LongitudeDegrees>
            </Position>
            <AltitudeMeters>677</AltitudeMeters>
            <DistanceMeters>399036.11103347</DistanceMeters>
          </Trackpoint>
          <Trackpoint>
            <Time>2021-08-01T13:40:41.000Z</Time>
            <Position>
              <LatitudeDegrees>41.952675282955169677734375</LatitudeDegrees>
              <LongitudeDegrees>-1.96954733692109584808349609375</LongitudeDegrees>
            </Position>
            <AltitudeMeters>678</AltitudeMeters>
            <DistanceMeters>399067.6338454</DistanceMeters>
          </Trackpoint>
          <Trackpoint>
            <Time>2021-08-01T13:40:59.000Z</Time>
            <Position>
              <LatitudeDegrees>41.9525564275681972503662109375</LatitudeDegrees>
              <LongitudeDegrees>-1.968862451612949371337890625</LongitudeDegrees>
            </Position>
            <AltitudeMeters>677.79998779296875</AltitudeMeters>
            <DistanceMeters>399125.84823751</DistanceMeters>
          </Trackpoint>
          <Trackpoint>
            <Time>2021-08-01T13:41:07.000Z</Time>
            <Position>
              <LatitudeDegrees>41.95251309312880039215087890625</LatitudeDegrees>
              <LongitudeDegrees>-1.9685327075421810150146484375</LongitudeDegrees>
            </Position>
            <AltitudeMeters>679</AltitudeMeters>
            <DistanceMeters>399153.56575622</DistanceMeters>
          </Trackpoint>
          <Trackpoint>
            <Time>2021-08-01T13:41:15.000Z</Time>
            <Position>
              <LatitudeDegrees>41.9523827545344829559326171875</LatitudeDegrees>
              <LongitudeDegrees>-1.96825400926172733306884765625</LongitudeDegrees>
            </Position>
            <AltitudeMeters>680.20001220703125</AltitudeMeters>
            <DistanceMeters>399180.81739006</DistanceMeters>
          </Trackpoint>
          <Trackpoint>
            <Time>2021-08-01T13:41:26.000Z</Time>
            <Position>
              <LatitudeDegrees>41.952149234712123870849609375</LatitudeDegrees>
              <LongitudeDegrees>-1.967949829995632171630859375</LongitudeDegrees>
            </Position>
            <AltitudeMeters>681.20001220703125</AltitudeMeters>
            <DistanceMeters>399217.00448121</DistanceMeters>
          </Trackpoint>
          <Trackpoint>
            <Time>2021-08-01T13:41:33.000Z</Time>
            <Position>
              <LatitudeDegrees>41.95200883783400058746337890625</LatitudeDegrees>
              <LongitudeDegrees>-1.96776148863136768341064453125</LongitudeDegrees>
            </Position>
            <AltitudeMeters>682.4000244140625</AltitudeMeters>
            <DistanceMeters>399239.07810494</DistanceMeters>
          </Trackpoint>
          <Trackpoint>
            <Time>2021-08-01T13:41:40.000Z</Time>
            <Position>
              <LatitudeDegrees>41.95187455974519252777099609375</LatitudeDegrees>
              <LongitudeDegrees>-1.96757826022803783416748046875</LongitudeDegrees>
            </Position>
            <AltitudeMeters>683.4000244140625</AltitudeMeters>
            <DistanceMeters>399260.37129959</DistanceMeters>
          </Trackpoint>
          <Trackpoint>
            <Time>2021-08-01T13:41:50.000Z</Time>
            <Position>
              <LatitudeDegrees>41.9516739808022975921630859375</LatitudeDegrees>
              <LongitudeDegrees>-1.96732596494257450103759765625</LongitudeDegrees>
            </Position>
            <AltitudeMeters>684.20001220703125</AltitudeMeters>
            <DistanceMeters>399290.94155754</DistanceMeters>
          </Trackpoint>
          <Trackpoint>
            <Time>2021-08-01T13:41:58.000Z</Time>
            <Position>
              <LatitudeDegrees>41.9514937698841094970703125</LatitudeDegrees>
              <LongitudeDegrees>-1.96715765632688999176025390625</LongitudeDegrees>
            </Position>
            <AltitudeMeters>685.20001220703125</AltitudeMeters>
            <DistanceMeters>399315.36342314</DistanceMeters>
          </Trackpoint>
          <Trackpoint>
            <Time>2021-08-01T13:42:05.000Z</Time>
            <Position>
              <LatitudeDegrees>41.9513239525258541107177734375</LatitudeDegrees>
              <LongitudeDegrees>-1.9670524634420871734619140625</LongitudeDegrees>
            </Position>
            <AltitudeMeters>686.4000244140625</AltitudeMeters>
            <DistanceMeters>399336.17405663</DistanceMeters>
          </Trackpoint>
          <Trackpoint>
            <Time>2021-08-01T13:42:11.000Z</Time>
            <Position>
              <LatitudeDegrees>41.951186321675777435302734375</LatitudeDegrees>
              <LongitudeDegrees>-1.9669880904257297515869140625</LongitudeDegrees>
            </Position>
            <AltitudeMeters>687.4000244140625</AltitudeMeters>
            <DistanceMeters>399352.39275346</DistanceMeters>
          </Trackpoint>
          <Trackpoint>
            <Time>2021-08-01T13:42:18.000Z</Time>
            <Position>
              <LatitudeDegrees>41.95104651153087615966796875</LatitudeDegrees>
              <LongitudeDegrees>-1.9669424928724765777587890625</LongitudeDegrees>
            </Position>
            <AltitudeMeters>688.5999755859375</AltitudeMeters>
            <DistanceMeters>399368.40468433</DistanceMeters>
          </Trackpoint>
          <Trackpoint>
            <Time>2021-08-01T13:42:27.000Z</Time>
            <Position>
              <LatitudeDegrees>41.950885914266109466552734375</LatitudeDegrees>
              <LongitudeDegrees>-1.96688775904476642608642578125</LongitudeDegrees>
            </Position>
            <AltitudeMeters>689.4000244140625</AltitudeMeters>
            <DistanceMeters>399386.84476455</DistanceMeters>
          </Trackpoint>
          <Trackpoint>
            <Time>2021-08-01T13:42:34.000Z</Time>
            <Position>
              <LatitudeDegrees>41.9507523067295551300048828125</LatitudeDegrees>
              <LongitudeDegrees>-1.96683478541672229766845703125</LongitudeDegrees>
            </Position>
            <AltitudeMeters>690.4000244140625</AltitudeMeters>
            <DistanceMeters>399402.34897801</DistanceMeters>
          </Trackpoint>
          <Trackpoint>
            <Time>2021-08-01T13:42:45.000Z</Time>
            <Position>
              <LatitudeDegrees>41.950535215437412261962890625</LatitudeDegrees>
              <LongitudeDegrees>-1.9667565822601318359375</LongitudeDegrees>
            </Position>
            <AltitudeMeters>691.5999755859375</AltitudeMeters>
            <DistanceMeters>399427.36393708</DistanceMeters>
          </Trackpoint>
          <Trackpoint>
            <Time>2021-08-01T13:42:53.000Z</Time>
            <Position>
              <LatitudeDegrees>41.95037453435361385345458984375</LatitudeDegrees>
              <LongitudeDegrees>-1.96669044904410839080810546875</LongitudeDegrees>
            </Position>
            <AltitudeMeters>692.5999755859375</AltitudeMeters>
            <DistanceMeters>399446.06730927</DistanceMeters>
          </Trackpoint>
          <Trackpoint>
            <Time>2021-08-01T13:42:59.000Z</Time>
            <Position>
              <LatitudeDegrees>41.950250901281833648681640625</LatitudeDegrees>
              <LongitudeDegrees>-1.9666269980370998382568359375</LongitudeDegrees>
            </Position>
            <AltitudeMeters>693.79998779296875</AltitudeMeters>
            <DistanceMeters>399460.79614346</DistanceMeters>
          </Trackpoint>
          <Trackpoint>
            <Time>2021-08-01T13:43:09.000Z</Time>
            <Position>
              <LatitudeDegrees>41.95004311390221118927001953125</LatitudeDegrees>
              <LongitudeDegrees>-1.9665190391242504119873046875</LongitudeDegrees>
            </Position>
            <AltitudeMeters>694.5999755859375</AltitudeMeters>
            <DistanceMeters>399485.5899226</DistanceMeters>
          </Trackpoint>
          <Trackpoint>
            <Time>2021-08-01T13:43:21.000Z</Time>
            <Position>
              <LatitudeDegrees>41.949779503047466278076171875</LatitudeDegrees>
              <LongitudeDegrees>-1.9663985073566436767578125</LongitudeDegrees>
            </Position>
            <AltitudeMeters>695.79998779296875</AltitudeMeters>
            <DistanceMeters>399516.58028901</DistanceMeters>
          </Trackpoint>
          <Trackpoint>
            <Time>2021-08-01T13:43:35.000Z</Time>
            <Position>
              <LatitudeDegrees>41.94944330491125583648681640625</LatitudeDegrees>
              <LongitudeDegrees>-1.96625911630690097808837890625</LongitudeDegrees>
            </Position>
            <AltitudeMeters>696.79998779296875</AltitudeMeters>
            <DistanceMeters>399555.73844475</DistanceMeters>
          </Trackpoint>
          <Trackpoint>
            <Time>2021-08-01T13:43:50.000Z</Time>
            <Position>
              <LatitudeDegrees>41.94908506236970424652099609375</LatitudeDegrees>
              <LongitudeDegrees>-1.9661190547049045562744140625</LongitudeDegrees>
            </Position>
            <AltitudeMeters>697.79998779296875</AltitudeMeters>
            <DistanceMeters>399597.26283561</DistanceMeters>
          </Trackpoint>
          <Trackpoint>
            <Time>2021-08-01T13:44:12.000Z</Time>
            <Position>
              <LatitudeDegrees>41.94857946597039699554443359375</LatitudeDegrees>
              <LongitudeDegrees>-1.96582409553229808807373046875</LongitudeDegrees>
            </Position>
            <AltitudeMeters>698.5999755859375</AltitudeMeters>
            <DistanceMeters>399658.60550555</DistanceMeters>
          </Trackpoint>
          <Trackpoint>
            <Time>2021-08-01T13:44:15.000Z</Time>
            <Position>
              <LatitudeDegrees>41.9485111534595489501953125</LatitudeDegrees>
              <LongitudeDegrees>-1.96578067727386951446533203125</LongitudeDegrees>
            </Position>
            <AltitudeMeters>698.79998779296875</AltitudeMeters>
            <DistanceMeters>399667.01523555</DistanceMeters>
          </Trackpoint>
          <Trackpoint>
            <Time>2021-08-01T13:44:32.000Z</Time>
            <Position>
              <LatitudeDegrees>41.9480898790061473846435546875</LatitudeDegrees>
              <LongitudeDegrees>-1.96555805392563343048095703125</LongitudeDegrees>
            </Position>
            <AltitudeMeters>699.79998779296875</AltitudeMeters>
            <DistanceMeters>399717.39570743</DistanceMeters>
          </Trackpoint>
          <Trackpoint>
            <Time>2021-08-01T13:44:48.000Z</Time>
            <Position>
              <LatitudeDegrees>41.947670280933380126953125</LatitudeDegrees>
              <LongitudeDegrees>-1.96551815606653690338134765625</LongitudeDegrees>
            </Position>
            <AltitudeMeters>700.79998779296875</AltitudeMeters>
            <DistanceMeters>399764.21447372</DistanceMeters>
          </Trackpoint>
          <Trackpoint>
            <Time>2021-08-01T13:44:59.000Z</Time>
            <Position>
              <LatitudeDegrees>41.9473750703036785125732421875</LatitudeDegrees>
              <LongitudeDegrees>-1.9654679484665393829345703125</LongitudeDegrees>
            </Position>
            <AltitudeMeters>701.79998779296875</AltitudeMeters>
            <DistanceMeters>399797.33383989</DistanceMeters>
          </Trackpoint>
          <Trackpoint>
            <Time>2021-08-01T13:45:15.000Z</Time>
            <Position>
              <LatitudeDegrees>41.94696024991571903228759765625</LatitudeDegrees>
              <LongitudeDegrees>-1.96527910418808460235595703125</LongitudeDegrees>
            </Position>
            <AltitudeMeters>702.79998779296875</AltitudeMeters>
            <DistanceMeters>399846.0789321</DistanceMeters>
          </Trackpoint>
          <Trackpoint>
            <Time>2021-08-01T13:45:27.000Z</Time>
            <Position>
              <LatitudeDegrees>41.94684776477515697479248046875</LatitudeDegrees>
              <LongitudeDegrees>-1.96494734846055507659912109375</LongitudeDegrees>
            </Position>
            <AltitudeMeters>703.79998779296875</AltitudeMeters>
            <DistanceMeters>399876.26154683</DistanceMeters>
          </Trackpoint>
          <Trackpoint>
            <Time>2021-08-01T13:45:36.000Z</Time>
            <Position>
              <LatitudeDegrees>41.94701238535344600677490234375</LatitudeDegrees>
              <LongitudeDegrees>-1.964763700962066650390625</LongitudeDegrees>
            </Position>
            <AltitudeMeters>705</AltitudeMeters>
            <DistanceMeters>399900.06986383</DistanceMeters>
          </Trackpoint>
          <Trackpoint>
            <Time>2021-08-01T13:45:45.000Z</Time>
            <Position>
              <LatitudeDegrees>41.9472277164459228515625</LatitudeDegrees>
              <LongitudeDegrees>-1.9647749327123165130615234375</LongitudeDegrees>
            </Position>
            <AltitudeMeters>706.20001220703125</AltitudeMeters>
            <DistanceMeters>399924.05483997</DistanceMeters>
          </Trackpoint>
          <Trackpoint>
            <Time>2021-08-01T13:45:53.000Z</Time>
            <Position>
              <LatitudeDegrees>41.9474186562001705169677734375</LatitudeDegrees>
              <LongitudeDegrees>-1.96483117528259754180908203125</LongitudeDegrees>
            </Position>
            <AltitudeMeters>707.20001220703125</AltitudeMeters>
            <DistanceMeters>399945.81118495</DistanceMeters>
          </Trackpoint>
          <Trackpoint>
            <Time>2021-08-01T13:46:01.000Z</Time>
            <Position>
              <LatitudeDegrees>41.9476111046969890594482421875</LatitudeDegrees>
              <LongitudeDegrees>-1.96492304094135761260986328125</LongitudeDegrees>
            </Position>
            <AltitudeMeters>708.20001220703125</AltitudeMeters>
            <DistanceMeters>399968.54105063</DistanceMeters>
          </Trackpoint>
          <Trackpoint>
            <Time>2021-08-01T13:46:21.000Z</Time>
            <Position>
              <LatitudeDegrees>41.9481143541634082794189453125</LatitudeDegrees>
              <LongitudeDegrees>-1.96518690325319766998291015625</LongitudeDegrees>
            </Position>
            <AltitudeMeters>708</AltitudeMeters>
            <DistanceMeters>400028.6619528</DistanceMeters>
          </Trackpoint>
          <Trackpoint>
            <Time>2021-08-01T13:46:40.000Z</Time>
            <Position>
              <LatitudeDegrees>41.94862439297139644622802734375</LatitudeDegrees>
              <LongitudeDegrees>-1.96543115191161632537841796875</LongitudeDegrees>
            </Position>
            <AltitudeMeters>708.79998779296875</AltitudeMeters>
            <DistanceMeters>400088.92342675</DistanceMeters>
          </Trackpoint>
          <Trackpoint>
            <Time>2021-08-01T13:46:47.000Z</Time>
            <Position>
              <LatitudeDegrees>41.94881784729659557342529296875</LatitudeDegrees>
              <LongitudeDegrees>-1.96546618826687335968017578125</LongitudeDegrees>
            </Position>
            <AltitudeMeters>709.20001220703125</AltitudeMeters>
            <DistanceMeters>400110.64986723</DistanceMeters>
          </Trackpoint>
          <Trackpoint>
            <Time>2021-08-01T13:46:55.000Z</Time>
            <Position>
              <LatitudeDegrees>41.9490152411162853240966796875</LatitudeDegrees>
              <LongitudeDegrees>-1.96543601341545581817626953125</LongitudeDegrees>
            </Position>
            <AltitudeMeters>710.5999755859375</AltitudeMeters>
            <DistanceMeters>400132.76191189</DistanceMeters>
          </Trackpoint>
          <Trackpoint>
            <Time>2021-08-01T13:46:59.000Z</Time>
            <Position>
              <LatitudeDegrees>41.949068717658519744873046875</LatitudeDegrees>
              <LongitudeDegrees>-1.9653402082622051239013671875</LongitudeDegrees>
            </Position>
            <AltitudeMeters>711.4000244140625</AltitudeMeters>
            <DistanceMeters>400142.67752949</DistanceMeters>
          </Trackpoint>
          <Trackpoint>
            <Time>2021-08-01T13:47:03.000Z</Time>
            <Position>
              <LatitudeDegrees>41.94905371405184268951416015625</LatitudeDegrees>
              <LongitudeDegrees>-1.96521925739943981170654296875</LongitudeDegrees>
            </Position>
            <AltitudeMeters>712.4000244140625</AltitudeMeters>
            <DistanceMeters>400152.8280552</DistanceMeters>
          </Trackpoint>
          <Trackpoint>
            <Time>2021-08-01T13:47:09.000Z</Time>
            <Position>
              <LatitudeDegrees>41.9489535503089427947998046875</LatitudeDegrees>
              <LongitudeDegrees>-1.96508564986288547515869140625</LongitudeDegrees>
            </Position>
            <AltitudeMeters>713.5999755859375</AltitudeMeters>
            <DistanceMeters>400168.53192058</DistanceMeters>
          </Trackpoint>
          <Trackpoint>
            <Time>2021-08-01T13:47:14.000Z</Time>
            <Position>
              <LatitudeDegrees>41.9488522969186305999755859375</LatitudeDegrees>
              <LongitudeDegrees>-1.96500442922115325927734375</LongitudeDegrees>
            </Position>
            <AltitudeMeters>714.5999755859375</AltitudeMeters>
            <DistanceMeters>400181.6545559</DistanceMeters>
          </Trackpoint>
          <Trackpoint>
            <Time>2021-08-01T13:47:21.000Z</Time>
            <Position>
              <LatitudeDegrees>41.94871609099209308624267578125</LatitudeDegrees>
              <LongitudeDegrees>-1.964887082576751708984375</LongitudeDegrees>
            </Position>
            <AltitudeMeters>715.5999755859375</AltitudeMeters>
            <DistanceMeters>400199.6595481</DistanceMeters>
          </Trackpoint>
          <Trackpoint>
            <Time>2021-08-01T13:47:29.000Z</Time>
            <Position>
              <LatitudeDegrees>41.9485512189567089080810546875</LatitudeDegrees>
              <LongitudeDegrees>-1.96474685333669185638427734375</LongitudeDegrees>
            </Position>
            <AltitudeMeters>716.5999755859375</AltitudeMeters>
            <DistanceMeters>400221.37310035</DistanceMeters>
          </Trackpoint>
          <Trackpoint>
            <Time>2021-08-01T13:47:38.000Z</Time>
            <Position>
              <LatitudeDegrees>41.94836162030696868896484375</LatitudeDegrees>
              <LongitudeDegrees>-1.9645787961781024932861328125</LongitudeDegrees>
            </Position>
            <AltitudeMeters>717.5999755859375</AltitudeMeters>
            <DistanceMeters>400246.64895599</DistanceMeters>
          </Trackpoint>
          <Trackpoint>
            <Time>2021-08-01T13:47:58.000Z</Time>
            <Position>
              <LatitudeDegrees>41.948091052472591400146484375</LatitudeDegrees>
              <LongitudeDegrees>-1.9639603793621063232421875</LongitudeDegrees>
            </Position>
            <AltitudeMeters>717.79998779296875</AltitudeMeters>
            <DistanceMeters>400306.04285705</DistanceMeters>
          </Trackpoint>
          <Trackpoint>
            <Time>2021-08-01T13:48:05.000Z</Time>
            <Position>
              <LatitudeDegrees>41.94817763753235340118408203125</LatitudeDegrees>
              <LongitudeDegrees>-1.96371638216078281402587890625</LongitudeDegrees>
            </Position>
            <AltitudeMeters>718.79998779296875</AltitudeMeters>
            <DistanceMeters>400328.42240486</DistanceMeters>
          </Trackpoint>
          <Trackpoint>
            <Time>2021-08-01T13:48:19.000Z</Time>
            <Position>
              <LatitudeDegrees>41.94839841686189174652099609375</LatitudeDegrees>
              <LongitudeDegrees>-1.96333416737616062164306640625</LongitudeDegrees>
            </Position>
            <AltitudeMeters>719.79998779296875</AltitudeMeters>
            <DistanceMeters>400368.48402672</DistanceMeters>
          </Trackpoint>
          <Trackpoint>
            <Time>2021-08-01T13:48:23.000Z</Time>
            <Position>
              <LatitudeDegrees>41.94848097860813140869140625</LatitudeDegrees>
              <LongitudeDegrees>-1.9632589817047119140625</LongitudeDegrees>
            </Position>
            <AltitudeMeters>721</AltitudeMeters>
            <DistanceMeters>400379.58304933</DistanceMeters>
          </Trackpoint>
          <Trackpoint>
            <Time>2021-08-01T13:48:31.000Z</Time>
            <Position>
              <LatitudeDegrees>41.94868541322648525238037109375</LatitudeDegrees>
              <LongitudeDegrees>-1.96318857371807098388671875</LongitudeDegrees>
            </Position>
            <AltitudeMeters>721.79998779296875</AltitudeMeters>
            <DistanceMeters>400403.07156952</DistanceMeters>
          </Trackpoint>
          <Trackpoint>
            <Time>2021-08-01T13:48:41.000Z</Time>
            <Position>
              <LatitudeDegrees>41.94881491363048553466796875</LatitudeDegrees>
              <LongitudeDegrees>-1.9629403017461299896240234375</LongitudeDegrees>
            </Position>
            <AltitudeMeters>723.20001220703125</AltitudeMeters>
            <DistanceMeters>400428.17409517</DistanceMeters>
          </Trackpoint>
          <Trackpoint>
            <Time>2021-08-01T13:48:43.000Z</Time>
            <Position>
              <LatitudeDegrees>41.94879907183349132537841796875</LatitudeDegrees>
              <LongitudeDegrees>-1.9628812931478023529052734375</LongitudeDegrees>
            </Position>
            <AltitudeMeters>724.5999755859375</AltitudeMeters>
            <DistanceMeters>400433.36676388</DistanceMeters>
          </Trackpoint>
          <Trackpoint>
            <Time>2021-08-01T13:48:47.000Z</Time>
            <Position>
              <LatitudeDegrees>41.9487426616251468658447265625</LatitudeDegrees>
              <LongitudeDegrees>-1.96278087794780731201171875</LongitudeDegrees>
            </Position>
            <AltitudeMeters>726</AltitudeMeters>
            <DistanceMeters>400443.78335634</DistanceMeters>
          </Trackpoint>
          <Trackpoint>
            <Time>2021-08-01T13:48:50.000Z</Time>
            <Position>
              <LatitudeDegrees>41.94869144819676876068115234375</LatitudeDegrees>
              <LongitudeDegrees>-1.96271524764597415924072265625</LongitudeDegrees>
            </Position>
            <AltitudeMeters>727</AltitudeMeters>
            <DistanceMeters>400451.65796966</DistanceMeters>
          </Trackpoint>
          <Trackpoint>
            <Time>2021-08-01T13:48:58.000Z</Time>
            <Position>
              <LatitudeDegrees>41.94856144487857818603515625</LatitudeDegrees>
              <LongitudeDegrees>-1.96255397982895374298095703125</LongitudeDegrees>
            </Position>
            <AltitudeMeters>728</AltitudeMeters>
            <DistanceMeters>400471.34524832</DistanceMeters>
          </Trackpoint>
          <Trackpoint>
            <Time>2021-08-01T13:49:03.000Z</Time>
            <Position>
              <LatitudeDegrees>41.948487348854541778564453125</LatitudeDegrees>
              <LongitudeDegrees>-1.96246043778955936431884765625</LongitudeDegrees>
            </Position>
            <AltitudeMeters>729.20001220703125</AltitudeMeters>
            <DistanceMeters>400482.65781847</DistanceMeters>
          </Trackpoint>
          <Trackpoint>
            <Time>2021-08-01T13:49:06.000Z</Time>
            <Position>
              <LatitudeDegrees>41.94845373742282390594482421875</LatitudeDegrees>
              <LongitudeDegrees>-1.9624181091785430908203125</LongitudeDegrees>
            </Position>
            <AltitudeMeters>729.4000244140625</AltitudeMeters>
            <DistanceMeters>400487.78397907</DistanceMeters>
          </Trackpoint>
          <Trackpoint>
            <Time>2021-08-01T13:49:11.000Z</Time>
            <Position>
              <LatitudeDegrees>41.94842238910496234893798828125</LatitudeDegrees>
              <LongitudeDegrees>-1.9623673148453235626220703125</LongitudeDegrees>
            </Position>
            <AltitudeMeters>730.20001220703125</AltitudeMeters>
            <DistanceMeters>400493.24863485</DistanceMeters>
          </Trackpoint>
          <Trackpoint>
            <Time>2021-08-01T13:49:19.000Z</Time>
            <Position>
              <LatitudeDegrees>41.9483607821166515350341796875</LatitudeDegrees>
              <LongitudeDegrees>-1.96230352856218814849853515625</LongitudeDegrees>
            </Position>
            <AltitudeMeters>731.20001220703125</AltitudeMeters>
            <DistanceMeters>400501.90389418</DistanceMeters>
          </Trackpoint>
          <Trackpoint>
            <Time>2021-08-01T13:49:27.000Z</Time>
            <Position>
              <LatitudeDegrees>41.94827352650463581085205078125</LatitudeDegrees>
              <LongitudeDegrees>-1.96223714388906955718994140625</LongitudeDegrees>
            </Position>
            <AltitudeMeters>732.20001220703125</AltitudeMeters>
            <DistanceMeters>400513.06255558</DistanceMeters>
          </Trackpoint>
          <Trackpoint>
            <Time>2021-08-01T13:49:29.000Z</Time>
            <Position>
              <LatitudeDegrees>41.94824703969061374664306640625</LatitudeDegrees>
              <LongitudeDegrees>-1.96223043836653232574462890625</LongitudeDegrees>
            </Position>
            <AltitudeMeters>732.4000244140625</AltitudeMeters>
            <DistanceMeters>400516.0615481</DistanceMeters>
          </Trackpoint>
          <Trackpoint>
            <Time>2021-08-01T13:49:38.000Z</Time>
            <Position>
              <LatitudeDegrees>41.9481284357607364654541015625</LatitudeDegrees>
              <LongitudeDegrees>-1.9622033648192882537841796875</LongitudeDegrees>
            </Position>
            <AltitudeMeters>733.5999755859375</AltitudeMeters>
            <DistanceMeters>400529.45121343</DistanceMeters>
          </Trackpoint>
          <Trackpoint>
            <Time>2021-08-01T13:49:46.000Z</Time>
            <Position>
              <LatitudeDegrees>41.94800262339413166046142578125</LatitudeDegrees>
              <LongitudeDegrees>-1.9622075557708740234375</LongitudeDegrees>
            </Position>
            <AltitudeMeters>734.5999755859375</AltitudeMeters>
            <DistanceMeters>400543.45855083</DistanceMeters>
          </Trackpoint>
          <Trackpoint>
            <Time>2021-08-01T13:49:56.000Z</Time>
            <Position>
              <LatitudeDegrees>41.94783833809196949005126953125</LatitudeDegrees>
              <LongitudeDegrees>-1.96222289465367794036865234375</LongitudeDegrees>
            </Position>
            <AltitudeMeters>735.5999755859375</AltitudeMeters>
            <DistanceMeters>400561.78787144</DistanceMeters>
          </Trackpoint>
          <Trackpoint>
            <Time>2021-08-01T13:50:07.000Z</Time>
            <Position>
              <LatitudeDegrees>41.94764815270900726318359375</LatitudeDegrees>
              <LongitudeDegrees>-1.9622556678950786590576171875</LongitudeDegrees>
            </Position>
            <AltitudeMeters>736.5999755859375</AltitudeMeters>
            <DistanceMeters>400583.1291452</DistanceMeters>
          </Trackpoint>
          <Trackpoint>
            <Time>2021-08-01T13:50:21.000Z</Time>
            <Position>
              <LatitudeDegrees>41.94738655351102352142333984375</LatitudeDegrees>
              <LongitudeDegrees>-1.9622385688126087188720703125</LongitudeDegrees>
            </Position>
            <AltitudeMeters>737.5999755859375</AltitudeMeters>
            <DistanceMeters>400612.28020648</DistanceMeters>
          </Trackpoint>
          <Trackpoint>
            <Time>2021-08-01T13:50:27.000Z</Time>
            <Position>
              <LatitudeDegrees>41.94727775640785694122314453125</LatitudeDegrees>
              <LongitudeDegrees>-1.962176375091075897216796875</LongitudeDegrees>
            </Position>
            <AltitudeMeters>738.5999755859375</AltitudeMeters>
            <DistanceMeters>400625.4385759</DistanceMeters>
          </Trackpoint>
          <Trackpoint>
            <Time>2021-08-01T13:50:42.000Z</Time>
            <Position>
              <LatitudeDegrees>41.947103329002857208251953125</LatitudeDegrees>
              <LongitudeDegrees>-1.96186280809342861175537109375</LongitudeDegrees>
            </Position>
            <AltitudeMeters>739.5999755859375</AltitudeMeters>
            <DistanceMeters>400657.85327325</DistanceMeters>
          </Trackpoint>
          <Trackpoint>
            <Time>2021-08-01T13:50:51.000Z</Time>
            <Position>
              <LatitudeDegrees>41.94707550108432769775390625</LatitudeDegrees>
              <LongitudeDegrees>-1.96164437569677829742431640625</LongitudeDegrees>
            </Position>
            <AltitudeMeters>740.5999755859375</AltitudeMeters>
            <DistanceMeters>400676.19909047</DistanceMeters>
          </Trackpoint>
          <Trackpoint>
            <Time>2021-08-01T13:50:58.000Z</Time>
            <Position>
              <LatitudeDegrees>41.94709561765193939208984375</LatitudeDegrees>
              <LongitudeDegrees>-1.9614739716053009033203125</LongitudeDegrees>
            </Position>
            <AltitudeMeters>741.79998779296875</AltitudeMeters>
            <DistanceMeters>400690.48220942</DistanceMeters>
          </Trackpoint>
          <Trackpoint>
            <Time>2021-08-01T13:51:04.000Z</Time>
            <Position>
              <LatitudeDegrees>41.94713425822556018829345703125</LatitudeDegrees>
              <LongitudeDegrees>-1.96133391000330448150634765625</LongitudeDegrees>
            </Position>
            <AltitudeMeters>742.79998779296875</AltitudeMeters>
            <DistanceMeters>400702.84883283</DistanceMeters>
          </Trackpoint>
          <Trackpoint>
            <Time>2021-08-01T13:51:12.000Z</Time>
            <Position>
              <LatitudeDegrees>41.94719108752906322479248046875</LatitudeDegrees>
              <LongitudeDegrees>-1.96115286089479923248291015625</LongitudeDegrees>
            </Position>
            <AltitudeMeters>743.79998779296875</AltitudeMeters>
            <DistanceMeters>400719.1164516</DistanceMeters>
          </Trackpoint>
          <Trackpoint>
            <Time>2021-08-01T13:51:18.000Z</Time>
            <Position>
              <LatitudeDegrees>41.94722277112305164337158203125</LatitudeDegrees>
              <LongitudeDegrees>-1.9610164873301982879638671875</LongitudeDegrees>
            </Position>
            <AltitudeMeters>744.79998779296875</AltitudeMeters>
            <DistanceMeters>400730.94336515</DistanceMeters>
          </Trackpoint>
          <Trackpoint>
            <Time>2021-08-01T13:51:25.000Z</Time>
            <Position>
              <LatitudeDegrees>41.947246827185153961181640625</LatitudeDegrees>
              <LongitudeDegrees>-1.960854716598987579345703125</LongitudeDegrees>
            </Position>
            <AltitudeMeters>745.79998779296875</AltitudeMeters>
            <DistanceMeters>400744.600129</DistanceMeters>
          </Trackpoint>
          <Trackpoint>
            <Time>2021-08-01T13:51:31.000Z</Time>
            <Position>
              <LatitudeDegrees>41.94726099260151386260986328125</LatitudeDegrees>
              <LongitudeDegrees>-1.96070627309381961822509765625</LongitudeDegrees>
            </Position>
            <AltitudeMeters>746.79998779296875</AltitudeMeters>
            <DistanceMeters>400756.98936785</DistanceMeters>
          </Trackpoint>
          <Trackpoint>
            <Time>2021-08-01T13:51:38.000Z</Time>
            <Position>
              <LatitudeDegrees>41.94726903922855854034423828125</LatitudeDegrees>
              <LongitudeDegrees>-1.9605155847966670989990234375</LongitudeDegrees>
            </Position>
            <AltitudeMeters>747.79998779296875</AltitudeMeters>
            <DistanceMeters>400772.8003968</DistanceMeters>
          </Trackpoint>
          <Trackpoint>
            <Time>2021-08-01T13:51:45.000Z</Time>
            <Position>
              <LatitudeDegrees>41.94727490656077861785888671875</LatitudeDegrees>
              <LongitudeDegrees>-1.960329003632068634033203125</LongitudeDegrees>
            </Position>
            <AltitudeMeters>749</AltitudeMeters>
            <DistanceMeters>400788.25969831</DistanceMeters>
          </Trackpoint>
          <Trackpoint>
            <Time>2021-08-01T13:51:52.000Z</Time>
            <Position>
              <LatitudeDegrees>41.9472754932940006256103515625</LatitudeDegrees>
              <LongitudeDegrees>-1.9601434282958507537841796875</LongitudeDegrees>
            </Position>
            <AltitudeMeters>750</AltitudeMeters>
            <DistanceMeters>400803.62231781</DistanceMeters>
          </Trackpoint>
          <Trackpoint>
            <Time>2021-08-01T13:52:00.000Z</Time>
            <Position>
              <LatitudeDegrees>41.947273313999176025390625</LatitudeDegrees>
              <LongitudeDegrees>-1.9599365629255771636962890625</LongitudeDegrees>
            </Position>
            <AltitudeMeters>751.20001220703125</AltitudeMeters>
            <DistanceMeters>400820.74902132</DistanceMeters>
          </Trackpoint>
          <Trackpoint>
            <Time>2021-08-01T13:52:11.000Z</Time>
            <Position>
              <LatitudeDegrees>41.9472719728946685791015625</LatitudeDegrees>
              <LongitudeDegrees>-1.95966976694762706756591796875</LongitudeDegrees>
            </Position>
            <AltitudeMeters>752</AltitudeMeters>
            <DistanceMeters>400842.8355276</DistanceMeters>
          </Trackpoint>
          <Trackpoint>
            <Time>2021-08-01T13:52:21.000Z</Time>
            <Position>
              <LatitudeDegrees>41.947291754186153411865234375</LatitudeDegrees>
              <LongitudeDegrees>-1.959439851343631744384765625</LongitudeDegrees>
            </Position>
            <AltitudeMeters>753</AltitudeMeters>
            <DistanceMeters>400861.99560922</DistanceMeters>
          </Trackpoint>
          <Trackpoint>
            <Time>2021-08-01T13:52:34.000Z</Time>
            <Position>
              <LatitudeDegrees>41.9473847933113574981689453125</LatitudeDegrees>
              <LongitudeDegrees>-1.959166936576366424560546875</LongitudeDegrees>
            </Position>
            <AltitudeMeters>754.4000244140625</AltitudeMeters>
            <DistanceMeters>400886.84831991</DistanceMeters>
          </Trackpoint>
          <Trackpoint>
            <Time>2021-08-01T13:52:39.000Z</Time>
            <Position>
              <LatitudeDegrees>41.9474344141781330108642578125</LatitudeDegrees>
              <LongitudeDegrees>-1.95908077061176300048828125</LongitudeDegrees>
            </Position>
            <AltitudeMeters>755.5999755859375</AltitudeMeters>
            <DistanceMeters>400895.86935361</DistanceMeters>
          </Trackpoint>
          <Trackpoint>
            <Time>2021-08-01T13:52:45.000Z</Time>
            <Position>
              <LatitudeDegrees>41.94749233312904834747314453125</LatitudeDegrees>
              <LongitudeDegrees>-1.958967112004756927490234375</LongitudeDegrees>
            </Position>
            <AltitudeMeters>756.5999755859375</AltitudeMeters>
            <DistanceMeters>400907.27453888</DistanceMeters>
          </Trackpoint>
          <Trackpoint>
            <Time>2021-08-01T13:52:51.000Z</Time>
            <Position>
              <LatitudeDegrees>41.94754966534674167633056640625</LatitudeDegrees>
              <LongitudeDegrees>-1.9588643498718738555908203125</LongitudeDegrees>
            </Position>
            <AltitudeMeters>757.5999755859375</AltitudeMeters>
            <DistanceMeters>400917.9086184</DistanceMeters>
          </Trackpoint>
          <Trackpoint>
            <Time>2021-08-01T13:52:54.000Z</Time>
            <Position>
              <LatitudeDegrees>41.94757866673171520233154296875</LatitudeDegrees>
              <LongitudeDegrees>-1.95881330408155918121337890625</LongitudeDegrees>
            </Position>
            <AltitudeMeters>758.20001220703125</AltitudeMeters>
            <DistanceMeters>400923.22671952</DistanceMeters>
          </Trackpoint>
          <Trackpoint>
            <Time>2021-08-01T13:52:57.000Z</Time>
            <Position>
              <LatitudeDegrees>41.94760934449732303619384765625</LatitudeDegrees>
              <LongitudeDegrees>-1.95876301266252994537353515625</LongitudeDegrees>
            </Position>
            <AltitudeMeters>758.79998779296875</AltitudeMeters>
            <DistanceMeters>400928.61231192</DistanceMeters>
          </Trackpoint>
          <Trackpoint>
            <Time>2021-08-01T13:53:03.000Z</Time>
            <Position>
              <LatitudeDegrees>41.94766483269631862640380859375</LatitudeDegrees>
              <LongitudeDegrees>-1.95866645313799381256103515625</LongitudeDegrees>
            </Position>
            <AltitudeMeters>759.79998779296875</AltitudeMeters>
            <DistanceMeters>400938.71379022</DistanceMeters>
          </Trackpoint>
          <Trackpoint>
            <Time>2021-08-01T13:53:12.000Z</Time>
            <Position>
              <LatitudeDegrees>41.9477478973567485809326171875</LatitudeDegrees>
              <LongitudeDegrees>-1.95851658470928668975830078125</LongitudeDegrees>
            </Position>
            <AltitudeMeters>760.5999755859375</AltitudeMeters>
            <DistanceMeters>400954.18622883</DistanceMeters>
          </Trackpoint>
          <Trackpoint>
            <Time>2021-08-01T13:53:20.000Z</Time>
            <Position>
              <LatitudeDegrees>41.94782777689397335052490234375</LatitudeDegrees>
              <LongitudeDegrees>-1.9583865813910961151123046875</LongitudeDegrees>
            </Position>
            <AltitudeMeters>761.79998779296875</AltitudeMeters>
            <DistanceMeters>400968.14577931</DistanceMeters>
          </Trackpoint>
          <Trackpoint>
            <Time>2021-08-01T13:53:25.000Z</Time>
            <Position>
              <LatitudeDegrees>41.94787169806659221649169921875</LatitudeDegrees>
              <LongitudeDegrees>-1.9583020918071269989013671875</LongitudeDegrees>
            </Position>
            <AltitudeMeters>762.79998779296875</AltitudeMeters>
            <DistanceMeters>400976.6791571</DistanceMeters>
          </Trackpoint>
          <Trackpoint>
            <Time>2021-08-01T13:53:31.000Z</Time>
            <Position>
              <LatitudeDegrees>41.94792919792234897613525390625</LatitudeDegrees>
              <LongitudeDegrees>-1.95819388143718242645263671875</LongitudeDegrees>
            </Position>
            <AltitudeMeters>764</AltitudeMeters>
            <DistanceMeters>400987.6879107</DistanceMeters>
          </Trackpoint>
          <Trackpoint>
            <Time>2021-08-01T13:53:38.000Z</Time>
            <Position>
              <LatitudeDegrees>41.9479934871196746826171875</LatitudeDegrees>
              <LongitudeDegrees>-1.95807871408760547637939453125</LongitudeDegrees>
            </Position>
            <AltitudeMeters>765</AltitudeMeters>
            <DistanceMeters>400999.60798842</DistanceMeters>
          </Trackpoint>
          <Trackpoint>
            <Time>2021-08-01T13:53:44.000Z</Time>
            <Position>
              <LatitudeDegrees>41.94804914295673370361328125</LatitudeDegrees>
              <LongitudeDegrees>-1.95798282511532306671142578125</LongitudeDegrees>
            </Position>
            <AltitudeMeters>766</AltitudeMeters>
            <DistanceMeters>401009.67723359</DistanceMeters>
          </Trackpoint>
          <Trackpoint>
            <Time>2021-08-01T13:53:52.000Z</Time>
            <Position>
              <LatitudeDegrees>41.948121897876262664794921875</LatitudeDegrees>
              <LongitudeDegrees>-1.95785902440547943115234375</LongitudeDegrees>
            </Position>
            <AltitudeMeters>767</AltitudeMeters>
            <DistanceMeters>401022.73882746</DistanceMeters>
          </Trackpoint>
          <Trackpoint>
            <Time>2021-08-01T13:54:01.000Z</Time>
            <Position>
              <LatitudeDegrees>41.94820865057408809661865234375</LatitudeDegrees>
              <LongitudeDegrees>-1.9577170349657535552978515625</LongitudeDegrees>
            </Position>
            <AltitudeMeters>768</AltitudeMeters>
            <DistanceMeters>401037.94993027</DistanceMeters>
          </Trackpoint>
          <Trackpoint>
            <Time>2021-08-01T13:54:10.000Z</Time>
            <Position>
              <LatitudeDegrees>41.94828115403652191162109375</LatitudeDegrees>
              <LongitudeDegrees>-1.9575832597911357879638671875</LongitudeDegrees>
            </Position>
            <AltitudeMeters>769</AltitudeMeters>
            <DistanceMeters>401051.6522421</DistanceMeters>
          </Trackpoint>
          <Trackpoint>
            <Time>2021-08-01T13:54:17.000Z</Time>
            <Position>
              <LatitudeDegrees>41.94833739660680294036865234375</LatitudeDegrees>
              <LongitudeDegrees>-1.957474462687969207763671875</LongitudeDegrees>
            </Position>
            <AltitudeMeters>770.20001220703125</AltitudeMeters>
            <DistanceMeters>401062.62031752</DistanceMeters>
          </Trackpoint>
          <Trackpoint>
            <Time>2021-08-01T13:54:19.000Z</Time>
            <Position>
              <LatitudeDegrees>41.9483540765941143035888671875</LatitudeDegrees>
              <LongitudeDegrees>-1.9574444554746150970458984375</LongitudeDegrees>
            </Position>
            <AltitudeMeters>770.4000244140625</AltitudeMeters>
            <DistanceMeters>401065.71999513</DistanceMeters>
          </Trackpoint>
          <Trackpoint>
            <Time>2021-08-01T13:54:22.000Z</Time>
            <Position>
              <LatitudeDegrees>41.94838182069361209869384765625</LatitudeDegrees>
              <LongitudeDegrees>-1.957402043044567108154296875</LongitudeDegrees>
            </Position>
            <AltitudeMeters>771.20001220703125</AltitudeMeters>
            <DistanceMeters>401070.39565713</DistanceMeters>
          </Trackpoint>
          <Trackpoint>
            <Time>2021-08-01T13:54:31.000Z</Time>
            <Position>
              <LatitudeDegrees>41.94846916012465953826904296875</LatitudeDegrees>
              <LongitudeDegrees>-1.957281343638896942138671875</LongitudeDegrees>
            </Position>
            <AltitudeMeters>772.20001220703125</AltitudeMeters>
            <DistanceMeters>401084.33578787</DistanceMeters>
          </Trackpoint>
          <Trackpoint>
            <Time>2021-08-01T13:54:38.000Z</Time>
            <Position>
              <LatitudeDegrees>41.9485435076057910919189453125</LatitudeDegrees>
              <LongitudeDegrees>-1.957188807427883148193359375</LongitudeDegrees>
            </Position>
            <AltitudeMeters>773</AltitudeMeters>
            <DistanceMeters>401095.61157947</DistanceMeters>
          </Trackpoint>
          <Trackpoint>
            <Time>2021-08-01T13:54:44.000Z</Time>
            <Position>
              <LatitudeDegrees>41.948608718812465667724609375</LatitudeDegrees>
              <LongitudeDegrees>-1.9571068324148654937744140625</LongitudeDegrees>
            </Position>
            <AltitudeMeters>774.20001220703125</AltitudeMeters>
            <DistanceMeters>401105.54812092</DistanceMeters>
          </Trackpoint>
          <Trackpoint>
            <Time>2021-08-01T13:54:48.000Z</Time>
            <Position>
              <LatitudeDegrees>41.948652975261211395263671875</LatitudeDegrees>
              <LongitudeDegrees>-1.9570528529584407806396484375</LongitudeDegrees>
            </Position>
            <AltitudeMeters>775.4000244140625</AltitudeMeters>
            <DistanceMeters>401112.19863326</DistanceMeters>
          </Trackpoint>
          <Trackpoint>
            <Time>2021-08-01T13:54:54.000Z</Time>
            <Position>
              <LatitudeDegrees>41.948720701038837432861328125</LatitudeDegrees>
              <LongitudeDegrees>-1.95697464980185031890869140625</LongitudeDegrees>
            </Position>
            <AltitudeMeters>776.4000244140625</AltitudeMeters>
            <DistanceMeters>401122.1347203</DistanceMeters>
          </Trackpoint>
          <Trackpoint>
            <Time>2021-08-01T13:55:03.000Z</Time>
            <Position>
              <LatitudeDegrees>41.9488308392465114593505859375</LatitudeDegrees>
              <LongitudeDegrees>-1.95687272585928440093994140625</LongitudeDegrees>
            </Position>
            <AltitudeMeters>777.20001220703125</AltitudeMeters>
            <DistanceMeters>401137.01634067</DistanceMeters>
          </Trackpoint>
          <Trackpoint>
            <Time>2021-08-01T13:55:08.000Z</Time>
            <Position>
              <LatitudeDegrees>41.94888389669358730316162109375</LatitudeDegrees>
              <LongitudeDegrees>-1.956808604300022125244140625</LongitudeDegrees>
            </Position>
            <AltitudeMeters>778.4000244140625</AltitudeMeters>
            <DistanceMeters>401144.95661735</DistanceMeters>
          </Trackpoint>
          <Trackpoint>
            <Time>2021-08-01T13:55:14.000Z</Time>
            <Position>
              <LatitudeDegrees>41.94895430468022823333740234375</LatitudeDegrees>
              <LongitudeDegrees>-1.95674163289368152618408203125</LongitudeDegrees>
            </Position>
            <AltitudeMeters>779.5999755859375</AltitudeMeters>
            <DistanceMeters>401154.55666736</DistanceMeters>
          </Trackpoint>
          <Trackpoint>
            <Time>2021-08-01T13:55:24.000Z</Time>
            <Position>
              <LatitudeDegrees>41.94907517172396183013916015625</LatitudeDegrees>
              <LongitudeDegrees>-1.9566379487514495849609375</LongitudeDegrees>
            </Position>
            <AltitudeMeters>780.79998779296875</AltitudeMeters>
            <DistanceMeters>401170.51436631</DistanceMeters>
          </Trackpoint>
          <Trackpoint>
            <Time>2021-08-01T13:55:27.000Z</Time>
            <Position>
              <LatitudeDegrees>41.9491114653646945953369140625</LatitudeDegrees>
              <LongitudeDegrees>-1.95661137811839580535888671875</LongitudeDegrees>
            </Position>
            <AltitudeMeters>782</AltitudeMeters>
            <DistanceMeters>401175.11507269</DistanceMeters>
          </Trackpoint>
          <Trackpoint>
            <Time>2021-08-01T13:55:31.000Z</Time>
            <Position>
              <LatitudeDegrees>41.94915899075567722320556640625</LatitudeDegrees>
              <LongitudeDegrees>-1.956573911011219024658203125</LongitudeDegrees>
            </Position>
            <AltitudeMeters>783</AltitudeMeters>
            <DistanceMeters>401181.24632119</DistanceMeters>
          </Trackpoint>
          <Trackpoint>
            <Time>2021-08-01T13:55:35.000Z</Time>
            <Position>
              <LatitudeDegrees>41.9492100365459918975830078125</LatitudeDegrees>
              <LongitudeDegrees>-1.956541053950786590576171875</LongitudeDegrees>
            </Position>
            <AltitudeMeters>783.79998779296875</AltitudeMeters>
            <DistanceMeters>401187.54538111</DistanceMeters>
          </Trackpoint>
          <Trackpoint>
            <Time>2021-08-01T13:55:41.000Z</Time>
            <Position>
              <LatitudeDegrees>41.94928421638906002044677734375</LatitudeDegrees>
              <LongitudeDegrees>-1.956491768360137939453125</LongitudeDegrees>
            </Position>
            <AltitudeMeters>785</AltitudeMeters>
            <DistanceMeters>401196.75464156</DistanceMeters>
          </Trackpoint>
          <Trackpoint>
            <Time>2021-08-01T13:55:47.000Z</Time>
            <Position>
              <LatitudeDegrees>41.94936342537403106689453125</LatitudeDegrees>
              <LongitudeDegrees>-1.95644239895045757293701171875</LongitudeDegrees>
            </Position>
            <AltitudeMeters>786.20001220703125</AltitudeMeters>
            <DistanceMeters>401206.472488</DistanceMeters>
          </Trackpoint>
          <Trackpoint>
            <Time>2021-08-01T13:55:48.000Z</Time>
            <Position>
              <LatitudeDegrees>41.94937725551426410675048828125</LatitudeDegrees>
              <LongitudeDegrees>-1.9564359448850154876708984375</LongitudeDegrees>
            </Position>
            <AltitudeMeters>786.4000244140625</AltitudeMeters>
            <DistanceMeters>401208.10738941</DistanceMeters>
          </Trackpoint>
          <Trackpoint>
            <Time>2021-08-01T13:55:54.000Z</Time>
            <Position>
              <LatitudeDegrees>41.94945638068020343780517578125</LatitudeDegrees>
              <LongitudeDegrees>-1.95639789104461669921875</LongitudeDegrees>
            </Position>
            <AltitudeMeters>787.20001220703125</AltitudeMeters>
            <DistanceMeters>401217.46064449</DistanceMeters>
          </Trackpoint>
          <Trackpoint>
            <Time>2021-08-01T13:56:01.000Z</Time>
            <Position>
              <LatitudeDegrees>41.94953936152160167694091796875</LatitudeDegrees>
              <LongitudeDegrees>-1.9563444145023822784423828125</LongitudeDegrees>
            </Position>
            <AltitudeMeters>788.4000244140625</AltitudeMeters>
            <DistanceMeters>401227.70239083</DistanceMeters>
          </Trackpoint>
          <Trackpoint>
            <Time>2021-08-01T13:56:08.000Z</Time>
            <Position>
              <LatitudeDegrees>41.94962452165782451629638671875</LatitudeDegrees>
              <LongitudeDegrees>-1.9562919437885284423828125</LongitudeDegrees>
            </Position>
            <AltitudeMeters>789.5999755859375</AltitudeMeters>
            <DistanceMeters>401238.1289478</DistanceMeters>
          </Trackpoint>
          <Trackpoint>
            <Time>2021-08-01T13:56:14.000Z</Time>
            <Position>
              <LatitudeDegrees>41.9496951811015605926513671875</LatitudeDegrees>
              <LongitudeDegrees>-1.9562468491494655609130859375</LongitudeDegrees>
            </Position>
            <AltitudeMeters>790.4000244140625</AltitudeMeters>
            <DistanceMeters>401246.83466038</DistanceMeters>
          </Trackpoint>
          <Trackpoint>
            <Time>2021-08-01T13:56:20.000Z</Time>
            <Position>
              <LatitudeDegrees>41.94976651109755039215087890625</LatitudeDegrees>
              <LongitudeDegrees>-1.9561980664730072021484375</LongitudeDegrees>
            </Position>
            <AltitudeMeters>791.4000244140625</AltitudeMeters>
            <DistanceMeters>401255.74186262</DistanceMeters>
          </Trackpoint>
          <Trackpoint>
            <Time>2021-08-01T13:56:26.000Z</Time>
            <Position>
              <LatitudeDegrees>41.9498353265225887298583984375</LatitudeDegrees>
              <LongitudeDegrees>-1.95613645948469638824462890625</LongitudeDegrees>
            </Position>
            <AltitudeMeters>792.5999755859375</AltitudeMeters>
            <DistanceMeters>401264.94327537</DistanceMeters>
          </Trackpoint>
          <Trackpoint>
            <Time>2021-08-01T13:56:32.000Z</Time>
            <Position>
              <LatitudeDegrees>41.94989542476832866668701171875</LatitudeDegrees>
              <LongitudeDegrees>-1.95606336928904056549072265625</LongitudeDegrees>
            </Position>
            <AltitudeMeters>793.79998779296875</AltitudeMeters>
            <DistanceMeters>401273.96280744</DistanceMeters>
          </Trackpoint>
          <Trackpoint>
            <Time>2021-08-01T13:56:38.000Z</Time>
            <Position>
              <LatitudeDegrees>41.94993339478969573974609375</LatitudeDegrees>
              <LongitudeDegrees>-1.955973766744136810302734375</LongitudeDegrees>
            </Position>
            <AltitudeMeters>794.5999755859375</AltitudeMeters>
            <DistanceMeters>401282.49935926</DistanceMeters>
          </Trackpoint>
          <Trackpoint>
            <Time>2021-08-01T13:56:45.000Z</Time>
            <Position>
              <LatitudeDegrees>41.94995845668017864227294921875</LatitudeDegrees>
              <LongitudeDegrees>-1.9558560848236083984375</LongitudeDegrees>
            </Position>
            <AltitudeMeters>795.79998779296875</AltitudeMeters>
            <DistanceMeters>401292.63252259</DistanceMeters>
          </Trackpoint>
          <Trackpoint>
            <Time>2021-08-01T13:56:50.000Z</Time>
            <Position>
              <LatitudeDegrees>41.94994906894862651824951171875</LatitudeDegrees>
              <LongitudeDegrees>-1.95576547645032405853271484375</LongitudeDegrees>
            </Position>
            <AltitudeMeters>796.79998779296875</AltitudeMeters>
            <DistanceMeters>401300.20490567</DistanceMeters>
          </Trackpoint>
          <Trackpoint>
            <Time>2021-08-01T13:56:56.000Z</Time>
            <Position>
              <LatitudeDegrees>41.9499261863529682159423828125</LatitudeDegrees>
              <LongitudeDegrees>-1.95566388778388500213623046875</LongitudeDegrees>
            </Position>
            <AltitudeMeters>798</AltitudeMeters>
            <DistanceMeters>401308.99115194</DistanceMeters>
          </Trackpoint>
          <Trackpoint>
            <Time>2021-08-01T13:57:00.000Z</Time>
            <Position>
              <LatitudeDegrees>41.94990363903343677520751953125</LatitudeDegrees>
              <LongitudeDegrees>-1.9556031189858913421630859375</LongitudeDegrees>
            </Position>
            <AltitudeMeters>798.79998779296875</AltitudeMeters>
            <DistanceMeters>401314.61300818</DistanceMeters>
          </Trackpoint>
          <Trackpoint>
            <Time>2021-08-01T13:57:01.000Z</Time>
            <Position>
              <LatitudeDegrees>41.94989358074963092803955078125</LatitudeDegrees>
              <LongitudeDegrees>-1.95559297688305377960205078125</LongitudeDegrees>
            </Position>
            <AltitudeMeters>799</AltitudeMeters>
            <DistanceMeters>401316.0160608</DistanceMeters>
          </Trackpoint>
          <Trackpoint>
            <Time>2021-08-01T13:57:08.000Z</Time>
            <Position>
              <LatitudeDegrees>41.949820406734943389892578125</LatitudeDegrees>
              <LongitudeDegrees>-1.955506391823291778564453125</LongitudeDegrees>
            </Position>
            <AltitudeMeters>800</AltitudeMeters>
            <DistanceMeters>401326.86534863</DistanceMeters>
          </Trackpoint>
          <Trackpoint>
            <Time>2021-08-01T13:57:14.000Z</Time>
            <Position>
              <LatitudeDegrees>41.9497501663863658905029296875</LatitudeDegrees>
              <LongitudeDegrees>-1.9554616324603557586669921875</LongitudeDegrees>
            </Position>
            <AltitudeMeters>801.20001220703125</AltitudeMeters>
            <DistanceMeters>401335.51643374</DistanceMeters>
          </Trackpoint>
          <Trackpoint>
            <Time>2021-08-01T13:57:19.000Z</Time>
            <Position>
              <LatitudeDegrees>41.949683614075183868408203125</LatitudeDegrees>
              <LongitudeDegrees>-1.9554488919675350189208984375</LongitudeDegrees>
            </Position>
            <AltitudeMeters>802.4000244140625</AltitudeMeters>
            <DistanceMeters>401342.99824127</DistanceMeters>
          </Trackpoint>
          <Trackpoint>
            <Time>2021-08-01T13:57:26.000Z</Time>
            <Position>
              <LatitudeDegrees>41.94959149695932865142822265625</LatitudeDegrees>
              <LongitudeDegrees>-1.95544595830142498016357421875</LongitudeDegrees>
            </Position>
            <AltitudeMeters>803.4000244140625</AltitudeMeters>
            <DistanceMeters>401353.25452522</DistanceMeters>
          </Trackpoint>
          <Trackpoint>
            <Time>2021-08-01T13:57:31.000Z</Time>
            <Position>
              <LatitudeDegrees>41.9495295546948909759521484375</LatitudeDegrees>
              <LongitudeDegrees>-1.9554411806166172027587890625</LongitudeDegrees>
            </Position>
            <AltitudeMeters>804.4000244140625</AltitudeMeters>
            <DistanceMeters>401360.16081683</DistanceMeters>
          </Trackpoint>
          <Trackpoint>
            <Time>2021-08-01T13:57:36.000Z</Time>
            <Position>
              <LatitudeDegrees>41.94946761243045330047607421875</LatitudeDegrees>
              <LongitudeDegrees>-1.9554327987134456634521484375</LongitudeDegrees>
            </Position>
            <AltitudeMeters>805.4000244140625</AltitudeMeters>
            <DistanceMeters>401367.09060373</DistanceMeters>
          </Trackpoint>
          <Trackpoint>
            <Time>2021-08-01T13:57:43.000Z</Time>
            <Position>
              <LatitudeDegrees>41.94938647560775279998779296875</LatitudeDegrees>
              <LongitudeDegrees>-1.9554254226386547088623046875</LongitudeDegrees>
            </Position>
            <AltitudeMeters>806.4000244140625</AltitudeMeters>
            <DistanceMeters>401376.14161768</DistanceMeters>
          </Trackpoint>
          <Trackpoint>
            <Time>2021-08-01T13:57:44.000Z</Time>
            <Position>
              <LatitudeDegrees>41.94937390275299549102783203125</LatitudeDegrees>
              <LongitudeDegrees>-1.9554277695715427398681640625</LongitudeDegrees>
            </Position>
            <AltitudeMeters>806.4000244140625</AltitudeMeters>
            <DistanceMeters>401377.55429135</DistanceMeters>
          </Trackpoint>
          <Trackpoint>
            <Time>2021-08-01T13:57:50.000Z</Time>
            <Position>
              <LatitudeDegrees>41.94929997436702251434326171875</LatitudeDegrees>
              <LongitudeDegrees>-1.955421231687068939208984375</LongitudeDegrees>
            </Position>
            <AltitudeMeters>807.20001220703125</AltitudeMeters>
            <DistanceMeters>401385.80138391</DistanceMeters>
          </Trackpoint>
          <Trackpoint>
            <Time>2021-08-01T13:57:51.000Z</Time>
            <Position>
              <LatitudeDegrees>41.9492881558835506439208984375</LatitudeDegrees>
              <LongitudeDegrees>-1.9554203934967517852783203125</LongitudeDegrees>
            </Position>
            <AltitudeMeters>807.5999755859375</AltitudeMeters>
            <DistanceMeters>401387.12153722</DistanceMeters>
          </Trackpoint>
          <Trackpoint>
            <Time>2021-08-01T13:57:58.000Z</Time>
            <Position>
              <LatitudeDegrees>41.949202828109264373779296875</LatitudeDegrees>
              <LongitudeDegrees>-1.9554190523922443389892578125</LongitudeDegrees>
            </Position>
            <AltitudeMeters>808.5999755859375</AltitudeMeters>
            <DistanceMeters>401396.61850534</DistanceMeters>
          </Trackpoint>
          <Trackpoint>
            <Time>2021-08-01T13:58:04.000Z</Time>
            <Position>
              <LatitudeDegrees>41.94913208484649658203125</LatitudeDegrees>
              <LongitudeDegrees>-1.9554156996309757232666015625</LongitudeDegrees>
            </Position>
            <AltitudeMeters>809.4000244140625</AltitudeMeters>
            <DistanceMeters>401404.49713121</DistanceMeters>
          </Trackpoint>
          <Trackpoint>
            <Time>2021-08-01T13:58:10.000Z</Time>
            <Position>
              <LatitudeDegrees>41.94906092248857021331787109375</LatitudeDegrees>
              <LongitudeDegrees>-1.9554103352129459381103515625</LongitudeDegrees>
            </Position>
            <AltitudeMeters>810.4000244140625</AltitudeMeters>
            <DistanceMeters>401412.43058145</DistanceMeters>
          </Trackpoint>
          <Trackpoint>
            <Time>2021-08-01T13:58:16.000Z</Time>
            <Position>
              <LatitudeDegrees>41.9489870779216289520263671875</LatitudeDegrees>
              <LongitudeDegrees>-1.95540614426136016845703125</LongitudeDegrees>
            </Position>
            <AltitudeMeters>811.4000244140625</AltitudeMeters>
            <DistanceMeters>401420.65684384</DistanceMeters>
          </Trackpoint>
          <Trackpoint>
            <Time>2021-08-01T13:58:23.000Z</Time>
            <Position>
              <LatitudeDegrees>41.9489015825092792510986328125</LatitudeDegrees>
              <LongitudeDegrees>-1.95540203712880611419677734375</LongitudeDegrees>
            </Position>
            <AltitudeMeters>812.5999755859375</AltitudeMeters>
            <DistanceMeters>401430.17850165</DistanceMeters>
          </Trackpoint>
          <Trackpoint>
            <Time>2021-08-01T13:58:30.000Z</Time>
            <Position>
              <LatitudeDegrees>41.94881248287856578826904296875</LatitudeDegrees>
              <LongitudeDegrees>-1.9553918950259685516357421875</LongitudeDegrees>
            </Position>
            <AltitudeMeters>813.5999755859375</AltitudeMeters>
            <DistanceMeters>401440.13048027</DistanceMeters>
          </Trackpoint>
          <Trackpoint>
            <Time>2021-08-01T13:58:38.000Z</Time>
            <Position>
              <LatitudeDegrees>41.9487054459750652313232421875</LatitudeDegrees>
              <LongitudeDegrees>-1.95540203712880611419677734375</LongitudeDegrees>
            </Position>
            <AltitudeMeters>815</AltitudeMeters>
            <DistanceMeters>401452.07326292</DistanceMeters>
          </Trackpoint>
          <Trackpoint>
            <Time>2021-08-01T13:58:46.000Z</Time>
            <Position>
              <LatitudeDegrees>41.94860125891864299774169921875</LatitudeDegrees>
              <LongitudeDegrees>-1.9554269313812255859375</LongitudeDegrees>
            </Position>
            <AltitudeMeters>815.79998779296875</AltitudeMeters>
            <DistanceMeters>401463.85082652</DistanceMeters>
          </Trackpoint>
          <Trackpoint>
            <Time>2021-08-01T13:58:51.000Z</Time>
            <Position>
              <LatitudeDegrees>41.94853755645453929901123046875</LatitudeDegrees>
              <LongitudeDegrees>-1.955451071262359619140625</LongitudeDegrees>
            </Position>
            <AltitudeMeters>817</AltitudeMeters>
            <DistanceMeters>401471.21646969</DistanceMeters>
          </Trackpoint>
          <Trackpoint>
            <Time>2021-08-01T13:58:58.000Z</Time>
            <Position>
              <LatitudeDegrees>41.94845055229961872100830078125</LatitudeDegrees>
              <LongitudeDegrees>-1.95550404489040374755859375</LongitudeDegrees>
            </Position>
            <AltitudeMeters>818</AltitudeMeters>
            <DistanceMeters>401481.84672728</DistanceMeters>
          </Trackpoint>
          <Trackpoint>
            <Time>2021-08-01T13:59:05.000Z</Time>
            <Position>
              <LatitudeDegrees>41.94836287759244441986083984375</LatitudeDegrees>
              <LongitudeDegrees>-1.955552659928798675537109375</LongitudeDegrees>
            </Position>
            <AltitudeMeters>819.20001220703125</AltitudeMeters>
            <DistanceMeters>401492.40196689</DistanceMeters>
          </Trackpoint>
          <Trackpoint>
            <Time>2021-08-01T13:59:12.000Z</Time>
            <Position>
              <LatitudeDegrees>41.948280148208141326904296875</LatitudeDegrees>
              <LongitudeDegrees>-1.95560923777520656585693359375</LongitudeDegrees>
            </Position>
            <AltitudeMeters>820.4000244140625</AltitudeMeters>
            <DistanceMeters>401502.73238041</DistanceMeters>
          </Trackpoint>
          <Trackpoint>
            <Time>2021-08-01T13:59:17.000Z</Time>
            <Position>
              <LatitudeDegrees>41.94822206161916255950927734375</LatitudeDegrees>
              <LongitudeDegrees>-1.95565282367169857025146484375</LongitudeDegrees>
            </Position>
            <AltitudeMeters>821.4000244140625</AltitudeMeters>
            <DistanceMeters>401510.13593118</DistanceMeters>
          </Trackpoint>
          <Trackpoint>
            <Time>2021-08-01T13:59:23.000Z</Time>
            <Position>
              <LatitudeDegrees>41.948148049414157867431640625</LatitudeDegrees>
              <LongitudeDegrees>-1.9556966610252857208251953125</LongitudeDegrees>
            </Position>
            <AltitudeMeters>822.20001220703125</AltitudeMeters>
            <DistanceMeters>401519.13692256</DistanceMeters>
          </Trackpoint>
          <Trackpoint>
            <Time>2021-08-01T13:59:27.000Z</Time>
            <Position>
              <LatitudeDegrees>41.948096752166748046875</LatitudeDegrees>
              <LongitudeDegrees>-1.95572272874414920806884765625</LongitudeDegrees>
            </Position>
            <AltitudeMeters>823.20001220703125</AltitudeMeters>
            <DistanceMeters>401525.24086353</DistanceMeters>
          </Trackpoint>
          <Trackpoint>
            <Time>2021-08-01T13:59:33.000Z</Time>
            <Position>
              <LatitudeDegrees>41.94801452569663524627685546875</LatitudeDegrees>
              <LongitudeDegrees>-1.9557456113398075103759765625</LongitudeDegrees>
            </Position>
            <AltitudeMeters>824.4000244140625</AltitudeMeters>
            <DistanceMeters>401534.58687495</DistanceMeters>
          </Trackpoint>
          <Trackpoint>
            <Time>2021-08-01T13:59:40.000Z</Time>
            <Position>
              <LatitudeDegrees>41.947915367782115936279296875</LatitudeDegrees>
              <LongitudeDegrees>-1.95574435405433177947998046875</LongitudeDegrees>
            </Position>
            <AltitudeMeters>825.5999755859375</AltitudeMeters>
            <DistanceMeters>401545.62389136</DistanceMeters>
          </Trackpoint>
          <Trackpoint>
            <Time>2021-08-01T13:59:48.000Z</Time>
            <Position>
              <LatitudeDegrees>41.9478008709847927093505859375</LatitudeDegrees>
              <LongitudeDegrees>-1.9557389058172702789306640625</LongitudeDegrees>
            </Position>
            <AltitudeMeters>826.5999755859375</AltitudeMeters>
            <DistanceMeters>401558.37589578</DistanceMeters>
          </Trackpoint>
          <Trackpoint>
            <Time>2021-08-01T13:59:55.000Z</Time>
            <Position>
              <LatitudeDegrees>41.947698108851909637451171875</LatitudeDegrees>
              <LongitudeDegrees>-1.95573278702795505523681640625</LongitudeDegrees>
            </Position>
            <AltitudeMeters>827.5999755859375</AltitudeMeters>
            <DistanceMeters>401569.82415021</DistanceMeters>
          </Trackpoint>
          <Trackpoint>
            <Time>2021-08-01T14:00:03.000Z</Time>
            <Position>
              <LatitudeDegrees>41.94758168421685695648193359375</LatitudeDegrees>
              <LongitudeDegrees>-1.95572172291576862335205078125</LongitudeDegrees>
            </Position>
            <AltitudeMeters>828.5999755859375</AltitudeMeters>
            <DistanceMeters>401582.81468786</DistanceMeters>
          </Trackpoint>
          <Trackpoint>
            <Time>2021-08-01T14:00:13.000Z</Time>
            <Position>
              <LatitudeDegrees>41.9474541954696178436279296875</LatitudeDegrees>
              <LongitudeDegrees>-1.95568886585533618927001953125</LongitudeDegrees>
            </Position>
            <AltitudeMeters>829.5999755859375</AltitudeMeters>
            <DistanceMeters>401597.26281152</DistanceMeters>
          </Trackpoint>
          <Trackpoint>
            <Time>2021-08-01T14:00:22.000Z</Time>
            <Position>
              <LatitudeDegrees>41.94733391515910625457763671875</LatitudeDegrees>
              <LongitudeDegrees>-1.9556044600903987884521484375</LongitudeDegrees>
            </Position>
            <AltitudeMeters>830.5999755859375</AltitudeMeters>
            <DistanceMeters>401612.36398864</DistanceMeters>
          </Trackpoint>
          <Trackpoint>
            <Time>2021-08-01T14:00:26.000Z</Time>
            <Position>
              <LatitudeDegrees>41.94729007780551910400390625</LatitudeDegrees>
              <LongitudeDegrees>-1.95554587058722972869873046875</LongitudeDegrees>
            </Position>
            <AltitudeMeters>831.20001220703125</AltitudeMeters>
            <DistanceMeters>401619.24408026</DistanceMeters>
          </Trackpoint>
          <Trackpoint>
            <Time>2021-08-01T14:00:32.000Z</Time>
            <Position>
              <LatitudeDegrees>41.94724221713840961456298828125</LatitudeDegrees>
              <LongitudeDegrees>-1.95543673820793628692626953125</LongitudeDegrees>
            </Position>
            <AltitudeMeters>831.5999755859375</AltitudeMeters>
            <DistanceMeters>401629.7319476</DistanceMeters>
          </Trackpoint>
          <Trackpoint>
            <Time>2021-08-01T14:00:41.000Z</Time>
            <Position>
              <LatitudeDegrees>41.94722235202789306640625</LatitudeDegrees>
              <LongitudeDegrees>-1.955240853130817413330078125</LongitudeDegrees>
            </Position>
            <AltitudeMeters>832.5999755859375</AltitudeMeters>
            <DistanceMeters>401646.09752327</DistanceMeters>
          </Trackpoint>
          <Trackpoint>
            <Time>2021-08-01T14:00:48.000Z</Time>
            <Position>
              <LatitudeDegrees>41.9472446478903293609619140625</LatitudeDegrees>
              <LongitudeDegrees>-1.95506625808775424957275390625</LongitudeDegrees>
            </Position>
            <AltitudeMeters>833.79998779296875</AltitudeMeters>
            <DistanceMeters>401660.76214978</DistanceMeters>
          </Trackpoint>
          <Trackpoint>
            <Time>2021-08-01T14:01:00.000Z</Time>
            <Position>
              <LatitudeDegrees>41.9472674466669559478759765625</LatitudeDegrees>
              <LongitudeDegrees>-1.95476417429745197296142578125</LongitudeDegrees>
            </Position>
            <AltitudeMeters>834.5999755859375</AltitudeMeters>
            <DistanceMeters>401685.89774861</DistanceMeters>
          </Trackpoint>
          <Trackpoint>
            <Time>2021-08-01T14:01:19.000Z</Time>
            <Position>
              <LatitudeDegrees>41.94731715135276317596435546875</LatitudeDegrees>
              <LongitudeDegrees>-1.9543109647929668426513671875</LongitudeDegrees>
            </Position>
            <AltitudeMeters>835.5999755859375</AltitudeMeters>
            <DistanceMeters>401723.82090901</DistanceMeters>
          </Trackpoint>
          <Trackpoint>
            <Time>2021-08-01T14:01:25.000Z</Time>
            <Position>
              <LatitudeDegrees>41.947305835783481597900390625</LatitudeDegrees>
              <LongitudeDegrees>-1.95416637696325778961181640625</LongitudeDegrees>
            </Position>
            <AltitudeMeters>836.4000244140625</AltitudeMeters>
            <DistanceMeters>401735.85633406</DistanceMeters>
          </Trackpoint>
          <Trackpoint>
            <Time>2021-08-01T14:01:30.000Z</Time>
            <Position>
              <LatitudeDegrees>41.94724716246128082275390625</LatitudeDegrees>
              <LongitudeDegrees>-1.954067051410675048828125</LongitudeDegrees>
            </Position>
            <AltitudeMeters>837.5999755859375</AltitudeMeters>
            <DistanceMeters>401746.3566785</DistanceMeters>
          </Trackpoint>
          <Trackpoint>
            <Time>2021-08-01T14:01:38.000Z</Time>
            <Position>
              <LatitudeDegrees>41.94709293544292449951171875</LatitudeDegrees>
              <LongitudeDegrees>-1.9539959728717803955078125</LongitudeDegrees>
            </Position>
            <AltitudeMeters>838.79998779296875</AltitudeMeters>
            <DistanceMeters>401764.50304915</DistanceMeters>
          </Trackpoint>
          <Trackpoint>
            <Time>2021-08-01T14:01:50.000Z</Time>
            <Position>
              <LatitudeDegrees>41.9468520395457744598388671875</LatitudeDegrees>
              <LongitudeDegrees>-1.9539015926420688629150390625</LongitudeDegrees>
            </Position>
            <AltitudeMeters>839.79998779296875</AltitudeMeters>
            <DistanceMeters>401792.43023487</DistanceMeters>
          </Trackpoint>
          <Trackpoint>
            <Time>2021-08-01T14:01:57.000Z</Time>
            <Position>
              <LatitudeDegrees>41.94672371260821819305419921875</LatitudeDegrees>
              <LongitudeDegrees>-1.95383571088314056396484375</LongitudeDegrees>
            </Position>
            <AltitudeMeters>841</AltitudeMeters>
            <DistanceMeters>401807.71890809</DistanceMeters>
          </Trackpoint>
          <Trackpoint>
            <Time>2021-08-01T14:02:08.000Z</Time>
            <Position>
              <LatitudeDegrees>41.9465248100459575653076171875</LatitudeDegrees>
              <LongitudeDegrees>-1.95371610112488269805908203125</LongitudeDegrees>
            </Position>
            <AltitudeMeters>841.79998779296875</AltitudeMeters>
            <DistanceMeters>401831.97046286</DistanceMeters>
          </Trackpoint>
          <Trackpoint>
            <Time>2021-08-01T14:02:17.000Z</Time>
            <Position>
              <LatitudeDegrees>41.946353651583194732666015625</LatitudeDegrees>
              <LongitudeDegrees>-1.95360797457396984100341796875</LongitudeDegrees>
            </Position>
            <AltitudeMeters>843</AltitudeMeters>
            <DistanceMeters>401853.01882647</DistanceMeters>
          </Trackpoint>
          <Trackpoint>
            <Time>2021-08-01T14:02:29.000Z</Time>
            <Position>
              <LatitudeDegrees>41.9461305253207683563232421875</LatitudeDegrees>
              <LongitudeDegrees>-1.953482665121555328369140625</LongitudeDegrees>
            </Position>
            <AltitudeMeters>844</AltitudeMeters>
            <DistanceMeters>401879.93270044</DistanceMeters>
          </Trackpoint>
          <Trackpoint>
            <Time>2021-08-01T14:02:38.000Z</Time>
            <Position>
              <LatitudeDegrees>41.94595391862094402313232421875</LatitudeDegrees>
              <LongitudeDegrees>-1.953384764492511749267578125</LongitudeDegrees>
            </Position>
            <AltitudeMeters>844.79998779296875</AltitudeMeters>
            <DistanceMeters>401901.19470216</DistanceMeters>
          </Trackpoint>
          <Trackpoint>
            <Time>2021-08-01T14:02:48.000Z</Time>
            <Position>
              <LatitudeDegrees>41.94575560279190540313720703125</LatitudeDegrees>
              <LongitudeDegrees>-1.95336632430553436279296875</LongitudeDegrees>
            </Position>
            <AltitudeMeters>845.79998779296875</AltitudeMeters>
            <DistanceMeters>401923.32021919</DistanceMeters>
          </Trackpoint>
          <Trackpoint>
            <Time>2021-08-01T14:02:57.000Z</Time>
            <Position>
              <LatitudeDegrees>41.945594251155853271484375</LatitudeDegrees>
              <LongitudeDegrees>-1.9534613750874996185302734375</LongitudeDegrees>
            </Position>
            <AltitudeMeters>847</AltitudeMeters>
            <DistanceMeters>401942.9270653</DistanceMeters>
          </Trackpoint>
          <Trackpoint>
            <Time>2021-08-01T14:03:04.000Z</Time>
            <Position>
              <LatitudeDegrees>41.945471204817295074462890625</LatitudeDegrees>
              <LongitudeDegrees>-1.95353136397898197174072265625</LongitudeDegrees>
            </Position>
            <AltitudeMeters>848.4000244140625</AltitudeMeters>
            <DistanceMeters>401957.79745575</DistanceMeters>
          </Trackpoint>
          <Trackpoint>
            <Time>2021-08-01T14:03:09.000Z</Time>
            <Position>
              <LatitudeDegrees>41.94538042880594730377197265625</LatitudeDegrees>
              <LongitudeDegrees>-1.95356287993490695953369140625</LongitudeDegrees>
            </Position>
            <AltitudeMeters>849.4000244140625</AltitudeMeters>
            <DistanceMeters>401968.23223709</DistanceMeters>
          </Trackpoint>
          <Trackpoint>
            <Time>2021-08-01T14:03:17.000Z</Time>
            <Position>
              <LatitudeDegrees>41.945229135453701019287109375</LatitudeDegrees>
              <LongitudeDegrees>-1.95353823713958263397216796875</LongitudeDegrees>
            </Position>
            <AltitudeMeters>850.4000244140625</AltitudeMeters>
            <DistanceMeters>401985.19470524</DistanceMeters>
          </Trackpoint>
          <Trackpoint>
            <Time>2021-08-01T14:03:26.000Z</Time>
            <Position>
              <LatitudeDegrees>41.9450831227004528045654296875</LatitudeDegrees>
              <LongitudeDegrees>-1.95340747945010662078857421875</LongitudeDegrees>
            </Position>
            <AltitudeMeters>851.20001220703125</AltitudeMeters>
            <DistanceMeters>402004.72148116</DistanceMeters>
          </Trackpoint>
          <Trackpoint>
            <Time>2021-08-01T14:03:32.000Z</Time>
            <Position>
              <LatitudeDegrees>41.94499469362199306488037109375</LatitudeDegrees>
              <LongitudeDegrees>-1.95328292436897754669189453125</LongitudeDegrees>
            </Position>
            <AltitudeMeters>851.79998779296875</AltitudeMeters>
            <DistanceMeters>402018.97612182</DistanceMeters>
          </Trackpoint>
          <Trackpoint>
            <Time>2021-08-01T14:03:40.000Z</Time>
            <Position>
              <LatitudeDegrees>41.9448809511959552764892578125</LatitudeDegrees>
              <LongitudeDegrees>-1.95311042480170726776123046875</LongitudeDegrees>
            </Position>
            <AltitudeMeters>852.20001220703125</AltitudeMeters>
            <DistanceMeters>402038.06017388</DistanceMeters>
          </Trackpoint>
          <Trackpoint>
            <Time>2021-08-01T14:03:47.000Z</Time>
            <Position>
              <LatitudeDegrees>41.94478816352784633636474609375</LatitudeDegrees>
              <LongitudeDegrees>-1.95294111035764217376708984375</LongitudeDegrees>
            </Position>
            <AltitudeMeters>853.4000244140625</AltitudeMeters>
            <DistanceMeters>402055.47056176</DistanceMeters>
          </Trackpoint>
          <Trackpoint>
            <Time>2021-08-01T14:04:05.000Z</Time>
            <Position>
              <LatitudeDegrees>41.9447461701929569244384765625</LatitudeDegrees>
              <LongitudeDegrees>-1.95228028111159801483154296875</LongitudeDegrees>
            </Position>
            <AltitudeMeters>851.79998779296875</AltitudeMeters>
            <DistanceMeters>402110.37676378</DistanceMeters>
          </Trackpoint>
          <Trackpoint>
            <Time>2021-08-01T14:04:09.000Z</Time>
            <Position>
              <LatitudeDegrees>41.94469504058361053466796875</LatitudeDegrees>
              <LongitudeDegrees>-1.95208464749157428741455078125</LongitudeDegrees>
            </Position>
            <AltitudeMeters>850.5999755859375</AltitudeMeters>
            <DistanceMeters>402127.54322861</DistanceMeters>
          </Trackpoint>
          <Trackpoint>
            <Time>2021-08-01T14:04:13.000Z</Time>
            <Position>
              <LatitudeDegrees>41.94463108666241168975830078125</LatitudeDegrees>
              <LongitudeDegrees>-1.951867640018463134765625</LongitudeDegrees>
            </Position>
            <AltitudeMeters>849.20001220703125</AltitudeMeters>
            <DistanceMeters>402146.86709264</DistanceMeters>
          </Trackpoint>
          <Trackpoint>
            <Time>2021-08-01T14:04:16.000Z</Time>
            <Position>
              <LatitudeDegrees>41.94457811303436756134033203125</LatitudeDegrees>
              <LongitudeDegrees>-1.951695643365383148193359375</LongitudeDegrees>
            </Position>
            <AltitudeMeters>848</AltitudeMeters>
            <DistanceMeters>402162.27842194</DistanceMeters>
          </Trackpoint>
          <Trackpoint>
            <Time>2021-08-01T14:04:18.000Z</Time>
            <Position>
              <LatitudeDegrees>41.94454123266041278839111328125</LatitudeDegrees>
              <LongitudeDegrees>-1.95158273912966251373291015625</LongitudeDegrees>
            </Position>
            <AltitudeMeters>846.5999755859375</AltitudeMeters>
            <DistanceMeters>402172.48749351</DistanceMeters>
          </Trackpoint>
          <Trackpoint>
            <Time>2021-08-01T14:04:20.000Z</Time>
            <Position>
              <LatitudeDegrees>41.94450384937226772308349609375</LatitudeDegrees>
              <LongitudeDegrees>-1.951456256210803985595703125</LongitudeDegrees>
            </Position>
            <AltitudeMeters>845.4000244140625</AltitudeMeters>
            <DistanceMeters>402183.75527389</DistanceMeters>
          </Trackpoint>
          <Trackpoint>
            <Time>2021-08-01T14:04:23.000Z</Time>
            <Position>
              <LatitudeDegrees>41.9444420747458934783935546875</LatitudeDegrees>
              <LongitudeDegrees>-1.95123187266290187835693359375</LongitudeDegrees>
            </Position>
            <AltitudeMeters>843.5999755859375</AltitudeMeters>
            <DistanceMeters>402203.56281693</DistanceMeters>
          </Trackpoint>
          <Trackpoint>
            <Time>2021-08-01T14:04:25.000Z</Time>
            <Position>
              <LatitudeDegrees>41.944411061704158782958984375</LatitudeDegrees>
              <LongitudeDegrees>-1.95104965008795261383056640625</LongitudeDegrees>
            </Position>
            <AltitudeMeters>842</AltitudeMeters>
            <DistanceMeters>402219.03846514</DistanceMeters>
          </Trackpoint>
          <Trackpoint>
            <Time>2021-08-01T14:04:26.000Z</Time>
            <Position>
              <LatitudeDegrees>41.94440091960132122039794921875</LatitudeDegrees>
              <LongitudeDegrees>-1.95094873197376728057861328125</LongitudeDegrees>
            </Position>
            <AltitudeMeters>841</AltitudeMeters>
            <DistanceMeters>402227.46910757</DistanceMeters>
          </Trackpoint>
          <Trackpoint>
            <Time>2021-08-01T14:04:27.000Z</Time>
            <Position>
              <LatitudeDegrees>41.944393627345561981201171875</LatitudeDegrees>
              <LongitudeDegrees>-1.95084412582218647003173828125</LongitudeDegrees>
            </Position>
            <AltitudeMeters>839.4000244140625</AltitudeMeters>
            <DistanceMeters>402236.16703723</DistanceMeters>
          </Trackpoint>
          <Trackpoint>
            <Time>2021-08-01T14:04:28.000Z</Time>
            <Position>
              <LatitudeDegrees>41.94439019076526165008544921875</LatitudeDegrees>
              <LongitudeDegrees>-1.9507362507283687591552734375</LongitudeDegrees>
            </Position>
            <AltitudeMeters>838</AltitudeMeters>
            <DistanceMeters>402245.10561186</DistanceMeters>
          </Trackpoint>
          <Trackpoint>
            <Time>2021-08-01T14:04:30.000Z</Time>
            <Position>
              <LatitudeDegrees>41.9443921186029911041259765625</LatitudeDegrees>
              <LongitudeDegrees>-1.9505089335143566131591796875</LongitudeDegrees>
            </Position>
            <AltitudeMeters>836</AltitudeMeters>
            <DistanceMeters>402263.92546011</DistanceMeters>
          </Trackpoint>
          <Trackpoint>
            <Time>2021-08-01T14:04:32.000Z</Time>
            <Position>
              <LatitudeDegrees>41.944406032562255859375</LatitudeDegrees>
              <LongitudeDegrees>-1.95026963017880916595458984375</LongitudeDegrees>
            </Position>
            <AltitudeMeters>834.5999755859375</AltitudeMeters>
            <DistanceMeters>402283.79672537</DistanceMeters>
          </Trackpoint>
          <Trackpoint>
            <Time>2021-08-01T14:04:33.000Z</Time>
            <Position>
              <LatitudeDegrees>41.94442355073988437652587890625</LatitudeDegrees>
              <LongitudeDegrees>-1.95014708675444126129150390625</LongitudeDegrees>
            </Position>
            <AltitudeMeters>833.79998779296875</AltitudeMeters>
            <DistanceMeters>402294.12713888</DistanceMeters>
          </Trackpoint>
          <Trackpoint>
            <Time>2021-08-01T14:04:34.000Z</Time>
            <Position>
              <LatitudeDegrees>41.9444476068019866943359375</LatitudeDegrees>
              <LongitudeDegrees>-1.9500231184065341949462890625</LongitudeDegrees>
            </Position>
            <AltitudeMeters>833.20001220703125</AltitudeMeters>
            <DistanceMeters>402304.73358467</DistanceMeters>
          </Trackpoint>
          <Trackpoint>
            <Time>2021-08-01T14:04:36.000Z</Time>
            <Position>
              <LatitudeDegrees>41.94450183771550655364990234375</LatitudeDegrees>
              <LongitudeDegrees>-1.9497683085501194000244140625</LongitudeDegrees>
            </Position>
            <AltitudeMeters>831.5999755859375</AltitudeMeters>
            <DistanceMeters>402326.67488057</DistanceMeters>
          </Trackpoint>
          <Trackpoint>
            <Time>2021-08-01T14:04:37.000Z</Time>
            <Position>
              <LatitudeDegrees>41.944529749453067779541015625</LatitudeDegrees>
              <LongitudeDegrees>-1.94963796995580196380615234375</LongitudeDegrees>
            </Position>
            <AltitudeMeters>829.79998779296875</AltitudeMeters>
            <DistanceMeters>402337.90372545</DistanceMeters>
          </Trackpoint>
          <Trackpoint>
            <Time>2021-08-01T14:04:38.000Z</Time>
            <Position>
              <LatitudeDegrees>41.94455900229513645172119140625</LatitudeDegrees>
              <LongitudeDegrees>-1.94950620643794536590576171875</LongitudeDegrees>
            </Position>
            <AltitudeMeters>828.79998779296875</AltitudeMeters>
            <DistanceMeters>402349.28751335</DistanceMeters>
          </Trackpoint>
          <Trackpoint>
            <Time>2021-08-01T14:04:40.000Z</Time>
            <Position>
              <LatitudeDegrees>41.94461717270314693450927734375</LatitudeDegrees>
              <LongitudeDegrees>-1.949242092669010162353515625</LongitudeDegrees>
            </Position>
            <AltitudeMeters>827.20001220703125</AltitudeMeters>
            <DistanceMeters>402372.09075702</DistanceMeters>
          </Trackpoint>
          <Trackpoint>
            <Time>2021-08-01T14:04:43.000Z</Time>
            <Position>
              <LatitudeDegrees>41.9447069428861141204833984375</LatitudeDegrees>
              <LongitudeDegrees>-1.94884269498288631439208984375</LongitudeDegrees>
            </Position>
            <AltitudeMeters>825.79998779296875</AltitudeMeters>
            <DistanceMeters>402406.63162789</DistanceMeters>
          </Trackpoint>
          <Trackpoint>
            <Time>2021-08-01T14:04:45.000Z</Time>
            <Position>
              <LatitudeDegrees>41.94476905278861522674560546875</LatitudeDegrees>
              <LongitudeDegrees>-1.948568858206272125244140625</LongitudeDegrees>
            </Position>
            <AltitudeMeters>824.79998779296875</AltitudeMeters>
            <DistanceMeters>402430.33160289</DistanceMeters>
          </Trackpoint>
          <Trackpoint>
            <Time>2021-08-01T14:04:51.000Z</Time>
            <Position>
              <LatitudeDegrees>41.9449359364807605743408203125</LatitudeDegrees>
              <LongitudeDegrees>-1.94774433039128780364990234375</LongitudeDegrees>
            </Position>
            <AltitudeMeters>824.5999755859375</AltitudeMeters>
            <DistanceMeters>402501.0724021</DistanceMeters>
          </Trackpoint>
          <Trackpoint>
            <Time>2021-08-01T14:04:54.000Z</Time>
            <Position>
              <LatitudeDegrees>41.944965608417987823486328125</LatitudeDegrees>
              <LongitudeDegrees>-1.94733847863972187042236328125</LongitudeDegrees>
            </Position>
            <AltitudeMeters>823</AltitudeMeters>
            <DistanceMeters>402534.83270703</DistanceMeters>
          </Trackpoint>
          <Trackpoint>
            <Time>2021-08-01T14:04:56.000Z</Time>
            <Position>
              <LatitudeDegrees>41.94496250711381435394287109375</LatitudeDegrees>
              <LongitudeDegrees>-1.94707428105175495147705078125</LongitudeDegrees>
            </Position>
            <AltitudeMeters>821.4000244140625</AltitudeMeters>
            <DistanceMeters>402556.7070228</DistanceMeters>
          </Trackpoint>
          <Trackpoint>
            <Time>2021-08-01T14:04:57.000Z</Time>
            <Position>
              <LatitudeDegrees>41.9449607469141483306884765625</LatitudeDegrees>
              <LongitudeDegrees>-1.946948133409023284912109375</LongitudeDegrees>
            </Position>
            <AltitudeMeters>820</AltitudeMeters>
            <DistanceMeters>402567.1517513</DistanceMeters>
          </Trackpoint>
          <Trackpoint>
            <Time>2021-08-01T14:04:59.000Z</Time>
            <Position>
              <LatitudeDegrees>41.94495747797191143035888671875</LatitudeDegrees>
              <LongitudeDegrees>-1.94670380093157291412353515625</LongitudeDegrees>
            </Position>
            <AltitudeMeters>818.79998779296875</AltitudeMeters>
            <DistanceMeters>402587.38195458</DistanceMeters>
          </Trackpoint>
          <Trackpoint>
            <Time>2021-08-01T14:05:01.000Z</Time>
            <Position>
              <LatitudeDegrees>41.94493585266172885894775390625</LatitudeDegrees>
              <LongitudeDegrees>-1.946459971368312835693359375</LongitudeDegrees>
            </Position>
            <AltitudeMeters>818.20001220703125</AltitudeMeters>
            <DistanceMeters>402607.71056541</DistanceMeters>
          </Trackpoint>
          <Trackpoint>
            <Time>2021-08-01T14:05:03.000Z</Time>
            <Position>
              <LatitudeDegrees>41.94483560509979724884033203125</LatitudeDegrees>
              <LongitudeDegrees>-1.946243382990360260009765625</LongitudeDegrees>
            </Position>
            <AltitudeMeters>817.5999755859375</AltitudeMeters>
            <DistanceMeters>402628.82917038</DistanceMeters>
          </Trackpoint>
          <Trackpoint>
            <Time>2021-08-01T14:05:06.000Z</Time>
            <Position>
              <LatitudeDegrees>41.9445694796741008758544921875</LatitudeDegrees>
              <LongitudeDegrees>-1.94609996862709522247314453125</LongitudeDegrees>
            </Position>
            <AltitudeMeters>816.5999755859375</AltitudeMeters>
            <DistanceMeters>402660.74018243</DistanceMeters>
          </Trackpoint>
          <Trackpoint>
            <Time>2021-08-01T14:05:07.000Z</Time>
            <Position>
              <LatitudeDegrees>41.94448155350983142852783203125</LatitudeDegrees>
              <LongitudeDegrees>-1.9460564665496349334716796875</LongitudeDegrees>
            </Position>
            <AltitudeMeters>816.5999755859375</AltitudeMeters>
            <DistanceMeters>402671.16803842</DistanceMeters>
          </Trackpoint>
          <Trackpoint>
            <Time>2021-08-01T14:05:12.000Z</Time>
            <Position>
              <LatitudeDegrees>41.94424971006810665130615234375</LatitudeDegrees>
              <LongitudeDegrees>-1.9455792009830474853515625</LongitudeDegrees>
            </Position>
            <AltitudeMeters>815.5999755859375</AltitudeMeters>
            <DistanceMeters>402718.35892094</DistanceMeters>
          </Trackpoint>
          <Trackpoint>
            <Time>2021-08-01T14:05:13.000Z</Time>
            <Position>
              <LatitudeDegrees>41.94422573782503604888916015625</LatitudeDegrees>
              <LongitudeDegrees>-1.94546747021377086639404296875</LongitudeDegrees>
            </Position>
            <AltitudeMeters>814.20001220703125</AltitudeMeters>
            <DistanceMeters>402727.98621051</DistanceMeters>
          </Trackpoint>
          <Trackpoint>
            <Time>2021-08-01T14:05:15.000Z</Time>
            <Position>
              <LatitudeDegrees>41.94417226128280162811279296875</LatitudeDegrees>
              <LongitudeDegrees>-1.9452501274645328521728515625</LongitudeDegrees>
            </Position>
            <AltitudeMeters>813</AltitudeMeters>
            <DistanceMeters>402746.93802548</DistanceMeters>
          </Trackpoint>
          <Trackpoint>
            <Time>2021-08-01T14:05:22.000Z</Time>
            <Position>
              <LatitudeDegrees>41.9439871050417423248291015625</LatitudeDegrees>
              <LongitudeDegrees>-1.94447589106857776641845703125</LongitudeDegrees>
            </Position>
            <AltitudeMeters>812.20001220703125</AltitudeMeters>
            <DistanceMeters>402814.26564295</DistanceMeters>
          </Trackpoint>
          <Trackpoint>
            <Time>2021-08-01T14:05:24.000Z</Time>
            <Position>
              <LatitudeDegrees>41.94392868317663669586181640625</LatitudeDegrees>
              <LongitudeDegrees>-1.94425175897777080535888671875</LongitudeDegrees>
            </Position>
            <AltitudeMeters>811.5999755859375</AltitudeMeters>
            <DistanceMeters>402833.927219</DistanceMeters>
          </Trackpoint>
          <Trackpoint>
            <Time>2021-08-01T14:05:26.000Z</Time>
            <Position>
              <LatitudeDegrees>41.943885348737239837646484375</LatitudeDegrees>
              <LongitudeDegrees>-1.9440220110118389129638671875</LongitudeDegrees>
            </Position>
            <AltitudeMeters>810.79998779296875</AltitudeMeters>
            <DistanceMeters>402853.54925761</DistanceMeters>
          </Trackpoint>
          <Trackpoint>
            <Time>2021-08-01T14:05:27.000Z</Time>
            <Position>
              <LatitudeDegrees>41.9438892044126987457275390625</LatitudeDegrees>
              <LongitudeDegrees>-1.94390575401484966278076171875</LongitudeDegrees>
            </Position>
            <AltitudeMeters>809.79998779296875</AltitudeMeters>
            <DistanceMeters>402863.18311072</DistanceMeters>
          </Trackpoint>
          <Trackpoint>
            <Time>2021-08-01T14:05:28.000Z</Time>
            <Position>
              <LatitudeDegrees>41.94391795434057712554931640625</LatitudeDegrees>
              <LongitudeDegrees>-1.9437967054545879364013671875</LongitudeDegrees>
            </Position>
            <AltitudeMeters>808.20001220703125</AltitudeMeters>
            <DistanceMeters>402872.76150185</DistanceMeters>
          </Trackpoint>
          <Trackpoint>
            <Time>2021-08-01T14:05:30.000Z</Time>
            <Position>
              <LatitudeDegrees>41.9440296851098537445068359375</LatitudeDegrees>
              <LongitudeDegrees>-1.9436158239841461181640625</LongitudeDegrees>
            </Position>
            <AltitudeMeters>806.79998779296875</AltitudeMeters>
            <DistanceMeters>402892.22644335</DistanceMeters>
          </Trackpoint>
          <Trackpoint>
            <Time>2021-08-01T14:05:31.000Z</Time>
            <Position>
              <LatitudeDegrees>41.944091878831386566162109375</LatitudeDegrees>
              <LongitudeDegrees>-1.9435301609337329864501953125</LongitudeDegrees>
            </Position>
            <AltitudeMeters>804.79998779296875</AltitudeMeters>
            <DistanceMeters>402902.13613968</DistanceMeters>
          </Trackpoint>
          <Trackpoint>
            <Time>2021-08-01T14:05:32.000Z</Time>
            <Position>
              <LatitudeDegrees>41.94414946250617504119873046875</LatitudeDegrees>
              <LongitudeDegrees>-1.9434387981891632080078125</LongitudeDegrees>
            </Position>
            <AltitudeMeters>803.4000244140625</AltitudeMeters>
            <DistanceMeters>402912.04993572</DistanceMeters>
          </Trackpoint>
          <Trackpoint>
            <Time>2021-08-01T14:05:34.000Z</Time>
            <Position>
              <LatitudeDegrees>41.9442439265549182891845703125</LatitudeDegrees>
              <LongitudeDegrees>-1.943235956132411956787109375</LongitudeDegrees>
            </Position>
            <AltitudeMeters>802.20001220703125</AltitudeMeters>
            <DistanceMeters>402931.86249293</DistanceMeters>
          </Trackpoint>
          <Trackpoint>
            <Time>2021-08-01T14:05:36.000Z</Time>
            <Position>
              <LatitudeDegrees>41.9442985765635967254638671875</LatitudeDegrees>
              <LongitudeDegrees>-1.943003945052623748779296875</LongitudeDegrees>
            </Position>
            <AltitudeMeters>802</AltitudeMeters>
            <DistanceMeters>402952.00994925</DistanceMeters>
          </Trackpoint>
          <Trackpoint>
            <Time>2021-08-01T14:05:40.000Z</Time>
            <Position>
              <LatitudeDegrees>41.94434409029781818389892578125</LatitudeDegrees>
              <LongitudeDegrees>-1.94251486100256443023681640625</LongitudeDegrees>
            </Position>
            <AltitudeMeters>802.20001220703125</AltitudeMeters>
            <DistanceMeters>402992.81493381</DistanceMeters>
          </Trackpoint>
          <Trackpoint>
            <Time>2021-08-01T14:05:47.000Z</Time>
            <Position>
              <LatitudeDegrees>41.94424367509782314300537109375</LatitudeDegrees>
              <LongitudeDegrees>-1.94171891547739505767822265625</LongitudeDegrees>
            </Position>
            <AltitudeMeters>803.20001220703125</AltitudeMeters>
            <DistanceMeters>403059.64918861</DistanceMeters>
          </Trackpoint>
          <Trackpoint>
            <Time>2021-08-01T14:05:52.000Z</Time>
            <Position>
              <LatitudeDegrees>41.94413320161402225494384765625</LatitudeDegrees>
              <LongitudeDegrees>-1.94122689776122570037841796875</LongitudeDegrees>
            </Position>
            <AltitudeMeters>804.4000244140625</AltitudeMeters>
            <DistanceMeters>403102.19686275</DistanceMeters>
          </Trackpoint>
          <Trackpoint>
            <Time>2021-08-01T14:06:00.000Z</Time>
            <Position>
              <LatitudeDegrees>41.943928934633731842041015625</LatitudeDegrees>
              <LongitudeDegrees>-1.94055877625942230224609375</LongitudeDegrees>
            </Position>
            <AltitudeMeters>805</AltitudeMeters>
            <DistanceMeters>403161.99849613</DistanceMeters>
          </Trackpoint>
          <Trackpoint>
            <Time>2021-08-01T14:06:06.000Z</Time>
            <Position>
              <LatitudeDegrees>41.943710334599018096923828125</LatitudeDegrees>
              <LongitudeDegrees>-1.9401988573372364044189453125</LongitudeDegrees>
            </Position>
            <AltitudeMeters>805.4000244140625</AltitudeMeters>
            <DistanceMeters>403200.46671389</DistanceMeters>
          </Trackpoint>
          <Trackpoint>
            <Time>2021-08-01T14:06:15.000Z</Time>
            <Position>
              <LatitudeDegrees>41.94339341484010219573974609375</LatitudeDegrees>
              <LongitudeDegrees>-1.939773224294185638427734375</LongitudeDegrees>
            </Position>
            <AltitudeMeters>806.5999755859375</AltitudeMeters>
            <DistanceMeters>403250.32532111</DistanceMeters>
          </Trackpoint>
          <Trackpoint>
            <Time>2021-08-01T14:06:28.000Z</Time>
            <Position>
              <LatitudeDegrees>41.94288882426917552947998046875</LatitudeDegrees>
              <LongitudeDegrees>-1.93944054655730724334716796875</LongitudeDegrees>
            </Position>
            <AltitudeMeters>806.4000244140625</AltitudeMeters>
            <DistanceMeters>403312.87686787</DistanceMeters>
          </Trackpoint>
          <Trackpoint>
            <Time>2021-08-01T14:06:35.000Z</Time>
            <Position>
              <LatitudeDegrees>41.9426344335079193115234375</LatitudeDegrees>
              <LongitudeDegrees>-1.93934164009988307952880859375</LongitudeDegrees>
            </Position>
            <AltitudeMeters>805.4000244140625</AltitudeMeters>
            <DistanceMeters>403342.35139135</DistanceMeters>
          </Trackpoint>
          <Trackpoint>
            <Time>2021-08-01T14:06:47.000Z</Time>
            <Position>
              <LatitudeDegrees>41.94231047295033931732177734375</LatitudeDegrees>
              <LongitudeDegrees>-1.9392688013613224029541015625</LongitudeDegrees>
            </Position>
            <AltitudeMeters>804.20001220703125</AltitudeMeters>
            <DistanceMeters>403378.90963932</DistanceMeters>
          </Trackpoint>
          <Trackpoint>
            <Time>2021-08-01T14:06:54.000Z</Time>
            <Position>
              <LatitudeDegrees>41.94205314852297306060791015625</LatitudeDegrees>
              <LongitudeDegrees>-1.93931481800973415374755859375</LongitudeDegrees>
            </Position>
            <AltitudeMeters>803.20001220703125</AltitudeMeters>
            <DistanceMeters>403407.80244892</DistanceMeters>
          </Trackpoint>
          <Trackpoint>
            <Time>2021-08-01T14:06:58.000Z</Time>
            <Position>
              <LatitudeDegrees>41.94187025539577007293701171875</LatitudeDegrees>
              <LongitudeDegrees>-1.93935169838368892669677734375</LongitudeDegrees>
            </Position>
            <AltitudeMeters>802</AltitudeMeters>
            <DistanceMeters>403428.38642854</DistanceMeters>
          </Trackpoint>
          <Trackpoint>
            <Time>2021-08-01T14:07:02.000Z</Time>
            <Position>
              <LatitudeDegrees>41.94168166257441043853759765625</LatitudeDegrees>
              <LongitudeDegrees>-1.93941003642976284027099609375</LongitudeDegrees>
            </Position>
            <AltitudeMeters>800.79998779296875</AltitudeMeters>
            <DistanceMeters>403449.92544447</DistanceMeters>
          </Trackpoint>
          <Trackpoint>
            <Time>2021-08-01T14:07:04.000Z</Time>
            <Position>
              <LatitudeDegrees>41.94157890044152736663818359375</LatitudeDegrees>
              <LongitudeDegrees>-1.93943224847316741943359375</LongitudeDegrees>
            </Position>
            <AltitudeMeters>799.5999755859375</AltitudeMeters>
            <DistanceMeters>403461.51013248</DistanceMeters>
          </Trackpoint>
          <Trackpoint>
            <Time>2021-08-01T14:07:06.000Z</Time>
            <Position>
              <LatitudeDegrees>41.94145090878009796142578125</LatitudeDegrees>
              <LongitudeDegrees>-1.93943618796765804290771484375</LongitudeDegrees>
            </Position>
            <AltitudeMeters>798.20001220703125</AltitudeMeters>
            <DistanceMeters>403475.7593875</DistanceMeters>
          </Trackpoint>
          <Trackpoint>
            <Time>2021-08-01T14:07:08.000Z</Time>
            <Position>
              <LatitudeDegrees>41.94130347110331058502197265625</LatitudeDegrees>
              <LongitudeDegrees>-1.93947860039770603179931640625</LongitudeDegrees>
            </Position>
            <AltitudeMeters>796.5999755859375</AltitudeMeters>
            <DistanceMeters>403492.54068555</DistanceMeters>
          </Trackpoint>
          <Trackpoint>
            <Time>2021-08-01T14:07:09.000Z</Time>
            <Position>
              <LatitudeDegrees>41.94122669287025928497314453125</LatitudeDegrees>
              <LongitudeDegrees>-1.93951631896197795867919921875</LongitudeDegrees>
            </Position>
            <AltitudeMeters>794.5999755859375</AltitudeMeters>
            <DistanceMeters>403501.63946243</DistanceMeters>
          </Trackpoint>
          <Trackpoint>
            <Time>2021-08-01T14:07:10.000Z</Time>
            <Position>
              <LatitudeDegrees>41.941150166094303131103515625</LatitudeDegrees>
              <LongitudeDegrees>-1.93956107832491397857666015625</LongitudeDegrees>
            </Position>
            <AltitudeMeters>793</AltitudeMeters>
            <DistanceMeters>403510.9278073</DistanceMeters>
          </Trackpoint>
          <Trackpoint>
            <Time>2021-08-01T14:07:11.000Z</Time>
            <Position>
              <LatitudeDegrees>41.9410738907754421234130859375</LatitudeDegrees>
              <LongitudeDegrees>-1.9396077655255794525146484375</LongitudeDegrees>
            </Position>
            <AltitudeMeters>792</AltitudeMeters>
            <DistanceMeters>403520.25592697</DistanceMeters>
          </Trackpoint>
          <Trackpoint>
            <Time>2021-08-01T14:07:18.000Z</Time>
            <Position>
              <LatitudeDegrees>41.9407875649631023406982421875</LatitudeDegrees>
              <LongitudeDegrees>-1.93973039276897907257080078125</LongitudeDegrees>
            </Position>
            <AltitudeMeters>793.20001220703125</AltitudeMeters>
            <DistanceMeters>403553.7026307</DistanceMeters>
          </Trackpoint>
          <Trackpoint>
            <Time>2021-08-01T14:10:48.000Z</Time>
            <Position>
              <LatitudeDegrees>41.9407637603580951690673828125</LatitudeDegrees>
              <LongitudeDegrees>-1.93972058594226837158203125</LongitudeDegrees>
            </Position>
            <AltitudeMeters>793.79998779296875</AltitudeMeters>
            <DistanceMeters>403556.4731117</DistanceMeters>
          </Trackpoint>
          <Trackpoint>
            <Time>2021-08-01T14:10:54.000Z</Time>
            <Position>
              <LatitudeDegrees>41.94066326133906841278076171875</LatitudeDegrees>
              <LongitudeDegrees>-1.93968395702540874481201171875</LongitudeDegrees>
            </Position>
            <AltitudeMeters>793.5999755859375</AltitudeMeters>
            <DistanceMeters>403568.06286524</DistanceMeters>
          </Trackpoint>
          <Trackpoint>
            <Time>2021-08-01T14:10:57.000Z</Time>
            <Position>
              <LatitudeDegrees>41.94061565212905406951904296875</LatitudeDegrees>
              <LongitudeDegrees>-1.93967540748417377471923828125</LongitudeDegrees>
            </Position>
            <AltitudeMeters>793</AltitudeMeters>
            <DistanceMeters>403573.40890975</DistanceMeters>
          </Trackpoint>
          <Trackpoint>
            <Time>2021-08-01T14:11:10.000Z</Time>
            <Position>
              <LatitudeDegrees>41.94044373929500579833984375</LatitudeDegrees>
              <LongitudeDegrees>-1.93955822847783565521240234375</LongitudeDegrees>
            </Position>
            <AltitudeMeters>795</AltitudeMeters>
            <DistanceMeters>403594.86180876</DistanceMeters>
          </Trackpoint>
          <Trackpoint>
            <Time>2021-08-01T14:11:28.000Z</Time>
            <Position>
              <LatitudeDegrees>41.94012061692774295806884765625</LatitudeDegrees>
              <LongitudeDegrees>-1.93921767175197601318359375</LongitudeDegrees>
            </Position>
            <AltitudeMeters>794</AltitudeMeters>
            <DistanceMeters>403640.56066848</DistanceMeters>
          </Trackpoint>
          <Trackpoint>
            <Time>2021-08-01T14:11:29.000Z</Time>
            <Position>
              <LatitudeDegrees>41.940075270831584930419921875</LatitudeDegrees>
              <LongitudeDegrees>-1.9391980580985546112060546875</LongitudeDegrees>
            </Position>
            <AltitudeMeters>793.5999755859375</AltitudeMeters>
            <DistanceMeters>403645.86261416</DistanceMeters>
          </Trackpoint>
          <Trackpoint>
            <Time>2021-08-01T14:11:32.000Z</Time>
            <Position>
              <LatitudeDegrees>41.939918361604213714599609375</LatitudeDegrees>
              <LongitudeDegrees>-1.93913779221475124359130859375</LongitudeDegrees>
            </Position>
            <AltitudeMeters>792.20001220703125</AltitudeMeters>
            <DistanceMeters>403664.02539898</DistanceMeters>
          </Trackpoint>
          <Trackpoint>
            <Time>2021-08-01T14:11:34.000Z</Time>
            <Position>
              <LatitudeDegrees>41.93979690782725811004638671875</LatitudeDegrees>
              <LongitudeDegrees>-1.93910728208720684051513671875</LongitudeDegrees>
            </Position>
            <AltitudeMeters>790.79998779296875</AltitudeMeters>
            <DistanceMeters>403677.77737669</DistanceMeters>
          </Trackpoint>
          <Trackpoint>
            <Time>2021-08-01T14:11:38.000Z</Time>
            <Position>
              <LatitudeDegrees>41.93951276130974292755126953125</LatitudeDegrees>
              <LongitudeDegrees>-1.93904492072761058807373046875</LongitudeDegrees>
            </Position>
            <AltitudeMeters>789.5999755859375</AltitudeMeters>
            <DistanceMeters>403709.82209815</DistanceMeters>
          </Trackpoint>
          <Trackpoint>
            <Time>2021-08-01T14:11:39.000Z</Time>
            <Position>
              <LatitudeDegrees>41.9394360668957233428955078125</LatitudeDegrees>
              <LongitudeDegrees>-1.93901709280908107757568359375</LongitudeDegrees>
            </Position>
            <AltitudeMeters>788.5999755859375</AltitudeMeters>
            <DistanceMeters>403718.66417945</DistanceMeters>
          </Trackpoint>
          <Trackpoint>
            <Time>2021-08-01T14:11:42.000Z</Time>
            <Position>
              <LatitudeDegrees>41.93922869861125946044921875</LatitudeDegrees>
              <LongitudeDegrees>-1.9389197789132595062255859375</LongitudeDegrees>
            </Position>
            <AltitudeMeters>787.5999755859375</AltitudeMeters>
            <DistanceMeters>403743.1106213</DistanceMeters>
          </Trackpoint>
          <Trackpoint>
            <Time>2021-08-01T14:11:44.000Z</Time>
            <Position>
              <LatitudeDegrees>41.9391504116356372833251953125</LatitudeDegrees>
              <LongitudeDegrees>-1.93880905397236347198486328125</LongitudeDegrees>
            </Position>
            <AltitudeMeters>787.5999755859375</AltitudeMeters>
            <DistanceMeters>403755.75810224</DistanceMeters>
          </Trackpoint>
          <Trackpoint>
            <Time>2021-08-01T14:11:47.000Z</Time>
            <Position>
              <LatitudeDegrees>41.9390870444476604461669921875</LatitudeDegrees>
              <LongitudeDegrees>-1.938633620738983154296875</LongitudeDegrees>
            </Position>
            <AltitudeMeters>788.79998779296875</AltitudeMeters>
            <DistanceMeters>403771.90453643</DistanceMeters>
          </Trackpoint>
          <Trackpoint>
            <Time>2021-08-01T14:11:51.000Z</Time>
            <Position>
              <LatitudeDegrees>41.939024515450000762939453125</LatitudeDegrees>
              <LongitudeDegrees>-1.93845148198306560516357421875</LongitudeDegrees>
            </Position>
            <AltitudeMeters>789.5999755859375</AltitudeMeters>
            <DistanceMeters>403788.51274871</DistanceMeters>
          </Trackpoint>
          <Trackpoint>
            <Time>2021-08-01T14:11:55.000Z</Time>
            <Position>
              <LatitudeDegrees>41.93895268253982067108154296875</LatitudeDegrees>
              <LongitudeDegrees>-1.93832441233098506927490234375</LongitudeDegrees>
            </Position>
            <AltitudeMeters>790.5999755859375</AltitudeMeters>
            <DistanceMeters>403801.72658835</DistanceMeters>
          </Trackpoint>
          <Trackpoint>
            <Time>2021-08-01T14:12:00.000Z</Time>
            <Position>
              <LatitudeDegrees>41.93887489847838878631591796875</LatitudeDegrees>
              <LongitudeDegrees>-1.93822852335870265960693359375</LongitudeDegrees>
            </Position>
            <AltitudeMeters>791.5999755859375</AltitudeMeters>
            <DistanceMeters>403813.47344317</DistanceMeters>
          </Trackpoint>
          <Trackpoint>
            <Time>2021-08-01T14:12:06.000Z</Time>
            <Position>
              <LatitudeDegrees>41.9387908279895782470703125</LatitudeDegrees>
              <LongitudeDegrees>-1.9381519965827465057373046875</LongitudeDegrees>
            </Position>
            <AltitudeMeters>792.79998779296875</AltitudeMeters>
            <DistanceMeters>403824.77403347</DistanceMeters>
          </Trackpoint>
          <Trackpoint>
            <Time>2021-08-01T14:12:15.000Z</Time>
            <Position>
              <LatitudeDegrees>41.93866048939526081085205078125</LatitudeDegrees>
              <LongitudeDegrees>-1.938043870031833648681640625</LongitudeDegrees>
            </Position>
            <AltitudeMeters>794</AltitudeMeters>
            <DistanceMeters>403841.82093612</DistanceMeters>
          </Trackpoint>
          <Trackpoint>
            <Time>2021-08-01T14:12:19.000Z</Time>
            <Position>
              <LatitudeDegrees>41.93860852159559726715087890625</LatitudeDegrees>
              <LongitudeDegrees>-1.93800128996372222900390625</LongitudeDegrees>
            </Position>
            <AltitudeMeters>795.20001220703125</AltitudeMeters>
            <DistanceMeters>403848.59521457</DistanceMeters>
          </Trackpoint>
          <Trackpoint>
            <Time>2021-08-01T14:12:31.000Z</Time>
            <Position>
              <LatitudeDegrees>41.93849301896989345550537109375</LatitudeDegrees>
              <LongitudeDegrees>-1.93782619200646877288818359375</LongitudeDegrees>
            </Position>
            <AltitudeMeters>796.4000244140625</AltitudeMeters>
            <DistanceMeters>403867.97134572</DistanceMeters>
          </Trackpoint>
          <Trackpoint>
            <Time>2021-08-01T14:12:36.000Z</Time>
            <Position>
              <LatitudeDegrees>41.9384644366800785064697265625</LatitudeDegrees>
              <LongitudeDegrees>-1.93775310181081295013427734375</LongitudeDegrees>
            </Position>
            <AltitudeMeters>797.4000244140625</AltitudeMeters>
            <DistanceMeters>403874.80798785</DistanceMeters>
          </Trackpoint>
          <Trackpoint>
            <Time>2021-08-01T14:12:49.000Z</Time>
            <Position>
              <LatitudeDegrees>41.93840819410979747772216796875</LatitudeDegrees>
              <LongitudeDegrees>-1.9375716336071491241455078125</LongitudeDegrees>
            </Position>
            <AltitudeMeters>798.4000244140625</AltitudeMeters>
            <DistanceMeters>403891.08448572</DistanceMeters>
          </Trackpoint>
          <Trackpoint>
            <Time>2021-08-01T14:12:53.000Z</Time>
            <Position>
              <LatitudeDegrees>41.9383930228650569915771484375</LatitudeDegrees>
              <LongitudeDegrees>-1.937523186206817626953125</LongitudeDegrees>
            </Position>
            <AltitudeMeters>799.5999755859375</AltitudeMeters>
            <DistanceMeters>403895.43708269</DistanceMeters>
          </Trackpoint>
          <Trackpoint>
            <Time>2021-08-01T14:12:57.000Z</Time>
            <Position>
              <LatitudeDegrees>41.93838925100862979888916015625</LatitudeDegrees>
              <LongitudeDegrees>-1.93746996112167835235595703125</LongitudeDegrees>
            </Position>
            <AltitudeMeters>800.79998779296875</AltitudeMeters>
            <DistanceMeters>403899.86373671</DistanceMeters>
          </Trackpoint>
          <Trackpoint>
            <Time>2021-08-01T14:13:03.000Z</Time>
            <Position>
              <LatitudeDegrees>41.93836905062198638916015625</LatitudeDegrees>
              <LongitudeDegrees>-1.93739167414605617523193359375</LongitudeDegrees>
            </Position>
            <AltitudeMeters>802</AltitudeMeters>
            <DistanceMeters>403906.72411268</DistanceMeters>
          </Trackpoint>
          <Trackpoint>
            <Time>2021-08-01T14:13:11.000Z</Time>
            <Position>
              <LatitudeDegrees>41.93832135759294033050537109375</LatitudeDegrees>
              <LongitudeDegrees>-1.9372858107089996337890625</LongitudeDegrees>
            </Position>
            <AltitudeMeters>803</AltitudeMeters>
            <DistanceMeters>403916.97114781</DistanceMeters>
          </Trackpoint>
          <Trackpoint>
            <Time>2021-08-01T14:13:21.000Z</Time>
            <Position>
              <LatitudeDegrees>41.93827810697257518768310546875</LatitudeDegrees>
              <LongitudeDegrees>-1.937158741056919097900390625</LongitudeDegrees>
            </Position>
            <AltitudeMeters>804.20001220703125</AltitudeMeters>
            <DistanceMeters>403928.54023563</DistanceMeters>
          </Trackpoint>
          <Trackpoint>
            <Time>2021-08-01T14:13:28.000Z</Time>
            <Position>
              <LatitudeDegrees>41.9382488541305065155029296875</LatitudeDegrees>
              <LongitudeDegrees>-1.93707651458680629730224609375</LongitudeDegrees>
            </Position>
            <AltitudeMeters>805.20001220703125</AltitudeMeters>
            <DistanceMeters>403936.08633807</DistanceMeters>
          </Trackpoint>
          <Trackpoint>
            <Time>2021-08-01T14:13:38.000Z</Time>
            <Position>
              <LatitudeDegrees>41.9381767697632312774658203125</LatitudeDegrees>
              <LongitudeDegrees>-1.93695380352437496185302734375</LongitudeDegrees>
            </Position>
            <AltitudeMeters>805.5999755859375</AltitudeMeters>
            <DistanceMeters>403949.03231115</DistanceMeters>
          </Trackpoint>
          <Trackpoint>
            <Time>2021-08-01T14:13:42.000Z</Time>
            <Position>
              <LatitudeDegrees>41.9381445832550525665283203125</LatitudeDegrees>
              <LongitudeDegrees>-1.93690820597112178802490234375</LongitudeDegrees>
            </Position>
            <AltitudeMeters>806.20001220703125</AltitudeMeters>
            <DistanceMeters>403954.23627111</DistanceMeters>
          </Trackpoint>
          <Trackpoint>
            <Time>2021-08-01T14:13:49.000Z</Time>
            <Position>
              <LatitudeDegrees>41.9380825571715831756591796875</LatitudeDegrees>
              <LongitudeDegrees>-1.93683293648064136505126953125</LongitudeDegrees>
            </Position>
            <AltitudeMeters>807.4000244140625</AltitudeMeters>
            <DistanceMeters>403963.53627499</DistanceMeters>
          </Trackpoint>
          <Trackpoint>
            <Time>2021-08-01T14:13:54.000Z</Time>
            <Position>
              <LatitudeDegrees>41.938033439218997955322265625</LatitudeDegrees>
              <LongitudeDegrees>-1.93677124567329883575439453125</LongitudeDegrees>
            </Position>
            <AltitudeMeters>808.5999755859375</AltitudeMeters>
            <DistanceMeters>403971.01747902</DistanceMeters>
          </Trackpoint>
          <Trackpoint>
            <Time>2021-08-01T14:13:59.000Z</Time>
            <Position>
              <LatitudeDegrees>41.93799144588410854339599609375</LatitudeDegrees>
              <LongitudeDegrees>-1.93671843968331813812255859375</LongitudeDegrees>
            </Position>
            <AltitudeMeters>809.5999755859375</AltitudeMeters>
            <DistanceMeters>403977.41751236</DistanceMeters>
          </Trackpoint>
          <Trackpoint>
            <Time>2021-08-01T14:14:29.000Z</Time>
            <Position>
              <LatitudeDegrees>41.93752591498196125030517578125</LatitudeDegrees>
              <LongitudeDegrees>-1.9363482110202312469482421875</LongitudeDegrees>
            </Position>
            <AltitudeMeters>810.4000244140625</AltitudeMeters>
            <DistanceMeters>404037.62006714</DistanceMeters>
          </Trackpoint>
          <Trackpoint>
            <Time>2021-08-01T14:14:34.000Z</Time>
            <Position>
              <LatitudeDegrees>41.9374438561499118804931640625</LatitudeDegrees>
              <LongitudeDegrees>-1.93631610833108425140380859375</LongitudeDegrees>
            </Position>
            <AltitudeMeters>810.79998779296875</AltitudeMeters>
            <DistanceMeters>404047.1322365</DistanceMeters>
          </Trackpoint>
          <Trackpoint>
            <Time>2021-08-01T14:14:45.000Z</Time>
            <Position>
              <LatitudeDegrees>41.93726263940334320068359375</LatitudeDegrees>
              <LongitudeDegrees>-1.93634712137281894683837890625</LongitudeDegrees>
            </Position>
            <AltitudeMeters>811.79998779296875</AltitudeMeters>
            <DistanceMeters>404067.46484479</DistanceMeters>
          </Trackpoint>
          <Trackpoint>
            <Time>2021-08-01T14:14:57.000Z</Time>
            <Position>
              <LatitudeDegrees>41.9370804168283939361572265625</LatitudeDegrees>
              <LongitudeDegrees>-1.93645122461020946502685546875</LongitudeDegrees>
            </Position>
            <AltitudeMeters>812.79998779296875</AltitudeMeters>
            <DistanceMeters>404089.50202953</DistanceMeters>
          </Trackpoint>
          <Trackpoint>
            <Time>2021-08-01T14:15:20.000Z</Time>
            <Position>
              <LatitudeDegrees>41.936608850955963134765625</LatitudeDegrees>
              <LongitudeDegrees>-1.936665885150432586669921875</LongitudeDegrees>
            </Position>
            <AltitudeMeters>813.79998779296875</AltitudeMeters>
            <DistanceMeters>404144.91588659</DistanceMeters>
          </Trackpoint>
          <Trackpoint>
            <Time>2021-08-01T14:15:39.000Z</Time>
            <Position>
              <LatitudeDegrees>41.9361986406147480010986328125</LatitudeDegrees>
              <LongitudeDegrees>-1.93691239692270755767822265625</LongitudeDegrees>
            </Position>
            <AltitudeMeters>814.5999755859375</AltitudeMeters>
            <DistanceMeters>404194.927391</DistanceMeters>
          </Trackpoint>
          <Trackpoint>
            <Time>2021-08-01T14:15:41.000Z</Time>
            <Position>
              <LatitudeDegrees>41.93615354597568511962890625</LatitudeDegrees>
              <LongitudeDegrees>-1.93693050183355808258056640625</LongitudeDegrees>
            </Position>
            <AltitudeMeters>814.79998779296875</AltitudeMeters>
            <DistanceMeters>404200.16594064</DistanceMeters>
          </Trackpoint>
          <Trackpoint>
            <Time>2021-08-01T14:16:03.000Z</Time>
            <Position>
              <LatitudeDegrees>41.93565591238439083099365234375</LatitudeDegrees>
              <LongitudeDegrees>-1.93728069774806499481201171875</LongitudeDegrees>
            </Position>
            <AltitudeMeters>815</AltitudeMeters>
            <DistanceMeters>404262.68398641</DistanceMeters>
          </Trackpoint>
          <Trackpoint>
            <Time>2021-08-01T14:16:23.000Z</Time>
            <Position>
              <LatitudeDegrees>41.93512399680912494659423828125</LatitudeDegrees>
              <LongitudeDegrees>-1.93755872547626495361328125</LongitudeDegrees>
            </Position>
            <AltitudeMeters>814.5999755859375</AltitudeMeters>
            <DistanceMeters>404326.20527582</DistanceMeters>
          </Trackpoint>
          <Trackpoint>
            <Time>2021-08-01T14:16:41.000Z</Time>
            <Position>
              <LatitudeDegrees>41.93458068184554576873779296875</LatitudeDegrees>
              <LongitudeDegrees>-1.93752251565456390380859375</LongitudeDegrees>
            </Position>
            <AltitudeMeters>814.20001220703125</AltitudeMeters>
            <DistanceMeters>404386.75153775</DistanceMeters>
          </Trackpoint>
          <Trackpoint>
            <Time>2021-08-01T14:16:59.000Z</Time>
            <Position>
              <LatitudeDegrees>41.9342081062495708465576171875</LatitudeDegrees>
              <LongitudeDegrees>-1.93734280765056610107421875</LongitudeDegrees>
            </Position>
            <AltitudeMeters>815.79998779296875</AltitudeMeters>
            <DistanceMeters>404430.80889868</DistanceMeters>
          </Trackpoint>
          <Trackpoint>
            <Time>2021-08-01T14:17:09.000Z</Time>
            <Position>
              <LatitudeDegrees>41.9340106286108493804931640625</LatitudeDegrees>
              <LongitudeDegrees>-1.9373278878629207611083984375</LongitudeDegrees>
            </Position>
            <AltitudeMeters>816.79998779296875</AltitudeMeters>
            <DistanceMeters>404452.82332968</DistanceMeters>
          </Trackpoint>
          <Trackpoint>
            <Time>2021-08-01T14:17:17.000Z</Time>
            <Position>
              <LatitudeDegrees>41.93385665304958820343017578125</LatitudeDegrees>
              <LongitudeDegrees>-1.93732495419681072235107421875</LongitudeDegrees>
            </Position>
            <AltitudeMeters>817.79998779296875</AltitudeMeters>
            <DistanceMeters>404469.96294598</DistanceMeters>
          </Trackpoint>
          <Trackpoint>
            <Time>2021-08-01T14:17:31.000Z</Time>
            <Position>
              <LatitudeDegrees>41.9336141645908355712890625</LatitudeDegrees>
              <LongitudeDegrees>-1.93732780404388904571533203125</LongitudeDegrees>
            </Position>
            <AltitudeMeters>819</AltitudeMeters>
            <DistanceMeters>404496.95337682</DistanceMeters>
          </Trackpoint>
          <Trackpoint>
            <Time>2021-08-01T14:17:40.000Z</Time>
            <Position>
              <LatitudeDegrees>41.93345415405929088592529296875</LatitudeDegrees>
              <LongitudeDegrees>-1.9373211823403835296630859375</LongitudeDegrees>
            </Position>
            <AltitudeMeters>820</AltitudeMeters>
            <DistanceMeters>404514.77082242</DistanceMeters>
          </Trackpoint>
          <Trackpoint>
            <Time>2021-08-01T14:17:50.000Z</Time>
            <Position>
              <LatitudeDegrees>41.93327394314110279083251953125</LatitudeDegrees>
              <LongitudeDegrees>-1.93730383180081844329833984375</LongitudeDegrees>
            </Position>
            <AltitudeMeters>821</AltitudeMeters>
            <DistanceMeters>404534.87992118</DistanceMeters>
          </Trackpoint>
          <Trackpoint>
            <Time>2021-08-01T14:18:10.000Z</Time>
            <Position>
              <LatitudeDegrees>41.93290044553577899932861328125</LatitudeDegrees>
              <LongitudeDegrees>-1.93716770969331264495849609375</LongitudeDegrees>
            </Position>
            <AltitudeMeters>822.20001220703125</AltitudeMeters>
            <DistanceMeters>404577.9518736</DistanceMeters>
          </Trackpoint>
          <Trackpoint>
            <Time>2021-08-01T14:18:19.000Z</Time>
            <Position>
              <LatitudeDegrees>41.93274705670773983001708984375</LatitudeDegrees>
              <LongitudeDegrees>-1.9371049292385578155517578125</LongitudeDegrees>
            </Position>
            <AltitudeMeters>823</AltitudeMeters>
            <DistanceMeters>404595.79818404</DistanceMeters>
          </Trackpoint>
          <Trackpoint>
            <Time>2021-08-01T14:18:26.000Z</Time>
            <Position>
              <LatitudeDegrees>41.932630129158496856689453125</LatitudeDegrees>
              <LongitudeDegrees>-1.93706117570400238037109375</LongitudeDegrees>
            </Position>
            <AltitudeMeters>824</AltitudeMeters>
            <DistanceMeters>404609.30736036</DistanceMeters>
          </Trackpoint>
          <Trackpoint>
            <Time>2021-08-01T14:18:33.000Z</Time>
            <Position>
              <LatitudeDegrees>41.93250951357185840606689453125</LatitudeDegrees>
              <LongitudeDegrees>-1.9370247982442378997802734375</LongitudeDegrees>
            </Position>
            <AltitudeMeters>825</AltitudeMeters>
            <DistanceMeters>404623.06557472</DistanceMeters>
          </Trackpoint>
          <Trackpoint>
            <Time>2021-08-01T14:18:40.000Z</Time>
            <Position>
              <LatitudeDegrees>41.9323910772800445556640625</LatitudeDegrees>
              <LongitudeDegrees>-1.93701700307428836822509765625</LongitudeDegrees>
            </Position>
            <AltitudeMeters>826.20001220703125</AltitudeMeters>
            <DistanceMeters>404636.26368726</DistanceMeters>
          </Trackpoint>
          <Trackpoint>
            <Time>2021-08-01T14:18:50.000Z</Time>
            <Position>
              <LatitudeDegrees>41.932218074798583984375</LatitudeDegrees>
              <LongitudeDegrees>-1.9370643608272075653076171875</LongitudeDegrees>
            </Position>
            <AltitudeMeters>827</AltitudeMeters>
            <DistanceMeters>404655.91423761</DistanceMeters>
          </Trackpoint>
          <Trackpoint>
            <Time>2021-08-01T14:18:51.000Z</Time>
            <Position>
              <LatitudeDegrees>41.93220055662095546722412109375</LatitudeDegrees>
              <LongitudeDegrees>-1.937072239816188812255859375</LongitudeDegrees>
            </Position>
            <AltitudeMeters>827.20001220703125</AltitudeMeters>
            <DistanceMeters>404657.96997976</DistanceMeters>
          </Trackpoint>
          <Trackpoint>
            <Time>2021-08-01T14:19:00.000Z</Time>
            <Position>
              <LatitudeDegrees>41.9320529513061046600341796875</LatitudeDegrees>
              <LongitudeDegrees>-1.937159411609172821044921875</LongitudeDegrees>
            </Position>
            <AltitudeMeters>828.20001220703125</AltitudeMeters>
            <DistanceMeters>404675.914184</DistanceMeters>
          </Trackpoint>
          <Trackpoint>
            <Time>2021-08-01T14:19:13.000Z</Time>
            <Position>
              <LatitudeDegrees>41.9318474270403385162353515625</LatitudeDegrees>
              <LongitudeDegrees>-1.93730928003787994384765625</LongitudeDegrees>
            </Position>
            <AltitudeMeters>829.20001220703125</AltitudeMeters>
            <DistanceMeters>404701.93832151</DistanceMeters>
          </Trackpoint>
          <Trackpoint>
            <Time>2021-08-01T14:19:26.000Z</Time>
            <Position>
              <LatitudeDegrees>41.93166352808475494384765625</LatitudeDegrees>
              <LongitudeDegrees>-1.937506757676601409912109375</LongitudeDegrees>
            </Position>
            <AltitudeMeters>830.20001220703125</AltitudeMeters>
            <DistanceMeters>404728.13641286</DistanceMeters>
          </Trackpoint>
          <Trackpoint>
            <Time>2021-08-01T14:19:39.000Z</Time>
            <Position>
              <LatitudeDegrees>41.9314752705395221710205078125</LatitudeDegrees>
              <LongitudeDegrees>-1.9377305544912815093994140625</LongitudeDegrees>
            </Position>
            <AltitudeMeters>831.20001220703125</AltitudeMeters>
            <DistanceMeters>404756.10850723</DistanceMeters>
          </Trackpoint>
          <Trackpoint>
            <Time>2021-08-01T14:19:46.000Z</Time>
            <Position>
              <LatitudeDegrees>41.93137393333017826080322265625</LatitudeDegrees>
              <LongitudeDegrees>-1.93785510957241058349609375</LongitudeDegrees>
            </Position>
            <AltitudeMeters>832.20001220703125</AltitudeMeters>
            <DistanceMeters>404771.39156836</DistanceMeters>
          </Trackpoint>
          <Trackpoint>
            <Time>2021-08-01T14:19:57.000Z</Time>
            <Position>
              <LatitudeDegrees>41.9312241487205028533935546875</LatitudeDegrees>
              <LongitudeDegrees>-1.93804512731730937957763671875</LongitudeDegrees>
            </Position>
            <AltitudeMeters>833.20001220703125</AltitudeMeters>
            <DistanceMeters>404794.31527374</DistanceMeters>
          </Trackpoint>
          <Trackpoint>
            <Time>2021-08-01T14:20:06.000Z</Time>
            <Position>
              <LatitudeDegrees>41.93111292086541652679443359375</LatitudeDegrees>
              <LongitudeDegrees>-1.93818074651062488555908203125</LongitudeDegrees>
            </Position>
            <AltitudeMeters>834.4000244140625</AltitudeMeters>
            <DistanceMeters>404811.02917349</DistanceMeters>
          </Trackpoint>
          <Trackpoint>
            <Time>2021-08-01T14:20:13.000Z</Time>
            <Position>
              <LatitudeDegrees>41.93102926947176456451416015625</LatitudeDegrees>
              <LongitudeDegrees>-1.938274540007114410400390625</LongitudeDegrees>
            </Position>
            <AltitudeMeters>835.5999755859375</AltitudeMeters>
            <DistanceMeters>404823.15392687</DistanceMeters>
          </Trackpoint>
          <Trackpoint>
            <Time>2021-08-01T14:20:23.000Z</Time>
            <Position>
              <LatitudeDegrees>41.93088677711784839630126953125</LatitudeDegrees>
              <LongitudeDegrees>-1.93836338818073272705078125</LongitudeDegrees>
            </Position>
            <AltitudeMeters>836.5999755859375</AltitudeMeters>
            <DistanceMeters>404840.6372929</DistanceMeters>
          </Trackpoint>
          <Trackpoint>
            <Time>2021-08-01T14:20:39.000Z</Time>
            <Position>
              <LatitudeDegrees>41.930652670562267303466796875</LatitudeDegrees>
              <LongitudeDegrees>-1.93847914226353168487548828125</LongitudeDegrees>
            </Position>
            <AltitudeMeters>837.79998779296875</AltitudeMeters>
            <DistanceMeters>404868.40070993</DistanceMeters>
          </Trackpoint>
          <Trackpoint>
            <Time>2021-08-01T14:20:52.000Z</Time>
            <Position>
              <LatitudeDegrees>41.9304587133228778839111328125</LatitudeDegrees>
              <LongitudeDegrees>-1.93855139426887035369873046875</LongitudeDegrees>
            </Position>
            <AltitudeMeters>838.79998779296875</AltitudeMeters>
            <DistanceMeters>404890.80203596</DistanceMeters>
          </Trackpoint>
          <Trackpoint>
            <Time>2021-08-01T14:21:01.000Z</Time>
            <Position>
              <LatitudeDegrees>41.9303150475025177001953125</LatitudeDegrees>
              <LongitudeDegrees>-1.9385767914354801177978515625</LongitudeDegrees>
            </Position>
            <AltitudeMeters>839.79998779296875</AltitudeMeters>
            <DistanceMeters>404906.93000397</DistanceMeters>
          </Trackpoint>
          <Trackpoint>
            <Time>2021-08-01T14:21:11.000Z</Time>
            <Position>
              <LatitudeDegrees>41.930157132446765899658203125</LatitudeDegrees>
              <LongitudeDegrees>-1.93856949917972087860107421875</LongitudeDegrees>
            </Position>
            <AltitudeMeters>841</AltitudeMeters>
            <DistanceMeters>404924.51687914</DistanceMeters>
          </Trackpoint>
          <Trackpoint>
            <Time>2021-08-01T14:21:16.000Z</Time>
            <Position>
              <LatitudeDegrees>41.93008043803274631500244140625</LatitudeDegrees>
              <LongitudeDegrees>-1.93857016973197460174560546875</LongitudeDegrees>
            </Position>
            <AltitudeMeters>842.20001220703125</AltitudeMeters>
            <DistanceMeters>404933.05343096</DistanceMeters>
          </Trackpoint>
          <Trackpoint>
            <Time>2021-08-01T14:21:24.000Z</Time>
            <Position>
              <LatitudeDegrees>41.92996359430253505706787109375</LatitudeDegrees>
              <LongitudeDegrees>-1.93859263323247432708740234375</LongitudeDegrees>
            </Position>
            <AltitudeMeters>843.20001220703125</AltitudeMeters>
            <DistanceMeters>404946.19085274</DistanceMeters>
          </Trackpoint>
          <Trackpoint>
            <Time>2021-08-01T14:21:30.000Z</Time>
            <Position>
              <LatitudeDegrees>41.9298733212053775787353515625</LatitudeDegrees>
              <LongitudeDegrees>-1.9386250711977481842041015625</LongitudeDegrees>
            </Position>
            <AltitudeMeters>844.20001220703125</AltitudeMeters>
            <DistanceMeters>404956.59096118</DistanceMeters>
          </Trackpoint>
          <Trackpoint>
            <Time>2021-08-01T14:21:36.000Z</Time>
            <Position>
              <LatitudeDegrees>41.92978707142174243927001953125</LatitudeDegrees>
              <LongitudeDegrees>-1.9386710040271282196044921875</LongitudeDegrees>
            </Position>
            <AltitudeMeters>845.4000244140625</AltitudeMeters>
            <DistanceMeters>404966.91612861</DistanceMeters>
          </Trackpoint>
          <Trackpoint>
            <Time>2021-08-01T14:21:41.000Z</Time>
            <Position>
              <LatitudeDegrees>41.92971733398735523223876953125</LatitudeDegrees>
              <LongitudeDegrees>-1.93870478309690952301025390625</LongitudeDegrees>
            </Position>
            <AltitudeMeters>846.5999755859375</AltitudeMeters>
            <DistanceMeters>404975.16650535</DistanceMeters>
          </Trackpoint>
          <Trackpoint>
            <Time>2021-08-01T14:21:46.000Z</Time>
            <Position>
              <LatitudeDegrees>41.92964709363877773284912109375</LatitudeDegrees>
              <LongitudeDegrees>-1.938735544681549072265625</LongitudeDegrees>
            </Position>
            <AltitudeMeters>847.5999755859375</AltitudeMeters>
            <DistanceMeters>404983.38837571</DistanceMeters>
          </Trackpoint>
          <Trackpoint>
            <Time>2021-08-01T14:21:57.000Z</Time>
            <Position>
              <LatitudeDegrees>41.92949320189654827117919921875</LatitudeDegrees>
              <LongitudeDegrees>-1.938776113092899322509765625</LongitudeDegrees>
            </Position>
            <AltitudeMeters>848.5999755859375</AltitudeMeters>
            <DistanceMeters>405000.84331138</DistanceMeters>
          </Trackpoint>
          <Trackpoint>
            <Time>2021-08-01T14:22:03.000Z</Time>
            <Position>
              <LatitudeDegrees>41.929409801959991455078125</LatitudeDegrees>
              <LongitudeDegrees>-1.938792206346988677978515625</LongitudeDegrees>
            </Position>
            <AltitudeMeters>849.79998779296875</AltitudeMeters>
            <DistanceMeters>405010.22067158</DistanceMeters>
          </Trackpoint>
          <Trackpoint>
            <Time>2021-08-01T14:22:14.000Z</Time>
            <Position>
              <LatitudeDegrees>41.9292580895125865936279296875</LatitudeDegrees>
              <LongitudeDegrees>-1.93881508894264698028564453125</LongitudeDegrees>
            </Position>
            <AltitudeMeters>851</AltitudeMeters>
            <DistanceMeters>405027.21212838</DistanceMeters>
          </Trackpoint>
          <Trackpoint>
            <Time>2021-08-01T14:22:24.000Z</Time>
            <Position>
              <LatitudeDegrees>41.9291243143379688262939453125</LatitudeDegrees>
              <LongitudeDegrees>-1.93882766179740428924560546875</LongitudeDegrees>
            </Position>
            <AltitudeMeters>852</AltitudeMeters>
            <DistanceMeters>405042.13797897</DistanceMeters>
          </Trackpoint>
          <Trackpoint>
            <Time>2021-08-01T14:22:34.000Z</Time>
            <Position>
              <LatitudeDegrees>41.9289985857903957366943359375</LatitudeDegrees>
              <LongitudeDegrees>-1.93883805535733699798583984375</LongitudeDegrees>
            </Position>
            <AltitudeMeters>853</AltitudeMeters>
            <DistanceMeters>405056.1582038</DistanceMeters>
          </Trackpoint>
          <Trackpoint>
            <Time>2021-08-01T14:22:36.000Z</Time>
            <Position>
              <LatitudeDegrees>41.92897821776568889617919921875</LatitudeDegrees>
              <LongitudeDegrees>-1.938838474452495574951171875</LongitudeDegrees>
            </Position>
            <AltitudeMeters>853.20001220703125</AltitudeMeters>
            <DistanceMeters>405058.42295178</DistanceMeters>
          </Trackpoint>
          <Trackpoint>
            <Time>2021-08-01T14:22:43.000Z</Time>
            <Position>
              <LatitudeDegrees>41.928926669061183929443359375</LatitudeDegrees>
              <LongitudeDegrees>-1.938838474452495574951171875</LongitudeDegrees>
            </Position>
            <AltitudeMeters>854.4000244140625</AltitudeMeters>
            <DistanceMeters>405064.16086592</DistanceMeters>
          </Trackpoint>
          <Trackpoint>
            <Time>2021-08-01T14:28:46.000Z</Time>
            <Position>
              <LatitudeDegrees>41.9288292713463306427001953125</LatitudeDegrees>
              <LongitudeDegrees>-1.93883813917636871337890625</LongitudeDegrees>
            </Position>
            <AltitudeMeters>854.79998779296875</AltitudeMeters>
            <DistanceMeters>405075.00141087</DistanceMeters>
          </Trackpoint>
          <Trackpoint>
            <Time>2021-08-01T14:28:47.000Z</Time>
            <Position>
              <LatitudeDegrees>41.92881711758673191070556640625</LatitudeDegrees>
              <LongitudeDegrees>-1.93883813917636871337890625</LongitudeDegrees>
            </Position>
            <AltitudeMeters>854.79998779296875</AltitudeMeters>
            <DistanceMeters>405076.35199424</DistanceMeters>
          </Trackpoint>
          <Trackpoint>
            <Time>2021-08-01T14:28:55.000Z</Time>
            <Position>
              <LatitudeDegrees>41.9287199713289737701416015625</LatitudeDegrees>
              <LongitudeDegrees>-1.93883721716701984405517578125</LongitudeDegrees>
            </Position>
            <AltitudeMeters>855.79998779296875</AltitudeMeters>
            <DistanceMeters>405087.16501555</DistanceMeters>
          </Trackpoint>
          <Trackpoint>
            <Time>2021-08-01T14:29:04.000Z</Time>
            <Position>
              <LatitudeDegrees>41.92860572598874568939208984375</LatitudeDegrees>
              <LongitudeDegrees>-1.93885062821209430694580078125</LongitudeDegrees>
            </Position>
            <AltitudeMeters>856.79998779296875</AltitudeMeters>
            <DistanceMeters>405099.9290525</DistanceMeters>
          </Trackpoint>
          <Trackpoint>
            <Time>2021-08-01T14:29:15.000Z</Time>
            <Position>
              <LatitudeDegrees>41.928463317453861236572265625</LatitudeDegrees>
              <LongitudeDegrees>-1.93886571563780307769775390625</LongitudeDegrees>
            </Position>
            <AltitudeMeters>857.79998779296875</AltitudeMeters>
            <DistanceMeters>405115.8283594</DistanceMeters>
          </Trackpoint>
          <Trackpoint>
            <Time>2021-08-01T14:29:23.000Z</Time>
            <Position>
              <LatitudeDegrees>41.9283629022538661956787109375</LatitudeDegrees>
              <LongitudeDegrees>-1.93887610919773578643798828125</LongitudeDegrees>
            </Position>
            <AltitudeMeters>859</AltitudeMeters>
            <DistanceMeters>405127.03748442</DistanceMeters>
          </Trackpoint>
          <Trackpoint>
            <Time>2021-08-01T14:29:31.000Z</Time>
            <Position>
              <LatitudeDegrees>41.928264833986759185791015625</LatitudeDegrees>
              <LongitudeDegrees>-1.9388748519122600555419921875</LongitudeDegrees>
            </Position>
            <AltitudeMeters>860</AltitudeMeters>
            <DistanceMeters>405137.95274111</DistanceMeters>
          </Trackpoint>
          <Trackpoint>
            <Time>2021-08-01T14:29:38.000Z</Time>
            <Position>
              <LatitudeDegrees>41.92817799746990203857421875</LatitudeDegrees>
              <LongitudeDegrees>-1.93887946195900440216064453125</LongitudeDegrees>
            </Position>
            <AltitudeMeters>861</AltitudeMeters>
            <DistanceMeters>405147.62541509</DistanceMeters>
          </Trackpoint>
          <Trackpoint>
            <Time>2021-08-01T14:29:48.000Z</Time>
            <Position>
              <LatitudeDegrees>41.92805268801748752593994140625</LatitudeDegrees>
              <LongitudeDegrees>-1.93888214416801929473876953125</LongitudeDegrees>
            </Position>
            <AltitudeMeters>862</AltitudeMeters>
            <DistanceMeters>405161.57461174</DistanceMeters>
          </Trackpoint>
          <Trackpoint>
            <Time>2021-08-01T14:29:57.000Z</Time>
            <Position>
              <LatitudeDegrees>41.92794489674270153045654296875</LatitudeDegrees>
              <LongitudeDegrees>-1.93886630237102508544921875</LongitudeDegrees>
            </Position>
            <AltitudeMeters>863</AltitudeMeters>
            <DistanceMeters>405173.64300447</DistanceMeters>
          </Trackpoint>
          <Trackpoint>
            <Time>2021-08-01T14:30:04.000Z</Time>
            <Position>
              <LatitudeDegrees>41.92786862142384052276611328125</LatitudeDegrees>
              <LongitudeDegrees>-1.9388497062027454376220703125</LongitudeDegrees>
            </Position>
            <AltitudeMeters>864</AltitudeMeters>
            <DistanceMeters>405182.24279087</DistanceMeters>
          </Trackpoint>
          <Trackpoint>
            <Time>2021-08-01T14:30:17.000Z</Time>
            <Position>
              <LatitudeDegrees>41.9277114607393741607666015625</LatitudeDegrees>
              <LongitudeDegrees>-1.93888843059539794921875</LongitudeDegrees>
            </Position>
            <AltitudeMeters>865.20001220703125</AltitudeMeters>
            <DistanceMeters>405200.02675548</DistanceMeters>
          </Trackpoint>
          <Trackpoint>
            <Time>2021-08-01T14:30:28.000Z</Time>
            <Position>
              <LatitudeDegrees>41.92761414684355258941650390625</LatitudeDegrees>
              <LongitudeDegrees>-1.939000077545642852783203125</LongitudeDegrees>
            </Position>
            <AltitudeMeters>866.20001220703125</AltitudeMeters>
            <DistanceMeters>405214.26681856</DistanceMeters>
          </Trackpoint>
          <Trackpoint>
            <Time>2021-08-01T14:30:36.000Z</Time>
            <Position>
              <LatitudeDegrees>41.92754256539046764373779296875</LatitudeDegrees>
              <LongitudeDegrees>-1.93906906060874462127685546875</LongitudeDegrees>
            </Position>
            <AltitudeMeters>867.4000244140625</AltitudeMeters>
            <DistanceMeters>405224.07024162</DistanceMeters>
          </Trackpoint>
          <Trackpoint>
            <Time>2021-08-01T14:30:42.000Z</Time>
            <Position>
              <LatitudeDegrees>41.92748372443020343780517578125</LatitudeDegrees>
              <LongitudeDegrees>-1.9391065277159214019775390625</LongitudeDegrees>
            </Position>
            <AltitudeMeters>868.5999755859375</AltitudeMeters>
            <DistanceMeters>405231.31723579</DistanceMeters>
          </Trackpoint>
          <Trackpoint>
            <Time>2021-08-01T14:30:48.000Z</Time>
            <Position>
              <LatitudeDegrees>41.92742639221251010894775390625</LatitudeDegrees>
              <LongitudeDegrees>-1.93914751522243022918701171875</LongitudeDegrees>
            </Position>
            <AltitudeMeters>869.5999755859375</AltitudeMeters>
            <DistanceMeters>405238.54426576</DistanceMeters>
          </Trackpoint>
          <Trackpoint>
            <Time>2021-08-01T14:30:56.000Z</Time>
            <Position>
              <LatitudeDegrees>41.927340142428874969482421875</LatitudeDegrees>
              <LongitudeDegrees>-1.939196884632110595703125</LongitudeDegrees>
            </Position>
            <AltitudeMeters>870.5999755859375</AltitudeMeters>
            <DistanceMeters>405248.97818169</DistanceMeters>
          </Trackpoint>
          <Trackpoint>
            <Time>2021-08-01T14:31:05.000Z</Time>
            <Position>
              <LatitudeDegrees>41.92724131979048252105712890625</LatitudeDegrees>
              <LongitudeDegrees>-1.93920769728720188140869140625</LongitudeDegrees>
            </Position>
            <AltitudeMeters>871.79998779296875</AltitudeMeters>
            <DistanceMeters>405260.01397079</DistanceMeters>
          </Trackpoint>
          <Trackpoint>
            <Time>2021-08-01T14:31:15.000Z</Time>
            <Position>
              <LatitudeDegrees>41.9271364621818065643310546875</LatitudeDegrees>
              <LongitudeDegrees>-1.9392386265099048614501953125</LongitudeDegrees>
            </Position>
            <AltitudeMeters>872.79998779296875</AltitudeMeters>
            <DistanceMeters>405271.96242293</DistanceMeters>
          </Trackpoint>
          <Trackpoint>
            <Time>2021-08-01T14:31:24.000Z</Time>
            <Position>
              <LatitudeDegrees>41.92704618908464908599853515625</LatitudeDegrees>
              <LongitudeDegrees>-1.939276345074176788330078125</LongitudeDegrees>
            </Position>
            <AltitudeMeters>873.5999755859375</AltitudeMeters>
            <DistanceMeters>405282.48467399</DistanceMeters>
          </Trackpoint>
          <Trackpoint>
            <Time>2021-08-01T14:31:29.000Z</Time>
            <Position>
              <LatitudeDegrees>41.926998831331729888916015625</LatitudeDegrees>
              <LongitudeDegrees>-1.93928472697734832763671875</LongitudeDegrees>
            </Position>
            <AltitudeMeters>874.5999755859375</AltitudeMeters>
            <DistanceMeters>405287.80107684</DistanceMeters>
          </Trackpoint>
          <Trackpoint>
            <Time>2021-08-01T14:31:30.000Z</Time>
            <Position>
              <LatitudeDegrees>41.92699053324759006500244140625</LatitudeDegrees>
              <LongitudeDegrees>-1.939277350902557373046875</LongitudeDegrees>
            </Position>
            <AltitudeMeters>874.5999755859375</AltitudeMeters>
            <DistanceMeters>405288.90926924</DistanceMeters>
          </Trackpoint>
          <Trackpoint>
            <Time>2021-08-01T14:31:33.000Z</Time>
            <Position>
              <LatitudeDegrees>41.92698081023991107940673828125</LatitudeDegrees>
              <LongitudeDegrees>-1.93927709944546222686767578125</LongitudeDegrees>
            </Position>
            <AltitudeMeters>874.5999755859375</AltitudeMeters>
            <DistanceMeters>405289.99274048</DistanceMeters>
          </Trackpoint>
          <Trackpoint>
            <Time>2021-08-01T14:33:11.000Z</Time>
            <Position>
              <LatitudeDegrees>41.92689514718949794769287109375</LatitudeDegrees>
              <LongitudeDegrees>-1.94011730141937732696533203125</LongitudeDegrees>
            </Position>
            <AltitudeMeters>884.4000244140625</AltitudeMeters>
            <DistanceMeters>405360.21883256</DistanceMeters>
          </Trackpoint>
          <Trackpoint>
            <Time>2021-08-01T14:33:30.000Z</Time>
            <Position>
              <LatitudeDegrees>41.92669783718883991241455078125</LatitudeDegrees>
              <LongitudeDegrees>-1.94032609462738037109375</LongitudeDegrees>
            </Position>
            <AltitudeMeters>885.4000244140625</AltitudeMeters>
            <DistanceMeters>405388.16928933</DistanceMeters>
          </Trackpoint>
          <Trackpoint>
            <Time>2021-08-01T14:33:36.000Z</Time>
            <Position>
              <LatitudeDegrees>41.92664653994143009185791015625</LatitudeDegrees>
              <LongitudeDegrees>-1.9404043816030025482177734375</LongitudeDegrees>
            </Position>
            <AltitudeMeters>886.4000244140625</AltitudeMeters>
            <DistanceMeters>405396.80783966</DistanceMeters>
          </Trackpoint>
          <Trackpoint>
            <Time>2021-08-01T14:33:46.000Z</Time>
            <Position>
              <LatitudeDegrees>41.92655928432941436767578125</LatitudeDegrees>
              <LongitudeDegrees>-1.94055064581334590911865234375</LongitudeDegrees>
            </Position>
            <AltitudeMeters>887.5999755859375</AltitudeMeters>
            <DistanceMeters>405412.33271551</DistanceMeters>
          </Trackpoint>
          <Trackpoint>
            <Time>2021-08-01T14:34:02.000Z</Time>
            <Position>
              <LatitudeDegrees>41.926400698721408843994140625</LatitudeDegrees>
              <LongitudeDegrees>-1.9408258236944675445556640625</LongitudeDegrees>
            </Position>
            <AltitudeMeters>888.5999755859375</AltitudeMeters>
            <DistanceMeters>405441.15652829</DistanceMeters>
          </Trackpoint>
          <Trackpoint>
            <Time>2021-08-01T14:34:11.000Z</Time>
            <Position>
              <LatitudeDegrees>41.92629869095981121063232421875</LatitudeDegrees>
              <LongitudeDegrees>-1.9409830681979656219482421875</LongitudeDegrees>
            </Position>
            <AltitudeMeters>889.5999755859375</AltitudeMeters>
            <DistanceMeters>405458.43258359</DistanceMeters>
          </Trackpoint>
          <Trackpoint>
            <Time>2021-08-01T14:34:31.000Z</Time>
            <Position>
              <LatitudeDegrees>41.9261024706065654754638671875</LatitudeDegrees>
              <LongitudeDegrees>-1.9413257203996181488037109375</LongitudeDegrees>
            </Position>
            <AltitudeMeters>890.5999755859375</AltitudeMeters>
            <DistanceMeters>405494.23899759</DistanceMeters>
          </Trackpoint>
          <Trackpoint>
            <Time>2021-08-01T14:34:39.000Z</Time>
            <Position>
              <LatitudeDegrees>41.92603290081024169921875</LatitudeDegrees>
              <LongitudeDegrees>-1.94145354442298412322998046875</LongitudeDegrees>
            </Position>
            <AltitudeMeters>891.79998779296875</AltitudeMeters>
            <DistanceMeters>405507.35371703</DistanceMeters>
          </Trackpoint>
          <Trackpoint>
            <Time>2021-08-01T14:34:45.000Z</Time>
            <Position>
              <LatitudeDegrees>41.92597548477351665496826171875</LatitudeDegrees>
              <LongitudeDegrees>-1.9415446557104587554931640625</LongitudeDegrees>
            </Position>
            <AltitudeMeters>893</AltitudeMeters>
            <DistanceMeters>405517.24106286</DistanceMeters>
          </Trackpoint>
          <Trackpoint>
            <Time>2021-08-01T14:34:50.000Z</Time>
            <Position>
              <LatitudeDegrees>41.9259135425090789794921875</LatitudeDegrees>
              <LongitudeDegrees>-1.94160391576588153839111328125</LongitudeDegrees>
            </Position>
            <AltitudeMeters>893.79998779296875</AltitudeMeters>
            <DistanceMeters>405525.70431084</DistanceMeters>
          </Trackpoint>
          <Trackpoint>
            <Time>2021-08-01T14:34:58.000Z</Time>
            <Position>
              <LatitudeDegrees>41.92579996772110462188720703125</LatitudeDegrees>
              <LongitudeDegrees>-1.94167549721896648406982421875</LongitudeDegrees>
            </Position>
            <AltitudeMeters>895</AltitudeMeters>
            <DistanceMeters>405539.66644858</DistanceMeters>
          </Trackpoint>
          <Trackpoint>
            <Time>2021-08-01T14:35:03.000Z</Time>
            <Position>
              <LatitudeDegrees>41.9257289730012416839599609375</LatitudeDegrees>
              <LongitudeDegrees>-1.94168689660727977752685546875</LongitudeDegrees>
            </Position>
            <AltitudeMeters>896.20001220703125</AltitudeMeters>
            <DistanceMeters>405547.62490045</DistanceMeters>
          </Trackpoint>
          <Trackpoint>
            <Time>2021-08-01T14:35:11.000Z</Time>
            <Position>
              <LatitudeDegrees>41.92562143318355083465576171875</LatitudeDegrees>
              <LongitudeDegrees>-1.94168128073215484619140625</LongitudeDegrees>
            </Position>
            <AltitudeMeters>897.20001220703125</AltitudeMeters>
            <DistanceMeters>405559.60354456</DistanceMeters>
          </Trackpoint>
          <Trackpoint>
            <Time>2021-08-01T14:35:21.000Z</Time>
            <Position>
              <LatitudeDegrees>41.925493776798248291015625</LatitudeDegrees>
              <LongitudeDegrees>-1.94166108034551143646240234375</LongitudeDegrees>
            </Position>
            <AltitudeMeters>898.20001220703125</AltitudeMeters>
            <DistanceMeters>405573.91035213</DistanceMeters>
          </Trackpoint>
          <Trackpoint>
            <Time>2021-08-01T14:35:36.000Z</Time>
            <Position>
              <LatitudeDegrees>41.92529001273214817047119140625</LatitudeDegrees>
              <LongitudeDegrees>-1.9416630081832408905029296875</LongitudeDegrees>
            </Position>
            <AltitudeMeters>899.20001220703125</AltitudeMeters>
            <DistanceMeters>405596.59050369</DistanceMeters>
          </Trackpoint>
          <Trackpoint>
            <Time>2021-08-01T14:35:42.000Z</Time>
            <Position>
              <LatitudeDegrees>41.9252129830420017242431640625</LatitudeDegrees>
              <LongitudeDegrees>-1.94168396294116973876953125</LongitudeDegrees>
            </Position>
            <AltitudeMeters>900</AltitudeMeters>
            <DistanceMeters>405605.33709203</DistanceMeters>
          </Trackpoint>
          <Trackpoint>
            <Time>2021-08-01T14:35:45.000Z</Time>
            <Position>
              <LatitudeDegrees>41.92517434246838092803955078125</LatitudeDegrees>
              <LongitudeDegrees>-1.94169980473816394805908203125</LongitudeDegrees>
            </Position>
            <AltitudeMeters>900.20001220703125</AltitudeMeters>
            <DistanceMeters>405609.83256876</DistanceMeters>
          </Trackpoint>
          <Trackpoint>
            <Time>2021-08-01T14:35:55.000Z</Time>
            <Position>
              <LatitudeDegrees>41.925052888691425323486328125</LatitudeDegrees>
              <LongitudeDegrees>-1.94176937453448772430419921875</LongitudeDegrees>
            </Position>
            <AltitudeMeters>901.20001220703125</AltitudeMeters>
            <DistanceMeters>405624.52733715</DistanceMeters>
          </Trackpoint>
          <Trackpoint>
            <Time>2021-08-01T14:36:05.000Z</Time>
            <Position>
              <LatitudeDegrees>41.92494953982532024383544921875</LatitudeDegrees>
              <LongitudeDegrees>-1.94183005951344966888427734375</LongitudeDegrees>
            </Position>
            <AltitudeMeters>902.20001220703125</AltitudeMeters>
            <DistanceMeters>405637.08057833</DistanceMeters>
          </Trackpoint>
          <Trackpoint>
            <Time>2021-08-01T14:36:11.000Z</Time>
            <Position>
              <LatitudeDegrees>41.92489773966372013092041015625</LatitudeDegrees>
              <LongitudeDegrees>-1.941883452236652374267578125</LongitudeDegrees>
            </Position>
            <AltitudeMeters>903.20001220703125</AltitudeMeters>
            <DistanceMeters>405644.34623913</DistanceMeters>
          </Trackpoint>
          <Trackpoint>
            <Time>2021-08-01T14:36:16.000Z</Time>
            <Position>
              <LatitudeDegrees>41.92485180683434009552001953125</LatitudeDegrees>
              <LongitudeDegrees>-1.94191463291645050048828125</LongitudeDegrees>
            </Position>
            <AltitudeMeters>904.20001220703125</AltitudeMeters>
            <DistanceMeters>405650.07312639</DistanceMeters>
          </Trackpoint>
          <Trackpoint>
            <Time>2021-08-01T14:36:26.000Z</Time>
            <Position>
              <LatitudeDegrees>41.92476631142199039459228515625</LatitudeDegrees>
              <LongitudeDegrees>-1.94200457073748111724853515625</LongitudeDegrees>
            </Position>
            <AltitudeMeters>905.20001220703125</AltitudeMeters>
            <DistanceMeters>405662.1575956</DistanceMeters>
          </Trackpoint>
          <Trackpoint>
            <Time>2021-08-01T14:36:37.000Z</Time>
            <Position>
              <LatitudeDegrees>41.924713589251041412353515625</LatitudeDegrees>
              <LongitudeDegrees>-1.94213666953146457672119140625</LongitudeDegrees>
            </Position>
            <AltitudeMeters>906.20001220703125</AltitudeMeters>
            <DistanceMeters>405674.57159112</DistanceMeters>
          </Trackpoint>
          <Trackpoint>
            <Time>2021-08-01T14:36:44.000Z</Time>
            <Position>
              <LatitudeDegrees>41.92468106746673583984375</LatitudeDegrees>
              <LongitudeDegrees>-1.94221462123095989227294921875</LongitudeDegrees>
            </Position>
            <AltitudeMeters>907.4000244140625</AltitudeMeters>
            <DistanceMeters>405681.97270209</DistanceMeters>
          </Trackpoint>
          <Trackpoint>
            <Time>2021-08-01T14:36:52.000Z</Time>
            <Position>
              <LatitudeDegrees>41.9246353022754192352294921875</LatitudeDegrees>
              <LongitudeDegrees>-1.9423043914139270782470703125</LongitudeDegrees>
            </Position>
            <AltitudeMeters>908.5999755859375</AltitudeMeters>
            <DistanceMeters>405690.98422125</DistanceMeters>
          </Trackpoint>
          <Trackpoint>
            <Time>2021-08-01T14:37:02.000Z</Time>
            <Position>
              <LatitudeDegrees>41.9245645590126514434814453125</LatitudeDegrees>
              <LongitudeDegrees>-1.942412853240966796875</LongitudeDegrees>
            </Position>
            <AltitudeMeters>909.5999755859375</AltitudeMeters>
            <DistanceMeters>405702.92889403</DistanceMeters>
          </Trackpoint>
          <Trackpoint>
            <Time>2021-08-01T14:37:09.000Z</Time>
            <Position>
              <LatitudeDegrees>41.92451686598360538482666015625</LatitudeDegrees>
              <LongitudeDegrees>-1.9424840994179248809814453125</LongitudeDegrees>
            </Position>
            <AltitudeMeters>910.4000244140625</AltitudeMeters>
            <DistanceMeters>405710.86575822</DistanceMeters>
          </Trackpoint>
          <Trackpoint>
            <Time>2021-08-01T14:37:18.000Z</Time>
            <Position>
              <LatitudeDegrees>41.9244505651295185089111328125</LatitudeDegrees>
              <LongitudeDegrees>-1.942586861550807952880859375</LongitudeDegrees>
            </Position>
            <AltitudeMeters>911.5999755859375</AltitudeMeters>
            <DistanceMeters>405722.12953086</DistanceMeters>
          </Trackpoint>
          <Trackpoint>
            <Time>2021-08-01T14:37:29.000Z</Time>
            <Position>
              <LatitudeDegrees>41.92437554709613323211669921875</LatitudeDegrees>
              <LongitudeDegrees>-1.9427187927067279815673828125</LongitudeDegrees>
            </Position>
            <AltitudeMeters>912.5999755859375</AltitudeMeters>
            <DistanceMeters>405735.88019523</DistanceMeters>
          </Trackpoint>
          <Trackpoint>
            <Time>2021-08-01T14:37:39.000Z</Time>
            <Position>
              <LatitudeDegrees>41.92429558373987674713134765625</LatitudeDegrees>
              <LongitudeDegrees>-1.94282700307667255401611328125</LongitudeDegrees>
            </Position>
            <AltitudeMeters>913.5999755859375</AltitudeMeters>
            <DistanceMeters>405748.50981401</DistanceMeters>
          </Trackpoint>
          <Trackpoint>
            <Time>2021-08-01T14:37:50.000Z</Time>
            <Position>
              <LatitudeDegrees>41.924202628433704376220703125</LatitudeDegrees>
              <LongitudeDegrees>-1.94294116459786891937255859375</LongitudeDegrees>
            </Position>
            <AltitudeMeters>914.79998779296875</AltitudeMeters>
            <DistanceMeters>405762.52424095</DistanceMeters>
          </Trackpoint>
          <Trackpoint>
            <Time>2021-08-01T14:37:59.000Z</Time>
            <Position>
              <LatitudeDegrees>41.92413750104606151580810546875</LatitudeDegrees>
              <LongitudeDegrees>-1.9430409930646419525146484375</LongitudeDegrees>
            </Position>
            <AltitudeMeters>915.79998779296875</AltitudeMeters>
            <DistanceMeters>405773.51945188</DistanceMeters>
          </Trackpoint>
          <Trackpoint>
            <Time>2021-08-01T14:38:06.000Z</Time>
            <Position>
              <LatitudeDegrees>41.92408788017928600311279296875</LatitudeDegrees>
              <LongitudeDegrees>-1.943112574517726898193359375</LongitudeDegrees>
            </Position>
            <AltitudeMeters>916.79998779296875</AltitudeMeters>
            <DistanceMeters>405781.62072312</DistanceMeters>
          </Trackpoint>
          <Trackpoint>
            <Time>2021-08-01T14:38:14.000Z</Time>
            <Position>
              <LatitudeDegrees>41.92403524182736873626708984375</LatitudeDegrees>
              <LongitudeDegrees>-1.94320452399551868438720703125</LongitudeDegrees>
            </Position>
            <AltitudeMeters>917.79998779296875</AltitudeMeters>
            <DistanceMeters>405791.2282952</DistanceMeters>
          </Trackpoint>
          <Trackpoint>
            <Time>2021-08-01T14:38:21.000Z</Time>
            <Position>
              <LatitudeDegrees>41.924002803862094879150390625</LatitudeDegrees>
              <LongitudeDegrees>-1.9432897679507732391357421875</LongitudeDegrees>
            </Position>
            <AltitudeMeters>919</AltitudeMeters>
            <DistanceMeters>405799.15719123</DistanceMeters>
          </Trackpoint>
          <Trackpoint>
            <Time>2021-08-01T14:38:28.000Z</Time>
            <Position>
              <LatitudeDegrees>41.92397757433354854583740234375</LatitudeDegrees>
              <LongitudeDegrees>-1.9433776102960109710693359375</LongitudeDegrees>
            </Position>
            <AltitudeMeters>920</AltitudeMeters>
            <DistanceMeters>405806.95401588</DistanceMeters>
          </Trackpoint>
          <Trackpoint>
            <Time>2021-08-01T14:38:32.000Z</Time>
            <Position>
              <LatitudeDegrees>41.92396382801234722137451171875</LatitudeDegrees>
              <LongitudeDegrees>-1.94343167357146739959716796875</LongitudeDegrees>
            </Position>
            <AltitudeMeters>920.5999755859375</AltitudeMeters>
            <DistanceMeters>405811.68630809</DistanceMeters>
          </Trackpoint>
          <Trackpoint>
            <Time>2021-08-01T14:38:35.000Z</Time>
            <Position>
              <LatitudeDegrees>41.9239496625959873199462890625</LatitudeDegrees>
              <LongitudeDegrees>-1.94346494972705841064453125</LongitudeDegrees>
            </Position>
            <AltitudeMeters>921</AltitudeMeters>
            <DistanceMeters>405814.86082622</DistanceMeters>
          </Trackpoint>
          <Trackpoint>
            <Time>2021-08-01T14:38:40.000Z</Time>
            <Position>
              <LatitudeDegrees>41.923927366733551025390625</LatitudeDegrees>
              <LongitudeDegrees>-1.94352303631603717803955078125</LongitudeDegrees>
            </Position>
            <AltitudeMeters>922.20001220703125</AltitudeMeters>
            <DistanceMeters>405820.27401364</DistanceMeters>
          </Trackpoint>
          <Trackpoint>
            <Time>2021-08-01T14:38:47.000Z</Time>
            <Position>
              <LatitudeDegrees>41.9239007122814655303955078125</LatitudeDegrees>
              <LongitudeDegrees>-1.94360400550067424774169921875</LongitudeDegrees>
            </Position>
            <AltitudeMeters>923.4000244140625</AltitudeMeters>
            <DistanceMeters>405827.60648083</DistanceMeters>
          </Trackpoint>
          <Trackpoint>
            <Time>2021-08-01T14:38:52.000Z</Time>
            <Position>
              <LatitudeDegrees>41.92388034425675868988037109375</LatitudeDegrees>
              <LongitudeDegrees>-1.94366502575576305389404296875</LongitudeDegrees>
            </Position>
            <AltitudeMeters>924.20001220703125</AltitudeMeters>
            <DistanceMeters>405833.14499775</DistanceMeters>
          </Trackpoint>
          <Trackpoint>
            <Time>2021-08-01T14:38:55.000Z</Time>
            <Position>
              <LatitudeDegrees>41.9238738901913166046142578125</LatitudeDegrees>
              <LongitudeDegrees>-1.9436998106539249420166015625</LongitudeDegrees>
            </Position>
            <AltitudeMeters>924.5999755859375</AltitudeMeters>
            <DistanceMeters>405836.11372721</DistanceMeters>
          </Trackpoint>
          <Trackpoint>
            <Time>2021-08-01T14:39:01.000Z</Time>
            <Position>
              <LatitudeDegrees>41.92385838367044925689697265625</LatitudeDegrees>
              <LongitudeDegrees>-1.94377013482153415679931640625</LongitudeDegrees>
            </Position>
            <AltitudeMeters>925.5999755859375</AltitudeMeters>
            <DistanceMeters>405842.18875169</DistanceMeters>
          </Trackpoint>
          <Trackpoint>
            <Time>2021-08-01T14:39:04.000Z</Time>
            <Position>
              <LatitudeDegrees>41.92385083995759487152099609375</LatitudeDegrees>
              <LongitudeDegrees>-1.9438060931861400604248046875</LongitudeDegrees>
            </Position>
            <AltitudeMeters>926</AltitudeMeters>
            <DistanceMeters>405845.28259736</DistanceMeters>
          </Trackpoint>
          <Trackpoint>
            <Time>2021-08-01T14:39:08.000Z</Time>
            <Position>
              <LatitudeDegrees>41.9238500855863094329833984375</LatitudeDegrees>
              <LongitudeDegrees>-1.9438550435006618499755859375</LongitudeDegrees>
            </Position>
            <AltitudeMeters>926.4000244140625</AltitudeMeters>
            <DistanceMeters>405849.33657555</DistanceMeters>
          </Trackpoint>
          <Trackpoint>
            <Time>2021-08-01T14:39:19.000Z</Time>
            <Position>
              <LatitudeDegrees>41.9239060766994953155517578125</LatitudeDegrees>
              <LongitudeDegrees>-1.9439801014959812164306640625</LongitudeDegrees>
            </Position>
            <AltitudeMeters>927.4000244140625</AltitudeMeters>
            <DistanceMeters>405861.42291274</DistanceMeters>
          </Trackpoint>
          <Trackpoint>
            <Time>2021-08-01T14:39:23.000Z</Time>
            <Position>
              <LatitudeDegrees>41.92393474280834197998046875</LatitudeDegrees>
              <LongitudeDegrees>-1.94402075372636318206787109375</LongitudeDegrees>
            </Position>
            <AltitudeMeters>928.5999755859375</AltitudeMeters>
            <DistanceMeters>405866.0607616</DistanceMeters>
          </Trackpoint>
          <Trackpoint>
            <Time>2021-08-01T14:39:29.000Z</Time>
            <Position>
              <LatitudeDegrees>41.92396533675491809844970703125</LatitudeDegrees>
              <LongitudeDegrees>-1.94408730603754520416259765625</LongitudeDegrees>
            </Position>
            <AltitudeMeters>929</AltitudeMeters>
            <DistanceMeters>405872.53932589</DistanceMeters>
          </Trackpoint>
          <Trackpoint>
            <Time>2021-08-01T14:39:31.000Z</Time>
            <Position>
              <LatitudeDegrees>41.92396282218396663665771484375</LatitudeDegrees>
              <LongitudeDegrees>-1.94411278702318668365478515625</LongitudeDegrees>
            </Position>
            <AltitudeMeters>929.4000244140625</AltitudeMeters>
            <DistanceMeters>405874.66843331</DistanceMeters>
          </Trackpoint>
          <Trackpoint>
            <Time>2021-08-01T14:39:32.000Z</Time>
            <Position>
              <LatitudeDegrees>41.9239580444991588592529296875</LatitudeDegrees>
              <LongitudeDegrees>-1.94412401877343654632568359375</LongitudeDegrees>
            </Position>
            <AltitudeMeters>929.5999755859375</AltitudeMeters>
            <DistanceMeters>405875.74353785</DistanceMeters>
          </Trackpoint>
          <Trackpoint>
            <Time>2021-08-01T14:39:36.000Z</Time>
            <Position>
              <LatitudeDegrees>41.923923008143901824951171875</LatitudeDegrees>
              <LongitudeDegrees>-1.944150589406490325927734375</LongitudeDegrees>
            </Position>
            <AltitudeMeters>930.20001220703125</AltitudeMeters>
            <DistanceMeters>405880.22089977</DistanceMeters>
          </Trackpoint>
          <Trackpoint>
            <Time>2021-08-01T14:39:39.000Z</Time>
            <Position>
              <LatitudeDegrees>41.92389710806310176849365234375</LatitudeDegrees>
              <LongitudeDegrees>-1.94417045451700687408447265625</LongitudeDegrees>
            </Position>
            <AltitudeMeters>930.5999755859375</AltitudeMeters>
            <DistanceMeters>405883.54004021</DistanceMeters>
          </Trackpoint>
          <Trackpoint>
            <Time>2021-08-01T14:39:42.000Z</Time>
            <Position>
              <LatitudeDegrees>41.9238695316016674041748046875</LatitudeDegrees>
              <LongitudeDegrees>-1.94419174455106258392333984375</LongitudeDegrees>
            </Position>
            <AltitudeMeters>930.79998779296875</AltitudeMeters>
            <DistanceMeters>405887.08034332</DistanceMeters>
          </Trackpoint>
          <Trackpoint>
            <Time>2021-08-01T14:39:45.000Z</Time>
            <Position>
              <LatitudeDegrees>41.92383726127445697784423828125</LatitudeDegrees>
              <LongitudeDegrees>-1.94420046173036098480224609375</LongitudeDegrees>
            </Position>
            <AltitudeMeters>931.20001220703125</AltitudeMeters>
            <DistanceMeters>405890.74472917</DistanceMeters>
          </Trackpoint>
          <Trackpoint>
            <Time>2021-08-01T14:39:51.000Z</Time>
            <Position>
              <LatitudeDegrees>41.92377774976193904876708984375</LatitudeDegrees>
              <LongitudeDegrees>-1.94424052722752094268798828125</LongitudeDegrees>
            </Position>
            <AltitudeMeters>931.79998779296875</AltitudeMeters>
            <DistanceMeters>405898.15315711</DistanceMeters>
          </Trackpoint>
          <Trackpoint>
            <Time>2021-08-01T14:40:03.000Z</Time>
            <Position>
              <LatitudeDegrees>41.92366962321102619171142578125</LatitudeDegrees>
              <LongitudeDegrees>-1.94433406926691532135009765625</LongitudeDegrees>
            </Position>
            <AltitudeMeters>933</AltitudeMeters>
            <DistanceMeters>405912.46532865</DistanceMeters>
          </Trackpoint>
          <Trackpoint>
            <Time>2021-08-01T14:40:12.000Z</Time>
            <Position>
              <LatitudeDegrees>41.92360608838498592376708984375</LatitudeDegrees>
              <LongitudeDegrees>-1.94443498738110065460205078125</LongitudeDegrees>
            </Position>
            <AltitudeMeters>933.79998779296875</AltitudeMeters>
            <DistanceMeters>405923.41280208</DistanceMeters>
          </Trackpoint>
          <Trackpoint>
            <Time>2021-08-01T14:40:15.000Z</Time>
            <Position>
              <LatitudeDegrees>41.9235855527222156524658203125</LatitudeDegrees>
              <LongitudeDegrees>-1.9444649107754230499267578125</LongitudeDegrees>
            </Position>
            <AltitudeMeters>934.20001220703125</AltitudeMeters>
            <DistanceMeters>405926.78323769</DistanceMeters>
          </Trackpoint>
          <Trackpoint>
            <Time>2021-08-01T14:40:21.000Z</Time>
            <Position>
              <LatitudeDegrees>41.92356350831687450408935546875</LatitudeDegrees>
              <LongitudeDegrees>-1.9445478916168212890625</LongitudeDegrees>
            </Position>
            <AltitudeMeters>934.79998779296875</AltitudeMeters>
            <DistanceMeters>405934.07990341</DistanceMeters>
          </Trackpoint>
          <Trackpoint>
            <Time>2021-08-01T14:40:27.000Z</Time>
            <Position>
              <LatitudeDegrees>41.9235384464263916015625</LatitudeDegrees>
              <LongitudeDegrees>-1.94463062100112438201904296875</LongitudeDegrees>
            </Position>
            <AltitudeMeters>935.4000244140625</AltitudeMeters>
            <DistanceMeters>405941.47674282</DistanceMeters>
          </Trackpoint>
          <Trackpoint>
            <Time>2021-08-01T14:40:30.000Z</Time>
            <Position>
              <LatitudeDegrees>41.923531405627727508544921875</LatitudeDegrees>
              <LongitudeDegrees>-1.94467353634536266326904296875</LongitudeDegrees>
            </Position>
            <AltitudeMeters>935.79998779296875</AltitudeMeters>
            <DistanceMeters>405945.11516171</DistanceMeters>
          </Trackpoint>
          <Trackpoint>
            <Time>2021-08-01T14:40:34.000Z</Time>
            <Position>
              <LatitudeDegrees>41.92351958714425563812255859375</LatitudeDegrees>
              <LongitudeDegrees>-1.944728605449199676513671875</LongitudeDegrees>
            </Position>
            <AltitudeMeters>936.4000244140625</AltitudeMeters>
            <DistanceMeters>405949.8607924</DistanceMeters>
          </Trackpoint>
          <Trackpoint>
            <Time>2021-08-01T14:40:39.000Z</Time>
            <Position>
              <LatitudeDegrees>41.92349896766245365142822265625</LatitudeDegrees>
              <LongitudeDegrees>-1.94479306228458881378173828125</LongitudeDegrees>
            </Position>
            <AltitudeMeters>936.79998779296875</AltitudeMeters>
            <DistanceMeters>405955.67064832</DistanceMeters>
          </Trackpoint>
          <Trackpoint>
            <Time>2021-08-01T14:40:47.000Z</Time>
            <Position>
              <LatitudeDegrees>41.92345303483307361602783203125</LatitudeDegrees>
              <LongitudeDegrees>-1.94489347748458385467529296875</LongitudeDegrees>
            </Position>
            <AltitudeMeters>937.79998779296875</AltitudeMeters>
            <DistanceMeters>405965.43207069</DistanceMeters>
          </Trackpoint>
          <Trackpoint>
            <Time>2021-08-01T14:40:55.000Z</Time>
            <Position>
              <LatitudeDegrees>41.92338849417865276336669921875</LatitudeDegrees>
              <LongitudeDegrees>-1.944981403648853302001953125</LongitudeDegrees>
            </Position>
            <AltitudeMeters>938.5999755859375</AltitudeMeters>
            <DistanceMeters>405975.66058307</DistanceMeters>
          </Trackpoint>
          <Trackpoint>
            <Time>2021-08-01T14:40:57.000Z</Time>
            <Position>
              <LatitudeDegrees>41.92337173037230968475341796875</LatitudeDegrees>
              <LongitudeDegrees>-1.94500260986387729644775390625</LongitudeDegrees>
            </Position>
            <AltitudeMeters>939</AltitudeMeters>
            <DistanceMeters>405978.224544</DistanceMeters>
          </Trackpoint>
          <Trackpoint>
            <Time>2021-08-01T14:41:03.000Z</Time>
            <Position>
              <LatitudeDegrees>41.92332915030419826507568359375</LatitudeDegrees>
              <LongitudeDegrees>-1.9450774602591991424560546875</LongitudeDegrees>
            </Position>
            <AltitudeMeters>940</AltitudeMeters>
            <DistanceMeters>405986.02715737</DistanceMeters>
          </Trackpoint>
          <Trackpoint>
            <Time>2021-08-01T14:41:13.000Z</Time>
            <Position>
              <LatitudeDegrees>41.9232905097305774688720703125</LatitudeDegrees>
              <LongitudeDegrees>-1.9452001713216304779052734375</LongitudeDegrees>
            </Position>
            <AltitudeMeters>940.5999755859375</AltitudeMeters>
            <DistanceMeters>405997.06171902</DistanceMeters>
          </Trackpoint>
          <Trackpoint>
            <Time>2021-08-01T14:41:16.000Z</Time>
            <Position>
              <LatitudeDegrees>41.92329260520637035369873046875</LatitudeDegrees>
              <LongitudeDegrees>-1.9452115707099437713623046875</LongitudeDegrees>
            </Position>
            <AltitudeMeters>940.79998779296875</AltitudeMeters>
            <DistanceMeters>405998.03080516</DistanceMeters>
          </Trackpoint>
          <Trackpoint>
            <Time>2021-08-01T14:45:14.000Z</Time>
            <Position>
              <LatitudeDegrees>41.9232781045138835906982421875</LatitudeDegrees>
              <LongitudeDegrees>-1.94530963897705078125</LongitudeDegrees>
            </Position>
            <AltitudeMeters>940.5999755859375</AltitudeMeters>
            <DistanceMeters>406006.31068079</DistanceMeters>
          </Trackpoint>
          <Trackpoint>
            <Time>2021-08-01T14:45:19.000Z</Time>
            <Position>
              <LatitudeDegrees>41.923273913562297821044921875</LatitudeDegrees>
              <LongitudeDegrees>-1.94540494121611118316650390625</LongitudeDegrees>
            </Position>
            <AltitudeMeters>941.20001220703125</AltitudeMeters>
            <DistanceMeters>406014.21676636</DistanceMeters>
          </Trackpoint>
          <Trackpoint>
            <Time>2021-08-01T14:45:27.000Z</Time>
            <Position>
              <LatitudeDegrees>41.9232294894754886627197265625</LatitudeDegrees>
              <LongitudeDegrees>-1.94556537084281444549560546875</LongitudeDegrees>
            </Position>
            <AltitudeMeters>941.79998779296875</AltitudeMeters>
            <DistanceMeters>406028.39263746</DistanceMeters>
          </Trackpoint>
          <Trackpoint>
            <Time>2021-08-01T14:45:45.000Z</Time>
            <Position>
              <LatitudeDegrees>41.92310099489986896514892578125</LatitudeDegrees>
              <LongitudeDegrees>-1.94595496170222759246826171875</LongitudeDegrees>
            </Position>
            <AltitudeMeters>942.79998779296875</AltitudeMeters>
            <DistanceMeters>406063.68377322</DistanceMeters>
          </Trackpoint>
          <Trackpoint>
            <Time>2021-08-01T14:45:54.000Z</Time>
            <Position>
              <LatitudeDegrees>41.92304424941539764404296875</LatitudeDegrees>
              <LongitudeDegrees>-1.94615922868251800537109375</LongitudeDegrees>
            </Position>
            <AltitudeMeters>944</AltitudeMeters>
            <DistanceMeters>406081.7408494</DistanceMeters>
          </Trackpoint>
          <Trackpoint>
            <Time>2021-08-01T14:46:02.000Z</Time>
            <Position>
              <LatitudeDegrees>41.92299638874828815460205078125</LatitudeDegrees>
              <LongitudeDegrees>-1.94631705991923809051513671875</LongitudeDegrees>
            </Position>
            <AltitudeMeters>944.79998779296875</AltitudeMeters>
            <DistanceMeters>406095.8554357</DistanceMeters>
          </Trackpoint>
          <Trackpoint>
            <Time>2021-08-01T14:46:13.000Z</Time>
            <Position>
              <LatitudeDegrees>41.9229237176477909088134765625</LatitudeDegrees>
              <LongitudeDegrees>-1.94644932635128498077392578125</LongitudeDegrees>
            </Position>
            <AltitudeMeters>945.79998779296875</AltitudeMeters>
            <DistanceMeters>406109.47114242</DistanceMeters>
          </Trackpoint>
          <Trackpoint>
            <Time>2021-08-01T14:46:14.000Z</Time>
            <Position>
              <LatitudeDegrees>41.9229227118194103240966796875</LatitudeDegrees>
              <LongitudeDegrees>-1.9464477337896823883056640625</LongitudeDegrees>
            </Position>
            <AltitudeMeters>946</AltitudeMeters>
            <DistanceMeters>406109.66119585</DistanceMeters>
          </Trackpoint>
          <Trackpoint>
            <Time>2021-08-01T14:46:34.000Z</Time>
            <Position>
              <LatitudeDegrees>41.92285171709954738616943359375</LatitudeDegrees>
              <LongitudeDegrees>-1.9465555250644683837890625</LongitudeDegrees>
            </Position>
            <AltitudeMeters>946.5999755859375</AltitudeMeters>
            <DistanceMeters>406121.5831673</DistanceMeters>
          </Trackpoint>
          <Trackpoint>
            <Time>2021-08-01T14:46:43.000Z</Time>
            <Position>
              <LatitudeDegrees>41.9227597676217555999755859375</LatitudeDegrees>
              <LongitudeDegrees>-1.946724839508533477783203125</LongitudeDegrees>
            </Position>
            <AltitudeMeters>947</AltitudeMeters>
            <DistanceMeters>406138.94213187</DistanceMeters>
          </Trackpoint>
          <Trackpoint>
            <Time>2021-08-01T14:46:52.000Z</Time>
            <Position>
              <LatitudeDegrees>41.9226685725152492523193359375</LatitudeDegrees>
              <LongitudeDegrees>-1.946894824504852294921875</LongitudeDegrees>
            </Position>
            <AltitudeMeters>948</AltitudeMeters>
            <DistanceMeters>406156.2966742</DistanceMeters>
          </Trackpoint>
          <Trackpoint>
            <Time>2021-08-01T14:46:59.000Z</Time>
            <Position>
              <LatitudeDegrees>41.92259741015732288360595703125</LatitudeDegrees>
              <LongitudeDegrees>-1.947017200291156768798828125</LongitudeDegrees>
            </Position>
            <AltitudeMeters>949.20001220703125</AltitudeMeters>
            <DistanceMeters>406169.15867251</DistanceMeters>
          </Trackpoint>
          <Trackpoint>
            <Time>2021-08-01T14:47:14.000Z</Time>
            <Position>
              <LatitudeDegrees>41.9224392436444759368896484375</LatitudeDegrees>
              <LongitudeDegrees>-1.94728634320199489593505859375</LongitudeDegrees>
            </Position>
            <AltitudeMeters>950.20001220703125</AltitudeMeters>
            <DistanceMeters>406197.5610113</DistanceMeters>
          </Trackpoint>
          <Trackpoint>
            <Time>2021-08-01T14:47:37.000Z</Time>
            <Position>
              <LatitudeDegrees>41.922260709106922149658203125</LatitudeDegrees>
              <LongitudeDegrees>-1.94771985523402690887451171875</LongitudeDegrees>
            </Position>
            <AltitudeMeters>951.20001220703125</AltitudeMeters>
            <DistanceMeters>406238.59451047</DistanceMeters>
          </Trackpoint>
          <Trackpoint>
            <Time>2021-08-01T14:47:52.000Z</Time>
            <Position>
              <LatitudeDegrees>41.92208804190158843994140625</LatitudeDegrees>
              <LongitudeDegrees>-1.94797776639461517333984375</LongitudeDegrees>
            </Position>
            <AltitudeMeters>952.20001220703125</AltitudeMeters>
            <DistanceMeters>406267.32669832</DistanceMeters>
          </Trackpoint>
          <Trackpoint>
            <Time>2021-08-01T14:48:15.000Z</Time>
            <Position>
              <LatitudeDegrees>41.9216496683657169342041015625</LatitudeDegrees>
              <LongitudeDegrees>-1.9481599889695644378662109375</LongitudeDegrees>
            </Position>
            <AltitudeMeters>953.20001220703125</AltitudeMeters>
            <DistanceMeters>406318.39893834</DistanceMeters>
          </Trackpoint>
          <Trackpoint>
            <Time>2021-08-01T14:48:31.000Z</Time>
            <Position>
              <LatitudeDegrees>41.92128002643585205078125</LatitudeDegrees>
              <LongitudeDegrees>-1.9481247849762439727783203125</LongitudeDegrees>
            </Position>
            <AltitudeMeters>954</AltitudeMeters>
            <DistanceMeters>406359.64403552</DistanceMeters>
          </Trackpoint>
          <Trackpoint>
            <Time>2021-08-01T14:48:41.000Z</Time>
            <Position>
              <LatitudeDegrees>41.92105966620147228240966796875</LatitudeDegrees>
              <LongitudeDegrees>-1.9480604119598865509033203125</LongitudeDegrees>
            </Position>
            <AltitudeMeters>955.20001220703125</AltitudeMeters>
            <DistanceMeters>406384.74332342</DistanceMeters>
          </Trackpoint>
          <Trackpoint>
            <Time>2021-08-01T14:48:47.000Z</Time>
            <Position>
              <LatitudeDegrees>41.92094231955707073211669921875</LatitudeDegrees>
              <LongitudeDegrees>-1.94799243472516536712646484375</LongitudeDegrees>
            </Position>
            <AltitudeMeters>956.4000244140625</AltitudeMeters>
            <DistanceMeters>406398.96561973</DistanceMeters>
          </Trackpoint>
          <Trackpoint>
            <Time>2021-08-01T14:49:03.000Z</Time>
            <Position>
              <LatitudeDegrees>41.92061810754239559173583984375</LatitudeDegrees>
              <LongitudeDegrees>-1.947863437235355377197265625</LongitudeDegrees>
            </Position>
            <AltitudeMeters>957.4000244140625</AltitudeMeters>
            <DistanceMeters>406436.59907811</DistanceMeters>
          </Trackpoint>
          <Trackpoint>
            <Time>2021-08-01T14:49:21.000Z</Time>
            <Position>
              <LatitudeDegrees>41.92035508342087268829345703125</LatitudeDegrees>
              <LongitudeDegrees>-1.94809284992516040802001953125</LongitudeDegrees>
            </Position>
            <AltitudeMeters>958.4000244140625</AltitudeMeters>
            <DistanceMeters>406471.49885993</DistanceMeters>
          </Trackpoint>
          <Trackpoint>
            <Time>2021-08-01T14:49:32.000Z</Time>
            <Position>
              <LatitudeDegrees>41.92022860050201416015625</LatitudeDegrees>
              <LongitudeDegrees>-1.9482682831585407257080078125</LongitudeDegrees>
            </Position>
            <AltitudeMeters>959.5999755859375</AltitudeMeters>
            <DistanceMeters>406491.7290632</DistanceMeters>
          </Trackpoint>
          <Trackpoint>
            <Time>2021-08-01T14:49:43.000Z</Time>
            <Position>
              <LatitudeDegrees>41.9201422668993473052978515625</LatitudeDegrees>
              <LongitudeDegrees>-1.9484717957675457000732421875</LongitudeDegrees>
            </Position>
            <AltitudeMeters>960.5999755859375</AltitudeMeters>
            <DistanceMeters>406511.13011153</DistanceMeters>
          </Trackpoint>
          <Trackpoint>
            <Time>2021-08-01T14:49:49.000Z</Time>
            <Position>
              <LatitudeDegrees>41.92011586390435695648193359375</LatitudeDegrees>
              <LongitudeDegrees>-1.94852099753916263580322265625</LongitudeDegrees>
            </Position>
            <AltitudeMeters>961.4000244140625</AltitudeMeters>
            <DistanceMeters>406516.15485966</DistanceMeters>
          </Trackpoint>
          <Trackpoint>
            <Time>2021-08-01T14:57:33.000Z</Time>
            <Position>
              <LatitudeDegrees>41.92007948644459247589111328125</LatitudeDegrees>
              <LongitudeDegrees>-1.948569528758525848388671875</LongitudeDegrees>
            </Position>
            <AltitudeMeters>962</AltitudeMeters>
            <DistanceMeters>406521.8596292</DistanceMeters>
          </Trackpoint>
          <Trackpoint>
            <Time>2021-08-01T14:57:47.000Z</Time>
            <Position>
              <LatitudeDegrees>41.91991168074309825897216796875</LatitudeDegrees>
              <LongitudeDegrees>-1.94888569414615631103515625</LongitudeDegrees>
            </Position>
            <AltitudeMeters>963</AltitudeMeters>
            <DistanceMeters>406554.02220648</DistanceMeters>
          </Trackpoint>
          <Trackpoint>
            <Time>2021-08-01T14:58:10.000Z</Time>
            <Position>
              <LatitudeDegrees>41.91960632801055908203125</LatitudeDegrees>
              <LongitudeDegrees>-1.9493817351758480072021484375</LongitudeDegrees>
            </Position>
            <AltitudeMeters>963.79998779296875</AltitudeMeters>
            <DistanceMeters>406607.33930706</DistanceMeters>
          </Trackpoint>
          <Trackpoint>
            <Time>2021-08-01T14:58:24.000Z</Time>
            <Position>
              <LatitudeDegrees>41.91944740712642669677734375</LatitudeDegrees>
              <LongitudeDegrees>-1.94973117671906948089599609375</LongitudeDegrees>
            </Position>
            <AltitudeMeters>964.79998779296875</AltitudeMeters>
            <DistanceMeters>406641.25678956</DistanceMeters>
          </Trackpoint>
          <Trackpoint>
            <Time>2021-08-01T14:58:37.000Z</Time>
            <Position>
              <LatitudeDegrees>41.91925202496349811553955078125</LatitudeDegrees>
              <LongitudeDegrees>-1.95001666434109210968017578125</LongitudeDegrees>
            </Position>
            <AltitudeMeters>966</AltitudeMeters>
            <DistanceMeters>406673.380317</DistanceMeters>
          </Trackpoint>
          <Trackpoint>
            <Time>2021-08-01T14:58:46.000Z</Time>
            <Position>
              <LatitudeDegrees>41.9191181659698486328125</LatitudeDegrees>
              <LongitudeDegrees>-1.95021464489400386810302734375</LongitudeDegrees>
            </Position>
            <AltitudeMeters>967.20001220703125</AltitudeMeters>
            <DistanceMeters>406695.53479229</DistanceMeters>
          </Trackpoint>
          <Trackpoint>
            <Time>2021-08-01T14:58:51.000Z</Time>
            <Position>
              <LatitudeDegrees>41.9190529547631740570068359375</LatitudeDegrees>
              <LongitudeDegrees>-1.95029628463089466094970703125</LongitudeDegrees>
            </Position>
            <AltitudeMeters>968.20001220703125</AltitudeMeters>
            <DistanceMeters>406705.45450715</DistanceMeters>
          </Trackpoint>
          <Trackpoint>
            <Time>2021-08-01T14:59:01.000Z</Time>
            <Position>
              <LatitudeDegrees>41.91891004331409931182861328125</LatitudeDegrees>
              <LongitudeDegrees>-1.9503781758248805999755859375</LongitudeDegrees>
            </Position>
            <AltitudeMeters>969.4000244140625</AltitudeMeters>
            <DistanceMeters>406722.74623613</DistanceMeters>
          </Trackpoint>
          <Trackpoint>
            <Time>2021-08-01T14:59:08.000Z</Time>
            <Position>
              <LatitudeDegrees>41.9187840633094310760498046875</LatitudeDegrees>
              <LongitudeDegrees>-1.95043475367128849029541015625</LongitudeDegrees>
            </Position>
            <AltitudeMeters>970.4000244140625</AltitudeMeters>
            <DistanceMeters>406737.5301453</DistanceMeters>
          </Trackpoint>
          <Trackpoint>
            <Time>2021-08-01T14:59:19.000Z</Time>
            <Position>
              <LatitudeDegrees>41.91859538666903972625732421875</LatitudeDegrees>
              <LongitudeDegrees>-1.95055360905826091766357421875</LongitudeDegrees>
            </Position>
            <AltitudeMeters>971.20001220703125</AltitudeMeters>
            <DistanceMeters>406760.72250468</DistanceMeters>
          </Trackpoint>
          <Trackpoint>
            <Time>2021-08-01T14:59:26.000Z</Time>
            <Position>
              <LatitudeDegrees>41.91848290152847766876220703125</LatitudeDegrees>
              <LongitudeDegrees>-1.95061060599982738494873046875</LongitudeDegrees>
            </Position>
            <AltitudeMeters>972.4000244140625</AltitudeMeters>
            <DistanceMeters>406774.10272499</DistanceMeters>
          </Trackpoint>
          <Trackpoint>
            <Time>2021-08-01T14:59:35.000Z</Time>
            <Position>
              <LatitudeDegrees>41.91832297481596469879150390625</LatitudeDegrees>
              <LongitudeDegrees>-1.95066575892269611358642578125</LongitudeDegrees>
            </Position>
            <AltitudeMeters>973.4000244140625</AltitudeMeters>
            <DistanceMeters>406792.48001693</DistanceMeters>
          </Trackpoint>
          <Trackpoint>
            <Time>2021-08-01T14:59:44.000Z</Time>
            <Position>
              <LatitudeDegrees>41.9181567616760730743408203125</LatitudeDegrees>
              <LongitudeDegrees>-1.95068637840449810028076171875</LongitudeDegrees>
            </Position>
            <AltitudeMeters>974.5999755859375</AltitudeMeters>
            <DistanceMeters>406811.05865095</DistanceMeters>
          </Trackpoint>
          <Trackpoint>
            <Time>2021-08-01T14:59:49.000Z</Time>
            <Position>
              <LatitudeDegrees>41.918058358132839202880859375</LatitudeDegrees>
              <LongitudeDegrees>-1.95069861598312854766845703125</LongitudeDegrees>
            </Position>
            <AltitudeMeters>975.5999755859375</AltitudeMeters>
            <DistanceMeters>406822.05837796</DistanceMeters>
          </Trackpoint>
          <Trackpoint>
            <Time>2021-08-01T15:00:15.000Z</Time>
            <Position>
              <LatitudeDegrees>41.9175026379525661468505859375</LatitudeDegrees>
              <LongitudeDegrees>-1.9506658427417278289794921875</LongitudeDegrees>
            </Position>
            <AltitudeMeters>976.5999755859375</AltitudeMeters>
            <DistanceMeters>406883.97067075</DistanceMeters>
          </Trackpoint>
          <Trackpoint>
            <Time>2021-08-01T15:00:16.000Z</Time>
            <Position>
              <LatitudeDegrees>41.9174778275191783905029296875</LatitudeDegrees>
              <LongitudeDegrees>-1.95066533982753753662109375</LongitudeDegrees>
            </Position>
            <AltitudeMeters>976.79998779296875</AltitudeMeters>
            <DistanceMeters>406886.73135627</DistanceMeters>
          </Trackpoint>
          <Trackpoint>
            <Time>2021-08-01T15:00:36.000Z</Time>
            <Position>
              <LatitudeDegrees>41.91693761385977268218994140625</LatitudeDegrees>
              <LongitudeDegrees>-1.9506856240332126617431640625</LongitudeDegrees>
            </Position>
            <AltitudeMeters>977.4000244140625</AltitudeMeters>
            <DistanceMeters>406946.88161511</DistanceMeters>
          </Trackpoint>
          <Trackpoint>
            <Time>2021-08-01T15:00:41.000Z</Time>
            <Position>
              <LatitudeDegrees>41.91678539849817752838134765625</LatitudeDegrees>
              <LongitudeDegrees>-1.95068277418613433837890625</LongitudeDegrees>
            </Position>
            <AltitudeMeters>977.5999755859375</AltitudeMeters>
            <DistanceMeters>406963.82517407</DistanceMeters>
          </Trackpoint>
          <Trackpoint>
            <Time>2021-08-01T15:00:59.000Z</Time>
            <Position>
              <LatitudeDegrees>41.916229091584682464599609375</LatitudeDegrees>
              <LongitudeDegrees>-1.950602643191814422607421875</LongitudeDegrees>
            </Position>
            <AltitudeMeters>978.5999755859375</AltitudeMeters>
            <DistanceMeters>407026.09784109</DistanceMeters>
          </Trackpoint>
          <Trackpoint>
            <Time>2021-08-01T15:01:00.000Z</Time>
            <Position>
              <LatitudeDegrees>41.91619749180972576141357421875</LatitudeDegrees>
              <LongitudeDegrees>-1.9505964405834674835205078125</LongitudeDegrees>
            </Position>
            <AltitudeMeters>978.79998779296875</AltitudeMeters>
            <DistanceMeters>407029.65087457</DistanceMeters>
          </Trackpoint>
          <Trackpoint>
            <Time>2021-08-01T15:01:11.000Z</Time>
            <Position>
              <LatitudeDegrees>41.9158517383038997650146484375</LatitudeDegrees>
              <LongitudeDegrees>-1.95052058435976505279541015625</LongitudeDegrees>
            </Position>
            <AltitudeMeters>979.79998779296875</AltitudeMeters>
            <DistanceMeters>407068.64333578</DistanceMeters>
          </Trackpoint>
          <Trackpoint>
            <Time>2021-08-01T15:01:20.000Z</Time>
            <Position>
              <LatitudeDegrees>41.91558242775499820709228515625</LatitudeDegrees>
              <LongitudeDegrees>-1.95045956410467624664306640625</LongitudeDegrees>
            </Position>
            <AltitudeMeters>980.79998779296875</AltitudeMeters>
            <DistanceMeters>407099.04119199</DistanceMeters>
          </Trackpoint>
          <Trackpoint>
            <Time>2021-08-01T15:01:38.000Z</Time>
            <Position>
              <LatitudeDegrees>41.91514355130493640899658203125</LatitudeDegrees>
              <LongitudeDegrees>-1.9504220969974994659423828125</LongitudeDegrees>
            </Position>
            <AltitudeMeters>982</AltitudeMeters>
            <DistanceMeters>407147.98742229</DistanceMeters>
          </Trackpoint>
          <Trackpoint>
            <Time>2021-08-01T15:01:49.000Z</Time>
            <Position>
              <LatitudeDegrees>41.9148655235767364501953125</LatitudeDegrees>
              <LongitudeDegrees>-1.95041195489466190338134765625</LongitudeDegrees>
            </Position>
            <AltitudeMeters>983.20001220703125</AltitudeMeters>
            <DistanceMeters>407178.94367808</DistanceMeters>
          </Trackpoint>
          <Trackpoint>
            <Time>2021-08-01T15:01:58.000Z</Time>
            <Position>
              <LatitudeDegrees>41.91465421579778194427490234375</LatitudeDegrees>
              <LongitudeDegrees>-1.950426958501338958740234375</LongitudeDegrees>
            </Position>
            <AltitudeMeters>984.20001220703125</AltitudeMeters>
            <DistanceMeters>407202.49554649</DistanceMeters>
          </Trackpoint>
          <Trackpoint>
            <Time>2021-08-01T15:02:05.000Z</Time>
            <Position>
              <LatitudeDegrees>41.9144900143146514892578125</LatitudeDegrees>
              <LongitudeDegrees>-1.9504509307444095611572265625</LongitudeDegrees>
            </Position>
            <AltitudeMeters>985.20001220703125</AltitudeMeters>
            <DistanceMeters>407220.87922515</DistanceMeters>
          </Trackpoint>
          <Trackpoint>
            <Time>2021-08-01T15:02:13.000Z</Time>
            <Position>
              <LatitudeDegrees>41.91430804319679737091064453125</LatitudeDegrees>
              <LongitudeDegrees>-1.95048605091869831085205078125</LongitudeDegrees>
            </Position>
            <AltitudeMeters>986.20001220703125</AltitudeMeters>
            <DistanceMeters>407241.34066362</DistanceMeters>
          </Trackpoint>
          <Trackpoint>
            <Time>2021-08-01T15:02:20.000Z</Time>
            <Position>
              <LatitudeDegrees>41.91417024470865726470947265625</LatitudeDegrees>
              <LongitudeDegrees>-1.95052142255008220672607421875</LongitudeDegrees>
            </Position>
            <AltitudeMeters>987.4000244140625</AltitudeMeters>
            <DistanceMeters>407256.95514613</DistanceMeters>
          </Trackpoint>
          <Trackpoint>
            <Time>2021-08-01T15:02:30.000Z</Time>
            <Position>
              <LatitudeDegrees>41.91396891139447689056396484375</LatitudeDegrees>
              <LongitudeDegrees>-1.95057238452136516571044921875</LongitudeDegrees>
            </Position>
            <AltitudeMeters>988.5999755859375</AltitudeMeters>
            <DistanceMeters>407279.7579938</DistanceMeters>
          </Trackpoint>
          <Trackpoint>
            <Time>2021-08-01T15:02:36.000Z</Time>
            <Position>
              <LatitudeDegrees>41.91384418867528438568115234375</LatitudeDegrees>
              <LongitudeDegrees>-1.95060473866760730743408203125</LongitudeDegrees>
            </Position>
            <AltitudeMeters>989.79998779296875</AltitudeMeters>
            <DistanceMeters>407293.89623174</DistanceMeters>
          </Trackpoint>
          <Trackpoint>
            <Time>2021-08-01T15:02:45.000Z</Time>
            <Position>
              <LatitudeDegrees>41.9136395864188671112060546875</LatitudeDegrees>
              <LongitudeDegrees>-1.9506061635911464691162109375</LongitudeDegrees>
            </Position>
            <AltitudeMeters>990.79998779296875</AltitudeMeters>
            <DistanceMeters>407316.66935955</DistanceMeters>
          </Trackpoint>
          <Trackpoint>
            <Time>2021-08-01T15:02:53.000Z</Time>
            <Position>
              <LatitudeDegrees>41.91346197389066219329833984375</LatitudeDegrees>
              <LongitudeDegrees>-1.95058009587228298187255859375</LongitudeDegrees>
            </Position>
            <AltitudeMeters>991.79998779296875</AltitudeMeters>
            <DistanceMeters>407336.5556153</DistanceMeters>
          </Trackpoint>
          <Trackpoint>
            <Time>2021-08-01T15:02:58.000Z</Time>
            <Position>
              <LatitudeDegrees>41.9133581221103668212890625</LatitudeDegrees>
              <LongitudeDegrees>-1.95057816803455352783203125</LongitudeDegrees>
            </Position>
            <AltitudeMeters>993</AltitudeMeters>
            <DistanceMeters>407348.11533291</DistanceMeters>
          </Trackpoint>
          <Trackpoint>
            <Time>2021-08-01T15:03:03.000Z</Time>
            <Position>
              <LatitudeDegrees>41.91328645683825016021728515625</LatitudeDegrees>
              <LongitudeDegrees>-1.9505743123590946197509765625</LongitudeDegrees>
            </Position>
            <AltitudeMeters>993.79998779296875</AltitudeMeters>
            <DistanceMeters>407356.09757692</DistanceMeters>
          </Trackpoint>
          <Trackpoint>
            <Time>2021-08-01T15:03:24.000Z</Time>
            <Position>
              <LatitudeDegrees>41.91279360093176364898681640625</LatitudeDegrees>
              <LongitudeDegrees>-1.950767599046230316162109375</LongitudeDegrees>
            </Position>
            <AltitudeMeters>992.5999755859375</AltitudeMeters>
            <DistanceMeters>407413.24174761</DistanceMeters>
          </Trackpoint>
          <Trackpoint>
            <Time>2021-08-01T15:03:25.000Z</Time>
            <Position>
              <LatitudeDegrees>41.91274984739720821380615234375</LatitudeDegrees>
              <LongitudeDegrees>-1.95080104283988475799560546875</LongitudeDegrees>
            </Position>
            <AltitudeMeters>992.4000244140625</AltitudeMeters>
            <DistanceMeters>407418.84348981</DistanceMeters>
          </Trackpoint>
          <Trackpoint>
            <Time>2021-08-01T15:03:27.000Z</Time>
            <Position>
              <LatitudeDegrees>41.91264373250305652618408203125</LatitudeDegrees>
              <LongitudeDegrees>-1.95087212137877941131591796875</LongitudeDegrees>
            </Position>
            <AltitudeMeters>991.20001220703125</AltitudeMeters>
            <DistanceMeters>407432.04023389</DistanceMeters>
          </Trackpoint>
          <Trackpoint>
            <Time>2021-08-01T15:03:28.000Z</Time>
            <Position>
              <LatitudeDegrees>41.9125807844102382659912109375</LatitudeDegrees>
              <LongitudeDegrees>-1.95090380497276782989501953125</LongitudeDegrees>
            </Position>
            <AltitudeMeters>990.20001220703125</AltitudeMeters>
            <DistanceMeters>407439.52264486</DistanceMeters>
          </Trackpoint>
          <Trackpoint>
            <Time>2021-08-01T15:03:29.000Z</Time>
            <Position>
              <LatitudeDegrees>41.912510879337787628173828125</LatitudeDegrees>
              <LongitudeDegrees>-1.950923837721347808837890625</LongitudeDegrees>
            </Position>
            <AltitudeMeters>989.4000244140625</AltitudeMeters>
            <DistanceMeters>407447.47769204</DistanceMeters>
          </Trackpoint>
          <Trackpoint>
            <Time>2021-08-01T15:03:32.000Z</Time>
            <Position>
              <LatitudeDegrees>41.9123085401952266693115234375</LatitudeDegrees>
              <LongitudeDegrees>-1.95089793764054775238037109375</LongitudeDegrees>
            </Position>
            <AltitudeMeters>988</AltitudeMeters>
            <DistanceMeters>407470.10043751</DistanceMeters>
          </Trackpoint>
          <Trackpoint>
            <Time>2021-08-01T15:03:34.000Z</Time>
            <Position>
              <LatitudeDegrees>41.9121724180877208709716796875</LatitudeDegrees>
              <LongitudeDegrees>-1.95087798871099948883056640625</LongitudeDegrees>
            </Position>
            <AltitudeMeters>986</AltitudeMeters>
            <DistanceMeters>407485.34119394</DistanceMeters>
          </Trackpoint>
          <Trackpoint>
            <Time>2021-08-01T15:03:35.000Z</Time>
            <Position>
              <LatitudeDegrees>41.91210192628204822540283203125</LatitudeDegrees>
              <LongitudeDegrees>-1.9508700259029865264892578125</LongitudeDegrees>
            </Position>
            <AltitudeMeters>985.20001220703125</AltitudeMeters>
            <DistanceMeters>407493.21523387</DistanceMeters>
          </Trackpoint>
          <Trackpoint>
            <Time>2021-08-01T15:03:36.000Z</Time>
            <Position>
              <LatitudeDegrees>41.91203118301928043365478515625</LatitudeDegrees>
              <LongitudeDegrees>-1.95085150189697742462158203125</LongitudeDegrees>
            </Position>
            <AltitudeMeters>984.79998779296875</AltitudeMeters>
            <DistanceMeters>407501.23753745</DistanceMeters>
          </Trackpoint>
          <Trackpoint>
            <Time>2021-08-01T15:03:41.000Z</Time>
            <Position>
              <LatitudeDegrees>41.911829598248004913330078125</LatitudeDegrees>
              <LongitudeDegrees>-1.95056064985692501068115234375</LongitudeDegrees>
            </Position>
            <AltitudeMeters>984.4000244140625</AltitudeMeters>
            <DistanceMeters>407534.1582257</DistanceMeters>
          </Trackpoint>
          <Trackpoint>
            <Time>2021-08-01T15:03:46.000Z</Time>
            <Position>
              <LatitudeDegrees>41.9117536582052707672119140625</LatitudeDegrees>
              <LongitudeDegrees>-1.95032025687396526336669921875</LongitudeDegrees>
            </Position>
            <AltitudeMeters>986</AltitudeMeters>
            <DistanceMeters>407555.7892784</DistanceMeters>
          </Trackpoint>
          <Trackpoint>
            <Time>2021-08-01T15:03:50.000Z</Time>
            <Position>
              <LatitudeDegrees>41.91170093603432178497314453125</LatitudeDegrees>
              <LongitudeDegrees>-1.950161419808864593505859375</LongitudeDegrees>
            </Position>
            <AltitudeMeters>987.20001220703125</AltitudeMeters>
            <DistanceMeters>407570.19452594</DistanceMeters>
          </Trackpoint>
          <Trackpoint>
            <Time>2021-08-01T15:03:55.000Z</Time>
            <Position>
              <LatitudeDegrees>41.91160018555819988250732421875</LatitudeDegrees>
              <LongitudeDegrees>-1.95002471096813678741455078125</LongitudeDegrees>
            </Position>
            <AltitudeMeters>988.20001220703125</AltitudeMeters>
            <DistanceMeters>407586.1307071</DistanceMeters>
          </Trackpoint>
          <Trackpoint>
            <Time>2021-08-01T15:03:59.000Z</Time>
            <Position>
              <LatitudeDegrees>41.91153061576187610626220703125</LatitudeDegrees>
              <LongitudeDegrees>-1.94993251003324985504150390625</LongitudeDegrees>
            </Position>
            <AltitudeMeters>989.4000244140625</AltitudeMeters>
            <DistanceMeters>407597.0061814</DistanceMeters>
          </Trackpoint>
          <Trackpoint>
            <Time>2021-08-01T15:04:13.000Z</Time>
            <Position>
              <LatitudeDegrees>41.91115410067141056060791015625</LatitudeDegrees>
              <LongitudeDegrees>-1.95003175176680088043212890625</LongitudeDegrees>
            </Position>
            <AltitudeMeters>989</AltitudeMeters>
            <DistanceMeters>407639.71157168</DistanceMeters>
          </Trackpoint>
          <Trackpoint>
            <Time>2021-08-01T15:04:15.000Z</Time>
            <Position>
              <LatitudeDegrees>41.911058463156223297119140625</LatitudeDegrees>
              <LongitudeDegrees>-1.95004918612539768218994140625</LongitudeDegrees>
            </Position>
            <AltitudeMeters>988.20001220703125</AltitudeMeters>
            <DistanceMeters>407650.4537943</DistanceMeters>
          </Trackpoint>
          <Trackpoint>
            <Time>2021-08-01T15:04:17.000Z</Time>
            <Position>
              <LatitudeDegrees>41.91093751229345798492431640625</LatitudeDegrees>
              <LongitudeDegrees>-1.950035355985164642333984375</LongitudeDegrees>
            </Position>
            <AltitudeMeters>985.79998779296875</AltitudeMeters>
            <DistanceMeters>407663.96430744</DistanceMeters>
          </Trackpoint>
          <Trackpoint>
            <Time>2021-08-01T15:04:19.000Z</Time>
            <Position>
              <LatitudeDegrees>41.91080507822334766387939453125</LatitudeDegrees>
              <LongitudeDegrees>-1.9500066898763179779052734375</LongitudeDegrees>
            </Position>
            <AltitudeMeters>984.20001220703125</AltitudeMeters>
            <DistanceMeters>407678.89408999</DistanceMeters>
          </Trackpoint>
          <Trackpoint>
            <Time>2021-08-01T15:04:20.000Z</Time>
            <Position>
              <LatitudeDegrees>41.91074154339730739593505859375</LatitudeDegrees>
              <LongitudeDegrees>-1.94998204708099365234375</LongitudeDegrees>
            </Position>
            <AltitudeMeters>983</AltitudeMeters>
            <DistanceMeters>407686.25360074</DistanceMeters>
          </Trackpoint>
          <Trackpoint>
            <Time>2021-08-01T15:04:21.000Z</Time>
            <Position>
              <LatitudeDegrees>41.91067792475223541259765625</LatitudeDegrees>
              <LongitudeDegrees>-1.94995396770536899566650390625</LongitudeDegrees>
            </Position>
            <AltitudeMeters>982</AltitudeMeters>
            <DistanceMeters>407693.70699127</DistanceMeters>
          </Trackpoint>
          <Trackpoint>
            <Time>2021-08-01T15:04:23.000Z</Time>
            <Position>
              <LatitudeDegrees>41.91054674796760082244873046875</LatitudeDegrees>
              <LongitudeDegrees>-1.9499064423143863677978515625</LongitudeDegrees>
            </Position>
            <AltitudeMeters>980.79998779296875</AltitudeMeters>
            <DistanceMeters>407708.82908292</DistanceMeters>
          </Trackpoint>
          <Trackpoint>
            <Time>2021-08-01T15:04:24.000Z</Time>
            <Position>
              <LatitudeDegrees>41.9104816205799579620361328125</LatitudeDegrees>
              <LongitudeDegrees>-1.94989277981221675872802734375</LongitudeDegrees>
            </Position>
            <AltitudeMeters>980.5999755859375</AltitudeMeters>
            <DistanceMeters>407716.16585916</DistanceMeters>
          </Trackpoint>
          <Trackpoint>
            <Time>2021-08-01T15:04:25.000Z</Time>
            <Position>
              <LatitudeDegrees>41.91041775047779083251953125</LatitudeDegrees>
              <LongitudeDegrees>-1.9498886726796627044677734375</LongitudeDegrees>
            </Position>
            <AltitudeMeters>979.79998779296875</AltitudeMeters>
            <DistanceMeters>407723.28335372</DistanceMeters>
          </Trackpoint>
          <Trackpoint>
            <Time>2021-08-01T15:04:28.000Z</Time>
            <Position>
              <LatitudeDegrees>41.91025254316627979278564453125</LatitudeDegrees>
              <LongitudeDegrees>-1.94992597214877605438232421875</LongitudeDegrees>
            </Position>
            <AltitudeMeters>978.5999755859375</AltitudeMeters>
            <DistanceMeters>407741.92894149</DistanceMeters>
          </Trackpoint>
          <Trackpoint>
            <Time>2021-08-01T15:04:29.000Z</Time>
            <Position>
              <LatitudeDegrees>41.910200156271457672119140625</LatitudeDegrees>
              <LongitudeDegrees>-1.94995095022022724151611328125</LongitudeDegrees>
            </Position>
            <AltitudeMeters>978</AltitudeMeters>
            <DistanceMeters>407748.11590311</DistanceMeters>
          </Trackpoint>
          <Trackpoint>
            <Time>2021-08-01T15:04:30.000Z</Time>
            <Position>
              <LatitudeDegrees>41.91014441661536693572998046875</LatitudeDegrees>
              <LongitudeDegrees>-1.9499825499951839447021484375</LongitudeDegrees>
            </Position>
            <AltitudeMeters>977.4000244140625</AltitudeMeters>
            <DistanceMeters>407754.84873191</DistanceMeters>
          </Trackpoint>
          <Trackpoint>
            <Time>2021-08-01T15:04:32.000Z</Time>
            <Position>
              <LatitudeDegrees>41.91002019681036472320556640625</LatitudeDegrees>
              <LongitudeDegrees>-1.9500579871237277984619140625</LongitudeDegrees>
            </Position>
            <AltitudeMeters>975.79998779296875</AltitudeMeters>
            <DistanceMeters>407770.0209008</DistanceMeters>
          </Trackpoint>
          <Trackpoint>
            <Time>2021-08-01T15:04:34.000Z</Time>
            <Position>
              <LatitudeDegrees>41.909879632294178009033203125</LatitudeDegrees>
              <LongitudeDegrees>-1.9501257129013538360595703125</LongitudeDegrees>
            </Position>
            <AltitudeMeters>973</AltitudeMeters>
            <DistanceMeters>407786.64161374</DistanceMeters>
          </Trackpoint>
          <Trackpoint>
            <Time>2021-08-01T15:04:35.000Z</Time>
            <Position>
              <LatitudeDegrees>41.90980712883174419403076171875</LatitudeDegrees>
              <LongitudeDegrees>-1.95016284473240375518798828125</LongitudeDegrees>
            </Position>
            <AltitudeMeters>971.79998779296875</AltitudeMeters>
            <DistanceMeters>407795.27807316</DistanceMeters>
          </Trackpoint>
          <Trackpoint>
            <Time>2021-08-01T15:04:36.000Z</Time>
            <Position>
              <LatitudeDegrees>41.909735463559627532958984375</LatitudeDegrees>
              <LongitudeDegrees>-1.95020911283791065216064453125</LongitudeDegrees>
            </Position>
            <AltitudeMeters>970.79998779296875</AltitudeMeters>
            <DistanceMeters>407804.12730041</DistanceMeters>
          </Trackpoint>
          <Trackpoint>
            <Time>2021-08-01T15:04:37.000Z</Time>
            <Position>
              <LatitudeDegrees>41.9096675701439380645751953125</LatitudeDegrees>
              <LongitudeDegrees>-1.95026460103690624237060546875</LongitudeDegrees>
            </Position>
            <AltitudeMeters>970</AltitudeMeters>
            <DistanceMeters>407812.97142401</DistanceMeters>
          </Trackpoint>
          <Trackpoint>
            <Time>2021-08-01T15:04:39.000Z</Time>
            <Position>
              <LatitudeDegrees>41.90952633507549762725830078125</LatitudeDegrees>
              <LongitudeDegrees>-1.95039686746895313262939453125</LongitudeDegrees>
            </Position>
            <AltitudeMeters>968.5999755859375</AltitudeMeters>
            <DistanceMeters>407832.1324482</DistanceMeters>
          </Trackpoint>
          <Trackpoint>
            <Time>2021-08-01T15:04:40.000Z</Time>
            <Position>
              <LatitudeDegrees>41.90944519825279712677001953125</LatitudeDegrees>
              <LongitudeDegrees>-1.950462162494659423828125</LongitudeDegrees>
            </Position>
            <AltitudeMeters>967</AltitudeMeters>
            <DistanceMeters>407842.6585604</DistanceMeters>
          </Trackpoint>
          <Trackpoint>
            <Time>2021-08-01T15:04:41.000Z</Time>
            <Position>
              <LatitudeDegrees>41.90935802645981311798095703125</LatitudeDegrees>
              <LongitudeDegrees>-1.95052024908363819122314453125</LongitudeDegrees>
            </Position>
            <AltitudeMeters>965.5999755859375</AltitudeMeters>
            <DistanceMeters>407853.48827105</DistanceMeters>
          </Trackpoint>
          <Trackpoint>
            <Time>2021-08-01T15:04:42.000Z</Time>
            <Position>
              <LatitudeDegrees>41.9092690944671630859375</LatitudeDegrees>
              <LongitudeDegrees>-1.950575821101665496826171875</LongitudeDegrees>
            </Position>
            <AltitudeMeters>965</AltitudeMeters>
            <DistanceMeters>407864.4047686</DistanceMeters>
          </Trackpoint>
          <Trackpoint>
            <Time>2021-08-01T15:04:43.000Z</Time>
            <Position>
              <LatitudeDegrees>41.90918167121708393096923828125</LatitudeDegrees>
              <LongitudeDegrees>-1.95063491351902484893798828125</LongitudeDegrees>
            </Position>
            <AltitudeMeters>964.5999755859375</AltitudeMeters>
            <DistanceMeters>407875.29683656</DistanceMeters>
          </Trackpoint>
          <Trackpoint>
            <Time>2021-08-01T15:04:50.000Z</Time>
            <Position>
              <LatitudeDegrees>41.9086723029613494873046875</LatitudeDegrees>
              <LongitudeDegrees>-1.95105065591633319854736328125</LongitudeDegrees>
            </Position>
            <AltitudeMeters>965.20001220703125</AltitudeMeters>
            <DistanceMeters>407941.62983957</DistanceMeters>
          </Trackpoint>
          <Trackpoint>
            <Time>2021-08-01T15:04:51.000Z</Time>
            <Position>
              <LatitudeDegrees>41.9086121208965778350830078125</LatitudeDegrees>
              <LongitudeDegrees>-1.95108669809997081756591796875</LongitudeDegrees>
            </Position>
            <AltitudeMeters>965.5999755859375</AltitudeMeters>
            <DistanceMeters>407948.96353818</DistanceMeters>
          </Trackpoint>
          <Trackpoint>
            <Time>2021-08-01T15:04:53.000Z</Time>
            <Position>
              <LatitudeDegrees>41.9084994681179523468017578125</LatitudeDegrees>
              <LongitudeDegrees>-1.95113581605255603790283203125</LongitudeDegrees>
            </Position>
            <AltitudeMeters>966.79998779296875</AltitudeMeters>
            <DistanceMeters>407962.14521982</DistanceMeters>
          </Trackpoint>
          <Trackpoint>
            <Time>2021-08-01T15:04:57.000Z</Time>
            <Position>
              <LatitudeDegrees>41.9083236157894134521484375</LatitudeDegrees>
              <LongitudeDegrees>-1.95118543691933155059814453125</LongitudeDegrees>
            </Position>
            <AltitudeMeters>967.79998779296875</AltitudeMeters>
            <DistanceMeters>407982.14490072</DistanceMeters>
          </Trackpoint>
          <Trackpoint>
            <Time>2021-08-01T15:05:02.000Z</Time>
            <Position>
              <LatitudeDegrees>41.90816008485853672027587890625</LatitudeDegrees>
              <LongitudeDegrees>-1.95117269642651081085205078125</LongitudeDegrees>
            </Position>
            <AltitudeMeters>969</AltitudeMeters>
            <DistanceMeters>408000.37715714</DistanceMeters>
          </Trackpoint>
          <Trackpoint>
            <Time>2021-08-01T15:05:05.000Z</Time>
            <Position>
              <LatitudeDegrees>41.90809034742414951324462890625</LatitudeDegrees>
              <LongitudeDegrees>-1.95114034228026866912841796875</LongitudeDegrees>
            </Position>
            <AltitudeMeters>970.20001220703125</AltitudeMeters>
            <DistanceMeters>408008.58858703</DistanceMeters>
          </Trackpoint>
          <Trackpoint>
            <Time>2021-08-01T15:05:09.000Z</Time>
            <Position>
              <LatitudeDegrees>41.908025555312633514404296875</LatitudeDegrees>
              <LongitudeDegrees>-1.95110077969729900360107421875</LongitudeDegrees>
            </Position>
            <AltitudeMeters>971.20001220703125</AltitudeMeters>
            <DistanceMeters>408016.50950687</DistanceMeters>
          </Trackpoint>
          <Trackpoint>
            <Time>2021-08-01T15:05:15.000Z</Time>
            <Position>
              <LatitudeDegrees>41.90792086534202098846435546875</LatitudeDegrees>
              <LongitudeDegrees>-1.95102048106491565704345703125</LongitudeDegrees>
            </Position>
            <AltitudeMeters>972.4000244140625</AltitudeMeters>
            <DistanceMeters>408029.92612134</DistanceMeters>
          </Trackpoint>
          <Trackpoint>
            <Time>2021-08-01T15:05:18.000Z</Time>
            <Position>
              <LatitudeDegrees>41.9078597612679004669189453125</LatitudeDegrees>
              <LongitudeDegrees>-1.95100639946758747100830078125</LongitudeDegrees>
            </Position>
            <AltitudeMeters>973.5999755859375</AltitudeMeters>
            <DistanceMeters>408036.82718091</DistanceMeters>
          </Trackpoint>
          <Trackpoint>
            <Time>2021-08-01T15:05:23.000Z</Time>
            <Position>
              <LatitudeDegrees>41.90776160918176174163818359375</LatitudeDegrees>
              <LongitudeDegrees>-1.95099147967994213104248046875</LongitudeDegrees>
            </Position>
            <AltitudeMeters>974.79998779296875</AltitudeMeters>
            <DistanceMeters>408047.82157053</DistanceMeters>
          </Trackpoint>
          <Trackpoint>
            <Time>2021-08-01T15:05:27.000Z</Time>
            <Position>
              <LatitudeDegrees>41.90768818370997905731201171875</LatitudeDegrees>
              <LongitudeDegrees>-1.9509555213153362274169921875</LongitudeDegrees>
            </Position>
            <AltitudeMeters>976</AltitudeMeters>
            <DistanceMeters>408056.52053832</DistanceMeters>
          </Trackpoint>
          <Trackpoint>
            <Time>2021-08-01T15:05:33.000Z</Time>
            <Position>
              <LatitudeDegrees>41.90759212709963321685791015625</LatitudeDegrees>
              <LongitudeDegrees>-1.95086516439914703369140625</LongitudeDegrees>
            </Position>
            <AltitudeMeters>977.20001220703125</AltitudeMeters>
            <DistanceMeters>408069.57106597</DistanceMeters>
          </Trackpoint>
          <Trackpoint>
            <Time>2021-08-01T15:05:36.000Z</Time>
            <Position>
              <LatitudeDegrees>41.90754351206123828887939453125</LatitudeDegrees>
              <LongitudeDegrees>-1.95082685910165309906005859375</LongitudeDegrees>
            </Position>
            <AltitudeMeters>978.20001220703125</AltitudeMeters>
            <DistanceMeters>408075.84426875</DistanceMeters>
          </Trackpoint>
          <Trackpoint>
            <Time>2021-08-01T15:05:40.000Z</Time>
            <Position>
              <LatitudeDegrees>41.907485760748386383056640625</LatitudeDegrees>
              <LongitudeDegrees>-1.9507798366248607635498046875</LongitudeDegrees>
            </Position>
            <AltitudeMeters>979.4000244140625</AltitudeMeters>
            <DistanceMeters>408083.35979456</DistanceMeters>
          </Trackpoint>
          <Trackpoint>
            <Time>2021-08-01T15:05:41.000Z</Time>
            <Position>
              <LatitudeDegrees>41.9074725173413753509521484375</LatitudeDegrees>
              <LongitudeDegrees>-1.95076986216008663177490234375</LongitudeDegrees>
            </Position>
            <AltitudeMeters>979.5999755859375</AltitudeMeters>
            <DistanceMeters>408085.04902638</DistanceMeters>
          </Trackpoint>
          <Trackpoint>
            <Time>2021-08-01T15:05:44.000Z</Time>
            <Position>
              <LatitudeDegrees>41.90742884762585163116455078125</LatitudeDegrees>
              <LongitudeDegrees>-1.95074178278446197509765625</LongitudeDegrees>
            </Position>
            <AltitudeMeters>980.4000244140625</AltitudeMeters>
            <DistanceMeters>408090.43629523</DistanceMeters>
          </Trackpoint>
          <Trackpoint>
            <Time>2021-08-01T15:05:49.000Z</Time>
            <Position>
              <LatitudeDegrees>41.907360367476940155029296875</LatitudeDegrees>
              <LongitudeDegrees>-1.95070716552436351776123046875</LongitudeDegrees>
            </Position>
            <AltitudeMeters>981.5999755859375</AltitudeMeters>
            <DistanceMeters>408098.57981299</DistanceMeters>
          </Trackpoint>
          <Trackpoint>
            <Time>2021-08-01T15:05:53.000Z</Time>
            <Position>
              <LatitudeDegrees>41.9073070585727691650390625</LatitudeDegrees>
              <LongitudeDegrees>-1.95068973116576671600341796875</LongitudeDegrees>
            </Position>
            <AltitudeMeters>982.79998779296875</AltitudeMeters>
            <DistanceMeters>408104.68597264</DistanceMeters>
          </Trackpoint>
          <Trackpoint>
            <Time>2021-08-01T15:05:59.000Z</Time>
            <Position>
              <LatitudeDegrees>41.90721695311367511749267578125</LatitudeDegrees>
              <LongitudeDegrees>-1.950679756700992584228515625</LongitudeDegrees>
            </Position>
            <AltitudeMeters>983.79998779296875</AltitudeMeters>
            <DistanceMeters>408114.74848958</DistanceMeters>
          </Trackpoint>
          <Trackpoint>
            <Time>2021-08-01T15:06:07.000Z</Time>
            <Position>
              <LatitudeDegrees>41.90709474496543407440185546875</LatitudeDegrees>
              <LongitudeDegrees>-1.9506447203457355499267578125</LongitudeDegrees>
            </Position>
            <AltitudeMeters>985</AltitudeMeters>
            <DistanceMeters>408128.65684309</DistanceMeters>
          </Trackpoint>
          <Trackpoint>
            <Time>2021-08-01T15:06:18.000Z</Time>
            <Position>
              <LatitudeDegrees>41.90692593343555927276611328125</LatitudeDegrees>
              <LongitudeDegrees>-1.95056266151368618011474609375</LongitudeDegrees>
            </Position>
            <AltitudeMeters>986.20001220703125</AltitudeMeters>
            <DistanceMeters>408148.6377775</DistanceMeters>
          </Trackpoint>
          <Trackpoint>
            <Time>2021-08-01T15:06:24.000Z</Time>
            <Position>
              <LatitudeDegrees>41.90684077329933643341064453125</LatitudeDegrees>
              <LongitudeDegrees>-1.95053768344223499298095703125</LongitudeDegrees>
            </Position>
            <AltitudeMeters>987</AltitudeMeters>
            <DistanceMeters>408158.33981424</DistanceMeters>
          </Trackpoint>
          <Trackpoint>
            <Time>2021-08-01T15:06:34.000Z</Time>
            <Position>
              <LatitudeDegrees>41.90670020878314971923828125</LatitudeDegrees>
              <LongitudeDegrees>-1.95050566457211971282958984375</LongitudeDegrees>
            </Position>
            <AltitudeMeters>988</AltitudeMeters>
            <DistanceMeters>408174.20813745</DistanceMeters>
          </Trackpoint>
          <Trackpoint>
            <Time>2021-08-01T15:06:42.000Z</Time>
            <Position>
              <LatitudeDegrees>41.90659602172672748565673828125</LatitudeDegrees>
              <LongitudeDegrees>-1.95042737759649753570556640625</LongitudeDegrees>
            </Position>
            <AltitudeMeters>989</AltitudeMeters>
            <DistanceMeters>408187.49421792</DistanceMeters>
          </Trackpoint>
          <Trackpoint>
            <Time>2021-08-01T15:06:48.000Z</Time>
            <Position>
              <LatitudeDegrees>41.90652326680719852447509765625</LatitudeDegrees>
              <LongitudeDegrees>-1.9503543712198734283447265625</LongitudeDegrees>
            </Position>
            <AltitudeMeters>990.20001220703125</AltitudeMeters>
            <DistanceMeters>408197.60061168</DistanceMeters>
          </Trackpoint>
          <Trackpoint>
            <Time>2021-08-01T15:06:53.000Z</Time>
            <Position>
              <LatitudeDegrees>41.9064485840499401092529296875</LatitudeDegrees>
              <LongitudeDegrees>-1.95029309950768947601318359375</LongitudeDegrees>
            </Position>
            <AltitudeMeters>991.4000244140625</AltitudeMeters>
            <DistanceMeters>408207.33980687</DistanceMeters>
          </Trackpoint>
          <Trackpoint>
            <Time>2021-08-01T15:06:58.000Z</Time>
            <Position>
              <LatitudeDegrees>41.9063808582723140716552734375</LatitudeDegrees>
              <LongitudeDegrees>-1.9502390362322330474853515625</LongitudeDegrees>
            </Position>
            <AltitudeMeters>992.4000244140625</AltitudeMeters>
            <DistanceMeters>408216.10804904</DistanceMeters>
          </Trackpoint>
          <Trackpoint>
            <Time>2021-08-01T15:07:09.000Z</Time>
            <Position>
              <LatitudeDegrees>41.9062309898436069488525390625</LatitudeDegrees>
              <LongitudeDegrees>-1.950115822255611419677734375</LongitudeDegrees>
            </Position>
            <AltitudeMeters>993.4000244140625</AltitudeMeters>
            <DistanceMeters>408235.66370647</DistanceMeters>
          </Trackpoint>
          <Trackpoint>
            <Time>2021-08-01T15:07:15.000Z</Time>
            <Position>
              <LatitudeDegrees>41.906146667897701263427734375</LatitudeDegrees>
              <LongitudeDegrees>-1.95005253888666629791259765625</LongitudeDegrees>
            </Position>
            <AltitudeMeters>994.4000244140625</AltitudeMeters>
            <DistanceMeters>408246.41349197</DistanceMeters>
          </Trackpoint>
          <Trackpoint>
            <Time>2021-08-01T15:07:27.000Z</Time>
            <Position>
              <LatitudeDegrees>41.90598079003393650054931640625</LatitudeDegrees>
              <LongitudeDegrees>-1.94995765574276447296142578125</LongitudeDegrees>
            </Position>
            <AltitudeMeters>995.5999755859375</AltitudeMeters>
            <DistanceMeters>408266.47943522</DistanceMeters>
          </Trackpoint>
          <Trackpoint>
            <Time>2021-08-01T15:07:40.000Z</Time>
            <Position>
              <LatitudeDegrees>41.9058323465287685394287109375</LatitudeDegrees>
              <LongitudeDegrees>-1.94983385503292083740234375</LongitudeDegrees>
            </Position>
            <AltitudeMeters>996.5999755859375</AltitudeMeters>
            <DistanceMeters>408285.9253469</DistanceMeters>
          </Trackpoint>
          <Trackpoint>
            <Time>2021-08-01T15:07:59.000Z</Time>
            <Position>
              <LatitudeDegrees>41.90549614839255809783935546875</LatitudeDegrees>
              <LongitudeDegrees>-1.94945759139955043792724609375</LongitudeDegrees>
            </Position>
            <AltitudeMeters>994.79998779296875</AltitudeMeters>
            <DistanceMeters>408334.62521689</DistanceMeters>
          </Trackpoint>
          <Trackpoint>
            <Time>2021-08-01T15:08:01.000Z</Time>
            <Position>
              <LatitudeDegrees>41.90542423166334629058837890625</LatitudeDegrees>
              <LongitudeDegrees>-1.9493750296533107757568359375</LongitudeDegrees>
            </Position>
            <AltitudeMeters>993.20001220703125</AltitudeMeters>
            <DistanceMeters>408345.15347356</DistanceMeters>
          </Trackpoint>
          <Trackpoint>
            <Time>2021-08-01T15:08:03.000Z</Time>
            <Position>
              <LatitudeDegrees>41.905354075133800506591796875</LatitudeDegrees>
              <LongitudeDegrees>-1.9492752850055694580078125</LongitudeDegrees>
            </Position>
            <AltitudeMeters>991.79998779296875</AltitudeMeters>
            <DistanceMeters>408356.52178276</DistanceMeters>
          </Trackpoint>
          <Trackpoint>
            <Time>2021-08-01T15:08:04.000Z</Time>
            <Position>
              <LatitudeDegrees>41.90532113425433635711669921875</LatitudeDegrees>
              <LongitudeDegrees>-1.9492161087691783905029296875</LongitudeDegrees>
            </Position>
            <AltitudeMeters>990.79998779296875</AltitudeMeters>
            <DistanceMeters>408362.6434506</DistanceMeters>
          </Trackpoint>
          <Trackpoint>
            <Time>2021-08-01T15:08:05.000Z</Time>
            <Position>
              <LatitudeDegrees>41.90529380924999713897705078125</LatitudeDegrees>
              <LongitudeDegrees>-1.94914611987769603729248046875</LongitudeDegrees>
            </Position>
            <AltitudeMeters>989.5999755859375</AltitudeMeters>
            <DistanceMeters>408369.18995676</DistanceMeters>
          </Trackpoint>
          <Trackpoint>
            <Time>2021-08-01T15:08:07.000Z</Time>
            <Position>
              <LatitudeDegrees>41.90525944344699382781982421875</LatitudeDegrees>
              <LongitudeDegrees>-1.948977895081043243408203125</LongitudeDegrees>
            </Position>
            <AltitudeMeters>988</AltitudeMeters>
            <DistanceMeters>408383.64026775</DistanceMeters>
          </Trackpoint>
          <Trackpoint>
            <Time>2021-08-01T15:08:08.000Z</Time>
            <Position>
              <LatitudeDegrees>41.9052543304860591888427734375</LatitudeDegrees>
              <LongitudeDegrees>-1.9488885439932346343994140625</LongitudeDegrees>
            </Position>
            <AltitudeMeters>987</AltitudeMeters>
            <DistanceMeters>408391.06330799</DistanceMeters>
          </Trackpoint>
          <Trackpoint>
            <Time>2021-08-01T15:08:09.000Z</Time>
            <Position>
              <LatitudeDegrees>41.90525089390575885772705078125</LatitudeDegrees>
              <LongitudeDegrees>-1.94879760034382343292236328125</LongitudeDegrees>
            </Position>
            <AltitudeMeters>986.20001220703125</AltitudeMeters>
            <DistanceMeters>408398.60701674</DistanceMeters>
          </Trackpoint>
          <Trackpoint>
            <Time>2021-08-01T15:08:10.000Z</Time>
            <Position>
              <LatitudeDegrees>41.90524217672646045684814453125</LatitudeDegrees>
              <LongitudeDegrees>-1.94870523177087306976318359375</LongitudeDegrees>
            </Position>
            <AltitudeMeters>985.79998779296875</AltitudeMeters>
            <DistanceMeters>408406.32000213</DistanceMeters>
          </Trackpoint>
          <Trackpoint>
            <Time>2021-08-01T15:08:13.000Z</Time>
            <Position>
              <LatitudeDegrees>41.9051648117601871490478515625</LatitudeDegrees>
              <LongitudeDegrees>-1.948463916778564453125</LongitudeDegrees>
            </Position>
            <AltitudeMeters>983.5999755859375</AltitudeMeters>
            <DistanceMeters>408428.08547641</DistanceMeters>
          </Trackpoint>
          <Trackpoint>
            <Time>2021-08-01T15:08:14.000Z</Time>
            <Position>
              <LatitudeDegrees>41.9051292724907398223876953125</LatitudeDegrees>
              <LongitudeDegrees>-1.948396526277065277099609375</LongitudeDegrees>
            </Position>
            <AltitudeMeters>982.20001220703125</AltitudeMeters>
            <DistanceMeters>408434.92739984</DistanceMeters>
          </Trackpoint>
          <Trackpoint>
            <Time>2021-08-01T15:08:16.000Z</Time>
            <Position>
              <LatitudeDegrees>41.9050508178770542144775390625</LatitudeDegrees>
              <LongitudeDegrees>-1.9482820294797420501708984375</LongitudeDegrees>
            </Position>
            <AltitudeMeters>980.79998779296875</AltitudeMeters>
            <DistanceMeters>408447.81955199</DistanceMeters>
          </Trackpoint>
          <Trackpoint>
            <Time>2021-08-01T15:08:17.000Z</Time>
            <Position>
              <LatitudeDegrees>41.90501418896019458770751953125</LatitudeDegrees>
              <LongitudeDegrees>-1.94822595454752445220947265625</LongitudeDegrees>
            </Position>
            <AltitudeMeters>980.4000244140625</AltitudeMeters>
            <DistanceMeters>408453.99994222</DistanceMeters>
          </Trackpoint>
          <Trackpoint>
            <Time>2021-08-01T15:08:19.000Z</Time>
            <Position>
              <LatitudeDegrees>41.90494378097355365753173828125</LatitudeDegrees>
              <LongitudeDegrees>-1.94812595844268798828125</LongitudeDegrees>
            </Position>
            <AltitudeMeters>979.79998779296875</AltitudeMeters>
            <DistanceMeters>408465.40314794</DistanceMeters>
          </Trackpoint>
          <Trackpoint>
            <Time>2021-08-01T15:08:20.000Z</Time>
            <Position>
              <LatitudeDegrees>41.90490656532347202301025390625</LatitudeDegrees>
              <LongitudeDegrees>-1.94808949716389179229736328125</LongitudeDegrees>
            </Position>
            <AltitudeMeters>979.79998779296875</AltitudeMeters>
            <DistanceMeters>408470.52930854</DistanceMeters>
          </Trackpoint>
          <Trackpoint>
            <Time>2021-08-01T15:08:26.000Z</Time>
            <Position>
              <LatitudeDegrees>41.904741860926151275634765625</LatitudeDegrees>
              <LongitudeDegrees>-1.94804507307708263397216796875</LongitudeDegrees>
            </Position>
            <AltitudeMeters>980.4000244140625</AltitudeMeters>
            <DistanceMeters>408489.2266447</DistanceMeters>
          </Trackpoint>
          <Trackpoint>
            <Time>2021-08-01T15:08:28.000Z</Time>
            <Position>
              <LatitudeDegrees>41.90472903661429882049560546875</LatitudeDegrees>
              <LongitudeDegrees>-1.94804373197257518768310546875</LongitudeDegrees>
            </Position>
            <AltitudeMeters>980.20001220703125</AltitudeMeters>
            <DistanceMeters>408490.66151662</DistanceMeters>
          </Trackpoint>
          <Trackpoint>
            <Time>2021-08-01T15:09:49.000Z</Time>
            <Position>
              <LatitudeDegrees>41.90470841713249683380126953125</LatitudeDegrees>
              <LongitudeDegrees>-1.9480506889522075653076171875</LongitudeDegrees>
            </Position>
            <AltitudeMeters>978.79998779296875</AltitudeMeters>
            <DistanceMeters>408493.02766272</DistanceMeters>
          </Trackpoint>
          <Trackpoint>
            <Time>2021-08-01T15:09:54.000Z</Time>
            <Position>
              <LatitudeDegrees>41.90457900054752826690673828125</LatitudeDegrees>
              <LongitudeDegrees>-1.9480977952480316162109375</LongitudeDegrees>
            </Position>
            <AltitudeMeters>978.5999755859375</AltitudeMeters>
            <DistanceMeters>408507.95109314</DistanceMeters>
          </Trackpoint>
          <Trackpoint>
            <Time>2021-08-01T15:10:00.000Z</Time>
            <Position>
              <LatitudeDegrees>41.904293932020664215087890625</LatitudeDegrees>
              <LongitudeDegrees>-1.94815051741898059844970703125</LongitudeDegrees>
            </Position>
            <AltitudeMeters>976.79998779296875</AltitudeMeters>
            <DistanceMeters>408539.97890236</DistanceMeters>
          </Trackpoint>
          <Trackpoint>
            <Time>2021-08-01T15:10:02.000Z</Time>
            <Position>
              <LatitudeDegrees>41.9041750766336917877197265625</LatitudeDegrees>
              <LongitudeDegrees>-1.94817063398659229278564453125</LongitudeDegrees>
            </Position>
            <AltitudeMeters>975.5999755859375</AltitudeMeters>
            <DistanceMeters>408553.31213584</DistanceMeters>
          </Trackpoint>
          <Trackpoint>
            <Time>2021-08-01T15:10:04.000Z</Time>
            <Position>
              <LatitudeDegrees>41.90407005138695240020751953125</LatitudeDegrees>
              <LongitudeDegrees>-1.94818438030779361724853515625</LongitudeDegrees>
            </Position>
            <AltitudeMeters>975</AltitudeMeters>
            <DistanceMeters>408565.05706869</DistanceMeters>
          </Trackpoint>
          <Trackpoint>
            <Time>2021-08-01T15:10:10.000Z</Time>
            <Position>
              <LatitudeDegrees>41.9039457477629184722900390625</LatitudeDegrees>
              <LongitudeDegrees>-1.948181949555873870849609375</LongitudeDegrees>
            </Position>
            <AltitudeMeters>974.5999755859375</AltitudeMeters>
            <DistanceMeters>408578.89381979</DistanceMeters>
          </Trackpoint>
          <Trackpoint>
            <Time>2021-08-01T15:10:14.000Z</Time>
            <Position>
              <LatitudeDegrees>41.90389738418161869049072265625</LatitudeDegrees>
              <LongitudeDegrees>-1.948176585137844085693359375</LongitudeDegrees>
            </Position>
            <AltitudeMeters>974</AltitudeMeters>
            <DistanceMeters>408584.2944815</DistanceMeters>
          </Trackpoint>
          <Trackpoint>
            <Time>2021-08-01T15:10:16.000Z</Time>
            <Position>
              <LatitudeDegrees>41.90388011746108531951904296875</LatitudeDegrees>
              <LongitudeDegrees>-1.9481308199465274810791015625</LongitudeDegrees>
            </Position>
            <AltitudeMeters>973.5999755859375</AltitudeMeters>
            <DistanceMeters>408588.54420536</DistanceMeters>
          </Trackpoint>
          <Trackpoint>
            <Time>2021-08-01T15:10:20.000Z</Time>
            <Position>
              <LatitudeDegrees>41.9038696400821208953857421875</LatitudeDegrees>
              <LongitudeDegrees>-1.948052532970905303955078125</LongitudeDegrees>
            </Position>
            <AltitudeMeters>972.79998779296875</AltitudeMeters>
            <DistanceMeters>408595.13196274</DistanceMeters>
          </Trackpoint>
          <Trackpoint>
            <Time>2021-08-01T15:10:30.000Z</Time>
            <Position>
              <LatitudeDegrees>41.90389931201934814453125</LatitudeDegrees>
              <LongitudeDegrees>-1.94785664789378643035888671875</LongitudeDegrees>
            </Position>
            <AltitudeMeters>974.5999755859375</AltitudeMeters>
            <DistanceMeters>408611.69116868</DistanceMeters>
          </Trackpoint>
          <Trackpoint>
            <Time>2021-08-01T15:10:33.000Z</Time>
            <Position>
              <LatitudeDegrees>41.9039078615605831146240234375</LatitudeDegrees>
              <LongitudeDegrees>-1.9478119723498821258544921875</LongitudeDegrees>
            </Position>
            <AltitudeMeters>975</AltitudeMeters>
            <DistanceMeters>408615.51119532</DistanceMeters>
          </Trackpoint>
          <Trackpoint>
            <Time>2021-08-01T15:10:39.000Z</Time>
            <Position>
              <LatitudeDegrees>41.9039571471512317657470703125</LatitudeDegrees>
              <LongitudeDegrees>-1.9476999901235103607177734375</LongitudeDegrees>
            </Position>
            <AltitudeMeters>975.5999755859375</AltitudeMeters>
            <DistanceMeters>408626.28740909</DistanceMeters>
          </Trackpoint>
          <Trackpoint>
            <Time>2021-08-01T15:10:48.000Z</Time>
            <Position>
              <LatitudeDegrees>41.90403409302234649658203125</LatitudeDegrees>
              <LongitudeDegrees>-1.94762061350047588348388671875</LongitudeDegrees>
            </Position>
            <AltitudeMeters>975.5999755859375</AltitudeMeters>
            <DistanceMeters>408637.08496978</DistanceMeters>
          </Trackpoint>
          <Trackpoint>
            <Time>2021-08-01T15:10:57.000Z</Time>
            <Position>
              <LatitudeDegrees>41.90399126149713993072509765625</LatitudeDegrees>
              <LongitudeDegrees>-1.94767559878528118133544921875</LongitudeDegrees>
            </Position>
            <AltitudeMeters>976</AltitudeMeters>
            <DistanceMeters>408643.67957729</DistanceMeters>
          </Trackpoint>
          <Trackpoint>
            <Time>2021-08-01T15:11:02.000Z</Time>
            <Position>
              <LatitudeDegrees>41.90396276302635669708251953125</LatitudeDegrees>
              <LongitudeDegrees>-1.94776050746440887451171875</LongitudeDegrees>
            </Position>
            <AltitudeMeters>975.79998779296875</AltitudeMeters>
            <DistanceMeters>408651.39607416</DistanceMeters>
          </Trackpoint>
          <Trackpoint>
            <Time>2021-08-01T15:11:10.000Z</Time>
            <Position>
              <LatitudeDegrees>41.903880201280117034912109375</LatitudeDegrees>
              <LongitudeDegrees>-1.94798447191715240478515625</LongitudeDegrees>
            </Position>
            <AltitudeMeters>974.5999755859375</AltitudeMeters>
            <DistanceMeters>408672.09990711</DistanceMeters>
          </Trackpoint>
          <Trackpoint>
            <Time>2021-08-01T15:11:13.000Z</Time>
            <Position>
              <LatitudeDegrees>41.90385170280933380126953125</LatitudeDegrees>
              <LongitudeDegrees>-1.9480895809829235076904296875</LongitudeDegrees>
            </Position>
            <AltitudeMeters>973.4000244140625</AltitudeMeters>
            <DistanceMeters>408681.36683902</DistanceMeters>
          </Trackpoint>
          <Trackpoint>
            <Time>2021-08-01T15:11:17.000Z</Time>
            <Position>
              <LatitudeDegrees>41.903816163539886474609375</LatitudeDegrees>
              <LongitudeDegrees>-1.94814951159060001373291015625</LongitudeDegrees>
            </Position>
            <AltitudeMeters>972.79998779296875</AltitudeMeters>
            <DistanceMeters>408687.71516409</DistanceMeters>
          </Trackpoint>
          <Trackpoint>
            <Time>2021-08-01T15:11:19.000Z</Time>
            <Position>
              <LatitudeDegrees>41.9037633575499057769775390625</LatitudeDegrees>
              <LongitudeDegrees>-1.94812797009944915771484375</LongitudeDegrees>
            </Position>
            <AltitudeMeters>972.4000244140625</AltitudeMeters>
            <DistanceMeters>408693.8589186</DistanceMeters>
          </Trackpoint>
          <Trackpoint>
            <Time>2021-08-01T15:11:22.000Z</Time>
            <Position>
              <LatitudeDegrees>41.903657577931880950927734375</LatitudeDegrees>
              <LongitudeDegrees>-1.948073990643024444580078125</LongitudeDegrees>
            </Position>
            <AltitudeMeters>971.20001220703125</AltitudeMeters>
            <DistanceMeters>408706.45309554</DistanceMeters>
          </Trackpoint>
          <Trackpoint>
            <Time>2021-08-01T15:11:25.000Z</Time>
            <Position>
              <LatitudeDegrees>41.903573758900165557861328125</LatitudeDegrees>
              <LongitudeDegrees>-1.94804742000997066497802734375</LongitudeDegrees>
            </Position>
            <AltitudeMeters>970</AltitudeMeters>
            <DistanceMeters>408716.03855473</DistanceMeters>
          </Trackpoint>
          <Trackpoint>
            <Time>2021-08-01T15:11:28.000Z</Time>
            <Position>
              <LatitudeDegrees>41.903500668704509735107421875</LatitudeDegrees>
              <LongitudeDegrees>-1.94804825820028781890869140625</LongitudeDegrees>
            </Position>
            <AltitudeMeters>968.79998779296875</AltitudeMeters>
            <DistanceMeters>408724.17430671</DistanceMeters>
          </Trackpoint>
          <Trackpoint>
            <Time>2021-08-01T15:11:32.000Z</Time>
            <Position>
              <LatitudeDegrees>41.90341995097696781158447265625</LatitudeDegrees>
              <LongitudeDegrees>-1.9480453245341777801513671875</LongitudeDegrees>
            </Position>
            <AltitudeMeters>967.5999755859375</AltitudeMeters>
            <DistanceMeters>408733.16224662</DistanceMeters>
          </Trackpoint>
          <Trackpoint>
            <Time>2021-08-01T15:11:35.000Z</Time>
            <Position>
              <LatitudeDegrees>41.90336194820702075958251953125</LatitudeDegrees>
              <LongitudeDegrees>-1.9480151496827602386474609375</LongitudeDegrees>
            </Position>
            <AltitudeMeters>966.4000244140625</AltitudeMeters>
            <DistanceMeters>408740.08551505</DistanceMeters>
          </Trackpoint>
          <Trackpoint>
            <Time>2021-08-01T15:11:39.000Z</Time>
            <Position>
              <LatitudeDegrees>41.90328516997396945953369140625</LatitudeDegrees>
              <LongitudeDegrees>-1.94797097705304622650146484375</LongitudeDegrees>
            </Position>
            <AltitudeMeters>965.20001220703125</AltitudeMeters>
            <DistanceMeters>408749.38163422</DistanceMeters>
          </Trackpoint>
          <Trackpoint>
            <Time>2021-08-01T15:11:40.000Z</Time>
            <Position>
              <LatitudeDegrees>41.90327343530952930450439453125</LatitudeDegrees>
              <LongitudeDegrees>-1.94795052520930767059326171875</LongitudeDegrees>
            </Position>
            <AltitudeMeters>965.20001220703125</AltitudeMeters>
            <DistanceMeters>408751.5192073</DistanceMeters>
          </Trackpoint>
          <Trackpoint>
            <Time>2021-08-01T15:11:44.000Z</Time>
            <Position>
              <LatitudeDegrees>41.90330159850418567657470703125</LatitudeDegrees>
              <LongitudeDegrees>-1.947828568518161773681640625</LongitudeDegrees>
            </Position>
            <AltitudeMeters>964.20001220703125</AltitudeMeters>
            <DistanceMeters>408762.09666669</DistanceMeters>
          </Trackpoint>
          <Trackpoint>
            <Time>2021-08-01T15:11:47.000Z</Time>
            <Position>
              <LatitudeDegrees>41.90335105173289775848388671875</LatitudeDegrees>
              <LongitudeDegrees>-1.947742402553558349609375</LongitudeDegrees>
            </Position>
            <AltitudeMeters>963.5999755859375</AltitudeMeters>
            <DistanceMeters>408771.11069065</DistanceMeters>
          </Trackpoint>
          <Trackpoint>
            <Time>2021-08-01T15:11:49.000Z</Time>
            <Position>
              <LatitudeDegrees>41.903392374515533447265625</LatitudeDegrees>
              <LongitudeDegrees>-1.94767610169947147369384765625</LongitudeDegrees>
            </Position>
            <AltitudeMeters>963</AltitudeMeters>
            <DistanceMeters>408778.27434365</DistanceMeters>
          </Trackpoint>
          <Trackpoint>
            <Time>2021-08-01T15:11:51.000Z</Time>
            <Position>
              <LatitudeDegrees>41.90342665649950504302978515625</LatitudeDegrees>
              <LongitudeDegrees>-1.947608292102813720703125</LongitudeDegrees>
            </Position>
            <AltitudeMeters>962</AltitudeMeters>
            <DistanceMeters>408785.06526409</DistanceMeters>
          </Trackpoint>
          <Trackpoint>
            <Time>2021-08-01T15:11:54.000Z</Time>
            <Position>
              <LatitudeDegrees>41.90344157628715038299560546875</LatitudeDegrees>
              <LongitudeDegrees>-1.9475182704627513885498046875</LongitudeDegrees>
            </Position>
            <AltitudeMeters>961.4000244140625</AltitudeMeters>
            <DistanceMeters>408792.70531737</DistanceMeters>
          </Trackpoint>
          <Trackpoint>
            <Time>2021-08-01T15:12:01.000Z</Time>
            <Position>
              <LatitudeDegrees>41.9033610261976718902587890625</LatitudeDegrees>
              <LongitudeDegrees>-1.94738457910716533660888671875</LongitudeDegrees>
            </Position>
            <AltitudeMeters>961</AltitudeMeters>
            <DistanceMeters>408806.95425554</DistanceMeters>
          </Trackpoint>
          <Trackpoint>
            <Time>2021-08-01T15:12:02.000Z</Time>
            <Position>
              <LatitudeDegrees>41.9033456034958362579345703125</LatitudeDegrees>
              <LongitudeDegrees>-1.9473747722804546356201171875</LongitudeDegrees>
            </Position>
            <AltitudeMeters>960.5999755859375</AltitudeMeters>
            <DistanceMeters>408808.85003253</DistanceMeters>
          </Trackpoint>
          <Trackpoint>
            <Time>2021-08-01T15:12:07.000Z</Time>
            <Position>
              <LatitudeDegrees>41.90331299789249897003173828125</LatitudeDegrees>
              <LongitudeDegrees>-1.94733981974422931671142578125</LongitudeDegrees>
            </Position>
            <AltitudeMeters>960.4000244140625</AltitudeMeters>
            <DistanceMeters>408813.49274645</DistanceMeters>
          </Trackpoint>
          <Trackpoint>
            <Time>2021-08-01T15:13:51.000Z</Time>
            <Position>
              <LatitudeDegrees>41.903293468058109283447265625</LatitudeDegrees>
              <LongitudeDegrees>-1.947339065372943878173828125</LongitudeDegrees>
            </Position>
            <AltitudeMeters>960.4000244140625</AltitudeMeters>
            <DistanceMeters>408815.66800736</DistanceMeters>
          </Trackpoint>
          <Trackpoint>
            <Time>2021-08-01T15:13:57.000Z</Time>
            <Position>
              <LatitudeDegrees>41.903172768652439117431640625</LatitudeDegrees>
              <LongitudeDegrees>-1.947310231626033782958984375</LongitudeDegrees>
            </Position>
            <AltitudeMeters>959.79998779296875</AltitudeMeters>
            <DistanceMeters>408829.31286413</DistanceMeters>
          </Trackpoint>
          <Trackpoint>
            <Time>2021-08-01T15:14:12.000Z</Time>
            <Position>
              <LatitudeDegrees>41.90287898294627666473388671875</LatitudeDegrees>
              <LongitudeDegrees>-1.94706036709249019622802734375</LongitudeDegrees>
            </Position>
            <AltitudeMeters>961</AltitudeMeters>
            <DistanceMeters>408868.01219459</DistanceMeters>
          </Trackpoint>
          <Trackpoint>
            <Time>2021-08-01T15:14:19.000Z</Time>
            <Position>
              <LatitudeDegrees>41.90278284251689910888671875</LatitudeDegrees>
              <LongitudeDegrees>-1.9468923099339008331298828125</LongitudeDegrees>
            </Position>
            <AltitudeMeters>962.4000244140625</AltitudeMeters>
            <DistanceMeters>408885.57132128</DistanceMeters>
          </Trackpoint>
          <Trackpoint>
            <Time>2021-08-01T15:14:44.000Z</Time>
            <Position>
              <LatitudeDegrees>41.902540437877178192138671875</LatitudeDegrees>
              <LongitudeDegrees>-1.94621781818568706512451171875</LongitudeDegrees>
            </Position>
            <AltitudeMeters>963.20001220703125</AltitudeMeters>
            <DistanceMeters>408947.61903608</DistanceMeters>
          </Trackpoint>
          <Trackpoint>
            <Time>2021-08-01T15:14:45.000Z</Time>
            <Position>
              <LatitudeDegrees>41.90253230743110179901123046875</LatitudeDegrees>
              <LongitudeDegrees>-1.94619116373360157012939453125</LongitudeDegrees>
            </Position>
            <AltitudeMeters>963.4000244140625</AltitudeMeters>
            <DistanceMeters>408950.00797063</DistanceMeters>
          </Trackpoint>
          <Trackpoint>
            <Time>2021-08-01T15:15:07.000Z</Time>
            <Position>
              <LatitudeDegrees>41.902261488139629364013671875</LatitudeDegrees>
              <LongitudeDegrees>-1.9455441646277904510498046875</LongitudeDegrees>
            </Position>
            <AltitudeMeters>963.5999755859375</AltitudeMeters>
            <DistanceMeters>409011.50009452</DistanceMeters>
          </Trackpoint>
          <Trackpoint>
            <Time>2021-08-01T15:15:12.000Z</Time>
            <Position>
              <LatitudeDegrees>41.9021741487085819244384765625</LatitudeDegrees>
              <LongitudeDegrees>-1.94533285684883594512939453125</LongitudeDegrees>
            </Position>
            <AltitudeMeters>963</AltitudeMeters>
            <DistanceMeters>409031.52301474</DistanceMeters>
          </Trackpoint>
          <Trackpoint>
            <Time>2021-08-01T15:15:17.000Z</Time>
            <Position>
              <LatitudeDegrees>41.9020584784448146820068359375</LatitudeDegrees>
              <LongitudeDegrees>-1.94508902728557586669921875</LongitudeDegrees>
            </Position>
            <AltitudeMeters>962</AltitudeMeters>
            <DistanceMeters>409055.47577944</DistanceMeters>
          </Trackpoint>
          <Trackpoint>
            <Time>2021-08-01T15:15:30.000Z</Time>
            <Position>
              <LatitudeDegrees>41.9017731584608554840087890625</LatitudeDegrees>
              <LongitudeDegrees>-1.94447052665054798126220703125</LongitudeDegrees>
            </Position>
            <AltitudeMeters>961.79998779296875</AltitudeMeters>
            <DistanceMeters>409115.75628111</DistanceMeters>
          </Trackpoint>
          <Trackpoint>
            <Time>2021-08-01T15:15:43.000Z</Time>
            <Position>
              <LatitudeDegrees>41.90147836692631244659423828125</LatitudeDegrees>
              <LongitudeDegrees>-1.94396895356476306915283203125</LongitudeDegrees>
            </Position>
            <AltitudeMeters>963.20001220703125</AltitudeMeters>
            <DistanceMeters>409168.69997817</DistanceMeters>
          </Trackpoint>
          <Trackpoint>
            <Time>2021-08-01T15:15:47.000Z</Time>
            <Position>
              <LatitudeDegrees>41.90137946046888828277587890625</LatitudeDegrees>
              <LongitudeDegrees>-1.943865604698657989501953125</LongitudeDegrees>
            </Position>
            <AltitudeMeters>964.20001220703125</AltitudeMeters>
            <DistanceMeters>409182.64593768</DistanceMeters>
          </Trackpoint>
          <Trackpoint>
            <Time>2021-08-01T15:15:54.000Z</Time>
            <Position>
              <LatitudeDegrees>41.90122045576572418212890625</LatitudeDegrees>
              <LongitudeDegrees>-1.9437177479267120361328125</LongitudeDegrees>
            </Position>
            <AltitudeMeters>965.5999755859375</AltitudeMeters>
            <DistanceMeters>409204.16901649</DistanceMeters>
          </Trackpoint>
          <Trackpoint>
            <Time>2021-08-01T15:15:58.000Z</Time>
            <Position>
              <LatitudeDegrees>41.90112045966088771820068359375</LatitudeDegrees>
              <LongitudeDegrees>-1.94367089308798313140869140625</LongitudeDegrees>
            </Position>
            <AltitudeMeters>966.5999755859375</AltitudeMeters>
            <DistanceMeters>409215.95692624</DistanceMeters>
          </Trackpoint>
          <Trackpoint>
            <Time>2021-08-01T15:16:05.000Z</Time>
            <Position>
              <LatitudeDegrees>41.90094259567558765411376953125</LatitudeDegrees>
              <LongitudeDegrees>-1.94365429691970348358154296875</LongitudeDegrees>
            </Position>
            <AltitudeMeters>967.5999755859375</AltitudeMeters>
            <DistanceMeters>409235.80136208</DistanceMeters>
          </Trackpoint>
          <Trackpoint>
            <Time>2021-08-01T15:16:11.000Z</Time>
            <Position>
              <LatitudeDegrees>41.90079909749329090118408203125</LatitudeDegrees>
              <LongitudeDegrees>-1.94364977069199085235595703125</LongitudeDegrees>
            </Position>
            <AltitudeMeters>968.79998779296875</AltitudeMeters>
            <DistanceMeters>409251.77772402</DistanceMeters>
          </Trackpoint>
          <Trackpoint>
            <Time>2021-08-01T15:16:17.000Z</Time>
            <Position>
              <LatitudeDegrees>41.90066079609096050262451171875</LatitudeDegrees>
              <LongitudeDegrees>-1.94363870657980442047119140625</LongitudeDegrees>
            </Position>
            <AltitudeMeters>969.5999755859375</AltitudeMeters>
            <DistanceMeters>409267.19813267</DistanceMeters>
          </Trackpoint>
          <Trackpoint>
            <Time>2021-08-01T15:16:23.000Z</Time>
            <Position>
              <LatitudeDegrees>41.90052576363086700439453125</LatitudeDegrees>
              <LongitudeDegrees>-1.94362998940050601959228515625</LongitudeDegrees>
            </Position>
            <AltitudeMeters>971</AltitudeMeters>
            <DistanceMeters>409282.24479597</DistanceMeters>
          </Trackpoint>
          <Trackpoint>
            <Time>2021-08-01T15:16:29.000Z</Time>
            <Position>
              <LatitudeDegrees>41.90039508976042270660400390625</LatitudeDegrees>
              <LongitudeDegrees>-1.94361557252705097198486328125</LongitudeDegrees>
            </Position>
            <AltitudeMeters>972</AltitudeMeters>
            <DistanceMeters>409296.83781803</DistanceMeters>
          </Trackpoint>
          <Trackpoint>
            <Time>2021-08-01T15:16:34.000Z</Time>
            <Position>
              <LatitudeDegrees>41.9002868793904781341552734375</LatitudeDegrees>
              <LongitudeDegrees>-1.94359662942588329315185546875</LongitudeDegrees>
            </Position>
            <AltitudeMeters>973.20001220703125</AltitudeMeters>
            <DistanceMeters>409308.98340689</DistanceMeters>
          </Trackpoint>
          <Trackpoint>
            <Time>2021-08-01T15:16:40.000Z</Time>
            <Position>
              <LatitudeDegrees>41.90015989355742931365966796875</LatitudeDegrees>
              <LongitudeDegrees>-1.94355639629065990447998046875</LongitudeDegrees>
            </Position>
            <AltitudeMeters>974.20001220703125</AltitudeMeters>
            <DistanceMeters>409323.50478235</DistanceMeters>
          </Trackpoint>
          <Trackpoint>
            <Time>2021-08-01T15:16:46.000Z</Time>
            <Position>
              <LatitudeDegrees>41.90003030933439731597900390625</LatitudeDegrees>
              <LongitudeDegrees>-1.94350761361420154571533203125</LongitudeDegrees>
            </Position>
            <AltitudeMeters>975.4000244140625</AltitudeMeters>
            <DistanceMeters>409338.48317509</DistanceMeters>
          </Trackpoint>
          <Trackpoint>
            <Time>2021-08-01T15:16:51.000Z</Time>
            <Position>
              <LatitudeDegrees>41.899925284087657928466796875</LatitudeDegrees>
              <LongitudeDegrees>-1.9434962980449199676513671875</LongitudeDegrees>
            </Position>
            <AltitudeMeters>976.4000244140625</AltitudeMeters>
            <DistanceMeters>409350.2104111</DistanceMeters>
          </Trackpoint>
          <Trackpoint>
            <Time>2021-08-01T15:16:54.000Z</Time>
            <Position>
              <LatitudeDegrees>41.89986770041286945343017578125</LatitudeDegrees>
              <LongitudeDegrees>-1.9435237906873226165771484375</LongitudeDegrees>
            </Position>
            <AltitudeMeters>977.4000244140625</AltitudeMeters>
            <DistanceMeters>409357.01129718</DistanceMeters>
          </Trackpoint>
          <Trackpoint>
            <Time>2021-08-01T15:17:02.000Z</Time>
            <Position>
              <LatitudeDegrees>41.899736858904361724853515625</LatitudeDegrees>
              <LongitudeDegrees>-1.943676508963108062744140625</LongitudeDegrees>
            </Position>
            <AltitudeMeters>978.4000244140625</AltitudeMeters>
            <DistanceMeters>409376.30218831</DistanceMeters>
          </Trackpoint>
          <Trackpoint>
            <Time>2021-08-01T15:17:07.000Z</Time>
            <Position>
              <LatitudeDegrees>41.8996681272983551025390625</LatitudeDegrees>
              <LongitudeDegrees>-1.9437762536108493804931640625</LongitudeDegrees>
            </Position>
            <AltitudeMeters>979.5999755859375</AltitudeMeters>
            <DistanceMeters>409387.56315467</DistanceMeters>
          </Trackpoint>
          <Trackpoint>
            <Time>2021-08-01T15:17:11.000Z</Time>
            <Position>
              <LatitudeDegrees>41.89960568211972713470458984375</LatitudeDegrees>
              <LongitudeDegrees>-1.94382973015308380126953125</LongitudeDegrees>
            </Position>
            <AltitudeMeters>980.5999755859375</AltitudeMeters>
            <DistanceMeters>409395.80531853</DistanceMeters>
          </Trackpoint>
          <Trackpoint>
            <Time>2021-08-01T15:17:20.000Z</Time>
            <Position>
              <LatitudeDegrees>41.89944676123559474945068359375</LatitudeDegrees>
              <LongitudeDegrees>-1.94385948590934276580810546875</LongitudeDegrees>
            </Position>
            <AltitudeMeters>981.5999755859375</AltitudeMeters>
            <DistanceMeters>409413.66477989</DistanceMeters>
          </Trackpoint>
          <Trackpoint>
            <Time>2021-08-01T15:17:25.000Z</Time>
            <Position>
              <LatitudeDegrees>41.89936310984194278717041015625</LatitudeDegrees>
              <LongitudeDegrees>-1.94380223751068115234375</LongitudeDegrees>
            </Position>
            <AltitudeMeters>982.5999755859375</AltitudeMeters>
            <DistanceMeters>409424.11339819</DistanceMeters>
          </Trackpoint>
          <Trackpoint>
            <Time>2021-08-01T15:17:31.000Z</Time>
            <Position>
              <LatitudeDegrees>41.89929521642625331878662109375</LatitudeDegrees>
              <LongitudeDegrees>-1.9436801970005035400390625</LongitudeDegrees>
            </Position>
            <AltitudeMeters>983.5999755859375</AltitudeMeters>
            <DistanceMeters>409436.73586501</DistanceMeters>
          </Trackpoint>
          <Trackpoint>
            <Time>2021-08-01T15:17:37.000Z</Time>
            <Position>
              <LatitudeDegrees>41.899210475385189056396484375</LatitudeDegrees>
              <LongitudeDegrees>-1.94356813095510005950927734375</LongitudeDegrees>
            </Position>
            <AltitudeMeters>984.79998779296875</AltitudeMeters>
            <DistanceMeters>409449.97019018</DistanceMeters>
          </Trackpoint>
          <Trackpoint>
            <Time>2021-08-01T15:17:45.000Z</Time>
            <Position>
              <LatitudeDegrees>41.8991573341190814971923828125</LatitudeDegrees>
              <LongitudeDegrees>-1.94337115623056888580322265625</LongitudeDegrees>
            </Position>
            <AltitudeMeters>985.79998779296875</AltitudeMeters>
            <DistanceMeters>409467.32759409</DistanceMeters>
          </Trackpoint>
          <Trackpoint>
            <Time>2021-08-01T15:17:51.000Z</Time>
            <Position>
              <LatitudeDegrees>41.8991258181631565093994140625</LatitudeDegrees>
              <LongitudeDegrees>-1.943228244781494140625</LongitudeDegrees>
            </Position>
            <AltitudeMeters>987</AltitudeMeters>
            <DistanceMeters>409479.67558343</DistanceMeters>
          </Trackpoint>
          <Trackpoint>
            <Time>2021-08-01T15:18:01.000Z</Time>
            <Position>
              <LatitudeDegrees>41.89907393418252468109130859375</LatitudeDegrees>
              <LongitudeDegrees>-1.94298215210437774658203125</LongitudeDegrees>
            </Position>
            <AltitudeMeters>988</AltitudeMeters>
            <DistanceMeters>409500.86504923</DistanceMeters>
          </Trackpoint>
          <Trackpoint>
            <Time>2021-08-01T15:18:09.000Z</Time>
            <Position>
              <LatitudeDegrees>41.899033449590206146240234375</LatitudeDegrees>
              <LongitudeDegrees>-1.94278459064662456512451171875</LongitudeDegrees>
            </Position>
            <AltitudeMeters>989</AltitudeMeters>
            <DistanceMeters>409517.84108704</DistanceMeters>
          </Trackpoint>
          <Trackpoint>
            <Time>2021-08-01T15:18:18.000Z</Time>
            <Position>
              <LatitudeDegrees>41.89898609183728694915771484375</LatitudeDegrees>
              <LongitudeDegrees>-1.9425617158412933349609375</LongitudeDegrees>
            </Position>
            <AltitudeMeters>990</AltitudeMeters>
            <DistanceMeters>409537.04236281</DistanceMeters>
          </Trackpoint>
          <Trackpoint>
            <Time>2021-08-01T15:18:26.000Z</Time>
            <Position>
              <LatitudeDegrees>41.89894191920757293701171875</LatitudeDegrees>
              <LongitudeDegrees>-1.9423778168857097625732421875</LongitudeDegrees>
            </Position>
            <AltitudeMeters>991</AltitudeMeters>
            <DistanceMeters>409553.05090957</DistanceMeters>
          </Trackpoint>
          <Trackpoint>
            <Time>2021-08-01T15:18:34.000Z</Time>
            <Position>
              <LatitudeDegrees>41.8989092297852039337158203125</LatitudeDegrees>
              <LongitudeDegrees>-1.9421836920082569122314453125</LongitudeDegrees>
            </Position>
            <AltitudeMeters>992.20001220703125</AltitudeMeters>
            <DistanceMeters>409569.53961909</DistanceMeters>
          </Trackpoint>
          <Trackpoint>
            <Time>2021-08-01T15:18:41.000Z</Time>
            <Position>
              <LatitudeDegrees>41.89888835884630680084228515625</LatitudeDegrees>
              <LongitudeDegrees>-1.942000798881053924560546875</LongitudeDegrees>
            </Position>
            <AltitudeMeters>993.20001220703125</AltitudeMeters>
            <DistanceMeters>409584.86810855</DistanceMeters>
          </Trackpoint>
          <Trackpoint>
            <Time>2021-08-01T15:18:51.000Z</Time>
            <Position>
              <LatitudeDegrees>41.89888299442827701568603515625</LatitudeDegrees>
              <LongitudeDegrees>-1.94174406118690967559814453125</LongitudeDegrees>
            </Position>
            <AltitudeMeters>994.20001220703125</AltitudeMeters>
            <DistanceMeters>409606.14603074</DistanceMeters>
          </Trackpoint>
          <Trackpoint>
            <Time>2021-08-01T15:19:04.000Z</Time>
            <Position>
              <LatitudeDegrees>41.89901341684162616729736328125</LatitudeDegrees>
              <LongitudeDegrees>-1.941455304622650146484375</LongitudeDegrees>
            </Position>
            <AltitudeMeters>995.4000244140625</AltitudeMeters>
            <DistanceMeters>409634.12780817</DistanceMeters>
          </Trackpoint>
          <Trackpoint>
            <Time>2021-08-01T15:19:11.000Z</Time>
            <Position>
              <LatitudeDegrees>41.89918491058051586151123046875</LatitudeDegrees>
              <LongitudeDegrees>-1.94141305983066558837890625</LongitudeDegrees>
            </Position>
            <AltitudeMeters>996.4000244140625</AltitudeMeters>
            <DistanceMeters>409653.53351037</DistanceMeters>
          </Trackpoint>
          <Trackpoint>
            <Time>2021-08-01T15:19:17.000Z</Time>
            <Position>
              <LatitudeDegrees>41.89934802241623401641845703125</LatitudeDegrees>
              <LongitudeDegrees>-1.94140191189944744110107421875</LongitudeDegrees>
            </Position>
            <AltitudeMeters>997.5999755859375</AltitudeMeters>
            <DistanceMeters>409671.7114527</DistanceMeters>
          </Trackpoint>
          <Trackpoint>
            <Time>2021-08-01T15:19:23.000Z</Time>
            <Position>
              <LatitudeDegrees>41.89950711093842983245849609375</LatitudeDegrees>
              <LongitudeDegrees>-1.9413278996944427490234375</LongitudeDegrees>
            </Position>
            <AltitudeMeters>998.5999755859375</AltitudeMeters>
            <DistanceMeters>409690.44979554</DistanceMeters>
          </Trackpoint>
          <Trackpoint>
            <Time>2021-08-01T15:19:37.000Z</Time>
            <Position>
              <LatitudeDegrees>41.89985764212906360626220703125</LatitudeDegrees>
              <LongitudeDegrees>-1.941060014069080352783203125</LongitudeDegrees>
            </Position>
            <AltitudeMeters>999.5999755859375</AltitudeMeters>
            <DistanceMeters>409735.3348068</DistanceMeters>
          </Trackpoint>
          <Trackpoint>
            <Time>2021-08-01T15:19:42.000Z</Time>
            <Position>
              <LatitudeDegrees>41.89990424551069736480712890625</LatitudeDegrees>
              <LongitudeDegrees>-1.940897740423679351806640625</LongitudeDegrees>
            </Position>
            <AltitudeMeters>1000.79998779296875</AltitudeMeters>
            <DistanceMeters>409749.74444169</DistanceMeters>
          </Trackpoint>
          <Trackpoint>
            <Time>2021-08-01T15:19:48.000Z</Time>
            <Position>
              <LatitudeDegrees>41.8999194167554378509521484375</LatitudeDegrees>
              <LongitudeDegrees>-1.94070093333721160888671875</LongitudeDegrees>
            </Position>
            <AltitudeMeters>1002</AltitudeMeters>
            <DistanceMeters>409766.13593017</DistanceMeters>
          </Trackpoint>
          <Trackpoint>
            <Time>2021-08-01T15:19:57.000Z</Time>
            <Position>
              <LatitudeDegrees>41.8999904952943325042724609375</LatitudeDegrees>
              <LongitudeDegrees>-1.9404094107449054718017578125</LongitudeDegrees>
            </Position>
            <AltitudeMeters>1003</AltitudeMeters>
            <DistanceMeters>409791.54949205</DistanceMeters>
          </Trackpoint>
          <Trackpoint>
            <Time>2021-08-01T15:20:03.000Z</Time>
            <Position>
              <LatitudeDegrees>41.9000642560422420501708984375</LatitudeDegrees>
              <LongitudeDegrees>-1.9402270205318927764892578125</LongitudeDegrees>
            </Position>
            <AltitudeMeters>1004.20001220703125</AltitudeMeters>
            <DistanceMeters>409808.74565189</DistanceMeters>
          </Trackpoint>
          <Trackpoint>
            <Time>2021-08-01T15:20:09.000Z</Time>
            <Position>
              <LatitudeDegrees>41.9000588916242122650146484375</LatitudeDegrees>
              <LongitudeDegrees>-1.94002560339868068695068359375</LongitudeDegrees>
            </Position>
            <AltitudeMeters>1005.4000244140625</AltitudeMeters>
            <DistanceMeters>409825.44225394</DistanceMeters>
          </Trackpoint>
          <Trackpoint>
            <Time>2021-08-01T15:20:16.000Z</Time>
            <Position>
              <LatitudeDegrees>41.89995177090167999267578125</LatitudeDegrees>
              <LongitudeDegrees>-1.9398608990013599395751953125</LongitudeDegrees>
            </Position>
            <AltitudeMeters>1006.4000244140625</AltitudeMeters>
            <DistanceMeters>409843.5622313</DistanceMeters>
          </Trackpoint>
          <Trackpoint>
            <Time>2021-08-01T15:20:23.000Z</Time>
            <Position>
              <LatitudeDegrees>41.89984272234141826629638671875</LatitudeDegrees>
              <LongitudeDegrees>-1.939721591770648956298828125</LongitudeDegrees>
            </Position>
            <AltitudeMeters>1007.4000244140625</AltitudeMeters>
            <DistanceMeters>409860.31067286</DistanceMeters>
          </Trackpoint>
          <Trackpoint>
            <Time>2021-08-01T15:20:31.000Z</Time>
            <Position>
              <LatitudeDegrees>41.8997400440275669097900390625</LatitudeDegrees>
              <LongitudeDegrees>-1.93956904113292694091796875</LongitudeDegrees>
            </Position>
            <AltitudeMeters>1008.4000244140625</AltitudeMeters>
            <DistanceMeters>409877.34936288</DistanceMeters>
          </Trackpoint>
          <Trackpoint>
            <Time>2021-08-01T15:20:37.000Z</Time>
            <Position>
              <LatitudeDegrees>41.89966879785060882568359375</LatitudeDegrees>
              <LongitudeDegrees>-1.93943786434829235076904296875</LongitudeDegrees>
            </Position>
            <AltitudeMeters>1009.5999755859375</AltitudeMeters>
            <DistanceMeters>409890.80227305</DistanceMeters>
          </Trackpoint>
          <Trackpoint>
            <Time>2021-08-01T15:20:42.000Z</Time>
            <Position>
              <LatitudeDegrees>41.89961305819451808929443359375</LatitudeDegrees>
              <LongitudeDegrees>-1.9393130578100681304931640625</LongitudeDegrees>
            </Position>
            <AltitudeMeters>1010.79998779296875</AltitudeMeters>
            <DistanceMeters>409902.86018584</DistanceMeters>
          </Trackpoint>
          <Trackpoint>
            <Time>2021-08-01T15:20:51.000Z</Time>
            <Position>
              <LatitudeDegrees>41.8995244614779949188232421875</LatitudeDegrees>
              <LongitudeDegrees>-1.93908247165381908416748046875</LongitudeDegrees>
            </Position>
            <AltitudeMeters>1011.79998779296875</AltitudeMeters>
            <DistanceMeters>409924.35807672</DistanceMeters>
          </Trackpoint>
          <Trackpoint>
            <Time>2021-08-01T15:20:58.000Z</Time>
            <Position>
              <LatitudeDegrees>41.89945899881422519683837890625</LatitudeDegrees>
              <LongitudeDegrees>-1.938894800841808319091796875</LongitudeDegrees>
            </Position>
            <AltitudeMeters>1012.79998779296875</AltitudeMeters>
            <DistanceMeters>409941.52822336</DistanceMeters>
          </Trackpoint>
          <Trackpoint>
            <Time>2021-08-01T15:21:10.000Z</Time>
            <Position>
              <LatitudeDegrees>41.899349279701709747314453125</LatitudeDegrees>
              <LongitudeDegrees>-1.9385734386742115020751953125</LongitudeDegrees>
            </Position>
            <AltitudeMeters>1013.79998779296875</AltitudeMeters>
            <DistanceMeters>409970.81819456</DistanceMeters>
          </Trackpoint>
          <Trackpoint>
            <Time>2021-08-01T15:21:17.000Z</Time>
            <Position>
              <LatitudeDegrees>41.89927794970571994781494140625</LatitudeDegrees>
              <LongitudeDegrees>-1.93839247338473796844482421875</LongitudeDegrees>
            </Position>
            <AltitudeMeters>1014.79998779296875</AltitudeMeters>
            <DistanceMeters>409987.78252585</DistanceMeters>
          </Trackpoint>
          <Trackpoint>
            <Time>2021-08-01T15:21:23.000Z</Time>
            <Position>
              <LatitudeDegrees>41.8992066197097301483154296875</LatitudeDegrees>
              <LongitudeDegrees>-1.93823992274701595306396484375</LongitudeDegrees>
            </Position>
            <AltitudeMeters>1016</AltitudeMeters>
            <DistanceMeters>410002.70716641</DistanceMeters>
          </Trackpoint>
          <Trackpoint>
            <Time>2021-08-01T15:21:31.000Z</Time>
            <Position>
              <LatitudeDegrees>41.89908030442893505096435546875</LatitudeDegrees>
              <LongitudeDegrees>-1.93805493414402008056640625</LongitudeDegrees>
            </Position>
            <AltitudeMeters>1017</AltitudeMeters>
            <DistanceMeters>410023.50434414</DistanceMeters>
          </Trackpoint>
          <Trackpoint>
            <Time>2021-08-01T15:21:37.000Z</Time>
            <Position>
              <LatitudeDegrees>41.8989883549511432647705078125</LatitudeDegrees>
              <LongitudeDegrees>-1.93791956640779972076416015625</LongitudeDegrees>
            </Position>
            <AltitudeMeters>1018</AltitudeMeters>
            <DistanceMeters>410038.6866276</DistanceMeters>
          </Trackpoint>
          <Trackpoint>
            <Time>2021-08-01T15:21:54.000Z</Time>
            <Position>
              <LatitudeDegrees>41.8986644782125949859619140625</LatitudeDegrees>
              <LongitudeDegrees>-1.93759937770664691925048828125</LongitudeDegrees>
            </Position>
            <AltitudeMeters>1019</AltitudeMeters>
            <DistanceMeters>410083.44249512</DistanceMeters>
          </Trackpoint>
          <Trackpoint>
            <Time>2021-08-01T15:22:09.000Z</Time>
            <Position>
              <LatitudeDegrees>41.89815443940460681915283203125</LatitudeDegrees>
              <LongitudeDegrees>-1.9375406205654144287109375</LongitudeDegrees>
            </Position>
            <AltitudeMeters>1017.79998779296875</AltitudeMeters>
            <DistanceMeters>410140.41907401</DistanceMeters>
          </Trackpoint>
          <Trackpoint>
            <Time>2021-08-01T15:22:12.000Z</Time>
            <Position>
              <LatitudeDegrees>41.8979939259588718414306640625</LatitudeDegrees>
              <LongitudeDegrees>-1.93754657171666622161865234375</LongitudeDegrees>
            </Position>
            <AltitudeMeters>1016.79998779296875</AltitudeMeters>
            <DistanceMeters>410158.29117137</DistanceMeters>
          </Trackpoint>
          <Trackpoint>
            <Time>2021-08-01T15:22:21.000Z</Time>
            <Position>
              <LatitudeDegrees>41.89746980555355548858642578125</LatitudeDegrees>
              <LongitudeDegrees>-1.93744900636374950408935546875</LongitudeDegrees>
            </Position>
            <AltitudeMeters>1015.79998779296875</AltitudeMeters>
            <DistanceMeters>410217.18404947</DistanceMeters>
          </Trackpoint>
          <Trackpoint>
            <Time>2021-08-01T15:22:24.000Z</Time>
            <Position>
              <LatitudeDegrees>41.8972563184797763824462890625</LatitudeDegrees>
              <LongitudeDegrees>-1.93738413043320178985595703125</LongitudeDegrees>
            </Position>
            <AltitudeMeters>1014.20001220703125</AltitudeMeters>
            <DistanceMeters>410241.54575598</DistanceMeters>
          </Trackpoint>
          <Trackpoint>
            <Time>2021-08-01T15:22:26.000Z</Time>
            <Position>
              <LatitudeDegrees>41.89709815196692943572998046875</LatitudeDegrees>
              <LongitudeDegrees>-1.93733702413737773895263671875</LongitudeDegrees>
            </Position>
            <AltitudeMeters>1013</AltitudeMeters>
            <DistanceMeters>410259.57730978</DistanceMeters>
          </Trackpoint>
          <Trackpoint>
            <Time>2021-08-01T15:22:29.000Z</Time>
            <Position>
              <LatitudeDegrees>41.89683965407311916351318359375</LatitudeDegrees>
              <LongitudeDegrees>-1.93725521676242351531982421875</LongitudeDegrees>
            </Position>
            <AltitudeMeters>1011.4000244140625</AltitudeMeters>
            <DistanceMeters>410289.13611738</DistanceMeters>
          </Trackpoint>
          <Trackpoint>
            <Time>2021-08-01T15:22:30.000Z</Time>
            <Position>
              <LatitudeDegrees>41.89674778841435909271240234375</LatitudeDegrees>
              <LongitudeDegrees>-1.937228478491306304931640625</LongitudeDegrees>
            </Position>
            <AltitudeMeters>1010.20001220703125</AltitudeMeters>
            <DistanceMeters>410299.59855432</DistanceMeters>
          </Trackpoint>
          <Trackpoint>
            <Time>2021-08-01T15:22:32.000Z</Time>
            <Position>
              <LatitudeDegrees>41.89655877649784088134765625</LatitudeDegrees>
              <LongitudeDegrees>-1.9371750019490718841552734375</LongitudeDegrees>
            </Position>
            <AltitudeMeters>1008.5999755859375</AltitudeMeters>
            <DistanceMeters>410321.09749528</DistanceMeters>
          </Trackpoint>
          <Trackpoint>
            <Time>2021-08-01T15:22:34.000Z</Time>
            <Position>
              <LatitudeDegrees>41.89636423252522945404052734375</LatitudeDegrees>
              <LongitudeDegrees>-1.9371168315410614013671875</LongitudeDegrees>
            </Position>
            <AltitudeMeters>1007.5999755859375</AltitudeMeters>
            <DistanceMeters>410343.2802804</DistanceMeters>
          </Trackpoint>
          <Trackpoint>
            <Time>2021-08-01T15:22:36.000Z</Time>
            <Position>
              <LatitudeDegrees>41.89616507850587368011474609375</LatitudeDegrees>
              <LongitudeDegrees>-1.9370529614388942718505859375</LongitudeDegrees>
            </Position>
            <AltitudeMeters>1006.4000244140625</AltitudeMeters>
            <DistanceMeters>410366.06926363</DistanceMeters>
          </Trackpoint>
          <Trackpoint>
            <Time>2021-08-01T15:22:38.000Z</Time>
            <Position>
              <LatitudeDegrees>41.89595703966915607452392578125</LatitudeDegrees>
              <LongitudeDegrees>-1.93698934279382228851318359375</LongitudeDegrees>
            </Position>
            <AltitudeMeters>1005.4000244140625</AltitudeMeters>
            <DistanceMeters>410389.81643765</DistanceMeters>
          </Trackpoint>
          <Trackpoint>
            <Time>2021-08-01T15:22:40.000Z</Time>
            <Position>
              <LatitudeDegrees>41.89573843963444232940673828125</LatitudeDegrees>
              <LongitudeDegrees>-1.93692262284457683563232421875</LongitudeDegrees>
            </Position>
            <AltitudeMeters>1003.79998779296875</AltitudeMeters>
            <DistanceMeters>410414.76705828</DistanceMeters>
          </Trackpoint>
          <Trackpoint>
            <Time>2021-08-01T15:22:41.000Z</Time>
            <Position>
              <LatitudeDegrees>41.895625703036785125732421875</LatitudeDegrees>
              <LongitudeDegrees>-1.9368890114128589630126953125</LongitudeDegrees>
            </Position>
            <AltitudeMeters>1002.79998779296875</AltitudeMeters>
            <DistanceMeters>410427.62027767</DistanceMeters>
          </Trackpoint>
          <Trackpoint>
            <Time>2021-08-01T15:22:42.000Z</Time>
            <Position>
              <LatitudeDegrees>41.8955108709633350372314453125</LatitudeDegrees>
              <LongitudeDegrees>-1.936855316162109375</LongitudeDegrees>
            </Position>
            <AltitudeMeters>1001.79998779296875</AltitudeMeters>
            <DistanceMeters>410440.70259546</DistanceMeters>
          </Trackpoint>
          <Trackpoint>
            <Time>2021-08-01T15:22:43.000Z</Time>
            <Position>
              <LatitudeDegrees>41.895394362509250640869140625</LatitudeDegrees>
              <LongitudeDegrees>-1.93681969307363033294677734375</LongitudeDegrees>
            </Position>
            <AltitudeMeters>1000.4000244140625</AltitudeMeters>
            <DistanceMeters>410454.00192279</DistanceMeters>
          </Trackpoint>
          <Trackpoint>
            <Time>2021-08-01T15:22:44.000Z</Time>
            <Position>
              <LatitudeDegrees>41.8952771835029125213623046875</LatitudeDegrees>
              <LongitudeDegrees>-1.9367833994328975677490234375</LongitudeDegrees>
            </Position>
            <AltitudeMeters>999.4000244140625</AltitudeMeters>
            <DistanceMeters>410467.38619178</DistanceMeters>
          </Trackpoint>
          <Trackpoint>
            <Time>2021-08-01T15:22:46.000Z</Time>
            <Position>
              <LatitudeDegrees>41.89504332840442657470703125</LatitudeDegrees>
              <LongitudeDegrees>-1.9367064535617828369140625</LongitudeDegrees>
            </Position>
            <AltitudeMeters>998</AltitudeMeters>
            <DistanceMeters>410494.18389372</DistanceMeters>
          </Trackpoint>
          <Trackpoint>
            <Time>2021-08-01T15:22:50.000Z</Time>
            <Position>
              <LatitudeDegrees>41.89457402564585208892822265625</LatitudeDegrees>
              <LongitudeDegrees>-1.9365658052265644073486328125</LongitudeDegrees>
            </Position>
            <AltitudeMeters>996.79998779296875</AltitudeMeters>
            <DistanceMeters>410547.70215973</DistanceMeters>
          </Trackpoint>
          <Trackpoint>
            <Time>2021-08-01T15:22:55.000Z</Time>
            <Position>
              <LatitudeDegrees>41.89402878284454345703125</LatitudeDegrees>
              <LongitudeDegrees>-1.93639875389635562896728515625</LongitudeDegrees>
            </Position>
            <AltitudeMeters>996</AltitudeMeters>
            <DistanceMeters>410609.9470514</DistanceMeters>
          </Trackpoint>
          <Trackpoint>
            <Time>2021-08-01T15:23:01.000Z</Time>
            <Position>
              <LatitudeDegrees>41.8934697099030017852783203125</LatitudeDegrees>
              <LongitudeDegrees>-1.93619440309703350067138671875</LongitudeDegrees>
            </Position>
            <AltitudeMeters>997.4000244140625</AltitudeMeters>
            <DistanceMeters>410674.43526324</DistanceMeters>
          </Trackpoint>
          <Trackpoint>
            <Time>2021-08-01T15:23:04.000Z</Time>
            <Position>
              <LatitudeDegrees>41.89323426224291324615478515625</LatitudeDegrees>
              <LongitudeDegrees>-1.93604486994445323944091796875</LongitudeDegrees>
            </Position>
            <AltitudeMeters>997.79998779296875</AltitudeMeters>
            <DistanceMeters>410703.42199387</DistanceMeters>
          </Trackpoint>
          <Trackpoint>
            <Time>2021-08-01T15:23:11.000Z</Time>
            <Position>
              <LatitudeDegrees>41.89273889176547527313232421875</LatitudeDegrees>
              <LongitudeDegrees>-1.93562577478587627410888671875</LongitudeDegrees>
            </Position>
            <AltitudeMeters>997</AltitudeMeters>
            <DistanceMeters>410768.5805307</DistanceMeters>
          </Trackpoint>
          <Trackpoint>
            <Time>2021-08-01T15:23:13.000Z</Time>
            <Position>
              <LatitudeDegrees>41.89259321428835391998291015625</LatitudeDegrees>
              <LongitudeDegrees>-1.93552351556718349456787109375</LongitudeDegrees>
            </Position>
            <AltitudeMeters>996.79998779296875</AltitudeMeters>
            <DistanceMeters>410786.87508599</DistanceMeters>
          </Trackpoint>
          <Trackpoint>
            <Time>2021-08-01T15:23:14.000Z</Time>
            <Position>
              <LatitudeDegrees>41.89251593314111232757568359375</LatitudeDegrees>
              <LongitudeDegrees>-1.93548445589840412139892578125</LongitudeDegrees>
            </Position>
            <AltitudeMeters>996.5999755859375</AltitudeMeters>
            <DistanceMeters>410796.06569723</DistanceMeters>
          </Trackpoint>
          <Trackpoint>
            <Time>2021-08-01T15:23:18.000Z</Time>
            <Position>
              <LatitudeDegrees>41.89218719489872455596923828125</LatitudeDegrees>
              <LongitudeDegrees>-1.93537280894815921783447265625</LongitudeDegrees>
            </Position>
            <AltitudeMeters>995.5999755859375</AltitudeMeters>
            <DistanceMeters>410833.80614037</DistanceMeters>
          </Trackpoint>
          <Trackpoint>
            <Time>2021-08-01T15:23:22.000Z</Time>
            <Position>
              <LatitudeDegrees>41.891831047832965850830078125</LatitudeDegrees>
              <LongitudeDegrees>-1.93526116199791431427001953125</LongitudeDegrees>
            </Position>
            <AltitudeMeters>994.20001220703125</AltitudeMeters>
            <DistanceMeters>410874.51108609</DistanceMeters>
          </Trackpoint>
          <Trackpoint>
            <Time>2021-08-01T15:23:24.000Z</Time>
            <Position>
              <LatitudeDegrees>41.89164094626903533935546875</LatitudeDegrees>
              <LongitudeDegrees>-1.93520198576152324676513671875</LongitudeDegrees>
            </Position>
            <AltitudeMeters>993</AltitudeMeters>
            <DistanceMeters>410896.23045978</DistanceMeters>
          </Trackpoint>
          <Trackpoint>
            <Time>2021-08-01T15:23:26.000Z</Time>
            <Position>
              <LatitudeDegrees>41.8914449773728847503662109375</LatitudeDegrees>
              <LongitudeDegrees>-1.93513945676386356353759765625</LongitudeDegrees>
            </Position>
            <AltitudeMeters>991.4000244140625</AltitudeMeters>
            <DistanceMeters>410918.64911261</DistanceMeters>
          </Trackpoint>
          <Trackpoint>
            <Time>2021-08-01T15:23:30.000Z</Time>
            <Position>
              <LatitudeDegrees>41.8910573981702327728271484375</LatitudeDegrees>
              <LongitudeDegrees>-1.93500903435051441192626953125</LongitudeDegrees>
            </Position>
            <AltitudeMeters>990.4000244140625</AltitudeMeters>
            <DistanceMeters>410963.12039663</DistanceMeters>
          </Trackpoint>
          <Trackpoint>
            <Time>2021-08-01T15:23:36.000Z</Time>
            <Position>
              <LatitudeDegrees>41.89052917063236236572265625</LatitudeDegrees>
              <LongitudeDegrees>-1.93484173156321048736572265625</LongitudeDegrees>
            </Position>
            <AltitudeMeters>991.20001220703125</AltitudeMeters>
            <DistanceMeters>411023.52517987</DistanceMeters>
          </Trackpoint>
          <Trackpoint>
            <Time>2021-08-01T15:23:43.000Z</Time>
            <Position>
              <LatitudeDegrees>41.88997873105108737945556640625</LatitudeDegrees>
              <LongitudeDegrees>-1.934657581150531768798828125</LongitudeDegrees>
            </Position>
            <AltitudeMeters>991</AltitudeMeters>
            <DistanceMeters>411086.66161828</DistanceMeters>
          </Trackpoint>
          <Trackpoint>
            <Time>2021-08-01T15:23:46.000Z</Time>
            <Position>
              <LatitudeDegrees>41.88975962810218334197998046875</LatitudeDegrees>
              <LongitudeDegrees>-1.93458926863968372344970703125</LongitudeDegrees>
            </Position>
            <AltitudeMeters>991.4000244140625</AltitudeMeters>
            <DistanceMeters>411111.69642376</DistanceMeters>
          </Trackpoint>
          <Trackpoint>
            <Time>2021-08-01T15:23:52.000Z</Time>
            <Position>
              <LatitudeDegrees>41.88934522680938243865966796875</LatitudeDegrees>
              <LongitudeDegrees>-1.934475861489772796630859375</LongitudeDegrees>
            </Position>
            <AltitudeMeters>991.20001220703125</AltitudeMeters>
            <DistanceMeters>411158.76755926</DistanceMeters>
          </Trackpoint>
          <Trackpoint>
            <Time>2021-08-01T15:24:01.000Z</Time>
            <Position>
              <LatitudeDegrees>41.8887815438210964202880859375</LatitudeDegrees>
              <LongitudeDegrees>-1.93457518704235553741455078125</LongitudeDegrees>
            </Position>
            <AltitudeMeters>992</AltitudeMeters>
            <DistanceMeters>411222.04400673</DistanceMeters>
          </Trackpoint>
          <Trackpoint>
            <Time>2021-08-01T15:24:10.000Z</Time>
            <Position>
              <LatitudeDegrees>41.8882471136748790740966796875</LatitudeDegrees>
              <LongitudeDegrees>-1.93469018675386905670166015625</LongitudeDegrees>
            </Position>
            <AltitudeMeters>991.5999755859375</AltitudeMeters>
            <DistanceMeters>411282.28547262</DistanceMeters>
          </Trackpoint>
          <Trackpoint>
            <Time>2021-08-01T15:24:19.000Z</Time>
            <Position>
              <LatitudeDegrees>41.88769675791263580322265625</LatitudeDegrees>
              <LongitudeDegrees>-1.93482580594718456268310546875</LongitudeDegrees>
            </Position>
            <AltitudeMeters>991</AltitudeMeters>
            <DistanceMeters>411344.56328723</DistanceMeters>
          </Trackpoint>
          <Trackpoint>
            <Time>2021-08-01T15:24:22.000Z</Time>
            <Position>
              <LatitudeDegrees>41.88751512207090854644775390625</LatitudeDegrees>
              <LongitudeDegrees>-1.934890262782573699951171875</LongitudeDegrees>
            </Position>
            <AltitudeMeters>990.4000244140625</AltitudeMeters>
            <DistanceMeters>411365.47326742</DistanceMeters>
          </Trackpoint>
          <Trackpoint>
            <Time>2021-08-01T15:24:23.000Z</Time>
            <Position>
              <LatitudeDegrees>41.88745728693902492523193359375</LatitudeDegrees>
              <LongitudeDegrees>-1.934922449290752410888671875</LongitudeDegrees>
            </Position>
            <AltitudeMeters>990.20001220703125</AltitudeMeters>
            <DistanceMeters>411372.44074121</DistanceMeters>
          </Trackpoint>
          <Trackpoint>
            <Time>2021-08-01T15:24:32.000Z</Time>
            <Position>
              <LatitudeDegrees>41.8869479186832904815673828125</LatitudeDegrees>
              <LongitudeDegrees>-1.93525898270308971405029296875</LongitudeDegrees>
            </Position>
            <AltitudeMeters>989.5999755859375</AltitudeMeters>
            <DistanceMeters>411435.62100151</DistanceMeters>
          </Trackpoint>
          <Trackpoint>
            <Time>2021-08-01T15:24:40.000Z</Time>
            <Position>
              <LatitudeDegrees>41.8864850699901580810546875</LatitudeDegrees>
              <LongitudeDegrees>-1.93557254970073699951171875</LongitudeDegrees>
            </Position>
            <AltitudeMeters>989</AltitudeMeters>
            <DistanceMeters>411493.31826142</DistanceMeters>
          </Trackpoint>
          <Trackpoint>
            <Time>2021-08-01T15:24:43.000Z</Time>
            <Position>
              <LatitudeDegrees>41.88628432340919971466064453125</LatitudeDegrees>
              <LongitudeDegrees>-1.9357034750282764434814453125</LongitudeDegrees>
            </Position>
            <AltitudeMeters>987.20001220703125</AltitudeMeters>
            <DistanceMeters>411518.15607055</DistanceMeters>
          </Trackpoint>
          <Trackpoint>
            <Time>2021-08-01T15:24:45.000Z</Time>
            <Position>
              <LatitudeDegrees>41.8861375562846660614013671875</LatitudeDegrees>
              <LongitudeDegrees>-1.9358027167618274688720703125</LongitudeDegrees>
            </Position>
            <AltitudeMeters>985.79998779296875</AltitudeMeters>
            <DistanceMeters>411536.44445488</DistanceMeters>
          </Trackpoint>
          <Trackpoint>
            <Time>2021-08-01T15:24:47.000Z</Time>
            <Position>
              <LatitudeDegrees>41.885980479419231414794921875</LatitudeDegrees>
              <LongitudeDegrees>-1.93591008894145488739013671875</LongitudeDegrees>
            </Position>
            <AltitudeMeters>984.79998779296875</AltitudeMeters>
            <DistanceMeters>411556.06097031</DistanceMeters>
          </Trackpoint>
          <Trackpoint>
            <Time>2021-08-01T15:24:50.000Z</Time>
            <Position>
              <LatitudeDegrees>41.88573606312274932861328125</LatitudeDegrees>
              <LongitudeDegrees>-1.93607638590037822723388671875</LongitudeDegrees>
            </Position>
            <AltitudeMeters>983.5999755859375</AltitudeMeters>
            <DistanceMeters>411586.55610751</DistanceMeters>
          </Trackpoint>
          <Trackpoint>
            <Time>2021-08-01T15:24:57.000Z</Time>
            <Position>
              <LatitudeDegrees>41.8852212466299533843994140625</LatitudeDegrees>
              <LongitudeDegrees>-1.9364301860332489013671875</LongitudeDegrees>
            </Position>
            <AltitudeMeters>983.5999755859375</AltitudeMeters>
            <DistanceMeters>411650.92041664</DistanceMeters>
          </Trackpoint>
          <Trackpoint>
            <Time>2021-08-01T15:25:00.000Z</Time>
            <Position>
              <LatitudeDegrees>41.8850298039615154266357421875</LatitudeDegrees>
              <LongitudeDegrees>-1.93655935116112232208251953125</LongitudeDegrees>
            </Position>
            <AltitudeMeters>984.4000244140625</AltitudeMeters>
            <DistanceMeters>411674.76549566</DistanceMeters>
          </Trackpoint>
          <Trackpoint>
            <Time>2021-08-01T15:25:09.000Z</Time>
            <Position>
              <LatitudeDegrees>41.8845366127789020538330078125</LatitudeDegrees>
              <LongitudeDegrees>-1.936884820461273193359375</LongitudeDegrees>
            </Position>
            <AltitudeMeters>985.4000244140625</AltitudeMeters>
            <DistanceMeters>411735.92594698</DistanceMeters>
          </Trackpoint>
          <Trackpoint>
            <Time>2021-08-01T15:25:18.000Z</Time>
            <Position>
              <LatitudeDegrees>41.88408315181732177734375</LatitudeDegrees>
              <LongitudeDegrees>-1.93718128837645053863525390625</LongitudeDegrees>
            </Position>
            <AltitudeMeters>986.4000244140625</AltitudeMeters>
            <DistanceMeters>411792.05834862</DistanceMeters>
          </Trackpoint>
          <Trackpoint>
            <Time>2021-08-01T15:25:28.000Z</Time>
            <Position>
              <LatitudeDegrees>41.883551739156246185302734375</LatitudeDegrees>
              <LongitudeDegrees>-1.93724197335541248321533203125</LongitudeDegrees>
            </Position>
            <AltitudeMeters>987</AltitudeMeters>
            <DistanceMeters>411851.41894422</DistanceMeters>
          </Trackpoint>
          <Trackpoint>
            <Time>2021-08-01T15:25:37.000Z</Time>
            <Position>
              <LatitudeDegrees>41.88306885771453380584716796875</LatitudeDegrees>
              <LongitudeDegrees>-1.9372175820171833038330078125</LongitudeDegrees>
            </Position>
            <AltitudeMeters>987.5999755859375</AltitudeMeters>
            <DistanceMeters>411905.2025535</DistanceMeters>
          </Trackpoint>
          <Trackpoint>
            <Time>2021-08-01T15:25:48.000Z</Time>
            <Position>
              <LatitudeDegrees>41.88250073231756687164306640625</LatitudeDegrees>
              <LongitudeDegrees>-1.93739435635507106781005859375</LongitudeDegrees>
            </Position>
            <AltitudeMeters>988.4000244140625</AltitudeMeters>
            <DistanceMeters>411970.11059927</DistanceMeters>
          </Trackpoint>
          <Trackpoint>
            <Time>2021-08-01T15:25:49.000Z</Time>
            <Position>
              <LatitudeDegrees>41.8824501894414424896240234375</LatitudeDegrees>
              <LongitudeDegrees>-1.93741128779947757720947265625</LongitudeDegrees>
            </Position>
            <AltitudeMeters>988.5999755859375</AltitudeMeters>
            <DistanceMeters>411975.90800771</DistanceMeters>
          </Trackpoint>
          <Trackpoint>
            <Time>2021-08-01T15:26:00.000Z</Time>
            <Position>
              <LatitudeDegrees>41.8819011747837066650390625</LatitudeDegrees>
              <LongitudeDegrees>-1.9375615753233432769775390625</LongitudeDegrees>
            </Position>
            <AltitudeMeters>989.4000244140625</AltitudeMeters>
            <DistanceMeters>412038.2705877</DistanceMeters>
          </Trackpoint>
          <Trackpoint>
            <Time>2021-08-01T15:26:02.000Z</Time>
            <Position>
              <LatitudeDegrees>41.881796903908252716064453125</LatitudeDegrees>
              <LongitudeDegrees>-1.9375712983310222625732421875</LongitudeDegrees>
            </Position>
            <AltitudeMeters>989.79998779296875</AltitudeMeters>
            <DistanceMeters>412049.90427953</DistanceMeters>
          </Trackpoint>
          <Trackpoint>
            <Time>2021-08-01T15:26:06.000Z</Time>
            <Position>
              <LatitudeDegrees>41.8815873563289642333984375</LatitudeDegrees>
              <LongitudeDegrees>-1.93757708184421062469482421875</LongitudeDegrees>
            </Position>
            <AltitudeMeters>991</AltitudeMeters>
            <DistanceMeters>412073.23212827</DistanceMeters>
          </Trackpoint>
          <Trackpoint>
            <Time>2021-08-01T15:26:14.000Z</Time>
            <Position>
              <LatitudeDegrees>41.88115761615335941314697265625</LatitudeDegrees>
              <LongitudeDegrees>-1.93754673935472965240478515625</LongitudeDegrees>
            </Position>
            <AltitudeMeters>992</AltitudeMeters>
            <DistanceMeters>412121.12908027</DistanceMeters>
          </Trackpoint>
          <Trackpoint>
            <Time>2021-08-01T15:26:22.000Z</Time>
            <Position>
              <LatitudeDegrees>41.88075327314436435699462890625</LatitudeDegrees>
              <LongitudeDegrees>-1.93752192892134189605712890625</LongitudeDegrees>
            </Position>
            <AltitudeMeters>993</AltitudeMeters>
            <DistanceMeters>412166.18016218</DistanceMeters>
          </Trackpoint>
          <Trackpoint>
            <Time>2021-08-01T15:26:30.000Z</Time>
            <Position>
              <LatitudeDegrees>41.88039603643119335174560546875</LatitudeDegrees>
              <LongitudeDegrees>-1.9374301470816135406494140625</LongitudeDegrees>
            </Position>
            <AltitudeMeters>994.20001220703125</AltitudeMeters>
            <DistanceMeters>412206.6622117</DistanceMeters>
          </Trackpoint>
          <Trackpoint>
            <Time>2021-08-01T15:26:42.000Z</Time>
            <Position>
              <LatitudeDegrees>41.879876442253589630126953125</LatitudeDegrees>
              <LongitudeDegrees>-1.9371263869106769561767578125</LongitudeDegrees>
            </Position>
            <AltitudeMeters>993.5999755859375</AltitudeMeters>
            <DistanceMeters>412269.73504355</DistanceMeters>
          </Trackpoint>
          <Trackpoint>
            <Time>2021-08-01T15:26:47.000Z</Time>
            <Position>
              <LatitudeDegrees>41.87961392104625701904296875</LatitudeDegrees>
              <LongitudeDegrees>-1.9369691424071788787841796875</LongitudeDegrees>
            </Position>
            <AltitudeMeters>992.79998779296875</AltitudeMeters>
            <DistanceMeters>412301.72829589</DistanceMeters>
          </Trackpoint>
          <Trackpoint>
            <Time>2021-08-01T15:26:57.000Z</Time>
            <Position>
              <LatitudeDegrees>41.87906515784561634063720703125</LatitudeDegrees>
              <LongitudeDegrees>-1.93671726621687412261962890625</LongitudeDegrees>
            </Position>
            <AltitudeMeters>992</AltitudeMeters>
            <DistanceMeters>412366.27487248</DistanceMeters>
          </Trackpoint>
          <Trackpoint>
            <Time>2021-08-01T15:26:59.000Z</Time>
            <Position>
              <LatitudeDegrees>41.8789566121995449066162109375</LatitudeDegrees>
              <LongitudeDegrees>-1.9366689026355743408203125</LongitudeDegrees>
            </Position>
            <AltitudeMeters>991.79998779296875</AltitudeMeters>
            <DistanceMeters>412379.00348715</DistanceMeters>
          </Trackpoint>
          <Trackpoint>
            <Time>2021-08-01T15:27:09.000Z</Time>
            <Position>
              <LatitudeDegrees>41.87841120176017284393310546875</LatitudeDegrees>
              <LongitudeDegrees>-1.93645223043859004974365234375</LongitudeDegrees>
            </Position>
            <AltitudeMeters>992</AltitudeMeters>
            <DistanceMeters>412442.30854118</DistanceMeters>
          </Trackpoint>
          <Trackpoint>
            <Time>2021-08-01T15:27:19.000Z</Time>
            <Position>
              <LatitudeDegrees>41.8778709881007671356201171875</LatitudeDegrees>
              <LongitudeDegrees>-1.93636438809335231781005859375</LongitudeDegrees>
            </Position>
            <AltitudeMeters>992.4000244140625</AltitudeMeters>
            <DistanceMeters>412502.87448684</DistanceMeters>
          </Trackpoint>
          <Trackpoint>
            <Time>2021-08-01T15:27:23.000Z</Time>
            <Position>
              <LatitudeDegrees>41.8776617757976055145263671875</LatitudeDegrees>
              <LongitudeDegrees>-1.9363438524305820465087890625</LongitudeDegrees>
            </Position>
            <AltitudeMeters>992.79998779296875</AltitudeMeters>
            <DistanceMeters>412526.2224558</DistanceMeters>
          </Trackpoint>
          <Trackpoint>
            <Time>2021-08-01T15:27:33.000Z</Time>
            <Position>
              <LatitudeDegrees>41.877104379236698150634765625</LatitudeDegrees>
              <LongitudeDegrees>-1.936258859932422637939453125</LongitudeDegrees>
            </Position>
            <AltitudeMeters>991.5999755859375</AltitudeMeters>
            <DistanceMeters>412588.66028618</DistanceMeters>
          </Trackpoint>
          <Trackpoint>
            <Time>2021-08-01T15:27:37.000Z</Time>
            <Position>
              <LatitudeDegrees>41.87685350887477397918701171875</LatitudeDegrees>
              <LongitudeDegrees>-1.93616322241723537445068359375</LongitudeDegrees>
            </Position>
            <AltitudeMeters>990.4000244140625</AltitudeMeters>
            <DistanceMeters>412617.68577571</DistanceMeters>
          </Trackpoint>
          <Trackpoint>
            <Time>2021-08-01T15:27:41.000Z</Time>
            <Position>
              <LatitudeDegrees>41.876580677926540374755859375</LatitudeDegrees>
              <LongitudeDegrees>-1.93603447638452053070068359375</LongitudeDegrees>
            </Position>
            <AltitudeMeters>989.20001220703125</AltitudeMeters>
            <DistanceMeters>412649.8723493</DistanceMeters>
          </Trackpoint>
          <Trackpoint>
            <Time>2021-08-01T15:27:43.000Z</Time>
            <Position>
              <LatitudeDegrees>41.876430474221706390380859375</LatitudeDegrees>
              <LongitudeDegrees>-1.9359606318175792694091796875</LongitudeDegrees>
            </Position>
            <AltitudeMeters>988.20001220703125</AltitudeMeters>
            <DistanceMeters>412667.67509131</DistanceMeters>
          </Trackpoint>
          <Trackpoint>
            <Time>2021-08-01T15:27:46.000Z</Time>
            <Position>
              <LatitudeDegrees>41.8761922605335712432861328125</LatitudeDegrees>
              <LongitudeDegrees>-1.9358452968299388885498046875</LongitudeDegrees>
            </Position>
            <AltitudeMeters>987</AltitudeMeters>
            <DistanceMeters>412695.85912411</DistanceMeters>
          </Trackpoint>
          <Trackpoint>
            <Time>2021-08-01T15:27:48.000Z</Time>
            <Position>
              <LatitudeDegrees>41.8760303221642971038818359375</LatitudeDegrees>
              <LongitudeDegrees>-1.93576508201658725738525390625</LongitudeDegrees>
            </Position>
            <AltitudeMeters>985.79998779296875</AltitudeMeters>
            <DistanceMeters>412715.0700383</DistanceMeters>
          </Trackpoint>
          <Trackpoint>
            <Time>2021-08-01T15:27:52.000Z</Time>
            <Position>
              <LatitudeDegrees>41.8757020868360996246337890625</LatitudeDegrees>
              <LongitudeDegrees>-1.93560901097953319549560546875</LongitudeDegrees>
            </Position>
            <AltitudeMeters>984.5999755859375</AltitudeMeters>
            <DistanceMeters>412753.82532975</DistanceMeters>
          </Trackpoint>
          <Trackpoint>
            <Time>2021-08-01T15:27:57.000Z</Time>
            <Position>
              <LatitudeDegrees>41.8752975761890411376953125</LatitudeDegrees>
              <LongitudeDegrees>-1.93541740067303180694580078125</LongitudeDegrees>
            </Position>
            <AltitudeMeters>983.4000244140625</AltitudeMeters>
            <DistanceMeters>412801.56649002</DistanceMeters>
          </Trackpoint>
          <Trackpoint>
            <Time>2021-08-01T15:28:04.000Z</Time>
            <Position>
              <LatitudeDegrees>41.874754093587398529052734375</LatitudeDegrees>
              <LongitudeDegrees>-1.93513333797454833984375</LongitudeDegrees>
            </Position>
            <AltitudeMeters>982.20001220703125</AltitudeMeters>
            <DistanceMeters>412866.47676169</DistanceMeters>
          </Trackpoint>
          <Trackpoint>
            <Time>2021-08-01T15:28:12.000Z</Time>
            <Position>
              <LatitudeDegrees>41.8742536939680576324462890625</LatitudeDegrees>
              <LongitudeDegrees>-1.934688091278076171875</LongitudeDegrees>
            </Position>
            <AltitudeMeters>982.20001220703125</AltitudeMeters>
            <DistanceMeters>412933.28716505</DistanceMeters>
          </Trackpoint>
          <Trackpoint>
            <Time>2021-08-01T15:28:21.000Z</Time>
            <Position>
              <LatitudeDegrees>41.8737722374498844146728515625</LatitudeDegrees>
              <LongitudeDegrees>-1.934202946722507476806640625</LongitudeDegrees>
            </Position>
            <AltitudeMeters>982.20001220703125</AltitudeMeters>
            <DistanceMeters>413000.28126826</DistanceMeters>
          </Trackpoint>
          <Trackpoint>
            <Time>2021-08-01T15:28:25.000Z</Time>
            <Position>
              <LatitudeDegrees>41.87356394715607166290283203125</LatitudeDegrees>
              <LongitudeDegrees>-1.93394889123737812042236328125</LongitudeDegrees>
            </Position>
            <AltitudeMeters>981.20001220703125</AltitudeMeters>
            <DistanceMeters>413031.59873452</DistanceMeters>
          </Trackpoint>
          <Trackpoint>
            <Time>2021-08-01T15:28:28.000Z</Time>
            <Position>
              <LatitudeDegrees>41.87340033240616321563720703125</LatitudeDegrees>
              <LongitudeDegrees>-1.93374370224773883819580078125</LongitudeDegrees>
            </Position>
            <AltitudeMeters>979.79998779296875</AltitudeMeters>
            <DistanceMeters>413056.51458681</DistanceMeters>
          </Trackpoint>
          <Trackpoint>
            <Time>2021-08-01T15:28:32.000Z</Time>
            <Position>
              <LatitudeDegrees>41.8731801398098468780517578125</LatitudeDegrees>
              <LongitudeDegrees>-1.9334524311125278472900390625</LongitudeDegrees>
            </Position>
            <AltitudeMeters>978.5999755859375</AltitudeMeters>
            <DistanceMeters>413090.91478242</DistanceMeters>
          </Trackpoint>
          <Trackpoint>
            <Time>2021-08-01T15:28:35.000Z</Time>
            <Position>
              <LatitudeDegrees>41.87300872988998889923095703125</LatitudeDegrees>
              <LongitudeDegrees>-1.93322067148983478546142578125</LongitudeDegrees>
            </Position>
            <AltitudeMeters>977.20001220703125</AltitudeMeters>
            <DistanceMeters>413117.98739135</DistanceMeters>
          </Trackpoint>
          <Trackpoint>
            <Time>2021-08-01T15:28:38.000Z</Time>
            <Position>
              <LatitudeDegrees>41.87282659113407135009765625</LatitudeDegrees>
              <LongitudeDegrees>-1.9329850561916828155517578125</LongitudeDegrees>
            </Position>
            <AltitudeMeters>976</AltitudeMeters>
            <DistanceMeters>413146.1348752</DistanceMeters>
          </Trackpoint>
          <Trackpoint>
            <Time>2021-08-01T15:28:42.000Z</Time>
            <Position>
              <LatitudeDegrees>41.87258494086563587188720703125</LatitudeDegrees>
              <LongitudeDegrees>-1.932668052613735198974609375</LongitudeDegrees>
            </Position>
            <AltitudeMeters>975</AltitudeMeters>
            <DistanceMeters>413183.73352501</DistanceMeters>
          </Trackpoint>
          <Trackpoint>
            <Time>2021-08-01T15:28:49.000Z</Time>
            <Position>
              <LatitudeDegrees>41.87218210659921169281005859375</LatitudeDegrees>
              <LongitudeDegrees>-1.93214208818972110748291015625</LongitudeDegrees>
            </Position>
            <AltitudeMeters>974.5999755859375</AltitudeMeters>
            <DistanceMeters>413246.26752931</DistanceMeters>
          </Trackpoint>
          <Trackpoint>
            <Time>2021-08-01T15:28:57.000Z</Time>
            <Position>
              <LatitudeDegrees>41.87177742831408977508544921875</LatitudeDegrees>
              <LongitudeDegrees>-1.9316117651760578155517578125</LongitudeDegrees>
            </Position>
            <AltitudeMeters>974.5999755859375</AltitudeMeters>
            <DistanceMeters>413309.20076003</DistanceMeters>
          </Trackpoint>
          <Trackpoint>
            <Time>2021-08-01T15:29:06.000Z</Time>
            <Position>
              <LatitudeDegrees>41.87141901813447475433349609375</LatitudeDegrees>
              <LongitudeDegrees>-1.93107104860246181488037109375</LongitudeDegrees>
            </Position>
            <AltitudeMeters>974</AltitudeMeters>
            <DistanceMeters>413369.19837292</DistanceMeters>
          </Trackpoint>
          <Trackpoint>
            <Time>2021-08-01T15:29:16.000Z</Time>
            <Position>
              <LatitudeDegrees>41.871058009564876556396484375</LatitudeDegrees>
              <LongitudeDegrees>-1.93043452687561511993408203125</LongitudeDegrees>
            </Position>
            <AltitudeMeters>974.20001220703125</AltitudeMeters>
            <DistanceMeters>413435.51313168</DistanceMeters>
          </Trackpoint>
          <Trackpoint>
            <Time>2021-08-01T15:29:18.000Z</Time>
            <Position>
              <LatitudeDegrees>41.870968155562877655029296875</LatitudeDegrees>
              <LongitudeDegrees>-1.930310726165771484375</LongitudeDegrees>
            </Position>
            <AltitudeMeters>973.79998779296875</AltitudeMeters>
            <DistanceMeters>413449.84169818</DistanceMeters>
          </Trackpoint>
          <Trackpoint>
            <Time>2021-08-01T15:29:26.000Z</Time>
            <Position>
              <LatitudeDegrees>41.87053338624536991119384765625</LatitudeDegrees>
              <LongitudeDegrees>-1.92987713031470775604248046875</LongitudeDegrees>
            </Position>
            <AltitudeMeters>972.79998779296875</AltitudeMeters>
            <DistanceMeters>413510.11718131</DistanceMeters>
          </Trackpoint>
          <Trackpoint>
            <Time>2021-08-01T15:29:27.000Z</Time>
            <Position>
              <LatitudeDegrees>41.87047739513218402862548828125</LatitudeDegrees>
              <LongitudeDegrees>-1.92982147447764873504638671875</LongitudeDegrees>
            </Position>
            <AltitudeMeters>972.79998779296875</AltitudeMeters>
            <DistanceMeters>413517.86987044</DistanceMeters>
          </Trackpoint>
          <Trackpoint>
            <Time>2021-08-01T15:29:35.000Z</Time>
            <Position>
              <LatitudeDegrees>41.87002745456993579864501953125</LatitudeDegrees>
              <LongitudeDegrees>-1.92939818836748600006103515625</LongitudeDegrees>
            </Position>
            <AltitudeMeters>972</AltitudeMeters>
            <DistanceMeters>413579.01503853</DistanceMeters>
          </Trackpoint>
          <Trackpoint>
            <Time>2021-08-01T15:29:44.000Z</Time>
            <Position>
              <LatitudeDegrees>41.8696071021258831024169921875</LatitudeDegrees>
              <LongitudeDegrees>-1.92891723476350307464599609375</LongitudeDegrees>
            </Position>
            <AltitudeMeters>971.79998779296875</AltitudeMeters>
            <DistanceMeters>413640.48020966</DistanceMeters>
          </Trackpoint>
          <Trackpoint>
            <Time>2021-08-01T15:29:54.000Z</Time>
            <Position>
              <LatitudeDegrees>41.8692386336624622344970703125</LatitudeDegrees>
              <LongitudeDegrees>-1.9283594191074371337890625</LongitudeDegrees>
            </Position>
            <AltitudeMeters>972.20001220703125</AltitudeMeters>
            <DistanceMeters>413702.28192026</DistanceMeters>
          </Trackpoint>
          <Trackpoint>
            <Time>2021-08-01T15:30:05.000Z</Time>
            <Position>
              <LatitudeDegrees>41.86881325207650661468505859375</LatitudeDegrees>
              <LongitudeDegrees>-1.92781786434352397918701171875</LongitudeDegrees>
            </Position>
            <AltitudeMeters>973</AltitudeMeters>
            <DistanceMeters>413767.52272538</DistanceMeters>
          </Trackpoint>
          <Trackpoint>
            <Time>2021-08-01T15:30:07.000Z</Time>
            <Position>
              <LatitudeDegrees>41.86870931647717952728271484375</LatitudeDegrees>
              <LongitudeDegrees>-1.9277564249932765960693359375</LongitudeDegrees>
            </Position>
            <AltitudeMeters>972.79998779296875</AltitudeMeters>
            <DistanceMeters>413780.16235007</DistanceMeters>
          </Trackpoint>
          <Trackpoint>
            <Time>2021-08-01T15:30:17.000Z</Time>
            <Position>
              <LatitudeDegrees>41.868125684559345245361328125</LatitudeDegrees>
              <LongitudeDegrees>-1.92757177166640758514404296875</LongitudeDegrees>
            </Position>
            <AltitudeMeters>972.20001220703125</AltitudeMeters>
            <DistanceMeters>413846.90033615</DistanceMeters>
          </Trackpoint>
          <Trackpoint>
            <Time>2021-08-01T15:30:26.000Z</Time>
            <Position>
              <LatitudeDegrees>41.8675768375396728515625</LatitudeDegrees>
              <LongitudeDegrees>-1.927419640123844146728515625</LongitudeDegrees>
            </Position>
            <AltitudeMeters>972</AltitudeMeters>
            <DistanceMeters>413909.27594674</DistanceMeters>
          </Trackpoint>
          <Trackpoint>
            <Time>2021-08-01T15:30:30.000Z</Time>
            <Position>
              <LatitudeDegrees>41.8673181720077991485595703125</LatitudeDegrees>
              <LongitudeDegrees>-1.92736188881099224090576171875</LongitudeDegrees>
            </Position>
            <AltitudeMeters>971.5999755859375</AltitudeMeters>
            <DistanceMeters>413938.46106265</DistanceMeters>
          </Trackpoint>
          <Trackpoint>
            <Time>2021-08-01T15:30:34.000Z</Time>
            <Position>
              <LatitudeDegrees>41.8670533038675785064697265625</LatitudeDegrees>
              <LongitudeDegrees>-1.92731126211583614349365234375</LongitudeDegrees>
            </Position>
            <AltitudeMeters>970.5999755859375</AltitudeMeters>
            <DistanceMeters>413968.23855963</DistanceMeters>
          </Trackpoint>
          <Trackpoint>
            <Time>2021-08-01T15:30:43.000Z</Time>
            <Position>
              <LatitudeDegrees>41.8664860166609287261962890625</LatitudeDegrees>
              <LongitudeDegrees>-1.92735400982201099395751953125</LongitudeDegrees>
            </Position>
            <AltitudeMeters>970</AltitudeMeters>
            <DistanceMeters>414031.47796345</DistanceMeters>
          </Trackpoint>
          <Trackpoint>
            <Time>2021-08-01T15:30:49.000Z</Time>
            <Position>
              <LatitudeDegrees>41.86614520847797393798828125</LatitudeDegrees>
              <LongitudeDegrees>-1.92737278528511524200439453125</LongitudeDegrees>
            </Position>
            <AltitudeMeters>970.20001220703125</AltitudeMeters>
            <DistanceMeters>414069.44241434</DistanceMeters>
          </Trackpoint>
          <Trackpoint>
            <Time>2021-08-01T15:30:53.000Z</Time>
            <Position>
              <LatitudeDegrees>41.86595074832439422607421875</LatitudeDegrees>
              <LongitudeDegrees>-1.9272773154079914093017578125</LongitudeDegrees>
            </Position>
            <AltitudeMeters>970.5999755859375</AltitudeMeters>
            <DistanceMeters>414092.48751915</DistanceMeters>
          </Trackpoint>
          <Trackpoint>
            <Time>2021-08-01T15:31:07.000Z</Time>
            <Position>
              <LatitudeDegrees>41.86546132899820804595947265625</LatitudeDegrees>
              <LongitudeDegrees>-1.92690675146877765655517578125</LongitudeDegrees>
            </Position>
            <AltitudeMeters>970.5999755859375</AltitudeMeters>
            <DistanceMeters>414155.02361726</DistanceMeters>
          </Trackpoint>
          <Trackpoint>
            <Time>2021-08-01T15:31:13.000Z</Time>
            <Position>
              <LatitudeDegrees>41.86526368372142314910888671875</LatitudeDegrees>
              <LongitudeDegrees>-1.92673467099666595458984375</LongitudeDegrees>
            </Position>
            <AltitudeMeters>970.79998779296875</AltitudeMeters>
            <DistanceMeters>414181.24134826</DistanceMeters>
          </Trackpoint>
          <Trackpoint>
            <Time>2021-08-01T15:31:18.000Z</Time>
            <Position>
              <LatitudeDegrees>41.86509369872510433197021484375</LatitudeDegrees>
              <LongitudeDegrees>-1.92681991495192050933837890625</LongitudeDegrees>
            </Position>
            <AltitudeMeters>972</AltitudeMeters>
            <DistanceMeters>414201.4371521</DistanceMeters>
          </Trackpoint>
          <Trackpoint>
            <Time>2021-08-01T15:31:22.000Z</Time>
            <Position>
              <LatitudeDegrees>41.86500384472310543060302734375</LatitudeDegrees>
              <LongitudeDegrees>-1.92693491466343402862548828125</LongitudeDegrees>
            </Position>
            <AltitudeMeters>973.20001220703125</AltitudeMeters>
            <DistanceMeters>414215.25300372</DistanceMeters>
          </Trackpoint>
          <Trackpoint>
            <Time>2021-08-01T15:31:32.000Z</Time>
            <Position>
              <LatitudeDegrees>41.8647999130189418792724609375</LatitudeDegrees>
              <LongitudeDegrees>-1.92718318663537502288818359375</LongitudeDegrees>
            </Position>
            <AltitudeMeters>974.20001220703125</AltitudeMeters>
            <DistanceMeters>414245.8911255</DistanceMeters>
          </Trackpoint>
          <Trackpoint>
            <Time>2021-08-01T15:31:38.000Z</Time>
            <Position>
              <LatitudeDegrees>41.8646996654570102691650390625</LatitudeDegrees>
              <LongitudeDegrees>-1.9273266009986400604248046875</LongitudeDegrees>
            </Position>
            <AltitudeMeters>975.20001220703125</AltitudeMeters>
            <DistanceMeters>414262.19478553</DistanceMeters>
          </Trackpoint>
          <Trackpoint>
            <Time>2021-08-01T15:31:48.000Z</Time>
            <Position>
              <LatitudeDegrees>41.8645526468753814697265625</LatitudeDegrees>
              <LongitudeDegrees>-1.9275586120784282684326171875</LongitudeDegrees>
            </Position>
            <AltitudeMeters>976.20001220703125</AltitudeMeters>
            <DistanceMeters>414287.44579932</DistanceMeters>
          </Trackpoint>
          <Trackpoint>
            <Time>2021-08-01T15:31:58.000Z</Time>
            <Position>
              <LatitudeDegrees>41.86439800076186656951904296875</LatitudeDegrees>
              <LongitudeDegrees>-1.92779020406305789947509765625</LongitudeDegrees>
            </Position>
            <AltitudeMeters>977.4000244140625</AltitudeMeters>
            <DistanceMeters>414313.22905295</DistanceMeters>
          </Trackpoint>
          <Trackpoint>
            <Time>2021-08-01T15:32:07.000Z</Time>
            <Position>
              <LatitudeDegrees>41.86426556669175624847412109375</LatitudeDegrees>
              <LongitudeDegrees>-1.9279988296329975128173828125</LongitudeDegrees>
            </Position>
            <AltitudeMeters>978.5999755859375</AltitudeMeters>
            <DistanceMeters>414335.95136909</DistanceMeters>
          </Trackpoint>
          <Trackpoint>
            <Time>2021-08-01T15:32:14.000Z</Time>
            <Position>
              <LatitudeDegrees>41.86416213400661945343017578125</LatitudeDegrees>
              <LongitudeDegrees>-1.9281584210693836212158203125</LongitudeDegrees>
            </Position>
            <AltitudeMeters>979.5999755859375</AltitudeMeters>
            <DistanceMeters>414353.48785344</DistanceMeters>
          </Trackpoint>
          <Trackpoint>
            <Time>2021-08-01T15:32:20.000Z</Time>
            <Position>
              <LatitudeDegrees>41.86406842432916164398193359375</LatitudeDegrees>
              <LongitudeDegrees>-1.92830770276486873626708984375</LongitudeDegrees>
            </Position>
            <AltitudeMeters>980.79998779296875</AltitudeMeters>
            <DistanceMeters>414369.67115678</DistanceMeters>
          </Trackpoint>
          <Trackpoint>
            <Time>2021-08-01T15:32:39.000Z</Time>
            <Position>
              <LatitudeDegrees>41.86359174549579620361328125</LatitudeDegrees>
              <LongitudeDegrees>-1.92813436500728130340576171875</LongitudeDegrees>
            </Position>
            <AltitudeMeters>981.20001220703125</AltitudeMeters>
            <DistanceMeters>414424.63743742</DistanceMeters>
          </Trackpoint>
          <Trackpoint>
            <Time>2021-08-01T15:32:46.000Z</Time>
            <Position>
              <LatitudeDegrees>41.8634058348834514617919921875</LatitudeDegrees>
              <LongitudeDegrees>-1.92797427065670490264892578125</LongitudeDegrees>
            </Position>
            <AltitudeMeters>982</AltitudeMeters>
            <DistanceMeters>414449.21925235</DistanceMeters>
          </Trackpoint>
          <Trackpoint>
            <Time>2021-08-01T15:33:02.000Z</Time>
            <Position>
              <LatitudeDegrees>41.86289370059967041015625</LatitudeDegrees>
              <LongitudeDegrees>-1.9277156889438629150390625</LongitudeDegrees>
            </Position>
            <AltitudeMeters>982.79998779296875</AltitudeMeters>
            <DistanceMeters>414510.11758767</DistanceMeters>
          </Trackpoint>
          <Trackpoint>
            <Time>2021-08-01T15:33:16.000Z</Time>
            <Position>
              <LatitudeDegrees>41.86232280917465686798095703125</LatitudeDegrees>
              <LongitudeDegrees>-1.92767344415187835693359375</LongitudeDegrees>
            </Position>
            <AltitudeMeters>981.79998779296875</AltitudeMeters>
            <DistanceMeters>414573.75541104</DistanceMeters>
          </Trackpoint>
          <Trackpoint>
            <Time>2021-08-01T15:33:29.000Z</Time>
            <Position>
              <LatitudeDegrees>41.8617582879960536956787109375</LatitudeDegrees>
              <LongitudeDegrees>-1.92763195373117923736572265625</LongitudeDegrees>
            </Position>
            <AltitudeMeters>982</AltitudeMeters>
            <DistanceMeters>414636.68175403</DistanceMeters>
          </Trackpoint>
          <Trackpoint>
            <Time>2021-08-01T15:33:43.000Z</Time>
            <Position>
              <LatitudeDegrees>41.86118974350392818450927734375</LatitudeDegrees>
              <LongitudeDegrees>-1.92761384882032871246337890625</LongitudeDegrees>
            </Position>
            <AltitudeMeters>982.79998779296875</AltitudeMeters>
            <DistanceMeters>414699.97967546</DistanceMeters>
          </Trackpoint>
          <Trackpoint>
            <Time>2021-08-01T15:33:44.000Z</Time>
            <Position>
              <LatitudeDegrees>41.861151941120624542236328125</LatitudeDegrees>
              <LongitudeDegrees>-1.92761334590613842010498046875</LongitudeDegrees>
            </Position>
            <AltitudeMeters>983</AltitudeMeters>
            <DistanceMeters>414704.18776052</DistanceMeters>
          </Trackpoint>
          <Trackpoint>
            <Time>2021-08-01T15:33:57.000Z</Time>
            <Position>
              <LatitudeDegrees>41.8606662936508655548095703125</LatitudeDegrees>
              <LongitudeDegrees>-1.9275140203535556793212890625</LongitudeDegrees>
            </Position>
            <AltitudeMeters>984</AltitudeMeters>
            <DistanceMeters>414758.86471498</DistanceMeters>
          </Trackpoint>
          <Trackpoint>
            <Time>2021-08-01T15:34:12.000Z</Time>
            <Position>
              <LatitudeDegrees>41.8601539917290210723876953125</LatitudeDegrees>
              <LongitudeDegrees>-1.9272126071155071258544921875</LongitudeDegrees>
            </Position>
            <AltitudeMeters>984.5999755859375</AltitudeMeters>
            <DistanceMeters>414821.11889065</DistanceMeters>
          </Trackpoint>
          <Trackpoint>
            <Time>2021-08-01T15:34:26.000Z</Time>
            <Position>
              <LatitudeDegrees>41.8596735410392284393310546875</LatitudeDegrees>
              <LongitudeDegrees>-1.9269162230193614959716796875</LongitudeDegrees>
            </Position>
            <AltitudeMeters>985.20001220703125</AltitudeMeters>
            <DistanceMeters>414879.96797661</DistanceMeters>
          </Trackpoint>
          <Trackpoint>
            <Time>2021-08-01T15:34:41.000Z</Time>
            <Position>
              <LatitudeDegrees>41.85912611894309520721435546875</LatitudeDegrees>
              <LongitudeDegrees>-1.92674565128982067108154296875</LongitudeDegrees>
            </Position>
            <AltitudeMeters>986.20001220703125</AltitudeMeters>
            <DistanceMeters>414942.51620295</DistanceMeters>
          </Trackpoint>
          <Trackpoint>
            <Time>2021-08-01T15:34:44.000Z</Time>
            <Position>
              <LatitudeDegrees>41.859012544155120849609375</LatitudeDegrees>
              <LongitudeDegrees>-1.926749087870121002197265625</LongitudeDegrees>
            </Position>
            <AltitudeMeters>986.20001220703125</AltitudeMeters>
            <DistanceMeters>414955.16011348</DistanceMeters>
          </Trackpoint>
          <Trackpoint>
            <Time>2021-08-01T15:34:53.000Z</Time>
            <Position>
              <LatitudeDegrees>41.85869143344461917877197265625</LatitudeDegrees>
              <LongitudeDegrees>-1.9267928414046764373779296875</LongitudeDegrees>
            </Position>
            <AltitudeMeters>987.20001220703125</AltitudeMeters>
            <DistanceMeters>414991.08385653</DistanceMeters>
          </Trackpoint>
          <Trackpoint>
            <Time>2021-08-01T15:35:00.000Z</Time>
            <Position>
              <LatitudeDegrees>41.8584417365491390228271484375</LatitudeDegrees>
              <LongitudeDegrees>-1.92682393826544284820556640625</LongitudeDegrees>
            </Position>
            <AltitudeMeters>988.4000244140625</AltitudeMeters>
            <DistanceMeters>415018.99487039</DistanceMeters>
          </Trackpoint>
          <Trackpoint>
            <Time>2021-08-01T15:35:12.000Z</Time>
            <Position>
              <LatitudeDegrees>41.85803412459790706634521484375</LatitudeDegrees>
              <LongitudeDegrees>-1.92697347141802310943603515625</LongitudeDegrees>
            </Position>
            <AltitudeMeters>989.5999755859375</AltitudeMeters>
            <DistanceMeters>415066.02589446</DistanceMeters>
          </Trackpoint>
          <Trackpoint>
            <Time>2021-08-01T15:35:23.000Z</Time>
            <Position>
              <LatitudeDegrees>41.85766247101128101348876953125</LatitudeDegrees>
              <LongitudeDegrees>-1.92704270593822002410888671875</LongitudeDegrees>
            </Position>
            <AltitudeMeters>990.5999755859375</AltitudeMeters>
            <DistanceMeters>415107.78794619</DistanceMeters>
          </Trackpoint>
          <Trackpoint>
            <Time>2021-08-01T15:35:39.000Z</Time>
            <Position>
              <LatitudeDegrees>41.8571175634860992431640625</LatitudeDegrees>
              <LongitudeDegrees>-1.92691697739064693450927734375</LongitudeDegrees>
            </Position>
            <AltitudeMeters>990</AltitudeMeters>
            <DistanceMeters>415169.32623686</DistanceMeters>
          </Trackpoint>
          <Trackpoint>
            <Time>2021-08-01T15:35:48.000Z</Time>
            <Position>
              <LatitudeDegrees>41.85678589157760143280029296875</LatitudeDegrees>
              <LongitudeDegrees>-1.92679225467145442962646484375</LongitudeDegrees>
            </Position>
            <AltitudeMeters>989.4000244140625</AltitudeMeters>
            <DistanceMeters>415207.66265638</DistanceMeters>
          </Trackpoint>
          <Trackpoint>
            <Time>2021-08-01T15:35:50.000Z</Time>
            <Position>
              <LatitudeDegrees>41.85668648220598697662353515625</LatitudeDegrees>
              <LongitudeDegrees>-1.9267827831208705902099609375</LongitudeDegrees>
            </Position>
            <AltitudeMeters>988.4000244140625</AltitudeMeters>
            <DistanceMeters>415218.75516834</DistanceMeters>
          </Trackpoint>
          <Trackpoint>
            <Time>2021-08-01T15:35:51.000Z</Time>
            <Position>
              <LatitudeDegrees>41.85663049109280109405517578125</LatitudeDegrees>
              <LongitudeDegrees>-1.9267747364938259124755859375</LongitudeDegrees>
            </Position>
            <AltitudeMeters>987.5999755859375</AltitudeMeters>
            <DistanceMeters>415225.02333096</DistanceMeters>
          </Trackpoint>
          <Trackpoint>
            <Time>2021-08-01T15:35:54.000Z</Time>
            <Position>
              <LatitudeDegrees>41.8564548902213573455810546875</LatitudeDegrees>
              <LongitudeDegrees>-1.9268052466213703155517578125</LongitudeDegrees>
            </Position>
            <AltitudeMeters>986.4000244140625</AltitudeMeters>
            <DistanceMeters>415244.73123922</DistanceMeters>
          </Trackpoint>
          <Trackpoint>
            <Time>2021-08-01T15:35:59.000Z</Time>
            <Position>
              <LatitudeDegrees>41.856149621307849884033203125</LatitudeDegrees>
              <LongitudeDegrees>-1.9269306398928165435791015625</LongitudeDegrees>
            </Position>
            <AltitudeMeters>985.20001220703125</AltitudeMeters>
            <DistanceMeters>415280.26297176</DistanceMeters>
          </Trackpoint>
          <Trackpoint>
            <Time>2021-08-01T15:36:04.000Z</Time>
            <Position>
              <LatitudeDegrees>41.8558259122073650360107421875</LatitudeDegrees>
              <LongitudeDegrees>-1.92708528600633144378662109375</LongitudeDegrees>
            </Position>
            <AltitudeMeters>984.20001220703125</AltitudeMeters>
            <DistanceMeters>415318.50541011</DistanceMeters>
          </Trackpoint>
          <Trackpoint>
            <Time>2021-08-01T15:36:08.000Z</Time>
            <Position>
              <LatitudeDegrees>41.855554170906543731689453125</LatitudeDegrees>
              <LongitudeDegrees>-1.927205063402652740478515625</LongitudeDegrees>
            </Position>
            <AltitudeMeters>983</AltitudeMeters>
            <DistanceMeters>415350.33921759</DistanceMeters>
          </Trackpoint>
          <Trackpoint>
            <Time>2021-08-01T15:36:11.000Z</Time>
            <Position>
              <LatitudeDegrees>41.85535468161106109619140625</LatitudeDegrees>
              <LongitudeDegrees>-1.92730975337326526641845703125</LongitudeDegrees>
            </Position>
            <AltitudeMeters>982.79998779296875</AltitudeMeters>
            <DistanceMeters>415374.17861547</DistanceMeters>
          </Trackpoint>
          <Trackpoint>
            <Time>2021-08-01T15:36:16.000Z</Time>
            <Position>
              <LatitudeDegrees>41.8551647476851940155029296875</LatitudeDegrees>
              <LongitudeDegrees>-1.9274151138961315155029296875</LongitudeDegrees>
            </Position>
            <AltitudeMeters>983.5999755859375</AltitudeMeters>
            <DistanceMeters>415397.05204108</DistanceMeters>
          </Trackpoint>
          <Trackpoint>
            <Time>2021-08-01T15:36:24.000Z</Time>
            <Position>
              <LatitudeDegrees>41.85499585233628749847412109375</LatitudeDegrees>
              <LongitudeDegrees>-1.927260719239711761474609375</LongitudeDegrees>
            </Position>
            <AltitudeMeters>981.20001220703125</AltitudeMeters>
            <DistanceMeters>415419.79402051</DistanceMeters>
          </Trackpoint>
          <Trackpoint>
            <Time>2021-08-01T15:36:25.000Z</Time>
            <Position>
              <LatitudeDegrees>41.8549652583897113800048828125</LatitudeDegrees>
              <LongitudeDegrees>-1.92720430903136730194091796875</LongitudeDegrees>
            </Position>
            <AltitudeMeters>979.79998779296875</AltitudeMeters>
            <DistanceMeters>415425.57895467</DistanceMeters>
          </Trackpoint>
          <Trackpoint>
            <Time>2021-08-01T15:36:26.000Z</Time>
            <Position>
              <LatitudeDegrees>41.85493600554764270782470703125</LatitudeDegrees>
              <LongitudeDegrees>-1.92714882083237171173095703125</LongitudeDegrees>
            </Position>
            <AltitudeMeters>978.20001220703125</AltitudeMeters>
            <DistanceMeters>415431.21444745</DistanceMeters>
          </Trackpoint>
          <Trackpoint>
            <Time>2021-08-01T15:36:28.000Z</Time>
            <Position>
              <LatitudeDegrees>41.8548806011676788330078125</LatitudeDegrees>
              <LongitudeDegrees>-1.9270345754921436309814453125</LongitudeDegrees>
            </Position>
            <AltitudeMeters>976.5999755859375</AltitudeMeters>
            <DistanceMeters>415442.5158368</DistanceMeters>
          </Trackpoint>
          <Trackpoint>
            <Time>2021-08-01T15:36:29.000Z</Time>
            <Position>
              <LatitudeDegrees>41.85485185123980045318603515625</LatitudeDegrees>
              <LongitudeDegrees>-1.9269805960357189178466796875</LongitudeDegrees>
            </Position>
            <AltitudeMeters>975.79998779296875</AltitudeMeters>
            <DistanceMeters>415448.01590553</DistanceMeters>
          </Trackpoint>
          <Trackpoint>
            <Time>2021-08-01T15:36:30.000Z</Time>
            <Position>
              <LatitudeDegrees>41.85481849126517772674560546875</LatitudeDegrees>
              <LongitudeDegrees>-1.9269279576838016510009765625</LongitudeDegrees>
            </Position>
            <AltitudeMeters>975.4000244140625</AltitudeMeters>
            <DistanceMeters>415453.74594549</DistanceMeters>
          </Trackpoint>
          <Trackpoint>
            <Time>2021-08-01T15:36:33.000Z</Time>
            <Position>
              <LatitudeDegrees>41.85472168028354644775390625</LatitudeDegrees>
              <LongitudeDegrees>-1.926769204437732696533203125</LongitudeDegrees>
            </Position>
            <AltitudeMeters>974.20001220703125</AltitudeMeters>
            <DistanceMeters>415470.75546193</DistanceMeters>
          </Trackpoint>
          <Trackpoint>
            <Time>2021-08-01T15:36:36.000Z</Time>
            <Position>
              <LatitudeDegrees>41.8546256236732006072998046875</LatitudeDegrees>
              <LongitudeDegrees>-1.92660684697329998016357421875</LongitudeDegrees>
            </Position>
            <AltitudeMeters>973</AltitudeMeters>
            <DistanceMeters>415487.94479383</DistanceMeters>
          </Trackpoint>
          <Trackpoint>
            <Time>2021-08-01T15:36:45.000Z</Time>
            <Position>
              <LatitudeDegrees>41.85443610884249210357666015625</LatitudeDegrees>
              <LongitudeDegrees>-1.92637860774993896484375</LongitudeDegrees>
            </Position>
            <AltitudeMeters>971.79998779296875</AltitudeMeters>
            <DistanceMeters>415516.28124381</DistanceMeters>
          </Trackpoint>
          <Trackpoint>
            <Time>2021-08-01T15:36:47.000Z</Time>
            <Position>
              <LatitudeDegrees>41.85436494648456573486328125</LatitudeDegrees>
              <LongitudeDegrees>-1.92641892470419406890869140625</LongitudeDegrees>
            </Position>
            <AltitudeMeters>970.5999755859375</AltitudeMeters>
            <DistanceMeters>415524.87787952</DistanceMeters>
          </Trackpoint>
          <Trackpoint>
            <Time>2021-08-01T15:36:49.000Z</Time>
            <Position>
              <LatitudeDegrees>41.85430333949625492095947265625</LatitudeDegrees>
              <LongitudeDegrees>-1.9264934398233890533447265625</LongitudeDegrees>
            </Position>
            <AltitudeMeters>970</AltitudeMeters>
            <DistanceMeters>415534.10770841</DistanceMeters>
          </Trackpoint>
          <Trackpoint>
            <Time>2021-08-01T15:37:05.000Z</Time>
            <Position>
              <LatitudeDegrees>41.8541227094829082489013671875</LatitudeDegrees>
              <LongitudeDegrees>-1.92668647505342960357666015625</LongitudeDegrees>
            </Position>
            <AltitudeMeters>970.20001220703125</AltitudeMeters>
            <DistanceMeters>415559.80360671</DistanceMeters>
          </Trackpoint>
          <Trackpoint>
            <Time>2021-08-01T15:37:26.000Z</Time>
            <Position>
              <LatitudeDegrees>41.85397326014935970306396484375</LatitudeDegrees>
              <LongitudeDegrees>-1.92730640061199665069580078125</LongitudeDegrees>
            </Position>
            <AltitudeMeters>970.5999755859375</AltitudeMeters>
            <DistanceMeters>415613.82201035</DistanceMeters>
          </Trackpoint>
          <Trackpoint>
            <Time>2021-08-01T15:37:32.000Z</Time>
            <Position>
              <LatitudeDegrees>41.85399807058274745941162109375</LatitudeDegrees>
              <LongitudeDegrees>-1.92734713666141033172607421875</LongitudeDegrees>
            </Position>
            <AltitudeMeters>970.79998779296875</AltitudeMeters>
            <DistanceMeters>415618.18393321</DistanceMeters>
          </Trackpoint>
          <Trackpoint>
            <Time>2021-08-02T06:52:27.000Z</Time>
            <Position>
              <LatitudeDegrees>41.85407350771129131317138671875</LatitudeDegrees>
              <LongitudeDegrees>-1.9265360198915004730224609375</LongitudeDegrees>
            </Position>
            <AltitudeMeters>947.5999755859375</AltitudeMeters>
            <DistanceMeters>415685.95004108</DistanceMeters>
          </Trackpoint>
          <Trackpoint>
            <Time>2021-08-02T06:52:29.000Z</Time>
            <Position>
              <LatitudeDegrees>41.85403637588024139404296875</LatitudeDegrees>
              <LongitudeDegrees>-1.9265692122280597686767578125</LongitudeDegrees>
            </Position>
            <AltitudeMeters>949</AltitudeMeters>
            <DistanceMeters>415690.91513007</DistanceMeters>
          </Trackpoint>
          <Trackpoint>
            <Time>2021-08-02T06:52:31.000Z</Time>
            <Position>
              <LatitudeDegrees>41.8539941310882568359375</LatitudeDegrees>
              <LongitudeDegrees>-1.92661204375326633453369140625</LongitudeDegrees>
            </Position>
            <AltitudeMeters>949.4000244140625</AltitudeMeters>
            <DistanceMeters>415696.80678637</DistanceMeters>
          </Trackpoint>
          <Trackpoint>
            <Time>2021-08-02T06:52:35.000Z</Time>
            <Position>
              <LatitudeDegrees>41.85387368313968181610107421875</LatitudeDegrees>
              <LongitudeDegrees>-1.92666887305676937103271484375</LongitudeDegrees>
            </Position>
            <AltitudeMeters>949</AltitudeMeters>
            <DistanceMeters>415711.017014</DistanceMeters>
          </Trackpoint>
          <Trackpoint>
            <Time>2021-08-02T06:52:45.000Z</Time>
            <Position>
              <LatitudeDegrees>41.8539067916572093963623046875</LatitudeDegrees>
              <LongitudeDegrees>-1.926391012966632843017578125</LongitudeDegrees>
            </Position>
            <AltitudeMeters>948.5999755859375</AltitudeMeters>
            <DistanceMeters>415734.34563692</DistanceMeters>
          </Trackpoint>
          <Trackpoint>
            <Time>2021-08-02T06:52:55.000Z</Time>
            <Position>
              <LatitudeDegrees>41.85399790294468402862548828125</LatitudeDegrees>
              <LongitudeDegrees>-1.9259481132030487060546875</LongitudeDegrees>
            </Position>
            <AltitudeMeters>948.20001220703125</AltitudeMeters>
            <DistanceMeters>415772.43795797</DistanceMeters>
          </Trackpoint>
          <Trackpoint>
            <Time>2021-08-02T06:53:04.000Z</Time>
            <Position>
              <LatitudeDegrees>41.8538819812238216400146484375</LatitudeDegrees>
              <LongitudeDegrees>-1.92543388344347476959228515625</LongitudeDegrees>
            </Position>
            <AltitudeMeters>947</AltitudeMeters>
            <DistanceMeters>415816.97883509</DistanceMeters>
          </Trackpoint>
          <Trackpoint>
            <Time>2021-08-02T06:53:05.000Z</Time>
            <Position>
              <LatitudeDegrees>41.8538628704845905303955078125</LatitudeDegrees>
              <LongitudeDegrees>-1.92537470720708370208740234375</LongitudeDegrees>
            </Position>
            <AltitudeMeters>947</AltitudeMeters>
            <DistanceMeters>415822.3257241</DistanceMeters>
          </Trackpoint>
          <Trackpoint>
            <Time>2021-08-02T06:53:11.000Z</Time>
            <Position>
              <LatitudeDegrees>41.85373437590897083282470703125</LatitudeDegrees>
              <LongitudeDegrees>-1.92501981742680072784423828125</LongitudeDegrees>
            </Position>
            <AltitudeMeters>945.79998779296875</AltitudeMeters>
            <DistanceMeters>415855.03893793</DistanceMeters>
          </Trackpoint>
          <Trackpoint>
            <Time>2021-08-02T06:53:20.000Z</Time>
            <Position>
              <LatitudeDegrees>41.85365147888660430908203125</LatitudeDegrees>
              <LongitudeDegrees>-1.9244063459336757659912109375</LongitudeDegrees>
            </Position>
            <AltitudeMeters>945.4000244140625</AltitudeMeters>
            <DistanceMeters>415906.72788044</DistanceMeters>
          </Trackpoint>
          <Trackpoint>
            <Time>2021-08-02T06:53:27.000Z</Time>
            <Position>
              <LatitudeDegrees>41.85373538173735141754150390625</LatitudeDegrees>
              <LongitudeDegrees>-1.9239587523043155670166015625</LongitudeDegrees>
            </Position>
            <AltitudeMeters>946</AltitudeMeters>
            <DistanceMeters>415944.99191832</DistanceMeters>
          </Trackpoint>
          <Trackpoint>
            <Time>2021-08-02T06:53:35.000Z</Time>
            <Position>
              <LatitudeDegrees>41.853855662047863006591796875</LatitudeDegrees>
              <LongitudeDegrees>-1.9235931336879730224609375</LongitudeDegrees>
            </Position>
            <AltitudeMeters>946.5999755859375</AltitudeMeters>
            <DistanceMeters>415978.12777586</DistanceMeters>
          </Trackpoint>
          <Trackpoint>
            <Time>2021-08-02T06:53:39.000Z</Time>
            <Position>
              <LatitudeDegrees>41.853691041469573974609375</LatitudeDegrees>
              <LongitudeDegrees>-1.92354208789765834808349609375</LongitudeDegrees>
            </Position>
            <AltitudeMeters>944.20001220703125</AltitudeMeters>
            <DistanceMeters>415996.93274392</DistanceMeters>
          </Trackpoint>
          <Trackpoint>
            <Time>2021-08-02T06:53:40.000Z</Time>
            <Position>
              <LatitudeDegrees>41.853631027042865753173828125</LatitudeDegrees>
              <LongitudeDegrees>-1.92356203682720661163330078125</LongitudeDegrees>
            </Position>
            <AltitudeMeters>943</AltitudeMeters>
            <DistanceMeters>416003.81414791</DistanceMeters>
          </Trackpoint>
          <Trackpoint>
            <Time>2021-08-02T06:53:41.000Z</Time>
            <Position>
              <LatitudeDegrees>41.8535688333213329315185546875</LatitudeDegrees>
              <LongitudeDegrees>-1.92358701489865779876708984375</LongitudeDegrees>
            </Position>
            <AltitudeMeters>942.20001220703125</AltitudeMeters>
            <DistanceMeters>416011.0393034</DistanceMeters>
          </Trackpoint>
          <Trackpoint>
            <Time>2021-08-02T06:53:42.000Z</Time>
            <Position>
              <LatitudeDegrees>41.8535044603049755096435546875</LatitudeDegrees>
              <LongitudeDegrees>-1.9236140884459018707275390625</LongitudeDegrees>
            </Position>
            <AltitudeMeters>940.79998779296875</AltitudeMeters>
            <DistanceMeters>416018.54821792</DistanceMeters>
          </Trackpoint>
          <Trackpoint>
            <Time>2021-08-02T06:53:44.000Z</Time>
            <Position>
              <LatitudeDegrees>41.85337563045322895050048828125</LatitudeDegrees>
              <LongitudeDegrees>-1.92367502488195896148681640625</LongitudeDegrees>
            </Position>
            <AltitudeMeters>939.79998779296875</AltitudeMeters>
            <DistanceMeters>416033.75130434</DistanceMeters>
          </Trackpoint>
          <Trackpoint>
            <Time>2021-08-02T06:53:46.000Z</Time>
            <Position>
              <LatitudeDegrees>41.85324973426759243011474609375</LatitudeDegrees>
              <LongitudeDegrees>-1.92374761216342449188232421875</LongitudeDegrees>
            </Position>
            <AltitudeMeters>939.5999755859375</AltitudeMeters>
            <DistanceMeters>416049.00124168</DistanceMeters>
          </Trackpoint>
          <Trackpoint>
            <Time>2021-08-02T06:53:53.000Z</Time>
            <Position>
              <LatitudeDegrees>41.85291177593171596527099609375</LatitudeDegrees>
              <LongitudeDegrees>-1.9240636937320232391357421875</LongitudeDegrees>
            </Position>
            <AltitudeMeters>940.20001220703125</AltitudeMeters>
            <DistanceMeters>416094.84431914</DistanceMeters>
          </Trackpoint>
          <Trackpoint>
            <Time>2021-08-02T06:53:57.000Z</Time>
            <Position>
              <LatitudeDegrees>41.8527333252131938934326171875</LatitudeDegrees>
              <LongitudeDegrees>-1.92413686774671077728271484375</LongitudeDegrees>
            </Position>
            <AltitudeMeters>940.79998779296875</AltitudeMeters>
            <DistanceMeters>416115.61216787</DistanceMeters>
          </Trackpoint>
          <Trackpoint>
            <Time>2021-08-02T06:54:05.000Z</Time>
            <Position>
              <LatitudeDegrees>41.8524235300719738006591796875</LatitudeDegrees>
              <LongitudeDegrees>-1.9241823814809322357177734375</LongitudeDegrees>
            </Position>
            <AltitudeMeters>942</AltitudeMeters>
            <DistanceMeters>416150.29887117</DistanceMeters>
          </Trackpoint>
          <Trackpoint>
            <Time>2021-08-02T06:54:11.000Z</Time>
            <Position>
              <LatitudeDegrees>41.8522183410823345184326171875</LatitudeDegrees>
              <LongitudeDegrees>-1.924143992364406585693359375</LongitudeDegrees>
            </Position>
            <AltitudeMeters>943.20001220703125</AltitudeMeters>
            <DistanceMeters>416173.35768643</DistanceMeters>
          </Trackpoint>
          <Trackpoint>
            <Time>2021-08-02T06:54:16.000Z</Time>
            <Position>
              <LatitudeDegrees>41.85207207687199115753173828125</LatitudeDegrees>
              <LongitudeDegrees>-1.92406780086457729339599609375</LongitudeDegrees>
            </Position>
            <AltitudeMeters>944.4000244140625</AltitudeMeters>
            <DistanceMeters>416190.81986331</DistanceMeters>
          </Trackpoint>
          <Trackpoint>
            <Time>2021-08-02T06:54:18.000Z</Time>
            <Position>
              <LatitudeDegrees>41.852015666663646697998046875</LatitudeDegrees>
              <LongitudeDegrees>-1.92402002401649951934814453125</LongitudeDegrees>
            </Position>
            <AltitudeMeters>945.4000244140625</AltitudeMeters>
            <DistanceMeters>416198.24351177</DistanceMeters>
          </Trackpoint>
          <Trackpoint>
            <Time>2021-08-02T06:54:22.000Z</Time>
            <Position>
              <LatitudeDegrees>41.85194869525730609893798828125</LatitudeDegrees>
              <LongitudeDegrees>-1.92391105927526950836181640625</LongitudeDegrees>
            </Position>
            <AltitudeMeters>946.5999755859375</AltitudeMeters>
            <DistanceMeters>416209.95610847</DistanceMeters>
          </Trackpoint>
          <Trackpoint>
            <Time>2021-08-02T06:54:26.000Z</Time>
            <Position>
              <LatitudeDegrees>41.85192237608134746551513671875</LatitudeDegrees>
              <LongitudeDegrees>-1.92376471124589443206787109375</LongitudeDegrees>
            </Position>
            <AltitudeMeters>947.5999755859375</AltitudeMeters>
            <DistanceMeters>416222.43756987</DistanceMeters>
          </Trackpoint>
          <Trackpoint>
            <Time>2021-08-02T06:54:31.000Z</Time>
            <Position>
              <LatitudeDegrees>41.851877532899379730224609375</LatitudeDegrees>
              <LongitudeDegrees>-1.923558600246906280517578125</LongitudeDegrees>
            </Position>
            <AltitudeMeters>948.79998779296875</AltitudeMeters>
            <DistanceMeters>416240.23929739</DistanceMeters>
          </Trackpoint>
          <Trackpoint>
            <Time>2021-08-02T06:54:38.000Z</Time>
            <Position>
              <LatitudeDegrees>41.85185783542692661285400390625</LatitudeDegrees>
              <LongitudeDegrees>-1.923283673822879791259765625</LongitudeDegrees>
            </Position>
            <AltitudeMeters>950</AltitudeMeters>
            <DistanceMeters>416263.13738375</DistanceMeters>
          </Trackpoint>
          <Trackpoint>
            <Time>2021-08-02T06:54:43.000Z</Time>
            <Position>
              <LatitudeDegrees>41.8519058637320995330810546875</LatitudeDegrees>
              <LongitudeDegrees>-1.92308359779417514801025390625</LongitudeDegrees>
            </Position>
            <AltitudeMeters>951.20001220703125</AltitudeMeters>
            <DistanceMeters>416280.56487901</DistanceMeters>
          </Trackpoint>
          <Trackpoint>
            <Time>2021-08-02T06:54:45.000Z</Time>
            <Position>
              <LatitudeDegrees>41.8519427441060543060302734375</LatitudeDegrees>
              <LongitudeDegrees>-1.9230089150369167327880859375</LongitudeDegrees>
            </Position>
            <AltitudeMeters>951.4000244140625</AltitudeMeters>
            <DistanceMeters>416287.99399923</DistanceMeters>
          </Trackpoint>
          <Trackpoint>
            <Time>2021-08-02T06:54:50.000Z</Time>
            <Position>
              <LatitudeDegrees>41.8519953824579715728759765625</LatitudeDegrees>
              <LongitudeDegrees>-1.922814957797527313232421875</LongitudeDegrees>
            </Position>
            <AltitudeMeters>952.20001220703125</AltitudeMeters>
            <DistanceMeters>416305.10778021</DistanceMeters>
          </Trackpoint>
          <Trackpoint>
            <Time>2021-08-02T06:55:04.000Z</Time>
            <Position>
              <LatitudeDegrees>41.85198456980288028717041015625</LatitudeDegrees>
              <LongitudeDegrees>-1.9221023283898830413818359375</LongitudeDegrees>
            </Position>
            <AltitudeMeters>951</AltitudeMeters>
            <DistanceMeters>416364.20110353</DistanceMeters>
          </Trackpoint>
          <Trackpoint>
            <Time>2021-08-02T06:55:08.000Z</Time>
            <Position>
              <LatitudeDegrees>41.85193955898284912109375</LatitudeDegrees>
              <LongitudeDegrees>-1.92180812358856201171875</LongitudeDegrees>
            </Position>
            <AltitudeMeters>949.79998779296875</AltitudeMeters>
            <DistanceMeters>416389.10172941</DistanceMeters>
          </Trackpoint>
          <Trackpoint>
            <Time>2021-08-02T06:55:12.000Z</Time>
            <Position>
              <LatitudeDegrees>41.85189287178218364715576171875</LatitudeDegrees>
              <LongitudeDegrees>-1.9214768707752227783203125</LongitudeDegrees>
            </Position>
            <AltitudeMeters>948.5999755859375</AltitudeMeters>
            <DistanceMeters>416417.0518631</DistanceMeters>
          </Trackpoint>
          <Trackpoint>
            <Time>2021-08-02T06:55:15.000Z</Time>
            <Position>
              <LatitudeDegrees>41.85185062699019908905029296875</LatitudeDegrees>
              <LongitudeDegrees>-1.92120806314051151275634765625</LongitudeDegrees>
            </Position>
            <AltitudeMeters>947.4000244140625</AltitudeMeters>
            <DistanceMeters>416439.82816288</DistanceMeters>
          </Trackpoint>
          <Trackpoint>
            <Time>2021-08-02T06:55:18.000Z</Time>
            <Position>
              <LatitudeDegrees>41.85180553235113620758056640625</LatitudeDegrees>
              <LongitudeDegrees>-1.9209124334156513214111328125</LongitudeDegrees>
            </Position>
            <AltitudeMeters>946.4000244140625</AltitudeMeters>
            <DistanceMeters>416464.84637062</DistanceMeters>
          </Trackpoint>
          <Trackpoint>
            <Time>2021-08-02T06:55:20.000Z</Time>
            <Position>
              <LatitudeDegrees>41.85178088955581188201904296875</LatitudeDegrees>
              <LongitudeDegrees>-1.92069827578961849212646484375</LongitudeDegrees>
            </Position>
            <AltitudeMeters>945</AltitudeMeters>
            <DistanceMeters>416482.81220075</DistanceMeters>
          </Trackpoint>
          <Trackpoint>
            <Time>2021-08-02T06:55:22.000Z</Time>
            <Position>
              <LatitudeDegrees>41.85176362283527851104736328125</LatitudeDegrees>
              <LongitudeDegrees>-1.92047498188912868499755859375</LongitudeDegrees>
            </Position>
            <AltitudeMeters>944</AltitudeMeters>
            <DistanceMeters>416501.42434175</DistanceMeters>
          </Trackpoint>
          <Trackpoint>
            <Time>2021-08-02T06:55:23.000Z</Time>
            <Position>
              <LatitudeDegrees>41.8517660535871982574462890625</LatitudeDegrees>
              <LongitudeDegrees>-1.92036442458629608154296875</LongitudeDegrees>
            </Position>
            <AltitudeMeters>943.79998779296875</AltitudeMeters>
            <DistanceMeters>416510.59429659</DistanceMeters>
          </Trackpoint>
          <Trackpoint>
            <Time>2021-08-02T06:55:28.000Z</Time>
            <Position>
              <LatitudeDegrees>41.85184945352375507354736328125</LatitudeDegrees>
              <LongitudeDegrees>-1.91988908685743808746337890625</LongitudeDegrees>
            </Position>
            <AltitudeMeters>945.4000244140625</AltitudeMeters>
            <DistanceMeters>416551.08103018</DistanceMeters>
          </Trackpoint>
          <Trackpoint>
            <Time>2021-08-02T06:55:29.000Z</Time>
            <Position>
              <LatitudeDegrees>41.85185716487467288970947265625</LatitudeDegrees>
              <LongitudeDegrees>-1.91980862058699131011962890625</LongitudeDegrees>
            </Position>
            <AltitudeMeters>946</AltitudeMeters>
            <DistanceMeters>416557.80714964</DistanceMeters>
          </Trackpoint>
          <Trackpoint>
            <Time>2021-08-02T06:55:31.000Z</Time>
            <Position>
              <LatitudeDegrees>41.85185431502759456634521484375</LatitudeDegrees>
              <LongitudeDegrees>-1.91965674050152301788330078125</LongitudeDegrees>
            </Position>
            <AltitudeMeters>946.5999755859375</AltitudeMeters>
            <DistanceMeters>416570.4027605</DistanceMeters>
          </Trackpoint>
          <Trackpoint>
            <Time>2021-08-02T06:55:35.000Z</Time>
            <Position>
              <LatitudeDegrees>41.85181207023561000823974609375</LatitudeDegrees>
              <LongitudeDegrees>-1.919380724430084228515625</LongitudeDegrees>
            </Position>
            <AltitudeMeters>947.5999755859375</AltitudeMeters>
            <DistanceMeters>416593.76426217</DistanceMeters>
          </Trackpoint>
          <Trackpoint>
            <Time>2021-08-02T06:55:41.000Z</Time>
            <Position>
              <LatitudeDegrees>41.85174602083861827850341796875</LatitudeDegrees>
              <LongitudeDegrees>-1.9190094061195850372314453125</LongitudeDegrees>
            </Position>
            <AltitudeMeters>948.79998779296875</AltitudeMeters>
            <DistanceMeters>416625.41429282</DistanceMeters>
          </Trackpoint>
          <Trackpoint>
            <Time>2021-08-02T06:55:54.000Z</Time>
            <Position>
              <LatitudeDegrees>41.8516285903751850128173828125</LatitudeDegrees>
              <LongitudeDegrees>-1.9182528555393218994140625</LongitudeDegrees>
            </Position>
            <AltitudeMeters>949.5999755859375</AltitudeMeters>
            <DistanceMeters>416689.48428884</DistanceMeters>
          </Trackpoint>
          <Trackpoint>
            <Time>2021-08-02T06:55:55.000Z</Time>
            <Position>
              <LatitudeDegrees>41.85162733308970928192138671875</LatitudeDegrees>
              <LongitudeDegrees>-1.9181956909596920013427734375</LongitudeDegrees>
            </Position>
            <AltitudeMeters>949.79998779296875</AltitudeMeters>
            <DistanceMeters>416694.22420764</DistanceMeters>
          </Trackpoint>
          <Trackpoint>
            <Time>2021-08-02T06:55:57.000Z</Time>
            <Position>
              <LatitudeDegrees>41.85163571499288082122802734375</LatitudeDegrees>
              <LongitudeDegrees>-1.91808144561946392059326171875</LongitudeDegrees>
            </Position>
            <AltitudeMeters>950.20001220703125</AltitudeMeters>
            <DistanceMeters>416703.74112241</DistanceMeters>
          </Trackpoint>
          <Trackpoint>
            <Time>2021-08-02T06:56:00.000Z</Time>
            <Position>
              <LatitudeDegrees>41.851657927036285400390625</LatitudeDegrees>
              <LongitudeDegrees>-1.91791347227990627288818359375</LongitudeDegrees>
            </Position>
            <AltitudeMeters>950.79998779296875</AltitudeMeters>
            <DistanceMeters>416717.88446902</DistanceMeters>
          </Trackpoint>
          <Trackpoint>
            <Time>2021-08-02T06:56:05.000Z</Time>
            <Position>
              <LatitudeDegrees>41.8517397344112396240234375</LatitudeDegrees>
              <LongitudeDegrees>-1.9176387973129749298095703125</LongitudeDegrees>
            </Position>
            <AltitudeMeters>951.79998779296875</AltitudeMeters>
            <DistanceMeters>416742.40946304</DistanceMeters>
          </Trackpoint>
          <Trackpoint>
            <Time>2021-08-02T06:56:09.000Z</Time>
            <Position>
              <LatitudeDegrees>41.8517828173935413360595703125</LatitudeDegrees>
              <LongitudeDegrees>-1.91744894720613956451416015625</LongitudeDegrees>
            </Position>
            <AltitudeMeters>953</AltitudeMeters>
            <DistanceMeters>416758.86363431</DistanceMeters>
          </Trackpoint>
          <Trackpoint>
            <Time>2021-08-02T06:56:11.000Z</Time>
            <Position>
              <LatitudeDegrees>41.851802766323089599609375</LatitudeDegrees>
              <LongitudeDegrees>-1.91735657863318920135498046875</LongitudeDegrees>
            </Position>
            <AltitudeMeters>953.5999755859375</AltitudeMeters>
            <DistanceMeters>416766.83682301</DistanceMeters>
          </Trackpoint>
          <Trackpoint>
            <Time>2021-08-02T06:56:25.000Z</Time>
            <Position>
              <LatitudeDegrees>41.85163169167935848236083984375</LatitudeDegrees>
              <LongitudeDegrees>-1.9166597910225391387939453125</LongitudeDegrees>
            </Position>
            <AltitudeMeters>952.20001220703125</AltitudeMeters>
            <DistanceMeters>416827.6617891</DistanceMeters>
          </Trackpoint>
          <Trackpoint>
            <Time>2021-08-02T06:56:28.000Z</Time>
            <Position>
              <LatitudeDegrees>41.851585172116756439208984375</LatitudeDegrees>
              <LongitudeDegrees>-1.9164589606225490570068359375</LongitudeDegrees>
            </Position>
            <AltitudeMeters>952</AltitudeMeters>
            <DistanceMeters>416845.09809071</DistanceMeters>
          </Trackpoint>
          <Trackpoint>
            <Time>2021-08-02T06:56:39.000Z</Time>
            <Position>
              <LatitudeDegrees>41.85141778551042079925537109375</LatitudeDegrees>
              <LongitudeDegrees>-1.91576468758285045623779296875</LongitudeDegrees>
            </Position>
            <AltitudeMeters>952</AltitudeMeters>
            <DistanceMeters>416905.59765273</DistanceMeters>
          </Trackpoint>
          <Trackpoint>
            <Time>2021-08-02T06:56:48.000Z</Time>
            <Position>
              <LatitudeDegrees>41.8512480519711971282958984375</LatitudeDegrees>
              <LongitudeDegrees>-1.915378868579864501953125</LongitudeDegrees>
            </Position>
            <AltitudeMeters>953</AltitudeMeters>
            <DistanceMeters>416942.74665706</DistanceMeters>
          </Trackpoint>
          <Trackpoint>
            <Time>2021-08-02T06:57:03.000Z</Time>
            <Position>
              <LatitudeDegrees>41.85093884356319904327392578125</LatitudeDegrees>
              <LongitudeDegrees>-1.91477679647505283355712890625</LongitudeDegrees>
            </Position>
            <AltitudeMeters>953.5999755859375</AltitudeMeters>
            <DistanceMeters>417003.37682859</DistanceMeters>
          </Trackpoint>
          <Trackpoint>
            <Time>2021-08-02T06:57:06.000Z</Time>
            <Position>
              <LatitudeDegrees>41.85085854493081569671630859375</LatitudeDegrees>
              <LongitudeDegrees>-1.9146826677024364471435546875</LongitudeDegrees>
            </Position>
            <AltitudeMeters>954.20001220703125</AltitudeMeters>
            <DistanceMeters>417015.24185669</DistanceMeters>
          </Trackpoint>
          <Trackpoint>
            <Time>2021-08-02T06:57:13.000Z</Time>
            <Position>
              <LatitudeDegrees>41.8506348319351673126220703125</LatitudeDegrees>
              <LongitudeDegrees>-1.91452181898057460784912109375</LongitudeDegrees>
            </Position>
            <AltitudeMeters>955.20001220703125</AltitudeMeters>
            <DistanceMeters>417043.48797809</DistanceMeters>
          </Trackpoint>
          <Trackpoint>
            <Time>2021-08-02T06:57:17.000Z</Time>
            <Position>
              <LatitudeDegrees>41.8504978716373443603515625</LatitudeDegrees>
              <LongitudeDegrees>-1.91445291973650455474853515625</LongitudeDegrees>
            </Position>
            <AltitudeMeters>956.79998779296875</AltitudeMeters>
            <DistanceMeters>417059.76697233</DistanceMeters>
          </Trackpoint>
          <Trackpoint>
            <Time>2021-08-02T06:57:32.000Z</Time>
            <Position>
              <LatitudeDegrees>41.8499706499278545379638671875</LatitudeDegrees>
              <LongitudeDegrees>-1.9141544401645660400390625</LongitudeDegrees>
            </Position>
            <AltitudeMeters>957</AltitudeMeters>
            <DistanceMeters>417123.45217198</DistanceMeters>
          </Trackpoint>
          <Trackpoint>
            <Time>2021-08-02T06:57:40.000Z</Time>
            <Position>
              <LatitudeDegrees>41.84961969964206218719482421875</LatitudeDegrees>
              <LongitudeDegrees>-1.91395788453519344329833984375</LongitudeDegrees>
            </Position>
            <AltitudeMeters>955.5999755859375</AltitudeMeters>
            <DistanceMeters>417165.77673346</DistanceMeters>
          </Trackpoint>
          <Trackpoint>
            <Time>2021-08-02T06:57:52.000Z</Time>
            <Position>
              <LatitudeDegrees>41.8490902148187160491943359375</LatitudeDegrees>
              <LongitudeDegrees>-1.9136526994407176971435546875</LongitudeDegrees>
            </Position>
            <AltitudeMeters>955</AltitudeMeters>
            <DistanceMeters>417229.91167028</DistanceMeters>
          </Trackpoint>
          <Trackpoint>
            <Time>2021-08-02T06:57:54.000Z</Time>
            <Position>
              <LatitudeDegrees>41.8490084074437618255615234375</LatitudeDegrees>
              <LongitudeDegrees>-1.91358648240566253662109375</LongitudeDegrees>
            </Position>
            <AltitudeMeters>955</AltitudeMeters>
            <DistanceMeters>417240.54405134</DistanceMeters>
          </Trackpoint>
          <Trackpoint>
            <Time>2021-08-02T06:57:59.000Z</Time>
            <Position>
              <LatitudeDegrees>41.84884571470320224761962890625</LatitudeDegrees>
              <LongitudeDegrees>-1.913364194333553314208984375</LongitudeDegrees>
            </Position>
            <AltitudeMeters>954.79998779296875</AltitudeMeters>
            <DistanceMeters>417266.38135889</DistanceMeters>
          </Trackpoint>
          <Trackpoint>
            <Time>2021-08-02T06:58:11.000Z</Time>
            <Position>
              <LatitudeDegrees>41.8488107621669769287109375</LatitudeDegrees>
              <LongitudeDegrees>-1.91265575587749481201171875</LongitudeDegrees>
            </Position>
            <AltitudeMeters>955.79998779296875</AltitudeMeters>
            <DistanceMeters>417325.24655432</DistanceMeters>
          </Trackpoint>
          <Trackpoint>
            <Time>2021-08-02T06:58:12.000Z</Time>
            <Position>
              <LatitudeDegrees>41.848830878734588623046875</LatitudeDegrees>
              <LongitudeDegrees>-1.9125979207456111907958984375</LongitudeDegrees>
            </Position>
            <AltitudeMeters>955.79998779296875</AltitudeMeters>
            <DistanceMeters>417330.53912432</DistanceMeters>
          </Trackpoint>
          <Trackpoint>
            <Time>2021-08-02T06:58:14.000Z</Time>
            <Position>
              <LatitudeDegrees>41.8488799966871738433837890625</LatitudeDegrees>
              <LongitudeDegrees>-1.91249105148017406463623046875</LongitudeDegrees>
            </Position>
            <AltitudeMeters>956</AltitudeMeters>
            <DistanceMeters>417340.95051412</DistanceMeters>
          </Trackpoint>
          <Trackpoint>
            <Time>2021-08-02T06:58:21.000Z</Time>
            <Position>
              <LatitudeDegrees>41.84913388453423976898193359375</LatitudeDegrees>
              <LongitudeDegrees>-1.912237666547298431396484375</LongitudeDegrees>
            </Position>
            <AltitudeMeters>956.79998779296875</AltitudeMeters>
            <DistanceMeters>417376.16223967</DistanceMeters>
          </Trackpoint>
          <Trackpoint>
            <Time>2021-08-02T06:58:24.000Z</Time>
            <Position>
              <LatitudeDegrees>41.8492588587105274200439453125</LatitudeDegrees>
              <LongitudeDegrees>-1.9122039712965488433837890625</LongitudeDegrees>
            </Position>
            <AltitudeMeters>957</AltitudeMeters>
            <DistanceMeters>417390.34989043</DistanceMeters>
          </Trackpoint>
          <Trackpoint>
            <Time>2021-08-02T06:58:32.000Z</Time>
            <Position>
              <LatitudeDegrees>41.8495663069188594818115234375</LatitudeDegrees>
              <LongitudeDegrees>-1.91224160604178905487060546875</LongitudeDegrees>
            </Position>
            <AltitudeMeters>958</AltitudeMeters>
            <DistanceMeters>417424.71147676</DistanceMeters>
          </Trackpoint>
          <Trackpoint>
            <Time>2021-08-02T06:58:44.000Z</Time>
            <Position>
              <LatitudeDegrees>41.84993284754455089569091796875</LatitudeDegrees>
              <LongitudeDegrees>-1.91240924410521984100341796875</LongitudeDegrees>
            </Position>
            <AltitudeMeters>959</AltitudeMeters>
            <DistanceMeters>417467.81057043</DistanceMeters>
          </Trackpoint>
          <Trackpoint>
            <Time>2021-08-02T06:58:50.000Z</Time>
            <Position>
              <LatitudeDegrees>41.8501148186624050140380859375</LatitudeDegrees>
              <LongitudeDegrees>-1.9124279357492923736572265625</LongitudeDegrees>
            </Position>
            <AltitudeMeters>960.20001220703125</AltitudeMeters>
            <DistanceMeters>417488.12362812</DistanceMeters>
          </Trackpoint>
          <Trackpoint>
            <Time>2021-08-02T06:58:55.000Z</Time>
            <Position>
              <LatitudeDegrees>41.85026007704436779022216796875</LatitudeDegrees>
              <LongitudeDegrees>-1.912394575774669647216796875</LongitudeDegrees>
            </Position>
            <AltitudeMeters>961.20001220703125</AltitudeMeters>
            <DistanceMeters>417504.52613091</DistanceMeters>
          </Trackpoint>
          <Trackpoint>
            <Time>2021-08-02T06:58:58.000Z</Time>
            <Position>
              <LatitudeDegrees>41.8503545410931110382080078125</LatitudeDegrees>
              <LongitudeDegrees>-1.91236146725714206695556640625</LongitudeDegrees>
            </Position>
            <AltitudeMeters>962.4000244140625</AltitudeMeters>
            <DistanceMeters>417515.3928834</DistanceMeters>
          </Trackpoint>
          <Trackpoint>
            <Time>2021-08-02T06:59:04.000Z</Time>
            <Position>
              <LatitudeDegrees>41.85054757632315158843994140625</LatitudeDegrees>
              <LongitudeDegrees>-1.91228636540472507476806640625</LongitudeDegrees>
            </Position>
            <AltitudeMeters>963.5999755859375</AltitudeMeters>
            <DistanceMeters>417537.76234151</DistanceMeters>
          </Trackpoint>
          <Trackpoint>
            <Time>2021-08-02T06:59:20.000Z</Time>
            <Position>
              <LatitudeDegrees>41.8510425277054309844970703125</LatitudeDegrees>
              <LongitudeDegrees>-1.9121000356972217559814453125</LongitudeDegrees>
            </Position>
            <AltitudeMeters>964.79998779296875</AltitudeMeters>
            <DistanceMeters>417594.97639451</DistanceMeters>
          </Trackpoint>
          <Trackpoint>
            <Time>2021-08-02T06:59:24.000Z</Time>
            <Position>
              <LatitudeDegrees>41.8511659093201160430908203125</LatitudeDegrees>
              <LongitudeDegrees>-1.912049241364002227783203125</LongitudeDegrees>
            </Position>
            <AltitudeMeters>966</AltitudeMeters>
            <DistanceMeters>417609.34020969</DistanceMeters>
          </Trackpoint>
          <Trackpoint>
            <Time>2021-08-02T06:59:32.000Z</Time>
            <Position>
              <LatitudeDegrees>41.8514109961688518524169921875</LatitudeDegrees>
              <LongitudeDegrees>-1.91194656305015087127685546875</LongitudeDegrees>
            </Position>
            <AltitudeMeters>967</AltitudeMeters>
            <DistanceMeters>417637.91624533</DistanceMeters>
          </Trackpoint>
          <Trackpoint>
            <Time>2021-08-02T06:59:44.000Z</Time>
            <Position>
              <LatitudeDegrees>41.85173571109771728515625</LatitudeDegrees>
              <LongitudeDegrees>-1.91167943179607391357421875</LongitudeDegrees>
            </Position>
            <AltitudeMeters>968.20001220703125</AltitudeMeters>
            <DistanceMeters>417680.30369925</DistanceMeters>
          </Trackpoint>
          <Trackpoint>
            <Time>2021-08-02T07:00:01.000Z</Time>
            <Position>
              <LatitudeDegrees>41.851825229823589324951171875</LatitudeDegrees>
              <LongitudeDegrees>-1.9109611026942729949951171875</LongitudeDegrees>
            </Position>
            <AltitudeMeters>969</AltitudeMeters>
            <DistanceMeters>417740.68515712</DistanceMeters>
          </Trackpoint>
          <Trackpoint>
            <Time>2021-08-02T07:00:10.000Z</Time>
            <Position>
              <LatitudeDegrees>41.85178725980222225189208984375</LatitudeDegrees>
              <LongitudeDegrees>-1.91056271083652973175048828125</LongitudeDegrees>
            </Position>
            <AltitudeMeters>969.20001220703125</AltitudeMeters>
            <DistanceMeters>417773.98330972</DistanceMeters>
          </Trackpoint>
          <Trackpoint>
            <Time>2021-08-02T07:00:20.000Z</Time>
            <Position>
              <LatitudeDegrees>41.85175138525664806365966796875</LatitudeDegrees>
              <LongitudeDegrees>-1.9101396761834621429443359375</LongitudeDegrees>
            </Position>
            <AltitudeMeters>970.4000244140625</AltitudeMeters>
            <DistanceMeters>417809.28186504</DistanceMeters>
          </Trackpoint>
          <Trackpoint>
            <Time>2021-08-02T07:00:29.000Z</Time>
            <Position>
              <LatitudeDegrees>41.85172305442392826080322265625</LatitudeDegrees>
              <LongitudeDegrees>-1.90973876975476741790771484375</LongitudeDegrees>
            </Position>
            <AltitudeMeters>971.4000244140625</AltitudeMeters>
            <DistanceMeters>417842.66857851</DistanceMeters>
          </Trackpoint>
          <Trackpoint>
            <Time>2021-08-02T07:00:36.000Z</Time>
            <Position>
              <LatitudeDegrees>41.851800419390201568603515625</LatitudeDegrees>
              <LongitudeDegrees>-1.9094449840486049652099609375</LongitudeDegrees>
            </Position>
            <AltitudeMeters>972.79998779296875</AltitudeMeters>
            <DistanceMeters>417868.50256562</DistanceMeters>
          </Trackpoint>
          <Trackpoint>
            <Time>2021-08-02T07:00:45.000Z</Time>
            <Position>
              <LatitudeDegrees>41.85203117318451404571533203125</LatitudeDegrees>
              <LongitudeDegrees>-1.9091628491878509521484375</LongitudeDegrees>
            </Position>
            <AltitudeMeters>974</AltitudeMeters>
            <DistanceMeters>417903.2407765</DistanceMeters>
          </Trackpoint>
          <Trackpoint>
            <Time>2021-08-02T07:01:00.000Z</Time>
            <Position>
              <LatitudeDegrees>41.8525355122983455657958984375</LatitudeDegrees>
              <LongitudeDegrees>-1.90902404487133026123046875</LongitudeDegrees>
            </Position>
            <AltitudeMeters>975</AltitudeMeters>
            <DistanceMeters>417960.54212165</DistanceMeters>
          </Trackpoint>
          <Trackpoint>
            <Time>2021-08-02T07:01:04.000Z</Time>
            <Position>
              <LatitudeDegrees>41.8526602350175380706787109375</LatitudeDegrees>
              <LongitudeDegrees>-1.908984147012233734130859375</LongitudeDegrees>
            </Position>
            <AltitudeMeters>976</AltitudeMeters>
            <DistanceMeters>417974.8125906</DistanceMeters>
          </Trackpoint>
          <Trackpoint>
            <Time>2021-08-02T07:01:13.000Z</Time>
            <Position>
              <LatitudeDegrees>41.852950751781463623046875</LatitudeDegrees>
              <LongitudeDegrees>-1.908914744853973388671875</LongitudeDegrees>
            </Position>
            <AltitudeMeters>977.20001220703125</AltitudeMeters>
            <DistanceMeters>418007.6555608</DistanceMeters>
          </Trackpoint>
          <Trackpoint>
            <Time>2021-08-02T07:01:29.000Z</Time>
            <Position>
              <LatitudeDegrees>41.85327722690999507904052734375</LatitudeDegrees>
              <LongitudeDegrees>-1.90836489200592041015625</LongitudeDegrees>
            </Position>
            <AltitudeMeters>977.79998779296875</AltitudeMeters>
            <DistanceMeters>418065.95133276</DistanceMeters>
          </Trackpoint>
          <Trackpoint>
            <Time>2021-08-02T07:01:35.000Z</Time>
            <Position>
              <LatitudeDegrees>41.85336071066558361053466796875</LatitudeDegrees>
              <LongitudeDegrees>-1.907980330288410186767578125</LongitudeDegrees>
            </Position>
            <AltitudeMeters>976.20001220703125</AltitudeMeters>
            <DistanceMeters>418099.15932872</DistanceMeters>
          </Trackpoint>
          <Trackpoint>
            <Time>2021-08-02T07:01:39.000Z</Time>
            <Position>
              <LatitudeDegrees>41.8534300290048122406005859375</LatitudeDegrees>
              <LongitudeDegrees>-1.90764379687607288360595703125</LongitudeDegrees>
            </Position>
            <AltitudeMeters>975.20001220703125</AltitudeMeters>
            <DistanceMeters>418128.10631273</DistanceMeters>
          </Trackpoint>
          <Trackpoint>
            <Time>2021-08-02T07:01:42.000Z</Time>
            <Position>
              <LatitudeDegrees>41.85348920524120330810546875</LatitudeDegrees>
              <LongitudeDegrees>-1.90735914744436740875244140625</LongitudeDegrees>
            </Position>
            <AltitudeMeters>973.79998779296875</AltitudeMeters>
            <DistanceMeters>418152.60662501</DistanceMeters>
          </Trackpoint>
          <Trackpoint>
            <Time>2021-08-02T07:01:46.000Z</Time>
            <Position>
              <LatitudeDegrees>41.85358844697475433349609375</LatitudeDegrees>
              <LongitudeDegrees>-1.9069595821201801300048828125</LongitudeDegrees>
            </Position>
            <AltitudeMeters>972.5999755859375</AltitudeMeters>
            <DistanceMeters>418187.52503136</DistanceMeters>
          </Trackpoint>
          <Trackpoint>
            <Time>2021-08-02T07:01:47.000Z</Time>
            <Position>
              <LatitudeDegrees>41.85362624935805797576904296875</LatitudeDegrees>
              <LongitudeDegrees>-1.906869225203990936279296875</LongitudeDegrees>
            </Position>
            <AltitudeMeters>972.5999755859375</AltitudeMeters>
            <DistanceMeters>418196.11641337</DistanceMeters>
          </Trackpoint>
          <Trackpoint>
            <Time>2021-08-02T07:01:53.000Z</Time>
            <Position>
              <LatitudeDegrees>41.8539530597627162933349609375</LatitudeDegrees>
              <LongitudeDegrees>-1.90655280835926532745361328125</LongitudeDegrees>
            </Position>
            <AltitudeMeters>974</AltitudeMeters>
            <DistanceMeters>418240.96318366</DistanceMeters>
          </Trackpoint>
          <Trackpoint>
            <Time>2021-08-02T07:01:56.000Z</Time>
            <Position>
              <LatitudeDegrees>41.85410435311496257781982421875</LatitudeDegrees>
              <LongitudeDegrees>-1.906535625457763671875</LongitudeDegrees>
            </Position>
            <AltitudeMeters>974.5999755859375</AltitudeMeters>
            <DistanceMeters>418257.86271702</DistanceMeters>
          </Trackpoint>
          <Trackpoint>
            <Time>2021-08-02T07:01:59.000Z</Time>
            <Position>
              <LatitudeDegrees>41.854213736951351165771484375</LatitudeDegrees>
              <LongitudeDegrees>-1.90653772093355655670166015625</LongitudeDegrees>
            </Position>
            <AltitudeMeters>975</AltitudeMeters>
            <DistanceMeters>418270.03837984</DistanceMeters>
          </Trackpoint>
          <Trackpoint>
            <Time>2021-08-02T07:02:04.000Z</Time>
            <Position>
              <LatitudeDegrees>41.8543493561446666717529296875</LatitudeDegrees>
              <LongitudeDegrees>-1.90653973259031772613525390625</LongitudeDegrees>
            </Position>
            <AltitudeMeters>976.20001220703125</AltitudeMeters>
            <DistanceMeters>418285.13417426</DistanceMeters>
          </Trackpoint>
          <Trackpoint>
            <Time>2021-08-02T07:02:13.000Z</Time>
            <Position>
              <LatitudeDegrees>41.85462319292128086090087890625</LatitudeDegrees>
              <LongitudeDegrees>-1.90654744394123554229736328125</LongitudeDegrees>
            </Position>
            <AltitudeMeters>977.79998779296875</AltitudeMeters>
            <DistanceMeters>418315.61924187</DistanceMeters>
          </Trackpoint>
          <Trackpoint>
            <Time>2021-08-02T07:02:17.000Z</Time>
            <Position>
              <LatitudeDegrees>41.854743473231792449951171875</LatitudeDegrees>
              <LongitudeDegrees>-1.90654568374156951904296875</LongitudeDegrees>
            </Position>
            <AltitudeMeters>978.79998779296875</AltitudeMeters>
            <DistanceMeters>418329.00755832</DistanceMeters>
          </Trackpoint>
          <Trackpoint>
            <Time>2021-08-02T07:02:22.000Z</Time>
            <Position>
              <LatitudeDegrees>41.85489392839372158050537109375</LatitudeDegrees>
              <LongitudeDegrees>-1.906543336808681488037109375</LongitudeDegrees>
            </Position>
            <AltitudeMeters>980.20001220703125</AltitudeMeters>
            <DistanceMeters>418345.75465193</DistanceMeters>
          </Trackpoint>
          <Trackpoint>
            <Time>2021-08-02T07:02:36.000Z</Time>
            <Position>
              <LatitudeDegrees>41.8553337268531322479248046875</LatitudeDegrees>
              <LongitudeDegrees>-1.906525902450084686279296875</LongitudeDegrees>
            </Position>
            <AltitudeMeters>981.20001220703125</AltitudeMeters>
            <DistanceMeters>418394.72633519</DistanceMeters>
          </Trackpoint>
          <Trackpoint>
            <Time>2021-08-02T07:02:41.000Z</Time>
            <Position>
              <LatitudeDegrees>41.85548870824277400970458984375</LatitudeDegrees>
              <LongitudeDegrees>-1.9064958952367305755615234375</LongitudeDegrees>
            </Position>
            <AltitudeMeters>982.20001220703125</AltitudeMeters>
            <DistanceMeters>418412.1543486</DistanceMeters>
          </Trackpoint>
          <Trackpoint>
            <Time>2021-08-02T07:02:44.000Z</Time>
            <Position>
              <LatitudeDegrees>41.85558107681572437286376953125</LatitudeDegrees>
              <LongitudeDegrees>-1.90645742230117321014404296875</LongitudeDegrees>
            </Position>
            <AltitudeMeters>983.4000244140625</AltitudeMeters>
            <DistanceMeters>418422.91882448</DistanceMeters>
          </Trackpoint>
          <Trackpoint>
            <Time>2021-08-02T07:02:58.000Z</Time>
            <Position>
              <LatitudeDegrees>41.85597351752221584320068359375</LatitudeDegrees>
              <LongitudeDegrees>-1.90607537515461444854736328125</LongitudeDegrees>
            </Position>
            <AltitudeMeters>984.4000244140625</AltitudeMeters>
            <DistanceMeters>418476.87257952</DistanceMeters>
          </Trackpoint>
          <Trackpoint>
            <Time>2021-08-02T07:03:13.000Z</Time>
            <Position>
              <LatitudeDegrees>41.8561722524464130401611328125</LatitudeDegrees>
              <LongitudeDegrees>-1.90539769828319549560546875</LongitudeDegrees>
            </Position>
            <AltitudeMeters>985</AltitudeMeters>
            <DistanceMeters>418537.25007417</DistanceMeters>
          </Trackpoint>
          <Trackpoint>
            <Time>2021-08-02T07:03:23.000Z</Time>
            <Position>
              <LatitudeDegrees>41.856202594935894012451171875</LatitudeDegrees>
              <LongitudeDegrees>-1.90490593202412128448486328125</LongitudeDegrees>
            </Position>
            <AltitudeMeters>985.4000244140625</AltitudeMeters>
            <DistanceMeters>418578.15717082</DistanceMeters>
          </Trackpoint>
          <Trackpoint>
            <Time>2021-08-02T07:03:32.000Z</Time>
            <Position>
              <LatitudeDegrees>41.85622908174991607666015625</LatitudeDegrees>
              <LongitudeDegrees>-1.90438449382781982421875</LongitudeDegrees>
            </Position>
            <AltitudeMeters>984.4000244140625</AltitudeMeters>
            <DistanceMeters>418621.48487191</DistanceMeters>
          </Trackpoint>
          <Trackpoint>
            <Time>2021-08-02T07:03:36.000Z</Time>
            <Position>
              <LatitudeDegrees>41.8562419898808002471923828125</LatitudeDegrees>
              <LongitudeDegrees>-1.9040765427052974700927734375</LongitudeDegrees>
            </Position>
            <AltitudeMeters>983.5999755859375</AltitudeMeters>
            <DistanceMeters>418647.05447545</DistanceMeters>
          </Trackpoint>
          <Trackpoint>
            <Time>2021-08-02T07:03:45.000Z</Time>
            <Position>
              <LatitudeDegrees>41.85637031681835651397705078125</LatitudeDegrees>
              <LongitudeDegrees>-1.9033265300095081329345703125</LongitudeDegrees>
            </Position>
            <AltitudeMeters>982.5999755859375</AltitudeMeters>
            <DistanceMeters>418710.85003574</DistanceMeters>
          </Trackpoint>
          <Trackpoint>
            <Time>2021-08-02T07:03:55.000Z</Time>
            <Position>
              <LatitudeDegrees>41.8565682135522365570068359375</LatitudeDegrees>
              <LongitudeDegrees>-1.902619265019893646240234375</LongitudeDegrees>
            </Position>
            <AltitudeMeters>982.5999755859375</AltitudeMeters>
            <DistanceMeters>418773.48294985</DistanceMeters>
          </Trackpoint>
          <Trackpoint>
            <Time>2021-08-02T07:03:56.000Z</Time>
            <Position>
              <LatitudeDegrees>41.85657634399831295013427734375</LatitudeDegrees>
              <LongitudeDegrees>-1.90255128778517246246337890625</LongitudeDegrees>
            </Position>
            <AltitudeMeters>982.5999755859375</AltitudeMeters>
            <DistanceMeters>418779.19088431</DistanceMeters>
          </Trackpoint>
          <Trackpoint>
            <Time>2021-08-02T07:04:02.000Z</Time>
            <Position>
              <LatitudeDegrees>41.85657299123704433441162109375</LatitudeDegrees>
              <LongitudeDegrees>-1.90216018818318843841552734375</LongitudeDegrees>
            </Position>
            <AltitudeMeters>982.4000244140625</AltitudeMeters>
            <DistanceMeters>418811.61491274</DistanceMeters>
          </Trackpoint>
          <Trackpoint>
            <Time>2021-08-02T07:04:14.000Z</Time>
            <Position>
              <LatitudeDegrees>41.8564113043248653411865234375</LatitudeDegrees>
              <LongitudeDegrees>-1.90145795233547687530517578125</LongitudeDegrees>
            </Position>
            <AltitudeMeters>982.4000244140625</AltitudeMeters>
            <DistanceMeters>418872.54823237</DistanceMeters>
          </Trackpoint>
          <Trackpoint>
            <Time>2021-08-02T07:04:27.000Z</Time>
            <Position>
              <LatitudeDegrees>41.8564052693545818328857421875</LatitudeDegrees>
              <LongitudeDegrees>-1.90068899653851985931396484375</LongitudeDegrees>
            </Position>
            <AltitudeMeters>982.5999755859375</AltitudeMeters>
            <DistanceMeters>418936.29805656</DistanceMeters>
          </Trackpoint>
          <Trackpoint>
            <Time>2021-08-02T07:04:30.000Z</Time>
            <Position>
              <LatitudeDegrees>41.85640149749815464019775390625</LatitudeDegrees>
              <LongitudeDegrees>-1.9005031697452068328857421875</LongitudeDegrees>
            </Position>
            <AltitudeMeters>982.5999755859375</AltitudeMeters>
            <DistanceMeters>418951.70850692</DistanceMeters>
          </Trackpoint>
          <Trackpoint>
            <Time>2021-08-02T07:04:34.000Z</Time>
            <Position>
              <LatitudeDegrees>41.85636679641902446746826171875</LatitudeDegrees>
              <LongitudeDegrees>-1.90025414340198040008544921875</LongitudeDegrees>
            </Position>
            <AltitudeMeters>982.5999755859375</AltitudeMeters>
            <DistanceMeters>418972.71091569</DistanceMeters>
          </Trackpoint>
          <Trackpoint>
            <Time>2021-08-02T07:04:46.000Z</Time>
            <Position>
              <LatitudeDegrees>41.85605331324040889739990234375</LatitudeDegrees>
              <LongitudeDegrees>-1.899617202579975128173828125</LongitudeDegrees>
            </Position>
            <AltitudeMeters>982.4000244140625</AltitudeMeters>
            <DistanceMeters>419035.9999916</DistanceMeters>
          </Trackpoint>
          <Trackpoint>
            <Time>2021-08-02T07:04:55.000Z</Time>
            <Position>
              <LatitudeDegrees>41.855779476463794708251953125</LatitudeDegrees>
              <LongitudeDegrees>-1.899154186248779296875</LongitudeDegrees>
            </Position>
            <AltitudeMeters>981.5999755859375</AltitudeMeters>
            <DistanceMeters>419085.01323804</DistanceMeters>
          </Trackpoint>
          <Trackpoint>
            <Time>2021-08-02T07:05:01.000Z</Time>
            <Position>
              <LatitudeDegrees>41.85559046454727649688720703125</LatitudeDegrees>
              <LongitudeDegrees>-1.89874255098402500152587890625</LongitudeDegrees>
            </Position>
            <AltitudeMeters>980.4000244140625</AltitudeMeters>
            <DistanceMeters>419125.10167408</DistanceMeters>
          </Trackpoint>
          <Trackpoint>
            <Time>2021-08-02T07:05:04.000Z</Time>
            <Position>
              <LatitudeDegrees>41.85549013316631317138671875</LatitudeDegrees>
              <LongitudeDegrees>-1.89849897287786006927490234375</LongitudeDegrees>
            </Position>
            <AltitudeMeters>979</AltitudeMeters>
            <DistanceMeters>419148.17673546</DistanceMeters>
          </Trackpoint>
          <Trackpoint>
            <Time>2021-08-02T07:05:06.000Z</Time>
            <Position>
              <LatitudeDegrees>41.8554170429706573486328125</LatitudeDegrees>
              <LongitudeDegrees>-1.89832898788154125213623046875</LongitudeDegrees>
            </Position>
            <AltitudeMeters>977.79998779296875</AltitudeMeters>
            <DistanceMeters>419164.44823943</DistanceMeters>
          </Trackpoint>
          <Trackpoint>
            <Time>2021-08-02T07:05:09.000Z</Time>
            <Position>
              <LatitudeDegrees>41.85529458336532115936279296875</LatitudeDegrees>
              <LongitudeDegrees>-1.89809194765985012054443359375</LongitudeDegrees>
            </Position>
            <AltitudeMeters>976.5999755859375</AltitudeMeters>
            <DistanceMeters>419188.36346369</DistanceMeters>
          </Trackpoint>
          <Trackpoint>
            <Time>2021-08-02T07:05:11.000Z</Time>
            <Position>
              <LatitudeDegrees>41.8551942519843578338623046875</LatitudeDegrees>
              <LongitudeDegrees>-1.89795616082847118377685546875</LongitudeDegrees>
            </Position>
            <AltitudeMeters>976.20001220703125</AltitudeMeters>
            <DistanceMeters>419204.21954733</DistanceMeters>
          </Trackpoint>
          <Trackpoint>
            <Time>2021-08-02T07:05:15.000Z</Time>
            <Position>
              <LatitudeDegrees>41.85495637357234954833984375</LatitudeDegrees>
              <LongitudeDegrees>-1.89776387996971607208251953125</LongitudeDegrees>
            </Position>
            <AltitudeMeters>976.20001220703125</AltitudeMeters>
            <DistanceMeters>419235.12412831</DistanceMeters>
          </Trackpoint>
          <Trackpoint>
            <Time>2021-08-02T07:05:20.000Z</Time>
            <Position>
              <LatitudeDegrees>41.85468052513897418975830078125</LatitudeDegrees>
              <LongitudeDegrees>-1.897591464221477508544921875</LongitudeDegrees>
            </Position>
            <AltitudeMeters>976.20001220703125</AltitudeMeters>
            <DistanceMeters>419268.99072143</DistanceMeters>
          </Trackpoint>
          <Trackpoint>
            <Time>2021-08-02T07:05:30.000Z</Time>
            <Position>
              <LatitudeDegrees>41.854447759687900543212890625</LatitudeDegrees>
              <LongitudeDegrees>-1.89697958528995513916015625</LongitudeDegrees>
            </Position>
            <AltitudeMeters>976.4000244140625</AltitudeMeters>
            <DistanceMeters>419325.94970548</DistanceMeters>
          </Trackpoint>
          <Trackpoint>
            <Time>2021-08-02T07:05:31.000Z</Time>
            <Position>
              <LatitudeDegrees>41.85445572249591350555419921875</LatitudeDegrees>
              <LongitudeDegrees>-1.89690641127526760101318359375</LongitudeDegrees>
            </Position>
            <AltitudeMeters>976.20001220703125</AltitudeMeters>
            <DistanceMeters>419332.08021755</DistanceMeters>
          </Trackpoint>
          <Trackpoint>
            <Time>2021-08-02T07:05:40.000Z</Time>
            <Position>
              <LatitudeDegrees>41.85451640747487545013427734375</LatitudeDegrees>
              <LongitudeDegrees>-1.89622697420418262481689453125</LongitudeDegrees>
            </Position>
            <AltitudeMeters>975.5999755859375</AltitudeMeters>
            <DistanceMeters>419388.8106885</DistanceMeters>
          </Trackpoint>
          <Trackpoint>
            <Time>2021-08-02T07:05:51.000Z</Time>
            <Position>
              <LatitudeDegrees>41.8543802015483379364013671875</LatitudeDegrees>
              <LongitudeDegrees>-1.89548919908702373504638671875</LongitudeDegrees>
            </Position>
            <AltitudeMeters>975.4000244140625</AltitudeMeters>
            <DistanceMeters>419451.82479371</DistanceMeters>
          </Trackpoint>
          <Trackpoint>
            <Time>2021-08-02T07:06:03.000Z</Time>
            <Position>
              <LatitudeDegrees>41.85419303365051746368408203125</LatitudeDegrees>
              <LongitudeDegrees>-1.89476902596652507781982421875</LongitudeDegrees>
            </Position>
            <AltitudeMeters>975.5999755859375</AltitudeMeters>
            <DistanceMeters>419515.05905681</DistanceMeters>
          </Trackpoint>
          <Trackpoint>
            <Time>2021-08-02T07:06:13.000Z</Time>
            <Position>
              <LatitudeDegrees>41.85399949550628662109375</LatitudeDegrees>
              <LongitudeDegrees>-1.89422721974551677703857421875</LongitudeDegrees>
            </Position>
            <AltitudeMeters>976.79998779296875</AltitudeMeters>
            <DistanceMeters>419564.87454032</DistanceMeters>
          </Trackpoint>
          <Trackpoint>
            <Time>2021-08-02T07:06:24.000Z</Time>
            <Position>
              <LatitudeDegrees>41.8537379801273345947265625</LatitudeDegrees>
              <LongitudeDegrees>-1.89365741796791553497314453125</LongitudeDegrees>
            </Position>
            <AltitudeMeters>977.79998779296875</AltitudeMeters>
            <DistanceMeters>419620.36054038</DistanceMeters>
          </Trackpoint>
          <Trackpoint>
            <Time>2021-08-02T07:06:36.000Z</Time>
            <Position>
              <LatitudeDegrees>41.85342994518578052520751953125</LatitudeDegrees>
              <LongitudeDegrees>-1.8930607102811336517333984375</LongitudeDegrees>
            </Position>
            <AltitudeMeters>978.5999755859375</AltitudeMeters>
            <DistanceMeters>419680.54914402</DistanceMeters>
          </Trackpoint>
          <Trackpoint>
            <Time>2021-08-02T07:06:39.000Z</Time>
            <Position>
              <LatitudeDegrees>41.8533532507717609405517578125</LatitudeDegrees>
              <LongitudeDegrees>-1.8929155357182025909423828125</LongitudeDegrees>
            </Position>
            <AltitudeMeters>978.79998779296875</AltitudeMeters>
            <DistanceMeters>419695.30431745</DistanceMeters>
          </Trackpoint>
          <Trackpoint>
            <Time>2021-08-02T07:06:52.000Z</Time>
            <Position>
              <LatitudeDegrees>41.85306315310299396514892578125</LatitudeDegrees>
              <LongitudeDegrees>-1.89227038063108921051025390625</LongitudeDegrees>
            </Position>
            <AltitudeMeters>979.79998779296875</AltitudeMeters>
            <DistanceMeters>419757.78060626</DistanceMeters>
          </Trackpoint>
          <Trackpoint>
            <Time>2021-08-02T07:06:55.000Z</Time>
            <Position>
              <LatitudeDegrees>41.853030212223529815673828125</LatitudeDegrees>
              <LongitudeDegrees>-1.89210064709186553955078125</LongitudeDegrees>
            </Position>
            <AltitudeMeters>980</AltitudeMeters>
            <DistanceMeters>419772.3221777</DistanceMeters>
          </Trackpoint>
          <Trackpoint>
            <Time>2021-08-02T07:06:56.000Z</Time>
            <Position>
              <LatitudeDegrees>41.853024847805500030517578125</LatitudeDegrees>
              <LongitudeDegrees>-1.89204188995063304901123046875</LongitudeDegrees>
            </Position>
            <AltitudeMeters>980</AltitudeMeters>
            <DistanceMeters>419777.23056277</DistanceMeters>
          </Trackpoint>
          <Trackpoint>
            <Time>2021-08-02T07:07:06.000Z</Time>
            <Position>
              <LatitudeDegrees>41.85292820446193218231201171875</LatitudeDegrees>
              <LongitudeDegrees>-1.89142514951527118682861328125</LongitudeDegrees>
            </Position>
            <AltitudeMeters>979</AltitudeMeters>
            <DistanceMeters>419829.48022201</DistanceMeters>
          </Trackpoint>
          <Trackpoint>
            <Time>2021-08-02T07:07:07.000Z</Time>
            <Position>
              <LatitudeDegrees>41.85290255583822727203369140625</LatitudeDegrees>
              <LongitudeDegrees>-1.8913635425269603729248046875</LongitudeDegrees>
            </Position>
            <AltitudeMeters>978.79998779296875</AltitudeMeters>
            <DistanceMeters>419835.33112107</DistanceMeters>
          </Trackpoint>
          <Trackpoint>
            <Time>2021-08-02T07:07:12.000Z</Time>
            <Position>
              <LatitudeDegrees>41.8527118675410747528076171875</LatitudeDegrees>
              <LongitudeDegrees>-1.891109235584735870361328125</LongitudeDegrees>
            </Position>
            <AltitudeMeters>978.4000244140625</AltitudeMeters>
            <DistanceMeters>419865.24718492</DistanceMeters>
          </Trackpoint>
          <Trackpoint>
            <Time>2021-08-02T07:07:20.000Z</Time>
            <Position>
              <LatitudeDegrees>41.8523611687123775482177734375</LatitudeDegrees>
              <LongitudeDegrees>-1.8907590396702289581298828125</LongitudeDegrees>
            </Position>
            <AltitudeMeters>978</AltitudeMeters>
            <DistanceMeters>419913.89418066</DistanceMeters>
          </Trackpoint>
          <Trackpoint>
            <Time>2021-08-02T07:07:21.000Z</Time>
            <Position>
              <LatitudeDegrees>41.85232403688132762908935546875</LatitudeDegrees>
              <LongitudeDegrees>-1.89070212654769420623779296875</LongitudeDegrees>
            </Position>
            <AltitudeMeters>977.79998779296875</AltitudeMeters>
            <DistanceMeters>419920.16738344</DistanceMeters>
          </Trackpoint>
          <Trackpoint>
            <Time>2021-08-02T07:07:25.000Z</Time>
            <Position>
              <LatitudeDegrees>41.8522012419998645782470703125</LatitudeDegrees>
              <LongitudeDegrees>-1.89043927006423473358154296875</LongitudeDegrees>
            </Position>
            <AltitudeMeters>976.79998779296875</AltitudeMeters>
            <DistanceMeters>419945.89085349</DistanceMeters>
          </Trackpoint>
          <Trackpoint>
            <Time>2021-08-02T07:07:36.000Z</Time>
            <Position>
              <LatitudeDegrees>41.85190175659954547882080078125</LatitudeDegrees>
              <LongitudeDegrees>-1.889788918197154998779296875</LongitudeDegrees>
            </Position>
            <AltitudeMeters>977</AltitudeMeters>
            <DistanceMeters>420009.28043889</DistanceMeters>
          </Trackpoint>
          <Trackpoint>
            <Time>2021-08-02T07:07:42.000Z</Time>
            <Position>
              <LatitudeDegrees>41.85177301056683063507080078125</LatitudeDegrees>
              <LongitudeDegrees>-1.8894544802606105804443359375</LongitudeDegrees>
            </Position>
            <AltitudeMeters>977.79998779296875</AltitudeMeters>
            <DistanceMeters>420040.49118169</DistanceMeters>
          </Trackpoint>
          <Trackpoint>
            <Time>2021-08-02T07:07:44.000Z</Time>
            <Position>
              <LatitudeDegrees>41.85175423510372638702392578125</LatitudeDegrees>
              <LongitudeDegrees>-1.8893354572355747222900390625</LongitudeDegrees>
            </Position>
            <AltitudeMeters>977.79998779296875</AltitudeMeters>
            <DistanceMeters>420050.57745162</DistanceMeters>
          </Trackpoint>
          <Trackpoint>
            <Time>2021-08-02T07:07:46.000Z</Time>
            <Position>
              <LatitudeDegrees>41.8517486192286014556884765625</LatitudeDegrees>
              <LongitudeDegrees>-1.88921987079083919525146484375</LongitudeDegrees>
            </Position>
            <AltitudeMeters>978</AltitudeMeters>
            <DistanceMeters>420060.18126341</DistanceMeters>
          </Trackpoint>
          <Trackpoint>
            <Time>2021-08-02T07:07:51.000Z</Time>
            <Position>
              <LatitudeDegrees>41.85175859369337558746337890625</LatitudeDegrees>
              <LongitudeDegrees>-1.8889475427567958831787109375</LongitudeDegrees>
            </Position>
            <AltitudeMeters>979</AltitudeMeters>
            <DistanceMeters>420082.78603958</DistanceMeters>
          </Trackpoint>
          <Trackpoint>
            <Time>2021-08-02T07:08:01.000Z</Time>
            <Position>
              <LatitudeDegrees>41.85174702666699886322021484375</LatitudeDegrees>
              <LongitudeDegrees>-1.8883366696536540985107421875</LongitudeDegrees>
            </Position>
            <AltitudeMeters>978.79998779296875</AltitudeMeters>
            <DistanceMeters>420133.44748949</DistanceMeters>
          </Trackpoint>
          <Trackpoint>
            <Time>2021-08-02T07:08:05.000Z</Time>
            <Position>
              <LatitudeDegrees>41.85165734030306339263916015625</LatitudeDegrees>
              <LongitudeDegrees>-1.88807892613112926483154296875</LongitudeDegrees>
            </Position>
            <AltitudeMeters>978</AltitudeMeters>
            <DistanceMeters>420157.03269119</DistanceMeters>
          </Trackpoint>
          <Trackpoint>
            <Time>2021-08-02T07:08:09.000Z</Time>
            <Position>
              <LatitudeDegrees>41.85153731144964694976806640625</LatitudeDegrees>
              <LongitudeDegrees>-1.88781824894249439239501953125</LongitudeDegrees>
            </Position>
            <AltitudeMeters>977</AltitudeMeters>
            <DistanceMeters>420182.44021182</DistanceMeters>
          </Trackpoint>
          <Trackpoint>
            <Time>2021-08-02T07:08:10.000Z</Time>
            <Position>
              <LatitudeDegrees>41.8514983355998992919921875</LatitudeDegrees>
              <LongitudeDegrees>-1.8877542950212955474853515625</LongitudeDegrees>
            </Position>
            <AltitudeMeters>976.5999755859375</AltitudeMeters>
            <DistanceMeters>420189.29004957</DistanceMeters>
          </Trackpoint>
          <Trackpoint>
            <Time>2021-08-02T07:08:13.000Z</Time>
            <Position>
              <LatitudeDegrees>41.85135710053145885467529296875</LatitudeDegrees>
              <LongitudeDegrees>-1.88758120872080326080322265625</LongitudeDegrees>
            </Position>
            <AltitudeMeters>975.79998779296875</AltitudeMeters>
            <DistanceMeters>420210.57433662</DistanceMeters>
          </Trackpoint>
          <Trackpoint>
            <Time>2021-08-02T07:08:16.000Z</Time>
            <Position>
              <LatitudeDegrees>41.851208992302417755126953125</LatitudeDegrees>
              <LongitudeDegrees>-1.88739965669810771942138671875</LongitudeDegrees>
            </Position>
            <AltitudeMeters>975.4000244140625</AltitudeMeters>
            <DistanceMeters>420232.89691887</DistanceMeters>
          </Trackpoint>
          <Trackpoint>
            <Time>2021-08-02T07:08:20.000Z</Time>
            <Position>
              <LatitudeDegrees>41.85108234174549579620361328125</LatitudeDegrees>
              <LongitudeDegrees>-1.88708784990012645721435546875</LongitudeDegrees>
            </Position>
            <AltitudeMeters>974.5999755859375</AltitudeMeters>
            <DistanceMeters>420262.34124955</DistanceMeters>
          </Trackpoint>
          <Trackpoint>
            <Time>2021-08-02T07:08:23.000Z</Time>
            <Position>
              <LatitudeDegrees>41.85106423683464527130126953125</LatitudeDegrees>
              <LongitudeDegrees>-1.88680772669613361358642578125</LongitudeDegrees>
            </Position>
            <AltitudeMeters>973.5999755859375</AltitudeMeters>
            <DistanceMeters>420285.65264098</DistanceMeters>
          </Trackpoint>
          <Trackpoint>
            <Time>2021-08-02T07:08:24.000Z</Time>
            <Position>
              <LatitudeDegrees>41.85107094235718250274658203125</LatitudeDegrees>
              <LongitudeDegrees>-1.886707730591297149658203125</LongitudeDegrees>
            </Position>
            <AltitudeMeters>973.20001220703125</AltitudeMeters>
            <DistanceMeters>420293.9760265</DistanceMeters>
          </Trackpoint>
          <Trackpoint>
            <Time>2021-08-02T07:08:25.000Z</Time>
            <Position>
              <LatitudeDegrees>41.85107999481260776519775390625</LatitudeDegrees>
              <LongitudeDegrees>-1.88660521991550922393798828125</LongitudeDegrees>
            </Position>
            <AltitudeMeters>972.4000244140625</AltitudeMeters>
            <DistanceMeters>420302.53476356</DistanceMeters>
          </Trackpoint>
          <Trackpoint>
            <Time>2021-08-02T07:08:28.000Z</Time>
            <Position>
              <LatitudeDegrees>41.851097680628299713134765625</LatitudeDegrees>
              <LongitudeDegrees>-1.88629073090851306915283203125</LongitudeDegrees>
            </Position>
            <AltitudeMeters>971.4000244140625</AltitudeMeters>
            <DistanceMeters>420328.68213719</DistanceMeters>
          </Trackpoint>
          <Trackpoint>
            <Time>2021-08-02T07:08:30.000Z</Time>
            <Position>
              <LatitudeDegrees>41.8510884605348110198974609375</LatitudeDegrees>
              <LongitudeDegrees>-1.88608118332922458648681640625</LongitudeDegrees>
            </Position>
            <AltitudeMeters>971</AltitudeMeters>
            <DistanceMeters>420346.08526231</DistanceMeters>
          </Trackpoint>
          <Trackpoint>
            <Time>2021-08-02T07:08:36.000Z</Time>
            <Position>
              <LatitudeDegrees>41.85090783052146434783935546875</LatitudeDegrees>
              <LongitudeDegrees>-1.8855404667556285858154296875</LongitudeDegrees>
            </Position>
            <AltitudeMeters>970.4000244140625</AltitudeMeters>
            <DistanceMeters>420395.21618734</DistanceMeters>
          </Trackpoint>
          <Trackpoint>
            <Time>2021-08-02T07:08:37.000Z</Time>
            <Position>
              <LatitudeDegrees>41.85086600482463836669921875</LatitudeDegrees>
              <LongitudeDegrees>-1.88545539043843746185302734375</LongitudeDegrees>
            </Position>
            <AltitudeMeters>970.20001220703125</AltitudeMeters>
            <DistanceMeters>420403.66769044</DistanceMeters>
          </Trackpoint>
          <Trackpoint>
            <Time>2021-08-02T07:08:41.000Z</Time>
            <Position>
              <LatitudeDegrees>41.850708425045013427734375</LatitudeDegrees>
              <LongitudeDegrees>-1.88508801162242889404296875</LongitudeDegrees>
            </Position>
            <AltitudeMeters>968.79998779296875</AltitudeMeters>
            <DistanceMeters>420438.81498789</DistanceMeters>
          </Trackpoint>
          <Trackpoint>
            <Time>2021-08-02T07:08:43.000Z</Time>
            <Position>
              <LatitudeDegrees>41.85063944198191165924072265625</LatitudeDegrees>
              <LongitudeDegrees>-1.884889192879199981689453125</LongitudeDegrees>
            </Position>
            <AltitudeMeters>967.4000244140625</AltitudeMeters>
            <DistanceMeters>420456.99913866</DistanceMeters>
          </Trackpoint>
          <Trackpoint>
            <Time>2021-08-02T07:08:47.000Z</Time>
            <Position>
              <LatitudeDegrees>41.85052712447941303253173828125</LatitudeDegrees>
              <LongitudeDegrees>-1.8844933994114398956298828125</LongitudeDegrees>
            </Position>
            <AltitudeMeters>966.5999755859375</AltitudeMeters>
            <DistanceMeters>420492.11404914</DistanceMeters>
          </Trackpoint>
          <Trackpoint>
            <Time>2021-08-02T07:08:51.000Z</Time>
            <Position>
              <LatitudeDegrees>41.850451268255710601806640625</LatitudeDegrees>
              <LongitudeDegrees>-1.88409601338207721710205078125</LongitudeDegrees>
            </Position>
            <AltitudeMeters>966</AltitudeMeters>
            <DistanceMeters>420526.12511782</DistanceMeters>
          </Trackpoint>
          <Trackpoint>
            <Time>2021-08-02T07:08:54.000Z</Time>
            <Position>
              <LatitudeDegrees>41.85037692077457904815673828125</LatitudeDegrees>
              <LongitudeDegrees>-1.88380784355103969573974609375</LongitudeDegrees>
            </Position>
            <AltitudeMeters>964.79998779296875</AltitudeMeters>
            <DistanceMeters>420551.40901055</DistanceMeters>
          </Trackpoint>
          <Trackpoint>
            <Time>2021-08-02T07:09:00.000Z</Time>
            <Position>
              <LatitudeDegrees>41.85010886751115322113037109375</LatitudeDegrees>
              <LongitudeDegrees>-1.88329637981951236724853515625</LongitudeDegrees>
            </Position>
            <AltitudeMeters>963.5999755859375</AltitudeMeters>
            <DistanceMeters>420603.25738331</DistanceMeters>
          </Trackpoint>
          <Trackpoint>
            <Time>2021-08-02T07:09:02.000Z</Time>
            <Position>
              <LatitudeDegrees>41.8500204384326934814453125</LatitudeDegrees>
              <LongitudeDegrees>-1.88312270678579807281494140625</LongitudeDegrees>
            </Position>
            <AltitudeMeters>963.20001220703125</AltitudeMeters>
            <DistanceMeters>420620.69886304</DistanceMeters>
          </Trackpoint>
          <Trackpoint>
            <Time>2021-08-02T07:09:05.000Z</Time>
            <Position>
              <LatitudeDegrees>41.84993687085807323455810546875</LatitudeDegrees>
              <LongitudeDegrees>-1.88282288610935211181640625</LongitudeDegrees>
            </Position>
            <AltitudeMeters>962.4000244140625</AltitudeMeters>
            <DistanceMeters>420647.23957089</DistanceMeters>
          </Trackpoint>
          <Trackpoint>
            <Time>2021-08-02T07:09:08.000Z</Time>
            <Position>
              <LatitudeDegrees>41.849914491176605224609375</LatitudeDegrees>
              <LongitudeDegrees>-1.88250043429434299468994140625</LongitudeDegrees>
            </Position>
            <AltitudeMeters>961.4000244140625</AltitudeMeters>
            <DistanceMeters>420674.08911637</DistanceMeters>
          </Trackpoint>
          <Trackpoint>
            <Time>2021-08-02T07:09:10.000Z</Time>
            <Position>
              <LatitudeDegrees>41.849917508661746978759765625</LatitudeDegrees>
              <LongitudeDegrees>-1.88227999024093151092529296875</LongitudeDegrees>
            </Position>
            <AltitudeMeters>960.20001220703125</AltitudeMeters>
            <DistanceMeters>420692.36861086</DistanceMeters>
          </Trackpoint>
          <Trackpoint>
            <Time>2021-08-02T07:09:15.000Z</Time>
            <Position>
              <LatitudeDegrees>41.84989881701767444610595703125</LatitudeDegrees>
              <LongitudeDegrees>-1.881726197898387908935546875</LongitudeDegrees>
            </Position>
            <AltitudeMeters>959</AltitudeMeters>
            <DistanceMeters>420738.32972315</DistanceMeters>
          </Trackpoint>
          <Trackpoint>
            <Time>2021-08-02T07:09:18.000Z</Time>
            <Position>
              <LatitudeDegrees>41.84984131716191768646240234375</LatitudeDegrees>
              <LongitudeDegrees>-1.881392933428287506103515625</LongitudeDegrees>
            </Position>
            <AltitudeMeters>958</AltitudeMeters>
            <DistanceMeters>420766.69165555</DistanceMeters>
          </Trackpoint>
          <Trackpoint>
            <Time>2021-08-02T07:09:21.000Z</Time>
            <Position>
              <LatitudeDegrees>41.8497651256620883941650390625</LatitudeDegrees>
              <LongitudeDegrees>-1.88106478191912174224853515625</LongitudeDegrees>
            </Position>
            <AltitudeMeters>956.79998779296875</AltitudeMeters>
            <DistanceMeters>420795.18921501</DistanceMeters>
          </Trackpoint>
          <Trackpoint>
            <Time>2021-08-02T07:09:24.000Z</Time>
            <Position>
              <LatitudeDegrees>41.84968004934489727020263671875</LatitudeDegrees>
              <LongitudeDegrees>-1.8807466886937618255615234375</LongitudeDegrees>
            </Position>
            <AltitudeMeters>955.79998779296875</AltitudeMeters>
            <DistanceMeters>420823.21033574</DistanceMeters>
          </Trackpoint>
          <Trackpoint>
            <Time>2021-08-02T07:09:29.000Z</Time>
            <Position>
              <LatitudeDegrees>41.84948961250483989715576171875</LatitudeDegrees>
              <LongitudeDegrees>-1.88025156967341899871826171875</LongitudeDegrees>
            </Position>
            <AltitudeMeters>954.5999755859375</AltitudeMeters>
            <DistanceMeters>420869.40934945</DistanceMeters>
          </Trackpoint>
          <Trackpoint>
            <Time>2021-08-02T07:09:34.000Z</Time>
            <Position>
              <LatitudeDegrees>41.8492736108601093292236328125</LatitudeDegrees>
              <LongitudeDegrees>-1.87978453002870082855224609375</LongitudeDegrees>
            </Position>
            <AltitudeMeters>953.5999755859375</AltitudeMeters>
            <DistanceMeters>420914.98751403</DistanceMeters>
          </Trackpoint>
          <Trackpoint>
            <Time>2021-08-02T07:09:38.000Z</Time>
            <Position>
              <LatitudeDegrees>41.84909951873123645782470703125</LatitudeDegrees>
              <LongitudeDegrees>-1.87942327000200748443603515625</LongitudeDegrees>
            </Position>
            <AltitudeMeters>952.4000244140625</AltitudeMeters>
            <DistanceMeters>420950.66064892</DistanceMeters>
          </Trackpoint>
          <Trackpoint>
            <Time>2021-08-02T07:09:42.000Z</Time>
            <Position>
              <LatitudeDegrees>41.84891830198466777801513671875</LatitudeDegrees>
              <LongitudeDegrees>-1.8790636025369167327880859375</LongitudeDegrees>
            </Position>
            <AltitudeMeters>951.20001220703125</AltitudeMeters>
            <DistanceMeters>420986.66135379</DistanceMeters>
          </Trackpoint>
          <Trackpoint>
            <Time>2021-08-02T07:09:44.000Z</Time>
            <Position>
              <LatitudeDegrees>41.8488038890063762664794921875</LatitudeDegrees>
              <LongitudeDegrees>-1.87888397835195064544677734375</LongitudeDegrees>
            </Position>
            <AltitudeMeters>949.4000244140625</AltitudeMeters>
            <DistanceMeters>421006.25622175</DistanceMeters>
          </Trackpoint>
          <Trackpoint>
            <Time>2021-08-02T07:09:46.000Z</Time>
            <Position>
              <LatitudeDegrees>41.84865913353860378265380859375</LatitudeDegrees>
              <LongitudeDegrees>-1.87872941605746746063232421875</LongitudeDegrees>
            </Position>
            <AltitudeMeters>947.5999755859375</AltitudeMeters>
            <DistanceMeters>421026.84261405</DistanceMeters>
          </Trackpoint>
          <Trackpoint>
            <Time>2021-08-02T07:09:48.000Z</Time>
            <Position>
              <LatitudeDegrees>41.84849434532225131988525390625</LatitudeDegrees>
              <LongitudeDegrees>-1.878614835441112518310546875</LongitudeDegrees>
            </Position>
            <AltitudeMeters>946.79998779296875</AltitudeMeters>
            <DistanceMeters>421047.49819566</DistanceMeters>
          </Trackpoint>
          <Trackpoint>
            <Time>2021-08-02T07:09:49.000Z</Time>
            <Position>
              <LatitudeDegrees>41.8484106101095676422119140625</LatitudeDegrees>
              <LongitudeDegrees>-1.87856831587851047515869140625</LongitudeDegrees>
            </Position>
            <AltitudeMeters>946.4000244140625</AltitudeMeters>
            <DistanceMeters>421057.5844656</DistanceMeters>
          </Trackpoint>
          <Trackpoint>
            <Time>2021-08-02T07:09:51.000Z</Time>
            <Position>
              <LatitudeDegrees>41.8482423014938831329345703125</LatitudeDegrees>
              <LongitudeDegrees>-1.87846991233527660369873046875</LongitudeDegrees>
            </Position>
            <AltitudeMeters>945.5999755859375</AltitudeMeters>
            <DistanceMeters>421078.01719802</DistanceMeters>
          </Trackpoint>
          <Trackpoint>
            <Time>2021-08-02T07:09:53.000Z</Time>
            <Position>
              <LatitudeDegrees>41.848092265427112579345703125</LatitudeDegrees>
              <LongitudeDegrees>-1.87831819988787174224853515625</LongitudeDegrees>
            </Position>
            <AltitudeMeters>944.79998779296875</AltitudeMeters>
            <DistanceMeters>421098.92372308</DistanceMeters>
          </Trackpoint>
          <Trackpoint>
            <Time>2021-08-02T07:09:55.000Z</Time>
            <Position>
              <LatitudeDegrees>41.8479846417903900146484375</LatitudeDegrees>
              <LongitudeDegrees>-1.87810680828988552093505859375</LongitudeDegrees>
            </Position>
            <AltitudeMeters>943.79998779296875</AltitudeMeters>
            <DistanceMeters>421120.15278465</DistanceMeters>
          </Trackpoint>
          <Trackpoint>
            <Time>2021-08-02T07:09:56.000Z</Time>
            <Position>
              <LatitudeDegrees>41.84793837368488311767578125</LatitudeDegrees>
              <LongitudeDegrees>-1.87799449078738689422607421875</LongitudeDegrees>
            </Position>
            <AltitudeMeters>943.20001220703125</AltitudeMeters>
            <DistanceMeters>421130.79407962</DistanceMeters>
          </Trackpoint>
          <Trackpoint>
            <Time>2021-08-02T07:09:59.000Z</Time>
            <Position>
              <LatitudeDegrees>41.84779495932161808013916015625</LatitudeDegrees>
              <LongitudeDegrees>-1.87766809947788715362548828125</LongitudeDegrees>
            </Position>
            <AltitudeMeters>942.5999755859375</AltitudeMeters>
            <DistanceMeters>421162.21244649</DistanceMeters>
          </Trackpoint>
          <Trackpoint>
            <Time>2021-08-02T07:10:00.000Z</Time>
            <Position>
              <LatitudeDegrees>41.8477387167513370513916015625</LatitudeDegrees>
              <LongitudeDegrees>-1.87756869010627269744873046875</LongitudeDegrees>
            </Position>
            <AltitudeMeters>942.4000244140625</AltitudeMeters>
            <DistanceMeters>421172.56250914</DistanceMeters>
          </Trackpoint>
          <Trackpoint>
            <Time>2021-08-02T07:10:06.000Z</Time>
            <Position>
              <LatitudeDegrees>41.847249381244182586669921875</LatitudeDegrees>
              <LongitudeDegrees>-1.87727130018174648284912109375</LongitudeDegrees>
            </Position>
            <AltitudeMeters>941.79998779296875</AltitudeMeters>
            <DistanceMeters>421232.34798328</DistanceMeters>
          </Trackpoint>
          <Trackpoint>
            <Time>2021-08-02T07:10:08.000Z</Time>
            <Position>
              <LatitudeDegrees>41.84707227163016796112060546875</LatitudeDegrees>
              <LongitudeDegrees>-1.87726845033466815948486328125</LongitudeDegrees>
            </Position>
            <AltitudeMeters>941.5999755859375</AltitudeMeters>
            <DistanceMeters>421252.06184718</DistanceMeters>
          </Trackpoint>
          <Trackpoint>
            <Time>2021-08-02T07:10:09.000Z</Time>
            <Position>
              <LatitudeDegrees>41.84698845259845256805419921875</LatitudeDegrees>
              <LongitudeDegrees>-1.877269707620143890380859375</LongitudeDegrees>
            </Position>
            <AltitudeMeters>941.5999755859375</AltitudeMeters>
            <DistanceMeters>421261.39141881</DistanceMeters>
          </Trackpoint>
          <Trackpoint>
            <Time>2021-08-02T07:10:13.000Z</Time>
            <Position>
              <LatitudeDegrees>41.84665937907993793487548828125</LatitudeDegrees>
              <LongitudeDegrees>-1.87727607786655426025390625</LongitudeDegrees>
            </Position>
            <AltitudeMeters>940.4000244140625</AltitudeMeters>
            <DistanceMeters>421298.02184454</DistanceMeters>
          </Trackpoint>
          <Trackpoint>
            <Time>2021-08-02T07:10:16.000Z</Time>
            <Position>
              <LatitudeDegrees>41.8463986180722713470458984375</LatitudeDegrees>
              <LongitudeDegrees>-1.87727465294301509857177734375</LongitudeDegrees>
            </Position>
            <AltitudeMeters>938.79998779296875</AltitudeMeters>
            <DistanceMeters>421327.04531179</DistanceMeters>
          </Trackpoint>
          <Trackpoint>
            <Time>2021-08-02T07:10:18.000Z</Time>
            <Position>
              <LatitudeDegrees>41.84621094726026058197021484375</LatitudeDegrees>
              <LongitudeDegrees>-1.877270378172397613525390625</LongitudeDegrees>
            </Position>
            <AltitudeMeters>936.5999755859375</AltitudeMeters>
            <DistanceMeters>421347.93649784</DistanceMeters>
          </Trackpoint>
          <Trackpoint>
            <Time>2021-08-02T07:10:19.000Z</Time>
            <Position>
              <LatitudeDegrees>41.846114806830883026123046875</LatitudeDegrees>
              <LongitudeDegrees>-1.87726576812565326690673828125</LongitudeDegrees>
            </Position>
            <AltitudeMeters>935.5999755859375</AltitudeMeters>
            <DistanceMeters>421358.6437781</DistanceMeters>
          </Trackpoint>
          <Trackpoint>
            <Time>2021-08-02T07:10:21.000Z</Time>
            <Position>
              <LatitudeDegrees>41.84593065641820430755615234375</LatitudeDegrees>
              <LongitudeDegrees>-1.8772547878324985504150390625</LongitudeDegrees>
            </Position>
            <AltitudeMeters>934.4000244140625</AltitudeMeters>
            <DistanceMeters>421379.16030761</DistanceMeters>
          </Trackpoint>
          <Trackpoint>
            <Time>2021-08-02T07:10:23.000Z</Time>
            <Position>
              <LatitudeDegrees>41.8457418121397495269775390625</LatitudeDegrees>
              <LongitudeDegrees>-1.87724296934902667999267578125</LongitudeDegrees>
            </Position>
            <AltitudeMeters>932.5999755859375</AltitudeMeters>
            <DistanceMeters>421400.20180585</DistanceMeters>
          </Trackpoint>
          <Trackpoint>
            <Time>2021-08-02T07:10:25.000Z</Time>
            <Position>
              <LatitudeDegrees>41.84554257430136203765869140625</LatitudeDegrees>
              <LongitudeDegrees>-1.87722721137106418609619140625</LongitudeDegrees>
            </Position>
            <AltitudeMeters>931.5999755859375</AltitudeMeters>
            <DistanceMeters>421422.41571044</DistanceMeters>
          </Trackpoint>
          <Trackpoint>
            <Time>2021-08-02T07:10:29.000Z</Time>
            <Position>
              <LatitudeDegrees>41.84513487853109836578369140625</LatitudeDegrees>
              <LongitudeDegrees>-1.8771890737116336822509765625</LongitudeDegrees>
            </Position>
            <AltitudeMeters>930.20001220703125</AltitudeMeters>
            <DistanceMeters>421467.9031435</DistanceMeters>
          </Trackpoint>
          <Trackpoint>
            <Time>2021-08-02T07:10:31.000Z</Time>
            <Position>
              <LatitudeDegrees>41.84493136592209339141845703125</LatitudeDegrees>
              <LongitudeDegrees>-1.877145655453205108642578125</LongitudeDegrees>
            </Position>
            <AltitudeMeters>928.5999755859375</AltitudeMeters>
            <DistanceMeters>421490.8386634</DistanceMeters>
          </Trackpoint>
          <Trackpoint>
            <Time>2021-08-02T07:10:32.000Z</Time>
            <Position>
              <LatitudeDegrees>41.84483514167368412017822265625</LatitudeDegrees>
              <LongitudeDegrees>-1.87709460966289043426513671875</LongitudeDegrees>
            </Position>
            <AltitudeMeters>927.4000244140625</AltitudeMeters>
            <DistanceMeters>421502.35455254</DistanceMeters>
          </Trackpoint>
          <Trackpoint>
            <Time>2021-08-02T07:10:34.000Z</Time>
            <Position>
              <LatitudeDegrees>41.8446763046085834503173828125</LatitudeDegrees>
              <LongitudeDegrees>-1.8769238702952861785888671875</LongitudeDegrees>
            </Position>
            <AltitudeMeters>926.20001220703125</AltitudeMeters>
            <DistanceMeters>421525.00322849</DistanceMeters>
          </Trackpoint>
          <Trackpoint>
            <Time>2021-08-02T07:10:41.000Z</Time>
            <Position>
              <LatitudeDegrees>41.8446667492389678955078125</LatitudeDegrees>
              <LongitudeDegrees>-1.8761735223233699798583984375</LongitudeDegrees>
            </Position>
            <AltitudeMeters>927.4000244140625</AltitudeMeters>
            <DistanceMeters>421587.22751633</DistanceMeters>
          </Trackpoint>
          <Trackpoint>
            <Time>2021-08-02T07:10:43.000Z</Time>
            <Position>
              <LatitudeDegrees>41.8447467125952243804931640625</LatitudeDegrees>
              <LongitudeDegrees>-1.87605240382254123687744140625</LongitudeDegrees>
            </Position>
            <AltitudeMeters>928.79998779296875</AltitudeMeters>
            <DistanceMeters>421600.64614981</DistanceMeters>
          </Trackpoint>
          <Trackpoint>
            <Time>2021-08-02T07:10:46.000Z</Time>
            <Position>
              <LatitudeDegrees>41.84488526545464992523193359375</LatitudeDegrees>
              <LongitudeDegrees>-1.875935979187488555908203125</LongitudeDegrees>
            </Position>
            <AltitudeMeters>930.5999755859375</AltitudeMeters>
            <DistanceMeters>421618.83948518</DistanceMeters>
          </Trackpoint>
          <Trackpoint>
            <Time>2021-08-02T07:10:49.000Z</Time>
            <Position>
              <LatitudeDegrees>41.845031864941120147705078125</LatitudeDegrees>
              <LongitudeDegrees>-1.8758563511073589324951171875</LongitudeDegrees>
            </Position>
            <AltitudeMeters>932</AltitudeMeters>
            <DistanceMeters>421636.44150077</DistanceMeters>
          </Trackpoint>
          <Trackpoint>
            <Time>2021-08-02T07:10:55.000Z</Time>
            <Position>
              <LatitudeDegrees>41.84531173668801784515380859375</LatitudeDegrees>
              <LongitudeDegrees>-1.87572307884693145751953125</LongitudeDegrees>
            </Position>
            <AltitudeMeters>933</AltitudeMeters>
            <DistanceMeters>421669.49358978</DistanceMeters>
          </Trackpoint>
          <Trackpoint>
            <Time>2021-08-02T07:11:01.000Z</Time>
            <Position>
              <LatitudeDegrees>41.84556654654443264007568359375</LatitudeDegrees>
              <LongitudeDegrees>-1.87554345466196537017822265625</LongitudeDegrees>
            </Position>
            <AltitudeMeters>933.5999755859375</AltitudeMeters>
            <DistanceMeters>421701.5273193</DistanceMeters>
          </Trackpoint>
          <Trackpoint>
            <Time>2021-08-02T07:11:06.000Z</Time>
            <Position>
              <LatitudeDegrees>41.8457029201090335845947265625</LatitudeDegrees>
              <LongitudeDegrees>-1.87529987655580043792724609375</LongitudeDegrees>
            </Position>
            <AltitudeMeters>934</AltitudeMeters>
            <DistanceMeters>421726.79138258</DistanceMeters>
          </Trackpoint>
          <Trackpoint>
            <Time>2021-08-02T07:11:15.000Z</Time>
            <Position>
              <LatitudeDegrees>41.84566310606896877288818359375</LatitudeDegrees>
              <LongitudeDegrees>-1.8747983872890472412109375</LongitudeDegrees>
            </Position>
            <AltitudeMeters>935</AltitudeMeters>
            <DistanceMeters>421768.60724013</DistanceMeters>
          </Trackpoint>
          <Trackpoint>
            <Time>2021-08-02T07:11:18.000Z</Time>
            <Position>
              <LatitudeDegrees>41.84558741748332977294921875</LatitudeDegrees>
              <LongitudeDegrees>-1.8746701441705226898193359375</LongitudeDegrees>
            </Position>
            <AltitudeMeters>935.4000244140625</AltitudeMeters>
            <DistanceMeters>421782.17311489</DistanceMeters>
          </Trackpoint>
          <Trackpoint>
            <Time>2021-08-02T07:11:22.000Z</Time>
            <Position>
              <LatitudeDegrees>41.84548105113208293914794921875</LatitudeDegrees>
              <LongitudeDegrees>-1.87452547252178192138671875</LongitudeDegrees>
            </Position>
            <AltitudeMeters>936.20001220703125</AltitudeMeters>
            <DistanceMeters>421799.02690036</DistanceMeters>
          </Trackpoint>
          <Trackpoint>
            <Time>2021-08-02T07:11:30.000Z</Time>
            <Position>
              <LatitudeDegrees>41.845274604856967926025390625</LatitudeDegrees>
              <LongitudeDegrees>-1.87424928881227970123291015625</LongitudeDegrees>
            </Position>
            <AltitudeMeters>937.20001220703125</AltitudeMeters>
            <DistanceMeters>421831.46707774</DistanceMeters>
          </Trackpoint>
          <Trackpoint>
            <Time>2021-08-02T07:11:41.000Z</Time>
            <Position>
              <LatitudeDegrees>41.84502256102859973907470703125</LatitudeDegrees>
              <LongitudeDegrees>-1.8738068081438541412353515625</LongitudeDegrees>
            </Position>
            <AltitudeMeters>938.4000244140625</AltitudeMeters>
            <DistanceMeters>421877.65123408</DistanceMeters>
          </Trackpoint>
          <Trackpoint>
            <Time>2021-08-02T07:11:52.000Z</Time>
            <Position>
              <LatitudeDegrees>41.844850145280361175537109375</LatitudeDegrees>
              <LongitudeDegrees>-1.87337270937860012054443359375</LongitudeDegrees>
            </Position>
            <AltitudeMeters>939.4000244140625</AltitudeMeters>
            <DistanceMeters>421918.44061413</DistanceMeters>
          </Trackpoint>
          <Trackpoint>
            <Time>2021-08-02T07:11:58.000Z</Time>
            <Position>
              <LatitudeDegrees>41.84476724825799465179443359375</LatitudeDegrees>
              <LongitudeDegrees>-1.87315511517226696014404296875</LongitudeDegrees>
            </Position>
            <AltitudeMeters>940.4000244140625</AltitudeMeters>
            <DistanceMeters>421938.70471283</DistanceMeters>
          </Trackpoint>
          <Trackpoint>
            <Time>2021-08-02T07:12:10.000Z</Time>
            <Position>
              <LatitudeDegrees>41.84457815252244472503662109375</LatitudeDegrees>
              <LongitudeDegrees>-1.8726702220737934112548828125</LongitudeDegrees>
            </Position>
            <AltitudeMeters>941.5999755859375</AltitudeMeters>
            <DistanceMeters>421984.08531699</DistanceMeters>
          </Trackpoint>
          <Trackpoint>
            <Time>2021-08-02T07:12:26.000Z</Time>
            <Position>
              <LatitudeDegrees>41.8443604744970798492431640625</LatitudeDegrees>
              <LongitudeDegrees>-1.871979720890522003173828125</LongitudeDegrees>
            </Position>
            <AltitudeMeters>941.79998779296875</AltitudeMeters>
            <DistanceMeters>422046.25385323</DistanceMeters>
          </Trackpoint>
          <Trackpoint>
            <Time>2021-08-02T07:12:42.000Z</Time>
            <Position>
              <LatitudeDegrees>41.84437103569507598876953125</LatitudeDegrees>
              <LongitudeDegrees>-1.87122878618538379669189453125</LongitudeDegrees>
            </Position>
            <AltitudeMeters>942.20001220703125</AltitudeMeters>
            <DistanceMeters>422108.52905785</DistanceMeters>
          </Trackpoint>
          <Trackpoint>
            <Time>2021-08-02T07:12:47.000Z</Time>
            <Position>
              <LatitudeDegrees>41.84442467987537384033203125</LatitudeDegrees>
              <LongitudeDegrees>-1.87102259136736392974853515625</LongitudeDegrees>
            </Position>
            <AltitudeMeters>943</AltitudeMeters>
            <DistanceMeters>422126.63831753</DistanceMeters>
          </Trackpoint>
          <Trackpoint>
            <Time>2021-08-02T07:12:53.000Z</Time>
            <Position>
              <LatitudeDegrees>41.8444989435374736785888671875</LatitudeDegrees>
              <LongitudeDegrees>-1.870793513953685760498046875</LongitudeDegrees>
            </Position>
            <AltitudeMeters>944.20001220703125</AltitudeMeters>
            <DistanceMeters>422147.35283352</DistanceMeters>
          </Trackpoint>
          <Trackpoint>
            <Time>2021-08-02T07:13:01.000Z</Time>
            <Position>
              <LatitudeDegrees>41.8446048907935619354248046875</LatitudeDegrees>
              <LongitudeDegrees>-1.8704798631370067596435546875</LongitudeDegrees>
            </Position>
            <AltitudeMeters>945.20001220703125</AltitudeMeters>
            <DistanceMeters>422175.90800543</DistanceMeters>
          </Trackpoint>
          <Trackpoint>
            <Time>2021-08-02T07:13:18.000Z</Time>
            <Position>
              <LatitudeDegrees>41.84482877142727375030517578125</LatitudeDegrees>
              <LongitudeDegrees>-1.8697818182408809661865234375</LongitudeDegrees>
            </Position>
            <AltitudeMeters>945.79998779296875</AltitudeMeters>
            <DistanceMeters>422238.92268384</DistanceMeters>
          </Trackpoint>
          <Trackpoint>
            <Time>2021-08-02T07:13:32.000Z</Time>
            <Position>
              <LatitudeDegrees>41.84500613249838352203369140625</LatitudeDegrees>
              <LongitudeDegrees>-1.86908586882054805755615234375</LongitudeDegrees>
            </Position>
            <AltitudeMeters>944.4000244140625</AltitudeMeters>
            <DistanceMeters>422299.9104412</DistanceMeters>
          </Trackpoint>
          <Trackpoint>
            <Time>2021-08-02T07:13:41.000Z</Time>
            <Position>
              <LatitudeDegrees>41.8451222218573093414306640625</LatitudeDegrees>
              <LongitudeDegrees>-1.8685607425868511199951171875</LongitudeDegrees>
            </Position>
            <AltitudeMeters>943.20001220703125</AltitudeMeters>
            <DistanceMeters>422345.32774332</DistanceMeters>
          </Trackpoint>
          <Trackpoint>
            <Time>2021-08-02T07:13:53.000Z</Time>
            <Position>
              <LatitudeDegrees>41.8452814780175685882568359375</LatitudeDegrees>
              <LongitudeDegrees>-1.86785926111042499542236328125</LongitudeDegrees>
            </Position>
            <AltitudeMeters>942.4000244140625</AltitudeMeters>
            <DistanceMeters>422406.13177294</DistanceMeters>
          </Trackpoint>
          <Trackpoint>
            <Time>2021-08-02T07:13:54.000Z</Time>
            <Position>
              <LatitudeDegrees>41.84529505670070648193359375</LatitudeDegrees>
              <LongitudeDegrees>-1.8677993305027484893798828125</LongitudeDegrees>
            </Position>
            <AltitudeMeters>942.20001220703125</AltitudeMeters>
            <DistanceMeters>422411.32444164</DistanceMeters>
          </Trackpoint>
          <Trackpoint>
            <Time>2021-08-02T07:13:58.000Z</Time>
            <Position>
              <LatitudeDegrees>41.8453549034893512725830078125</LatitudeDegrees>
              <LongitudeDegrees>-1.86754326336085796356201171875</LongitudeDegrees>
            </Position>
            <AltitudeMeters>941</AltitudeMeters>
            <DistanceMeters>422433.57652495</DistanceMeters>
          </Trackpoint>
          <Trackpoint>
            <Time>2021-08-02T07:14:02.000Z</Time>
            <Position>
              <LatitudeDegrees>41.84542204253375530242919921875</LatitudeDegrees>
              <LongitudeDegrees>-1.86725794337689876556396484375</LongitudeDegrees>
            </Position>
            <AltitudeMeters>940</AltitudeMeters>
            <DistanceMeters>422458.38577807</DistanceMeters>
          </Trackpoint>
          <Trackpoint>
            <Time>2021-08-02T07:14:04.000Z</Time>
            <Position>
              <LatitudeDegrees>41.84545959345996379852294921875</LatitudeDegrees>
              <LongitudeDegrees>-1.86709550209343433380126953125</LongitudeDegrees>
            </Position>
            <AltitudeMeters>939</AltitudeMeters>
            <DistanceMeters>422472.48756319</DistanceMeters>
          </Trackpoint>
          <Trackpoint>
            <Time>2021-08-02T07:14:06.000Z</Time>
            <Position>
              <LatitudeDegrees>41.84549999423325061798095703125</LatitudeDegrees>
              <LongitudeDegrees>-1.86692166142165660858154296875</LongitudeDegrees>
            </Position>
            <AltitudeMeters>937.79998779296875</AltitudeMeters>
            <DistanceMeters>422487.58634824</DistanceMeters>
          </Trackpoint>
          <Trackpoint>
            <Time>2021-08-02T07:14:08.000Z</Time>
            <Position>
              <LatitudeDegrees>41.84554106555879116058349609375</LatitudeDegrees>
              <LongitudeDegrees>-1.866742707788944244384765625</LongitudeDegrees>
            </Position>
            <AltitudeMeters>936.5999755859375</AltitudeMeters>
            <DistanceMeters>422503.11209655</DistanceMeters>
          </Trackpoint>
          <Trackpoint>
            <Time>2021-08-02T07:14:10.000Z</Time>
            <Position>
              <LatitudeDegrees>41.8455832265317440032958984375</LatitudeDegrees>
              <LongitudeDegrees>-1.866554953157901763916015625</LongitudeDegrees>
            </Position>
            <AltitudeMeters>935.5999755859375</AltitudeMeters>
            <DistanceMeters>422519.37138675</DistanceMeters>
          </Trackpoint>
          <Trackpoint>
            <Time>2021-08-02T07:14:13.000Z</Time>
            <Position>
              <LatitudeDegrees>41.84565304778516292572021484375</LatitudeDegrees>
              <LongitudeDegrees>-1.86624926514923572540283203125</LongitudeDegrees>
            </Position>
            <AltitudeMeters>934.4000244140625</AltitudeMeters>
            <DistanceMeters>422545.88162609</DistanceMeters>
          </Trackpoint>
          <Trackpoint>
            <Time>2021-08-02T07:14:15.000Z</Time>
            <Position>
              <LatitudeDegrees>41.8457066081464290618896484375</LatitudeDegrees>
              <LongitudeDegrees>-1.866026222705841064453125</LongitudeDegrees>
            </Position>
            <AltitudeMeters>933.4000244140625</AltitudeMeters>
            <DistanceMeters>422565.31197518</DistanceMeters>
          </Trackpoint>
          <Trackpoint>
            <Time>2021-08-02T07:14:17.000Z</Time>
            <Position>
              <LatitudeDegrees>41.845762431621551513671875</LatitudeDegrees>
              <LongitudeDegrees>-1.86578440479934215545654296875</LongitudeDegrees>
            </Position>
            <AltitudeMeters>931.4000244140625</AltitudeMeters>
            <DistanceMeters>422586.30234178</DistanceMeters>
          </Trackpoint>
          <Trackpoint>
            <Time>2021-08-02T07:14:18.000Z</Time>
            <Position>
              <LatitudeDegrees>41.84579185210168361663818359375</LatitudeDegrees>
              <LongitudeDegrees>-1.86565549112856388092041015625</LongitudeDegrees>
            </Position>
            <AltitudeMeters>930.4000244140625</AltitudeMeters>
            <DistanceMeters>422597.48121596</DistanceMeters>
          </Trackpoint>
          <Trackpoint>
            <Time>2021-08-02T07:14:19.000Z</Time>
            <Position>
              <LatitudeDegrees>41.84582169167697429656982421875</LatitudeDegrees>
              <LongitudeDegrees>-1.86552071012556552886962890625</LongitudeDegrees>
            </Position>
            <AltitudeMeters>929.4000244140625</AltitudeMeters>
            <DistanceMeters>422609.13971975</DistanceMeters>
          </Trackpoint>
          <Trackpoint>
            <Time>2021-08-02T07:14:20.000Z</Time>
            <Position>
              <LatitudeDegrees>41.845853291451930999755859375</LatitudeDegrees>
              <LongitudeDegrees>-1.86538056470453739166259765625</LongitudeDegrees>
            </Position>
            <AltitudeMeters>927.79998779296875</AltitudeMeters>
            <DistanceMeters>422621.28010309</DistanceMeters>
          </Trackpoint>
          <Trackpoint>
            <Time>2021-08-02T07:14:21.000Z</Time>
            <Position>
              <LatitudeDegrees>41.84588648378849029541015625</LatitudeDegrees>
              <LongitudeDegrees>-1.86523572541773319244384765625</LongitudeDegrees>
            </Position>
            <AltitudeMeters>926.20001220703125</AltitudeMeters>
            <DistanceMeters>422633.84484847</DistanceMeters>
          </Trackpoint>
          <Trackpoint>
            <Time>2021-08-02T07:14:22.000Z</Time>
            <Position>
              <LatitudeDegrees>41.8459208495914936065673828125</LatitudeDegrees>
              <LongitudeDegrees>-1.86508602462708950042724609375</LongitudeDegrees>
            </Position>
            <AltitudeMeters>925.20001220703125</AltitudeMeters>
            <DistanceMeters>422646.83295296</DistanceMeters>
          </Trackpoint>
          <Trackpoint>
            <Time>2021-08-02T07:14:23.000Z</Time>
            <Position>
              <LatitudeDegrees>41.84595546685159206390380859375</LatitudeDegrees>
              <LongitudeDegrees>-1.86493095941841602325439453125</LongitudeDegrees>
            </Position>
            <AltitudeMeters>923.79998779296875</AltitudeMeters>
            <DistanceMeters>422660.25495076</DistanceMeters>
          </Trackpoint>
          <Trackpoint>
            <Time>2021-08-02T07:14:24.000Z</Time>
            <Position>
              <LatitudeDegrees>41.84599083848297595977783203125</LatitudeDegrees>
              <LongitudeDegrees>-1.86477120034396648406982421875</LongitudeDegrees>
            </Position>
            <AltitudeMeters>922.4000244140625</AltitudeMeters>
            <DistanceMeters>422674.07407</DistanceMeters>
          </Trackpoint>
          <Trackpoint>
            <Time>2021-08-02T07:14:25.000Z</Time>
            <Position>
              <LatitudeDegrees>41.84602729976177215576171875</LatitudeDegrees>
              <LongitudeDegrees>-1.86460666358470916748046875</LongitudeDegrees>
            </Position>
            <AltitudeMeters>921</AltitudeMeters>
            <DistanceMeters>422688.30715593</DistanceMeters>
          </Trackpoint>
          <Trackpoint>
            <Time>2021-08-02T07:14:26.000Z</Time>
            <Position>
              <LatitudeDegrees>41.84606560505926609039306640625</LatitudeDegrees>
              <LongitudeDegrees>-1.86443810351192951202392578125</LongitudeDegrees>
            </Position>
            <AltitudeMeters>919.20001220703125</AltitudeMeters>
            <DistanceMeters>422702.91903902</DistanceMeters>
          </Trackpoint>
          <Trackpoint>
            <Time>2021-08-02T07:14:27.000Z</Time>
            <Position>
              <LatitudeDegrees>41.84610483236610889434814453125</LatitudeDegrees>
              <LongitudeDegrees>-1.8642665259540081024169921875</LongitudeDegrees>
            </Position>
            <AltitudeMeters>918</AltitudeMeters>
            <DistanceMeters>422717.80035599</DistanceMeters>
          </Trackpoint>
          <Trackpoint>
            <Time>2021-08-02T07:14:28.000Z</Time>
            <Position>
              <LatitudeDegrees>41.84614397585391998291015625</LatitudeDegrees>
              <LongitudeDegrees>-1.86409360729157924652099609375</LongitudeDegrees>
            </Position>
            <AltitudeMeters>916.79998779296875</AltitudeMeters>
            <DistanceMeters>422732.78477625</DistanceMeters>
          </Trackpoint>
          <Trackpoint>
            <Time>2021-08-02T07:14:33.000Z</Time>
            <Position>
              <LatitudeDegrees>41.84633131138980388641357421875</LatitudeDegrees>
              <LongitudeDegrees>-1.8632764555513858795166015625</LongitudeDegrees>
            </Position>
            <AltitudeMeters>916.20001220703125</AltitudeMeters>
            <DistanceMeters>422803.67317658</DistanceMeters>
          </Trackpoint>
          <Trackpoint>
            <Time>2021-08-02T07:14:38.000Z</Time>
            <Position>
              <LatitudeDegrees>41.8464665114879608154296875</LatitudeDegrees>
              <LongitudeDegrees>-1.86262308619916439056396484375</LongitudeDegrees>
            </Position>
            <AltitudeMeters>918</AltitudeMeters>
            <DistanceMeters>422859.89711961</DistanceMeters>
          </Trackpoint>
          <Trackpoint>
            <Time>2021-08-02T07:14:41.000Z</Time>
            <Position>
              <LatitudeDegrees>41.846543960273265838623046875</LatitudeDegrees>
              <LongitudeDegrees>-1.86231178231537342071533203125</LongitudeDegrees>
            </Position>
            <AltitudeMeters>919</AltitudeMeters>
            <DistanceMeters>422887.10962499</DistanceMeters>
          </Trackpoint>
          <Trackpoint>
            <Time>2021-08-02T07:14:50.000Z</Time>
            <Position>
              <LatitudeDegrees>41.84670162387192249298095703125</LatitudeDegrees>
              <LongitudeDegrees>-1.8616057746112346649169921875</LongitudeDegrees>
            </Position>
            <AltitudeMeters>919.79998779296875</AltitudeMeters>
            <DistanceMeters>422948.22029946</DistanceMeters>
          </Trackpoint>
          <Trackpoint>
            <Time>2021-08-02T07:14:52.000Z</Time>
            <Position>
              <LatitudeDegrees>41.84673096053302288055419921875</LatitudeDegrees>
              <LongitudeDegrees>-1.86147593893110752105712890625</LongitudeDegrees>
            </Position>
            <AltitudeMeters>920.4000244140625</AltitudeMeters>
            <DistanceMeters>422959.46963239</DistanceMeters>
          </Trackpoint>
          <Trackpoint>
            <Time>2021-08-02T07:15:04.000Z</Time>
            <Position>
              <LatitudeDegrees>41.84689239598810672760009765625</LatitudeDegrees>
              <LongitudeDegrees>-1.8607716076076030731201171875</LongitudeDegrees>
            </Position>
            <AltitudeMeters>920.4000244140625</AltitudeMeters>
            <DistanceMeters>423020.56914951</DistanceMeters>
          </Trackpoint>
          <Trackpoint>
            <Time>2021-08-02T07:15:16.000Z</Time>
            <Position>
              <LatitudeDegrees>41.8470564298331737518310546875</LatitudeDegrees>
              <LongitudeDegrees>-1.86006367206573486328125</LongitudeDegrees>
            </Position>
            <AltitudeMeters>919.79998779296875</AltitudeMeters>
            <DistanceMeters>423082.03946241</DistanceMeters>
          </Trackpoint>
          <Trackpoint>
            <Time>2021-08-02T07:15:18.000Z</Time>
            <Position>
              <LatitudeDegrees>41.84708400629460811614990234375</LatitudeDegrees>
              <LongitudeDegrees>-1.8599334172904491424560546875</LongitudeDegrees>
            </Position>
            <AltitudeMeters>919.4000244140625</AltitudeMeters>
            <DistanceMeters>423093.26710095</DistanceMeters>
          </Trackpoint>
          <Trackpoint>
            <Time>2021-08-02T07:15:26.000Z</Time>
            <Position>
              <LatitudeDegrees>41.847203113138675689697265625</LatitudeDegrees>
              <LongitudeDegrees>-1.8593909405171871185302734375</LongitudeDegrees>
            </Position>
            <AltitudeMeters>918.4000244140625</AltitudeMeters>
            <DistanceMeters>423140.15784997</DistanceMeters>
          </Trackpoint>
          <Trackpoint>
            <Time>2021-08-02T07:15:36.000Z</Time>
            <Position>
              <LatitudeDegrees>41.84736412949860095977783203125</LatitudeDegrees>
              <LongitudeDegrees>-1.85870370827615261077880859375</LongitudeDegrees>
            </Position>
            <AltitudeMeters>917.4000244140625</AltitudeMeters>
            <DistanceMeters>423199.88930243</DistanceMeters>
          </Trackpoint>
          <Trackpoint>
            <Time>2021-08-02T07:15:47.000Z</Time>
            <Position>
              <LatitudeDegrees>41.8475295044481754302978515625</LatitudeDegrees>
              <LongitudeDegrees>-1.8579398654401302337646484375</LongitudeDegrees>
            </Position>
            <AltitudeMeters>916.79998779296875</AltitudeMeters>
            <DistanceMeters>423265.84126527</DistanceMeters>
          </Trackpoint>
          <Trackpoint>
            <Time>2021-08-02T07:15:49.000Z</Time>
            <Position>
              <LatitudeDegrees>41.84756294824182987213134765625</LatitudeDegrees>
              <LongitudeDegrees>-1.8577983789145946502685546875</LongitudeDegrees>
            </Position>
            <AltitudeMeters>916.4000244140625</AltitudeMeters>
            <DistanceMeters>423278.14860057</DistanceMeters>
          </Trackpoint>
          <Trackpoint>
            <Time>2021-08-02T07:15:56.000Z</Time>
            <Position>
              <LatitudeDegrees>41.8476813845336437225341796875</LatitudeDegrees>
              <LongitudeDegrees>-1.8572833947837352752685546875</LongitudeDegrees>
            </Position>
            <AltitudeMeters>915.20001220703125</AltitudeMeters>
            <DistanceMeters>423322.83520981</DistanceMeters>
          </Trackpoint>
          <Trackpoint>
            <Time>2021-08-02T07:16:01.000Z</Time>
            <Position>
              <LatitudeDegrees>41.8477719090878963470458984375</LatitudeDegrees>
              <LongitudeDegrees>-1.85688600875437259674072265625</LongitudeDegrees>
            </Position>
            <AltitudeMeters>914</AltitudeMeters>
            <DistanceMeters>423357.28891395</DistanceMeters>
          </Trackpoint>
          <Trackpoint>
            <Time>2021-08-02T07:16:07.000Z</Time>
            <Position>
              <LatitudeDegrees>41.84788129292428493499755859375</LatitudeDegrees>
              <LongitudeDegrees>-1.8563975952565670013427734375</LongitudeDegrees>
            </Position>
            <AltitudeMeters>912.79998779296875</AltitudeMeters>
            <DistanceMeters>423399.57420024</DistanceMeters>
          </Trackpoint>
          <Trackpoint>
            <Time>2021-08-02T07:16:10.000Z</Time>
            <Position>
              <LatitudeDegrees>41.84794113971292972564697265625</LatitudeDegrees>
              <LongitudeDegrees>-1.85613750480115413665771484375</LongitudeDegrees>
            </Position>
            <AltitudeMeters>911.79998779296875</AltitudeMeters>
            <DistanceMeters>423422.14399515</DistanceMeters>
          </Trackpoint>
          <Trackpoint>
            <Time>2021-08-02T07:16:12.000Z</Time>
            <Position>
              <LatitudeDegrees>41.847983300685882568359375</LatitudeDegrees>
              <LongitudeDegrees>-1.85595109127461910247802734375</LongitudeDegrees>
            </Position>
            <AltitudeMeters>910.5999755859375</AltitudeMeters>
            <DistanceMeters>423438.29630051</DistanceMeters>
          </Trackpoint>
          <Trackpoint>
            <Time>2021-08-02T07:16:15.000Z</Time>
            <Position>
              <LatitudeDegrees>41.84805144555866718292236328125</LatitudeDegrees>
              <LongitudeDegrees>-1.85565554536879062652587890625</LongitudeDegrees>
            </Position>
            <AltitudeMeters>909.20001220703125</AltitudeMeters>
            <DistanceMeters>423463.9471775</DistanceMeters>
          </Trackpoint>
          <Trackpoint>
            <Time>2021-08-02T07:16:18.000Z</Time>
            <Position>
              <LatitudeDegrees>41.84812420047819614410400390625</LatitudeDegrees>
              <LongitudeDegrees>-1.855337955057621002197265625</LongitudeDegrees>
            </Position>
            <AltitudeMeters>908</AltitudeMeters>
            <DistanceMeters>423491.49574814</DistanceMeters>
          </Trackpoint>
          <Trackpoint>
            <Time>2021-08-02T07:16:21.000Z</Time>
            <Position>
              <LatitudeDegrees>41.84819946996867656707763671875</LatitudeDegrees>
              <LongitudeDegrees>-1.85501986183226108551025390625</LongitudeDegrees>
            </Position>
            <AltitudeMeters>906.79998779296875</AltitudeMeters>
            <DistanceMeters>423519.16761874</DistanceMeters>
          </Trackpoint>
          <Trackpoint>
            <Time>2021-08-02T07:16:23.000Z</Time>
            <Position>
              <LatitudeDegrees>41.8482486717402935028076171875</LatitudeDegrees>
              <LongitudeDegrees>-1.85481400229036808013916015625</LongitudeDegrees>
            </Position>
            <AltitudeMeters>905.5999755859375</AltitudeMeters>
            <DistanceMeters>423537.09269001</DistanceMeters>
          </Trackpoint>
          <Trackpoint>
            <Time>2021-08-02T07:16:25.000Z</Time>
            <Position>
              <LatitudeDegrees>41.848304830491542816162109375</LatitudeDegrees>
              <LongitudeDegrees>-1.85460043139755725860595703125</LongitudeDegrees>
            </Position>
            <AltitudeMeters>904.5999755859375</AltitudeMeters>
            <DistanceMeters>423555.87098826</DistanceMeters>
          </Trackpoint>
          <Trackpoint>
            <Time>2021-08-02T07:16:28.000Z</Time>
            <Position>
              <LatitudeDegrees>41.8484089337289333343505859375</LatitudeDegrees>
              <LongitudeDegrees>-1.85426649637520313262939453125</LongitudeDegrees>
            </Position>
            <AltitudeMeters>902.79998779296875</AltitudeMeters>
            <DistanceMeters>423585.88439036</DistanceMeters>
          </Trackpoint>
          <Trackpoint>
            <Time>2021-08-02T07:16:30.000Z</Time>
            <Position>
              <LatitudeDegrees>41.84849585406482219696044921875</LatitudeDegrees>
              <LongitudeDegrees>-1.8540325574576854705810546875</LongitudeDegrees>
            </Position>
            <AltitudeMeters>900.79998779296875</AltitudeMeters>
            <DistanceMeters>423607.55923193</DistanceMeters>
          </Trackpoint>
          <Trackpoint>
            <Time>2021-08-02T07:16:32.000Z</Time>
            <Position>
              <LatitudeDegrees>41.848601885139942169189453125</LatitudeDegrees>
              <LongitudeDegrees>-1.8537904880940914154052734375</LongitudeDegrees>
            </Position>
            <AltitudeMeters>899</AltitudeMeters>
            <DistanceMeters>423630.84174659</DistanceMeters>
          </Trackpoint>
          <Trackpoint>
            <Time>2021-08-02T07:16:33.000Z</Time>
            <Position>
              <LatitudeDegrees>41.8486630730330944061279296875</LatitudeDegrees>
              <LongitudeDegrees>-1.8536679446697235107421875</LongitudeDegrees>
            </Position>
            <AltitudeMeters>898</AltitudeMeters>
            <DistanceMeters>423643.07290665</DistanceMeters>
          </Trackpoint>
          <Trackpoint>
            <Time>2021-08-02T07:16:34.000Z</Time>
            <Position>
              <LatitudeDegrees>41.84872635640203952789306640625</LatitudeDegrees>
              <LongitudeDegrees>-1.85354263521730899810791015625</LongitudeDegrees>
            </Position>
            <AltitudeMeters>896.5999755859375</AltitudeMeters>
            <DistanceMeters>423655.62470906</DistanceMeters>
          </Trackpoint>
          <Trackpoint>
            <Time>2021-08-02T07:16:35.000Z</Time>
            <Position>
              <LatitudeDegrees>41.848791651427745819091796875</LatitudeDegrees>
              <LongitudeDegrees>-1.85341573320329189300537109375</LongitudeDegrees>
            </Position>
            <AltitudeMeters>895.4000244140625</AltitudeMeters>
            <DistanceMeters>423668.41207096</DistanceMeters>
          </Trackpoint>
          <Trackpoint>
            <Time>2021-08-02T07:16:37.000Z</Time>
            <Position>
              <LatitudeDegrees>41.8489255942404270172119140625</LatitudeDegrees>
              <LongitudeDegrees>-1.8531628511846065521240234375</LongitudeDegrees>
            </Position>
            <AltitudeMeters>893.5999755859375</AltitudeMeters>
            <DistanceMeters>423694.13817371</DistanceMeters>
          </Trackpoint>
          <Trackpoint>
            <Time>2021-08-02T07:16:39.000Z</Time>
            <Position>
              <LatitudeDegrees>41.84906112961471080780029296875</LatitudeDegrees>
              <LongitudeDegrees>-1.852908544242382049560546875</LongitudeDegrees>
            </Position>
            <AltitudeMeters>892.20001220703125</AltitudeMeters>
            <DistanceMeters>423720.0635792</DistanceMeters>
          </Trackpoint>
          <Trackpoint>
            <Time>2021-08-02T07:16:41.000Z</Time>
            <Position>
              <LatitudeDegrees>41.84920429252088069915771484375</LatitudeDegrees>
              <LongitudeDegrees>-1.85265339910984039306640625</LongitudeDegrees>
            </Position>
            <AltitudeMeters>891</AltitudeMeters>
            <DistanceMeters>423746.54723638</DistanceMeters>
          </Trackpoint>
          <Trackpoint>
            <Time>2021-08-02T07:16:44.000Z</Time>
            <Position>
              <LatitudeDegrees>41.8493966571986675262451171875</LatitudeDegrees>
              <LongitudeDegrees>-1.85226288624107837677001953125</LongitudeDegrees>
            </Position>
            <AltitudeMeters>889.20001220703125</AltitudeMeters>
            <DistanceMeters>423785.36329381</DistanceMeters>
          </Trackpoint>
          <Trackpoint>
            <Time>2021-08-02T07:16:46.000Z</Time>
            <Position>
              <LatitudeDegrees>41.84944166801869869232177734375</LatitudeDegrees>
              <LongitudeDegrees>-1.851976811885833740234375</LongitudeDegrees>
            </Position>
            <AltitudeMeters>888</AltitudeMeters>
            <DistanceMeters>423809.60479304</DistanceMeters>
          </Trackpoint>
          <Trackpoint>
            <Time>2021-08-02T07:16:52.000Z</Time>
            <Position>
              <LatitudeDegrees>41.849068589508533477783203125</LatitudeDegrees>
              <LongitudeDegrees>-1.8515313975512981414794921875</LongitudeDegrees>
            </Position>
            <AltitudeMeters>887.20001220703125</AltitudeMeters>
            <DistanceMeters>423865.17470613</DistanceMeters>
          </Trackpoint>
          <Trackpoint>
            <Time>2021-08-02T07:16:53.000Z</Time>
            <Position>
              <LatitudeDegrees>41.84897915460169315338134765625</LatitudeDegrees>
              <LongitudeDegrees>-1.85155570507049560546875</LongitudeDegrees>
            </Position>
            <AltitudeMeters>886.79998779296875</AltitudeMeters>
            <DistanceMeters>423875.33056814</DistanceMeters>
          </Trackpoint>
          <Trackpoint>
            <Time>2021-08-02T07:16:56.000Z</Time>
            <Position>
              <LatitudeDegrees>41.848724596202373504638671875</LatitudeDegrees>
              <LongitudeDegrees>-1.851730383932590484619140625</LongitudeDegrees>
            </Position>
            <AltitudeMeters>885.4000244140625</AltitudeMeters>
            <DistanceMeters>423907.15018931</DistanceMeters>
          </Trackpoint>
          <Trackpoint>
            <Time>2021-08-02T07:16:58.000Z</Time>
            <Position>
              <LatitudeDegrees>41.84856466948986053466796875</LatitudeDegrees>
              <LongitudeDegrees>-1.85189508832991123199462890625</LongitudeDegrees>
            </Position>
            <AltitudeMeters>884.5999755859375</AltitudeMeters>
            <DistanceMeters>423929.58494808</DistanceMeters>
          </Trackpoint>
          <Trackpoint>
            <Time>2021-08-02T07:16:59.000Z</Time>
            <Position>
              <LatitudeDegrees>41.848484538495540618896484375</LatitudeDegrees>
              <LongitudeDegrees>-1.8519826792180538177490234375</LongitudeDegrees>
            </Position>
            <AltitudeMeters>884</AltitudeMeters>
            <DistanceMeters>423941.08592889</DistanceMeters>
          </Trackpoint>
          <Trackpoint>
            <Time>2021-08-02T07:17:00.000Z</Time>
            <Position>
              <LatitudeDegrees>41.84839929454028606414794921875</LatitudeDegrees>
              <LongitudeDegrees>-1.85206423513591289520263671875</LongitudeDegrees>
            </Position>
            <AltitudeMeters>883.79998779296875</AltitudeMeters>
            <DistanceMeters>423952.73668462</DistanceMeters>
          </Trackpoint>
          <Trackpoint>
            <Time>2021-08-02T07:17:01.000Z</Time>
            <Position>
              <LatitudeDegrees>41.84830793179571628570556640625</LatitudeDegrees>
              <LongitudeDegrees>-1.8521359004080295562744140625</LongitudeDegrees>
            </Position>
            <AltitudeMeters>882.79998779296875</AltitudeMeters>
            <DistanceMeters>423964.51386485</DistanceMeters>
          </Trackpoint>
          <Trackpoint>
            <Time>2021-08-02T07:17:03.000Z</Time>
            <Position>
              <LatitudeDegrees>41.8481091968715190887451171875</LatitudeDegrees>
              <LongitudeDegrees>-1.8522555939853191375732421875</LongitudeDegrees>
            </Position>
            <AltitudeMeters>881.20001220703125</AltitudeMeters>
            <DistanceMeters>423988.75759901</DistanceMeters>
          </Trackpoint>
          <Trackpoint>
            <Time>2021-08-02T07:17:04.000Z</Time>
            <Position>
              <LatitudeDegrees>41.8480052612721920013427734375</LatitudeDegrees>
              <LongitudeDegrees>-1.85230764560401439666748046875</LongitudeDegrees>
            </Position>
            <AltitudeMeters>880.4000244140625</AltitudeMeters>
            <DistanceMeters>424001.10485703</DistanceMeters>
          </Trackpoint>
          <Trackpoint>
            <Time>2021-08-02T07:17:05.000Z</Time>
            <Position>
              <LatitudeDegrees>41.8478973023593425750732421875</LatitudeDegrees>
              <LongitudeDegrees>-1.85235575772821903228759765625</LongitudeDegrees>
            </Position>
            <AltitudeMeters>879.20001220703125</AltitudeMeters>
            <DistanceMeters>424013.76518312</DistanceMeters>
          </Trackpoint>
          <Trackpoint>
            <Time>2021-08-02T07:17:07.000Z</Time>
            <Position>
              <LatitudeDegrees>41.84767928905785083770751953125</LatitudeDegrees>
              <LongitudeDegrees>-1.85244460590183734893798828125</LongitudeDegrees>
            </Position>
            <AltitudeMeters>878.20001220703125</AltitudeMeters>
            <DistanceMeters>424039.1239659</DistanceMeters>
          </Trackpoint>
          <Trackpoint>
            <Time>2021-08-02T07:17:09.000Z</Time>
            <Position>
              <LatitudeDegrees>41.84746823273599147796630859375</LatitudeDegrees>
              <LongitudeDegrees>-1.852534711360931396484375</LongitudeDegrees>
            </Position>
            <AltitudeMeters>877</AltitudeMeters>
            <DistanceMeters>424063.77437916</DistanceMeters>
          </Trackpoint>
          <Trackpoint>
            <Time>2021-08-02T07:17:11.000Z</Time>
            <Position>
              <LatitudeDegrees>41.847255416214466094970703125</LatitudeDegrees>
              <LongitudeDegrees>-1.8526106514036655426025390625</LongitudeDegrees>
            </Position>
            <AltitudeMeters>876.20001220703125</AltitudeMeters>
            <DistanceMeters>424088.28371973</DistanceMeters>
          </Trackpoint>
          <Trackpoint>
            <Time>2021-08-02T07:17:12.000Z</Time>
            <Position>
              <LatitudeDegrees>41.84714837931096553802490234375</LatitudeDegrees>
              <LongitudeDegrees>-1.85262615792453289031982421875</LongitudeDegrees>
            </Position>
            <AltitudeMeters>875.4000244140625</AltitudeMeters>
            <DistanceMeters>424100.26613249</DistanceMeters>
          </Trackpoint>
          <Trackpoint>
            <Time>2021-08-02T07:17:14.000Z</Time>
            <Position>
              <LatitudeDegrees>41.8469347245991230010986328125</LatitudeDegrees>
              <LongitudeDegrees>-1.85260084457695484161376953125</LongitudeDegrees>
            </Position>
            <AltitudeMeters>873.4000244140625</AltitudeMeters>
            <DistanceMeters>424124.13884043</DistanceMeters>
          </Trackpoint>
          <Trackpoint>
            <Time>2021-08-02T07:17:15.000Z</Time>
            <Position>
              <LatitudeDegrees>41.846827603876590728759765625</LatitudeDegrees>
              <LongitudeDegrees>-1.85257033444941043853759765625</LongitudeDegrees>
            </Position>
            <AltitudeMeters>872.5999755859375</AltitudeMeters>
            <DistanceMeters>424136.32747521</DistanceMeters>
          </Trackpoint>
          <Trackpoint>
            <Time>2021-08-02T07:17:16.000Z</Time>
            <Position>
              <LatitudeDegrees>41.8467194773256778717041015625</LatitudeDegrees>
              <LongitudeDegrees>-1.8525405786931514739990234375</LongitudeDegrees>
            </Position>
            <AltitudeMeters>872.20001220703125</AltitudeMeters>
            <DistanceMeters>424148.61277934</DistanceMeters>
          </Trackpoint>
          <Trackpoint>
            <Time>2021-08-02T07:17:17.000Z</Time>
            <Position>
              <LatitudeDegrees>41.84660942293703556060791015625</LatitudeDegrees>
              <LongitudeDegrees>-1.85252004303038120269775390625</LongitudeDegrees>
            </Position>
            <AltitudeMeters>871.5999755859375</AltitudeMeters>
            <DistanceMeters>424160.98013293</DistanceMeters>
          </Trackpoint>
          <Trackpoint>
            <Time>2021-08-02T07:17:18.000Z</Time>
            <Position>
              <LatitudeDegrees>41.84649811126291751861572265625</LatitudeDegrees>
              <LongitudeDegrees>-1.85251886956393718719482421875</LongitudeDegrees>
            </Position>
            <AltitudeMeters>871</AltitudeMeters>
            <DistanceMeters>424173.37010063</DistanceMeters>
          </Trackpoint>
          <Trackpoint>
            <Time>2021-08-02T07:17:21.000Z</Time>
            <Position>
              <LatitudeDegrees>41.8462117016315460205078125</LatitudeDegrees>
              <LongitudeDegrees>-1.85269589535892009735107421875</LongitudeDegrees>
            </Position>
            <AltitudeMeters>870</AltitudeMeters>
            <DistanceMeters>424208.46494707</DistanceMeters>
          </Trackpoint>
          <Trackpoint>
            <Time>2021-08-02T07:17:23.000Z</Time>
            <Position>
              <LatitudeDegrees>41.846078597009181976318359375</LatitudeDegrees>
              <LongitudeDegrees>-1.85293025337159633636474609375</LongitudeDegrees>
            </Position>
            <AltitudeMeters>868.4000244140625</AltitudeMeters>
            <DistanceMeters>424232.89938105</DistanceMeters>
          </Trackpoint>
          <Trackpoint>
            <Time>2021-08-02T07:17:24.000Z</Time>
            <Position>
              <LatitudeDegrees>41.84603475965559482574462890625</LatitudeDegrees>
              <LongitudeDegrees>-1.85306838713586330413818359375</LongitudeDegrees>
            </Position>
            <AltitudeMeters>867.4000244140625</AltitudeMeters>
            <DistanceMeters>424245.34860601</DistanceMeters>
          </Trackpoint>
          <Trackpoint>
            <Time>2021-08-02T07:17:26.000Z</Time>
            <Position>
              <LatitudeDegrees>41.8459890782833099365234375</LatitudeDegrees>
              <LongitudeDegrees>-1.85336041264235973358154296875</LongitudeDegrees>
            </Position>
            <AltitudeMeters>866.5999755859375</AltitudeMeters>
            <DistanceMeters>424270.08951872</DistanceMeters>
          </Trackpoint>
          <Trackpoint>
            <Time>2021-08-02T07:17:27.000Z</Time>
            <Position>
              <LatitudeDegrees>41.8459711410105228424072265625</LatitudeDegrees>
              <LongitudeDegrees>-1.85350692830979824066162109375</LongitudeDegrees>
            </Position>
            <AltitudeMeters>866.4000244140625</AltitudeMeters>
            <DistanceMeters>424282.4008888</DistanceMeters>
          </Trackpoint>
          <Trackpoint>
            <Time>2021-08-02T07:17:28.000Z</Time>
            <Position>
              <LatitudeDegrees>41.8459449894726276397705078125</LatitudeDegrees>
              <LongitudeDegrees>-1.85364958830177783966064453125</LongitudeDegrees>
            </Position>
            <AltitudeMeters>866.20001220703125</AltitudeMeters>
            <DistanceMeters>424294.58211271</DistanceMeters>
          </Trackpoint>
          <Trackpoint>
            <Time>2021-08-02T07:17:31.000Z</Time>
            <Position>
              <LatitudeDegrees>41.845788247883319854736328125</LatitudeDegrees>
              <LongitudeDegrees>-1.8540416099131107330322265625</LongitudeDegrees>
            </Position>
            <AltitudeMeters>865</AltitudeMeters>
            <DistanceMeters>424331.47182104</DistanceMeters>
          </Trackpoint>
          <Trackpoint>
            <Time>2021-08-02T07:17:32.000Z</Time>
            <Position>
              <LatitudeDegrees>41.84570945799350738525390625</LatitudeDegrees>
              <LongitudeDegrees>-1.8541561067104339599609375</LongitudeDegrees>
            </Position>
            <AltitudeMeters>864</AltitudeMeters>
            <DistanceMeters>424344.3961529</DistanceMeters>
          </Trackpoint>
          <Trackpoint>
            <Time>2021-08-02T07:17:33.000Z</Time>
            <Position>
              <LatitudeDegrees>41.8456224538385868072509765625</LatitudeDegrees>
              <LongitudeDegrees>-1.85426716692745685577392578125</LongitudeDegrees>
            </Position>
            <AltitudeMeters>862</AltitudeMeters>
            <DistanceMeters>424357.75881474</DistanceMeters>
          </Trackpoint>
          <Trackpoint>
            <Time>2021-08-02T07:17:34.000Z</Time>
            <Position>
              <LatitudeDegrees>41.84553318656980991363525390625</LatitudeDegrees>
              <LongitudeDegrees>-1.85438065789639949798583984375</LongitudeDegrees>
            </Position>
            <AltitudeMeters>860.79998779296875</AltitudeMeters>
            <DistanceMeters>424371.44332151</DistanceMeters>
          </Trackpoint>
          <Trackpoint>
            <Time>2021-08-02T07:17:35.000Z</Time>
            <Position>
              <LatitudeDegrees>41.84544215910136699676513671875</LatitudeDegrees>
              <LongitudeDegrees>-1.854497753083705902099609375</LongitudeDegrees>
            </Position>
            <AltitudeMeters>859.4000244140625</AltitudeMeters>
            <DistanceMeters>424385.47577842</DistanceMeters>
          </Trackpoint>
          <Trackpoint>
            <Time>2021-08-02T07:17:36.000Z</Time>
            <Position>
              <LatitudeDegrees>41.845351047813892364501953125</LatitudeDegrees>
              <LongitudeDegrees>-1.85461618937551975250244140625</LongitudeDegrees>
            </Position>
            <AltitudeMeters>858.20001220703125</AltitudeMeters>
            <DistanceMeters>424399.5922839</DistanceMeters>
          </Trackpoint>
          <Trackpoint>
            <Time>2021-08-02T07:17:37.000Z</Time>
            <Position>
              <LatitudeDegrees>41.84526161290705204010009765625</LatitudeDegrees>
              <LongitudeDegrees>-1.85473454184830188751220703125</LongitudeDegrees>
            </Position>
            <AltitudeMeters>857.20001220703125</AltitudeMeters>
            <DistanceMeters>424413.57058115</DistanceMeters>
          </Trackpoint>
          <Trackpoint>
            <Time>2021-08-02T07:17:39.000Z</Time>
            <Position>
              <LatitudeDegrees>41.8450851738452911376953125</LatitudeDegrees>
              <LongitudeDegrees>-1.85497619211673736572265625</LongitudeDegrees>
            </Position>
            <AltitudeMeters>855</AltitudeMeters>
            <DistanceMeters>424441.6258406</DistanceMeters>
          </Trackpoint>
          <Trackpoint>
            <Time>2021-08-02T07:17:40.000Z</Time>
            <Position>
              <LatitudeDegrees>41.844995319843292236328125</LatitudeDegrees>
              <LongitudeDegrees>-1.8550921976566314697265625</LongitudeDegrees>
            </Position>
            <AltitudeMeters>854</AltitudeMeters>
            <DistanceMeters>424455.50169337</DistanceMeters>
          </Trackpoint>
          <Trackpoint>
            <Time>2021-08-02T07:17:41.000Z</Time>
            <Position>
              <LatitudeDegrees>41.84490035288035869598388671875</LatitudeDegrees>
              <LongitudeDegrees>-1.85519437305629253387451171875</LongitudeDegrees>
            </Position>
            <AltitudeMeters>853.20001220703125</AltitudeMeters>
            <DistanceMeters>424469.04791732</DistanceMeters>
          </Trackpoint>
          <Trackpoint>
            <Time>2021-08-02T07:17:42.000Z</Time>
            <Position>
              <LatitudeDegrees>41.84479490853846073150634765625</LatitudeDegrees>
              <LongitudeDegrees>-1.855272911489009857177734375</LongitudeDegrees>
            </Position>
            <AltitudeMeters>852.5999755859375</AltitudeMeters>
            <DistanceMeters>424482.46924233</DistanceMeters>
          </Trackpoint>
          <Trackpoint>
            <Time>2021-08-02T07:17:44.000Z</Time>
            <Position>
              <LatitudeDegrees>41.84455610811710357666015625</LatitudeDegrees>
              <LongitudeDegrees>-1.85531490482389926910400390625</LongitudeDegrees>
            </Position>
            <AltitudeMeters>850.79998779296875</AltitudeMeters>
            <DistanceMeters>424509.27519881</DistanceMeters>
          </Trackpoint>
          <Trackpoint>
            <Time>2021-08-02T07:17:49.000Z</Time>
            <Position>
              <LatitudeDegrees>41.84414262883365154266357421875</LatitudeDegrees>
              <LongitudeDegrees>-1.85487502254545688629150390625</LongitudeDegrees>
            </Position>
            <AltitudeMeters>850.79998779296875</AltitudeMeters>
            <DistanceMeters>424567.99678761</DistanceMeters>
          </Trackpoint>
          <Trackpoint>
            <Time>2021-08-02T07:17:50.000Z</Time>
            <Position>
              <LatitudeDegrees>41.8441056646406650543212890625</LatitudeDegrees>
              <LongitudeDegrees>-1.8547703325748443603515625</LongitudeDegrees>
            </Position>
            <AltitudeMeters>852.20001220703125</AltitudeMeters>
            <DistanceMeters>424577.60294976</DistanceMeters>
          </Trackpoint>
          <Trackpoint>
            <Time>2021-08-02T07:17:51.000Z</Time>
            <Position>
              <LatitudeDegrees>41.8440739810466766357421875</LatitudeDegrees>
              <LongitudeDegrees>-1.8546702526509761810302734375</LongitudeDegrees>
            </Position>
            <AltitudeMeters>853.4000244140625</AltitudeMeters>
            <DistanceMeters>424586.61947781</DistanceMeters>
          </Trackpoint>
          <Trackpoint>
            <Time>2021-08-02T07:17:53.000Z</Time>
            <Position>
              <LatitudeDegrees>41.84401840902864933013916015625</LatitudeDegrees>
              <LongitudeDegrees>-1.85449339449405670166015625</LongitudeDegrees>
            </Position>
            <AltitudeMeters>854.79998779296875</AltitudeMeters>
            <DistanceMeters>424602.53467949</DistanceMeters>
          </Trackpoint>
          <Trackpoint>
            <Time>2021-08-02T07:17:55.000Z</Time>
            <Position>
              <LatitudeDegrees>41.8439675308763980865478515625</LatitudeDegrees>
              <LongitudeDegrees>-1.85435199178755283355712890625</LongitudeDegrees>
            </Position>
            <AltitudeMeters>856</AltitudeMeters>
            <DistanceMeters>424615.5550733</DistanceMeters>
          </Trackpoint>
          <Trackpoint>
            <Time>2021-08-02T07:17:57.000Z</Time>
            <Position>
              <LatitudeDegrees>41.84391598217189311981201171875</LatitudeDegrees>
              <LongitudeDegrees>-1.8542434461414813995361328125</LongitudeDegrees>
            </Position>
            <AltitudeMeters>857</AltitudeMeters>
            <DistanceMeters>424626.22856591</DistanceMeters>
          </Trackpoint>
          <Trackpoint>
            <Time>2021-08-02T07:18:01.000Z</Time>
            <Position>
              <LatitudeDegrees>41.843816153705120086669921875</LatitudeDegrees>
              <LongitudeDegrees>-1.8540768139064311981201171875</LongitudeDegrees>
            </Position>
            <AltitudeMeters>858.4000244140625</AltitudeMeters>
            <DistanceMeters>424643.95837107</DistanceMeters>
          </Trackpoint>
          <Trackpoint>
            <Time>2021-08-02T07:18:04.000Z</Time>
            <Position>
              <LatitudeDegrees>41.8437291495501995086669921875</LatitudeDegrees>
              <LongitudeDegrees>-1.85400581918656826019287109375</LongitudeDegrees>
            </Position>
            <AltitudeMeters>859.4000244140625</AltitudeMeters>
            <DistanceMeters>424655.2912779</DistanceMeters>
          </Trackpoint>
          <Trackpoint>
            <Time>2021-08-02T07:18:09.000Z</Time>
            <Position>
              <LatitudeDegrees>41.8435752578079700469970703125</LatitudeDegrees>
              <LongitudeDegrees>-1.85395519249141216278076171875</LongitudeDegrees>
            </Position>
            <AltitudeMeters>860.4000244140625</AltitudeMeters>
            <DistanceMeters>424672.92660786</DistanceMeters>
          </Trackpoint>
          <Trackpoint>
            <Time>2021-08-02T07:18:15.000Z</Time>
            <Position>
              <LatitudeDegrees>41.84338666498661041259765625</LatitudeDegrees>
              <LongitudeDegrees>-1.85398922301828861236572265625</LongitudeDegrees>
            </Position>
            <AltitudeMeters>861.5999755859375</AltitudeMeters>
            <DistanceMeters>424694.10626975</DistanceMeters>
          </Trackpoint>
          <Trackpoint>
            <Time>2021-08-02T07:18:21.000Z</Time>
            <Position>
              <LatitudeDegrees>41.8432225473225116729736328125</LatitudeDegrees>
              <LongitudeDegrees>-1.85404538176953792572021484375</LongitudeDegrees>
            </Position>
            <AltitudeMeters>863</AltitudeMeters>
            <DistanceMeters>424712.95704077</DistanceMeters>
          </Trackpoint>
          <Trackpoint>
            <Time>2021-08-02T07:18:27.000Z</Time>
            <Position>
              <LatitudeDegrees>41.84306203387677669525146484375</LatitudeDegrees>
              <LongitudeDegrees>-1.85410925187170505523681640625</LongitudeDegrees>
            </Position>
            <AltitudeMeters>864</AltitudeMeters>
            <DistanceMeters>424731.59100169</DistanceMeters>
          </Trackpoint>
          <Trackpoint>
            <Time>2021-08-02T07:18:32.000Z</Time>
            <Position>
              <LatitudeDegrees>41.84292423538863658905029296875</LatitudeDegrees>
              <LongitudeDegrees>-1.85415183193981647491455078125</LongitudeDegrees>
            </Position>
            <AltitudeMeters>865</AltitudeMeters>
            <DistanceMeters>424747.3293306</DistanceMeters>
          </Trackpoint>
          <Trackpoint>
            <Time>2021-08-02T07:18:41.000Z</Time>
            <Position>
              <LatitudeDegrees>41.84267126955091953277587890625</LatitudeDegrees>
              <LongitudeDegrees>-1.85412484221160411834716796875</LongitudeDegrees>
            </Position>
            <AltitudeMeters>866.4000244140625</AltitudeMeters>
            <DistanceMeters>424775.57369363</DistanceMeters>
          </Trackpoint>
          <Trackpoint>
            <Time>2021-08-02T07:18:48.000Z</Time>
            <Position>
              <LatitudeDegrees>41.8425075709819793701171875</LatitudeDegrees>
              <LongitudeDegrees>-1.85403582639992237091064453125</LongitudeDegrees>
            </Position>
            <AltitudeMeters>867.4000244140625</AltitudeMeters>
            <DistanceMeters>424795.23205449</DistanceMeters>
          </Trackpoint>
          <Trackpoint>
            <Time>2021-08-02T07:18:55.000Z</Time>
            <Position>
              <LatitudeDegrees>41.84234420768916606903076171875</LatitudeDegrees>
              <LongitudeDegrees>-1.85397061519324779510498046875</LongitudeDegrees>
            </Position>
            <AltitudeMeters>868.5999755859375</AltitudeMeters>
            <DistanceMeters>424814.20172887</DistanceMeters>
          </Trackpoint>
          <Trackpoint>
            <Time>2021-08-02T07:19:01.000Z</Time>
            <Position>
              <LatitudeDegrees>41.84221453964710235595703125</LatitudeDegrees>
              <LongitudeDegrees>-1.85394731350243091583251953125</LongitudeDegrees>
            </Position>
            <AltitudeMeters>869.5999755859375</AltitudeMeters>
            <DistanceMeters>424828.76284816</DistanceMeters>
          </Trackpoint>
          <Trackpoint>
            <Time>2021-08-02T07:19:08.000Z</Time>
            <Position>
              <LatitudeDegrees>41.84205955825746059417724609375</LatitudeDegrees>
              <LongitudeDegrees>-1.85394748114049434661865234375</LongitudeDegrees>
            </Position>
            <AltitudeMeters>870.79998779296875</AltitudeMeters>
            <DistanceMeters>424846.0122255</DistanceMeters>
          </Trackpoint>
          <Trackpoint>
            <Time>2021-08-02T07:19:16.000Z</Time>
            <Position>
              <LatitudeDegrees>41.8418874777853488922119140625</LatitudeDegrees>
              <LongitudeDegrees>-1.85400045476853847503662109375</LongitudeDegrees>
            </Position>
            <AltitudeMeters>871.79998779296875</AltitudeMeters>
            <DistanceMeters>424865.66254608</DistanceMeters>
          </Trackpoint>
          <Trackpoint>
            <Time>2021-08-02T07:19:21.000Z</Time>
            <Position>
              <LatitudeDegrees>41.841785050928592681884765625</LatitudeDegrees>
              <LongitudeDegrees>-1.85404672287404537200927734375</LongitudeDegrees>
            </Position>
            <AltitudeMeters>873</AltitudeMeters>
            <DistanceMeters>424877.69121662</DistanceMeters>
          </Trackpoint>
          <Trackpoint>
            <Time>2021-08-02T07:19:26.000Z</Time>
            <Position>
              <LatitudeDegrees>41.841680109500885009765625</LatitudeDegrees>
              <LongitudeDegrees>-1.8540965951979160308837890625</LongitudeDegrees>
            </Position>
            <AltitudeMeters>874</AltitudeMeters>
            <DistanceMeters>424890.08154872</DistanceMeters>
          </Trackpoint>
          <Trackpoint>
            <Time>2021-08-02T07:19:33.000Z</Time>
            <Position>
              <LatitudeDegrees>41.841531582176685333251953125</LatitudeDegrees>
              <LongitudeDegrees>-1.85414026491343975067138671875</LongitudeDegrees>
            </Position>
            <AltitudeMeters>875.20001220703125</AltitudeMeters>
            <DistanceMeters>424907.00484345</DistanceMeters>
          </Trackpoint>
          <Trackpoint>
            <Time>2021-08-02T07:19:37.000Z</Time>
            <Position>
              <LatitudeDegrees>41.84144365601241588592529296875</LatitudeDegrees>
              <LongitudeDegrees>-1.85415141284465789794921875</LongitudeDegrees>
            </Position>
            <AltitudeMeters>876.20001220703125</AltitudeMeters>
            <DistanceMeters>424916.83402388</DistanceMeters>
          </Trackpoint>
          <Trackpoint>
            <Time>2021-08-02T07:19:45.000Z</Time>
            <Position>
              <LatitudeDegrees>41.84127266518771648406982421875</LatitudeDegrees>
              <LongitudeDegrees>-1.85416775755584239959716796875</LongitudeDegrees>
            </Position>
            <AltitudeMeters>877.4000244140625</AltitudeMeters>
            <DistanceMeters>424935.9138169</DistanceMeters>
          </Trackpoint>
          <Trackpoint>
            <Time>2021-08-02T07:19:50.000Z</Time>
            <Position>
              <LatitudeDegrees>41.84116571210324764251708984375</LatitudeDegrees>
              <LongitudeDegrees>-1.8541911430656909942626953125</LongitudeDegrees>
            </Position>
            <AltitudeMeters>878.4000244140625</AltitudeMeters>
            <DistanceMeters>424947.97509923</DistanceMeters>
          </Trackpoint>
          <Trackpoint>
            <Time>2021-08-02T07:19:56.000Z</Time>
            <Position>
              <LatitudeDegrees>41.84104375541210174560546875</LatitudeDegrees>
              <LongitudeDegrees>-1.85423766262829303741455078125</LongitudeDegrees>
            </Position>
            <AltitudeMeters>879.4000244140625</AltitudeMeters>
            <DistanceMeters>424962.08648633</DistanceMeters>
          </Trackpoint>
          <Trackpoint>
            <Time>2021-08-02T07:20:01.000Z</Time>
            <Position>
              <LatitudeDegrees>41.84094225056469440460205078125</LatitudeDegrees>
              <LongitudeDegrees>-1.854298599064350128173828125</LongitudeDegrees>
            </Position>
            <AltitudeMeters>880.5999755859375</AltitudeMeters>
            <DistanceMeters>424974.46259867</DistanceMeters>
          </Trackpoint>
          <Trackpoint>
            <Time>2021-08-02T07:20:05.000Z</Time>
            <Position>
              <LatitudeDegrees>41.84085876680910587310791015625</LatitudeDegrees>
              <LongitudeDegrees>-1.85435534454882144927978515625</LongitudeDegrees>
            </Position>
            <AltitudeMeters>881</AltitudeMeters>
            <DistanceMeters>424984.8783242</DistanceMeters>
          </Trackpoint>
          <Trackpoint>
            <Time>2021-08-02T07:20:28.000Z</Time>
            <Position>
              <LatitudeDegrees>41.84032802470028400421142578125</LatitudeDegrees>
              <LongitudeDegrees>-1.8545718491077423095703125</LongitudeDegrees>
            </Position>
            <AltitudeMeters>880.79998779296875</AltitudeMeters>
            <DistanceMeters>425046.61878281</DistanceMeters>
          </Trackpoint>
          <Trackpoint>
            <Time>2021-08-02T07:20:29.000Z</Time>
            <Position>
              <LatitudeDegrees>41.8402945809066295623779296875</LatitudeDegrees>
              <LongitudeDegrees>-1.85455131344497203826904296875</LongitudeDegrees>
            </Position>
            <AltitudeMeters>880.5999755859375</AltitudeMeters>
            <DistanceMeters>425050.71265896</DistanceMeters>
          </Trackpoint>
          <Trackpoint>
            <Time>2021-08-02T07:20:32.000Z</Time>
            <Position>
              <LatitudeDegrees>41.84020154178142547607421875</LatitudeDegrees>
              <LongitudeDegrees>-1.85442508198320865631103515625</LongitudeDegrees>
            </Position>
            <AltitudeMeters>879.5999755859375</AltitudeMeters>
            <DistanceMeters>425065.43689426</DistanceMeters>
          </Trackpoint>
          <Trackpoint>
            <Time>2021-08-02T07:20:35.000Z</Time>
            <Position>
              <LatitudeDegrees>41.8401430360972881317138671875</LatitudeDegrees>
              <LongitudeDegrees>-1.854226179420948028564453125</LongitudeDegrees>
            </Position>
            <AltitudeMeters>878.4000244140625</AltitudeMeters>
            <DistanceMeters>425083.1689912</DistanceMeters>
          </Trackpoint>
          <Trackpoint>
            <Time>2021-08-02T07:20:39.000Z</Time>
            <Position>
              <LatitudeDegrees>41.8402020446956157684326171875</LatitudeDegrees>
              <LongitudeDegrees>-1.853918395936489105224609375</LongitudeDegrees>
            </Position>
            <AltitudeMeters>876.79998779296875</AltitudeMeters>
            <DistanceMeters>425109.52207677</DistanceMeters>
          </Trackpoint>
          <Trackpoint>
            <Time>2021-08-02T07:20:41.000Z</Time>
            <Position>
              <LatitudeDegrees>41.84027823619544506072998046875</LatitudeDegrees>
              <LongitudeDegrees>-1.8537686951458454132080078125</LongitudeDegrees>
            </Position>
            <AltitudeMeters>875.79998779296875</AltitudeMeters>
            <DistanceMeters>425124.5552309</DistanceMeters>
          </Trackpoint>
          <Trackpoint>
            <Time>2021-08-02T07:20:42.000Z</Time>
            <Position>
              <LatitudeDegrees>41.84032249264419078826904296875</LatitudeDegrees>
              <LongitudeDegrees>-1.85369753278791904449462890625</LongitudeDegrees>
            </Position>
            <AltitudeMeters>875.5999755859375</AltitudeMeters>
            <DistanceMeters>425132.24182899</DistanceMeters>
          </Trackpoint>
          <Trackpoint>
            <Time>2021-08-02T07:20:49.000Z</Time>
            <Position>
              <LatitudeDegrees>41.8406214751303195953369140625</LatitudeDegrees>
              <LongitudeDegrees>-1.85332889668643474578857421875</LongitudeDegrees>
            </Position>
            <AltitudeMeters>877</AltitudeMeters>
            <DistanceMeters>425177.42760623</DistanceMeters>
          </Trackpoint>
          <Trackpoint>
            <Time>2021-08-02T07:20:54.000Z</Time>
            <Position>
              <LatitudeDegrees>41.84075944125652313232421875</LatitudeDegrees>
              <LongitudeDegrees>-1.85316612012684345245361328125</LongitudeDegrees>
            </Position>
            <AltitudeMeters>878.20001220703125</AltitudeMeters>
            <DistanceMeters>425197.8722676</DistanceMeters>
          </Trackpoint>
          <Trackpoint>
            <Time>2021-08-02T07:21:01.000Z</Time>
            <Position>
              <LatitudeDegrees>41.84088952839374542236328125</LatitudeDegrees>
              <LongitudeDegrees>-1.85294735245406627655029296875</LongitudeDegrees>
            </Position>
            <AltitudeMeters>879.4000244140625</AltitudeMeters>
            <DistanceMeters>425221.08214136</DistanceMeters>
          </Trackpoint>
          <Trackpoint>
            <Time>2021-08-02T07:21:06.000Z</Time>
            <Position>
              <LatitudeDegrees>41.84094526804983615875244140625</LatitudeDegrees>
              <LongitudeDegrees>-1.85278155840933322906494140625</LongitudeDegrees>
            </Position>
            <AltitudeMeters>880.4000244140625</AltitudeMeters>
            <DistanceMeters>425236.16476997</DistanceMeters>
          </Trackpoint>
          <Trackpoint>
            <Time>2021-08-02T07:21:14.000Z</Time>
            <Position>
              <LatitudeDegrees>41.840946190059185028076171875</LatitudeDegrees>
              <LongitudeDegrees>-1.8525065481662750244140625</LongitudeDegrees>
            </Position>
            <AltitudeMeters>881.4000244140625</AltitudeMeters>
            <DistanceMeters>425258.96880563</DistanceMeters>
          </Trackpoint>
          <Trackpoint>
            <Time>2021-08-02T07:21:24.000Z</Time>
            <Position>
              <LatitudeDegrees>41.84080428443849086761474609375</LatitudeDegrees>
              <LongitudeDegrees>-1.85216515325009822845458984375</LongitudeDegrees>
            </Position>
            <AltitudeMeters>882.5999755859375</AltitudeMeters>
            <DistanceMeters>425291.38545299</DistanceMeters>
          </Trackpoint>
          <Trackpoint>
            <Time>2021-08-02T07:21:41.000Z</Time>
            <Position>
              <LatitudeDegrees>41.84044738300144672393798828125</LatitudeDegrees>
              <LongitudeDegrees>-1.85159954242408275604248046875</LongitudeDegrees>
            </Position>
            <AltitudeMeters>883</AltitudeMeters>
            <DistanceMeters>425352.84805308</DistanceMeters>
          </Trackpoint>
          <Trackpoint>
            <Time>2021-08-02T07:21:50.000Z</Time>
            <Position>
              <LatitudeDegrees>41.840260215103626251220703125</LatitudeDegrees>
              <LongitudeDegrees>-1.851296536624431610107421875</LongitudeDegrees>
            </Position>
            <AltitudeMeters>883.5999755859375</AltitudeMeters>
            <DistanceMeters>425385.48651333</DistanceMeters>
          </Trackpoint>
          <Trackpoint>
            <Time>2021-08-02T07:22:08.000Z</Time>
            <Position>
              <LatitudeDegrees>41.83996408246457576751708984375</LatitudeDegrees>
              <LongitudeDegrees>-1.85065054334700107574462890625</LongitudeDegrees>
            </Position>
            <AltitudeMeters>884.79998779296875</AltitudeMeters>
            <DistanceMeters>425448.38113431</DistanceMeters>
          </Trackpoint>
          <Trackpoint>
            <Time>2021-08-02T07:22:21.000Z</Time>
            <Position>
              <LatitudeDegrees>41.839784793555736541748046875</LatitudeDegrees>
              <LongitudeDegrees>-1.8501510657370090484619140625</LongitudeDegrees>
            </Position>
            <AltitudeMeters>886</AltitudeMeters>
            <DistanceMeters>425494.35511372</DistanceMeters>
          </Trackpoint>
          <Trackpoint>
            <Time>2021-08-02T07:22:38.000Z</Time>
            <Position>
              <LatitudeDegrees>41.83957633562386035919189453125</LatitudeDegrees>
              <LongitudeDegrees>-1.8494929186999797821044921875</LongitudeDegrees>
            </Position>
            <AltitudeMeters>881.20001220703125</AltitudeMeters>
            <DistanceMeters>425553.65696099</DistanceMeters>
          </Trackpoint>
          <Trackpoint>
            <Time>2021-08-02T07:22:47.000Z</Time>
            <Position>
              <LatitudeDegrees>41.83949184603989124298095703125</LatitudeDegrees>
              <LongitudeDegrees>-1.8491633422672748565673828125</LongitudeDegrees>
            </Position>
            <AltitudeMeters>888</AltitudeMeters>
            <DistanceMeters>425582.55867654</DistanceMeters>
          </Trackpoint>
          <Trackpoint>
            <Time>2021-08-02T07:22:52.000Z</Time>
            <Position>
              <LatitudeDegrees>41.8394525349140167236328125</LatitudeDegrees>
              <LongitudeDegrees>-1.84898807667195796966552734375</LongitudeDegrees>
            </Position>
            <AltitudeMeters>889</AltitudeMeters>
            <DistanceMeters>425597.73620104</DistanceMeters>
          </Trackpoint>
          <Trackpoint>
            <Time>2021-08-02T07:23:00.000Z</Time>
            <Position>
              <LatitudeDegrees>41.8393920175731182098388671875</LatitudeDegrees>
              <LongitudeDegrees>-1.84871859848499298095703125</LongitudeDegrees>
            </Position>
            <AltitudeMeters>890.20001220703125</AltitudeMeters>
            <DistanceMeters>425621.0748859</DistanceMeters>
          </Trackpoint>
          <Trackpoint>
            <Time>2021-08-02T07:23:01.000Z</Time>
            <Position>
              <LatitudeDegrees>41.83938472531735897064208984375</LatitudeDegrees>
              <LongitudeDegrees>-1.84868347831070423126220703125</LongitudeDegrees>
            </Position>
            <AltitudeMeters>890.4000244140625</AltitudeMeters>
            <DistanceMeters>425624.09787075</DistanceMeters>
          </Trackpoint>
          <Trackpoint>
            <Time>2021-08-02T07:23:07.000Z</Time>
            <Position>
              <LatitudeDegrees>41.8393454141914844512939453125</LatitudeDegrees>
              <LongitudeDegrees>-1.848479211330413818359375</LongitudeDegrees>
            </Position>
            <AltitudeMeters>891.4000244140625</AltitudeMeters>
            <DistanceMeters>425641.59207981</DistanceMeters>
          </Trackpoint>
          <Trackpoint>
            <Time>2021-08-02T07:23:13.000Z</Time>
            <Position>
              <LatitudeDegrees>41.83933795429766178131103515625</LatitudeDegrees>
              <LongitudeDegrees>-1.84827192686498165130615234375</LongitudeDegrees>
            </Position>
            <AltitudeMeters>892.5999755859375</AltitudeMeters>
            <DistanceMeters>425658.80057559</DistanceMeters>
          </Trackpoint>
          <Trackpoint>
            <Time>2021-08-02T07:23:19.000Z</Time>
            <Position>
              <LatitudeDegrees>41.83936829678714275360107421875</LatitudeDegrees>
              <LongitudeDegrees>-1.84807629324495792388916015625</LongitudeDegrees>
            </Position>
            <AltitudeMeters>893.79998779296875</AltitudeMeters>
            <DistanceMeters>425675.37068435</DistanceMeters>
          </Trackpoint>
          <Trackpoint>
            <Time>2021-08-02T07:23:32.000Z</Time>
            <Position>
              <LatitudeDegrees>41.83955387212336063385009765625</LatitudeDegrees>
              <LongitudeDegrees>-1.8477622233331203460693359375</LongitudeDegrees>
            </Position>
            <AltitudeMeters>895.20001220703125</AltitudeMeters>
            <DistanceMeters>425708.61020861</DistanceMeters>
          </Trackpoint>
          <Trackpoint>
            <Time>2021-08-02T07:23:36.000Z</Time>
            <Position>
              <LatitudeDegrees>41.8396371044218540191650390625</LatitudeDegrees>
              <LongitudeDegrees>-1.84770380146801471710205078125</LongitudeDegrees>
            </Position>
            <AltitudeMeters>896.4000244140625</AltitudeMeters>
            <DistanceMeters>425719.06401104</DistanceMeters>
          </Trackpoint>
          <Trackpoint>
            <Time>2021-08-02T07:23:53.000Z</Time>
            <Position>
              <LatitudeDegrees>41.8400464765727519989013671875</LatitudeDegrees>
              <LongitudeDegrees>-1.84775702655315399169921875</LongitudeDegrees>
            </Position>
            <AltitudeMeters>897.4000244140625</AltitudeMeters>
            <DistanceMeters>425764.84115195</DistanceMeters>
          </Trackpoint>
          <Trackpoint>
            <Time>2021-08-02T07:24:00.000Z</Time>
            <Position>
              <LatitudeDegrees>41.84019106440246105194091796875</LatitudeDegrees>
              <LongitudeDegrees>-1.84790731407701969146728515625</LongitudeDegrees>
            </Position>
            <AltitudeMeters>898.4000244140625</AltitudeMeters>
            <DistanceMeters>425785.19506673</DistanceMeters>
          </Trackpoint>
          <Trackpoint>
            <Time>2021-08-02T07:24:11.000Z</Time>
            <Position>
              <LatitudeDegrees>41.84038720093667507171630859375</LatitudeDegrees>
              <LongitudeDegrees>-1.84819313697516918182373046875</LongitudeDegrees>
            </Position>
            <AltitudeMeters>899.5999755859375</AltitudeMeters>
            <DistanceMeters>425817.41767137</DistanceMeters>
          </Trackpoint>
          <Trackpoint>
            <Time>2021-08-02T07:24:20.000Z</Time>
            <Position>
              <LatitudeDegrees>41.84055115096271038055419921875</LatitudeDegrees>
              <LongitudeDegrees>-1.84843369759619235992431640625</LongitudeDegrees>
            </Position>
            <AltitudeMeters>901</AltitudeMeters>
            <DistanceMeters>425844.45256285</DistanceMeters>
          </Trackpoint>
          <Trackpoint>
            <Time>2021-08-02T07:24:29.000Z</Time>
            <Position>
              <LatitudeDegrees>41.84074108488857746124267578125</LatitudeDegrees>
              <LongitudeDegrees>-1.8486188538372516632080078125</LongitudeDegrees>
            </Position>
            <AltitudeMeters>902</AltitudeMeters>
            <DistanceMeters>425870.5795527</DistanceMeters>
          </Trackpoint>
          <Trackpoint>
            <Time>2021-08-02T07:24:33.000Z</Time>
            <Position>
              <LatitudeDegrees>41.84083848260343074798583984375</LatitudeDegrees>
              <LongitudeDegrees>-1.8486790359020233154296875</LongitudeDegrees>
            </Position>
            <AltitudeMeters>903</AltitudeMeters>
            <DistanceMeters>425882.5136369</DistanceMeters>
          </Trackpoint>
          <Trackpoint>
            <Time>2021-08-02T07:24:41.000Z</Time>
            <Position>
              <LatitudeDegrees>41.84105171822011470794677734375</LatitudeDegrees>
              <LongitudeDegrees>-1.8487030081450939178466796875</LongitudeDegrees>
            </Position>
            <AltitudeMeters>904.20001220703125</AltitudeMeters>
            <DistanceMeters>425906.33029666</DistanceMeters>
          </Trackpoint>
          <Trackpoint>
            <Time>2021-08-02T07:24:46.000Z</Time>
            <Position>
              <LatitudeDegrees>41.84117828495800495147705078125</LatitudeDegrees>
              <LongitudeDegrees>-1.84865414164960384368896484375</LongitudeDegrees>
            </Position>
            <AltitudeMeters>905.20001220703125</AltitudeMeters>
            <DistanceMeters>425920.98845612</DistanceMeters>
          </Trackpoint>
          <Trackpoint>
            <Time>2021-08-02T07:24:53.000Z</Time>
            <Position>
              <LatitudeDegrees>41.84133343398571014404296875</LatitudeDegrees>
              <LongitudeDegrees>-1.84851349331438541412353515625</LongitudeDegrees>
            </Position>
            <AltitudeMeters>906.20001220703125</AltitudeMeters>
            <DistanceMeters>425941.82597507</DistanceMeters>
          </Trackpoint>
          <Trackpoint>
            <Time>2021-08-02T07:25:00.000Z</Time>
            <Position>
              <LatitudeDegrees>41.84144499711692333221435546875</LatitudeDegrees>
              <LongitudeDegrees>-1.848318614065647125244140625</LongitudeDegrees>
            </Position>
            <AltitudeMeters>907.20001220703125</AltitudeMeters>
            <DistanceMeters>425962.20516238</DistanceMeters>
          </Trackpoint>
          <Trackpoint>
            <Time>2021-08-02T07:25:07.000Z</Time>
            <Position>
              <LatitudeDegrees>41.84149830602109432220458984375</LatitudeDegrees>
              <LongitudeDegrees>-1.84808752499520778656005859375</LongitudeDegrees>
            </Position>
            <AltitudeMeters>908.4000244140625</AltitudeMeters>
            <DistanceMeters>425982.2643542</DistanceMeters>
          </Trackpoint>
          <Trackpoint>
            <Time>2021-08-02T07:25:15.000Z</Time>
            <Position>
              <LatitudeDegrees>41.84151657857000827789306640625</LatitudeDegrees>
              <LongitudeDegrees>-1.84781561605632305145263671875</LongitudeDegrees>
            </Position>
            <AltitudeMeters>909.4000244140625</AltitudeMeters>
            <DistanceMeters>426004.90246208</DistanceMeters>
          </Trackpoint>
          <Trackpoint>
            <Time>2021-08-02T07:25:22.000Z</Time>
            <Position>
              <LatitudeDegrees>41.8415032513439655303955078125</LatitudeDegrees>
              <LongitudeDegrees>-1.8475714512169361114501953125</LongitudeDegrees>
            </Position>
            <AltitudeMeters>910.5999755859375</AltitudeMeters>
            <DistanceMeters>426025.20240145</DistanceMeters>
          </Trackpoint>
          <Trackpoint>
            <Time>2021-08-02T07:25:31.000Z</Time>
            <Position>
              <LatitudeDegrees>41.84150115586817264556884765625</LatitudeDegrees>
              <LongitudeDegrees>-1.84726215898990631103515625</LongitudeDegrees>
            </Position>
            <AltitudeMeters>911.5999755859375</AltitudeMeters>
            <DistanceMeters>426050.84975782</DistanceMeters>
          </Trackpoint>
          <Trackpoint>
            <Time>2021-08-02T07:25:40.000Z</Time>
            <Position>
              <LatitudeDegrees>41.8415039218962192535400390625</LatitudeDegrees>
              <LongitudeDegrees>-1.846952028572559356689453125</LongitudeDegrees>
            </Position>
            <AltitudeMeters>913</AltitudeMeters>
            <DistanceMeters>426076.56743499</DistanceMeters>
          </Trackpoint>
          <Trackpoint>
            <Time>2021-08-02T07:25:49.000Z</Time>
            <Position>
              <LatitudeDegrees>41.84150182642042636871337890625</LatitudeDegrees>
              <LongitudeDegrees>-1.846638210117816925048828125</LongitudeDegrees>
            </Position>
            <AltitudeMeters>914.20001220703125</AltitudeMeters>
            <DistanceMeters>426102.59001101</DistanceMeters>
          </Trackpoint>
          <Trackpoint>
            <Time>2021-08-02T07:25:58.000Z</Time>
            <Position>
              <LatitudeDegrees>41.8414998985826969146728515625</LatitudeDegrees>
              <LongitudeDegrees>-1.84631609357893466949462890625</LongitudeDegrees>
            </Position>
            <AltitudeMeters>915.4000244140625</AltitudeMeters>
            <DistanceMeters>426129.30046364</DistanceMeters>
          </Trackpoint>
          <Trackpoint>
            <Time>2021-08-02T07:26:05.000Z</Time>
            <Position>
              <LatitudeDegrees>41.8414952047169208526611328125</LatitudeDegrees>
              <LongitudeDegrees>-1.84606782160699367523193359375</LongitudeDegrees>
            </Position>
            <AltitudeMeters>916.4000244140625</AltitudeMeters>
            <DistanceMeters>426149.89365377</DistanceMeters>
          </Trackpoint>
          <Trackpoint>
            <Time>2021-08-02T07:26:14.000Z</Time>
            <Position>
              <LatitudeDegrees>41.84148355387151241302490234375</LatitudeDegrees>
              <LongitudeDegrees>-1.8457554280757904052734375</LongitudeDegrees>
            </Position>
            <AltitudeMeters>917.4000244140625</AltitudeMeters>
            <DistanceMeters>426175.82950646</DistanceMeters>
          </Trackpoint>
          <Trackpoint>
            <Time>2021-08-02T07:26:22.000Z</Time>
            <Position>
              <LatitudeDegrees>41.84142488054931163787841796875</LatitudeDegrees>
              <LongitudeDegrees>-1.8454927392303943634033203125</LongitudeDegrees>
            </Position>
            <AltitudeMeters>918.4000244140625</AltitudeMeters>
            <DistanceMeters>426198.56950047</DistanceMeters>
          </Trackpoint>
          <Trackpoint>
            <Time>2021-08-02T07:26:28.000Z</Time>
            <Position>
              <LatitudeDegrees>41.84133351780474185943603515625</LatitudeDegrees>
              <LongitudeDegrees>-1.845331974327564239501953125</LongitudeDegrees>
            </Position>
            <AltitudeMeters>919.5999755859375</AltitudeMeters>
            <DistanceMeters>426215.33572484</DistanceMeters>
          </Trackpoint>
          <Trackpoint>
            <Time>2021-08-02T07:26:36.000Z</Time>
            <Position>
              <LatitudeDegrees>41.8411619402468204498291015625</LatitudeDegrees>
              <LongitudeDegrees>-1.84518721885979175567626953125</LongitudeDegrees>
            </Position>
            <AltitudeMeters>920.79998779296875</AltitudeMeters>
            <DistanceMeters>426237.89151206</DistanceMeters>
          </Trackpoint>
          <Trackpoint>
            <Time>2021-08-02T07:26:42.000Z</Time>
            <Position>
              <LatitudeDegrees>41.84102875180542469024658203125</LatitudeDegrees>
              <LongitudeDegrees>-1.84511546976864337921142578125</LongitudeDegrees>
            </Position>
            <AltitudeMeters>922</AltitudeMeters>
            <DistanceMeters>426253.86504767</DistanceMeters>
          </Trackpoint>
          <Trackpoint>
            <Time>2021-08-02T07:26:49.000Z</Time>
            <Position>
              <LatitudeDegrees>41.8408712558448314666748046875</LatitudeDegrees>
              <LongitudeDegrees>-1.84505562297999858856201171875</LongitudeDegrees>
            </Position>
            <AltitudeMeters>923</AltitudeMeters>
            <DistanceMeters>426272.08343096</DistanceMeters>
          </Trackpoint>
          <Trackpoint>
            <Time>2021-08-02T07:26:55.000Z</Time>
            <Position>
              <LatitudeDegrees>41.8407398276031017303466796875</LatitudeDegrees>
              <LongitudeDegrees>-1.8449992127716541290283203125</LongitudeDegrees>
            </Position>
            <AltitudeMeters>924</AltitudeMeters>
            <DistanceMeters>426287.44134738</DistanceMeters>
          </Trackpoint>
          <Trackpoint>
            <Time>2021-08-02T07:27:03.000Z</Time>
            <Position>
              <LatitudeDegrees>41.84056791476905345916748046875</LatitudeDegrees>
              <LongitudeDegrees>-1.844918914139270782470703125</LongitudeDegrees>
            </Position>
            <AltitudeMeters>925.4000244140625</AltitudeMeters>
            <DistanceMeters>426307.7009894</DistanceMeters>
          </Trackpoint>
          <Trackpoint>
            <Time>2021-08-02T07:27:09.000Z</Time>
            <Position>
              <LatitudeDegrees>41.84043950401246547698974609375</LatitudeDegrees>
              <LongitudeDegrees>-1.84485948644578456878662109375</LongitudeDegrees>
            </Position>
            <AltitudeMeters>926.4000244140625</AltitudeMeters>
            <DistanceMeters>426322.81890046</DistanceMeters>
          </Trackpoint>
          <Trackpoint>
            <Time>2021-08-02T07:27:15.000Z</Time>
            <Position>
              <LatitudeDegrees>41.84031209908425807952880859375</LatitudeDegrees>
              <LongitudeDegrees>-1.84479813091456890106201171875</LongitudeDegrees>
            </Position>
            <AltitudeMeters>927.4000244140625</AltitudeMeters>
            <DistanceMeters>426337.88415656</DistanceMeters>
          </Trackpoint>
          <Trackpoint>
            <Time>2021-08-02T07:27:22.000Z</Time>
            <Position>
              <LatitudeDegrees>41.84016474522650241851806640625</LatitudeDegrees>
              <LongitudeDegrees>-1.84470961801707744598388671875</LongitudeDegrees>
            </Position>
            <AltitudeMeters>928.5999755859375</AltitudeMeters>
            <DistanceMeters>426355.85249964</DistanceMeters>
          </Trackpoint>
          <Trackpoint>
            <Time>2021-08-02T07:27:28.000Z</Time>
            <Position>
              <LatitudeDegrees>41.840040944516658782958984375</LatitudeDegrees>
              <LongitudeDegrees>-1.84465278871357440948486328125</LongitudeDegrees>
            </Position>
            <AltitudeMeters>929.5999755859375</AltitudeMeters>
            <DistanceMeters>426370.41485917</DistanceMeters>
          </Trackpoint>
          <Trackpoint>
            <Time>2021-08-02T07:27:34.000Z</Time>
            <Position>
              <LatitudeDegrees>41.83991630561649799346923828125</LatitudeDegrees>
              <LongitudeDegrees>-1.84459730051457881927490234375</LongitudeDegrees>
            </Position>
            <AltitudeMeters>930.5999755859375</AltitudeMeters>
            <DistanceMeters>426385.03044977</DistanceMeters>
          </Trackpoint>
          <Trackpoint>
            <Time>2021-08-02T07:27:41.000Z</Time>
            <Position>
              <LatitudeDegrees>41.8397792614996433258056640625</LatitudeDegrees>
              <LongitudeDegrees>-1.84452538378536701202392578125</LongitudeDegrees>
            </Position>
            <AltitudeMeters>931.79998779296875</AltitudeMeters>
            <DistanceMeters>426401.40788426</DistanceMeters>
          </Trackpoint>
          <Trackpoint>
            <Time>2021-08-02T07:27:49.000Z</Time>
            <Position>
              <LatitudeDegrees>41.83962629176676273345947265625</LatitudeDegrees>
              <LongitudeDegrees>-1.84441792778670787811279296875</LongitudeDegrees>
            </Position>
            <AltitudeMeters>932.79998779296875</AltitudeMeters>
            <DistanceMeters>426420.62443822</DistanceMeters>
          </Trackpoint>
          <Trackpoint>
            <Time>2021-08-02T07:27:54.000Z</Time>
            <Position>
              <LatitudeDegrees>41.839534007012844085693359375</LatitudeDegrees>
              <LongitudeDegrees>-1.84431885369122028350830078125</LongitudeDegrees>
            </Position>
            <AltitudeMeters>934</AltitudeMeters>
            <DistanceMeters>426433.7773164</DistanceMeters>
          </Trackpoint>
          <Trackpoint>
            <Time>2021-08-02T07:27:59.000Z</Time>
            <Position>
              <LatitudeDegrees>41.83945915661752223968505859375</LatitudeDegrees>
              <LongitudeDegrees>-1.8442042730748653411865234375</LongitudeDegrees>
            </Position>
            <AltitudeMeters>935.4000244140625</AltitudeMeters>
            <DistanceMeters>426446.41408307</DistanceMeters>
          </Trackpoint>
          <Trackpoint>
            <Time>2021-08-02T07:28:04.000Z</Time>
            <Position>
              <LatitudeDegrees>41.83940199203789234161376953125</LatitudeDegrees>
              <LongitudeDegrees>-1.844088099896907806396484375</LongitudeDegrees>
            </Position>
            <AltitudeMeters>936.4000244140625</AltitudeMeters>
            <DistanceMeters>426457.95894896</DistanceMeters>
          </Trackpoint>
          <Trackpoint>
            <Time>2021-08-02T07:28:11.000Z</Time>
            <Position>
              <LatitudeDegrees>41.83934382162988185882568359375</LatitudeDegrees>
              <LongitudeDegrees>-1.8439021892845630645751953125</LongitudeDegrees>
            </Position>
            <AltitudeMeters>937.5999755859375</AltitudeMeters>
            <DistanceMeters>426474.67933073</DistanceMeters>
          </Trackpoint>
          <Trackpoint>
            <Time>2021-08-02T07:28:14.000Z</Time>
            <Position>
              <LatitudeDegrees>41.8393236212432384490966796875</LatitudeDegrees>
              <LongitudeDegrees>-1.84381225146353244781494140625</LongitudeDegrees>
            </Position>
            <AltitudeMeters>938</AltitudeMeters>
            <DistanceMeters>426482.46920324</DistanceMeters>
          </Trackpoint>
          <Trackpoint>
            <Time>2021-08-02T07:28:18.000Z</Time>
            <Position>
              <LatitudeDegrees>41.83930509723722934722900390625</LatitudeDegrees>
              <LongitudeDegrees>-1.843693815171718597412109375</LongitudeDegrees>
            </Position>
            <AltitudeMeters>938.5999755859375</AltitudeMeters>
            <DistanceMeters>426492.50431224</DistanceMeters>
          </Trackpoint>
          <Trackpoint>
            <Time>2021-08-02T07:28:23.000Z</Time>
            <Position>
              <LatitudeDegrees>41.83930023573338985443115234375</LatitudeDegrees>
              <LongitudeDegrees>-1.843534894287586212158203125</LongitudeDegrees>
            </Position>
            <AltitudeMeters>939.79998779296875</AltitudeMeters>
            <DistanceMeters>426505.69352725</DistanceMeters>
          </Trackpoint>
          <Trackpoint>
            <Time>2021-08-02T07:28:28.000Z</Time>
            <Position>
              <LatitudeDegrees>41.83929990045726299285888671875</LatitudeDegrees>
              <LongitudeDegrees>-1.843388043344020843505859375</LongitudeDegrees>
            </Position>
            <AltitudeMeters>940.79998779296875</AltitudeMeters>
            <DistanceMeters>426517.87067327</DistanceMeters>
          </Trackpoint>
          <Trackpoint>
            <Time>2021-08-02T07:28:34.000Z</Time>
            <Position>
              <LatitudeDegrees>41.8393105454742908477783203125</LatitudeDegrees>
              <LongitudeDegrees>-1.84321696870028972625732421875</LongitudeDegrees>
            </Position>
            <AltitudeMeters>941.79998779296875</AltitudeMeters>
            <DistanceMeters>426532.1056624</DistanceMeters>
          </Trackpoint>
          <Trackpoint>
            <Time>2021-08-02T07:28:41.000Z</Time>
            <Position>
              <LatitudeDegrees>41.83932320214807987213134765625</LatitudeDegrees>
              <LongitudeDegrees>-1.84301177971065044403076171875</LongitudeDegrees>
            </Position>
            <AltitudeMeters>943</AltitudeMeters>
            <DistanceMeters>426549.17823711</DistanceMeters>
          </Trackpoint>
          <Trackpoint>
            <Time>2021-08-02T07:28:50.000Z</Time>
            <Position>
              <LatitudeDegrees>41.83934063650667667388916015625</LatitudeDegrees>
              <LongitudeDegrees>-1.84274892322719097137451171875</LongitudeDegrees>
            </Position>
            <AltitudeMeters>944.20001220703125</AltitudeMeters>
            <DistanceMeters>426571.06101399</DistanceMeters>
          </Trackpoint>
          <Trackpoint>
            <Time>2021-08-02T07:28:56.000Z</Time>
            <Position>
              <LatitudeDegrees>41.839349269866943359375</LatitudeDegrees>
              <LongitudeDegrees>-1.8425711430609226226806640625</LongitudeDegrees>
            </Position>
            <AltitudeMeters>945.4000244140625</AltitudeMeters>
            <DistanceMeters>426585.83392458</DistanceMeters>
          </Trackpoint>
          <Trackpoint>
            <Time>2021-08-02T07:29:03.000Z</Time>
            <Position>
              <LatitudeDegrees>41.8393655307590961456298828125</LatitudeDegrees>
              <LongitudeDegrees>-1.84236687608063220977783203125</LongitudeDegrees>
            </Position>
            <AltitudeMeters>946.4000244140625</AltitudeMeters>
            <DistanceMeters>426602.86810922</DistanceMeters>
          </Trackpoint>
          <Trackpoint>
            <Time>2021-08-02T07:29:12.000Z</Time>
            <Position>
              <LatitudeDegrees>41.8393827974796295166015625</LatitudeDegrees>
              <LongitudeDegrees>-1.84209630824625492095947265625</LongitudeDegrees>
            </Position>
            <AltitudeMeters>947.4000244140625</AltitudeMeters>
            <DistanceMeters>426625.38603214</DistanceMeters>
          </Trackpoint>
          <Trackpoint>
            <Time>2021-08-02T07:29:21.000Z</Time>
            <Position>
              <LatitudeDegrees>41.8393993936479091644287109375</LatitudeDegrees>
              <LongitudeDegrees>-1.84182238765060901641845703125</LongitudeDegrees>
            </Position>
            <AltitudeMeters>948.79998779296875</AltitudeMeters>
            <DistanceMeters>426648.17501537</DistanceMeters>
          </Trackpoint>
          <Trackpoint>
            <Time>2021-08-02T07:29:30.000Z</Time>
            <Position>
              <LatitudeDegrees>41.83941607363522052764892578125</LatitudeDegrees>
              <LongitudeDegrees>-1.84153891168534755706787109375</LongitudeDegrees>
            </Position>
            <AltitudeMeters>949.79998779296875</AltitudeMeters>
            <DistanceMeters>426671.75447331</DistanceMeters>
          </Trackpoint>
          <Trackpoint>
            <Time>2021-08-02T07:29:44.000Z</Time>
            <Position>
              <LatitudeDegrees>41.839444153010845184326171875</LatitudeDegrees>
              <LongitudeDegrees>-1.84107564389705657958984375</LongitudeDegrees>
            </Position>
            <AltitudeMeters>950.79998779296875</AltitudeMeters>
            <DistanceMeters>426710.29644647</DistanceMeters>
          </Trackpoint>
          <Trackpoint>
            <Time>2021-08-02T07:29:50.000Z</Time>
            <Position>
              <LatitudeDegrees>41.8394553847610950469970703125</LatitudeDegrees>
              <LongitudeDegrees>-1.8408823572099208831787109375</LongitudeDegrees>
            </Position>
            <AltitudeMeters>951.79998779296875</AltitudeMeters>
            <DistanceMeters>426726.372821</DistanceMeters>
          </Trackpoint>
          <Trackpoint>
            <Time>2021-08-02T07:30:03.000Z</Time>
            <Position>
              <LatitudeDegrees>41.83943568728864192962646484375</LatitudeDegrees>
              <LongitudeDegrees>-1.84046435169875621795654296875</LongitudeDegrees>
            </Position>
            <AltitudeMeters>952.79998779296875</AltitudeMeters>
            <DistanceMeters>426761.10375262</DistanceMeters>
          </Trackpoint>
          <Trackpoint>
            <Time>2021-08-02T07:30:13.000Z</Time>
            <Position>
              <LatitudeDegrees>41.839317418634891510009765625</LatitudeDegrees>
              <LongitudeDegrees>-1.84019587934017181396484375</LongitudeDegrees>
            </Position>
            <AltitudeMeters>954</AltitudeMeters>
            <DistanceMeters>426786.96673548</DistanceMeters>
          </Trackpoint>
          <Trackpoint>
            <Time>2021-08-02T07:30:19.000Z</Time>
            <Position>
              <LatitudeDegrees>41.83920484967529773712158203125</LatitudeDegrees>
              <LongitudeDegrees>-1.840077526867389678955078125</LongitudeDegrees>
            </Position>
            <AltitudeMeters>955</AltitudeMeters>
            <DistanceMeters>426802.88222084</DistanceMeters>
          </Trackpoint>
          <Trackpoint>
            <Time>2021-08-02T07:30:25.000Z</Time>
            <Position>
              <LatitudeDegrees>41.83907501399517059326171875</LatitudeDegrees>
              <LongitudeDegrees>-1.83999815024435520172119140625</LongitudeDegrees>
            </Position>
            <AltitudeMeters>956</AltitudeMeters>
            <DistanceMeters>426818.76163691</DistanceMeters>
          </Trackpoint>
          <Trackpoint>
            <Time>2021-08-02T07:30:33.000Z</Time>
            <Position>
              <LatitudeDegrees>41.83889069594442844390869140625</LatitudeDegrees>
              <LongitudeDegrees>-1.839912571012973785400390625</LongitudeDegrees>
            </Position>
            <AltitudeMeters>957.20001220703125</AltitudeMeters>
            <DistanceMeters>426840.46936616</DistanceMeters>
          </Trackpoint>
          <Trackpoint>
            <Time>2021-08-02T07:30:40.000Z</Time>
            <Position>
              <LatitudeDegrees>41.838719286024570465087890625</LatitudeDegrees>
              <LongitudeDegrees>-1.83985649608075618743896484375</LongitudeDegrees>
            </Position>
            <AltitudeMeters>958.20001220703125</AltitudeMeters>
            <DistanceMeters>426860.10612568</DistanceMeters>
          </Trackpoint>
          <Trackpoint>
            <Time>2021-08-02T07:30:49.000Z</Time>
            <Position>
              <LatitudeDegrees>41.838510744273662567138671875</LatitudeDegrees>
              <LongitudeDegrees>-1.839779131114482879638671875</LongitudeDegrees>
            </Position>
            <AltitudeMeters>959.20001220703125</AltitudeMeters>
            <DistanceMeters>426884.18747757</DistanceMeters>
          </Trackpoint>
          <Trackpoint>
            <Time>2021-08-02T07:30:57.000Z</Time>
            <Position>
              <LatitudeDegrees>41.8383214809000492095947265625</LatitudeDegrees>
              <LongitudeDegrees>-1.8397005088627338409423828125</LongitudeDegrees>
            </Position>
            <AltitudeMeters>960.4000244140625</AltitudeMeters>
            <DistanceMeters>426906.23858993</DistanceMeters>
          </Trackpoint>
          <Trackpoint>
            <Time>2021-08-02T07:31:05.000Z</Time>
            <Position>
              <LatitudeDegrees>41.8381384201347827911376953125</LatitudeDegrees>
              <LongitudeDegrees>-1.83962079696357250213623046875</LongitudeDegrees>
            </Position>
            <AltitudeMeters>961.4000244140625</AltitudeMeters>
            <DistanceMeters>426927.65905315</DistanceMeters>
          </Trackpoint>
          <Trackpoint>
            <Time>2021-08-02T07:31:11.000Z</Time>
            <Position>
              <LatitudeDegrees>41.83800959028303623199462890625</LatitudeDegrees>
              <LongitudeDegrees>-1.83954502455890178680419921875</LongitudeDegrees>
            </Position>
            <AltitudeMeters>962.5999755859375</AltitudeMeters>
            <DistanceMeters>426943.31454212</DistanceMeters>
          </Trackpoint>
          <Trackpoint>
            <Time>2021-08-02T07:31:20.000Z</Time>
            <Position>
              <LatitudeDegrees>41.8378417007625102996826171875</LatitudeDegrees>
              <LongitudeDegrees>-1.839468665421009063720703125</LongitudeDegrees>
            </Position>
            <AltitudeMeters>963.5999755859375</AltitudeMeters>
            <DistanceMeters>426963.04466035</DistanceMeters>
          </Trackpoint>
          <Trackpoint>
            <Time>2021-08-02T07:31:28.000Z</Time>
            <Position>
              <LatitudeDegrees>41.837675236165523529052734375</LatitudeDegrees>
              <LongitudeDegrees>-1.83938392437994480133056640625</LongitudeDegrees>
            </Position>
            <AltitudeMeters>964.5999755859375</AltitudeMeters>
            <DistanceMeters>426982.86040772</DistanceMeters>
          </Trackpoint>
          <Trackpoint>
            <Time>2021-08-02T07:31:34.000Z</Time>
            <Position>
              <LatitudeDegrees>41.83754791505634784698486328125</LatitudeDegrees>
              <LongitudeDegrees>-1.8393099121749401092529296875</LongitudeDegrees>
            </Position>
            <AltitudeMeters>965.79998779296875</AltitudeMeters>
            <DistanceMeters>426998.30334523</DistanceMeters>
          </Trackpoint>
          <Trackpoint>
            <Time>2021-08-02T07:31:41.000Z</Time>
            <Position>
              <LatitudeDegrees>41.83739284984767436981201171875</LatitudeDegrees>
              <LongitudeDegrees>-1.839222572743892669677734375</LongitudeDegrees>
            </Position>
            <AltitudeMeters>966.79998779296875</AltitudeMeters>
            <DistanceMeters>427017.0204723</DistanceMeters>
          </Trackpoint>
          <Trackpoint>
            <Time>2021-08-02T07:31:48.000Z</Time>
            <Position>
              <LatitudeDegrees>41.83723694644868373870849609375</LatitudeDegrees>
              <LongitudeDegrees>-1.839130036532878875732421875</LongitudeDegrees>
            </Position>
            <AltitudeMeters>968</AltitudeMeters>
            <DistanceMeters>427035.99395452</DistanceMeters>
          </Trackpoint>
          <Trackpoint>
            <Time>2021-08-02T07:31:55.000Z</Time>
            <Position>
              <LatitudeDegrees>41.8370734155178070068359375</LatitudeDegrees>
              <LongitudeDegrees>-1.839036159217357635498046875</LongitudeDegrees>
            </Position>
            <AltitudeMeters>969</AltitudeMeters>
            <DistanceMeters>427055.79009701</DistanceMeters>
          </Trackpoint>
          <Trackpoint>
            <Time>2021-08-02T07:32:00.000Z</Time>
            <Position>
              <LatitudeDegrees>41.836959086358547210693359375</LatitudeDegrees>
              <LongitudeDegrees>-1.83896264992654323577880859375</LongitudeDegrees>
            </Position>
            <AltitudeMeters>970.20001220703125</AltitudeMeters>
            <DistanceMeters>427069.90020422</DistanceMeters>
          </Trackpoint>
          <Trackpoint>
            <Time>2021-08-02T07:32:08.000Z</Time>
            <Position>
              <LatitudeDegrees>41.836788095533847808837890625</LatitudeDegrees>
              <LongitudeDegrees>-1.83885745704174041748046875</LongitudeDegrees>
            </Position>
            <AltitudeMeters>971.20001220703125</AltitudeMeters>
            <DistanceMeters>427090.835864</DistanceMeters>
          </Trackpoint>
          <Trackpoint>
            <Time>2021-08-02T07:32:16.000Z</Time>
            <Position>
              <LatitudeDegrees>41.836606375873088836669921875</LatitudeDegrees>
              <LongitudeDegrees>-1.8387671001255512237548828125</LongitudeDegrees>
            </Position>
            <AltitudeMeters>972.20001220703125</AltitudeMeters>
            <DistanceMeters>427112.40462563</DistanceMeters>
          </Trackpoint>
          <Trackpoint>
            <Time>2021-08-02T07:32:25.000Z</Time>
            <Position>
              <LatitudeDegrees>41.83639640919864177703857421875</LatitudeDegrees>
              <LongitudeDegrees>-1.838689483702182769775390625</LongitudeDegrees>
            </Position>
            <AltitudeMeters>973.4000244140625</AltitudeMeters>
            <DistanceMeters>427136.64444853</DistanceMeters>
          </Trackpoint>
          <Trackpoint>
            <Time>2021-08-02T07:32:34.000Z</Time>
            <Position>
              <LatitudeDegrees>41.83619222603738307952880859375</LatitudeDegrees>
              <LongitudeDegrees>-1.8386390246450901031494140625</LongitudeDegrees>
            </Position>
            <AltitudeMeters>974.4000244140625</AltitudeMeters>
            <DistanceMeters>427159.75255404</DistanceMeters>
          </Trackpoint>
          <Trackpoint>
            <Time>2021-08-02T07:32:42.000Z</Time>
            <Position>
              <LatitudeDegrees>41.8360070697963237762451171875</LatitudeDegrees>
              <LongitudeDegrees>-1.83861513622105121612548828125</LongitudeDegrees>
            </Position>
            <AltitudeMeters>975.5999755859375</AltitudeMeters>
            <DistanceMeters>427180.45573275</DistanceMeters>
          </Trackpoint>
          <Trackpoint>
            <Time>2021-08-02T07:32:48.000Z</Time>
            <Position>
              <LatitudeDegrees>41.83586700819432735443115234375</LatitudeDegrees>
              <LongitudeDegrees>-1.83860323391854763031005859375</LongitudeDegrees>
            </Position>
            <AltitudeMeters>976.5999755859375</AltitudeMeters>
            <DistanceMeters>427196.07657541</DistanceMeters>
          </Trackpoint>
          <Trackpoint>
            <Time>2021-08-02T07:32:54.000Z</Time>
            <Position>
              <LatitudeDegrees>41.8357294611632823944091796875</LatitudeDegrees>
              <LongitudeDegrees>-1.838592924177646636962890625</LongitudeDegrees>
            </Position>
            <AltitudeMeters>977.5999755859375</AltitudeMeters>
            <DistanceMeters>427211.40977698</DistanceMeters>
          </Trackpoint>
          <Trackpoint>
            <Time>2021-08-02T07:33:01.000Z</Time>
            <Position>
              <LatitudeDegrees>41.83557297103106975555419921875</LatitudeDegrees>
              <LongitudeDegrees>-1.83856534771621227264404296875</LongitudeDegrees>
            </Position>
            <AltitudeMeters>978.5999755859375</AltitudeMeters>
            <DistanceMeters>427228.976873</DistanceMeters>
          </Trackpoint>
          <Trackpoint>
            <Time>2021-08-02T07:33:07.000Z</Time>
            <Position>
              <LatitudeDegrees>41.83544355444610118865966796875</LatitudeDegrees>
              <LongitudeDegrees>-1.8385189957916736602783203125</LongitudeDegrees>
            </Position>
            <AltitudeMeters>979.5999755859375</AltitudeMeters>
            <DistanceMeters>427243.88547124</DistanceMeters>
          </Trackpoint>
          <Trackpoint>
            <Time>2021-08-02T07:33:14.000Z</Time>
            <Position>
              <LatitudeDegrees>41.835313551127910614013671875</LatitudeDegrees>
              <LongitudeDegrees>-1.838421262800693511962890625</LongitudeDegrees>
            </Position>
            <AltitudeMeters>980.79998779296875</AltitudeMeters>
            <DistanceMeters>427260.47028744</DistanceMeters>
          </Trackpoint>
          <Trackpoint>
            <Time>2021-08-02T07:33:23.000Z</Time>
            <Position>
              <LatitudeDegrees>41.8351869843900203704833984375</LatitudeDegrees>
              <LongitudeDegrees>-1.838216744363307952880859375</LongitudeDegrees>
            </Position>
            <AltitudeMeters>982</AltitudeMeters>
            <DistanceMeters>427282.51791872</DistanceMeters>
          </Trackpoint>
          <Trackpoint>
            <Time>2021-08-02T07:33:32.000Z</Time>
            <Position>
              <LatitudeDegrees>41.8351393751800060272216796875</LatitudeDegrees>
              <LongitudeDegrees>-1.8379448354244232177734375</LongitudeDegrees>
            </Position>
            <AltitudeMeters>983.20001220703125</AltitudeMeters>
            <DistanceMeters>427305.68105802</DistanceMeters>
          </Trackpoint>
          <Trackpoint>
            <Time>2021-08-02T07:33:38.000Z</Time>
            <Position>
              <LatitudeDegrees>41.83515035547316074371337890625</LatitudeDegrees>
              <LongitudeDegrees>-1.8377490341663360595703125</LongitudeDegrees>
            </Position>
            <AltitudeMeters>984.20001220703125</AltitudeMeters>
            <DistanceMeters>427321.96421203</DistanceMeters>
          </Trackpoint>
          <Trackpoint>
            <Time>2021-08-02T07:33:44.000Z</Time>
            <Position>
              <LatitudeDegrees>41.83517985977232456207275390625</LatitudeDegrees>
              <LongitudeDegrees>-1.83755926787853240966796875</LongitudeDegrees>
            </Position>
            <AltitudeMeters>985.20001220703125</AltitudeMeters>
            <DistanceMeters>427338.0403057</DistanceMeters>
          </Trackpoint>
          <Trackpoint>
            <Time>2021-08-02T07:33:55.000Z</Time>
            <Position>
              <LatitudeDegrees>41.83524892665445804595947265625</LatitudeDegrees>
              <LongitudeDegrees>-1.83721686713397502899169921875</LongitudeDegrees>
            </Position>
            <AltitudeMeters>986.20001220703125</AltitudeMeters>
            <DistanceMeters>427367.45686848</DistanceMeters>
          </Trackpoint>
          <Trackpoint>
            <Time>2021-08-02T07:34:05.000Z</Time>
            <Position>
              <LatitudeDegrees>41.8352765031158924102783203125</LatitudeDegrees>
              <LongitudeDegrees>-1.8368858657777309417724609375</LongitudeDegrees>
            </Position>
            <AltitudeMeters>987.4000244140625</AltitudeMeters>
            <DistanceMeters>427395.07680436</DistanceMeters>
          </Trackpoint>
          <Trackpoint>
            <Time>2021-08-02T07:34:13.000Z</Time>
            <Position>
              <LatitudeDegrees>41.8352441489696502685546875</LatitudeDegrees>
              <LongitudeDegrees>-1.836623847484588623046875</LongitudeDegrees>
            </Position>
            <AltitudeMeters>988.4000244140625</AltitudeMeters>
            <DistanceMeters>427417.1016927</DistanceMeters>
          </Trackpoint>
          <Trackpoint>
            <Time>2021-08-02T07:34:22.000Z</Time>
            <Position>
              <LatitudeDegrees>41.83515974320471286773681640625</LatitudeDegrees>
              <LongitudeDegrees>-1.8363514356315135955810546875</LongitudeDegrees>
            </Position>
            <AltitudeMeters>989.5999755859375</AltitudeMeters>
            <DistanceMeters>427441.56770397</DistanceMeters>
          </Trackpoint>
          <Trackpoint>
            <Time>2021-08-02T07:34:29.000Z</Time>
            <Position>
              <LatitudeDegrees>41.83507810346782207489013671875</LatitudeDegrees>
              <LongitudeDegrees>-1.83615873567759990692138671875</LongitudeDegrees>
            </Position>
            <AltitudeMeters>990.79998779296875</AltitudeMeters>
            <DistanceMeters>427459.95089142</DistanceMeters>
          </Trackpoint>
          <Trackpoint>
            <Time>2021-08-02T07:34:36.000Z</Time>
            <Position>
              <LatitudeDegrees>41.83497852645814418792724609375</LatitudeDegrees>
              <LongitudeDegrees>-1.83597450144588947296142578125</LongitudeDegrees>
            </Position>
            <AltitudeMeters>991.79998779296875</AltitudeMeters>
            <DistanceMeters>427478.82583793</DistanceMeters>
          </Trackpoint>
          <Trackpoint>
            <Time>2021-08-02T07:34:43.000Z</Time>
            <Position>
              <LatitudeDegrees>41.8348550610244274139404296875</LatitudeDegrees>
              <LongitudeDegrees>-1.83581775985658168792724609375</LongitudeDegrees>
            </Position>
            <AltitudeMeters>993</AltitudeMeters>
            <DistanceMeters>427497.7411674</DistanceMeters>
          </Trackpoint>
          <Trackpoint>
            <Time>2021-08-02T07:34:48.000Z</Time>
            <Position>
              <LatitudeDegrees>41.8347533047199249267578125</LatitudeDegrees>
              <LongitudeDegrees>-1.83573159389197826385498046875</LongitudeDegrees>
            </Position>
            <AltitudeMeters>994</AltitudeMeters>
            <DistanceMeters>427511.1328558</DistanceMeters>
          </Trackpoint>
          <Trackpoint>
            <Time>2021-08-02T07:34:57.000Z</Time>
            <Position>
              <LatitudeDegrees>41.8345546536147594451904296875</LatitudeDegrees>
              <LongitudeDegrees>-1.8356269039213657379150390625</LongitudeDegrees>
            </Position>
            <AltitudeMeters>995</AltitudeMeters>
            <DistanceMeters>427534.88649334</DistanceMeters>
          </Trackpoint>
          <Trackpoint>
            <Time>2021-08-02T07:35:04.000Z</Time>
            <Position>
              <LatitudeDegrees>41.83439581654965877532958984375</LatitudeDegrees>
              <LongitudeDegrees>-1.8355923704802989959716796875</LongitudeDegrees>
            </Position>
            <AltitudeMeters>996</AltitudeMeters>
            <DistanceMeters>427552.79568889</DistanceMeters>
          </Trackpoint>
          <Trackpoint>
            <Time>2021-08-02T07:35:10.000Z</Time>
            <Position>
              <LatitudeDegrees>41.83426036499440670013427734375</LatitudeDegrees>
              <LongitudeDegrees>-1.83557133190333843231201171875</LongitudeDegrees>
            </Position>
            <AltitudeMeters>997.20001220703125</AltitudeMeters>
            <DistanceMeters>427567.97261842</DistanceMeters>
          </Trackpoint>
          <Trackpoint>
            <Time>2021-08-02T07:35:17.000Z</Time>
            <Position>
              <LatitudeDegrees>41.834103874862194061279296875</LatitudeDegrees>
              <LongitudeDegrees>-1.83555037714540958404541015625</LongitudeDegrees>
            </Position>
            <AltitudeMeters>998.20001220703125</AltitudeMeters>
            <DistanceMeters>427585.47663207</DistanceMeters>
          </Trackpoint>
          <Trackpoint>
            <Time>2021-08-02T07:35:25.000Z</Time>
            <Position>
              <LatitudeDegrees>41.83392391540110111236572265625</LatitudeDegrees>
              <LongitudeDegrees>-1.83552238158881664276123046875</LongitudeDegrees>
            </Position>
            <AltitudeMeters>999.20001220703125</AltitudeMeters>
            <DistanceMeters>427605.64044103</DistanceMeters>
          </Trackpoint>
          <Trackpoint>
            <Time>2021-08-02T07:35:32.000Z</Time>
            <Position>
              <LatitudeDegrees>41.83376382105052471160888671875</LatitudeDegrees>
              <LongitudeDegrees>-1.8354948051273822784423828125</LongitudeDegrees>
            </Position>
            <AltitudeMeters>1000.4000244140625</AltitudeMeters>
            <DistanceMeters>427623.60526589</DistanceMeters>
          </Trackpoint>
          <Trackpoint>
            <Time>2021-08-02T07:35:40.000Z</Time>
            <Position>
              <LatitudeDegrees>41.83357975445687770843505859375</LatitudeDegrees>
              <LongitudeDegrees>-1.83546756394207477569580078125</LongitudeDegrees>
            </Position>
            <AltitudeMeters>1001.4000244140625</AltitudeMeters>
            <DistanceMeters>427644.21620755</DistanceMeters>
          </Trackpoint>
          <Trackpoint>
            <Time>2021-08-02T07:35:46.000Z</Time>
            <Position>
              <LatitudeDegrees>41.8334432132542133331298828125</LatitudeDegrees>
              <LongitudeDegrees>-1.83544493280351161956787109375</LongitudeDegrees>
            </Position>
            <AltitudeMeters>1002.5999755859375</AltitudeMeters>
            <DistanceMeters>427659.52878294</DistanceMeters>
          </Trackpoint>
          <Trackpoint>
            <Time>2021-08-02T07:35:52.000Z</Time>
            <Position>
              <LatitudeDegrees>41.83330692350864410400390625</LatitudeDegrees>
              <LongitudeDegrees>-1.83542498387396335601806640625</LongitudeDegrees>
            </Position>
            <AltitudeMeters>1003.79998779296875</AltitudeMeters>
            <DistanceMeters>427674.78819155</DistanceMeters>
          </Trackpoint>
          <Trackpoint>
            <Time>2021-08-02T07:36:01.000Z</Time>
            <Position>
              <LatitudeDegrees>41.8330982141196727752685546875</LatitudeDegrees>
              <LongitudeDegrees>-1.83539262972772121429443359375</LongitudeDegrees>
            </Position>
            <AltitudeMeters>1004.79998779296875</AltitudeMeters>
            <DistanceMeters>427698.17248776</DistanceMeters>
          </Trackpoint>
          <Trackpoint>
            <Time>2021-08-02T07:36:09.000Z</Time>
            <Position>
              <LatitudeDegrees>41.8329186737537384033203125</LatitudeDegrees>
              <LongitudeDegrees>-1.835363544523715972900390625</LongitudeDegrees>
            </Position>
            <AltitudeMeters>1006</AltitudeMeters>
            <DistanceMeters>427718.30111091</DistanceMeters>
          </Trackpoint>
          <Trackpoint>
            <Time>2021-08-02T07:36:16.000Z</Time>
            <Position>
              <LatitudeDegrees>41.8327577412128448486328125</LatitudeDegrees>
              <LongitudeDegrees>-1.83533865027129650115966796875</LongitudeDegrees>
            </Position>
            <AltitudeMeters>1007.20001220703125</AltitudeMeters>
            <DistanceMeters>427736.3319135</DistanceMeters>
          </Trackpoint>
          <Trackpoint>
            <Time>2021-08-02T07:36:22.000Z</Time>
            <Position>
              <LatitudeDegrees>41.8326174281537532806396484375</LatitudeDegrees>
              <LongitudeDegrees>-1.835320293903350830078125</LongitudeDegrees>
            </Position>
            <AltitudeMeters>1008.4000244140625</AltitudeMeters>
            <DistanceMeters>427752.02312328</DistanceMeters>
          </Trackpoint>
          <Trackpoint>
            <Time>2021-08-02T07:36:31.000Z</Time>
            <Position>
              <LatitudeDegrees>41.83241106569766998291015625</LatitudeDegrees>
              <LongitudeDegrees>-1.835290454328060150146484375</LongitudeDegrees>
            </Position>
            <AltitudeMeters>1009.4000244140625</AltitudeMeters>
            <DistanceMeters>427775.12458466</DistanceMeters>
          </Trackpoint>
          <Trackpoint>
            <Time>2021-08-02T07:36:38.000Z</Time>
            <Position>
              <LatitudeDegrees>41.8322583474218845367431640625</LatitudeDegrees>
              <LongitudeDegrees>-1.83526623062789440155029296875</LongitudeDegrees>
            </Position>
            <AltitudeMeters>1010.5999755859375</AltitudeMeters>
            <DistanceMeters>427792.24073989</DistanceMeters>
          </Trackpoint>
          <Trackpoint>
            <Time>2021-08-02T07:36:46.000Z</Time>
            <Position>
              <LatitudeDegrees>41.8320898711681365966796875</LatitudeDegrees>
              <LongitudeDegrees>-1.83524913154542446136474609375</LongitudeDegrees>
            </Position>
            <AltitudeMeters>1011.5999755859375</AltitudeMeters>
            <DistanceMeters>427811.04618814</DistanceMeters>
          </Trackpoint>
          <Trackpoint>
            <Time>2021-08-02T07:36:55.000Z</Time>
            <Position>
              <LatitudeDegrees>41.83188811875879764556884765625</LatitudeDegrees>
              <LongitudeDegrees>-1.83521677739918231964111328125</LongitudeDegrees>
            </Position>
            <AltitudeMeters>1012.5999755859375</AltitudeMeters>
            <DistanceMeters>427833.66134831</DistanceMeters>
          </Trackpoint>
          <Trackpoint>
            <Time>2021-08-02T07:37:05.000Z</Time>
            <Position>
              <LatitudeDegrees>41.83166247792541980743408203125</LatitudeDegrees>
              <LongitudeDegrees>-1.83518308214843273162841796875</LongitudeDegrees>
            </Position>
            <AltitudeMeters>1013.79998779296875</AltitudeMeters>
            <DistanceMeters>427858.93059376</DistanceMeters>
          </Trackpoint>
          <Trackpoint>
            <Time>2021-08-02T07:37:13.000Z</Time>
            <Position>
              <LatitudeDegrees>41.8314754776656627655029296875</LatitudeDegrees>
              <LongitudeDegrees>-1.83515466749668121337890625</LongitudeDegrees>
            </Position>
            <AltitudeMeters>1015</AltitudeMeters>
            <DistanceMeters>427879.8770339</DistanceMeters>
          </Trackpoint>
          <Trackpoint>
            <Time>2021-08-02T07:37:20.000Z</Time>
            <Position>
              <LatitudeDegrees>41.83131161145865917205810546875</LatitudeDegrees>
              <LongitudeDegrees>-1.83513027615845203399658203125</LongitudeDegrees>
            </Position>
            <AltitudeMeters>1016</AltitudeMeters>
            <DistanceMeters>427898.2272805</DistanceMeters>
          </Trackpoint>
          <Trackpoint>
            <Time>2021-08-02T07:37:32.000Z</Time>
            <Position>
              <LatitudeDegrees>41.83100936003029346466064453125</LatitudeDegrees>
              <LongitudeDegrees>-1.83507881127297878265380859375</LongitudeDegrees>
            </Position>
            <AltitudeMeters>1017</AltitudeMeters>
            <DistanceMeters>427932.13810643</DistanceMeters>
          </Trackpoint>
          <Trackpoint>
            <Time>2021-08-02T07:37:48.000Z</Time>
            <Position>
              <LatitudeDegrees>41.83052622713148593902587890625</LatitudeDegrees>
              <LongitudeDegrees>-1.83498702943325042724609375</LongitudeDegrees>
            </Position>
            <AltitudeMeters>1016</AltitudeMeters>
            <DistanceMeters>427986.44784818</DistanceMeters>
          </Trackpoint>
          <Trackpoint>
            <Time>2021-08-02T07:37:56.000Z</Time>
            <Position>
              <LatitudeDegrees>41.83023135177791118621826171875</LatitudeDegrees>
              <LongitudeDegrees>-1.83487362228333950042724609375</LongitudeDegrees>
            </Position>
            <AltitudeMeters>1014.79998779296875</AltitudeMeters>
            <DistanceMeters>428020.58916271</DistanceMeters>
          </Trackpoint>
          <Trackpoint>
            <Time>2021-08-02T07:38:04.000Z</Time>
            <Position>
              <LatitudeDegrees>41.82994167320430278778076171875</LatitudeDegrees>
              <LongitudeDegrees>-1.834640018641948699951171875</LongitudeDegrees>
            </Position>
            <AltitudeMeters>1014.79998779296875</AltitudeMeters>
            <DistanceMeters>428058.20402051</DistanceMeters>
          </Trackpoint>
          <Trackpoint>
            <Time>2021-08-02T07:38:18.000Z</Time>
            <Position>
              <LatitudeDegrees>41.8296254239976406097412109375</LatitudeDegrees>
              <LongitudeDegrees>-1.834049262106418609619140625</LongitudeDegrees>
            </Position>
            <AltitudeMeters>1015.4000244140625</AltitudeMeters>
            <DistanceMeters>428118.53139166</DistanceMeters>
          </Trackpoint>
          <Trackpoint>
            <Time>2021-08-02T07:38:20.000Z</Time>
            <Position>
              <LatitudeDegrees>41.82959608733654022216796875</LatitudeDegrees>
              <LongitudeDegrees>-1.83397491462528705596923828125</LongitudeDegrees>
            </Position>
            <AltitudeMeters>1015.79998779296875</AltitudeMeters>
            <DistanceMeters>428125.50793178</DistanceMeters>
          </Trackpoint>
          <Trackpoint>
            <Time>2021-08-02T07:38:25.000Z</Time>
            <Position>
              <LatitudeDegrees>41.8295359052717685699462890625</LatitudeDegrees>
              <LongitudeDegrees>-1.83379336260259151458740234375</LongitudeDegrees>
            </Position>
            <AltitudeMeters>1017</AltitudeMeters>
            <DistanceMeters>428141.98760256</DistanceMeters>
          </Trackpoint>
          <Trackpoint>
            <Time>2021-08-02T07:38:31.000Z</Time>
            <Position>
              <LatitudeDegrees>41.82947396300733089447021484375</LatitudeDegrees>
              <LongitudeDegrees>-1.833597980439662933349609375</LongitudeDegrees>
            </Position>
            <AltitudeMeters>1018</AltitudeMeters>
            <DistanceMeters>428159.59705528</DistanceMeters>
          </Trackpoint>
          <Trackpoint>
            <Time>2021-08-02T07:38:36.000Z</Time>
            <Position>
              <LatitudeDegrees>41.8294299580156803131103515625</LatitudeDegrees>
              <LongitudeDegrees>-1.83344350196421146392822265625</LongitudeDegrees>
            </Position>
            <AltitudeMeters>1019.20001220703125</AltitudeMeters>
            <DistanceMeters>428173.31319951</DistanceMeters>
          </Trackpoint>
          <Trackpoint>
            <Time>2021-08-02T07:38:42.000Z</Time>
            <Position>
              <LatitudeDegrees>41.82938260026276111602783203125</LatitudeDegrees>
              <LongitudeDegrees>-1.833274774253368377685546875</LongitudeDegrees>
            </Position>
            <AltitudeMeters>1020.20001220703125</AltitudeMeters>
            <DistanceMeters>428188.26655207</DistanceMeters>
          </Trackpoint>
          <Trackpoint>
            <Time>2021-08-02T07:38:47.000Z</Time>
            <Position>
              <LatitudeDegrees>41.8293411098420619964599609375</LatitudeDegrees>
              <LongitudeDegrees>-1.83313756249845027923583984375</LongitudeDegrees>
            </Position>
            <AltitudeMeters>1021.5999755859375</AltitudeMeters>
            <DistanceMeters>428200.54744523</DistanceMeters>
          </Trackpoint>
          <Trackpoint>
            <Time>2021-08-02T07:38:55.000Z</Time>
            <Position>
              <LatitudeDegrees>41.82927648536860942840576171875</LatitudeDegrees>
              <LongitudeDegrees>-1.83291460387408733367919921875</LongitudeDegrees>
            </Position>
            <AltitudeMeters>1022.5999755859375</AltitudeMeters>
            <DistanceMeters>428220.38824039</DistanceMeters>
          </Trackpoint>
          <Trackpoint>
            <Time>2021-08-02T07:39:00.000Z</Time>
            <Position>
              <LatitudeDegrees>41.8292306363582611083984375</LatitudeDegrees>
              <LongitudeDegrees>-1.83277663774788379669189453125</LongitudeDegrees>
            </Position>
            <AltitudeMeters>1023.79998779296875</AltitudeMeters>
            <DistanceMeters>428232.91663968</DistanceMeters>
          </Trackpoint>
          <Trackpoint>
            <Time>2021-08-02T07:39:07.000Z</Time>
            <Position>
              <LatitudeDegrees>41.82916802354156970977783203125</LatitudeDegrees>
              <LongitudeDegrees>-1.83257396332919597625732421875</LongitudeDegrees>
            </Position>
            <AltitudeMeters>1024.800048828125</AltitudeMeters>
            <DistanceMeters>428251.11270472</DistanceMeters>
          </Trackpoint>
          <Trackpoint>
            <Time>2021-08-02T07:39:12.000Z</Time>
            <Position>
              <LatitudeDegrees>41.82911437936127185821533203125</LatitudeDegrees>
              <LongitudeDegrees>-1.83241336606442928314208984375</LongitudeDegrees>
            </Position>
            <AltitudeMeters>1026</AltitudeMeters>
            <DistanceMeters>428265.70912975</DistanceMeters>
          </Trackpoint>
          <Trackpoint>
            <Time>2021-08-02T07:39:22.000Z</Time>
            <Position>
              <LatitudeDegrees>41.82900055311620235443115234375</LatitudeDegrees>
              <LongitudeDegrees>-1.83211111463606357574462890625</LongitudeDegrees>
            </Position>
            <AltitudeMeters>1027.199951171875</AltitudeMeters>
            <DistanceMeters>428293.79607526</DistanceMeters>
          </Trackpoint>
          <Trackpoint>
            <Time>2021-08-02T07:39:29.000Z</Time>
            <Position>
              <LatitudeDegrees>41.82891975156962871551513671875</LatitudeDegrees>
              <LongitudeDegrees>-1.83188832364976406097412109375</LongitudeDegrees>
            </Position>
            <AltitudeMeters>1028.199951171875</AltitudeMeters>
            <DistanceMeters>428314.34558851</DistanceMeters>
          </Trackpoint>
          <Trackpoint>
            <Time>2021-08-02T07:39:39.000Z</Time>
            <Position>
              <LatitudeDegrees>41.82879067026078701019287109375</LatitudeDegrees>
              <LongitudeDegrees>-1.83159311302006244659423828125</LongitudeDegrees>
            </Position>
            <AltitudeMeters>1029.5999755859375</AltitudeMeters>
            <DistanceMeters>428342.73313951</DistanceMeters>
          </Trackpoint>
          <Trackpoint>
            <Time>2021-08-02T07:39:55.000Z</Time>
            <Position>
              <LatitudeDegrees>41.82855983264744281768798828125</LatitudeDegrees>
              <LongitudeDegrees>-1.8311097286641597747802734375</LongitudeDegrees>
            </Position>
            <AltitudeMeters>1030.5999755859375</AltitudeMeters>
            <DistanceMeters>428390.34939424</DistanceMeters>
          </Trackpoint>
          <Trackpoint>
            <Time>2021-08-02T07:40:13.000Z</Time>
            <Position>
              <LatitudeDegrees>41.82822816073894500732421875</LatitudeDegrees>
              <LongitudeDegrees>-1.83052894659340381622314453125</LongitudeDegrees>
            </Position>
            <AltitudeMeters>1030.800048828125</AltitudeMeters>
            <DistanceMeters>428451.03643303</DistanceMeters>
          </Trackpoint>
          <Trackpoint>
            <Time>2021-08-02T07:40:30.000Z</Time>
            <Position>
              <LatitudeDegrees>41.8278565071523189544677734375</LatitudeDegrees>
              <LongitudeDegrees>-1.82999334298074245452880859375</LongitudeDegrees>
            </Position>
            <AltitudeMeters>1031</AltitudeMeters>
            <DistanceMeters>428511.73537445</DistanceMeters>
          </Trackpoint>
          <Trackpoint>
            <Time>2021-08-02T07:40:38.000Z</Time>
            <Position>
              <LatitudeDegrees>41.827679313719272613525390625</LatitudeDegrees>
              <LongitudeDegrees>-1.82976015843451023101806640625</LongitudeDegrees>
            </Position>
            <AltitudeMeters>1031.800048828125</AltitudeMeters>
            <DistanceMeters>428539.35743537</DistanceMeters>
          </Trackpoint>
          <Trackpoint>
            <Time>2021-08-02T07:40:54.000Z</Time>
            <Position>
              <LatitudeDegrees>41.8273183889687061309814453125</LatitudeDegrees>
              <LongitudeDegrees>-1.8292942084372043609619140625</LongitudeDegrees>
            </Position>
            <AltitudeMeters>1032.800048828125</AltitudeMeters>
            <DistanceMeters>428595.09949367</DistanceMeters>
          </Trackpoint>
          <Trackpoint>
            <Time>2021-08-02T07:41:10.000Z</Time>
            <Position>
              <LatitudeDegrees>41.82694715447723865509033203125</LatitudeDegrees>
              <LongitudeDegrees>-1.8288211338222026824951171875</LongitudeDegrees>
            </Position>
            <AltitudeMeters>1033.800048828125</AltitudeMeters>
            <DistanceMeters>428652.07947994</DistanceMeters>
          </Trackpoint>
          <Trackpoint>
            <Time>2021-08-02T07:41:22.000Z</Time>
            <Position>
              <LatitudeDegrees>41.8265734054148197174072265625</LatitudeDegrees>
              <LongitudeDegrees>-1.82844671420753002166748046875</LongitudeDegrees>
            </Position>
            <AltitudeMeters>1032.800048828125</AltitudeMeters>
            <DistanceMeters>428703.99103542</DistanceMeters>
          </Trackpoint>
          <Trackpoint>
            <Time>2021-08-02T07:41:26.000Z</Time>
            <Position>
              <LatitudeDegrees>41.826400570571422576904296875</LatitudeDegrees>
              <LongitudeDegrees>-1.8283121846616268157958984375</LongitudeDegrees>
            </Position>
            <AltitudeMeters>1031.5999755859375</AltitudeMeters>
            <DistanceMeters>428726.22931698</DistanceMeters>
          </Trackpoint>
          <Trackpoint>
            <Time>2021-08-02T07:41:29.000Z</Time>
            <Position>
              <LatitudeDegrees>41.8262448348104953765869140625</LatitudeDegrees>
              <LongitudeDegrees>-1.82819911278784275054931640625</LongitudeDegrees>
            </Position>
            <AltitudeMeters>1030</AltitudeMeters>
            <DistanceMeters>428745.93768343</DistanceMeters>
          </Trackpoint>
          <Trackpoint>
            <Time>2021-08-02T07:41:31.000Z</Time>
            <Position>
              <LatitudeDegrees>41.82612740434706211090087890625</LatitudeDegrees>
              <LongitudeDegrees>-1.8281100131571292877197265625</LongitudeDegrees>
            </Position>
            <AltitudeMeters>1028.4000244140625</AltitudeMeters>
            <DistanceMeters>428760.95250572</DistanceMeters>
          </Trackpoint>
          <Trackpoint>
            <Time>2021-08-02T07:41:33.000Z</Time>
            <Position>
              <LatitudeDegrees>41.82600553147494792938232421875</LatitudeDegrees>
              <LongitudeDegrees>-1.82799853384494781494140625</LongitudeDegrees>
            </Position>
            <AltitudeMeters>1027.199951171875</AltitudeMeters>
            <DistanceMeters>428777.36876599</DistanceMeters>
          </Trackpoint>
          <Trackpoint>
            <Time>2021-08-02T07:41:35.000Z</Time>
            <Position>
              <LatitudeDegrees>41.82588391005992889404296875</LatitudeDegrees>
              <LongitudeDegrees>-1.82786643505096435546875</LongitudeDegrees>
            </Position>
            <AltitudeMeters>1026.199951171875</AltitudeMeters>
            <DistanceMeters>428794.78382119</DistanceMeters>
          </Trackpoint>
          <Trackpoint>
            <Time>2021-08-02T07:41:40.000Z</Time>
            <Position>
              <LatitudeDegrees>41.82561342604458332061767578125</LatitudeDegrees>
              <LongitudeDegrees>-1.82747323997318744659423828125</LongitudeDegrees>
            </Position>
            <AltitudeMeters>1025</AltitudeMeters>
            <DistanceMeters>428839.16668878</DistanceMeters>
          </Trackpoint>
          <Trackpoint>
            <Time>2021-08-02T07:41:48.000Z</Time>
            <Position>
              <LatitudeDegrees>41.8252812512218952178955078125</LatitudeDegrees>
              <LongitudeDegrees>-1.8268872611224651336669921875</LongitudeDegrees>
            </Position>
            <AltitudeMeters>1025.800048828125</AltitudeMeters>
            <DistanceMeters>428900.23198226</DistanceMeters>
          </Trackpoint>
          <Trackpoint>
            <Time>2021-08-02T07:41:49.000Z</Time>
            <Position>
              <LatitudeDegrees>41.82524529285728931427001953125</LatitudeDegrees>
              <LongitudeDegrees>-1.82682263664901256561279296875</LongitudeDegrees>
            </Position>
            <AltitudeMeters>1026</AltitudeMeters>
            <DistanceMeters>428906.920405</DistanceMeters>
          </Trackpoint>
          <Trackpoint>
            <Time>2021-08-02T07:41:58.000Z</Time>
            <Position>
              <LatitudeDegrees>41.82491789571940898895263671875</LatitudeDegrees>
              <LongitudeDegrees>-1.82624227367341518402099609375</LongitudeDegrees>
            </Position>
            <AltitudeMeters>1025</AltitudeMeters>
            <DistanceMeters>428967.29348746</DistanceMeters>
          </Trackpoint>
          <Trackpoint>
            <Time>2021-08-02T07:42:03.000Z</Time>
            <Position>
              <LatitudeDegrees>41.82471714913845062255859375</LatitudeDegrees>
              <LongitudeDegrees>-1.82588838972151279449462890625</LongitudeDegrees>
            </Position>
            <AltitudeMeters>1023.79998779296875</AltitudeMeters>
            <DistanceMeters>429004.18172704</DistanceMeters>
          </Trackpoint>
          <Trackpoint>
            <Time>2021-08-02T07:42:08.000Z</Time>
            <Position>
              <LatitudeDegrees>41.82451137341558933258056640625</LatitudeDegrees>
              <LongitudeDegrees>-1.8255146406590938568115234375</LongitudeDegrees>
            </Position>
            <AltitudeMeters>1022.5999755859375</AltitudeMeters>
            <DistanceMeters>429042.72393449</DistanceMeters>
          </Trackpoint>
          <Trackpoint>
            <Time>2021-08-02T07:42:13.000Z</Time>
            <Position>
              <LatitudeDegrees>41.8243597447872161865234375</LatitudeDegrees>
              <LongitudeDegrees>-1.8251009099185466766357421875</LongitudeDegrees>
            </Position>
            <AltitudeMeters>1021.5999755859375</AltitudeMeters>
            <DistanceMeters>429080.96483798</DistanceMeters>
          </Trackpoint>
          <Trackpoint>
            <Time>2021-08-02T07:42:22.000Z</Time>
            <Position>
              <LatitudeDegrees>41.8243042565882205963134765625</LatitudeDegrees>
              <LongitudeDegrees>-1.824420802295207977294921875</LongitudeDegrees>
            </Position>
            <AltitudeMeters>1023</AltitudeMeters>
            <DistanceMeters>429137.71106508</DistanceMeters>
          </Trackpoint>
          <Trackpoint>
            <Time>2021-08-02T07:42:26.000Z</Time>
            <Position>
              <LatitudeDegrees>41.82434105314314365386962890625</LatitudeDegrees>
              <LongitudeDegrees>-1.82420731522142887115478515625</LongitudeDegrees>
            </Position>
            <AltitudeMeters>1024.199951171875</AltitudeMeters>
            <DistanceMeters>429155.88528133</DistanceMeters>
          </Trackpoint>
          <Trackpoint>
            <Time>2021-08-02T07:42:34.000Z</Time>
            <Position>
              <LatitudeDegrees>41.82444867677986621856689453125</LatitudeDegrees>
              <LongitudeDegrees>-1.82384379208087921142578125</LongitudeDegrees>
            </Position>
            <AltitudeMeters>1025.4000244140625</AltitudeMeters>
            <DistanceMeters>429188.3286597</DistanceMeters>
          </Trackpoint>
          <Trackpoint>
            <Time>2021-08-02T07:42:43.000Z</Time>
            <Position>
              <LatitudeDegrees>41.8245640955865383148193359375</LatitudeDegrees>
              <LongitudeDegrees>-1.82349644601345062255859375</LongitudeDegrees>
            </Position>
            <AltitudeMeters>1026.5999755859375</AltitudeMeters>
            <DistanceMeters>429219.8723764</DistanceMeters>
          </Trackpoint>
          <Trackpoint>
            <Time>2021-08-02T07:42:47.000Z</Time>
            <Position>
              <LatitudeDegrees>41.82461463846266269683837890625</LatitudeDegrees>
              <LongitudeDegrees>-1.82335563004016876220703125</LongitudeDegrees>
            </Position>
            <AltitudeMeters>1027.5999755859375</AltitudeMeters>
            <DistanceMeters>429232.83577575</DistanceMeters>
          </Trackpoint>
          <Trackpoint>
            <Time>2021-08-02T07:42:53.000Z</Time>
            <Position>
              <LatitudeDegrees>41.82469703257083892822265625</LatitudeDegrees>
              <LongitudeDegrees>-1.82315320707857608795166015625</LongitudeDegrees>
            </Position>
            <AltitudeMeters>1028.800048828125</AltitudeMeters>
            <DistanceMeters>429251.96614266</DistanceMeters>
          </Trackpoint>
          <Trackpoint>
            <Time>2021-08-02T07:42:58.000Z</Time>
            <Position>
              <LatitudeDegrees>41.8247655965387821197509765625</LatitudeDegrees>
              <LongitudeDegrees>-1.822985149919986724853515625</LongitudeDegrees>
            </Position>
            <AltitudeMeters>1029.800048828125</AltitudeMeters>
            <DistanceMeters>429267.85721209</DistanceMeters>
          </Trackpoint>
          <Trackpoint>
            <Time>2021-08-02T07:43:06.000Z</Time>
            <Position>
              <LatitudeDegrees>41.82486408390104770660400390625</LatitudeDegrees>
              <LongitudeDegrees>-1.82271248660981655120849609375</LongitudeDegrees>
            </Position>
            <AltitudeMeters>1030.800048828125</AltitudeMeters>
            <DistanceMeters>429292.98885881</DistanceMeters>
          </Trackpoint>
          <Trackpoint>
            <Time>2021-08-02T07:43:14.000Z</Time>
            <Position>
              <LatitudeDegrees>41.82488612830638885498046875</LatitudeDegrees>
              <LongitudeDegrees>-1.82243085466325283050537109375</LongitudeDegrees>
            </Position>
            <AltitudeMeters>1032</AltitudeMeters>
            <DistanceMeters>429316.4760334</DistanceMeters>
          </Trackpoint>
          <Trackpoint>
            <Time>2021-08-02T07:43:19.000Z</Time>
            <Position>
              <LatitudeDegrees>41.824833489954471588134765625</LatitudeDegrees>
              <LongitudeDegrees>-1.8222785554826259613037109375</LongitudeDegrees>
            </Position>
            <AltitudeMeters>1033.4000244140625</AltitudeMeters>
            <DistanceMeters>429330.40028459</DistanceMeters>
          </Trackpoint>
          <Trackpoint>
            <Time>2021-08-02T07:43:24.000Z</Time>
            <Position>
              <LatitudeDegrees>41.8247508443892002105712890625</LatitudeDegrees>
              <LongitudeDegrees>-1.8221638910472393035888671875</LongitudeDegrees>
            </Position>
            <AltitudeMeters>1034.4000244140625</AltitudeMeters>
            <DistanceMeters>429343.63119771</DistanceMeters>
          </Trackpoint>
          <Trackpoint>
            <Time>2021-08-02T07:43:29.000Z</Time>
            <Position>
              <LatitudeDegrees>41.82463693432509899139404296875</LatitudeDegrees>
              <LongitudeDegrees>-1.82211988605558872222900390625</LongitudeDegrees>
            </Position>
            <AltitudeMeters>1035.4000244140625</AltitudeMeters>
            <DistanceMeters>429356.82452002</DistanceMeters>
          </Trackpoint>
          <Trackpoint>
            <Time>2021-08-02T07:43:35.000Z</Time>
            <Position>
              <LatitudeDegrees>41.82449980638921260833740234375</LatitudeDegrees>
              <LongitudeDegrees>-1.82209121994674205780029296875</LongitudeDegrees>
            </Position>
            <AltitudeMeters>1036.5999755859375</AltitudeMeters>
            <DistanceMeters>429372.27125786</DistanceMeters>
          </Trackpoint>
          <Trackpoint>
            <Time>2021-08-02T07:43:41.000Z</Time>
            <Position>
              <LatitudeDegrees>41.824362091720104217529296875</LatitudeDegrees>
              <LongitudeDegrees>-1.8220589496195316314697265625</LongitudeDegrees>
            </Position>
            <AltitudeMeters>1037.5999755859375</AltitudeMeters>
            <DistanceMeters>429387.8309937</DistanceMeters>
          </Trackpoint>
          <Trackpoint>
            <Time>2021-08-02T07:43:51.000Z</Time>
            <Position>
              <LatitudeDegrees>41.8241912685334682464599609375</LatitudeDegrees>
              <LongitudeDegrees>-1.82201712392270565032958984375</LongitudeDegrees>
            </Position>
            <AltitudeMeters>1038.5999755859375</AltitudeMeters>
            <DistanceMeters>429407.15789496</DistanceMeters>
          </Trackpoint>
          <Trackpoint>
            <Time>2021-08-02T07:44:02.000Z</Time>
            <Position>
              <LatitudeDegrees>41.82399689219892024993896484375</LatitudeDegrees>
              <LongitudeDegrees>-1.8219724483788013458251953125</LongitudeDegrees>
            </Position>
            <AltitudeMeters>1039.800048828125</AltitudeMeters>
            <DistanceMeters>429429.10721473</DistanceMeters>
          </Trackpoint>
          <Trackpoint>
            <Time>2021-08-02T07:44:17.000Z</Time>
            <Position>
              <LatitudeDegrees>41.8237151764333248138427734375</LatitudeDegrees>
              <LongitudeDegrees>-1.82191922329366207122802734375</LongitudeDegrees>
            </Position>
            <AltitudeMeters>1041</AltitudeMeters>
            <DistanceMeters>429460.77207803</DistanceMeters>
          </Trackpoint>
          <Trackpoint>
            <Time>2021-08-02T07:44:25.000Z</Time>
            <Position>
              <LatitudeDegrees>41.82353957556188106536865234375</LatitudeDegrees>
              <LongitudeDegrees>-1.8218929879367351531982421875</LongitudeDegrees>
            </Position>
            <AltitudeMeters>1042</AltitudeMeters>
            <DistanceMeters>429480.43755753</DistanceMeters>
          </Trackpoint>
          <Trackpoint>
            <Time>2021-08-02T07:44:35.000Z</Time>
            <Position>
              <LatitudeDegrees>41.8232957459986209869384765625</LatitudeDegrees>
              <LongitudeDegrees>-1.8218567781150341033935546875</LongitudeDegrees>
            </Position>
            <AltitudeMeters>1043.199951171875</AltitudeMeters>
            <DistanceMeters>429507.74182663</DistanceMeters>
          </Trackpoint>
          <Trackpoint>
            <Time>2021-08-02T07:44:42.000Z</Time>
            <Position>
              <LatitudeDegrees>41.8231066502630710601806640625</LatitudeDegrees>
              <LongitudeDegrees>-1.82181344367563724517822265625</LongitudeDegrees>
            </Position>
            <AltitudeMeters>1044.199951171875</AltitudeMeters>
            <DistanceMeters>429529.09346449</DistanceMeters>
          </Trackpoint>
          <Trackpoint>
            <Time>2021-08-02T07:44:48.000Z</Time>
            <Position>
              <LatitudeDegrees>41.822959296405315399169921875</LatitudeDegrees>
              <LongitudeDegrees>-1.821790896356105804443359375</LongitudeDegrees>
            </Position>
            <AltitudeMeters>1045.199951171875</AltitudeMeters>
            <DistanceMeters>429545.60023664</DistanceMeters>
          </Trackpoint>
          <Trackpoint>
            <Time>2021-08-02T07:44:56.000Z</Time>
            <Position>
              <LatitudeDegrees>41.82277263142168521881103515625</LatitudeDegrees>
              <LongitudeDegrees>-1.821757368743419647216796875</LongitudeDegrees>
            </Position>
            <AltitudeMeters>1046.199951171875</AltitudeMeters>
            <DistanceMeters>429566.56154455</DistanceMeters>
          </Trackpoint>
          <Trackpoint>
            <Time>2021-08-02T07:45:04.000Z</Time>
            <Position>
              <LatitudeDegrees>41.822569370269775390625</LatitudeDegrees>
              <LongitudeDegrees>-1.8217146210372447967529296875</LongitudeDegrees>
            </Position>
            <AltitudeMeters>1047.199951171875</AltitudeMeters>
            <DistanceMeters>429589.46101112</DistanceMeters>
          </Trackpoint>
          <Trackpoint>
            <Time>2021-08-02T07:45:14.000Z</Time>
            <Position>
              <LatitudeDegrees>41.82231565006077289581298828125</LatitudeDegrees>
              <LongitudeDegrees>-1.8216804228723049163818359375</LongitudeDegrees>
            </Position>
            <AltitudeMeters>1048.4000244140625</AltitudeMeters>
            <DistanceMeters>429617.84267667</DistanceMeters>
          </Trackpoint>
          <Trackpoint>
            <Time>2021-08-02T07:45:22.000Z</Time>
            <Position>
              <LatitudeDegrees>41.822113730013370513916015625</LatitudeDegrees>
              <LongitudeDegrees>-1.82167631573975086212158203125</LongitudeDegrees>
            </Position>
            <AltitudeMeters>1049.4000244140625</AltitudeMeters>
            <DistanceMeters>429640.31945773</DistanceMeters>
          </Trackpoint>
          <Trackpoint>
            <Time>2021-08-02T07:45:30.000Z</Time>
            <Position>
              <LatitudeDegrees>41.8219036795198917388916015625</LatitudeDegrees>
              <LongitudeDegrees>-1.82168084196746349334716796875</LongitudeDegrees>
            </Position>
            <AltitudeMeters>1050.5999755859375</AltitudeMeters>
            <DistanceMeters>429663.70143686</DistanceMeters>
          </Trackpoint>
          <Trackpoint>
            <Time>2021-08-02T07:45:38.000Z</Time>
            <Position>
              <LatitudeDegrees>41.82169740088284015655517578125</LatitudeDegrees>
              <LongitudeDegrees>-1.82170531712472438812255859375</LongitudeDegrees>
            </Position>
            <AltitudeMeters>1051.800048828125</AltitudeMeters>
            <DistanceMeters>429686.75045978</DistanceMeters>
          </Trackpoint>
          <Trackpoint>
            <Time>2021-08-02T07:45:46.000Z</Time>
            <Position>
              <LatitudeDegrees>41.8214897811412811279296875</LatitudeDegrees>
              <LongitudeDegrees>-1.82174471206963062286376953125</LongitudeDegrees>
            </Position>
            <AltitudeMeters>1052.800048828125</AltitudeMeters>
            <DistanceMeters>429710.08895118</DistanceMeters>
          </Trackpoint>
          <Trackpoint>
            <Time>2021-08-02T07:45:56.000Z</Time>
            <Position>
              <LatitudeDegrees>41.8212515674531459808349609375</LatitudeDegrees>
              <LongitudeDegrees>-1.8217917345464229583740234375</LongitudeDegrees>
            </Position>
            <AltitudeMeters>1054</AltitudeMeters>
            <DistanceMeters>429736.8878325</DistanceMeters>
          </Trackpoint>
          <Trackpoint>
            <Time>2021-08-02T07:46:04.000Z</Time>
            <Position>
              <LatitudeDegrees>41.82106339372694492340087890625</LatitudeDegrees>
              <LongitudeDegrees>-1.82185049168765544891357421875</LongitudeDegrees>
            </Position>
            <AltitudeMeters>1055</AltitudeMeters>
            <DistanceMeters>429758.39118327</DistanceMeters>
          </Trackpoint>
          <Trackpoint>
            <Time>2021-08-02T07:46:13.000Z</Time>
            <Position>
              <LatitudeDegrees>41.82085049338638782501220703125</LatitudeDegrees>
              <LongitudeDegrees>-1.821921654045581817626953125</LongitudeDegrees>
            </Position>
            <AltitudeMeters>1056.199951171875</AltitudeMeters>
            <DistanceMeters>429782.81138491</DistanceMeters>
          </Trackpoint>
          <Trackpoint>
            <Time>2021-08-02T07:46:21.000Z</Time>
            <Position>
              <LatitudeDegrees>41.82067371904850006103515625</LatitudeDegrees>
              <LongitudeDegrees>-1.82198778726160526275634765625</LongitudeDegrees>
            </Position>
            <AltitudeMeters>1057.199951171875</AltitudeMeters>
            <DistanceMeters>429803.23704505</DistanceMeters>
          </Trackpoint>
          <Trackpoint>
            <Time>2021-08-02T07:46:30.000Z</Time>
            <Position>
              <LatitudeDegrees>41.8204747326672077178955078125</LatitudeDegrees>
              <LongitudeDegrees>-1.82210932485759258270263671875</LongitudeDegrees>
            </Position>
            <AltitudeMeters>1058.199951171875</AltitudeMeters>
            <DistanceMeters>429827.57093567</DistanceMeters>
          </Trackpoint>
          <Trackpoint>
            <Time>2021-08-02T07:46:37.000Z</Time>
            <Position>
              <LatitudeDegrees>41.82032025419175624847412109375</LatitudeDegrees>
              <LongitudeDegrees>-1.82218543253839015960693359375</LongitudeDegrees>
            </Position>
            <AltitudeMeters>1059.199951171875</AltitudeMeters>
            <DistanceMeters>429845.8869497</DistanceMeters>
          </Trackpoint>
          <Trackpoint>
            <Time>2021-08-02T07:46:53.000Z</Time>
            <Position>
              <LatitudeDegrees>41.82002303190529346466064453125</LatitudeDegrees>
              <LongitudeDegrees>-1.8219110928475856781005859375</LongitudeDegrees>
            </Position>
            <AltitudeMeters>1060.199951171875</AltitudeMeters>
            <DistanceMeters>429886.03908199</DistanceMeters>
          </Trackpoint>
          <Trackpoint>
            <Time>2021-08-02T07:47:10.000Z</Time>
            <Position>
              <LatitudeDegrees>41.81980610825121402740478515625</LatitudeDegrees>
              <LongitudeDegrees>-1.82151655666530132293701171875</LongitudeDegrees>
            </Position>
            <AltitudeMeters>1061.199951171875</AltitudeMeters>
            <DistanceMeters>429926.70740727</DistanceMeters>
          </Trackpoint>
          <Trackpoint>
            <Time>2021-08-02T07:47:28.000Z</Time>
            <Position>
              <LatitudeDegrees>41.81944652460515499114990234375</LatitudeDegrees>
              <LongitudeDegrees>-1.8212928436696529388427734375</LongitudeDegrees>
            </Position>
            <AltitudeMeters>1062.4000244140625</AltitudeMeters>
            <DistanceMeters>429970.82242722</DistanceMeters>
          </Trackpoint>
          <Trackpoint>
            <Time>2021-08-02T07:47:36.000Z</Time>
            <Position>
              <LatitudeDegrees>41.8192593567073345184326171875</LatitudeDegrees>
              <LongitudeDegrees>-1.821290664374828338623046875</LongitudeDegrees>
            </Position>
            <AltitudeMeters>1063.5999755859375</AltitudeMeters>
            <DistanceMeters>429991.65561215</DistanceMeters>
          </Trackpoint>
          <Trackpoint>
            <Time>2021-08-02T07:47:44.000Z</Time>
            <Position>
              <LatitudeDegrees>41.81907378137111663818359375</LatitudeDegrees>
              <LongitudeDegrees>-1.8212844617664813995361328125</LongitudeDegrees>
            </Position>
            <AltitudeMeters>1064.5999755859375</AltitudeMeters>
            <DistanceMeters>430012.31687624</DistanceMeters>
          </Trackpoint>
          <Trackpoint>
            <Time>2021-08-02T07:47:50.000Z</Time>
            <Position>
              <LatitudeDegrees>41.8189180456101894378662109375</LatitudeDegrees>
              <LongitudeDegrees>-1.82127549313008785247802734375</LongitudeDegrees>
            </Position>
            <AltitudeMeters>1065.800048828125</AltitudeMeters>
            <DistanceMeters>430029.66647474</DistanceMeters>
          </Trackpoint>
          <Trackpoint>
            <Time>2021-08-02T07:47:57.000Z</Time>
            <Position>
              <LatitudeDegrees>41.8187504075467586517333984375</LatitudeDegrees>
              <LongitudeDegrees>-1.821276247501373291015625</LongitudeDegrees>
            </Position>
            <AltitudeMeters>1066.800048828125</AltitudeMeters>
            <DistanceMeters>430048.32513405</DistanceMeters>
          </Trackpoint>
          <Trackpoint>
            <Time>2021-08-02T07:48:05.000Z</Time>
            <Position>
              <LatitudeDegrees>41.8185626529157161712646484375</LatitudeDegrees>
              <LongitudeDegrees>-1.8212616629898548126220703125</LongitudeDegrees>
            </Position>
            <AltitudeMeters>1068</AltitudeMeters>
            <DistanceMeters>430069.25755864</DistanceMeters>
          </Trackpoint>
          <Trackpoint>
            <Time>2021-08-02T07:48:12.000Z</Time>
            <Position>
              <LatitudeDegrees>41.81840113364160060882568359375</LatitudeDegrees>
              <LongitudeDegrees>-1.82126342318952083587646484375</LongitudeDegrees>
            </Position>
            <AltitudeMeters>1069</AltitudeMeters>
            <DistanceMeters>430087.23569887</DistanceMeters>
          </Trackpoint>
          <Trackpoint>
            <Time>2021-08-02T07:48:20.000Z</Time>
            <Position>
              <LatitudeDegrees>41.81821681559085845947265625</LatitudeDegrees>
              <LongitudeDegrees>-1.82125814259052276611328125</LongitudeDegrees>
            </Position>
            <AltitudeMeters>1070</AltitudeMeters>
            <DistanceMeters>430107.75530911</DistanceMeters>
          </Trackpoint>
          <Trackpoint>
            <Time>2021-08-02T07:48:28.000Z</Time>
            <Position>
              <LatitudeDegrees>41.8180436454713344573974609375</LatitudeDegrees>
              <LongitudeDegrees>-1.8212532810866832733154296875</LongitudeDegrees>
            </Position>
            <AltitudeMeters>1071.199951171875</AltitudeMeters>
            <DistanceMeters>430127.03379158</DistanceMeters>
          </Trackpoint>
          <Trackpoint>
            <Time>2021-08-02T07:48:39.000Z</Time>
            <Position>
              <LatitudeDegrees>41.81777349673211574554443359375</LatitudeDegrees>
              <LongitudeDegrees>-1.82126174680888652801513671875</LongitudeDegrees>
            </Position>
            <AltitudeMeters>1072.4000244140625</AltitudeMeters>
            <DistanceMeters>430157.11000939</DistanceMeters>
          </Trackpoint>
          <Trackpoint>
            <Time>2021-08-02T07:48:45.000Z</Time>
            <Position>
              <LatitudeDegrees>41.81763947010040283203125</LatitudeDegrees>
              <LongitudeDegrees>-1.82123442180454730987548828125</LongitudeDegrees>
            </Position>
            <AltitudeMeters>1073.199951171875</AltitudeMeters>
            <DistanceMeters>430172.19862388</DistanceMeters>
          </Trackpoint>
          <Trackpoint>
            <Time>2021-08-02T07:48:47.000Z</Time>
            <Position>
              <LatitudeDegrees>41.81761222891509532928466796875</LatitudeDegrees>
              <LongitudeDegrees>-1.8212505988776683807373046875</LongitudeDegrees>
            </Position>
            <AltitudeMeters>1073.5999755859375</AltitudeMeters>
            <DistanceMeters>430175.51231864</DistanceMeters>
          </Trackpoint>
          <Trackpoint>
            <Time>2021-08-02T07:48:53.000Z</Time>
            <Position>
              <LatitudeDegrees>41.81757040321826934814453125</LatitudeDegrees>
              <LongitudeDegrees>-1.82136811316013336181640625</LongitudeDegrees>
            </Position>
            <AltitudeMeters>1074.5999755859375</AltitudeMeters>
            <DistanceMeters>430186.31531397</DistanceMeters>
          </Trackpoint>
          <Trackpoint>
            <Time>2021-08-02T07:48:56.000Z</Time>
            <Position>
              <LatitudeDegrees>41.817570067942142486572265625</LatitudeDegrees>
              <LongitudeDegrees>-1.8214360065758228302001953125</LongitudeDegrees>
            </Position>
            <AltitudeMeters>1076</AltitudeMeters>
            <DistanceMeters>430191.9484027</DistanceMeters>
          </Trackpoint>
          <Trackpoint>
            <Time>2021-08-02T07:49:02.000Z</Time>
            <Position>
              <LatitudeDegrees>41.81757576763629913330078125</LatitudeDegrees>
              <LongitudeDegrees>-1.82156659662723541259765625</LongitudeDegrees>
            </Position>
            <AltitudeMeters>1077</AltitudeMeters>
            <DistanceMeters>430202.79977113</DistanceMeters>
          </Trackpoint>
          <Trackpoint>
            <Time>2021-08-02T07:49:04.000Z</Time>
            <Position>
              <LatitudeDegrees>41.81757149286568164825439453125</LatitudeDegrees>
              <LongitudeDegrees>-1.821614541113376617431640625</LongitudeDegrees>
            </Position>
            <AltitudeMeters>1077.4000244140625</AltitudeMeters>
            <DistanceMeters>430206.80444537</DistanceMeters>
          </Trackpoint>
          <Trackpoint>
            <Time>2021-08-02T07:49:05.000Z</Time>
            <Position>
              <LatitudeDegrees>41.8175675533711910247802734375</LatitudeDegrees>
              <LongitudeDegrees>-1.82163423858582973480224609375</LongitudeDegrees>
            </Position>
            <AltitudeMeters>1077.800048828125</AltitudeMeters>
            <DistanceMeters>430208.49634791</DistanceMeters>
          </Trackpoint>
          <Trackpoint>
            <Time>2021-08-02T07:49:06.000Z</Time>
            <Position>
              <LatitudeDegrees>41.8175591714680194854736328125</LatitudeDegrees>
              <LongitudeDegrees>-1.8216589652001857757568359375</LongitudeDegrees>
            </Position>
            <AltitudeMeters>1078</AltitudeMeters>
            <DistanceMeters>430210.74910244</DistanceMeters>
          </Trackpoint>
          <Trackpoint>
            <Time>2021-08-02T07:49:11.000Z</Time>
            <Position>
              <LatitudeDegrees>41.81753897108137607574462890625</LatitudeDegrees>
              <LongitudeDegrees>-1.8217840231955051422119140625</LongitudeDegrees>
            </Position>
            <AltitudeMeters>1079.199951171875</AltitudeMeters>
            <DistanceMeters>430221.36320785</DistanceMeters>
          </Trackpoint>
          <Trackpoint>
            <Time>2021-08-02T07:49:15.000Z</Time>
            <Position>
              <LatitudeDegrees>41.8175400607287883758544921875</LatitudeDegrees>
              <LongitudeDegrees>-1.82187463156878948211669921875</LongitudeDegrees>
            </Position>
            <AltitudeMeters>1080.199951171875</AltitudeMeters>
            <DistanceMeters>430228.88053573</DistanceMeters>
          </Trackpoint>
          <Trackpoint>
            <Time>2021-08-02T07:49:21.000Z</Time>
            <Position>
              <LatitudeDegrees>41.8175273202359676361083984375</LatitudeDegrees>
              <LongitudeDegrees>-1.82201477698981761932373046875</LongitudeDegrees>
            </Position>
            <AltitudeMeters>1081.4000244140625</AltitudeMeters>
            <DistanceMeters>430240.59197591</DistanceMeters>
          </Trackpoint>
          <Trackpoint>
            <Time>2021-08-02T07:49:26.000Z</Time>
            <Position>
              <LatitudeDegrees>41.81750326417386531829833984375</LatitudeDegrees>
              <LongitudeDegrees>-1.822118461132049560546875</LongitudeDegrees>
            </Position>
            <AltitudeMeters>1082.4000244140625</AltitudeMeters>
            <DistanceMeters>430249.59998717</DistanceMeters>
          </Trackpoint>
          <Trackpoint>
            <Time>2021-08-02T07:49:32.000Z</Time>
            <Position>
              <LatitudeDegrees>41.81749857030808925628662109375</LatitudeDegrees>
              <LongitudeDegrees>-1.82222667150199413299560546875</LongitudeDegrees>
            </Position>
            <AltitudeMeters>1083.4000244140625</AltitudeMeters>
            <DistanceMeters>430258.59094065</DistanceMeters>
          </Trackpoint>
          <Trackpoint>
            <Time>2021-08-02T07:49:40.000Z</Time>
            <Position>
              <LatitudeDegrees>41.81753461249172687530517578125</LatitudeDegrees>
              <LongitudeDegrees>-1.82233077473938465118408203125</LongitudeDegrees>
            </Position>
            <AltitudeMeters>1084.5999755859375</AltitudeMeters>
            <DistanceMeters>430268.11259846</DistanceMeters>
          </Trackpoint>
          <Trackpoint>
            <Time>2021-08-02T07:49:45.000Z</Time>
            <Position>
              <LatitudeDegrees>41.81756101548671722412109375</LatitudeDegrees>
              <LongitudeDegrees>-1.82237394154071807861328125</LongitudeDegrees>
            </Position>
            <AltitudeMeters>1085</AltitudeMeters>
            <DistanceMeters>430272.74557717</DistanceMeters>
          </Trackpoint>
          <Trackpoint>
            <Time>2021-08-02T07:49:48.000Z</Time>
            <Position>
              <LatitudeDegrees>41.8175692297518253326416015625</LatitudeDegrees>
              <LongitudeDegrees>-1.822391711175441741943359375</LongitudeDegrees>
            </Position>
            <AltitudeMeters>1085</AltitudeMeters>
            <DistanceMeters>430274.48225374</DistanceMeters>
          </Trackpoint>
          <Trackpoint>
            <Time>2021-08-02T07:57:48.000Z</Time>
            <Position>
              <LatitudeDegrees>41.81758825667202472686767578125</LatitudeDegrees>
              <LongitudeDegrees>-1.822493635118007659912109375</LongitudeDegrees>
            </Position>
            <AltitudeMeters>1084.5999755859375</AltitudeMeters>
            <DistanceMeters>430283.19781471</DistanceMeters>
          </Trackpoint>
          <Trackpoint>
            <Time>2021-08-02T07:58:02.000Z</Time>
            <Position>
              <LatitudeDegrees>41.8177006579935550689697265625</LatitudeDegrees>
              <LongitudeDegrees>-1.8227274902164936065673828125</LongitudeDegrees>
            </Position>
            <AltitudeMeters>1086</AltitudeMeters>
            <DistanceMeters>430306.28031026</DistanceMeters>
          </Trackpoint>
          <Trackpoint>
            <Time>2021-08-02T07:58:09.000Z</Time>
            <Position>
              <LatitudeDegrees>41.817755140364170074462890625</LatitudeDegrees>
              <LongitudeDegrees>-1.8228384666144847869873046875</LongitudeDegrees>
            </Position>
            <AltitudeMeters>1086.4000244140625</AltitudeMeters>
            <DistanceMeters>430317.30340912</DistanceMeters>
          </Trackpoint>
          <Trackpoint>
            <Time>2021-08-02T07:58:11.000Z</Time>
            <Position>
              <LatitudeDegrees>41.81775891222059726715087890625</LatitudeDegrees>
              <LongitudeDegrees>-1.8228857405483722686767578125</LongitudeDegrees>
            </Position>
            <AltitudeMeters>1086.5999755859375</AltitudeMeters>
            <DistanceMeters>430321.24673153</DistanceMeters>
          </Trackpoint>
          <Trackpoint>
            <Time>2021-08-02T07:58:17.000Z</Time>
            <Position>
              <LatitudeDegrees>41.817818172276020050048828125</LatitudeDegrees>
              <LongitudeDegrees>-1.82301172055304050445556640625</LongitudeDegrees>
            </Position>
            <AltitudeMeters>1087</AltitudeMeters>
            <DistanceMeters>430333.60458947</DistanceMeters>
          </Trackpoint>
          <Trackpoint>
            <Time>2021-08-02T07:58:19.000Z</Time>
            <Position>
              <LatitudeDegrees>41.81782655417919158935546875</LatitudeDegrees>
              <LongitudeDegrees>-1.82306192815303802490234375</LongitudeDegrees>
            </Position>
            <AltitudeMeters>1087.199951171875</AltitudeMeters>
            <DistanceMeters>430337.87339425</DistanceMeters>
          </Trackpoint>
          <Trackpoint>
            <Time>2021-08-02T07:58:30.000Z</Time>
            <Position>
              <LatitudeDegrees>41.8178910948336124420166015625</LatitudeDegrees>
              <LongitudeDegrees>-1.82329938746988773345947265625</LongitudeDegrees>
            </Position>
            <AltitudeMeters>1088.4000244140625</AltitudeMeters>
            <DistanceMeters>430358.83965575</DistanceMeters>
          </Trackpoint>
          <Trackpoint>
            <Time>2021-08-02T07:58:33.000Z</Time>
            <Position>
              <LatitudeDegrees>41.8179068528115749359130859375</LatitudeDegrees>
              <LongitudeDegrees>-1.8233635090291500091552734375</LongitudeDegrees>
            </Position>
            <AltitudeMeters>1088.4000244140625</AltitudeMeters>
            <DistanceMeters>430364.44059189</DistanceMeters>
          </Trackpoint>
          <Trackpoint>
            <Time>2021-08-02T07:58:43.000Z</Time>
            <Position>
              <LatitudeDegrees>41.817947924137115478515625</LatitudeDegrees>
              <LongitudeDegrees>-1.8235955201089382171630859375</LongitudeDegrees>
            </Position>
            <AltitudeMeters>1089.5999755859375</AltitudeMeters>
            <DistanceMeters>430384.22121908</DistanceMeters>
          </Trackpoint>
          <Trackpoint>
            <Time>2021-08-02T07:58:50.000Z</Time>
            <Position>
              <LatitudeDegrees>41.817941553890705108642578125</LatitudeDegrees>
              <LongitudeDegrees>-1.82377749122679233551025390625</LongitudeDegrees>
            </Position>
            <AltitudeMeters>1090</AltitudeMeters>
            <DistanceMeters>430399.33255831</DistanceMeters>
          </Trackpoint>
          <Trackpoint>
            <Time>2021-08-02T07:58:55.000Z</Time>
            <Position>
              <LatitudeDegrees>41.8179769255220890045166015625</LatitudeDegrees>
              <LongitudeDegrees>-1.8238811753690242767333984375</LongitudeDegrees>
            </Position>
            <AltitudeMeters>1090.5999755859375</AltitudeMeters>
            <DistanceMeters>430408.79093911</DistanceMeters>
          </Trackpoint>
          <Trackpoint>
            <Time>2021-08-02T07:58:56.000Z</Time>
            <Position>
              <LatitudeDegrees>41.81797734461724758148193359375</LatitudeDegrees>
              <LongitudeDegrees>-1.82390841655433177947998046875</LongitudeDegrees>
            </Position>
            <AltitudeMeters>1090.800048828125</AltitudeMeters>
            <DistanceMeters>430411.04769853</DistanceMeters>
          </Trackpoint>
          <Trackpoint>
            <Time>2021-08-02T07:59:04.000Z</Time>
            <Position>
              <LatitudeDegrees>41.81798790581524372100830078125</LatitudeDegrees>
              <LongitudeDegrees>-1.82413171045482158660888671875</LongitudeDegrees>
            </Position>
            <AltitudeMeters>1091.800048828125</AltitudeMeters>
            <DistanceMeters>430429.60712379</DistanceMeters>
          </Trackpoint>
          <Trackpoint>
            <Time>2021-08-02T07:59:12.000Z</Time>
            <Position>
              <LatitudeDegrees>41.818001568317413330078125</LatitudeDegrees>
              <LongitudeDegrees>-1.8243334628641605377197265625</LongitudeDegrees>
            </Position>
            <AltitudeMeters>1093</AltitudeMeters>
            <DistanceMeters>430446.41100699</DistanceMeters>
          </Trackpoint>
          <Trackpoint>
            <Time>2021-08-02T07:59:19.000Z</Time>
            <Position>
              <LatitudeDegrees>41.818001568317413330078125</LatitudeDegrees>
              <LongitudeDegrees>-1.82451032102108001708984375</LongitudeDegrees>
            </Position>
            <AltitudeMeters>1094</AltitudeMeters>
            <DistanceMeters>430461.08148217</DistanceMeters>
          </Trackpoint>
          <Trackpoint>
            <Time>2021-08-02T07:59:25.000Z</Time>
            <Position>
              <LatitudeDegrees>41.8179541267454624176025390625</LatitudeDegrees>
              <LongitudeDegrees>-1.82467049919068813323974609375</LongitudeDegrees>
            </Position>
            <AltitudeMeters>1095.199951171875</AltitudeMeters>
            <DistanceMeters>430475.37913479</DistanceMeters>
          </Trackpoint>
          <Trackpoint>
            <Time>2021-08-02T07:59:30.000Z</Time>
            <Position>
              <LatitudeDegrees>41.81786603294312953948974609375</LatitudeDegrees>
              <LongitudeDegrees>-1.82474006898701190948486328125</LongitudeDegrees>
            </Position>
            <AltitudeMeters>1096.199951171875</AltitudeMeters>
            <DistanceMeters>430486.75697184</DistanceMeters>
          </Trackpoint>
          <Trackpoint>
            <Time>2021-08-02T07:59:37.000Z</Time>
            <Position>
              <LatitudeDegrees>41.81774717755615711212158203125</LatitudeDegrees>
              <LongitudeDegrees>-1.82472431100904941558837890625</LongitudeDegrees>
            </Position>
            <AltitudeMeters>1097.4000244140625</AltitudeMeters>
            <DistanceMeters>430500.05052652</DistanceMeters>
          </Trackpoint>
          <Trackpoint>
            <Time>2021-08-02T07:59:47.000Z</Time>
            <Position>
              <LatitudeDegrees>41.8175792880356311798095703125</LatitudeDegrees>
              <LongitudeDegrees>-1.8246184475719928741455078125</LongitudeDegrees>
            </Position>
            <AltitudeMeters>1098.4000244140625</AltitudeMeters>
            <DistanceMeters>430520.69780016</DistanceMeters>
          </Trackpoint>
          <Trackpoint>
            <Time>2021-08-02T08:00:02.000Z</Time>
            <Position>
              <LatitudeDegrees>41.81732020340859889984130859375</LatitudeDegrees>
              <LongitudeDegrees>-1.82439976371824741363525390625</LongitudeDegrees>
            </Position>
            <AltitudeMeters>1099.5999755859375</AltitudeMeters>
            <DistanceMeters>430554.76563932</DistanceMeters>
          </Trackpoint>
          <Trackpoint>
            <Time>2021-08-02T08:00:19.000Z</Time>
            <Position>
              <LatitudeDegrees>41.8170089833438396453857421875</LatitudeDegrees>
              <LongitudeDegrees>-1.8241681717336177825927734375</LongitudeDegrees>
            </Position>
            <AltitudeMeters>1101</AltitudeMeters>
            <DistanceMeters>430594.37548231</DistanceMeters>
          </Trackpoint>
          <Trackpoint>
            <Time>2021-08-02T08:00:30.000Z</Time>
            <Position>
              <LatitudeDegrees>41.8167588673532009124755859375</LatitudeDegrees>
              <LongitudeDegrees>-1.82410337962210178375244140625</LongitudeDegrees>
            </Position>
            <AltitudeMeters>1102</AltitudeMeters>
            <DistanceMeters>430622.72786149</DistanceMeters>
          </Trackpoint>
          <Trackpoint>
            <Time>2021-08-02T08:00:33.000Z</Time>
            <Position>
              <LatitudeDegrees>41.8167109228670597076416015625</LatitudeDegrees>
              <LongitudeDegrees>-1.8241073191165924072265625</LongitudeDegrees>
            </Position>
            <AltitudeMeters>1102.4000244140625</AltitudeMeters>
            <DistanceMeters>430628.0747505</DistanceMeters>
          </Trackpoint>
          <Trackpoint>
            <Time>2021-08-02T08:00:36.000Z</Time>
            <Position>
              <LatitudeDegrees>41.816679574549198150634765625</LatitudeDegrees>
              <LongitudeDegrees>-1.82411511428654193878173828125</LongitudeDegrees>
            </Position>
            <AltitudeMeters>1103.199951171875</AltitudeMeters>
            <DistanceMeters>430631.62524155</DistanceMeters>
          </Trackpoint>
          <Trackpoint>
            <Time>2021-08-02T08:00:39.000Z</Time>
            <Position>
              <LatitudeDegrees>41.81666607968509197235107421875</LatitudeDegrees>
              <LongitudeDegrees>-1.82414285838603973388671875</LongitudeDegrees>
            </Position>
            <AltitudeMeters>1103.800048828125</AltitudeMeters>
            <DistanceMeters>430634.3760967</DistanceMeters>
          </Trackpoint>
          <Trackpoint>
            <Time>2021-08-02T08:00:42.000Z</Time>
            <Position>
              <LatitudeDegrees>41.8166676722466945648193359375</LatitudeDegrees>
              <LongitudeDegrees>-1.8241923116147518157958984375</LongitudeDegrees>
            </Position>
            <AltitudeMeters>1104.5999755859375</AltitudeMeters>
            <DistanceMeters>430638.48318603</DistanceMeters>
          </Trackpoint>
          <Trackpoint>
            <Time>2021-08-02T08:00:48.000Z</Time>
            <Position>
              <LatitudeDegrees>41.81670606136322021484375</LatitudeDegrees>
              <LongitudeDegrees>-1.82431493885815143585205078125</LongitudeDegrees>
            </Position>
            <AltitudeMeters>1105.4000244140625</AltitudeMeters>
            <DistanceMeters>430649.51611087</DistanceMeters>
          </Trackpoint>
          <Trackpoint>
            <Time>2021-08-02T08:00:50.000Z</Time>
            <Position>
              <LatitudeDegrees>41.8167333863675594329833984375</LatitudeDegrees>
              <LongitudeDegrees>-1.824353747069835662841796875</LongitudeDegrees>
            </Position>
            <AltitudeMeters>1105.800048828125</AltitudeMeters>
            <DistanceMeters>430653.94480436</DistanceMeters>
          </Trackpoint>
          <Trackpoint>
            <Time>2021-08-02T08:00:58.000Z</Time>
            <Position>
              <LatitudeDegrees>41.8168361485004425048828125</LatitudeDegrees>
              <LongitudeDegrees>-1.82455633766949176788330078125</LongitudeDegrees>
            </Position>
            <AltitudeMeters>1106.800048828125</AltitudeMeters>
            <DistanceMeters>430674.27297098</DistanceMeters>
          </Trackpoint>
          <Trackpoint>
            <Time>2021-08-02T08:01:12.000Z</Time>
            <Position>
              <LatitudeDegrees>41.81700940243899822235107421875</LatitudeDegrees>
              <LongitudeDegrees>-1.8249624408781528472900390625</LongitudeDegrees>
            </Position>
            <AltitudeMeters>1107.800048828125</AltitudeMeters>
            <DistanceMeters>430713.08856314</DistanceMeters>
          </Trackpoint>
          <Trackpoint>
            <Time>2021-08-02T08:01:17.000Z</Time>
            <Position>
              <LatitudeDegrees>41.817073523998260498046875</LatitudeDegrees>
              <LongitudeDegrees>-1.8251158297061920166015625</LongitudeDegrees>
            </Position>
            <AltitudeMeters>1108</AltitudeMeters>
            <DistanceMeters>430727.67694351</DistanceMeters>
          </Trackpoint>
          <Trackpoint>
            <Time>2021-08-02T08:01:21.000Z</Time>
            <Position>
              <LatitudeDegrees>41.81711216457188129425048828125</LatitudeDegrees>
              <LongitudeDegrees>-1.82524398900568485260009765625</LongitudeDegrees>
            </Position>
            <AltitudeMeters>1108.4000244140625</AltitudeMeters>
            <DistanceMeters>430739.14490031</DistanceMeters>
          </Trackpoint>
          <Trackpoint>
            <Time>2021-08-02T08:01:27.000Z</Time>
            <Position>
              <LatitudeDegrees>41.81717720814049243927001953125</LatitudeDegrees>
              <LongitudeDegrees>-1.82543425820767879486083984375</LongitudeDegrees>
            </Position>
            <AltitudeMeters>1109</AltitudeMeters>
            <DistanceMeters>430756.50906607</DistanceMeters>
          </Trackpoint>
          <Trackpoint>
            <Time>2021-08-02T08:01:41.000Z</Time>
            <Position>
              <LatitudeDegrees>41.81731986813247203826904296875</LatitudeDegrees>
              <LongitudeDegrees>-1.8258324824273586273193359375</LongitudeDegrees>
            </Position>
            <AltitudeMeters>1109.800048828125</AltitudeMeters>
            <DistanceMeters>430793.16007031</DistanceMeters>
          </Trackpoint>
          <Trackpoint>
            <Time>2021-08-02T08:01:52.000Z</Time>
            <Position>
              <LatitudeDegrees>41.81734509766101837158203125</LatitudeDegrees>
              <LongitudeDegrees>-1.82615191675722599029541015625</LongitudeDegrees>
            </Position>
            <AltitudeMeters>1110.5999755859375</AltitudeMeters>
            <DistanceMeters>430819.80570335</DistanceMeters>
          </Trackpoint>
          <Trackpoint>
            <Time>2021-08-02T08:01:58.000Z</Time>
            <Position>
              <LatitudeDegrees>41.81724292226135730743408203125</LatitudeDegrees>
              <LongitudeDegrees>-1.8262576125562191009521484375</LongitudeDegrees>
            </Position>
            <AltitudeMeters>1111.5999755859375</AltitudeMeters>
            <DistanceMeters>430834.16574603</DistanceMeters>
          </Trackpoint>
          <Trackpoint>
            <Time>2021-08-02T08:02:03.000Z</Time>
            <Position>
              <LatitudeDegrees>41.81715072132647037506103515625</LatitudeDegrees>
              <LongitudeDegrees>-1.8262391723692417144775390625</LongitudeDegrees>
            </Position>
            <AltitudeMeters>1112.5999755859375</AltitudeMeters>
            <DistanceMeters>430844.5415145</DistanceMeters>
          </Trackpoint>
          <Trackpoint>
            <Time>2021-08-02T08:02:11.000Z</Time>
            <Position>
              <LatitudeDegrees>41.81700646877288818359375</LatitudeDegrees>
              <LongitudeDegrees>-1.8261060677468776702880859375</LongitudeDegrees>
            </Position>
            <AltitudeMeters>1113.5999755859375</AltitudeMeters>
            <DistanceMeters>430864.02685756</DistanceMeters>
          </Trackpoint>
          <Trackpoint>
            <Time>2021-08-02T08:02:23.000Z</Time>
            <Position>
              <LatitudeDegrees>41.81679281406104564666748046875</LatitudeDegrees>
              <LongitudeDegrees>-1.8257959373295307159423828125</LongitudeDegrees>
            </Position>
            <AltitudeMeters>1114.4000244140625</AltitudeMeters>
            <DistanceMeters>430899.05989639</DistanceMeters>
          </Trackpoint>
          <Trackpoint>
            <Time>2021-08-02T08:02:43.000Z</Time>
            <Position>
              <LatitudeDegrees>41.81640473194420337677001953125</LatitudeDegrees>
              <LongitudeDegrees>-1.82529411278665065765380859375</LongitudeDegrees>
            </Position>
            <AltitudeMeters>1115.4000244140625</AltitudeMeters>
            <DistanceMeters>430959.04795132</DistanceMeters>
          </Trackpoint>
          <Trackpoint>
            <Time>2021-08-02T08:02:54.000Z</Time>
            <Position>
              <LatitudeDegrees>41.8161387741565704345703125</LatitudeDegrees>
              <LongitudeDegrees>-1.82516050525009632110595703125</LongitudeDegrees>
            </Position>
            <AltitudeMeters>1116.199951171875</AltitudeMeters>
            <DistanceMeters>430990.65629923</DistanceMeters>
          </Trackpoint>
          <Trackpoint>
            <Time>2021-08-02T08:03:00.000Z</Time>
            <Position>
              <LatitudeDegrees>41.81598982773721218109130859375</LatitudeDegrees>
              <LongitudeDegrees>-1.8251394666731357574462890625</LongitudeDegrees>
            </Position>
            <AltitudeMeters>1117.199951171875</AltitudeMeters>
            <DistanceMeters>431007.32583769</DistanceMeters>
          </Trackpoint>
          <Trackpoint>
            <Time>2021-08-02T08:03:09.000Z</Time>
            <Position>
              <LatitudeDegrees>41.815775334835052490234375</LatitudeDegrees>
              <LongitudeDegrees>-1.825122199952602386474609375</LongitudeDegrees>
            </Position>
            <AltitudeMeters>1118.199951171875</AltitudeMeters>
            <DistanceMeters>431031.24219469</DistanceMeters>
          </Trackpoint>
          <Trackpoint>
            <Time>2021-08-02T08:03:17.000Z</Time>
            <Position>
              <LatitudeDegrees>41.815575174987316131591796875</LatitudeDegrees>
              <LongitudeDegrees>-1.8250868283212184906005859375</LongitudeDegrees>
            </Position>
            <AltitudeMeters>1119.199951171875</AltitudeMeters>
            <DistanceMeters>431053.71254681</DistanceMeters>
          </Trackpoint>
          <Trackpoint>
            <Time>2021-08-02T08:03:27.000Z</Time>
            <Position>
              <LatitudeDegrees>41.81533235125243663787841796875</LatitudeDegrees>
              <LongitudeDegrees>-1.82505237869918346405029296875</LongitudeDegrees>
            </Position>
            <AltitudeMeters>1120.199951171875</AltitudeMeters>
            <DistanceMeters>431080.88985485</DistanceMeters>
          </Trackpoint>
          <Trackpoint>
            <Time>2021-08-02T08:03:36.000Z</Time>
            <Position>
              <LatitudeDegrees>41.815136633813381195068359375</LatitudeDegrees>
              <LongitudeDegrees>-1.8250380456447601318359375</LongitudeDegrees>
            </Position>
            <AltitudeMeters>1121.199951171875</AltitudeMeters>
            <DistanceMeters>431102.70588586</DistanceMeters>
          </Trackpoint>
          <Trackpoint>
            <Time>2021-08-02T08:03:43.000Z</Time>
            <Position>
              <LatitudeDegrees>41.81498634628951549530029296875</LatitudeDegrees>
              <LongitudeDegrees>-1.825018264353275299072265625</LongitudeDegrees>
            </Position>
            <AltitudeMeters>1122.4000244140625</AltitudeMeters>
            <DistanceMeters>431119.5135303</DistanceMeters>
          </Trackpoint>
          <Trackpoint>
            <Time>2021-08-02T08:03:52.000Z</Time>
            <Position>
              <LatitudeDegrees>41.81477394886314868927001953125</LatitudeDegrees>
              <LongitudeDegrees>-1.82490167208015918731689453125</LongitudeDegrees>
            </Position>
            <AltitudeMeters>1123.4000244140625</AltitudeMeters>
            <DistanceMeters>431145.05574952</DistanceMeters>
          </Trackpoint>
          <Trackpoint>
            <Time>2021-08-02T08:03:59.000Z</Time>
            <Position>
              <LatitudeDegrees>41.814589798450469970703125</LatitudeDegrees>
              <LongitudeDegrees>-1.82478633709251880645751953125</LongitudeDegrees>
            </Position>
            <AltitudeMeters>1124.5999755859375</AltitudeMeters>
            <DistanceMeters>431167.67510188</DistanceMeters>
          </Trackpoint>
          <Trackpoint>
            <Time>2021-08-02T08:04:08.000Z</Time>
            <Position>
              <LatitudeDegrees>41.814386956393718719482421875</LatitudeDegrees>
              <LongitudeDegrees>-1.82460227049887180328369140625</LongitudeDegrees>
            </Position>
            <AltitudeMeters>1125.5999755859375</AltitudeMeters>
            <DistanceMeters>431194.93038043</DistanceMeters>
          </Trackpoint>
          <Trackpoint>
            <Time>2021-08-02T08:04:18.000Z</Time>
            <Position>
              <LatitudeDegrees>41.81417874991893768310546875</LatitudeDegrees>
              <LongitudeDegrees>-1.82441535405814647674560546875</LongitudeDegrees>
            </Position>
            <AltitudeMeters>1126.5999755859375</AltitudeMeters>
            <DistanceMeters>431222.81290903</DistanceMeters>
          </Trackpoint>
          <Trackpoint>
            <Time>2021-08-02T08:04:26.000Z</Time>
            <Position>
              <LatitudeDegrees>41.81403164751827716827392578125</LatitudeDegrees>
              <LongitudeDegrees>-1.824292726814746856689453125</LongitudeDegrees>
            </Position>
            <AltitudeMeters>1127.800048828125</AltitudeMeters>
            <DistanceMeters>431242.08858089</DistanceMeters>
          </Trackpoint>
          <Trackpoint>
            <Time>2021-08-02T08:04:27.000Z</Time>
            <Position>
              <LatitudeDegrees>41.8140159733593463897705078125</LatitudeDegrees>
              <LongitudeDegrees>-1.82427068240940570831298828125</LongitudeDegrees>
            </Position>
            <AltitudeMeters>1127.800048828125</AltitudeMeters>
            <DistanceMeters>431244.6170773</DistanceMeters>
          </Trackpoint>
          <Trackpoint>
            <Time>2021-08-02T08:04:39.000Z</Time>
            <Position>
              <LatitudeDegrees>41.81380567140877246856689453125</LatitudeDegrees>
              <LongitudeDegrees>-1.824019141495227813720703125</LongitudeDegrees>
            </Position>
            <AltitudeMeters>1128.800048828125</AltitudeMeters>
            <DistanceMeters>431275.97474118</DistanceMeters>
          </Trackpoint>
          <Trackpoint>
            <Time>2021-08-02T08:04:49.000Z</Time>
            <Position>
              <LatitudeDegrees>41.813625879585742950439453125</LatitudeDegrees>
              <LongitudeDegrees>-1.82378754951059818267822265625</LongitudeDegrees>
            </Position>
            <AltitudeMeters>1129.800048828125</AltitudeMeters>
            <DistanceMeters>431303.71521855</DistanceMeters>
          </Trackpoint>
          <Trackpoint>
            <Time>2021-08-02T08:04:51.000Z</Time>
            <Position>
              <LatitudeDegrees>41.8135844729840755462646484375</LatitudeDegrees>
              <LongitudeDegrees>-1.82374379597604274749755859375</LongitudeDegrees>
            </Position>
            <AltitudeMeters>1129.800048828125</AltitudeMeters>
            <DistanceMeters>431309.58230057</DistanceMeters>
          </Trackpoint>
          <Trackpoint>
            <Time>2021-08-02T08:04:55.000Z</Time>
            <Position>
              <LatitudeDegrees>41.81350685656070709228515625</LatitudeDegrees>
              <LongitudeDegrees>-1.8236277066171169281005859375</LongitudeDegrees>
            </Position>
            <AltitudeMeters>1130.199951171875</AltitudeMeters>
            <DistanceMeters>431322.5192027</DistanceMeters>
          </Trackpoint>
          <Trackpoint>
            <Time>2021-08-02T08:05:06.000Z</Time>
            <Position>
              <LatitudeDegrees>41.813305355608463287353515625</LatitudeDegrees>
              <LongitudeDegrees>-1.82334716431796550750732421875</LongitudeDegrees>
            </Position>
            <AltitudeMeters>1131</AltitudeMeters>
            <DistanceMeters>431354.83960296</DistanceMeters>
          </Trackpoint>
          <Trackpoint>
            <Time>2021-08-02T08:05:19.000Z</Time>
            <Position>
              <LatitudeDegrees>41.81315473280847072601318359375</LatitudeDegrees>
              <LongitudeDegrees>-1.822899319231510162353515625</LongitudeDegrees>
            </Position>
            <AltitudeMeters>1132</AltitudeMeters>
            <DistanceMeters>431395.59830993</DistanceMeters>
          </Trackpoint>
          <Trackpoint>
            <Time>2021-08-02T08:05:32.000Z</Time>
            <Position>
              <LatitudeDegrees>41.813008300960063934326171875</LatitudeDegrees>
              <LongitudeDegrees>-1.82243437506258487701416015625</LongitudeDegrees>
            </Position>
            <AltitudeMeters>1133.199951171875</AltitudeMeters>
            <DistanceMeters>431437.47027647</DistanceMeters>
          </Trackpoint>
          <Trackpoint>
            <Time>2021-08-02T08:05:43.000Z</Time>
            <Position>
              <LatitudeDegrees>41.81286186911165714263916015625</LatitudeDegrees>
              <LongitudeDegrees>-1.8221156112849712371826171875</LongitudeDegrees>
            </Position>
            <AltitudeMeters>1134.4000244140625</AltitudeMeters>
            <DistanceMeters>431468.5328219</DistanceMeters>
          </Trackpoint>
          <Trackpoint>
            <Time>2021-08-02T08:05:52.000Z</Time>
            <Position>
              <LatitudeDegrees>41.8127120845019817352294921875</LatitudeDegrees>
              <LongitudeDegrees>-1.82189122773706912994384765625</LongitudeDegrees>
            </Position>
            <AltitudeMeters>1135.4000244140625</AltitudeMeters>
            <DistanceMeters>431493.52105365</DistanceMeters>
          </Trackpoint>
          <Trackpoint>
            <Time>2021-08-02T08:05:59.000Z</Time>
            <Position>
              <LatitudeDegrees>41.812563724815845489501953125</LatitudeDegrees>
              <LongitudeDegrees>-1.82173348031938076019287109375</LongitudeDegrees>
            </Position>
            <AltitudeMeters>1136.4000244140625</AltitudeMeters>
            <DistanceMeters>431514.59042853</DistanceMeters>
          </Trackpoint>
          <Trackpoint>
            <Time>2021-08-02T08:06:11.000Z</Time>
            <Position>
              <LatitudeDegrees>41.81234269402921199798583984375</LatitudeDegrees>
              <LongitudeDegrees>-1.82145402766764163970947265625</LongitudeDegrees>
            </Position>
            <AltitudeMeters>1137.5999755859375</AltitudeMeters>
            <DistanceMeters>431548.39336898</DistanceMeters>
          </Trackpoint>
          <Trackpoint>
            <Time>2021-08-02T08:06:20.000Z</Time>
            <Position>
              <LatitudeDegrees>41.812177486717700958251953125</LatitudeDegrees>
              <LongitudeDegrees>-1.8212247826159000396728515625</LongitudeDegrees>
            </Position>
            <AltitudeMeters>1138.800048828125</AltitudeMeters>
            <DistanceMeters>431574.84666261</DistanceMeters>
          </Trackpoint>
          <Trackpoint>
            <Time>2021-08-02T08:06:30.000Z</Time>
            <Position>
              <LatitudeDegrees>41.8120800890028476715087890625</LatitudeDegrees>
              <LongitudeDegrees>-1.82090115733444690704345703125</LongitudeDegrees>
            </Position>
            <AltitudeMeters>1139.800048828125</AltitudeMeters>
            <DistanceMeters>431603.79972905</DistanceMeters>
          </Trackpoint>
          <Trackpoint>
            <Time>2021-08-02T08:06:37.000Z</Time>
            <Position>
              <LatitudeDegrees>41.81198797188699245452880859375</LatitudeDegrees>
              <LongitudeDegrees>-1.82071457616984844207763671875</LongitudeDegrees>
            </Position>
            <AltitudeMeters>1140.800048828125</AltitudeMeters>
            <DistanceMeters>431622.36572157</DistanceMeters>
          </Trackpoint>
          <Trackpoint>
            <Time>2021-08-02T08:06:43.000Z</Time>
            <Position>
              <LatitudeDegrees>41.8118953518569469451904296875</LatitudeDegrees>
              <LongitudeDegrees>-1.82060175575315952301025390625</LongitudeDegrees>
            </Position>
            <AltitudeMeters>1141.800048828125</AltitudeMeters>
            <DistanceMeters>431636.2896485</DistanceMeters>
          </Trackpoint>
          <Trackpoint>
            <Time>2021-08-02T08:06:51.000Z</Time>
            <Position>
              <LatitudeDegrees>41.8117488361895084381103515625</LatitudeDegrees>
              <LongitudeDegrees>-1.82051357813179492950439453125</LongitudeDegrees>
            </Position>
            <AltitudeMeters>1143</AltitudeMeters>
            <DistanceMeters>431654.16275635</DistanceMeters>
          </Trackpoint>
          <Trackpoint>
            <Time>2021-08-02T08:06:59.000Z</Time>
            <Position>
              <LatitudeDegrees>41.8115664459764957427978515625</LatitudeDegrees>
              <LongitudeDegrees>-1.820400170981884002685546875</LongitudeDegrees>
            </Position>
            <AltitudeMeters>1144.199951171875</AltitudeMeters>
            <DistanceMeters>431676.53705808</DistanceMeters>
          </Trackpoint>
          <Trackpoint>
            <Time>2021-08-02T08:07:07.000Z</Time>
            <Position>
              <LatitudeDegrees>41.8114239536225795745849609375</LatitudeDegrees>
              <LongitudeDegrees>-1.8201698362827301025390625</LongitudeDegrees>
            </Position>
            <AltitudeMeters>1145.4000244140625</AltitudeMeters>
            <DistanceMeters>431701.36959501</DistanceMeters>
          </Trackpoint>
          <Trackpoint>
            <Time>2021-08-02T08:07:18.000Z</Time>
            <Position>
              <LatitudeDegrees>41.81131993420422077178955078125</LatitudeDegrees>
              <LongitudeDegrees>-1.8198132701218128204345703125</LongitudeDegrees>
            </Position>
            <AltitudeMeters>1146.4000244140625</AltitudeMeters>
            <DistanceMeters>431733.13468185</DistanceMeters>
          </Trackpoint>
          <Trackpoint>
            <Time>2021-08-02T08:07:21.000Z</Time>
            <Position>
              <LatitudeDegrees>41.81127794086933135986328125</LatitudeDegrees>
              <LongitudeDegrees>-1.8197683431208133697509765625</LongitudeDegrees>
            </Position>
            <AltitudeMeters>1147</AltitudeMeters>
            <DistanceMeters>431739.11230784</DistanceMeters>
          </Trackpoint>
          <Trackpoint>
            <Time>2021-08-02T08:07:24.000Z</Time>
            <Position>
              <LatitudeDegrees>41.81122655980288982391357421875</LatitudeDegrees>
              <LongitudeDegrees>-1.81973121128976345062255859375</LongitudeDegrees>
            </Position>
            <AltitudeMeters>1147.5999755859375</AltitudeMeters>
            <DistanceMeters>431745.60757667</DistanceMeters>
          </Trackpoint>
          <Trackpoint>
            <Time>2021-08-02T08:07:29.000Z</Time>
            <Position>
              <LatitudeDegrees>41.8111409805715084075927734375</LatitudeDegrees>
              <LongitudeDegrees>-1.8196573667228221893310546875</LongitudeDegrees>
            </Position>
            <AltitudeMeters>1148.199951171875</AltitudeMeters>
            <DistanceMeters>431756.93291135</DistanceMeters>
          </Trackpoint>
          <Trackpoint>
            <Time>2021-08-02T08:07:31.000Z</Time>
            <Position>
              <LatitudeDegrees>41.8111030943691730499267578125</LatitudeDegrees>
              <LongitudeDegrees>-1.8196332268416881561279296875</LongitudeDegrees>
            </Position>
            <AltitudeMeters>1148.800048828125</AltitudeMeters>
            <DistanceMeters>431761.60180893</DistanceMeters>
          </Trackpoint>
          <Trackpoint>
            <Time>2021-08-02T08:07:39.000Z</Time>
            <Position>
              <LatitudeDegrees>41.8109160102903842926025390625</LatitudeDegrees>
              <LongitudeDegrees>-1.81957094930112361907958984375</LongitudeDegrees>
            </Position>
            <AltitudeMeters>1149.800048828125</AltitudeMeters>
            <DistanceMeters>431783.05597068</DistanceMeters>
          </Trackpoint>
          <Trackpoint>
            <Time>2021-08-02T08:07:46.000Z</Time>
            <Position>
              <LatitudeDegrees>41.81075155735015869140625</LatitudeDegrees>
              <LongitudeDegrees>-1.81951361708343029022216796875</LongitudeDegrees>
            </Position>
            <AltitudeMeters>1151</AltitudeMeters>
            <DistanceMeters>431801.96771935</DistanceMeters>
          </Trackpoint>
          <Trackpoint>
            <Time>2021-08-02T08:07:52.000Z</Time>
            <Position>
              <LatitudeDegrees>41.810609735548496246337890625</LatitudeDegrees>
              <LongitudeDegrees>-1.819451339542865753173828125</LongitudeDegrees>
            </Position>
            <AltitudeMeters>1152</AltitudeMeters>
            <DistanceMeters>431818.57674717</DistanceMeters>
          </Trackpoint>
          <Trackpoint>
            <Time>2021-08-02T08:07:58.000Z</Time>
            <Position>
              <LatitudeDegrees>41.81047059595584869384765625</LatitudeDegrees>
              <LongitudeDegrees>-1.81936609558761119842529296875</LongitudeDegrees>
            </Position>
            <AltitudeMeters>1153</AltitudeMeters>
            <DistanceMeters>431835.60138707</DistanceMeters>
          </Trackpoint>
          <Trackpoint>
            <Time>2021-08-02T08:08:08.000Z</Time>
            <Position>
              <LatitudeDegrees>41.81029398925602436065673828125</LatitudeDegrees>
              <LongitudeDegrees>-1.81911195628345012664794921875</LongitudeDegrees>
            </Position>
            <AltitudeMeters>1154</AltitudeMeters>
            <DistanceMeters>431864.4266096</DistanceMeters>
          </Trackpoint>
          <Trackpoint>
            <Time>2021-08-02T08:08:17.000Z</Time>
            <Position>
              <LatitudeDegrees>41.8101358227431774139404296875</LatitudeDegrees>
              <LongitudeDegrees>-1.81891866959631443023681640625</LongitudeDegrees>
            </Position>
            <AltitudeMeters>1155</AltitudeMeters>
            <DistanceMeters>431888.23909834</DistanceMeters>
          </Trackpoint>
          <Trackpoint>
            <Time>2021-08-02T08:08:30.000Z</Time>
            <Position>
              <LatitudeDegrees>41.809874139726161956787109375</LatitudeDegrees>
              <LongitudeDegrees>-1.81870275177061557769775390625</LongitudeDegrees>
            </Position>
            <AltitudeMeters>1156</AltitudeMeters>
            <DistanceMeters>431922.43234589</DistanceMeters>
          </Trackpoint>
          <Trackpoint>
            <Time>2021-08-02T08:08:37.000Z</Time>
            <Position>
              <LatitudeDegrees>41.809728629887104034423828125</LatitudeDegrees>
              <LongitudeDegrees>-1.81860635988414287567138671875</LongitudeDegrees>
            </Position>
            <AltitudeMeters>1157</AltitudeMeters>
            <DistanceMeters>431940.49492217</DistanceMeters>
          </Trackpoint>
          <Trackpoint>
            <Time>2021-08-02T08:08:45.000Z</Time>
            <Position>
              <LatitudeDegrees>41.8095759116113185882568359375</LatitudeDegrees>
              <LongitudeDegrees>-1.81847861967980861663818359375</LongitudeDegrees>
            </Position>
            <AltitudeMeters>1158</AltitudeMeters>
            <DistanceMeters>431960.52595851</DistanceMeters>
          </Trackpoint>
          <Trackpoint>
            <Time>2021-08-02T08:08:57.000Z</Time>
            <Position>
              <LatitudeDegrees>41.80932126939296722412109375</LatitudeDegrees>
              <LongitudeDegrees>-1.81830905377864837646484375</LongitudeDegrees>
            </Position>
            <AltitudeMeters>1159</AltitudeMeters>
            <DistanceMeters>431992.1671433</DistanceMeters>
          </Trackpoint>
          <Trackpoint>
            <Time>2021-08-02T08:09:07.000Z</Time>
            <Position>
              <LatitudeDegrees>41.8091722391545772552490234375</LatitudeDegrees>
              <LongitudeDegrees>-1.81823889724910259246826171875</LongitudeDegrees>
            </Position>
            <AltitudeMeters>1160</AltitudeMeters>
            <DistanceMeters>432009.74605812</DistanceMeters>
          </Trackpoint>
          <Trackpoint>
            <Time>2021-08-02T08:09:14.000Z</Time>
            <Position>
              <LatitudeDegrees>41.8090336024761199951171875</LatitudeDegrees>
              <LongitudeDegrees>-1.81815474294126033782958984375</LongitudeDegrees>
            </Position>
            <AltitudeMeters>1161</AltitudeMeters>
            <DistanceMeters>432026.68268731</DistanceMeters>
          </Trackpoint>
          <Trackpoint>
            <Time>2021-08-02T08:09:27.000Z</Time>
            <Position>
              <LatitudeDegrees>41.808767057955265045166015625</LatitudeDegrees>
              <LongitudeDegrees>-1.81792926974594593048095703125</LongitudeDegrees>
            </Position>
            <AltitudeMeters>1162.199951171875</AltitudeMeters>
            <DistanceMeters>432061.75436866</DistanceMeters>
          </Trackpoint>
          <Trackpoint>
            <Time>2021-08-02T08:09:35.000Z</Time>
            <Position>
              <LatitudeDegrees>41.808632276952266693115234375</LatitudeDegrees>
              <LongitudeDegrees>-1.81779331527650356292724609375</LongitudeDegrees>
            </Position>
            <AltitudeMeters>1163.199951171875</AltitudeMeters>
            <DistanceMeters>432080.52280631</DistanceMeters>
          </Trackpoint>
          <Trackpoint>
            <Time>2021-08-02T08:09:42.000Z</Time>
            <Position>
              <LatitudeDegrees>41.80852406658232212066650390625</LatitudeDegrees>
              <LongitudeDegrees>-1.81764311157166957855224609375</LongitudeDegrees>
            </Position>
            <AltitudeMeters>1164.4000244140625</AltitudeMeters>
            <DistanceMeters>432097.85313645</DistanceMeters>
          </Trackpoint>
          <Trackpoint>
            <Time>2021-08-02T08:09:48.000Z</Time>
            <Position>
              <LatitudeDegrees>41.808425746858119964599609375</LatitudeDegrees>
              <LongitudeDegrees>-1.8175055645406246185302734375</LongitudeDegrees>
            </Position>
            <AltitudeMeters>1165.4000244140625</AltitudeMeters>
            <DistanceMeters>432113.66359425</DistanceMeters>
          </Trackpoint>
          <Trackpoint>
            <Time>2021-08-02T08:09:53.000Z</Time>
            <Position>
              <LatitudeDegrees>41.80833614431321620941162109375</LatitudeDegrees>
              <LongitudeDegrees>-1.81740405969321727752685546875</LongitudeDegrees>
            </Position>
            <AltitudeMeters>1166</AltitudeMeters>
            <DistanceMeters>432126.71619753</DistanceMeters>
          </Trackpoint>
          <Trackpoint>
            <Time>2021-08-02T08:09:57.000Z</Time>
            <Position>
              <LatitudeDegrees>41.8082700110971927642822265625</LatitudeDegrees>
              <LongitudeDegrees>-1.81732007302343845367431640625</LongitudeDegrees>
            </Position>
            <AltitudeMeters>1166.4000244140625</AltitudeMeters>
            <DistanceMeters>432136.85158848</DistanceMeters>
          </Trackpoint>
          <Trackpoint>
            <Time>2021-08-02T08:10:05.000Z</Time>
            <Position>
              <LatitudeDegrees>41.8081137724220752716064453125</LatitudeDegrees>
              <LongitudeDegrees>-1.81716953404247760772705078125</LongitudeDegrees>
            </Position>
            <AltitudeMeters>1167.5999755859375</AltitudeMeters>
            <DistanceMeters>432158.26151002</DistanceMeters>
          </Trackpoint>
          <Trackpoint>
            <Time>2021-08-02T08:10:11.000Z</Time>
            <Position>
              <LatitudeDegrees>41.80798963643610477447509765625</LatitudeDegrees>
              <LongitudeDegrees>-1.81705176830291748046875</LongitudeDegrees>
            </Position>
            <AltitudeMeters>1168.4000244140625</AltitudeMeters>
            <DistanceMeters>432175.18373754</DistanceMeters>
          </Trackpoint>
          <Trackpoint>
            <Time>2021-08-02T08:10:15.000Z</Time>
            <Position>
              <LatitudeDegrees>41.8079354055225849151611328125</LatitudeDegrees>
              <LongitudeDegrees>-1.8169587291777133941650390625</LongitudeDegrees>
            </Position>
            <AltitudeMeters>1168.800048828125</AltitudeMeters>
            <DistanceMeters>432184.9830147</DistanceMeters>
          </Trackpoint>
          <Trackpoint>
            <Time>2021-08-02T08:10:27.000Z</Time>
            <Position>
              <LatitudeDegrees>41.80775729008018970489501953125</LatitudeDegrees>
              <LongitudeDegrees>-1.8167190067470073699951171875</LongitudeDegrees>
            </Position>
            <AltitudeMeters>1170</AltitudeMeters>
            <DistanceMeters>432213.06433332</DistanceMeters>
          </Trackpoint>
          <Trackpoint>
            <Time>2021-08-02T08:10:38.000Z</Time>
            <Position>
              <LatitudeDegrees>41.8075434677302837371826171875</LatitudeDegrees>
              <LongitudeDegrees>-1.81645028293132781982421875</LongitudeDegrees>
            </Position>
            <AltitudeMeters>1171.199951171875</AltitudeMeters>
            <DistanceMeters>432245.67442259</DistanceMeters>
          </Trackpoint>
          <Trackpoint>
            <Time>2021-08-02T08:10:49.000Z</Time>
            <Position>
              <LatitudeDegrees>41.807328052818775177001953125</LatitudeDegrees>
              <LongitudeDegrees>-1.81617845781147480010986328125</LongitudeDegrees>
            </Position>
            <AltitudeMeters>1172.5999755859375</AltitudeMeters>
            <DistanceMeters>432278.58989877</DistanceMeters>
          </Trackpoint>
          <Trackpoint>
            <Time>2021-08-02T08:10:59.000Z</Time>
            <Position>
              <LatitudeDegrees>41.80711741559207439422607421875</LatitudeDegrees>
              <LongitudeDegrees>-1.81596237234771251678466796875</LongitudeDegrees>
            </Position>
            <AltitudeMeters>1173.5999755859375</AltitudeMeters>
            <DistanceMeters>432308.10299948</DistanceMeters>
          </Trackpoint>
          <Trackpoint>
            <Time>2021-08-02T08:11:09.000Z</Time>
            <Position>
              <LatitudeDegrees>41.806890182197093963623046875</LatitudeDegrees>
              <LongitudeDegrees>-1.81578132323920726776123046875</LongitudeDegrees>
            </Position>
            <AltitudeMeters>1174.5999755859375</AltitudeMeters>
            <DistanceMeters>432337.51864132</DistanceMeters>
          </Trackpoint>
          <Trackpoint>
            <Time>2021-08-02T08:11:18.000Z</Time>
            <Position>
              <LatitudeDegrees>41.8067014217376708984375</LatitudeDegrees>
              <LongitudeDegrees>-1.8156100809574127197265625</LongitudeDegrees>
            </Position>
            <AltitudeMeters>1175.800048828125</AltitudeMeters>
            <DistanceMeters>432362.88080675</DistanceMeters>
          </Trackpoint>
          <Trackpoint>
            <Time>2021-08-02T08:11:27.000Z</Time>
            <Position>
              <LatitudeDegrees>41.8065010942518711090087890625</LatitudeDegrees>
              <LongitudeDegrees>-1.815452836453914642333984375</LongitudeDegrees>
            </Position>
            <AltitudeMeters>1176.800048828125</AltitudeMeters>
            <DistanceMeters>432388.71374521</DistanceMeters>
          </Trackpoint>
          <Trackpoint>
            <Time>2021-08-02T08:11:37.000Z</Time>
            <Position>
              <LatitudeDegrees>41.8062977492809295654296875</LatitudeDegrees>
              <LongitudeDegrees>-1.81528612039983272552490234375</LongitudeDegrees>
            </Position>
            <AltitudeMeters>1178</AltitudeMeters>
            <DistanceMeters>432415.23811675</DistanceMeters>
          </Trackpoint>
          <Trackpoint>
            <Time>2021-08-02T08:11:46.000Z</Time>
            <Position>
              <LatitudeDegrees>41.80609733797609806060791015625</LatitudeDegrees>
              <LongitudeDegrees>-1.81515368632972240447998046875</LongitudeDegrees>
            </Position>
            <AltitudeMeters>1179</AltitudeMeters>
            <DistanceMeters>432440.10354123</DistanceMeters>
          </Trackpoint>
          <Trackpoint>
            <Time>2021-08-02T08:11:53.000Z</Time>
            <Position>
              <LatitudeDegrees>41.8059463798999786376953125</LatitudeDegrees>
              <LongitudeDegrees>-1.8150456435978412628173828125</LongitudeDegrees>
            </Position>
            <AltitudeMeters>1180</AltitudeMeters>
            <DistanceMeters>432459.14709394</DistanceMeters>
          </Trackpoint>
          <Trackpoint>
            <Time>2021-08-02T08:12:02.000Z</Time>
            <Position>
              <LatitudeDegrees>41.80576725862920284271240234375</LatitudeDegrees>
              <LongitudeDegrees>-1.8148873932659626007080078125</LongitudeDegrees>
            </Position>
            <AltitudeMeters>1181</AltitudeMeters>
            <DistanceMeters>432483.0182888</DistanceMeters>
          </Trackpoint>
          <Trackpoint>
            <Time>2021-08-02T08:12:10.000Z</Time>
            <Position>
              <LatitudeDegrees>41.80561638437211513519287109375</LatitudeDegrees>
              <LongitudeDegrees>-1.81473073549568653106689453125</LongitudeDegrees>
            </Position>
            <AltitudeMeters>1182</AltitudeMeters>
            <DistanceMeters>432504.25287938</DistanceMeters>
          </Trackpoint>
          <Trackpoint>
            <Time>2021-08-02T08:12:16.000Z</Time>
            <Position>
              <LatitudeDegrees>41.80550691671669483184814453125</LatitudeDegrees>
              <LongitudeDegrees>-1.81460668332874774932861328125</LongitudeDegrees>
            </Position>
            <AltitudeMeters>1182.800048828125</AltitudeMeters>
            <DistanceMeters>432520.20237102</DistanceMeters>
          </Trackpoint>
          <Trackpoint>
            <Time>2021-08-02T08:12:23.000Z</Time>
            <Position>
              <LatitudeDegrees>41.80539426393806934356689453125</LatitudeDegrees>
              <LongitudeDegrees>-1.81444667279720306396484375</LongitudeDegrees>
            </Position>
            <AltitudeMeters>1183.800048828125</AltitudeMeters>
            <DistanceMeters>432538.46308384</DistanceMeters>
          </Trackpoint>
          <Trackpoint>
            <Time>2021-08-02T08:12:33.000Z</Time>
            <Position>
              <LatitudeDegrees>41.8052293919026851654052734375</LatitudeDegrees>
              <LongitudeDegrees>-1.814229749143123626708984375</LongitudeDegrees>
            </Position>
            <AltitudeMeters>1184.800048828125</AltitudeMeters>
            <DistanceMeters>432564.1660096</DistanceMeters>
          </Trackpoint>
          <Trackpoint>
            <Time>2021-08-02T08:12:46.000Z</Time>
            <Position>
              <LatitudeDegrees>41.8050077743828296661376953125</LatitudeDegrees>
              <LongitudeDegrees>-1.8139026872813701629638671875</LongitudeDegrees>
            </Position>
            <AltitudeMeters>1185.800048828125</AltitudeMeters>
            <DistanceMeters>432600.83684207</DistanceMeters>
          </Trackpoint>
          <Trackpoint>
            <Time>2021-08-02T08:12:54.000Z</Time>
            <Position>
              <LatitudeDegrees>41.8048733286559581756591796875</LatitudeDegrees>
              <LongitudeDegrees>-1.8137699179351329803466796875</LongitudeDegrees>
            </Position>
            <AltitudeMeters>1186.800048828125</AltitudeMeters>
            <DistanceMeters>432619.41814915</DistanceMeters>
          </Trackpoint>
          <Trackpoint>
            <Time>2021-08-02T08:13:01.000Z</Time>
            <Position>
              <LatitudeDegrees>41.80474181659519672393798828125</LatitudeDegrees>
              <LongitudeDegrees>-1.813667826354503631591796875</LongitudeDegrees>
            </Position>
            <AltitudeMeters>1188</AltitudeMeters>
            <DistanceMeters>432636.32970086</DistanceMeters>
          </Trackpoint>
          <Trackpoint>
            <Time>2021-08-02T08:13:09.000Z</Time>
            <Position>
              <LatitudeDegrees>41.80459043942391872406005859375</LatitudeDegrees>
              <LongitudeDegrees>-1.81350924074649810791015625</LongitudeDegrees>
            </Position>
            <AltitudeMeters>1188.800048828125</AltitudeMeters>
            <DistanceMeters>432657.70712139</DistanceMeters>
          </Trackpoint>
          <Trackpoint>
            <Time>2021-08-02T08:13:22.000Z</Time>
            <Position>
              <LatitudeDegrees>41.80436345748603343963623046875</LatitudeDegrees>
              <LongitudeDegrees>-1.81328929960727691650390625</LongitudeDegrees>
            </Position>
            <AltitudeMeters>1190</AltitudeMeters>
            <DistanceMeters>432688.87182742</DistanceMeters>
          </Trackpoint>
          <Trackpoint>
            <Time>2021-08-02T08:13:29.000Z</Time>
            <Position>
              <LatitudeDegrees>41.80423471145331859588623046875</LatitudeDegrees>
              <LongitudeDegrees>-1.81316499598324298858642578125</LongitudeDegrees>
            </Position>
            <AltitudeMeters>1190.199951171875</AltitudeMeters>
            <DistanceMeters>432706.5268601</DistanceMeters>
          </Trackpoint>
          <Trackpoint>
            <Time>2021-08-02T08:13:35.000Z</Time>
            <Position>
              <LatitudeDegrees>41.804126836359500885009765625</LatitudeDegrees>
              <LongitudeDegrees>-1.8130668438971042633056640625</LongitudeDegrees>
            </Position>
            <AltitudeMeters>1190.800048828125</AltitudeMeters>
            <DistanceMeters>432721.03454846</DistanceMeters>
          </Trackpoint>
          <Trackpoint>
            <Time>2021-08-02T08:13:36.000Z</Time>
            <Position>
              <LatitudeDegrees>41.8041090667247772216796875</LatitudeDegrees>
              <LongitudeDegrees>-1.81304949335753917694091796875</LongitudeDegrees>
            </Position>
            <AltitudeMeters>1191</AltitudeMeters>
            <DistanceMeters>432723.48137103</DistanceMeters>
          </Trackpoint>
          <Trackpoint>
            <Time>2021-08-02T08:13:38.000Z</Time>
            <Position>
              <LatitudeDegrees>41.804070174694061279296875</LatitudeDegrees>
              <LongitudeDegrees>-1.8130121938884258270263671875</LongitudeDegrees>
            </Position>
            <AltitudeMeters>1191.199951171875</AltitudeMeters>
            <DistanceMeters>432728.80286704</DistanceMeters>
          </Trackpoint>
          <Trackpoint>
            <Time>2021-08-02T08:13:41.000Z</Time>
            <Position>
              <LatitudeDegrees>41.8040170334279537200927734375</LatitudeDegrees>
              <LongitudeDegrees>-1.81296030990779399871826171875</LongitudeDegrees>
            </Position>
            <AltitudeMeters>1191.5999755859375</AltitudeMeters>
            <DistanceMeters>432736.11807264</DistanceMeters>
          </Trackpoint>
          <Trackpoint>
            <Time>2021-08-02T08:13:44.000Z</Time>
            <Position>
              <LatitudeDegrees>41.8039550073444843292236328125</LatitudeDegrees>
              <LongitudeDegrees>-1.8128988705575466156005859375</LongitudeDegrees>
            </Position>
            <AltitudeMeters>1192.4000244140625</AltitudeMeters>
            <DistanceMeters>432744.69998988</DistanceMeters>
          </Trackpoint>
          <Trackpoint>
            <Time>2021-08-02T08:13:52.000Z</Time>
            <Position>
              <LatitudeDegrees>41.803771443665027618408203125</LatitudeDegrees>
              <LongitudeDegrees>-1.81272930465638637542724609375</LongitudeDegrees>
            </Position>
            <AltitudeMeters>1193.4000244140625</AltitudeMeters>
            <DistanceMeters>432769.50614898</DistanceMeters>
          </Trackpoint>
          <Trackpoint>
            <Time>2021-08-02T08:14:04.000Z</Time>
            <Position>
              <LatitudeDegrees>41.8035526759922504425048828125</LatitudeDegrees>
              <LongitudeDegrees>-1.81244867853820323944091796875</LongitudeDegrees>
            </Position>
            <AltitudeMeters>1194.800048828125</AltitudeMeters>
            <DistanceMeters>432803.19576619</DistanceMeters>
          </Trackpoint>
          <Trackpoint>
            <Time>2021-08-02T08:14:11.000Z</Time>
            <Position>
              <LatitudeDegrees>41.80344060994684696197509765625</LatitudeDegrees>
              <LongitudeDegrees>-1.81231020949780941009521484375</LongitudeDegrees>
            </Position>
            <AltitudeMeters>1196</AltitudeMeters>
            <DistanceMeters>432820.15370871</DistanceMeters>
          </Trackpoint>
          <Trackpoint>
            <Time>2021-08-02T08:14:17.000Z</Time>
            <Position>
              <LatitudeDegrees>41.80335469543933868408203125</LatitudeDegrees>
              <LongitudeDegrees>-1.8122251331806182861328125</LongitudeDegrees>
            </Position>
            <AltitudeMeters>1197.5999755859375</AltitudeMeters>
            <DistanceMeters>432832.04002757</DistanceMeters>
          </Trackpoint>
          <Trackpoint>
            <Time>2021-08-02T08:14:18.000Z</Time>
            <Position>
              <LatitudeDegrees>41.80333667434751987457275390625</LatitudeDegrees>
              <LongitudeDegrees>-1.81221230886876583099365234375</LongitudeDegrees>
            </Position>
            <AltitudeMeters>1197.800048828125</AltitudeMeters>
            <DistanceMeters>432834.31273603</DistanceMeters>
          </Trackpoint>
          <Trackpoint>
            <Time>2021-08-02T08:14:23.000Z</Time>
            <Position>
              <LatitudeDegrees>41.80325235240161418914794921875</LatitudeDegrees>
              <LongitudeDegrees>-1.81211407296359539031982421875</LongitudeDegrees>
            </Position>
            <AltitudeMeters>1198.5999755859375</AltitudeMeters>
            <DistanceMeters>432846.74272428</DistanceMeters>
          </Trackpoint>
          <Trackpoint>
            <Time>2021-08-02T08:14:30.000Z</Time>
            <Position>
              <LatitudeDegrees>41.8031273782253265380859375</LatitudeDegrees>
              <LongitudeDegrees>-1.81196630001068115234375</LongitudeDegrees>
            </Position>
            <AltitudeMeters>1199.800048828125</AltitudeMeters>
            <DistanceMeters>432865.28438198</DistanceMeters>
          </Trackpoint>
          <Trackpoint>
            <Time>2021-08-02T08:14:37.000Z</Time>
            <Position>
              <LatitudeDegrees>41.80301447398960590362548828125</LatitudeDegrees>
              <LongitudeDegrees>-1.81182607077062129974365234375</LongitudeDegrees>
            </Position>
            <AltitudeMeters>1201</AltitudeMeters>
            <DistanceMeters>432882.40976731</DistanceMeters>
          </Trackpoint>
          <Trackpoint>
            <Time>2021-08-02T08:14:42.000Z</Time>
            <Position>
              <LatitudeDegrees>41.802911460399627685546875</LatitudeDegrees>
              <LongitudeDegrees>-1.81172716431319713592529296875</LongitudeDegrees>
            </Position>
            <AltitudeMeters>1202.199951171875</AltitudeMeters>
            <DistanceMeters>432896.50931103</DistanceMeters>
          </Trackpoint>
          <Trackpoint>
            <Time>2021-08-02T08:15:00.000Z</Time>
            <Position>
              <LatitudeDegrees>41.80260359309613704681396484375</LatitudeDegrees>
              <LongitudeDegrees>-1.81113640777766704559326171875</LongitudeDegrees>
            </Position>
            <AltitudeMeters>1203.199951171875</AltitudeMeters>
            <DistanceMeters>432956.31411533</DistanceMeters>
          </Trackpoint>
          <Trackpoint>
            <Time>2021-08-02T08:15:05.000Z</Time>
            <Position>
              <LatitudeDegrees>41.80255539715290069580078125</LatitudeDegrees>
              <LongitudeDegrees>-1.81094395928084850311279296875</LongitudeDegrees>
            </Position>
            <AltitudeMeters>1203.4000244140625</AltitudeMeters>
            <DistanceMeters>432973.15852188</DistanceMeters>
          </Trackpoint>
          <Trackpoint>
            <Time>2021-08-02T08:15:22.000Z</Time>
            <Position>
              <LatitudeDegrees>41.8023817241191864013671875</LatitudeDegrees>
              <LongitudeDegrees>-1.81023568846285343170166015625</LongitudeDegrees>
            </Position>
            <AltitudeMeters>1204.4000244140625</AltitudeMeters>
            <DistanceMeters>433035.02113189</DistanceMeters>
          </Trackpoint>
          <Trackpoint>
            <Time>2021-08-02T08:15:28.000Z</Time>
            <Position>
              <LatitudeDegrees>41.80230469442903995513916015625</LatitudeDegrees>
              <LongitudeDegrees>-1.80998322553932666778564453125</LongitudeDegrees>
            </Position>
            <AltitudeMeters>1204.800048828125</AltitudeMeters>
            <DistanceMeters>433057.65485157</DistanceMeters>
          </Trackpoint>
          <Trackpoint>
            <Time>2021-08-02T08:15:38.000Z</Time>
            <Position>
              <LatitudeDegrees>41.80215197615325450897216796875</LatitudeDegrees>
              <LongitudeDegrees>-1.80965113453567028045654296875</LongitudeDegrees>
            </Position>
            <AltitudeMeters>1206</AltitudeMeters>
            <DistanceMeters>433090.02968752</DistanceMeters>
          </Trackpoint>
          <Trackpoint>
            <Time>2021-08-02T08:15:44.000Z</Time>
            <Position>
              <LatitudeDegrees>41.80205642245709896087646484375</LatitudeDegrees>
              <LongitudeDegrees>-1.80946421809494495391845703125</LongitudeDegrees>
            </Position>
            <AltitudeMeters>1207.199951171875</AltitudeMeters>
            <DistanceMeters>433108.83441548</DistanceMeters>
          </Trackpoint>
          <Trackpoint>
            <Time>2021-08-02T08:15:52.000Z</Time>
            <Position>
              <LatitudeDegrees>41.801916025578975677490234375</LatitudeDegrees>
              <LongitudeDegrees>-1.80924762971699237823486328125</LongitudeDegrees>
            </Position>
            <AltitudeMeters>1208</AltitudeMeters>
            <DistanceMeters>433132.64861064</DistanceMeters>
          </Trackpoint>
          <Trackpoint>
            <Time>2021-08-02T08:15:59.000Z</Time>
            <Position>
              <LatitudeDegrees>41.801799349486827850341796875</LatitudeDegrees>
              <LongitudeDegrees>-1.80908602662384510040283203125</LongitudeDegrees>
            </Position>
            <AltitudeMeters>1209</AltitudeMeters>
            <DistanceMeters>433151.31476985</DistanceMeters>
          </Trackpoint>
          <Trackpoint>
            <Time>2021-08-02T08:16:05.000Z</Time>
            <Position>
              <LatitudeDegrees>41.801683008670806884765625</LatitudeDegrees>
              <LongitudeDegrees>-1.8089644052088260650634765625</LongitudeDegrees>
            </Position>
            <AltitudeMeters>1210</AltitudeMeters>
            <DistanceMeters>433167.73130515</DistanceMeters>
          </Trackpoint>
          <Trackpoint>
            <Time>2021-08-02T08:16:13.000Z</Time>
            <Position>
              <LatitudeDegrees>41.801537163555622100830078125</LatitudeDegrees>
              <LongitudeDegrees>-1.80878930725157260894775390625</LongitudeDegrees>
            </Position>
            <AltitudeMeters>1211.199951171875</AltitudeMeters>
            <DistanceMeters>433189.51585558</DistanceMeters>
          </Trackpoint>
          <Trackpoint>
            <Time>2021-08-02T08:16:20.000Z</Time>
            <Position>
              <LatitudeDegrees>41.80138469673693180084228515625</LatitudeDegrees>
              <LongitudeDegrees>-1.8086499162018299102783203125</LongitudeDegrees>
            </Position>
            <AltitudeMeters>1212.199951171875</AltitudeMeters>
            <DistanceMeters>433210.05174198</DistanceMeters>
          </Trackpoint>
          <Trackpoint>
            <Time>2021-08-02T08:16:31.000Z</Time>
            <Position>
              <LatitudeDegrees>41.80117749609053134918212890625</LatitudeDegrees>
              <LongitudeDegrees>-1.80838647298514842987060546875</LongitudeDegrees>
            </Position>
            <AltitudeMeters>1213</AltitudeMeters>
            <DistanceMeters>433241.82649276</DistanceMeters>
          </Trackpoint>
          <Trackpoint>
            <Time>2021-08-02T08:16:42.000Z</Time>
            <Position>
              <LatitudeDegrees>41.8009911663830280303955078125</LatitudeDegrees>
              <LongitudeDegrees>-1.80813719518482685089111328125</LongitudeDegrees>
            </Position>
            <AltitudeMeters>1214.199951171875</AltitudeMeters>
            <DistanceMeters>433271.1163098</DistanceMeters>
          </Trackpoint>
          <Trackpoint>
            <Time>2021-08-02T08:16:44.000Z</Time>
            <Position>
              <LatitudeDegrees>41.8009552918374538421630859375</LatitudeDegrees>
              <LongitudeDegrees>-1.8080765940248966217041015625</LongitudeDegrees>
            </Position>
            <AltitudeMeters>1214.4000244140625</AltitudeMeters>
            <DistanceMeters>433277.53747239</DistanceMeters>
          </Trackpoint>
          <Trackpoint>
            <Time>2021-08-02T08:16:49.000Z</Time>
            <Position>
              <LatitudeDegrees>41.8008466623723506927490234375</LatitudeDegrees>
              <LongitudeDegrees>-1.80796570144593715667724609375</LongitudeDegrees>
            </Position>
            <AltitudeMeters>1214.800048828125</AltitudeMeters>
            <DistanceMeters>433292.73105243</DistanceMeters>
          </Trackpoint>
          <Trackpoint>
            <Time>2021-08-02T08:16:52.000Z</Time>
            <Position>
              <LatitudeDegrees>41.800788827240467071533203125</LatitudeDegrees>
              <LongitudeDegrees>-1.8078938685357570648193359375</LongitudeDegrees>
            </Position>
            <AltitudeMeters>1215.199951171875</AltitudeMeters>
            <DistanceMeters>433301.50341308</DistanceMeters>
          </Trackpoint>
          <Trackpoint>
            <Time>2021-08-02T08:17:03.000Z</Time>
            <Position>
              <LatitudeDegrees>41.80057114921510219573974609375</LatitudeDegrees>
              <LongitudeDegrees>-1.8076454289257526397705078125</LongitudeDegrees>
            </Position>
            <AltitudeMeters>1216.199951171875</AltitudeMeters>
            <DistanceMeters>433333.31395169</DistanceMeters>
          </Trackpoint>
          <Trackpoint>
            <Time>2021-08-02T08:17:09.000Z</Time>
            <Position>
              <LatitudeDegrees>41.8004768528044223785400390625</LatitudeDegrees>
              <LongitudeDegrees>-1.80752347223460674285888671875</LongitudeDegrees>
            </Position>
            <AltitudeMeters>1217.199951171875</AltitudeMeters>
            <DistanceMeters>433347.89273453</DistanceMeters>
          </Trackpoint>
          <Trackpoint>
            <Time>2021-08-02T08:17:18.000Z</Time>
            <Position>
              <LatitudeDegrees>41.80035137571394443511962890625</LatitudeDegrees>
              <LongitudeDegrees>-1.80733772926032543182373046875</LongitudeDegrees>
            </Position>
            <AltitudeMeters>1218.4000244140625</AltitudeMeters>
            <DistanceMeters>433368.69078064</DistanceMeters>
          </Trackpoint>
          <Trackpoint>
            <Time>2021-08-02T08:17:27.000Z</Time>
            <Position>
              <LatitudeDegrees>41.8002079613506793975830078125</LatitudeDegrees>
              <LongitudeDegrees>-1.8071418441832065582275390625</LongitudeDegrees>
            </Position>
            <AltitudeMeters>1219.4000244140625</AltitudeMeters>
            <DistanceMeters>433391.47144115</DistanceMeters>
          </Trackpoint>
          <Trackpoint>
            <Time>2021-08-02T08:17:32.000Z</Time>
            <Position>
              <LatitudeDegrees>41.80012204684317111968994140625</LatitudeDegrees>
              <LongitudeDegrees>-1.807015277445316314697265625</LongitudeDegrees>
            </Position>
            <AltitudeMeters>1220.4000244140625</AltitudeMeters>
            <DistanceMeters>433405.67467697</DistanceMeters>
          </Trackpoint>
          <Trackpoint>
            <Time>2021-08-02T08:17:39.000Z</Time>
            <Position>
              <LatitudeDegrees>41.7999964021146297454833984375</LatitudeDegrees>
              <LongitudeDegrees>-1.8068501539528369903564453125</LongitudeDegrees>
            </Position>
            <AltitudeMeters>1221.4000244140625</AltitudeMeters>
            <DistanceMeters>433425.25202522</DistanceMeters>
          </Trackpoint>
          <Trackpoint>
            <Time>2021-08-02T08:17:47.000Z</Time>
            <Position>
              <LatitudeDegrees>41.7999675683677196502685546875</LatitudeDegrees>
              <LongitudeDegrees>-1.8069443665444850921630859375</LongitudeDegrees>
            </Position>
            <AltitudeMeters>1222.800048828125</AltitudeMeters>
            <DistanceMeters>433433.70245979</DistanceMeters>
          </Trackpoint>
          <Trackpoint>
            <Time>2021-08-02T08:17:49.000Z</Time>
            <Position>
              <LatitudeDegrees>41.80000185035169124603271484375</LatitudeDegrees>
              <LongitudeDegrees>-1.80699038319289684295654296875</LongitudeDegrees>
            </Position>
            <AltitudeMeters>1223</AltitudeMeters>
            <DistanceMeters>433439.09977641</DistanceMeters>
          </Trackpoint>
          <Trackpoint>
            <Time>2021-08-02T08:18:08.000Z</Time>
            <Position>
              <LatitudeDegrees>41.80036294274032115936279296875</LatitudeDegrees>
              <LongitudeDegrees>-1.80752615444362163543701171875</LongitudeDegrees>
            </Position>
            <AltitudeMeters>1224</AltitudeMeters>
            <DistanceMeters>433499.02841733</DistanceMeters>
          </Trackpoint>
          <Trackpoint>
            <Time>2021-08-02T08:18:18.000Z</Time>
            <Position>
              <LatitudeDegrees>41.80056712590157985687255859375</LatitudeDegrees>
              <LongitudeDegrees>-1.8078182637691497802734375</LongitudeDegrees>
            </Position>
            <AltitudeMeters>1224.800048828125</AltitudeMeters>
            <DistanceMeters>433532.25354013</DistanceMeters>
          </Trackpoint>
          <Trackpoint>
            <Time>2021-08-02T08:18:29.000Z</Time>
            <Position>
              <LatitudeDegrees>41.80077482946217060089111328125</LatitudeDegrees>
              <LongitudeDegrees>-1.808135099709033966064453125</LongitudeDegrees>
            </Position>
            <AltitudeMeters>1226</AltitudeMeters>
            <DistanceMeters>433567.26105154</DistanceMeters>
          </Trackpoint>
          <Trackpoint>
            <Time>2021-08-02T08:18:37.000Z</Time>
            <Position>
              <LatitudeDegrees>41.80087029933929443359375</LatitudeDegrees>
              <LongitudeDegrees>-1.8083941005170345306396484375</LongitudeDegrees>
            </Position>
            <AltitudeMeters>1226.800048828125</AltitudeMeters>
            <DistanceMeters>433591.23416534</DistanceMeters>
          </Trackpoint>
          <Trackpoint>
            <Time>2021-08-02T08:18:44.000Z</Time>
            <Position>
              <LatitudeDegrees>41.8010092712938785552978515625</LatitudeDegrees>
              <LongitudeDegrees>-1.80858294479548931121826171875</LongitudeDegrees>
            </Position>
            <AltitudeMeters>1227.5999755859375</AltitudeMeters>
            <DistanceMeters>433613.25146748</DistanceMeters>
          </Trackpoint>
          <Trackpoint>
            <Time>2021-08-02T08:18:54.000Z</Time>
            <Position>
              <LatitudeDegrees>41.80114321410655975341796875</LatitudeDegrees>
              <LongitudeDegrees>-1.80883641354739665985107421875</LongitudeDegrees>
            </Position>
            <AltitudeMeters>1228.5999755859375</AltitudeMeters>
            <DistanceMeters>433639.03016771</DistanceMeters>
          </Trackpoint>
          <Trackpoint>
            <Time>2021-08-02T08:19:01.000Z</Time>
            <Position>
              <LatitudeDegrees>41.80124639533460140228271484375</LatitudeDegrees>
              <LongitudeDegrees>-1.809034645557403564453125</LongitudeDegrees>
            </Position>
            <AltitudeMeters>1229.4000244140625</AltitudeMeters>
            <DistanceMeters>433659.09048493</DistanceMeters>
          </Trackpoint>
          <Trackpoint>
            <Time>2021-08-02T08:19:07.000Z</Time>
            <Position>
              <LatitudeDegrees>41.80131487548351287841796875</LatitudeDegrees>
              <LongitudeDegrees>-1.8092111684381961822509765625</LongitudeDegrees>
            </Position>
            <AltitudeMeters>1230.4000244140625</AltitudeMeters>
            <DistanceMeters>433675.60163291</DistanceMeters>
          </Trackpoint>
          <Trackpoint>
            <Time>2021-08-02T08:19:13.000Z</Time>
            <Position>
              <LatitudeDegrees>41.801352091133594512939453125</LatitudeDegrees>
              <LongitudeDegrees>-1.80939967744052410125732421875</LongitudeDegrees>
            </Position>
            <AltitudeMeters>1231.199951171875</AltitudeMeters>
            <DistanceMeters>433691.78186704</DistanceMeters>
          </Trackpoint>
          <Trackpoint>
            <Time>2021-08-02T08:19:19.000Z</Time>
            <Position>
              <LatitudeDegrees>41.80139861069619655609130859375</LatitudeDegrees>
              <LongitudeDegrees>-1.809576451778411865234375</LongitudeDegrees>
            </Position>
            <AltitudeMeters>1232.199951171875</AltitudeMeters>
            <DistanceMeters>433707.33608859</DistanceMeters>
          </Trackpoint>
          <Trackpoint>
            <Time>2021-08-02T08:19:27.000Z</Time>
            <Position>
              <LatitudeDegrees>41.80143901146948337554931640625</LatitudeDegrees>
              <LongitudeDegrees>-1.80982120335102081298828125</LongitudeDegrees>
            </Position>
            <AltitudeMeters>1233.199951171875</AltitudeMeters>
            <DistanceMeters>433728.13522011</DistanceMeters>
          </Trackpoint>
          <Trackpoint>
            <Time>2021-08-02T08:19:37.000Z</Time>
            <Position>
              <LatitudeDegrees>41.80149919353425502777099609375</LatitudeDegrees>
              <LongitudeDegrees>-1.81012085638940334320068359375</LongitudeDegrees>
            </Position>
            <AltitudeMeters>1234.199951171875</AltitudeMeters>
            <DistanceMeters>433753.8841283</DistanceMeters>
          </Trackpoint>
          <Trackpoint>
            <Time>2021-08-02T08:19:44.000Z</Time>
            <Position>
              <LatitudeDegrees>41.801548562943935394287109375</LatitudeDegrees>
              <LongitudeDegrees>-1.810343563556671142578125</LongitudeDegrees>
            </Position>
            <AltitudeMeters>1235.199951171875</AltitudeMeters>
            <DistanceMeters>433773.16214236</DistanceMeters>
          </Trackpoint>
          <Trackpoint>
            <Time>2021-08-02T08:19:51.000Z</Time>
            <Position>
              <LatitudeDegrees>41.80156524293124675750732421875</LatitudeDegrees>
              <LongitudeDegrees>-1.810593344271183013916015625</LongitudeDegrees>
            </Position>
            <AltitudeMeters>1236.4000244140625</AltitudeMeters>
            <DistanceMeters>433793.96973821</DistanceMeters>
          </Trackpoint>
          <Trackpoint>
            <Time>2021-08-02T08:19:57.000Z</Time>
            <Position>
              <LatitudeDegrees>41.8015668354928493499755859375</LatitudeDegrees>
              <LongitudeDegrees>-1.81079308502376079559326171875</LongitudeDegrees>
            </Position>
            <AltitudeMeters>1237.4000244140625</AltitudeMeters>
            <DistanceMeters>433810.54366126</DistanceMeters>
          </Trackpoint>
          <Trackpoint>
            <Time>2021-08-02T08:20:05.000Z</Time>
            <Position>
              <LatitudeDegrees>41.80154579691588878631591796875</LatitudeDegrees>
              <LongitudeDegrees>-1.81106801144778728485107421875</LongitudeDegrees>
            </Position>
            <AltitudeMeters>1238.4000244140625</AltitudeMeters>
            <DistanceMeters>433833.47445609</DistanceMeters>
          </Trackpoint>
          <Trackpoint>
            <Time>2021-08-02T08:20:17.000Z</Time>
            <Position>
              <LatitudeDegrees>41.80147714912891387939453125</LatitudeDegrees>
              <LongitudeDegrees>-1.81145642884075641632080078125</LongitudeDegrees>
            </Position>
            <AltitudeMeters>1239.4000244140625</AltitudeMeters>
            <DistanceMeters>433866.59504918</DistanceMeters>
          </Trackpoint>
          <Trackpoint>
            <Time>2021-08-02T08:20:26.000Z</Time>
            <Position>
              <LatitudeDegrees>41.80140816606581211090087890625</LatitudeDegrees>
              <LongitudeDegrees>-1.81167687289416790008544921875</LongitudeDegrees>
            </Position>
            <AltitudeMeters>1240.5999755859375</AltitudeMeters>
            <DistanceMeters>433886.43129255</DistanceMeters>
          </Trackpoint>
          <Trackpoint>
            <Time>2021-08-02T08:20:33.000Z</Time>
            <Position>
              <LatitudeDegrees>41.80133767426013946533203125</LatitudeDegrees>
              <LongitudeDegrees>-1.81183428503572940826416015625</LongitudeDegrees>
            </Position>
            <AltitudeMeters>1241.5999755859375</AltitudeMeters>
            <DistanceMeters>433901.66701193</DistanceMeters>
          </Trackpoint>
          <Trackpoint>
            <Time>2021-08-02T08:20:41.000Z</Time>
            <Position>
              <LatitudeDegrees>41.80123013444244861602783203125</LatitudeDegrees>
              <LongitudeDegrees>-1.8120432458817958831787109375</LongitudeDegrees>
            </Position>
            <AltitudeMeters>1242.5999755859375</AltitudeMeters>
            <DistanceMeters>433922.73510101</DistanceMeters>
          </Trackpoint>
          <Trackpoint>
            <Time>2021-08-02T08:20:55.000Z</Time>
            <Position>
              <LatitudeDegrees>41.80106677114963531494140625</LatitudeDegrees>
              <LongitudeDegrees>-1.8124767579138278961181640625</LongitudeDegrees>
            </Position>
            <AltitudeMeters>1243.800048828125</AltitudeMeters>
            <DistanceMeters>433963.03875259</DistanceMeters>
          </Trackpoint>
          <Trackpoint>
            <Time>2021-08-02T08:21:02.000Z</Time>
            <Position>
              <LatitudeDegrees>41.8010233528912067413330078125</LatitudeDegrees>
              <LongitudeDegrees>-1.81275897659361362457275390625</LongitudeDegrees>
            </Position>
            <AltitudeMeters>1244.5999755859375</AltitudeMeters>
            <DistanceMeters>433986.94850122</DistanceMeters>
          </Trackpoint>
          <Trackpoint>
            <Time>2021-08-02T08:21:12.000Z</Time>
            <Position>
              <LatitudeDegrees>41.80106014944612979888916015625</LatitudeDegrees>
              <LongitudeDegrees>-1.81310288608074188232421875</LongitudeDegrees>
            </Position>
            <AltitudeMeters>1245.5999755859375</AltitudeMeters>
            <DistanceMeters>434015.77575994</DistanceMeters>
          </Trackpoint>
          <Trackpoint>
            <Time>2021-08-02T08:21:24.000Z</Time>
            <Position>
              <LatitudeDegrees>41.80116559378802776336669921875</LatitudeDegrees>
              <LongitudeDegrees>-1.81343640200793743133544921875</LongitudeDegrees>
            </Position>
            <AltitudeMeters>1246.5999755859375</AltitudeMeters>
            <DistanceMeters>434045.83395796</DistanceMeters>
          </Trackpoint>
          <Trackpoint>
            <Time>2021-08-02T08:21:35.000Z</Time>
            <Position>
              <LatitudeDegrees>41.80126969702541828155517578125</LatitudeDegrees>
              <LongitudeDegrees>-1.8137031979858875274658203125</LongitudeDegrees>
            </Position>
            <AltitudeMeters>1247.5999755859375</AltitudeMeters>
            <DistanceMeters>434070.81929856</DistanceMeters>
          </Trackpoint>
          <Trackpoint>
            <Time>2021-08-02T08:21:45.000Z</Time>
            <Position>
              <LatitudeDegrees>41.80142191238701343536376953125</LatitudeDegrees>
              <LongitudeDegrees>-1.81402078829705715179443359375</LongitudeDegrees>
            </Position>
            <AltitudeMeters>1248.5999755859375</AltitudeMeters>
            <DistanceMeters>434102.14671096</DistanceMeters>
          </Trackpoint>
          <Trackpoint>
            <Time>2021-08-02T08:21:52.000Z</Time>
            <Position>
              <LatitudeDegrees>41.80152316577732563018798828125</LatitudeDegrees>
              <LongitudeDegrees>-1.81421994231641292572021484375</LongitudeDegrees>
            </Position>
            <AltitudeMeters>1249.5999755859375</AltitudeMeters>
            <DistanceMeters>434122.14819783</DistanceMeters>
          </Trackpoint>
          <Trackpoint>
            <Time>2021-08-02T08:21:58.000Z</Time>
            <Position>
              <LatitudeDegrees>41.80161570198833942413330078125</LatitudeDegrees>
              <LongitudeDegrees>-1.81437517516314983367919921875</LongitudeDegrees>
            </Position>
            <AltitudeMeters>1250.5999755859375</AltitudeMeters>
            <DistanceMeters>434138.64019293</DistanceMeters>
          </Trackpoint>
          <Trackpoint>
            <Time>2021-08-02T08:22:06.000Z</Time>
            <Position>
              <LatitudeDegrees>41.801746375858783721923828125</LatitudeDegrees>
              <LongitudeDegrees>-1.8145787715911865234375</LongitudeDegrees>
            </Position>
            <AltitudeMeters>1251.5999755859375</AltitudeMeters>
            <DistanceMeters>434160.93119978</DistanceMeters>
          </Trackpoint>
          <Trackpoint>
            <Time>2021-08-02T08:22:18.000Z</Time>
            <Position>
              <LatitudeDegrees>41.8019378185272216796875</LatitudeDegrees>
              <LongitudeDegrees>-1.81483115069568157196044921875</LongitudeDegrees>
            </Position>
            <AltitudeMeters>1252.800048828125</AltitudeMeters>
            <DistanceMeters>434190.80603309</DistanceMeters>
          </Trackpoint>
          <Trackpoint>
            <Time>2021-08-02T08:22:27.000Z</Time>
            <Position>
              <LatitudeDegrees>41.80210269056260585784912109375</LatitudeDegrees>
              <LongitudeDegrees>-1.8150387704372406005859375</LongitudeDegrees>
            </Position>
            <AltitudeMeters>1253.5999755859375</AltitudeMeters>
            <DistanceMeters>434215.9751998</DistanceMeters>
          </Trackpoint>
          <Trackpoint>
            <Time>2021-08-02T08:22:36.000Z</Time>
            <Position>
              <LatitudeDegrees>41.80225658230483531951904296875</LatitudeDegrees>
              <LongitudeDegrees>-1.81525426916778087615966796875</LongitudeDegrees>
            </Position>
            <AltitudeMeters>1254.5999755859375</AltitudeMeters>
            <DistanceMeters>434240.73544919</DistanceMeters>
          </Trackpoint>
          <Trackpoint>
            <Time>2021-08-02T08:22:45.000Z</Time>
            <Position>
              <LatitudeDegrees>41.80239656008780002593994140625</LatitudeDegrees>
              <LongitudeDegrees>-1.81542760692536830902099609375</LongitudeDegrees>
            </Position>
            <AltitudeMeters>1255.5999755859375</AltitudeMeters>
            <DistanceMeters>434261.93833475</DistanceMeters>
          </Trackpoint>
          <Trackpoint>
            <Time>2021-08-02T08:22:54.000Z</Time>
            <Position>
              <LatitudeDegrees>41.8025740049779415130615234375</LatitudeDegrees>
              <LongitudeDegrees>-1.8156142719089984893798828125</LongitudeDegrees>
            </Position>
            <AltitudeMeters>1256.5999755859375</AltitudeMeters>
            <DistanceMeters>434287.0365433</DistanceMeters>
          </Trackpoint>
          <Trackpoint>
            <Time>2021-08-02T08:23:01.000Z</Time>
            <Position>
              <LatitudeDegrees>41.80268858559429645538330078125</LatitudeDegrees>
              <LongitudeDegrees>-1.81577495299279689788818359375</LongitudeDegrees>
            </Position>
            <AltitudeMeters>1257.800048828125</AltitudeMeters>
            <DistanceMeters>434305.48592544</DistanceMeters>
          </Trackpoint>
          <Trackpoint>
            <Time>2021-08-02T08:23:11.000Z</Time>
            <Position>
              <LatitudeDegrees>41.80288220755755901336669921875</LatitudeDegrees>
              <LongitudeDegrees>-1.81600771844387054443359375</LongitudeDegrees>
            </Position>
            <AltitudeMeters>1258.800048828125</AltitudeMeters>
            <DistanceMeters>434334.4237054</DistanceMeters>
          </Trackpoint>
          <Trackpoint>
            <Time>2021-08-02T08:23:21.000Z</Time>
            <Position>
              <LatitudeDegrees>41.80307784117758274078369140625</LatitudeDegrees>
              <LongitudeDegrees>-1.81620779447257518768310546875</LongitudeDegrees>
            </Position>
            <AltitudeMeters>1260</AltitudeMeters>
            <DistanceMeters>434361.80426432</DistanceMeters>
          </Trackpoint>
          <Trackpoint>
            <Time>2021-08-02T08:23:30.000Z</Time>
            <Position>
              <LatitudeDegrees>41.80326727218925952911376953125</LatitudeDegrees>
              <LongitudeDegrees>-1.81636788882315158843994140625</LongitudeDegrees>
            </Position>
            <AltitudeMeters>1260.800048828125</AltitudeMeters>
            <DistanceMeters>434386.72355939</DistanceMeters>
          </Trackpoint>
          <Trackpoint>
            <Time>2021-08-02T08:23:37.000Z</Time>
            <Position>
              <LatitudeDegrees>41.8034011311829090118408203125</LatitudeDegrees>
              <LongitudeDegrees>-1.816503591835498809814453125</LongitudeDegrees>
            </Position>
            <AltitudeMeters>1261.800048828125</AltitudeMeters>
            <DistanceMeters>434405.3981826</DistanceMeters>
          </Trackpoint>
          <Trackpoint>
            <Time>2021-08-02T08:23:40.000Z</Time>
            <Position>
              <LatitudeDegrees>41.80341931991279125213623046875</LatitudeDegrees>
              <LongitudeDegrees>-1.8165939487516880035400390625</LongitudeDegrees>
            </Position>
            <AltitudeMeters>1262.4000244140625</AltitudeMeters>
            <DistanceMeters>434413.16367361</DistanceMeters>
          </Trackpoint>
          <Trackpoint>
            <Time>2021-08-02T08:23:42.000Z</Time>
            <Position>
              <LatitudeDegrees>41.803389228880405426025390625</LatitudeDegrees>
              <LongitudeDegrees>-1.8166435696184635162353515625</LongitudeDegrees>
            </Position>
            <AltitudeMeters>1262.800048828125</AltitudeMeters>
            <DistanceMeters>434418.47072631</DistanceMeters>
          </Trackpoint>
          <Trackpoint>
            <Time>2021-08-02T08:23:48.000Z</Time>
            <Position>
              <LatitudeDegrees>41.80326157249510288238525390625</LatitudeDegrees>
              <LongitudeDegrees>-1.81661649607121944427490234375</LongitudeDegrees>
            </Position>
            <AltitudeMeters>1263.5999755859375</AltitudeMeters>
            <DistanceMeters>434432.85527259</DistanceMeters>
          </Trackpoint>
          <Trackpoint>
            <Time>2021-08-02T08:23:52.000Z</Time>
            <Position>
              <LatitudeDegrees>41.803175993263721466064453125</LatitudeDegrees>
              <LongitudeDegrees>-1.81654055602848529815673828125</LongitudeDegrees>
            </Position>
            <AltitudeMeters>1263.800048828125</AltitudeMeters>
            <DistanceMeters>434444.27549124</DistanceMeters>
          </Trackpoint>
          <Trackpoint>
            <Time>2021-08-02T08:24:02.000Z</Time>
            <Position>
              <LatitudeDegrees>41.8029193393886089324951171875</LatitudeDegrees>
              <LongitudeDegrees>-1.8164249695837497711181640625</LongitudeDegrees>
            </Position>
            <AltitudeMeters>1264.800048828125</AltitudeMeters>
            <DistanceMeters>434474.40840094</DistanceMeters>
          </Trackpoint>
          <Trackpoint>
            <Time>2021-08-02T08:24:13.000Z</Time>
            <Position>
              <LatitudeDegrees>41.80268271826207637786865234375</LatitudeDegrees>
              <LongitudeDegrees>-1.81628474034368991851806640625</LongitudeDegrees>
            </Position>
            <AltitudeMeters>1265.800048828125</AltitudeMeters>
            <DistanceMeters>434503.2003977</DistanceMeters>
          </Trackpoint>
          <Trackpoint>
            <Time>2021-08-02T08:24:21.000Z</Time>
            <Position>
              <LatitudeDegrees>41.80248255841434001922607421875</LatitudeDegrees>
              <LongitudeDegrees>-1.81621667928993701934814453125</LongitudeDegrees>
            </Position>
            <AltitudeMeters>1266.800048828125</AltitudeMeters>
            <DistanceMeters>434526.18311494</DistanceMeters>
          </Trackpoint>
          <Trackpoint>
            <Time>2021-08-02T08:24:30.000Z</Time>
            <Position>
              <LatitudeDegrees>41.80228558368980884552001953125</LatitudeDegrees>
              <LongitudeDegrees>-1.81616839952766895294189453125</LongitudeDegrees>
            </Position>
            <AltitudeMeters>1268</AltitudeMeters>
            <DistanceMeters>434548.46986784</DistanceMeters>
          </Trackpoint>
          <Trackpoint>
            <Time>2021-08-02T08:24:38.000Z</Time>
            <Position>
              <LatitudeDegrees>41.80209673941135406494140625</LatitudeDegrees>
              <LongitudeDegrees>-1.816085167229175567626953125</LongitudeDegrees>
            </Position>
            <AltitudeMeters>1269</AltitudeMeters>
            <DistanceMeters>434570.59395637</DistanceMeters>
          </Trackpoint>
          <Trackpoint>
            <Time>2021-08-02T08:24:45.000Z</Time>
            <Position>
              <LatitudeDegrees>41.80192834697663784027099609375</LatitudeDegrees>
              <LongitudeDegrees>-1.81599975563585758209228515625</LongitudeDegrees>
            </Position>
            <AltitudeMeters>1270.199951171875</AltitudeMeters>
            <DistanceMeters>434590.63130298</DistanceMeters>
          </Trackpoint>
          <Trackpoint>
            <Time>2021-08-02T08:24:55.000Z</Time>
            <Position>
              <LatitudeDegrees>41.801707483828067779541015625</LatitudeDegrees>
              <LongitudeDegrees>-1.81586824357509613037109375</LongitudeDegrees>
            </Position>
            <AltitudeMeters>1271.4000244140625</AltitudeMeters>
            <DistanceMeters>434617.52671715</DistanceMeters>
          </Trackpoint>
          <Trackpoint>
            <Time>2021-08-02T08:25:08.000Z</Time>
            <Position>
              <LatitudeDegrees>41.80142945609986782073974609375</LatitudeDegrees>
              <LongitudeDegrees>-1.81565693579614162445068359375</LongitudeDegrees>
            </Position>
            <AltitudeMeters>1272.800048828125</AltitudeMeters>
            <DistanceMeters>434653.09325</DistanceMeters>
          </Trackpoint>
          <Trackpoint>
            <Time>2021-08-02T08:25:22.000Z</Time>
            <Position>
              <LatitudeDegrees>41.80108848027884960174560546875</LatitudeDegrees>
              <LongitudeDegrees>-1.81546188890933990478515625</LongitudeDegrees>
            </Position>
            <AltitudeMeters>1273.800048828125</AltitudeMeters>
            <DistanceMeters>434694.35082469</DistanceMeters>
          </Trackpoint>
          <Trackpoint>
            <Time>2021-08-02T08:25:32.000Z</Time>
            <Position>
              <LatitudeDegrees>41.80085613392293453216552734375</LatitudeDegrees>
              <LongitudeDegrees>-1.815275140106678009033203125</LongitudeDegrees>
            </Position>
            <AltitudeMeters>1275</AltitudeMeters>
            <DistanceMeters>434724.49826512</DistanceMeters>
          </Trackpoint>
          <Trackpoint>
            <Time>2021-08-02T08:25:41.000Z</Time>
            <Position>
              <LatitudeDegrees>41.80065505206584930419921875</LatitudeDegrees>
              <LongitudeDegrees>-1.81512057781219482421875</LongitudeDegrees>
            </Position>
            <AltitudeMeters>1276</AltitudeMeters>
            <DistanceMeters>434750.29307375</DistanceMeters>
          </Trackpoint>
          <Trackpoint>
            <Time>2021-08-02T08:25:46.000Z</Time>
            <Position>
              <LatitudeDegrees>41.8005459196865558624267578125</LatitudeDegrees>
              <LongitudeDegrees>-1.815035082399845123291015625</LongitudeDegrees>
            </Position>
            <AltitudeMeters>1277</AltitudeMeters>
            <DistanceMeters>434764.35991651</DistanceMeters>
          </Trackpoint>
          <Trackpoint>
            <Time>2021-08-02T08:25:53.000Z</Time>
            <Position>
              <LatitudeDegrees>41.800386495888233184814453125</LatitudeDegrees>
              <LongitudeDegrees>-1.81492636911571025848388671875</LongitudeDegrees>
            </Position>
            <AltitudeMeters>1278.199951171875</AltitudeMeters>
            <DistanceMeters>434784.26546157</DistanceMeters>
          </Trackpoint>
          <Trackpoint>
            <Time>2021-08-02T08:26:01.000Z</Time>
            <Position>
              <LatitudeDegrees>41.800207793712615966796875</LatitudeDegrees>
              <LongitudeDegrees>-1.8148173205554485321044921875</LongitudeDegrees>
            </Position>
            <AltitudeMeters>1279.199951171875</AltitudeMeters>
            <DistanceMeters>434806.1166474</DistanceMeters>
          </Trackpoint>
          <Trackpoint>
            <Time>2021-08-02T08:26:13.000Z</Time>
            <Position>
              <LatitudeDegrees>41.7999839968979358673095703125</LatitudeDegrees>
              <LongitudeDegrees>-1.81461221538484096527099609375</LongitudeDegrees>
            </Position>
            <AltitudeMeters>1280</AltitudeMeters>
            <DistanceMeters>434836.28414969</DistanceMeters>
          </Trackpoint>
          <Trackpoint>
            <Time>2021-08-02T08:26:17.000Z</Time>
            <Position>
              <LatitudeDegrees>41.79990143515169620513916015625</LatitudeDegrees>
              <LongitudeDegrees>-1.81452571414411067962646484375</LongitudeDegrees>
            </Position>
            <AltitudeMeters>1280.800048828125</AltitudeMeters>
            <DistanceMeters>434847.94458969</DistanceMeters>
          </Trackpoint>
          <Trackpoint>
            <Time>2021-08-02T08:26:22.000Z</Time>
            <Position>
              <LatitudeDegrees>41.799799092113971710205078125</LatitudeDegrees>
              <LongitudeDegrees>-1.81440643966197967529296875</LongitudeDegrees>
            </Position>
            <AltitudeMeters>1282</AltitudeMeters>
            <DistanceMeters>434863.03410186</DistanceMeters>
          </Trackpoint>
          <Trackpoint>
            <Time>2021-08-02T08:26:29.000Z</Time>
            <Position>
              <LatitudeDegrees>41.79964981041848659515380859375</LatitudeDegrees>
              <LongitudeDegrees>-1.81427207775413990020751953125</LongitudeDegrees>
            </Position>
            <AltitudeMeters>1282.800048828125</AltitudeMeters>
            <DistanceMeters>434883.04303659</DistanceMeters>
          </Trackpoint>
          <Trackpoint>
            <Time>2021-08-02T08:26:39.000Z</Time>
            <Position>
              <LatitudeDegrees>41.799486614763736724853515625</LatitudeDegrees>
              <LongitudeDegrees>-1.81409924291074275970458984375</LongitudeDegrees>
            </Position>
            <AltitudeMeters>1283.5999755859375</AltitudeMeters>
            <DistanceMeters>434906.18569988</DistanceMeters>
          </Trackpoint>
          <Trackpoint>
            <Time>2021-08-02T08:26:57.000Z</Time>
            <Position>
              <LatitudeDegrees>41.79943121038377285003662109375</LatitudeDegrees>
              <LongitudeDegrees>-1.8134970031678676605224609375</LongitudeDegrees>
            </Position>
            <AltitudeMeters>1284.4000244140625</AltitudeMeters>
            <DistanceMeters>434956.53479541</DistanceMeters>
          </Trackpoint>
          <Trackpoint>
            <Time>2021-08-02T08:27:02.000Z</Time>
            <Position>
              <LatitudeDegrees>41.7994767241179943084716796875</LatitudeDegrees>
              <LongitudeDegrees>-1.8133216537535190582275390625</LongitudeDegrees>
            </Position>
            <AltitudeMeters>1285.5999755859375</AltitudeMeters>
            <DistanceMeters>434971.94085036</DistanceMeters>
          </Trackpoint>
          <Trackpoint>
            <Time>2021-08-02T08:27:14.000Z</Time>
            <Position>
              <LatitudeDegrees>41.79961192421615123748779296875</LatitudeDegrees>
              <LongitudeDegrees>-1.81293935514986515045166015625</LongitudeDegrees>
            </Position>
            <AltitudeMeters>1286.4000244140625</AltitudeMeters>
            <DistanceMeters>435007.04984572</DistanceMeters>
          </Trackpoint>
          <Trackpoint>
            <Time>2021-08-02T08:27:21.000Z</Time>
            <Position>
              <LatitudeDegrees>41.7996668256819248199462890625</LatitudeDegrees>
              <LongitudeDegrees>-1.8127520196139812469482421875</LongitudeDegrees>
            </Position>
            <AltitudeMeters>1287.4000244140625</AltitudeMeters>
            <DistanceMeters>435023.75185522</DistanceMeters>
          </Trackpoint>
          <Trackpoint>
            <Time>2021-08-02T08:27:27.000Z</Time>
            <Position>
              <LatitudeDegrees>41.79973916150629520416259765625</LatitudeDegrees>
              <LongitudeDegrees>-1.8125595711171627044677734375</LongitudeDegrees>
            </Position>
            <AltitudeMeters>1288.4000244140625</AltitudeMeters>
            <DistanceMeters>435041.63506487</DistanceMeters>
          </Trackpoint>
          <Trackpoint>
            <Time>2021-08-02T08:27:34.000Z</Time>
            <Position>
              <LatitudeDegrees>41.79982901550829410552978515625</LatitudeDegrees>
              <LongitudeDegrees>-1.81233845651149749755859375</LongitudeDegrees>
            </Position>
            <AltitudeMeters>1289.4000244140625</AltitudeMeters>
            <DistanceMeters>435062.53057291</DistanceMeters>
          </Trackpoint>
          <Trackpoint>
            <Time>2021-08-02T08:27:43.000Z</Time>
            <Position>
              <LatitudeDegrees>41.7999135889112949371337890625</LatitudeDegrees>
              <LongitudeDegrees>-1.81204886175692081451416015625</LongitudeDegrees>
            </Position>
            <AltitudeMeters>1290.4000244140625</AltitudeMeters>
            <DistanceMeters>435088.3372813</DistanceMeters>
          </Trackpoint>
          <Trackpoint>
            <Time>2021-08-02T08:27:51.000Z</Time>
            <Position>
              <LatitudeDegrees>41.7999756149947643280029296875</LatitudeDegrees>
              <LongitudeDegrees>-1.81179773993790149688720703125</LongitudeDegrees>
            </Position>
            <AltitudeMeters>1291.5999755859375</AltitudeMeters>
            <DistanceMeters>435110.28742387</DistanceMeters>
          </Trackpoint>
          <Trackpoint>
            <Time>2021-08-02T08:27:55.000Z</Time>
            <Position>
              <LatitudeDegrees>41.8000017665326595306396484375</LatitudeDegrees>
              <LongitudeDegrees>-1.8116704188287258148193359375</LongitudeDegrees>
            </Position>
            <AltitudeMeters>1292.4000244140625</AltitudeMeters>
            <DistanceMeters>435121.24561517</DistanceMeters>
          </Trackpoint>
          <Trackpoint>
            <Time>2021-08-02T08:28:08.000Z</Time>
            <Position>
              <LatitudeDegrees>41.8000611104071140289306640625</LatitudeDegrees>
              <LongitudeDegrees>-1.8112409301102161407470703125</LongitudeDegrees>
            </Position>
            <AltitudeMeters>1293.5999755859375</AltitudeMeters>
            <DistanceMeters>435157.48855986</DistanceMeters>
          </Trackpoint>
          <Trackpoint>
            <Time>2021-08-02T08:28:19.000Z</Time>
            <Position>
              <LatitudeDegrees>41.8000213801860809326171875</LatitudeDegrees>
              <LongitudeDegrees>-1.8108885549008846282958984375</LongitudeDegrees>
            </Position>
            <AltitudeMeters>1294.5999755859375</AltitudeMeters>
            <DistanceMeters>435187.05851593</DistanceMeters>
          </Trackpoint>
          <Trackpoint>
            <Time>2021-08-02T08:28:24.000Z</Time>
            <Position>
              <LatitudeDegrees>41.80000218562781810760498046875</LatitudeDegrees>
              <LongitudeDegrees>-1.81074514053761959075927734375</LongitudeDegrees>
            </Position>
            <AltitudeMeters>1295.5999755859375</AltitudeMeters>
            <DistanceMeters>435199.14821474</DistanceMeters>
          </Trackpoint>
          <Trackpoint>
            <Time>2021-08-02T08:28:25.000Z</Time>
            <Position>
              <LatitudeDegrees>41.79999522864818572998046875</LatitudeDegrees>
              <LongitudeDegrees>-1.81071664206683635711669921875</LongitudeDegrees>
            </Position>
            <AltitudeMeters>1295.4000244140625</AltitudeMeters>
            <DistanceMeters>435201.63348581</DistanceMeters>
          </Trackpoint>
          <Trackpoint>
            <Time>2021-08-02T08:28:32.000Z</Time>
            <Position>
              <LatitudeDegrees>41.79991744458675384521484375</LatitudeDegrees>
              <LongitudeDegrees>-1.81051597930490970611572265625</LongitudeDegrees>
            </Position>
            <AltitudeMeters>1296.4000244140625</AltitudeMeters>
            <DistanceMeters>435220.39927706</DistanceMeters>
          </Trackpoint>
          <Trackpoint>
            <Time>2021-08-02T08:28:41.000Z</Time>
            <Position>
              <LatitudeDegrees>41.79981761611998081207275390625</LatitudeDegrees>
              <LongitudeDegrees>-1.8102657794952392578125</LongitudeDegrees>
            </Position>
            <AltitudeMeters>1297.5999755859375</AltitudeMeters>
            <DistanceMeters>435243.94558533</DistanceMeters>
          </Trackpoint>
          <Trackpoint>
            <Time>2021-08-02T08:28:55.000Z</Time>
            <Position>
              <LatitudeDegrees>41.7995734512805938720703125</LatitudeDegrees>
              <LongitudeDegrees>-1.8099323473870754241943359375</LongitudeDegrees>
            </Position>
            <AltitudeMeters>1298.800048828125</AltitudeMeters>
            <DistanceMeters>435282.72626572</DistanceMeters>
          </Trackpoint>
          <Trackpoint>
            <Time>2021-08-02T08:29:06.000Z</Time>
            <Position>
              <LatitudeDegrees>41.799381673336029052734375</LatitudeDegrees>
              <LongitudeDegrees>-1.8096823990345001220703125</LongitudeDegrees>
            </Position>
            <AltitudeMeters>1299.800048828125</AltitudeMeters>
            <DistanceMeters>435312.48738261</DistanceMeters>
          </Trackpoint>
          <Trackpoint>
            <Time>2021-08-02T08:29:17.000Z</Time>
            <Position>
              <LatitudeDegrees>41.79917581379413604736328125</LatitudeDegrees>
              <LongitudeDegrees>-1.80944032967090606689453125</LongitudeDegrees>
            </Position>
            <AltitudeMeters>1301</AltitudeMeters>
            <DistanceMeters>435342.95733961</DistanceMeters>
          </Trackpoint>
          <Trackpoint>
            <Time>2021-08-02T08:29:25.000Z</Time>
            <Position>
              <LatitudeDegrees>41.7990116961300373077392578125</LatitudeDegrees>
              <LongitudeDegrees>-1.80923002772033214569091796875</LongitudeDegrees>
            </Position>
            <AltitudeMeters>1302.199951171875</AltitudeMeters>
            <DistanceMeters>435368.21943695</DistanceMeters>
          </Trackpoint>
          <Trackpoint>
            <Time>2021-08-02T08:29:32.000Z</Time>
            <Position>
              <LatitudeDegrees>41.79887280799448490142822265625</LatitudeDegrees>
              <LongitudeDegrees>-1.809079907834529876708984375</LongitudeDegrees>
            </Position>
            <AltitudeMeters>1303.199951171875</AltitudeMeters>
            <DistanceMeters>435388.07183445</DistanceMeters>
          </Trackpoint>
          <Trackpoint>
            <Time>2021-08-02T08:29:41.000Z</Time>
            <Position>
              <LatitudeDegrees>41.79869930259883403778076171875</LatitudeDegrees>
              <LongitudeDegrees>-1.808883436024188995361328125</LongitudeDegrees>
            </Position>
            <AltitudeMeters>1304.4000244140625</AltitudeMeters>
            <DistanceMeters>435413.34429588</DistanceMeters>
          </Trackpoint>
          <Trackpoint>
            <Time>2021-08-02T08:29:52.000Z</Time>
            <Position>
              <LatitudeDegrees>41.798500902950763702392578125</LatitudeDegrees>
              <LongitudeDegrees>-1.808611862361431121826171875</LongitudeDegrees>
            </Position>
            <AltitudeMeters>1305.4000244140625</AltitudeMeters>
            <DistanceMeters>435444.89416683</DistanceMeters>
          </Trackpoint>
          <Trackpoint>
            <Time>2021-08-02T08:30:00.000Z</Time>
            <Position>
              <LatitudeDegrees>41.7983525432646274566650390625</LatitudeDegrees>
              <LongitudeDegrees>-1.80842578411102294921875</LongitudeDegrees>
            </Position>
            <AltitudeMeters>1306.4000244140625</AltitudeMeters>
            <DistanceMeters>435467.50054085</DistanceMeters>
          </Trackpoint>
          <Trackpoint>
            <Time>2021-08-02T08:30:09.000Z</Time>
            <Position>
              <LatitudeDegrees>41.7982123978435993194580078125</LatitudeDegrees>
              <LongitudeDegrees>-1.8082207627594470977783203125</LongitudeDegrees>
            </Position>
            <AltitudeMeters>1307.4000244140625</AltitudeMeters>
            <DistanceMeters>435490.58088464</DistanceMeters>
          </Trackpoint>
          <Trackpoint>
            <Time>2021-08-02T08:30:19.000Z</Time>
            <Position>
              <LatitudeDegrees>41.79803185164928436279296875</LatitudeDegrees>
              <LongitudeDegrees>-1.80799302645027637481689453125</LongitudeDegrees>
            </Position>
            <AltitudeMeters>1308.4000244140625</AltitudeMeters>
            <DistanceMeters>435518.16516098</DistanceMeters>
          </Trackpoint>
          <Trackpoint>
            <Time>2021-08-02T08:30:27.000Z</Time>
            <Position>
              <LatitudeDegrees>41.7978890240192413330078125</LatitudeDegrees>
              <LongitudeDegrees>-1.8078177608549594879150390625</LongitudeDegrees>
            </Position>
            <AltitudeMeters>1309.5999755859375</AltitudeMeters>
            <DistanceMeters>435539.71088375</DistanceMeters>
          </Trackpoint>
          <Trackpoint>
            <Time>2021-08-02T08:30:37.000Z</Time>
            <Position>
              <LatitudeDegrees>41.79767570458352565765380859375</LatitudeDegrees>
              <LongitudeDegrees>-1.80763461627066135406494140625</LongitudeDegrees>
            </Position>
            <AltitudeMeters>1310.4000244140625</AltitudeMeters>
            <DistanceMeters>435567.9006831</DistanceMeters>
          </Trackpoint>
          <Trackpoint>
            <Time>2021-08-02T08:30:46.000Z</Time>
            <Position>
              <LatitudeDegrees>41.79747655056416988372802734375</LatitudeDegrees>
              <LongitudeDegrees>-1.80749363265931606292724609375</LongitudeDegrees>
            </Position>
            <AltitudeMeters>1311.5999755859375</AltitudeMeters>
            <DistanceMeters>435592.96450819</DistanceMeters>
          </Trackpoint>
          <Trackpoint>
            <Time>2021-08-02T08:30:59.000Z</Time>
            <Position>
              <LatitudeDegrees>41.79718050174415111541748046875</LatitudeDegrees>
              <LongitudeDegrees>-1.8073621205985546112060546875</LongitudeDegrees>
            </Position>
            <AltitudeMeters>1312.5999755859375</AltitudeMeters>
            <DistanceMeters>435627.67528388</DistanceMeters>
          </Trackpoint>
          <Trackpoint>
            <Time>2021-08-02T08:31:01.000Z</Time>
            <Position>
              <LatitudeDegrees>41.79713456891477108001708984375</LatitudeDegrees>
              <LongitudeDegrees>-1.80734795518219470977783203125</LongitudeDegrees>
            </Position>
            <AltitudeMeters>1313</AltitudeMeters>
            <DistanceMeters>435632.92158477</DistanceMeters>
          </Trackpoint>
          <Trackpoint>
            <Time>2021-08-02T08:31:05.000Z</Time>
            <Position>
              <LatitudeDegrees>41.79704253561794757843017578125</LatitudeDegrees>
              <LongitudeDegrees>-1.8073292635381221771240234375</LongitudeDegrees>
            </Position>
            <AltitudeMeters>1313.800048828125</AltitudeMeters>
            <DistanceMeters>435643.28167592</DistanceMeters>
          </Trackpoint>
          <Trackpoint>
            <Time>2021-08-02T08:31:15.000Z</Time>
            <Position>
              <LatitudeDegrees>41.7968012206256389617919921875</LatitudeDegrees>
              <LongitudeDegrees>-1.8074043653905391693115234375</LongitudeDegrees>
            </Position>
            <AltitudeMeters>1314.800048828125</AltitudeMeters>
            <DistanceMeters>435670.85416467</DistanceMeters>
          </Trackpoint>
          <Trackpoint>
            <Time>2021-08-02T08:31:22.000Z</Time>
            <Position>
              <LatitudeDegrees>41.79664439521729946136474609375</LatitudeDegrees>
              <LongitudeDegrees>-1.80745356716215610504150390625</LongitudeDegrees>
            </Position>
            <AltitudeMeters>1315.5999755859375</AltitudeMeters>
            <DistanceMeters>435688.78024345</DistanceMeters>
          </Trackpoint>
          <Trackpoint>
            <Time>2021-08-02T08:31:29.000Z</Time>
            <Position>
              <LatitudeDegrees>41.796499304473400115966796875</LatitudeDegrees>
              <LongitudeDegrees>-1.807518191635608673095703125</LongitudeDegrees>
            </Position>
            <AltitudeMeters>1316.800048828125</AltitudeMeters>
            <DistanceMeters>435705.79612929</DistanceMeters>
          </Trackpoint>
          <Trackpoint>
            <Time>2021-08-02T08:31:37.000Z</Time>
            <Position>
              <LatitudeDegrees>41.7963382042944431304931640625</LatitudeDegrees>
              <LongitudeDegrees>-1.8076219595968723297119140625</LongitudeDegrees>
            </Position>
            <AltitudeMeters>1317.800048828125</AltitudeMeters>
            <DistanceMeters>435725.68692539</DistanceMeters>
          </Trackpoint>
          <Trackpoint>
            <Time>2021-08-02T08:31:43.000Z</Time>
            <Position>
              <LatitudeDegrees>41.79622538387775421142578125</LatitudeDegrees>
              <LongitudeDegrees>-1.8077104724943637847900390625</LongitudeDegrees>
            </Position>
            <AltitudeMeters>1318.800048828125</AltitudeMeters>
            <DistanceMeters>435740.23439498</DistanceMeters>
          </Trackpoint>
          <Trackpoint>
            <Time>2021-08-02T08:31:50.000Z</Time>
            <Position>
              <LatitudeDegrees>41.7961125634610652923583984375</LatitudeDegrees>
              <LongitudeDegrees>-1.8077979795634746551513671875</LongitudeDegrees>
            </Position>
            <AltitudeMeters>1320</AltitudeMeters>
            <DistanceMeters>435754.73990467</DistanceMeters>
          </Trackpoint>
          <Trackpoint>
            <Time>2021-08-02T08:31:56.000Z</Time>
            <Position>
              <LatitudeDegrees>41.79601994343101978302001953125</LatitudeDegrees>
              <LongitudeDegrees>-1.80787702091038227081298828125</LongitudeDegrees>
            </Position>
            <AltitudeMeters>1321</AltitudeMeters>
            <DistanceMeters>435766.95813792</DistanceMeters>
          </Trackpoint>
          <Trackpoint>
            <Time>2021-08-02T08:32:01.000Z</Time>
            <Position>
              <LatitudeDegrees>41.79594718851149082183837890625</LatitudeDegrees>
              <LongitudeDegrees>-1.80794340558350086212158203125</LongitudeDegrees>
            </Position>
            <AltitudeMeters>1322</AltitudeMeters>
            <DistanceMeters>435776.75188449</DistanceMeters>
          </Trackpoint>
          <Trackpoint>
            <Time>2021-08-02T08:32:09.000Z</Time>
            <Position>
              <LatitudeDegrees>41.79582330398261547088623046875</LatitudeDegrees>
              <LongitudeDegrees>-1.8080206029117107391357421875</LongitudeDegrees>
            </Position>
            <AltitudeMeters>1323.199951171875</AltitudeMeters>
            <DistanceMeters>435791.95615879</DistanceMeters>
          </Trackpoint>
          <Trackpoint>
            <Time>2021-08-02T08:32:14.000Z</Time>
            <Position>
              <LatitudeDegrees>41.79572523571550846099853515625</LatitudeDegrees>
              <LongitudeDegrees>-1.80809109471738338470458984375</LongitudeDegrees>
            </Position>
            <AltitudeMeters>1324</AltitudeMeters>
            <DistanceMeters>435804.33956536</DistanceMeters>
          </Trackpoint>
          <Trackpoint>
            <Time>2021-08-02T08:32:21.000Z</Time>
            <Position>
              <LatitudeDegrees>41.79558844305574893951416015625</LatitudeDegrees>
              <LongitudeDegrees>-1.80818882770836353302001953125</LongitudeDegrees>
            </Position>
            <AltitudeMeters>1325.199951171875</AltitudeMeters>
            <DistanceMeters>435821.58998967</DistanceMeters>
          </Trackpoint>
          <Trackpoint>
            <Time>2021-08-02T08:32:28.000Z</Time>
            <Position>
              <LatitudeDegrees>41.795466654002666473388671875</LatitudeDegrees>
              <LongitudeDegrees>-1.80828991346061229705810546875</LongitudeDegrees>
            </Position>
            <AltitudeMeters>1326.4000244140625</AltitudeMeters>
            <DistanceMeters>435837.53070331</DistanceMeters>
          </Trackpoint>
          <Trackpoint>
            <Time>2021-08-02T08:32:34.000Z</Time>
            <Position>
              <LatitudeDegrees>41.795373447239398956298828125</LatitudeDegrees>
              <LongitudeDegrees>-1.8083493411540985107421875</LongitudeDegrees>
            </Position>
            <AltitudeMeters>1327.199951171875</AltitudeMeters>
            <DistanceMeters>435849.0175426</DistanceMeters>
          </Trackpoint>
          <Trackpoint>
            <Time>2021-08-02T08:32:36.000Z</Time>
            <Position>
              <LatitudeDegrees>41.79534235037863254547119140625</LatitudeDegrees>
              <LongitudeDegrees>-1.808373816311359405517578125</LongitudeDegrees>
            </Position>
            <AltitudeMeters>1327.800048828125</AltitudeMeters>
            <DistanceMeters>435853.03122624</DistanceMeters>
          </Trackpoint>
          <Trackpoint>
            <Time>2021-08-02T08:32:39.000Z</Time>
            <Position>
              <LatitudeDegrees>41.7953085713088512420654296875</LatitudeDegrees>
              <LongitudeDegrees>-1.80843424983322620391845703125</LongitudeDegrees>
            </Position>
            <AltitudeMeters>1328.4000244140625</AltitudeMeters>
            <DistanceMeters>435859.29938886</DistanceMeters>
          </Trackpoint>
          <Trackpoint>
            <Time>2021-08-02T08:32:41.000Z</Time>
            <Position>
              <LatitudeDegrees>41.79527328349649906158447265625</LatitudeDegrees>
              <LongitudeDegrees>-1.80846291594207286834716796875</LongitudeDegrees>
            </Position>
            <AltitudeMeters>1329</AltitudeMeters>
            <DistanceMeters>435863.89125433</DistanceMeters>
          </Trackpoint>
          <Trackpoint>
            <Time>2021-08-02T08:32:46.000Z</Time>
            <Position>
              <LatitudeDegrees>41.79519080556929111480712890625</LatitudeDegrees>
              <LongitudeDegrees>-1.80852376855909824371337890625</LongitudeDegrees>
            </Position>
            <AltitudeMeters>1329.5999755859375</AltitudeMeters>
            <DistanceMeters>435874.36835361</DistanceMeters>
          </Trackpoint>
          <Trackpoint>
            <Time>2021-08-02T08:32:53.000Z</Time>
            <Position>
              <LatitudeDegrees>41.79506532847881317138671875</LatitudeDegrees>
              <LongitudeDegrees>-1.808595769107341766357421875</LongitudeDegrees>
            </Position>
            <AltitudeMeters>1330.800048828125</AltitudeMeters>
            <DistanceMeters>435889.55836721</DistanceMeters>
          </Trackpoint>
          <Trackpoint>
            <Time>2021-08-02T08:32:58.000Z</Time>
            <Position>
              <LatitudeDegrees>41.79499416612088680267333984375</LatitudeDegrees>
              <LongitudeDegrees>-1.80862803943455219268798828125</LongitudeDegrees>
            </Position>
            <AltitudeMeters>1331.4000244140625</AltitudeMeters>
            <DistanceMeters>435897.91963816</DistanceMeters>
          </Trackpoint>
          <Trackpoint>
            <Time>2021-08-02T08:33:00.000Z</Time>
            <Position>
              <LatitudeDegrees>41.79497086443006992340087890625</LatitudeDegrees>
              <LongitudeDegrees>-1.8086363375186920166015625</LongitudeDegrees>
            </Position>
            <AltitudeMeters>1331.5999755859375</AltitudeMeters>
            <DistanceMeters>435900.6006717</DistanceMeters>
          </Trackpoint>
          <Trackpoint>
            <Time>2021-08-02T08:33:07.000Z</Time>
            <Position>
              <LatitudeDegrees>41.79487950168550014495849609375</LatitudeDegrees>
              <LongitudeDegrees>-1.80866248905658721923828125</LongitudeDegrees>
            </Position>
            <AltitudeMeters>1332.800048828125</AltitudeMeters>
            <DistanceMeters>435910.99817502</DistanceMeters>
          </Trackpoint>
          <Trackpoint>
            <Time>2021-08-02T08:33:08.000Z</Time>
            <Position>
              <LatitudeDegrees>41.79486709646880626678466796875</LatitudeDegrees>
              <LongitudeDegrees>-1.80867078714072704315185546875</LongitudeDegrees>
            </Position>
            <AltitudeMeters>1332.800048828125</AltitudeMeters>
            <DistanceMeters>435912.54217637</DistanceMeters>
          </Trackpoint>
          <Trackpoint>
            <Time>2021-08-02T08:33:15.000Z</Time>
            <Position>
              <LatitudeDegrees>41.7947788350284099578857421875</LatitudeDegrees>
              <LongitudeDegrees>-1.8087525106966495513916015625</LongitudeDegrees>
            </Position>
            <AltitudeMeters>1333.5999755859375</AltitudeMeters>
            <DistanceMeters>435924.47853034</DistanceMeters>
          </Trackpoint>
          <Trackpoint>
            <Time>2021-08-02T08:33:23.000Z</Time>
            <Position>
              <LatitudeDegrees>41.7946564592421054840087890625</LatitudeDegrees>
              <LongitudeDegrees>-1.80881805717945098876953125</LongitudeDegrees>
            </Position>
            <AltitudeMeters>1334.5999755859375</AltitudeMeters>
            <DistanceMeters>435939.1446962</DistanceMeters>
          </Trackpoint>
          <Trackpoint>
            <Time>2021-08-02T08:33:30.000Z</Time>
            <Position>
              <LatitudeDegrees>41.794554702937602996826171875</LatitudeDegrees>
              <LongitudeDegrees>-1.80887572467327117919921875</LongitudeDegrees>
            </Position>
            <AltitudeMeters>1335.800048828125</AltitudeMeters>
            <DistanceMeters>435951.43955202</DistanceMeters>
          </Trackpoint>
          <Trackpoint>
            <Time>2021-08-02T08:33:36.000Z</Time>
            <Position>
              <LatitudeDegrees>41.79444833658635616302490234375</LatitudeDegrees>
              <LongitudeDegrees>-1.8089382536709308624267578125</LongitudeDegrees>
            </Position>
            <AltitudeMeters>1336.5999755859375</AltitudeMeters>
            <DistanceMeters>435964.36528118</DistanceMeters>
          </Trackpoint>
          <Trackpoint>
            <Time>2021-08-02T08:33:44.000Z</Time>
            <Position>
              <LatitudeDegrees>41.79431154392659664154052734375</LatitudeDegrees>
              <LongitudeDegrees>-1.80897924117743968963623046875</LongitudeDegrees>
            </Position>
            <AltitudeMeters>1337.800048828125</AltitudeMeters>
            <DistanceMeters>435979.96587797</DistanceMeters>
          </Trackpoint>
          <Trackpoint>
            <Time>2021-08-02T08:33:48.000Z</Time>
            <Position>
              <LatitudeDegrees>41.794239543378353118896484375</LatitudeDegrees>
              <LongitudeDegrees>-1.809005476534366607666015625</LongitudeDegrees>
            </Position>
            <AltitudeMeters>1338.199951171875</AltitudeMeters>
            <DistanceMeters>435988.26971225</DistanceMeters>
          </Trackpoint>
          <Trackpoint>
            <Time>2021-08-02T08:33:52.000Z</Time>
            <Position>
              <LatitudeDegrees>41.7941605858504772186279296875</LatitudeDegrees>
              <LongitudeDegrees>-1.80903456173837184906005859375</LongitudeDegrees>
            </Position>
            <AltitudeMeters>1338.5999755859375</AltitudeMeters>
            <DistanceMeters>435997.3828683</DistanceMeters>
          </Trackpoint>
          <Trackpoint>
            <Time>2021-08-02T08:34:02.000Z</Time>
            <Position>
              <LatitudeDegrees>41.7939698137342929840087890625</LatitudeDegrees>
              <LongitudeDegrees>-1.80908619426190853118896484375</LongitudeDegrees>
            </Position>
            <AltitudeMeters>1339.5999755859375</AltitudeMeters>
            <DistanceMeters>436019.04437406</DistanceMeters>
          </Trackpoint>
          <Trackpoint>
            <Time>2021-08-02T08:34:03.000Z</Time>
            <Position>
              <LatitudeDegrees>41.7939496971666812896728515625</LatitudeDegrees>
              <LongitudeDegrees>-1.80909566581249237060546875</LongitudeDegrees>
            </Position>
            <AltitudeMeters>1339.5999755859375</AltitudeMeters>
            <DistanceMeters>436021.41433346</DistanceMeters>
          </Trackpoint>
          <Trackpoint>
            <Time>2021-08-02T08:34:13.000Z</Time>
            <Position>
              <LatitudeDegrees>41.793727576732635498046875</LatitudeDegrees>
              <LongitudeDegrees>-1.80915593169629573822021484375</LongitudeDegrees>
            </Position>
            <AltitudeMeters>1340.5999755859375</AltitudeMeters>
            <DistanceMeters>436046.63743806</DistanceMeters>
          </Trackpoint>
          <Trackpoint>
            <Time>2021-08-02T08:34:21.000Z</Time>
            <Position>
              <LatitudeDegrees>41.7935678176581859588623046875</LatitudeDegrees>
              <LongitudeDegrees>-1.80920789949595928192138671875</LongitudeDegrees>
            </Position>
            <AltitudeMeters>1341.5999755859375</AltitudeMeters>
            <DistanceMeters>436064.93421439</DistanceMeters>
          </Trackpoint>
          <Trackpoint>
            <Time>2021-08-02T08:34:28.000Z</Time>
            <Position>
              <LatitudeDegrees>41.793434210121631622314453125</LatitudeDegrees>
              <LongitudeDegrees>-1.80925349704921245574951171875</LongitudeDegrees>
            </Position>
            <AltitudeMeters>1342.5999755859375</AltitudeMeters>
            <DistanceMeters>436080.27860142</DistanceMeters>
          </Trackpoint>
          <Trackpoint>
            <Time>2021-08-02T08:34:34.000Z</Time>
            <Position>
              <LatitudeDegrees>41.79333773441612720489501953125</LatitudeDegrees>
              <LongitudeDegrees>-1.809287779033184051513671875</LongitudeDegrees>
            </Position>
            <AltitudeMeters>1343.5999755859375</AltitudeMeters>
            <DistanceMeters>436091.38656993</DistanceMeters>
          </Trackpoint>
          <Trackpoint>
            <Time>2021-08-02T08:34:44.000Z</Time>
            <Position>
              <LatitudeDegrees>41.79314645938575267791748046875</LatitudeDegrees>
              <LongitudeDegrees>-1.80930462665855884552001953125</LongitudeDegrees>
            </Position>
            <AltitudeMeters>1344.5999755859375</AltitudeMeters>
            <DistanceMeters>436112.72149584</DistanceMeters>
          </Trackpoint>
          <Trackpoint>
            <Time>2021-08-02T08:34:58.000Z</Time>
            <Position>
              <LatitudeDegrees>41.79291394539177417755126953125</LatitudeDegrees>
              <LongitudeDegrees>-1.8091380782425403594970703125</LongitudeDegrees>
            </Position>
            <AltitudeMeters>1345.4000244140625</AltitudeMeters>
            <DistanceMeters>436142.05998398</DistanceMeters>
          </Trackpoint>
          <Trackpoint>
            <Time>2021-08-02T08:35:18.000Z</Time>
            <Position>
              <LatitudeDegrees>41.7927204072475433349609375</LatitudeDegrees>
              <LongitudeDegrees>-1.80863700807094573974609375</LongitudeDegrees>
            </Position>
            <AltitudeMeters>1345.4000244140625</AltitudeMeters>
            <DistanceMeters>436188.88848934</DistanceMeters>
          </Trackpoint>
          <Trackpoint>
            <Time>2021-08-02T08:35:26.000Z</Time>
            <Position>
              <LatitudeDegrees>41.79268679581582546234130859375</LatitudeDegrees>
              <LongitudeDegrees>-1.80851773358881473541259765625</LongitudeDegrees>
            </Position>
            <AltitudeMeters>1345.800048828125</AltitudeMeters>
            <DistanceMeters>436199.46936302</DistanceMeters>
          </Trackpoint>
          <Trackpoint>
            <Time>2021-08-02T08:50:21.000Z</Time>
            <Position>
              <LatitudeDegrees>41.79280866868793964385986328125</LatitudeDegrees>
              <LongitudeDegrees>-1.80927042849361896514892578125</LongitudeDegrees>
            </Position>
            <AltitudeMeters>1346.800048828125</AltitudeMeters>
            <DistanceMeters>436263.38576087</DistanceMeters>
          </Trackpoint>
          <Trackpoint>
            <Time>2021-08-02T08:50:27.000Z</Time>
            <Position>
              <LatitudeDegrees>41.79280078969895839691162109375</LatitudeDegrees>
              <LongitudeDegrees>-1.8092406727373600006103515625</LongitudeDegrees>
            </Position>
            <AltitudeMeters>1346.800048828125</AltitudeMeters>
            <DistanceMeters>436266.00546659</DistanceMeters>
          </Trackpoint>
          <Trackpoint>
            <Time>2021-08-02T08:51:31.000Z</Time>
            <Position>
              <LatitudeDegrees>41.7928000353276729583740234375</LatitudeDegrees>
              <LongitudeDegrees>-1.80922265164554119110107421875</LongitudeDegrees>
            </Position>
            <AltitudeMeters>1347</AltitudeMeters>
            <DistanceMeters>436267.50194879</DistanceMeters>
          </Trackpoint>
          <Trackpoint>
            <Time>2021-08-02T08:52:04.000Z</Time>
            <Position>
              <LatitudeDegrees>41.7928429506719112396240234375</LatitudeDegrees>
              <LongitudeDegrees>-1.80923891253769397735595703125</LongitudeDegrees>
            </Position>
            <AltitudeMeters>1347</AltitudeMeters>
            <DistanceMeters>436272.46521873</DistanceMeters>
          </Trackpoint>
          <Trackpoint>
            <Time>2021-08-02T08:55:19.000Z</Time>
            <Position>
              <LatitudeDegrees>41.792824007570743560791015625</LatitudeDegrees>
              <LongitudeDegrees>-1.80918543599545955657958984375</LongitudeDegrees>
            </Position>
            <AltitudeMeters>1347.5999755859375</AltitudeMeters>
            <DistanceMeters>436277.37820096</DistanceMeters>
          </Trackpoint>
          <Trackpoint>
            <Time>2021-08-02T08:55:24.000Z</Time>
            <Position>
              <LatitudeDegrees>41.7928288690745830535888671875</LatitudeDegrees>
              <LongitudeDegrees>-1.80906440131366252899169921875</LongitudeDegrees>
            </Position>
            <AltitudeMeters>1347</AltitudeMeters>
            <DistanceMeters>436287.4366788</DistanceMeters>
          </Trackpoint>
          <Trackpoint>
            <Time>2021-08-02T08:55:28.000Z</Time>
            <Position>
              <LatitudeDegrees>41.79281294345855712890625</LatitudeDegrees>
              <LongitudeDegrees>-1.80893146432936191558837890625</LongitudeDegrees>
            </Position>
            <AltitudeMeters>1346.5999755859375</AltitudeMeters>
            <DistanceMeters>436298.60949298</DistanceMeters>
          </Trackpoint>
          <Trackpoint>
            <Time>2021-08-02T08:55:46.000Z</Time>
            <Position>
              <LatitudeDegrees>41.79270339198410511016845703125</LatitudeDegrees>
              <LongitudeDegrees>-1.80848009884357452392578125</LongitudeDegrees>
            </Position>
            <AltitudeMeters>1346.4000244140625</AltitudeMeters>
            <DistanceMeters>436337.99964219</DistanceMeters>
          </Trackpoint>
          <Trackpoint>
            <Time>2021-08-02T08:55:52.000Z</Time>
            <Position>
              <LatitudeDegrees>41.7926632426679134368896484375</LatitudeDegrees>
              <LongitudeDegrees>-1.80838613770902156829833984375</LongitudeDegrees>
            </Position>
            <AltitudeMeters>1346.199951171875</AltitudeMeters>
            <DistanceMeters>436346.98707975</DistanceMeters>
          </Trackpoint>
          <Trackpoint>
            <Time>2021-08-02T08:56:15.000Z</Time>
            <Position>
              <LatitudeDegrees>41.7925277911126613616943359375</LatitudeDegrees>
              <LongitudeDegrees>-1.807898394763469696044921875</LongitudeDegrees>
            </Position>
            <AltitudeMeters>1347</AltitudeMeters>
            <DistanceMeters>436390.17794975</DistanceMeters>
          </Trackpoint>
          <Trackpoint>
            <Time>2021-08-02T08:56:26.000Z</Time>
            <Position>
              <LatitudeDegrees>41.7924774996936321258544921875</LatitudeDegrees>
              <LongitudeDegrees>-1.8076876737177371978759765625</LongitudeDegrees>
            </Position>
            <AltitudeMeters>1347.4000244140625</AltitudeMeters>
            <DistanceMeters>436408.53852746</DistanceMeters>
          </Trackpoint>
          <Trackpoint>
            <Time>2021-08-02T08:56:43.000Z</Time>
            <Position>
              <LatitudeDegrees>41.79238236509263515472412109375</LatitudeDegrees>
              <LongitudeDegrees>-1.8073292635381221771240234375</LongitudeDegrees>
            </Position>
            <AltitudeMeters>1348.4000244140625</AltitudeMeters>
            <DistanceMeters>436440.10914224</DistanceMeters>
          </Trackpoint>
          <Trackpoint>
            <Time>2021-08-02T08:56:56.000Z</Time>
            <Position>
              <LatitudeDegrees>41.792327798902988433837890625</LatitudeDegrees>
              <LongitudeDegrees>-1.807060539722442626953125</LongitudeDegrees>
            </Position>
            <AltitudeMeters>1349.4000244140625</AltitudeMeters>
            <DistanceMeters>436463.22115518</DistanceMeters>
          </Trackpoint>
          <Trackpoint>
            <Time>2021-08-02T08:57:12.000Z</Time>
            <Position>
              <LatitudeDegrees>41.79228580556809902191162109375</LatitudeDegrees>
              <LongitudeDegrees>-1.80667857639491558074951171875</LongitudeDegrees>
            </Position>
            <AltitudeMeters>1350.199951171875</AltitudeMeters>
            <DistanceMeters>436495.26052206</DistanceMeters>
          </Trackpoint>
          <Trackpoint>
            <Time>2021-08-02T08:57:17.000Z</Time>
            <Position>
              <LatitudeDegrees>41.79228647612035274505615234375</LatitudeDegrees>
              <LongitudeDegrees>-1.80654278956353664398193359375</LongitudeDegrees>
            </Position>
            <AltitudeMeters>1350.5999755859375</AltitudeMeters>
            <DistanceMeters>436506.52910382</DistanceMeters>
          </Trackpoint>
          <Trackpoint>
            <Time>2021-08-02T08:57:36.000Z</Time>
            <Position>
              <LatitudeDegrees>41.79226233623921871185302734375</LatitudeDegrees>
              <LongitudeDegrees>-1.806096620857715606689453125</LongitudeDegrees>
            </Position>
            <AltitudeMeters>1350.5999755859375</AltitudeMeters>
            <DistanceMeters>436543.65087352</DistanceMeters>
          </Trackpoint>
          <Trackpoint>
            <Time>2021-08-02T08:57:58.000Z</Time>
            <Position>
              <LatitudeDegrees>41.79224657826125621795654296875</LatitudeDegrees>
              <LongitudeDegrees>-1.80561223067343235015869140625</LongitudeDegrees>
            </Position>
            <AltitudeMeters>1351.199951171875</AltitudeMeters>
            <DistanceMeters>436583.88534598</DistanceMeters>
          </Trackpoint>
          <Trackpoint>
            <Time>2021-08-02T08:58:19.000Z</Time>
            <Position>
              <LatitudeDegrees>41.79224356077611446380615234375</LatitudeDegrees>
              <LongitudeDegrees>-1.8051073886454105377197265625</LongitudeDegrees>
            </Position>
            <AltitudeMeters>1352.199951171875</AltitudeMeters>
            <DistanceMeters>436625.78005839</DistanceMeters>
          </Trackpoint>
          <Trackpoint>
            <Time>2021-08-02T08:58:50.000Z</Time>
            <Position>
              <LatitudeDegrees>41.79223358631134033203125</LatitudeDegrees>
              <LongitudeDegrees>-1.804465167224407196044921875</LongitudeDegrees>
            </Position>
            <AltitudeMeters>1352.800048828125</AltitudeMeters>
            <DistanceMeters>436679.08504797</DistanceMeters>
          </Trackpoint>
          <Trackpoint>
            <Time>2021-08-02T08:58:59.000Z</Time>
            <Position>
              <LatitudeDegrees>41.7922241985797882080078125</LatitudeDegrees>
              <LongitudeDegrees>-1.8042551167309284210205078125</LongitudeDegrees>
            </Position>
            <AltitudeMeters>1353</AltitudeMeters>
            <DistanceMeters>436696.54670772</DistanceMeters>
          </Trackpoint>
          <Trackpoint>
            <Time>2021-08-02T08:59:06.000Z</Time>
            <Position>
              <LatitudeDegrees>41.7921905033290386199951171875</LatitudeDegrees>
              <LongitudeDegrees>-1.80409125052392482757568359375</LongitudeDegrees>
            </Position>
            <AltitudeMeters>1352.800048828125</AltitudeMeters>
            <DistanceMeters>436710.65297458</DistanceMeters>
          </Trackpoint>
          <Trackpoint>
            <Time>2021-08-02T08:59:08.000Z</Time>
            <Position>
              <LatitudeDegrees>41.79218329489231109619140625</LatitudeDegrees>
              <LongitudeDegrees>-1.8040365166962146759033203125</LongitudeDegrees>
            </Position>
            <AltitudeMeters>1352.800048828125</AltitudeMeters>
            <DistanceMeters>436715.26544247</DistanceMeters>
          </Trackpoint>
          <Trackpoint>
            <Time>2021-08-02T08:59:20.000Z</Time>
            <Position>
              <LatitudeDegrees>41.79217231459915637969970703125</LatitudeDegrees>
              <LongitudeDegrees>-1.80375983007252216339111328125</LongitudeDegrees>
            </Position>
            <AltitudeMeters>1353.199951171875</AltitudeMeters>
            <DistanceMeters>436738.25798029</DistanceMeters>
          </Trackpoint>
          <Trackpoint>
            <Time>2021-08-02T08:59:27.000Z</Time>
            <Position>
              <LatitudeDegrees>41.7921683751046657562255859375</LatitudeDegrees>
              <LongitudeDegrees>-1.80356604047119617462158203125</LongitudeDegrees>
            </Position>
            <AltitudeMeters>1353.5999755859375</AltitudeMeters>
            <DistanceMeters>436754.34474288</DistanceMeters>
          </Trackpoint>
          <Trackpoint>
            <Time>2021-08-02T08:59:34.000Z</Time>
            <Position>
              <LatitudeDegrees>41.792152114212512969970703125</LatitudeDegrees>
              <LongitudeDegrees>-1.80340678431093692779541015625</LongitudeDegrees>
            </Position>
            <AltitudeMeters>1354.800048828125</AltitudeMeters>
            <DistanceMeters>436767.68373184</DistanceMeters>
          </Trackpoint>
          <Trackpoint>
            <Time>2021-08-02T09:00:00.000Z</Time>
            <Position>
              <LatitudeDegrees>41.79208463989198207855224609375</LatitudeDegrees>
              <LongitudeDegrees>-1.80293236859142780303955078125</LongitudeDegrees>
            </Position>
            <AltitudeMeters>1355.5999755859375</AltitudeMeters>
            <DistanceMeters>436807.76203018</DistanceMeters>
          </Trackpoint>
          <Trackpoint>
            <Time>2021-08-02T09:00:29.000Z</Time>
            <Position>
              <LatitudeDegrees>41.7918897606432437896728515625</LatitudeDegrees>
              <LongitudeDegrees>-1.8024794943630695343017578125</LongitudeDegrees>
            </Position>
            <AltitudeMeters>1356.4000244140625</AltitudeMeters>
            <DistanceMeters>436851.15335487</DistanceMeters>
          </Trackpoint>
          <Trackpoint>
            <Time>2021-08-02T09:00:49.000Z</Time>
            <Position>
              <LatitudeDegrees>41.79174768738448619842529296875</LatitudeDegrees>
              <LongitudeDegrees>-1.802162826061248779296875</LongitudeDegrees>
            </Position>
            <AltitudeMeters>1357.4000244140625</AltitudeMeters>
            <DistanceMeters>436881.82240805</DistanceMeters>
          </Trackpoint>
          <Trackpoint>
            <Time>2021-08-02T09:01:00.000Z</Time>
            <Position>
              <LatitudeDegrees>41.79161139763891696929931640625</LatitudeDegrees>
              <LongitudeDegrees>-1.80199326016008853912353515625</LongitudeDegrees>
            </Position>
            <AltitudeMeters>1357.800048828125</AltitudeMeters>
            <DistanceMeters>436902.51315221</DistanceMeters>
          </Trackpoint>
          <Trackpoint>
            <Time>2021-08-02T09:01:22.000Z</Time>
            <Position>
              <LatitudeDegrees>41.7913526482880115509033203125</LatitudeDegrees>
              <LongitudeDegrees>-1.8017583154141902923583984375</LongitudeDegrees>
            </Position>
            <AltitudeMeters>1358.4000244140625</AltitudeMeters>
            <DistanceMeters>436937.291242</DistanceMeters>
          </Trackpoint>
          <Trackpoint>
            <Time>2021-08-02T09:01:24.000Z</Time>
            <Position>
              <LatitudeDegrees>41.7913298495113849639892578125</LatitudeDegrees>
              <LongitudeDegrees>-1.80174917913973331451416015625</LongitudeDegrees>
            </Position>
            <AltitudeMeters>1358.800048828125</AltitudeMeters>
            <DistanceMeters>436939.93837995</DistanceMeters>
          </Trackpoint>
          <Trackpoint>
            <Time>2021-08-02T09:01:28.000Z</Time>
            <Position>
              <LatitudeDegrees>41.7912721820175647735595703125</LatitudeDegrees>
              <LongitudeDegrees>-1.80173073895275592803955078125</LongitudeDegrees>
            </Position>
            <AltitudeMeters>1359.199951171875</AltitudeMeters>
            <DistanceMeters>436946.53640984</DistanceMeters>
          </Trackpoint>
          <Trackpoint>
            <Time>2021-08-02T09:01:34.000Z</Time>
            <Position>
              <LatitudeDegrees>41.791195571422576904296875</LatitudeDegrees>
              <LongitudeDegrees>-1.80168338119983673095703125</LongitudeDegrees>
            </Position>
            <AltitudeMeters>1359.4000244140625</AltitudeMeters>
            <DistanceMeters>436955.92483762</DistanceMeters>
          </Trackpoint>
          <Trackpoint>
            <Time>2021-08-02T09:01:35.000Z</Time>
            <Position>
              <LatitudeDegrees>41.79118459112942218780517578125</LatitudeDegrees>
              <LongitudeDegrees>-1.80167743004858493804931640625</LongitudeDegrees>
            </Position>
            <AltitudeMeters>1359.5999755859375</AltitudeMeters>
            <DistanceMeters>436957.2415664</DistanceMeters>
          </Trackpoint>
          <Trackpoint>
            <Time>2021-08-02T09:01:46.000Z</Time>
            <Position>
              <LatitudeDegrees>41.79102684371173381805419921875</LatitudeDegrees>
              <LongitudeDegrees>-1.80158522911369800567626953125</LongitudeDegrees>
            </Position>
            <AltitudeMeters>1359.800048828125</AltitudeMeters>
            <DistanceMeters>436976.3941058</DistanceMeters>
          </Trackpoint>
          <Trackpoint>
            <Time>2021-08-02T09:01:52.000Z</Time>
            <Position>
              <LatitudeDegrees>41.7909402586519718170166015625</LatitudeDegrees>
              <LongitudeDegrees>-1.80153409950435161590576171875</LongitudeDegrees>
            </Position>
            <AltitudeMeters>1360.199951171875</AltitudeMeters>
            <DistanceMeters>436986.92364893</DistanceMeters>
          </Trackpoint>
          <Trackpoint>
            <Time>2021-08-02T09:02:03.000Z</Time>
            <Position>
              <LatitudeDegrees>41.79077153094112873077392578125</LatitudeDegrees>
              <LongitudeDegrees>-1.8014512024819850921630859375</LongitudeDegrees>
            </Position>
            <AltitudeMeters>1360.800048828125</AltitudeMeters>
            <DistanceMeters>437006.92355558</DistanceMeters>
          </Trackpoint>
          <Trackpoint>
            <Time>2021-08-02T09:02:10.000Z</Time>
            <Position>
              <LatitudeDegrees>41.79065921343863010406494140625</LatitudeDegrees>
              <LongitudeDegrees>-1.801382638514041900634765625</LongitudeDegrees>
            </Position>
            <AltitudeMeters>1361.199951171875</AltitudeMeters>
            <DistanceMeters>437020.65877881</DistanceMeters>
          </Trackpoint>
          <Trackpoint>
            <Time>2021-08-02T09:02:15.000Z</Time>
            <Position>
              <LatitudeDegrees>41.79058494977653026580810546875</LatitudeDegrees>
              <LongitudeDegrees>-1.80132773704826831817626953125</LongitudeDegrees>
            </Position>
            <AltitudeMeters>1361.199951171875</AltitudeMeters>
            <DistanceMeters>437030.09661087</DistanceMeters>
          </Trackpoint>
          <Trackpoint>
            <Time>2021-08-02T09:02:19.000Z</Time>
            <Position>
              <LatitudeDegrees>41.790522672235965728759765625</LatitudeDegrees>
              <LongitudeDegrees>-1.80127342231571674346923828125</LongitudeDegrees>
            </Position>
            <AltitudeMeters>1361.4000244140625</AltitudeMeters>
            <DistanceMeters>437038.36448114</DistanceMeters>
          </Trackpoint>
          <Trackpoint>
            <Time>2021-08-02T09:02:23.000Z</Time>
            <Position>
              <LatitudeDegrees>41.79046827368438243865966796875</LatitudeDegrees>
              <LongitudeDegrees>-1.8012383021414279937744140625</LongitudeDegrees>
            </Position>
            <AltitudeMeters>1361.800048828125</AltitudeMeters>
            <DistanceMeters>437045.08388455</DistanceMeters>
          </Trackpoint>
          <Trackpoint>
            <Time>2021-08-02T09:02:33.000Z</Time>
            <Position>
              <LatitudeDegrees>41.79032611660659313201904296875</LatitudeDegrees>
              <LongitudeDegrees>-1.8011610209941864013671875</LongitudeDegrees>
            </Position>
            <AltitudeMeters>1362.199951171875</AltitudeMeters>
            <DistanceMeters>437062.15645926</DistanceMeters>
          </Trackpoint>
          <Trackpoint>
            <Time>2021-08-02T09:02:39.000Z</Time>
            <Position>
              <LatitudeDegrees>41.79023542441427707672119140625</LatitudeDegrees>
              <LongitudeDegrees>-1.80111408233642578125</LongitudeDegrees>
            </Position>
            <AltitudeMeters>1362</AltitudeMeters>
            <DistanceMeters>437072.9761594</DistanceMeters>
          </Trackpoint>
          <Trackpoint>
            <Time>2021-08-02T09:03:08.000Z</Time>
            <Position>
              <LatitudeDegrees>41.78970493376255035400390625</LatitudeDegrees>
              <LongitudeDegrees>-1.800919286906719207763671875</LongitudeDegrees>
            </Position>
            <AltitudeMeters>1362.199951171875</AltitudeMeters>
            <DistanceMeters>437134.19364918</DistanceMeters>
          </Trackpoint>
          <Trackpoint>
            <Time>2021-08-02T09:03:25.000Z</Time>
            <Position>
              <LatitudeDegrees>41.7894479446113109588623046875</LatitudeDegrees>
              <LongitudeDegrees>-1.800886094570159912109375</LongitudeDegrees>
            </Position>
            <AltitudeMeters>1362.800048828125</AltitudeMeters>
            <DistanceMeters>437162.92945107</DistanceMeters>
          </Trackpoint>
          <Trackpoint>
            <Time>2021-08-02T09:03:32.000Z</Time>
            <Position>
              <LatitudeDegrees>41.789334453642368316650390625</LatitudeDegrees>
              <LongitudeDegrees>-1.8008926324546337127685546875</LongitudeDegrees>
            </Position>
            <AltitudeMeters>1363.199951171875</AltitudeMeters>
            <DistanceMeters>437175.57264739</DistanceMeters>
          </Trackpoint>
          <Trackpoint>
            <Time>2021-08-02T09:03:40.000Z</Time>
            <Position>
              <LatitudeDegrees>41.78919070400297641754150390625</LatitudeDegrees>
              <LongitudeDegrees>-1.80089472793042659759521484375</LongitudeDegrees>
            </Position>
            <AltitudeMeters>1363.199951171875</AltitudeMeters>
            <DistanceMeters>437191.57329511</DistanceMeters>
          </Trackpoint>
          <Trackpoint>
            <Time>2021-08-02T09:04:11.000Z</Time>
            <Position>
              <LatitudeDegrees>41.78874394856393337249755859375</LatitudeDegrees>
              <LongitudeDegrees>-1.80103470571339130401611328125</LongitudeDegrees>
            </Position>
            <AltitudeMeters>1364</AltitudeMeters>
            <DistanceMeters>437242.63687072</DistanceMeters>
          </Trackpoint>
          <Trackpoint>
            <Time>2021-08-02T09:04:20.000Z</Time>
            <Position>
              <LatitudeDegrees>41.78859290666878223419189453125</LatitudeDegrees>
              <LongitudeDegrees>-1.801107041537761688232421875</LongitudeDegrees>
            </Position>
            <AltitudeMeters>1364.4000244140625</AltitudeMeters>
            <DistanceMeters>437260.48773449</DistanceMeters>
          </Trackpoint>
          <Trackpoint>
            <Time>2021-08-02T09:04:26.000Z</Time>
            <Position>
              <LatitudeDegrees>41.78851881064474582672119140625</LatitudeDegrees>
              <LongitudeDegrees>-1.801153309643268585205078125</LongitudeDegrees>
            </Position>
            <AltitudeMeters>1364.5999755859375</AltitudeMeters>
            <DistanceMeters>437269.58452626</DistanceMeters>
          </Trackpoint>
          <Trackpoint>
            <Time>2021-08-02T09:04:28.000Z</Time>
            <Position>
              <LatitudeDegrees>41.7884944193065166473388671875</LatitudeDegrees>
              <LongitudeDegrees>-1.801172755658626556396484375</LongitudeDegrees>
            </Position>
            <AltitudeMeters>1364.800048828125</AltitudeMeters>
            <DistanceMeters>437272.74193096</DistanceMeters>
          </Trackpoint>
          <Trackpoint>
            <Time>2021-08-02T09:04:43.000Z</Time>
            <Position>
              <LatitudeDegrees>41.78828981705009937286376953125</LatitudeDegrees>
              <LongitudeDegrees>-1.8013620190322399139404296875</LongitudeDegrees>
            </Position>
            <AltitudeMeters>1365.800048828125</AltitudeMeters>
            <DistanceMeters>437300.40564218</DistanceMeters>
          </Trackpoint>
          <Trackpoint>
            <Time>2021-08-02T09:04:56.000Z</Time>
            <Position>
              <LatitudeDegrees>41.7881499230861663818359375</LatitudeDegrees>
              <LongitudeDegrees>-1.80152370594441890716552734375</LongitudeDegrees>
            </Position>
            <AltitudeMeters>1366.5999755859375</AltitudeMeters>
            <DistanceMeters>437320.95998859</DistanceMeters>
          </Trackpoint>
          <Trackpoint>
            <Time>2021-08-02T09:05:13.000Z</Time>
            <Position>
              <LatitudeDegrees>41.78790508769452571868896484375</LatitudeDegrees>
              <LongitudeDegrees>-1.8017298169434070587158203125</LongitudeDegrees>
            </Position>
            <AltitudeMeters>1367.4000244140625</AltitudeMeters>
            <DistanceMeters>437353.13407511</DistanceMeters>
          </Trackpoint>
          <Trackpoint>
            <Time>2021-08-02T09:05:31.000Z</Time>
            <Position>
              <LatitudeDegrees>41.78762764669954776763916015625</LatitudeDegrees>
              <LongitudeDegrees>-1.80200331844389438629150390625</LongitudeDegrees>
            </Position>
            <AltitudeMeters>1368.199951171875</AltitudeMeters>
            <DistanceMeters>437391.45800854</DistanceMeters>
          </Trackpoint>
          <Trackpoint>
            <Time>2021-08-02T09:05:54.000Z</Time>
            <Position>
              <LatitudeDegrees>41.78732983767986297607421875</LatitudeDegrees>
              <LongitudeDegrees>-1.8023138679563999176025390625</LongitudeDegrees>
            </Position>
            <AltitudeMeters>1369</AltitudeMeters>
            <DistanceMeters>437433.44497918</DistanceMeters>
          </Trackpoint>
          <Trackpoint>
            <Time>2021-08-02T09:05:58.000Z</Time>
            <Position>
              <LatitudeDegrees>41.787263453006744384765625</LatitudeDegrees>
              <LongitudeDegrees>-1.80235099978744983673095703125</LongitudeDegrees>
            </Position>
            <AltitudeMeters>1368.5999755859375</AltitudeMeters>
            <DistanceMeters>437441.45038064</DistanceMeters>
          </Trackpoint>
          <Trackpoint>
            <Time>2021-08-02T09:06:15.000Z</Time>
            <Position>
              <LatitudeDegrees>41.78678710944950580596923828125</LatitudeDegrees>
              <LongitudeDegrees>-1.80266641080379486083984375</LongitudeDegrees>
            </Position>
            <AltitudeMeters>1367.4000244140625</AltitudeMeters>
            <DistanceMeters>437500.57807632</DistanceMeters>
          </Trackpoint>
          <Trackpoint>
            <Time>2021-08-02T09:06:23.000Z</Time>
            <Position>
              <LatitudeDegrees>41.78652760572731494903564453125</LatitudeDegrees>
              <LongitudeDegrees>-1.8027430213987827301025390625</LongitudeDegrees>
            </Position>
            <AltitudeMeters>1366.199951171875</AltitudeMeters>
            <DistanceMeters>437530.15291807</DistanceMeters>
          </Trackpoint>
          <Trackpoint>
            <Time>2021-08-02T09:06:24.000Z</Time>
            <Position>
              <LatitudeDegrees>41.7864924855530261993408203125</LatitudeDegrees>
              <LongitudeDegrees>-1.80272583849728107452392578125</LongitudeDegrees>
            </Position>
            <AltitudeMeters>1365.800048828125</AltitudeMeters>
            <DistanceMeters>437534.31461083</DistanceMeters>
          </Trackpoint>
          <Trackpoint>
            <Time>2021-08-02T09:06:27.000Z</Time>
            <Position>
              <LatitudeDegrees>41.78639751859009265899658203125</LatitudeDegrees>
              <LongitudeDegrees>-1.80261553265154361724853515625</LongitudeDegrees>
            </Position>
            <AltitudeMeters>1365</AltitudeMeters>
            <DistanceMeters>437548.2974294</DistanceMeters>
          </Trackpoint>
          <Trackpoint>
            <Time>2021-08-02T09:06:28.000Z</Time>
            <Position>
              <LatitudeDegrees>41.7863714508712291717529296875</LatitudeDegrees>
              <LongitudeDegrees>-1.802569516003131866455078125</LongitudeDegrees>
            </Position>
            <AltitudeMeters>1364.800048828125</AltitudeMeters>
            <DistanceMeters>437553.09321971</DistanceMeters>
          </Trackpoint>
          <Trackpoint>
            <Time>2021-08-02T09:06:31.000Z</Time>
            <Position>
              <LatitudeDegrees>41.7862953431904315948486328125</LatitudeDegrees>
              <LongitudeDegrees>-1.80241822265088558197021484375</LongitudeDegrees>
            </Position>
            <AltitudeMeters>1364</AltitudeMeters>
            <DistanceMeters>437568.2397745</DistanceMeters>
          </Trackpoint>
          <Trackpoint>
            <Time>2021-08-02T09:06:43.000Z</Time>
            <Position>
              <LatitudeDegrees>41.78601044230163097381591796875</LatitudeDegrees>
              <LongitudeDegrees>-1.80180139839649200439453125</LongitudeDegrees>
            </Position>
            <AltitudeMeters>1363.199951171875</AltitudeMeters>
            <DistanceMeters>437628.45627719</DistanceMeters>
          </Trackpoint>
          <Trackpoint>
            <Time>2021-08-02T09:06:59.000Z</Time>
            <Position>
              <LatitudeDegrees>41.78574322722852230072021484375</LatitudeDegrees>
              <LongitudeDegrees>-1.80117434822022914886474609375</LongitudeDegrees>
            </Position>
            <AltitudeMeters>1363.5999755859375</AltitudeMeters>
            <DistanceMeters>437688.39531417</DistanceMeters>
          </Trackpoint>
          <Trackpoint>
            <Time>2021-08-02T09:07:25.000Z</Time>
            <Position>
              <LatitudeDegrees>41.785557568073272705078125</LatitudeDegrees>
              <LongitudeDegrees>-1.80048166774213314056396484375</LongitudeDegrees>
            </Position>
            <AltitudeMeters>1364.199951171875</AltitudeMeters>
            <DistanceMeters>437749.48308063</DistanceMeters>
          </Trackpoint>
          <Trackpoint>
            <Time>2021-08-02T09:07:47.000Z</Time>
            <Position>
              <LatitudeDegrees>41.785584054887294769287109375</LatitudeDegrees>
              <LongitudeDegrees>-1.79973148740828037261962890625</LongitudeDegrees>
            </Position>
            <AltitudeMeters>1363</AltitudeMeters>
            <DistanceMeters>437811.81162342</DistanceMeters>
          </Trackpoint>
          <Trackpoint>
            <Time>2021-08-02T09:07:51.000Z</Time>
            <Position>
              <LatitudeDegrees>41.785604842007160186767578125</LatitudeDegrees>
              <LongitudeDegrees>-1.79960575886070728302001953125</LongitudeDegrees>
            </Position>
            <AltitudeMeters>1362.4000244140625</AltitudeMeters>
            <DistanceMeters>437822.49948883</DistanceMeters>
          </Trackpoint>
          <Trackpoint>
            <Time>2021-08-02T09:07:57.000Z</Time>
            <Position>
              <LatitudeDegrees>41.78563090972602367401123046875</LatitudeDegrees>
              <LongitudeDegrees>-1.7993533797562122344970703125</LongitudeDegrees>
            </Position>
            <AltitudeMeters>1361.4000244140625</AltitudeMeters>
            <DistanceMeters>437843.6448012</DistanceMeters>
          </Trackpoint>
          <Trackpoint>
            <Time>2021-08-02T09:08:03.000Z</Time>
            <Position>
              <LatitudeDegrees>41.7857055924832820892333984375</LatitudeDegrees>
              <LongitudeDegrees>-1.79903998039662837982177734375</LongitudeDegrees>
            </Position>
            <AltitudeMeters>1360.199951171875</AltitudeMeters>
            <DistanceMeters>437870.95006244</DistanceMeters>
          </Trackpoint>
          <Trackpoint>
            <Time>2021-08-02T09:08:05.000Z</Time>
            <Position>
              <LatitudeDegrees>41.7857359349727630615234375</LatitudeDegrees>
              <LongitudeDegrees>-1.7989202030003070831298828125</LongitudeDegrees>
            </Position>
            <AltitudeMeters>1358.800048828125</AltitudeMeters>
            <DistanceMeters>437881.44868679</DistanceMeters>
          </Trackpoint>
          <Trackpoint>
            <Time>2021-08-02T09:08:09.000Z</Time>
            <Position>
              <LatitudeDegrees>41.78580877371132373809814453125</LatitudeDegrees>
              <LongitudeDegrees>-1.79865558631718158721923828125</LongitudeDegrees>
            </Position>
            <AltitudeMeters>1357.5999755859375</AltitudeMeters>
            <DistanceMeters>437904.85806993</DistanceMeters>
          </Trackpoint>
          <Trackpoint>
            <Time>2021-08-02T09:08:11.000Z</Time>
            <Position>
              <LatitudeDegrees>41.78584716282784938812255859375</LatitudeDegrees>
              <LongitudeDegrees>-1.79851627908647060394287109375</LongitudeDegrees>
            </Position>
            <AltitudeMeters>1356.4000244140625</AltitudeMeters>
            <DistanceMeters>437917.18336814</DistanceMeters>
          </Trackpoint>
          <Trackpoint>
            <Time>2021-08-02T09:08:14.000Z</Time>
            <Position>
              <LatitudeDegrees>41.78590499795973300933837890625</LatitudeDegrees>
              <LongitudeDegrees>-1.79828099906444549560546875</LongitudeDegrees>
            </Position>
            <AltitudeMeters>1355.4000244140625</AltitudeMeters>
            <DistanceMeters>437937.74320541</DistanceMeters>
          </Trackpoint>
          <Trackpoint>
            <Time>2021-08-02T09:08:19.000Z</Time>
            <Position>
              <LatitudeDegrees>41.78599049337208271026611328125</LatitudeDegrees>
              <LongitudeDegrees>-1.7978738062083721160888671875</LongitudeDegrees>
            </Position>
            <AltitudeMeters>1354.4000244140625</AltitudeMeters>
            <DistanceMeters>437972.85091473</DistanceMeters>
          </Trackpoint>
          <Trackpoint>
            <Time>2021-08-02T09:08:25.000Z</Time>
            <Position>
              <LatitudeDegrees>41.7861141264438629150390625</LatitudeDegrees>
              <LongitudeDegrees>-1.79748211987316608428955078125</LongitudeDegrees>
            </Position>
            <AltitudeMeters>1355.199951171875</AltitudeMeters>
            <DistanceMeters>438008.14985378</DistanceMeters>
          </Trackpoint>
          <Trackpoint>
            <Time>2021-08-02T09:08:29.000Z</Time>
            <Position>
              <LatitudeDegrees>41.786141954362392425537109375</LatitudeDegrees>
              <LongitudeDegrees>-1.7972978018224239349365234375</LongitudeDegrees>
            </Position>
            <AltitudeMeters>1356.5999755859375</AltitudeMeters>
            <DistanceMeters>438023.7568164</DistanceMeters>
          </Trackpoint>
          <Trackpoint>
            <Time>2021-08-02T09:08:32.000Z</Time>
            <Position>
              <LatitudeDegrees>41.78612829186022281646728515625</LatitudeDegrees>
              <LongitudeDegrees>-1.79721557535231113433837890625</LongitudeDegrees>
            </Position>
            <AltitudeMeters>1357.800048828125</AltitudeMeters>
            <DistanceMeters>438030.74757985</DistanceMeters>
          </Trackpoint>
          <Trackpoint>
            <Time>2021-08-02T09:08:44.000Z</Time>
            <Position>
              <LatitudeDegrees>41.786048747599124908447265625</LatitudeDegrees>
              <LongitudeDegrees>-1.79693763144314289093017578125</LongitudeDegrees>
            </Position>
            <AltitudeMeters>1358.800048828125</AltitudeMeters>
            <DistanceMeters>438055.45507381</DistanceMeters>
          </Trackpoint>
          <Trackpoint>
            <Time>2021-08-02T09:08:50.000Z</Time>
            <Position>
              <LatitudeDegrees>41.78599409759044647216796875</LatitudeDegrees>
              <LongitudeDegrees>-1.79681592620909214019775390625</LongitudeDegrees>
            </Position>
            <AltitudeMeters>1359.800048828125</AltitudeMeters>
            <DistanceMeters>438067.24528148</DistanceMeters>
          </Trackpoint>
          <Trackpoint>
            <Time>2021-08-02T09:09:03.000Z</Time>
            <Position>
              <LatitudeDegrees>41.78580701351165771484375</LatitudeDegrees>
              <LongitudeDegrees>-1.79667812772095203399658203125</LongitudeDegrees>
            </Position>
            <AltitudeMeters>1360.4000244140625</AltitudeMeters>
            <DistanceMeters>438091.00196007</DistanceMeters>
          </Trackpoint>
          <Trackpoint>
            <Time>2021-08-02T09:09:09.000Z</Time>
            <Position>
              <LatitudeDegrees>41.7857407964766025543212890625</LatitudeDegrees>
              <LongitudeDegrees>-1.796763204038143157958984375</LongitudeDegrees>
            </Position>
            <AltitudeMeters>1360.5999755859375</AltitudeMeters>
            <DistanceMeters>438101.20837775</DistanceMeters>
          </Trackpoint>
          <Trackpoint>
            <Time>2021-08-02T09:09:12.000Z</Time>
            <Position>
              <LatitudeDegrees>41.7857270501554012298583984375</LatitudeDegrees>
              <LongitudeDegrees>-1.7967848293483257293701171875</LongitudeDegrees>
            </Position>
            <AltitudeMeters>1360.5999755859375</AltitudeMeters>
            <DistanceMeters>438103.56687878</DistanceMeters>
          </Trackpoint>
          <Trackpoint>
            <Time>2021-08-02T09:09:28.000Z</Time>
            <Position>
              <LatitudeDegrees>41.78565219976007938385009765625</LatitudeDegrees>
              <LongitudeDegrees>-1.7967549897730350494384765625</LongitudeDegrees>
            </Position>
            <AltitudeMeters>1360.199951171875</AltitudeMeters>
            <DistanceMeters>438112.25805761</DistanceMeters>
          </Trackpoint>
          <Trackpoint>
            <Time>2021-08-02T09:09:40.000Z</Time>
            <Position>
              <LatitudeDegrees>41.78540191613137722015380859375</LatitudeDegrees>
              <LongitudeDegrees>-1.79689857177436351776123046875</LongitudeDegrees>
            </Position>
            <AltitudeMeters>1359.5999755859375</AltitudeMeters>
            <DistanceMeters>438142.55653234</DistanceMeters>
          </Trackpoint>
          <Trackpoint>
            <Time>2021-08-02T09:09:51.000Z</Time>
            <Position>
              <LatitudeDegrees>41.78509128279983997344970703125</LatitudeDegrees>
              <LongitudeDegrees>-1.7970741726458072662353515625</LongitudeDegrees>
            </Position>
            <AltitudeMeters>1358.5999755859375</AltitudeMeters>
            <DistanceMeters>438180.07656429</DistanceMeters>
          </Trackpoint>
          <Trackpoint>
            <Time>2021-08-02T09:10:11.000Z</Time>
            <Position>
              <LatitudeDegrees>41.784618794918060302734375</LatitudeDegrees>
              <LongitudeDegrees>-1.7974352650344371795654296875</LongitudeDegrees>
            </Position>
            <AltitudeMeters>1358.5999755859375</AltitudeMeters>
            <DistanceMeters>438240.60477717</DistanceMeters>
          </Trackpoint>
          <Trackpoint>
            <Time>2021-08-02T09:10:25.000Z</Time>
            <Position>
              <LatitudeDegrees>41.78433976136147975921630859375</LatitudeDegrees>
              <LongitudeDegrees>-1.79766836576163768768310546875</LongitudeDegrees>
            </Position>
            <AltitudeMeters>1358.199951171875</AltitudeMeters>
            <DistanceMeters>438277.19438135</DistanceMeters>
          </Trackpoint>
          <Trackpoint>
            <Time>2021-08-02T09:10:33.000Z</Time>
            <Position>
              <LatitudeDegrees>41.784159131348133087158203125</LatitudeDegrees>
              <LongitudeDegrees>-1.79781504906713962554931640625</LongitudeDegrees>
            </Position>
            <AltitudeMeters>1357.800048828125</AltitudeMeters>
            <DistanceMeters>438300.69731385</DistanceMeters>
          </Trackpoint>
          <Trackpoint>
            <Time>2021-08-02T09:10:36.000Z</Time>
            <Position>
              <LatitudeDegrees>41.784087382256984710693359375</LatitudeDegrees>
              <LongitudeDegrees>-1.79786249063909053802490234375</LongitudeDegrees>
            </Position>
            <AltitudeMeters>1357.5999755859375</AltitudeMeters>
            <DistanceMeters>438309.60147418</DistanceMeters>
          </Trackpoint>
          <Trackpoint>
            <Time>2021-08-02T09:10:44.000Z</Time>
            <Position>
              <LatitudeDegrees>41.78385713137686252593994140625</LatitudeDegrees>
              <LongitudeDegrees>-1.797960139811038970947265625</LongitudeDegrees>
            </Position>
            <AltitudeMeters>1356.800048828125</AltitudeMeters>
            <DistanceMeters>438336.47959178</DistanceMeters>
          </Trackpoint>
          <Trackpoint>
            <Time>2021-08-02T09:10:49.000Z</Time>
            <Position>
              <LatitudeDegrees>41.783677674829959869384765625</LatitudeDegrees>
              <LongitudeDegrees>-1.79801671765744686126708984375</LongitudeDegrees>
            </Position>
            <AltitudeMeters>1355.800048828125</AltitudeMeters>
            <DistanceMeters>438356.99788177</DistanceMeters>
          </Trackpoint>
          <Trackpoint>
            <Time>2021-08-02T09:10:54.000Z</Time>
            <Position>
              <LatitudeDegrees>41.7834842205047607421875</LatitudeDegrees>
              <LongitudeDegrees>-1.7981004528701305389404296875</LongitudeDegrees>
            </Position>
            <AltitudeMeters>1354.5999755859375</AltitudeMeters>
            <DistanceMeters>438379.62342118</DistanceMeters>
          </Trackpoint>
          <Trackpoint>
            <Time>2021-08-02T09:11:00.000Z</Time>
            <Position>
              <LatitudeDegrees>41.78324810229241847991943359375</LatitudeDegrees>
              <LongitudeDegrees>-1.7982067354023456573486328125</LongitudeDegrees>
            </Position>
            <AltitudeMeters>1353.5999755859375</AltitudeMeters>
            <DistanceMeters>438407.34484909</DistanceMeters>
          </Trackpoint>
          <Trackpoint>
            <Time>2021-08-02T09:11:05.000Z</Time>
            <Position>
              <LatitudeDegrees>41.78304442204535007476806640625</LatitudeDegrees>
              <LongitudeDegrees>-1.79832751862704753875732421875</LongitudeDegrees>
            </Position>
            <AltitudeMeters>1352.4000244140625</AltitudeMeters>
            <DistanceMeters>438432.13225378</DistanceMeters>
          </Trackpoint>
          <Trackpoint>
            <Time>2021-08-02T09:11:11.000Z</Time>
            <Position>
              <LatitudeDegrees>41.78278424777090549468994140625</LatitudeDegrees>
              <LongitudeDegrees>-1.79847051389515399932861328125</LongitudeDegrees>
            </Position>
            <AltitudeMeters>1351.4000244140625</AltitudeMeters>
            <DistanceMeters>438463.42779853</DistanceMeters>
          </Trackpoint>
          <Trackpoint>
            <Time>2021-08-02T09:11:19.000Z</Time>
            <Position>
              <LatitudeDegrees>41.7824346385896205902099609375</LatitudeDegrees>
              <LongitudeDegrees>-1.7986855097115039825439453125</LongitudeDegrees>
            </Position>
            <AltitudeMeters>1350.199951171875</AltitudeMeters>
            <DistanceMeters>438506.23614682</DistanceMeters>
          </Trackpoint>
          <Trackpoint>
            <Time>2021-08-02T09:11:24.000Z</Time>
            <Position>
              <LatitudeDegrees>41.78221813403069972991943359375</LatitudeDegrees>
              <LongitudeDegrees>-1.79882758297026157379150390625</LongitudeDegrees>
            </Position>
            <AltitudeMeters>1349.199951171875</AltitudeMeters>
            <DistanceMeters>438533.06399081</DistanceMeters>
          </Trackpoint>
          <Trackpoint>
            <Time>2021-08-02T09:11:29.000Z</Time>
            <Position>
              <LatitudeDegrees>41.7819830216467380523681640625</LatitudeDegrees>
              <LongitudeDegrees>-1.7989902757108211517333984375</LongitudeDegrees>
            </Position>
            <AltitudeMeters>1348</AltitudeMeters>
            <DistanceMeters>438562.51092818</DistanceMeters>
          </Trackpoint>
          <Trackpoint>
            <Time>2021-08-02T09:11:40.000Z</Time>
            <Position>
              <LatitudeDegrees>41.78151321597397327423095703125</LatitudeDegrees>
              <LongitudeDegrees>-1.799350194633007049560546875</LongitudeDegrees>
            </Position>
            <AltitudeMeters>1347.199951171875</AltitudeMeters>
            <DistanceMeters>438622.73237935</DistanceMeters>
          </Trackpoint>
          <Trackpoint>
            <Time>2021-08-02T09:11:42.000Z</Time>
            <Position>
              <LatitudeDegrees>41.78143610246479511260986328125</LatitudeDegrees>
              <LongitudeDegrees>-1.79942470975220203399658203125</LongitudeDegrees>
            </Position>
            <AltitudeMeters>1347</AltitudeMeters>
            <DistanceMeters>438633.31069242</DistanceMeters>
          </Trackpoint>
          <Trackpoint>
            <Time>2021-08-02T09:11:46.000Z</Time>
            <Position>
              <LatitudeDegrees>41.78127936087548732757568359375</LatitudeDegrees>
              <LongitudeDegrees>-1.79958849214017391204833984375</LongitudeDegrees>
            </Position>
            <AltitudeMeters>1346</AltitudeMeters>
            <DistanceMeters>438655.42722878</DistanceMeters>
          </Trackpoint>
          <Trackpoint>
            <Time>2021-08-02T09:11:49.000Z</Time>
            <Position>
              <LatitudeDegrees>41.781159080564975738525390625</LatitudeDegrees>
              <LongitudeDegrees>-1.79970567114651203155517578125</LongitudeDegrees>
            </Position>
            <AltitudeMeters>1345.199951171875</AltitudeMeters>
            <DistanceMeters>438671.97497902</DistanceMeters>
          </Trackpoint>
          <Trackpoint>
            <Time>2021-08-02T09:11:52.000Z</Time>
            <Position>
              <LatitudeDegrees>41.78103611804544925689697265625</LatitudeDegrees>
              <LongitudeDegrees>-1.79978932254016399383544921875</LongitudeDegrees>
            </Position>
            <AltitudeMeters>1344.800048828125</AltitudeMeters>
            <DistanceMeters>438687.32171984</DistanceMeters>
          </Trackpoint>
          <Trackpoint>
            <Time>2021-08-02T09:12:03.000Z</Time>
            <Position>
              <LatitudeDegrees>41.78058919496834278106689453125</LatitudeDegrees>
              <LongitudeDegrees>-1.8000950105488300323486328125</LongitudeDegrees>
            </Position>
            <AltitudeMeters>1343.800048828125</AltitudeMeters>
            <DistanceMeters>438743.16186236</DistanceMeters>
          </Trackpoint>
          <Trackpoint>
            <Time>2021-08-02T09:12:05.000Z</Time>
            <Position>
              <LatitudeDegrees>41.78050696849822998046875</LatitudeDegrees>
              <LongitudeDegrees>-1.8001556955277919769287109375</LongitudeDegrees>
            </Position>
            <AltitudeMeters>1343.5999755859375</AltitudeMeters>
            <DistanceMeters>438753.60788762</DistanceMeters>
          </Trackpoint>
          <Trackpoint>
            <Time>2021-08-02T09:12:10.000Z</Time>
            <Position>
              <LatitudeDegrees>41.7803125083446502685546875</LatitudeDegrees>
              <LongitudeDegrees>-1.80028301663696765899658203125</LongitudeDegrees>
            </Position>
            <AltitudeMeters>1342.800048828125</AltitudeMeters>
            <DistanceMeters>438777.69373889</DistanceMeters>
          </Trackpoint>
          <Trackpoint>
            <Time>2021-08-02T09:12:12.000Z</Time>
            <Position>
              <LatitudeDegrees>41.7802315391600131988525390625</LatitudeDegrees>
              <LongitudeDegrees>-1.800342611968517303466796875</LongitudeDegrees>
            </Position>
            <AltitudeMeters>1342.4000244140625</AltitudeMeters>
            <DistanceMeters>438787.97420652</DistanceMeters>
          </Trackpoint>
          <Trackpoint>
            <Time>2021-08-02T09:12:14.000Z</Time>
            <Position>
              <LatitudeDegrees>41.7801507376134395599365234375</LatitudeDegrees>
              <LongitudeDegrees>-1.80040908046066761016845703125</LongitudeDegrees>
            </Position>
            <AltitudeMeters>1341.5999755859375</AltitudeMeters>
            <DistanceMeters>438798.52516772</DistanceMeters>
          </Trackpoint>
          <Trackpoint>
            <Time>2021-08-02T09:12:17.000Z</Time>
            <Position>
              <LatitudeDegrees>41.7800441198050975799560546875</LatitudeDegrees>
              <LongitudeDegrees>-1.8004956655204296112060546875</LongitudeDegrees>
            </Position>
            <AltitudeMeters>1340.5999755859375</AltitudeMeters>
            <DistanceMeters>438812.39841714</DistanceMeters>
          </Trackpoint>
          <Trackpoint>
            <Time>2021-08-02T09:12:18.000Z</Time>
            <Position>
              <LatitudeDegrees>41.7799986898899078369140625</LatitudeDegrees>
              <LongitudeDegrees>-1.800521649420261383056640625</LongitudeDegrees>
            </Position>
            <AltitudeMeters>1340.199951171875</AltitudeMeters>
            <DistanceMeters>438817.89520127</DistanceMeters>
          </Trackpoint>
          <Trackpoint>
            <Time>2021-08-02T09:12:20.000Z</Time>
            <Position>
              <LatitudeDegrees>41.7798945866525173187255859375</LatitudeDegrees>
              <LongitudeDegrees>-1.800565235316753387451171875</LongitudeDegrees>
            </Position>
            <AltitudeMeters>1339.199951171875</AltitudeMeters>
            <DistanceMeters>438830.03335299</DistanceMeters>
          </Trackpoint>
          <Trackpoint>
            <Time>2021-08-02T09:12:21.000Z</Time>
            <Position>
              <LatitudeDegrees>41.779842115938663482666015625</LatitudeDegrees>
              <LongitudeDegrees>-1.8005680851638317108154296875</LongitudeDegrees>
            </Position>
            <AltitudeMeters>1339</AltitudeMeters>
            <DistanceMeters>438835.87807533</DistanceMeters>
          </Trackpoint>
          <Trackpoint>
            <Time>2021-08-02T09:12:35.000Z</Time>
            <Position>
              <LatitudeDegrees>41.77934532053768634796142578125</LatitudeDegrees>
              <LongitudeDegrees>-1.80041394196450710296630859375</LongitudeDegrees>
            </Position>
            <AltitudeMeters>1340.199951171875</AltitudeMeters>
            <DistanceMeters>438892.6331335</DistanceMeters>
          </Trackpoint>
          <Trackpoint>
            <Time>2021-08-02T09:12:59.000Z</Time>
            <Position>
              <LatitudeDegrees>41.7788548953831195831298828125</LatitudeDegrees>
              <LongitudeDegrees>-1.8001600541174411773681640625</LongitudeDegrees>
            </Position>
            <AltitudeMeters>1340.199951171875</AltitudeMeters>
            <DistanceMeters>438951.14490209</DistanceMeters>
          </Trackpoint>
          <Trackpoint>
            <Time>2021-08-02T09:13:05.000Z</Time>
            <Position>
              <LatitudeDegrees>41.77882346324622631072998046875</LatitudeDegrees>
              <LongitudeDegrees>-1.8000344932079315185546875</LongitudeDegrees>
            </Position>
            <AltitudeMeters>1341.199951171875</AltitudeMeters>
            <DistanceMeters>438962.13764892</DistanceMeters>
          </Trackpoint>
          <Trackpoint>
            <Time>2021-08-02T09:13:29.000Z</Time>
            <Position>
              <LatitudeDegrees>41.778731010854244232177734375</LatitudeDegrees>
              <LongitudeDegrees>-1.79932437837123870849609375</LongitudeDegrees>
            </Position>
            <AltitudeMeters>1340.5999755859375</AltitudeMeters>
            <DistanceMeters>439021.969022</DistanceMeters>
          </Trackpoint>
          <Trackpoint>
            <Time>2021-08-02T09:13:53.000Z</Time>
            <Position>
              <LatitudeDegrees>41.7788656242191791534423828125</LatitudeDegrees>
              <LongitudeDegrees>-1.798621974885463714599609375</LongitudeDegrees>
            </Position>
            <AltitudeMeters>1340.4000244140625</AltitudeMeters>
            <DistanceMeters>439082.16325149</DistanceMeters>
          </Trackpoint>
          <Trackpoint>
            <Time>2021-08-02T09:13:59.000Z</Time>
            <Position>
              <LatitudeDegrees>41.7788882553577423095703125</LatitudeDegrees>
              <LongitudeDegrees>-1.798394657671451568603515625</LongitudeDegrees>
            </Position>
            <AltitudeMeters>1339.800048828125</AltitudeMeters>
            <DistanceMeters>439101.19802985</DistanceMeters>
          </Trackpoint>
          <Trackpoint>
            <Time>2021-08-02T09:14:07.000Z</Time>
            <Position>
              <LatitudeDegrees>41.77896562032401561737060546875</LatitudeDegrees>
              <LongitudeDegrees>-1.7980578728020191192626953125</LongitudeDegrees>
            </Position>
            <AltitudeMeters>1338.4000244140625</AltitudeMeters>
            <DistanceMeters>439130.44758596</DistanceMeters>
          </Trackpoint>
          <Trackpoint>
            <Time>2021-08-02T09:14:11.000Z</Time>
            <Position>
              <LatitudeDegrees>41.77901172079145908355712890625</LatitudeDegrees>
              <LongitudeDegrees>-1.79785930551588535308837890625</LongitudeDegrees>
            </Position>
            <AltitudeMeters>1337.199951171875</AltitudeMeters>
            <DistanceMeters>439147.70899964</DistanceMeters>
          </Trackpoint>
          <Trackpoint>
            <Time>2021-08-02T09:14:16.000Z</Time>
            <Position>
              <LatitudeDegrees>41.7790718190371990203857421875</LatitudeDegrees>
              <LongitudeDegrees>-1.79758555255830287933349609375</LongitudeDegrees>
            </Position>
            <AltitudeMeters>1336.5999755859375</AltitudeMeters>
            <DistanceMeters>439171.39487284</DistanceMeters>
          </Trackpoint>
          <Trackpoint>
            <Time>2021-08-02T09:14:20.000Z</Time>
            <Position>
              <LatitudeDegrees>41.77911297418177127838134765625</LatitudeDegrees>
              <LongitudeDegrees>-1.7974014021456241607666015625</LongitudeDegrees>
            </Position>
            <AltitudeMeters>1336.4000244140625</AltitudeMeters>
            <DistanceMeters>439187.35087407</DistanceMeters>
          </Trackpoint>
          <Trackpoint>
            <Time>2021-08-02T09:14:38.000Z</Time>
            <Position>
              <LatitudeDegrees>41.77925244905054569244384765625</LatitudeDegrees>
              <LongitudeDegrees>-1.796694137156009674072265625</LongitudeDegrees>
            </Position>
            <AltitudeMeters>1337.4000244140625</AltitudeMeters>
            <DistanceMeters>439248.07168049</DistanceMeters>
          </Trackpoint>
          <Trackpoint>
            <Time>2021-08-02T09:15:02.000Z</Time>
            <Position>
              <LatitudeDegrees>41.77946719340980052947998046875</LatitudeDegrees>
              <LongitudeDegrees>-1.79601377807557582855224609375</LongitudeDegrees>
            </Position>
            <AltitudeMeters>1337</AltitudeMeters>
            <DistanceMeters>439309.39138182</DistanceMeters>
          </Trackpoint>
          <Trackpoint>
            <Time>2021-08-02T09:15:23.000Z</Time>
            <Position>
              <LatitudeDegrees>41.779671125113964080810546875</LatitudeDegrees>
              <LongitudeDegrees>-1.79534423165023326873779296875</LongitudeDegrees>
            </Position>
            <AltitudeMeters>1336.4000244140625</AltitudeMeters>
            <DistanceMeters>439369.42014164</DistanceMeters>
          </Trackpoint>
          <Trackpoint>
            <Time>2021-08-02T09:15:35.000Z</Time>
            <Position>
              <LatitudeDegrees>41.77976257167756557464599609375</LatitudeDegrees>
              <LongitudeDegrees>-1.79504231549799442291259765625</LongitudeDegrees>
            </Position>
            <AltitudeMeters>1336.4000244140625</AltitudeMeters>
            <DistanceMeters>439396.46688807</DistanceMeters>
          </Trackpoint>
          <Trackpoint>
            <Time>2021-08-02T09:15:41.000Z</Time>
            <Position>
              <LatitudeDegrees>41.7798090912401676177978515625</LatitudeDegrees>
              <LongitudeDegrees>-1.79487853311002254486083984375</LongitudeDegrees>
            </Position>
            <AltitudeMeters>1336.4000244140625</AltitudeMeters>
            <DistanceMeters>439411.01311615</DistanceMeters>
          </Trackpoint>
          <Trackpoint>
            <Time>2021-08-02T09:15:56.000Z</Time>
            <Position>
              <LatitudeDegrees>41.7798771522939205169677734375</LatitudeDegrees>
              <LongitudeDegrees>-1.79439892061054706573486328125</LongitudeDegrees>
            </Position>
            <AltitudeMeters>1336.4000244140625</AltitudeMeters>
            <DistanceMeters>439451.53485156</DistanceMeters>
          </Trackpoint>
          <Trackpoint>
            <Time>2021-08-02T09:16:17.000Z</Time>
            <Position>
              <LatitudeDegrees>41.77998469211161136627197265625</LatitudeDegrees>
              <LongitudeDegrees>-1.79368947632610797882080078125</LongitudeDegrees>
            </Position>
            <AltitudeMeters>1336</AltitudeMeters>
            <DistanceMeters>439511.62225011</DistanceMeters>
          </Trackpoint>
          <Trackpoint>
            <Time>2021-08-02T09:16:26.000Z</Time>
            <Position>
              <LatitudeDegrees>41.7800067365169525146484375</LatitudeDegrees>
              <LongitudeDegrees>-1.7934215068817138671875</LongitudeDegrees>
            </Position>
            <AltitudeMeters>1336.199951171875</AltitudeMeters>
            <DistanceMeters>439533.99836792</DistanceMeters>
          </Trackpoint>
          <Trackpoint>
            <Time>2021-08-02T09:16:33.000Z</Time>
            <Position>
              <LatitudeDegrees>41.78005836904048919677734375</LatitudeDegrees>
              <LongitudeDegrees>-1.79320014081895351409912109375</LongitudeDegrees>
            </Position>
            <AltitudeMeters>1335.800048828125</AltitudeMeters>
            <DistanceMeters>439553.24919485</DistanceMeters>
          </Trackpoint>
          <Trackpoint>
            <Time>2021-08-02T09:16:44.000Z</Time>
            <Position>
              <LatitudeDegrees>41.7801086604595184326171875</LatitudeDegrees>
              <LongitudeDegrees>-1.79287978447973728179931640625</LongitudeDegrees>
            </Position>
            <AltitudeMeters>1336</AltitudeMeters>
            <DistanceMeters>439580.42101996</DistanceMeters>
          </Trackpoint>
          <Trackpoint>
            <Time>2021-08-02T09:17:05.000Z</Time>
            <Position>
              <LatitudeDegrees>41.78011871874332427978515625</LatitudeDegrees>
              <LongitudeDegrees>-1.7921596951782703399658203125</LongitudeDegrees>
            </Position>
            <AltitudeMeters>1336</AltitudeMeters>
            <DistanceMeters>439640.19803519</DistanceMeters>
          </Trackpoint>
          <Trackpoint>
            <Time>2021-08-02T09:17:30.000Z</Time>
            <Position>
              <LatitudeDegrees>41.7801607958972454071044921875</LatitudeDegrees>
              <LongitudeDegrees>-1.79143021814525127410888671875</LongitudeDegrees>
            </Position>
            <AltitudeMeters>1335.4000244140625</AltitudeMeters>
            <DistanceMeters>439700.92456686</DistanceMeters>
          </Trackpoint>
          <Trackpoint>
            <Time>2021-08-02T09:17:57.000Z</Time>
            <Position>
              <LatitudeDegrees>41.7800481431186199188232421875</LatitudeDegrees>
              <LongitudeDegrees>-1.7907059378921985626220703125</LongitudeDegrees>
            </Position>
            <AltitudeMeters>1335.4000244140625</AltitudeMeters>
            <DistanceMeters>439762.33256197</DistanceMeters>
          </Trackpoint>
          <Trackpoint>
            <Time>2021-08-02T09:18:20.000Z</Time>
            <Position>
              <LatitudeDegrees>41.7800390906631946563720703125</LatitudeDegrees>
              <LongitudeDegrees>-1.789975203573703765869140625</LongitudeDegrees>
            </Position>
            <AltitudeMeters>1335.5999755859375</AltitudeMeters>
            <DistanceMeters>439822.99095049</DistanceMeters>
          </Trackpoint>
          <Trackpoint>
            <Time>2021-08-02T09:18:30.000Z</Time>
            <Position>
              <LatitudeDegrees>41.78007312119007110595703125</LatitudeDegrees>
              <LongitudeDegrees>-1.7896132729947566986083984375</LongitudeDegrees>
            </Position>
            <AltitudeMeters>1335.4000244140625</AltitudeMeters>
            <DistanceMeters>439853.26870455</DistanceMeters>
          </Trackpoint>
          <Trackpoint>
            <Time>2021-08-02T09:18:53.000Z</Time>
            <Position>
              <LatitudeDegrees>41.78010798990726470947265625</LatitudeDegrees>
              <LongitudeDegrees>-1.78888027556240558624267578125</LongitudeDegrees>
            </Position>
            <AltitudeMeters>1336</AltitudeMeters>
            <DistanceMeters>439914.23024898</DistanceMeters>
          </Trackpoint>
          <Trackpoint>
            <Time>2021-08-02T09:19:15.000Z</Time>
            <Position>
              <LatitudeDegrees>41.7802100814878940582275390625</LatitudeDegrees>
              <LongitudeDegrees>-1.78813428618013858795166015625</LongitudeDegrees>
            </Position>
            <AltitudeMeters>1335.199951171875</AltitudeMeters>
            <DistanceMeters>439977.18040884</DistanceMeters>
          </Trackpoint>
          <Trackpoint>
            <Time>2021-08-02T09:19:37.000Z</Time>
            <Position>
              <LatitudeDegrees>41.7803084850311279296875</LatitudeDegrees>
              <LongitudeDegrees>-1.787426769733428955078125</LongitudeDegrees>
            </Position>
            <AltitudeMeters>1335.199951171875</AltitudeMeters>
            <DistanceMeters>440036.91586739</DistanceMeters>
          </Trackpoint>
          <Trackpoint>
            <Time>2021-08-02T09:19:55.000Z</Time>
            <Position>
              <LatitudeDegrees>41.780309490859508514404296875</LatitudeDegrees>
              <LongitudeDegrees>-1.78687582723796367645263671875</LongitudeDegrees>
            </Position>
            <AltitudeMeters>1335.800048828125</AltitudeMeters>
            <DistanceMeters>440082.64346881</DistanceMeters>
          </Trackpoint>
          <Trackpoint>
            <Time>2021-08-02T09:20:02.000Z</Time>
            <Position>
              <LatitudeDegrees>41.78028694353997707366943359375</LatitudeDegrees>
              <LongitudeDegrees>-1.78673434071242809295654296875</LongitudeDegrees>
            </Position>
            <AltitudeMeters>1336.800048828125</AltitudeMeters>
            <DistanceMeters>440094.65222898</DistanceMeters>
          </Trackpoint>
          <Trackpoint>
            <Time>2021-08-02T09:20:06.000Z</Time>
            <Position>
              <LatitudeDegrees>41.7802655696868896484375</LatitudeDegrees>
              <LongitudeDegrees>-1.78667264990508556365966796875</LongitudeDegrees>
            </Position>
            <AltitudeMeters>1337.800048828125</AltitudeMeters>
            <DistanceMeters>440100.29812747</DistanceMeters>
          </Trackpoint>
          <Trackpoint>
            <Time>2021-08-02T09:20:14.000Z</Time>
            <Position>
              <LatitudeDegrees>41.78020899184048175811767578125</LatitudeDegrees>
              <LongitudeDegrees>-1.786557398736476898193359375</LongitudeDegrees>
            </Position>
            <AltitudeMeters>1338.800048828125</AltitudeMeters>
            <DistanceMeters>440111.75032509</DistanceMeters>
          </Trackpoint>
          <Trackpoint>
            <Time>2021-08-02T09:20:15.000Z</Time>
            <Position>
              <LatitudeDegrees>41.78019893355667591094970703125</LatitudeDegrees>
              <LongitudeDegrees>-1.78654306568205356597900390625</LongitudeDegrees>
            </Position>
            <AltitudeMeters>1338.800048828125</AltitudeMeters>
            <DistanceMeters>440113.3852265</DistanceMeters>
          </Trackpoint>
          <Trackpoint>
            <Time>2021-08-02T09:20:21.000Z</Time>
            <Position>
              <LatitudeDegrees>41.780151911079883575439453125</LatitudeDegrees>
              <LongitudeDegrees>-1.7864435724914073944091796875</LongitudeDegrees>
            </Position>
            <AltitudeMeters>1339.4000244140625</AltitudeMeters>
            <DistanceMeters>440123.16236255</DistanceMeters>
          </Trackpoint>
          <Trackpoint>
            <Time>2021-08-02T09:20:24.000Z</Time>
            <Position>
              <LatitudeDegrees>41.7801296152174472808837890625</LatitudeDegrees>
              <LongitudeDegrees>-1.786384396255016326904296875</LongitudeDegrees>
            </Position>
            <AltitudeMeters>1339.800048828125</AltitudeMeters>
            <DistanceMeters>440128.66571393</DistanceMeters>
          </Trackpoint>
          <Trackpoint>
            <Time>2021-08-02T09:20:32.000Z</Time>
            <Position>
              <LatitudeDegrees>41.78006515838205814361572265625</LatitudeDegrees>
              <LongitudeDegrees>-1.7862452566623687744140625</LongitudeDegrees>
            </Position>
            <AltitudeMeters>1341</AltitudeMeters>
            <DistanceMeters>440142.26084558</DistanceMeters>
          </Trackpoint>
          <Trackpoint>
            <Time>2021-08-02T09:20:41.000Z</Time>
            <Position>
              <LatitudeDegrees>41.78001453168690204620361328125</LatitudeDegrees>
              <LongitudeDegrees>-1.78608306683599948883056640625</LongitudeDegrees>
            </Position>
            <AltitudeMeters>1342</AltitudeMeters>
            <DistanceMeters>440156.85417703</DistanceMeters>
          </Trackpoint>
          <Trackpoint>
            <Time>2021-08-02T09:20:47.000Z</Time>
            <Position>
              <LatitudeDegrees>41.77999190054833889007568359375</LatitudeDegrees>
              <LongitudeDegrees>-1.7860191129148006439208984375</LongitudeDegrees>
            </Position>
            <AltitudeMeters>1342.5999755859375</AltitudeMeters>
            <DistanceMeters>440162.72971805</DistanceMeters>
          </Trackpoint>
          <Trackpoint>
            <Time>2021-08-02T09:22:06.000Z</Time>
            <Position>
              <LatitudeDegrees>41.77977405488491058349609375</LatitudeDegrees>
              <LongitudeDegrees>-1.7856778018176555633544921875</LongitudeDegrees>
            </Position>
            <AltitudeMeters>1347.199951171875</AltitudeMeters>
            <DistanceMeters>440200.01798766</DistanceMeters>
          </Trackpoint>
          <Trackpoint>
            <Time>2021-08-02T09:22:14.000Z</Time>
            <Position>
              <LatitudeDegrees>41.77970389835536479949951171875</LatitudeDegrees>
              <LongitudeDegrees>-1.7855597846210002899169921875</LongitudeDegrees>
            </Position>
            <AltitudeMeters>1348.4000244140625</AltitudeMeters>
            <DistanceMeters>440212.54494533</DistanceMeters>
          </Trackpoint>
          <Trackpoint>
            <Time>2021-08-02T09:22:27.000Z</Time>
            <Position>
              <LatitudeDegrees>41.77958738990128040313720703125</LatitudeDegrees>
              <LongitudeDegrees>-1.785398013889789581298828125</LongitudeDegrees>
            </Position>
            <AltitudeMeters>1349.5999755859375</AltitudeMeters>
            <DistanceMeters>440231.21183017</DistanceMeters>
          </Trackpoint>
          <Trackpoint>
            <Time>2021-08-02T09:22:34.000Z</Time>
            <Position>
              <LatitudeDegrees>41.77952192723751068115234375</LatitudeDegrees>
              <LongitudeDegrees>-1.78530514240264892578125</LongitudeDegrees>
            </Position>
            <AltitudeMeters>1350.5999755859375</AltitudeMeters>
            <DistanceMeters>440241.81870165</DistanceMeters>
          </Trackpoint>
          <Trackpoint>
            <Time>2021-08-02T09:22:45.000Z</Time>
            <Position>
              <LatitudeDegrees>41.77942578680813312530517578125</LatitudeDegrees>
              <LongitudeDegrees>-1.78519492037594318389892578125</LongitudeDegrees>
            </Position>
            <AltitudeMeters>1351.5999755859375</AltitudeMeters>
            <DistanceMeters>440255.89677388</DistanceMeters>
          </Trackpoint>
          <Trackpoint>
            <Time>2021-08-02T09:22:46.000Z</Time>
            <Position>
              <LatitudeDegrees>41.77942335605621337890625</LatitudeDegrees>
              <LongitudeDegrees>-1.7851846106350421905517578125</LongitudeDegrees>
            </Position>
            <AltitudeMeters>1352</AltitudeMeters>
            <DistanceMeters>440256.79325411</DistanceMeters>
          </Trackpoint>
          <Trackpoint>
            <Time>2021-08-02T09:22:53.000Z</Time>
            <Position>
              <LatitudeDegrees>41.77935437299311161041259765625</LatitudeDegrees>
              <LongitudeDegrees>-1.78510506637394428253173828125</LongitudeDegrees>
            </Position>
            <AltitudeMeters>1353</AltitudeMeters>
            <DistanceMeters>440266.91883992</DistanceMeters>
          </Trackpoint>
          <Trackpoint>
            <Time>2021-08-02T09:22:54.000Z</Time>
            <Position>
              <LatitudeDegrees>41.77934917621314525604248046875</LatitudeDegrees>
              <LongitudeDegrees>-1.78508696146309375762939453125</LongitudeDegrees>
            </Position>
            <AltitudeMeters>1353</AltitudeMeters>
            <DistanceMeters>440268.52588748</DistanceMeters>
          </Trackpoint>
          <Trackpoint>
            <Time>2021-08-02T09:23:05.000Z</Time>
            <Position>
              <LatitudeDegrees>41.7792545445263385772705078125</LatitudeDegrees>
              <LongitudeDegrees>-1.784952767193317413330078125</LongitudeDegrees>
            </Position>
            <AltitudeMeters>1354</AltitudeMeters>
            <DistanceMeters>440283.8555551</DistanceMeters>
          </Trackpoint>
          <Trackpoint>
            <Time>2021-08-02T09:23:15.000Z</Time>
            <Position>
              <LatitudeDegrees>41.779174245893955230712890625</LatitudeDegrees>
              <LongitudeDegrees>-1.78485997952520847320556640625</LongitudeDegrees>
            </Position>
            <AltitudeMeters>1355</AltitudeMeters>
            <DistanceMeters>440295.65341924</DistanceMeters>
          </Trackpoint>
          <Trackpoint>
            <Time>2021-08-02T09:23:21.000Z</Time>
            <Position>
              <LatitudeDegrees>41.779154129326343536376953125</LatitudeDegrees>
              <LongitudeDegrees>-1.7848151363432407379150390625</LongitudeDegrees>
            </Position>
            <AltitudeMeters>1355.5999755859375</AltitudeMeters>
            <DistanceMeters>440299.99667029</DistanceMeters>
          </Trackpoint>
          <Trackpoint>
            <Time>2021-08-02T09:29:41.000Z</Time>
            <Position>
              <LatitudeDegrees>41.776676438748836517333984375</LatitudeDegrees>
              <LongitudeDegrees>-1.78231623955070972442626953125</LongitudeDegrees>
            </Position>
            <AltitudeMeters>1393.199951171875</AltitudeMeters>
            <DistanceMeters>440645.06186998</DistanceMeters>
          </Trackpoint>
          <Trackpoint>
            <Time>2021-08-02T09:30:09.000Z</Time>
            <Position>
              <LatitudeDegrees>41.77643797360360622406005859375</LatitudeDegrees>
              <LongitudeDegrees>-1.78284966386854648590087890625</LongitudeDegrees>
            </Position>
            <AltitudeMeters>1394.199951171875</AltitudeMeters>
            <DistanceMeters>440696.68368396</DistanceMeters>
          </Trackpoint>
          <Trackpoint>
            <Time>2021-08-02T09:30:15.000Z</Time>
            <Position>
              <LatitudeDegrees>41.776433028280735015869140625</LatitudeDegrees>
              <LongitudeDegrees>-1.7828839458525180816650390625</LongitudeDegrees>
            </Position>
            <AltitudeMeters>1394.5999755859375</AltitudeMeters>
            <DistanceMeters>440699.58316687</DistanceMeters>
          </Trackpoint>
          <Trackpoint>
            <Time>2021-08-02T09:31:15.000Z</Time>
            <Position>
              <LatitudeDegrees>41.77639086730778217315673828125</LatitudeDegrees>
              <LongitudeDegrees>-1.78305133245885372161865234375</LongitudeDegrees>
            </Position>
            <AltitudeMeters>1395</AltitudeMeters>
            <DistanceMeters>440714.24810126</DistanceMeters>
          </Trackpoint>
          <Trackpoint>
            <Time>2021-08-02T09:31:17.000Z</Time>
            <Position>
              <LatitudeDegrees>41.7763818986713886260986328125</LatitudeDegrees>
              <LongitudeDegrees>-1.78308569826185703277587890625</LongitudeDegrees>
            </Position>
            <AltitudeMeters>1395</AltitudeMeters>
            <DistanceMeters>440717.2710861</DistanceMeters>
          </Trackpoint>
          <Trackpoint>
            <Time>2021-08-02T09:31:19.000Z</Time>
            <Position>
              <LatitudeDegrees>41.77637343294918537139892578125</LatitudeDegrees>
              <LongitudeDegrees>-1.78311855532228946685791015625</LongitudeDegrees>
            </Position>
            <AltitudeMeters>1395.199951171875</AltitudeMeters>
            <DistanceMeters>440720.15808464</DistanceMeters>
          </Trackpoint>
          <Trackpoint>
            <Time>2021-08-02T09:31:31.000Z</Time>
            <Position>
              <LatitudeDegrees>41.77633219398558139801025390625</LatitudeDegrees>
              <LongitudeDegrees>-1.78328636102378368377685546875</LongitudeDegrees>
            </Position>
            <AltitudeMeters>1396.4000244140625</AltitudeMeters>
            <DistanceMeters>440734.82332691</DistanceMeters>
          </Trackpoint>
          <Trackpoint>
            <Time>2021-08-02T09:31:41.000Z</Time>
            <Position>
              <LatitudeDegrees>41.77630805410444736480712890625</LatitudeDegrees>
              <LongitudeDegrees>-1.78341913037002086639404296875</LongitudeDegrees>
            </Position>
            <AltitudeMeters>1397.4000244140625</AltitudeMeters>
            <DistanceMeters>440746.16698546</DistanceMeters>
          </Trackpoint>
          <Trackpoint>
            <Time>2021-08-02T09:31:44.000Z</Time>
            <Position>
              <LatitudeDegrees>41.7762943916022777557373046875</LatitudeDegrees>
              <LongitudeDegrees>-1.7834378220140933990478515625</LongitudeDegrees>
            </Position>
            <AltitudeMeters>1397.4000244140625</AltitudeMeters>
            <DistanceMeters>440748.34016975</DistanceMeters>
          </Trackpoint>
          <Trackpoint>
            <Time>2021-08-02T09:33:42.000Z</Time>
            <Position>
              <LatitudeDegrees>41.77580597810447216033935546875</LatitudeDegrees>
              <LongitudeDegrees>-1.784114576876163482666015625</LongitudeDegrees>
            </Position>
            <AltitudeMeters>1400.199951171875</AltitudeMeters>
            <DistanceMeters>440826.51060284</DistanceMeters>
          </Trackpoint>
          <Trackpoint>
            <Time>2021-08-02T09:33:48.000Z</Time>
            <Position>
              <LatitudeDegrees>41.7757500708103179931640625</LatitudeDegrees>
              <LongitudeDegrees>-1.784212477505207061767578125</LongitudeDegrees>
            </Position>
            <AltitudeMeters>1400.800048828125</AltitudeMeters>
            <DistanceMeters>440836.74573434</DistanceMeters>
          </Trackpoint>
          <Trackpoint>
            <Time>2021-08-02T09:33:54.000Z</Time>
            <Position>
              <LatitudeDegrees>41.7756949178874492645263671875</LatitudeDegrees>
              <LongitudeDegrees>-1.78430979140102863311767578125</LongitudeDegrees>
            </Position>
            <AltitudeMeters>1401.4000244140625</AltitudeMeters>
            <DistanceMeters>440846.89136598</DistanceMeters>
          </Trackpoint>
          <Trackpoint>
            <Time>2021-08-02T09:33:58.000Z</Time>
            <Position>
              <LatitudeDegrees>41.77566097117960453033447265625</LatitudeDegrees>
              <LongitudeDegrees>-1.784376762807369232177734375</LongitudeDegrees>
            </Position>
            <AltitudeMeters>1401.4000244140625</AltitudeMeters>
            <DistanceMeters>440853.61211314</DistanceMeters>
          </Trackpoint>
          <Trackpoint>
            <Time>2021-08-02T09:34:00.000Z</Time>
            <Position>
              <LatitudeDegrees>41.7756483145058155059814453125</LatitudeDegrees>
              <LongitudeDegrees>-1.78439713083207607269287109375</LongitudeDegrees>
            </Position>
            <AltitudeMeters>1401.4000244140625</AltitudeMeters>
            <DistanceMeters>440855.81214064</DistanceMeters>
          </Trackpoint>
          <Trackpoint>
            <Time>2021-08-02T09:34:04.000Z</Time>
            <Position>
              <LatitudeDegrees>41.77562467753887176513671875</LatitudeDegrees>
              <LongitudeDegrees>-1.7844594083726406097412109375</LongitudeDegrees>
            </Position>
            <AltitudeMeters>1402</AltitudeMeters>
            <DistanceMeters>440861.61266344</DistanceMeters>
          </Trackpoint>
          <Trackpoint>
            <Time>2021-08-02T09:34:10.000Z</Time>
            <Position>
              <LatitudeDegrees>41.77557715214788913726806640625</LatitudeDegrees>
              <LongitudeDegrees>-1.78453995846211910247802734375</LongitudeDegrees>
            </Position>
            <AltitudeMeters>1402.5999755859375</AltitudeMeters>
            <DistanceMeters>440870.13757137</DistanceMeters>
          </Trackpoint>
          <Trackpoint>
            <Time>2021-08-02T09:34:16.000Z</Time>
            <Position>
              <LatitudeDegrees>41.77552409470081329345703125</LatitudeDegrees>
              <LongitudeDegrees>-1.78462319076061248779296875</LongitudeDegrees>
            </Position>
            <AltitudeMeters>1403.5999755859375</AltitudeMeters>
            <DistanceMeters>440879.22592157</DistanceMeters>
          </Trackpoint>
          <Trackpoint>
            <Time>2021-08-02T09:34:18.000Z</Time>
            <Position>
              <LatitudeDegrees>41.7755152098834514617919921875</LatitudeDegrees>
              <LongitudeDegrees>-1.784629561007022857666015625</LongitudeDegrees>
            </Position>
            <AltitudeMeters>1403.5999755859375</AltitudeMeters>
            <DistanceMeters>440880.3422327</DistanceMeters>
          </Trackpoint>
          <Trackpoint>
            <Time>2021-08-02T09:49:02.000Z</Time>
            <Position>
              <LatitudeDegrees>41.76874372176826000213623046875</LatitudeDegrees>
              <LongitudeDegrees>-1.787571273744106292724609375</LongitudeDegrees>
            </Position>
            <AltitudeMeters>1476.199951171875</AltitudeMeters>
            <DistanceMeters>441672.59332088</DistanceMeters>
          </Trackpoint>
          <Trackpoint>
            <Time>2021-08-02T09:49:24.000Z</Time>
            <Position>
              <LatitudeDegrees>41.76842688582837581634521484375</LatitudeDegrees>
              <LongitudeDegrees>-1.78776749409735202789306640625</LongitudeDegrees>
            </Position>
            <AltitudeMeters>1477</AltitudeMeters>
            <DistanceMeters>441711.43821467</DistanceMeters>
          </Trackpoint>
          <Trackpoint>
            <Time>2021-08-02T09:49:26.000Z</Time>
            <Position>
              <LatitudeDegrees>41.7684046737849712371826171875</LatitudeDegrees>
              <LongitudeDegrees>-1.7877756245434284210205078125</LongitudeDegrees>
            </Position>
            <AltitudeMeters>1477.199951171875</AltitudeMeters>
            <DistanceMeters>441714.0021756</DistanceMeters>
          </Trackpoint>
          <Trackpoint>
            <Time>2021-08-02T09:49:42.000Z</Time>
            <Position>
              <LatitudeDegrees>41.76824315451085567474365234375</LatitudeDegrees>
              <LongitudeDegrees>-1.78795516490936279296875</LongitudeDegrees>
            </Position>
            <AltitudeMeters>1478.4000244140625</AltitudeMeters>
            <DistanceMeters>441737.35439854</DistanceMeters>
          </Trackpoint>
          <Trackpoint>
            <Time>2021-08-02T09:49:50.000Z</Time>
            <Position>
              <LatitudeDegrees>41.76813662052154541015625</LatitudeDegrees>
              <LongitudeDegrees>-1.78800453431904315948486328125</LongitudeDegrees>
            </Position>
            <AltitudeMeters>1479.5999755859375</AltitudeMeters>
            <DistanceMeters>441749.90008435</DistanceMeters>
          </Trackpoint>
          <Trackpoint>
            <Time>2021-08-02T09:49:56.000Z</Time>
            <Position>
              <LatitudeDegrees>41.7680789530277252197265625</LatitudeDegrees>
              <LongitudeDegrees>-1.7879606969654560089111328125</LongitudeDegrees>
            </Position>
            <AltitudeMeters>1479.5999755859375</AltitudeMeters>
            <DistanceMeters>441757.27797706</DistanceMeters>
          </Trackpoint>
          <Trackpoint>
            <Time>2021-08-02T09:50:11.000Z</Time>
            <Position>
              <LatitudeDegrees>41.76805690862238407135009765625</LatitudeDegrees>
              <LongitudeDegrees>-1.78764629177749156951904296875</LongitudeDegrees>
            </Position>
            <AltitudeMeters>1480.5999755859375</AltitudeMeters>
            <DistanceMeters>441783.49329697</DistanceMeters>
          </Trackpoint>
          <Trackpoint>
            <Time>2021-08-02T09:50:21.000Z</Time>
            <Position>
              <LatitudeDegrees>41.7679976485669612884521484375</LatitudeDegrees>
              <LongitudeDegrees>-1.7874658294022083282470703125</LongitudeDegrees>
            </Position>
            <AltitudeMeters>1481.5999755859375</AltitudeMeters>
            <DistanceMeters>441799.86163128</DistanceMeters>
          </Trackpoint>
          <Trackpoint>
            <Time>2021-08-02T09:50:31.000Z</Time>
            <Position>
              <LatitudeDegrees>41.76791206933557987213134765625</LatitudeDegrees>
              <LongitudeDegrees>-1.78737647831439971923828125</LongitudeDegrees>
            </Position>
            <AltitudeMeters>1482.5999755859375</AltitudeMeters>
            <DistanceMeters>441811.93413863</DistanceMeters>
          </Trackpoint>
          <Trackpoint>
            <Time>2021-08-02T09:50:32.000Z</Time>
            <Position>
              <LatitudeDegrees>41.7679104767739772796630859375</LatitudeDegrees>
              <LongitudeDegrees>-1.78737421520054340362548828125</LongitudeDegrees>
            </Position>
            <AltitudeMeters>1482.800048828125</AltitudeMeters>
            <DistanceMeters>441812.20291477</DistanceMeters>
          </Trackpoint>
          <Trackpoint>
            <Time>2021-08-02T09:53:22.000Z</Time>
            <Position>
              <LatitudeDegrees>41.7673341371119022369384765625</LatitudeDegrees>
              <LongitudeDegrees>-1.7857643030583858489990234375</LongitudeDegrees>
            </Position>
            <AltitudeMeters>1492.199951171875</AltitudeMeters>
            <DistanceMeters>441960.44720849</DistanceMeters>
          </Trackpoint>
          <Trackpoint>
            <Time>2021-08-02T09:53:26.000Z</Time>
            <Position>
              <LatitudeDegrees>41.76732952706515789031982421875</LatitudeDegrees>
              <LongitudeDegrees>-1.7856835015118122100830078125</LongitudeDegrees>
            </Position>
            <AltitudeMeters>1492.4000244140625</AltitudeMeters>
            <DistanceMeters>441967.17467036</DistanceMeters>
          </Trackpoint>
          <Trackpoint>
            <Time>2021-08-02T09:53:35.000Z</Time>
            <Position>
              <LatitudeDegrees>41.7673110030591487884521484375</LatitudeDegrees>
              <LongitudeDegrees>-1.7855024524033069610595703125</LongitudeDegrees>
            </Position>
            <AltitudeMeters>1493</AltitudeMeters>
            <DistanceMeters>441982.34505362</DistanceMeters>
          </Trackpoint>
          <Trackpoint>
            <Time>2021-08-02T09:53:45.000Z</Time>
            <Position>
              <LatitudeDegrees>41.7672600410878658294677734375</LatitudeDegrees>
              <LongitudeDegrees>-1.78531520068645477294921875</LongitudeDegrees>
            </Position>
            <AltitudeMeters>1494.199951171875</AltitudeMeters>
            <DistanceMeters>441998.89225815</DistanceMeters>
          </Trackpoint>
          <Trackpoint>
            <Time>2021-08-02T09:53:58.000Z</Time>
            <Position>
              <LatitudeDegrees>41.7672260105609893798828125</LatitudeDegrees>
              <LongitudeDegrees>-1.78508260287344455718994140625</LongitudeDegrees>
            </Position>
            <AltitudeMeters>1495.199951171875</AltitudeMeters>
            <DistanceMeters>442018.56944336</DistanceMeters>
          </Trackpoint>
          <Trackpoint>
            <Time>2021-08-02T09:54:05.000Z</Time>
            <Position>
              <LatitudeDegrees>41.7672087438404560089111328125</LatitudeDegrees>
              <LongitudeDegrees>-1.784986294806003570556640625</LongitudeDegrees>
            </Position>
            <AltitudeMeters>1496.199951171875</AltitudeMeters>
            <DistanceMeters>442026.79186286</DistanceMeters>
          </Trackpoint>
          <Trackpoint>
            <Time>2021-08-02T09:54:13.000Z</Time>
            <Position>
              <LatitudeDegrees>41.76718703471124172210693359375</LatitudeDegrees>
              <LongitudeDegrees>-1.78481220267713069915771484375</LongitudeDegrees>
            </Position>
            <AltitudeMeters>1497.199951171875</AltitudeMeters>
            <DistanceMeters>442041.44509314</DistanceMeters>
          </Trackpoint>
          <Trackpoint>
            <Time>2021-08-02T09:54:21.000Z</Time>
            <Position>
              <LatitudeDegrees>41.76716524176299571990966796875</LatitudeDegrees>
              <LongitudeDegrees>-1.7846575565636157989501953125</LongitudeDegrees>
            </Position>
            <AltitudeMeters>1498.4000244140625</AltitudeMeters>
            <DistanceMeters>442054.51014327</DistanceMeters>
          </Trackpoint>
          <Trackpoint>
            <Time>2021-08-02T09:54:28.000Z</Time>
            <Position>
              <LatitudeDegrees>41.76714931614696979522705078125</LatitudeDegrees>
              <LongitudeDegrees>-1.78451263345777988433837890625</LongitudeDegrees>
            </Position>
            <AltitudeMeters>1499.4000244140625</AltitudeMeters>
            <DistanceMeters>442066.67059276</DistanceMeters>
          </Trackpoint>
          <Trackpoint>
            <Time>2021-08-02T09:54:37.000Z</Time>
            <Position>
              <LatitudeDegrees>41.7671041376888751983642578125</LatitudeDegrees>
              <LongitudeDegrees>-1.78434466011822223663330078125</LongitudeDegrees>
            </Position>
            <AltitudeMeters>1500.4000244140625</AltitudeMeters>
            <DistanceMeters>442081.49384646</DistanceMeters>
          </Trackpoint>
          <Trackpoint>
            <Time>2021-08-02T09:54:44.000Z</Time>
            <Position>
              <LatitudeDegrees>41.7670893855392932891845703125</LatitudeDegrees>
              <LongitudeDegrees>-1.7842082865536212921142578125</LongitudeDegrees>
            </Position>
            <AltitudeMeters>1501.5999755859375</AltitudeMeters>
            <DistanceMeters>442092.93342109</DistanceMeters>
          </Trackpoint>
          <Trackpoint>
            <Time>2021-08-02T09:54:58.000Z</Time>
            <Position>
              <LatitudeDegrees>41.76705694757401943206787109375</LatitudeDegrees>
              <LongitudeDegrees>-1.7839165963232517242431640625</LongitudeDegrees>
            </Position>
            <AltitudeMeters>1502.5999755859375</AltitudeMeters>
            <DistanceMeters>442117.41603562</DistanceMeters>
          </Trackpoint>
          <Trackpoint>
            <Time>2021-08-02T09:55:07.000Z</Time>
            <Position>
              <LatitudeDegrees>41.767027191817760467529296875</LatitudeDegrees>
              <LongitudeDegrees>-1.7837405763566493988037109375</LongitudeDegrees>
            </Position>
            <AltitudeMeters>1503.800048828125</AltitudeMeters>
            <DistanceMeters>442132.39955192</DistanceMeters>
          </Trackpoint>
          <Trackpoint>
            <Time>2021-08-02T09:55:15.000Z</Time>
            <Position>
              <LatitudeDegrees>41.76701822318136692047119140625</LatitudeDegrees>
              <LongitudeDegrees>-1.7836114950478076934814453125</LongitudeDegrees>
            </Position>
            <AltitudeMeters>1504.800048828125</AltitudeMeters>
            <DistanceMeters>442143.16151087</DistanceMeters>
          </Trackpoint>
          <Trackpoint>
            <Time>2021-08-02T09:55:26.000Z</Time>
            <Position>
              <LatitudeDegrees>41.76701587624847888946533203125</LatitudeDegrees>
              <LongitudeDegrees>-1.78340773098170757293701171875</LongitudeDegrees>
            </Position>
            <AltitudeMeters>1505.800048828125</AltitudeMeters>
            <DistanceMeters>442160.07893511</DistanceMeters>
          </Trackpoint>
          <Trackpoint>
            <Time>2021-08-02T09:55:33.000Z</Time>
            <Position>
              <LatitudeDegrees>41.76702073775231838226318359375</LatitudeDegrees>
              <LongitudeDegrees>-1.78327982313930988311767578125</LongitudeDegrees>
            </Position>
            <AltitudeMeters>1506.5999755859375</AltitudeMeters>
            <DistanceMeters>442170.71089151</DistanceMeters>
          </Trackpoint>
          <Trackpoint>
            <Time>2021-08-02T09:55:45.000Z</Time>
            <Position>
              <LatitudeDegrees>41.76702995784580707550048828125</LatitudeDegrees>
              <LongitudeDegrees>-1.783076561987400054931640625</LongitudeDegrees>
            </Position>
            <AltitudeMeters>1507.5999755859375</AltitudeMeters>
            <DistanceMeters>442187.61576741</DistanceMeters>
          </Trackpoint>
          <Trackpoint>
            <Time>2021-08-02T09:55:56.000Z</Time>
            <Position>
              <LatitudeDegrees>41.7670266889035701751708984375</LatitudeDegrees>
              <LongitudeDegrees>-1.7828728817403316497802734375</LongitudeDegrees>
            </Position>
            <AltitudeMeters>1508.800048828125</AltitudeMeters>
            <DistanceMeters>442204.528387</DistanceMeters>
          </Trackpoint>
          <Trackpoint>
            <Time>2021-08-02T09:56:05.000Z</Time>
            <Position>
              <LatitudeDegrees>41.7670374177396297454833984375</LatitudeDegrees>
              <LongitudeDegrees>-1.7826938442885875701904296875</LongitudeDegrees>
            </Position>
            <AltitudeMeters>1509.800048828125</AltitudeMeters>
            <DistanceMeters>442219.43940783</DistanceMeters>
          </Trackpoint>
          <Trackpoint>
            <Time>2021-08-02T09:56:16.000Z</Time>
            <Position>
              <LatitudeDegrees>41.76702023483812808990478515625</LatitudeDegrees>
              <LongitudeDegrees>-1.78247683681547641754150390625</LongitudeDegrees>
            </Position>
            <AltitudeMeters>1510.800048828125</AltitudeMeters>
            <DistanceMeters>442237.55564718</DistanceMeters>
          </Trackpoint>
          <Trackpoint>
            <Time>2021-08-02T09:56:23.000Z</Time>
            <Position>
              <LatitudeDegrees>41.76700682379305362701416015625</LatitudeDegrees>
              <LongitudeDegrees>-1.7823726497590541839599609375</LongitudeDegrees>
            </Position>
            <AltitudeMeters>1512</AltitudeMeters>
            <DistanceMeters>442246.33315322</DistanceMeters>
          </Trackpoint>
          <Trackpoint>
            <Time>2021-08-02T09:56:38.000Z</Time>
            <Position>
              <LatitudeDegrees>41.7670156247913837432861328125</LatitudeDegrees>
              <LongitudeDegrees>-1.78210057318210601806640625</LongitudeDegrees>
            </Position>
            <AltitudeMeters>1513</AltitudeMeters>
            <DistanceMeters>442268.94112498</DistanceMeters>
          </Trackpoint>
          <Trackpoint>
            <Time>2021-08-02T09:56:40.000Z</Time>
            <Position>
              <LatitudeDegrees>41.76701386459171772003173828125</LatitudeDegrees>
              <LongitudeDegrees>-1.7820645309984683990478515625</LongitudeDegrees>
            </Position>
            <AltitudeMeters>1513.199951171875</AltitudeMeters>
            <DistanceMeters>442271.9401175</DistanceMeters>
          </Trackpoint>
          <Trackpoint>
            <Time>2021-08-02T09:56:46.000Z</Time>
            <Position>
              <LatitudeDegrees>41.76701386459171772003173828125</LatitudeDegrees>
              <LongitudeDegrees>-1.78196118213236331939697265625</LongitudeDegrees>
            </Position>
            <AltitudeMeters>1513.800048828125</AltitudeMeters>
            <DistanceMeters>442280.51993003</DistanceMeters>
          </Trackpoint>
          <Trackpoint>
            <Time>2021-08-02T09:56:50.000Z</Time>
            <Position>
              <LatitudeDegrees>41.7670193128287792205810546875</LatitudeDegrees>
              <LongitudeDegrees>-1.7818864993751049041748046875</LongitudeDegrees>
            </Position>
            <AltitudeMeters>1514.199951171875</AltitudeMeters>
            <DistanceMeters>442286.7497991</DistanceMeters>
          </Trackpoint>
          <Trackpoint>
            <Time>2021-08-02T09:56:57.000Z</Time>
            <Position>
              <LatitudeDegrees>41.76701101474463939666748046875</LatitudeDegrees>
              <LongitudeDegrees>-1.78176152519881725311279296875</LongitudeDegrees>
            </Position>
            <AltitudeMeters>1515.199951171875</AltitudeMeters>
            <DistanceMeters>442297.16552463</DistanceMeters>
          </Trackpoint>
          <Trackpoint>
            <Time>2021-08-02T09:57:09.000Z</Time>
            <Position>
              <LatitudeDegrees>41.76701235584914684295654296875</LatitudeDegrees>
              <LongitudeDegrees>-1.78153655491769313812255859375</LongitudeDegrees>
            </Position>
            <AltitudeMeters>1516</AltitudeMeters>
            <DistanceMeters>442315.84208194</DistanceMeters>
          </Trackpoint>
          <Trackpoint>
            <Time>2021-08-02T09:57:10.000Z</Time>
            <Position>
              <LatitudeDegrees>41.76700933836400508880615234375</LatitudeDegrees>
              <LongitudeDegrees>-1.78151677362620830535888671875</LongitudeDegrees>
            </Position>
            <AltitudeMeters>1516.199951171875</AltitudeMeters>
            <DistanceMeters>442317.52058837</DistanceMeters>
          </Trackpoint>
          <Trackpoint>
            <Time>2021-08-02T09:57:27.000Z</Time>
            <Position>
              <LatitudeDegrees>41.76696055568754673004150390625</LatitudeDegrees>
              <LongitudeDegrees>-1.7811512388288974761962890625</LongitudeDegrees>
            </Position>
            <AltitudeMeters>1517.199951171875</AltitudeMeters>
            <DistanceMeters>442348.34764118</DistanceMeters>
          </Trackpoint>
          <Trackpoint>
            <Time>2021-08-02T09:57:38.000Z</Time>
            <Position>
              <LatitudeDegrees>41.7669009603559970855712890625</LatitudeDegrees>
              <LongitudeDegrees>-1.7809452116489410400390625</LongitudeDegrees>
            </Position>
            <AltitudeMeters>1517.800048828125</AltitudeMeters>
            <DistanceMeters>442366.69247394</DistanceMeters>
          </Trackpoint>
          <Trackpoint>
            <Time>2021-08-02T09:57:42.000Z</Time>
            <Position>
              <LatitudeDegrees>41.76688310690224170684814453125</LatitudeDegrees>
              <LongitudeDegrees>-1.780874468386173248291015625</LongitudeDegrees>
            </Position>
            <AltitudeMeters>1518.199951171875</AltitudeMeters>
            <DistanceMeters>442372.89255744</DistanceMeters>
          </Trackpoint>
          <Trackpoint>
            <Time>2021-08-02T09:57:45.000Z</Time>
            <Position>
              <LatitudeDegrees>41.7668684385716915130615234375</LatitudeDegrees>
              <LongitudeDegrees>-1.78082627244293689727783203125</LongitudeDegrees>
            </Position>
            <AltitudeMeters>1518.800048828125</AltitudeMeters>
            <DistanceMeters>442377.21392274</DistanceMeters>
          </Trackpoint>
          <Trackpoint>
            <Time>2021-08-02T09:57:47.000Z</Time>
            <Position>
              <LatitudeDegrees>41.7668563686311244964599609375</LatitudeDegrees>
              <LongitudeDegrees>-1.78079341538250446319580078125</LongitudeDegrees>
            </Position>
            <AltitudeMeters>1519.199951171875</AltitudeMeters>
            <DistanceMeters>442380.25329245</DistanceMeters>
          </Trackpoint>
          <Trackpoint>
            <Time>2021-08-02T09:57:59.000Z</Time>
            <Position>
              <LatitudeDegrees>41.766756959259510040283203125</LatitudeDegrees>
              <LongitudeDegrees>-1.78062896244227886199951171875</LongitudeDegrees>
            </Position>
            <AltitudeMeters>1520.199951171875</AltitudeMeters>
            <DistanceMeters>442397.82578499</DistanceMeters>
          </Trackpoint>
          <Trackpoint>
            <Time>2021-08-02T09:58:02.000Z</Time>
            <Position>
              <LatitudeDegrees>41.766730807721614837646484375</LatitudeDegrees>
              <LongitudeDegrees>-1.780597530305385589599609375</LongitudeDegrees>
            </Position>
            <AltitudeMeters>1520.4000244140625</AltitudeMeters>
            <DistanceMeters>442401.73460698</DistanceMeters>
          </Trackpoint>
          <Trackpoint>
            <Time>2021-08-02T09:58:05.000Z</Time>
            <Position>
              <LatitudeDegrees>41.76670767366886138916015625</LatitudeDegrees>
              <LongitudeDegrees>-1.78056106902658939361572265625</LongitudeDegrees>
            </Position>
            <AltitudeMeters>1521</AltitudeMeters>
            <DistanceMeters>442405.7087237</DistanceMeters>
          </Trackpoint>
          <Trackpoint>
            <Time>2021-08-02T09:58:10.000Z</Time>
            <Position>
              <LatitudeDegrees>41.76666953600943088531494140625</LatitudeDegrees>
              <LongitudeDegrees>-1.7804930917918682098388671875</LongitudeDegrees>
            </Position>
            <AltitudeMeters>1521.4000244140625</AltitudeMeters>
            <DistanceMeters>442412.7695347</DistanceMeters>
          </Trackpoint>
          <Trackpoint>
            <Time>2021-08-02T09:58:18.000Z</Time>
            <Position>
              <LatitudeDegrees>41.766611449420452117919921875</LatitudeDegrees>
              <LongitudeDegrees>-1.7803390324115753173828125</LongitudeDegrees>
            </Position>
            <AltitudeMeters>1522.4000244140625</AltitudeMeters>
            <DistanceMeters>442427.09999173</DistanceMeters>
          </Trackpoint>
          <Trackpoint>
            <Time>2021-08-02T09:58:31.000Z</Time>
            <Position>
              <LatitudeDegrees>41.7665190808475017547607421875</LatitudeDegrees>
              <LongitudeDegrees>-1.78006016649305820465087890625</LongitudeDegrees>
            </Position>
            <AltitudeMeters>1523.4000244140625</AltitudeMeters>
            <DistanceMeters>442452.43044932</DistanceMeters>
          </Trackpoint>
          <Trackpoint>
            <Time>2021-08-02T09:58:36.000Z</Time>
            <Position>
              <LatitudeDegrees>41.76648773252964019775390625</LatitudeDegrees>
              <LongitudeDegrees>-1.7799579910933971405029296875</LongitudeDegrees>
            </Position>
            <AltitudeMeters>1524</AltitudeMeters>
            <DistanceMeters>442461.60237344</DistanceMeters>
          </Trackpoint>
          <Trackpoint>
            <Time>2021-08-02T09:58:43.000Z</Time>
            <Position>
              <LatitudeDegrees>41.7664852179586887359619140625</LatitudeDegrees>
              <LongitudeDegrees>-1.77986369468271732330322265625</LongitudeDegrees>
            </Position>
            <AltitudeMeters>1524.800048828125</AltitudeMeters>
            <DistanceMeters>442469.4355956</DistanceMeters>
          </Trackpoint>
          <Trackpoint>
            <Time>2021-08-02T09:58:53.000Z</Time>
            <Position>
              <LatitudeDegrees>41.76642796956002712249755859375</LatitudeDegrees>
              <LongitudeDegrees>-1.779696978628635406494140625</LongitudeDegrees>
            </Position>
            <AltitudeMeters>1525.800048828125</AltitudeMeters>
            <DistanceMeters>442484.67190766</DistanceMeters>
          </Trackpoint>
          <Trackpoint>
            <Time>2021-08-02T09:58:56.000Z</Time>
            <Position>
              <LatitudeDegrees>41.76642143167555332183837890625</LatitudeDegrees>
              <LongitudeDegrees>-1.7796756885945796966552734375</LongitudeDegrees>
            </Position>
            <AltitudeMeters>1526</AltitudeMeters>
            <DistanceMeters>442486.5842834</DistanceMeters>
          </Trackpoint>
          <Trackpoint>
            <Time>2021-08-02T09:59:10.000Z</Time>
            <Position>
              <LatitudeDegrees>41.76635739393532276153564453125</LatitudeDegrees>
              <LongitudeDegrees>-1.77948868833482265472412109375</LongitudeDegrees>
            </Position>
            <AltitudeMeters>1526.800048828125</AltitudeMeters>
            <DistanceMeters>442503.66637608</DistanceMeters>
          </Trackpoint>
          <Trackpoint>
            <Time>2021-08-02T09:59:26.000Z</Time>
            <Position>
              <LatitudeDegrees>41.7663299851119518280029296875</LatitudeDegrees>
              <LongitudeDegrees>-1.7791372351348400115966796875</LongitudeDegrees>
            </Position>
            <AltitudeMeters>1528</AltitudeMeters>
            <DistanceMeters>442533.00178617</DistanceMeters>
          </Trackpoint>
          <Trackpoint>
            <Time>2021-08-02T09:59:37.000Z</Time>
            <Position>
              <LatitudeDegrees>41.76632403396070003509521484375</LatitudeDegrees>
              <LongitudeDegrees>-1.7788948304951190948486328125</LongitudeDegrees>
            </Position>
            <AltitudeMeters>1529.199951171875</AltitudeMeters>
            <DistanceMeters>442553.13601627</DistanceMeters>
          </Trackpoint>
          <Trackpoint>
            <Time>2021-08-02T09:59:53.000Z</Time>
            <Position>
              <LatitudeDegrees>41.76635496318340301513671875</LatitudeDegrees>
              <LongitudeDegrees>-1.7785273678600788116455078125</LongitudeDegrees>
            </Position>
            <AltitudeMeters>1530.199951171875</AltitudeMeters>
            <DistanceMeters>442583.83508723</DistanceMeters>
          </Trackpoint>
          <Trackpoint>
            <Time>2021-08-02T10:00:00.000Z</Time>
            <Position>
              <LatitudeDegrees>41.7663537897169589996337890625</LatitudeDegrees>
              <LongitudeDegrees>-1.77837154828011989593505859375</LongitudeDegrees>
            </Position>
            <AltitudeMeters>1530.800048828125</AltitudeMeters>
            <DistanceMeters>442596.77129134</DistanceMeters>
          </Trackpoint>
          <Trackpoint>
            <Time>2021-08-02T10:00:03.000Z</Time>
            <Position>
              <LatitudeDegrees>41.76635219715535640716552734375</LatitudeDegrees>
              <LongitudeDegrees>-1.77830784581601619720458984375</LongitudeDegrees>
            </Position>
            <AltitudeMeters>1531.199951171875</AltitudeMeters>
            <DistanceMeters>442602.06215488</DistanceMeters>
          </Trackpoint>
          <Trackpoint>
            <Time>2021-08-02T10:00:14.000Z</Time>
            <Position>
              <LatitudeDegrees>41.766368709504604339599609375</LatitudeDegrees>
              <LongitudeDegrees>-1.778073571622371673583984375</LongitudeDegrees>
            </Position>
            <AltitudeMeters>1532</AltitudeMeters>
            <DistanceMeters>442621.59748417</DistanceMeters>
          </Trackpoint>
          <Trackpoint>
            <Time>2021-08-02T10:00:37.000Z</Time>
            <Position>
              <LatitudeDegrees>41.76643718965351581573486328125</LatitudeDegrees>
              <LongitudeDegrees>-1.77755816839635372161865234375</LongitudeDegrees>
            </Position>
            <AltitudeMeters>1533.199951171875</AltitudeMeters>
            <DistanceMeters>442665.05805354</DistanceMeters>
          </Trackpoint>
          <Trackpoint>
            <Time>2021-08-02T10:00:50.000Z</Time>
            <Position>
              <LatitudeDegrees>41.76648773252964019775390625</LatitudeDegrees>
              <LongitudeDegrees>-1.77726228721439838409423828125</LongitudeDegrees>
            </Position>
            <AltitudeMeters>1534.199951171875</AltitudeMeters>
            <DistanceMeters>442690.25716018</DistanceMeters>
          </Trackpoint>
          <Trackpoint>
            <Time>2021-08-02T10:01:04.000Z</Time>
            <Position>
              <LatitudeDegrees>41.76657850854098796844482421875</LatitudeDegrees>
              <LongitudeDegrees>-1.776943020522594451904296875</LongitudeDegrees>
            </Position>
            <AltitudeMeters>1535</AltitudeMeters>
            <DistanceMeters>442718.62195793</DistanceMeters>
          </Trackpoint>
          <Trackpoint>
            <Time>2021-08-02T10:01:33.000Z</Time>
            <Position>
              <LatitudeDegrees>41.76677766256034374237060546875</LatitudeDegrees>
              <LongitudeDegrees>-1.77624690346419811248779296875</LongitudeDegrees>
            </Position>
            <AltitudeMeters>1535.4000244140625</AltitudeMeters>
            <DistanceMeters>442780.51623529</DistanceMeters>
          </Trackpoint>
          <Trackpoint>
            <Time>2021-08-02T10:01:35.000Z</Time>
            <Position>
              <LatitudeDegrees>41.76678956486284732818603515625</LatitudeDegrees>
              <LongitudeDegrees>-1.77619828842580318450927734375</LongitudeDegrees>
            </Position>
            <AltitudeMeters>1535.800048828125</AltitudeMeters>
            <DistanceMeters>442784.76383376</DistanceMeters>
          </Trackpoint>
          <Trackpoint>
            <Time>2021-08-02T10:01:54.000Z</Time>
            <Position>
              <LatitudeDegrees>41.766874305903911590576171875</LatitudeDegrees>
              <LongitudeDegrees>-1.77572705782949924468994140625</LongitudeDegrees>
            </Position>
            <AltitudeMeters>1536.800048828125</AltitudeMeters>
            <DistanceMeters>442825.00447774</DistanceMeters>
          </Trackpoint>
          <Trackpoint>
            <Time>2021-08-02T10:02:09.000Z</Time>
            <Position>
              <LatitudeDegrees>41.766891069710254669189453125</LatitudeDegrees>
              <LongitudeDegrees>-1.77533780224621295928955078125</LongitudeDegrees>
            </Position>
            <AltitudeMeters>1538</AltitudeMeters>
            <DistanceMeters>442857.37275835</DistanceMeters>
          </Trackpoint>
          <Trackpoint>
            <Time>2021-08-02T10:02:20.000Z</Time>
            <Position>
              <LatitudeDegrees>41.76684421487152576446533203125</LatitudeDegrees>
              <LongitudeDegrees>-1.7750676535069942474365234375</LongitudeDegrees>
            </Position>
            <AltitudeMeters>1539</AltitudeMeters>
            <DistanceMeters>442880.39787046</DistanceMeters>
          </Trackpoint>
          <Trackpoint>
            <Time>2021-08-02T10:02:36.000Z</Time>
            <Position>
              <LatitudeDegrees>41.7667539417743682861328125</LatitudeDegrees>
              <LongitudeDegrees>-1.77462391555309295654296875</LongitudeDegrees>
            </Position>
            <AltitudeMeters>1540.199951171875</AltitudeMeters>
            <DistanceMeters>442918.58075841</DistanceMeters>
          </Trackpoint>
          <Trackpoint>
            <Time>2021-08-02T10:02:53.000Z</Time>
            <Position>
              <LatitudeDegrees>41.766607426106929779052734375</LatitudeDegrees>
              <LongitudeDegrees>-1.774149499833583831787109375</LongitudeDegrees>
            </Position>
            <AltitudeMeters>1541.199951171875</AltitudeMeters>
            <DistanceMeters>442961.20741653</DistanceMeters>
          </Trackpoint>
          <Trackpoint>
            <Time>2021-08-02T10:03:03.000Z</Time>
            <Position>
              <LatitudeDegrees>41.76651597954332828521728515625</LatitudeDegrees>
              <LongitudeDegrees>-1.77391421981155872344970703125</LongitudeDegrees>
            </Position>
            <AltitudeMeters>1542.199951171875</AltitudeMeters>
            <DistanceMeters>442983.23230487</DistanceMeters>
          </Trackpoint>
          <Trackpoint>
            <Time>2021-08-02T10:03:27.000Z</Time>
            <Position>
              <LatitudeDegrees>41.7661224491894245147705078125</LatitudeDegrees>
              <LongitudeDegrees>-1.7734908498823642730712890625</LongitudeDegrees>
            </Position>
            <AltitudeMeters>1543</AltitudeMeters>
            <DistanceMeters>443039.39100276</DistanceMeters>
          </Trackpoint>
          <Trackpoint>
            <Time>2021-08-02T10:03:42.000Z</Time>
            <Position>
              <LatitudeDegrees>41.76585716195404529571533203125</LatitudeDegrees>
              <LongitudeDegrees>-1.77332044579088687896728515625</LongitudeDegrees>
            </Position>
            <AltitudeMeters>1544.199951171875</AltitudeMeters>
            <DistanceMeters>443072.13194662</DistanceMeters>
          </Trackpoint>
          <Trackpoint>
            <Time>2021-08-02T10:03:55.000Z</Time>
            <Position>
              <LatitudeDegrees>41.765623725950717926025390625</LatitudeDegrees>
              <LongitudeDegrees>-1.7732216231524944305419921875</LongitudeDegrees>
            </Position>
            <AltitudeMeters>1545.199951171875</AltitudeMeters>
            <DistanceMeters>443099.37860962</DistanceMeters>
          </Trackpoint>
          <Trackpoint>
            <Time>2021-08-02T10:04:06.000Z</Time>
            <Position>
              <LatitudeDegrees>41.76543094217777252197265625</LatitudeDegrees>
              <LongitudeDegrees>-1.7731606028974056243896484375</LongitudeDegrees>
            </Position>
            <AltitudeMeters>1546.4000244140625</AltitudeMeters>
            <DistanceMeters>443121.42562653</DistanceMeters>
          </Trackpoint>
          <Trackpoint>
            <Time>2021-08-02T10:04:11.000Z</Time>
            <Position>
              <LatitudeDegrees>41.76534242928028106689453125</LatitudeDegrees>
              <LongitudeDegrees>-1.77313000895082950592041015625</LongitudeDegrees>
            </Position>
            <AltitudeMeters>1547.4000244140625</AltitudeMeters>
            <DistanceMeters>443131.59925598</DistanceMeters>
          </Trackpoint>
          <Trackpoint>
            <Time>2021-08-02T10:04:17.000Z</Time>
            <Position>
              <LatitudeDegrees>41.76523656584322452545166015625</LatitudeDegrees>
              <LongitudeDegrees>-1.77309832535684108734130859375</LongitudeDegrees>
            </Position>
            <AltitudeMeters>1548.4000244140625</AltitudeMeters>
            <DistanceMeters>443143.67176334</DistanceMeters>
          </Trackpoint>
          <Trackpoint>
            <Time>2021-08-02T10:04:32.000Z</Time>
            <Position>
              <LatitudeDegrees>41.76497974433004856109619140625</LatitudeDegrees>
              <LongitudeDegrees>-1.772995479404926300048828125</LongitudeDegrees>
            </Position>
            <AltitudeMeters>1549.199951171875</AltitudeMeters>
            <DistanceMeters>443173.50440107</DistanceMeters>
          </Trackpoint>
          <Trackpoint>
            <Time>2021-08-02T10:04:50.000Z</Time>
            <Position>
              <LatitudeDegrees>41.7646532692015171051025390625</LatitudeDegrees>
              <LongitudeDegrees>-1.77280998788774013519287109375</LongitudeDegrees>
            </Position>
            <AltitudeMeters>1550.199951171875</AltitudeMeters>
            <DistanceMeters>443212.97012931</DistanceMeters>
          </Trackpoint>
          <Trackpoint>
            <Time>2021-08-02T10:05:01.000Z</Time>
            <Position>
              <LatitudeDegrees>41.76446425728499889373779296875</LatitudeDegrees>
              <LongitudeDegrees>-1.77267554216086864471435546875</LongitudeDegrees>
            </Position>
            <AltitudeMeters>1551.4000244140625</AltitudeMeters>
            <DistanceMeters>443236.78489324</DistanceMeters>
          </Trackpoint>
          <Trackpoint>
            <Time>2021-08-02T10:05:18.000Z</Time>
            <Position>
              <LatitudeDegrees>41.76413945853710174560546875</LatitudeDegrees>
              <LongitudeDegrees>-1.772488541901111602783203125</LongitudeDegrees>
            </Position>
            <AltitudeMeters>1552.4000244140625</AltitudeMeters>
            <DistanceMeters>443276.12801873</DistanceMeters>
          </Trackpoint>
          <Trackpoint>
            <Time>2021-08-02T10:05:28.000Z</Time>
            <Position>
              <LatitudeDegrees>41.7639636062085628509521484375</LatitudeDegrees>
              <LongitudeDegrees>-1.772379912436008453369140625</LongitudeDegrees>
            </Position>
            <AltitudeMeters>1553.4000244140625</AltitudeMeters>
            <DistanceMeters>443297.67835125</DistanceMeters>
          </Trackpoint>
          <Trackpoint>
            <Time>2021-08-02T10:05:37.000Z</Time>
            <Position>
              <LatitudeDegrees>41.7638063617050647735595703125</LatitudeDegrees>
              <LongitudeDegrees>-1.772322915494441986083984375</LongitudeDegrees>
            </Position>
            <AltitudeMeters>1554.4000244140625</AltitudeMeters>
            <DistanceMeters>443315.80854189</DistanceMeters>
          </Trackpoint>
          <Trackpoint>
            <Time>2021-08-02T10:05:49.000Z</Time>
            <Position>
              <LatitudeDegrees>41.763604022562503814697265625</LatitudeDegrees>
              <LongitudeDegrees>-1.772208251059055328369140625</LongitudeDegrees>
            </Position>
            <AltitudeMeters>1555.5999755859375</AltitudeMeters>
            <DistanceMeters>443340.25867728</DistanceMeters>
          </Trackpoint>
          <Trackpoint>
            <Time>2021-08-02T10:05:57.000Z</Time>
            <Position>
              <LatitudeDegrees>41.7634734325110912322998046875</LatitudeDegrees>
              <LongitudeDegrees>-1.77213273011147975921630859375</LongitudeDegrees>
            </Position>
            <AltitudeMeters>1556.4000244140625</AltitudeMeters>
            <DistanceMeters>443356.08825691</DistanceMeters>
          </Trackpoint>
          <Trackpoint>
            <Time>2021-08-02T10:06:07.000Z</Time>
            <Position>
              <LatitudeDegrees>41.76332448609173297882080078125</LatitudeDegrees>
              <LongitudeDegrees>-1.77204472012817859649658203125</LongitudeDegrees>
            </Position>
            <AltitudeMeters>1557.5999755859375</AltitudeMeters>
            <DistanceMeters>443374.20524393</DistanceMeters>
          </Trackpoint>
          <Trackpoint>
            <Time>2021-08-02T10:06:16.000Z</Time>
            <Position>
              <LatitudeDegrees>41.76319087855517864227294921875</LatitudeDegrees>
              <LongitudeDegrees>-1.77197481505572795867919921875</LongitudeDegrees>
            </Position>
            <AltitudeMeters>1558.5999755859375</AltitudeMeters>
            <DistanceMeters>443390.16831779</DistanceMeters>
          </Trackpoint>
          <Trackpoint>
            <Time>2021-08-02T10:06:26.000Z</Time>
            <Position>
              <LatitudeDegrees>41.763053499162197113037109375</LatitudeDegrees>
              <LongitudeDegrees>-1.771900467574596405029296875</LongitudeDegrees>
            </Position>
            <AltitudeMeters>1559.4000244140625</AltitudeMeters>
            <DistanceMeters>443406.65812258</DistanceMeters>
          </Trackpoint>
          <Trackpoint>
            <Time>2021-08-02T10:06:27.000Z</Time>
            <Position>
              <LatitudeDegrees>41.76304000429809093475341796875</LatitudeDegrees>
              <LongitudeDegrees>-1.7718927562236785888671875</LongitudeDegrees>
            </Position>
            <AltitudeMeters>1559.5999755859375</AltitudeMeters>
            <DistanceMeters>443408.29302399</DistanceMeters>
          </Trackpoint>
          <Trackpoint>
            <Time>2021-08-02T10:06:34.000Z</Time>
            <Position>
              <LatitudeDegrees>41.76294830627739429473876953125</LatitudeDegrees>
              <LongitudeDegrees>-1.7718444764614105224609375</LongitudeDegrees>
            </Position>
            <AltitudeMeters>1560.5999755859375</AltitudeMeters>
            <DistanceMeters>443419.25780569</DistanceMeters>
          </Trackpoint>
          <Trackpoint>
            <Time>2021-08-02T10:06:41.000Z</Time>
            <Position>
              <LatitudeDegrees>41.762865744531154632568359375</LatitudeDegrees>
              <LongitudeDegrees>-1.77179309539496898651123046875</LongitudeDegrees>
            </Position>
            <AltitudeMeters>1561.5999755859375</AltitudeMeters>
            <DistanceMeters>443429.38874093</DistanceMeters>
          </Trackpoint>
          <Trackpoint>
            <Time>2021-08-02T10:06:48.000Z</Time>
            <Position>
              <LatitudeDegrees>41.7627896368503570556640625</LatitudeDegrees>
              <LongitudeDegrees>-1.77174481563270092010498046875</LongitudeDegrees>
            </Position>
            <AltitudeMeters>1562.5999755859375</AltitudeMeters>
            <DistanceMeters>443438.76032156</DistanceMeters>
          </Trackpoint>
          <Trackpoint>
            <Time>2021-08-02T10:06:56.000Z</Time>
            <Position>
              <LatitudeDegrees>41.762704141438007354736328125</LatitudeDegrees>
              <LongitudeDegrees>-1.7716889083385467529296875</LongitudeDegrees>
            </Position>
            <AltitudeMeters>1563.5999755859375</AltitudeMeters>
            <DistanceMeters>443449.34844694</DistanceMeters>
          </Trackpoint>
          <Trackpoint>
            <Time>2021-08-02T10:07:04.000Z</Time>
            <Position>
              <LatitudeDegrees>41.76263046450912952423095703125</LatitudeDegrees>
              <LongitudeDegrees>-1.77163199521601200103759765625</LongitudeDegrees>
            </Position>
            <AltitudeMeters>1564.5999755859375</AltitudeMeters>
            <DistanceMeters>443458.81303137</DistanceMeters>
          </Trackpoint>
          <Trackpoint>
            <Time>2021-08-02T10:07:07.000Z</Time>
            <Position>
              <LatitudeDegrees>41.76260515116155147552490234375</LatitudeDegrees>
              <LongitudeDegrees>-1.77160969935357570648193359375</LongitudeDegrees>
            </Position>
            <AltitudeMeters>1564.800048828125</AltitudeMeters>
            <DistanceMeters>443462.18346697</DistanceMeters>
          </Trackpoint>
          <Trackpoint>
            <Time>2021-08-02T10:07:15.000Z</Time>
            <Position>
              <LatitudeDegrees>41.76253407262265682220458984375</LatitudeDegrees>
              <LongitudeDegrees>-1.77153996191918849945068359375</LongitudeDegrees>
            </Position>
            <AltitudeMeters>1565.800048828125</AltitudeMeters>
            <DistanceMeters>443471.98735057</DistanceMeters>
          </Trackpoint>
          <Trackpoint>
            <Time>2021-08-02T10:07:22.000Z</Time>
            <Position>
              <LatitudeDegrees>41.76246601156890392303466796875</LatitudeDegrees>
              <LongitudeDegrees>-1.7714718170464038848876953125</LongitudeDegrees>
            </Position>
            <AltitudeMeters>1566.4000244140625</AltitudeMeters>
            <DistanceMeters>443481.44238927</DistanceMeters>
          </Trackpoint>
          <Trackpoint>
            <Time>2021-08-02T10:07:24.000Z</Time>
            <Position>
              <LatitudeDegrees>41.76244555972516536712646484375</LatitudeDegrees>
              <LongitudeDegrees>-1.77145211957395076751708984375</LongitudeDegrees>
            </Position>
            <AltitudeMeters>1566.800048828125</AltitudeMeters>
            <DistanceMeters>443484.24527466</DistanceMeters>
          </Trackpoint>
          <Trackpoint>
            <Time>2021-08-02T10:07:34.000Z</Time>
            <Position>
              <LatitudeDegrees>41.76235587336122989654541015625</LatitudeDegrees>
              <LongitudeDegrees>-1.77134768106043338775634765625</LongitudeDegrees>
            </Position>
            <AltitudeMeters>1567.800048828125</AltitudeMeters>
            <DistanceMeters>443497.46799526</DistanceMeters>
          </Trackpoint>
          <Trackpoint>
            <Time>2021-08-02T10:07:42.000Z</Time>
            <Position>
              <LatitudeDegrees>41.76229233853518962860107421875</LatitudeDegrees>
              <LongitudeDegrees>-1.77125883288681507110595703125</LongitudeDegrees>
            </Position>
            <AltitudeMeters>1568.800048828125</AltitudeMeters>
            <DistanceMeters>443507.68679186</DistanceMeters>
          </Trackpoint>
          <Trackpoint>
            <Time>2021-08-02T10:07:52.000Z</Time>
            <Position>
              <LatitudeDegrees>41.76222863607108592987060546875</LatitudeDegrees>
              <LongitudeDegrees>-1.77115925587713718414306640625</LongitudeDegrees>
            </Position>
            <AltitudeMeters>1570</AltitudeMeters>
            <DistanceMeters>443518.57803074</DistanceMeters>
          </Trackpoint>
          <Trackpoint>
            <Time>2021-08-02T10:07:57.000Z</Time>
            <Position>
              <LatitudeDegrees>41.76219192333519458770751953125</LatitudeDegrees>
              <LongitudeDegrees>-1.7711110599339008331298828125</LongitudeDegrees>
            </Position>
            <AltitudeMeters>1571</AltitudeMeters>
            <DistanceMeters>443524.29781805</DistanceMeters>
          </Trackpoint>
          <Trackpoint>
            <Time>2021-08-02T10:08:02.000Z</Time>
            <Position>
              <LatitudeDegrees>41.7621537856757640838623046875</LatitudeDegrees>
              <LongitudeDegrees>-1.7710681445896625518798828125</LongitudeDegrees>
            </Position>
            <AltitudeMeters>1572</AltitudeMeters>
            <DistanceMeters>443529.84040951</DistanceMeters>
          </Trackpoint>
          <Trackpoint>
            <Time>2021-08-02T10:08:10.000Z</Time>
            <Position>
              <LatitudeDegrees>41.76209134049713611602783203125</LatitudeDegrees>
              <LongitudeDegrees>-1.7709866724908351898193359375</LongitudeDegrees>
            </Position>
            <AltitudeMeters>1573</AltitudeMeters>
            <DistanceMeters>443539.53918811</DistanceMeters>
          </Trackpoint>
          <Trackpoint>
            <Time>2021-08-02T10:08:18.000Z</Time>
            <Position>
              <LatitudeDegrees>41.76202210597693920135498046875</LatitudeDegrees>
              <LongitudeDegrees>-1.77090746350586414337158203125</LongitudeDegrees>
            </Position>
            <AltitudeMeters>1574.199951171875</AltitudeMeters>
            <DistanceMeters>443549.66967767</DistanceMeters>
          </Trackpoint>
          <Trackpoint>
            <Time>2021-08-02T10:08:28.000Z</Time>
            <Position>
              <LatitudeDegrees>41.76194666884839534759521484375</LatitudeDegrees>
              <LongitudeDegrees>-1.77081651985645294189453125</LongitudeDegrees>
            </Position>
            <AltitudeMeters>1575</AltitudeMeters>
            <DistanceMeters>443560.96147467</DistanceMeters>
          </Trackpoint>
          <Trackpoint>
            <Time>2021-08-02T10:08:34.000Z</Time>
            <Position>
              <LatitudeDegrees>41.7618922702968120574951171875</LatitudeDegrees>
              <LongitudeDegrees>-1.7707647196948528289794921875</LongitudeDegrees>
            </Position>
            <AltitudeMeters>1576.199951171875</AltitudeMeters>
            <DistanceMeters>443568.38755552</DistanceMeters>
          </Trackpoint>
          <Trackpoint>
            <Time>2021-08-02T10:08:45.000Z</Time>
            <Position>
              <LatitudeDegrees>41.7617849819362163543701171875</LatitudeDegrees>
              <LongitudeDegrees>-1.770676039159297943115234375</LongitudeDegrees>
            </Position>
            <AltitudeMeters>1577.4000244140625</AltitudeMeters>
            <DistanceMeters>443582.41647266</DistanceMeters>
          </Trackpoint>
          <Trackpoint>
            <Time>2021-08-02T10:08:48.000Z</Time>
            <Position>
              <LatitudeDegrees>41.761762686073780059814453125</LatitudeDegrees>
              <LongitudeDegrees>-1.77064879797399044036865234375</LongitudeDegrees>
            </Position>
            <AltitudeMeters>1578</AltitudeMeters>
            <DistanceMeters>443585.77348553</DistanceMeters>
          </Trackpoint>
          <Trackpoint>
            <Time>2021-08-02T10:08:51.000Z</Time>
            <Position>
              <LatitudeDegrees>41.7617400549352169036865234375</LatitudeDegrees>
              <LongitudeDegrees>-1.77062499336898326873779296875</LongitudeDegrees>
            </Position>
            <AltitudeMeters>1578.4000244140625</AltitudeMeters>
            <DistanceMeters>443588.97491283</DistanceMeters>
          </Trackpoint>
          <Trackpoint>
            <Time>2021-08-02T10:08:59.000Z</Time>
            <Position>
              <LatitudeDegrees>41.76166419871151447296142578125</LatitudeDegrees>
              <LongitudeDegrees>-1.7705860175192356109619140625</LongitudeDegrees>
            </Position>
            <AltitudeMeters>1579.4000244140625</AltitudeMeters>
            <DistanceMeters>443598.01694314</DistanceMeters>
          </Trackpoint>
          <Trackpoint>
            <Time>2021-08-02T10:09:07.000Z</Time>
            <Position>
              <LatitudeDegrees>41.7615826427936553955078125</LatitudeDegrees>
              <LongitudeDegrees>-1.770558021962642669677734375</LongitudeDegrees>
            </Position>
            <AltitudeMeters>1580.4000244140625</AltitudeMeters>
            <DistanceMeters>443607.38756016</DistanceMeters>
          </Trackpoint>
          <Trackpoint>
            <Time>2021-08-02T10:09:14.000Z</Time>
            <Position>
              <LatitudeDegrees>41.76150997169315814971923828125</LatitudeDegrees>
              <LongitudeDegrees>-1.77055324427783489227294921875</LongitudeDegrees>
            </Position>
            <AltitudeMeters>1581.4000244140625</AltitudeMeters>
            <DistanceMeters>443615.48548676</DistanceMeters>
          </Trackpoint>
          <Trackpoint>
            <Time>2021-08-02T10:09:22.000Z</Time>
            <Position>
              <LatitudeDegrees>41.76144978962838649749755859375</LatitudeDegrees>
              <LongitudeDegrees>-1.77053497172892093658447265625</LongitudeDegrees>
            </Position>
            <AltitudeMeters>1582.5999755859375</AltitudeMeters>
            <DistanceMeters>443622.35375578</DistanceMeters>
          </Trackpoint>
          <Trackpoint>
            <Time>2021-08-02T10:35:53.000Z</Time>
            <Position>
              <LatitudeDegrees>41.7607519961893558502197265625</LatitudeDegrees>
              <LongitudeDegrees>-1.77916380576789379119873046875</LongitudeDegrees>
            </Position>
            <AltitudeMeters>1678</AltitudeMeters>
            <DistanceMeters>444342.94579871</DistanceMeters>
          </Trackpoint>
          <Trackpoint>
            <Time>2021-08-02T10:36:21.000Z</Time>
            <Position>
              <LatitudeDegrees>41.76048050634562969207763671875</LatitudeDegrees>
              <LongitudeDegrees>-1.779788173735141754150390625</LongitudeDegrees>
            </Position>
            <AltitudeMeters>1677.4000244140625</AltitudeMeters>
            <DistanceMeters>444402.94762566</DistanceMeters>
          </Trackpoint>
          <Trackpoint>
            <Time>2021-08-02T10:36:48.000Z</Time>
            <Position>
              <LatitudeDegrees>41.76014053635299205780029296875</LatitudeDegrees>
              <LongitudeDegrees>-1.78036962635815143585205078125</LongitudeDegrees>
            </Position>
            <AltitudeMeters>1678.4000244140625</AltitudeMeters>
            <DistanceMeters>444464.2848487</DistanceMeters>
          </Trackpoint>
          <Trackpoint>
            <Time>2021-08-02T10:36:51.000Z</Time>
            <Position>
              <LatitudeDegrees>41.76011237315833568572998046875</LatitudeDegrees>
              <LongitudeDegrees>-1.7804186604917049407958984375</LongitudeDegrees>
            </Position>
            <AltitudeMeters>1679</AltitudeMeters>
            <DistanceMeters>444469.42156782</DistanceMeters>
          </Trackpoint>
          <Trackpoint>
            <Time>2021-08-02T10:37:00.000Z</Time>
            <Position>
              <LatitudeDegrees>41.76003123633563518524169921875</LatitudeDegrees>
              <LongitudeDegrees>-1.78055520169436931610107421875</LongitudeDegrees>
            </Position>
            <AltitudeMeters>1679.800048828125</AltitudeMeters>
            <DistanceMeters>444483.91524466</DistanceMeters>
          </Trackpoint>
          <Trackpoint>
            <Time>2021-08-02T10:37:10.000Z</Time>
            <Position>
              <LatitudeDegrees>41.75994792021811008453369140625</LatitudeDegrees>
              <LongitudeDegrees>-1.7807012982666492462158203125</LongitudeDegrees>
            </Position>
            <AltitudeMeters>1680.800048828125</AltitudeMeters>
            <DistanceMeters>444499.18352726</DistanceMeters>
          </Trackpoint>
          <Trackpoint>
            <Time>2021-08-02T10:37:11.000Z</Time>
            <Position>
              <LatitudeDegrees>41.759940125048160552978515625</LatitudeDegrees>
              <LongitudeDegrees>-1.78071412257850170135498046875</LongitudeDegrees>
            </Position>
            <AltitudeMeters>1680.800048828125</AltitudeMeters>
            <DistanceMeters>444500.56059518</DistanceMeters>
          </Trackpoint>
          <Trackpoint>
            <Time>2021-08-02T10:37:18.000Z</Time>
            <Position>
              <LatitudeDegrees>41.7598856426775455474853515625</LatitudeDegrees>
              <LongitudeDegrees>-1.78080699406564235687255859375</LongitudeDegrees>
            </Position>
            <AltitudeMeters>1682</AltitudeMeters>
            <DistanceMeters>444510.37000365</DistanceMeters>
          </Trackpoint>
          <Trackpoint>
            <Time>2021-08-02T10:37:29.000Z</Time>
            <Position>
              <LatitudeDegrees>41.75979888997972011566162109375</LatitudeDegrees>
              <LongitudeDegrees>-1.78094546310603618621826171875</LongitudeDegrees>
            </Position>
            <AltitudeMeters>1682.800048828125</AltitudeMeters>
            <DistanceMeters>444525.38332234</DistanceMeters>
          </Trackpoint>
          <Trackpoint>
            <Time>2021-08-02T10:37:40.000Z</Time>
            <Position>
              <LatitudeDegrees>41.7597176693379878997802734375</LatitudeDegrees>
              <LongitudeDegrees>-1.781075298786163330078125</LongitudeDegrees>
            </Position>
            <AltitudeMeters>1683.800048828125</AltitudeMeters>
            <DistanceMeters>444539.45176986</DistanceMeters>
          </Trackpoint>
          <Trackpoint>
            <Time>2021-08-02T10:37:52.000Z</Time>
            <Position>
              <LatitudeDegrees>41.75963175483047962188720703125</LatitudeDegrees>
              <LongitudeDegrees>-1.78120781667530536651611328125</LongitudeDegrees>
            </Position>
            <AltitudeMeters>1685</AltitudeMeters>
            <DistanceMeters>444554.02900412</DistanceMeters>
          </Trackpoint>
          <Trackpoint>
            <Time>2021-08-02T10:38:01.000Z</Time>
            <Position>
              <LatitudeDegrees>41.75956889055669307708740234375</LatitudeDegrees>
              <LongitudeDegrees>-1.78130823187530040740966796875</LongitudeDegrees>
            </Position>
            <AltitudeMeters>1686</AltitudeMeters>
            <DistanceMeters>444564.91319325</DistanceMeters>
          </Trackpoint>
          <Trackpoint>
            <Time>2021-08-02T10:38:10.000Z</Time>
            <Position>
              <LatitudeDegrees>41.75950317643582820892333984375</LatitudeDegrees>
              <LongitudeDegrees>-1.78139515221118927001953125</LongitudeDegrees>
            </Position>
            <AltitudeMeters>1687.199951171875</AltitudeMeters>
            <DistanceMeters>444575.18838929</DistanceMeters>
          </Trackpoint>
          <Trackpoint>
            <Time>2021-08-02T10:38:19.000Z</Time>
            <Position>
              <LatitudeDegrees>41.75944232381880283355712890625</LatitudeDegrees>
              <LongitudeDegrees>-1.7814814858138561248779296875</LongitudeDegrees>
            </Position>
            <AltitudeMeters>1688.199951171875</AltitudeMeters>
            <DistanceMeters>444585.05012967</DistanceMeters>
          </Trackpoint>
          <Trackpoint>
            <Time>2021-08-02T10:38:31.000Z</Time>
            <Position>
              <LatitudeDegrees>41.7593763582408428192138671875</LatitudeDegrees>
              <LongitudeDegrees>-1.78159120492637157440185546875</LongitudeDegrees>
            </Position>
            <AltitudeMeters>1689</AltitudeMeters>
            <DistanceMeters>444596.75038432</DistanceMeters>
          </Trackpoint>
          <Trackpoint>
            <Time>2021-08-02T10:38:42.000Z</Time>
            <Position>
              <LatitudeDegrees>41.75930821336805820465087890625</LatitudeDegrees>
              <LongitudeDegrees>-1.78171207197010517120361328125</LongitudeDegrees>
            </Position>
            <AltitudeMeters>1690</AltitudeMeters>
            <DistanceMeters>444609.32913623</DistanceMeters>
          </Trackpoint>
          <Trackpoint>
            <Time>2021-08-02T10:38:50.000Z</Time>
            <Position>
              <LatitudeDegrees>41.75926010124385356903076171875</LatitudeDegrees>
              <LongitudeDegrees>-1.78180226124823093414306640625</LongitudeDegrees>
            </Position>
            <AltitudeMeters>1691.199951171875</AltitudeMeters>
            <DistanceMeters>444618.53447366</DistanceMeters>
          </Trackpoint>
          <Trackpoint>
            <Time>2021-08-02T10:39:06.000Z</Time>
            <Position>
              <LatitudeDegrees>41.759166978299617767333984375</LatitudeDegrees>
              <LongitudeDegrees>-1.7819870822131633758544921875</LongitudeDegrees>
            </Position>
            <AltitudeMeters>1692.199951171875</AltitudeMeters>
            <DistanceMeters>444637.0520084</DistanceMeters>
          </Trackpoint>
          <Trackpoint>
            <Time>2021-08-02T10:39:19.000Z</Time>
            <Position>
              <LatitudeDegrees>41.75909380428493022918701171875</LatitudeDegrees>
              <LongitudeDegrees>-1.7821312509477138519287109375</LongitudeDegrees>
            </Position>
            <AltitudeMeters>1693.199951171875</AltitudeMeters>
            <DistanceMeters>444651.52947725</DistanceMeters>
          </Trackpoint>
          <Trackpoint>
            <Time>2021-08-02T10:39:29.000Z</Time>
            <Position>
              <LatitudeDegrees>41.759047619998455047607421875</LatitudeDegrees>
              <LongitudeDegrees>-1.78225739859044551849365234375</LongitudeDegrees>
            </Position>
            <AltitudeMeters>1694.4000244140625</AltitudeMeters>
            <DistanceMeters>444663.19611097</DistanceMeters>
          </Trackpoint>
          <Trackpoint>
            <Time>2021-08-02T10:39:38.000Z</Time>
            <Position>
              <LatitudeDegrees>41.75901333801448345184326171875</LatitudeDegrees>
              <LongitudeDegrees>-1.78236250765621662139892578125</LongitudeDegrees>
            </Position>
            <AltitudeMeters>1695.4000244140625</AltitudeMeters>
            <DistanceMeters>444672.72061347</DistanceMeters>
          </Trackpoint>
          <Trackpoint>
            <Time>2021-08-02T10:39:49.000Z</Time>
            <Position>
              <LatitudeDegrees>41.7589817382395267486572265625</LatitudeDegrees>
              <LongitudeDegrees>-1.7824967019259929656982421875</LongitudeDegrees>
            </Position>
            <AltitudeMeters>1696.5999755859375</AltitudeMeters>
            <DistanceMeters>444684.40464941</DistanceMeters>
          </Trackpoint>
          <Trackpoint>
            <Time>2021-08-02T10:39:57.000Z</Time>
            <Position>
              <LatitudeDegrees>41.7589736916124820709228515625</LatitudeDegrees>
              <LongitudeDegrees>-1.7825894057750701904296875</LongitudeDegrees>
            </Position>
            <AltitudeMeters>1697.5999755859375</AltitudeMeters>
            <DistanceMeters>444692.15326078</DistanceMeters>
          </Trackpoint>
          <Trackpoint>
            <Time>2021-08-02T10:40:11.000Z</Time>
            <Position>
              <LatitudeDegrees>41.75893756560981273651123046875</LatitudeDegrees>
              <LongitudeDegrees>-1.78276550956070423126220703125</LongitudeDegrees>
            </Position>
            <AltitudeMeters>1698.5999755859375</AltitudeMeters>
            <DistanceMeters>444707.31739269</DistanceMeters>
          </Trackpoint>
          <Trackpoint>
            <Time>2021-08-02T10:40:19.000Z</Time>
            <Position>
              <LatitudeDegrees>41.758927591145038604736328125</LatitudeDegrees>
              <LongitudeDegrees>-1.78286173380911350250244140625</LongitudeDegrees>
            </Position>
            <AltitudeMeters>1699.5999755859375</AltitudeMeters>
            <DistanceMeters>444715.38347606</DistanceMeters>
          </Trackpoint>
          <Trackpoint>
            <Time>2021-08-02T10:40:20.000Z</Time>
            <Position>
              <LatitudeDegrees>41.75892650149762630462646484375</LatitudeDegrees>
              <LongitudeDegrees>-1.78287430666387081146240234375</LongitudeDegrees>
            </Position>
            <AltitudeMeters>1699.800048828125</AltitudeMeters>
            <DistanceMeters>444716.43308042</DistanceMeters>
          </Trackpoint>
          <Trackpoint>
            <Time>2021-08-02T10:40:24.000Z</Time>
            <Position>
              <LatitudeDegrees>41.75892130471765995025634765625</LatitudeDegrees>
              <LongitudeDegrees>-1.7829248495399951934814453125</LongitudeDegrees>
            </Position>
            <AltitudeMeters>1700.4000244140625</AltitudeMeters>
            <DistanceMeters>444720.66897016</DistanceMeters>
          </Trackpoint>
          <Trackpoint>
            <Time>2021-08-02T10:40:30.000Z</Time>
            <Position>
              <LatitudeDegrees>41.75891258753836154937744140625</LatitudeDegrees>
              <LongitudeDegrees>-1.7829972691833972930908203125</LongitudeDegrees>
            </Position>
            <AltitudeMeters>1700.800048828125</AltitudeMeters>
            <DistanceMeters>444726.75958212</DistanceMeters>
          </Trackpoint>
          <Trackpoint>
            <Time>2021-08-02T10:40:32.000Z</Time>
            <Position>
              <LatitudeDegrees>41.75890990532934665679931640625</LatitudeDegrees>
              <LongitudeDegrees>-1.78302199579775333404541015625</LongitudeDegrees>
            </Position>
            <AltitudeMeters>1701</AltitudeMeters>
            <DistanceMeters>444728.83282026</DistanceMeters>
          </Trackpoint>
          <Trackpoint>
            <Time>2021-08-02T10:40:42.000Z</Time>
            <Position>
              <LatitudeDegrees>41.75889867357909679412841796875</LatitudeDegrees>
              <LongitudeDegrees>-1.78314504213631153106689453125</LongitudeDegrees>
            </Position>
            <AltitudeMeters>1701.800048828125</AltitudeMeters>
            <DistanceMeters>444739.12513909</DistanceMeters>
          </Trackpoint>
          <Trackpoint>
            <Time>2021-08-02T10:40:51.000Z</Time>
            <Position>
              <LatitudeDegrees>41.75888643600046634674072265625</LatitudeDegrees>
              <LongitudeDegrees>-1.78326540626585483551025390625</LongitudeDegrees>
            </Position>
            <AltitudeMeters>1702.800048828125</AltitudeMeters>
            <DistanceMeters>444749.21096137</DistanceMeters>
          </Trackpoint>
          <Trackpoint>
            <Time>2021-08-02T10:41:02.000Z</Time>
            <Position>
              <LatitudeDegrees>41.75887319259345531463623046875</LatitudeDegrees>
              <LongitudeDegrees>-1.78341611288487911224365234375</LongitudeDegrees>
            </Position>
            <AltitudeMeters>1703.800048828125</AltitudeMeters>
            <DistanceMeters>444761.81015634</DistanceMeters>
          </Trackpoint>
          <Trackpoint>
            <Time>2021-08-02T10:41:12.000Z</Time>
            <Position>
              <LatitudeDegrees>41.7588633857667446136474609375</LatitudeDegrees>
              <LongitudeDegrees>-1.7835528217256069183349609375</LongitudeDegrees>
            </Position>
            <AltitudeMeters>1704.800048828125</AltitudeMeters>
            <DistanceMeters>444773.21296611</DistanceMeters>
          </Trackpoint>
          <Trackpoint>
            <Time>2021-08-02T10:41:27.000Z</Time>
            <Position>
              <LatitudeDegrees>41.7588486336171627044677734375</LatitudeDegrees>
              <LongitudeDegrees>-1.78376127965748310089111328125</LongitudeDegrees>
            </Position>
            <AltitudeMeters>1705.800048828125</AltitudeMeters>
            <DistanceMeters>444790.59792106</DistanceMeters>
          </Trackpoint>
          <Trackpoint>
            <Time>2021-08-02T10:41:34.000Z</Time>
            <Position>
              <LatitudeDegrees>41.75884880125522613525390625</LatitudeDegrees>
              <LongitudeDegrees>-1.7838575877249240875244140625</LongitudeDegrees>
            </Position>
            <AltitudeMeters>1706.800048828125</AltitudeMeters>
            <DistanceMeters>444798.59372879</DistanceMeters>
          </Trackpoint>
          <Trackpoint>
            <Time>2021-08-02T10:41:47.000Z</Time>
            <Position>
              <LatitudeDegrees>41.75884637050330638885498046875</LatitudeDegrees>
              <LongitudeDegrees>-1.78404383361339569091796875</LongitudeDegrees>
            </Position>
            <AltitudeMeters>1707.800048828125</AltitudeMeters>
            <DistanceMeters>444814.05945427</DistanceMeters>
          </Trackpoint>
          <Trackpoint>
            <Time>2021-08-02T10:41:59.000Z</Time>
            <Position>
              <LatitudeDegrees>41.75885508768260478973388671875</LatitudeDegrees>
              <LongitudeDegrees>-1.784208118915557861328125</LongitudeDegrees>
            </Position>
            <AltitudeMeters>1708.800048828125</AltitudeMeters>
            <DistanceMeters>444827.73405931</DistanceMeters>
          </Trackpoint>
          <Trackpoint>
            <Time>2021-08-02T10:42:20.000Z</Time>
            <Position>
              <LatitudeDegrees>41.75888174213469028472900390625</LatitudeDegrees>
              <LongitudeDegrees>-1.784470975399017333984375</LongitudeDegrees>
            </Position>
            <AltitudeMeters>1709.800048828125</AltitudeMeters>
            <DistanceMeters>444849.75894766</DistanceMeters>
          </Trackpoint>
          <Trackpoint>
            <Time>2021-08-02T10:42:46.000Z</Time>
            <Position>
              <LatitudeDegrees>41.75898198969662189483642578125</LatitudeDegrees>
              <LongitudeDegrees>-1.784843467175960540771484375</LongitudeDegrees>
            </Position>
            <AltitudeMeters>1710.800048828125</AltitudeMeters>
            <DistanceMeters>444882.63681758</DistanceMeters>
          </Trackpoint>
          <Trackpoint>
            <Time>2021-08-02T10:43:03.000Z</Time>
            <Position>
              <LatitudeDegrees>41.75905264914035797119140625</LatitudeDegrees>
              <LongitudeDegrees>-1.78507304750382900238037109375</LongitudeDegrees>
            </Position>
            <AltitudeMeters>1711.800048828125</AltitudeMeters>
            <DistanceMeters>444903.25673876</DistanceMeters>
          </Trackpoint>
          <Trackpoint>
            <Time>2021-08-02T10:43:22.000Z</Time>
            <Position>
              <LatitudeDegrees>41.7591530643403530120849609375</LatitudeDegrees>
              <LongitudeDegrees>-1.7853260971605777740478515625</LongitudeDegrees>
            </Position>
            <AltitudeMeters>1712.800048828125</AltitudeMeters>
            <DistanceMeters>444927.05424376</DistanceMeters>
          </Trackpoint>
          <Trackpoint>
            <Time>2021-08-02T10:43:40.000Z</Time>
            <Position>
              <LatitudeDegrees>41.759252808988094329833984375</LatitudeDegrees>
              <LongitudeDegrees>-1.7855708487331867218017578125</LongitudeDegrees>
            </Position>
            <AltitudeMeters>1713.5999755859375</AltitudeMeters>
            <DistanceMeters>444950.20977979</DistanceMeters>
          </Trackpoint>
          <Trackpoint>
            <Time>2021-08-02T10:43:55.000Z</Time>
            <Position>
              <LatitudeDegrees>41.75933562219142913818359375</LatitudeDegrees>
              <LongitudeDegrees>-1.785774528980255126953125</LongitudeDegrees>
            </Position>
            <AltitudeMeters>1714.5999755859375</AltitudeMeters>
            <DistanceMeters>444969.46951707</DistanceMeters>
          </Trackpoint>
          <Trackpoint>
            <Time>2021-08-02T10:44:07.000Z</Time>
            <Position>
              <LatitudeDegrees>41.75940401852130889892578125</LatitudeDegrees>
              <LongitudeDegrees>-1.78593135438859462738037109375</LongitudeDegrees>
            </Position>
            <AltitudeMeters>1715.5999755859375</AltitudeMeters>
            <DistanceMeters>444984.55214568</DistanceMeters>
          </Trackpoint>
          <Trackpoint>
            <Time>2021-08-02T10:44:09.000Z</Time>
            <Position>
              <LatitudeDegrees>41.75941382534801959991455078125</LatitudeDegrees>
              <LongitudeDegrees>-1.78595985285937786102294921875</LongitudeDegrees>
            </Position>
            <AltitudeMeters>1715.800048828125</AltitudeMeters>
            <DistanceMeters>444987.15975907</DistanceMeters>
          </Trackpoint>
          <Trackpoint>
            <Time>2021-08-02T10:44:23.000Z</Time>
            <Position>
              <LatitudeDegrees>41.75949211232364177703857421875</LatitudeDegrees>
              <LongitudeDegrees>-1.7861406505107879638671875</LongitudeDegrees>
            </Position>
            <AltitudeMeters>1716.800048828125</AltitudeMeters>
            <DistanceMeters>445004.51664273</DistanceMeters>
          </Trackpoint>
          <Trackpoint>
            <Time>2021-08-02T10:44:34.000Z</Time>
            <Position>
              <LatitudeDegrees>41.7595548927783966064453125</LatitudeDegrees>
              <LongitudeDegrees>-1.78627786226570606231689453125</LongitudeDegrees>
            </Position>
            <AltitudeMeters>1717.5999755859375</AltitudeMeters>
            <DistanceMeters>445017.88099389</DistanceMeters>
          </Trackpoint>
          <Trackpoint>
            <Time>2021-08-02T10:44:43.000Z</Time>
            <Position>
              <LatitudeDegrees>41.759600155055522918701171875</LatitudeDegrees>
              <LongitudeDegrees>-1.78638850338757038116455078125</LongitudeDegrees>
            </Position>
            <AltitudeMeters>1718.800048828125</AltitudeMeters>
            <DistanceMeters>445028.35766221</DistanceMeters>
          </Trackpoint>
          <Trackpoint>
            <Time>2021-08-02T10:44:53.000Z</Time>
            <Position>
              <LatitudeDegrees>41.75965338014066219329833984375</LatitudeDegrees>
              <LongitudeDegrees>-1.78650886751711368560791015625</LongitudeDegrees>
            </Position>
            <AltitudeMeters>1719.800048828125</AltitudeMeters>
            <DistanceMeters>445039.97465375</DistanceMeters>
          </Trackpoint>
          <Trackpoint>
            <Time>2021-08-02T10:45:08.000Z</Time>
            <Position>
              <LatitudeDegrees>41.75972831435501575469970703125</LatitudeDegrees>
              <LongitudeDegrees>-1.786700226366519927978515625</LongitudeDegrees>
            </Position>
            <AltitudeMeters>1720.800048828125</AltitudeMeters>
            <DistanceMeters>445057.91835476</DistanceMeters>
          </Trackpoint>
          <Trackpoint>
            <Time>2021-08-02T10:45:16.000Z</Time>
            <Position>
              <LatitudeDegrees>41.759763769805431365966796875</LatitudeDegrees>
              <LongitudeDegrees>-1.78679720498621463775634765625</LongitudeDegrees>
            </Position>
            <AltitudeMeters>1721.800048828125</AltitudeMeters>
            <DistanceMeters>445066.88466785</DistanceMeters>
          </Trackpoint>
          <Trackpoint>
            <Time>2021-08-02T10:45:26.000Z</Time>
            <Position>
              <LatitudeDegrees>41.7598098702728748321533203125</LatitudeDegrees>
              <LongitudeDegrees>-1.78691354580223560333251953125</LongitudeDegrees>
            </Position>
            <AltitudeMeters>1723</AltitudeMeters>
            <DistanceMeters>445077.82223855</DistanceMeters>
          </Trackpoint>
          <Trackpoint>
            <Time>2021-08-02T10:45:34.000Z</Time>
            <Position>
              <LatitudeDegrees>41.7598526179790496826171875</LatitudeDegrees>
              <LongitudeDegrees>-1.78699694573879241943359375</LongitudeDegrees>
            </Position>
            <AltitudeMeters>1724</AltitudeMeters>
            <DistanceMeters>445086.22337404</DistanceMeters>
          </Trackpoint>
          <Trackpoint>
            <Time>2021-08-02T10:45:42.000Z</Time>
            <Position>
              <LatitudeDegrees>41.75988824106752872467041015625</LatitudeDegrees>
              <LongitudeDegrees>-1.78708889521658420562744140625</LongitudeDegrees>
            </Position>
            <AltitudeMeters>1725</AltitudeMeters>
            <DistanceMeters>445094.82578512</DistanceMeters>
          </Trackpoint>
          <Trackpoint>
            <Time>2021-08-02T10:45:50.000Z</Time>
            <Position>
              <LatitudeDegrees>41.75992193631827831268310546875</LatitudeDegrees>
              <LongitudeDegrees>-1.78717573173344135284423828125</LongitudeDegrees>
            </Position>
            <AltitudeMeters>1726.199951171875</AltitudeMeters>
            <DistanceMeters>445102.95265285</DistanceMeters>
          </Trackpoint>
          <Trackpoint>
            <Time>2021-08-02T10:45:56.000Z</Time>
            <Position>
              <LatitudeDegrees>41.75994222052395343780517578125</LatitudeDegrees>
              <LongitudeDegrees>-1.78724211640655994415283203125</LongitudeDegrees>
            </Position>
            <AltitudeMeters>1727</AltitudeMeters>
            <DistanceMeters>445108.90985022</DistanceMeters>
          </Trackpoint>
          <Trackpoint>
            <Time>2021-08-02T10:45:59.000Z</Time>
            <Position>
              <LatitudeDegrees>41.759960241615772247314453125</LatitudeDegrees>
              <LongitudeDegrees>-1.78726742975413799285888671875</LongitudeDegrees>
            </Position>
            <AltitudeMeters>1727.199951171875</AltitudeMeters>
            <DistanceMeters>445111.81710864</DistanceMeters>
          </Trackpoint>
          <Trackpoint>
            <Time>2021-08-02T10:46:09.000Z</Time>
            <Position>
              <LatitudeDegrees>41.76001246087253093719482421875</LatitudeDegrees>
              <LongitudeDegrees>-1.7873689346015453338623046875</LongitudeDegrees>
            </Position>
            <AltitudeMeters>1728</AltitudeMeters>
            <DistanceMeters>445122.05444556</DistanceMeters>
          </Trackpoint>
          <Trackpoint>
            <Time>2021-08-02T10:46:11.000Z</Time>
            <Position>
              <LatitudeDegrees>41.7600174061954021453857421875</LatitudeDegrees>
              <LongitudeDegrees>-1.78739215247333049774169921875</LongitudeDegrees>
            </Position>
            <AltitudeMeters>1728.199951171875</AltitudeMeters>
            <DistanceMeters>445124.06128738</DistanceMeters>
          </Trackpoint>
          <Trackpoint>
            <Time>2021-08-02T10:46:20.000Z</Time>
            <Position>
              <LatitudeDegrees>41.76005185581743717193603515625</LatitudeDegrees>
              <LongitudeDegrees>-1.78749826736748218536376953125</LongitudeDegrees>
            </Position>
            <AltitudeMeters>1728.800048828125</AltitudeMeters>
            <DistanceMeters>445133.66979932</DistanceMeters>
          </Trackpoint>
          <Trackpoint>
            <Time>2021-08-02T10:46:21.000Z</Time>
            <Position>
              <LatitudeDegrees>41.7600549571216106414794921875</LatitudeDegrees>
              <LongitudeDegrees>-1.78751184605062007904052734375</LongitudeDegrees>
            </Position>
            <AltitudeMeters>1729</AltitudeMeters>
            <DistanceMeters>445134.84904983</DistanceMeters>
          </Trackpoint>
          <Trackpoint>
            <Time>2021-08-02T10:46:34.000Z</Time>
            <Position>
              <LatitudeDegrees>41.7600727267563343048095703125</LatitudeDegrees>
              <LongitudeDegrees>-1.78768987767398357391357421875</LongitudeDegrees>
            </Position>
            <AltitudeMeters>1730</AltitudeMeters>
            <DistanceMeters>445149.76188734</DistanceMeters>
          </Trackpoint>
          <Trackpoint>
            <Time>2021-08-02T10:46:44.000Z</Time>
            <Position>
              <LatitudeDegrees>41.760066188871860504150390625</LatitudeDegrees>
              <LongitudeDegrees>-1.7878304421901702880859375</LongitudeDegrees>
            </Position>
            <AltitudeMeters>1730.199951171875</AltitudeMeters>
            <DistanceMeters>445161.45519387</DistanceMeters>
          </Trackpoint>
          <Trackpoint>
            <Time>2021-08-02T10:46:57.000Z</Time>
            <Position>
              <LatitudeDegrees>41.76003861241042613983154296875</LatitudeDegrees>
              <LongitudeDegrees>-1.78800143301486968994140625</LongitudeDegrees>
            </Position>
            <AltitudeMeters>1731</AltitudeMeters>
            <DistanceMeters>445175.97967823</DistanceMeters>
          </Trackpoint>
          <Trackpoint>
            <Time>2021-08-02T10:47:10.000Z</Time>
            <Position>
              <LatitudeDegrees>41.75999008119106292724609375</LatitudeDegrees>
              <LongitudeDegrees>-1.78816831670701503753662109375</LongitudeDegrees>
            </Position>
            <AltitudeMeters>1732</AltitudeMeters>
            <DistanceMeters>445190.85067591</DistanceMeters>
          </Trackpoint>
          <Trackpoint>
            <Time>2021-08-02T10:47:33.000Z</Time>
            <Position>
              <LatitudeDegrees>41.759872734546661376953125</LatitudeDegrees>
              <LongitudeDegrees>-1.78849227726459503173828125</LongitudeDegrees>
            </Position>
            <AltitudeMeters>1733</AltitudeMeters>
            <DistanceMeters>445220.75103959</DistanceMeters>
          </Trackpoint>
          <Trackpoint>
            <Time>2021-08-02T10:47:48.000Z</Time>
            <Position>
              <LatitudeDegrees>41.7597828805446624755859375</LatitudeDegrees>
              <LongitudeDegrees>-1.788683719933032989501953125</LongitudeDegrees>
            </Position>
            <AltitudeMeters>1734</AltitudeMeters>
            <DistanceMeters>445239.52981871</DistanceMeters>
          </Trackpoint>
          <Trackpoint>
            <Time>2021-08-02T10:48:02.000Z</Time>
            <Position>
              <LatitudeDegrees>41.7596968822181224822998046875</LatitudeDegrees>
              <LongitudeDegrees>-1.7888625897467136383056640625</LongitudeDegrees>
            </Position>
            <AltitudeMeters>1735</AltitudeMeters>
            <DistanceMeters>445257.19763359</DistanceMeters>
          </Trackpoint>
          <Trackpoint>
            <Time>2021-08-02T10:48:11.000Z</Time>
            <Position>
              <LatitudeDegrees>41.7596469260752201080322265625</LatitudeDegrees>
              <LongitudeDegrees>-1.78897012956440448760986328125</LongitudeDegrees>
            </Position>
            <AltitudeMeters>1736</AltitudeMeters>
            <DistanceMeters>445267.71602209</DistanceMeters>
          </Trackpoint>
          <Trackpoint>
            <Time>2021-08-02T10:48:22.000Z</Time>
            <Position>
              <LatitudeDegrees>41.759577691555023193359375</LatitudeDegrees>
              <LongitudeDegrees>-1.78909569047391414642333984375</LongitudeDegrees>
            </Position>
            <AltitudeMeters>1737</AltitudeMeters>
            <DistanceMeters>445280.67976972</DistanceMeters>
          </Trackpoint>
          <Trackpoint>
            <Time>2021-08-02T10:48:32.000Z</Time>
            <Position>
              <LatitudeDegrees>41.75951843149960041046142578125</LatitudeDegrees>
              <LongitudeDegrees>-1.78922452032566070556640625</LongitudeDegrees>
            </Position>
            <AltitudeMeters>1738</AltitudeMeters>
            <DistanceMeters>445293.24559308</DistanceMeters>
          </Trackpoint>
          <Trackpoint>
            <Time>2021-08-02T10:48:42.000Z</Time>
            <Position>
              <LatitudeDegrees>41.75946327857673168182373046875</LatitudeDegrees>
              <LongitudeDegrees>-1.78935737349092960357666015625</LongitudeDegrees>
            </Position>
            <AltitudeMeters>1739</AltitudeMeters>
            <DistanceMeters>445305.86913296</DistanceMeters>
          </Trackpoint>
          <Trackpoint>
            <Time>2021-08-02T10:48:51.000Z</Time>
            <Position>
              <LatitudeDegrees>41.75941466353833675384521484375</LatitudeDegrees>
              <LongitudeDegrees>-1.789481006562709808349609375</LongitudeDegrees>
            </Position>
            <AltitudeMeters>1740</AltitudeMeters>
            <DistanceMeters>445317.47251349</DistanceMeters>
          </Trackpoint>
          <Trackpoint>
            <Time>2021-08-02T10:49:03.000Z</Time>
            <Position>
              <LatitudeDegrees>41.7593656294047832489013671875</LatitudeDegrees>
              <LongitudeDegrees>-1.78963414393365383148193359375</LongitudeDegrees>
            </Position>
            <AltitudeMeters>1741.199951171875</AltitudeMeters>
            <DistanceMeters>445331.30861195</DistanceMeters>
          </Trackpoint>
          <Trackpoint>
            <Time>2021-08-02T10:49:11.000Z</Time>
            <Position>
              <LatitudeDegrees>41.75933503545820713043212890625</LatitudeDegrees>
              <LongitudeDegrees>-1.78973120637238025665283203125</LongitudeDegrees>
            </Position>
            <AltitudeMeters>1742.199951171875</AltitudeMeters>
            <DistanceMeters>445340.05726487</DistanceMeters>
          </Trackpoint>
          <Trackpoint>
            <Time>2021-08-02T10:49:20.000Z</Time>
            <Position>
              <LatitudeDegrees>41.75931475125253200531005859375</LatitudeDegrees>
              <LongitudeDegrees>-1.78985106758773326873779296875</LongitudeDegrees>
            </Position>
            <AltitudeMeters>1743.199951171875</AltitudeMeters>
            <DistanceMeters>445350.26191291</DistanceMeters>
          </Trackpoint>
          <Trackpoint>
            <Time>2021-08-02T10:49:22.000Z</Time>
            <Position>
              <LatitudeDegrees>41.75930804572999477386474609375</LatitudeDegrees>
              <LongitudeDegrees>-1.789877302944660186767578125</LongitudeDegrees>
            </Position>
            <AltitudeMeters>1743.4000244140625</AltitudeMeters>
            <DistanceMeters>445352.5622661</DistanceMeters>
          </Trackpoint>
          <Trackpoint>
            <Time>2021-08-02T10:49:26.000Z</Time>
            <Position>
              <LatitudeDegrees>41.75930318422615528106689453125</LatitudeDegrees>
              <LongitudeDegrees>-1.7899274267256259918212890625</LongitudeDegrees>
            </Position>
            <AltitudeMeters>1744.199951171875</AltitudeMeters>
            <DistanceMeters>445356.75853218</DistanceMeters>
          </Trackpoint>
          <Trackpoint>
            <Time>2021-08-02T10:49:28.000Z</Time>
            <Position>
              <LatitudeDegrees>41.75930184312164783477783203125</LatitudeDegrees>
              <LongitudeDegrees>-1.78995366208255290985107421875</LongitudeDegrees>
            </Position>
            <AltitudeMeters>1744.199951171875</AltitudeMeters>
            <DistanceMeters>445358.94207984</DistanceMeters>
          </Trackpoint>
          <Trackpoint>
            <Time>2021-08-02T10:49:38.000Z</Time>
            <Position>
              <LatitudeDegrees>41.75929781980812549591064453125</LatitudeDegrees>
              <LongitudeDegrees>-1.790075115859508514404296875</LongitudeDegrees>
            </Position>
            <AltitudeMeters>1745</AltitudeMeters>
            <DistanceMeters>445369.03640412</DistanceMeters>
          </Trackpoint>
          <Trackpoint>
            <Time>2021-08-02T10:49:48.000Z</Time>
            <Position>
              <LatitudeDegrees>41.7593005858361721038818359375</LatitudeDegrees>
              <LongitudeDegrees>-1.7901896126568317413330078125</LongitudeDegrees>
            </Position>
            <AltitudeMeters>1746.199951171875</AltitudeMeters>
            <DistanceMeters>445378.54762411</DistanceMeters>
          </Trackpoint>
          <Trackpoint>
            <Time>2021-08-02T10:49:59.000Z</Time>
            <Position>
              <LatitudeDegrees>41.7593200318515300750732421875</LatitudeDegrees>
              <LongitudeDegrees>-1.7903019301593303680419921875</LongitudeDegrees>
            </Position>
            <AltitudeMeters>1747.199951171875</AltitudeMeters>
            <DistanceMeters>445388.12035704</DistanceMeters>
          </Trackpoint>
          <Trackpoint>
            <Time>2021-08-02T10:50:01.000Z</Time>
            <Position>
              <LatitudeDegrees>41.7593264020979404449462890625</LatitudeDegrees>
              <LongitudeDegrees>-1.790323555469512939453125</LongitudeDegrees>
            </Position>
            <AltitudeMeters>1747.4000244140625</AltitudeMeters>
            <DistanceMeters>445390.04918868</DistanceMeters>
          </Trackpoint>
          <Trackpoint>
            <Time>2021-08-02T10:50:06.000Z</Time>
            <Position>
              <LatitudeDegrees>41.7593243904411792755126953125</LatitudeDegrees>
              <LongitudeDegrees>-1.79038382135331630706787109375</LongitudeDegrees>
            </Position>
            <AltitudeMeters>1748.199951171875</AltitudeMeters>
            <DistanceMeters>445395.05773661</DistanceMeters>
          </Trackpoint>
          <Trackpoint>
            <Time>2021-08-02T10:50:15.000Z</Time>
            <Position>
              <LatitudeDegrees>41.75934526138007640838623046875</LatitudeDegrees>
              <LongitudeDegrees>-1.7904643714427947998046875</LongitudeDegrees>
            </Position>
            <AltitudeMeters>1749</AltitudeMeters>
            <DistanceMeters>445402.13770514</DistanceMeters>
          </Trackpoint>
          <Trackpoint>
            <Time>2021-08-02T11:12:13.000Z</Time>
            <Position>
              <LatitudeDegrees>41.76126806996762752532958984375</LatitudeDegrees>
              <LongitudeDegrees>-1.79504985921084880828857421875</LongitudeDegrees>
            </Position>
            <AltitudeMeters>1804.4000244140625</AltitudeMeters>
            <DistanceMeters>445838.87471584</DistanceMeters>
          </Trackpoint>
          <Trackpoint>
            <Time>2021-08-02T11:12:24.000Z</Time>
            <Position>
              <LatitudeDegrees>41.76129573024809360504150390625</LatitudeDegrees>
              <LongitudeDegrees>-1.7952382005751132965087890625</LongitudeDegrees>
            </Position>
            <AltitudeMeters>1805.4000244140625</AltitudeMeters>
            <DistanceMeters>445854.81174693</DistanceMeters>
          </Trackpoint>
          <Trackpoint>
            <Time>2021-08-02T11:12:45.000Z</Time>
            <Position>
              <LatitudeDegrees>41.76127058453857898712158203125</LatitudeDegrees>
              <LongitudeDegrees>-1.795620582997798919677734375</LongitudeDegrees>
            </Position>
            <AltitudeMeters>1806.199951171875</AltitudeMeters>
            <DistanceMeters>445886.68127592</DistanceMeters>
          </Trackpoint>
          <Trackpoint>
            <Time>2021-08-02T11:12:49.000Z</Time>
            <Position>
              <LatitudeDegrees>41.76126086153090000152587890625</LatitudeDegrees>
              <LongitudeDegrees>-1.7956717126071453094482421875</LongitudeDegrees>
            </Position>
            <AltitudeMeters>1806.800048828125</AltitudeMeters>
            <DistanceMeters>445891.06076018</DistanceMeters>
          </Trackpoint>
          <Trackpoint>
            <Time>2021-08-02T11:12:53.000Z</Time>
            <Position>
              <LatitudeDegrees>41.76125365309417247772216796875</LatitudeDegrees>
              <LongitudeDegrees>-1.7956960201263427734375</LongitudeDegrees>
            </Position>
            <AltitudeMeters>1806.800048828125</AltitudeMeters>
            <DistanceMeters>445893.23186587</DistanceMeters>
          </Trackpoint>
          <Trackpoint>
            <Time>2021-08-02T11:13:53.000Z</Time>
            <Position>
              <LatitudeDegrees>41.76125247962772846221923828125</LatitudeDegrees>
              <LongitudeDegrees>-1.79584714584052562713623046875</LongitudeDegrees>
            </Position>
            <AltitudeMeters>1807.4000244140625</AltitudeMeters>
            <DistanceMeters>445905.77935099</DistanceMeters>
          </Trackpoint>
          <Trackpoint>
            <Time>2021-08-02T11:13:58.000Z</Time>
            <Position>
              <LatitudeDegrees>41.76124426536262035369873046875</LatitudeDegrees>
              <LongitudeDegrees>-1.795929372310638427734375</LongitudeDegrees>
            </Position>
            <AltitudeMeters>1807.800048828125</AltitudeMeters>
            <DistanceMeters>445912.66600195</DistanceMeters>
          </Trackpoint>
          <Trackpoint>
            <Time>2021-08-02T11:14:18.000Z</Time>
            <Position>
              <LatitudeDegrees>41.7612079717218875885009765625</LatitudeDegrees>
              <LongitudeDegrees>-1.79628937505185604095458984375</LongitudeDegrees>
            </Position>
            <AltitudeMeters>1808.199951171875</AltitudeMeters>
            <DistanceMeters>445942.82616973</DistanceMeters>
          </Trackpoint>
          <Trackpoint>
            <Time>2021-08-02T11:14:34.000Z</Time>
            <Position>
              <LatitudeDegrees>41.76118140108883380889892578125</LatitudeDegrees>
              <LongitudeDegrees>-1.7965984158217906951904296875</LongitudeDegrees>
            </Position>
            <AltitudeMeters>1809.199951171875</AltitudeMeters>
            <DistanceMeters>445968.65351467</DistanceMeters>
          </Trackpoint>
          <Trackpoint>
            <Time>2021-08-02T11:15:05.000Z</Time>
            <Position>
              <LatitudeDegrees>41.76111535169184207916259765625</LatitudeDegrees>
              <LongitudeDegrees>-1.79731833748519420623779296875</LongitudeDegrees>
            </Position>
            <AltitudeMeters>1809</AltitudeMeters>
            <DistanceMeters>446028.87406615</DistanceMeters>
          </Trackpoint>
          <Trackpoint>
            <Time>2021-08-02T11:15:37.000Z</Time>
            <Position>
              <LatitudeDegrees>41.76103354431688785552978515625</LatitudeDegrees>
              <LongitudeDegrees>-1.7980504967272281646728515625</LongitudeDegrees>
            </Position>
            <AltitudeMeters>1809.5999755859375</AltitudeMeters>
            <DistanceMeters>446090.33850271</DistanceMeters>
          </Trackpoint>
          <Trackpoint>
            <Time>2021-08-02T11:16:04.000Z</Time>
            <Position>
              <LatitudeDegrees>41.7609662376344203948974609375</LatitudeDegrees>
              <LongitudeDegrees>-1.79877410642802715301513671875</LongitudeDegrees>
            </Position>
            <AltitudeMeters>1809.800048828125</AltitudeMeters>
            <DistanceMeters>446150.88043932</DistanceMeters>
          </Trackpoint>
          <Trackpoint>
            <Time>2021-08-02T11:16:07.000Z</Time>
            <Position>
              <LatitudeDegrees>41.76095861010253429412841796875</LatitudeDegrees>
              <LongitudeDegrees>-1.79884786717593669891357421875</LongitudeDegrees>
            </Position>
            <AltitudeMeters>1810.199951171875</AltitudeMeters>
            <DistanceMeters>446157.06375103</DistanceMeters>
          </Trackpoint>
          <Trackpoint>
            <Time>2021-08-02T11:16:24.000Z</Time>
            <Position>
              <LatitudeDegrees>41.76091569475829601287841796875</LatitudeDegrees>
              <LongitudeDegrees>-1.79920225404202938079833984375</LongitudeDegrees>
            </Position>
            <AltitudeMeters>1811.199951171875</AltitudeMeters>
            <DistanceMeters>446186.87125481</DistanceMeters>
          </Trackpoint>
          <Trackpoint>
            <Time>2021-08-02T11:16:32.000Z</Time>
            <Position>
              <LatitudeDegrees>41.7608961649239063262939453125</LatitudeDegrees>
              <LongitudeDegrees>-1.79934985935688018798828125</LongitudeDegrees>
            </Position>
            <AltitudeMeters>1812.199951171875</AltitudeMeters>
            <DistanceMeters>446199.31721525</DistanceMeters>
          </Trackpoint>
          <Trackpoint>
            <Time>2021-08-02T11:16:42.000Z</Time>
            <Position>
              <LatitudeDegrees>41.760875545442104339599609375</LatitudeDegrees>
              <LongitudeDegrees>-1.79952143691480159759521484375</LongitudeDegrees>
            </Position>
            <AltitudeMeters>1813.199951171875</AltitudeMeters>
            <DistanceMeters>446213.74563798</DistanceMeters>
          </Trackpoint>
          <Trackpoint>
            <Time>2021-08-02T11:16:56.000Z</Time>
            <Position>
              <LatitudeDegrees>41.760855428874492645263671875</LatitudeDegrees>
              <LongitudeDegrees>-1.799765937030315399169921875</LongitudeDegrees>
            </Position>
            <AltitudeMeters>1814.199951171875</AltitudeMeters>
            <DistanceMeters>446234.16798213</DistanceMeters>
          </Trackpoint>
          <Trackpoint>
            <Time>2021-08-02T11:17:15.000Z</Time>
            <Position>
              <LatitudeDegrees>41.76083807833492755889892578125</LatitudeDegrees>
              <LongitudeDegrees>-1.80009551346302032470703125</LongitudeDegrees>
            </Position>
            <AltitudeMeters>1815.199951171875</AltitudeMeters>
            <DistanceMeters>446261.59846006</DistanceMeters>
          </Trackpoint>
          <Trackpoint>
            <Time>2021-08-02T11:17:28.000Z</Time>
            <Position>
              <LatitudeDegrees>41.7608321271836757659912109375</LatitudeDegrees>
              <LongitudeDegrees>-1.80033624172210693359375</LongitudeDegrees>
            </Position>
            <AltitudeMeters>1816.4000244140625</AltitudeMeters>
            <DistanceMeters>446281.59543171</DistanceMeters>
          </Trackpoint>
          <Trackpoint>
            <Time>2021-08-02T11:17:45.000Z</Time>
            <Position>
              <LatitudeDegrees>41.76083019934594631195068359375</LatitudeDegrees>
              <LongitudeDegrees>-1.8006220646202564239501953125</LongitudeDegrees>
            </Position>
            <AltitudeMeters>1817.199951171875</AltitudeMeters>
            <DistanceMeters>446305.32643922</DistanceMeters>
          </Trackpoint>
          <Trackpoint>
            <Time>2021-08-02T11:18:00.000Z</Time>
            <Position>
              <LatitudeDegrees>41.76083439029753208160400390625</LatitudeDegrees>
              <LongitudeDegrees>-1.800852231681346893310546875</LongitudeDegrees>
            </Position>
            <AltitudeMeters>1818.199951171875</AltitudeMeters>
            <DistanceMeters>446324.44169526</DistanceMeters>
          </Trackpoint>
          <Trackpoint>
            <Time>2021-08-02T11:18:10.000Z</Time>
            <Position>
              <LatitudeDegrees>41.76083807833492755889892578125</LatitudeDegrees>
              <LongitudeDegrees>-1.80101819336414337158203125</LongitudeDegrees>
            </Position>
            <AltitudeMeters>1819.199951171875</AltitudeMeters>
            <DistanceMeters>446338.22679332</DistanceMeters>
          </Trackpoint>
          <Trackpoint>
            <Time>2021-08-02T11:18:21.000Z</Time>
            <Position>
              <LatitudeDegrees>41.7608431912958621978759765625</LatitudeDegrees>
              <LongitudeDegrees>-1.80120536126196384429931640625</LongitudeDegrees>
            </Position>
            <AltitudeMeters>1820.4000244140625</AltitudeMeters>
            <DistanceMeters>446353.7766601</DistanceMeters>
          </Trackpoint>
          <Trackpoint>
            <Time>2021-08-02T11:18:36.000Z</Time>
            <Position>
              <LatitudeDegrees>41.7608488909900188446044921875</LatitudeDegrees>
              <LongitudeDegrees>-1.8014854006469249725341796875</LongitudeDegrees>
            </Position>
            <AltitudeMeters>1821.4000244140625</AltitudeMeters>
            <DistanceMeters>446377.03530988</DistanceMeters>
          </Trackpoint>
          <Trackpoint>
            <Time>2021-08-02T11:19:00.000Z</Time>
            <Position>
              <LatitudeDegrees>41.7607597075402736663818359375</LatitudeDegrees>
              <LongitudeDegrees>-1.80193928070366382598876953125</LongitudeDegrees>
            </Position>
            <AltitudeMeters>1822.4000244140625</AltitudeMeters>
            <DistanceMeters>446416.00344706</DistanceMeters>
          </Trackpoint>
          <Trackpoint>
            <Time>2021-08-02T11:19:16.000Z</Time>
            <Position>
              <LatitudeDegrees>41.76064009778201580047607421875</LatitudeDegrees>
              <LongitudeDegrees>-1.8022568710148334503173828125</LongitudeDegrees>
            </Position>
            <AltitudeMeters>1822.800048828125</AltitudeMeters>
            <DistanceMeters>446445.5410151</DistanceMeters>
          </Trackpoint>
          <Trackpoint>
            <Time>2021-08-02T11:19:21.000Z</Time>
            <Position>
              <LatitudeDegrees>41.7606063187122344970703125</LatitudeDegrees>
              <LongitudeDegrees>-1.80237212218344211578369140625</LongitudeDegrees>
            </Position>
            <AltitudeMeters>1822.5999755859375</AltitudeMeters>
            <DistanceMeters>446455.82148273</DistanceMeters>
          </Trackpoint>
          <Trackpoint>
            <Time>2021-08-02T11:19:35.000Z</Time>
            <Position>
              <LatitudeDegrees>41.7605055682361125946044921875</LatitudeDegrees>
              <LongitudeDegrees>-1.80270932614803314208984375</LongitudeDegrees>
            </Position>
            <AltitudeMeters>1823.199951171875</AltitudeMeters>
            <DistanceMeters>446485.97955461</DistanceMeters>
          </Trackpoint>
          <Trackpoint>
            <Time>2021-08-02T11:19:52.000Z</Time>
            <Position>
              <LatitudeDegrees>41.76039786078035831451416015625</LatitudeDegrees>
              <LongitudeDegrees>-1.80306429974734783172607421875</LongitudeDegrees>
            </Position>
            <AltitudeMeters>1824.4000244140625</AltitudeMeters>
            <DistanceMeters>446517.79577012</DistanceMeters>
          </Trackpoint>
          <Trackpoint>
            <Time>2021-08-02T11:20:04.000Z</Time>
            <Position>
              <LatitudeDegrees>41.7603349126875400543212890625</LatitudeDegrees>
              <LongitudeDegrees>-1.80328558199107646942138671875</LongitudeDegrees>
            </Position>
            <AltitudeMeters>1825.5999755859375</AltitudeMeters>
            <DistanceMeters>446537.45826469</DistanceMeters>
          </Trackpoint>
          <Trackpoint>
            <Time>2021-08-02T11:20:15.000Z</Time>
            <Position>
              <LatitudeDegrees>41.76028420217335224151611328125</LatitudeDegrees>
              <LongitudeDegrees>-1.803505606949329376220703125</LongitudeDegrees>
            </Position>
            <AltitudeMeters>1826.5999755859375</AltitudeMeters>
            <DistanceMeters>446556.57777187</DistanceMeters>
          </Trackpoint>
          <Trackpoint>
            <Time>2021-08-02T11:20:30.000Z</Time>
            <Position>
              <LatitudeDegrees>41.7602175660431385040283203125</LatitudeDegrees>
              <LongitudeDegrees>-1.803812049329280853271484375</LongitudeDegrees>
            </Position>
            <AltitudeMeters>1827.4000244140625</AltitudeMeters>
            <DistanceMeters>446583.07915345</DistanceMeters>
          </Trackpoint>
          <Trackpoint>
            <Time>2021-08-02T11:20:38.000Z</Time>
            <Position>
              <LatitudeDegrees>41.76017959602177143096923828125</LatitudeDegrees>
              <LongitudeDegrees>-1.80395009927451610565185546875</LongitudeDegrees>
            </Position>
            <AltitudeMeters>1828.5999755859375</AltitudeMeters>
            <DistanceMeters>446595.2951693</DistanceMeters>
          </Trackpoint>
          <Trackpoint>
            <Time>2021-08-02T11:20:41.000Z</Time>
            <Position>
              <LatitudeDegrees>41.760165430605411529541015625</LatitudeDegrees>
              <LongitudeDegrees>-1.803999803960323333740234375</LongitudeDegrees>
            </Position>
            <AltitudeMeters>1828.800048828125</AltitudeMeters>
            <DistanceMeters>446599.71161189</DistanceMeters>
          </Trackpoint>
          <Trackpoint>
            <Time>2021-08-02T11:20:49.000Z</Time>
            <Position>
              <LatitudeDegrees>41.76012410782277584075927734375</LatitudeDegrees>
              <LongitudeDegrees>-1.8041441403329372406005859375</LongitudeDegrees>
            </Position>
            <AltitudeMeters>1829.800048828125</AltitudeMeters>
            <DistanceMeters>446612.54760716</DistanceMeters>
          </Trackpoint>
          <Trackpoint>
            <Time>2021-08-02T11:21:00.000Z</Time>
            <Position>
              <LatitudeDegrees>41.760076917707920074462890625</LatitudeDegrees>
              <LongitudeDegrees>-1.80433432571589946746826171875</LongitudeDegrees>
            </Position>
            <AltitudeMeters>1830.800048828125</AltitudeMeters>
            <DistanceMeters>446629.18841016</DistanceMeters>
          </Trackpoint>
          <Trackpoint>
            <Time>2021-08-02T11:21:12.000Z</Time>
            <Position>
              <LatitudeDegrees>41.760043390095233917236328125</LatitudeDegrees>
              <LongitudeDegrees>-1.80455493740737438201904296875</LongitudeDegrees>
            </Position>
            <AltitudeMeters>1831.800048828125</AltitudeMeters>
            <DistanceMeters>446647.88091609</DistanceMeters>
          </Trackpoint>
          <Trackpoint>
            <Time>2021-08-02T11:21:17.000Z</Time>
            <Position>
              <LatitudeDegrees>41.7600351758301258087158203125</LatitudeDegrees>
              <LongitudeDegrees>-1.8046425282955169677734375</LongitudeDegrees>
            </Position>
            <AltitudeMeters>1832.4000244140625</AltitudeMeters>
            <DistanceMeters>446655.21091983</DistanceMeters>
          </Trackpoint>
          <Trackpoint>
            <Time>2021-08-02T11:21:22.000Z</Time>
            <Position>
              <LatitudeDegrees>41.76002763211727142333984375</LatitudeDegrees>
              <LongitudeDegrees>-1.8047271855175495147705078125</LongitudeDegrees>
            </Position>
            <AltitudeMeters>1832.800048828125</AltitudeMeters>
            <DistanceMeters>446662.2902506</DistanceMeters>
          </Trackpoint>
          <Trackpoint>
            <Time>2021-08-02T11:21:31.000Z</Time>
            <Position>
              <LatitudeDegrees>41.760011874139308929443359375</LatitudeDegrees>
              <LongitudeDegrees>-1.80488300509750843048095703125</LongitudeDegrees>
            </Position>
            <AltitudeMeters>1834</AltitudeMeters>
            <DistanceMeters>446675.34596671</DistanceMeters>
          </Trackpoint>
          <Trackpoint>
            <Time>2021-08-02T11:21:40.000Z</Time>
            <Position>
              <LatitudeDegrees>41.7599920928478240966796875</LatitudeDegrees>
              <LongitudeDegrees>-1.80504159070551395416259765625</LongitudeDegrees>
            </Position>
            <AltitudeMeters>1835</AltitudeMeters>
            <DistanceMeters>446688.69544455</DistanceMeters>
          </Trackpoint>
          <Trackpoint>
            <Time>2021-08-02T11:21:47.000Z</Time>
            <Position>
              <LatitudeDegrees>41.759975664317607879638671875</LatitudeDegrees>
              <LongitudeDegrees>-1.8051570095121860504150390625</LongitudeDegrees>
            </Position>
            <AltitudeMeters>1836.199951171875</AltitudeMeters>
            <DistanceMeters>446698.45131487</DistanceMeters>
          </Trackpoint>
          <Trackpoint>
            <Time>2021-08-02T11:21:54.000Z</Time>
            <Position>
              <LatitudeDegrees>41.75996334291994571685791015625</LatitudeDegrees>
              <LongitudeDegrees>-1.805265806615352630615234375</LongitudeDegrees>
            </Position>
            <AltitudeMeters>1837</AltitudeMeters>
            <DistanceMeters>446707.587727</DistanceMeters>
          </Trackpoint>
          <Trackpoint>
            <Time>2021-08-02T11:21:55.000Z</Time>
            <Position>
              <LatitudeDegrees>41.759960241615772247314453125</LatitudeDegrees>
              <LongitudeDegrees>-1.80528131313621997833251953125</LongitudeDegrees>
            </Position>
            <AltitudeMeters>1837</AltitudeMeters>
            <DistanceMeters>446708.9214905</DistanceMeters>
          </Trackpoint>
          <Trackpoint>
            <Time>2021-08-02T11:22:02.000Z</Time>
            <Position>
              <LatitudeDegrees>41.75993777811527252197265625</LatitudeDegrees>
              <LongitudeDegrees>-1.80539614520967006683349609375</LongitudeDegrees>
            </Position>
            <AltitudeMeters>1838</AltitudeMeters>
            <DistanceMeters>446718.77773534</DistanceMeters>
          </Trackpoint>
          <Trackpoint>
            <Time>2021-08-02T11:22:11.000Z</Time>
            <Position>
              <LatitudeDegrees>41.759904921054840087890625</LatitudeDegrees>
              <LongitudeDegrees>-1.8055432476103305816650390625</LongitudeDegrees>
            </Position>
            <AltitudeMeters>1839</AltitudeMeters>
            <DistanceMeters>446731.52690692</DistanceMeters>
          </Trackpoint>
          <Trackpoint>
            <Time>2021-08-02T11:22:19.000Z</Time>
            <Position>
              <LatitudeDegrees>41.75987340509891510009765625</LatitudeDegrees>
              <LongitudeDegrees>-1.80567308329045772552490234375</LongitudeDegrees>
            </Position>
            <AltitudeMeters>1840</AltitudeMeters>
            <DistanceMeters>446742.86300051</DistanceMeters>
          </Trackpoint>
          <Trackpoint>
            <Time>2021-08-02T11:22:28.000Z</Time>
            <Position>
              <LatitudeDegrees>41.7598338425159454345703125</LatitudeDegrees>
              <LongitudeDegrees>-1.80579981766641139984130859375</LongitudeDegrees>
            </Position>
            <AltitudeMeters>1841.199951171875</AltitudeMeters>
            <DistanceMeters>446754.26937335</DistanceMeters>
          </Trackpoint>
          <Trackpoint>
            <Time>2021-08-02T11:22:29.000Z</Time>
            <Position>
              <LatitudeDegrees>41.7598262988030910491943359375</LatitudeDegrees>
              <LongitudeDegrees>-1.8058094568550586700439453125</LongitudeDegrees>
            </Position>
            <AltitudeMeters>1841.199951171875</AltitudeMeters>
            <DistanceMeters>446755.42932222</DistanceMeters>
          </Trackpoint>
          <Trackpoint>
            <Time>2021-08-02T11:22:35.000Z</Time>
            <Position>
              <LatitudeDegrees>41.75975714810192584991455078125</LatitudeDegrees>
              <LongitudeDegrees>-1.80583552457392215728759765625</LongitudeDegrees>
            </Position>
            <AltitudeMeters>1841.5999755859375</AltitudeMeters>
            <DistanceMeters>446763.42400052</DistanceMeters>
          </Trackpoint>
          <Trackpoint>
            <Time>2021-08-02T11:22:44.000Z</Time>
            <Position>
              <LatitudeDegrees>41.7596863210201263427734375</LatitudeDegrees>
              <LongitudeDegrees>-1.80576578713953495025634765625</LongitudeDegrees>
            </Position>
            <AltitudeMeters>1842</AltitudeMeters>
            <DistanceMeters>446773.20529184</DistanceMeters>
          </Trackpoint>
          <Trackpoint>
            <Time>2021-08-02T11:26:48.000Z</Time>
            <Position>
              <LatitudeDegrees>41.7596730776131153106689453125</LatitudeDegrees>
              <LongitudeDegrees>-1.80572186596691608428955078125</LongitudeDegrees>
            </Position>
            <AltitudeMeters>1842</AltitudeMeters>
            <DistanceMeters>446777.13714775</DistanceMeters>
          </Trackpoint>
          <Trackpoint>
            <Time>2021-08-02T11:26:57.000Z</Time>
            <Position>
              <LatitudeDegrees>41.759539805352687835693359375</LatitudeDegrees>
              <LongitudeDegrees>-1.80550946854054927825927734375</LongitudeDegrees>
            </Position>
            <AltitudeMeters>1840.800048828125</AltitudeMeters>
            <DistanceMeters>446800.18068513</DistanceMeters>
          </Trackpoint>
          <Trackpoint>
            <Time>2021-08-02T11:26:58.000Z</Time>
            <Position>
              <LatitudeDegrees>41.759517006576061248779296875</LatitudeDegrees>
              <LongitudeDegrees>-1.80546755902469158172607421875</LongitudeDegrees>
            </Position>
            <AltitudeMeters>1840.5999755859375</AltitudeMeters>
            <DistanceMeters>446804.48739815</DistanceMeters>
          </Trackpoint>
          <Trackpoint>
            <Time>2021-08-02T11:27:00.000Z</Time>
            <Position>
              <LatitudeDegrees>41.7594635300338268280029296875</LatitudeDegrees>
              <LongitudeDegrees>-1.8053720891475677490234375</LongitudeDegrees>
            </Position>
            <AltitudeMeters>1839.5999755859375</AltitudeMeters>
            <DistanceMeters>446814.39982781</DistanceMeters>
          </Trackpoint>
          <Trackpoint>
            <Time>2021-08-02T11:27:02.000Z</Time>
            <Position>
              <LatitudeDegrees>41.75939806737005710601806640625</LatitudeDegrees>
              <LongitudeDegrees>-1.80526672862470149993896484375</LongitudeDegrees>
            </Position>
            <AltitudeMeters>1838.5999755859375</AltitudeMeters>
            <DistanceMeters>446825.78440893</DistanceMeters>
          </Trackpoint>
          <Trackpoint>
            <Time>2021-08-02T11:27:03.000Z</Time>
            <Position>
              <LatitudeDegrees>41.75936252810060977935791015625</LatitudeDegrees>
              <LongitudeDegrees>-1.80521073751151561737060546875</LongitudeDegrees>
            </Position>
            <AltitudeMeters>1838.4000244140625</AltitudeMeters>
            <DistanceMeters>446831.8883499</DistanceMeters>
          </Trackpoint>
          <Trackpoint>
            <Time>2021-08-02T11:27:07.000Z</Time>
            <Position>
              <LatitudeDegrees>41.75922975875437259674072265625</LatitudeDegrees>
              <LongitudeDegrees>-1.80497436784207820892333984375</LongitudeDegrees>
            </Position>
            <AltitudeMeters>1837.199951171875</AltitudeMeters>
            <DistanceMeters>446856.45454759</DistanceMeters>
          </Trackpoint>
          <Trackpoint>
            <Time>2021-08-02T11:27:12.000Z</Time>
            <Position>
              <LatitudeDegrees>41.75906865857541561126708984375</LatitudeDegrees>
              <LongitudeDegrees>-1.80467077530920505523681640625</LongitudeDegrees>
            </Position>
            <AltitudeMeters>1836.199951171875</AltitudeMeters>
            <DistanceMeters>446887.38775015</DistanceMeters>
          </Trackpoint>
          <Trackpoint>
            <Time>2021-08-02T11:27:17.000Z</Time>
            <Position>
              <LatitudeDegrees>41.758933626115322113037109375</LatitudeDegrees>
              <LongitudeDegrees>-1.80430130101740360260009765625</LongitudeDegrees>
            </Position>
            <AltitudeMeters>1834.5999755859375</AltitudeMeters>
            <DistanceMeters>446921.54770621</DistanceMeters>
          </Trackpoint>
          <Trackpoint>
            <Time>2021-08-02T11:27:19.000Z</Time>
            <Position>
              <LatitudeDegrees>41.75889146514236927032470703125</LatitudeDegrees>
              <LongitudeDegrees>-1.80413089692592620849609375</LongitudeDegrees>
            </Position>
            <AltitudeMeters>1833.4000244140625</AltitudeMeters>
            <DistanceMeters>446936.45388148</DistanceMeters>
          </Trackpoint>
          <Trackpoint>
            <Time>2021-08-02T11:27:22.000Z</Time>
            <Position>
              <LatitudeDegrees>41.75882340408861637115478515625</LatitudeDegrees>
              <LongitudeDegrees>-1.8038713932037353515625</LongitudeDegrees>
            </Position>
            <AltitudeMeters>1832</AltitudeMeters>
            <DistanceMeters>446959.29234192</DistanceMeters>
          </Trackpoint>
          <Trackpoint>
            <Time>2021-08-02T11:27:26.000Z</Time>
            <Position>
              <LatitudeDegrees>41.75870572216808795928955078125</LatitudeDegrees>
              <LongitudeDegrees>-1.80352563969790935516357421875</LongitudeDegrees>
            </Position>
            <AltitudeMeters>1831</AltitudeMeters>
            <DistanceMeters>446990.84593345</DistanceMeters>
          </Trackpoint>
          <Trackpoint>
            <Time>2021-08-02T11:27:35.000Z</Time>
            <Position>
              <LatitudeDegrees>41.75839810632169246673583984375</LatitudeDegrees>
              <LongitudeDegrees>-1.80285525508224964141845703125</LongitudeDegrees>
            </Position>
            <AltitudeMeters>1830.5999755859375</AltitudeMeters>
            <DistanceMeters>447056.1932285</DistanceMeters>
          </Trackpoint>
          <Trackpoint>
            <Time>2021-08-02T11:27:39.000Z</Time>
            <Position>
              <LatitudeDegrees>41.7582850344479084014892578125</LatitudeDegrees>
              <LongitudeDegrees>-1.80265945382416248321533203125</LongitudeDegrees>
            </Position>
            <AltitudeMeters>1832.199951171875</AltitudeMeters>
            <DistanceMeters>447076.75196771</DistanceMeters>
          </Trackpoint>
          <Trackpoint>
            <Time>2021-08-02T11:27:53.000Z</Time>
            <Position>
              <LatitudeDegrees>41.757946908473968505859375</LatitudeDegrees>
              <LongitudeDegrees>-1.80211546830832958221435546875</LongitudeDegrees>
            </Position>
            <AltitudeMeters>1832</AltitudeMeters>
            <DistanceMeters>447135.541871</DistanceMeters>
          </Trackpoint>
          <Trackpoint>
            <Time>2021-08-02T11:28:08.000Z</Time>
            <Position>
              <LatitudeDegrees>41.75759947858750820159912109375</LatitudeDegrees>
              <LongitudeDegrees>-1.80155999958515167236328125</LongitudeDegrees>
            </Position>
            <AltitudeMeters>1831.199951171875</AltitudeMeters>
            <DistanceMeters>447195.72762401</DistanceMeters>
          </Trackpoint>
          <Trackpoint>
            <Time>2021-08-02T11:28:21.000Z</Time>
            <Position>
              <LatitudeDegrees>41.75729940645396709442138671875</LatitudeDegrees>
              <LongitudeDegrees>-1.801135204732418060302734375</LongitudeDegrees>
            </Position>
            <AltitudeMeters>1830.800048828125</AltitudeMeters>
            <DistanceMeters>447244.30161451</DistanceMeters>
          </Trackpoint>
          <Trackpoint>
            <Time>2021-08-02T11:28:25.000Z</Time>
            <Position>
              <LatitudeDegrees>41.7571853287518024444580078125</LatitudeDegrees>
              <LongitudeDegrees>-1.8009972386062145233154296875</LongitudeDegrees>
            </Position>
            <AltitudeMeters>1829.800048828125</AltitudeMeters>
            <DistanceMeters>447261.40219917</DistanceMeters>
          </Trackpoint>
          <Trackpoint>
            <Time>2021-08-02T11:28:26.000Z</Time>
            <Position>
              <LatitudeDegrees>41.75715590827167034149169921875</LatitudeDegrees>
              <LongitudeDegrees>-1.80095725692808628082275390625</LongitudeDegrees>
            </Position>
            <AltitudeMeters>1829.800048828125</AltitudeMeters>
            <DistanceMeters>447266.06529086</DistanceMeters>
          </Trackpoint>
          <Trackpoint>
            <Time>2021-08-02T11:28:29.000Z</Time>
            <Position>
              <LatitudeDegrees>41.7570616118609905242919921875</LatitudeDegrees>
              <LongitudeDegrees>-1.80082314647734165191650390625</LongitudeDegrees>
            </Position>
            <AltitudeMeters>1828.5999755859375</AltitudeMeters>
            <DistanceMeters>447281.36724767</DistanceMeters>
          </Trackpoint>
          <Trackpoint>
            <Time>2021-08-02T11:28:34.000Z</Time>
            <Position>
              <LatitudeDegrees>41.75688408315181732177734375</LatitudeDegrees>
              <LongitudeDegrees>-1.8006029538810253143310546875</LongitudeDegrees>
            </Position>
            <AltitudeMeters>1827.4000244140625</AltitudeMeters>
            <DistanceMeters>447308.28699255</DistanceMeters>
          </Trackpoint>
          <Trackpoint>
            <Time>2021-08-02T11:28:40.000Z</Time>
            <Position>
              <LatitudeDegrees>41.75663421861827373504638671875</LatitudeDegrees>
              <LongitudeDegrees>-1.80041243322193622589111328125</LongitudeDegrees>
            </Position>
            <AltitudeMeters>1826.800048828125</AltitudeMeters>
            <DistanceMeters>447340.28151498</DistanceMeters>
          </Trackpoint>
          <Trackpoint>
            <Time>2021-08-02T11:28:41.000Z</Time>
            <Position>
              <LatitudeDegrees>41.75658945925533771514892578125</LatitudeDegrees>
              <LongitudeDegrees>-1.8003873713314533233642578125</LongitudeDegrees>
            </Position>
            <AltitudeMeters>1826.5999755859375</AltitudeMeters>
            <DistanceMeters>447345.68134061</DistanceMeters>
          </Trackpoint>
          <Trackpoint>
            <Time>2021-08-02T11:28:45.000Z</Time>
            <Position>
              <LatitudeDegrees>41.7563950829207897186279296875</LatitudeDegrees>
              <LongitudeDegrees>-1.80028997361660003662109375</LongitudeDegrees>
            </Position>
            <AltitudeMeters>1826.199951171875</AltitudeMeters>
            <DistanceMeters>447368.77771989</DistanceMeters>
          </Trackpoint>
          <Trackpoint>
            <Time>2021-08-02T11:28:47.000Z</Time>
            <Position>
              <LatitudeDegrees>41.75629357807338237762451171875</LatitudeDegrees>
              <LongitudeDegrees>-1.8002468906342983245849609375</LongitudeDegrees>
            </Position>
            <AltitudeMeters>1824.800048828125</AltitudeMeters>
            <DistanceMeters>447380.6282789</DistanceMeters>
          </Trackpoint>
          <Trackpoint>
            <Time>2021-08-02T11:28:50.000Z</Time>
            <Position>
              <LatitudeDegrees>41.756134070456027984619140625</LatitudeDegrees>
              <LongitudeDegrees>-1.800186373293399810791015625</LongitudeDegrees>
            </Position>
            <AltitudeMeters>1823.800048828125</AltitudeMeters>
            <DistanceMeters>447399.07937405</DistanceMeters>
          </Trackpoint>
          <Trackpoint>
            <Time>2021-08-02T11:28:52.000Z</Time>
            <Position>
              <LatitudeDegrees>41.75601982511579990386962890625</LatitudeDegrees>
              <LongitudeDegrees>-1.80015058256685733795166015625</LongitudeDegrees>
            </Position>
            <AltitudeMeters>1822.800048828125</AltitudeMeters>
            <DistanceMeters>447412.13785649</DistanceMeters>
          </Trackpoint>
          <Trackpoint>
            <Time>2021-08-02T11:28:54.000Z</Time>
            <Position>
              <LatitudeDegrees>41.7559005506336688995361328125</LatitudeDegrees>
              <LongitudeDegrees>-1.80012635886669158935546875</LongitudeDegrees>
            </Position>
            <AltitudeMeters>1821.800048828125</AltitudeMeters>
            <DistanceMeters>447425.56456294</DistanceMeters>
          </Trackpoint>
          <Trackpoint>
            <Time>2021-08-02T11:28:55.000Z</Time>
            <Position>
              <LatitudeDegrees>41.75584062002599239349365234375</LatitudeDegrees>
              <LongitudeDegrees>-1.80012225173413753509521484375</LongitudeDegrees>
            </Position>
            <AltitudeMeters>1821.5999755859375</AltitudeMeters>
            <DistanceMeters>447432.24352825</DistanceMeters>
          </Trackpoint>
          <Trackpoint>
            <Time>2021-08-02T11:29:00.000Z</Time>
            <Position>
              <LatitudeDegrees>41.75554624758660793304443359375</LatitudeDegrees>
              <LongitudeDegrees>-1.80013499222695827484130859375</LongitudeDegrees>
            </Position>
            <AltitudeMeters>1820.4000244140625</AltitudeMeters>
            <DistanceMeters>447465.02485246</DistanceMeters>
          </Trackpoint>
          <Trackpoint>
            <Time>2021-08-02T11:29:08.000Z</Time>
            <Position>
              <LatitudeDegrees>41.75508457235991954803466796875</LatitudeDegrees>
              <LongitudeDegrees>-1.80018176324665546417236328125</LongitudeDegrees>
            </Position>
            <AltitudeMeters>1819.4000244140625</AltitudeMeters>
            <DistanceMeters>447516.55676287</DistanceMeters>
          </Trackpoint>
          <Trackpoint>
            <Time>2021-08-02T11:29:19.000Z</Time>
            <Position>
              <LatitudeDegrees>41.7545185424387454986572265625</LatitudeDegrees>
              <LongitudeDegrees>-1.8002059869468212127685546875</LongitudeDegrees>
            </Position>
            <AltitudeMeters>1819.4000244140625</AltitudeMeters>
            <DistanceMeters>447579.58906486</DistanceMeters>
          </Trackpoint>
          <Trackpoint>
            <Time>2021-08-02T11:29:20.000Z</Time>
            <Position>
              <LatitudeDegrees>41.7544828355312347412109375</LatitudeDegrees>
              <LongitudeDegrees>-1.800203137099742889404296875</LongitudeDegrees>
            </Position>
            <AltitudeMeters>1819.5999755859375</AltitudeMeters>
            <DistanceMeters>447583.57112642</DistanceMeters>
          </Trackpoint>
          <Trackpoint>
            <Time>2021-08-02T11:29:27.000Z</Time>
            <Position>
              <LatitudeDegrees>41.7542365752160549163818359375</LatitudeDegrees>
              <LongitudeDegrees>-1.80009392090141773223876953125</LongitudeDegrees>
            </Position>
            <AltitudeMeters>1818</AltitudeMeters>
            <DistanceMeters>447612.44173736</DistanceMeters>
          </Trackpoint>
          <Trackpoint>
            <Time>2021-08-02T11:29:30.000Z</Time>
            <Position>
              <LatitudeDegrees>41.75410355441272258758544921875</LatitudeDegrees>
              <LongitudeDegrees>-1.80000691674649715423583984375</LongitudeDegrees>
            </Position>
            <AltitudeMeters>1816.5999755859375</AltitudeMeters>
            <DistanceMeters>447628.9159277</DistanceMeters>
          </Trackpoint>
          <Trackpoint>
            <Time>2021-08-02T11:29:32.000Z</Time>
            <Position>
              <LatitudeDegrees>41.75400230102241039276123046875</LatitudeDegrees>
              <LongitudeDegrees>-1.79992854595184326171875</LongitudeDegrees>
            </Position>
            <AltitudeMeters>1815</AltitudeMeters>
            <DistanceMeters>447641.92938434</DistanceMeters>
          </Trackpoint>
          <Trackpoint>
            <Time>2021-08-02T11:29:34.000Z</Time>
            <Position>
              <LatitudeDegrees>41.75389534793794155120849609375</LatitudeDegrees>
              <LongitudeDegrees>-1.79983173497021198272705078125</LongitudeDegrees>
            </Position>
            <AltitudeMeters>1813.199951171875</AltitudeMeters>
            <DistanceMeters>447656.29382817</DistanceMeters>
          </Trackpoint>
          <Trackpoint>
            <Time>2021-08-02T11:29:36.000Z</Time>
            <Position>
              <LatitudeDegrees>41.75379208289086818695068359375</LatitudeDegrees>
              <LongitudeDegrees>-1.799725033342838287353515625</LongitudeDegrees>
            </Position>
            <AltitudeMeters>1812</AltitudeMeters>
            <DistanceMeters>447670.80618404</DistanceMeters>
          </Trackpoint>
          <Trackpoint>
            <Time>2021-08-02T11:29:38.000Z</Time>
            <Position>
              <LatitudeDegrees>41.75369359552860260009765625</LatitudeDegrees>
              <LongitudeDegrees>-1.79960106499493122100830078125</LongitudeDegrees>
            </Position>
            <AltitudeMeters>1811</AltitudeMeters>
            <DistanceMeters>447685.84324207</DistanceMeters>
          </Trackpoint>
          <Trackpoint>
            <Time>2021-08-02T11:29:40.000Z</Time>
            <Position>
              <LatitudeDegrees>41.75359904766082763671875</LatitudeDegrees>
              <LongitudeDegrees>-1.79946293123066425323486328125</LongitudeDegrees>
            </Position>
            <AltitudeMeters>1809.4000244140625</AltitudeMeters>
            <DistanceMeters>447701.40936045</DistanceMeters>
          </Trackpoint>
          <Trackpoint>
            <Time>2021-08-02T11:29:41.000Z</Time>
            <Position>
              <LatitudeDegrees>41.75355269573628902435302734375</LatitudeDegrees>
              <LongitudeDegrees>-1.799386404454708099365234375</LongitudeDegrees>
            </Position>
            <AltitudeMeters>1808.199951171875</AltitudeMeters>
            <DistanceMeters>447709.59490669</DistanceMeters>
          </Trackpoint>
          <Trackpoint>
            <Time>2021-08-02T11:29:43.000Z</Time>
            <Position>
              <LatitudeDegrees>41.75346854142844676971435546875</LatitudeDegrees>
              <LongitudeDegrees>-1.7992236278951168060302734375</LongitudeDegrees>
            </Position>
            <AltitudeMeters>1806.4000244140625</AltitudeMeters>
            <DistanceMeters>447726.03892198</DistanceMeters>
          </Trackpoint>
          <Trackpoint>
            <Time>2021-08-02T11:29:45.000Z</Time>
            <Position>
              <LatitudeDegrees>41.75339092500507831573486328125</LatitudeDegrees>
              <LongitudeDegrees>-1.799063198268413543701171875</LongitudeDegrees>
            </Position>
            <AltitudeMeters>1804.199951171875</AltitudeMeters>
            <DistanceMeters>447741.91577885</DistanceMeters>
          </Trackpoint>
          <Trackpoint>
            <Time>2021-08-02T11:29:46.000Z</Time>
            <Position>
              <LatitudeDegrees>41.75335220061242580413818359375</LatitudeDegrees>
              <LongitudeDegrees>-1.79897435009479522705078125</LongitudeDegrees>
            </Position>
            <AltitudeMeters>1803.199951171875</AltitudeMeters>
            <DistanceMeters>447750.45920368</DistanceMeters>
          </Trackpoint>
          <Trackpoint>
            <Time>2021-08-02T11:29:48.000Z</Time>
            <Position>
              <LatitudeDegrees>41.7532785236835479736328125</LatitudeDegrees>
              <LongitudeDegrees>-1.7987891100347042083740234375</LongitudeDegrees>
            </Position>
            <AltitudeMeters>1801.800048828125</AltitudeMeters>
            <DistanceMeters>447767.88980757</DistanceMeters>
          </Trackpoint>
          <Trackpoint>
            <Time>2021-08-02T11:29:51.000Z</Time>
            <Position>
              <LatitudeDegrees>41.753175258636474609375</LatitudeDegrees>
              <LongitudeDegrees>-1.798523403704166412353515625</LongitudeDegrees>
            </Position>
            <AltitudeMeters>1800.4000244140625</AltitudeMeters>
            <DistanceMeters>447792.76685039</DistanceMeters>
          </Trackpoint>
          <Trackpoint>
            <Time>2021-08-02T11:29:53.000Z</Time>
            <Position>
              <LatitudeDegrees>41.7531077004969120025634765625</LatitudeDegrees>
              <LongitudeDegrees>-1.7983418516814708709716796875</LongitudeDegrees>
            </Position>
            <AltitudeMeters>1799.4000244140625</AltitudeMeters>
            <DistanceMeters>447809.61313314</DistanceMeters>
          </Trackpoint>
          <Trackpoint>
            <Time>2021-08-02T11:29:55.000Z</Time>
            <Position>
              <LatitudeDegrees>41.753042154014110565185546875</LatitudeDegrees>
              <LongitudeDegrees>-1.79815149866044521331787109375</LongitudeDegrees>
            </Position>
            <AltitudeMeters>1798.199951171875</AltitudeMeters>
            <DistanceMeters>447827.02092752</DistanceMeters>
          </Trackpoint>
          <Trackpoint>
            <Time>2021-08-02T11:29:57.000Z</Time>
            <Position>
              <LatitudeDegrees>41.752987168729305267333984375</LatitudeDegrees>
              <LongitudeDegrees>-1.79795217700302600860595703125</LongitudeDegrees>
            </Position>
            <AltitudeMeters>1796.5999755859375</AltitudeMeters>
            <DistanceMeters>447844.66675127</DistanceMeters>
          </Trackpoint>
          <Trackpoint>
            <Time>2021-08-02T11:29:58.000Z</Time>
            <Position>
              <LatitudeDegrees>41.75296177156269550323486328125</LatitudeDegrees>
              <LongitudeDegrees>-1.79785142652690410614013671875</LongitudeDegrees>
            </Position>
            <AltitudeMeters>1796.199951171875</AltitudeMeters>
            <DistanceMeters>447853.49708026</DistanceMeters>
          </Trackpoint>
          <Trackpoint>
            <Time>2021-08-02T11:29:59.000Z</Time>
            <Position>
              <LatitudeDegrees>41.752936542034149169921875</LatitudeDegrees>
              <LongitudeDegrees>-1.79774883203208446502685546875</LongitudeDegrees>
            </Position>
            <AltitudeMeters>1795.4000244140625</AltitudeMeters>
            <DistanceMeters>447862.4674209</DistanceMeters>
          </Trackpoint>
          <Trackpoint>
            <Time>2021-08-02T11:30:01.000Z</Time>
            <Position>
              <LatitudeDegrees>41.75288868136703968048095703125</LatitudeDegrees>
              <LongitudeDegrees>-1.7975425533950328826904296875</LongitudeDegrees>
            </Position>
            <AltitudeMeters>1794</AltitudeMeters>
            <DistanceMeters>447880.40483024</DistanceMeters>
          </Trackpoint>
          <Trackpoint>
            <Time>2021-08-02T11:30:04.000Z</Time>
            <Position>
              <LatitudeDegrees>41.75281894393265247344970703125</LatitudeDegrees>
              <LongitudeDegrees>-1.79724834859371185302734375</LongitudeDegrees>
            </Position>
            <AltitudeMeters>1792.800048828125</AltitudeMeters>
            <DistanceMeters>447906.03739473</DistanceMeters>
          </Trackpoint>
          <Trackpoint>
            <Time>2021-08-02T11:30:07.000Z</Time>
            <Position>
              <LatitudeDegrees>41.75276446156203746795654296875</LatitudeDegrees>
              <LongitudeDegrees>-1.7969668842852115631103515625</LongitudeDegrees>
            </Position>
            <AltitudeMeters>1791.4000244140625</AltitudeMeters>
            <DistanceMeters>447930.18240943</DistanceMeters>
          </Trackpoint>
          <Trackpoint>
            <Time>2021-08-02T11:30:16.000Z</Time>
            <Position>
              <LatitudeDegrees>41.75263420678675174713134765625</LatitudeDegrees>
              <LongitudeDegrees>-1.79623103700578212738037109375</LongitudeDegrees>
            </Position>
            <AltitudeMeters>1791.800048828125</AltitudeMeters>
            <DistanceMeters>447992.97932372</DistanceMeters>
          </Trackpoint>
          <Trackpoint>
            <Time>2021-08-02T11:30:19.000Z</Time>
            <Position>
              <LatitudeDegrees>41.752595566213130950927734375</LatitudeDegrees>
              <LongitudeDegrees>-1.7960465513169765472412109375</LongitudeDegrees>
            </Position>
            <AltitudeMeters>1792.4000244140625</AltitudeMeters>
            <DistanceMeters>448008.89055318</DistanceMeters>
          </Trackpoint>
          <Trackpoint>
            <Time>2021-08-02T11:30:33.000Z</Time>
            <Position>
              <LatitudeDegrees>41.75231762230396270751953125</LatitudeDegrees>
              <LongitudeDegrees>-1.79538421332836151123046875</LongitudeDegrees>
            </Position>
            <AltitudeMeters>1792</AltitudeMeters>
            <DistanceMeters>448071.99115371</DistanceMeters>
          </Trackpoint>
          <Trackpoint>
            <Time>2021-08-02T11:30:35.000Z</Time>
            <Position>
              <LatitudeDegrees>41.75226188264787197113037109375</LatitudeDegrees>
              <LongitudeDegrees>-1.7952978797256946563720703125</LongitudeDegrees>
            </Position>
            <AltitudeMeters>1791.800048828125</AltitudeMeters>
            <DistanceMeters>448081.47194381</DistanceMeters>
          </Trackpoint>
          <Trackpoint>
            <Time>2021-08-02T11:30:37.000Z</Time>
            <Position>
              <LatitudeDegrees>41.75219566561281681060791015625</LatitudeDegrees>
              <LongitudeDegrees>-1.79521397687494754791259765625</LongitudeDegrees>
            </Position>
            <AltitudeMeters>1791.199951171875</AltitudeMeters>
            <DistanceMeters>448091.61356945</DistanceMeters>
          </Trackpoint>
          <Trackpoint>
            <Time>2021-08-02T11:30:43.000Z</Time>
            <Position>
              <LatitudeDegrees>41.7519546858966350555419921875</LatitudeDegrees>
              <LongitudeDegrees>-1.79498163051903247833251953125</LongitudeDegrees>
            </Position>
            <AltitudeMeters>1790</AltitudeMeters>
            <DistanceMeters>448124.65295188</DistanceMeters>
          </Trackpoint>
          <Trackpoint>
            <Time>2021-08-02T11:30:47.000Z</Time>
            <Position>
              <LatitudeDegrees>41.75179182551801204681396484375</LatitudeDegrees>
              <LongitudeDegrees>-1.7948377132415771484375</LongitudeDegrees>
            </Position>
            <AltitudeMeters>1788.800048828125</AltitudeMeters>
            <DistanceMeters>448146.36442466</DistanceMeters>
          </Trackpoint>
          <Trackpoint>
            <Time>2021-08-02T11:30:50.000Z</Time>
            <Position>
              <LatitudeDegrees>41.75166710279881954193115234375</LatitudeDegrees>
              <LongitudeDegrees>-1.79473268799483776092529296875</LongitudeDegrees>
            </Position>
            <AltitudeMeters>1787.4000244140625</AltitudeMeters>
            <DistanceMeters>448162.75811659</DistanceMeters>
          </Trackpoint>
          <Trackpoint>
            <Time>2021-08-02T11:30:53.000Z</Time>
            <Position>
              <LatitudeDegrees>41.75152771174907684326171875</LatitudeDegrees>
              <LongitudeDegrees>-1.79462925530970096588134765625</LongitudeDegrees>
            </Position>
            <AltitudeMeters>1786.199951171875</AltitudeMeters>
            <DistanceMeters>448180.49148661</DistanceMeters>
          </Trackpoint>
          <Trackpoint>
            <Time>2021-08-02T11:30:56.000Z</Time>
            <Position>
              <LatitudeDegrees>41.7513800226151943206787109375</LatitudeDegrees>
              <LongitudeDegrees>-1.79453319869935512542724609375</LongitudeDegrees>
            </Position>
            <AltitudeMeters>1784.800048828125</AltitudeMeters>
            <DistanceMeters>448198.76282827</DistanceMeters>
          </Trackpoint>
          <Trackpoint>
            <Time>2021-08-02T11:30:58.000Z</Time>
            <Position>
              <LatitudeDegrees>41.7512740753591060638427734375</LatitudeDegrees>
              <LongitudeDegrees>-1.79448123089969158172607421875</LongitudeDegrees>
            </Position>
            <AltitudeMeters>1783.5999755859375</AltitudeMeters>
            <DistanceMeters>448211.31966565</DistanceMeters>
          </Trackpoint>
          <Trackpoint>
            <Time>2021-08-02T11:31:00.000Z</Time>
            <Position>
              <LatitudeDegrees>41.751169301569461822509765625</LatitudeDegrees>
              <LongitudeDegrees>-1.7944429256021976470947265625</LongitudeDegrees>
            </Position>
            <AltitudeMeters>1782.5999755859375</AltitudeMeters>
            <DistanceMeters>448223.40712348</DistanceMeters>
          </Trackpoint>
          <Trackpoint>
            <Time>2021-08-02T11:31:02.000Z</Time>
            <Position>
              <LatitudeDegrees>41.751050613820552825927734375</LatitudeDegrees>
              <LongitudeDegrees>-1.79442188702523708343505859375</LongitudeDegrees>
            </Position>
            <AltitudeMeters>1781.800048828125</AltitudeMeters>
            <DistanceMeters>448236.73256618</DistanceMeters>
          </Trackpoint>
          <Trackpoint>
            <Time>2021-08-02T11:31:03.000Z</Time>
            <Position>
              <LatitudeDegrees>41.75098548643290996551513671875</LatitudeDegrees>
              <LongitudeDegrees>-1.79442104883491992950439453125</LongitudeDegrees>
            </Position>
            <AltitudeMeters>1781.4000244140625</AltitudeMeters>
            <DistanceMeters>448243.98205202</DistanceMeters>
          </Trackpoint>
          <Trackpoint>
            <Time>2021-08-02T11:31:07.000Z</Time>
            <Position>
              <LatitudeDegrees>41.7507331073284149169921875</LatitudeDegrees>
              <LongitudeDegrees>-1.79448424838483333587646484375</LongitudeDegrees>
            </Position>
            <AltitudeMeters>1780.4000244140625</AltitudeMeters>
            <DistanceMeters>448272.55840366</DistanceMeters>
          </Trackpoint>
          <Trackpoint>
            <Time>2021-08-02T11:31:08.000Z</Time>
            <Position>
              <LatitudeDegrees>41.7506742663681507110595703125</LatitudeDegrees>
              <LongitudeDegrees>-1.79450981318950653076171875</LongitudeDegrees>
            </Position>
            <AltitudeMeters>1780</AltitudeMeters>
            <DistanceMeters>448279.44308747</DistanceMeters>
          </Trackpoint>
          <Trackpoint>
            <Time>2021-08-02T11:31:12.000Z</Time>
            <Position>
              <LatitudeDegrees>41.75044049508869647979736328125</LatitudeDegrees>
              <LongitudeDegrees>-1.79463579319417476654052734375</LongitudeDegrees>
            </Position>
            <AltitudeMeters>1779.199951171875</AltitudeMeters>
            <DistanceMeters>448307.4865963</DistanceMeters>
          </Trackpoint>
          <Trackpoint>
            <Time>2021-08-02T11:31:15.000Z</Time>
            <Position>
              <LatitudeDegrees>41.7502638883888721466064453125</LatitudeDegrees>
              <LongitudeDegrees>-1.79475925862789154052734375</LongitudeDegrees>
            </Position>
            <AltitudeMeters>1778</AltitudeMeters>
            <DistanceMeters>448329.65655483</DistanceMeters>
          </Trackpoint>
          <Trackpoint>
            <Time>2021-08-02T11:31:17.000Z</Time>
            <Position>
              <LatitudeDegrees>41.75013824366033077239990234375</LatitudeDegrees>
              <LongitudeDegrees>-1.7948529683053493499755859375</LongitudeDegrees>
            </Position>
            <AltitudeMeters>1776.4000244140625</AltitudeMeters>
            <DistanceMeters>448345.66002408</DistanceMeters>
          </Trackpoint>
          <Trackpoint>
            <Time>2021-08-02T11:31:19.000Z</Time>
            <Position>
              <LatitudeDegrees>41.75000228919088840484619140625</LatitudeDegrees>
              <LongitudeDegrees>-1.7949465103447437286376953125</LongitudeDegrees>
            </Position>
            <AltitudeMeters>1775.4000244140625</AltitudeMeters>
            <DistanceMeters>448362.66900962</DistanceMeters>
          </Trackpoint>
          <Trackpoint>
            <Time>2021-08-02T11:31:21.000Z</Time>
            <Position>
              <LatitudeDegrees>41.7498635686933994293212890625</LatitudeDegrees>
              <LongitudeDegrees>-1.7950350232422351837158203125</LongitudeDegrees>
            </Position>
            <AltitudeMeters>1774</AltitudeMeters>
            <DistanceMeters>448379.76906621</DistanceMeters>
          </Trackpoint>
          <Trackpoint>
            <Time>2021-08-02T11:31:24.000Z</Time>
            <Position>
              <LatitudeDegrees>41.7496533505618572235107421875</LatitudeDegrees>
              <LongitudeDegrees>-1.795155219733715057373046875</LongitudeDegrees>
            </Position>
            <AltitudeMeters>1772.800048828125</AltitudeMeters>
            <DistanceMeters>448405.20677872</DistanceMeters>
          </Trackpoint>
          <Trackpoint>
            <Time>2021-08-02T11:31:30.000Z</Time>
            <Position>
              <LatitudeDegrees>41.74924573861062526702880859375</LatitudeDegrees>
              <LongitudeDegrees>-1.79541866295039653778076171875</LongitudeDegrees>
            </Position>
            <AltitudeMeters>1771.5999755859375</AltitudeMeters>
            <DistanceMeters>448455.5736267</DistanceMeters>
          </Trackpoint>
          <Trackpoint>
            <Time>2021-08-02T11:31:39.000Z</Time>
            <Position>
              <LatitudeDegrees>41.74879722297191619873046875</LatitudeDegrees>
              <LongitudeDegrees>-1.7958755604922771453857421875</LongitudeDegrees>
            </Position>
            <AltitudeMeters>1771.4000244140625</AltitudeMeters>
            <DistanceMeters>448518.27563442</DistanceMeters>
          </Trackpoint>
          <Trackpoint>
            <Time>2021-08-02T11:31:49.000Z</Time>
            <Position>
              <LatitudeDegrees>41.7484108172357082366943359375</LatitudeDegrees>
              <LongitudeDegrees>-1.79641476832330226898193359375</LongitudeDegrees>
            </Position>
            <AltitudeMeters>1771</AltitudeMeters>
            <DistanceMeters>448580.36030395</DistanceMeters>
          </Trackpoint>
          <Trackpoint>
            <Time>2021-08-02T11:31:51.000Z</Time>
            <Position>
              <LatitudeDegrees>41.74836144782602787017822265625</LatitudeDegrees>
              <LongitudeDegrees>-1.79654787294566631317138671875</LongitudeDegrees>
            </Position>
            <AltitudeMeters>1770.5999755859375</AltitudeMeters>
            <DistanceMeters>448592.70353893</DistanceMeters>
          </Trackpoint>
          <Trackpoint>
            <Time>2021-08-02T11:31:57.000Z</Time>
            <Position>
              <LatitudeDegrees>41.74822767265141010284423828125</LatitudeDegrees>
              <LongitudeDegrees>-1.79694123566150665283203125</LongitudeDegrees>
            </Position>
            <AltitudeMeters>1769.5999755859375</AltitudeMeters>
            <DistanceMeters>448628.60175907</DistanceMeters>
          </Trackpoint>
          <Trackpoint>
            <Time>2021-08-02T11:32:00.000Z</Time>
            <Position>
              <LatitudeDegrees>41.74817151390016078948974609375</LatitudeDegrees>
              <LongitudeDegrees>-1.79715153761208057403564453125</LongitudeDegrees>
            </Position>
            <AltitudeMeters>1768.5999755859375</AltitudeMeters>
            <DistanceMeters>448647.15023374</DistanceMeters>
          </Trackpoint>
          <Trackpoint>
            <Time>2021-08-02T11:32:04.000Z</Time>
            <Position>
              <LatitudeDegrees>41.7481104098260402679443359375</LatitudeDegrees>
              <LongitudeDegrees>-1.79744758643209934234619140625</LongitudeDegrees>
            </Position>
            <AltitudeMeters>1767.4000244140625</AltitudeMeters>
            <DistanceMeters>448672.65778297</DistanceMeters>
          </Trackpoint>
          <Trackpoint>
            <Time>2021-08-02T11:32:07.000Z</Time>
            <Position>
              <LatitudeDegrees>41.7480597831308841705322265625</LatitudeDegrees>
              <LongitudeDegrees>-1.79766811430454254150390625</LongitudeDegrees>
            </Position>
            <AltitudeMeters>1766</AltitudeMeters>
            <DistanceMeters>448691.8178646</DistanceMeters>
          </Trackpoint>
          <Trackpoint>
            <Time>2021-08-02T11:32:08.000Z</Time>
            <Position>
              <LatitudeDegrees>41.7480373196303844451904296875</LatitudeDegrees>
              <LongitudeDegrees>-1.797738857567310333251953125</LongitudeDegrees>
            </Position>
            <AltitudeMeters>1765</AltitudeMeters>
            <DistanceMeters>448698.20235871</DistanceMeters>
          </Trackpoint>
          <Trackpoint>
            <Time>2021-08-02T11:32:10.000Z</Time>
            <Position>
              <LatitudeDegrees>41.747989542782306671142578125</LatitudeDegrees>
              <LongitudeDegrees>-1.79787933826446533203125</LongitudeDegrees>
            </Position>
            <AltitudeMeters>1763.4000244140625</AltitudeMeters>
            <DistanceMeters>448711.02286772</DistanceMeters>
          </Trackpoint>
          <Trackpoint>
            <Time>2021-08-02T11:32:12.000Z</Time>
            <Position>
              <LatitudeDegrees>41.74793162383139133453369140625</LatitudeDegrees>
              <LongitudeDegrees>-1.79802023805677890777587890625</LongitudeDegrees>
            </Position>
            <AltitudeMeters>1762.199951171875</AltitudeMeters>
            <DistanceMeters>448724.38147434</DistanceMeters>
          </Trackpoint>
          <Trackpoint>
            <Time>2021-08-02T11:32:14.000Z</Time>
            <Position>
              <LatitudeDegrees>41.74785769544541835784912109375</LatitudeDegrees>
              <LongitudeDegrees>-1.79816189222037792205810546875</LongitudeDegrees>
            </Position>
            <AltitudeMeters>1760.199951171875</AltitudeMeters>
            <DistanceMeters>448738.73648546</DistanceMeters>
          </Trackpoint>
          <Trackpoint>
            <Time>2021-08-02T11:32:15.000Z</Time>
            <Position>
              <LatitudeDegrees>41.74781410954892635345458984375</LatitudeDegrees>
              <LongitudeDegrees>-1.79823045618832111358642578125</LongitudeDegrees>
            </Position>
            <AltitudeMeters>1758.800048828125</AltitudeMeters>
            <DistanceMeters>448746.21648237</DistanceMeters>
          </Trackpoint>
          <Trackpoint>
            <Time>2021-08-02T11:32:17.000Z</Time>
            <Position>
              <LatitudeDegrees>41.7477278597652912139892578125</LatitudeDegrees>
              <LongitudeDegrees>-1.79837244562804698944091796875</LongitudeDegrees>
            </Position>
            <AltitudeMeters>1756.4000244140625</AltitudeMeters>
            <DistanceMeters>448761.42135057</DistanceMeters>
          </Trackpoint>
          <Trackpoint>
            <Time>2021-08-02T11:32:19.000Z</Time>
            <Position>
              <LatitudeDegrees>41.74764060415327548980712890625</LatitudeDegrees>
              <LongitudeDegrees>-1.79852013476192951202392578125</LongitudeDegrees>
            </Position>
            <AltitudeMeters>1754.5999755859375</AltitudeMeters>
            <DistanceMeters>448777.06472206</DistanceMeters>
          </Trackpoint>
          <Trackpoint>
            <Time>2021-08-02T11:32:21.000Z</Time>
            <Position>
              <LatitudeDegrees>41.747553683817386627197265625</LatitudeDegrees>
              <LongitudeDegrees>-1.79866480641067028045654296875</LongitudeDegrees>
            </Position>
            <AltitudeMeters>1753</AltitudeMeters>
            <DistanceMeters>448792.48922932</DistanceMeters>
          </Trackpoint>
          <Trackpoint>
            <Time>2021-08-02T11:32:23.000Z</Time>
            <Position>
              <LatitudeDegrees>41.74747078679502010345458984375</LatitudeDegrees>
              <LongitudeDegrees>-1.79880646057426929473876953125</LongitudeDegrees>
            </Position>
            <AltitudeMeters>1751.199951171875</AltitudeMeters>
            <DistanceMeters>448807.43895814</DistanceMeters>
          </Trackpoint>
          <Trackpoint>
            <Time>2021-08-02T11:32:25.000Z</Time>
            <Position>
              <LatitudeDegrees>41.74738361500203609466552734375</LatitudeDegrees>
              <LongitudeDegrees>-1.798953227698802947998046875</LongitudeDegrees>
            </Position>
            <AltitudeMeters>1749</AltitudeMeters>
            <DistanceMeters>448823.01696425</DistanceMeters>
          </Trackpoint>
          <Trackpoint>
            <Time>2021-08-02T11:32:26.000Z</Time>
            <Position>
              <LatitudeDegrees>41.74733810126781463623046875</LatitudeDegrees>
              <LongitudeDegrees>-1.79903059266507625579833984375</LongitudeDegrees>
            </Position>
            <AltitudeMeters>1748</AltitudeMeters>
            <DistanceMeters>448831.1992003</DistanceMeters>
          </Trackpoint>
          <Trackpoint>
            <Time>2021-08-02T11:32:27.000Z</Time>
            <Position>
              <LatitudeDegrees>41.7472923360764980316162109375</LatitudeDegrees>
              <LongitudeDegrees>-1.7991092987358570098876953125</LongitudeDegrees>
            </Position>
            <AltitudeMeters>1746.800048828125</AltitudeMeters>
            <DistanceMeters>448839.48561698</DistanceMeters>
          </Trackpoint>
          <Trackpoint>
            <Time>2021-08-02T11:32:29.000Z</Time>
            <Position>
              <LatitudeDegrees>41.74719887785613536834716796875</LatitudeDegrees>
              <LongitudeDegrees>-1.799266375601291656494140625</LongitudeDegrees>
            </Position>
            <AltitudeMeters>1745</AltitudeMeters>
            <DistanceMeters>448856.16923398</DistanceMeters>
          </Trackpoint>
          <Trackpoint>
            <Time>2021-08-02T11:32:31.000Z</Time>
            <Position>
              <LatitudeDegrees>41.74710298888385295867919921875</LatitudeDegrees>
              <LongitudeDegrees>-1.79942336864769458770751953125</LongitudeDegrees>
            </Position>
            <AltitudeMeters>1743.4000244140625</AltitudeMeters>
            <DistanceMeters>448873.01739272</DistanceMeters>
          </Trackpoint>
          <Trackpoint>
            <Time>2021-08-02T11:32:33.000Z</Time>
            <Position>
              <LatitudeDegrees>41.7470110394060611724853515625</LatitudeDegrees>
              <LongitudeDegrees>-1.79957742802798748016357421875</LongitudeDegrees>
            </Position>
            <AltitudeMeters>1742</AltitudeMeters>
            <DistanceMeters>448889.40034002</DistanceMeters>
          </Trackpoint>
          <Trackpoint>
            <Time>2021-08-02T11:32:35.000Z</Time>
            <Position>
              <LatitudeDegrees>41.74692797474563121795654296875</LatitudeDegrees>
              <LongitudeDegrees>-1.7997314035892486572265625</LongitudeDegrees>
            </Position>
            <AltitudeMeters>1740.4000244140625</AltitudeMeters>
            <DistanceMeters>448905.17878125</DistanceMeters>
          </Trackpoint>
          <Trackpoint>
            <Time>2021-08-02T11:32:38.000Z</Time>
            <Position>
              <LatitudeDegrees>41.74681766889989376068115234375</LatitudeDegrees>
              <LongitudeDegrees>-1.799955703318119049072265625</LongitudeDegrees>
            </Position>
            <AltitudeMeters>1739</AltitudeMeters>
            <DistanceMeters>448927.48720058</DistanceMeters>
          </Trackpoint>
          <Trackpoint>
            <Time>2021-08-02T11:32:40.000Z</Time>
            <Position>
              <LatitudeDegrees>41.74674893729388713836669921875</LatitudeDegrees>
              <LongitudeDegrees>-1.80009995587170124053955078125</LongitudeDegrees>
            </Position>
            <AltitudeMeters>1737.199951171875</AltitudeMeters>
            <DistanceMeters>448941.70060517</DistanceMeters>
          </Trackpoint>
          <Trackpoint>
            <Time>2021-08-02T11:32:42.000Z</Time>
            <Position>
              <LatitudeDegrees>41.74668188206851482391357421875</LatitudeDegrees>
              <LongitudeDegrees>-1.8002415262162685394287109375</LongitudeDegrees>
            </Position>
            <AltitudeMeters>1735.800048828125</AltitudeMeters>
            <DistanceMeters>448955.62550487</DistanceMeters>
          </Trackpoint>
          <Trackpoint>
            <Time>2021-08-02T11:32:44.000Z</Time>
            <Position>
              <LatitudeDegrees>41.74661097116768360137939453125</LatitudeDegrees>
              <LongitudeDegrees>-1.80038879625499248504638671875</LongitudeDegrees>
            </Position>
            <AltitudeMeters>1734</AltitudeMeters>
            <DistanceMeters>448970.18104173</DistanceMeters>
          </Trackpoint>
          <Trackpoint>
            <Time>2021-08-02T11:32:46.000Z</Time>
            <Position>
              <LatitudeDegrees>41.7465322650969028472900390625</LatitudeDegrees>
              <LongitudeDegrees>-1.8005318753421306610107421875</LongitudeDegrees>
            </Position>
            <AltitudeMeters>1732.199951171875</AltitudeMeters>
            <DistanceMeters>448984.94294557</DistanceMeters>
          </Trackpoint>
          <Trackpoint>
            <Time>2021-08-02T11:32:47.000Z</Time>
            <Position>
              <LatitudeDegrees>41.74648943357169628143310546875</LatitudeDegrees>
              <LongitudeDegrees>-1.80060287006199359893798828125</LongitudeDegrees>
            </Position>
            <AltitudeMeters>1731</AltitudeMeters>
            <DistanceMeters>448992.52486265</DistanceMeters>
          </Trackpoint>
          <Trackpoint>
            <Time>2021-08-02T11:32:49.000Z</Time>
            <Position>
              <LatitudeDegrees>41.74639932811260223388671875</LatitudeDegrees>
              <LongitudeDegrees>-1.80073798634111881256103515625</LongitudeDegrees>
            </Position>
            <AltitudeMeters>1729</AltitudeMeters>
            <DistanceMeters>449007.57392631</DistanceMeters>
          </Trackpoint>
          <Trackpoint>
            <Time>2021-08-02T11:32:51.000Z</Time>
            <Position>
              <LatitudeDegrees>41.7463126592338085174560546875</LatitudeDegrees>
              <LongitudeDegrees>-1.80085969157516956329345703125</LongitudeDegrees>
            </Position>
            <AltitudeMeters>1727.4000244140625</AltitudeMeters>
            <DistanceMeters>449021.54511568</DistanceMeters>
          </Trackpoint>
          <Trackpoint>
            <Time>2021-08-02T11:32:53.000Z</Time>
            <Position>
              <LatitudeDegrees>41.74622632563114166259765625</LatitudeDegrees>
              <LongitudeDegrees>-1.8009700812399387359619140625</LongitudeDegrees>
            </Position>
            <AltitudeMeters>1726</AltitudeMeters>
            <DistanceMeters>449034.82575773</DistanceMeters>
          </Trackpoint>
          <Trackpoint>
            <Time>2021-08-02T11:32:55.000Z</Time>
            <Position>
              <LatitudeDegrees>41.746136806905269622802734375</LatitudeDegrees>
              <LongitudeDegrees>-1.80108197964727878570556640625</LongitudeDegrees>
            </Position>
            <AltitudeMeters>1724.800048828125</AltitudeMeters>
            <DistanceMeters>449048.45008345</DistanceMeters>
          </Trackpoint>
          <Trackpoint>
            <Time>2021-08-02T11:32:58.000Z</Time>
            <Position>
              <LatitudeDegrees>41.7459968291223049163818359375</LatitudeDegrees>
              <LongitudeDegrees>-1.80122866295278072357177734375</LongitudeDegrees>
            </Position>
            <AltitudeMeters>1723.800048828125</AltitudeMeters>
            <DistanceMeters>449068.22660162</DistanceMeters>
          </Trackpoint>
          <Trackpoint>
            <Time>2021-08-02T11:32:59.000Z</Time>
            <Position>
              <LatitudeDegrees>41.74594628624618053436279296875</LatitudeDegrees>
              <LongitudeDegrees>-1.801269315183162689208984375</LongitudeDegrees>
            </Position>
            <AltitudeMeters>1723</AltitudeMeters>
            <DistanceMeters>449074.78757521</DistanceMeters>
          </Trackpoint>
          <Trackpoint>
            <Time>2021-08-02T11:33:01.000Z</Time>
            <Position>
              <LatitudeDegrees>41.74583916552364826202392578125</LatitudeDegrees>
              <LongitudeDegrees>-1.801349110901355743408203125</LongitudeDegrees>
            </Position>
            <AltitudeMeters>1721</AltitudeMeters>
            <DistanceMeters>449088.42812964</DistanceMeters>
          </Trackpoint>
          <Trackpoint>
            <Time>2021-08-02T11:33:03.000Z</Time>
            <Position>
              <LatitudeDegrees>41.7457242496311664581298828125</LatitudeDegrees>
              <LongitudeDegrees>-1.80142446421086788177490234375</LongitudeDegrees>
            </Position>
            <AltitudeMeters>1719.199951171875</AltitudeMeters>
            <DistanceMeters>449102.6669244</DistanceMeters>
          </Trackpoint>
          <Trackpoint>
            <Time>2021-08-02T11:33:04.000Z</Time>
            <Position>
              <LatitudeDegrees>41.74566465429961681365966796875</LatitudeDegrees>
              <LongitudeDegrees>-1.8014595843851566314697265625</LongitudeDegrees>
            </Position>
            <AltitudeMeters>1718</AltitudeMeters>
            <DistanceMeters>449109.91267243</DistanceMeters>
          </Trackpoint>
          <Trackpoint>
            <Time>2021-08-02T11:33:06.000Z</Time>
            <Position>
              <LatitudeDegrees>41.7455445416271686553955078125</LatitudeDegrees>
              <LongitudeDegrees>-1.80152236483991146087646484375</LongitudeDegrees>
            </Position>
            <AltitudeMeters>1716.4000244140625</AltitudeMeters>
            <DistanceMeters>449124.26202095</DistanceMeters>
          </Trackpoint>
          <Trackpoint>
            <Time>2021-08-02T11:33:08.000Z</Time>
            <Position>
              <LatitudeDegrees>41.7454248480498790740966796875</LatitudeDegrees>
              <LongitudeDegrees>-1.80158019997179508209228515625</LongitudeDegrees>
            </Position>
            <AltitudeMeters>1714</AltitudeMeters>
            <DistanceMeters>449138.42387103</DistanceMeters>
          </Trackpoint>
          <Trackpoint>
            <Time>2021-08-02T11:33:09.000Z</Time>
            <Position>
              <LatitudeDegrees>41.7453633248805999755859375</LatitudeDegrees>
              <LongitudeDegrees>-1.80160819552838802337646484375</LongitudeDegrees>
            </Position>
            <AltitudeMeters>1712.5999755859375</AltitudeMeters>
            <DistanceMeters>449145.65464849</DistanceMeters>
          </Trackpoint>
          <Trackpoint>
            <Time>2021-08-02T11:33:10.000Z</Time>
            <Position>
              <LatitudeDegrees>41.74529962241649627685546875</LatitudeDegrees>
              <LongitudeDegrees>-1.80163652636110782623291015625</LongitudeDegrees>
            </Position>
            <AltitudeMeters>1711.5999755859375</AltitudeMeters>
            <DistanceMeters>449153.12498131</DistanceMeters>
          </Trackpoint>
          <Trackpoint>
            <Time>2021-08-02T11:33:11.000Z</Time>
            <Position>
              <LatitudeDegrees>41.74523449502885341644287109375</LatitudeDegrees>
              <LongitudeDegrees>-1.8016671203076839447021484375</LongitudeDegrees>
            </Position>
            <AltitudeMeters>1710.199951171875</AltitudeMeters>
            <DistanceMeters>449160.80629106</DistanceMeters>
          </Trackpoint>
          <Trackpoint>
            <Time>2021-08-02T11:33:12.000Z</Time>
            <Position>
              <LatitudeDegrees>41.74516509287059307098388671875</LatitudeDegrees>
              <LongitudeDegrees>-1.8017006479203701019287109375</LongitudeDegrees>
            </Position>
            <AltitudeMeters>1708.800048828125</AltitudeMeters>
            <DistanceMeters>449169.01717108</DistanceMeters>
          </Trackpoint>
          <Trackpoint>
            <Time>2021-08-02T11:33:14.000Z</Time>
            <Position>
              <LatitudeDegrees>41.745018661022186279296875</LatitudeDegrees>
              <LongitudeDegrees>-1.8017740733921527862548828125</LongitudeDegrees>
            </Position>
            <AltitudeMeters>1706.800048828125</AltitudeMeters>
            <DistanceMeters>449186.4187395</DistanceMeters>
          </Trackpoint>
          <Trackpoint>
            <Time>2021-08-02T11:33:15.000Z</Time>
            <Position>
              <LatitudeDegrees>41.74494632519781589508056640625</LatitudeDegrees>
              <LongitudeDegrees>-1.8018096126616001129150390625</LongitudeDegrees>
            </Position>
            <AltitudeMeters>1705.5999755859375</AltitudeMeters>
            <DistanceMeters>449194.99434109</DistanceMeters>
          </Trackpoint>
          <Trackpoint>
            <Time>2021-08-02T11:33:17.000Z</Time>
            <Position>
              <LatitudeDegrees>41.74480383284389972686767578125</LatitudeDegrees>
              <LongitudeDegrees>-1.8018783442676067352294921875</LongitudeDegrees>
            </Position>
            <AltitudeMeters>1704</AltitudeMeters>
            <DistanceMeters>449211.85026958</DistanceMeters>
          </Trackpoint>
          <Trackpoint>
            <Time>2021-08-02T11:33:19.000Z</Time>
            <Position>
              <LatitudeDegrees>41.74466234631836414337158203125</LatitudeDegrees>
              <LongitudeDegrees>-1.80194891989231109619140625</LongitudeDegrees>
            </Position>
            <AltitudeMeters>1702.4000244140625</AltitudeMeters>
            <DistanceMeters>449228.65361538</DistanceMeters>
          </Trackpoint>
          <Trackpoint>
            <Time>2021-08-02T11:33:20.000Z</Time>
            <Position>
              <LatitudeDegrees>41.74459193833172321319580078125</LatitudeDegrees>
              <LongitudeDegrees>-1.801984123885631561279296875</LongitudeDegrees>
            </Position>
            <AltitudeMeters>1701.199951171875</AltitudeMeters>
            <DistanceMeters>449237.01704602</DistanceMeters>
          </Trackpoint>
          <Trackpoint>
            <Time>2021-08-02T11:33:22.000Z</Time>
            <Position>
              <LatitudeDegrees>41.74444693140685558319091796875</LatitudeDegrees>
              <LongitudeDegrees>-1.80205880664288997650146484375</LongitudeDegrees>
            </Position>
            <AltitudeMeters>1699.5999755859375</AltitudeMeters>
            <DistanceMeters>449254.30720828</DistanceMeters>
          </Trackpoint>
          <Trackpoint>
            <Time>2021-08-02T11:33:24.000Z</Time>
            <Position>
              <LatitudeDegrees>41.7442989908158779144287109375</LatitudeDegrees>
              <LongitudeDegrees>-1.8021328188478946685791015625</LongitudeDegrees>
            </Position>
            <AltitudeMeters>1697.5999755859375</AltitudeMeters>
            <DistanceMeters>449271.88304069</DistanceMeters>
          </Trackpoint>
          <Trackpoint>
            <Time>2021-08-02T11:33:25.000Z</Time>
            <Position>
              <LatitudeDegrees>41.7442259006202220916748046875</LatitudeDegrees>
              <LongitudeDegrees>-1.80216995067894458770751953125</LongitudeDegrees>
            </Position>
            <AltitudeMeters>1696.4000244140625</AltitudeMeters>
            <DistanceMeters>449280.58304648</DistanceMeters>
          </Trackpoint>
          <Trackpoint>
            <Time>2021-08-02T11:33:27.000Z</Time>
            <Position>
              <LatitudeDegrees>41.74408365972340106964111328125</LatitudeDegrees>
              <LongitudeDegrees>-1.80224371142685413360595703125</LongitudeDegrees>
            </Position>
            <AltitudeMeters>1695.199951171875</AltitudeMeters>
            <DistanceMeters>449297.55855235</DistanceMeters>
          </Trackpoint>
          <Trackpoint>
            <Time>2021-08-02T11:33:29.000Z</Time>
            <Position>
              <LatitudeDegrees>41.7439499683678150177001953125</LatitudeDegrees>
              <LongitudeDegrees>-1.80231495760381221771240234375</LongitudeDegrees>
            </Position>
            <AltitudeMeters>1693.5999755859375</AltitudeMeters>
            <DistanceMeters>449313.57161111</DistanceMeters>
          </Trackpoint>
          <Trackpoint>
            <Time>2021-08-02T11:33:32.000Z</Time>
            <Position>
              <LatitudeDegrees>41.74375458620488643646240234375</LatitudeDegrees>
              <LongitudeDegrees>-1.80242232978343963623046875</LongitudeDegrees>
            </Position>
            <AltitudeMeters>1692.4000244140625</AltitudeMeters>
            <DistanceMeters>449337.07531202</DistanceMeters>
          </Trackpoint>
          <Trackpoint>
            <Time>2021-08-02T11:33:34.000Z</Time>
            <Position>
              <LatitudeDegrees>41.74362047575414180755615234375</LatitudeDegrees>
              <LongitudeDegrees>-1.80249516852200031280517578125</LongitudeDegrees>
            </Position>
            <AltitudeMeters>1691.4000244140625</AltitudeMeters>
            <DistanceMeters>449353.18114872</DistanceMeters>
          </Trackpoint>
          <Trackpoint>
            <Time>2021-08-02T11:33:36.000Z</Time>
            <Position>
              <LatitudeDegrees>41.743484437465667724609375</LatitudeDegrees>
              <LongitudeDegrees>-1.80256155319511890411376953125</LongitudeDegrees>
            </Position>
            <AltitudeMeters>1689.800048828125</AltitudeMeters>
            <DistanceMeters>449369.29483291</DistanceMeters>
          </Trackpoint>
          <Trackpoint>
            <Time>2021-08-02T11:33:38.000Z</Time>
            <Position>
              <LatitudeDegrees>41.7433555237948894500732421875</LatitudeDegrees>
              <LongitudeDegrees>-1.80262844078242778778076171875</LongitudeDegrees>
            </Position>
            <AltitudeMeters>1688</AltitudeMeters>
            <DistanceMeters>449384.68094626</DistanceMeters>
          </Trackpoint>
          <Trackpoint>
            <Time>2021-08-02T11:33:39.000Z</Time>
            <Position>
              <LatitudeDegrees>41.74329198896884918212890625</LatitudeDegrees>
              <LongitudeDegrees>-1.8026595376431941986083984375</LongitudeDegrees>
            </Position>
            <AltitudeMeters>1686.800048828125</AltitudeMeters>
            <DistanceMeters>449392.20907749</DistanceMeters>
          </Trackpoint>
          <Trackpoint>
            <Time>2021-08-02T11:33:41.000Z</Time>
            <Position>
              <LatitudeDegrees>41.743162572383880615234375</LatitudeDegrees>
              <LongitudeDegrees>-1.802723743021488189697265625</LongitudeDegrees>
            </Position>
            <AltitudeMeters>1685.5999755859375</AltitudeMeters>
            <DistanceMeters>449407.56816981</DistanceMeters>
          </Trackpoint>
          <Trackpoint>
            <Time>2021-08-02T11:33:43.000Z</Time>
            <Position>
              <LatitudeDegrees>41.74302033148705959320068359375</LatitudeDegrees>
              <LongitudeDegrees>-1.8027933128178119659423828125</LongitudeDegrees>
            </Position>
            <AltitudeMeters>1683.800048828125</AltitudeMeters>
            <DistanceMeters>449424.42141948</DistanceMeters>
          </Trackpoint>
          <Trackpoint>
            <Time>2021-08-02T11:33:44.000Z</Time>
            <Position>
              <LatitudeDegrees>41.7429484985768795013427734375</LatitudeDegrees>
              <LongitudeDegrees>-1.802828349173069000244140625</LongitudeDegrees>
            </Position>
            <AltitudeMeters>1682.800048828125</AltitudeMeters>
            <DistanceMeters>449432.9293624</DistanceMeters>
          </Trackpoint>
          <Trackpoint>
            <Time>2021-08-02T11:33:46.000Z</Time>
            <Position>
              <LatitudeDegrees>41.742808856070041656494140625</LatitudeDegrees>
              <LongitudeDegrees>-1.802896745502948760986328125</LongitudeDegrees>
            </Position>
            <AltitudeMeters>1681.4000244140625</AltitudeMeters>
            <DistanceMeters>449449.47711265</DistanceMeters>
          </Trackpoint>
          <Trackpoint>
            <Time>2021-08-02T11:33:49.000Z</Time>
            <Position>
              <LatitudeDegrees>41.74261917360126972198486328125</LatitudeDegrees>
              <LongitudeDegrees>-1.80299690924584865570068359375</LongitudeDegrees>
            </Position>
            <AltitudeMeters>1680.199951171875</AltitudeMeters>
            <DistanceMeters>449472.16880758</DistanceMeters>
          </Trackpoint>
          <Trackpoint>
            <Time>2021-08-02T11:33:52.000Z</Time>
            <Position>
              <LatitudeDegrees>41.74243644811213016510009765625</LatitudeDegrees>
              <LongitudeDegrees>-1.80309397168457508087158203125</LongitudeDegrees>
            </Position>
            <AltitudeMeters>1679</AltitudeMeters>
            <DistanceMeters>449494.04560011</DistanceMeters>
          </Trackpoint>
          <Trackpoint>
            <Time>2021-08-02T11:33:55.000Z</Time>
            <Position>
              <LatitudeDegrees>41.74225606955587863922119140625</LatitudeDegrees>
              <LongitudeDegrees>-1.80318969301879405975341796875</LongitudeDegrees>
            </Position>
            <AltitudeMeters>1677.5999755859375</AltitudeMeters>
            <DistanceMeters>449515.63863064</DistanceMeters>
          </Trackpoint>
          <Trackpoint>
            <Time>2021-08-02T11:33:57.000Z</Time>
            <Position>
              <LatitudeDegrees>41.742136292159557342529296875</LatitudeDegrees>
              <LongitudeDegrees>-1.80326311849057674407958984375</LongitudeDegrees>
            </Position>
            <AltitudeMeters>1676.4000244140625</AltitudeMeters>
            <DistanceMeters>449530.29833013</DistanceMeters>
          </Trackpoint>
          <Trackpoint>
            <Time>2021-08-02T11:34:01.000Z</Time>
            <Position>
              <LatitudeDegrees>41.7419148422777652740478515625</LatitudeDegrees>
              <LongitudeDegrees>-1.80342036299407482147216796875</LongitudeDegrees>
            </Position>
            <AltitudeMeters>1675</AltitudeMeters>
            <DistanceMeters>449558.19186785</DistanceMeters>
          </Trackpoint>
          <Trackpoint>
            <Time>2021-08-02T11:34:03.000Z</Time>
            <Position>
              <LatitudeDegrees>41.74181484617292881011962890625</LatitudeDegrees>
              <LongitudeDegrees>-1.80350652895867824554443359375</LongitudeDegrees>
            </Position>
            <AltitudeMeters>1673.800048828125</AltitudeMeters>
            <DistanceMeters>449571.42346345</DistanceMeters>
          </Trackpoint>
          <Trackpoint>
            <Time>2021-08-02T11:34:07.000Z</Time>
            <Position>
              <LatitudeDegrees>41.74162323586642742156982421875</LatitudeDegrees>
              <LongitudeDegrees>-1.8036854825913906097412109375</LongitudeDegrees>
            </Position>
            <AltitudeMeters>1672.5999755859375</AltitudeMeters>
            <DistanceMeters>449597.41739543</DistanceMeters>
          </Trackpoint>
          <Trackpoint>
            <Time>2021-08-02T11:34:10.000Z</Time>
            <Position>
              <LatitudeDegrees>41.74149046652019023895263671875</LatitudeDegrees>
              <LongitudeDegrees>-1.803831160068511962890625</LongitudeDegrees>
            </Position>
            <AltitudeMeters>1671.4000244140625</AltitudeMeters>
            <DistanceMeters>449616.51563744</DistanceMeters>
          </Trackpoint>
          <Trackpoint>
            <Time>2021-08-02T11:34:13.000Z</Time>
            <Position>
              <LatitudeDegrees>41.7413646541535854339599609375</LatitudeDegrees>
              <LongitudeDegrees>-1.803996451199054718017578125</LongitudeDegrees>
            </Position>
            <AltitudeMeters>1670</AltitudeMeters>
            <DistanceMeters>449636.12501645</DistanceMeters>
          </Trackpoint>
          <Trackpoint>
            <Time>2021-08-02T11:34:15.000Z</Time>
            <Position>
              <LatitudeDegrees>41.7412898875772953033447265625</LatitudeDegrees>
              <LongitudeDegrees>-1.80411438457667827606201171875</LongitudeDegrees>
            </Position>
            <AltitudeMeters>1668.800048828125</AltitudeMeters>
            <DistanceMeters>449648.97718196</DistanceMeters>
          </Trackpoint>
          <Trackpoint>
            <Time>2021-08-02T11:34:17.000Z</Time>
            <Position>
              <LatitudeDegrees>41.741221658885478973388671875</LatitudeDegrees>
              <LongitudeDegrees>-1.80423550307750701904296875</LongitudeDegrees>
            </Position>
            <AltitudeMeters>1667.4000244140625</AltitudeMeters>
            <DistanceMeters>449661.58067651</DistanceMeters>
          </Trackpoint>
          <Trackpoint>
            <Time>2021-08-02T11:34:19.000Z</Time>
            <Position>
              <LatitudeDegrees>41.7411584593355655670166015625</LatitudeDegrees>
              <LongitudeDegrees>-1.8043573759496212005615234375</LongitudeDegrees>
            </Position>
            <AltitudeMeters>1666.199951171875</AltitudeMeters>
            <DistanceMeters>449673.90634104</DistanceMeters>
          </Trackpoint>
          <Trackpoint>
            <Time>2021-08-02T11:34:22.000Z</Time>
            <Position>
              <LatitudeDegrees>41.741066090762615203857421875</LatitudeDegrees>
              <LongitudeDegrees>-1.80453817360103130340576171875</LongitudeDegrees>
            </Position>
            <AltitudeMeters>1664.800048828125</AltitudeMeters>
            <DistanceMeters>449692.10414292</DistanceMeters>
          </Trackpoint>
          <Trackpoint>
            <Time>2021-08-02T11:34:26.000Z</Time>
            <Position>
              <LatitudeDegrees>41.7409408651292324066162109375</LatitudeDegrees>
              <LongitudeDegrees>-1.80479340255260467529296875</LongitudeDegrees>
            </Position>
            <AltitudeMeters>1663.199951171875</AltitudeMeters>
            <DistanceMeters>449717.47253838</DistanceMeters>
          </Trackpoint>
          <Trackpoint>
            <Time>2021-08-02T11:34:28.000Z</Time>
            <Position>
              <LatitudeDegrees>41.74087121151387691497802734375</LatitudeDegrees>
              <LongitudeDegrees>-1.804935224354267120361328125</LongitudeDegrees>
            </Position>
            <AltitudeMeters>1662</AltitudeMeters>
            <DistanceMeters>449731.57304273</DistanceMeters>
          </Trackpoint>
          <Trackpoint>
            <Time>2021-08-02T11:34:32.000Z</Time>
            <Position>
              <LatitudeDegrees>41.740746237337589263916015625</LatitudeDegrees>
              <LongitudeDegrees>-1.80522699840366840362548828125</LongitudeDegrees>
            </Position>
            <AltitudeMeters>1660.800048828125</AltitudeMeters>
            <DistanceMeters>449759.5134824</DistanceMeters>
          </Trackpoint>
          <Trackpoint>
            <Time>2021-08-02T11:34:34.000Z</Time>
            <Position>
              <LatitudeDegrees>41.74068748019635677337646484375</LatitudeDegrees>
              <LongitudeDegrees>-1.80534769780933856964111328125</LongitudeDegrees>
            </Position>
            <AltitudeMeters>1660.4000244140625</AltitudeMeters>
            <DistanceMeters>449771.48232247</DistanceMeters>
          </Trackpoint>
          <Trackpoint>
            <Time>2021-08-02T11:34:36.000Z</Time>
            <Position>
              <LatitudeDegrees>41.7405951954424381256103515625</LatitudeDegrees>
              <LongitudeDegrees>-1.8054061196744441986083984375</LongitudeDegrees>
            </Position>
            <AltitudeMeters>1659.4000244140625</AltitudeMeters>
            <DistanceMeters>449782.84189079</DistanceMeters>
          </Trackpoint>
          <Trackpoint>
            <Time>2021-08-02T11:34:39.000Z</Time>
            <Position>
              <LatitudeDegrees>41.7404584027826786041259765625</LatitudeDegrees>
              <LongitudeDegrees>-1.80530427955090999603271484375</LongitudeDegrees>
            </Position>
            <AltitudeMeters>1658</AltitudeMeters>
            <DistanceMeters>449800.25850148</DistanceMeters>
          </Trackpoint>
          <Trackpoint>
            <Time>2021-08-02T11:34:41.000Z</Time>
            <Position>
              <LatitudeDegrees>41.7403869889676570892333984375</LatitudeDegrees>
              <LongitudeDegrees>-1.80517368949949741363525390625</LongitudeDegrees>
            </Position>
            <AltitudeMeters>1657</AltitudeMeters>
            <DistanceMeters>449813.70469762</DistanceMeters>
          </Trackpoint>
          <Trackpoint>
            <Time>2021-08-02T11:34:43.000Z</Time>
            <Position>
              <LatitudeDegrees>41.740297637879848480224609375</LatitudeDegrees>
              <LongitudeDegrees>-1.80502474308013916015625</LongitudeDegrees>
            </Position>
            <AltitudeMeters>1656</AltitudeMeters>
            <DistanceMeters>449829.57671931</DistanceMeters>
          </Trackpoint>
          <Trackpoint>
            <Time>2021-08-02T11:34:44.000Z</Time>
            <Position>
              <LatitudeDegrees>41.74024256877601146697998046875</LatitudeDegrees>
              <LongitudeDegrees>-1.80494016967713832855224609375</LongitudeDegrees>
            </Position>
            <AltitudeMeters>1654.5999755859375</AltitudeMeters>
            <DistanceMeters>449838.89902888</DistanceMeters>
          </Trackpoint>
          <Trackpoint>
            <Time>2021-08-02T11:34:45.000Z</Time>
            <Position>
              <LatitudeDegrees>41.74018523655831813812255859375</LatitudeDegrees>
              <LongitudeDegrees>-1.8048495613038539886474609375</LongitudeDegrees>
            </Position>
            <AltitudeMeters>1652.199951171875</AltitudeMeters>
            <DistanceMeters>449848.76534654</DistanceMeters>
          </Trackpoint>
          <Trackpoint>
            <Time>2021-08-02T11:34:46.000Z</Time>
            <Position>
              <LatitudeDegrees>41.7401264794170856475830078125</LatitudeDegrees>
              <LongitudeDegrees>-1.80475853383541107177734375</LongitudeDegrees>
            </Position>
            <AltitudeMeters>1651</AltitudeMeters>
            <DistanceMeters>449858.76168716</DistanceMeters>
          </Trackpoint>
          <Trackpoint>
            <Time>2021-08-02T11:34:47.000Z</Time>
            <Position>
              <LatitudeDegrees>41.7400671355426311492919921875</LatitudeDegrees>
              <LongitudeDegrees>-1.80466859601438045501708984375</LongitudeDegrees>
            </Position>
            <AltitudeMeters>1649.800048828125</AltitudeMeters>
            <DistanceMeters>449868.73270224</DistanceMeters>
          </Trackpoint>
          <Trackpoint>
            <Time>2021-08-02T11:34:48.000Z</Time>
            <Position>
              <LatitudeDegrees>41.74000536091625690460205078125</LatitudeDegrees>
              <LongitudeDegrees>-1.804589219391345977783203125</LongitudeDegrees>
            </Position>
            <AltitudeMeters>1648.800048828125</AltitudeMeters>
            <DistanceMeters>449878.25815279</DistanceMeters>
          </Trackpoint>
          <Trackpoint>
            <Time>2021-08-02T11:34:49.000Z</Time>
            <Position>
              <LatitudeDegrees>41.73994316719472408294677734375</LatitudeDegrees>
              <LongitudeDegrees>-1.8045206554234027862548828125</LongitudeDegrees>
            </Position>
            <AltitudeMeters>1648.4000244140625</AltitudeMeters>
            <DistanceMeters>449887.22194775</DistanceMeters>
          </Trackpoint>
          <Trackpoint>
            <Time>2021-08-02T11:34:52.000Z</Time>
            <Position>
              <LatitudeDegrees>41.739773936569690704345703125</LatitudeDegrees>
              <LongitudeDegrees>-1.8043315596878528594970703125</LongitudeDegrees>
            </Position>
            <AltitudeMeters>1647.5999755859375</AltitudeMeters>
            <DistanceMeters>449911.74583715</DistanceMeters>
          </Trackpoint>
          <Trackpoint>
            <Time>2021-08-02T11:34:53.000Z</Time>
            <Position>
              <LatitudeDegrees>41.73972540535032749176025390625</LatitudeDegrees>
              <LongitudeDegrees>-1.80425821803510189056396484375</LongitudeDegrees>
            </Position>
            <AltitudeMeters>1647.199951171875</AltitudeMeters>
            <DistanceMeters>449919.88658227</DistanceMeters>
          </Trackpoint>
          <Trackpoint>
            <Time>2021-08-02T11:34:55.000Z</Time>
            <Position>
              <LatitudeDegrees>41.7396332882344722747802734375</LatitudeDegrees>
              <LongitudeDegrees>-1.80409041233360767364501953125</LongitudeDegrees>
            </Position>
            <AltitudeMeters>1646</AltitudeMeters>
            <DistanceMeters>449937.18823057</DistanceMeters>
          </Trackpoint>
          <Trackpoint>
            <Time>2021-08-02T11:34:56.000Z</Time>
            <Position>
              <LatitudeDegrees>41.7395940609276294708251953125</LatitudeDegrees>
              <LongitudeDegrees>-1.80399569682776927947998046875</LongitudeDegrees>
            </Position>
            <AltitudeMeters>1645.199951171875</AltitudeMeters>
            <DistanceMeters>449946.18520813</DistanceMeters>
          </Trackpoint>
          <Trackpoint>
            <Time>2021-08-02T11:34:57.000Z</Time>
            <Position>
              <LatitudeDegrees>41.73955776728689670562744140625</LatitudeDegrees>
              <LongitudeDegrees>-1.80389620363712310791015625</LongitudeDegrees>
            </Position>
            <AltitudeMeters>1644.199951171875</AltitudeMeters>
            <DistanceMeters>449955.38269454</DistanceMeters>
          </Trackpoint>
          <Trackpoint>
            <Time>2021-08-02T11:34:59.000Z</Time>
            <Position>
              <LatitudeDegrees>41.73948802985250949859619140625</LatitudeDegrees>
              <LongitudeDegrees>-1.80368623696267604827880859375</LongitudeDegrees>
            </Position>
            <AltitudeMeters>1643</AltitudeMeters>
            <DistanceMeters>449974.47005853</DistanceMeters>
          </Trackpoint>
          <Trackpoint>
            <Time>2021-08-02T11:35:03.000Z</Time>
            <Position>
              <LatitudeDegrees>41.7393519915640354156494140625</LatitudeDegrees>
              <LongitudeDegrees>-1.80328021757304668426513671875</LongitudeDegrees>
            </Position>
            <AltitudeMeters>1642.199951171875</AltitudeMeters>
            <DistanceMeters>450011.43386254</DistanceMeters>
          </Trackpoint>
          <Trackpoint>
            <Time>2021-08-02T11:35:05.000Z</Time>
            <Position>
              <LatitudeDegrees>41.7392881214618682861328125</LatitudeDegrees>
              <LongitudeDegrees>-1.80307737551629543304443359375</LongitudeDegrees>
            </Position>
            <AltitudeMeters>1641.5999755859375</AltitudeMeters>
            <DistanceMeters>450029.71854329</DistanceMeters>
          </Trackpoint>
          <Trackpoint>
            <Time>2021-08-02T11:35:07.000Z</Time>
            <Position>
              <LatitudeDegrees>41.739222072064876556396484375</LatitudeDegrees>
              <LongitudeDegrees>-1.8028741143643856048583984375</LongitudeDegrees>
            </Position>
            <AltitudeMeters>1640.800048828125</AltitudeMeters>
            <DistanceMeters>450048.13117998</DistanceMeters>
          </Trackpoint>
          <Trackpoint>
            <Time>2021-08-02T11:35:10.000Z</Time>
            <Position>
              <LatitudeDegrees>41.739113442599773406982421875</LatitudeDegrees>
              <LongitudeDegrees>-1.80257446132600307464599609375</LongitudeDegrees>
            </Position>
            <AltitudeMeters>1639.4000244140625</AltitudeMeters>
            <DistanceMeters>450075.79946075</DistanceMeters>
          </Trackpoint>
          <Trackpoint>
            <Time>2021-08-02T11:35:12.000Z</Time>
            <Position>
              <LatitudeDegrees>41.73903238959610462188720703125</LatitudeDegrees>
              <LongitudeDegrees>-1.80237564258277416229248046875</LongitudeDegrees>
            </Position>
            <AltitudeMeters>1638.199951171875</AltitudeMeters>
            <DistanceMeters>450094.61547008</DistanceMeters>
          </Trackpoint>
          <Trackpoint>
            <Time>2021-08-02T11:35:17.000Z</Time>
            <Position>
              <LatitudeDegrees>41.7387910746037960052490234375</LatitudeDegrees>
              <LongitudeDegrees>-1.801905669271945953369140625</LongitudeDegrees>
            </Position>
            <AltitudeMeters>1637</AltitudeMeters>
            <DistanceMeters>450141.99598427</DistanceMeters>
          </Trackpoint>
          <Trackpoint>
            <Time>2021-08-02T11:35:21.000Z</Time>
            <Position>
              <LatitudeDegrees>41.73858781345188617706298828125</LatitudeDegrees>
              <LongitudeDegrees>-1.8015457503497600555419921875</LongitudeDegrees>
            </Position>
            <AltitudeMeters>1635.199951171875</AltitudeMeters>
            <DistanceMeters>450179.48399297</DistanceMeters>
          </Trackpoint>
          <Trackpoint>
            <Time>2021-08-02T11:35:23.000Z</Time>
            <Position>
              <LatitudeDegrees>41.73848454840481281280517578125</LatitudeDegrees>
              <LongitudeDegrees>-1.8013687245547771453857421875</LongitudeDegrees>
            </Position>
            <AltitudeMeters>1633.4000244140625</AltitudeMeters>
            <DistanceMeters>450198.14579777</DistanceMeters>
          </Trackpoint>
          <Trackpoint>
            <Time>2021-08-02T11:35:26.000Z</Time>
            <Position>
              <LatitudeDegrees>41.738332919776439666748046875</LatitudeDegrees>
              <LongitudeDegrees>-1.801100671291351318359375</LongitudeDegrees>
            </Position>
            <AltitudeMeters>1632.199951171875</AltitudeMeters>
            <DistanceMeters>450226.08219727</DistanceMeters>
          </Trackpoint>
          <Trackpoint>
            <Time>2021-08-02T11:35:29.000Z</Time>
            <Position>
              <LatitudeDegrees>41.73817223869264125823974609375</LatitudeDegrees>
              <LongitudeDegrees>-1.8008346296846866607666015625</LongitudeDegrees>
            </Position>
            <AltitudeMeters>1631</AltitudeMeters>
            <DistanceMeters>450254.50852996</DistanceMeters>
          </Trackpoint>
          <Trackpoint>
            <Time>2021-08-02T11:35:33.000Z</Time>
            <Position>
              <LatitudeDegrees>41.73793033696711063385009765625</LatitudeDegrees>
              <LongitudeDegrees>-1.80048979818820953369140625</LongitudeDegrees>
            </Position>
            <AltitudeMeters>1630</AltitudeMeters>
            <DistanceMeters>450293.81652305</DistanceMeters>
          </Trackpoint>
          <Trackpoint>
            <Time>2021-08-02T11:35:37.000Z</Time>
            <Position>
              <LatitudeDegrees>41.737671084702014923095703125</LatitudeDegrees>
              <LongitudeDegrees>-1.8001741357147693634033203125</LongitudeDegrees>
            </Position>
            <AltitudeMeters>1628.5999755859375</AltitudeMeters>
            <DistanceMeters>450332.80307838</DistanceMeters>
          </Trackpoint>
          <Trackpoint>
            <Time>2021-08-02T11:35:40.000Z</Time>
            <Position>
              <LatitudeDegrees>41.73748777247965335845947265625</LatitudeDegrees>
              <LongitudeDegrees>-1.79994556121528148651123046875</LongitudeDegrees>
            </Position>
            <AltitudeMeters>1627.4000244140625</AltitudeMeters>
            <DistanceMeters>450360.67200149</DistanceMeters>
          </Trackpoint>
          <Trackpoint>
            <Time>2021-08-02T11:35:47.000Z</Time>
            <Position>
              <LatitudeDegrees>41.73711209557950496673583984375</LatitudeDegrees>
              <LongitudeDegrees>-1.79952864535152912139892578125</LongitudeDegrees>
            </Position>
            <AltitudeMeters>1626.199951171875</AltitudeMeters>
            <DistanceMeters>450414.96178718</DistanceMeters>
          </Trackpoint>
          <Trackpoint>
            <Time>2021-08-02T11:35:50.000Z</Time>
            <Position>
              <LatitudeDegrees>41.7369463853538036346435546875</LatitudeDegrees>
              <LongitudeDegrees>-1.79939621128141880035400390625</LongitudeDegrees>
            </Position>
            <AltitudeMeters>1624.800048828125</AltitudeMeters>
            <DistanceMeters>450436.43656318</DistanceMeters>
          </Trackpoint>
          <Trackpoint>
            <Time>2021-08-02T11:35:53.000Z</Time>
            <Position>
              <LatitudeDegrees>41.7367802560329437255859375</LatitudeDegrees>
              <LongitudeDegrees>-1.79931633174419403076171875</LongitudeDegrees>
            </Position>
            <AltitudeMeters>1623.4000244140625</AltitudeMeters>
            <DistanceMeters>450456.08113869</DistanceMeters>
          </Trackpoint>
          <Trackpoint>
            <Time>2021-08-02T11:36:01.000Z</Time>
            <Position>
              <LatitudeDegrees>41.7363224364817142486572265625</LatitudeDegrees>
              <LongitudeDegrees>-1.79915665648877620697021484375</LongitudeDegrees>
            </Position>
            <AltitudeMeters>1622.4000244140625</AltitudeMeters>
            <DistanceMeters>450508.73494292</DistanceMeters>
          </Trackpoint>
          <Trackpoint>
            <Time>2021-08-02T11:36:09.000Z</Time>
            <Position>
              <LatitudeDegrees>41.73583947122097015380859375</LatitudeDegrees>
              <LongitudeDegrees>-1.79899857379496097564697265625</LongitudeDegrees>
            </Position>
            <AltitudeMeters>1621.199951171875</AltitudeMeters>
            <DistanceMeters>450564.07019896</DistanceMeters>
          </Trackpoint>
          <Trackpoint>
            <Time>2021-08-02T11:36:12.000Z</Time>
            <Position>
              <LatitudeDegrees>41.73565146513283252716064453125</LatitudeDegrees>
              <LongitudeDegrees>-1.7988910339772701263427734375</LongitudeDegrees>
            </Position>
            <AltitudeMeters>1619.4000244140625</AltitudeMeters>
            <DistanceMeters>450586.82190443</DistanceMeters>
          </Trackpoint>
          <Trackpoint>
            <Time>2021-08-02T11:36:15.000Z</Time>
            <Position>
              <LatitudeDegrees>41.73545281402766704559326171875</LatitudeDegrees>
              <LongitudeDegrees>-1.7987693287432193756103515625</LongitudeDegrees>
            </Position>
            <AltitudeMeters>1617.5999755859375</AltitudeMeters>
            <DistanceMeters>450611.13314799</DistanceMeters>
          </Trackpoint>
          <Trackpoint>
            <Time>2021-08-02T11:36:17.000Z</Time>
            <Position>
              <LatitudeDegrees>41.7353149317204952239990234375</LatitudeDegrees>
              <LongitudeDegrees>-1.79868006147444248199462890625</LongitudeDegrees>
            </Position>
            <AltitudeMeters>1616.4000244140625</AltitudeMeters>
            <DistanceMeters>450628.17660712</DistanceMeters>
          </Trackpoint>
          <Trackpoint>
            <Time>2021-08-02T11:36:19.000Z</Time>
            <Position>
              <LatitudeDegrees>41.7351700924336910247802734375</LatitudeDegrees>
              <LongitudeDegrees>-1.7985941469669342041015625</LongitudeDegrees>
            </Position>
            <AltitudeMeters>1615.199951171875</AltitudeMeters>
            <DistanceMeters>450645.80604759</DistanceMeters>
          </Trackpoint>
          <Trackpoint>
            <Time>2021-08-02T11:36:22.000Z</Time>
            <Position>
              <LatitudeDegrees>41.73494151793420314788818359375</LatitudeDegrees>
              <LongitudeDegrees>-1.798483841121196746826171875</LongitudeDegrees>
            </Position>
            <AltitudeMeters>1613.800048828125</AltitudeMeters>
            <DistanceMeters>450672.84611581</DistanceMeters>
          </Trackpoint>
          <Trackpoint>
            <Time>2021-08-02T11:36:25.000Z</Time>
            <Position>
              <LatitudeDegrees>41.73470263369381427764892578125</LatitudeDegrees>
              <LongitudeDegrees>-1.7983824200928211212158203125</LongitudeDegrees>
            </Position>
            <AltitudeMeters>1612.5999755859375</AltitudeMeters>
            <DistanceMeters>450700.73690166</DistanceMeters>
          </Trackpoint>
          <Trackpoint>
            <Time>2021-08-02T11:36:27.000Z</Time>
            <Position>
              <LatitudeDegrees>41.734542958438396453857421875</LatitudeDegrees>
              <LongitudeDegrees>-1.798310168087482452392578125</LongitudeDegrees>
            </Position>
            <AltitudeMeters>1611.4000244140625</AltitudeMeters>
            <DistanceMeters>450719.49499215</DistanceMeters>
          </Trackpoint>
          <Trackpoint>
            <Time>2021-08-02T11:36:29.000Z</Time>
            <Position>
              <LatitudeDegrees>41.7343909107148647308349609375</LatitudeDegrees>
              <LongitudeDegrees>-1.798231042921543121337890625</LongitudeDegrees>
            </Position>
            <AltitudeMeters>1610.199951171875</AltitudeMeters>
            <DistanceMeters>450737.64932304</DistanceMeters>
          </Trackpoint>
          <Trackpoint>
            <Time>2021-08-02T11:36:31.000Z</Time>
            <Position>
              <LatitudeDegrees>41.73425428569316864013671875</LatitudeDegrees>
              <LongitudeDegrees>-1.7981316335499286651611328125</LongitudeDegrees>
            </Position>
            <AltitudeMeters>1610</AltitudeMeters>
            <DistanceMeters>450754.9530589</DistanceMeters>
          </Trackpoint>
          <Trackpoint>
            <Time>2021-08-02T11:36:34.000Z</Time>
            <Position>
              <LatitudeDegrees>41.7340921796858310699462890625</LatitudeDegrees>
              <LongitudeDegrees>-1.79797816090285778045654296875</LongitudeDegrees>
            </Position>
            <AltitudeMeters>1610.199951171875</AltitudeMeters>
            <DistanceMeters>450777.04447084</DistanceMeters>
          </Trackpoint>
          <Trackpoint>
            <Time>2021-08-02T11:36:38.000Z</Time>
            <Position>
              <LatitudeDegrees>41.73396787606179714202880859375</LatitudeDegrees>
              <LongitudeDegrees>-1.79771111346781253814697265625</LongitudeDegrees>
            </Position>
            <AltitudeMeters>1610</AltitudeMeters>
            <DistanceMeters>450803.18631823</DistanceMeters>
          </Trackpoint>
          <Trackpoint>
            <Time>2021-08-02T11:36:39.000Z</Time>
            <Position>
              <LatitudeDegrees>41.73394943587481975555419921875</LatitudeDegrees>
              <LongitudeDegrees>-1.797636263072490692138671875</LongitudeDegrees>
            </Position>
            <AltitudeMeters>1609.800048828125</AltitudeMeters>
            <DistanceMeters>450809.73282438</DistanceMeters>
          </Trackpoint>
          <Trackpoint>
            <Time>2021-08-02T11:36:41.000Z</Time>
            <Position>
              <LatitudeDegrees>41.73392093740403652191162109375</LatitudeDegrees>
              <LongitudeDegrees>-1.79748262278735637664794921875</LongitudeDegrees>
            </Position>
            <AltitudeMeters>1608.800048828125</AltitudeMeters>
            <DistanceMeters>450822.88226938</DistanceMeters>
          </Trackpoint>
          <Trackpoint>
            <Time>2021-08-02T11:36:43.000Z</Time>
            <Position>
              <LatitudeDegrees>41.73389478586614131927490234375</LatitudeDegrees>
              <LongitudeDegrees>-1.79731917567551136016845703125</LongitudeDegrees>
            </Position>
            <AltitudeMeters>1607.5999755859375</AltitudeMeters>
            <DistanceMeters>450836.76657966</DistanceMeters>
          </Trackpoint>
          <Trackpoint>
            <Time>2021-08-02T11:36:44.000Z</Time>
            <Position>
              <LatitudeDegrees>41.73388573341071605682373046875</LatitudeDegrees>
              <LongitudeDegrees>-1.79723636247217655181884765625</LongitudeDegrees>
            </Position>
            <AltitudeMeters>1607</AltitudeMeters>
            <DistanceMeters>450843.71848365</DistanceMeters>
          </Trackpoint>
          <Trackpoint>
            <Time>2021-08-02T11:36:45.000Z</Time>
            <Position>
              <LatitudeDegrees>41.7338893376290798187255859375</LatitudeDegrees>
              <LongitudeDegrees>-1.797148101031780242919921875</LongitudeDegrees>
            </Position>
            <AltitudeMeters>1606.4000244140625</AltitudeMeters>
            <DistanceMeters>450851.05956642</DistanceMeters>
          </Trackpoint>
          <Trackpoint>
            <Time>2021-08-02T11:36:46.000Z</Time>
            <Position>
              <LatitudeDegrees>41.73390291631221771240234375</LatitudeDegrees>
              <LongitudeDegrees>-1.79705321788787841796875</LongitudeDegrees>
            </Position>
            <AltitudeMeters>1605</AltitudeMeters>
            <DistanceMeters>450859.08412093</DistanceMeters>
          </Trackpoint>
          <Trackpoint>
            <Time>2021-08-02T11:36:47.000Z</Time>
            <Position>
              <LatitudeDegrees>41.7339188419282436370849609375</LatitudeDegrees>
              <LongitudeDegrees>-1.79696026258170604705810546875</LongitudeDegrees>
            </Position>
            <AltitudeMeters>1603.800048828125</AltitudeMeters>
            <DistanceMeters>450867.00561077</DistanceMeters>
          </Trackpoint>
          <Trackpoint>
            <Time>2021-08-02T11:36:49.000Z</Time>
            <Position>
              <LatitudeDegrees>41.73395446501672267913818359375</LatitudeDegrees>
              <LongitudeDegrees>-1.7967891879379749298095703125</LongitudeDegrees>
            </Position>
            <AltitudeMeters>1602.4000244140625</AltitudeMeters>
            <DistanceMeters>450881.75772392</DistanceMeters>
          </Trackpoint>
          <Trackpoint>
            <Time>2021-08-02T11:37:02.000Z</Time>
            <Position>
              <LatitudeDegrees>41.7340497672557830810546875</LatitudeDegrees>
              <LongitudeDegrees>-1.79623438976705074310302734375</LongitudeDegrees>
            </Position>
            <AltitudeMeters>1601.800048828125</AltitudeMeters>
            <DistanceMeters>450929.04342184</DistanceMeters>
          </Trackpoint>
          <Trackpoint>
            <Time>2021-08-02T11:38:10.000Z</Time>
            <Position>
              <LatitudeDegrees>41.73407952301204204559326171875</LatitudeDegrees>
              <LongitudeDegrees>-1.79619952104985713958740234375</LongitudeDegrees>
            </Position>
            <AltitudeMeters>1601</AltitudeMeters>
            <DistanceMeters>450933.44347683</DistanceMeters>
          </Trackpoint>
          <Trackpoint>
            <Time>2021-08-02T11:38:13.000Z</Time>
            <Position>
              <LatitudeDegrees>41.73411481082439422607421875</LatitudeDegrees>
              <LongitudeDegrees>-1.79609323851764202117919921875</LongitudeDegrees>
            </Position>
            <AltitudeMeters>1599.800048828125</AltitudeMeters>
            <DistanceMeters>450943.10587614</DistanceMeters>
          </Trackpoint>
          <Trackpoint>
            <Time>2021-08-02T11:38:16.000Z</Time>
            <Position>
              <LatitudeDegrees>41.73415227793157100677490234375</LatitudeDegrees>
              <LongitudeDegrees>-1.795915625989437103271484375</LongitudeDegrees>
            </Position>
            <AltitudeMeters>1598.5999755859375</AltitudeMeters>
            <DistanceMeters>450958.43583828</DistanceMeters>
          </Trackpoint>
          <Trackpoint>
            <Time>2021-08-02T11:38:19.000Z</Time>
            <Position>
              <LatitudeDegrees>41.73421095125377178192138671875</LatitudeDegrees>
              <LongitudeDegrees>-1.7957000434398651123046875</LongitudeDegrees>
            </Position>
            <AltitudeMeters>1597.4000244140625</AltitudeMeters>
            <DistanceMeters>450977.49526942</DistanceMeters>
          </Trackpoint>
          <Trackpoint>
            <Time>2021-08-02T11:38:21.000Z</Time>
            <Position>
              <LatitudeDegrees>41.73423827625811100006103515625</LatitudeDegrees>
              <LongitudeDegrees>-1.7955402843654155731201171875</LongitudeDegrees>
            </Position>
            <AltitudeMeters>1596.199951171875</AltitudeMeters>
            <DistanceMeters>450991.10832304</DistanceMeters>
          </Trackpoint>
          <Trackpoint>
            <Time>2021-08-02T11:38:23.000Z</Time>
            <Position>
              <LatitudeDegrees>41.7342353425920009613037109375</LatitudeDegrees>
              <LongitudeDegrees>-1.79536283947527408599853515625</LongitudeDegrees>
            </Position>
            <AltitudeMeters>1594.800048828125</AltitudeMeters>
            <DistanceMeters>451005.85002646</DistanceMeters>
          </Trackpoint>
          <Trackpoint>
            <Time>2021-08-02T11:38:26.000Z</Time>
            <Position>
              <LatitudeDegrees>41.734161414206027984619140625</LatitudeDegrees>
              <LongitudeDegrees>-1.79509998299181461334228515625</LongitudeDegrees>
            </Position>
            <AltitudeMeters>1593.800048828125</AltitudeMeters>
            <DistanceMeters>451029.18135878</DistanceMeters>
          </Trackpoint>
          <Trackpoint>
            <Time>2021-08-02T11:38:29.000Z</Time>
            <Position>
              <LatitudeDegrees>41.73406426794826984405517578125</LatitudeDegrees>
              <LongitudeDegrees>-1.79482161998748779296875</LongitudeDegrees>
            </Position>
            <AltitudeMeters>1592.4000244140625</AltitudeMeters>
            <DistanceMeters>451054.70501066</DistanceMeters>
          </Trackpoint>
          <Trackpoint>
            <Time>2021-08-02T11:38:31.000Z</Time>
            <Position>
              <LatitudeDegrees>41.73399067483842372894287109375</LatitudeDegrees>
              <LongitudeDegrees>-1.79460561834275722503662109375</LongitudeDegrees>
            </Position>
            <AltitudeMeters>1590.4000244140625</AltitudeMeters>
            <DistanceMeters>451074.42711786</DistanceMeters>
          </Trackpoint>
          <Trackpoint>
            <Time>2021-08-02T11:38:33.000Z</Time>
            <Position>
              <LatitudeDegrees>41.73390962183475494384765625</LatitudeDegrees>
              <LongitudeDegrees>-1.7943859286606311798095703125</LongitudeDegrees>
            </Position>
            <AltitudeMeters>1589</AltitudeMeters>
            <DistanceMeters>451094.78258538</DistanceMeters>
          </Trackpoint>
          <Trackpoint>
            <Time>2021-08-02T11:38:34.000Z</Time>
            <Position>
              <LatitudeDegrees>41.73387014307081699371337890625</LatitudeDegrees>
              <LongitudeDegrees>-1.7942853458225727081298828125</LongitudeDegrees>
            </Position>
            <AltitudeMeters>1587.5999755859375</AltitudeMeters>
            <DistanceMeters>451104.22233084</DistanceMeters>
          </Trackpoint>
          <Trackpoint>
            <Time>2021-08-02T11:38:36.000Z</Time>
            <Position>
              <LatitudeDegrees>41.73379671759903430938720703125</LatitudeDegrees>
              <LongitudeDegrees>-1.794099770486354827880859375</LongitudeDegrees>
            </Position>
            <AltitudeMeters>1586.5999755859375</AltitudeMeters>
            <DistanceMeters>451121.66846957</DistanceMeters>
          </Trackpoint>
          <Trackpoint>
            <Time>2021-08-02T11:38:39.000Z</Time>
            <Position>
              <LatitudeDegrees>41.73368356190621852874755859375</LatitudeDegrees>
              <LongitudeDegrees>-1.7938022129237651824951171875</LongitudeDegrees>
            </Position>
            <AltitudeMeters>1584.5999755859375</AltitudeMeters>
            <DistanceMeters>451149.40715652</DistanceMeters>
          </Trackpoint>
          <Trackpoint>
            <Time>2021-08-02T11:38:40.000Z</Time>
            <Position>
              <LatitudeDegrees>41.73364701680839061737060546875</LatitudeDegrees>
              <LongitudeDegrees>-1.79369844496250152587890625</LongitudeDegrees>
            </Position>
            <AltitudeMeters>1583.4000244140625</AltitudeMeters>
            <DistanceMeters>451158.93734586</DistanceMeters>
          </Trackpoint>
          <Trackpoint>
            <Time>2021-08-02T11:38:42.000Z</Time>
            <Position>
              <LatitudeDegrees>41.73357007093727588653564453125</LatitudeDegrees>
              <LongitudeDegrees>-1.7934894002974033355712890625</LongitudeDegrees>
            </Position>
            <AltitudeMeters>1581.800048828125</AltitudeMeters>
            <DistanceMeters>451178.2973919</DistanceMeters>
          </Trackpoint>
          <Trackpoint>
            <Time>2021-08-02T11:38:44.000Z</Time>
            <Position>
              <LatitudeDegrees>41.7334893532097339630126953125</LatitudeDegrees>
              <LongitudeDegrees>-1.793274320662021636962890625</LongitudeDegrees>
            </Position>
            <AltitudeMeters>1580.5999755859375</AltitudeMeters>
            <DistanceMeters>451198.29323459</DistanceMeters>
          </Trackpoint>
          <Trackpoint>
            <Time>2021-08-02T11:38:51.000Z</Time>
            <Position>
              <LatitudeDegrees>41.733215264976024627685546875</LatitudeDegrees>
              <LongitudeDegrees>-1.79257325828075408935546875</LongitudeDegrees>
            </Position>
            <AltitudeMeters>1580.4000244140625</AltitudeMeters>
            <DistanceMeters>451264.03015787</DistanceMeters>
          </Trackpoint>
          <Trackpoint>
            <Time>2021-08-02T11:38:57.000Z</Time>
            <Position>
              <LatitudeDegrees>41.73301468603312969207763671875</LatitudeDegrees>
              <LongitudeDegrees>-1.792147457599639892578125</LongitudeDegrees>
            </Position>
            <AltitudeMeters>1581.800048828125</AltitudeMeters>
            <DistanceMeters>451305.85357294</DistanceMeters>
          </Trackpoint>
          <Trackpoint>
            <Time>2021-08-02T11:39:01.000Z</Time>
            <Position>
              <LatitudeDegrees>41.7329358123242855072021484375</LatitudeDegrees>
              <LongitudeDegrees>-1.791955344378948211669921875</LongitudeDegrees>
            </Position>
            <AltitudeMeters>1583.4000244140625</AltitudeMeters>
            <DistanceMeters>451324.06575946</DistanceMeters>
          </Trackpoint>
          <Trackpoint>
            <Time>2021-08-02T11:39:05.000Z</Time>
            <Position>
              <LatitudeDegrees>41.732879318296909332275390625</LatitudeDegrees>
              <LongitudeDegrees>-1.79181553423404693603515625</LongitudeDegrees>
            </Position>
            <AltitudeMeters>1584.4000244140625</AltitudeMeters>
            <DistanceMeters>451337.27139599</DistanceMeters>
          </Trackpoint>
          <Trackpoint>
            <Time>2021-08-02T11:39:13.000Z</Time>
            <Position>
              <LatitudeDegrees>41.73279072158038616180419921875</LatitudeDegrees>
              <LongitudeDegrees>-1.79155158810317516326904296875</LongitudeDegrees>
            </Position>
            <AltitudeMeters>1585.4000244140625</AltitudeMeters>
            <DistanceMeters>451361.31033757</DistanceMeters>
          </Trackpoint>
          <Trackpoint>
            <Time>2021-08-02T11:39:25.000Z</Time>
            <Position>
              <LatitudeDegrees>41.73260338604450225830078125</LatitudeDegrees>
              <LongitudeDegrees>-1.791197620332241058349609375</LongitudeDegrees>
            </Position>
            <AltitudeMeters>1585.199951171875</AltitudeMeters>
            <DistanceMeters>451397.35403421</DistanceMeters>
          </Trackpoint>
          <Trackpoint>
            <Time>2021-08-02T11:39:42.000Z</Time>
            <Position>
              <LatitudeDegrees>41.7323336564004421234130859375</LatitudeDegrees>
              <LongitudeDegrees>-1.79066930897533893585205078125</LongitudeDegrees>
            </Position>
            <AltitudeMeters>1584.4000244140625</AltitudeMeters>
            <DistanceMeters>451450.52264856</DistanceMeters>
          </Trackpoint>
          <Trackpoint>
            <Time>2021-08-02T11:39:48.000Z</Time>
            <Position>
              <LatitudeDegrees>41.7323143780231475830078125</LatitudeDegrees>
              <LongitudeDegrees>-1.790364123880863189697265625</LongitudeDegrees>
            </Position>
            <AltitudeMeters>1583.800048828125</AltitudeMeters>
            <DistanceMeters>451475.96195846</DistanceMeters>
          </Trackpoint>
          <Trackpoint>
            <Time>2021-08-02T11:39:52.000Z</Time>
            <Position>
              <LatitudeDegrees>41.7322256974875926971435546875</LatitudeDegrees>
              <LongitudeDegrees>-1.79019807837903499603271484375</LongitudeDegrees>
            </Position>
            <AltitudeMeters>1583.5999755859375</AltitudeMeters>
            <DistanceMeters>451492.92203084</DistanceMeters>
          </Trackpoint>
          <Trackpoint>
            <Time>2021-08-02T11:40:05.000Z</Time>
            <Position>
              <LatitudeDegrees>41.73188480548560619354248046875</LatitudeDegrees>
              <LongitudeDegrees>-1.78989700041711330413818359375</LongitudeDegrees>
            </Position>
            <AltitudeMeters>1583.5999755859375</AltitudeMeters>
            <DistanceMeters>451538.36417924</DistanceMeters>
          </Trackpoint>
          <Trackpoint>
            <Time>2021-08-02T11:40:27.000Z</Time>
            <Position>
              <LatitudeDegrees>41.73153930343687534332275390625</LatitudeDegrees>
              <LongitudeDegrees>-1.78931496106088161468505859375</LongitudeDegrees>
            </Position>
            <AltitudeMeters>1584.4000244140625</AltitudeMeters>
            <DistanceMeters>451600.138122</DistanceMeters>
          </Trackpoint>
          <Trackpoint>
            <Time>2021-08-02T11:40:47.000Z</Time>
            <Position>
              <LatitudeDegrees>41.73128952272236347198486328125</LatitudeDegrees>
              <LongitudeDegrees>-1.7886547185480594635009765625</LongitudeDegrees>
            </Position>
            <AltitudeMeters>1583.199951171875</AltitudeMeters>
            <DistanceMeters>451661.62327015</DistanceMeters>
          </Trackpoint>
          <Trackpoint>
            <Time>2021-08-02T11:41:06.000Z</Time>
            <Position>
              <LatitudeDegrees>41.73099112696945667266845703125</LatitudeDegrees>
              <LongitudeDegrees>-1.78822665475308895111083984375</LongitudeDegrees>
            </Position>
            <AltitudeMeters>1585.199951171875</AltitudeMeters>
            <DistanceMeters>451710.2777831</DistanceMeters>
          </Trackpoint>
          <Trackpoint>
            <Time>2021-08-02T11:41:24.000Z</Time>
            <Position>
              <LatitudeDegrees>41.73072718083858489990234375</LatitudeDegrees>
              <LongitudeDegrees>-1.78758191876113414764404296875</LongitudeDegrees>
            </Position>
            <AltitudeMeters>1584.800048828125</AltitudeMeters>
            <DistanceMeters>451771.35978425</DistanceMeters>
          </Trackpoint>
          <Trackpoint>
            <Time>2021-08-02T11:41:32.000Z</Time>
            <Position>
              <LatitudeDegrees>41.7306012846529483795166015625</LatitudeDegrees>
              <LongitudeDegrees>-1.78720657713711261749267578125</LongitudeDegrees>
            </Position>
            <AltitudeMeters>1584.199951171875</AltitudeMeters>
            <DistanceMeters>451805.54088152</DistanceMeters>
          </Trackpoint>
          <Trackpoint>
            <Time>2021-08-02T11:41:46.000Z</Time>
            <Position>
              <LatitudeDegrees>41.730396263301372528076171875</LatitudeDegrees>
              <LongitudeDegrees>-1.7865914292633533477783203125</LongitudeDegrees>
            </Position>
            <AltitudeMeters>1583.199951171875</AltitudeMeters>
            <DistanceMeters>451861.50088643</DistanceMeters>
          </Trackpoint>
          <Trackpoint>
            <Time>2021-08-02T11:42:01.000Z</Time>
            <Position>
              <LatitudeDegrees>41.73030515201389789581298828125</LatitudeDegrees>
              <LongitudeDegrees>-1.7860033549368381500244140625</LongitudeDegrees>
            </Position>
            <AltitudeMeters>1582.199951171875</AltitudeMeters>
            <DistanceMeters>451911.38973048</DistanceMeters>
          </Trackpoint>
          <Trackpoint>
            <Time>2021-08-02T11:42:02.000Z</Time>
            <Position>
              <LatitudeDegrees>41.73030213452875614166259765625</LatitudeDegrees>
              <LongitudeDegrees>-1.78594644181430339813232421875</LongitudeDegrees>
            </Position>
            <AltitudeMeters>1581.800048828125</AltitudeMeters>
            <DistanceMeters>451916.12964927</DistanceMeters>
          </Trackpoint>
          <Trackpoint>
            <Time>2021-08-02T11:42:05.000Z</Time>
            <Position>
              <LatitudeDegrees>41.73026776872575283050537109375</LatitudeDegrees>
              <LongitudeDegrees>-1.7857961542904376983642578125</LongitudeDegrees>
            </Position>
            <AltitudeMeters>1581</AltitudeMeters>
            <DistanceMeters>451929.18605701</DistanceMeters>
          </Trackpoint>
          <Trackpoint>
            <Time>2021-08-02T11:42:06.000Z</Time>
            <Position>
              <LatitudeDegrees>41.7302509211003780364990234375</LatitudeDegrees>
              <LongitudeDegrees>-1.785748712718486785888671875</LongitudeDegrees>
            </Position>
            <AltitudeMeters>1580.5999755859375</AltitudeMeters>
            <DistanceMeters>451933.55108408</DistanceMeters>
          </Trackpoint>
          <Trackpoint>
            <Time>2021-08-02T11:42:07.000Z</Time>
            <Position>
              <LatitudeDegrees>41.73023038543760776519775390625</LatitudeDegrees>
              <LongitudeDegrees>-1.78569934330880641937255859375</LongitudeDegrees>
            </Position>
            <AltitudeMeters>1579.5999755859375</AltitudeMeters>
            <DistanceMeters>451938.24601929</DistanceMeters>
          </Trackpoint>
          <Trackpoint>
            <Time>2021-08-02T11:42:09.000Z</Time>
            <Position>
              <LatitudeDegrees>41.730175316333770751953125</LatitudeDegrees>
              <LongitudeDegrees>-1.78559876047074794769287109375</LongitudeDegrees>
            </Position>
            <AltitudeMeters>1578.199951171875</AltitudeMeters>
            <DistanceMeters>451948.60785353</DistanceMeters>
          </Trackpoint>
          <Trackpoint>
            <Time>2021-08-02T11:42:11.000Z</Time>
            <Position>
              <LatitudeDegrees>41.73011966049671173095703125</LatitudeDegrees>
              <LongitudeDegrees>-1.785506643354892730712890625</LongitudeDegrees>
            </Position>
            <AltitudeMeters>1577</AltitudeMeters>
            <DistanceMeters>451958.45218085</DistanceMeters>
          </Trackpoint>
          <Trackpoint>
            <Time>2021-08-02T11:42:14.000Z</Time>
            <Position>
              <LatitudeDegrees>41.73004128970205783843994140625</LatitudeDegrees>
              <LongitudeDegrees>-1.7853727005422115325927734375</LongitudeDegrees>
            </Position>
            <AltitudeMeters>1576</AltitudeMeters>
            <DistanceMeters>451972.58978008</DistanceMeters>
          </Trackpoint>
          <Trackpoint>
            <Time>2021-08-02T11:42:16.000Z</Time>
            <Position>
              <LatitudeDegrees>41.7299940995872020721435546875</LatitudeDegrees>
              <LongitudeDegrees>-1.78527689538896083831787109375</LongitudeDegrees>
            </Position>
            <AltitudeMeters>1574.4000244140625</AltitudeMeters>
            <DistanceMeters>451982.12517938</DistanceMeters>
          </Trackpoint>
          <Trackpoint>
            <Time>2021-08-02T11:42:18.000Z</Time>
            <Position>
              <LatitudeDegrees>41.729949675500392913818359375</LatitudeDegrees>
              <LongitudeDegrees>-1.7851621471345424652099609375</LongitudeDegrees>
            </Position>
            <AltitudeMeters>1572.5999755859375</AltitudeMeters>
            <DistanceMeters>451992.86361857</DistanceMeters>
          </Trackpoint>
          <Trackpoint>
            <Time>2021-08-02T11:42:20.000Z</Time>
            <Position>
              <LatitudeDegrees>41.7299183271825313568115234375</LatitudeDegrees>
              <LongitudeDegrees>-1.78503717295825481414794921875</LongitudeDegrees>
            </Position>
            <AltitudeMeters>1571</AltitudeMeters>
            <DistanceMeters>452003.81604001</DistanceMeters>
          </Trackpoint>
          <Trackpoint>
            <Time>2021-08-02T11:42:22.000Z</Time>
            <Position>
              <LatitudeDegrees>41.72988773323595523834228515625</LatitudeDegrees>
              <LongitudeDegrees>-1.7849076725542545318603515625</LongitudeDegrees>
            </Position>
            <AltitudeMeters>1569.4000244140625</AltitudeMeters>
            <DistanceMeters>452015.09903685</DistanceMeters>
          </Trackpoint>
          <Trackpoint>
            <Time>2021-08-02T11:42:23.000Z</Time>
            <Position>
              <LatitudeDegrees>41.72987348400056362152099609375</LatitudeDegrees>
              <LongitudeDegrees>-1.7848396115005016326904296875</LongitudeDegrees>
            </Position>
            <AltitudeMeters>1568.199951171875</AltitudeMeters>
            <DistanceMeters>452020.96919628</DistanceMeters>
          </Trackpoint>
          <Trackpoint>
            <Time>2021-08-02T11:42:25.000Z</Time>
            <Position>
              <LatitudeDegrees>41.72984498552978038787841796875</LatitudeDegrees>
              <LongitudeDegrees>-1.78471975028514862060546875</LongitudeDegrees>
            </Position>
            <AltitudeMeters>1567</AltitudeMeters>
            <DistanceMeters>452031.41781457</DistanceMeters>
          </Trackpoint>
          <Trackpoint>
            <Time>2021-08-02T11:42:26.000Z</Time>
            <Position>
              <LatitudeDegrees>41.729829311370849609375</LatitudeDegrees>
              <LongitudeDegrees>-1.784669123589992523193359375</LongitudeDegrees>
            </Position>
            <AltitudeMeters>1566.5999755859375</AltitudeMeters>
            <DistanceMeters>452035.96918748</DistanceMeters>
          </Trackpoint>
          <Trackpoint>
            <Time>2021-08-02T11:42:28.000Z</Time>
            <Position>
              <LatitudeDegrees>41.729780696332454681396484375</LatitudeDegrees>
              <LongitudeDegrees>-1.78456292487680912017822265625</LongitudeDegrees>
            </Position>
            <AltitudeMeters>1565.5999755859375</AltitudeMeters>
            <DistanceMeters>452046.31706874</DistanceMeters>
          </Trackpoint>
          <Trackpoint>
            <Time>2021-08-02T11:42:30.000Z</Time>
            <Position>
              <LatitudeDegrees>41.72972026281058788299560546875</LatitudeDegrees>
              <LongitudeDegrees>-1.78447835147380828857421875</LongitudeDegrees>
            </Position>
            <AltitudeMeters>1564.4000244140625</AltitudeMeters>
            <DistanceMeters>452056.04281039</DistanceMeters>
          </Trackpoint>
          <Trackpoint>
            <Time>2021-08-02T11:42:33.000Z</Time>
            <Position>
              <LatitudeDegrees>41.729632504284381866455078125</LatitudeDegrees>
              <LongitudeDegrees>-1.7843695543706417083740234375</LongitudeDegrees>
            </Position>
            <AltitudeMeters>1563.4000244140625</AltitudeMeters>
            <DistanceMeters>452069.34994378</DistanceMeters>
          </Trackpoint>
          <Trackpoint>
            <Time>2021-08-02T11:42:35.000Z</Time>
            <Position>
              <LatitudeDegrees>41.729569137096405029296875</LatitudeDegrees>
              <LongitudeDegrees>-1.7842890881001949310302734375</LongitudeDegrees>
            </Position>
            <AltitudeMeters>1562.199951171875</AltitudeMeters>
            <DistanceMeters>452079.06686095</DistanceMeters>
          </Trackpoint>
          <Trackpoint>
            <Time>2021-08-02T11:42:37.000Z</Time>
            <Position>
              <LatitudeDegrees>41.729504428803920745849609375</LatitudeDegrees>
              <LongitudeDegrees>-1.7842143215239048004150390625</LongitudeDegrees>
            </Position>
            <AltitudeMeters>1561.199951171875</AltitudeMeters>
            <DistanceMeters>452088.57618193</DistanceMeters>
          </Trackpoint>
          <Trackpoint>
            <Time>2021-08-02T11:42:41.000Z</Time>
            <Position>
              <LatitudeDegrees>41.7294090427458286285400390625</LatitudeDegrees>
              <LongitudeDegrees>-1.7840902693569660186767578125</LongitudeDegrees>
            </Position>
            <AltitudeMeters>1560</AltitudeMeters>
            <DistanceMeters>452103.37108149</DistanceMeters>
          </Trackpoint>
          <Trackpoint>
            <Time>2021-08-02T11:42:45.000Z</Time>
            <Position>
              <LatitudeDegrees>41.7293746769428253173828125</LatitudeDegrees>
              <LongitudeDegrees>-1.78399664349853992462158203125</LongitudeDegrees>
            </Position>
            <AltitudeMeters>1559.800048828125</AltitudeMeters>
            <DistanceMeters>452112.03780959</DistanceMeters>
          </Trackpoint>
          <Trackpoint>
            <Time>2021-08-02T11:42:53.000Z</Time>
            <Position>
              <LatitudeDegrees>41.729236207902431488037109375</LatitudeDegrees>
              <LongitudeDegrees>-1.78383487276732921600341796875</LongitudeDegrees>
            </Position>
            <AltitudeMeters>1558.5999755859375</AltitudeMeters>
            <DistanceMeters>452132.48512089</DistanceMeters>
          </Trackpoint>
          <Trackpoint>
            <Time>2021-08-02T11:42:56.000Z</Time>
            <Position>
              <LatitudeDegrees>41.729175858199596405029296875</LatitudeDegrees>
              <LongitudeDegrees>-1.78371769376099109649658203125</LongitudeDegrees>
            </Position>
            <AltitudeMeters>1557.4000244140625</AltitudeMeters>
            <DistanceMeters>452144.31127089</DistanceMeters>
          </Trackpoint>
          <Trackpoint>
            <Time>2021-08-02T11:42:58.000Z</Time>
            <Position>
              <LatitudeDegrees>41.72913135029375553131103515625</LatitudeDegrees>
              <LongitudeDegrees>-1.7836215533316135406494140625</LongitudeDegrees>
            </Position>
            <AltitudeMeters>1555.800048828125</AltitudeMeters>
            <DistanceMeters>452153.70883162</DistanceMeters>
          </Trackpoint>
          <Trackpoint>
            <Time>2021-08-02T11:43:00.000Z</Time>
            <Position>
              <LatitudeDegrees>41.7290814779698848724365234375</LatitudeDegrees>
              <LongitudeDegrees>-1.78350873291492462158203125</LongitudeDegrees>
            </Position>
            <AltitudeMeters>1554.800048828125</AltitudeMeters>
            <DistanceMeters>452164.60089957</DistanceMeters>
          </Trackpoint>
          <Trackpoint>
            <Time>2021-08-02T11:43:02.000Z</Time>
            <Position>
              <LatitudeDegrees>41.7290311865508556365966796875</LatitudeDegrees>
              <LongitudeDegrees>-1.78337956778705120086669921875</LongitudeDegrees>
            </Position>
            <AltitudeMeters>1553.199951171875</AltitudeMeters>
            <DistanceMeters>452176.70254325</DistanceMeters>
          </Trackpoint>
          <Trackpoint>
            <Time>2021-08-02T11:43:04.000Z</Time>
            <Position>
              <LatitudeDegrees>41.728990785777568817138671875</LatitudeDegrees>
              <LongitudeDegrees>-1.78324344567954540252685546875</LongitudeDegrees>
            </Position>
            <AltitudeMeters>1552</AltitudeMeters>
            <DistanceMeters>452188.87078731</DistanceMeters>
          </Trackpoint>
          <Trackpoint>
            <Time>2021-08-02T11:43:07.000Z</Time>
            <Position>
              <LatitudeDegrees>41.72893806360661983489990234375</LatitudeDegrees>
              <LongitudeDegrees>-1.783049069344997406005859375</LongitudeDegrees>
            </Position>
            <AltitudeMeters>1550.199951171875</AltitudeMeters>
            <DistanceMeters>452206.04987222</DistanceMeters>
          </Trackpoint>
          <Trackpoint>
            <Time>2021-08-02T11:43:09.000Z</Time>
            <Position>
              <LatitudeDegrees>41.7289017699658870697021484375</LatitudeDegrees>
              <LongitudeDegrees>-1.78290699608623981475830078125</LongitudeDegrees>
            </Position>
            <AltitudeMeters>1548.800048828125</AltitudeMeters>
            <DistanceMeters>452218.52337282</DistanceMeters>
          </Trackpoint>
          <Trackpoint>
            <Time>2021-08-02T11:43:11.000Z</Time>
            <Position>
              <LatitudeDegrees>41.72886715270578861236572265625</LatitudeDegrees>
              <LongitudeDegrees>-1.78276835940778255462646484375</LongitudeDegrees>
            </Position>
            <AltitudeMeters>1547.5999755859375</AltitudeMeters>
            <DistanceMeters>452230.66673102</DistanceMeters>
          </Trackpoint>
          <Trackpoint>
            <Time>2021-08-02T11:43:12.000Z</Time>
            <Position>
              <LatitudeDegrees>41.72885223291814327239990234375</LatitudeDegrees>
              <LongitudeDegrees>-1.7827082611620426177978515625</LongitudeDegrees>
            </Position>
            <AltitudeMeters>1547.4000244140625</AltitudeMeters>
            <DistanceMeters>452235.92850015</DistanceMeters>
          </Trackpoint>
          <Trackpoint>
            <Time>2021-08-02T11:43:15.000Z</Time>
            <Position>
              <LatitudeDegrees>41.7287884466350078582763671875</LatitudeDegrees>
              <LongitudeDegrees>-1.782524697482585906982421875</LongitudeDegrees>
            </Position>
            <AltitudeMeters>1546.5999755859375</AltitudeMeters>
            <DistanceMeters>452252.74796015</DistanceMeters>
          </Trackpoint>
          <Trackpoint>
            <Time>2021-08-02T11:43:18.000Z</Time>
            <Position>
              <LatitudeDegrees>41.728705130517482757568359375</LatitudeDegrees>
              <LongitudeDegrees>-1.7823260463774204254150390625</LongitudeDegrees>
            </Position>
            <AltitudeMeters>1545.4000244140625</AltitudeMeters>
            <DistanceMeters>452271.67593635</DistanceMeters>
          </Trackpoint>
          <Trackpoint>
            <Time>2021-08-02T11:43:22.000Z</Time>
            <Position>
              <LatitudeDegrees>41.72859306447207927703857421875</LatitudeDegrees>
              <LongitudeDegrees>-1.78203217685222625732421875</LongitudeDegrees>
            </Position>
            <AltitudeMeters>1544.199951171875</AltitudeMeters>
            <DistanceMeters>452299.08830238</DistanceMeters>
          </Trackpoint>
          <Trackpoint>
            <Time>2021-08-02T11:43:30.000Z</Time>
            <Position>
              <LatitudeDegrees>41.7284337244927883148193359375</LatitudeDegrees>
              <LongitudeDegrees>-1.7814038693904876708984375</LongitudeDegrees>
            </Position>
            <AltitudeMeters>1543</AltitudeMeters>
            <DistanceMeters>452354.20977652</DistanceMeters>
          </Trackpoint>
          <Trackpoint>
            <Time>2021-08-02T11:43:33.000Z</Time>
            <Position>
              <LatitudeDegrees>41.72837982885539531707763671875</LatitudeDegrees>
              <LongitudeDegrees>-1.78114973008632659912109375</LongitudeDegrees>
            </Position>
            <AltitudeMeters>1541.5999755859375</AltitudeMeters>
            <DistanceMeters>452376.15580479</DistanceMeters>
          </Trackpoint>
          <Trackpoint>
            <Time>2021-08-02T11:43:35.000Z</Time>
            <Position>
              <LatitudeDegrees>41.72833641059696674346923828125</LatitudeDegrees>
              <LongitudeDegrees>-1.78098075091838836669921875</LongitudeDegrees>
            </Position>
            <AltitudeMeters>1540.199951171875</AltitudeMeters>
            <DistanceMeters>452391.00066874</DistanceMeters>
          </Trackpoint>
          <Trackpoint>
            <Time>2021-08-02T11:43:39.000Z</Time>
            <Position>
              <LatitudeDegrees>41.7282322235405445098876953125</LatitudeDegrees>
              <LongitudeDegrees>-1.780715547502040863037109375</LongitudeDegrees>
            </Position>
            <AltitudeMeters>1539.199951171875</AltitudeMeters>
            <DistanceMeters>452415.89585435</DistanceMeters>
          </Trackpoint>
          <Trackpoint>
            <Time>2021-08-02T11:43:40.000Z</Time>
            <Position>
              <LatitudeDegrees>41.72819861210882663726806640625</LatitudeDegrees>
              <LongitudeDegrees>-1.7806570418179035186767578125</LongitudeDegrees>
            </Position>
            <AltitudeMeters>1538.800048828125</AltitudeMeters>
            <DistanceMeters>452422.02931165</DistanceMeters>
          </Trackpoint>
          <Trackpoint>
            <Time>2021-08-02T11:43:44.000Z</Time>
            <Position>
              <LatitudeDegrees>41.72801387496292591094970703125</LatitudeDegrees>
              <LongitudeDegrees>-1.78043919615447521209716796875</LongitudeDegrees>
            </Position>
            <AltitudeMeters>1538</AltitudeMeters>
            <DistanceMeters>452449.41943306</DistanceMeters>
          </Trackpoint>
          <Trackpoint>
            <Time>2021-08-02T11:43:46.000Z</Time>
            <Position>
              <LatitudeDegrees>41.7279090173542499542236328125</LatitudeDegrees>
              <LongitudeDegrees>-1.78033911623060703277587890625</LongitudeDegrees>
            </Position>
            <AltitudeMeters>1537</AltitudeMeters>
            <DistanceMeters>452463.74862977</DistanceMeters>
          </Trackpoint>
          <Trackpoint>
            <Time>2021-08-02T11:43:48.000Z</Time>
            <Position>
              <LatitudeDegrees>41.72780868597328662872314453125</LatitudeDegrees>
              <LongitudeDegrees>-1.7802325822412967681884765625</LongitudeDegrees>
            </Position>
            <AltitudeMeters>1536.199951171875</AltitudeMeters>
            <DistanceMeters>452477.99661729</DistanceMeters>
          </Trackpoint>
          <Trackpoint>
            <Time>2021-08-02T11:43:49.000Z</Time>
            <Position>
              <LatitudeDegrees>41.72776560299098491668701171875</LatitudeDegrees>
              <LongitudeDegrees>-1.78017231635749340057373046875</LongitudeDegrees>
            </Position>
            <AltitudeMeters>1535.800048828125</AltitudeMeters>
            <DistanceMeters>452484.92900987</DistanceMeters>
          </Trackpoint>
          <Trackpoint>
            <Time>2021-08-02T11:43:52.000Z</Time>
            <Position>
              <LatitudeDegrees>41.72768312506377696990966796875</LatitudeDegrees>
              <LongitudeDegrees>-1.7799720726907253265380859375</LongitudeDegrees>
            </Position>
            <AltitudeMeters>1534.5999755859375</AltitudeMeters>
            <DistanceMeters>452503.92746206</DistanceMeters>
          </Trackpoint>
          <Trackpoint>
            <Time>2021-08-02T11:43:53.000Z</Time>
            <Position>
              <LatitudeDegrees>41.72766619361937046051025390625</LatitudeDegrees>
              <LongitudeDegrees>-1.7799023352563381195068359375</LongitudeDegrees>
            </Position>
            <AltitudeMeters>1534</AltitudeMeters>
            <DistanceMeters>452510.01955646</DistanceMeters>
          </Trackpoint>
          <Trackpoint>
            <Time>2021-08-02T11:43:55.000Z</Time>
            <Position>
              <LatitudeDegrees>41.72762981615960597991943359375</LatitudeDegrees>
              <LongitudeDegrees>-1.7797652073204517364501953125</LongitudeDegrees>
            </Position>
            <AltitudeMeters>1533.4000244140625</AltitudeMeters>
            <DistanceMeters>452522.10850832</DistanceMeters>
          </Trackpoint>
          <Trackpoint>
            <Time>2021-08-02T11:43:58.000Z</Time>
            <Position>
              <LatitudeDegrees>41.72757701016962528228759765625</LatitudeDegrees>
              <LongitudeDegrees>-1.77957233972847461700439453125</LongitudeDegrees>
            </Position>
            <AltitudeMeters>1532</AltitudeMeters>
            <DistanceMeters>452539.17367651</DistanceMeters>
          </Trackpoint>
          <Trackpoint>
            <Time>2021-08-02T11:44:00.000Z</Time>
            <Position>
              <LatitudeDegrees>41.7275439016520977020263671875</LatitudeDegrees>
              <LongitudeDegrees>-1.77943454124033451080322265625</LongitudeDegrees>
            </Position>
            <AltitudeMeters>1530.800048828125</AltitudeMeters>
            <DistanceMeters>452551.19896837</DistanceMeters>
          </Trackpoint>
          <Trackpoint>
            <Time>2021-08-02T11:44:02.000Z</Time>
            <Position>
              <LatitudeDegrees>41.727518253028392791748046875</LatitudeDegrees>
              <LongitudeDegrees>-1.77929908968508243560791015625</LongitudeDegrees>
            </Position>
            <AltitudeMeters>1529.5999755859375</AltitudeMeters>
            <DistanceMeters>452562.80701733</DistanceMeters>
          </Trackpoint>
          <Trackpoint>
            <Time>2021-08-02T11:44:05.000Z</Time>
            <Position>
              <LatitudeDegrees>41.72748128883540630340576171875</LatitudeDegrees>
              <LongitudeDegrees>-1.77910345606505870819091796875</LongitudeDegrees>
            </Position>
            <AltitudeMeters>1527.800048828125</AltitudeMeters>
            <DistanceMeters>452579.57054855</DistanceMeters>
          </Trackpoint>
          <Trackpoint>
            <Time>2021-08-02T11:44:08.000Z</Time>
            <Position>
              <LatitudeDegrees>41.72743485309183597564697265625</LatitudeDegrees>
              <LongitudeDegrees>-1.77890145219862461090087890625</LongitudeDegrees>
            </Position>
            <AltitudeMeters>1526</AltitudeMeters>
            <DistanceMeters>452597.12813237</DistanceMeters>
          </Trackpoint>
          <Trackpoint>
            <Time>2021-08-02T11:44:10.000Z</Time>
            <Position>
              <LatitudeDegrees>41.7273940332233905792236328125</LatitudeDegrees>
              <LongitudeDegrees>-1.7787486501038074493408203125</LongitudeDegrees>
            </Position>
            <AltitudeMeters>1524.5999755859375</AltitudeMeters>
            <DistanceMeters>452610.60953988</DistanceMeters>
          </Trackpoint>
          <Trackpoint>
            <Time>2021-08-02T11:44:12.000Z</Time>
            <Position>
              <LatitudeDegrees>41.72735153697431087493896484375</LatitudeDegrees>
              <LongitudeDegrees>-1.77858822047710418701171875</LongitudeDegrees>
            </Position>
            <AltitudeMeters>1523.199951171875</AltitudeMeters>
            <DistanceMeters>452624.75065168</DistanceMeters>
          </Trackpoint>
          <Trackpoint>
            <Time>2021-08-02T11:44:13.000Z</Time>
            <Position>
              <LatitudeDegrees>41.7273330129683017730712890625</LatitudeDegrees>
              <LongitudeDegrees>-1.778510771691799163818359375</LongitudeDegrees>
            </Position>
            <AltitudeMeters>1522</AltitudeMeters>
            <DistanceMeters>452631.50624243</DistanceMeters>
          </Trackpoint>
          <Trackpoint>
            <Time>2021-08-02T11:44:14.000Z</Time>
            <Position>
              <LatitudeDegrees>41.72731599770486354827880859375</LatitudeDegrees>
              <LongitudeDegrees>-1.77843525074422359466552734375</LongitudeDegrees>
            </Position>
            <AltitudeMeters>1520.800048828125</AltitudeMeters>
            <DistanceMeters>452638.05826375</DistanceMeters>
          </Trackpoint>
          <Trackpoint>
            <Time>2021-08-02T11:44:16.000Z</Time>
            <Position>
              <LatitudeDegrees>41.72728263773024082183837890625</LatitudeDegrees>
              <LongitudeDegrees>-1.7782936803996562957763671875</LongitudeDegrees>
            </Position>
            <AltitudeMeters>1519.5999755859375</AltitudeMeters>
            <DistanceMeters>452650.39015401</DistanceMeters>
          </Trackpoint>
          <Trackpoint>
            <Time>2021-08-02T11:44:18.000Z</Time>
            <Position>
              <LatitudeDegrees>41.72724567353725433349609375</LatitudeDegrees>
              <LongitudeDegrees>-1.77816485054790973663330078125</LongitudeDegrees>
            </Position>
            <AltitudeMeters>1518.4000244140625</AltitudeMeters>
            <DistanceMeters>452661.85496071</DistanceMeters>
          </Trackpoint>
          <Trackpoint>
            <Time>2021-08-02T11:44:20.000Z</Time>
            <Position>
              <LatitudeDegrees>41.72719714231789112091064453125</LatitudeDegrees>
              <LongitudeDegrees>-1.77806653082370758056640625</LongitudeDegrees>
            </Position>
            <AltitudeMeters>1517.199951171875</AltitudeMeters>
            <DistanceMeters>452671.64686307</DistanceMeters>
          </Trackpoint>
          <Trackpoint>
            <Time>2021-08-02T11:44:22.000Z</Time>
            <Position>
              <LatitudeDegrees>41.72713578678667545318603515625</LatitudeDegrees>
              <LongitudeDegrees>-1.77798799239099025726318359375</LongitudeDegrees>
            </Position>
            <AltitudeMeters>1515.5999755859375</AltitudeMeters>
            <DistanceMeters>452681.09139032</DistanceMeters>
          </Trackpoint>
          <Trackpoint>
            <Time>2021-08-02T11:44:24.000Z</Time>
            <Position>
              <LatitudeDegrees>41.72706604935228824615478515625</LatitudeDegrees>
              <LongitudeDegrees>-1.77792144007980823516845703125</LongitudeDegrees>
            </Position>
            <AltitudeMeters>1514.5999755859375</AltitudeMeters>
            <DistanceMeters>452690.62063209</DistanceMeters>
          </Trackpoint>
          <Trackpoint>
            <Time>2021-08-02T11:44:25.000Z</Time>
            <Position>
              <LatitudeDegrees>41.72703151591122150421142578125</LatitudeDegrees>
              <LongitudeDegrees>-1.77789160050451755523681640625</LongitudeDegrees>
            </Position>
            <AltitudeMeters>1514</AltitudeMeters>
            <DistanceMeters>452695.1937773</DistanceMeters>
          </Trackpoint>
          <Trackpoint>
            <Time>2021-08-02T11:44:27.000Z</Time>
            <Position>
              <LatitudeDegrees>41.7269648797810077667236328125</LatitudeDegrees>
              <LongitudeDegrees>-1.77782856859266757965087890625</LongitudeDegrees>
            </Position>
            <AltitudeMeters>1512.800048828125</AltitudeMeters>
            <DistanceMeters>452704.2726835</DistanceMeters>
          </Trackpoint>
          <Trackpoint>
            <Time>2021-08-02T11:44:29.000Z</Time>
            <Position>
              <LatitudeDegrees>41.7268917895853519439697265625</LatitudeDegrees>
              <LongitudeDegrees>-1.77774458192288875579833984375</LongitudeDegrees>
            </Position>
            <AltitudeMeters>1511.800048828125</AltitudeMeters>
            <DistanceMeters>452714.98965799</DistanceMeters>
          </Trackpoint>
          <Trackpoint>
            <Time>2021-08-02T11:44:31.000Z</Time>
            <Position>
              <LatitudeDegrees>41.72681383788585662841796875</LatitudeDegrees>
              <LongitudeDegrees>-1.77764416672289371490478515625</LongitudeDegrees>
            </Position>
            <AltitudeMeters>1510</AltitudeMeters>
            <DistanceMeters>452727.02508304</DistanceMeters>
          </Trackpoint>
          <Trackpoint>
            <Time>2021-08-02T11:44:33.000Z</Time>
            <Position>
              <LatitudeDegrees>41.726741082966327667236328125</LatitudeDegrees>
              <LongitudeDegrees>-1.7775466851890087127685546875</LongitudeDegrees>
            </Position>
            <AltitudeMeters>1508.5999755859375</AltitudeMeters>
            <DistanceMeters>452738.47649213</DistanceMeters>
          </Trackpoint>
          <Trackpoint>
            <Time>2021-08-02T11:44:35.000Z</Time>
            <Position>
              <LatitudeDegrees>41.7266844213008880615234375</LatitudeDegrees>
              <LongitudeDegrees>-1.7774677276611328125</LongitudeDegrees>
            </Position>
            <AltitudeMeters>1507.4000244140625</AltitudeMeters>
            <DistanceMeters>452747.57526902</DistanceMeters>
          </Trackpoint>
          <Trackpoint>
            <Time>2021-08-02T11:44:38.000Z</Time>
            <Position>
              <LatitudeDegrees>41.7266093194484710693359375</LatitudeDegrees>
              <LongitudeDegrees>-1.7773425020277500152587890625</LongitudeDegrees>
            </Position>
            <AltitudeMeters>1506.199951171875</AltitudeMeters>
            <DistanceMeters>452760.91967262</DistanceMeters>
          </Trackpoint>
          <Trackpoint>
            <Time>2021-08-02T11:44:41.000Z</Time>
            <Position>
              <LatitudeDegrees>41.72651971690356731414794921875</LatitudeDegrees>
              <LongitudeDegrees>-1.777197830379009246826171875</LongitudeDegrees>
            </Position>
            <AltitudeMeters>1505</AltitudeMeters>
            <DistanceMeters>452776.53646821</DistanceMeters>
          </Trackpoint>
          <Trackpoint>
            <Time>2021-08-02T11:44:43.000Z</Time>
            <Position>
              <LatitudeDegrees>41.7264525778591632843017578125</LatitudeDegrees>
              <LongitudeDegrees>-1.77709951065480709075927734375</LongitudeDegrees>
            </Position>
            <AltitudeMeters>1503</AltitudeMeters>
            <DistanceMeters>452787.60616276</DistanceMeters>
          </Trackpoint>
          <Trackpoint>
            <Time>2021-08-02T11:44:45.000Z</Time>
            <Position>
              <LatitudeDegrees>41.72638962976634502410888671875</LatitudeDegrees>
              <LongitudeDegrees>-1.77700244821608066558837890625</LongitudeDegrees>
            </Position>
            <AltitudeMeters>1501.4000244140625</AltitudeMeters>
            <DistanceMeters>452798.28726691</DistanceMeters>
          </Trackpoint>
          <Trackpoint>
            <Time>2021-08-02T11:44:47.000Z</Time>
            <Position>
              <LatitudeDegrees>41.72632341273128986358642578125</LatitudeDegrees>
              <LongitudeDegrees>-1.776902116835117340087890625</LongitudeDegrees>
            </Position>
            <AltitudeMeters>1500</AltitudeMeters>
            <DistanceMeters>452809.41310566</DistanceMeters>
          </Trackpoint>
          <Trackpoint>
            <Time>2021-08-02T11:44:49.000Z</Time>
            <Position>
              <LatitudeDegrees>41.72625853680074214935302734375</LatitudeDegrees>
              <LongitudeDegrees>-1.7767983488738536834716796875</LongitudeDegrees>
            </Position>
            <AltitudeMeters>1498.4000244140625</AltitudeMeters>
            <DistanceMeters>452820.65802275</DistanceMeters>
          </Trackpoint>
          <Trackpoint>
            <Time>2021-08-02T11:44:51.000Z</Time>
            <Position>
              <LatitudeDegrees>41.72620229423046112060546875</LatitudeDegrees>
              <LongitudeDegrees>-1.77670069970190525054931640625</LongitudeDegrees>
            </Position>
            <AltitudeMeters>1496.800048828125</AltitudeMeters>
            <DistanceMeters>452830.9041766</DistanceMeters>
          </Trackpoint>
          <Trackpoint>
            <Time>2021-08-02T11:44:53.000Z</Time>
            <Position>
              <LatitudeDegrees>41.72614999115467071533203125</LatitudeDegrees>
              <LongitudeDegrees>-1.7766032181680202484130859375</LongitudeDegrees>
            </Position>
            <AltitudeMeters>1495.800048828125</AltitudeMeters>
            <DistanceMeters>452840.87700278</DistanceMeters>
          </Trackpoint>
          <Trackpoint>
            <Time>2021-08-02T11:44:55.000Z</Time>
            <Position>
              <LatitudeDegrees>41.72610783018171787261962890625</LatitudeDegrees>
              <LongitudeDegrees>-1.776523925364017486572265625</LongitudeDegrees>
            </Position>
            <AltitudeMeters>1494</AltitudeMeters>
            <DistanceMeters>452848.96432889</DistanceMeters>
          </Trackpoint>
          <Trackpoint>
            <Time>2021-08-02T11:44:57.000Z</Time>
            <Position>
              <LatitudeDegrees>41.72606240026652812957763671875</LatitudeDegrees>
              <LongitudeDegrees>-1.7764429561793804168701171875</LongitudeDegrees>
            </Position>
            <AltitudeMeters>1492.5999755859375</AltitudeMeters>
            <DistanceMeters>452857.37942601</DistanceMeters>
          </Trackpoint>
          <Trackpoint>
            <Time>2021-08-02T11:44:59.000Z</Time>
            <Position>
              <LatitudeDegrees>41.726009510457515716552734375</LatitudeDegrees>
              <LongitudeDegrees>-1.776359640061855316162109375</LongitudeDegrees>
            </Position>
            <AltitudeMeters>1491.5999755859375</AltitudeMeters>
            <DistanceMeters>452866.46529189</DistanceMeters>
          </Trackpoint>
          <Trackpoint>
            <Time>2021-08-02T11:45:02.000Z</Time>
            <Position>
              <LatitudeDegrees>41.72591621987521648406982421875</LatitudeDegrees>
              <LongitudeDegrees>-1.77623198367655277252197265625</LongitudeDegrees>
            </Position>
            <AltitudeMeters>1490.4000244140625</AltitudeMeters>
            <DistanceMeters>452881.30680983</DistanceMeters>
          </Trackpoint>
          <Trackpoint>
            <Time>2021-08-02T11:45:06.000Z</Time>
            <Position>
              <LatitudeDegrees>41.72575377859175205230712890625</LatitudeDegrees>
              <LongitudeDegrees>-1.77606820128858089447021484375</LongitudeDegrees>
            </Position>
            <AltitudeMeters>1488.5999755859375</AltitudeMeters>
            <DistanceMeters>452903.93394562</DistanceMeters>
          </Trackpoint>
          <Trackpoint>
            <Time>2021-08-02T11:45:08.000Z</Time>
            <Position>
              <LatitudeDegrees>41.72565822489559650421142578125</LatitudeDegrees>
              <LongitudeDegrees>-1.7759970389306545257568359375</LongitudeDegrees>
            </Position>
            <AltitudeMeters>1487.199951171875</AltitudeMeters>
            <DistanceMeters>452916.10144756</DistanceMeters>
          </Trackpoint>
          <Trackpoint>
            <Time>2021-08-02T11:45:09.000Z</Time>
            <Position>
              <LatitudeDegrees>41.72561313025653362274169921875</LatitudeDegrees>
              <LongitudeDegrees>-1.7759616672992706298828125</LongitudeDegrees>
            </Position>
            <AltitudeMeters>1486.199951171875</AltitudeMeters>
            <DistanceMeters>452921.91751722</DistanceMeters>
          </Trackpoint>
          <Trackpoint>
            <Time>2021-08-02T11:45:11.000Z</Time>
            <Position>
              <LatitudeDegrees>41.7255278863012790679931640625</LatitudeDegrees>
              <LongitudeDegrees>-1.775884889066219329833984375</LongitudeDegrees>
            </Position>
            <AltitudeMeters>1485.199951171875</AltitudeMeters>
            <DistanceMeters>452933.3499853</DistanceMeters>
          </Trackpoint>
          <Trackpoint>
            <Time>2021-08-02T11:45:14.000Z</Time>
            <Position>
              <LatitudeDegrees>41.72540056519210338592529296875</LatitudeDegrees>
              <LongitudeDegrees>-1.77573166787624359130859375</LongitudeDegrees>
            </Position>
            <AltitudeMeters>1483.5999755859375</AltitudeMeters>
            <DistanceMeters>452952.39756813</DistanceMeters>
          </Trackpoint>
          <Trackpoint>
            <Time>2021-08-02T11:45:16.000Z</Time>
            <Position>
              <LatitudeDegrees>41.7252982221543788909912109375</LatitudeDegrees>
              <LongitudeDegrees>-1.77561222575604915618896484375</LongitudeDegrees>
            </Position>
            <AltitudeMeters>1482.5999755859375</AltitudeMeters>
            <DistanceMeters>452967.50382715</DistanceMeters>
          </Trackpoint>
          <Trackpoint>
            <Time>2021-08-02T11:45:17.000Z</Time>
            <Position>
              <LatitudeDegrees>41.7252402193844318389892578125</LatitudeDegrees>
              <LongitudeDegrees>-1.77555807866156101226806640625</LongitudeDegrees>
            </Position>
            <AltitudeMeters>1482.4000244140625</AltitudeMeters>
            <DistanceMeters>452975.37155707</DistanceMeters>
          </Trackpoint>
          <Trackpoint>
            <Time>2021-08-02T11:45:21.000Z</Time>
            <Position>
              <LatitudeDegrees>41.725064031779766082763671875</LatitudeDegrees>
              <LongitudeDegrees>-1.77542950026690959930419921875</LongitudeDegrees>
            </Position>
            <AltitudeMeters>1483.5999755859375</AltitudeMeters>
            <DistanceMeters>452997.70141961</DistanceMeters>
          </Trackpoint>
          <Trackpoint>
            <Time>2021-08-02T11:45:23.000Z</Time>
            <Position>
              <LatitudeDegrees>41.72503142617642879486083984375</LatitudeDegrees>
              <LongitudeDegrees>-1.7754171788692474365234375</LongitudeDegrees>
            </Position>
            <AltitudeMeters>1485</AltitudeMeters>
            <DistanceMeters>453001.47147801</DistanceMeters>
          </Trackpoint>
          <Trackpoint>
            <Time>2021-08-02T11:45:26.000Z</Time>
            <Position>
              <LatitudeDegrees>41.724996976554393768310546875</LatitudeDegrees>
              <LongitudeDegrees>-1.77540066651999950408935546875</LongitudeDegrees>
            </Position>
            <AltitudeMeters>1486.199951171875</AltitudeMeters>
            <DistanceMeters>453005.54323689</DistanceMeters>
          </Trackpoint>
          <Trackpoint>
            <Time>2021-08-02T11:45:33.000Z</Time>
            <Position>
              <LatitudeDegrees>41.72492598183453083038330078125</LatitudeDegrees>
              <LongitudeDegrees>-1.77535439841449260711669921875</LongitudeDegrees>
            </Position>
            <AltitudeMeters>1487.4000244140625</AltitudeMeters>
            <DistanceMeters>453014.33051085</DistanceMeters>
          </Trackpoint>
          <Trackpoint>
            <Time>2021-08-02T11:47:56.000Z</Time>
            <Position>
              <LatitudeDegrees>41.724511496722698211669921875</LatitudeDegrees>
              <LongitudeDegrees>-1.7750582657754421234130859375</LongitudeDegrees>
            </Position>
            <AltitudeMeters>1493.4000244140625</AltitudeMeters>
            <DistanceMeters>453066.61256484</DistanceMeters>
          </Trackpoint>
          <Trackpoint>
            <Time>2021-08-02T11:48:01.000Z</Time>
            <Position>
              <LatitudeDegrees>41.72439423389732837677001953125</LatitudeDegrees>
              <LongitudeDegrees>-1.7749679088592529296875</LongitudeDegrees>
            </Position>
            <AltitudeMeters>1492</AltitudeMeters>
            <DistanceMeters>453081.66882729</DistanceMeters>
          </Trackpoint>
          <Trackpoint>
            <Time>2021-08-02T11:48:03.000Z</Time>
            <Position>
              <LatitudeDegrees>41.72432332299649715423583984375</LatitudeDegrees>
              <LongitudeDegrees>-1.77489171735942363739013671875</LongitudeDegrees>
            </Position>
            <AltitudeMeters>1490.5999755859375</AltitudeMeters>
            <DistanceMeters>453091.78549109</DistanceMeters>
          </Trackpoint>
          <Trackpoint>
            <Time>2021-08-02T11:48:05.000Z</Time>
            <Position>
              <LatitudeDegrees>41.72424453310668468475341796875</LatitudeDegrees>
              <LongitudeDegrees>-1.77480773068964481353759765625</LongitudeDegrees>
            </Position>
            <AltitudeMeters>1489.199951171875</AltitudeMeters>
            <DistanceMeters>453102.99139324</DistanceMeters>
          </Trackpoint>
          <Trackpoint>
            <Time>2021-08-02T11:48:08.000Z</Time>
            <Position>
              <LatitudeDegrees>41.72412634827196598052978515625</LatitudeDegrees>
              <LongitudeDegrees>-1.774681247770786285400390625</LongitudeDegrees>
            </Position>
            <AltitudeMeters>1487.800048828125</AltitudeMeters>
            <DistanceMeters>453119.82695202</DistanceMeters>
          </Trackpoint>
          <Trackpoint>
            <Time>2021-08-02T11:48:11.000Z</Time>
            <Position>
              <LatitudeDegrees>41.72401369549334049224853515625</LatitudeDegrees>
              <LongitudeDegrees>-1.7745697684586048126220703125</LongitudeDegrees>
            </Position>
            <AltitudeMeters>1486.5999755859375</AltitudeMeters>
            <DistanceMeters>453135.41480938</DistanceMeters>
          </Trackpoint>
          <Trackpoint>
            <Time>2021-08-02T11:48:12.000Z</Time>
            <Position>
              <LatitudeDegrees>41.72397874295711517333984375</LatitudeDegrees>
              <LongitudeDegrees>-1.77453582175076007843017578125</LongitudeDegrees>
            </Position>
            <AltitudeMeters>1486.4000244140625</AltitudeMeters>
            <DistanceMeters>453140.21906534</DistanceMeters>
          </Trackpoint>
          <Trackpoint>
            <Time>2021-08-02T11:48:17.000Z</Time>
            <Position>
              <LatitudeDegrees>41.72384555451571941375732421875</LatitudeDegrees>
              <LongitudeDegrees>-1.77442803047597408294677734375</LongitudeDegrees>
            </Position>
            <AltitudeMeters>1485.5999755859375</AltitudeMeters>
            <DistanceMeters>453157.53740704</DistanceMeters>
          </Trackpoint>
          <Trackpoint>
            <Time>2021-08-02T11:48:21.000Z</Time>
            <Position>
              <LatitudeDegrees>41.723726950585842132568359375</LatitudeDegrees>
              <LongitudeDegrees>-1.77436240017414093017578125</LongitudeDegrees>
            </Position>
            <AltitudeMeters>1484.4000244140625</AltitudeMeters>
            <DistanceMeters>453171.81989376</DistanceMeters>
          </Trackpoint>
          <Trackpoint>
            <Time>2021-08-02T11:48:24.000Z</Time>
            <Position>
              <LatitudeDegrees>41.72362728975713253021240234375</LatitudeDegrees>
              <LongitudeDegrees>-1.77432040683925151824951171875</LongitudeDegrees>
            </Position>
            <AltitudeMeters>1483</AltitudeMeters>
            <DistanceMeters>453183.44815092</DistanceMeters>
          </Trackpoint>
          <Trackpoint>
            <Time>2021-08-02T11:48:27.000Z</Time>
            <Position>
              <LatitudeDegrees>41.72354221343994140625</LatitudeDegrees>
              <LongitudeDegrees>-1.77428469993174076080322265625</LongitudeDegrees>
            </Position>
            <AltitudeMeters>1481.5999755859375</AltitudeMeters>
            <DistanceMeters>453193.37105138</DistanceMeters>
          </Trackpoint>
          <Trackpoint>
            <Time>2021-08-02T11:48:32.000Z</Time>
            <Position>
              <LatitudeDegrees>41.7233630083501338958740234375</LatitudeDegrees>
              <LongitudeDegrees>-1.77421730943024158477783203125</LongitudeDegrees>
            </Position>
            <AltitudeMeters>1480.199951171875</AltitudeMeters>
            <DistanceMeters>453214.08752896</DistanceMeters>
          </Trackpoint>
          <Trackpoint>
            <Time>2021-08-02T11:48:37.000Z</Time>
            <Position>
              <LatitudeDegrees>41.72321624122560024261474609375</LatitudeDegrees>
              <LongitudeDegrees>-1.77414690144360065460205078125</LongitudeDegrees>
            </Position>
            <AltitudeMeters>1479.199951171875</AltitudeMeters>
            <DistanceMeters>453231.43868882</DistanceMeters>
          </Trackpoint>
          <Trackpoint>
            <Time>2021-08-02T11:48:40.000Z</Time>
            <Position>
              <LatitudeDegrees>41.72309939749538898468017578125</LatitudeDegrees>
              <LongitudeDegrees>-1.7740943469107151031494140625</LongitudeDegrees>
            </Position>
            <AltitudeMeters>1478</AltitudeMeters>
            <DistanceMeters>453245.15680797</DistanceMeters>
          </Trackpoint>
          <Trackpoint>
            <Time>2021-08-02T11:48:43.000Z</Time>
            <Position>
              <LatitudeDegrees>41.722967885434627532958984375</LatitudeDegrees>
              <LongitudeDegrees>-1.77401907742023468017578125</LongitudeDegrees>
            </Position>
            <AltitudeMeters>1476.5999755859375</AltitudeMeters>
            <DistanceMeters>453261.07399538</DistanceMeters>
          </Trackpoint>
          <Trackpoint>
            <Time>2021-08-02T11:48:45.000Z</Time>
            <Position>
              <LatitudeDegrees>41.72288482077419757843017578125</LatitudeDegrees>
              <LongitudeDegrees>-1.77395914681255817413330078125</LongitudeDegrees>
            </Position>
            <AltitudeMeters>1475.800048828125</AltitudeMeters>
            <DistanceMeters>453271.57519976</DistanceMeters>
          </Trackpoint>
          <Trackpoint>
            <Time>2021-08-02T11:48:47.000Z</Time>
            <Position>
              <LatitudeDegrees>41.722804270684719085693359375</LatitudeDegrees>
              <LongitudeDegrees>-1.77390332333743572235107421875</LongitudeDegrees>
            </Position>
            <AltitudeMeters>1475</AltitudeMeters>
            <DistanceMeters>453281.66862943</DistanceMeters>
          </Trackpoint>
          <Trackpoint>
            <Time>2021-08-02T11:48:49.000Z</Time>
            <Position>
              <LatitudeDegrees>41.7227246426045894622802734375</LatitudeDegrees>
              <LongitudeDegrees>-1.773851104080677032470703125</LongitudeDegrees>
            </Position>
            <AltitudeMeters>1474.5999755859375</AltitudeMeters>
            <DistanceMeters>453291.53631985</DistanceMeters>
          </Trackpoint>
          <Trackpoint>
            <Time>2021-08-02T11:48:53.000Z</Time>
            <Position>
              <LatitudeDegrees>41.72256547026336193084716796875</LatitudeDegrees>
              <LongitudeDegrees>-1.7737463302910327911376953125</LongitudeDegrees>
            </Position>
            <AltitudeMeters>1473.199951171875</AltitudeMeters>
            <DistanceMeters>453311.27513208</DistanceMeters>
          </Trackpoint>
          <Trackpoint>
            <Time>2021-08-02T11:48:56.000Z</Time>
            <Position>
              <LatitudeDegrees>41.72242817468941211700439453125</LatitudeDegrees>
              <LongitudeDegrees>-1.77367617376148700714111328125</LongitudeDegrees>
            </Position>
            <AltitudeMeters>1472.199951171875</AltitudeMeters>
            <DistanceMeters>453327.62966859</DistanceMeters>
          </Trackpoint>
          <Trackpoint>
            <Time>2021-08-02T11:48:58.000Z</Time>
            <Position>
              <LatitudeDegrees>41.7223330400884151458740234375</LatitudeDegrees>
              <LongitudeDegrees>-1.7736407183110713958740234375</LongitudeDegrees>
            </Position>
            <AltitudeMeters>1472</AltitudeMeters>
            <DistanceMeters>453338.62036159</DistanceMeters>
          </Trackpoint>
          <Trackpoint>
            <Time>2021-08-02T11:49:02.000Z</Time>
            <Position>
              <LatitudeDegrees>41.72216481529176235198974609375</LatitudeDegrees>
              <LongitudeDegrees>-1.77355907857418060302734375</LongitudeDegrees>
            </Position>
            <AltitudeMeters>1471.800048828125</AltitudeMeters>
            <DistanceMeters>453358.53475079</DistanceMeters>
          </Trackpoint>
          <Trackpoint>
            <Time>2021-08-02T11:49:04.000Z</Time>
            <Position>
              <LatitudeDegrees>41.7220882885158061981201171875</LatitudeDegrees>
              <LongitudeDegrees>-1.77349763922393321990966796875</LongitudeDegrees>
            </Position>
            <AltitudeMeters>1471.4000244140625</AltitudeMeters>
            <DistanceMeters>453368.46492877</DistanceMeters>
          </Trackpoint>
          <Trackpoint>
            <Time>2021-08-02T11:49:09.000Z</Time>
            <Position>
              <LatitudeDegrees>41.72188452444970607757568359375</LatitudeDegrees>
              <LongitudeDegrees>-1.77337995730340480804443359375</LongitudeDegrees>
            </Position>
            <AltitudeMeters>1470.4000244140625</AltitudeMeters>
            <DistanceMeters>453393.16163874</DistanceMeters>
          </Trackpoint>
          <Trackpoint>
            <Time>2021-08-02T11:49:11.000Z</Time>
            <Position>
              <LatitudeDegrees>41.7218012921512126922607421875</LatitudeDegrees>
              <LongitudeDegrees>-1.7733371257781982421875</LongitudeDegrees>
            </Position>
            <AltitudeMeters>1469.199951171875</AltitudeMeters>
            <DistanceMeters>453403.08544918</DistanceMeters>
          </Trackpoint>
          <Trackpoint>
            <Time>2021-08-02T11:49:14.000Z</Time>
            <Position>
              <LatitudeDegrees>41.7216688580811023712158203125</LatitudeDegrees>
              <LongitudeDegrees>-1.77328415215015411376953125</LongitudeDegrees>
            </Position>
            <AltitudeMeters>1468.4000244140625</AltitudeMeters>
            <DistanceMeters>453418.46862776</DistanceMeters>
          </Trackpoint>
          <Trackpoint>
            <Time>2021-08-02T11:49:15.000Z</Time>
            <Position>
              <LatitudeDegrees>41.7216279543936252593994140625</LatitudeDegrees>
              <LongitudeDegrees>-1.7732645384967327117919921875</LongitudeDegrees>
            </Position>
            <AltitudeMeters>1468.199951171875</AltitudeMeters>
            <DistanceMeters>453423.30473136</DistanceMeters>
          </Trackpoint>
          <Trackpoint>
            <Time>2021-08-02T11:49:23.000Z</Time>
            <Position>
              <LatitudeDegrees>41.72139468602836132049560546875</LatitudeDegrees>
              <LongitudeDegrees>-1.77315079607069492340087890625</LongitudeDegrees>
            </Position>
            <AltitudeMeters>1467.4000244140625</AltitudeMeters>
            <DistanceMeters>453450.93382006</DistanceMeters>
          </Trackpoint>
          <Trackpoint>
            <Time>2021-08-02T11:49:25.000Z</Time>
            <Position>
              <LatitudeDegrees>41.72135177068412303924560546875</LatitudeDegrees>
              <LongitudeDegrees>-1.773164458572864532470703125</LongitudeDegrees>
            </Position>
            <AltitudeMeters>1466.199951171875</AltitudeMeters>
            <DistanceMeters>453455.8440445</DistanceMeters>
          </Trackpoint>
          <Trackpoint>
            <Time>2021-08-02T11:49:28.000Z</Time>
            <Position>
              <LatitudeDegrees>41.72130030579864978790283203125</LatitudeDegrees>
              <LongitudeDegrees>-1.77321441471576690673828125</LongitudeDegrees>
            </Position>
            <AltitudeMeters>1465</AltitudeMeters>
            <DistanceMeters>453462.91827122</DistanceMeters>
          </Trackpoint>
          <Trackpoint>
            <Time>2021-08-02T11:49:29.000Z</Time>
            <Position>
              <LatitudeDegrees>41.72128689475357532501220703125</LatitudeDegrees>
              <LongitudeDegrees>-1.77323444746434688568115234375</LongitudeDegrees>
            </Position>
            <AltitudeMeters>1464.5999755859375</AltitudeMeters>
            <DistanceMeters>453465.15493444</DistanceMeters>
          </Trackpoint>
          <Trackpoint>
            <Time>2021-08-02T11:49:33.000Z</Time>
            <Position>
              <LatitudeDegrees>41.7212500981986522674560546875</LatitudeDegrees>
              <LongitudeDegrees>-1.7733218707144260406494140625</LongitudeDegrees>
            </Position>
            <AltitudeMeters>1464</AltitudeMeters>
            <DistanceMeters>453473.49241178</DistanceMeters>
          </Trackpoint>
          <Trackpoint>
            <Time>2021-08-02T11:49:37.000Z</Time>
            <Position>
              <LatitudeDegrees>41.7212775908410549163818359375</LatitudeDegrees>
              <LongitudeDegrees>-1.773434691131114959716796875</LongitudeDegrees>
            </Position>
            <AltitudeMeters>1463</AltitudeMeters>
            <DistanceMeters>453483.35140478</DistanceMeters>
          </Trackpoint>
          <Trackpoint>
            <Time>2021-08-02T11:49:41.000Z</Time>
            <Position>
              <LatitudeDegrees>41.7213560454547405242919921875</LatitudeDegrees>
              <LongitudeDegrees>-1.7735396325588226318359375</LongitudeDegrees>
            </Position>
            <AltitudeMeters>1461.800048828125</AltitudeMeters>
            <DistanceMeters>453495.69098131</DistanceMeters>
          </Trackpoint>
          <Trackpoint>
            <Time>2021-08-02T11:49:45.000Z</Time>
            <Position>
              <LatitudeDegrees>41.7214596457779407501220703125</LatitudeDegrees>
              <LongitudeDegrees>-1.773606352508068084716796875</LongitudeDegrees>
            </Position>
            <AltitudeMeters>1460.800048828125</AltitudeMeters>
            <DistanceMeters>453508.48505008</DistanceMeters>
          </Trackpoint>
          <Trackpoint>
            <Time>2021-08-02T11:49:47.000Z</Time>
            <Position>
              <LatitudeDegrees>41.72151722945272922515869140625</LatitudeDegrees>
              <LongitudeDegrees>-1.77364264614880084991455078125</LongitudeDegrees>
            </Position>
            <AltitudeMeters>1459.800048828125</AltitudeMeters>
            <DistanceMeters>453515.56820649</DistanceMeters>
          </Trackpoint>
          <Trackpoint>
            <Time>2021-08-02T11:49:49.000Z</Time>
            <Position>
              <LatitudeDegrees>41.72158889472484588623046875</LatitudeDegrees>
              <LongitudeDegrees>-1.7736809514462947845458984375</LongitudeDegrees>
            </Position>
            <AltitudeMeters>1458.800048828125</AltitudeMeters>
            <DistanceMeters>453524.15590899</DistanceMeters>
          </Trackpoint>
          <Trackpoint>
            <Time>2021-08-02T11:49:51.000Z</Time>
            <Position>
              <LatitudeDegrees>41.72166609205305576324462890625</LatitudeDegrees>
              <LongitudeDegrees>-1.77372830919921398162841796875</LongitudeDegrees>
            </Position>
            <AltitudeMeters>1457.4000244140625</AltitudeMeters>
            <DistanceMeters>453533.60617121</DistanceMeters>
          </Trackpoint>
          <Trackpoint>
            <Time>2021-08-02T11:49:52.000Z</Time>
            <Position>
              <LatitudeDegrees>41.721709929406642913818359375</LatitudeDegrees>
              <LongitudeDegrees>-1.77374859340488910675048828125</LongitudeDegrees>
            </Position>
            <AltitudeMeters>1456.5999755859375</AltitudeMeters>
            <DistanceMeters>453538.76744291</DistanceMeters>
          </Trackpoint>
          <Trackpoint>
            <Time>2021-08-02T11:49:53.000Z</Time>
            <Position>
              <LatitudeDegrees>41.721757538616657257080078125</LatitudeDegrees>
              <LongitudeDegrees>-1.7737718112766742706298828125</LongitudeDegrees>
            </Position>
            <AltitudeMeters>1456</AltitudeMeters>
            <DistanceMeters>453544.40613949</DistanceMeters>
          </Trackpoint>
          <Trackpoint>
            <Time>2021-08-02T11:49:55.000Z</Time>
            <Position>
              <LatitudeDegrees>41.7218519188463687896728515625</LatitudeDegrees>
              <LongitudeDegrees>-1.77385454066097736358642578125</LongitudeDegrees>
            </Position>
            <AltitudeMeters>1454.4000244140625</AltitudeMeters>
            <DistanceMeters>453556.95938067</DistanceMeters>
          </Trackpoint>
          <Trackpoint>
            <Time>2021-08-02T11:49:56.000Z</Time>
            <Position>
              <LatitudeDegrees>41.72189760021865367889404296875</LatitudeDegrees>
              <LongitudeDegrees>-1.773913465440273284912109375</LongitudeDegrees>
            </Position>
            <AltitudeMeters>1453.4000244140625</AltitudeMeters>
            <DistanceMeters>453564.0169937</DistanceMeters>
          </Trackpoint>
          <Trackpoint>
            <Time>2021-08-02T11:49:57.000Z</Time>
            <Position>
              <LatitudeDegrees>41.7219454608857631683349609375</LatitudeDegrees>
              <LongitudeDegrees>-1.7739795148372650146484375</LongitudeDegrees>
            </Position>
            <AltitudeMeters>1452.4000244140625</AltitudeMeters>
            <DistanceMeters>453571.66413532</DistanceMeters>
          </Trackpoint>
          <Trackpoint>
            <Time>2021-08-02T11:49:58.000Z</Time>
            <Position>
              <LatitudeDegrees>41.72199248336255550384521484375</LatitudeDegrees>
              <LongitudeDegrees>-1.7740465700626373291015625</LongitudeDegrees>
            </Position>
            <AltitudeMeters>1451.5999755859375</AltitudeMeters>
            <DistanceMeters>453579.3077336</DistanceMeters>
          </Trackpoint>
          <Trackpoint>
            <Time>2021-08-02T11:49:59.000Z</Time>
            <Position>
              <LatitudeDegrees>41.72204126603901386260986328125</LatitudeDegrees>
              <LongitudeDegrees>-1.77410733886063098907470703125</LongitudeDegrees>
            </Position>
            <AltitudeMeters>1450.5999755859375</AltitudeMeters>
            <DistanceMeters>453586.72103551</DistanceMeters>
          </Trackpoint>
          <Trackpoint>
            <Time>2021-08-02T11:50:01.000Z</Time>
            <Position>
              <LatitudeDegrees>41.72213849611580371856689453125</LatitudeDegrees>
              <LongitudeDegrees>-1.77422921173274517059326171875</LongitudeDegrees>
            </Position>
            <AltitudeMeters>1449.4000244140625</AltitudeMeters>
            <DistanceMeters>453601.54032899</DistanceMeters>
          </Trackpoint>
          <Trackpoint>
            <Time>2021-08-02T11:50:03.000Z</Time>
            <Position>
              <LatitudeDegrees>41.72223840840160846710205078125</LatitudeDegrees>
              <LongitudeDegrees>-1.7743511684238910675048828125</LongitudeDegrees>
            </Position>
            <AltitudeMeters>1448.4000244140625</AltitudeMeters>
            <DistanceMeters>453616.5839913</DistanceMeters>
          </Trackpoint>
          <Trackpoint>
            <Time>2021-08-02T11:50:06.000Z</Time>
            <Position>
              <LatitudeDegrees>41.72239548526704311370849609375</LatitudeDegrees>
              <LongitudeDegrees>-1.7745305411517620086669921875</LongitudeDegrees>
            </Position>
            <AltitudeMeters>1447.199951171875</AltitudeMeters>
            <DistanceMeters>453639.5557045</DistanceMeters>
          </Trackpoint>
          <Trackpoint>
            <Time>2021-08-02T11:50:16.000Z</Time>
            <Position>
              <LatitudeDegrees>41.72280603088438510894775390625</LatitudeDegrees>
              <LongitudeDegrees>-1.77503085695207118988037109375</LongitudeDegrees>
            </Position>
            <AltitudeMeters>1448</AltitudeMeters>
            <DistanceMeters>453701.32496934</DistanceMeters>
          </Trackpoint>
          <Trackpoint>
            <Time>2021-08-02T11:50:20.000Z</Time>
            <Position>
              <LatitudeDegrees>41.72292471863329410552978515625</LatitudeDegrees>
              <LongitudeDegrees>-1.77520352415740489959716796875</LongitudeDegrees>
            </Position>
            <AltitudeMeters>1447</AltitudeMeters>
            <DistanceMeters>453720.8251365</DistanceMeters>
          </Trackpoint>
          <Trackpoint>
            <Time>2021-08-02T11:50:22.000Z</Time>
            <Position>
              <LatitudeDegrees>41.72297048382461071014404296875</LatitudeDegrees>
              <LongitudeDegrees>-1.7752983234822750091552734375</LongitudeDegrees>
            </Position>
            <AltitudeMeters>1446</AltitudeMeters>
            <DistanceMeters>453730.20442244</DistanceMeters>
          </Trackpoint>
          <Trackpoint>
            <Time>2021-08-02T11:50:27.000Z</Time>
            <Position>
              <LatitudeDegrees>41.72301557846367359161376953125</LatitudeDegrees>
              <LongitudeDegrees>-1.77551046945154666900634765625</LongitudeDegrees>
            </Position>
            <AltitudeMeters>1444.800048828125</AltitudeMeters>
            <DistanceMeters>453748.52856942</DistanceMeters>
          </Trackpoint>
          <Trackpoint>
            <Time>2021-08-02T11:50:30.000Z</Time>
            <Position>
              <LatitudeDegrees>41.72296629287302494049072265625</LatitudeDegrees>
              <LongitudeDegrees>-1.77559747360646724700927734375</LongitudeDegrees>
            </Position>
            <AltitudeMeters>1443.800048828125</AltitudeMeters>
            <DistanceMeters>453757.60200355</DistanceMeters>
          </Trackpoint>
          <Trackpoint>
            <Time>2021-08-02T11:50:33.000Z</Time>
            <Position>
              <LatitudeDegrees>41.7228647880256175994873046875</LatitudeDegrees>
              <LongitudeDegrees>-1.77558389492332935333251953125</LongitudeDegrees>
            </Position>
            <AltitudeMeters>1442.4000244140625</AltitudeMeters>
            <DistanceMeters>453768.95600598</DistanceMeters>
          </Trackpoint>
          <Trackpoint>
            <Time>2021-08-02T11:50:36.000Z</Time>
            <Position>
              <LatitudeDegrees>41.72276076860725879669189453125</LatitudeDegrees>
              <LongitudeDegrees>-1.77546721883118152618408203125</LongitudeDegrees>
            </Position>
            <AltitudeMeters>1441.4000244140625</AltitudeMeters>
            <DistanceMeters>453784.05479103</DistanceMeters>
          </Trackpoint>
          <Trackpoint>
            <Time>2021-08-02T11:50:38.000Z</Time>
            <Position>
              <LatitudeDegrees>41.722693629562854766845703125</LatitudeDegrees>
              <LongitudeDegrees>-1.77539505064487457275390625</LongitudeDegrees>
            </Position>
            <AltitudeMeters>1440.199951171875</AltitudeMeters>
            <DistanceMeters>453793.63459619</DistanceMeters>
          </Trackpoint>
          <Trackpoint>
            <Time>2021-08-02T11:50:41.000Z</Time>
            <Position>
              <LatitudeDegrees>41.7225808091461658477783203125</LatitudeDegrees>
              <LongitudeDegrees>-1.7753124050796031951904296875</LongitudeDegrees>
            </Position>
            <AltitudeMeters>1438.800048828125</AltitudeMeters>
            <DistanceMeters>453807.94613678</DistanceMeters>
          </Trackpoint>
          <Trackpoint>
            <Time>2021-08-02T11:50:45.000Z</Time>
            <Position>
              <LatitudeDegrees>41.72243135981261730194091796875</LatitudeDegrees>
              <LongitudeDegrees>-1.77526404149830341339111328125</LongitudeDegrees>
            </Position>
            <AltitudeMeters>1437.800048828125</AltitudeMeters>
            <DistanceMeters>453825.05859858</DistanceMeters>
          </Trackpoint>
          <Trackpoint>
            <Time>2021-08-02T11:50:48.000Z</Time>
            <Position>
              <LatitudeDegrees>41.7223380692303180694580078125</LatitudeDegrees>
              <LongitudeDegrees>-1.77522313781082630157470703125</LongitudeDegrees>
            </Position>
            <AltitudeMeters>1436.4000244140625</AltitudeMeters>
            <DistanceMeters>453835.98336496</DistanceMeters>
          </Trackpoint>
          <Trackpoint>
            <Time>2021-08-02T11:50:50.000Z</Time>
            <Position>
              <LatitudeDegrees>41.72227025963366031646728515625</LatitudeDegrees>
              <LongitudeDegrees>-1.77519178949296474456787109375</LongitudeDegrees>
            </Position>
            <AltitudeMeters>1435.199951171875</AltitudeMeters>
            <DistanceMeters>453843.96730569</DistanceMeters>
          </Trackpoint>
          <Trackpoint>
            <Time>2021-08-02T11:50:52.000Z</Time>
            <Position>
              <LatitudeDegrees>41.72219247557222843170166015625</LatitudeDegrees>
              <LongitudeDegrees>-1.77516463212668895721435546875</LongitudeDegrees>
            </Position>
            <AltitudeMeters>1433.800048828125</AltitudeMeters>
            <DistanceMeters>453852.91446321</DistanceMeters>
          </Trackpoint>
          <Trackpoint>
            <Time>2021-08-02T11:50:54.000Z</Time>
            <Position>
              <LatitudeDegrees>41.722106896340847015380859375</LatitudeDegrees>
              <LongitudeDegrees>-1.77513915114104747772216796875</LongitudeDegrees>
            </Position>
            <AltitudeMeters>1432.4000244140625</AltitudeMeters>
            <DistanceMeters>453862.67218456</DistanceMeters>
          </Trackpoint>
          <Trackpoint>
            <Time>2021-08-02T11:50:56.000Z</Time>
            <Position>
              <LatitudeDegrees>41.7220182158052921295166015625</LatitudeDegrees>
              <LongitudeDegrees>-1.7751206271350383758544921875</LongitudeDegrees>
            </Position>
            <AltitudeMeters>1431</AltitudeMeters>
            <DistanceMeters>453872.66129587</DistanceMeters>
          </Trackpoint>
          <Trackpoint>
            <Time>2021-08-02T11:50:57.000Z</Time>
            <Position>
              <LatitudeDegrees>41.72197186388075351715087890625</LatitudeDegrees>
              <LongitudeDegrees>-1.7751149274408817291259765625</LongitudeDegrees>
            </Position>
            <AltitudeMeters>1430.4000244140625</AltitudeMeters>
            <DistanceMeters>453877.84264871</DistanceMeters>
          </Trackpoint>
          <Trackpoint>
            <Time>2021-08-02T11:50:58.000Z</Time>
            <Position>
              <LatitudeDegrees>41.72193087637424468994140625</LatitudeDegrees>
              <LongitudeDegrees>-1.77511475980281829833984375</LongitudeDegrees>
            </Position>
            <AltitudeMeters>1430</AltitudeMeters>
            <DistanceMeters>453882.40492075</DistanceMeters>
          </Trackpoint>
          <Trackpoint>
            <Time>2021-08-02T11:51:01.000Z</Time>
            <Position>
              <LatitudeDegrees>41.7218261025846004486083984375</LatitudeDegrees>
              <LongitudeDegrees>-1.77512926049530506134033203125</LongitudeDegrees>
            </Position>
            <AltitudeMeters>1429</AltitudeMeters>
            <DistanceMeters>453894.12830608</DistanceMeters>
          </Trackpoint>
          <Trackpoint>
            <Time>2021-08-02T11:51:03.000Z</Time>
            <Position>
              <LatitudeDegrees>41.721764244139194488525390625</LatitudeDegrees>
              <LongitudeDegrees>-1.7751541547477245330810546875</LongitudeDegrees>
            </Position>
            <AltitudeMeters>1427.800048828125</AltitudeMeters>
            <DistanceMeters>453901.31775373</DistanceMeters>
          </Trackpoint>
          <Trackpoint>
            <Time>2021-08-02T11:51:05.000Z</Time>
            <Position>
              <LatitudeDegrees>41.721684448421001434326171875</LatitudeDegrees>
              <LongitudeDegrees>-1.77518826909363269805908203125</LongitudeDegrees>
            </Position>
            <AltitudeMeters>1426.4000244140625</AltitudeMeters>
            <DistanceMeters>453910.6410319</DistanceMeters>
          </Trackpoint>
          <Trackpoint>
            <Time>2021-08-02T11:51:07.000Z</Time>
            <Position>
              <LatitudeDegrees>41.72158512286841869354248046875</LatitudeDegrees>
              <LongitudeDegrees>-1.77520461380481719970703125</LongitudeDegrees>
            </Position>
            <AltitudeMeters>1424.800048828125</AltitudeMeters>
            <DistanceMeters>453921.77944383</DistanceMeters>
          </Trackpoint>
          <Trackpoint>
            <Time>2021-08-02T11:51:08.000Z</Time>
            <Position>
              <LatitudeDegrees>41.72153784893453121185302734375</LatitudeDegrees>
              <LongitudeDegrees>-1.775217354297637939453125</LongitudeDegrees>
            </Position>
            <AltitudeMeters>1424.199951171875</AltitudeMeters>
            <DistanceMeters>453927.14656073</DistanceMeters>
          </Trackpoint>
          <Trackpoint>
            <Time>2021-08-02T11:51:10.000Z</Time>
            <Position>
              <LatitudeDegrees>41.7214452289044857025146484375</LatitudeDegrees>
              <LongitudeDegrees>-1.77525633014738559722900390625</LongitudeDegrees>
            </Position>
            <AltitudeMeters>1423.800048828125</AltitudeMeters>
            <DistanceMeters>453937.95206343</DistanceMeters>
          </Trackpoint>
          <Trackpoint>
            <Time>2021-08-02T11:51:13.000Z</Time>
            <Position>
              <LatitudeDegrees>41.7213575541973114013671875</LatitudeDegrees>
              <LongitudeDegrees>-1.7753536440432071685791015625</LongitudeDegrees>
            </Position>
            <AltitudeMeters>1422.800048828125</AltitudeMeters>
            <DistanceMeters>453950.62415281</DistanceMeters>
          </Trackpoint>
          <Trackpoint>
            <Time>2021-08-02T11:51:14.000Z</Time>
            <Position>
              <LatitudeDegrees>41.7213312350213527679443359375</LatitudeDegrees>
              <LongitudeDegrees>-1.77539127878844738006591796875</LongitudeDegrees>
            </Position>
            <AltitudeMeters>1422.5999755859375</AltitudeMeters>
            <DistanceMeters>453954.90773955</DistanceMeters>
          </Trackpoint>
          <Trackpoint>
            <Time>2021-08-02T11:51:17.000Z</Time>
            <Position>
              <LatitudeDegrees>41.72125169076025485992431640625</LatitudeDegrees>
              <LongitudeDegrees>-1.7755055241286754608154296875</LongitudeDegrees>
            </Position>
            <AltitudeMeters>1421</AltitudeMeters>
            <DistanceMeters>453967.8871504</DistanceMeters>
          </Trackpoint>
          <Trackpoint>
            <Time>2021-08-02T11:51:20.000Z</Time>
            <Position>
              <LatitudeDegrees>41.72119729220867156982421875</LatitudeDegrees>
              <LongitudeDegrees>-1.77562714554369449615478515625</LongitudeDegrees>
            </Position>
            <AltitudeMeters>1419.199951171875</AltitudeMeters>
            <DistanceMeters>453979.66663064</DistanceMeters>
          </Trackpoint>
          <Trackpoint>
            <Time>2021-08-02T11:51:22.000Z</Time>
            <Position>
              <LatitudeDegrees>41.72115303575992584228515625</LatitudeDegrees>
              <LongitudeDegrees>-1.775706522166728973388671875</LongitudeDegrees>
            </Position>
            <AltitudeMeters>1418</AltitudeMeters>
            <DistanceMeters>453987.89783125</DistanceMeters>
          </Trackpoint>
          <Trackpoint>
            <Time>2021-08-02T11:51:25.000Z</Time>
            <Position>
              <LatitudeDegrees>41.72108732163906097412109375</LatitudeDegrees>
              <LongitudeDegrees>-1.77580811083316802978515625</LongitudeDegrees>
            </Position>
            <AltitudeMeters>1416.800048828125</AltitudeMeters>
            <DistanceMeters>453999.06539078</DistanceMeters>
          </Trackpoint>
          <Trackpoint>
            <Time>2021-08-02T11:51:28.000Z</Time>
            <Position>
              <LatitudeDegrees>41.72101414762437343597412109375</LatitudeDegrees>
              <LongitudeDegrees>-1.77592210471630096435546875</LongitudeDegrees>
            </Position>
            <AltitudeMeters>1415.4000244140625</AltitudeMeters>
            <DistanceMeters>454011.55553092</DistanceMeters>
          </Trackpoint>
          <Trackpoint>
            <Time>2021-08-02T11:51:30.000Z</Time>
            <Position>
              <LatitudeDegrees>41.72097659669816493988037109375</LatitudeDegrees>
              <LongitudeDegrees>-1.77598337642848491668701171875</LongitudeDegrees>
            </Position>
            <AltitudeMeters>1414.4000244140625</AltitudeMeters>
            <DistanceMeters>454018.14191743</DistanceMeters>
          </Trackpoint>
          <Trackpoint>
            <Time>2021-08-02T11:51:34.000Z</Time>
            <Position>
              <LatitudeDegrees>41.72092362307012081146240234375</LatitudeDegrees>
              <LongitudeDegrees>-1.77608597092330455780029296875</LongitudeDegrees>
            </Position>
            <AltitudeMeters>1413</AltitudeMeters>
            <DistanceMeters>454028.50593013</DistanceMeters>
          </Trackpoint>
          <Trackpoint>
            <Time>2021-08-02T11:51:36.000Z</Time>
            <Position>
              <LatitudeDegrees>41.72088506631553173065185546875</LatitudeDegrees>
              <LongitudeDegrees>-1.77612989209592342376708984375</LongitudeDegrees>
            </Position>
            <AltitudeMeters>1412</AltitudeMeters>
            <DistanceMeters>454034.13901886</DistanceMeters>
          </Trackpoint>
          <Trackpoint>
            <Time>2021-08-02T11:51:38.000Z</Time>
            <Position>
              <LatitudeDegrees>41.72084181569516658782958984375</LatitudeDegrees>
              <LongitudeDegrees>-1.77616308443248271942138671875</LongitudeDegrees>
            </Position>
            <AltitudeMeters>1410.800048828125</AltitudeMeters>
            <DistanceMeters>454039.68649581</DistanceMeters>
          </Trackpoint>
          <Trackpoint>
            <Time>2021-08-02T11:51:41.000Z</Time>
            <Position>
              <LatitudeDegrees>41.72078314237296581268310546875</LatitudeDegrees>
              <LongitudeDegrees>-1.776192672550678253173828125</LongitudeDegrees>
            </Position>
            <AltitudeMeters>1409.800048828125</AltitudeMeters>
            <DistanceMeters>454046.66433016</DistanceMeters>
          </Trackpoint>
          <Trackpoint>
            <Time>2021-08-02T11:51:43.000Z</Time>
            <Position>
              <LatitudeDegrees>41.7207746766507625579833984375</LatitudeDegrees>
              <LongitudeDegrees>-1.77619677968323230743408203125</LongitudeDegrees>
            </Position>
            <AltitudeMeters>1409.4000244140625</AltitudeMeters>
            <DistanceMeters>454047.66097874</DistanceMeters>
          </Trackpoint>
          <Trackpoint>
            <Time>2021-08-02T11:51:57.000Z</Time>
            <Position>
              <LatitudeDegrees>41.72068524174392223358154296875</LatitudeDegrees>
              <LongitudeDegrees>-1.77625662647187709808349609375</LongitudeDegrees>
            </Position>
            <AltitudeMeters>1405.800048828125</AltitudeMeters>
            <DistanceMeters>454058.7876291</DistanceMeters>
          </Trackpoint>
          <Trackpoint>
            <Time>2021-08-02T11:51:59.000Z</Time>
            <Position>
              <LatitudeDegrees>41.72062195837497711181640625</LatitudeDegrees>
              <LongitudeDegrees>-1.77632150240242481231689453125</LongitudeDegrees>
            </Position>
            <AltitudeMeters>1404.5999755859375</AltitudeMeters>
            <DistanceMeters>454067.65622345</DistanceMeters>
          </Trackpoint>
          <Trackpoint>
            <Time>2021-08-02T11:52:07.000Z</Time>
            <Position>
              <LatitudeDegrees>41.720308475196361541748046875</LatitudeDegrees>
              <LongitudeDegrees>-1.77652484737336635589599609375</LongitudeDegrees>
            </Position>
            <AltitudeMeters>1403.4000244140625</AltitudeMeters>
            <DistanceMeters>454106.42176565</DistanceMeters>
          </Trackpoint>
          <Trackpoint>
            <Time>2021-08-02T11:52:13.000Z</Time>
            <Position>
              <LatitudeDegrees>41.72005106694996356964111328125</LatitudeDegrees>
              <LongitudeDegrees>-1.77670924924314022064208984375</LongitudeDegrees>
            </Position>
            <AltitudeMeters>1402.199951171875</AltitudeMeters>
            <DistanceMeters>454138.91034172</DistanceMeters>
          </Trackpoint>
          <Trackpoint>
            <Time>2021-08-02T11:52:16.000Z</Time>
            <Position>
              <LatitudeDegrees>41.71992600895464420318603515625</LatitudeDegrees>
              <LongitudeDegrees>-1.776786781847476959228515625</LongitudeDegrees>
            </Position>
            <AltitudeMeters>1401.199951171875</AltitudeMeters>
            <DistanceMeters>454154.2476652</DistanceMeters>
          </Trackpoint>
          <Trackpoint>
            <Time>2021-08-02T11:52:20.000Z</Time>
            <Position>
              <LatitudeDegrees>41.71981193125247955322265625</LatitudeDegrees>
              <LongitudeDegrees>-1.77686356008052825927734375</LongitudeDegrees>
            </Position>
            <AltitudeMeters>1400</AltitudeMeters>
            <DistanceMeters>454168.45630408</DistanceMeters>
          </Trackpoint>
          <Trackpoint>
            <Time>2021-08-02T11:52:24.000Z</Time>
            <Position>
              <LatitudeDegrees>41.7197084985673427581787109375</LatitudeDegrees>
              <LongitudeDegrees>-1.7769448645412921905517578125</LongitudeDegrees>
            </Position>
            <AltitudeMeters>1398.5999755859375</AltitudeMeters>
            <DistanceMeters>454181.80341419</DistanceMeters>
          </Trackpoint>
          <Trackpoint>
            <Time>2021-08-02T11:52:27.000Z</Time>
            <Position>
              <LatitudeDegrees>41.719627864658832550048828125</LatitudeDegrees>
              <LongitudeDegrees>-1.776991970837116241455078125</LongitudeDegrees>
            </Position>
            <AltitudeMeters>1397.4000244140625</AltitudeMeters>
            <DistanceMeters>454191.59393314</DistanceMeters>
          </Trackpoint>
          <Trackpoint>
            <Time>2021-08-02T11:52:29.000Z</Time>
            <Position>
              <LatitudeDegrees>41.719586960971355438232421875</LatitudeDegrees>
              <LongitudeDegrees>-1.77703228779137134552001953125</LongitudeDegrees>
            </Position>
            <AltitudeMeters>1396.199951171875</AltitudeMeters>
            <DistanceMeters>454197.24462782</DistanceMeters>
          </Trackpoint>
          <Trackpoint>
            <Time>2021-08-02T11:52:31.000Z</Time>
            <Position>
              <LatitudeDegrees>41.719551421701908111572265625</LatitudeDegrees>
              <LongitudeDegrees>-1.77706598304212093353271484375</LongitudeDegrees>
            </Position>
            <AltitudeMeters>1395</AltitudeMeters>
            <DistanceMeters>454202.09005853</DistanceMeters>
          </Trackpoint>
          <Trackpoint>
            <Time>2021-08-02T11:52:34.000Z</Time>
            <Position>
              <LatitudeDegrees>41.7194510065019130706787109375</LatitudeDegrees>
              <LongitudeDegrees>-1.77710898220539093017578125</LongitudeDegrees>
            </Position>
            <AltitudeMeters>1393.5999755859375</AltitudeMeters>
            <DistanceMeters>454213.82345298</DistanceMeters>
          </Trackpoint>
          <Trackpoint>
            <Time>2021-08-02T11:52:36.000Z</Time>
            <Position>
              <LatitudeDegrees>41.719366349279880523681640625</LatitudeDegrees>
              <LongitudeDegrees>-1.777128092944622039794921875</LongitudeDegrees>
            </Position>
            <AltitudeMeters>1392.4000244140625</AltitudeMeters>
            <DistanceMeters>454223.3787187</DistanceMeters>
          </Trackpoint>
          <Trackpoint>
            <Time>2021-08-02T11:52:41.000Z</Time>
            <Position>
              <LatitudeDegrees>41.71919007785618305206298828125</LatitudeDegrees>
              <LongitudeDegrees>-1.7771389894187450408935546875</LongitudeDegrees>
            </Position>
            <AltitudeMeters>1391.4000244140625</AltitudeMeters>
            <DistanceMeters>454243.01869694</DistanceMeters>
          </Trackpoint>
          <Trackpoint>
            <Time>2021-08-02T11:52:47.000Z</Time>
            <Position>
              <LatitudeDegrees>41.71905043534934520721435546875</LatitudeDegrees>
              <LongitudeDegrees>-1.7771460302174091339111328125</LongitudeDegrees>
            </Position>
            <AltitudeMeters>1390.4000244140625</AltitudeMeters>
            <DistanceMeters>454258.57233793</DistanceMeters>
          </Trackpoint>
          <Trackpoint>
            <Time>2021-08-02T11:52:50.000Z</Time>
            <Position>
              <LatitudeDegrees>41.71900114975869655609130859375</LatitudeDegrees>
              <LongitudeDegrees>-1.7771577648818492889404296875</LongitudeDegrees>
            </Position>
            <AltitudeMeters>1389</AltitudeMeters>
            <DistanceMeters>454264.14417809</DistanceMeters>
          </Trackpoint>
          <Trackpoint>
            <Time>2021-08-02T11:52:52.000Z</Time>
            <Position>
              <LatitudeDegrees>41.71896460466086864471435546875</LatitudeDegrees>
              <LongitudeDegrees>-1.77717469632625579833984375</LongitudeDegrees>
            </Position>
            <AltitudeMeters>1387.800048828125</AltitudeMeters>
            <DistanceMeters>454268.44774485</DistanceMeters>
          </Trackpoint>
          <Trackpoint>
            <Time>2021-08-02T11:52:55.000Z</Time>
            <Position>
              <LatitudeDegrees>41.71889017336070537567138671875</LatitudeDegrees>
              <LongitudeDegrees>-1.77719389088451862335205078125</LongitudeDegrees>
            </Position>
            <AltitudeMeters>1386.800048828125</AltitudeMeters>
            <DistanceMeters>454276.88374108</DistanceMeters>
          </Trackpoint>
          <Trackpoint>
            <Time>2021-08-02T11:52:57.000Z</Time>
            <Position>
              <LatitudeDegrees>41.71882688999176025390625</LatitudeDegrees>
              <LongitudeDegrees>-1.7772010155022144317626953125</LongitudeDegrees>
            </Position>
            <AltitudeMeters>1385.5999755859375</AltitudeMeters>
            <DistanceMeters>454283.95222132</DistanceMeters>
          </Trackpoint>
          <Trackpoint>
            <Time>2021-08-02T11:53:00.000Z</Time>
            <Position>
              <LatitudeDegrees>41.7187345214188098907470703125</LatitudeDegrees>
              <LongitudeDegrees>-1.7771963216364383697509765625</LongitudeDegrees>
            </Position>
            <AltitudeMeters>1384.4000244140625</AltitudeMeters>
            <DistanceMeters>454294.24059127</DistanceMeters>
          </Trackpoint>
          <Trackpoint>
            <Time>2021-08-02T11:53:02.000Z</Time>
            <Position>
              <LatitudeDegrees>41.7186396382749080657958984375</LatitudeDegrees>
              <LongitudeDegrees>-1.7771621234714984893798828125</LongitudeDegrees>
            </Position>
            <AltitudeMeters>1383.4000244140625</AltitudeMeters>
            <DistanceMeters>454305.17651063</DistanceMeters>
          </Trackpoint>
          <Trackpoint>
            <Time>2021-08-02T11:53:03.000Z</Time>
            <Position>
              <LatitudeDegrees>41.718589849770069122314453125</LatitudeDegrees>
              <LongitudeDegrees>-1.77713982760906219482421875</LongitudeDegrees>
            </Position>
            <AltitudeMeters>1383</AltitudeMeters>
            <DistanceMeters>454311.01891502</DistanceMeters>
          </Trackpoint>
          <Trackpoint>
            <Time>2021-08-02T11:53:04.000Z</Time>
            <Position>
              <LatitudeDegrees>41.71854416839778423309326171875</LatitudeDegrees>
              <LongitudeDegrees>-1.7771123349666595458984375</LongitudeDegrees>
            </Position>
            <AltitudeMeters>1382.4000244140625</AltitudeMeters>
            <DistanceMeters>454316.59237561</DistanceMeters>
          </Trackpoint>
          <Trackpoint>
            <Time>2021-08-02T11:53:08.000Z</Time>
            <Position>
              <LatitudeDegrees>41.7183932103216648101806640625</LatitudeDegrees>
              <LongitudeDegrees>-1.77702692337334156036376953125</LongitudeDegrees>
            </Position>
            <AltitudeMeters>1382.199951171875</AltitudeMeters>
            <DistanceMeters>454334.83106953</DistanceMeters>
          </Trackpoint>
          <Trackpoint>
            <Time>2021-08-02T11:53:28.000Z</Time>
            <Position>
              <LatitudeDegrees>41.7178778909146785736083984375</LatitudeDegrees>
              <LongitudeDegrees>-1.7767314612865447998046875</LongitudeDegrees>
            </Position>
            <AltitudeMeters>1381.4000244140625</AltitudeMeters>
            <DistanceMeters>454397.21905667</DistanceMeters>
          </Trackpoint>
          <Trackpoint>
            <Time>2021-08-02T11:53:48.000Z</Time>
            <Position>
              <LatitudeDegrees>41.71758628450334072113037109375</LatitudeDegrees>
              <LongitudeDegrees>-1.77636844106018543243408203125</LongitudeDegrees>
            </Position>
            <AltitudeMeters>1383.4000244140625</AltitudeMeters>
            <DistanceMeters>454441.52495016</DistanceMeters>
          </Trackpoint>
          <Trackpoint>
            <Time>2021-08-02T11:53:57.000Z</Time>
            <Position>
              <LatitudeDegrees>41.71752610243856906890869140625</LatitudeDegrees>
              <LongitudeDegrees>-1.776194684207439422607421875</LongitudeDegrees>
            </Position>
            <AltitudeMeters>1384.5999755859375</AltitudeMeters>
            <DistanceMeters>454457.43901702</DistanceMeters>
          </Trackpoint>
          <Trackpoint>
            <Time>2021-08-02T11:54:07.000Z</Time>
            <Position>
              <LatitudeDegrees>41.71744295395910739898681640625</LatitudeDegrees>
              <LongitudeDegrees>-1.7759859748184680938720703125</LongitudeDegrees>
            </Position>
            <AltitudeMeters>1385.800048828125</AltitudeMeters>
            <DistanceMeters>454477.09370273</DistanceMeters>
          </Trackpoint>
          <Trackpoint>
            <Time>2021-08-02T11:54:23.000Z</Time>
            <Position>
              <LatitudeDegrees>41.71721831895411014556884765625</LatitudeDegrees>
              <LongitudeDegrees>-1.7756116390228271484375</LongitudeDegrees>
            </Position>
            <AltitudeMeters>1384.800048828125</AltitudeMeters>
            <DistanceMeters>454516.99745568</DistanceMeters>
          </Trackpoint>
          <Trackpoint>
            <Time>2021-08-02T11:54:27.000Z</Time>
            <Position>
              <LatitudeDegrees>41.7171355895698070526123046875</LatitudeDegrees>
              <LongitudeDegrees>-1.7754708230495452880859375</LongitudeDegrees>
            </Position>
            <AltitudeMeters>1383.5999755859375</AltitudeMeters>
            <DistanceMeters>454531.88544602</DistanceMeters>
          </Trackpoint>
          <Trackpoint>
            <Time>2021-08-02T11:54:31.000Z</Time>
            <Position>
              <LatitudeDegrees>41.71704431064426898956298828125</LatitudeDegrees>
              <LongitudeDegrees>-1.77529606036841869354248046875</LongitudeDegrees>
            </Position>
            <AltitudeMeters>1382.4000244140625</AltitudeMeters>
            <DistanceMeters>454549.60633591</DistanceMeters>
          </Trackpoint>
          <Trackpoint>
            <Time>2021-08-02T11:54:34.000Z</Time>
            <Position>
              <LatitudeDegrees>41.7169672809541225433349609375</LatitudeDegrees>
              <LongitudeDegrees>-1.77513311617076396942138671875</LongitudeDegrees>
            </Position>
            <AltitudeMeters>1381.4000244140625</AltitudeMeters>
            <DistanceMeters>454565.63010555</DistanceMeters>
          </Trackpoint>
          <Trackpoint>
            <Time>2021-08-02T11:54:40.000Z</Time>
            <Position>
              <LatitudeDegrees>41.71681590378284454345703125</LatitudeDegrees>
              <LongitudeDegrees>-1.77483773790299892425537109375</LongitudeDegrees>
            </Position>
            <AltitudeMeters>1380.5999755859375</AltitudeMeters>
            <DistanceMeters>454595.39759355</DistanceMeters>
          </Trackpoint>
          <Trackpoint>
            <Time>2021-08-02T11:54:41.000Z</Time>
            <Position>
              <LatitudeDegrees>41.71679310500621795654296875</LatitudeDegrees>
              <LongitudeDegrees>-1.774781160056591033935546875</LongitudeDegrees>
            </Position>
            <AltitudeMeters>1380.4000244140625</AltitudeMeters>
            <DistanceMeters>454600.73941361</DistanceMeters>
          </Trackpoint>
          <Trackpoint>
            <Time>2021-08-02T11:54:49.000Z</Time>
            <Position>
              <LatitudeDegrees>41.7165820486843585968017578125</LatitudeDegrees>
              <LongitudeDegrees>-1.7743791639804840087890625</LongitudeDegrees>
            </Position>
            <AltitudeMeters>1379.4000244140625</AltitudeMeters>
            <DistanceMeters>454641.57149822</DistanceMeters>
          </Trackpoint>
          <Trackpoint>
            <Time>2021-08-02T11:55:04.000Z</Time>
            <Position>
              <LatitudeDegrees>41.71629262156784534454345703125</LatitudeDegrees>
              <LongitudeDegrees>-1.7737456597387790679931640625</LongitudeDegrees>
            </Position>
            <AltitudeMeters>1379.4000244140625</AltitudeMeters>
            <DistanceMeters>454703.27947887</DistanceMeters>
          </Trackpoint>
          <Trackpoint>
            <Time>2021-08-02T11:55:15.000Z</Time>
            <Position>
              <LatitudeDegrees>41.71609799377620220184326171875</LatitudeDegrees>
              <LongitudeDegrees>-1.7732792906463146209716796875</LongitudeDegrees>
            </Position>
            <AltitudeMeters>1378.4000244140625</AltitudeMeters>
            <DistanceMeters>454747.67048406</DistanceMeters>
          </Trackpoint>
          <Trackpoint>
            <Time>2021-08-02T11:55:22.000Z</Time>
            <Position>
              <LatitudeDegrees>41.71600931324064731597900390625</LatitudeDegrees>
              <LongitudeDegrees>-1.77293454296886920928955078125</LongitudeDegrees>
            </Position>
            <AltitudeMeters>1377.5999755859375</AltitudeMeters>
            <DistanceMeters>454777.96568021</DistanceMeters>
          </Trackpoint>
          <Trackpoint>
            <Time>2021-08-02T11:55:27.000Z</Time>
            <Position>
              <LatitudeDegrees>41.71599590219557285308837890625</LatitudeDegrees>
              <LongitudeDegrees>-1.7726710997521877288818359375</LongitudeDegrees>
            </Position>
            <AltitudeMeters>1376.4000244140625</AltitudeMeters>
            <DistanceMeters>454799.90388921</DistanceMeters>
          </Trackpoint>
          <Trackpoint>
            <Time>2021-08-02T11:55:31.000Z</Time>
            <Position>
              <LatitudeDegrees>41.71600989997386932373046875</LatitudeDegrees>
              <LongitudeDegrees>-1.7724749632179737091064453125</LongitudeDegrees>
            </Position>
            <AltitudeMeters>1375.199951171875</AltitudeMeters>
            <DistanceMeters>454816.27360266</DistanceMeters>
          </Trackpoint>
          <Trackpoint>
            <Time>2021-08-02T11:55:32.000Z</Time>
            <Position>
              <LatitudeDegrees>41.716022975742816925048828125</LatitudeDegrees>
              <LongitudeDegrees>-1.7724131047725677490234375</LongitudeDegrees>
            </Position>
            <AltitudeMeters>1374.5999755859375</AltitudeMeters>
            <DistanceMeters>454821.61542272</DistanceMeters>
          </Trackpoint>
          <Trackpoint>
            <Time>2021-08-02T11:55:33.000Z</Time>
            <Position>
              <LatitudeDegrees>41.716040074825286865234375</LatitudeDegrees>
              <LongitudeDegrees>-1.77235451526939868927001953125</LongitudeDegrees>
            </Position>
            <AltitudeMeters>1374.199951171875</AltitudeMeters>
            <DistanceMeters>454826.84275582</DistanceMeters>
          </Trackpoint>
          <Trackpoint>
            <Time>2021-08-02T11:55:35.000Z</Time>
            <Position>
              <LatitudeDegrees>41.71607720665633678436279296875</LatitudeDegrees>
              <LongitudeDegrees>-1.77224881947040557861328125</LongitudeDegrees>
            </Position>
            <AltitudeMeters>1373</AltitudeMeters>
            <DistanceMeters>454836.5480496</DistanceMeters>
          </Trackpoint>
          <Trackpoint>
            <Time>2021-08-02T11:55:38.000Z</Time>
            <Position>
              <LatitudeDegrees>41.7161344550549983978271484375</LatitudeDegrees>
              <LongitudeDegrees>-1.772120408713817596435546875</LongitudeDegrees>
            </Position>
            <AltitudeMeters>1371.800048828125</AltitudeMeters>
            <DistanceMeters>454848.97440495</DistanceMeters>
          </Trackpoint>
          <Trackpoint>
            <Time>2021-08-02T11:55:40.000Z</Time>
            <Position>
              <LatitudeDegrees>41.7161763645708560943603515625</LatitudeDegrees>
              <LongitudeDegrees>-1.772039271891117095947265625</LongitudeDegrees>
            </Position>
            <AltitudeMeters>1370.800048828125</AltitudeMeters>
            <DistanceMeters>454857.17207711</DistanceMeters>
          </Trackpoint>
          <Trackpoint>
            <Time>2021-08-02T11:55:42.000Z</Time>
            <Position>
              <LatitudeDegrees>41.71621902845799922943115234375</LatitudeDegrees>
              <LongitudeDegrees>-1.77195570431649684906005859375</LongitudeDegrees>
            </Position>
            <AltitudeMeters>1369.800048828125</AltitudeMeters>
            <DistanceMeters>454865.58288081</DistanceMeters>
          </Trackpoint>
          <Trackpoint>
            <Time>2021-08-02T11:55:44.000Z</Time>
            <Position>
              <LatitudeDegrees>41.71626378782093524932861328125</LatitudeDegrees>
              <LongitudeDegrees>-1.771852187812328338623046875</LongitudeDegrees>
            </Position>
            <AltitudeMeters>1368.199951171875</AltitudeMeters>
            <DistanceMeters>454875.5221482</DistanceMeters>
          </Trackpoint>
          <Trackpoint>
            <Time>2021-08-02T11:55:46.000Z</Time>
            <Position>
              <LatitudeDegrees>41.71631374396383762359619140625</LatitudeDegrees>
              <LongitudeDegrees>-1.7717584781348705291748046875</LongitudeDegrees>
            </Position>
            <AltitudeMeters>1366.5999755859375</AltitudeMeters>
            <DistanceMeters>454885.08874764</DistanceMeters>
          </Trackpoint>
          <Trackpoint>
            <Time>2021-08-02T11:55:49.000Z</Time>
            <Position>
              <LatitudeDegrees>41.716390438377857208251953125</LatitudeDegrees>
              <LongitudeDegrees>-1.77164590917527675628662109375</LongitudeDegrees>
            </Position>
            <AltitudeMeters>1365.4000244140625</AltitudeMeters>
            <DistanceMeters>454897.75121333</DistanceMeters>
          </Trackpoint>
          <Trackpoint>
            <Time>2021-08-02T11:55:51.000Z</Time>
            <Position>
              <LatitudeDegrees>41.716452129185199737548828125</LatitudeDegrees>
              <LongitudeDegrees>-1.7715744115412235260009765625</LongitudeDegrees>
            </Position>
            <AltitudeMeters>1364.5999755859375</AltitudeMeters>
            <DistanceMeters>454906.8311141</DistanceMeters>
          </Trackpoint>
          <Trackpoint>
            <Time>2021-08-02T11:55:52.000Z</Time>
            <Position>
              <LatitudeDegrees>41.7164871655404567718505859375</LatitudeDegrees>
              <LongitudeDegrees>-1.771530322730541229248046875</LongitudeDegrees>
            </Position>
            <AltitudeMeters>1364.199951171875</AltitudeMeters>
            <DistanceMeters>454912.18222355</DistanceMeters>
          </Trackpoint>
          <Trackpoint>
            <Time>2021-08-02T11:55:55.000Z</Time>
            <Position>
              <LatitudeDegrees>41.716585569083690643310546875</LatitudeDegrees>
              <LongitudeDegrees>-1.77136712707579135894775390625</LongitudeDegrees>
            </Position>
            <AltitudeMeters>1362.800048828125</AltitudeMeters>
            <DistanceMeters>454929.61179129</DistanceMeters>
          </Trackpoint>
          <Trackpoint>
            <Time>2021-08-02T11:55:56.000Z</Time>
            <Position>
              <LatitudeDegrees>41.716614402830600738525390625</LatitudeDegrees>
              <LongitudeDegrees>-1.77130443044006824493408203125</LongitudeDegrees>
            </Position>
            <AltitudeMeters>1362.199951171875</AltitudeMeters>
            <DistanceMeters>454935.73050823</DistanceMeters>
          </Trackpoint>
          <Trackpoint>
            <Time>2021-08-02T11:55:57.000Z</Time>
            <Position>
              <LatitudeDegrees>41.71664013527333736419677734375</LatitudeDegrees>
              <LongitudeDegrees>-1.77123754285275936126708984375</LongitudeDegrees>
            </Position>
            <AltitudeMeters>1361.5999755859375</AltitudeMeters>
            <DistanceMeters>454941.9820817</DistanceMeters>
          </Trackpoint>
          <Trackpoint>
            <Time>2021-08-02T11:55:59.000Z</Time>
            <Position>
              <LatitudeDegrees>41.71670056879520416259765625</LatitudeDegrees>
              <LongitudeDegrees>-1.77110351622104644775390625</LongitudeDegrees>
            </Position>
            <AltitudeMeters>1360.4000244140625</AltitudeMeters>
            <DistanceMeters>454954.99102719</DistanceMeters>
          </Trackpoint>
          <Trackpoint>
            <Time>2021-08-02T11:56:03.000Z</Time>
            <Position>
              <LatitudeDegrees>41.71685052104294300079345703125</LatitudeDegrees>
              <LongitudeDegrees>-1.77084510214626789093017578125</LongitudeDegrees>
            </Position>
            <AltitudeMeters>1359.4000244140625</AltitudeMeters>
            <DistanceMeters>454982.18461136</DistanceMeters>
          </Trackpoint>
          <Trackpoint>
            <Time>2021-08-02T11:56:07.000Z</Time>
            <Position>
              <LatitudeDegrees>41.71700508333742618560791015625</LatitudeDegrees>
              <LongitudeDegrees>-1.77056564949452877044677734375</LongitudeDegrees>
            </Position>
            <AltitudeMeters>1358</AltitudeMeters>
            <DistanceMeters>455011.08054617</DistanceMeters>
          </Trackpoint>
          <Trackpoint>
            <Time>2021-08-02T11:56:10.000Z</Time>
            <Position>
              <LatitudeDegrees>41.7171218432486057281494140625</LatitudeDegrees>
              <LongitudeDegrees>-1.7703422717750072479248046875</LongitudeDegrees>
            </Position>
            <AltitudeMeters>1357</AltitudeMeters>
            <DistanceMeters>455033.7367962</DistanceMeters>
          </Trackpoint>
          <Trackpoint>
            <Time>2021-08-02T11:56:13.000Z</Time>
            <Position>
              <LatitudeDegrees>41.71724245883524417877197265625</LatitudeDegrees>
              <LongitudeDegrees>-1.77012459374964237213134765625</LongitudeDegrees>
            </Position>
            <AltitudeMeters>1356</AltitudeMeters>
            <DistanceMeters>455056.25993173</DistanceMeters>
          </Trackpoint>
          <Trackpoint>
            <Time>2021-08-02T11:56:23.000Z</Time>
            <Position>
              <LatitudeDegrees>41.71754940412938594818115234375</LatitudeDegrees>
              <LongitudeDegrees>-1.76947331987321376800537109375</LongitudeDegrees>
            </Position>
            <AltitudeMeters>1355.800048828125</AltitudeMeters>
            <DistanceMeters>455120.25059945</DistanceMeters>
          </Trackpoint>
          <Trackpoint>
            <Time>2021-08-02T11:56:25.000Z</Time>
            <Position>
              <LatitudeDegrees>41.71761377714574337005615234375</LatitudeDegrees>
              <LongitudeDegrees>-1.7693381197750568389892578125</LongitudeDegrees>
            </Position>
            <AltitudeMeters>1354.800048828125</AltitudeMeters>
            <DistanceMeters>455133.57333125</DistanceMeters>
          </Trackpoint>
          <Trackpoint>
            <Time>2021-08-02T11:56:27.000Z</Time>
            <Position>
              <LatitudeDegrees>41.71767882071435451507568359375</LatitudeDegrees>
              <LongitudeDegrees>-1.76920987665653228759765625</LongitudeDegrees>
            </Position>
            <AltitudeMeters>1354.4000244140625</AltitudeMeters>
            <DistanceMeters>455146.45427161</DistanceMeters>
          </Trackpoint>
          <Trackpoint>
            <Time>2021-08-02T11:56:29.000Z</Time>
            <Position>
              <LatitudeDegrees>41.7177518270909786224365234375</LatitudeDegrees>
              <LongitudeDegrees>-1.76911038346588611602783203125</LongitudeDegrees>
            </Position>
            <AltitudeMeters>1353.5999755859375</AltitudeMeters>
            <DistanceMeters>455158.0451938</DistanceMeters>
          </Trackpoint>
          <Trackpoint>
            <Time>2021-08-02T11:56:31.000Z</Time>
            <Position>
              <LatitudeDegrees>41.71782433055341243743896484375</LatitudeDegrees>
              <LongitudeDegrees>-1.76903578452765941619873046875</LongitudeDegrees>
            </Position>
            <AltitudeMeters>1353.199951171875</AltitudeMeters>
            <DistanceMeters>455168.21971081</DistanceMeters>
          </Trackpoint>
          <Trackpoint>
            <Time>2021-08-02T11:56:38.000Z</Time>
            <Position>
              <LatitudeDegrees>41.71783338300883769989013671875</LatitudeDegrees>
              <LongitudeDegrees>-1.76883931271731853485107421875</LongitudeDegrees>
            </Position>
            <AltitudeMeters>1353.199951171875</AltitudeMeters>
            <DistanceMeters>455184.57314299</DistanceMeters>
          </Trackpoint>
          <Trackpoint>
            <Time>2021-08-02T11:56:40.000Z</Time>
            <Position>
              <LatitudeDegrees>41.7177907191216945648193359375</LatitudeDegrees>
              <LongitudeDegrees>-1.768821291625499725341796875</LongitudeDegrees>
            </Position>
            <AltitudeMeters>1352.5999755859375</AltitudeMeters>
            <DistanceMeters>455189.5509467</DistanceMeters>
          </Trackpoint>
          <Trackpoint>
            <Time>2021-08-02T11:56:42.000Z</Time>
            <Position>
              <LatitudeDegrees>41.717747636139392852783203125</LatitudeDegrees>
              <LongitudeDegrees>-1.76882539875805377960205078125</LongitudeDegrees>
            </Position>
            <AltitudeMeters>1351.4000244140625</AltitudeMeters>
            <DistanceMeters>455194.35896039</DistanceMeters>
          </Trackpoint>
          <Trackpoint>
            <Time>2021-08-02T11:56:48.000Z</Time>
            <Position>
              <LatitudeDegrees>41.71766893006861209869384765625</LatitudeDegrees>
              <LongitudeDegrees>-1.7688591778278350830078125</LongitudeDegrees>
            </Position>
            <AltitudeMeters>1350.5999755859375</AltitudeMeters>
            <DistanceMeters>455203.55742854</DistanceMeters>
          </Trackpoint>
          <Trackpoint>
            <Time>2021-08-02T11:56:50.000Z</Time>
            <Position>
              <LatitudeDegrees>41.7176626436412334442138671875</LatitudeDegrees>
              <LongitudeDegrees>-1.76886060275137424468994140625</LongitudeDegrees>
            </Position>
            <AltitudeMeters>1350.5999755859375</AltitudeMeters>
            <DistanceMeters>455204.2748645</DistanceMeters>
          </Trackpoint>
          <Trackpoint>
            <Time>2021-08-02T11:57:20.000Z</Time>
            <Position>
              <LatitudeDegrees>41.7176210694015026092529296875</LatitudeDegrees>
              <LongitudeDegrees>-1.76888264715671539306640625</LongitudeDegrees>
            </Position>
            <AltitudeMeters>1349.5999755859375</AltitudeMeters>
            <DistanceMeters>455209.25266821</DistanceMeters>
          </Trackpoint>
          <Trackpoint>
            <Time>2021-08-02T11:57:23.000Z</Time>
            <Position>
              <LatitudeDegrees>41.7175166308879852294921875</LatitudeDegrees>
              <LongitudeDegrees>-1.76894408650696277618408203125</LongitudeDegrees>
            </Position>
            <AltitudeMeters>1348</AltitudeMeters>
            <DistanceMeters>455221.94860711</DistanceMeters>
          </Trackpoint>
          <Trackpoint>
            <Time>2021-08-02T11:57:25.000Z</Time>
            <Position>
              <LatitudeDegrees>41.71743457205593585968017578125</LatitudeDegrees>
              <LongitudeDegrees>-1.76900292746722698211669921875</LongitudeDegrees>
            </Position>
            <AltitudeMeters>1346</AltitudeMeters>
            <DistanceMeters>455232.3078266</DistanceMeters>
          </Trackpoint>
          <Trackpoint>
            <Time>2021-08-02T11:57:26.000Z</Time>
            <Position>
              <LatitudeDegrees>41.7173940874636173248291015625</LatitudeDegrees>
              <LongitudeDegrees>-1.76903419196605682373046875</LongitudeDegrees>
            </Position>
            <AltitudeMeters>1345</AltitudeMeters>
            <DistanceMeters>455237.50918306</DistanceMeters>
          </Trackpoint>
          <Trackpoint>
            <Time>2021-08-02T11:57:28.000Z</Time>
            <Position>
              <LatitudeDegrees>41.7173139564692974090576171875</LatitudeDegrees>
              <LongitudeDegrees>-1.7691034264862537384033203125</LongitudeDegrees>
            </Position>
            <AltitudeMeters>1343.199951171875</AltitudeMeters>
            <DistanceMeters>455248.12158681</DistanceMeters>
          </Trackpoint>
          <Trackpoint>
            <Time>2021-08-02T11:57:30.000Z</Time>
            <Position>
              <LatitudeDegrees>41.7172323167324066162109375</LatitudeDegrees>
              <LongitudeDegrees>-1.7691661231219768524169921875</LongitudeDegrees>
            </Position>
            <AltitudeMeters>1341.199951171875</AltitudeMeters>
            <DistanceMeters>455258.59523797</DistanceMeters>
          </Trackpoint>
          <Trackpoint>
            <Time>2021-08-02T11:57:32.000Z</Time>
            <Position>
              <LatitudeDegrees>41.7171583883464336395263671875</LatitudeDegrees>
              <LongitudeDegrees>-1.76920426078140735626220703125</LongitudeDegrees>
            </Position>
            <AltitudeMeters>1339.5999755859375</AltitudeMeters>
            <DistanceMeters>455267.41277494</DistanceMeters>
          </Trackpoint>
          <Trackpoint>
            <Time>2021-08-02T11:57:33.000Z</Time>
            <Position>
              <LatitudeDegrees>41.71711765229701995849609375</LatitudeDegrees>
              <LongitudeDegrees>-1.7692207731306552886962890625</LongitudeDegrees>
            </Position>
            <AltitudeMeters>1338.199951171875</AltitudeMeters>
            <DistanceMeters>455272.14888198</DistanceMeters>
          </Trackpoint>
          <Trackpoint>
            <Time>2021-08-02T11:57:34.000Z</Time>
            <Position>
              <LatitudeDegrees>41.717075407505035400390625</LatitudeDegrees>
              <LongitudeDegrees>-1.76923426799476146697998046875</LongitudeDegrees>
            </Position>
            <AltitudeMeters>1337.4000244140625</AltitudeMeters>
            <DistanceMeters>455276.98218393</DistanceMeters>
          </Trackpoint>
          <Trackpoint>
            <Time>2021-08-02T11:57:35.000Z</Time>
            <Position>
              <LatitudeDegrees>41.7170313186943531036376953125</LatitudeDegrees>
              <LongitudeDegrees>-1.7692452482879161834716796875</LongitudeDegrees>
            </Position>
            <AltitudeMeters>1336.4000244140625</AltitudeMeters>
            <DistanceMeters>455281.97266997</DistanceMeters>
          </Trackpoint>
          <Trackpoint>
            <Time>2021-08-02T11:57:37.000Z</Time>
            <Position>
              <LatitudeDegrees>41.716944314539432525634765625</LatitudeDegrees>
              <LongitudeDegrees>-1.76926930435001850128173828125</LongitudeDegrees>
            </Position>
            <AltitudeMeters>1334.5999755859375</AltitudeMeters>
            <DistanceMeters>455291.8600158</DistanceMeters>
          </Trackpoint>
          <Trackpoint>
            <Time>2021-08-02T11:57:38.000Z</Time>
            <Position>
              <LatitudeDegrees>41.7169025726616382598876953125</LatitudeDegrees>
              <LongitudeDegrees>-1.76928288303315639495849609375</LongitudeDegrees>
            </Position>
            <AltitudeMeters>1333.800048828125</AltitudeMeters>
            <DistanceMeters>455296.64166337</DistanceMeters>
          </Trackpoint>
          <Trackpoint>
            <Time>2021-08-02T11:57:40.000Z</Time>
            <Position>
              <LatitudeDegrees>41.71680576168000698089599609375</LatitudeDegrees>
              <LongitudeDegrees>-1.76931909285485744476318359375</LongitudeDegrees>
            </Position>
            <AltitudeMeters>1331.5999755859375</AltitudeMeters>
            <DistanceMeters>455307.82901603</DistanceMeters>
          </Trackpoint>
          <Trackpoint>
            <Time>2021-08-02T11:57:41.000Z</Time>
            <Position>
              <LatitudeDegrees>41.71676016412675380706787109375</LatitudeDegrees>
              <LongitudeDegrees>-1.769340299069881439208984375</LongitudeDegrees>
            </Position>
            <AltitudeMeters>1330.4000244140625</AltitudeMeters>
            <DistanceMeters>455313.20117801</DistanceMeters>
          </Trackpoint>
          <Trackpoint>
            <Time>2021-08-02T11:57:42.000Z</Time>
            <Position>
              <LatitudeDegrees>41.716716997325420379638671875</LatitudeDegrees>
              <LongitudeDegrees>-1.7693661153316497802734375</LongitudeDegrees>
            </Position>
            <AltitudeMeters>1329.4000244140625</AltitudeMeters>
            <DistanceMeters>455318.46294714</DistanceMeters>
          </Trackpoint>
          <Trackpoint>
            <Time>2021-08-02T11:57:43.000Z</Time>
            <Position>
              <LatitudeDegrees>41.71667550690472126007080078125</LatitudeDegrees>
              <LongitudeDegrees>-1.76939302124083042144775390625</LongitudeDegrees>
            </Position>
            <AltitudeMeters>1327.800048828125</AltitudeMeters>
            <DistanceMeters>455323.59262966</DistanceMeters>
          </Trackpoint>
          <Trackpoint>
            <Time>2021-08-02T11:57:45.000Z</Time>
            <Position>
              <LatitudeDegrees>41.71659403480589389801025390625</LatitudeDegrees>
              <LongitudeDegrees>-1.7694571428000926971435546875</LongitudeDegrees>
            </Position>
            <AltitudeMeters>1326.4000244140625</AltitudeMeters>
            <DistanceMeters>455334.10973032</DistanceMeters>
          </Trackpoint>
          <Trackpoint>
            <Time>2021-08-02T11:57:47.000Z</Time>
            <Position>
              <LatitudeDegrees>41.716501750051975250244140625</LatitudeDegrees>
              <LongitudeDegrees>-1.7695198394358158111572265625</LongitudeDegrees>
            </Position>
            <AltitudeMeters>1324.4000244140625</AltitudeMeters>
            <DistanceMeters>455345.62640358</DistanceMeters>
          </Trackpoint>
          <Trackpoint>
            <Time>2021-08-02T11:57:48.000Z</Time>
            <Position>
              <LatitudeDegrees>41.71645405702292919158935546875</LatitudeDegrees>
              <LongitudeDegrees>-1.7695533670485019683837890625</LongitudeDegrees>
            </Position>
            <AltitudeMeters>1323.199951171875</AltitudeMeters>
            <DistanceMeters>455351.62062364</DistanceMeters>
          </Trackpoint>
          <Trackpoint>
            <Time>2021-08-02T11:57:49.000Z</Time>
            <Position>
              <LatitudeDegrees>41.71640644781291484832763671875</LatitudeDegrees>
              <LongitudeDegrees>-1.7695875652134418487548828125</LongitudeDegrees>
            </Position>
            <AltitudeMeters>1322.199951171875</AltitudeMeters>
            <DistanceMeters>455357.63364502</DistanceMeters>
          </Trackpoint>
          <Trackpoint>
            <Time>2021-08-02T11:57:50.000Z</Time>
            <Position>
              <LatitudeDegrees>41.716358251869678497314453125</LatitudeDegrees>
              <LongitudeDegrees>-1.769618578255176544189453125</LongitudeDegrees>
            </Position>
            <AltitudeMeters>1321</AltitudeMeters>
            <DistanceMeters>455363.58477599</DistanceMeters>
          </Trackpoint>
          <Trackpoint>
            <Time>2021-08-02T11:57:52.000Z</Time>
            <Position>
              <LatitudeDegrees>41.71626211144030094146728515625</LatitudeDegrees>
              <LongitudeDegrees>-1.76968068815767765045166015625</LongitudeDegrees>
            </Position>
            <AltitudeMeters>1319.199951171875</AltitudeMeters>
            <DistanceMeters>455375.46501566</DistanceMeters>
          </Trackpoint>
          <Trackpoint>
            <Time>2021-08-02T11:57:54.000Z</Time>
            <Position>
              <LatitudeDegrees>41.7161862552165985107421875</LatitudeDegrees>
              <LongitudeDegrees>-1.76974757574498653411865234375</LongitudeDegrees>
            </Position>
            <AltitudeMeters>1317.800048828125</AltitudeMeters>
            <DistanceMeters>455385.57274958</DistanceMeters>
          </Trackpoint>
          <Trackpoint>
            <Time>2021-08-02T11:57:58.000Z</Time>
            <Position>
              <LatitudeDegrees>41.71615071594715118408203125</LatitudeDegrees>
              <LongitudeDegrees>-1.76989023573696613311767578125</LongitudeDegrees>
            </Position>
            <AltitudeMeters>1316.800048828125</AltitudeMeters>
            <DistanceMeters>455398.06794953</DistanceMeters>
          </Trackpoint>
          <Trackpoint>
            <Time>2021-08-02T11:58:02.000Z</Time>
            <Position>
              <LatitudeDegrees>41.71619421802461147308349609375</LatitudeDegrees>
              <LongitudeDegrees>-1.76992175169289112091064453125</LongitudeDegrees>
            </Position>
            <AltitudeMeters>1316.5999755859375</AltitudeMeters>
            <DistanceMeters>455403.57212126</DistanceMeters>
          </Trackpoint>
          <Trackpoint>
            <Time>2021-08-02T12:03:18.000Z</Time>
            <Position>
              <LatitudeDegrees>41.71618332155048847198486328125</LatitudeDegrees>
              <LongitudeDegrees>-1.7700106836855411529541015625</LongitudeDegrees>
            </Position>
            <AltitudeMeters>1317.4000244140625</AltitudeMeters>
            <DistanceMeters>455411.05935804</DistanceMeters>
          </Trackpoint>
          <Trackpoint>
            <Time>2021-08-02T12:03:20.000Z</Time>
            <Position>
              <LatitudeDegrees>41.7161676473915576934814453125</LatitudeDegrees>
              <LongitudeDegrees>-1.7700546048581600189208984375</LongitudeDegrees>
            </Position>
            <AltitudeMeters>1317.199951171875</AltitudeMeters>
            <DistanceMeters>455415.10441657</DistanceMeters>
          </Trackpoint>
          <Trackpoint>
            <Time>2021-08-02T12:03:25.000Z</Time>
            <Position>
              <LatitudeDegrees>41.7161116562783718109130859375</LatitudeDegrees>
              <LongitudeDegrees>-1.7701897211372852325439453125</LongitudeDegrees>
            </Position>
            <AltitudeMeters>1316.800048828125</AltitudeMeters>
            <DistanceMeters>455427.94428049</DistanceMeters>
          </Trackpoint>
          <Trackpoint>
            <Time>2021-08-02T12:03:32.000Z</Time>
            <Position>
              <LatitudeDegrees>41.71596723608672618865966796875</LatitudeDegrees>
              <LongitudeDegrees>-1.77042198367416858673095703125</LongitudeDegrees>
            </Position>
            <AltitudeMeters>1316</AltitudeMeters>
            <DistanceMeters>455453.05903392</DistanceMeters>
          </Trackpoint>
          <Trackpoint>
            <Time>2021-08-02T12:03:34.000Z</Time>
            <Position>
              <LatitudeDegrees>41.71590521000325679779052734375</LatitudeDegrees>
              <LongitudeDegrees>-1.77049641497433185577392578125</LongitudeDegrees>
            </Position>
            <AltitudeMeters>1315</AltitudeMeters>
            <DistanceMeters>455462.32742737</DistanceMeters>
          </Trackpoint>
          <Trackpoint>
            <Time>2021-08-02T12:03:42.000Z</Time>
            <Position>
              <LatitudeDegrees>41.71565962024033069610595703125</LatitudeDegrees>
              <LongitudeDegrees>-1.77075684070587158203125</LongitudeDegrees>
            </Position>
            <AltitudeMeters>1314</AltitudeMeters>
            <DistanceMeters>455497.18889418</DistanceMeters>
          </Trackpoint>
          <Trackpoint>
            <Time>2021-08-02T12:03:49.000Z</Time>
            <Position>
              <LatitudeDegrees>41.7154236696660518646240234375</LatitudeDegrees>
              <LongitudeDegrees>-1.77102933637797832489013671875</LongitudeDegrees>
            </Position>
            <AltitudeMeters>1312.800048828125</AltitudeMeters>
            <DistanceMeters>455531.86179711</DistanceMeters>
          </Trackpoint>
          <Trackpoint>
            <Time>2021-08-02T12:03:51.000Z</Time>
            <Position>
              <LatitudeDegrees>41.7153502441942691802978515625</LatitudeDegrees>
              <LongitudeDegrees>-1.77111969329416751861572265625</LongitudeDegrees>
            </Position>
            <AltitudeMeters>1312.4000244140625</AltitudeMeters>
            <DistanceMeters>455542.95878555</DistanceMeters>
          </Trackpoint>
          <Trackpoint>
            <Time>2021-08-02T12:03:54.000Z</Time>
            <Position>
              <LatitudeDegrees>41.715225018560886383056640625</LatitudeDegrees>
              <LongitudeDegrees>-1.77125900052487850189208984375</LongitudeDegrees>
            </Position>
            <AltitudeMeters>1311.800048828125</AltitudeMeters>
            <DistanceMeters>455561.07552335</DistanceMeters>
          </Trackpoint>
          <Trackpoint>
            <Time>2021-08-02T12:03:56.000Z</Time>
            <Position>
              <LatitudeDegrees>41.71513038687407970428466796875</LatitudeDegrees>
              <LongitudeDegrees>-1.77136561833322048187255859375</LongitudeDegrees>
            </Position>
            <AltitudeMeters>1310.800048828125</AltitudeMeters>
            <DistanceMeters>455574.83800327</DistanceMeters>
          </Trackpoint>
          <Trackpoint>
            <Time>2021-08-02T12:03:59.000Z</Time>
            <Position>
              <LatitudeDegrees>41.71497599221765995025634765625</LatitudeDegrees>
              <LongitudeDegrees>-1.7715606652200222015380859375</LongitudeDegrees>
            </Position>
            <AltitudeMeters>1309.199951171875</AltitudeMeters>
            <DistanceMeters>455598.45802048</DistanceMeters>
          </Trackpoint>
          <Trackpoint>
            <Time>2021-08-02T12:04:01.000Z</Time>
            <Position>
              <LatitudeDegrees>41.7148801870644092559814453125</LatitudeDegrees>
              <LongitudeDegrees>-1.77171497605741024017333984375</LongitudeDegrees>
            </Position>
            <AltitudeMeters>1308.199951171875</AltitudeMeters>
            <DistanceMeters>455615.13324593</DistanceMeters>
          </Trackpoint>
          <Trackpoint>
            <Time>2021-08-02T12:04:03.000Z</Time>
            <Position>
              <LatitudeDegrees>41.7147982120513916015625</LatitudeDegrees>
              <LongitudeDegrees>-1.7718922533094882965087890625</LongitudeDegrees>
            </Position>
            <AltitudeMeters>1307</AltitudeMeters>
            <DistanceMeters>455632.45888592</DistanceMeters>
          </Trackpoint>
          <Trackpoint>
            <Time>2021-08-02T12:04:08.000Z</Time>
            <Position>
              <LatitudeDegrees>41.7146555520594120025634765625</LatitudeDegrees>
              <LongitudeDegrees>-1.77238829433917999267578125</LongitudeDegrees>
            </Position>
            <AltitudeMeters>1305.5999755859375</AltitudeMeters>
            <DistanceMeters>455676.62453856</DistanceMeters>
          </Trackpoint>
          <Trackpoint>
            <Time>2021-08-02T12:04:10.000Z</Time>
            <Position>
              <LatitudeDegrees>41.71460886485874652862548828125</LatitudeDegrees>
              <LongitudeDegrees>-1.772595159709453582763671875</LongitudeDegrees>
            </Position>
            <AltitudeMeters>1304.4000244140625</AltitudeMeters>
            <DistanceMeters>455694.57981046</DistanceMeters>
          </Trackpoint>
          <Trackpoint>
            <Time>2021-08-02T12:04:12.000Z</Time>
            <Position>
              <LatitudeDegrees>41.71455857343971729278564453125</LatitudeDegrees>
              <LongitudeDegrees>-1.772817783057689666748046875</LongitudeDegrees>
            </Position>
            <AltitudeMeters>1303.4000244140625</AltitudeMeters>
            <DistanceMeters>455713.90460908</DistanceMeters>
          </Trackpoint>
          <Trackpoint>
            <Time>2021-08-02T12:04:13.000Z</Time>
            <Position>
              <LatitudeDegrees>41.71454801224172115325927734375</LatitudeDegrees>
              <LongitudeDegrees>-1.772932447493076324462890625</LongitudeDegrees>
            </Position>
            <AltitudeMeters>1303</AltitudeMeters>
            <DistanceMeters>455723.50371841</DistanceMeters>
          </Trackpoint>
          <Trackpoint>
            <Time>2021-08-02T12:04:17.000Z</Time>
            <Position>
              <LatitudeDegrees>41.71461473219096660614013671875</LatitudeDegrees>
              <LongitudeDegrees>-1.77324551157653331756591796875</LongitudeDegrees>
            </Position>
            <AltitudeMeters>1305</AltitudeMeters>
            <DistanceMeters>455750.5534695</DistanceMeters>
          </Trackpoint>
          <Trackpoint>
            <Time>2021-08-02T12:04:18.000Z</Time>
            <Position>
              <LatitudeDegrees>41.71463468112051486968994140625</LatitudeDegrees>
              <LongitudeDegrees>-1.773287169635295867919921875</LongitudeDegrees>
            </Position>
            <AltitudeMeters>1306</AltitudeMeters>
            <DistanceMeters>455754.6660518</DistanceMeters>
          </Trackpoint>
          <Trackpoint>
            <Time>2021-08-02T12:04:19.000Z</Time>
            <Position>
              <LatitudeDegrees>41.714647002518177032470703125</LatitudeDegrees>
              <LongitudeDegrees>-1.7733185179531574249267578125</LongitudeDegrees>
            </Position>
            <AltitudeMeters>1307</AltitudeMeters>
            <DistanceMeters>455757.61034686</DistanceMeters>
          </Trackpoint>
          <Trackpoint>
            <Time>2021-08-02T12:04:22.000Z</Time>
            <Position>
              <LatitudeDegrees>41.71467239968478679656982421875</LatitudeDegrees>
              <LongitudeDegrees>-1.77336470223963260650634765625</LongitudeDegrees>
            </Position>
            <AltitudeMeters>1308</AltitudeMeters>
            <DistanceMeters>455762.3768626</DistanceMeters>
          </Trackpoint>
          <Trackpoint>
            <Time>2021-08-02T12:04:33.000Z</Time>
            <Position>
              <LatitudeDegrees>41.71474381349980831146240234375</LatitudeDegrees>
              <LongitudeDegrees>-1.77353686653077602386474609375</LongitudeDegrees>
            </Position>
            <AltitudeMeters>1309.199951171875</AltitudeMeters>
            <DistanceMeters>455778.74078288</DistanceMeters>
          </Trackpoint>
          <Trackpoint>
            <Time>2021-08-02T12:04:43.000Z</Time>
            <Position>
              <LatitudeDegrees>41.71482511796057224273681640625</LatitudeDegrees>
              <LongitudeDegrees>-1.77370919845998287200927734375</LongitudeDegrees>
            </Position>
            <AltitudeMeters>1310.4000244140625</AltitudeMeters>
            <DistanceMeters>455795.67847838</DistanceMeters>
          </Trackpoint>
          <Trackpoint>
            <Time>2021-08-02T12:04:53.000Z</Time>
            <Position>
              <LatitudeDegrees>41.71491228975355625152587890625</LatitudeDegrees>
              <LongitudeDegrees>-1.77387180738151073455810546875</LongitudeDegrees>
            </Position>
            <AltitudeMeters>1311.4000244140625</AltitudeMeters>
            <DistanceMeters>455812.31168258</DistanceMeters>
          </Trackpoint>
          <Trackpoint>
            <Time>2021-08-02T12:05:03.000Z</Time>
            <Position>
              <LatitudeDegrees>41.71500549651682376861572265625</LatitudeDegrees>
              <LongitudeDegrees>-1.7740453965961933135986328125</LongitudeDegrees>
            </Position>
            <AltitudeMeters>1312.4000244140625</AltitudeMeters>
            <DistanceMeters>455830.07761239</DistanceMeters>
          </Trackpoint>
          <Trackpoint>
            <Time>2021-08-02T12:05:13.000Z</Time>
            <Position>
              <LatitudeDegrees>41.71510959975421428680419921875</LatitudeDegrees>
              <LongitudeDegrees>-1.774215213954448699951171875</LongitudeDegrees>
            </Position>
            <AltitudeMeters>1313.800048828125</AltitudeMeters>
            <DistanceMeters>455848.33461602</DistanceMeters>
          </Trackpoint>
          <Trackpoint>
            <Time>2021-08-02T12:05:24.000Z</Time>
            <Position>
              <LatitudeDegrees>41.71523013152182102203369140625</LatitudeDegrees>
              <LongitudeDegrees>-1.77440489642322063446044921875</LongitudeDegrees>
            </Position>
            <AltitudeMeters>1314.800048828125</AltitudeMeters>
            <DistanceMeters>455869.03081485</DistanceMeters>
          </Trackpoint>
          <Trackpoint>
            <Time>2021-08-02T12:05:41.000Z</Time>
            <Position>
              <LatitudeDegrees>41.71543414704501628875732421875</LatitudeDegrees>
              <LongitudeDegrees>-1.77478484809398651123046875</LongitudeDegrees>
            </Position>
            <AltitudeMeters>1315.199951171875</AltitudeMeters>
            <DistanceMeters>455907.91683317</DistanceMeters>
          </Trackpoint>
          <Trackpoint>
            <Time>2021-08-02T12:06:05.000Z</Time>
            <Position>
              <LatitudeDegrees>41.715732626616954803466796875</LatitudeDegrees>
              <LongitudeDegrees>-1.77540318109095096588134765625</LongitudeDegrees>
            </Position>
            <AltitudeMeters>1315.199951171875</AltitudeMeters>
            <DistanceMeters>455969.09522082</DistanceMeters>
          </Trackpoint>
          <Trackpoint>
            <Time>2021-08-02T12:06:26.000Z</Time>
            <Position>
              <LatitudeDegrees>41.7159782163798809051513671875</LatitudeDegrees>
              <LongitudeDegrees>-1.7760647647082805633544921875</LongitudeDegrees>
            </Position>
            <AltitudeMeters>1315</AltitudeMeters>
            <DistanceMeters>456030.48255185</DistanceMeters>
          </Trackpoint>
          <Trackpoint>
            <Time>2021-08-02T12:06:31.000Z</Time>
            <Position>
              <LatitudeDegrees>41.71603915281593799591064453125</LatitudeDegrees>
              <LongitudeDegrees>-1.77625411190092563629150390625</LongitudeDegrees>
            </Position>
            <AltitudeMeters>1314.199951171875</AltitudeMeters>
            <DistanceMeters>456047.61347285</DistanceMeters>
          </Trackpoint>
          <Trackpoint>
            <Time>2021-08-02T12:06:43.000Z</Time>
            <Position>
              <LatitudeDegrees>41.71620327048003673553466796875</LatitudeDegrees>
              <LongitudeDegrees>-1.776763312518596649169921875</LongitudeDegrees>
            </Position>
            <AltitudeMeters>1313.4000244140625</AltitudeMeters>
            <DistanceMeters>456093.69388535</DistanceMeters>
          </Trackpoint>
          <Trackpoint>
            <Time>2021-08-02T12:06:44.000Z</Time>
            <Position>
              <LatitudeDegrees>41.71621852554380893707275390625</LatitudeDegrees>
              <LongitudeDegrees>-1.77680782042443752288818359375</LongitudeDegrees>
            </Position>
            <AltitudeMeters>1313.199951171875</AltitudeMeters>
            <DistanceMeters>456097.76231626</DistanceMeters>
          </Trackpoint>
          <Trackpoint>
            <Time>2021-08-02T12:06:50.000Z</Time>
            <Position>
              <LatitudeDegrees>41.71632011421024799346923828125</LatitudeDegrees>
              <LongitudeDegrees>-1.77709967829287052154541015625</LongitudeDegrees>
            </Position>
            <AltitudeMeters>1312</AltitudeMeters>
            <DistanceMeters>456124.51701977</DistanceMeters>
          </Trackpoint>
          <Trackpoint>
            <Time>2021-08-02T12:07:01.000Z</Time>
            <Position>
              <LatitudeDegrees>41.71661473810672760009765625</LatitudeDegrees>
              <LongitudeDegrees>-1.77765171043574810028076171875</LongitudeDegrees>
            </Position>
            <AltitudeMeters>1310.800048828125</AltitudeMeters>
            <DistanceMeters>456180.89765953</DistanceMeters>
          </Trackpoint>
          <Trackpoint>
            <Time>2021-08-02T12:07:04.000Z</Time>
            <Position>
              <LatitudeDegrees>41.7167319171130657196044921875</LatitudeDegrees>
              <LongitudeDegrees>-1.77779026329517364501953125</LongitudeDegrees>
            </Position>
            <AltitudeMeters>1309.800048828125</AltitudeMeters>
            <DistanceMeters>456198.29325931</DistanceMeters>
          </Trackpoint>
          <Trackpoint>
            <Time>2021-08-02T12:07:08.000Z</Time>
            <Position>
              <LatitudeDegrees>41.716904081404209136962890625</LatitudeDegrees>
              <LongitudeDegrees>-1.77795932628214359283447265625</LongitudeDegrees>
            </Position>
            <AltitudeMeters>1308.5999755859375</AltitudeMeters>
            <DistanceMeters>456222.05183836</DistanceMeters>
          </Trackpoint>
          <Trackpoint>
            <Time>2021-08-02T12:07:12.000Z</Time>
            <Position>
              <LatitudeDegrees>41.71710264869034290313720703125</LatitudeDegrees>
              <LongitudeDegrees>-1.77811455912888050079345703125</LongitudeDegrees>
            </Position>
            <AltitudeMeters>1307.5999755859375</AltitudeMeters>
            <DistanceMeters>456247.6403288</DistanceMeters>
          </Trackpoint>
          <Trackpoint>
            <Time>2021-08-02T12:07:16.000Z</Time>
            <Position>
              <LatitudeDegrees>41.71730716712772846221923828125</LatitudeDegrees>
              <LongitudeDegrees>-1.77824892103672027587890625</LongitudeDegrees>
            </Position>
            <AltitudeMeters>1307.5999755859375</AltitudeMeters>
            <DistanceMeters>456272.99341345</DistanceMeters>
          </Trackpoint>
          <Trackpoint>
            <Time>2021-08-02T12:07:22.000Z</Time>
            <Position>
              <LatitudeDegrees>41.71755108051002025604248046875</LatitudeDegrees>
              <LongitudeDegrees>-1.77836182527244091033935546875</LongitudeDegrees>
            </Position>
            <AltitudeMeters>1308.800048828125</AltitudeMeters>
            <DistanceMeters>456301.71632842</DistanceMeters>
          </Trackpoint>
          <Trackpoint>
            <Time>2021-08-02T12:07:29.000Z</Time>
            <Position>
              <LatitudeDegrees>41.71770731918513774871826171875</LatitudeDegrees>
              <LongitudeDegrees>-1.778457798063755035400390625</LongitudeDegrees>
            </Position>
            <AltitudeMeters>1309.800048828125</AltitudeMeters>
            <DistanceMeters>456320.84693134</DistanceMeters>
          </Trackpoint>
          <Trackpoint>
            <Time>2021-08-02T12:07:34.000Z</Time>
            <Position>
              <LatitudeDegrees>41.71775643713772296905517578125</LatitudeDegrees>
              <LongitudeDegrees>-1.77859450690448284149169921875</LongitudeDegrees>
            </Position>
            <AltitudeMeters>1310</AltitudeMeters>
            <DistanceMeters>456333.45185875</DistanceMeters>
          </Trackpoint>
          <Trackpoint>
            <Time>2021-08-02T12:07:39.000Z</Time>
            <Position>
              <LatitudeDegrees>41.7176053114235401153564453125</LatitudeDegrees>
              <LongitudeDegrees>-1.7787104286253452301025390625</LongitudeDegrees>
            </Position>
            <AltitudeMeters>1308.5999755859375</AltitudeMeters>
            <DistanceMeters>456352.83451338</DistanceMeters>
          </Trackpoint>
          <Trackpoint>
            <Time>2021-08-02T12:07:41.000Z</Time>
            <Position>
              <LatitudeDegrees>41.71750179491937160491943359375</LatitudeDegrees>
              <LongitudeDegrees>-1.77871562540531158447265625</LongitudeDegrees>
            </Position>
            <AltitudeMeters>1307</AltitudeMeters>
            <DistanceMeters>456364.36450841</DistanceMeters>
          </Trackpoint>
          <Trackpoint>
            <Time>2021-08-02T12:07:42.000Z</Time>
            <Position>
              <LatitudeDegrees>41.717445217072963714599609375</LatitudeDegrees>
              <LongitudeDegrees>-1.77872325293719768524169921875</LongitudeDegrees>
            </Position>
            <AltitudeMeters>1305.800048828125</AltitudeMeters>
            <DistanceMeters>456370.69431482</DistanceMeters>
          </Trackpoint>
          <Trackpoint>
            <Time>2021-08-02T12:07:44.000Z</Time>
            <Position>
              <LatitudeDegrees>41.71732275746762752532958984375</LatitudeDegrees>
              <LongitudeDegrees>-1.778748817741870880126953125</LongitudeDegrees>
            </Position>
            <AltitudeMeters>1304.5999755859375</AltitudeMeters>
            <DistanceMeters>456384.4892353</DistanceMeters>
          </Trackpoint>
          <Trackpoint>
            <Time>2021-08-02T12:07:48.000Z</Time>
            <Position>
              <LatitudeDegrees>41.717064678668975830078125</LatitudeDegrees>
              <LongitudeDegrees>-1.7788452096283435821533203125</LongitudeDegrees>
            </Position>
            <AltitudeMeters>1303.4000244140625</AltitudeMeters>
            <DistanceMeters>456414.30915729</DistanceMeters>
          </Trackpoint>
          <Trackpoint>
            <Time>2021-08-02T12:07:51.000Z</Time>
            <Position>
              <LatitudeDegrees>41.71686493791639804840087890625</LatitudeDegrees>
              <LongitudeDegrees>-1.7789571918547153472900390625</LongitudeDegrees>
            </Position>
            <AltitudeMeters>1302.4000244140625</AltitudeMeters>
            <DistanceMeters>456438.40887631</DistanceMeters>
          </Trackpoint>
          <Trackpoint>
            <Time>2021-08-02T12:07:53.000Z</Time>
            <Position>
              <LatitudeDegrees>41.7167185060679912567138671875</LatitudeDegrees>
              <LongitudeDegrees>-1.77902273833751678466796875</LongitudeDegrees>
            </Position>
            <AltitudeMeters>1301.5999755859375</AltitudeMeters>
            <DistanceMeters>456455.59295411</DistanceMeters>
          </Trackpoint>
          <Trackpoint>
            <Time>2021-08-02T12:07:54.000Z</Time>
            <Position>
              <LatitudeDegrees>41.71663896180689334869384765625</LatitudeDegrees>
              <LongitudeDegrees>-1.7790373228490352630615234375</LongitudeDegrees>
            </Position>
            <AltitudeMeters>1301.199951171875</AltitudeMeters>
            <DistanceMeters>456464.52950803</DistanceMeters>
          </Trackpoint>
          <Trackpoint>
            <Time>2021-08-02T12:07:56.000Z</Time>
            <Position>
              <LatitudeDegrees>41.71647685579955577850341796875</LatitudeDegrees>
              <LongitudeDegrees>-1.77905819378793239593505859375</LongitudeDegrees>
            </Position>
            <AltitudeMeters>1299.4000244140625</AltitudeMeters>
            <DistanceMeters>456482.65571369</DistanceMeters>
          </Trackpoint>
          <Trackpoint>
            <Time>2021-08-02T12:07:57.000Z</Time>
            <Position>
              <LatitudeDegrees>41.71639739535748958587646484375</LatitudeDegrees>
              <LongitudeDegrees>-1.7790799029171466827392578125</LongitudeDegrees>
            </Position>
            <AltitudeMeters>1298.4000244140625</AltitudeMeters>
            <DistanceMeters>456491.68175101</DistanceMeters>
          </Trackpoint>
          <Trackpoint>
            <Time>2021-08-02T12:07:59.000Z</Time>
            <Position>
              <LatitudeDegrees>41.71623931266367435455322265625</LatitudeDegrees>
              <LongitudeDegrees>-1.779119968414306640625</LongitudeDegrees>
            </Position>
            <AltitudeMeters>1297</AltitudeMeters>
            <DistanceMeters>456509.58867745</DistanceMeters>
          </Trackpoint>
          <Trackpoint>
            <Time>2021-08-02T12:08:04.000Z</Time>
            <Position>
              <LatitudeDegrees>41.7158568464219570159912109375</LatitudeDegrees>
              <LongitudeDegrees>-1.77903807722032070159912109375</LongitudeDegrees>
            </Position>
            <AltitudeMeters>1296.199951171875</AltitudeMeters>
            <DistanceMeters>456552.69814105</DistanceMeters>
          </Trackpoint>
          <Trackpoint>
            <Time>2021-08-02T12:08:05.000Z</Time>
            <Position>
              <LatitudeDegrees>41.71578048728406429290771484375</LatitudeDegrees>
              <LongitudeDegrees>-1.7790309526026248931884765625</LongitudeDegrees>
            </Position>
            <AltitudeMeters>1295.800048828125</AltitudeMeters>
            <DistanceMeters>456561.21775105</DistanceMeters>
          </Trackpoint>
          <Trackpoint>
            <Time>2021-08-02T12:08:06.000Z</Time>
            <Position>
              <LatitudeDegrees>41.71570479869842529296875</LatitudeDegrees>
              <LongitudeDegrees>-1.77901812829077243804931640625</LongitudeDegrees>
            </Position>
            <AltitudeMeters>1295.4000244140625</AltitudeMeters>
            <DistanceMeters>456569.7092268</DistanceMeters>
          </Trackpoint>
          <Trackpoint>
            <Time>2021-08-02T12:08:08.000Z</Time>
            <Position>
              <LatitudeDegrees>41.715556941926479339599609375</LatitudeDegrees>
              <LongitudeDegrees>-1.7789494805037975311279296875</LongitudeDegrees>
            </Position>
            <AltitudeMeters>1294.5999755859375</AltitudeMeters>
            <DistanceMeters>456587.12635595</DistanceMeters>
          </Trackpoint>
          <Trackpoint>
            <Time>2021-08-02T12:08:11.000Z</Time>
            <Position>
              <LatitudeDegrees>41.715338341891765594482421875</LatitudeDegrees>
              <LongitudeDegrees>-1.7788180522620677947998046875</LongitudeDegrees>
            </Position>
            <AltitudeMeters>1293.5999755859375</AltitudeMeters>
            <DistanceMeters>456613.79485461</DistanceMeters>
          </Trackpoint>
          <Trackpoint>
            <Time>2021-08-02T12:08:13.000Z</Time>
            <Position>
              <LatitudeDegrees>41.71519853174686431884765625</LatitudeDegrees>
              <LongitudeDegrees>-1.778741776943206787109375</LongitudeDegrees>
            </Position>
            <AltitudeMeters>1292.4000244140625</AltitudeMeters>
            <DistanceMeters>456630.59658815</DistanceMeters>
          </Trackpoint>
          <Trackpoint>
            <Time>2021-08-02T12:08:14.000Z</Time>
            <Position>
              <LatitudeDegrees>41.71513088978826999664306640625</LatitudeDegrees>
              <LongitudeDegrees>-1.77869861014187335968017578125</LongitudeDegrees>
            </Position>
            <AltitudeMeters>1292</AltitudeMeters>
            <DistanceMeters>456638.93568994</DistanceMeters>
          </Trackpoint>
          <Trackpoint>
            <Time>2021-08-02T12:08:16.000Z</Time>
            <Position>
              <LatitudeDegrees>41.71499460004270076751708984375</LatitudeDegrees>
              <LongitudeDegrees>-1.77860707975924015045166015625</LongitudeDegrees>
            </Position>
            <AltitudeMeters>1291.4000244140625</AltitudeMeters>
            <DistanceMeters>456655.90427908</DistanceMeters>
          </Trackpoint>
          <Trackpoint>
            <Time>2021-08-02T12:08:20.000Z</Time>
            <Position>
              <LatitudeDegrees>41.71473316848278045654296875</LatitudeDegrees>
              <LongitudeDegrees>-1.7784234322607517242431640625</LongitudeDegrees>
            </Position>
            <AltitudeMeters>1290.4000244140625</AltitudeMeters>
            <DistanceMeters>456688.75989441</DistanceMeters>
          </Trackpoint>
          <Trackpoint>
            <Time>2021-08-02T12:08:26.000Z</Time>
            <Position>
              <LatitudeDegrees>41.7143833078444004058837890625</LatitudeDegrees>
              <LongitudeDegrees>-1.7780945263803005218505859375</LongitudeDegrees>
            </Position>
            <AltitudeMeters>1290.4000244140625</AltitudeMeters>
            <DistanceMeters>456736.33175203</DistanceMeters>
          </Trackpoint>
          <Trackpoint>
            <Time>2021-08-02T12:08:29.000Z</Time>
            <Position>
              <LatitudeDegrees>41.714250706136226654052734375</LatitudeDegrees>
              <LongitudeDegrees>-1.77792613394558429718017578125</LongitudeDegrees>
            </Position>
            <AltitudeMeters>1289.4000244140625</AltitudeMeters>
            <DistanceMeters>456756.66791296</DistanceMeters>
          </Trackpoint>
          <Trackpoint>
            <Time>2021-08-02T12:08:40.000Z</Time>
            <Position>
              <LatitudeDegrees>41.71383940614759922027587890625</LatitudeDegrees>
              <LongitudeDegrees>-1.77745926193892955780029296875</LongitudeDegrees>
            </Position>
            <AltitudeMeters>1288.199951171875</AltitudeMeters>
            <DistanceMeters>456816.67049239</DistanceMeters>
          </Trackpoint>
          <Trackpoint>
            <Time>2021-08-02T12:08:42.000Z</Time>
            <Position>
              <LatitudeDegrees>41.7137425951659679412841796875</LatitudeDegrees>
              <LongitudeDegrees>-1.777408383786678314208984375</LongitudeDegrees>
            </Position>
            <AltitudeMeters>1287.4000244140625</AltitudeMeters>
            <DistanceMeters>456828.24543274</DistanceMeters>
          </Trackpoint>
          <Trackpoint>
            <Time>2021-08-02T12:08:43.000Z</Time>
            <Position>
              <LatitudeDegrees>41.71368886716663837432861328125</LatitudeDegrees>
              <LongitudeDegrees>-1.7773921228945255279541015625</LongitudeDegrees>
            </Position>
            <AltitudeMeters>1286.800048828125</AltitudeMeters>
            <DistanceMeters>456834.3759448</DistanceMeters>
          </Trackpoint>
          <Trackpoint>
            <Time>2021-08-02T12:08:45.000Z</Time>
            <Position>
              <LatitudeDegrees>41.71357202343642711639404296875</LatitudeDegrees>
              <LongitudeDegrees>-1.77737561054527759552001953125</LongitudeDegrees>
            </Position>
            <AltitudeMeters>1285</AltitudeMeters>
            <DistanceMeters>456847.45308469</DistanceMeters>
          </Trackpoint>
          <Trackpoint>
            <Time>2021-08-02T12:08:46.000Z</Time>
            <Position>
              <LatitudeDegrees>41.7135120928287506103515625</LatitudeDegrees>
              <LongitudeDegrees>-1.77737477235496044158935546875</LongitudeDegrees>
            </Position>
            <AltitudeMeters>1284.199951171875</AltitudeMeters>
            <DistanceMeters>456854.12393297</DistanceMeters>
          </Trackpoint>
          <Trackpoint>
            <Time>2021-08-02T12:08:47.000Z</Time>
            <Position>
              <LatitudeDegrees>41.7134512402117252349853515625</LatitudeDegrees>
              <LongitudeDegrees>-1.77737410180270671844482421875</LongitudeDegrees>
            </Position>
            <AltitudeMeters>1283.4000244140625</AltitudeMeters>
            <DistanceMeters>456860.89754489</DistanceMeters>
          </Trackpoint>
          <Trackpoint>
            <Time>2021-08-02T12:08:48.000Z</Time>
            <Position>
              <LatitudeDegrees>41.7133887112140655517578125</LatitudeDegrees>
              <LongitudeDegrees>-1.77738189697265625</LongitudeDegrees>
            </Position>
            <AltitudeMeters>1282.5999755859375</AltitudeMeters>
            <DistanceMeters>456867.88701651</DistanceMeters>
          </Trackpoint>
          <Trackpoint>
            <Time>2021-08-02T12:08:49.000Z</Time>
            <Position>
              <LatitudeDegrees>41.71332559548318386077880859375</LatitudeDegrees>
              <LongitudeDegrees>-1.77740008570253849029541015625</LongitudeDegrees>
            </Position>
            <AltitudeMeters>1282</AltitudeMeters>
            <DistanceMeters>456875.07269512</DistanceMeters>
          </Trackpoint>
          <Trackpoint>
            <Time>2021-08-02T12:08:52.000Z</Time>
            <Position>
              <LatitudeDegrees>41.7131464742124080657958984375</LatitudeDegrees>
              <LongitudeDegrees>-1.77748021669685840606689453125</LongitudeDegrees>
            </Position>
            <AltitudeMeters>1280.5999755859375</AltitudeMeters>
            <DistanceMeters>456896.09165061</DistanceMeters>
          </Trackpoint>
          <Trackpoint>
            <Time>2021-08-02T12:08:53.000Z</Time>
            <Position>
              <LatitudeDegrees>41.7130851186811923980712890625</LatitudeDegrees>
              <LongitudeDegrees>-1.77750921808183193206787109375</LongitudeDegrees>
            </Position>
            <AltitudeMeters>1279.4000244140625</AltitudeMeters>
            <DistanceMeters>456903.33303542</DistanceMeters>
          </Trackpoint>
          <Trackpoint>
            <Time>2021-08-02T12:08:55.000Z</Time>
            <Position>
              <LatitudeDegrees>41.71295779757201671600341796875</LatitudeDegrees>
              <LongitudeDegrees>-1.77756772376596927642822265625</LongitudeDegrees>
            </Position>
            <AltitudeMeters>1278</AltitudeMeters>
            <DistanceMeters>456918.3147436</DistanceMeters>
          </Trackpoint>
          <Trackpoint>
            <Time>2021-08-02T12:08:57.000Z</Time>
            <Position>
              <LatitudeDegrees>41.71282771043479442596435546875</LatitudeDegrees>
              <LongitudeDegrees>-1.777628995478153228759765625</LongitudeDegrees>
            </Position>
            <AltitudeMeters>1276</AltitudeMeters>
            <DistanceMeters>456933.66266119</DistanceMeters>
          </Trackpoint>
          <Trackpoint>
            <Time>2021-08-02T12:08:58.000Z</Time>
            <Position>
              <LatitudeDegrees>41.71276040375232696533203125</LatitudeDegrees>
              <LongitudeDegrees>-1.777657829225063323974609375</LongitudeDegrees>
            </Position>
            <AltitudeMeters>1274.800048828125</AltitudeMeters>
            <DistanceMeters>456941.52809529</DistanceMeters>
          </Trackpoint>
          <Trackpoint>
            <Time>2021-08-02T12:08:59.000Z</Time>
            <Position>
              <LatitudeDegrees>41.712688989937305450439453125</LatitudeDegrees>
              <LongitudeDegrees>-1.77768691442906856536865234375</LongitudeDegrees>
            </Position>
            <AltitudeMeters>1273.4000244140625</AltitudeMeters>
            <DistanceMeters>456949.83627827</DistanceMeters>
          </Trackpoint>
          <Trackpoint>
            <Time>2021-08-02T12:09:01.000Z</Time>
            <Position>
              <LatitudeDegrees>41.71253082342445850372314453125</LatitudeDegrees>
              <LongitudeDegrees>-1.7777444981038570404052734375</LongitudeDegrees>
            </Position>
            <AltitudeMeters>1271.5999755859375</AltitudeMeters>
            <DistanceMeters>456968.0791801</DistanceMeters>
          </Trackpoint>
          <Trackpoint>
            <Time>2021-08-02T12:09:03.000Z</Time>
            <Position>
              <LatitudeDegrees>41.712347008287906646728515625</LatitudeDegrees>
              <LongitudeDegrees>-1.7777988128364086151123046875</LongitudeDegrees>
            </Position>
            <AltitudeMeters>1269.199951171875</AltitudeMeters>
            <DistanceMeters>456989.02993082</DistanceMeters>
          </Trackpoint>
          <Trackpoint>
            <Time>2021-08-02T12:09:04.000Z</Time>
            <Position>
              <LatitudeDegrees>41.7122487723827362060546875</LatitudeDegrees>
              <LongitudeDegrees>-1.7778256349265575408935546875</LongitudeDegrees>
            </Position>
            <AltitudeMeters>1266.800048828125</AltitudeMeters>
            <DistanceMeters>457000.18859222</DistanceMeters>
          </Trackpoint>
          <Trackpoint>
            <Time>2021-08-02T12:09:05.000Z</Time>
            <Position>
              <LatitudeDegrees>41.71214961446821689605712890625</LatitudeDegrees>
              <LongitudeDegrees>-1.777854301035404205322265625</LongitudeDegrees>
            </Position>
            <AltitudeMeters>1264.800048828125</AltitudeMeters>
            <DistanceMeters>457011.47958948</DistanceMeters>
          </Trackpoint>
          <Trackpoint>
            <Time>2021-08-02T12:09:06.000Z</Time>
            <Position>
              <LatitudeDegrees>41.7120440863072872161865234375</LatitudeDegrees>
              <LongitudeDegrees>-1.77787953056395053863525390625</LongitudeDegrees>
            </Position>
            <AltitudeMeters>1262.199951171875</AltitudeMeters>
            <DistanceMeters>457023.41064665</DistanceMeters>
          </Trackpoint>
          <Trackpoint>
            <Time>2021-08-02T12:09:07.000Z</Time>
            <Position>
              <LatitudeDegrees>41.711936295032501220703125</LatitudeDegrees>
              <LongitudeDegrees>-1.77790182642638683319091796875</LongitudeDegrees>
            </Position>
            <AltitudeMeters>1260</AltitudeMeters>
            <DistanceMeters>457035.55028616</DistanceMeters>
          </Trackpoint>
          <Trackpoint>
            <Time>2021-08-02T12:09:08.000Z</Time>
            <Position>
              <LatitudeDegrees>41.7118274979293346405029296875</LatitudeDegrees>
              <LongitudeDegrees>-1.77792261354625225067138671875</LongitudeDegrees>
            </Position>
            <AltitudeMeters>1258.4000244140625</AltitudeMeters>
            <DistanceMeters>457047.78218449</DistanceMeters>
          </Trackpoint>
          <Trackpoint>
            <Time>2021-08-02T12:09:10.000Z</Time>
            <Position>
              <LatitudeDegrees>41.711612083017826080322265625</LatitudeDegrees>
              <LongitudeDegrees>-1.777963601052761077880859375</LongitudeDegrees>
            </Position>
            <AltitudeMeters>1257.199951171875</AltitudeMeters>
            <DistanceMeters>457071.99889947</DistanceMeters>
          </Trackpoint>
          <Trackpoint>
            <Time>2021-08-02T12:09:14.000Z</Time>
            <Position>
              <LatitudeDegrees>41.71122022904455661773681640625</LatitudeDegrees>
              <LongitudeDegrees>-1.77805974148213863372802734375</LongitudeDegrees>
            </Position>
            <AltitudeMeters>1258.800048828125</AltitudeMeters>
            <DistanceMeters>457116.3384092</DistanceMeters>
          </Trackpoint>
          <Trackpoint>
            <Time>2021-08-02T12:09:16.000Z</Time>
            <Position>
              <LatitudeDegrees>41.7110660858452320098876953125</LatitudeDegrees>
              <LongitudeDegrees>-1.77816283889114856719970703125</LongitudeDegrees>
            </Position>
            <AltitudeMeters>1260</AltitudeMeters>
            <DistanceMeters>457135.5145082</DistanceMeters>
          </Trackpoint>
          <Trackpoint>
            <Time>2021-08-02T12:09:18.000Z</Time>
            <Position>
              <LatitudeDegrees>41.71096139587461948394775390625</LatitudeDegrees>
              <LongitudeDegrees>-1.778299547731876373291015625</LongitudeDegrees>
            </Position>
            <AltitudeMeters>1262.199951171875</AltitudeMeters>
            <DistanceMeters>457151.78712206</DistanceMeters>
          </Trackpoint>
          <Trackpoint>
            <Time>2021-08-02T12:09:20.000Z</Time>
            <Position>
              <LatitudeDegrees>41.71090808697044849395751953125</LatitudeDegrees>
              <LongitudeDegrees>-1.7784304730594158172607421875</LongitudeDegrees>
            </Position>
            <AltitudeMeters>1264.4000244140625</AltitudeMeters>
            <DistanceMeters>457164.17854731</DistanceMeters>
          </Trackpoint>
          <Trackpoint>
            <Time>2021-08-02T12:09:21.000Z</Time>
            <Position>
              <LatitudeDegrees>41.71089232899248600006103515625</LatitudeDegrees>
              <LongitudeDegrees>-1.778485290706157684326171875</LongitudeDegrees>
            </Position>
            <AltitudeMeters>1265.5999755859375</AltitudeMeters>
            <DistanceMeters>457169.05925849</DistanceMeters>
          </Trackpoint>
          <Trackpoint>
            <Time>2021-08-02T12:09:23.000Z</Time>
            <Position>
              <LatitudeDegrees>41.71087187714874744415283203125</LatitudeDegrees>
              <LongitudeDegrees>-1.77856047637760639190673828125</LongitudeDegrees>
            </Position>
            <AltitudeMeters>1267.4000244140625</AltitudeMeters>
            <DistanceMeters>457175.7084129</DistanceMeters>
          </Trackpoint>
          <Trackpoint>
            <Time>2021-08-02T12:09:25.000Z</Time>
            <Position>
              <LatitudeDegrees>41.710865087807178497314453125</LatitudeDegrees>
              <LongitudeDegrees>-1.7786078341305255889892578125</LongitudeDegrees>
            </Position>
            <AltitudeMeters>1268.5999755859375</AltitudeMeters>
            <DistanceMeters>457179.71534139</DistanceMeters>
          </Trackpoint>
          <Trackpoint>
            <Time>2021-08-02T12:09:34.000Z</Time>
            <Position>
              <LatitudeDegrees>41.7108593881130218505859375</LatitudeDegrees>
              <LongitudeDegrees>-1.77878477610647678375244140625</LongitudeDegrees>
            </Position>
            <AltitudeMeters>1269.800048828125</AltitudeMeters>
            <DistanceMeters>457194.43068145</DistanceMeters>
          </Trackpoint>
          <Trackpoint>
            <Time>2021-08-02T12:09:40.000Z</Time>
            <Position>
              <LatitudeDegrees>41.7108706198632717132568359375</LatitudeDegrees>
              <LongitudeDegrees>-1.77889340557157993316650390625</LongitudeDegrees>
            </Position>
            <AltitudeMeters>1271.199951171875</AltitudeMeters>
            <DistanceMeters>457203.54235104</DistanceMeters>
          </Trackpoint>
          <Trackpoint>
            <Time>2021-08-02T12:09:47.000Z</Time>
            <Position>
              <LatitudeDegrees>41.7108942568302154541015625</LatitudeDegrees>
              <LongitudeDegrees>-1.779011674225330352783203125</LongitudeDegrees>
            </Position>
            <AltitudeMeters>1271.4000244140625</AltitudeMeters>
            <DistanceMeters>457213.71509286</DistanceMeters>
          </Trackpoint>
          <Trackpoint>
            <Time>2021-08-02T12:09:59.000Z</Time>
            <Position>
              <LatitudeDegrees>41.71096290461719036102294921875</LatitudeDegrees>
              <LongitudeDegrees>-1.7792150191962718963623046875</LongitudeDegrees>
            </Position>
            <AltitudeMeters>1272.199951171875</AltitudeMeters>
            <DistanceMeters>457232.25821155</DistanceMeters>
          </Trackpoint>
          <Trackpoint>
            <Time>2021-08-02T12:10:18.000Z</Time>
            <Position>
              <LatitudeDegrees>41.711114533245563507080078125</LatitudeDegrees>
              <LongitudeDegrees>-1.77953110076487064361572265625</LongitudeDegrees>
            </Position>
            <AltitudeMeters>1273.4000244140625</AltitudeMeters>
            <DistanceMeters>457263.4758974</DistanceMeters>
          </Trackpoint>
          <Trackpoint>
            <Time>2021-08-02T12:10:32.000Z</Time>
            <Position>
              <LatitudeDegrees>41.71125702559947967529296875</LatitudeDegrees>
              <LongitudeDegrees>-1.77978088147938251495361328125</LongitudeDegrees>
            </Position>
            <AltitudeMeters>1274.5999755859375</AltitudeMeters>
            <DistanceMeters>457289.59562817</DistanceMeters>
          </Trackpoint>
          <Trackpoint>
            <Time>2021-08-02T12:10:46.000Z</Time>
            <Position>
              <LatitudeDegrees>41.71140966005623340606689453125</LatitudeDegrees>
              <LongitudeDegrees>-1.78009570576250553131103515625</LongitudeDegrees>
            </Position>
            <AltitudeMeters>1273.4000244140625</AltitudeMeters>
            <DistanceMeters>457320.78611159</DistanceMeters>
          </Trackpoint>
          <Trackpoint>
            <Time>2021-08-02T12:10:47.000Z</Time>
            <Position>
              <LatitudeDegrees>41.71141661703586578369140625</LatitudeDegrees>
              <LongitudeDegrees>-1.7801450751721858978271484375</LongitudeDegrees>
            </Position>
            <AltitudeMeters>1273</AltitudeMeters>
            <DistanceMeters>457324.9608029</DistanceMeters>
          </Trackpoint>
          <Trackpoint>
            <Time>2021-08-02T12:10:49.000Z</Time>
            <Position>
              <LatitudeDegrees>41.711410582065582275390625</LatitudeDegrees>
              <LongitudeDegrees>-1.7802600748836994171142578125</LongitudeDegrees>
            </Position>
            <AltitudeMeters>1272.199951171875</AltitudeMeters>
            <DistanceMeters>457334.53919403</DistanceMeters>
          </Trackpoint>
          <Trackpoint>
            <Time>2021-08-02T12:10:53.000Z</Time>
            <Position>
              <LatitudeDegrees>41.71134126372635364532470703125</LatitudeDegrees>
              <LongitudeDegrees>-1.78043584339320659637451171875</LongitudeDegrees>
            </Position>
            <AltitudeMeters>1271.4000244140625</AltitudeMeters>
            <DistanceMeters>457351.05581019</DistanceMeters>
          </Trackpoint>
          <Trackpoint>
            <Time>2021-08-02T12:11:00.000Z</Time>
            <Position>
              <LatitudeDegrees>41.7111737094819545745849609375</LatitudeDegrees>
              <LongitudeDegrees>-1.78067103959619998931884765625</LongitudeDegrees>
            </Position>
            <AltitudeMeters>1271.199951171875</AltitudeMeters>
            <DistanceMeters>457378.0681462</DistanceMeters>
          </Trackpoint>
          <Trackpoint>
            <Time>2021-08-02T12:11:01.000Z</Time>
            <Position>
              <LatitudeDegrees>41.7111415229737758636474609375</LatitudeDegrees>
              <LongitudeDegrees>-1.78070825524628162384033203125</LongitudeDegrees>
            </Position>
            <AltitudeMeters>1270.5999755859375</AltitudeMeters>
            <DistanceMeters>457382.80139241</DistanceMeters>
          </Trackpoint>
          <Trackpoint>
            <Time>2021-08-02T12:11:02.000Z</Time>
            <Position>
              <LatitudeDegrees>41.711105145514011383056640625</LatitudeDegrees>
              <LongitudeDegrees>-1.78074605762958526611328125</LongitudeDegrees>
            </Position>
            <AltitudeMeters>1269.800048828125</AltitudeMeters>
            <DistanceMeters>457387.92579114</DistanceMeters>
          </Trackpoint>
          <Trackpoint>
            <Time>2021-08-02T12:11:04.000Z</Time>
            <Position>
              <LatitudeDegrees>41.71101470477879047393798828125</LatitudeDegrees>
              <LongitudeDegrees>-1.78082644008100032806396484375</LongitudeDegrees>
            </Position>
            <AltitudeMeters>1269</AltitudeMeters>
            <DistanceMeters>457400.00652354</DistanceMeters>
          </Trackpoint>
          <Trackpoint>
            <Time>2021-08-02T12:11:05.000Z</Time>
            <Position>
              <LatitudeDegrees>41.71096064150333404541015625</LatitudeDegrees>
              <LongitudeDegrees>-1.7808588780462741851806640625</LongitudeDegrees>
            </Position>
            <AltitudeMeters>1268.5999755859375</AltitudeMeters>
            <DistanceMeters>457406.60044636</DistanceMeters>
          </Trackpoint>
          <Trackpoint>
            <Time>2021-08-02T12:11:08.000Z</Time>
            <Position>
              <LatitudeDegrees>41.71080172061920166015625</LatitudeDegrees>
              <LongitudeDegrees>-1.78089349530637264251708984375</LongitudeDegrees>
            </Position>
            <AltitudeMeters>1268.199951171875</AltitudeMeters>
            <DistanceMeters>457424.52098314</DistanceMeters>
          </Trackpoint>
          <Trackpoint>
            <Time>2021-08-02T12:11:12.000Z</Time>
            <Position>
              <LatitudeDegrees>41.71060600318014621734619140625</LatitudeDegrees>
              <LongitudeDegrees>-1.7809282802045345306396484375</LongitudeDegrees>
            </Position>
            <AltitudeMeters>1267.5999755859375</AltitudeMeters>
            <DistanceMeters>457446.49579527</DistanceMeters>
          </Trackpoint>
          <Trackpoint>
            <Time>2021-08-02T12:11:16.000Z</Time>
            <Position>
              <LatitudeDegrees>41.71042311005294322967529296875</LatitudeDegrees>
              <LongitudeDegrees>-1.78100983612239360809326171875</LongitudeDegrees>
            </Position>
            <AltitudeMeters>1266.4000244140625</AltitudeMeters>
            <DistanceMeters>457467.95037792</DistanceMeters>
          </Trackpoint>
          <Trackpoint>
            <Time>2021-08-02T12:11:19.000Z</Time>
            <Position>
              <LatitudeDegrees>41.71029277145862579345703125</LatitudeDegrees>
              <LongitudeDegrees>-1.7811146937310695648193359375</LongitudeDegrees>
            </Position>
            <AltitudeMeters>1265.199951171875</AltitudeMeters>
            <DistanceMeters>457484.87260544</DistanceMeters>
          </Trackpoint>
          <Trackpoint>
            <Time>2021-08-02T12:11:21.000Z</Time>
            <Position>
              <LatitudeDegrees>41.71021741814911365509033203125</LatitudeDegrees>
              <LongitudeDegrees>-1.7812099121510982513427734375</LongitudeDegrees>
            </Position>
            <AltitudeMeters>1264</AltitudeMeters>
            <DistanceMeters>457496.40260047</DistanceMeters>
          </Trackpoint>
          <Trackpoint>
            <Time>2021-08-02T12:11:23.000Z</Time>
            <Position>
              <LatitudeDegrees>41.7101507820188999176025390625</LatitudeDegrees>
              <LongitudeDegrees>-1.78131870925426483154296875</LongitudeDegrees>
            </Position>
            <AltitudeMeters>1262.5999755859375</AltitudeMeters>
            <DistanceMeters>457508.09552086</DistanceMeters>
          </Trackpoint>
          <Trackpoint>
            <Time>2021-08-02T12:11:25.000Z</Time>
            <Position>
              <LatitudeDegrees>41.710077188909053802490234375</LatitudeDegrees>
              <LongitudeDegrees>-1.7814288474619388580322265625</LongitudeDegrees>
            </Position>
            <AltitudeMeters>1260.800048828125</AltitudeMeters>
            <DistanceMeters>457520.3771493</DistanceMeters>
          </Trackpoint>
          <Trackpoint>
            <Time>2021-08-02T12:11:27.000Z</Time>
            <Position>
              <LatitudeDegrees>41.7099985666573047637939453125</LatitudeDegrees>
              <LongitudeDegrees>-1.78151719272136688232421875</LongitudeDegrees>
            </Position>
            <AltitudeMeters>1259.5999755859375</AltitudeMeters>
            <DistanceMeters>457531.79934455</DistanceMeters>
          </Trackpoint>
          <Trackpoint>
            <Time>2021-08-02T12:11:30.000Z</Time>
            <Position>
              <LatitudeDegrees>41.70987845398485660552978515625</LatitudeDegrees>
              <LongitudeDegrees>-1.78162640891969203948974609375</LongitudeDegrees>
            </Position>
            <AltitudeMeters>1258.4000244140625</AltitudeMeters>
            <DistanceMeters>457547.95723953</DistanceMeters>
          </Trackpoint>
          <Trackpoint>
            <Time>2021-08-02T12:11:33.000Z</Time>
            <Position>
              <LatitudeDegrees>41.70973998494446277618408203125</LatitudeDegrees>
              <LongitudeDegrees>-1.78172104060649871826171875</LongitudeDegrees>
            </Position>
            <AltitudeMeters>1256.5999755859375</AltitudeMeters>
            <DistanceMeters>457565.25862687</DistanceMeters>
          </Trackpoint>
          <Trackpoint>
            <Time>2021-08-02T12:11:35.000Z</Time>
            <Position>
              <LatitudeDegrees>41.70963135547935962677001953125</LatitudeDegrees>
              <LongitudeDegrees>-1.781787760555744171142578125</LongitudeDegrees>
            </Position>
            <AltitudeMeters>1255.4000244140625</AltitudeMeters>
            <DistanceMeters>457578.55931211</DistanceMeters>
          </Trackpoint>
          <Trackpoint>
            <Time>2021-08-02T12:11:37.000Z</Time>
            <Position>
              <LatitudeDegrees>41.70951534993946552276611328125</LatitudeDegrees>
              <LongitudeDegrees>-1.78185070864856243133544921875</LongitudeDegrees>
            </Position>
            <AltitudeMeters>1254.4000244140625</AltitudeMeters>
            <DistanceMeters>457592.48972282</DistanceMeters>
          </Trackpoint>
          <Trackpoint>
            <Time>2021-08-02T12:11:38.000Z</Time>
            <Position>
              <LatitudeDegrees>41.7094547487795352935791015625</LatitudeDegrees>
              <LongitudeDegrees>-1.781883649528026580810546875</LongitudeDegrees>
            </Position>
            <AltitudeMeters>1253.4000244140625</AltitudeMeters>
            <DistanceMeters>457599.76966229</DistanceMeters>
          </Trackpoint>
          <Trackpoint>
            <Time>2021-08-02T12:11:40.000Z</Time>
            <Position>
              <LatitudeDegrees>41.7093263380229473114013671875</LatitudeDegrees>
              <LongitudeDegrees>-1.781956739723682403564453125</LongitudeDegrees>
            </Position>
            <AltitudeMeters>1251.800048828125</AltitudeMeters>
            <DistanceMeters>457615.29889993</DistanceMeters>
          </Trackpoint>
          <Trackpoint>
            <Time>2021-08-02T12:11:42.000Z</Time>
            <Position>
              <LatitudeDegrees>41.70919180847704410552978515625</LatitudeDegrees>
              <LongitudeDegrees>-1.782034523785114288330078125</LongitudeDegrees>
            </Position>
            <AltitudeMeters>1249.800048828125</AltitudeMeters>
            <DistanceMeters>457631.60782085</DistanceMeters>
          </Trackpoint>
          <Trackpoint>
            <Time>2021-08-02T12:11:45.000Z</Time>
            <Position>
              <LatitudeDegrees>41.7089950852096080780029296875</LatitudeDegrees>
              <LongitudeDegrees>-1.78217165172100067138671875</LongitudeDegrees>
            </Position>
            <AltitudeMeters>1248.4000244140625</AltitudeMeters>
            <DistanceMeters>457656.29081555</DistanceMeters>
          </Trackpoint>
          <Trackpoint>
            <Time>2021-08-02T12:11:46.000Z</Time>
            <Position>
              <LatitudeDegrees>41.708926856517791748046875</LatitudeDegrees>
              <LongitudeDegrees>-1.78221012465655803680419921875</LongitudeDegrees>
            </Position>
            <AltitudeMeters>1248</AltitudeMeters>
            <DistanceMeters>457664.53023997</DistanceMeters>
          </Trackpoint>
          <Trackpoint>
            <Time>2021-08-02T12:11:48.000Z</Time>
            <Position>
              <LatitudeDegrees>41.70879148878157138824462890625</LatitudeDegrees>
              <LongitudeDegrees>-1.7822402156889438629150390625</LongitudeDegrees>
            </Position>
            <AltitudeMeters>1247.4000244140625</AltitudeMeters>
            <DistanceMeters>457679.802662</DistanceMeters>
          </Trackpoint>
          <Trackpoint>
            <Time>2021-08-02T12:11:52.000Z</Time>
            <Position>
              <LatitudeDegrees>41.7085431329905986785888671875</LatitudeDegrees>
              <LongitudeDegrees>-1.7822147347033023834228515625</LongitudeDegrees>
            </Position>
            <AltitudeMeters>1246.4000244140625</AltitudeMeters>
            <DistanceMeters>457707.52637002</DistanceMeters>
          </Trackpoint>
          <Trackpoint>
            <Time>2021-08-02T12:11:53.000Z</Time>
            <Position>
              <LatitudeDegrees>41.708483286201953887939453125</LatitudeDegrees>
              <LongitudeDegrees>-1.7822147347033023834228515625</LongitudeDegrees>
            </Position>
            <AltitudeMeters>1246</AltitudeMeters>
            <DistanceMeters>457714.18705809</DistanceMeters>
          </Trackpoint>
          <Trackpoint>
            <Time>2021-08-02T12:11:56.000Z</Time>
            <Position>
              <LatitudeDegrees>41.708312295377254486083984375</LatitudeDegrees>
              <LongitudeDegrees>-1.78223392926156520843505859375</LongitudeDegrees>
            </Position>
            <AltitudeMeters>1244.199951171875</AltitudeMeters>
            <DistanceMeters>457733.28506368</DistanceMeters>
          </Trackpoint>
          <Trackpoint>
            <Time>2021-08-02T12:11:58.000Z</Time>
            <Position>
              <LatitudeDegrees>41.70821129344403743743896484375</LatitudeDegrees>
              <LongitudeDegrees>-1.78226687014102935791015625</LongitudeDegrees>
            </Position>
            <AltitudeMeters>1242.5999755859375</AltitudeMeters>
            <DistanceMeters>457744.85493201</DistanceMeters>
          </Trackpoint>
          <Trackpoint>
            <Time>2021-08-02T12:12:00.000Z</Time>
            <Position>
              <LatitudeDegrees>41.7081154882907867431640625</LatitudeDegrees>
              <LongitudeDegrees>-1.78233719430863857269287109375</LongitudeDegrees>
            </Position>
            <AltitudeMeters>1241.5999755859375</AltitudeMeters>
            <DistanceMeters>457757.01426759</DistanceMeters>
          </Trackpoint>
          <Trackpoint>
            <Time>2021-08-02T12:12:02.000Z</Time>
            <Position>
              <LatitudeDegrees>41.7080268077552318572998046875</LatitudeDegrees>
              <LongitudeDegrees>-1.78245940245687961578369140625</LongitudeDegrees>
            </Position>
            <AltitudeMeters>1239.5999755859375</AltitudeMeters>
            <DistanceMeters>457771.17516119</DistanceMeters>
          </Trackpoint>
          <Trackpoint>
            <Time>2021-08-02T12:12:03.000Z</Time>
            <Position>
              <LatitudeDegrees>41.7079791985452175140380859375</LatitudeDegrees>
              <LongitudeDegrees>-1.78252478130161762237548828125</LongitudeDegrees>
            </Position>
            <AltitudeMeters>1238.4000244140625</AltitudeMeters>
            <DistanceMeters>457778.76422092</DistanceMeters>
          </Trackpoint>
          <Trackpoint>
            <Time>2021-08-02T12:12:04.000Z</Time>
            <Position>
              <LatitudeDegrees>41.707922033965587615966796875</LatitudeDegrees>
              <LongitudeDegrees>-1.78257373161613941192626953125</LongitudeDegrees>
            </Position>
            <AltitudeMeters>1237.199951171875</AltitudeMeters>
            <DistanceMeters>457786.31570639</DistanceMeters>
          </Trackpoint>
          <Trackpoint>
            <Time>2021-08-02T12:12:06.000Z</Time>
            <Position>
              <LatitudeDegrees>41.70778381638228893280029296875</LatitudeDegrees>
              <LongitudeDegrees>-1.78259585984051227569580078125</LongitudeDegrees>
            </Position>
            <AltitudeMeters>1235.4000244140625</AltitudeMeters>
            <DistanceMeters>457801.80943261</DistanceMeters>
          </Trackpoint>
          <Trackpoint>
            <Time>2021-08-02T12:12:08.000Z</Time>
            <Position>
              <LatitudeDegrees>41.707641743123531341552734375</LatitudeDegrees>
              <LongitudeDegrees>-1.78260223008692264556884765625</LongitudeDegrees>
            </Position>
            <AltitudeMeters>1233.800048828125</AltitudeMeters>
            <DistanceMeters>457817.63130921</DistanceMeters>
          </Trackpoint>
          <Trackpoint>
            <Time>2021-08-02T12:12:11.000Z</Time>
            <Position>
              <LatitudeDegrees>41.70747837983071804046630859375</LatitudeDegrees>
              <LongitudeDegrees>-1.78273064084351062774658203125</LongitudeDegrees>
            </Position>
            <AltitudeMeters>1232.4000244140625</AltitudeMeters>
            <DistanceMeters>457838.7135378</DistanceMeters>
          </Trackpoint>
          <Trackpoint>
            <Time>2021-08-02T12:12:13.000Z</Time>
            <Position>
              <LatitudeDegrees>41.70741417445242404937744140625</LatitudeDegrees>
              <LongitudeDegrees>-1.782868020236492156982421875</LongitudeDegrees>
            </Position>
            <AltitudeMeters>1231.199951171875</AltitudeMeters>
            <DistanceMeters>457852.18120707</DistanceMeters>
          </Trackpoint>
          <Trackpoint>
            <Time>2021-08-02T12:12:14.000Z</Time>
            <Position>
              <LatitudeDegrees>41.70737855136394500732421875</LatitudeDegrees>
              <LongitudeDegrees>-1.78293465636670589447021484375</LongitudeDegrees>
            </Position>
            <AltitudeMeters>1230.800048828125</AltitudeMeters>
            <DistanceMeters>457858.99138127</DistanceMeters>
          </Trackpoint>
          <Trackpoint>
            <Time>2021-08-02T12:12:15.000Z</Time>
            <Position>
              <LatitudeDegrees>41.7073309421539306640625</LatitudeDegrees>
              <LongitudeDegrees>-1.7829862050712108612060546875</LongitudeDegrees>
            </Position>
            <AltitudeMeters>1230.199951171875</AltitudeMeters>
            <DistanceMeters>457865.80486958</DistanceMeters>
          </Trackpoint>
          <Trackpoint>
            <Time>2021-08-02T12:12:17.000Z</Time>
            <Position>
              <LatitudeDegrees>41.7072040401399135589599609375</LatitudeDegrees>
              <LongitudeDegrees>-1.783026941120624542236328125</LongitudeDegrees>
            </Position>
            <AltitudeMeters>1228.5999755859375</AltitudeMeters>
            <DistanceMeters>457880.32935394</DistanceMeters>
          </Trackpoint>
          <Trackpoint>
            <Time>2021-08-02T12:12:18.000Z</Time>
            <Position>
              <LatitudeDegrees>41.70713271014392375946044921875</LatitudeDegrees>
              <LongitudeDegrees>-1.78302216343581676483154296875</LongitudeDegrees>
            </Position>
            <AltitudeMeters>1227.5999755859375</AltitudeMeters>
            <DistanceMeters>457888.27815541</DistanceMeters>
          </Trackpoint>
          <Trackpoint>
            <Time>2021-08-02T12:12:19.000Z</Time>
            <Position>
              <LatitudeDegrees>41.70705961994826793670654296875</LatitudeDegrees>
              <LongitudeDegrees>-1.78300715982913970947265625</LongitudeDegrees>
            </Position>
            <AltitudeMeters>1225.800048828125</AltitudeMeters>
            <DistanceMeters>457896.5082589</DistanceMeters>
          </Trackpoint>
          <Trackpoint>
            <Time>2021-08-02T12:12:20.000Z</Time>
            <Position>
              <LatitudeDegrees>41.70698954723775386810302734375</LatitudeDegrees>
              <LongitudeDegrees>-1.7829865403473377227783203125</LongitudeDegrees>
            </Position>
            <AltitudeMeters>1223.800048828125</AltitudeMeters>
            <DistanceMeters>457904.49333058</DistanceMeters>
          </Trackpoint>
          <Trackpoint>
            <Time>2021-08-02T12:12:21.000Z</Time>
            <Position>
              <LatitudeDegrees>41.70692391693592071533203125</LatitudeDegrees>
              <LongitudeDegrees>-1.78296449594199657440185546875</LongitudeDegrees>
            </Position>
            <AltitudeMeters>1222.5999755859375</AltitudeMeters>
            <DistanceMeters>457912.02505948</DistanceMeters>
          </Trackpoint>
          <Trackpoint>
            <Time>2021-08-02T12:12:23.000Z</Time>
            <Position>
              <LatitudeDegrees>41.70679173432290554046630859375</LatitudeDegrees>
              <LongitudeDegrees>-1.78293532691895961761474609375</LongitudeDegrees>
            </Position>
            <AltitudeMeters>1220.800048828125</AltitudeMeters>
            <DistanceMeters>457926.9354747</DistanceMeters>
          </Trackpoint>
          <Trackpoint>
            <Time>2021-08-03T07:08:55.000Z</Time>
            <Position>
              <LatitudeDegrees>41.35436841286718845367431640625</LatitudeDegrees>
              <LongitudeDegrees>-1.63965205661952495574951171875</LongitudeDegrees>
            </Position>
            <AltitudeMeters>530.4000244140625</AltitudeMeters>
            <DistanceMeters>498928.87650679</DistanceMeters>
          </Trackpoint>
          <Trackpoint>
            <Time>2021-08-03T07:08:56.000Z</Time>
            <Position>
              <LatitudeDegrees>41.35436832904815673828125</LatitudeDegrees>
              <LongitudeDegrees>-1.63965205661952495574951171875</LongitudeDegrees>
            </Position>
            <AltitudeMeters>530.5999755859375</AltitudeMeters>
            <DistanceMeters>498928.87650679</DistanceMeters>
          </Trackpoint>
          <Trackpoint>
            <Time>2021-08-03T07:10:48.000Z</Time>
            <Position>
              <LatitudeDegrees>41.35444737039506435394287109375</LatitudeDegrees>
              <LongitudeDegrees>-1.6399092972278594970703125</LongitudeDegrees>
            </Position>
            <AltitudeMeters>530.79998779296875</AltitudeMeters>
            <DistanceMeters>498952.09921605</DistanceMeters>
          </Trackpoint>
          <Trackpoint>
            <Time>2021-08-03T07:10:52.000Z</Time>
            <Position>
              <LatitudeDegrees>41.35445483028888702392578125</LatitudeDegrees>
              <LongitudeDegrees>-1.639983393251895904541015625</LongitudeDegrees>
            </Position>
            <AltitudeMeters>530.5999755859375</AltitudeMeters>
            <DistanceMeters>498958.34500906</DistanceMeters>
          </Trackpoint>
          <Trackpoint>
            <Time>2021-08-03T07:10:53.000Z</Time>
            <Position>
              <LatitudeDegrees>41.35445885360240936279296875</LatitudeDegrees>
              <LongitudeDegrees>-1.640014238655567169189453125</LongitudeDegrees>
            </Position>
            <AltitudeMeters>530.4000244140625</AltitudeMeters>
            <DistanceMeters>498960.9595392</DistanceMeters>
          </Trackpoint>
          <Trackpoint>
            <Time>2021-08-03T07:11:05.000Z</Time>
            <Position>
              <LatitudeDegrees>41.3545448519289493560791015625</LatitudeDegrees>
              <LongitudeDegrees>-1.64039653725922107696533203125</LongitudeDegrees>
            </Position>
            <AltitudeMeters>531.4000244140625</AltitudeMeters>
            <DistanceMeters>498994.30294952</DistanceMeters>
          </Trackpoint>
          <Trackpoint>
            <Time>2021-08-03T07:11:11.000Z</Time>
            <Position>
              <LatitudeDegrees>41.354576535522937774658203125</LatitudeDegrees>
              <LongitudeDegrees>-1.6405635885894298553466796875</LongitudeDegrees>
            </Position>
            <AltitudeMeters>532.79998779296875</AltitudeMeters>
            <DistanceMeters>499008.69847745</DistanceMeters>
          </Trackpoint>
          <Trackpoint>
            <Time>2021-08-03T07:11:21.000Z</Time>
            <Position>
              <LatitudeDegrees>41.35457192547619342803955078125</LatitudeDegrees>
              <LongitudeDegrees>-1.640889979898929595947265625</LongitudeDegrees>
            </Position>
            <AltitudeMeters>533.79998779296875</AltitudeMeters>
            <DistanceMeters>499035.9726344</DistanceMeters>
          </Trackpoint>
          <Trackpoint>
            <Time>2021-08-03T07:11:27.000Z</Time>
            <Position>
              <LatitudeDegrees>41.3546102307736873626708984375</LatitudeDegrees>
              <LongitudeDegrees>-1.6410225816071033477783203125</LongitudeDegrees>
            </Position>
            <AltitudeMeters>534.20001220703125</AltitudeMeters>
            <DistanceMeters>499047.84374947</DistanceMeters>
          </Trackpoint>
          <Trackpoint>
            <Time>2021-08-03T07:11:42.000Z</Time>
            <Position>
              <LatitudeDegrees>41.354976184666156768798828125</LatitudeDegrees>
              <LongitudeDegrees>-1.6412844322621822357177734375</LongitudeDegrees>
            </Position>
            <AltitudeMeters>533.4000244140625</AltitudeMeters>
            <DistanceMeters>499094.07851859</DistanceMeters>
          </Trackpoint>
          <Trackpoint>
            <Time>2021-08-03T07:11:49.000Z</Time>
            <Position>
              <LatitudeDegrees>41.3548164255917072296142578125</LatitudeDegrees>
              <LongitudeDegrees>-1.64149054326117038726806640625</LongitudeDegrees>
            </Position>
            <AltitudeMeters>533.20001220703125</AltitudeMeters>
            <DistanceMeters>499118.8316553</DistanceMeters>
          </Trackpoint>
          <Trackpoint>
            <Time>2021-08-03T07:12:04.000Z</Time>
            <Position>
              <LatitudeDegrees>41.35445617139339447021484375</LatitudeDegrees>
              <LongitudeDegrees>-1.64203922264277935028076171875</LongitudeDegrees>
            </Position>
            <AltitudeMeters>534</AltitudeMeters>
            <DistanceMeters>499179.73436476</DistanceMeters>
          </Trackpoint>
          <Trackpoint>
            <Time>2021-08-03T07:12:17.000Z</Time>
            <Position>
              <LatitudeDegrees>41.3542015291750431060791015625</LatitudeDegrees>
              <LongitudeDegrees>-1.64237902499735355377197265625</LongitudeDegrees>
            </Position>
            <AltitudeMeters>535</AltitudeMeters>
            <DistanceMeters>499219.84982217</DistanceMeters>
          </Trackpoint>
          <Trackpoint>
            <Time>2021-08-03T07:12:32.000Z</Time>
            <Position>
              <LatitudeDegrees>41.35400346480309963226318359375</LatitudeDegrees>
              <LongitudeDegrees>-1.642821170389652252197265625</LongitudeDegrees>
            </Position>
            <AltitudeMeters>535.5999755859375</AltitudeMeters>
            <DistanceMeters>499262.86807046</DistanceMeters>
          </Trackpoint>
          <Trackpoint>
            <Time>2021-08-03T07:12:37.000Z</Time>
            <Position>
              <LatitudeDegrees>41.3540882058441638946533203125</LatitudeDegrees>
              <LongitudeDegrees>-1.64297263137996196746826171875</LongitudeDegrees>
            </Position>
            <AltitudeMeters>535.79998779296875</AltitudeMeters>
            <DistanceMeters>499278.65051732</DistanceMeters>
          </Trackpoint>
          <Trackpoint>
            <Time>2021-08-03T07:12:43.000Z</Time>
            <Position>
              <LatitudeDegrees>41.3541495613753795623779296875</LatitudeDegrees>
              <LongitudeDegrees>-1.64318670518696308135986328125</LongitudeDegrees>
            </Position>
            <AltitudeMeters>536</AltitudeMeters>
            <DistanceMeters>499297.79527568</DistanceMeters>
          </Trackpoint>
          <Trackpoint>
            <Time>2021-08-03T07:13:14.000Z</Time>
            <Position>
              <LatitudeDegrees>41.35427218861877918243408203125</LatitudeDegrees>
              <LongitudeDegrees>-1.64371308870613574981689453125</LongitudeDegrees>
            </Position>
            <AltitudeMeters>537.20001220703125</AltitudeMeters>
            <DistanceMeters>499343.84255844</DistanceMeters>
          </Trackpoint>
          <Trackpoint>
            <Time>2021-08-03T07:13:24.000Z</Time>
            <Position>
              <LatitudeDegrees>41.35426028631627559661865234375</LatitudeDegrees>
              <LongitudeDegrees>-1.6439394839107990264892578125</LongitudeDegrees>
            </Position>
            <AltitudeMeters>537</AltitudeMeters>
            <DistanceMeters>499362.80366241</DistanceMeters>
          </Trackpoint>
          <Trackpoint>
            <Time>2021-08-03T07:13:29.000Z</Time>
            <Position>
              <LatitudeDegrees>41.354234553873538970947265625</LatitudeDegrees>
              <LongitudeDegrees>-1.64406261406838893890380859375</LongitudeDegrees>
            </Position>
            <AltitudeMeters>537.20001220703125</AltitudeMeters>
            <DistanceMeters>499373.48138431</DistanceMeters>
          </Trackpoint>
          <Trackpoint>
            <Time>2021-08-03T07:13:35.000Z</Time>
            <Position>
              <LatitudeDegrees>41.35419197380542755126953125</LatitudeDegrees>
              <LongitudeDegrees>-1.6442201100289821624755859375</LongitudeDegrees>
            </Position>
            <AltitudeMeters>538</AltitudeMeters>
            <DistanceMeters>499387.46710867</DistanceMeters>
          </Trackpoint>
          <Trackpoint>
            <Time>2021-08-03T07:13:40.000Z</Time>
            <Position>
              <LatitudeDegrees>41.35413874872028827667236328125</LatitudeDegrees>
              <LongitudeDegrees>-1.6443629376590251922607421875</LongitudeDegrees>
            </Position>
            <AltitudeMeters>537.5999755859375</AltitudeMeters>
            <DistanceMeters>499400.78984047</DistanceMeters>
          </Trackpoint>
          <Trackpoint>
            <Time>2021-08-03T07:13:48.000Z</Time>
            <Position>
              <LatitudeDegrees>41.3540328852832317352294921875</LatitudeDegrees>
              <LongitudeDegrees>-1.64462386630475521087646484375</LongitudeDegrees>
            </Position>
            <AltitudeMeters>536.79998779296875</AltitudeMeters>
            <DistanceMeters>499425.57032248</DistanceMeters>
          </Trackpoint>
          <Trackpoint>
            <Time>2021-08-03T07:14:01.000Z</Time>
            <Position>
              <LatitudeDegrees>41.35384839959442615509033203125</LatitudeDegrees>
              <LongitudeDegrees>-1.64486526511609554290771484375</LongitudeDegrees>
            </Position>
            <AltitudeMeters>536</AltitudeMeters>
            <DistanceMeters>499454.35228129</DistanceMeters>
          </Trackpoint>
          <Trackpoint>
            <Time>2021-08-03T07:15:10.000Z</Time>
            <Position>
              <LatitudeDegrees>41.3538434542715549468994140625</LatitudeDegrees>
              <LongitudeDegrees>-1.64492662064731121063232421875</LongitudeDegrees>
            </Position>
            <AltitudeMeters>536</AltitudeMeters>
            <DistanceMeters>499459.5065499</DistanceMeters>
          </Trackpoint>
          <Trackpoint>
            <Time>2021-08-03T07:15:13.000Z</Time>
            <Position>
              <LatitudeDegrees>41.35383658111095428466796875</LatitudeDegrees>
              <LongitudeDegrees>-1.645009517669677734375</LongitudeDegrees>
            </Position>
            <AltitudeMeters>535.4000244140625</AltitudeMeters>
            <DistanceMeters>499466.47467167</DistanceMeters>
          </Trackpoint>
          <Trackpoint>
            <Time>2021-08-03T07:15:29.000Z</Time>
            <Position>
              <LatitudeDegrees>41.35373189114034175872802734375</LatitudeDegrees>
              <LongitudeDegrees>-1.64533716626465320587158203125</LongitudeDegrees>
            </Position>
            <AltitudeMeters>534.4000244140625</AltitudeMeters>
            <DistanceMeters>499496.22577405</DistanceMeters>
          </Trackpoint>
          <Trackpoint>
            <Time>2021-08-03T07:15:41.000Z</Time>
            <Position>
              <LatitudeDegrees>41.3535172306001186370849609375</LatitudeDegrees>
              <LongitudeDegrees>-1.6458016075193881988525390625</LongitudeDegrees>
            </Position>
            <AltitudeMeters>533.4000244140625</AltitudeMeters>
            <DistanceMeters>499541.79482406</DistanceMeters>
          </Trackpoint>
          <Trackpoint>
            <Time>2021-08-03T07:15:57.000Z</Time>
            <Position>
              <LatitudeDegrees>41.35326317511498928070068359375</LatitudeDegrees>
              <LongitudeDegrees>-1.6464619338512420654296875</LongitudeDegrees>
            </Position>
            <AltitudeMeters>534.4000244140625</AltitudeMeters>
            <DistanceMeters>499603.78881341</DistanceMeters>
          </Trackpoint>
          <Trackpoint>
            <Time>2021-08-03T07:15:58.000Z</Time>
            <Position>
              <LatitudeDegrees>41.35326921008527278900146484375</LatitudeDegrees>
              <LongitudeDegrees>-1.6464862413704395294189453125</LongitudeDegrees>
            </Position>
            <AltitudeMeters>534.5999755859375</AltitudeMeters>
            <DistanceMeters>499605.92849767</DistanceMeters>
          </Trackpoint>
          <Trackpoint>
            <Time>2021-08-03T07:16:04.000Z</Time>
            <Position>
              <LatitudeDegrees>41.3533801026642322540283203125</LatitudeDegrees>
              <LongitudeDegrees>-1.64660082198679447174072265625</LongitudeDegrees>
            </Position>
            <AltitudeMeters>535.4000244140625</AltitudeMeters>
            <DistanceMeters>499621.54818414</DistanceMeters>
          </Trackpoint>
          <Trackpoint>
            <Time>2021-08-03T07:16:06.000Z</Time>
            <Position>
              <LatitudeDegrees>41.3534042425453662872314453125</LatitudeDegrees>
              <LongitudeDegrees>-1.6466441564261913299560546875</LongitudeDegrees>
            </Position>
            <AltitudeMeters>535.79998779296875</AltitudeMeters>
            <DistanceMeters>499626.05769988</DistanceMeters>
          </Trackpoint>
          <Trackpoint>
            <Time>2021-08-03T07:16:17.000Z</Time>
            <Position>
              <LatitudeDegrees>41.35333559475839138031005859375</LatitudeDegrees>
              <LongitudeDegrees>-1.64701069705188274383544921875</LongitudeDegrees>
            </Position>
            <AltitudeMeters>535.4000244140625</AltitudeMeters>
            <DistanceMeters>499657.62030486</DistanceMeters>
          </Trackpoint>
          <Trackpoint>
            <Time>2021-08-03T07:16:20.000Z</Time>
            <Position>
              <LatitudeDegrees>41.353311203420162200927734375</LatitudeDegrees>
              <LongitudeDegrees>-1.64702192880213260650634765625</LongitudeDegrees>
            </Position>
            <AltitudeMeters>535.5999755859375</AltitudeMeters>
            <DistanceMeters>499660.49162159</DistanceMeters>
          </Trackpoint>
          <Trackpoint>
            <Time>2021-08-03T07:17:11.000Z</Time>
            <Position>
              <LatitudeDegrees>41.3532832078635692596435546875</LatitudeDegrees>
              <LongitudeDegrees>-1.6470270417630672454833984375</LongitudeDegrees>
            </Position>
            <AltitudeMeters>535.5999755859375</AltitudeMeters>
            <DistanceMeters>499663.63756562</DistanceMeters>
          </Trackpoint>
          <Trackpoint>
            <Time>2021-08-03T07:17:15.000Z</Time>
            <Position>
              <LatitudeDegrees>41.35320718400180339813232421875</LatitudeDegrees>
              <LongitudeDegrees>-1.64703249000012874603271484375</LongitudeDegrees>
            </Position>
            <AltitudeMeters>535.4000244140625</AltitudeMeters>
            <DistanceMeters>499672.11147663</DistanceMeters>
          </Trackpoint>
          <Trackpoint>
            <Time>2021-08-03T07:17:29.000Z</Time>
            <Position>
              <LatitudeDegrees>41.3529546372592449188232421875</LatitudeDegrees>
              <LongitudeDegrees>-1.6466684639453887939453125</LongitudeDegrees>
            </Position>
            <AltitudeMeters>534.4000244140625</AltitudeMeters>
            <DistanceMeters>499713.52546629</DistanceMeters>
          </Trackpoint>
          <Trackpoint>
            <Time>2021-08-03T07:17:47.000Z</Time>
            <Position>
              <LatitudeDegrees>41.3524138368666172027587890625</LatitudeDegrees>
              <LongitudeDegrees>-1.646482050418853759765625</LongitudeDegrees>
            </Position>
            <AltitudeMeters>534</AltitudeMeters>
            <DistanceMeters>499775.70010279</DistanceMeters>
          </Trackpoint>
          <Trackpoint>
            <Time>2021-08-03T07:17:51.000Z</Time>
            <Position>
              <LatitudeDegrees>41.352278888225555419921875</LatitudeDegrees>
              <LongitudeDegrees>-1.64644718170166015625</LongitudeDegrees>
            </Position>
            <AltitudeMeters>533.4000244140625</AltitudeMeters>
            <DistanceMeters>499791.00028912</DistanceMeters>
          </Trackpoint>
          <Trackpoint>
            <Time>2021-08-03T07:18:02.000Z</Time>
            <Position>
              <LatitudeDegrees>41.351813189685344696044921875</LatitudeDegrees>
              <LongitudeDegrees>-1.6462854109704494476318359375</LongitudeDegrees>
            </Position>
            <AltitudeMeters>532.4000244140625</AltitudeMeters>
            <DistanceMeters>499844.56678986</DistanceMeters>
          </Trackpoint>
          <Trackpoint>
            <Time>2021-08-03T07:18:15.000Z</Time>
            <Position>
              <LatitudeDegrees>41.3513131253421306610107421875</LatitudeDegrees>
              <LongitudeDegrees>-1.64596916176378726959228515625</LongitudeDegrees>
            </Position>
            <AltitudeMeters>532.4000244140625</AltitudeMeters>
            <DistanceMeters>499906.17840641</DistanceMeters>
          </Trackpoint>
          <Trackpoint>
            <Time>2021-08-03T07:18:29.000Z</Time>
            <Position>
              <LatitudeDegrees>41.35080208070576190948486328125</LatitudeDegrees>
              <LongitudeDegrees>-1.64562039077281951904296875</LongitudeDegrees>
            </Position>
            <AltitudeMeters>532.4000244140625</AltitudeMeters>
            <DistanceMeters>499970.08865831</DistanceMeters>
          </Trackpoint>
          <Trackpoint>
            <Time>2021-08-03T07:18:41.000Z</Time>
            <Position>
              <LatitudeDegrees>41.35038985870778560638427734375</LatitudeDegrees>
              <LongitudeDegrees>-1.645323336124420166015625</LongitudeDegrees>
            </Position>
            <AltitudeMeters>533.20001220703125</AltitudeMeters>
            <DistanceMeters>500022.25278531</DistanceMeters>
          </Trackpoint>
          <Trackpoint>
            <Time>2021-08-03T07:19:11.000Z</Time>
            <Position>
              <LatitudeDegrees>41.34991242550313472747802734375</LatitudeDegrees>
              <LongitudeDegrees>-1.64500105194747447967529296875</LongitudeDegrees>
            </Position>
            <AltitudeMeters>534</AltitudeMeters>
            <DistanceMeters>500081.82536527</DistanceMeters>
          </Trackpoint>
          <Trackpoint>
            <Time>2021-08-03T07:19:28.000Z</Time>
            <Position>
              <LatitudeDegrees>41.34948444552719593048095703125</LatitudeDegrees>
              <LongitudeDegrees>-1.6445570625364780426025390625</LongitudeDegrees>
            </Position>
            <AltitudeMeters>533.4000244140625</AltitudeMeters>
            <DistanceMeters>500142.20151386</DistanceMeters>
          </Trackpoint>
          <Trackpoint>
            <Time>2021-08-03T07:19:39.000Z</Time>
            <Position>
              <LatitudeDegrees>41.34911212138831615447998046875</LatitudeDegrees>
              <LongitudeDegrees>-1.644193120300769805908203125</LongitudeDegrees>
            </Position>
            <AltitudeMeters>532.20001220703125</AltitudeMeters>
            <DistanceMeters>500193.60191956</DistanceMeters>
          </Trackpoint>
          <Trackpoint>
            <Time>2021-08-03T07:19:40.000Z</Time>
            <Position>
              <LatitudeDegrees>41.349071972072124481201171875</LatitudeDegrees>
              <LongitudeDegrees>-1.64416286163032054901123046875</LongitudeDegrees>
            </Position>
            <AltitudeMeters>532</AltitudeMeters>
            <DistanceMeters>500198.73688044</DistanceMeters>
          </Trackpoint>
          <Trackpoint>
            <Time>2021-08-03T07:19:50.000Z</Time>
            <Position>
              <LatitudeDegrees>41.34873476810753345489501953125</LatitudeDegrees>
              <LongitudeDegrees>-1.6444390453398227691650390625</LongitudeDegrees>
            </Position>
            <AltitudeMeters>531.79998779296875</AltitudeMeters>
            <DistanceMeters>500242.79516368</DistanceMeters>
          </Trackpoint>
          <Trackpoint>
            <Time>2021-08-03T07:20:04.000Z</Time>
            <Position>
              <LatitudeDegrees>41.34862546809017658233642578125</LatitudeDegrees>
              <LongitudeDegrees>-1.6451530158519744873046875</LongitudeDegrees>
            </Position>
            <AltitudeMeters>532.20001220703125</AltitudeMeters>
            <DistanceMeters>500303.67852077</DistanceMeters>
          </Trackpoint>
          <Trackpoint>
            <Time>2021-08-03T07:20:19.000Z</Time>
            <Position>
              <LatitudeDegrees>41.3484951294958591461181640625</LatitudeDegrees>
              <LongitudeDegrees>-1.64587788283824920654296875</LongitudeDegrees>
            </Position>
            <AltitudeMeters>532.4000244140625</AltitudeMeters>
            <DistanceMeters>500365.95793033</DistanceMeters>
          </Trackpoint>
          <Trackpoint>
            <Time>2021-08-03T07:20:34.000Z</Time>
            <Position>
              <LatitudeDegrees>41.34834366850554943084716796875</LatitudeDegrees>
              <LongitudeDegrees>-1.64659042842686176300048828125</LongitudeDegrees>
            </Position>
            <AltitudeMeters>532.4000244140625</AltitudeMeters>
            <DistanceMeters>500427.83542747</DistanceMeters>
          </Trackpoint>
          <Trackpoint>
            <Time>2021-08-03T07:20:49.000Z</Time>
            <Position>
              <LatitudeDegrees>41.348201930522918701171875</LatitudeDegrees>
              <LongitudeDegrees>-1.64729936979711055755615234375</LongitudeDegrees>
            </Position>
            <AltitudeMeters>532.5999755859375</AltitudeMeters>
            <DistanceMeters>500489.13598172</DistanceMeters>
          </Trackpoint>
          <Trackpoint>
            <Time>2021-08-03T07:21:04.000Z</Time>
            <Position>
              <LatitudeDegrees>41.34791158139705657958984375</LatitudeDegrees>
              <LongitudeDegrees>-1.64792449213564395904541015625</LongitudeDegrees>
            </Position>
            <AltitudeMeters>533</AltitudeMeters>
            <DistanceMeters>500550.55743048</DistanceMeters>
          </Trackpoint>
          <Trackpoint>
            <Time>2021-08-03T07:21:18.000Z</Time>
            <Position>
              <LatitudeDegrees>41.34754269383847713470458984375</LatitudeDegrees>
              <LongitudeDegrees>-1.64850234054028987884521484375</LongitudeDegrees>
            </Position>
            <AltitudeMeters>533</AltitudeMeters>
            <DistanceMeters>500613.93704333</DistanceMeters>
          </Trackpoint>
          <Trackpoint>
            <Time>2021-08-03T07:21:26.000Z</Time>
            <Position>
              <LatitudeDegrees>41.347321830689907073974609375</LatitudeDegrees>
              <LongitudeDegrees>-1.64882965385913848876953125</LongitudeDegrees>
            </Position>
            <AltitudeMeters>533.20001220703125</AltitudeMeters>
            <DistanceMeters>500650.71029458</DistanceMeters>
          </Trackpoint>
          <Trackpoint>
            <Time>2021-08-03T07:21:39.000Z</Time>
            <Position>
              <LatitudeDegrees>41.346939615905284881591796875</LatitudeDegrees>
              <LongitudeDegrees>-1.64940926246345043182373046875</LongitudeDegrees>
            </Position>
            <AltitudeMeters>533.20001220703125</AltitudeMeters>
            <DistanceMeters>500715.17147558</DistanceMeters>
          </Trackpoint>
          <Trackpoint>
            <Time>2021-08-03T07:21:51.000Z</Time>
            <Position>
              <LatitudeDegrees>41.346572153270244598388671875</LatitudeDegrees>
              <LongitudeDegrees>-1.64996313862502574920654296875</LongitudeDegrees>
            </Position>
            <AltitudeMeters>533.4000244140625</AltitudeMeters>
            <DistanceMeters>500776.93408841</DistanceMeters>
          </Trackpoint>
          <Trackpoint>
            <Time>2021-08-03T07:22:03.000Z</Time>
            <Position>
              <LatitudeDegrees>41.3461854122579097747802734375</LatitudeDegrees>
              <LongitudeDegrees>-1.6505447588860988616943359375</LongitudeDegrees>
            </Position>
            <AltitudeMeters>533.4000244140625</AltitudeMeters>
            <DistanceMeters>500841.8550016</DistanceMeters>
          </Trackpoint>
          <Trackpoint>
            <Time>2021-08-03T07:22:14.000Z</Time>
            <Position>
              <LatitudeDegrees>41.34582490660250186920166015625</LatitudeDegrees>
              <LongitudeDegrees>-1.65108111687004566192626953125</LongitudeDegrees>
            </Position>
            <AltitudeMeters>533.79998779296875</AltitudeMeters>
            <DistanceMeters>500902.00983909</DistanceMeters>
          </Trackpoint>
          <Trackpoint>
            <Time>2021-08-03T07:22:25.000Z</Time>
            <Position>
              <LatitudeDegrees>41.34539374150335788726806640625</LatitudeDegrees>
              <LongitudeDegrees>-1.651538349688053131103515625</LongitudeDegrees>
            </Position>
            <AltitudeMeters>534.4000244140625</AltitudeMeters>
            <DistanceMeters>500963.3505953</DistanceMeters>
          </Trackpoint>
          <Trackpoint>
            <Time>2021-08-03T07:22:36.000Z</Time>
            <Position>
              <LatitudeDegrees>41.3449619896709918975830078125</LatitudeDegrees>
              <LongitudeDegrees>-1.65197789669036865234375</LongitudeDegrees>
            </Position>
            <AltitudeMeters>534.79998779296875</AltitudeMeters>
            <DistanceMeters>501023.83388596</DistanceMeters>
          </Trackpoint>
          <Trackpoint>
            <Time>2021-08-03T07:22:43.000Z</Time>
            <Position>
              <LatitudeDegrees>41.34472335688769817352294921875</LatitudeDegrees>
              <LongitudeDegrees>-1.6521936468780040740966796875</LongitudeDegrees>
            </Position>
            <AltitudeMeters>535.4000244140625</AltitudeMeters>
            <DistanceMeters>501055.93463585</DistanceMeters>
          </Trackpoint>
          <Trackpoint>
            <Time>2021-08-03T07:22:57.000Z</Time>
            <Position>
              <LatitudeDegrees>41.34425648488104343414306640625</LatitudeDegrees>
              <LongitudeDegrees>-1.65255616419017314910888671875</LongitudeDegrees>
            </Position>
            <AltitudeMeters>536</AltitudeMeters>
            <DistanceMeters>501116.08316822</DistanceMeters>
          </Trackpoint>
          <Trackpoint>
            <Time>2021-08-03T07:23:10.000Z</Time>
            <Position>
              <LatitudeDegrees>41.3437311910092830657958984375</LatitudeDegrees>
              <LongitudeDegrees>-1.6527624428272247314453125</LongitudeDegrees>
            </Position>
            <AltitudeMeters>535.79998779296875</AltitudeMeters>
            <DistanceMeters>501177.03730584</DistanceMeters>
          </Trackpoint>
          <Trackpoint>
            <Time>2021-08-03T07:23:20.000Z</Time>
            <Position>
              <LatitudeDegrees>41.34331653825938701629638671875</LatitudeDegrees>
              <LongitudeDegrees>-1.65291155688464641571044921875</LongitudeDegrees>
            </Position>
            <AltitudeMeters>536</AltitudeMeters>
            <DistanceMeters>501224.84131598</DistanceMeters>
          </Trackpoint>
          <Trackpoint>
            <Time>2021-08-03T07:23:33.000Z</Time>
            <Position>
              <LatitudeDegrees>41.342768780887126922607421875</LatitudeDegrees>
              <LongitudeDegrees>-1.65312931872904300689697265625</LongitudeDegrees>
            </Position>
            <AltitudeMeters>536</AltitudeMeters>
            <DistanceMeters>501288.46544473</DistanceMeters>
          </Trackpoint>
          <Trackpoint>
            <Time>2021-08-03T07:23:46.000Z</Time>
            <Position>
              <LatitudeDegrees>41.34221834130585193634033203125</LatitudeDegrees>
              <LongitudeDegrees>-1.65333442389965057373046875</LongitudeDegrees>
            </Position>
            <AltitudeMeters>536</AltitudeMeters>
            <DistanceMeters>501352.08268957</DistanceMeters>
          </Trackpoint>
          <Trackpoint>
            <Time>2021-08-03T07:23:59.000Z</Time>
            <Position>
              <LatitudeDegrees>41.3416789658367633819580078125</LatitudeDegrees>
              <LongitudeDegrees>-1.6535451449453830718994140625</LongitudeDegrees>
            </Position>
            <AltitudeMeters>536.5999755859375</AltitudeMeters>
            <DistanceMeters>501414.6454234</DistanceMeters>
          </Trackpoint>
          <Trackpoint>
            <Time>2021-08-03T07:24:00.000Z</Time>
            <Position>
              <LatitudeDegrees>41.34164032526314258575439453125</LatitudeDegrees>
              <LongitudeDegrees>-1.6535602323710918426513671875</LongitudeDegrees>
            </Position>
            <AltitudeMeters>536.5999755859375</AltitudeMeters>
            <DistanceMeters>501419.12681716</DistanceMeters>
          </Trackpoint>
          <Trackpoint>
            <Time>2021-08-03T07:24:14.000Z</Time>
            <Position>
              <LatitudeDegrees>41.341095753014087677001953125</LatitudeDegrees>
              <LongitudeDegrees>-1.65377187542617321014404296875</LongitudeDegrees>
            </Position>
            <AltitudeMeters>536.79998779296875</AltitudeMeters>
            <DistanceMeters>501482.26633053</DistanceMeters>
          </Trackpoint>
          <Trackpoint>
            <Time>2021-08-03T07:24:28.000Z</Time>
            <Position>
              <LatitudeDegrees>41.34056090377271175384521484375</LatitudeDegrees>
              <LongitudeDegrees>-1.65397522039711475372314453125</LongitudeDegrees>
            </Position>
            <AltitudeMeters>537.5999755859375</AltitudeMeters>
            <DistanceMeters>501544.17381</DistanceMeters>
          </Trackpoint>
          <Trackpoint>
            <Time>2021-08-03T07:24:33.000Z</Time>
            <Position>
              <LatitudeDegrees>41.3403683714568614959716796875</LatitudeDegrees>
              <LongitudeDegrees>-1.65404546074569225311279296875</LongitudeDegrees>
            </Position>
            <AltitudeMeters>537.79998779296875</AltitudeMeters>
            <DistanceMeters>501566.39238891</DistanceMeters>
          </Trackpoint>
          <Trackpoint>
            <Time>2021-08-03T07:24:47.000Z</Time>
            <Position>
              <LatitudeDegrees>41.33981709368526935577392578125</LatitudeDegrees>
              <LongitudeDegrees>-1.65425668470561504364013671875</LongitudeDegrees>
            </Position>
            <AltitudeMeters>538.4000244140625</AltitudeMeters>
            <DistanceMeters>501630.2391687</DistanceMeters>
          </Trackpoint>
          <Trackpoint>
            <Time>2021-08-03T07:24:53.000Z</Time>
            <Position>
              <LatitudeDegrees>41.33959279395639896392822265625</LatitudeDegrees>
              <LongitudeDegrees>-1.65434570051729679107666015625</LongitudeDegrees>
            </Position>
            <AltitudeMeters>539</AltitudeMeters>
            <DistanceMeters>501656.28897071</DistanceMeters>
          </Trackpoint>
          <Trackpoint>
            <Time>2021-08-03T07:25:07.000Z</Time>
            <Position>
              <LatitudeDegrees>41.3390926457941532135009765625</LatitudeDegrees>
              <LongitudeDegrees>-1.65453479625284671783447265625</LongitudeDegrees>
            </Position>
            <AltitudeMeters>540.20001220703125</AltitudeMeters>
            <DistanceMeters>501714.15587055</DistanceMeters>
          </Trackpoint>
          <Trackpoint>
            <Time>2021-08-03T07:25:22.000Z</Time>
            <Position>
              <LatitudeDegrees>41.3385920785367488861083984375</LatitudeDegrees>
              <LongitudeDegrees>-1.65485925972461700439453125</LongitudeDegrees>
            </Position>
            <AltitudeMeters>541</AltitudeMeters>
            <DistanceMeters>501776.11766056</DistanceMeters>
          </Trackpoint>
          <Trackpoint>
            <Time>2021-08-03T07:25:37.000Z</Time>
            <Position>
              <LatitudeDegrees>41.33823676966130733489990234375</LatitudeDegrees>
              <LongitudeDegrees>-1.65544356219470500946044921875</LongitudeDegrees>
            </Position>
            <AltitudeMeters>540.79998779296875</AltitudeMeters>
            <DistanceMeters>501838.95238236</DistanceMeters>
          </Trackpoint>
          <Trackpoint>
            <Time>2021-08-03T07:25:40.000Z</Time>
            <Position>
              <LatitudeDegrees>41.33819527924060821533203125</LatitudeDegrees>
              <LongitudeDegrees>-1.65558638982474803924560546875</LongitudeDegrees>
            </Position>
            <AltitudeMeters>541.4000244140625</AltitudeMeters>
            <DistanceMeters>501851.75033245</DistanceMeters>
          </Trackpoint>
          <Trackpoint>
            <Time>2021-08-03T07:25:47.000Z</Time>
            <Position>
              <LatitudeDegrees>41.3380854763090610504150390625</LatitudeDegrees>
              <LongitudeDegrees>-1.65586098097264766693115234375</LongitudeDegrees>
            </Position>
            <AltitudeMeters>542.4000244140625</AltitudeMeters>
            <DistanceMeters>501877.7489538</DistanceMeters>
          </Trackpoint>
          <Trackpoint>
            <Time>2021-08-03T07:25:54.000Z</Time>
            <Position>
              <LatitudeDegrees>41.337914653122425079345703125</LatitudeDegrees>
              <LongitudeDegrees>-1.6560168005526065826416015625</LongitudeDegrees>
            </Position>
            <AltitudeMeters>543.5999755859375</AltitudeMeters>
            <DistanceMeters>501900.79366676</DistanceMeters>
          </Trackpoint>
          <Trackpoint>
            <Time>2021-08-03T07:26:00.000Z</Time>
            <Position>
              <LatitudeDegrees>41.33775078691542148590087890625</LatitudeDegrees>
              <LongitudeDegrees>-1.65606558322906494140625</LongitudeDegrees>
            </Position>
            <AltitudeMeters>545</AltitudeMeters>
            <DistanceMeters>501919.48230761</DistanceMeters>
          </Trackpoint>
          <Trackpoint>
            <Time>2021-08-03T07:26:06.000Z</Time>
            <Position>
              <LatitudeDegrees>41.3376140780746936798095703125</LatitudeDegrees>
              <LongitudeDegrees>-1.65604186244308948516845703125</LongitudeDegrees>
            </Position>
            <AltitudeMeters>546.20001220703125</AltitudeMeters>
            <DistanceMeters>501934.82669463</DistanceMeters>
          </Trackpoint>
          <Trackpoint>
            <Time>2021-08-03T07:26:13.000Z</Time>
            <Position>
              <LatitudeDegrees>41.3374585099518299102783203125</LatitudeDegrees>
              <LongitudeDegrees>-1.65599375031888484954833984375</LongitudeDegrees>
            </Position>
            <AltitudeMeters>547.4000244140625</AltitudeMeters>
            <DistanceMeters>501952.60253315</DistanceMeters>
          </Trackpoint>
          <Trackpoint>
            <Time>2021-08-03T07:26:19.000Z</Time>
            <Position>
              <LatitudeDegrees>41.33731828071177005767822265625</LatitudeDegrees>
              <LongitudeDegrees>-1.6559185646474361419677734375</LongitudeDegrees>
            </Position>
            <AltitudeMeters>548.4000244140625</AltitudeMeters>
            <DistanceMeters>501969.42736112</DistanceMeters>
          </Trackpoint>
          <Trackpoint>
            <Time>2021-08-03T07:26:30.000Z</Time>
            <Position>
              <LatitudeDegrees>41.33708878420293331146240234375</LatitudeDegrees>
              <LongitudeDegrees>-1.65570239536464214324951171875</LongitudeDegrees>
            </Position>
            <AltitudeMeters>549.4000244140625</AltitudeMeters>
            <DistanceMeters>502000.71352686</DistanceMeters>
          </Trackpoint>
          <Trackpoint>
            <Time>2021-08-03T07:26:45.000Z</Time>
            <Position>
              <LatitudeDegrees>41.33668947033584117889404296875</LatitudeDegrees>
              <LongitudeDegrees>-1.65532504208385944366455078125</LongitudeDegrees>
            </Position>
            <AltitudeMeters>548.4000244140625</AltitudeMeters>
            <DistanceMeters>502055.20925559</DistanceMeters>
          </Trackpoint>
          <Trackpoint>
            <Time>2021-08-03T07:26:48.000Z</Time>
            <Position>
              <LatitudeDegrees>41.3365814276039600372314453125</LatitudeDegrees>
              <LongitudeDegrees>-1.65521624498069286346435546875</LongitudeDegrees>
            </Position>
            <AltitudeMeters>547.4000244140625</AltitudeMeters>
            <DistanceMeters>502070.28529699</DistanceMeters>
          </Trackpoint>
          <Trackpoint>
            <Time>2021-08-03T07:26:49.000Z</Time>
            <Position>
              <LatitudeDegrees>41.336532644927501678466796875</LatitudeDegrees>
              <LongitudeDegrees>-1.65518757887184619903564453125</LongitudeDegrees>
            </Position>
            <AltitudeMeters>547</AltitudeMeters>
            <DistanceMeters>502076.2197134</DistanceMeters>
          </Trackpoint>
          <Trackpoint>
            <Time>2021-08-03T07:26:51.000Z</Time>
            <Position>
              <LatitudeDegrees>41.3364111073315143585205078125</LatitudeDegrees>
              <LongitudeDegrees>-1.65516478009521961212158203125</LongitudeDegrees>
            </Position>
            <AltitudeMeters>545.4000244140625</AltitudeMeters>
            <DistanceMeters>502089.88044397</DistanceMeters>
          </Trackpoint>
          <Trackpoint>
            <Time>2021-08-03T07:26:53.000Z</Time>
            <Position>
              <LatitudeDegrees>41.33627758361399173736572265625</LatitudeDegrees>
              <LongitudeDegrees>-1.65522580035030841827392578125</LongitudeDegrees>
            </Position>
            <AltitudeMeters>544</AltitudeMeters>
            <DistanceMeters>502105.59264496</DistanceMeters>
          </Trackpoint>
          <Trackpoint>
            <Time>2021-08-03T07:26:55.000Z</Time>
            <Position>
              <LatitudeDegrees>41.33618270047008991241455078125</LatitudeDegrees>
              <LongitudeDegrees>-1.6553951986134052276611328125</LongitudeDegrees>
            </Position>
            <AltitudeMeters>542.4000244140625</AltitudeMeters>
            <DistanceMeters>502123.25483681</DistanceMeters>
          </Trackpoint>
          <Trackpoint>
            <Time>2021-08-03T07:26:56.000Z</Time>
            <Position>
              <LatitudeDegrees>41.3361660204827785491943359375</LatitudeDegrees>
              <LongitudeDegrees>-1.6555088572204113006591796875</LongitudeDegrees>
            </Position>
            <AltitudeMeters>541.4000244140625</AltitudeMeters>
            <DistanceMeters>502132.93264404</DistanceMeters>
          </Trackpoint>
          <Trackpoint>
            <Time>2021-08-03T07:26:57.000Z</Time>
            <Position>
              <LatitudeDegrees>41.336171217262744903564453125</LatitudeDegrees>
              <LongitudeDegrees>-1.6556285507977008819580078125</LongitudeDegrees>
            </Position>
            <AltitudeMeters>540.20001220703125</AltitudeMeters>
            <DistanceMeters>502142.95199331</DistanceMeters>
          </Trackpoint>
          <Trackpoint>
            <Time>2021-08-03T07:26:59.000Z</Time>
            <Position>
              <LatitudeDegrees>41.33621388114988803863525390625</LatitudeDegrees>
              <LongitudeDegrees>-1.65586911141872406005859375</LongitudeDegrees>
            </Position>
            <AltitudeMeters>539.20001220703125</AltitudeMeters>
            <DistanceMeters>502163.60910498</DistanceMeters>
          </Trackpoint>
          <Trackpoint>
            <Time>2021-08-03T07:27:02.000Z</Time>
            <Position>
              <LatitudeDegrees>41.33625260554254055023193359375</LatitudeDegrees>
              <LongitudeDegrees>-1.6562186367809772491455078125</LongitudeDegrees>
            </Position>
            <AltitudeMeters>538.5999755859375</AltitudeMeters>
            <DistanceMeters>502193.1353594</DistanceMeters>
          </Trackpoint>
          <Trackpoint>
            <Time>2021-08-03T07:27:08.000Z</Time>
            <Position>
              <LatitudeDegrees>41.33609804324805736541748046875</LatitudeDegrees>
              <LongitudeDegrees>-1.65678164921700954437255859375</LongitudeDegrees>
            </Position>
            <AltitudeMeters>538</AltitudeMeters>
            <DistanceMeters>502243.23309714</DistanceMeters>
          </Trackpoint>
          <Trackpoint>
            <Time>2021-08-03T07:27:12.000Z</Time>
            <Position>
              <LatitudeDegrees>41.33593149483203887939453125</LatitudeDegrees>
              <LongitudeDegrees>-1.657065041363239288330078125</LongitudeDegrees>
            </Position>
            <AltitudeMeters>538</AltitudeMeters>
            <DistanceMeters>502273.30856434</DistanceMeters>
          </Trackpoint>
          <Trackpoint>
            <Time>2021-08-03T07:27:21.000Z</Time>
            <Position>
              <LatitudeDegrees>41.335463784635066986083984375</LatitudeDegrees>
              <LongitudeDegrees>-1.65753400884568691253662109375</LongitudeDegrees>
            </Position>
            <AltitudeMeters>537.5999755859375</AltitudeMeters>
            <DistanceMeters>502338.46973425</DistanceMeters>
          </Trackpoint>
          <Trackpoint>
            <Time>2021-08-03T07:27:31.000Z</Time>
            <Position>
              <LatitudeDegrees>41.3349895365536212921142578125</LatitudeDegrees>
              <LongitudeDegrees>-1.65800725109875202178955078125</LongitudeDegrees>
            </Position>
            <AltitudeMeters>537.4000244140625</AltitudeMeters>
            <DistanceMeters>502404.42744744</DistanceMeters>
          </Trackpoint>
          <Trackpoint>
            <Time>2021-08-03T07:27:42.000Z</Time>
            <Position>
              <LatitudeDegrees>41.33453649468719959259033203125</LatitudeDegrees>
              <LongitudeDegrees>-1.658443696796894073486328125</LongitudeDegrees>
            </Position>
            <AltitudeMeters>537.4000244140625</AltitudeMeters>
            <DistanceMeters>502466.66124</DistanceMeters>
          </Trackpoint>
          <Trackpoint>
            <Time>2021-08-03T07:27:54.000Z</Time>
            <Position>
              <LatitudeDegrees>41.334062330424785614013671875</LatitudeDegrees>
              <LongitudeDegrees>-1.658897660672664642333984375</LongitudeDegrees>
            </Position>
            <AltitudeMeters>537.79998779296875</AltitudeMeters>
            <DistanceMeters>502531.6584012</DistanceMeters>
          </Trackpoint>
          <Trackpoint>
            <Time>2021-08-03T07:28:06.000Z</Time>
            <Position>
              <LatitudeDegrees>41.33361431770026683807373046875</LatitudeDegrees>
              <LongitudeDegrees>-1.65933561511337757110595703125</LongitudeDegrees>
            </Position>
            <AltitudeMeters>538.20001220703125</AltitudeMeters>
            <DistanceMeters>502593.51429623</DistanceMeters>
          </Trackpoint>
          <Trackpoint>
            <Time>2021-08-03T07:28:19.000Z</Time>
            <Position>
              <LatitudeDegrees>41.33316772989928722381591796875</LatitudeDegrees>
              <LongitudeDegrees>-1.65978874079883098602294921875</LongitudeDegrees>
            </Position>
            <AltitudeMeters>538</AltitudeMeters>
            <DistanceMeters>502656.00272489</DistanceMeters>
          </Trackpoint>
          <Trackpoint>
            <Time>2021-08-03T07:28:33.000Z</Time>
            <Position>
              <LatitudeDegrees>41.33272164501249790191650390625</LatitudeDegrees>
              <LongitudeDegrees>-1.66020515374839305877685546875</LongitudeDegrees>
            </Position>
            <AltitudeMeters>538.5999755859375</AltitudeMeters>
            <DistanceMeters>502716.63513043</DistanceMeters>
          </Trackpoint>
          <Trackpoint>
            <Time>2021-08-03T07:28:47.000Z</Time>
            <Position>
              <LatitudeDegrees>41.33229031227529048919677734375</LatitudeDegrees>
              <LongitudeDegrees>-1.66064419783651828765869140625</LongitudeDegrees>
            </Position>
            <AltitudeMeters>538.5999755859375</AltitudeMeters>
            <DistanceMeters>502777.06016654</DistanceMeters>
          </Trackpoint>
          <Trackpoint>
            <Time>2021-08-03T07:29:01.000Z</Time>
            <Position>
              <LatitudeDegrees>41.331820674240589141845703125</LatitudeDegrees>
              <LongitudeDegrees>-1.6610955633223056793212890625</LongitudeDegrees>
            </Position>
            <AltitudeMeters>538.5999755859375</AltitudeMeters>
            <DistanceMeters>502841.52232813</DistanceMeters>
          </Trackpoint>
          <Trackpoint>
            <Time>2021-08-03T07:29:10.000Z</Time>
            <Position>
              <LatitudeDegrees>41.331530325114727020263671875</LatitudeDegrees>
              <LongitudeDegrees>-1.66138180531561374664306640625</LongitudeDegrees>
            </Position>
            <AltitudeMeters>539.20001220703125</AltitudeMeters>
            <DistanceMeters>502881.73019609</DistanceMeters>
          </Trackpoint>
          <Trackpoint>
            <Time>2021-08-03T07:29:29.000Z</Time>
            <Position>
              <LatitudeDegrees>41.330985836684703826904296875</LatitudeDegrees>
              <LongitudeDegrees>-1.66143025271594524383544921875</LongitudeDegrees>
            </Position>
            <AltitudeMeters>539.4000244140625</AltitudeMeters>
            <DistanceMeters>502942.46795362</DistanceMeters>
          </Trackpoint>
          <Trackpoint>
            <Time>2021-08-03T07:29:45.000Z</Time>
            <Position>
              <LatitudeDegrees>41.33040857501327991485595703125</LatitudeDegrees>
              <LongitudeDegrees>-1.66139638982713222503662109375</LongitudeDegrees>
            </Position>
            <AltitudeMeters>540</AltitudeMeters>
            <DistanceMeters>503006.78061299</DistanceMeters>
          </Trackpoint>
          <Trackpoint>
            <Time>2021-08-03T07:29:58.000Z</Time>
            <Position>
              <LatitudeDegrees>41.32988504134118556976318359375</LatitudeDegrees>
              <LongitudeDegrees>-1.6612803004682064056396484375</LongitudeDegrees>
            </Position>
            <AltitudeMeters>540.20001220703125</AltitudeMeters>
            <DistanceMeters>503065.85315044</DistanceMeters>
          </Trackpoint>
          <Trackpoint>
            <Time>2021-08-03T07:30:00.000Z</Time>
            <Position>
              <LatitudeDegrees>41.329804994165897369384765625</LatitudeDegrees>
              <LongitudeDegrees>-1.6612454317510128021240234375</LongitudeDegrees>
            </Position>
            <AltitudeMeters>540.4000244140625</AltitudeMeters>
            <DistanceMeters>503075.2276213</DistanceMeters>
          </Trackpoint>
          <Trackpoint>
            <Time>2021-08-03T07:30:06.000Z</Time>
            <Position>
              <LatitudeDegrees>41.32957340218126773834228515625</LatitudeDegrees>
              <LongitudeDegrees>-1.6611656360328197479248046875</LongitudeDegrees>
            </Position>
            <AltitudeMeters>540.5999755859375</AltitudeMeters>
            <DistanceMeters>503101.8534216</DistanceMeters>
          </Trackpoint>
          <Trackpoint>
            <Time>2021-08-03T07:30:21.000Z</Time>
            <Position>
              <LatitudeDegrees>41.3290601782500743865966796875</LatitudeDegrees>
              <LongitudeDegrees>-1.660942174494266510009765625</LongitudeDegrees>
            </Position>
            <AltitudeMeters>540.79998779296875</AltitudeMeters>
            <DistanceMeters>503161.95209027</DistanceMeters>
          </Trackpoint>
          <Trackpoint>
            <Time>2021-08-03T07:30:30.000Z</Time>
            <Position>
              <LatitudeDegrees>41.3287145085632801055908203125</LatitudeDegrees>
              <LongitudeDegrees>-1.66073790751397609710693359375</LongitudeDegrees>
            </Position>
            <AltitudeMeters>541.4000244140625</AltitudeMeters>
            <DistanceMeters>503204.04366898</DistanceMeters>
          </Trackpoint>
          <Trackpoint>
            <Time>2021-08-03T07:30:43.000Z</Time>
            <Position>
              <LatitudeDegrees>41.32820539176464080810546875</LatitudeDegrees>
              <LongitudeDegrees>-1.660389639437198638916015625</LongitudeDegrees>
            </Position>
            <AltitudeMeters>541</AltitudeMeters>
            <DistanceMeters>503267.74857472</DistanceMeters>
          </Trackpoint>
          <Trackpoint>
            <Time>2021-08-03T07:30:55.000Z</Time>
            <Position>
              <LatitudeDegrees>41.32772284559905529022216796875</LatitudeDegrees>
              <LongitudeDegrees>-1.660040952265262603759765625</LongitudeDegrees>
            </Position>
            <AltitudeMeters>541.4000244140625</AltitudeMeters>
            <DistanceMeters>503328.85466828</DistanceMeters>
          </Trackpoint>
          <Trackpoint>
            <Time>2021-08-03T07:31:07.000Z</Time>
            <Position>
              <LatitudeDegrees>41.32723837159574031829833984375</LatitudeDegrees>
              <LongitudeDegrees>-1.6596894152462482452392578125</LongitudeDegrees>
            </Position>
            <AltitudeMeters>541.5999755859375</AltitudeMeters>
            <DistanceMeters>503390.26310453</DistanceMeters>
          </Trackpoint>
          <Trackpoint>
            <Time>2021-08-03T07:31:20.000Z</Time>
            <Position>
              <LatitudeDegrees>41.32675490342080593109130859375</LatitudeDegrees>
              <LongitudeDegrees>-1.6593548096716403961181640625</LongitudeDegrees>
            </Position>
            <AltitudeMeters>541.79998779296875</AltitudeMeters>
            <DistanceMeters>503450.90772123</DistanceMeters>
          </Trackpoint>
          <Trackpoint>
            <Time>2021-08-03T07:31:31.000Z</Time>
            <Position>
              <LatitudeDegrees>41.3263608701527118682861328125</LatitudeDegrees>
              <LongitudeDegrees>-1.65907426737248897552490234375</LongitudeDegrees>
            </Position>
            <AltitudeMeters>542.5999755859375</AltitudeMeters>
            <DistanceMeters>503500.63947806</DistanceMeters>
          </Trackpoint>
          <Trackpoint>
            <Time>2021-08-03T07:31:46.000Z</Time>
            <Position>
              <LatitudeDegrees>41.32586021907627582550048828125</LatitudeDegrees>
              <LongitudeDegrees>-1.6587147675454616546630859375</LongitudeDegrees>
            </Position>
            <AltitudeMeters>543</AltitudeMeters>
            <DistanceMeters>503563.94824072</DistanceMeters>
          </Trackpoint>
          <Trackpoint>
            <Time>2021-08-03T07:32:00.000Z</Time>
            <Position>
              <LatitudeDegrees>41.3253684528172016143798828125</LatitudeDegrees>
              <LongitudeDegrees>-1.65835954248905181884765625</LongitudeDegrees>
            </Position>
            <AltitudeMeters>543.20001220703125</AltitudeMeters>
            <DistanceMeters>503626.21735493</DistanceMeters>
          </Trackpoint>
          <Trackpoint>
            <Time>2021-08-03T07:32:12.000Z</Time>
            <Position>
              <LatitudeDegrees>41.32493267767131328582763671875</LatitudeDegrees>
              <LongitudeDegrees>-1.658044047653675079345703125</LongitudeDegrees>
            </Position>
            <AltitudeMeters>543.5999755859375</AltitudeMeters>
            <DistanceMeters>503681.42534078</DistanceMeters>
          </Trackpoint>
          <Trackpoint>
            <Time>2021-08-03T07:32:26.000Z</Time>
            <Position>
              <LatitudeDegrees>41.32443345151841640472412109375</LatitudeDegrees>
              <LongitudeDegrees>-1.6576941870152950286865234375</LongitudeDegrees>
            </Position>
            <AltitudeMeters>544</AltitudeMeters>
            <DistanceMeters>503744.21578382</DistanceMeters>
          </Trackpoint>
          <Trackpoint>
            <Time>2021-08-03T07:32:40.000Z</Time>
            <Position>
              <LatitudeDegrees>41.32392458617687225341796875</LatitudeDegrees>
              <LongitudeDegrees>-1.65732244960963726043701171875</LongitudeDegrees>
            </Position>
            <AltitudeMeters>544.4000244140625</AltitudeMeters>
            <DistanceMeters>503808.81689843</DistanceMeters>
          </Trackpoint>
          <Trackpoint>
            <Time>2021-08-03T07:32:45.000Z</Time>
            <Position>
              <LatitudeDegrees>41.32373758591711521148681640625</LatitudeDegrees>
              <LongitudeDegrees>-1.657190434634685516357421875</LongitudeDegrees>
            </Position>
            <AltitudeMeters>544.5999755859375</AltitudeMeters>
            <DistanceMeters>503832.37432566</DistanceMeters>
          </Trackpoint>
          <Trackpoint>
            <Time>2021-08-03T07:32:59.000Z</Time>
            <Position>
              <LatitudeDegrees>41.323234252631664276123046875</LatitudeDegrees>
              <LongitudeDegrees>-1.6568315215408802032470703125</LongitudeDegrees>
            </Position>
            <AltitudeMeters>544.5999755859375</AltitudeMeters>
            <DistanceMeters>503895.92340093</DistanceMeters>
          </Trackpoint>
          <Trackpoint>
            <Time>2021-08-03T07:33:13.000Z</Time>
            <Position>
              <LatitudeDegrees>41.322727315127849578857421875</LatitudeDegrees>
              <LongitudeDegrees>-1.6564697585999965667724609375</LongitudeDegrees>
            </Position>
            <AltitudeMeters>544.79998779296875</AltitudeMeters>
            <DistanceMeters>503959.9387591</DistanceMeters>
          </Trackpoint>
          <Trackpoint>
            <Time>2021-08-03T07:33:26.000Z</Time>
            <Position>
              <LatitudeDegrees>41.32224191911518573760986328125</LatitudeDegrees>
              <LongitudeDegrees>-1.65612081997096538543701171875</LongitudeDegrees>
            </Position>
            <AltitudeMeters>545.4000244140625</AltitudeMeters>
            <DistanceMeters>504021.3349155</DistanceMeters>
          </Trackpoint>
          <Trackpoint>
            <Time>2021-08-03T07:33:39.000Z</Time>
            <Position>
              <LatitudeDegrees>41.32174788974225521087646484375</LatitudeDegrees>
              <LongitudeDegrees>-1.655762828886508941650390625</LongitudeDegrees>
            </Position>
            <AltitudeMeters>545.5999755859375</AltitudeMeters>
            <DistanceMeters>504083.93646377</DistanceMeters>
          </Trackpoint>
          <Trackpoint>
            <Time>2021-08-03T07:33:46.000Z</Time>
            <Position>
              <LatitudeDegrees>41.32148721255362033843994140625</LatitudeDegrees>
              <LongitudeDegrees>-1.65557582862675189971923828125</LongitudeDegrees>
            </Position>
            <AltitudeMeters>545.79998779296875</AltitudeMeters>
            <DistanceMeters>504116.89306546</DistanceMeters>
          </Trackpoint>
          <Trackpoint>
            <Time>2021-08-03T07:34:00.000Z</Time>
            <Position>
              <LatitudeDegrees>41.3210068456828594207763671875</LatitudeDegrees>
              <LongitudeDegrees>-1.655235774815082550048828125</LongitudeDegrees>
            </Position>
            <AltitudeMeters>546.5999755859375</AltitudeMeters>
            <DistanceMeters>504177.44529282</DistanceMeters>
          </Trackpoint>
          <Trackpoint>
            <Time>2021-08-03T07:34:31.000Z</Time>
            <Position>
              <LatitudeDegrees>41.32048255763947963714599609375</LatitudeDegrees>
              <LongitudeDegrees>-1.654960848391056060791015625</LongitudeDegrees>
            </Position>
            <AltitudeMeters>545.5999755859375</AltitudeMeters>
            <DistanceMeters>504240.16191644</DistanceMeters>
          </Trackpoint>
          <Trackpoint>
            <Time>2021-08-03T07:34:44.000Z</Time>
            <Position>
              <LatitudeDegrees>41.320003531873226165771484375</LatitudeDegrees>
              <LongitudeDegrees>-1.65462012402713298797607421875</LongitudeDegrees>
            </Position>
            <AltitudeMeters>545.4000244140625</AltitudeMeters>
            <DistanceMeters>504300.60906602</DistanceMeters>
          </Trackpoint>
          <Trackpoint>
            <Time>2021-08-03T07:34:56.000Z</Time>
            <Position>
              <LatitudeDegrees>41.31951176561415195465087890625</LatitudeDegrees>
              <LongitudeDegrees>-1.6542619653046131134033203125</LongitudeDegrees>
            </Position>
            <AltitudeMeters>545.5999755859375</AltitudeMeters>
            <DistanceMeters>504362.99669131</DistanceMeters>
          </Trackpoint>
          <Trackpoint>
            <Time>2021-08-03T07:35:09.000Z</Time>
            <Position>
              <LatitudeDegrees>41.319022513926029205322265625</LatitudeDegrees>
              <LongitudeDegrees>-1.653903387486934661865234375</LongitudeDegrees>
            </Position>
            <AltitudeMeters>546.5999755859375</AltitudeMeters>
            <DistanceMeters>504425.15593076</DistanceMeters>
          </Trackpoint>
          <Trackpoint>
            <Time>2021-08-03T07:35:18.000Z</Time>
            <Position>
              <LatitudeDegrees>41.318675167858600616455078125</LatitudeDegrees>
              <LongitudeDegrees>-1.65365302003920078277587890625</LongitudeDegrees>
            </Position>
            <AltitudeMeters>547</AltitudeMeters>
            <DistanceMeters>504469.11767572</DistanceMeters>
          </Trackpoint>
          <Trackpoint>
            <Time>2021-08-03T07:35:25.000Z</Time>
            <Position>
              <LatitudeDegrees>41.3184322603046894073486328125</LatitudeDegrees>
              <LongitudeDegrees>-1.65346987545490264892578125</LongitudeDegrees>
            </Position>
            <AltitudeMeters>548</AltitudeMeters>
            <DistanceMeters>504500.18748795</DistanceMeters>
          </Trackpoint>
          <Trackpoint>
            <Time>2021-08-03T07:35:39.000Z</Time>
            <Position>
              <LatitudeDegrees>41.31797117181122303009033203125</LatitudeDegrees>
              <LongitudeDegrees>-1.653093360364437103271484375</LongitudeDegrees>
            </Position>
            <AltitudeMeters>548.5999755859375</AltitudeMeters>
            <DistanceMeters>504560.39041772</DistanceMeters>
          </Trackpoint>
          <Trackpoint>
            <Time>2021-08-03T07:35:53.000Z</Time>
            <Position>
              <LatitudeDegrees>41.31749122403562068939208984375</LatitudeDegrees>
              <LongitudeDegrees>-1.652787588536739349365234375</LongitudeDegrees>
            </Position>
            <AltitudeMeters>549</AltitudeMeters>
            <DistanceMeters>504619.61013292</DistanceMeters>
          </Trackpoint>
          <Trackpoint>
            <Time>2021-08-03T07:36:11.000Z</Time>
            <Position>
              <LatitudeDegrees>41.3170006312429904937744140625</LatitudeDegrees>
              <LongitudeDegrees>-1.65245197713375091552734375</LongitudeDegrees>
            </Position>
            <AltitudeMeters>549.20001220703125</AltitudeMeters>
            <DistanceMeters>504680.99989105</DistanceMeters>
          </Trackpoint>
          <Trackpoint>
            <Time>2021-08-03T07:36:31.000Z</Time>
            <Position>
              <LatitudeDegrees>41.31652914918959140777587890625</LatitudeDegrees>
              <LongitudeDegrees>-1.6520819999277591705322265625</LongitudeDegrees>
            </Position>
            <AltitudeMeters>549.20001220703125</AltitudeMeters>
            <DistanceMeters>504741.91290444</DistanceMeters>
          </Trackpoint>
          <Trackpoint>
            <Time>2021-08-03T07:36:51.000Z</Time>
            <Position>
              <LatitudeDegrees>41.31604417227208614349365234375</LatitudeDegrees>
              <LongitudeDegrees>-1.6516957618296146392822265625</LongitudeDegrees>
            </Position>
            <AltitudeMeters>549.5999755859375</AltitudeMeters>
            <DistanceMeters>504804.81154538</DistanceMeters>
          </Trackpoint>
          <Trackpoint>
            <Time>2021-08-03T07:37:06.000Z</Time>
            <Position>
              <LatitudeDegrees>41.315602362155914306640625</LatitudeDegrees>
              <LongitudeDegrees>-1.65126786567270755767822265625</LongitudeDegrees>
            </Position>
            <AltitudeMeters>549.5999755859375</AltitudeMeters>
            <DistanceMeters>504865.62003017</DistanceMeters>
          </Trackpoint>
          <Trackpoint>
            <Time>2021-08-03T07:37:20.000Z</Time>
            <Position>
              <LatitudeDegrees>41.31514714099466800689697265625</LatitudeDegrees>
              <LongitudeDegrees>-1.6508501954376697540283203125</LongitudeDegrees>
            </Position>
            <AltitudeMeters>549.5999755859375</AltitudeMeters>
            <DistanceMeters>504927.15289125</DistanceMeters>
          </Trackpoint>
          <Trackpoint>
            <Time>2021-08-03T07:37:33.000Z</Time>
            <Position>
              <LatitudeDegrees>41.31469166837632656097412109375</LatitudeDegrees>
              <LongitudeDegrees>-1.65044291876256465911865234375</LongitudeDegrees>
            </Position>
            <AltitudeMeters>549.4000244140625</AltitudeMeters>
            <DistanceMeters>504988.22025496</DistanceMeters>
          </Trackpoint>
          <Trackpoint>
            <Time>2021-08-03T07:37:46.000Z</Time>
            <Position>
              <LatitudeDegrees>41.31422412581741809844970703125</LatitudeDegrees>
              <LongitudeDegrees>-1.65000504814088344573974609375</LongitudeDegrees>
            </Position>
            <AltitudeMeters>549.4000244140625</AltitudeMeters>
            <DistanceMeters>505051.84381598</DistanceMeters>
          </Trackpoint>
          <Trackpoint>
            <Time>2021-08-03T07:37:59.000Z</Time>
            <Position>
              <LatitudeDegrees>41.31378340534865856170654296875</LatitudeDegrees>
              <LongitudeDegrees>-1.649578996002674102783203125</LongitudeDegrees>
            </Position>
            <AltitudeMeters>549.79998779296875</AltitudeMeters>
            <DistanceMeters>505112.46408239</DistanceMeters>
          </Trackpoint>
          <Trackpoint>
            <Time>2021-08-03T07:38:04.000Z</Time>
            <Position>
              <LatitudeDegrees>41.31362230516970157623291015625</LatitudeDegrees>
              <LongitudeDegrees>-1.64941865019500255584716796875</LongitudeDegrees>
            </Position>
            <AltitudeMeters>550.4000244140625</AltitudeMeters>
            <DistanceMeters>505134.85169868</DistanceMeters>
          </Trackpoint>
          <Trackpoint>
            <Time>2021-08-03T07:38:17.000Z</Time>
            <Position>
              <LatitudeDegrees>41.313175298273563385009765625</LatitudeDegrees>
              <LongitudeDegrees>-1.6490001417696475982666015625</LongitudeDegrees>
            </Position>
            <AltitudeMeters>550.79998779296875</AltitudeMeters>
            <DistanceMeters>505195.67473475</DistanceMeters>
          </Trackpoint>
          <Trackpoint>
            <Time>2021-08-03T07:38:30.000Z</Time>
            <Position>
              <LatitudeDegrees>41.3127342425286769866943359375</LatitudeDegrees>
              <LongitudeDegrees>-1.64857878349721431732177734375</LongitudeDegrees>
            </Position>
            <AltitudeMeters>551.4000244140625</AltitudeMeters>
            <DistanceMeters>505256.09588523</DistanceMeters>
          </Trackpoint>
          <Trackpoint>
            <Time>2021-08-03T07:38:31.000Z</Time>
            <Position>
              <LatitudeDegrees>41.3127007149159908294677734375</LatitudeDegrees>
              <LongitudeDegrees>-1.64854324422776699066162109375</LongitudeDegrees>
            </Position>
            <AltitudeMeters>551.5999755859375</AltitudeMeters>
            <DistanceMeters>505260.86618843</DistanceMeters>
          </Trackpoint>
          <Trackpoint>
            <Time>2021-08-03T07:38:36.000Z</Time>
            <Position>
              <LatitudeDegrees>41.3125552050769329071044921875</LatitudeDegrees>
              <LongitudeDegrees>-1.6483788751065731048583984375</LongitudeDegrees>
            </Position>
            <AltitudeMeters>552.5999755859375</AltitudeMeters>
            <DistanceMeters>505282.10588144</DistanceMeters>
          </Trackpoint>
          <Trackpoint>
            <Time>2021-08-03T07:38:49.000Z</Time>
            <Position>
              <LatitudeDegrees>41.31211238913238048553466796875</LatitudeDegrees>
              <LongitudeDegrees>-1.64794913493096828460693359375</LongitudeDegrees>
            </Position>
            <AltitudeMeters>553.5999755859375</AltitudeMeters>
            <DistanceMeters>505343.09667403</DistanceMeters>
          </Trackpoint>
          <Trackpoint>
            <Time>2021-08-03T07:38:54.000Z</Time>
            <Position>
              <LatitudeDegrees>41.3119406439363956451416015625</LatitudeDegrees>
              <LongitudeDegrees>-1.64778468199074268341064453125</LongitudeDegrees>
            </Position>
            <AltitudeMeters>553.79998779296875</AltitudeMeters>
            <DistanceMeters>505366.6429823</DistanceMeters>
          </Trackpoint>
          <Trackpoint>
            <Time>2021-08-03T07:39:07.000Z</Time>
            <Position>
              <LatitudeDegrees>41.31149782799184322357177734375</LatitudeDegrees>
              <LongitudeDegrees>-1.64735904894769191741943359375</LongitudeDegrees>
            </Position>
            <AltitudeMeters>552.5999755859375</AltitudeMeters>
            <DistanceMeters>505427.43245609</DistanceMeters>
          </Trackpoint>
          <Trackpoint>
            <Time>2021-08-03T07:39:18.000Z</Time>
            <Position>
              <LatitudeDegrees>41.3111091591417789459228515625</LatitudeDegrees>
              <LongitudeDegrees>-1.64701170288026332855224609375</LongitudeDegrees>
            </Position>
            <AltitudeMeters>554.79998779296875</AltitudeMeters>
            <DistanceMeters>505479.53491986</DistanceMeters>
          </Trackpoint>
          <Trackpoint>
            <Time>2021-08-03T07:39:30.000Z</Time>
            <Position>
              <LatitudeDegrees>41.310701631009578704833984375</LatitudeDegrees>
              <LongitudeDegrees>-1.646618507802486419677734375</LongitudeDegrees>
            </Position>
            <AltitudeMeters>555.79998779296875</AltitudeMeters>
            <DistanceMeters>505535.55274483</DistanceMeters>
          </Trackpoint>
          <Trackpoint>
            <Time>2021-08-03T07:39:42.000Z</Time>
            <Position>
              <LatitudeDegrees>41.31035126745700836181640625</LatitudeDegrees>
              <LongitudeDegrees>-1.64629220031201839447021484375</LongitudeDegrees>
            </Position>
            <AltitudeMeters>557</AltitudeMeters>
            <DistanceMeters>505583.144055</DistanceMeters>
          </Trackpoint>
          <Trackpoint>
            <Time>2021-08-03T07:39:50.000Z</Time>
            <Position>
              <LatitudeDegrees>41.31011799909174442291259765625</LatitudeDegrees>
              <LongitudeDegrees>-1.646211482584476470947265625</LongitudeDegrees>
            </Position>
            <AltitudeMeters>557</AltitudeMeters>
            <DistanceMeters>505609.96987935</DistanceMeters>
          </Trackpoint>
          <Trackpoint>
            <Time>2021-08-03T07:40:04.000Z</Time>
            <Position>
              <LatitudeDegrees>41.309706531465053558349609375</LatitudeDegrees>
              <LongitudeDegrees>-1.64572457782924175262451171875</LongitudeDegrees>
            </Position>
            <AltitudeMeters>555.79998779296875</AltitudeMeters>
            <DistanceMeters>505671.24361764</DistanceMeters>
          </Trackpoint>
          <Trackpoint>
            <Time>2021-08-03T07:40:15.000Z</Time>
            <Position>
              <LatitudeDegrees>41.30924510769546031951904296875</LatitudeDegrees>
              <LongitudeDegrees>-1.645332388579845428466796875</LongitudeDegrees>
            </Position>
            <AltitudeMeters>555.4000244140625</AltitudeMeters>
            <DistanceMeters>505732.17552939</DistanceMeters>
          </Trackpoint>
          <Trackpoint>
            <Time>2021-08-03T07:40:26.000Z</Time>
            <Position>
              <LatitudeDegrees>41.3087962567806243896484375</LatitudeDegrees>
              <LongitudeDegrees>-1.64492276497185230255126953125</LongitudeDegrees>
            </Position>
            <AltitudeMeters>555</AltitudeMeters>
            <DistanceMeters>505792.74482959</DistanceMeters>
          </Trackpoint>
          <Trackpoint>
            <Time>2021-08-03T07:40:32.000Z</Time>
            <Position>
              <LatitudeDegrees>41.30854706279933452606201171875</LatitudeDegrees>
              <LongitudeDegrees>-1.644693352282047271728515625</LongitudeDegrees>
            </Position>
            <AltitudeMeters>555</AltitudeMeters>
            <DistanceMeters>505826.46659595</DistanceMeters>
          </Trackpoint>
          <Trackpoint>
            <Time>2021-08-03T07:40:43.000Z</Time>
            <Position>
              <LatitudeDegrees>41.30810231901705265045166015625</LatitudeDegrees>
              <LongitudeDegrees>-1.6442543081939220428466796875</LongitudeDegrees>
            </Position>
            <AltitudeMeters>555</AltitudeMeters>
            <DistanceMeters>505888.09235436</DistanceMeters>
          </Trackpoint>
          <Trackpoint>
            <Time>2021-08-03T07:40:55.000Z</Time>
            <Position>
              <LatitudeDegrees>41.30765673704445362091064453125</LatitudeDegrees>
              <LongitudeDegrees>-1.643818281590938568115234375</LongitudeDegrees>
            </Position>
            <AltitudeMeters>555.4000244140625</AltitudeMeters>
            <DistanceMeters>505949.64355672</DistanceMeters>
          </Trackpoint>
          <Trackpoint>
            <Time>2021-08-03T07:41:06.000Z</Time>
            <Position>
              <LatitudeDegrees>41.3072930462658405303955078125</LatitudeDegrees>
              <LongitudeDegrees>-1.64347185753285884857177734375</LongitudeDegrees>
            </Position>
            <AltitudeMeters>556.20001220703125</AltitudeMeters>
            <DistanceMeters>505999.41787483</DistanceMeters>
          </Trackpoint>
          <Trackpoint>
            <Time>2021-08-03T07:41:20.000Z</Time>
            <Position>
              <LatitudeDegrees>41.30682550370693206787109375</LatitudeDegrees>
              <LongitudeDegrees>-1.643025688827037811279296875</LongitudeDegrees>
            </Position>
            <AltitudeMeters>555.79998779296875</AltitudeMeters>
            <DistanceMeters>506063.44543362</DistanceMeters>
          </Trackpoint>
          <Trackpoint>
            <Time>2021-08-03T07:41:34.000Z</Time>
            <Position>
              <LatitudeDegrees>41.3063670136034488677978515625</LatitudeDegrees>
              <LongitudeDegrees>-1.64261162281036376953125</LongitudeDegrees>
            </Position>
            <AltitudeMeters>556.4000244140625</AltitudeMeters>
            <DistanceMeters>506125.11110877</DistanceMeters>
          </Trackpoint>
          <Trackpoint>
            <Time>2021-08-03T07:41:45.000Z</Time>
            <Position>
              <LatitudeDegrees>41.30595990456640720367431640625</LatitudeDegrees>
              <LongitudeDegrees>-1.6423043422400951385498046875</LongitudeDegrees>
            </Position>
            <AltitudeMeters>556.5999755859375</AltitudeMeters>
            <DistanceMeters>506177.19979227</DistanceMeters>
          </Trackpoint>
          <Trackpoint>
            <Time>2021-08-03T07:41:58.000Z</Time>
            <Position>
              <LatitudeDegrees>41.30543419159948825836181640625</LatitudeDegrees>
              <LongitudeDegrees>-1.64196864701807498931884765625</LongitudeDegrees>
            </Position>
            <AltitudeMeters>556.4000244140625</AltitudeMeters>
            <DistanceMeters>506242.09615082</DistanceMeters>
          </Trackpoint>
          <Trackpoint>
            <Time>2021-08-03T07:42:06.000Z</Time>
            <Position>
              <LatitudeDegrees>41.30514015443623065948486328125</LatitudeDegrees>
              <LongitudeDegrees>-1.641737557947635650634765625</LongitudeDegrees>
            </Position>
            <AltitudeMeters>557.20001220703125</AltitudeMeters>
            <DistanceMeters>506280.10101573</DistanceMeters>
          </Trackpoint>
          <Trackpoint>
            <Time>2021-08-03T07:42:20.000Z</Time>
            <Position>
              <LatitudeDegrees>41.3046430237591266632080078125</LatitudeDegrees>
              <LongitudeDegrees>-1.64135224185883998870849609375</LongitudeDegrees>
            </Position>
            <AltitudeMeters>558</AltitudeMeters>
            <DistanceMeters>506344.12829245</DistanceMeters>
          </Trackpoint>
          <Trackpoint>
            <Time>2021-08-03T07:42:29.000Z</Time>
            <Position>
              <LatitudeDegrees>41.3042856194078922271728515625</LatitudeDegrees>
              <LongitudeDegrees>-1.64111603982746601104736328125</LongitudeDegrees>
            </Position>
            <AltitudeMeters>558.20001220703125</AltitudeMeters>
            <DistanceMeters>506388.5407534</DistanceMeters>
          </Trackpoint>
          <Trackpoint>
            <Time>2021-08-03T07:42:41.000Z</Time>
            <Position>
              <LatitudeDegrees>41.30379485897719860076904296875</LatitudeDegrees>
              <LongitudeDegrees>-1.64078730158507823944091796875</LongitudeDegrees>
            </Position>
            <AltitudeMeters>558.5999755859375</AltitudeMeters>
            <DistanceMeters>506449.68924426</DistanceMeters>
          </Trackpoint>
          <Trackpoint>
            <Time>2021-08-03T07:42:53.000Z</Time>
            <Position>
              <LatitudeDegrees>41.30329730920493602752685546875</LatitudeDegrees>
              <LongitudeDegrees>-1.64046124555170536041259765625</LongitudeDegrees>
            </Position>
            <AltitudeMeters>559.20001220703125</AltitudeMeters>
            <DistanceMeters>506511.4143438</DistanceMeters>
          </Trackpoint>
          <Trackpoint>
            <Time>2021-08-03T07:42:57.000Z</Time>
            <Position>
              <LatitudeDegrees>41.30313067696988582611083984375</LatitudeDegrees>
              <LongitudeDegrees>-1.64035378955304622650146484375</LongitudeDegrees>
            </Position>
            <AltitudeMeters>559.4000244140625</AltitudeMeters>
            <DistanceMeters>506532.02265657</DistanceMeters>
          </Trackpoint>
          <Trackpoint>
            <Time>2021-08-03T07:43:09.000Z</Time>
            <Position>
              <LatitudeDegrees>41.30263321101665496826171875</LatitudeDegrees>
              <LongitudeDegrees>-1.64003946818411350250244140625</LongitudeDegrees>
            </Position>
            <AltitudeMeters>560.20001220703125</AltitudeMeters>
            <DistanceMeters>506593.31245638</DistanceMeters>
          </Trackpoint>
          <Trackpoint>
            <Time>2021-08-03T07:43:18.000Z</Time>
            <Position>
              <LatitudeDegrees>41.30230405367910861968994140625</LatitudeDegrees>
              <LongitudeDegrees>-1.63979086093604564666748046875</LongitudeDegrees>
            </Position>
            <AltitudeMeters>560.4000244140625</AltitudeMeters>
            <DistanceMeters>506635.43470228</DistanceMeters>
          </Trackpoint>
          <Trackpoint>
            <Time>2021-08-03T07:43:31.000Z</Time>
            <Position>
              <LatitudeDegrees>41.301789991557598114013671875</LatitudeDegrees>
              <LongitudeDegrees>-1.63947620429098606109619140625</LongitudeDegrees>
            </Position>
            <AltitudeMeters>561</AltitudeMeters>
            <DistanceMeters>506698.41010393</DistanceMeters>
          </Trackpoint>
          <Trackpoint>
            <Time>2021-08-03T07:43:43.000Z</Time>
            <Position>
              <LatitudeDegrees>41.30130476318299770355224609375</LatitudeDegrees>
              <LongitudeDegrees>-1.639141850173473358154296875</LongitudeDegrees>
            </Position>
            <AltitudeMeters>561.4000244140625</AltitudeMeters>
            <DistanceMeters>506759.22408299</DistanceMeters>
          </Trackpoint>
          <Trackpoint>
            <Time>2021-08-03T07:43:49.000Z</Time>
            <Position>
              <LatitudeDegrees>41.3010713271796703338623046875</LatitudeDegrees>
              <LongitudeDegrees>-1.6389908082783222198486328125</LongitudeDegrees>
            </Position>
            <AltitudeMeters>561.5999755859375</AltitudeMeters>
            <DistanceMeters>506788.11282933</DistanceMeters>
          </Trackpoint>
          <Trackpoint>
            <Time>2021-08-03T07:43:50.000Z</Time>
            <Position>
              <LatitudeDegrees>41.30103168077766895294189453125</LatitudeDegrees>
              <LongitudeDegrees>-1.63897630758583545684814453125</LongitudeDegrees>
            </Position>
            <AltitudeMeters>561.5999755859375</AltitudeMeters>
            <DistanceMeters>506792.68794869</DistanceMeters>
          </Trackpoint>
          <Trackpoint>
            <Time>2021-08-03T07:43:57.000Z</Time>
            <Position>
              <LatitudeDegrees>41.30076949484646320343017578125</LatitudeDegrees>
              <LongitudeDegrees>-1.63893188349902629852294921875</LongitudeDegrees>
            </Position>
            <AltitudeMeters>562.5999755859375</AltitudeMeters>
            <DistanceMeters>506822.1051254</DistanceMeters>
          </Trackpoint>
          <Trackpoint>
            <Time>2021-08-03T07:43:59.000Z</Time>
            <Position>
              <LatitudeDegrees>41.3006995059549808502197265625</LatitudeDegrees>
              <LongitudeDegrees>-1.63888544775545597076416015625</LongitudeDegrees>
            </Position>
            <AltitudeMeters>562.79998779296875</AltitudeMeters>
            <DistanceMeters>506830.80824445</DistanceMeters>
          </Trackpoint>
          <Trackpoint>
            <Time>2021-08-03T07:44:12.000Z</Time>
            <Position>
              <LatitudeDegrees>41.30024881102144718170166015625</LatitudeDegrees>
              <LongitudeDegrees>-1.63864203728735446929931640625</LongitudeDegrees>
            </Position>
            <AltitudeMeters>563.79998779296875</AltitudeMeters>
            <DistanceMeters>506884.94320468</DistanceMeters>
          </Trackpoint>
          <Trackpoint>
            <Time>2021-08-03T07:44:23.000Z</Time>
            <Position>
              <LatitudeDegrees>41.29990448243916034698486328125</LatitudeDegrees>
              <LongitudeDegrees>-1.63855838589370250701904296875</LongitudeDegrees>
            </Position>
            <AltitudeMeters>564.79998779296875</AltitudeMeters>
            <DistanceMeters>506923.90068083</DistanceMeters>
          </Trackpoint>
          <Trackpoint>
            <Time>2021-08-03T07:44:25.000Z</Time>
            <Position>
              <LatitudeDegrees>41.29984865896403789520263671875</LatitudeDegrees>
              <LongitudeDegrees>-1.63853441365063190460205078125</LongitudeDegrees>
            </Position>
            <AltitudeMeters>565</AltitudeMeters>
            <DistanceMeters>506930.4292305</DistanceMeters>
          </Trackpoint>
          <Trackpoint>
            <Time>2021-08-03T07:44:35.000Z</Time>
            <Position>
              <LatitudeDegrees>41.29958161152899265289306640625</LatitudeDegrees>
              <LongitudeDegrees>-1.63815119303762912750244140625</LongitudeDegrees>
            </Position>
            <AltitudeMeters>564.20001220703125</AltitudeMeters>
            <DistanceMeters>506974.1358378</DistanceMeters>
          </Trackpoint>
          <Trackpoint>
            <Time>2021-08-03T07:44:37.000Z</Time>
            <Position>
              <LatitudeDegrees>41.29951070062816143035888671875</LatitudeDegrees>
              <LongitudeDegrees>-1.6380858980119228363037109375</LongitudeDegrees>
            </Position>
            <AltitudeMeters>564.20001220703125</AltitudeMeters>
            <DistanceMeters>506983.73306551</DistanceMeters>
          </Trackpoint>
          <Trackpoint>
            <Time>2021-08-03T07:44:40.000Z</Time>
            <Position>
              <LatitudeDegrees>41.2994080223143100738525390625</LatitudeDegrees>
              <LongitudeDegrees>-1.6379631869494915008544921875</LongitudeDegrees>
            </Position>
            <AltitudeMeters>563.79998779296875</AltitudeMeters>
            <DistanceMeters>506999.09215783</DistanceMeters>
          </Trackpoint>
          <Trackpoint>
            <Time>2021-08-03T07:44:41.000Z</Time>
            <Position>
              <LatitudeDegrees>41.2993684597313404083251953125</LatitudeDegrees>
              <LongitudeDegrees>-1.63792454637587070465087890625</LongitudeDegrees>
            </Position>
            <AltitudeMeters>563.5999755859375</AltitudeMeters>
            <DistanceMeters>507004.55350771</DistanceMeters>
          </Trackpoint>
          <Trackpoint>
            <Time>2021-08-03T07:44:54.000Z</Time>
            <Position>
              <LatitudeDegrees>41.29886127077043056488037109375</LatitudeDegrees>
              <LongitudeDegrees>-1.63760150782763957977294921875</LongitudeDegrees>
            </Position>
            <AltitudeMeters>563.79998779296875</AltitudeMeters>
            <DistanceMeters>507067.13435314</DistanceMeters>
          </Trackpoint>
          <Trackpoint>
            <Time>2021-08-03T07:45:09.000Z</Time>
            <Position>
              <LatitudeDegrees>41.29837294109165668487548828125</LatitudeDegrees>
              <LongitudeDegrees>-1.63728903047740459442138671875</LongitudeDegrees>
            </Position>
            <AltitudeMeters>564.4000244140625</AltitudeMeters>
            <DistanceMeters>507127.44083967</DistanceMeters>
          </Trackpoint>
          <Trackpoint>
            <Time>2021-08-03T07:45:24.000Z</Time>
            <Position>
              <LatitudeDegrees>41.29787363111972808837890625</LatitudeDegrees>
              <LongitudeDegrees>-1.63697554729878902435302734375</LongitudeDegrees>
            </Position>
            <AltitudeMeters>564.79998779296875</AltitudeMeters>
            <DistanceMeters>507188.88690905</DistanceMeters>
          </Trackpoint>
          <Trackpoint>
            <Time>2021-08-03T07:45:26.000Z</Time>
            <Position>
              <LatitudeDegrees>41.2977919913828372955322265625</LatitudeDegrees>
              <LongitudeDegrees>-1.6369521617889404296875</LongitudeDegrees>
            </Position>
            <AltitudeMeters>564.79998779296875</AltitudeMeters>
            <DistanceMeters>507198.18108525</DistanceMeters>
          </Trackpoint>
          <Trackpoint>
            <Time>2021-08-03T07:45:27.000Z</Time>
            <Position>
              <LatitudeDegrees>41.297752596437931060791015625</LatitudeDegrees>
              <LongitudeDegrees>-1.6369369067251682281494140625</LongitudeDegrees>
            </Position>
            <AltitudeMeters>565</AltitudeMeters>
            <DistanceMeters>507202.74632527</DistanceMeters>
          </Trackpoint>
          <Trackpoint>
            <Time>2021-08-03T07:45:41.000Z</Time>
            <Position>
              <LatitudeDegrees>41.29726401530206203460693359375</LatitudeDegrees>
              <LongitudeDegrees>-1.63660825230181217193603515625</LongitudeDegrees>
            </Position>
            <AltitudeMeters>565.20001220703125</AltitudeMeters>
            <DistanceMeters>507263.6761622</DistanceMeters>
          </Trackpoint>
          <Trackpoint>
            <Time>2021-08-03T07:45:56.000Z</Time>
            <Position>
              <LatitudeDegrees>41.29676797427237033843994140625</LatitudeDegrees>
              <LongitudeDegrees>-1.6362951882183551788330078125</LongitudeDegrees>
            </Position>
            <AltitudeMeters>565.5999755859375</AltitudeMeters>
            <DistanceMeters>507324.77856122</DistanceMeters>
          </Trackpoint>
          <Trackpoint>
            <Time>2021-08-03T07:46:01.000Z</Time>
            <Position>
              <LatitudeDegrees>41.2966118194162845611572265625</LatitudeDegrees>
              <LongitudeDegrees>-1.63618714548647403717041015625</LongitudeDegrees>
            </Position>
            <AltitudeMeters>566</AltitudeMeters>
            <DistanceMeters>507344.36697637</DistanceMeters>
          </Trackpoint>
          <Trackpoint>
            <Time>2021-08-03T07:46:18.000Z</Time>
            <Position>
              <LatitudeDegrees>41.29612323828041553497314453125</LatitudeDegrees>
              <LongitudeDegrees>-1.63613031618297100067138671875</LongitudeDegrees>
            </Position>
            <AltitudeMeters>566.4000244140625</AltitudeMeters>
            <DistanceMeters>507398.95426166</DistanceMeters>
          </Trackpoint>
          <Trackpoint>
            <Time>2021-08-03T07:46:26.000Z</Time>
            <Position>
              <LatitudeDegrees>41.2959563545882701873779296875</LatitudeDegrees>
              <LongitudeDegrees>-1.63638579659163951873779296875</LongitudeDegrees>
            </Position>
            <AltitudeMeters>567</AltitudeMeters>
            <DistanceMeters>507427.26361143</DistanceMeters>
          </Trackpoint>
          <Trackpoint>
            <Time>2021-08-03T07:46:29.000Z</Time>
            <Position>
              <LatitudeDegrees>41.295888125896453857421875</LatitudeDegrees>
              <LongitudeDegrees>-1.63641915656626224517822265625</LongitudeDegrees>
            </Position>
            <AltitudeMeters>567.20001220703125</AltitudeMeters>
            <DistanceMeters>507435.35372849</DistanceMeters>
          </Trackpoint>
          <Trackpoint>
            <Time>2021-08-03T07:46:33.000Z</Time>
            <Position>
              <LatitudeDegrees>41.29582442343235015869140625</LatitudeDegrees>
              <LongitudeDegrees>-1.6362841241061687469482421875</LongitudeDegrees>
            </Position>
            <AltitudeMeters>567.20001220703125</AltitudeMeters>
            <DistanceMeters>507448.68730059</DistanceMeters>
          </Trackpoint>
          <Trackpoint>
            <Time>2021-08-03T07:46:48.000Z</Time>
            <Position>
              <LatitudeDegrees>41.295544467866420745849609375</LatitudeDegrees>
              <LongitudeDegrees>-1.63569889962673187255859375</LongitudeDegrees>
            </Position>
            <AltitudeMeters>567.4000244140625</AltitudeMeters>
            <DistanceMeters>507506.70326937</DistanceMeters>
          </Trackpoint>
          <Trackpoint>
            <Time>2021-08-03T07:47:04.000Z</Time>
            <Position>
              <LatitudeDegrees>41.29510550759732723236083984375</LatitudeDegrees>
              <LongitudeDegrees>-1.63522037677466869354248046875</LongitudeDegrees>
            </Position>
            <AltitudeMeters>568</AltitudeMeters>
            <DistanceMeters>507569.85601051</DistanceMeters>
          </Trackpoint>
          <Trackpoint>
            <Time>2021-08-03T07:47:08.000Z</Time>
            <Position>
              <LatitudeDegrees>41.29497776739299297332763671875</LatitudeDegrees>
              <LongitudeDegrees>-1.6351282596588134765625</LongitudeDegrees>
            </Position>
            <AltitudeMeters>568.20001220703125</AltitudeMeters>
            <DistanceMeters>507586.02619583</DistanceMeters>
          </Trackpoint>
          <Trackpoint>
            <Time>2021-08-03T07:47:24.000Z</Time>
            <Position>
              <LatitudeDegrees>41.29446898587048053741455078125</LatitudeDegrees>
              <LongitudeDegrees>-1.634789966046810150146484375</LongitudeDegrees>
            </Position>
            <AltitudeMeters>568.4000244140625</AltitudeMeters>
            <DistanceMeters>507649.32754102</DistanceMeters>
          </Trackpoint>
          <Trackpoint>
            <Time>2021-08-03T07:47:40.000Z</Time>
            <Position>
              <LatitudeDegrees>41.29395718686282634735107421875</LatitudeDegrees>
              <LongitudeDegrees>-1.6344494931399822235107421875</LongitudeDegrees>
            </Position>
            <AltitudeMeters>568.79998779296875</AltitudeMeters>
            <DistanceMeters>507713.01089734</DistanceMeters>
          </Trackpoint>
          <Trackpoint>
            <Time>2021-08-03T07:47:54.000Z</Time>
            <Position>
              <LatitudeDegrees>41.2934565357863903045654296875</LatitudeDegrees>
              <LongitudeDegrees>-1.63415134884417057037353515625</LongitudeDegrees>
            </Position>
            <AltitudeMeters>569</AltitudeMeters>
            <DistanceMeters>507774.05770355</DistanceMeters>
          </Trackpoint>
          <Trackpoint>
            <Time>2021-08-03T07:48:00.000Z</Time>
            <Position>
              <LatitudeDegrees>41.29324304871261119842529296875</LatitudeDegrees>
              <LongitudeDegrees>-1.634021513164043426513671875</LongitudeDegrees>
            </Position>
            <AltitudeMeters>569.20001220703125</AltitudeMeters>
            <DistanceMeters>507800.18227393</DistanceMeters>
          </Trackpoint>
          <Trackpoint>
            <Time>2021-08-03T07:48:17.000Z</Time>
            <Position>
              <LatitudeDegrees>41.292759664356708526611328125</LatitudeDegrees>
              <LongitudeDegrees>-1.63369503803551197052001953125</LongitudeDegrees>
            </Position>
            <AltitudeMeters>570</AltitudeMeters>
            <DistanceMeters>507860.51480897</DistanceMeters>
          </Trackpoint>
          <Trackpoint>
            <Time>2021-08-03T07:48:19.000Z</Time>
            <Position>
              <LatitudeDegrees>41.29270208068192005157470703125</LatitudeDegrees>
              <LongitudeDegrees>-1.63365614600479602813720703125</LongitudeDegrees>
            </Position>
            <AltitudeMeters>570.4000244140625</AltitudeMeters>
            <DistanceMeters>507867.70174415</DistanceMeters>
          </Trackpoint>
          <Trackpoint>
            <Time>2021-08-03T07:48:35.000Z</Time>
            <Position>
              <LatitudeDegrees>41.2922039441764354705810546875</LatitudeDegrees>
              <LongitudeDegrees>-1.63332807831466197967529296875</LongitudeDegrees>
            </Position>
            <AltitudeMeters>571.4000244140625</AltitudeMeters>
            <DistanceMeters>507929.56187262</DistanceMeters>
          </Trackpoint>
          <Trackpoint>
            <Time>2021-08-03T07:48:51.000Z</Time>
            <Position>
              <LatitudeDegrees>41.29168686456978321075439453125</LatitudeDegrees>
              <LongitudeDegrees>-1.6330004297196865081787109375</LongitudeDegrees>
            </Position>
            <AltitudeMeters>571.4000244140625</AltitudeMeters>
            <DistanceMeters>507993.30362233</DistanceMeters>
          </Trackpoint>
          <Trackpoint>
            <Time>2021-08-03T07:49:05.000Z</Time>
            <Position>
              <LatitudeDegrees>41.29127179272472858428955078125</LatitudeDegrees>
              <LongitudeDegrees>-1.63271628320217132568359375</LongitudeDegrees>
            </Position>
            <AltitudeMeters>572.4000244140625</AltitudeMeters>
            <DistanceMeters>508045.25499736</DistanceMeters>
          </Trackpoint>
          <Trackpoint>
            <Time>2021-08-03T07:49:21.000Z</Time>
            <Position>
              <LatitudeDegrees>41.29077918827533721923828125</LatitudeDegrees>
              <LongitudeDegrees>-1.632357202470302581787109375</LongitudeDegrees>
            </Position>
            <AltitudeMeters>573</AltitudeMeters>
            <DistanceMeters>508107.76791532</DistanceMeters>
          </Trackpoint>
          <Trackpoint>
            <Time>2021-08-03T07:49:27.000Z</Time>
            <Position>
              <LatitudeDegrees>41.29061280749738216400146484375</LatitudeDegrees>
              <LongitudeDegrees>-1.6322209127247333526611328125</LongitudeDegrees>
            </Position>
            <AltitudeMeters>573.4000244140625</AltitudeMeters>
            <DistanceMeters>508129.5128433</DistanceMeters>
          </Trackpoint>
          <Trackpoint>
            <Time>2021-08-03T07:49:35.000Z</Time>
            <Position>
              <LatitudeDegrees>41.29040644504129886627197265625</LatitudeDegrees>
              <LongitudeDegrees>-1.6320365108549594879150390625</LongitudeDegrees>
            </Position>
            <AltitudeMeters>574.5999755859375</AltitudeMeters>
            <DistanceMeters>508157.17802339</DistanceMeters>
          </Trackpoint>
          <Trackpoint>
            <Time>2021-08-03T07:49:41.000Z</Time>
            <Position>
              <LatitudeDegrees>41.29025590606033802032470703125</LatitudeDegrees>
              <LongitudeDegrees>-1.631907261908054351806640625</LongitudeDegrees>
            </Position>
            <AltitudeMeters>575.5999755859375</AltitudeMeters>
            <DistanceMeters>508177.11733645</DistanceMeters>
          </Trackpoint>
          <Trackpoint>
            <Time>2021-08-03T07:49:57.000Z</Time>
            <Position>
              <LatitudeDegrees>41.2897874414920806884765625</LatitudeDegrees>
              <LongitudeDegrees>-1.631470061838626861572265625</LongitudeDegrees>
            </Position>
            <AltitudeMeters>575.79998779296875</AltitudeMeters>
            <DistanceMeters>508240.80048008</DistanceMeters>
          </Trackpoint>
          <Trackpoint>
            <Time>2021-08-03T07:50:08.000Z</Time>
            <Position>
              <LatitudeDegrees>41.2894768081605434417724609375</LatitudeDegrees>
              <LongitudeDegrees>-1.6311507113277912139892578125</LongitudeDegrees>
            </Position>
            <AltitudeMeters>576.5999755859375</AltitudeMeters>
            <DistanceMeters>508284.48859217</DistanceMeters>
          </Trackpoint>
          <Trackpoint>
            <Time>2021-08-03T07:50:21.000Z</Time>
            <Position>
              <LatitudeDegrees>41.28913692198693752288818359375</LatitudeDegrees>
              <LongitudeDegrees>-1.630812585353851318359375</LongitudeDegrees>
            </Position>
            <AltitudeMeters>577.79998779296875</AltitudeMeters>
            <DistanceMeters>508331.71925916</DistanceMeters>
          </Trackpoint>
          <Trackpoint>
            <Time>2021-08-03T07:50:37.000Z</Time>
            <Position>
              <LatitudeDegrees>41.288680694997310638427734375</LatitudeDegrees>
              <LongitudeDegrees>-1.63034630008041858673095703125</LongitudeDegrees>
            </Position>
            <AltitudeMeters>578.79998779296875</AltitudeMeters>
            <DistanceMeters>508395.74427928</DistanceMeters>
          </Trackpoint>
          <Trackpoint>
            <Time>2021-08-03T07:50:54.000Z</Time>
            <Position>
              <LatitudeDegrees>41.2882156670093536376953125</LatitudeDegrees>
              <LongitudeDegrees>-1.62990306504070758819580078125</LongitudeDegrees>
            </Position>
            <AltitudeMeters>579.79998779296875</AltitudeMeters>
            <DistanceMeters>508459.407781</DistanceMeters>
          </Trackpoint>
          <Trackpoint>
            <Time>2021-08-03T07:50:55.000Z</Time>
            <Position>
              <LatitudeDegrees>41.2881870009005069732666015625</LatitudeDegrees>
              <LongitudeDegrees>-1.62987456656992435455322265625</LongitudeDegrees>
            </Position>
            <AltitudeMeters>579.79998779296875</AltitudeMeters>
            <DistanceMeters>508463.38984255</DistanceMeters>
          </Trackpoint>
          <Trackpoint>
            <Time>2021-08-03T07:51:10.000Z</Time>
            <Position>
              <LatitudeDegrees>41.287758350372314453125</LatitudeDegrees>
              <LongitudeDegrees>-1.629428900778293609619140625</LongitudeDegrees>
            </Position>
            <AltitudeMeters>580.20001220703125</AltitudeMeters>
            <DistanceMeters>508523.93267408</DistanceMeters>
          </Trackpoint>
          <Trackpoint>
            <Time>2021-08-03T07:51:21.000Z</Time>
            <Position>
              <LatitudeDegrees>41.28753212280571460723876953125</LatitudeDegrees>
              <LongitudeDegrees>-1.629296801984310150146484375</LongitudeDegrees>
            </Position>
            <AltitudeMeters>580.79998779296875</AltitudeMeters>
            <DistanceMeters>508551.42940554</DistanceMeters>
          </Trackpoint>
          <Trackpoint>
            <Time>2021-08-03T07:51:31.000Z</Time>
            <Position>
              <LatitudeDegrees>41.28735895268619060516357421875</LatitudeDegrees>
              <LongitudeDegrees>-1.62912555970251560211181640625</LongitudeDegrees>
            </Position>
            <AltitudeMeters>581.79998779296875</AltitudeMeters>
            <DistanceMeters>508575.44203765</DistanceMeters>
          </Trackpoint>
          <Trackpoint>
            <Time>2021-08-03T07:51:33.000Z</Time>
            <Position>
              <LatitudeDegrees>41.28732626326382160186767578125</LatitudeDegrees>
              <LongitudeDegrees>-1.6291001625359058380126953125</LongitudeDegrees>
            </Position>
            <AltitudeMeters>582</AltitudeMeters>
            <DistanceMeters>508579.65548402</DistanceMeters>
          </Trackpoint>
          <Trackpoint>
            <Time>2021-08-03T07:51:49.000Z</Time>
            <Position>
              <LatitudeDegrees>41.28689208067953586578369140625</LatitudeDegrees>
              <LongitudeDegrees>-1.62862298078835010528564453125</LongitudeDegrees>
            </Position>
            <AltitudeMeters>582</AltitudeMeters>
            <DistanceMeters>508642.32947442</DistanceMeters>
          </Trackpoint>
          <Trackpoint>
            <Time>2021-08-03T07:52:03.000Z</Time>
            <Position>
              <LatitudeDegrees>41.28644163720309734344482421875</LatitudeDegrees>
              <LongitudeDegrees>-1.628221906721591949462890625</LongitudeDegrees>
            </Position>
            <AltitudeMeters>582.5999755859375</AltitudeMeters>
            <DistanceMeters>508702.65115728</DistanceMeters>
          </Trackpoint>
          <Trackpoint>
            <Time>2021-08-03T07:52:23.000Z</Time>
            <Position>
              <LatitudeDegrees>41.2861512042582035064697265625</LatitudeDegrees>
              <LongitudeDegrees>-1.62767314352095127105712890625</LongitudeDegrees>
            </Position>
            <AltitudeMeters>582.20001220703125</AltitudeMeters>
            <DistanceMeters>508758.78830441</DistanceMeters>
          </Trackpoint>
          <Trackpoint>
            <Time>2021-08-03T07:52:37.000Z</Time>
            <Position>
              <LatitudeDegrees>41.2857260741293430328369140625</LatitudeDegrees>
              <LongitudeDegrees>-1.6272145695984363555908203125</LongitudeDegrees>
            </Position>
            <AltitudeMeters>582.5999755859375</AltitudeMeters>
            <DistanceMeters>508819.69753743</DistanceMeters>
          </Trackpoint>
          <Trackpoint>
            <Time>2021-08-03T07:52:51.000Z</Time>
            <Position>
              <LatitudeDegrees>41.28525408916175365447998046875</LatitudeDegrees>
              <LongitudeDegrees>-1.62678885273635387420654296875</LongitudeDegrees>
            </Position>
            <AltitudeMeters>582.4000244140625</AltitudeMeters>
            <DistanceMeters>508883.1595903</DistanceMeters>
          </Trackpoint>
          <Trackpoint>
            <Time>2021-08-03T07:52:59.000Z</Time>
            <Position>
              <LatitudeDegrees>41.2849844433367252349853515625</LatitudeDegrees>
              <LongitudeDegrees>-1.6265141777694225311279296875</LongitudeDegrees>
            </Position>
            <AltitudeMeters>582.4000244140625</AltitudeMeters>
            <DistanceMeters>508920.95478606</DistanceMeters>
          </Trackpoint>
          <Trackpoint>
            <Time>2021-08-03T07:53:11.000Z</Time>
            <Position>
              <LatitudeDegrees>41.28456140868365764617919921875</LatitudeDegrees>
              <LongitudeDegrees>-1.62611536681652069091796875</LongitudeDegrees>
            </Position>
            <AltitudeMeters>583</AltitudeMeters>
            <DistanceMeters>508978.65674102</DistanceMeters>
          </Trackpoint>
          <Trackpoint>
            <Time>2021-08-03T07:53:13.000Z</Time>
            <Position>
              <LatitudeDegrees>41.28449284471571445465087890625</LatitudeDegrees>
              <LongitudeDegrees>-1.6260501556098461151123046875</LongitudeDegrees>
            </Position>
            <AltitudeMeters>583</AltitudeMeters>
            <DistanceMeters>508988.03698968</DistanceMeters>
          </Trackpoint>
          <Trackpoint>
            <Time>2021-08-03T07:53:26.000Z</Time>
            <Position>
              <LatitudeDegrees>41.2840557284653186798095703125</LatitudeDegrees>
              <LongitudeDegrees>-1.625603400170803070068359375</LongitudeDegrees>
            </Position>
            <AltitudeMeters>582.79998779296875</AltitudeMeters>
            <DistanceMeters>509049.38186768</DistanceMeters>
          </Trackpoint>
          <Trackpoint>
            <Time>2021-08-03T07:53:29.000Z</Time>
            <Position>
              <LatitudeDegrees>41.2839517928659915924072265625</LatitudeDegrees>
              <LongitudeDegrees>-1.62551279179751873016357421875</LongitudeDegrees>
            </Position>
            <AltitudeMeters>583</AltitudeMeters>
            <DistanceMeters>509063.21143814</DistanceMeters>
          </Trackpoint>
          <Trackpoint>
            <Time>2021-08-03T07:53:36.000Z</Time>
            <Position>
              <LatitudeDegrees>41.28371265716850757598876953125</LatitudeDegrees>
              <LongitudeDegrees>-1.62525705993175506591796875</LongitudeDegrees>
            </Position>
            <AltitudeMeters>582</AltitudeMeters>
            <DistanceMeters>509097.35685203</DistanceMeters>
          </Trackpoint>
          <Trackpoint>
            <Time>2021-08-03T07:53:47.000Z</Time>
            <Position>
              <LatitudeDegrees>41.28327579237520694732666015625</LatitudeDegrees>
              <LongitudeDegrees>-1.62482413463294506072998046875</LongitudeDegrees>
            </Position>
            <AltitudeMeters>581.4000244140625</AltitudeMeters>
            <DistanceMeters>509157.98181054</DistanceMeters>
          </Trackpoint>
          <Trackpoint>
            <Time>2021-08-03T07:53:59.000Z</Time>
            <Position>
              <LatitudeDegrees>41.2828058190643787384033203125</LatitudeDegrees>
              <LongitudeDegrees>-1.6243717633187770843505859375</LongitudeDegrees>
            </Position>
            <AltitudeMeters>581</AltitudeMeters>
            <DistanceMeters>509222.54006773</DistanceMeters>
          </Trackpoint>
          <Trackpoint>
            <Time>2021-08-03T07:54:00.000Z</Time>
            <Position>
              <LatitudeDegrees>41.2827639095485210418701171875</LatitudeDegrees>
              <LongitudeDegrees>-1.62433563731610774993896484375</LongitudeDegrees>
            </Position>
            <AltitudeMeters>581</AltitudeMeters>
            <DistanceMeters>509228.09811519</DistanceMeters>
          </Trackpoint>
          <Trackpoint>
            <Time>2021-08-03T07:54:11.000Z</Time>
            <Position>
              <LatitudeDegrees>41.28232293762266635894775390625</LatitudeDegrees>
              <LongitudeDegrees>-1.6239067353308200836181640625</LongitudeDegrees>
            </Position>
            <AltitudeMeters>580.79998779296875</AltitudeMeters>
            <DistanceMeters>509288.89152534</DistanceMeters>
          </Trackpoint>
          <Trackpoint>
            <Time>2021-08-03T07:54:23.000Z</Time>
            <Position>
              <LatitudeDegrees>41.28185958601534366607666015625</LatitudeDegrees>
              <LongitudeDegrees>-1.62342871539294719696044921875</LongitudeDegrees>
            </Position>
            <AltitudeMeters>581</AltitudeMeters>
            <DistanceMeters>509354.1464469</DistanceMeters>
          </Trackpoint>
          <Trackpoint>
            <Time>2021-08-03T07:54:35.000Z</Time>
            <Position>
              <LatitudeDegrees>41.28142691217362880706787109375</LatitudeDegrees>
              <LongitudeDegrees>-1.62297927774488925933837890625</LongitudeDegrees>
            </Position>
            <AltitudeMeters>581.4000244140625</AltitudeMeters>
            <DistanceMeters>509415.23850002</DistanceMeters>
          </Trackpoint>
          <Trackpoint>
            <Time>2021-08-03T07:54:44.000Z</Time>
            <Position>
              <LatitudeDegrees>41.2811411730945110321044921875</LatitudeDegrees>
              <LongitudeDegrees>-1.62267467938363552093505859375</LongitudeDegrees>
            </Position>
            <AltitudeMeters>582</AltitudeMeters>
            <DistanceMeters>509455.98801164</DistanceMeters>
          </Trackpoint>
          <Trackpoint>
            <Time>2021-08-03T07:54:48.000Z</Time>
            <Position>
              <LatitudeDegrees>41.28101267851889133453369140625</LatitudeDegrees>
              <LongitudeDegrees>-1.62253822200000286102294921875</LongitudeDegrees>
            </Position>
            <AltitudeMeters>582.20001220703125</AltitudeMeters>
            <DistanceMeters>509474.28552825</DistanceMeters>
          </Trackpoint>
          <Trackpoint>
            <Time>2021-08-03T07:54:56.000Z</Time>
            <Position>
              <LatitudeDegrees>41.2807777337729930877685546875</LatitudeDegrees>
              <LongitudeDegrees>-1.622300259768962860107421875</LongitudeDegrees>
            </Position>
            <AltitudeMeters>583</AltitudeMeters>
            <DistanceMeters>509507.14828867</DistanceMeters>
          </Trackpoint>
          <Trackpoint>
            <Time>2021-08-03T07:55:12.000Z</Time>
            <Position>
              <LatitudeDegrees>41.28034195862710475921630859375</LatitudeDegrees>
              <LongitudeDegrees>-1.62186498753726482391357421875</LongitudeDegrees>
            </Position>
            <AltitudeMeters>583.4000244140625</AltitudeMeters>
            <DistanceMeters>509567.79469216</DistanceMeters>
          </Trackpoint>
          <Trackpoint>
            <Time>2021-08-03T07:55:25.000Z</Time>
            <Position>
              <LatitudeDegrees>41.28007809631526470184326171875</LatitudeDegrees>
              <LongitudeDegrees>-1.6216020472347736358642578125</LongitudeDegrees>
            </Position>
            <AltitudeMeters>583.5999755859375</AltitudeMeters>
            <DistanceMeters>509604.48521909</DistanceMeters>
          </Trackpoint>
          <Trackpoint>
            <Time>2021-08-03T07:55:32.000Z</Time>
            <Position>
              <LatitudeDegrees>41.27995069138705730438232421875</LatitudeDegrees>
              <LongitudeDegrees>-1.621471457183361053466796875</LongitudeDegrees>
            </Position>
            <AltitudeMeters>584.20001220703125</AltitudeMeters>
            <DistanceMeters>509622.38508424</DistanceMeters>
          </Trackpoint>
          <Trackpoint>
            <Time>2021-08-03T07:55:48.000Z</Time>
            <Position>
              <LatitudeDegrees>41.27956462092697620391845703125</LatitudeDegrees>
              <LongitudeDegrees>-1.6210293956100940704345703125</LongitudeDegrees>
            </Position>
            <AltitudeMeters>585.4000244140625</AltitudeMeters>
            <DistanceMeters>509679.07407492</DistanceMeters>
          </Trackpoint>
          <Trackpoint>
            <Time>2021-08-03T07:56:03.000Z</Time>
            <Position>
              <LatitudeDegrees>41.27910529263317584991455078125</LatitudeDegrees>
              <LongitudeDegrees>-1.62058733403682708740234375</LongitudeDegrees>
            </Position>
            <AltitudeMeters>585.20001220703125</AltitudeMeters>
            <DistanceMeters>509742.16837847</DistanceMeters>
          </Trackpoint>
          <Trackpoint>
            <Time>2021-08-03T07:56:20.000Z</Time>
            <Position>
              <LatitudeDegrees>41.27866121940314769744873046875</LatitudeDegrees>
              <LongitudeDegrees>-1.620119623839855194091796875</LongitudeDegrees>
            </Position>
            <AltitudeMeters>586</AltitudeMeters>
            <DistanceMeters>509805.20347399</DistanceMeters>
          </Trackpoint>
          <Trackpoint>
            <Time>2021-08-03T07:56:29.000Z</Time>
            <Position>
              <LatitudeDegrees>41.2784244306385517120361328125</LatitudeDegrees>
              <LongitudeDegrees>-1.6198763810098171234130859375</LongitudeDegrees>
            </Position>
            <AltitudeMeters>586.4000244140625</AltitudeMeters>
            <DistanceMeters>509838.49837216</DistanceMeters>
          </Trackpoint>
          <Trackpoint>
            <Time>2021-08-03T07:56:52.000Z</Time>
            <Position>
              <LatitudeDegrees>41.27796149812638759613037109375</LatitudeDegrees>
              <LongitudeDegrees>-1.619565077126026153564453125</LongitudeDegrees>
            </Position>
            <AltitudeMeters>587.4000244140625</AltitudeMeters>
            <DistanceMeters>509896.2295843</DistanceMeters>
          </Trackpoint>
          <Trackpoint>
            <Time>2021-08-03T07:56:57.000Z</Time>
            <Position>
              <LatitudeDegrees>41.27788983285427093505859375</LatitudeDegrees>
              <LongitudeDegrees>-1.61953381262719631195068359375</LongitudeDegrees>
            </Position>
            <AltitudeMeters>587.4000244140625</AltitudeMeters>
            <DistanceMeters>509904.62319237</DistanceMeters>
          </Trackpoint>
          <Trackpoint>
            <Time>2021-08-03T07:57:00.000Z</Time>
            <Position>
              <LatitudeDegrees>41.27787717618048191070556640625</LatitudeDegrees>
              <LongitudeDegrees>-1.61951310932636260986328125</LongitudeDegrees>
            </Position>
            <AltitudeMeters>587.4000244140625</AltitudeMeters>
            <DistanceMeters>509906.85581464</DistanceMeters>
          </Trackpoint>
          <Trackpoint>
            <Time>2021-08-03T07:58:40.000Z</Time>
            <Position>
              <LatitudeDegrees>41.2778507731854915618896484375</LatitudeDegrees>
              <LongitudeDegrees>-1.61928989924490451812744140625</LongitudeDegrees>
            </Position>
            <AltitudeMeters>590.5999755859375</AltitudeMeters>
            <DistanceMeters>509925.75610019</DistanceMeters>
          </Trackpoint>
          <Trackpoint>
            <Time>2021-08-03T07:58:53.000Z</Time>
            <Position>
              <LatitudeDegrees>41.27764784730970859527587890625</LatitudeDegrees>
              <LongitudeDegrees>-1.61898580379784107208251953125</LongitudeDegrees>
            </Position>
            <AltitudeMeters>591.20001220703125</AltitudeMeters>
            <DistanceMeters>509959.772744</DistanceMeters>
          </Trackpoint>
          <Trackpoint>
            <Time>2021-08-03T07:58:58.000Z</Time>
            <Position>
              <LatitudeDegrees>41.277552545070648193359375</LatitudeDegrees>
              <LongitudeDegrees>-1.61886946298182010650634765625</LongitudeDegrees>
            </Position>
            <AltitudeMeters>591</AltitudeMeters>
            <DistanceMeters>509974.16795828</DistanceMeters>
          </Trackpoint>
          <Trackpoint>
            <Time>2021-08-03T07:59:16.000Z</Time>
            <Position>
              <LatitudeDegrees>41.27719321288168430328369140625</LatitudeDegrees>
              <LongitudeDegrees>-1.618304438889026641845703125</LongitudeDegrees>
            </Position>
            <AltitudeMeters>591.20001220703125</AltitudeMeters>
            <DistanceMeters>510036.08134496</DistanceMeters>
          </Trackpoint>
          <Trackpoint>
            <Time>2021-08-03T07:59:22.000Z</Time>
            <Position>
              <LatitudeDegrees>41.277088187634944915771484375</LatitudeDegrees>
              <LongitudeDegrees>-1.61814694292843341827392578125</LongitudeDegrees>
            </Position>
            <AltitudeMeters>591.79998779296875</AltitudeMeters>
            <DistanceMeters>510053.69387419</DistanceMeters>
          </Trackpoint>
          <Trackpoint>
            <Time>2021-08-03T07:59:52.000Z</Time>
            <Position>
              <LatitudeDegrees>41.2767041288316249847412109375</LatitudeDegrees>
              <LongitudeDegrees>-1.6176226548850536346435546875</LongitudeDegrees>
            </Position>
            <AltitudeMeters>591.5999755859375</AltitudeMeters>
            <DistanceMeters>510114.93540308</DistanceMeters>
          </Trackpoint>
          <Trackpoint>
            <Time>2021-08-03T08:00:10.000Z</Time>
            <Position>
              <LatitudeDegrees>41.2763468921184539794921875</LatitudeDegrees>
              <LongitudeDegrees>-1.61705763079226016998291015625</LongitudeDegrees>
            </Position>
            <AltitudeMeters>592.5999755859375</AltitudeMeters>
            <DistanceMeters>510176.69882003</DistanceMeters>
          </Trackpoint>
          <Trackpoint>
            <Time>2021-08-03T08:00:15.000Z</Time>
            <Position>
              <LatitudeDegrees>41.2762414477765560150146484375</LatitudeDegrees>
              <LongitudeDegrees>-1.61691295914351940155029296875</LongitudeDegrees>
            </Position>
            <AltitudeMeters>593</AltitudeMeters>
            <DistanceMeters>510193.55689127</DistanceMeters>
          </Trackpoint>
          <Trackpoint>
            <Time>2021-08-03T08:00:16.000Z</Time>
            <Position>
              <LatitudeDegrees>41.27623499371111392974853515625</LatitudeDegrees>
              <LongitudeDegrees>-1.616884209215641021728515625</LongitudeDegrees>
            </Position>
            <AltitudeMeters>593.20001220703125</AltitudeMeters>
            <DistanceMeters>510196.06746757</DistanceMeters>
          </Trackpoint>
          <Trackpoint>
            <Time>2021-08-03T08:00:26.000Z</Time>
            <Position>
              <LatitudeDegrees>41.27631495706737041473388671875</LatitudeDegrees>
              <LongitudeDegrees>-1.6166369430720806121826171875</LongitudeDegrees>
            </Position>
            <AltitudeMeters>593.4000244140625</AltitudeMeters>
            <DistanceMeters>510218.5841874</DistanceMeters>
          </Trackpoint>
          <Trackpoint>
            <Time>2021-08-03T08:00:44.000Z</Time>
            <Position>
              <LatitudeDegrees>41.2760251946747303009033203125</LatitudeDegrees>
              <LongitudeDegrees>-1.61603621207177639007568359375</LongitudeDegrees>
            </Position>
            <AltitudeMeters>593.79998779296875</AltitudeMeters>
            <DistanceMeters>510278.29326134</DistanceMeters>
          </Trackpoint>
          <Trackpoint>
            <Time>2021-08-03T08:00:51.000Z</Time>
            <Position>
              <LatitudeDegrees>41.27597331069409847259521484375</LatitudeDegrees>
              <LongitudeDegrees>-1.61580923013389110565185546875</LongitudeDegrees>
            </Position>
            <AltitudeMeters>594.20001220703125</AltitudeMeters>
            <DistanceMeters>510298.13860724</DistanceMeters>
          </Trackpoint>
          <Trackpoint>
            <Time>2021-08-03T08:00:56.000Z</Time>
            <Position>
              <LatitudeDegrees>41.27595235593616962432861328125</LatitudeDegrees>
              <LongitudeDegrees>-1.61573915742337703704833984375</LongitudeDegrees>
            </Position>
            <AltitudeMeters>594.20001220703125</AltitudeMeters>
            <DistanceMeters>510304.44697842</DistanceMeters>
          </Trackpoint>
          <Trackpoint>
            <Time>2021-08-03T08:02:16.000Z</Time>
            <Position>
              <LatitudeDegrees>41.27592871896922588348388671875</LatitudeDegrees>
              <LongitudeDegrees>-1.61568291485309600830078125</LongitudeDegrees>
            </Position>
            <AltitudeMeters>594</AltitudeMeters>
            <DistanceMeters>510309.83759861</DistanceMeters>
          </Trackpoint>
          <Trackpoint>
            <Time>2021-08-03T08:02:35.000Z</Time>
            <Position>
              <LatitudeDegrees>41.2756406329572200775146484375</LatitudeDegrees>
              <LongitudeDegrees>-1.6150693595409393310546875</LongitudeDegrees>
            </Position>
            <AltitudeMeters>594</AltitudeMeters>
            <DistanceMeters>510370.35342763</DistanceMeters>
          </Trackpoint>
          <Trackpoint>
            <Time>2021-08-03T08:02:50.000Z</Time>
            <Position>
              <LatitudeDegrees>41.275308541953563690185546875</LatitudeDegrees>
              <LongitudeDegrees>-1.6144757531583309173583984375</LongitudeDegrees>
            </Position>
            <AltitudeMeters>593.20001220703125</AltitudeMeters>
            <DistanceMeters>510432.25470756</DistanceMeters>
          </Trackpoint>
          <Trackpoint>
            <Time>2021-08-03T08:03:04.000Z</Time>
            <Position>
              <LatitudeDegrees>41.2749747745692729949951171875</LatitudeDegrees>
              <LongitudeDegrees>-1.6139017604291439056396484375</LongitudeDegrees>
            </Position>
            <AltitudeMeters>593.5999755859375</AltitudeMeters>
            <DistanceMeters>510492.96212819</DistanceMeters>
          </Trackpoint>
          <Trackpoint>
            <Time>2021-08-03T08:03:05.000Z</Time>
            <Position>
              <LatitudeDegrees>41.27494879066944122314453125</LatitudeDegrees>
              <LongitudeDegrees>-1.61386010237038135528564453125</LongitudeDegrees>
            </Position>
            <AltitudeMeters>593.5999755859375</AltitudeMeters>
            <DistanceMeters>510497.49062723</DistanceMeters>
          </Trackpoint>
          <Trackpoint>
            <Time>2021-08-03T08:03:18.000Z</Time>
            <Position>
              <LatitudeDegrees>41.274554841220378875732421875</LatitudeDegrees>
              <LongitudeDegrees>-1.61336389370262622833251953125</LongitudeDegrees>
            </Position>
            <AltitudeMeters>593.5999755859375</AltitudeMeters>
            <DistanceMeters>510557.868421</DistanceMeters>
          </Trackpoint>
          <Trackpoint>
            <Time>2021-08-03T08:03:31.000Z</Time>
            <Position>
              <LatitudeDegrees>41.2741328962147235870361328125</LatitudeDegrees>
              <LongitudeDegrees>-1.61291780881583690643310546875</LongitudeDegrees>
            </Position>
            <AltitudeMeters>593.4000244140625</AltitudeMeters>
            <DistanceMeters>510617.85150819</DistanceMeters>
          </Trackpoint>
          <Trackpoint>
            <Time>2021-08-03T08:03:37.000Z</Time>
            <Position>
              <LatitudeDegrees>41.27394036389887332916259765625</LatitudeDegrees>
              <LongitudeDegrees>-1.61271228455007076263427734375</LongitudeDegrees>
            </Position>
            <AltitudeMeters>593.20001220703125</AltitudeMeters>
            <DistanceMeters>510645.32491296</DistanceMeters>
          </Trackpoint>
          <Trackpoint>
            <Time>2021-08-03T08:03:51.000Z</Time>
            <Position>
              <LatitudeDegrees>41.27349277026951313018798828125</LatitudeDegrees>
              <LongitudeDegrees>-1.61229419521987438201904296875</LongitudeDegrees>
            </Position>
            <AltitudeMeters>593.5999755859375</AltitudeMeters>
            <DistanceMeters>510706.19358483</DistanceMeters>
          </Trackpoint>
          <Trackpoint>
            <Time>2021-08-03T08:04:05.000Z</Time>
            <Position>
              <LatitudeDegrees>41.273059509694576263427734375</LatitudeDegrees>
              <LongitudeDegrees>-1.61185766570270061492919921875</LongitudeDegrees>
            </Position>
            <AltitudeMeters>593.79998779296875</AltitudeMeters>
            <DistanceMeters>510766.68225</DistanceMeters>
          </Trackpoint>
          <Trackpoint>
            <Time>2021-08-03T08:04:08.000Z</Time>
            <Position>
              <LatitudeDegrees>41.2729711644351482391357421875</LatitudeDegrees>
              <LongitudeDegrees>-1.61177652888000011444091796875</LongitudeDegrees>
            </Position>
            <AltitudeMeters>594.20001220703125</AltitudeMeters>
            <DistanceMeters>510778.62994636</DistanceMeters>
          </Trackpoint>
          <Trackpoint>
            <Time>2021-08-03T08:04:25.000Z</Time>
            <Position>
              <LatitudeDegrees>41.272724904119968414306640625</LatitudeDegrees>
              <LongitudeDegrees>-1.61160738207399845123291015625</LongitudeDegrees>
            </Position>
            <AltitudeMeters>593.20001220703125</AltitudeMeters>
            <DistanceMeters>510809.4757408</DistanceMeters>
          </Trackpoint>
          <Trackpoint>
            <Time>2021-08-03T08:04:40.000Z</Time>
            <Position>
              <LatitudeDegrees>41.2722377479076385498046875</LatitudeDegrees>
              <LongitudeDegrees>-1.61124813370406627655029296875</LongitudeDegrees>
            </Position>
            <AltitudeMeters>592.5999755859375</AltitudeMeters>
            <DistanceMeters>510871.46834636</DistanceMeters>
          </Trackpoint>
          <Trackpoint>
            <Time>2021-08-03T08:04:47.000Z</Time>
            <Position>
              <LatitudeDegrees>41.27201101742684841156005859375</LatitudeDegrees>
              <LongitudeDegrees>-1.61107261665165424346923828125</LongitudeDegrees>
            </Position>
            <AltitudeMeters>592.5999755859375</AltitudeMeters>
            <DistanceMeters>510900.6642895</DistanceMeters>
          </Trackpoint>
          <Trackpoint>
            <Time>2021-08-03T08:04:49.000Z</Time>
            <Position>
              <LatitudeDegrees>41.271952092647552490234375</LatitudeDegrees>
              <LongitudeDegrees>-1.6109942458570003509521484375</LongitudeDegrees>
            </Position>
            <AltitudeMeters>592.20001220703125</AltitudeMeters>
            <DistanceMeters>510909.93755311</DistanceMeters>
          </Trackpoint>
          <Trackpoint>
            <Time>2021-08-03T08:04:50.000Z</Time>
            <Position>
              <LatitudeDegrees>41.2719180621206760406494140625</LatitudeDegrees>
              <LongitudeDegrees>-1.6109623946249485015869140625</LongitudeDegrees>
            </Position>
            <AltitudeMeters>592</AltitudeMeters>
            <DistanceMeters>510914.56760726</DistanceMeters>
          </Trackpoint>
          <Trackpoint>
            <Time>2021-08-03T08:05:04.000Z</Time>
            <Position>
              <LatitudeDegrees>41.27142629586160182952880859375</LatitudeDegrees>
              <LongitudeDegrees>-1.6106437146663665771484375</LongitudeDegrees>
            </Position>
            <AltitudeMeters>591.79998779296875</AltitudeMeters>
            <DistanceMeters>510975.44911035</DistanceMeters>
          </Trackpoint>
          <Trackpoint>
            <Time>2021-08-03T08:05:11.000Z</Time>
            <Position>
              <LatitudeDegrees>41.27122462727129459381103515625</LatitudeDegrees>
              <LongitudeDegrees>-1.61049376241862773895263671875</LongitudeDegrees>
            </Position>
            <AltitudeMeters>591</AltitudeMeters>
            <DistanceMeters>511001.16257369</DistanceMeters>
          </Trackpoint>
          <Trackpoint>
            <Time>2021-08-03T08:05:31.000Z</Time>
            <Position>
              <LatitudeDegrees>41.27075113356113433837890625</LatitudeDegrees>
              <LongitudeDegrees>-1.61012110300362110137939453125</LongitudeDegrees>
            </Position>
            <AltitudeMeters>590</AltitudeMeters>
            <DistanceMeters>511062.39348524</DistanceMeters>
          </Trackpoint>
          <Trackpoint>
            <Time>2021-08-03T08:05:36.000Z</Time>
            <Position>
              <LatitudeDegrees>41.270608641207218170166015625</LatitudeDegrees>
              <LongitudeDegrees>-1.61001347936689853668212890625</LongitudeDegrees>
            </Position>
            <AltitudeMeters>589.79998779296875</AltitudeMeters>
            <DistanceMeters>511080.63069379</DistanceMeters>
          </Trackpoint>
          <Trackpoint>
            <Time>2021-08-03T08:05:52.000Z</Time>
            <Position>
              <LatitudeDegrees>41.27010413445532321929931640625</LatitudeDegrees>
              <LongitudeDegrees>-1.60965020768344402313232421875</LongitudeDegrees>
            </Position>
            <AltitudeMeters>589.79998779296875</AltitudeMeters>
            <DistanceMeters>511144.47931218</DistanceMeters>
          </Trackpoint>
          <Trackpoint>
            <Time>2021-08-03T08:06:08.000Z</Time>
            <Position>
              <LatitudeDegrees>41.26961932517588138580322265625</LatitudeDegrees>
              <LongitudeDegrees>-1.60925709642469882965087890625</LongitudeDegrees>
            </Position>
            <AltitudeMeters>590</AltitudeMeters>
            <DistanceMeters>511207.67107695</DistanceMeters>
          </Trackpoint>
          <Trackpoint>
            <Time>2021-08-03T08:06:25.000Z</Time>
            <Position>
              <LatitudeDegrees>41.26915178261697292327880859375</LatitudeDegrees>
              <LongitudeDegrees>-1.60887840203940868377685546875</LongitudeDegrees>
            </Position>
            <AltitudeMeters>590</AltitudeMeters>
            <DistanceMeters>511268.59424431</DistanceMeters>
          </Trackpoint>
          <Trackpoint>
            <Time>2021-08-03T08:06:43.000Z</Time>
            <Position>
              <LatitudeDegrees>41.2686514668166637420654296875</LatitudeDegrees>
              <LongitudeDegrees>-1.6085313074290752410888671875</LongitudeDegrees>
            </Position>
            <AltitudeMeters>590</AltitudeMeters>
            <DistanceMeters>511331.39619132</DistanceMeters>
          </Trackpoint>
          <Trackpoint>
            <Time>2021-08-03T08:07:01.000Z</Time>
            <Position>
              <LatitudeDegrees>41.268239580094814300537109375</LatitudeDegrees>
              <LongitudeDegrees>-1.60803887061774730682373046875</LongitudeDegrees>
            </Position>
            <AltitudeMeters>591</AltitudeMeters>
            <DistanceMeters>511393.03037468</DistanceMeters>
          </Trackpoint>
          <Trackpoint>
            <Time>2021-08-03T08:07:18.000Z</Time>
            <Position>
              <LatitudeDegrees>41.26776658929884433746337890625</LatitudeDegrees>
              <LongitudeDegrees>-1.6076458431780338287353515625</LongitudeDegrees>
            </Position>
            <AltitudeMeters>590.79998779296875</AltitudeMeters>
            <DistanceMeters>511455.09947935</DistanceMeters>
          </Trackpoint>
          <Trackpoint>
            <Time>2021-08-03T08:07:38.000Z</Time>
            <Position>
              <LatitudeDegrees>41.267286725342273712158203125</LatitudeDegrees>
              <LongitudeDegrees>-1.60725030116736888885498046875</LongitudeDegrees>
            </Position>
            <AltitudeMeters>591.5999755859375</AltitudeMeters>
            <DistanceMeters>511517.92945848</DistanceMeters>
          </Trackpoint>
          <Trackpoint>
            <Time>2021-08-03T08:07:44.000Z</Time>
            <Position>
              <LatitudeDegrees>41.267142556607723236083984375</LatitudeDegrees>
              <LongitudeDegrees>-1.60712507553398609161376953125</LongitudeDegrees>
            </Position>
            <AltitudeMeters>592</AltitudeMeters>
            <DistanceMeters>511537.0930745</DistanceMeters>
          </Trackpoint>
          <Trackpoint>
            <Time>2021-08-03T08:08:09.000Z</Time>
            <Position>
              <LatitudeDegrees>41.26665967516601085662841796875</LatitudeDegrees>
              <LongitudeDegrees>-1.6067580319941043853759765625</LongitudeDegrees>
            </Position>
            <AltitudeMeters>592.20001220703125</AltitudeMeters>
            <DistanceMeters>511598.99216622</DistanceMeters>
          </Trackpoint>
          <Trackpoint>
            <Time>2021-08-03T08:08:28.000Z</Time>
            <Position>
              <LatitudeDegrees>41.26618861220777034759521484375</LatitudeDegrees>
              <LongitudeDegrees>-1.60639702342450618743896484375</LongitudeDegrees>
            </Position>
            <AltitudeMeters>593</AltitudeMeters>
            <DistanceMeters>511659.49911609</DistanceMeters>
          </Trackpoint>
          <Trackpoint>
            <Time>2021-08-03T08:08:36.000Z</Time>
            <Position>
              <LatitudeDegrees>41.266007982194423675537109375</LatitudeDegrees>
              <LongitudeDegrees>-1.60624279640614986419677734375</LongitudeDegrees>
            </Position>
            <AltitudeMeters>593</AltitudeMeters>
            <DistanceMeters>511683.38770565</DistanceMeters>
          </Trackpoint>
          <Trackpoint>
            <Time>2021-08-03T08:08:59.000Z</Time>
            <Position>
              <LatitudeDegrees>41.26554488204419612884521484375</LatitudeDegrees>
              <LongitudeDegrees>-1.60581800155341625213623046875</LongitudeDegrees>
            </Position>
            <AltitudeMeters>593.79998779296875</AltitudeMeters>
            <DistanceMeters>511745.99596104</DistanceMeters>
          </Trackpoint>
          <Trackpoint>
            <Time>2021-08-03T08:09:02.000Z</Time>
            <Position>
              <LatitudeDegrees>41.26548218540847301483154296875</LatitudeDegrees>
              <LongitudeDegrees>-1.6057582385838031768798828125</LongitudeDegrees>
            </Position>
            <AltitudeMeters>594</AltitudeMeters>
            <DistanceMeters>511754.57998246</DistanceMeters>
          </Trackpoint>
          <Trackpoint>
            <Time>2021-08-03T08:09:24.000Z</Time>
            <Position>
              <LatitudeDegrees>41.26503492705523967742919921875</LatitudeDegrees>
              <LongitudeDegrees>-1.60530637018382549285888671875</LongitudeDegrees>
            </Position>
            <AltitudeMeters>594.5999755859375</AltitudeMeters>
            <DistanceMeters>511817.08813334</DistanceMeters>
          </Trackpoint>
          <Trackpoint>
            <Time>2021-08-03T08:09:47.000Z</Time>
            <Position>
              <LatitudeDegrees>41.26461734063923358917236328125</LatitudeDegrees>
              <LongitudeDegrees>-1.60482139326632022857666015625</LongitudeDegrees>
            </Position>
            <AltitudeMeters>595</AltitudeMeters>
            <DistanceMeters>511878.7849183</DistanceMeters>
          </Trackpoint>
          <Trackpoint>
            <Time>2021-08-03T08:09:48.000Z</Time>
            <Position>
              <LatitudeDegrees>41.26459890045225620269775390625</LatitudeDegrees>
              <LongitudeDegrees>-1.604792810976505279541015625</LongitudeDegrees>
            </Position>
            <AltitudeMeters>595.20001220703125</AltitudeMeters>
            <DistanceMeters>511881.93659787</DistanceMeters>
          </Trackpoint>
          <Trackpoint>
            <Time>2021-08-03T08:10:10.000Z</Time>
            <Position>
              <LatitudeDegrees>41.26421500928699970245361328125</LatitudeDegrees>
              <LongitudeDegrees>-1.6042841970920562744140625</LongitudeDegrees>
            </Position>
            <AltitudeMeters>596</AltitudeMeters>
            <DistanceMeters>511942.23874189</DistanceMeters>
          </Trackpoint>
          <Trackpoint>
            <Time>2021-08-03T08:10:12.000Z</Time>
            <Position>
              <LatitudeDegrees>41.26418106257915496826171875</LatitudeDegrees>
              <LongitudeDegrees>-1.60424287430942058563232421875</LongitudeDegrees>
            </Position>
            <AltitudeMeters>596.20001220703125</AltitudeMeters>
            <DistanceMeters>511947.35961505</DistanceMeters>
          </Trackpoint>
          <Trackpoint>
            <Time>2021-08-03T08:10:36.000Z</Time>
            <Position>
              <LatitudeDegrees>41.26380194909870624542236328125</LatitudeDegrees>
              <LongitudeDegrees>-1.60370810888707637786865234375</LongitudeDegrees>
            </Position>
            <AltitudeMeters>596.4000244140625</AltitudeMeters>
            <DistanceMeters>512008.85915439</DistanceMeters>
          </Trackpoint>
          <Trackpoint>
            <Time>2021-08-03T08:10:52.000Z</Time>
            <Position>
              <LatitudeDegrees>41.2635421939194202423095703125</LatitudeDegrees>
              <LongitudeDegrees>-1.603349111974239349365234375</LongitudeDegrees>
            </Position>
            <AltitudeMeters>597.20001220703125</AltitudeMeters>
            <DistanceMeters>512050.54784077</DistanceMeters>
          </Trackpoint>
          <Trackpoint>
            <Time>2021-08-03T08:11:15.000Z</Time>
            <Position>
              <LatitudeDegrees>41.2631750665605068206787109375</LatitudeDegrees>
              <LongitudeDegrees>-1.6028041206300258636474609375</LongitudeDegrees>
            </Position>
            <AltitudeMeters>597.79998779296875</AltitudeMeters>
            <DistanceMeters>512111.77454912</DistanceMeters>
          </Trackpoint>
          <Trackpoint>
            <Time>2021-08-03T08:11:30.000Z</Time>
            <Position>
              <LatitudeDegrees>41.263061575591564178466796875</LatitudeDegrees>
              <LongitudeDegrees>-1.60261158831417560577392578125</LongitudeDegrees>
            </Position>
            <AltitudeMeters>597</AltitudeMeters>
            <DistanceMeters>512132.24481212</DistanceMeters>
          </Trackpoint>
          <Trackpoint>
            <Time>2021-08-03T08:11:35.000Z</Time>
            <Position>
              <LatitudeDegrees>41.2630124576389789581298828125</LatitudeDegrees>
              <LongitudeDegrees>-1.602650396525859832763671875</LongitudeDegrees>
            </Position>
            <AltitudeMeters>596.79998779296875</AltitudeMeters>
            <DistanceMeters>512138.60308643</DistanceMeters>
          </Trackpoint>
          <Trackpoint>
            <Time>2021-08-03T08:11:58.000Z</Time>
            <Position>
              <LatitudeDegrees>41.2624971382319927215576171875</LatitudeDegrees>
              <LongitudeDegrees>-1.6026633046567440032958984375</LongitudeDegrees>
            </Position>
            <AltitudeMeters>598</AltitudeMeters>
            <DistanceMeters>512195.96932161</DistanceMeters>
          </Trackpoint>
          <Trackpoint>
            <Time>2021-08-03T08:12:16.000Z</Time>
            <Position>
              <LatitudeDegrees>41.2622540630400180816650390625</LatitudeDegrees>
              <LongitudeDegrees>-1.60201563499867916107177734375</LongitudeDegrees>
            </Position>
            <AltitudeMeters>598.20001220703125</AltitudeMeters>
            <DistanceMeters>512256.53541636</DistanceMeters>
          </Trackpoint>
          <Trackpoint>
            <Time>2021-08-03T08:12:21.000Z</Time>
            <Position>
              <LatitudeDegrees>41.2621928751468658447265625</LatitudeDegrees>
              <LongitudeDegrees>-1.6017942689359188079833984375</LongitudeDegrees>
            </Position>
            <AltitudeMeters>598.20001220703125</AltitudeMeters>
            <DistanceMeters>512276.26850929</DistanceMeters>
          </Trackpoint>
          <Trackpoint>
            <Time>2021-08-03T08:12:34.000Z</Time>
            <Position>
              <LatitudeDegrees>41.261872351169586181640625</LatitudeDegrees>
              <LongitudeDegrees>-1.60143527202308177947998046875</LongitudeDegrees>
            </Position>
            <AltitudeMeters>599.4000244140625</AltitudeMeters>
            <DistanceMeters>512322.90378308</DistanceMeters>
          </Trackpoint>
          <Trackpoint>
            <Time>2021-08-03T08:12:39.000Z</Time>
            <Position>
              <LatitudeDegrees>41.261780820786952972412109375</LatitudeDegrees>
              <LongitudeDegrees>-1.601383388042449951171875</LongitudeDegrees>
            </Position>
            <AltitudeMeters>600.5999755859375</AltitudeMeters>
            <DistanceMeters>512333.97755561</DistanceMeters>
          </Trackpoint>
          <Trackpoint>
            <Time>2021-08-03T08:12:46.000Z</Time>
            <Position>
              <LatitudeDegrees>41.26170027069747447967529296875</LatitudeDegrees>
              <LongitudeDegrees>-1.60135346464812755584716796875</LongitudeDegrees>
            </Position>
            <AltitudeMeters>601.5999755859375</AltitudeMeters>
            <DistanceMeters>512343.28629417</DistanceMeters>
          </Trackpoint>
          <Trackpoint>
            <Time>2021-08-03T08:12:50.000Z</Time>
            <Position>
              <LatitudeDegrees>41.2616401724517345428466796875</LatitudeDegrees>
              <LongitudeDegrees>-1.60133670084178447723388671875</LongitudeDegrees>
            </Position>
            <AltitudeMeters>602.5999755859375</AltitudeMeters>
            <DistanceMeters>512350.12029412</DistanceMeters>
          </Trackpoint>
          <Trackpoint>
            <Time>2021-08-03T08:12:54.000Z</Time>
            <Position>
              <LatitudeDegrees>41.26158627681434154510498046875</LatitudeDegrees>
              <LongitudeDegrees>-1.601338125765323638916015625</LongitudeDegrees>
            </Position>
            <AltitudeMeters>603.79998779296875</AltitudeMeters>
            <DistanceMeters>512356.11978449</DistanceMeters>
          </Trackpoint>
          <Trackpoint>
            <Time>2021-08-03T08:13:12.000Z</Time>
            <Position>
              <LatitudeDegrees>41.26123993657529354095458984375</LatitudeDegrees>
              <LongitudeDegrees>-1.60109329037368297576904296875</LongitudeDegrees>
            </Position>
            <AltitudeMeters>604.20001220703125</AltitudeMeters>
            <DistanceMeters>512399.77284786</DistanceMeters>
          </Trackpoint>
          <Trackpoint>
            <Time>2021-08-03T08:13:16.000Z</Time>
            <Position>
              <LatitudeDegrees>41.261198110878467559814453125</LatitudeDegrees>
              <LongitudeDegrees>-1.60094149410724639892578125</LongitudeDegrees>
            </Position>
            <AltitudeMeters>604</AltitudeMeters>
            <DistanceMeters>512413.29939247</DistanceMeters>
          </Trackpoint>
          <Trackpoint>
            <Time>2021-08-03T08:13:25.000Z</Time>
            <Position>
              <LatitudeDegrees>41.26113499514758586883544921875</LatitudeDegrees>
              <LongitudeDegrees>-1.60061954520642757415771484375</LongitudeDegrees>
            </Position>
            <AltitudeMeters>604.79998779296875</AltitudeMeters>
            <DistanceMeters>512441.13686793</DistanceMeters>
          </Trackpoint>
          <Trackpoint>
            <Time>2021-08-03T08:13:35.000Z</Time>
            <Position>
              <LatitudeDegrees>41.260982193052768707275390625</LatitudeDegrees>
              <LongitudeDegrees>-1.60034512169659137725830078125</LongitudeDegrees>
            </Position>
            <AltitudeMeters>606</AltitudeMeters>
            <DistanceMeters>512469.70990139</DistanceMeters>
          </Trackpoint>
          <Trackpoint>
            <Time>2021-08-03T08:13:42.000Z</Time>
            <Position>
              <LatitudeDegrees>41.26086878590285778045654296875</LatitudeDegrees>
              <LongitudeDegrees>-1.60018167458474636077880859375</LongitudeDegrees>
            </Position>
            <AltitudeMeters>607.20001220703125</AltitudeMeters>
            <DistanceMeters>512488.32010161</DistanceMeters>
          </Trackpoint>
          <Trackpoint>
            <Time>2021-08-03T08:14:01.000Z</Time>
            <Position>
              <LatitudeDegrees>41.2605379521846771240234375</LatitudeDegrees>
              <LongitudeDegrees>-1.599598042666912078857421875</LongitudeDegrees>
            </Position>
            <AltitudeMeters>607.20001220703125</AltitudeMeters>
            <DistanceMeters>512549.47863351</DistanceMeters>
          </Trackpoint>
          <Trackpoint>
            <Time>2021-08-03T08:14:12.000Z</Time>
            <Position>
              <LatitudeDegrees>41.2602812983095645904541015625</LatitudeDegrees>
              <LongitudeDegrees>-1.59930643625557422637939453125</LongitudeDegrees>
            </Position>
            <AltitudeMeters>608.4000244140625</AltitudeMeters>
            <DistanceMeters>512587.04568765</DistanceMeters>
          </Trackpoint>
          <Trackpoint>
            <Time>2021-08-03T08:14:21.000Z</Time>
            <Position>
              <LatitudeDegrees>41.26008641906082630157470703125</LatitudeDegrees>
              <LongitudeDegrees>-1.59897233359515666961669921875</LongitudeDegrees>
            </Position>
            <AltitudeMeters>607.20001220703125</AltitudeMeters>
            <DistanceMeters>512622.42779723</DistanceMeters>
          </Trackpoint>
          <Trackpoint>
            <Time>2021-08-03T08:14:28.000Z</Time>
            <Position>
              <LatitudeDegrees>41.25994979403913021087646484375</LatitudeDegrees>
              <LongitudeDegrees>-1.5985829941928386688232421875</LongitudeDegrees>
            </Position>
            <AltitudeMeters>606.20001220703125</AltitudeMeters>
            <DistanceMeters>512658.37767304</DistanceMeters>
          </Trackpoint>
          <Trackpoint>
            <Time>2021-08-03T08:14:32.000Z</Time>
            <Position>
              <LatitudeDegrees>41.25983588397502899169921875</LatitudeDegrees>
              <LongitudeDegrees>-1.59838057123124599456787109375</LongitudeDegrees>
            </Position>
            <AltitudeMeters>605.5999755859375</AltitudeMeters>
            <DistanceMeters>512679.53408575</DistanceMeters>
          </Trackpoint>
          <Trackpoint>
            <Time>2021-08-03T08:14:47.000Z</Time>
            <Position>
              <LatitudeDegrees>41.25943112187087535858154296875</LatitudeDegrees>
              <LongitudeDegrees>-1.5978447161614894866943359375</LongitudeDegrees>
            </Position>
            <AltitudeMeters>606.5999755859375</AltitudeMeters>
            <DistanceMeters>512743.09268075</DistanceMeters>
          </Trackpoint>
          <Trackpoint>
            <Time>2021-08-03T08:14:53.000Z</Time>
            <Position>
              <LatitudeDegrees>41.25926163978874683380126953125</LatitudeDegrees>
              <LongitudeDegrees>-1.5977664291858673095703125</LongitudeDegrees>
            </Position>
            <AltitudeMeters>607.20001220703125</AltitudeMeters>
            <DistanceMeters>512763.06095698</DistanceMeters>
          </Trackpoint>
          <Trackpoint>
            <Time>2021-08-03T08:14:57.000Z</Time>
            <Position>
              <LatitudeDegrees>41.25922911800444126129150390625</LatitudeDegrees>
              <LongitudeDegrees>-1.5977119468152523040771484375</LongitudeDegrees>
            </Position>
            <AltitudeMeters>607.79998779296875</AltitudeMeters>
            <DistanceMeters>512768.8816826</DistanceMeters>
          </Trackpoint>
          <Trackpoint>
            <Time>2021-08-03T08:15:18.000Z</Time>
            <Position>
              <LatitudeDegrees>41.25888931564986705780029296875</LatitudeDegrees>
              <LongitudeDegrees>-1.59712512977421283721923828125</LongitudeDegrees>
            </Position>
            <AltitudeMeters>608</AltitudeMeters>
            <DistanceMeters>512830.85819022</DistanceMeters>
          </Trackpoint>
          <Trackpoint>
            <Time>2021-08-03T08:15:26.000Z</Time>
            <Position>
              <LatitudeDegrees>41.25867775641381740570068359375</LatitudeDegrees>
              <LongitudeDegrees>-1.5968690626323223114013671875</LongitudeDegrees>
            </Position>
            <AltitudeMeters>608.4000244140625</AltitudeMeters>
            <DistanceMeters>512862.69341599</DistanceMeters>
          </Trackpoint>
          <Trackpoint>
            <Time>2021-08-03T08:15:35.000Z</Time>
            <Position>
              <LatitudeDegrees>41.25842906534671783447265625</LatitudeDegrees>
              <LongitudeDegrees>-1.5966186113655567169189453125</LongitudeDegrees>
            </Position>
            <AltitudeMeters>609.4000244140625</AltitudeMeters>
            <DistanceMeters>512897.41056482</DistanceMeters>
          </Trackpoint>
          <Trackpoint>
            <Time>2021-08-03T08:15:43.000Z</Time>
            <Position>
              <LatitudeDegrees>41.2581910192966461181640625</LatitudeDegrees>
              <LongitudeDegrees>-1.59652766771614551544189453125</LongitudeDegrees>
            </Position>
            <AltitudeMeters>610.4000244140625</AltitudeMeters>
            <DistanceMeters>512924.97650273</DistanceMeters>
          </Trackpoint>
          <Trackpoint>
            <Time>2021-08-03T08:15:52.000Z</Time>
            <Position>
              <LatitudeDegrees>41.2579973973333835601806640625</LatitudeDegrees>
              <LongitudeDegrees>-1.59668155945837497711181640625</LongitudeDegrees>
            </Position>
            <AltitudeMeters>611.79998779296875</AltitudeMeters>
            <DistanceMeters>512950.08082697</DistanceMeters>
          </Trackpoint>
          <Trackpoint>
            <Time>2021-08-03T08:16:05.000Z</Time>
            <Position>
              <LatitudeDegrees>41.2576979957520961761474609375</LatitudeDegrees>
              <LongitudeDegrees>-1.59700225107371807098388671875</LongitudeDegrees>
            </Position>
            <AltitudeMeters>612.79998779296875</AltitudeMeters>
            <DistanceMeters>512992.86480453</DistanceMeters>
          </Trackpoint>
          <Trackpoint>
            <Time>2021-08-03T08:16:15.000Z</Time>
            <Position>
              <LatitudeDegrees>41.2575273402035236358642578125</LatitudeDegrees>
              <LongitudeDegrees>-1.59728564321994781494140625</LongitudeDegrees>
            </Position>
            <AltitudeMeters>613</AltitudeMeters>
            <DistanceMeters>513023.24631788</DistanceMeters>
          </Trackpoint>
          <Trackpoint>
            <Time>2021-08-03T08:16:24.000Z</Time>
            <Position>
              <LatitudeDegrees>41.25729574821889400482177734375</LatitudeDegrees>
              <LongitudeDegrees>-1.5970491059124469757080078125</LongitudeDegrees>
            </Position>
            <AltitudeMeters>613.79998779296875</AltitudeMeters>
            <DistanceMeters>513055.74462062</DistanceMeters>
          </Trackpoint>
          <Trackpoint>
            <Time>2021-08-03T08:16:42.000Z</Time>
            <Position>
              <LatitudeDegrees>41.2570405192673206329345703125</LatitudeDegrees>
              <LongitudeDegrees>-1.5964325331151485443115234375</LongitudeDegrees>
            </Position>
            <AltitudeMeters>614</AltitudeMeters>
            <DistanceMeters>513114.63872536</DistanceMeters>
          </Trackpoint>
          <Trackpoint>
            <Time>2021-08-03T08:17:00.000Z</Time>
            <Position>
              <LatitudeDegrees>41.25707731582224369049072265625</LatitudeDegrees>
              <LongitudeDegrees>-1.595698781311511993408203125</LongitudeDegrees>
            </Position>
            <AltitudeMeters>614</AltitudeMeters>
            <DistanceMeters>513176.16997214</DistanceMeters>
          </Trackpoint>
          <Trackpoint>
            <Time>2021-08-03T08:17:12.000Z</Time>
            <Position>
              <LatitudeDegrees>41.25681663863360881805419921875</LatitudeDegrees>
              <LongitudeDegrees>-1.59533995203673839569091796875</LongitudeDegrees>
            </Position>
            <AltitudeMeters>615</AltitudeMeters>
            <DistanceMeters>513217.92218439</DistanceMeters>
          </Trackpoint>
          <Trackpoint>
            <Time>2021-08-03T08:17:29.000Z</Time>
            <Position>
              <LatitudeDegrees>41.256343312561511993408203125</LatitudeDegrees>
              <LongitudeDegrees>-1.5949992276728153228759765625</LongitudeDegrees>
            </Position>
            <AltitudeMeters>614.5999755859375</AltitudeMeters>
            <DistanceMeters>513277.82369669</DistanceMeters>
          </Trackpoint>
          <Trackpoint>
            <Time>2021-08-03T08:17:36.000Z</Time>
            <Position>
              <LatitudeDegrees>41.2562160752713680267333984375</LatitudeDegrees>
              <LongitudeDegrees>-1.59470963291823863983154296875</LongitudeDegrees>
            </Position>
            <AltitudeMeters>614.5999755859375</AltitudeMeters>
            <DistanceMeters>513305.88989751</DistanceMeters>
          </Trackpoint>
          <Trackpoint>
            <Time>2021-08-03T08:17:41.000Z</Time>
            <Position>
              <LatitudeDegrees>41.25608825124800205230712890625</LatitudeDegrees>
              <LongitudeDegrees>-1.59454442560672760009765625</LongitudeDegrees>
            </Position>
            <AltitudeMeters>614.20001220703125</AltitudeMeters>
            <DistanceMeters>513325.7265961</DistanceMeters>
          </Trackpoint>
          <Trackpoint>
            <Time>2021-08-03T08:17:57.000Z</Time>
            <Position>
              <LatitudeDegrees>41.25556371174752712249755859375</LatitudeDegrees>
              <LongitudeDegrees>-1.5942820720374584197998046875</LongitudeDegrees>
            </Position>
            <AltitudeMeters>614.79998779296875</AltitudeMeters>
            <DistanceMeters>513388.09945602</DistanceMeters>
          </Trackpoint>
          <Trackpoint>
            <Time>2021-08-03T08:18:12.000Z</Time>
            <Position>
              <LatitudeDegrees>41.2550711072981357574462890625</LatitudeDegrees>
              <LongitudeDegrees>-1.59389575012028217315673828125</LongitudeDegrees>
            </Position>
            <AltitudeMeters>615.4000244140625</AltitudeMeters>
            <DistanceMeters>513451.74706959</DistanceMeters>
          </Trackpoint>
          <Trackpoint>
            <Time>2021-08-03T08:18:26.000Z</Time>
            <Position>
              <LatitudeDegrees>41.25457129441201686859130859375</LatitudeDegrees>
              <LongitudeDegrees>-1.59356952644884586334228515625</LongitudeDegrees>
            </Position>
            <AltitudeMeters>615.20001220703125</AltitudeMeters>
            <DistanceMeters>513513.71352298</DistanceMeters>
          </Trackpoint>
          <Trackpoint>
            <Time>2021-08-03T08:18:40.000Z</Time>
            <Position>
              <LatitudeDegrees>41.25405480153858661651611328125</LatitudeDegrees>
              <LongitudeDegrees>-1.59328118897974491119384765625</LongitudeDegrees>
            </Position>
            <AltitudeMeters>614.5999755859375</AltitudeMeters>
            <DistanceMeters>513576.05785556</DistanceMeters>
          </Trackpoint>
          <Trackpoint>
            <Time>2021-08-03T08:18:54.000Z</Time>
            <Position>
              <LatitudeDegrees>41.2535228021442890167236328125</LatitudeDegrees>
              <LongitudeDegrees>-1.59298832528293132781982421875</LongitudeDegrees>
            </Position>
            <AltitudeMeters>614.5999755859375</AltitudeMeters>
            <DistanceMeters>513640.14109865</DistanceMeters>
          </Trackpoint>
          <Trackpoint>
            <Time>2021-08-03T08:19:09.000Z</Time>
            <Position>
              <LatitudeDegrees>41.2530358135700225830078125</LatitudeDegrees>
              <LongitudeDegrees>-1.5926630236208438873291015625</LongitudeDegrees>
            </Position>
            <AltitudeMeters>615.20001220703125</AltitudeMeters>
            <DistanceMeters>513700.79487209</DistanceMeters>
          </Trackpoint>
          <Trackpoint>
            <Time>2021-08-03T08:19:19.000Z</Time>
            <Position>
              <LatitudeDegrees>41.2527919001877307891845703125</LatitudeDegrees>
              <LongitudeDegrees>-1.59230285324156284332275390625</LongitudeDegrees>
            </Position>
            <AltitudeMeters>614.4000244140625</AltitudeMeters>
            <DistanceMeters>513741.35736768</DistanceMeters>
          </Trackpoint>
          <Trackpoint>
            <Time>2021-08-03T08:19:34.000Z</Time>
            <Position>
              <LatitudeDegrees>41.2523359246551990509033203125</LatitudeDegrees>
              <LongitudeDegrees>-1.5919036231935024261474609375</LongitudeDegrees>
            </Position>
            <AltitudeMeters>615.20001220703125</AltitudeMeters>
            <DistanceMeters>513802.11653038</DistanceMeters>
          </Trackpoint>
          <Trackpoint>
            <Time>2021-08-03T08:19:50.000Z</Time>
            <Position>
              <LatitudeDegrees>41.25181700102984905242919921875</LatitudeDegrees>
              <LongitudeDegrees>-1.591665409505367279052734375</LongitudeDegrees>
            </Position>
            <AltitudeMeters>615.20001220703125</AltitudeMeters>
            <DistanceMeters>513863.21671257</DistanceMeters>
          </Trackpoint>
          <Trackpoint>
            <Time>2021-08-03T08:19:59.000Z</Time>
            <Position>
              <LatitudeDegrees>41.25154660083353519439697265625</LatitudeDegrees>
              <LongitudeDegrees>-1.5914781577885150909423828125</LongitudeDegrees>
            </Position>
            <AltitudeMeters>616</AltitudeMeters>
            <DistanceMeters>513897.14737122</DistanceMeters>
          </Trackpoint>
          <Trackpoint>
            <Time>2021-08-03T08:20:06.000Z</Time>
            <Position>
              <LatitudeDegrees>41.2513807229697704315185546875</LatitudeDegrees>
              <LongitudeDegrees>-1.59135569818317890167236328125</LongitudeDegrees>
            </Position>
            <AltitudeMeters>617.20001220703125</AltitudeMeters>
            <DistanceMeters>513918.26298285</DistanceMeters>
          </Trackpoint>
          <Trackpoint>
            <Time>2021-08-03T08:20:21.000Z</Time>
            <Position>
              <LatitudeDegrees>41.2508898787200450897216796875</LatitudeDegrees>
              <LongitudeDegrees>-1.59150640480220317840576171875</LongitudeDegrees>
            </Position>
            <AltitudeMeters>616</AltitudeMeters>
            <DistanceMeters>513974.33156285</DistanceMeters>
          </Trackpoint>
          <Trackpoint>
            <Time>2021-08-03T08:20:24.000Z</Time>
            <Position>
              <LatitudeDegrees>41.25077328644692897796630859375</LatitudeDegrees>
              <LongitudeDegrees>-1.59158804453909397125244140625</LongitudeDegrees>
            </Position>
            <AltitudeMeters>615.5999755859375</AltitudeMeters>
            <DistanceMeters>513988.99711298</DistanceMeters>
          </Trackpoint>
          <Trackpoint>
            <Time>2021-08-03T08:20:27.000Z</Time>
            <Position>
              <LatitudeDegrees>41.25063464976847171783447265625</LatitudeDegrees>
              <LongitudeDegrees>-1.59156985580921173095703125</LongitudeDegrees>
            </Position>
            <AltitudeMeters>615</AltitudeMeters>
            <DistanceMeters>514004.50278244</DistanceMeters>
          </Trackpoint>
          <Trackpoint>
            <Time>2021-08-03T08:20:37.000Z</Time>
            <Position>
              <LatitudeDegrees>41.2505133636295795440673828125</LatitudeDegrees>
              <LongitudeDegrees>-1.591104827821254730224609375</LongitudeDegrees>
            </Position>
            <AltitudeMeters>614.79998779296875</AltitudeMeters>
            <DistanceMeters>514045.69157438</DistanceMeters>
          </Trackpoint>
          <Trackpoint>
            <Time>2021-08-03T08:20:46.000Z</Time>
            <Position>
              <LatitudeDegrees>41.2505494058132171630859375</LatitudeDegrees>
              <LongitudeDegrees>-1.59079913981258869171142578125</LongitudeDegrees>
            </Position>
            <AltitudeMeters>615</AltitudeMeters>
            <DistanceMeters>514071.58456679</DistanceMeters>
          </Trackpoint>
          <Trackpoint>
            <Time>2021-08-03T08:20:48.000Z</Time>
            <Position>
              <LatitudeDegrees>41.25052954070270061492919921875</LatitudeDegrees>
              <LongitudeDegrees>-1.590782292187213897705078125</LongitudeDegrees>
            </Position>
            <AltitudeMeters>615</AltitudeMeters>
            <DistanceMeters>514074.20771723</DistanceMeters>
          </Trackpoint>
          <Trackpoint>
            <Time>2021-08-03T08:20:57.000Z</Time>
            <Position>
              <LatitudeDegrees>41.25038444995880126953125</LatitudeDegrees>
              <LongitudeDegrees>-1.5907382033765316009521484375</LongitudeDegrees>
            </Position>
            <AltitudeMeters>616</AltitudeMeters>
            <DistanceMeters>514090.77292061</DistanceMeters>
          </Trackpoint>
          <Trackpoint>
            <Time>2021-08-03T08:21:01.000Z</Time>
            <Position>
              <LatitudeDegrees>41.2503241002559661865234375</LatitudeDegrees>
              <LongitudeDegrees>-1.59073275513947010040283203125</LongitudeDegrees>
            </Position>
            <AltitudeMeters>617.4000244140625</AltitudeMeters>
            <DistanceMeters>514097.50574942</DistanceMeters>
          </Trackpoint>
          <Trackpoint>
            <Time>2021-08-03T08:21:06.000Z</Time>
            <Position>
              <LatitudeDegrees>41.2502632476389408111572265625</LatitudeDegrees>
              <LongitudeDegrees>-1.59074298106133937835693359375</LongitudeDegrees>
            </Position>
            <AltitudeMeters>618.4000244140625</AltitudeMeters>
            <DistanceMeters>514104.3324781</DistanceMeters>
          </Trackpoint>
          <Trackpoint>
            <Time>2021-08-03T08:21:11.000Z</Time>
            <Position>
              <LatitudeDegrees>41.250185631215572357177734375</LatitudeDegrees>
              <LongitudeDegrees>-1.5907792747020721435546875</LongitudeDegrees>
            </Position>
            <AltitudeMeters>619.4000244140625</AltitudeMeters>
            <DistanceMeters>514113.4896223</DistanceMeters>
          </Trackpoint>
          <Trackpoint>
            <Time>2021-08-03T08:21:34.000Z</Time>
            <Position>
              <LatitudeDegrees>41.24962060712277889251708984375</LatitudeDegrees>
              <LongitudeDegrees>-1.590670309960842132568359375</LongitudeDegrees>
            </Position>
            <AltitudeMeters>620</AltitudeMeters>
            <DistanceMeters>514177.03557138</DistanceMeters>
          </Trackpoint>
          <Trackpoint>
            <Time>2021-08-03T08:21:50.000Z</Time>
            <Position>
              <LatitudeDegrees>41.24926320277154445648193359375</LatitudeDegrees>
              <LongitudeDegrees>-1.59018776379525661468505859375</LongitudeDegrees>
            </Position>
            <AltitudeMeters>619.4000244140625</AltitudeMeters>
            <DistanceMeters>514233.71906624</DistanceMeters>
          </Trackpoint>
          <Trackpoint>
            <Time>2021-08-03T08:22:03.000Z</Time>
            <Position>
              <LatitudeDegrees>41.24916831962764263153076171875</LatitudeDegrees>
              <LongitudeDegrees>-1.58959784545004367828369140625</LongitudeDegrees>
            </Position>
            <AltitudeMeters>620.4000244140625</AltitudeMeters>
            <DistanceMeters>514284.20177907</DistanceMeters>
          </Trackpoint>
          <Trackpoint>
            <Time>2021-08-03T08:22:12.000Z</Time>
            <Position>
              <LatitudeDegrees>41.249223053455352783203125</LatitudeDegrees>
              <LongitudeDegrees>-1.58923306502401828765869140625</LongitudeDegrees>
            </Position>
            <AltitudeMeters>621.4000244140625</AltitudeMeters>
            <DistanceMeters>514315.32937458</DistanceMeters>
          </Trackpoint>
          <Trackpoint>
            <Time>2021-08-03T08:22:18.000Z</Time>
            <Position>
              <LatitudeDegrees>41.2492302618920803070068359375</LatitudeDegrees>
              <LongitudeDegrees>-1.589023433625698089599609375</LongitudeDegrees>
            </Position>
            <AltitudeMeters>622.4000244140625</AltitudeMeters>
            <DistanceMeters>514332.890044</DistanceMeters>
          </Trackpoint>
          <Trackpoint>
            <Time>2021-08-03T08:22:24.000Z</Time>
            <Position>
              <LatitudeDegrees>41.24921006150543689727783203125</LatitudeDegrees>
              <LongitudeDegrees>-1.58881816081702709197998046875</LongitudeDegrees>
            </Position>
            <AltitudeMeters>623.4000244140625</AltitudeMeters>
            <DistanceMeters>514350.21412033</DistanceMeters>
          </Trackpoint>
          <Trackpoint>
            <Time>2021-08-03T08:22:30.000Z</Time>
            <Position>
              <LatitudeDegrees>41.2491772882640361785888671875</LatitudeDegrees>
              <LongitudeDegrees>-1.5886360220611095428466796875</LongitudeDegrees>
            </Position>
            <AltitudeMeters>624.4000244140625</AltitudeMeters>
            <DistanceMeters>514365.88632755</DistanceMeters>
          </Trackpoint>
          <Trackpoint>
            <Time>2021-08-03T08:22:41.000Z</Time>
            <Position>
              <LatitudeDegrees>41.2490860931575298309326171875</LatitudeDegrees>
              <LongitudeDegrees>-1.58831943757832050323486328125</LongitudeDegrees>
            </Position>
            <AltitudeMeters>625.4000244140625</AltitudeMeters>
            <DistanceMeters>514394.25669596</DistanceMeters>
          </Trackpoint>
          <Trackpoint>
            <Time>2021-08-03T08:23:02.000Z</Time>
            <Position>
              <LatitudeDegrees>41.24867579899728298187255859375</LatitudeDegrees>
              <LongitudeDegrees>-1.5878722630441188812255859375</LongitudeDegrees>
            </Position>
            <AltitudeMeters>626.4000244140625</AltitudeMeters>
            <DistanceMeters>514453.29689378</DistanceMeters>
          </Trackpoint>
          <Trackpoint>
            <Time>2021-08-03T08:23:21.000Z</Time>
            <Position>
              <LatitudeDegrees>41.24841428361833095550537109375</LatitudeDegrees>
              <LongitudeDegrees>-1.5876989252865314483642578125</LongitudeDegrees>
            </Position>
            <AltitudeMeters>626.5999755859375</AltitudeMeters>
            <DistanceMeters>514485.81811214</DistanceMeters>
          </Trackpoint>
          <Trackpoint>
            <Time>2021-08-03T08:27:33.000Z</Time>
            <Position>
              <LatitudeDegrees>41.2483521737158298492431640625</LatitudeDegrees>
              <LongitudeDegrees>-1.58765609376132488250732421875</LongitudeDegrees>
            </Position>
            <AltitudeMeters>625.4000244140625</AltitudeMeters>
            <DistanceMeters>514493.60450625</DistanceMeters>
          </Trackpoint>
          <Trackpoint>
            <Time>2021-08-03T08:27:39.000Z</Time>
            <Position>
              <LatitudeDegrees>41.24828201718628406524658203125</LatitudeDegrees>
              <LongitudeDegrees>-1.58757076598703861236572265625</LongitudeDegrees>
            </Position>
            <AltitudeMeters>624.4000244140625</AltitudeMeters>
            <DistanceMeters>514504.18537993</DistanceMeters>
          </Trackpoint>
          <Trackpoint>
            <Time>2021-08-03T08:27:43.000Z</Time>
            <Position>
              <LatitudeDegrees>41.2481805123388767242431640625</LatitudeDegrees>
              <LongitudeDegrees>-1.58745425753295421600341796875</LongitudeDegrees>
            </Position>
            <AltitudeMeters>623.4000244140625</AltitudeMeters>
            <DistanceMeters>514519.10850779</DistanceMeters>
          </Trackpoint>
          <Trackpoint>
            <Time>2021-08-03T08:27:56.000Z</Time>
            <Position>
              <LatitudeDegrees>41.24794774688780307769775390625</LatitudeDegrees>
              <LongitudeDegrees>-1.58719827421009540557861328125</LongitudeDegrees>
            </Position>
            <AltitudeMeters>622.4000244140625</AltitudeMeters>
            <DistanceMeters>514552.72513979</DistanceMeters>
          </Trackpoint>
          <Trackpoint>
            <Time>2021-08-03T08:28:46.000Z</Time>
            <Position>
              <LatitudeDegrees>41.2479203380644321441650390625</LatitudeDegrees>
              <LongitudeDegrees>-1.58715225756168365478515625</LongitudeDegrees>
            </Position>
            <AltitudeMeters>622.5999755859375</AltitudeMeters>
            <DistanceMeters>514557.63812201</DistanceMeters>
          </Trackpoint>
          <Trackpoint>
            <Time>2021-08-03T08:29:09.000Z</Time>
            <Position>
              <LatitudeDegrees>41.2474687211215496063232421875</LatitudeDegrees>
              <LongitudeDegrees>-1.586742885410785675048828125</LongitudeDegrees>
            </Position>
            <AltitudeMeters>623</AltitudeMeters>
            <DistanceMeters>514618.46783863</DistanceMeters>
          </Trackpoint>
          <Trackpoint>
            <Time>2021-08-03T08:29:28.000Z</Time>
            <Position>
              <LatitudeDegrees>41.2469713389873504638671875</LatitudeDegrees>
              <LongitudeDegrees>-1.586461924016475677490234375</LongitudeDegrees>
            </Position>
            <AltitudeMeters>623.4000244140625</AltitudeMeters>
            <DistanceMeters>514678.61351848</DistanceMeters>
          </Trackpoint>
          <Trackpoint>
            <Time>2021-08-03T08:29:31.000Z</Time>
            <Position>
              <LatitudeDegrees>41.2469007633626461029052734375</LatitudeDegrees>
              <LongitudeDegrees>-1.58638103865087032318115234375</LongitudeDegrees>
            </Position>
            <AltitudeMeters>623.20001220703125</AltitudeMeters>
            <DistanceMeters>514688.98275761</DistanceMeters>
          </Trackpoint>
          <Trackpoint>
            <Time>2021-08-03T08:29:35.000Z</Time>
            <Position>
              <LatitudeDegrees>41.2469718419015407562255859375</LatitudeDegrees>
              <LongitudeDegrees>-1.586253382265567779541015625</LongitudeDegrees>
            </Position>
            <AltitudeMeters>623</AltitudeMeters>
            <DistanceMeters>514702.27563299</DistanceMeters>
          </Trackpoint>
          <Trackpoint>
            <Time>2021-08-03T08:29:43.000Z</Time>
            <Position>
              <LatitudeDegrees>41.247115172445774078369140625</LatitudeDegrees>
              <LongitudeDegrees>-1.58600972034037113189697265625</LongitudeDegrees>
            </Position>
            <AltitudeMeters>623.20001220703125</AltitudeMeters>
            <DistanceMeters>514728.16566088</DistanceMeters>
          </Trackpoint>
          <Trackpoint>
            <Time>2021-08-03T08:29:49.000Z</Time>
            <Position>
              <LatitudeDegrees>41.24702624045312404632568359375</LatitudeDegrees>
              <LongitudeDegrees>-1.585788019001483917236328125</LongitudeDegrees>
            </Position>
            <AltitudeMeters>623.20001220703125</AltitudeMeters>
            <DistanceMeters>514749.19428051</DistanceMeters>
          </Trackpoint>
          <Trackpoint>
            <Time>2021-08-03T08:29:56.000Z</Time>
            <Position>
              <LatitudeDegrees>41.24691509641706943511962890625</LatitudeDegrees>
              <LongitudeDegrees>-1.58552675507962703704833984375</LongitudeDegrees>
            </Position>
            <AltitudeMeters>624.4000244140625</AltitudeMeters>
            <DistanceMeters>514774.31514559</DistanceMeters>
          </Trackpoint>
          <Trackpoint>
            <Time>2021-08-03T08:30:01.000Z</Time>
            <Position>
              <LatitudeDegrees>41.246846616268157958984375</LatitudeDegrees>
              <LongitudeDegrees>-1.58532994799315929412841796875</LongitudeDegrees>
            </Position>
            <AltitudeMeters>625.79998779296875</AltitudeMeters>
            <DistanceMeters>514792.46300905</DistanceMeters>
          </Trackpoint>
          <Trackpoint>
            <Time>2021-08-03T08:30:06.000Z</Time>
            <Position>
              <LatitudeDegrees>41.24676254577934741973876953125</LatitudeDegrees>
              <LongitudeDegrees>-1.58514755778014659881591796875</LongitudeDegrees>
            </Position>
            <AltitudeMeters>626.79998779296875</AltitudeMeters>
            <DistanceMeters>514810.366153</DistanceMeters>
          </Trackpoint>
          <Trackpoint>
            <Time>2021-08-03T08:30:12.000Z</Time>
            <Position>
              <LatitudeDegrees>41.24662860296666622161865234375</LatitudeDegrees>
              <LongitudeDegrees>-1.58496030606329441070556640625</LongitudeDegrees>
            </Position>
            <AltitudeMeters>628</AltitudeMeters>
            <DistanceMeters>514831.99511831</DistanceMeters>
          </Trackpoint>
          <Trackpoint>
            <Time>2021-08-03T08:30:18.000Z</Time>
            <Position>
              <LatitudeDegrees>41.2464836798608303070068359375</LatitudeDegrees>
              <LongitudeDegrees>-1.5848028101027011871337890625</LongitudeDegrees>
            </Position>
            <AltitudeMeters>629</AltitudeMeters>
            <DistanceMeters>514852.82526888</DistanceMeters>
          </Trackpoint>
          <Trackpoint>
            <Time>2021-08-03T08:30:35.000Z</Time>
            <Position>
              <LatitudeDegrees>41.246186457574367523193359375</LatitudeDegrees>
              <LongitudeDegrees>-1.58417358063161373138427734375</LongitudeDegrees>
            </Position>
            <AltitudeMeters>629.79998779296875</AltitudeMeters>
            <DistanceMeters>514915.01217673</DistanceMeters>
          </Trackpoint>
          <Trackpoint>
            <Time>2021-08-03T08:30:40.000Z</Time>
            <Position>
              <LatitudeDegrees>41.24605176039040088653564453125</LatitudeDegrees>
              <LongitudeDegrees>-1.5839954651892185211181640625</LongitudeDegrees>
            </Position>
            <AltitudeMeters>629.20001220703125</AltitudeMeters>
            <DistanceMeters>514936.15343175</DistanceMeters>
          </Trackpoint>
          <Trackpoint>
            <Time>2021-08-03T08:30:42.000Z</Time>
            <Position>
              <LatitudeDegrees>41.24598001129925251007080078125</LatitudeDegrees>
              <LongitudeDegrees>-1.58394391648471355438232421875</LongitudeDegrees>
            </Position>
            <AltitudeMeters>629</AltitudeMeters>
            <DistanceMeters>514945.22985106</DistanceMeters>
          </Trackpoint>
          <Trackpoint>
            <Time>2021-08-03T08:30:56.000Z</Time>
            <Position>
              <LatitudeDegrees>41.2455080263316631317138671875</LatitudeDegrees>
              <LongitudeDegrees>-1.58357762731611728668212890625</LongitudeDegrees>
            </Position>
            <AltitudeMeters>629.4000244140625</AltitudeMeters>
            <DistanceMeters>515006.05199634</DistanceMeters>
          </Trackpoint>
          <Trackpoint>
            <Time>2021-08-03T08:31:11.000Z</Time>
            <Position>
              <LatitudeDegrees>41.2452233768999576568603515625</LatitudeDegrees>
              <LongitudeDegrees>-1.5829364955425262451171875</LongitudeDegrees>
            </Position>
            <AltitudeMeters>629</AltitudeMeters>
            <DistanceMeters>515068.36213683</DistanceMeters>
          </Trackpoint>
          <Trackpoint>
            <Time>2021-08-03T08:31:25.000Z</Time>
            <Position>
              <LatitudeDegrees>41.2449967302381992340087890625</LatitudeDegrees>
              <LongitudeDegrees>-1.58228564076125621795654296875</LongitudeDegrees>
            </Position>
            <AltitudeMeters>629.20001220703125</AltitudeMeters>
            <DistanceMeters>515128.38848973</DistanceMeters>
          </Trackpoint>
          <Trackpoint>
            <Time>2021-08-03T08:31:38.000Z</Time>
            <Position>
              <LatitudeDegrees>41.24486605636775493621826171875</LatitudeDegrees>
              <LongitudeDegrees>-1.58158742822706699371337890625</LongitudeDegrees>
            </Position>
            <AltitudeMeters>629</AltitudeMeters>
            <DistanceMeters>515188.60319287</DistanceMeters>
          </Trackpoint>
          <Trackpoint>
            <Time>2021-08-03T08:31:42.000Z</Time>
            <Position>
              <LatitudeDegrees>41.24481643550097942352294921875</LatitudeDegrees>
              <LongitudeDegrees>-1.58135910518467426300048828125</LongitudeDegrees>
            </Position>
            <AltitudeMeters>629.20001220703125</AltitudeMeters>
            <DistanceMeters>515208.49308098</DistanceMeters>
          </Trackpoint>
          <Trackpoint>
            <Time>2021-08-03T08:31:47.000Z</Time>
            <Position>
              <LatitudeDegrees>41.24464108608663082122802734375</LatitudeDegrees>
              <LongitudeDegrees>-1.58114771358668804168701171875</LongitudeDegrees>
            </Position>
            <AltitudeMeters>628.79998779296875</AltitudeMeters>
            <DistanceMeters>515234.83434222</DistanceMeters>
          </Trackpoint>
          <Trackpoint>
            <Time>2021-08-03T08:31:52.000Z</Time>
            <Position>
              <LatitudeDegrees>41.24442667700350284576416015625</LatitudeDegrees>
              <LongitudeDegrees>-1.5810463763773441314697265625</LongitudeDegrees>
            </Position>
            <AltitudeMeters>629</AltitudeMeters>
            <DistanceMeters>515260.16069983</DistanceMeters>
          </Trackpoint>
          <Trackpoint>
            <Time>2021-08-03T08:32:06.000Z</Time>
            <Position>
              <LatitudeDegrees>41.2438591383397579193115234375</LatitudeDegrees>
              <LongitudeDegrees>-1.58092995174229145050048828125</LongitudeDegrees>
            </Position>
            <AltitudeMeters>628.5999755859375</AltitudeMeters>
            <DistanceMeters>515324.0758968</DistanceMeters>
          </Trackpoint>
          <Trackpoint>
            <Time>2021-08-03T08:32:19.000Z</Time>
            <Position>
              <LatitudeDegrees>41.2433015741407871246337890625</LatitudeDegrees>
              <LongitudeDegrees>-1.5808981843292713165283203125</LongitudeDegrees>
            </Position>
            <AltitudeMeters>628</AltitudeMeters>
            <DistanceMeters>515386.19081209</DistanceMeters>
          </Trackpoint>
          <Trackpoint>
            <Time>2021-08-03T08:32:22.000Z</Time>
            <Position>
              <LatitudeDegrees>41.24317559413611888885498046875</LatitudeDegrees>
              <LongitudeDegrees>-1.58088862895965576171875</LongitudeDegrees>
            </Position>
            <AltitudeMeters>627.79998779296875</AltitudeMeters>
            <DistanceMeters>515400.23549044</DistanceMeters>
          </Trackpoint>
          <Trackpoint>
            <Time>2021-08-03T08:32:27.000Z</Time>
            <Position>
              <LatitudeDegrees>41.2430011667311191558837890625</LatitudeDegrees>
              <LongitudeDegrees>-1.58076457679271697998046875</LongitudeDegrees>
            </Position>
            <AltitudeMeters>628</AltitudeMeters>
            <DistanceMeters>515422.25115198</DistanceMeters>
          </Trackpoint>
          <Trackpoint>
            <Time>2021-08-03T08:32:40.000Z</Time>
            <Position>
              <LatitudeDegrees>41.24272204935550689697265625</LatitudeDegrees>
              <LongitudeDegrees>-1.58025898039340972900390625</LongitudeDegrees>
            </Position>
            <AltitudeMeters>629.4000244140625</AltitudeMeters>
            <DistanceMeters>515474.74444571</DistanceMeters>
          </Trackpoint>
          <Trackpoint>
            <Time>2021-08-03T08:32:54.000Z</Time>
            <Position>
              <LatitudeDegrees>41.242806874215602874755859375</LatitudeDegrees>
              <LongitudeDegrees>-1.5795600973069667816162109375</LongitudeDegrees>
            </Position>
            <AltitudeMeters>629.79998779296875</AltitudeMeters>
            <DistanceMeters>515533.99144931</DistanceMeters>
          </Trackpoint>
          <Trackpoint>
            <Time>2021-08-03T08:33:01.000Z</Time>
            <Position>
              <LatitudeDegrees>41.24283763580024242401123046875</LatitudeDegrees>
              <LongitudeDegrees>-1.57921417616307735443115234375</LongitudeDegrees>
            </Position>
            <AltitudeMeters>630.4000244140625</AltitudeMeters>
            <DistanceMeters>515563.14343988</DistanceMeters>
          </Trackpoint>
          <Trackpoint>
            <Time>2021-08-03T08:33:06.000Z</Time>
            <Position>
              <LatitudeDegrees>41.24281802214682102203369140625</LatitudeDegrees>
              <LongitudeDegrees>-1.5789753757417201995849609375</LongitudeDegrees>
            </Position>
            <AltitudeMeters>631.4000244140625</AltitudeMeters>
            <DistanceMeters>515583.24782303</DistanceMeters>
          </Trackpoint>
          <Trackpoint>
            <Time>2021-08-03T08:33:12.000Z</Time>
            <Position>
              <LatitudeDegrees>41.242762617766857147216796875</LatitudeDegrees>
              <LongitudeDegrees>-1.57869902439415454864501953125</LongitudeDegrees>
            </Position>
            <AltitudeMeters>632.4000244140625</AltitudeMeters>
            <DistanceMeters>515607.1839942</DistanceMeters>
          </Trackpoint>
          <Trackpoint>
            <Time>2021-08-03T08:33:26.000Z</Time>
            <Position>
              <LatitudeDegrees>41.242582909762859344482421875</LatitudeDegrees>
              <LongitudeDegrees>-1.578017659485340118408203125</LongitudeDegrees>
            </Position>
            <AltitudeMeters>632.79998779296875</AltitudeMeters>
            <DistanceMeters>515667.61396172</DistanceMeters>
          </Trackpoint>
          <Trackpoint>
            <Time>2021-08-03T08:33:39.000Z</Time>
            <Position>
              <LatitudeDegrees>41.24234930612146854400634765625</LatitudeDegrees>
              <LongitudeDegrees>-1.5773425810039043426513671875</LongitudeDegrees>
            </Position>
            <AltitudeMeters>632.4000244140625</AltitudeMeters>
            <DistanceMeters>515729.80747621</DistanceMeters>
          </Trackpoint>
          <Trackpoint>
            <Time>2021-08-03T08:33:51.000Z</Time>
            <Position>
              <LatitudeDegrees>41.242131628096103668212890625</LatitudeDegrees>
              <LongitudeDegrees>-1.57668384723365306854248046875</LongitudeDegrees>
            </Position>
            <AltitudeMeters>632.20001220703125</AltitudeMeters>
            <DistanceMeters>515790.02652816</DistanceMeters>
          </Trackpoint>
          <Trackpoint>
            <Time>2021-08-03T08:34:02.000Z</Time>
            <Position>
              <LatitudeDegrees>41.24196927063167095184326171875</LatitudeDegrees>
              <LongitudeDegrees>-1.57606727443635463714599609375</LongitudeDegrees>
            </Position>
            <AltitudeMeters>631.20001220703125</AltitudeMeters>
            <DistanceMeters>515844.70100526</DistanceMeters>
          </Trackpoint>
          <Trackpoint>
            <Time>2021-08-03T08:34:14.000Z</Time>
            <Position>
              <LatitudeDegrees>41.24168981797993183135986328125</LatitudeDegrees>
              <LongitudeDegrees>-1.5754134021699428558349609375</LongitudeDegrees>
            </Position>
            <AltitudeMeters>631.20001220703125</AltitudeMeters>
            <DistanceMeters>515907.64635943</DistanceMeters>
          </Trackpoint>
          <Trackpoint>
            <Time>2021-08-03T08:34:26.000Z</Time>
            <Position>
              <LatitudeDegrees>41.2414243631064891815185546875</LatitudeDegrees>
              <LongitudeDegrees>-1.57484225928783416748046875</LongitudeDegrees>
            </Position>
            <AltitudeMeters>632.4000244140625</AltitudeMeters>
            <DistanceMeters>515963.84066227</DistanceMeters>
          </Trackpoint>
          <Trackpoint>
            <Time>2021-08-03T08:34:35.000Z</Time>
            <Position>
              <LatitudeDegrees>41.24126032926142215728759765625</LatitudeDegrees>
              <LongitudeDegrees>-1.57442651689052581787109375</LongitudeDegrees>
            </Position>
            <AltitudeMeters>633.4000244140625</AltitudeMeters>
            <DistanceMeters>516003.13417994</DistanceMeters>
          </Trackpoint>
          <Trackpoint>
            <Time>2021-08-03T08:34:41.000Z</Time>
            <Position>
              <LatitudeDegrees>41.2411504425108432769775390625</LatitudeDegrees>
              <LongitudeDegrees>-1.5741644985973834991455078125</LongitudeDegrees>
            </Position>
            <AltitudeMeters>634.4000244140625</AltitudeMeters>
            <DistanceMeters>516028.24335968</DistanceMeters>
          </Trackpoint>
          <Trackpoint>
            <Time>2021-08-03T08:34:47.000Z</Time>
            <Position>
              <LatitudeDegrees>41.24103720299899578094482421875</LatitudeDegrees>
              <LongitudeDegrees>-1.57387590967118740081787109375</LongitudeDegrees>
            </Position>
            <AltitudeMeters>635</AltitudeMeters>
            <DistanceMeters>516055.48703974</DistanceMeters>
          </Trackpoint>
          <Trackpoint>
            <Time>2021-08-03T08:34:51.000Z</Time>
            <Position>
              <LatitudeDegrees>41.2409690581262111663818359375</LatitudeDegrees>
              <LongitudeDegrees>-1.573691256344318389892578125</LongitudeDegrees>
            </Position>
            <AltitudeMeters>635.20001220703125</AltitudeMeters>
            <DistanceMeters>516072.70235586</DistanceMeters>
          </Trackpoint>
          <Trackpoint>
            <Time>2021-08-03T08:35:03.000Z</Time>
            <Position>
              <LatitudeDegrees>41.2407367117702960968017578125</LatitudeDegrees>
              <LongitudeDegrees>-1.57299815677106380462646484375</LongitudeDegrees>
            </Position>
            <AltitudeMeters>633.5999755859375</AltitudeMeters>
            <DistanceMeters>516136.21340904</DistanceMeters>
          </Trackpoint>
          <Trackpoint>
            <Time>2021-08-03T08:35:06.000Z</Time>
            <Position>
              <LatitudeDegrees>41.24068197794258594512939453125</LatitudeDegrees>
              <LongitudeDegrees>-1.57282817177474498748779296875</LongitudeDegrees>
            </Position>
            <AltitudeMeters>633.79998779296875</AltitudeMeters>
            <DistanceMeters>516151.689349</DistanceMeters>
          </Trackpoint>
          <Trackpoint>
            <Time>2021-08-03T08:35:15.000Z</Time>
            <Position>
              <LatitudeDegrees>41.240568570792675018310546875</LatitudeDegrees>
              <LongitudeDegrees>-1.57230346463620662689208984375</LongitudeDegrees>
            </Position>
            <AltitudeMeters>633.79998779296875</AltitudeMeters>
            <DistanceMeters>516197.38188509</DistanceMeters>
          </Trackpoint>
          <Trackpoint>
            <Time>2021-08-03T08:35:24.000Z</Time>
            <Position>
              <LatitudeDegrees>41.2402871064841747283935546875</LatitudeDegrees>
              <LongitudeDegrees>-1.57188780605792999267578125</LongitudeDegrees>
            </Position>
            <AltitudeMeters>633.20001220703125</AltitudeMeters>
            <DistanceMeters>516244.19660086</DistanceMeters>
          </Trackpoint>
          <Trackpoint>
            <Time>2021-08-03T08:35:26.000Z</Time>
            <Position>
              <LatitudeDegrees>41.240224577486515045166015625</LatitudeDegrees>
              <LongitudeDegrees>-1.57178722321987152099609375</LongitudeDegrees>
            </Position>
            <AltitudeMeters>633</AltitudeMeters>
            <DistanceMeters>516255.12012731</DistanceMeters>
          </Trackpoint>
          <Trackpoint>
            <Time>2021-08-03T08:35:34.000Z</Time>
            <Position>
              <LatitudeDegrees>41.2400383315980434417724609375</LatitudeDegrees>
              <LongitudeDegrees>-1.57130635343492031097412109375</LongitudeDegrees>
            </Position>
            <AltitudeMeters>632.20001220703125</AltitudeMeters>
            <DistanceMeters>516300.39085803</DistanceMeters>
          </Trackpoint>
          <Trackpoint>
            <Time>2021-08-03T08:35:40.000Z</Time>
            <Position>
              <LatitudeDegrees>41.239881925284862518310546875</LatitudeDegrees>
              <LongitudeDegrees>-1.570983231067657470703125</LongitudeDegrees>
            </Position>
            <AltitudeMeters>632.20001220703125</AltitudeMeters>
            <DistanceMeters>516332.55287377</DistanceMeters>
          </Trackpoint>
          <Trackpoint>
            <Time>2021-08-03T08:35:46.000Z</Time>
            <Position>
              <LatitudeDegrees>41.23963843099772930145263671875</LatitudeDegrees>
              <LongitudeDegrees>-1.57086613588035106658935546875</LongitudeDegrees>
            </Position>
            <AltitudeMeters>632.79998779296875</AltitudeMeters>
            <DistanceMeters>516361.37183022</DistanceMeters>
          </Trackpoint>
          <Trackpoint>
            <Time>2021-08-03T08:35:48.000Z</Time>
            <Position>
              <LatitudeDegrees>41.23956265859305858612060546875</LatitudeDegrees>
              <LongitudeDegrees>-1.5708479471504688262939453125</LongitudeDegrees>
            </Position>
            <AltitudeMeters>633.4000244140625</AltitudeMeters>
            <DistanceMeters>516369.94216521</DistanceMeters>
          </Trackpoint>
          <Trackpoint>
            <Time>2021-08-03T08:35:54.000Z</Time>
            <Position>
              <LatitudeDegrees>41.2394370138645172119140625</LatitudeDegrees>
              <LongitudeDegrees>-1.57063462771475315093994140625</LongitudeDegrees>
            </Position>
            <AltitudeMeters>634.5999755859375</AltitudeMeters>
            <DistanceMeters>516392.62112229</DistanceMeters>
          </Trackpoint>
          <Trackpoint>
            <Time>2021-08-03T08:35:59.000Z</Time>
            <Position>
              <LatitudeDegrees>41.2393439747393131256103515625</LatitudeDegrees>
              <LongitudeDegrees>-1.570451818406581878662109375</LongitudeDegrees>
            </Position>
            <AltitudeMeters>635.5999755859375</AltitudeMeters>
            <DistanceMeters>516411.09642714</DistanceMeters>
          </Trackpoint>
          <Trackpoint>
            <Time>2021-08-03T08:36:14.000Z</Time>
            <Position>
              <LatitudeDegrees>41.23902169056236743927001953125</LatitudeDegrees>
              <LongitudeDegrees>-1.56984530389308929443359375</LongitudeDegrees>
            </Position>
            <AltitudeMeters>636</AltitudeMeters>
            <DistanceMeters>516473.25377801</DistanceMeters>
          </Trackpoint>
          <Trackpoint>
            <Time>2021-08-03T08:36:28.000Z</Time>
            <Position>
              <LatitudeDegrees>41.23891339637339115142822265625</LatitudeDegrees>
              <LongitudeDegrees>-1.56912789680063724517822265625</LongitudeDegrees>
            </Position>
            <AltitudeMeters>636</AltitudeMeters>
            <DistanceMeters>516534.49523317</DistanceMeters>
          </Trackpoint>
          <Trackpoint>
            <Time>2021-08-03T08:36:43.000Z</Time>
            <Position>
              <LatitudeDegrees>41.2387149967253208160400390625</LatitudeDegrees>
              <LongitudeDegrees>-1.56840872950851917266845703125</LongitudeDegrees>
            </Position>
            <AltitudeMeters>636.5999755859375</AltitudeMeters>
            <DistanceMeters>516598.60911722</DistanceMeters>
          </Trackpoint>
          <Trackpoint>
            <Time>2021-08-03T08:36:44.000Z</Time>
            <Position>
              <LatitudeDegrees>41.2387005798518657684326171875</LatitudeDegrees>
              <LongitudeDegrees>-1.56836028210818767547607421875</LongitudeDegrees>
            </Position>
            <AltitudeMeters>636.5999755859375</AltitudeMeters>
            <DistanceMeters>516602.97000486</DistanceMeters>
          </Trackpoint>
          <Trackpoint>
            <Time>2021-08-03T08:36:55.000Z</Time>
            <Position>
              <LatitudeDegrees>41.23851676471531391143798828125</LatitudeDegrees>
              <LongitudeDegrees>-1.56782417558133602142333984375</LongitudeDegrees>
            </Position>
            <AltitudeMeters>636.4000244140625</AltitudeMeters>
            <DistanceMeters>516652.2841089</DistanceMeters>
          </Trackpoint>
          <Trackpoint>
            <Time>2021-08-03T08:37:08.000Z</Time>
            <Position>
              <LatitudeDegrees>41.23822071589529514312744140625</LatitudeDegrees>
              <LongitudeDegrees>-1.56722755171358585357666015625</LongitudeDegrees>
            </Position>
            <AltitudeMeters>636.20001220703125</AltitudeMeters>
            <DistanceMeters>516712.11110498</DistanceMeters>
          </Trackpoint>
          <Trackpoint>
            <Time>2021-08-03T08:37:17.000Z</Time>
            <Position>
              <LatitudeDegrees>41.23797043226659297943115234375</LatitudeDegrees>
              <LongitudeDegrees>-1.566836871206760406494140625</LongitudeDegrees>
            </Position>
            <AltitudeMeters>635.20001220703125</AltitudeMeters>
            <DistanceMeters>516755.06706907</DistanceMeters>
          </Trackpoint>
          <Trackpoint>
            <Time>2021-08-03T08:37:19.000Z</Time>
            <Position>
              <LatitudeDegrees>41.2378955818712711334228515625</LatitudeDegrees>
              <LongitudeDegrees>-1.5667569078505039215087890625</LongitudeDegrees>
            </Position>
            <AltitudeMeters>634.79998779296875</AltitudeMeters>
            <DistanceMeters>516765.75324456</DistanceMeters>
          </Trackpoint>
          <Trackpoint>
            <Time>2021-08-03T08:37:24.000Z</Time>
            <Position>
              <LatitudeDegrees>41.237758956849575042724609375</LatitudeDegrees>
              <LongitudeDegrees>-1.56655549071729183197021484375</LongitudeDegrees>
            </Position>
            <AltitudeMeters>636</AltitudeMeters>
            <DistanceMeters>516788.45647701</DistanceMeters>
          </Trackpoint>
          <Trackpoint>
            <Time>2021-08-03T08:37:26.000Z</Time>
            <Position>
              <LatitudeDegrees>41.23771294020116329193115234375</LatitudeDegrees>
              <LongitudeDegrees>-1.56646597199141979217529296875</LongitudeDegrees>
            </Position>
            <AltitudeMeters>636.20001220703125</AltitudeMeters>
            <DistanceMeters>516797.53239885</DistanceMeters>
          </Trackpoint>
          <Trackpoint>
            <Time>2021-08-03T08:37:30.000Z</Time>
            <Position>
              <LatitudeDegrees>41.23767815530300140380859375</LatitudeDegrees>
              <LongitudeDegrees>-1.566266901791095733642578125</LongitudeDegrees>
            </Position>
            <AltitudeMeters>636.4000244140625</AltitudeMeters>
            <DistanceMeters>516814.63826326</DistanceMeters>
          </Trackpoint>
          <Trackpoint>
            <Time>2021-08-03T08:37:32.000Z</Time>
            <Position>
              <LatitudeDegrees>41.23767170123755931854248046875</LatitudeDegrees>
              <LongitudeDegrees>-1.566160283982753753662109375</LongitudeDegrees>
            </Position>
            <AltitudeMeters>636.5999755859375</AltitudeMeters>
            <DistanceMeters>516823.59097003</DistanceMeters>
          </Trackpoint>
          <Trackpoint>
            <Time>2021-08-03T08:37:37.000Z</Time>
            <Position>
              <LatitudeDegrees>41.2376372516155242919921875</LatitudeDegrees>
              <LongitudeDegrees>-1.56589868478477001190185546875</LongitudeDegrees>
            </Position>
            <AltitudeMeters>636</AltitudeMeters>
            <DistanceMeters>516845.81930089</DistanceMeters>
          </Trackpoint>
          <Trackpoint>
            <Time>2021-08-03T08:37:51.000Z</Time>
            <Position>
              <LatitudeDegrees>41.23744287528097629547119140625</LatitudeDegrees>
              <LongitudeDegrees>-1.56520835123956203460693359375</LongitudeDegrees>
            </Position>
            <AltitudeMeters>635.79998779296875</AltitudeMeters>
            <DistanceMeters>516907.51579312</DistanceMeters>
          </Trackpoint>
          <Trackpoint>
            <Time>2021-08-03T08:38:05.000Z</Time>
            <Position>
              <LatitudeDegrees>41.2372992932796478271484375</LatitudeDegrees>
              <LongitudeDegrees>-1.564498655498027801513671875</LongitudeDegrees>
            </Position>
            <AltitudeMeters>635.79998779296875</AltitudeMeters>
            <DistanceMeters>516969.02766507</DistanceMeters>
          </Trackpoint>
          <Trackpoint>
            <Time>2021-08-03T08:38:20.000Z</Time>
            <Position>
              <LatitudeDegrees>41.2371418811380863189697265625</LatitudeDegrees>
              <LongitudeDegrees>-1.56377219595015048980712890625</LongitudeDegrees>
            </Position>
            <AltitudeMeters>636</AltitudeMeters>
            <DistanceMeters>517032.30454067</DistanceMeters>
          </Trackpoint>
          <Trackpoint>
            <Time>2021-08-03T08:38:34.000Z</Time>
            <Position>
              <LatitudeDegrees>41.2368961237370967864990234375</LatitudeDegrees>
              <LongitudeDegrees>-1.5630745701491832733154296875</LongitudeDegrees>
            </Position>
            <AltitudeMeters>635.79998779296875</AltitudeMeters>
            <DistanceMeters>517096.78379016</DistanceMeters>
          </Trackpoint>
          <Trackpoint>
            <Time>2021-08-03T08:38:47.000Z</Time>
            <Position>
              <LatitudeDegrees>41.2366610951721668243408203125</LatitudeDegrees>
              <LongitudeDegrees>-1.56239169649779796600341796875</LongitudeDegrees>
            </Position>
            <AltitudeMeters>635.4000244140625</AltitudeMeters>
            <DistanceMeters>517159.64107063</DistanceMeters>
          </Trackpoint>
          <Trackpoint>
            <Time>2021-08-03T08:39:00.000Z</Time>
            <Position>
              <LatitudeDegrees>41.236477196216583251953125</LatitudeDegrees>
              <LongitudeDegrees>-1.5616627223789691925048828125</LongitudeDegrees>
            </Position>
            <AltitudeMeters>635.5999755859375</AltitudeMeters>
            <DistanceMeters>517223.99689128</DistanceMeters>
          </Trackpoint>
          <Trackpoint>
            <Time>2021-08-03T08:39:13.000Z</Time>
            <Position>
              <LatitudeDegrees>41.2363194487988948822021484375</LatitudeDegrees>
              <LongitudeDegrees>-1.56096048653125762939453125</LongitudeDegrees>
            </Position>
            <AltitudeMeters>636.20001220703125</AltitudeMeters>
            <DistanceMeters>517285.33948761</DistanceMeters>
          </Trackpoint>
          <Trackpoint>
            <Time>2021-08-03T08:39:20.000Z</Time>
            <Position>
              <LatitudeDegrees>41.23620218597352504730224609375</LatitudeDegrees>
              <LongitudeDegrees>-1.56063317321240901947021484375</LongitudeDegrees>
            </Position>
            <AltitudeMeters>637.4000244140625</AltitudeMeters>
            <DistanceMeters>517315.68531328</DistanceMeters>
          </Trackpoint>
          <Trackpoint>
            <Time>2021-08-03T08:39:38.000Z</Time>
            <Position>
              <LatitudeDegrees>41.23594335280358791351318359375</LatitudeDegrees>
              <LongitudeDegrees>-1.55998005531728267669677734375</LongitudeDegrees>
            </Position>
            <AltitudeMeters>637.79998779296875</AltitudeMeters>
            <DistanceMeters>517377.47723349</DistanceMeters>
          </Trackpoint>
          <Trackpoint>
            <Time>2021-08-03T08:39:40.000Z</Time>
            <Position>
              <LatitudeDegrees>41.23590814881026744842529296875</LatitudeDegrees>
              <LongitudeDegrees>-1.55990160070359706878662109375</LongitudeDegrees>
            </Position>
            <AltitudeMeters>638.4000244140625</AltitudeMeters>
            <DistanceMeters>517385.12378467</DistanceMeters>
          </Trackpoint>
          <Trackpoint>
            <Time>2021-08-03T08:39:56.000Z</Time>
            <Position>
              <LatitudeDegrees>41.23571653850376605987548828125</LatitudeDegrees>
              <LongitudeDegrees>-1.55919148586690425872802734375</LongitudeDegrees>
            </Position>
            <AltitudeMeters>638.5999755859375</AltitudeMeters>
            <DistanceMeters>517448.27030553</DistanceMeters>
          </Trackpoint>
          <Trackpoint>
            <Time>2021-08-03T08:40:10.000Z</Time>
            <Position>
              <LatitudeDegrees>41.2356066517531871795654296875</LatitudeDegrees>
              <LongitudeDegrees>-1.55846712179481983184814453125</LongitudeDegrees>
            </Position>
            <AltitudeMeters>637.4000244140625</AltitudeMeters>
            <DistanceMeters>517510.12050686</DistanceMeters>
          </Trackpoint>
          <Trackpoint>
            <Time>2021-08-03T08:40:24.000Z</Time>
            <Position>
              <LatitudeDegrees>41.23550699092447757720947265625</LatitudeDegrees>
              <LongitudeDegrees>-1.55773320235311985015869140625</LongitudeDegrees>
            </Position>
            <AltitudeMeters>637.79998779296875</AltitudeMeters>
            <DistanceMeters>517572.54286043</DistanceMeters>
          </Trackpoint>
          <Trackpoint>
            <Time>2021-08-03T08:40:38.000Z</Time>
            <Position>
              <LatitudeDegrees>41.2354779057204723358154296875</LatitudeDegrees>
              <LongitudeDegrees>-1.556972377002239227294921875</LongitudeDegrees>
            </Position>
            <AltitudeMeters>638.4000244140625</AltitudeMeters>
            <DistanceMeters>517636.30613982</DistanceMeters>
          </Trackpoint>
          <Trackpoint>
            <Time>2021-08-03T08:40:44.000Z</Time>
            <Position>
              <LatitudeDegrees>41.2354825995862483978271484375</LatitudeDegrees>
              <LongitudeDegrees>-1.55664104036986827850341796875</LongitudeDegrees>
            </Position>
            <AltitudeMeters>638.20001220703125</AltitudeMeters>
            <DistanceMeters>517664.04385013</DistanceMeters>
          </Trackpoint>
          <Trackpoint>
            <Time>2021-08-03T08:40:59.000Z</Time>
            <Position>
              <LatitudeDegrees>41.23547337949275970458984375</LatitudeDegrees>
              <LongitudeDegrees>-1.55588549561798572540283203125</LongitudeDegrees>
            </Position>
            <AltitudeMeters>638</AltitudeMeters>
            <DistanceMeters>517727.29110702</DistanceMeters>
          </Trackpoint>
          <Trackpoint>
            <Time>2021-08-03T08:41:15.000Z</Time>
            <Position>
              <LatitudeDegrees>41.235358379781246185302734375</LatitudeDegrees>
              <LongitudeDegrees>-1.55516088008880615234375</LongitudeDegrees>
            </Position>
            <AltitudeMeters>639.20001220703125</AltitudeMeters>
            <DistanceMeters>517789.27730304</DistanceMeters>
          </Trackpoint>
          <Trackpoint>
            <Time>2021-08-03T08:41:17.000Z</Time>
            <Position>
              <LatitudeDegrees>41.23532761819660663604736328125</LatitudeDegrees>
              <LongitudeDegrees>-1.55508904717862606048583984375</LongitudeDegrees>
            </Position>
            <AltitudeMeters>639.4000244140625</AltitudeMeters>
            <DistanceMeters>517796.19665744</DistanceMeters>
          </Trackpoint>
          <Trackpoint>
            <Time>2021-08-03T08:41:22.000Z</Time>
            <Position>
              <LatitudeDegrees>41.2352562882006168365478515625</LatitudeDegrees>
              <LongitudeDegrees>-1.5549112670123577117919921875</LongitudeDegrees>
            </Position>
            <AltitudeMeters>640.5999755859375</AltitudeMeters>
            <DistanceMeters>517813.06222615</DistanceMeters>
          </Trackpoint>
          <Trackpoint>
            <Time>2021-08-03T08:41:29.000Z</Time>
            <Position>
              <LatitudeDegrees>41.235149838030338287353515625</LatitudeDegrees>
              <LongitudeDegrees>-1.5546752326190471649169921875</LongitudeDegrees>
            </Position>
            <AltitudeMeters>641.5999755859375</AltitudeMeters>
            <DistanceMeters>517836.09870879</DistanceMeters>
          </Trackpoint>
          <Trackpoint>
            <Time>2021-08-03T08:41:43.000Z</Time>
            <Position>
              <LatitudeDegrees>41.23489846475422382354736328125</LatitudeDegrees>
              <LongitudeDegrees>-1.55414289794862270355224609375</LongitudeDegrees>
            </Position>
            <AltitudeMeters>640.4000244140625</AltitudeMeters>
            <DistanceMeters>517888.71133715</DistanceMeters>
          </Trackpoint>
          <Trackpoint>
            <Time>2021-08-03T08:41:47.000Z</Time>
            <Position>
              <LatitudeDegrees>41.23480391688644886016845703125</LatitudeDegrees>
              <LongitudeDegrees>-1.55393016524612903594970703125</LongitudeDegrees>
            </Position>
            <AltitudeMeters>639.20001220703125</AltitudeMeters>
            <DistanceMeters>517909.39444237</DistanceMeters>
          </Trackpoint>
          <Trackpoint>
            <Time>2021-08-03T08:41:56.000Z</Time>
            <Position>
              <LatitudeDegrees>41.23456888832151889801025390625</LatitudeDegrees>
              <LongitudeDegrees>-1.55346564017236232757568359375</LongitudeDegrees>
            </Position>
            <AltitudeMeters>638.4000244140625</AltitudeMeters>
            <DistanceMeters>517956.25639229</DistanceMeters>
          </Trackpoint>
          <Trackpoint>
            <Time>2021-08-03T08:41:59.000Z</Time>
            <Position>
              <LatitudeDegrees>41.234540306031703948974609375</LatitudeDegrees>
              <LongitudeDegrees>-1.55329607427120208740234375</LongitudeDegrees>
            </Position>
            <AltitudeMeters>638</AltitudeMeters>
            <DistanceMeters>517970.80137875</DistanceMeters>
          </Trackpoint>
          <Trackpoint>
            <Time>2021-08-03T08:42:02.000Z</Time>
            <Position>
              <LatitudeDegrees>41.23455564491450786590576171875</LatitudeDegrees>
              <LongitudeDegrees>-1.55309616588056087493896484375</LongitudeDegrees>
            </Position>
            <AltitudeMeters>637.4000244140625</AltitudeMeters>
            <DistanceMeters>517987.62083875</DistanceMeters>
          </Trackpoint>
          <Trackpoint>
            <Time>2021-08-03T08:42:05.000Z</Time>
            <Position>
              <LatitudeDegrees>41.2345686368644237518310546875</LatitudeDegrees>
              <LongitudeDegrees>-1.55286901630461215972900390625</LongitudeDegrees>
            </Position>
            <AltitudeMeters>636.4000244140625</AltitudeMeters>
            <DistanceMeters>518006.68855933</DistanceMeters>
          </Trackpoint>
          <Trackpoint>
            <Time>2021-08-03T08:42:17.000Z</Time>
            <Position>
              <LatitudeDegrees>41.234398148953914642333984375</LatitudeDegrees>
              <LongitudeDegrees>-1.552149765193462371826171875</LongitudeDegrees>
            </Position>
            <AltitudeMeters>637.4000244140625</AltitudeMeters>
            <DistanceMeters>518069.81047905</DistanceMeters>
          </Trackpoint>
          <Trackpoint>
            <Time>2021-08-03T08:42:27.000Z</Time>
            <Position>
              <LatitudeDegrees>41.23425506986677646636962890625</LatitudeDegrees>
              <LongitudeDegrees>-1.55168532393872737884521484375</LongitudeDegrees>
            </Position>
            <AltitudeMeters>637.4000244140625</AltitudeMeters>
            <DistanceMeters>518111.82024077</DistanceMeters>
          </Trackpoint>
          <Trackpoint>
            <Time>2021-08-03T08:42:37.000Z</Time>
            <Position>
              <LatitudeDegrees>41.2340308539569377899169921875</LatitudeDegrees>
              <LongitudeDegrees>-1.55125080607831478118896484375</LongitudeDegrees>
            </Position>
            <AltitudeMeters>637.4000244140625</AltitudeMeters>
            <DistanceMeters>518155.92860767</DistanceMeters>
          </Trackpoint>
          <Trackpoint>
            <Time>2021-08-03T08:42:51.000Z</Time>
            <Position>
              <LatitudeDegrees>41.233633719384670257568359375</LatitudeDegrees>
              <LongitudeDegrees>-1.55077471397817134857177734375</LongitudeDegrees>
            </Position>
            <AltitudeMeters>638</AltitudeMeters>
            <DistanceMeters>518215.44173818</DistanceMeters>
          </Trackpoint>
          <Trackpoint>
            <Time>2021-08-03T08:42:53.000Z</Time>
            <Position>
              <LatitudeDegrees>41.23357177712023258209228515625</LatitudeDegrees>
              <LongitudeDegrees>-1.5507172979414463043212890625</LongitudeDegrees>
            </Position>
            <AltitudeMeters>638.4000244140625</AltitudeMeters>
            <DistanceMeters>518223.84609764</DistanceMeters>
          </Trackpoint>
          <Trackpoint>
            <Time>2021-08-03T08:43:02.000Z</Time>
            <Position>
              <LatitudeDegrees>41.2332949228584766387939453125</LatitudeDegrees>
              <LongitudeDegrees>-1.5504306368529796600341796875</LongitudeDegrees>
            </Position>
            <AltitudeMeters>638</AltitudeMeters>
            <DistanceMeters>518262.90057436</DistanceMeters>
          </Trackpoint>
          <Trackpoint>
            <Time>2021-08-03T08:43:04.000Z</Time>
            <Position>
              <LatitudeDegrees>41.23325385153293609619140625</LatitudeDegrees>
              <LongitudeDegrees>-1.5503139607608318328857421875</LongitudeDegrees>
            </Position>
            <AltitudeMeters>637.20001220703125</AltitudeMeters>
            <DistanceMeters>518273.68348975</DistanceMeters>
          </Trackpoint>
          <Trackpoint>
            <Time>2021-08-03T08:43:06.000Z</Time>
            <Position>
              <LatitudeDegrees>41.23322392813861370086669921875</LatitudeDegrees>
              <LongitudeDegrees>-1.5501842088997364044189453125</LongitudeDegrees>
            </Position>
            <AltitudeMeters>637</AltitudeMeters>
            <DistanceMeters>518285.04305807</DistanceMeters>
          </Trackpoint>
          <Trackpoint>
            <Time>2021-08-03T08:43:21.000Z</Time>
            <Position>
              <LatitudeDegrees>41.23278471641242504119873046875</LatitudeDegrees>
              <LongitudeDegrees>-1.5496883355081081390380859375</LongitudeDegrees>
            </Position>
            <AltitudeMeters>638</AltitudeMeters>
            <DistanceMeters>518349.17194028</DistanceMeters>
          </Trackpoint>
          <Trackpoint>
            <Time>2021-08-03T08:43:23.000Z</Time>
            <Position>
              <LatitudeDegrees>41.23272034339606761932373046875</LatitudeDegrees>
              <LongitudeDegrees>-1.54961616732180118560791015625</LongitudeDegrees>
            </Position>
            <AltitudeMeters>637.79998779296875</AltitudeMeters>
            <DistanceMeters>518358.54352091</DistanceMeters>
          </Trackpoint>
          <Trackpoint>
            <Time>2021-08-03T08:43:29.000Z</Time>
            <Position>
              <LatitudeDegrees>41.23251180164515972137451171875</LatitudeDegrees>
              <LongitudeDegrees>-1.5494278259575366973876953125</LongitudeDegrees>
            </Position>
            <AltitudeMeters>637.5999755859375</AltitudeMeters>
            <DistanceMeters>518386.60232069</DistanceMeters>
          </Trackpoint>
          <Trackpoint>
            <Time>2021-08-03T08:43:35.000Z</Time>
            <Position>
              <LatitudeDegrees>41.2323078699409961700439453125</LatitudeDegrees>
              <LongitudeDegrees>-1.54922657646238803863525390625</LongitudeDegrees>
            </Position>
            <AltitudeMeters>637.5999755859375</AltitudeMeters>
            <DistanceMeters>518414.86825608</DistanceMeters>
          </Trackpoint>
          <Trackpoint>
            <Time>2021-08-03T08:43:49.000Z</Time>
            <Position>
              <LatitudeDegrees>41.23184661380946636199951171875</LatitudeDegrees>
              <LongitudeDegrees>-1.54877445660531520843505859375</LongitudeDegrees>
            </Position>
            <AltitudeMeters>637.4000244140625</AltitudeMeters>
            <DistanceMeters>518478.64796113</DistanceMeters>
          </Trackpoint>
          <Trackpoint>
            <Time>2021-08-03T08:44:02.000Z</Time>
            <Position>
              <LatitudeDegrees>41.23140304349362850189208984375</LatitudeDegrees>
              <LongitudeDegrees>-1.54835955239832401275634765625</LongitudeDegrees>
            </Position>
            <AltitudeMeters>637.5999755859375</AltitudeMeters>
            <DistanceMeters>518539.00974991</DistanceMeters>
          </Trackpoint>
          <Trackpoint>
            <Time>2021-08-03T08:44:04.000Z</Time>
            <Position>
              <LatitudeDegrees>41.23133414424955844879150390625</LatitudeDegrees>
              <LongitudeDegrees>-1.54829635284841060638427734375</LongitudeDegrees>
            </Position>
            <AltitudeMeters>637.4000244140625</AltitudeMeters>
            <DistanceMeters>518548.32624575</DistanceMeters>
          </Trackpoint>
          <Trackpoint>
            <Time>2021-08-03T08:44:09.000Z</Time>
            <Position>
              <LatitudeDegrees>41.231171786785125732421875</LatitudeDegrees>
              <LongitudeDegrees>-1.548133157193660736083984375</LongitudeDegrees>
            </Position>
            <AltitudeMeters>637</AltitudeMeters>
            <DistanceMeters>518570.97930701</DistanceMeters>
          </Trackpoint>
          <Trackpoint>
            <Time>2021-08-03T08:44:23.000Z</Time>
            <Position>
              <LatitudeDegrees>41.2306992150843143463134765625</LatitudeDegrees>
              <LongitudeDegrees>-1.54769101180136203765869140625</LongitudeDegrees>
            </Position>
            <AltitudeMeters>637.20001220703125</AltitudeMeters>
            <DistanceMeters>518635.29351085</DistanceMeters>
          </Trackpoint>
          <Trackpoint>
            <Time>2021-08-03T08:44:36.000Z</Time>
            <Position>
              <LatitudeDegrees>41.230244748294353485107421875</LatitudeDegrees>
              <LongitudeDegrees>-1.54726671986281871795654296875</LongitudeDegrees>
            </Position>
            <AltitudeMeters>637</AltitudeMeters>
            <DistanceMeters>518697.09989691</DistanceMeters>
          </Trackpoint>
          <Trackpoint>
            <Time>2021-08-03T08:44:50.000Z</Time>
            <Position>
              <LatitudeDegrees>41.2297944724559783935546875</LatitudeDegrees>
              <LongitudeDegrees>-1.546847037971019744873046875</LongitudeDegrees>
            </Position>
            <AltitudeMeters>637.20001220703125</AltitudeMeters>
            <DistanceMeters>518758.30285542</DistanceMeters>
          </Trackpoint>
          <Trackpoint>
            <Time>2021-08-03T08:45:01.000Z</Time>
            <Position>
              <LatitudeDegrees>41.22946045361459255218505859375</LatitudeDegrees>
              <LongitudeDegrees>-1.54643003828823566436767578125</LongitudeDegrees>
            </Position>
            <AltitudeMeters>637.20001220703125</AltitudeMeters>
            <DistanceMeters>518809.2984793</DistanceMeters>
          </Trackpoint>
          <Trackpoint>
            <Time>2021-08-03T08:45:15.000Z</Time>
            <Position>
              <LatitudeDegrees>41.229008920490741729736328125</LatitudeDegrees>
              <LongitudeDegrees>-1.5459622442722320556640625</LongitudeDegrees>
            </Position>
            <AltitudeMeters>637.20001220703125</AltitudeMeters>
            <DistanceMeters>518873.0093382</DistanceMeters>
          </Trackpoint>
          <Trackpoint>
            <Time>2021-08-03T08:45:21.000Z</Time>
            <Position>
              <LatitudeDegrees>41.22882678173482418060302734375</LatitudeDegrees>
              <LongitudeDegrees>-1.54577918350696563720703125</LongitudeDegrees>
            </Position>
            <AltitudeMeters>637.20001220703125</AltitudeMeters>
            <DistanceMeters>518898.42183409</DistanceMeters>
          </Trackpoint>
          <Trackpoint>
            <Time>2021-08-03T08:45:35.000Z</Time>
            <Position>
              <LatitudeDegrees>41.228479184210300445556640625</LatitudeDegrees>
              <LongitudeDegrees>-1.5452382154762744903564453125</LongitudeDegrees>
            </Position>
            <AltitudeMeters>637.5999755859375</AltitudeMeters>
            <DistanceMeters>518957.98183149</DistanceMeters>
          </Trackpoint>
          <Trackpoint>
            <Time>2021-08-03T08:45:46.000Z</Time>
            <Position>
              <LatitudeDegrees>41.22827826999127864837646484375</LatitudeDegrees>
              <LongitudeDegrees>-1.54473639093339443206787109375</LongitudeDegrees>
            </Position>
            <AltitudeMeters>638.4000244140625</AltitudeMeters>
            <DistanceMeters>519005.57029544</DistanceMeters>
          </Trackpoint>
          <Trackpoint>
            <Time>2021-08-03T08:46:03.000Z</Time>
            <Position>
              <LatitudeDegrees>41.2279546447098255157470703125</LatitudeDegrees>
              <LongitudeDegrees>-1.5442833490669727325439453125</LongitudeDegrees>
            </Position>
            <AltitudeMeters>638</AltitudeMeters>
            <DistanceMeters>519057.87376214</DistanceMeters>
          </Trackpoint>
          <Trackpoint>
            <Time>2021-08-03T08:46:17.000Z</Time>
            <Position>
              <LatitudeDegrees>41.22741191647946834564208984375</LatitudeDegrees>
              <LongitudeDegrees>-1.54433657415211200714111328125</LongitudeDegrees>
            </Position>
            <AltitudeMeters>638.79998779296875</AltitudeMeters>
            <DistanceMeters>519118.44462773</DistanceMeters>
          </Trackpoint>
          <Trackpoint>
            <Time>2021-08-03T08:46:26.000Z</Time>
            <Position>
              <LatitudeDegrees>41.22705903835594654083251953125</LatitudeDegrees>
              <LongitudeDegrees>-1.54422886669635772705078125</LongitudeDegrees>
            </Position>
            <AltitudeMeters>639</AltitudeMeters>
            <DistanceMeters>519158.74234153</DistanceMeters>
          </Trackpoint>
          <Trackpoint>
            <Time>2021-08-03T08:46:37.000Z</Time>
            <Position>
              <LatitudeDegrees>41.22665603645145893096923828125</LatitudeDegrees>
              <LongitudeDegrees>-1.54393256641924381256103515625</LongitudeDegrees>
            </Position>
            <AltitudeMeters>638.5999755859375</AltitudeMeters>
            <DistanceMeters>519209.99839825</DistanceMeters>
          </Trackpoint>
          <Trackpoint>
            <Time>2021-08-03T08:46:50.000Z</Time>
            <Position>
              <LatitudeDegrees>41.22630533762276172637939453125</LatitudeDegrees>
              <LongitudeDegrees>-1.5433752536773681640625</LongitudeDegrees>
            </Position>
            <AltitudeMeters>639.20001220703125</AltitudeMeters>
            <DistanceMeters>519270.82737262</DistanceMeters>
          </Trackpoint>
          <Trackpoint>
            <Time>2021-08-03T08:46:58.000Z</Time>
            <Position>
              <LatitudeDegrees>41.22612110339105129241943359375</LatitudeDegrees>
              <LongitudeDegrees>-1.543018855154514312744140625</LongitudeDegrees>
            </Position>
            <AltitudeMeters>639.4000244140625</AltitudeMeters>
            <DistanceMeters>519307.02943299</DistanceMeters>
          </Trackpoint>
          <Trackpoint>
            <Time>2021-08-03T08:47:17.000Z</Time>
            <Position>
              <LatitudeDegrees>41.2257743440568447113037109375</LatitudeDegrees>
              <LongitudeDegrees>-1.54241795651614665985107421875</LongitudeDegrees>
            </Position>
            <AltitudeMeters>640.20001220703125</AltitudeMeters>
            <DistanceMeters>519370.43212276</DistanceMeters>
          </Trackpoint>
          <Trackpoint>
            <Time>2021-08-03T08:47:32.000Z</Time>
            <Position>
              <LatitudeDegrees>41.22544669546186923980712890625</LatitudeDegrees>
              <LongitudeDegrees>-1.5418039821088314056396484375</LongitudeDegrees>
            </Position>
            <AltitudeMeters>640</AltitudeMeters>
            <DistanceMeters>519433.45267625</DistanceMeters>
          </Trackpoint>
          <Trackpoint>
            <Time>2021-08-03T08:47:43.000Z</Time>
            <Position>
              <LatitudeDegrees>41.225174702703952789306640625</LatitudeDegrees>
              <LongitudeDegrees>-1.5413151495158672332763671875</LongitudeDegrees>
            </Position>
            <AltitudeMeters>640.4000244140625</AltitudeMeters>
            <DistanceMeters>519484.35498449</DistanceMeters>
          </Trackpoint>
          <Trackpoint>
            <Time>2021-08-03T08:47:56.000Z</Time>
            <Position>
              <LatitudeDegrees>41.22485023923218250274658203125</LatitudeDegrees>
              <LongitudeDegrees>-1.54072732664644718170166015625</LongitudeDegrees>
            </Position>
            <AltitudeMeters>640.79998779296875</AltitudeMeters>
            <DistanceMeters>519545.3932107</DistanceMeters>
          </Trackpoint>
          <Trackpoint>
            <Time>2021-08-03T08:48:07.000Z</Time>
            <Position>
              <LatitudeDegrees>41.2245559506118297576904296875</LatitudeDegrees>
              <LongitudeDegrees>-1.540258862078189849853515625</LongitudeDegrees>
            </Position>
            <AltitudeMeters>641.4000244140625</AltitudeMeters>
            <DistanceMeters>519596.48966794</DistanceMeters>
          </Trackpoint>
          <Trackpoint>
            <Time>2021-08-03T08:48:09.000Z</Time>
            <Position>
              <LatitudeDegrees>41.224503479897975921630859375</LatitudeDegrees>
              <LongitudeDegrees>-1.5401695109903812408447265625</LongitudeDegrees>
            </Position>
            <AltitudeMeters>641.4000244140625</AltitudeMeters>
            <DistanceMeters>519605.97902631</DistanceMeters>
          </Trackpoint>
          <Trackpoint>
            <Time>2021-08-03T08:48:12.000Z</Time>
            <Position>
              <LatitudeDegrees>41.2244355864822864532470703125</LatitudeDegrees>
              <LongitudeDegrees>-1.5400203131139278411865234375</LongitudeDegrees>
            </Position>
            <AltitudeMeters>641.20001220703125</AltitudeMeters>
            <DistanceMeters>519620.57668859</DistanceMeters>
          </Trackpoint>
          <Trackpoint>
            <Time>2021-08-03T08:48:25.000Z</Time>
            <Position>
              <LatitudeDegrees>41.22407172806560993194580078125</LatitudeDegrees>
              <LongitudeDegrees>-1.539477668702602386474609375</LongitudeDegrees>
            </Position>
            <AltitudeMeters>641.5999755859375</AltitudeMeters>
            <DistanceMeters>519681.43475226</DistanceMeters>
          </Trackpoint>
          <Trackpoint>
            <Time>2021-08-03T08:48:33.000Z</Time>
            <Position>
              <LatitudeDegrees>41.2238404713571071624755859375</LatitudeDegrees>
              <LongitudeDegrees>-1.539148427546024322509765625</LongitudeDegrees>
            </Position>
            <AltitudeMeters>641.5999755859375</AltitudeMeters>
            <DistanceMeters>519719.14671176</DistanceMeters>
          </Trackpoint>
          <Trackpoint>
            <Time>2021-08-03T08:48:37.000Z</Time>
            <Position>
              <LatitudeDegrees>41.22372798621654510498046875</LatitudeDegrees>
              <LongitudeDegrees>-1.53898439370095729827880859375</LongitudeDegrees>
            </Position>
            <AltitudeMeters>641.5999755859375</AltitudeMeters>
            <DistanceMeters>519737.72923374</DistanceMeters>
          </Trackpoint>
          <Trackpoint>
            <Time>2021-08-03T08:48:43.000Z</Time>
            <Position>
              <LatitudeDegrees>41.2235829792916774749755859375</LatitudeDegrees>
              <LongitudeDegrees>-1.538719944655895233154296875</LongitudeDegrees>
            </Position>
            <AltitudeMeters>642</AltitudeMeters>
            <DistanceMeters>519765.12611284</DistanceMeters>
          </Trackpoint>
          <Trackpoint>
            <Time>2021-08-03T08:48:47.000Z</Time>
            <Position>
              <LatitudeDegrees>41.22344275005161762237548828125</LatitudeDegrees>
              <LongitudeDegrees>-1.538591869175434112548828125</LongitudeDegrees>
            </Position>
            <AltitudeMeters>642</AltitudeMeters>
            <DistanceMeters>519784.06148226</DistanceMeters>
          </Trackpoint>
          <Trackpoint>
            <Time>2021-08-03T08:49:00.000Z</Time>
            <Position>
              <LatitudeDegrees>41.22290748171508312225341796875</LatitudeDegrees>
              <LongitudeDegrees>-1.53832398355007171630859375</LongitudeDegrees>
            </Position>
            <AltitudeMeters>642.20001220703125</AltitudeMeters>
            <DistanceMeters>519847.71895546</DistanceMeters>
          </Trackpoint>
          <Trackpoint>
            <Time>2021-08-03T08:49:03.000Z</Time>
            <Position>
              <LatitudeDegrees>41.22280086390674114227294921875</LatitudeDegrees>
              <LongitudeDegrees>-1.53822415508329868316650390625</LongitudeDegrees>
            </Position>
            <AltitudeMeters>642.4000244140625</AltitudeMeters>
            <DistanceMeters>519862.23348899</DistanceMeters>
          </Trackpoint>
          <Trackpoint>
            <Time>2021-08-03T08:49:04.000Z</Time>
            <Position>
              <LatitudeDegrees>41.2227685935795307159423828125</LatitudeDegrees>
              <LongitudeDegrees>-1.5381863526999950408935546875</LongitudeDegrees>
            </Position>
            <AltitudeMeters>642.5999755859375</AltitudeMeters>
            <DistanceMeters>519867.02079867</DistanceMeters>
          </Trackpoint>
          <Trackpoint>
            <Time>2021-08-03T08:49:08.000Z</Time>
            <Position>
              <LatitudeDegrees>41.22264496050775051116943359375</LatitudeDegrees>
              <LongitudeDegrees>-1.5380277670919895172119140625</LongitudeDegrees>
            </Position>
            <AltitudeMeters>642.5999755859375</AltitudeMeters>
            <DistanceMeters>519886.14172269</DistanceMeters>
          </Trackpoint>
          <Trackpoint>
            <Time>2021-08-03T08:49:12.000Z</Time>
            <Position>
              <LatitudeDegrees>41.22250766493380069732666015625</LatitudeDegrees>
              <LongitudeDegrees>-1.53788519091904163360595703125</LongitudeDegrees>
            </Position>
            <AltitudeMeters>642.79998779296875</AltitudeMeters>
            <DistanceMeters>519905.53206288</DistanceMeters>
          </Trackpoint>
          <Trackpoint>
            <Time>2021-08-03T08:49:25.000Z</Time>
            <Position>
              <LatitudeDegrees>41.22200106270611286163330078125</LatitudeDegrees>
              <LongitudeDegrees>-1.53753264807164669036865234375</LongitudeDegrees>
            </Position>
            <AltitudeMeters>643</AltitudeMeters>
            <DistanceMeters>519969.17499437</DistanceMeters>
          </Trackpoint>
          <Trackpoint>
            <Time>2021-08-03T08:49:31.000Z</Time>
            <Position>
              <LatitudeDegrees>41.221778690814971923828125</LatitudeDegrees>
              <LongitudeDegrees>-1.53735260479152202606201171875</LongitudeDegrees>
            </Position>
            <AltitudeMeters>643.20001220703125</AltitudeMeters>
            <DistanceMeters>519998.15362424</DistanceMeters>
          </Trackpoint>
          <Trackpoint>
            <Time>2021-08-03T08:49:36.000Z</Time>
            <Position>
              <LatitudeDegrees>41.22163091786205768585205078125</LatitudeDegrees>
              <LongitudeDegrees>-1.53714842163026332855224609375</LongitudeDegrees>
            </Position>
            <AltitudeMeters>643.5999755859375</AltitudeMeters>
            <DistanceMeters>520021.87530723</DistanceMeters>
          </Trackpoint>
          <Trackpoint>
            <Time>2021-08-03T08:49:37.000Z</Time>
            <Position>
              <LatitudeDegrees>41.22160593979060649871826171875</LatitudeDegrees>
              <LongitudeDegrees>-1.5371047519147396087646484375</LongitudeDegrees>
            </Position>
            <AltitudeMeters>643.5999755859375</AltitudeMeters>
            <DistanceMeters>520026.46815586</DistanceMeters>
          </Trackpoint>
          <Trackpoint>
            <Time>2021-08-03T08:49:39.000Z</Time>
            <Position>
              <LatitudeDegrees>41.22156050987541675567626953125</LatitudeDegrees>
              <LongitudeDegrees>-1.5370159037411212921142578125</LongitudeDegrees>
            </Position>
            <AltitudeMeters>643.5999755859375</AltitudeMeters>
            <DistanceMeters>520035.46212188</DistanceMeters>
          </Trackpoint>
          <Trackpoint>
            <Time>2021-08-03T08:49:52.000Z</Time>
            <Position>
              <LatitudeDegrees>41.2211914546787738800048828125</LatitudeDegrees>
              <LongitudeDegrees>-1.5364932082593441009521484375</LongitudeDegrees>
            </Position>
            <AltitudeMeters>644</AltitudeMeters>
            <DistanceMeters>520095.47989936</DistanceMeters>
          </Trackpoint>
          <Trackpoint>
            <Time>2021-08-03T08:49:56.000Z</Time>
            <Position>
              <LatitudeDegrees>41.22107201255857944488525390625</LatitudeDegrees>
              <LongitudeDegrees>-1.5363765321671962738037109375</LongitudeDegrees>
            </Position>
            <AltitudeMeters>644.5999755859375</AltitudeMeters>
            <DistanceMeters>520111.97682162</DistanceMeters>
          </Trackpoint>
          <Trackpoint>
            <Time>2021-08-03T08:50:12.000Z</Time>
            <Position>
              <LatitudeDegrees>41.22059592045843601226806640625</LatitudeDegrees>
              <LongitudeDegrees>-1.53595450334250926971435546875</LongitudeDegrees>
            </Position>
            <AltitudeMeters>644.4000244140625</AltitudeMeters>
            <DistanceMeters>520175.66556598</DistanceMeters>
          </Trackpoint>
          <Trackpoint>
            <Time>2021-08-03T08:50:28.000Z</Time>
            <Position>
              <LatitudeDegrees>41.22006719000637531280517578125</LatitudeDegrees>
              <LongitudeDegrees>-1.5356934070587158203125</LongitudeDegrees>
            </Position>
            <AltitudeMeters>644.4000244140625</AltitudeMeters>
            <DistanceMeters>520238.44277683</DistanceMeters>
          </Trackpoint>
          <Trackpoint>
            <Time>2021-08-03T08:50:43.000Z</Time>
            <Position>
              <LatitudeDegrees>41.21953024528920650482177734375</LatitudeDegrees>
              <LongitudeDegrees>-1.53552467934787273406982421875</LongitudeDegrees>
            </Position>
            <AltitudeMeters>644.5999755859375</AltitudeMeters>
            <DistanceMeters>520299.85253651</DistanceMeters>
          </Trackpoint>
          <Trackpoint>
            <Time>2021-08-03T08:50:57.000Z</Time>
            <Position>
              <LatitudeDegrees>41.21912389062345027923583984375</LatitudeDegrees>
              <LongitudeDegrees>-1.5350434742867946624755859375</LongitudeDegrees>
            </Position>
            <AltitudeMeters>644.20001220703125</AltitudeMeters>
            <DistanceMeters>520360.421464</DistanceMeters>
          </Trackpoint>
          <Trackpoint>
            <Time>2021-08-03T08:50:58.000Z</Time>
            <Position>
              <LatitudeDegrees>41.21909589506685733795166015625</LatitudeDegrees>
              <LongitudeDegrees>-1.53499603271484375</LongitudeDegrees>
            </Position>
            <AltitudeMeters>644.20001220703125</AltitudeMeters>
            <DistanceMeters>520365.46952063</DistanceMeters>
          </Trackpoint>
          <Trackpoint>
            <Time>2021-08-03T08:51:12.000Z</Time>
            <Position>
              <LatitudeDegrees>41.2187600322067737579345703125</LatitudeDegrees>
              <LongitudeDegrees>-1.53440200723707675933837890625</LongitudeDegrees>
            </Position>
            <AltitudeMeters>645.20001220703125</AltitudeMeters>
            <DistanceMeters>520427.68473772</DistanceMeters>
          </Trackpoint>
          <Trackpoint>
            <Time>2021-08-03T08:51:26.000Z</Time>
            <Position>
              <LatitudeDegrees>41.21849809773266315460205078125</LatitudeDegrees>
              <LongitudeDegrees>-1.5337573550641536712646484375</LongitudeDegrees>
            </Position>
            <AltitudeMeters>645.4000244140625</AltitudeMeters>
            <DistanceMeters>520489.02674522</DistanceMeters>
          </Trackpoint>
          <Trackpoint>
            <Time>2021-08-03T08:51:41.000Z</Time>
            <Position>
              <LatitudeDegrees>41.21825485490262508392333984375</LatitudeDegrees>
              <LongitudeDegrees>-1.53307984583079814910888671875</LongitudeDegrees>
            </Position>
            <AltitudeMeters>645.5999755859375</AltitudeMeters>
            <DistanceMeters>520551.87885371</DistanceMeters>
          </Trackpoint>
          <Trackpoint>
            <Time>2021-08-03T08:51:42.000Z</Time>
            <Position>
              <LatitudeDegrees>41.21823809109628200531005859375</LatitudeDegrees>
              <LongitudeDegrees>-1.5330361761152744293212890625</LongitudeDegrees>
            </Position>
            <AltitudeMeters>645.5999755859375</AltitudeMeters>
            <DistanceMeters>520555.9837438</DistanceMeters>
          </Trackpoint>
          <Trackpoint>
            <Time>2021-08-03T08:51:50.000Z</Time>
            <Position>
              <LatitudeDegrees>41.21811839751899242401123046875</LatitudeDegrees>
              <LongitudeDegrees>-1.53269092552363872528076171875</LongitudeDegrees>
            </Position>
            <AltitudeMeters>646.5999755859375</AltitudeMeters>
            <DistanceMeters>520587.81131008</DistanceMeters>
          </Trackpoint>
          <Trackpoint>
            <Time>2021-08-03T08:52:05.000Z</Time>
            <Position>
              <LatitudeDegrees>41.21782201342284679412841796875</LatitudeDegrees>
              <LongitudeDegrees>-1.532059349119663238525390625</LongitudeDegrees>
            </Position>
            <AltitudeMeters>647.20001220703125</AltitudeMeters>
            <DistanceMeters>520650.13463703</DistanceMeters>
          </Trackpoint>
          <Trackpoint>
            <Time>2021-08-03T08:52:16.000Z</Time>
            <Position>
              <LatitudeDegrees>41.21759000234305858612060546875</LatitudeDegrees>
              <LongitudeDegrees>-1.5316038765013217926025390625</LongitudeDegrees>
            </Position>
            <AltitudeMeters>647.5999755859375</AltitudeMeters>
            <DistanceMeters>520696.18897901</DistanceMeters>
          </Trackpoint>
          <Trackpoint>
            <Time>2021-08-03T08:52:30.000Z</Time>
            <Position>
              <LatitudeDegrees>41.21729311533272266387939453125</LatitudeDegrees>
              <LongitudeDegrees>-1.53100348077714443206787109375</LongitudeDegrees>
            </Position>
            <AltitudeMeters>648.20001220703125</AltitudeMeters>
            <DistanceMeters>520756.34441695</DistanceMeters>
          </Trackpoint>
          <Trackpoint>
            <Time>2021-08-03T08:52:37.000Z</Time>
            <Position>
              <LatitudeDegrees>41.21714911423623561859130859375</LatitudeDegrees>
              <LongitudeDegrees>-1.530724279582500457763671875</LongitudeDegrees>
            </Position>
            <AltitudeMeters>648.79998779296875</AltitudeMeters>
            <DistanceMeters>520784.68708038</DistanceMeters>
          </Trackpoint>
          <Trackpoint>
            <Time>2021-08-03T08:52:51.000Z</Time>
            <Position>
              <LatitudeDegrees>41.2168804742395877838134765625</LatitudeDegrees>
              <LongitudeDegrees>-1.53009991161525249481201171875</LongitudeDegrees>
            </Position>
            <AltitudeMeters>649.5999755859375</AltitudeMeters>
            <DistanceMeters>520844.90853155</DistanceMeters>
          </Trackpoint>
          <Trackpoint>
            <Time>2021-08-03T08:53:06.000Z</Time>
            <Position>
              <LatitudeDegrees>41.216693557798862457275390625</LatitudeDegrees>
              <LongitudeDegrees>-1.52960672043263912200927734375</LongitudeDegrees>
            </Position>
            <AltitudeMeters>649.5999755859375</AltitudeMeters>
            <DistanceMeters>520891.14515608</DistanceMeters>
          </Trackpoint>
          <Trackpoint>
            <Time>2021-08-03T08:53:12.000Z</Time>
            <Position>
              <LatitudeDegrees>41.216545365750789642333984375</LatitudeDegrees>
              <LongitudeDegrees>-1.52959364466369152069091796875</LongitudeDegrees>
            </Position>
            <AltitudeMeters>649.4000244140625</AltitudeMeters>
            <DistanceMeters>520907.6757079</DistanceMeters>
          </Trackpoint>
          <Trackpoint>
            <Time>2021-08-03T08:53:31.000Z</Time>
            <Position>
              <LatitudeDegrees>41.216056533157825469970703125</LatitudeDegrees>
              <LongitudeDegrees>-1.52935392223298549652099609375</LongitudeDegrees>
            </Position>
            <AltitudeMeters>649.20001220703125</AltitudeMeters>
            <DistanceMeters>520965.66770191</DistanceMeters>
          </Trackpoint>
          <Trackpoint>
            <Time>2021-08-03T08:53:38.000Z</Time>
            <Position>
              <LatitudeDegrees>41.215998865664005279541015625</LatitudeDegrees>
              <LongitudeDegrees>-1.52927823364734649658203125</LongitudeDegrees>
            </Position>
            <AltitudeMeters>649</AltitudeMeters>
            <DistanceMeters>520974.68773455</DistanceMeters>
          </Trackpoint>
          <Trackpoint>
            <Time>2021-08-03T08:53:56.000Z</Time>
            <Position>
              <LatitudeDegrees>41.2159269489347934722900390625</LatitudeDegrees>
              <LongitudeDegrees>-1.52855395339429378509521484375</LongitudeDegrees>
            </Position>
            <AltitudeMeters>649</AltitudeMeters>
            <DistanceMeters>521035.85409141</DistanceMeters>
          </Trackpoint>
          <Trackpoint>
            <Time>2021-08-03T08:54:12.000Z</Time>
            <Position>
              <LatitudeDegrees>41.21561455540359020233154296875</LatitudeDegrees>
              <LongitudeDegrees>-1.52795397676527500152587890625</LongitudeDegrees>
            </Position>
            <AltitudeMeters>650</AltitudeMeters>
            <DistanceMeters>521096.94688359</DistanceMeters>
          </Trackpoint>
          <Trackpoint>
            <Time>2021-08-03T08:54:23.000Z</Time>
            <Position>
              <LatitudeDegrees>41.21521825902163982391357421875</LatitudeDegrees>
              <LongitudeDegrees>-1.527940146625041961669921875</LongitudeDegrees>
            </Position>
            <AltitudeMeters>651</AltitudeMeters>
            <DistanceMeters>521141.07060217</DistanceMeters>
          </Trackpoint>
          <Trackpoint>
            <Time>2021-08-03T08:54:38.000Z</Time>
            <Position>
              <LatitudeDegrees>41.2146881036460399627685546875</LatitudeDegrees>
              <LongitudeDegrees>-1.52810552157461643218994140625</LongitudeDegrees>
            </Position>
            <AltitudeMeters>651.4000244140625</AltitudeMeters>
            <DistanceMeters>521201.68073836</DistanceMeters>
          </Trackpoint>
          <Trackpoint>
            <Time>2021-08-03T08:54:45.000Z</Time>
            <Position>
              <LatitudeDegrees>41.214465312659740447998046875</LatitudeDegrees>
              <LongitudeDegrees>-1.5281927771866321563720703125</LongitudeDegrees>
            </Position>
            <AltitudeMeters>652</AltitudeMeters>
            <DistanceMeters>521227.53184737</DistanceMeters>
          </Trackpoint>
          <Trackpoint>
            <Time>2021-08-03T08:54:59.000Z</Time>
            <Position>
              <LatitudeDegrees>41.21391512453556060791015625</LatitudeDegrees>
              <LongitudeDegrees>-1.52837055735290050506591796875</LongitudeDegrees>
            </Position>
            <AltitudeMeters>651.5999755859375</AltitudeMeters>
            <DistanceMeters>521290.55197099</DistanceMeters>
          </Trackpoint>
          <Trackpoint>
            <Time>2021-08-03T08:55:01.000Z</Time>
            <Position>
              <LatitudeDegrees>41.213832981884479522705078125</LatitudeDegrees>
              <LongitudeDegrees>-1.5284003131091594696044921875</LongitudeDegrees>
            </Position>
            <AltitudeMeters>651.5999755859375</AltitudeMeters>
            <DistanceMeters>521300.02895049</DistanceMeters>
          </Trackpoint>
          <Trackpoint>
            <Time>2021-08-03T08:55:14.000Z</Time>
            <Position>
              <LatitudeDegrees>41.213303916156291961669921875</LatitudeDegrees>
              <LongitudeDegrees>-1.5285904146730899810791015625</LongitudeDegrees>
            </Position>
            <AltitudeMeters>651.5999755859375</AltitudeMeters>
            <DistanceMeters>521361.02825572</DistanceMeters>
          </Trackpoint>
          <Trackpoint>
            <Time>2021-08-03T08:55:29.000Z</Time>
            <Position>
              <LatitudeDegrees>41.21276638470590114593505859375</LatitudeDegrees>
              <LongitudeDegrees>-1.52854272164404392242431640625</LongitudeDegrees>
            </Position>
            <AltitudeMeters>652.20001220703125</AltitudeMeters>
            <DistanceMeters>521420.9896607</DistanceMeters>
          </Trackpoint>
          <Trackpoint>
            <Time>2021-08-03T08:55:38.000Z</Time>
            <Position>
              <LatitudeDegrees>41.21235500089824199676513671875</LatitudeDegrees>
              <LongitudeDegrees>-1.52833786793053150177001953125</LongitudeDegrees>
            </Position>
            <AltitudeMeters>652.20001220703125</AltitudeMeters>
            <DistanceMeters>521469.8846683</DistanceMeters>
          </Trackpoint>
          <Trackpoint>
            <Time>2021-08-03T08:55:42.000Z</Time>
            <Position>
              <LatitudeDegrees>41.21218417771160602569580078125</LatitudeDegrees>
              <LongitudeDegrees>-1.5282464213669300079345703125</LongitudeDegrees>
            </Position>
            <AltitudeMeters>652.4000244140625</AltitudeMeters>
            <DistanceMeters>521490.3813821</DistanceMeters>
          </Trackpoint>
          <Trackpoint>
            <Time>2021-08-03T08:55:55.000Z</Time>
            <Position>
              <LatitudeDegrees>41.211666427552700042724609375</LatitudeDegrees>
              <LongitudeDegrees>-1.5279136598110198974609375</LongitudeDegrees>
            </Position>
            <AltitudeMeters>652.5999755859375</AltitudeMeters>
            <DistanceMeters>521554.39018059</DistanceMeters>
          </Trackpoint>
          <Trackpoint>
            <Time>2021-08-03T08:56:05.000Z</Time>
            <Position>
              <LatitudeDegrees>41.211283542215824127197265625</LatitudeDegrees>
              <LongitudeDegrees>-1.52766044251620769500732421875</LongitudeDegrees>
            </Position>
            <AltitudeMeters>653.20001220703125</AltitudeMeters>
            <DistanceMeters>521601.98898499</DistanceMeters>
          </Trackpoint>
          <Trackpoint>
            <Time>2021-08-03T08:56:18.000Z</Time>
            <Position>
              <LatitudeDegrees>41.2107680551707744598388671875</LatitudeDegrees>
              <LongitudeDegrees>-1.52730840258300304412841796875</LongitudeDegrees>
            </Position>
            <AltitudeMeters>653</AltitudeMeters>
            <DistanceMeters>521666.49273792</DistanceMeters>
          </Trackpoint>
          <Trackpoint>
            <Time>2021-08-03T08:56:23.000Z</Time>
            <Position>
              <LatitudeDegrees>41.21058516204357147216796875</LatitudeDegrees>
              <LongitudeDegrees>-1.52713514864444732666015625</LongitudeDegrees>
            </Position>
            <AltitudeMeters>653</AltitudeMeters>
            <DistanceMeters>521691.48927987</DistanceMeters>
          </Trackpoint>
          <Trackpoint>
            <Time>2021-08-03T08:56:36.000Z</Time>
            <Position>
              <LatitudeDegrees>41.2101809866726398468017578125</LatitudeDegrees>
              <LongitudeDegrees>-1.5266495011746883392333984375</LongitudeDegrees>
            </Position>
            <AltitudeMeters>653.4000244140625</AltitudeMeters>
            <DistanceMeters>521752.12987609</DistanceMeters>
          </Trackpoint>
          <Trackpoint>
            <Time>2021-08-03T08:56:49.000Z</Time>
            <Position>
              <LatitudeDegrees>41.20975962840020656585693359375</LatitudeDegrees>
              <LongitudeDegrees>-1.52615790255367755889892578125</LongitudeDegrees>
            </Position>
            <AltitudeMeters>653.5999755859375</AltitudeMeters>
            <DistanceMeters>521814.53023733</DistanceMeters>
          </Trackpoint>
          <Trackpoint>
            <Time>2021-08-03T08:57:02.000Z</Time>
            <Position>
              <LatitudeDegrees>41.20935126207768917083740234375</LatitudeDegrees>
              <LongitudeDegrees>-1.5256554074585437774658203125</LongitudeDegrees>
            </Position>
            <AltitudeMeters>653.79998779296875</AltitudeMeters>
            <DistanceMeters>521876.46753882</DistanceMeters>
          </Trackpoint>
          <Trackpoint>
            <Time>2021-08-03T08:57:10.000Z</Time>
            <Position>
              <LatitudeDegrees>41.2091047503054141998291015625</LatitudeDegrees>
              <LongitudeDegrees>-1.52531602419912815093994140625</LongitudeDegrees>
            </Position>
            <AltitudeMeters>653.79998779296875</AltitudeMeters>
            <DistanceMeters>521915.96917359</DistanceMeters>
          </Trackpoint>
          <Trackpoint>
            <Time>2021-08-03T08:57:14.000Z</Time>
            <Position>
              <LatitudeDegrees>41.2089751660823822021484375</LatitudeDegrees>
              <LongitudeDegrees>-1.5251528285443782806396484375</LongitudeDegrees>
            </Position>
            <AltitudeMeters>653.5999755859375</AltitudeMeters>
            <DistanceMeters>521935.83771208</DistanceMeters>
          </Trackpoint>
          <Trackpoint>
            <Time>2021-08-03T08:57:15.000Z</Time>
            <Position>
              <LatitudeDegrees>41.2089451588690280914306640625</LatitudeDegrees>
              <LongitudeDegrees>-1.5251107513904571533203125</LongitudeDegrees>
            </Position>
            <AltitudeMeters>653.79998779296875</AltitudeMeters>
            <DistanceMeters>521940.69245198</DistanceMeters>
          </Trackpoint>
          <Trackpoint>
            <Time>2021-08-03T08:57:19.000Z</Time>
            <Position>
              <LatitudeDegrees>41.2088288180530071258544921875</LatitudeDegrees>
              <LongitudeDegrees>-1.52498309500515460968017578125</LongitudeDegrees>
            </Position>
            <AltitudeMeters>654.20001220703125</AltitudeMeters>
            <DistanceMeters>521957.4834331</DistanceMeters>
          </Trackpoint>
          <Trackpoint>
            <Time>2021-08-03T08:57:33.000Z</Time>
            <Position>
              <LatitudeDegrees>41.2083178572356700897216796875</LatitudeDegrees>
              <LongitudeDegrees>-1.5246455557644367218017578125</LongitudeDegrees>
            </Position>
            <AltitudeMeters>654.5999755859375</AltitudeMeters>
            <DistanceMeters>522020.99043399</DistanceMeters>
          </Trackpoint>
          <Trackpoint>
            <Time>2021-08-03T08:57:37.000Z</Time>
            <Position>
              <LatitudeDegrees>41.2081606127321720123291015625</LatitudeDegrees>
              <LongitudeDegrees>-1.524562574923038482666015625</LongitudeDegrees>
            </Position>
            <AltitudeMeters>654.5999755859375</AltitudeMeters>
            <DistanceMeters>522039.82083525</DistanceMeters>
          </Trackpoint>
          <Trackpoint>
            <Time>2021-08-03T08:57:43.000Z</Time>
            <Position>
              <LatitudeDegrees>41.20792063884437084197998046875</LatitudeDegrees>
              <LongitudeDegrees>-1.52442938648164272308349609375</LongitudeDegrees>
            </Position>
            <AltitudeMeters>654.79998779296875</AltitudeMeters>
            <DistanceMeters>522068.76516755</DistanceMeters>
          </Trackpoint>
          <Trackpoint>
            <Time>2021-08-03T08:57:56.000Z</Time>
            <Position>
              <LatitudeDegrees>41.20745510794222354888916015625</LatitudeDegrees>
              <LongitudeDegrees>-1.52407315559685230255126953125</LongitudeDegrees>
            </Position>
            <AltitudeMeters>655.20001220703125</AltitudeMeters>
            <DistanceMeters>522128.55245416</DistanceMeters>
          </Trackpoint>
          <Trackpoint>
            <Time>2021-08-03T08:58:10.000Z</Time>
            <Position>
              <LatitudeDegrees>41.20702193118631839752197265625</LatitudeDegrees>
              <LongitudeDegrees>-1.52358868159353733062744140625</LongitudeDegrees>
            </Position>
            <AltitudeMeters>654.79998779296875</AltitudeMeters>
            <DistanceMeters>522191.56269008</DistanceMeters>
          </Trackpoint>
          <Trackpoint>
            <Time>2021-08-03T08:58:12.000Z</Time>
            <Position>
              <LatitudeDegrees>41.20696158148348331451416015625</LatitudeDegrees>
              <LongitudeDegrees>-1.52351844124495983123779296875</LongitudeDegrees>
            </Position>
            <AltitudeMeters>654.79998779296875</AltitudeMeters>
            <DistanceMeters>522200.49065092</DistanceMeters>
          </Trackpoint>
          <Trackpoint>
            <Time>2021-08-03T08:58:26.000Z</Time>
            <Position>
              <LatitudeDegrees>41.20658422820270061492919921875</LatitudeDegrees>
              <LongitudeDegrees>-1.52300630696117877960205078125</LongitudeDegrees>
            </Position>
            <AltitudeMeters>655.79998779296875</AltitudeMeters>
            <DistanceMeters>522260.51640207</DistanceMeters>
          </Trackpoint>
          <Trackpoint>
            <Time>2021-08-03T08:58:40.000Z</Time>
            <Position>
              <LatitudeDegrees>41.20625548996031284332275390625</LatitudeDegrees>
              <LongitudeDegrees>-1.52239912189543247222900390625</LongitudeDegrees>
            </Position>
            <AltitudeMeters>655.4000244140625</AltitudeMeters>
            <DistanceMeters>522323.15724528</DistanceMeters>
          </Trackpoint>
          <Trackpoint>
            <Time>2021-08-03T08:58:49.000Z</Time>
            <Position>
              <LatitudeDegrees>41.20606019161641597747802734375</LatitudeDegrees>
              <LongitudeDegrees>-1.52197030372917652130126953125</LongitudeDegrees>
            </Position>
            <AltitudeMeters>656.20001220703125</AltitudeMeters>
            <DistanceMeters>522365.13217036</DistanceMeters>
          </Trackpoint>
          <Trackpoint>
            <Time>2021-08-03T08:58:51.000Z</Time>
            <Position>
              <LatitudeDegrees>41.20601090602576732635498046875</LatitudeDegrees>
              <LongitudeDegrees>-1.5218840539455413818359375</LongitudeDegrees>
            </Position>
            <AltitudeMeters>656.20001220703125</AltitudeMeters>
            <DistanceMeters>522374.20112489</DistanceMeters>
          </Trackpoint>
          <Trackpoint>
            <Time>2021-08-03T08:59:05.000Z</Time>
            <Position>
              <LatitudeDegrees>41.2056550942361354827880859375</LatitudeDegrees>
              <LongitudeDegrees>-1.52132146060466766357421875</LongitudeDegrees>
            </Position>
            <AltitudeMeters>656.79998779296875</AltitudeMeters>
            <DistanceMeters>522435.74579838</DistanceMeters>
          </Trackpoint>
          <Trackpoint>
            <Time>2021-08-03T08:59:17.000Z</Time>
            <Position>
              <LatitudeDegrees>41.2053060717880725860595703125</LatitudeDegrees>
              <LongitudeDegrees>-1.520919464528560638427734375</LongitudeDegrees>
            </Position>
            <AltitudeMeters>656.79998779296875</AltitudeMeters>
            <DistanceMeters>522487.14848788</DistanceMeters>
          </Trackpoint>
          <Trackpoint>
            <Time>2021-08-03T08:59:32.000Z</Time>
            <Position>
              <LatitudeDegrees>41.2048767507076263427734375</LatitudeDegrees>
              <LongitudeDegrees>-1.52045108377933502197265625</LongitudeDegrees>
            </Position>
            <AltitudeMeters>657.20001220703125</AltitudeMeters>
            <DistanceMeters>522548.96816785</DistanceMeters>
          </Trackpoint>
          <Trackpoint>
            <Time>2021-08-03T08:59:33.000Z</Time>
            <Position>
              <LatitudeDegrees>41.2048517726361751556396484375</LatitudeDegrees>
              <LongitudeDegrees>-1.520436666905879974365234375</LongitudeDegrees>
            </Position>
            <AltitudeMeters>657.4000244140625</AltitudeMeters>
            <DistanceMeters>522551.99712108</DistanceMeters>
          </Trackpoint>
          <Trackpoint>
            <Time>2021-08-03T08:59:43.000Z</Time>
            <Position>
              <LatitudeDegrees>41.204556562006473541259765625</LatitudeDegrees>
              <LongitudeDegrees>-1.52022535912692546844482421875</LongitudeDegrees>
            </Position>
            <AltitudeMeters>658.4000244140625</AltitudeMeters>
            <DistanceMeters>522589.31625451</DistanceMeters>
          </Trackpoint>
          <Trackpoint>
            <Time>2021-08-03T08:59:50.000Z</Time>
            <Position>
              <LatitudeDegrees>41.2043403089046478271484375</LatitudeDegrees>
              <LongitudeDegrees>-1.52000038884580135345458984375</LongitudeDegrees>
            </Position>
            <AltitudeMeters>657.20001220703125</AltitudeMeters>
            <DistanceMeters>522619.88149046</DistanceMeters>
          </Trackpoint>
          <Trackpoint>
            <Time>2021-08-03T08:59:52.000Z</Time>
            <Position>
              <LatitudeDegrees>41.20427702553570270538330078125</LatitudeDegrees>
              <LongitudeDegrees>-1.519935093820095062255859375</LongitudeDegrees>
            </Position>
            <AltitudeMeters>657.20001220703125</AltitudeMeters>
            <DistanceMeters>522628.79831855</DistanceMeters>
          </Trackpoint>
          <Trackpoint>
            <Time>2021-08-03T08:59:56.000Z</Time>
            <Position>
              <LatitudeDegrees>41.20413713157176971435546875</LatitudeDegrees>
              <LongitudeDegrees>-1.5197994746267795562744140625</LongitudeDegrees>
            </Position>
            <AltitudeMeters>657.4000244140625</AltitudeMeters>
            <DistanceMeters>522648.07071083</DistanceMeters>
          </Trackpoint>
          <Trackpoint>
            <Time>2021-08-03T09:00:06.000Z</Time>
            <Position>
              <LatitudeDegrees>41.2038543261587619781494140625</LatitudeDegrees>
              <LongitudeDegrees>-1.51939186267554759979248046875</LongitudeDegrees>
            </Position>
            <AltitudeMeters>658</AltitudeMeters>
            <DistanceMeters>522694.50232324</DistanceMeters>
          </Trackpoint>
          <Trackpoint>
            <Time>2021-08-03T09:00:19.000Z</Time>
            <Position>
              <LatitudeDegrees>41.20363195426762104034423828125</LatitudeDegrees>
              <LongitudeDegrees>-1.5187235735356807708740234375</LongitudeDegrees>
            </Position>
            <AltitudeMeters>657.79998779296875</AltitudeMeters>
            <DistanceMeters>522755.69391987</DistanceMeters>
          </Trackpoint>
          <Trackpoint>
            <Time>2021-08-03T09:00:26.000Z</Time>
            <Position>
              <LatitudeDegrees>41.2035369873046875</LatitudeDegrees>
              <LongitudeDegrees>-1.51836608536541461944580078125</LongitudeDegrees>
            </Position>
            <AltitudeMeters>658.4000244140625</AltitudeMeters>
            <DistanceMeters>522787.44151887</DistanceMeters>
          </Trackpoint>
          <Trackpoint>
            <Time>2021-08-03T09:00:40.000Z</Time>
            <Position>
              <LatitudeDegrees>41.20328821241855621337890625</LatitudeDegrees>
              <LongitudeDegrees>-1.5177019871771335601806640625</LongitudeDegrees>
            </Position>
            <AltitudeMeters>658.5999755859375</AltitudeMeters>
            <DistanceMeters>522849.5657376</DistanceMeters>
          </Trackpoint>
          <Trackpoint>
            <Time>2021-08-03T09:00:54.000Z</Time>
            <Position>
              <LatitudeDegrees>41.2027958594262599945068359375</LatitudeDegrees>
              <LongitudeDegrees>-1.517290771007537841796875</LongitudeDegrees>
            </Position>
            <AltitudeMeters>659.20001220703125</AltitudeMeters>
            <DistanceMeters>522914.28702289</DistanceMeters>
          </Trackpoint>
          <Trackpoint>
            <Time>2021-08-03T09:01:07.000Z</Time>
            <Position>
              <LatitudeDegrees>41.20230811648070812225341796875</LatitudeDegrees>
              <LongitudeDegrees>-1.51693127118051052093505859375</LongitudeDegrees>
            </Position>
            <AltitudeMeters>659</AltitudeMeters>
            <DistanceMeters>522976.36252854</DistanceMeters>
          </Trackpoint>
          <Trackpoint>
            <Time>2021-08-03T09:01:11.000Z</Time>
            <Position>
              <LatitudeDegrees>41.2021517939865589141845703125</LatitudeDegrees>
              <LongitudeDegrees>-1.51686270721256732940673828125</LongitudeDegrees>
            </Position>
            <AltitudeMeters>659.20001220703125</AltitudeMeters>
            <DistanceMeters>522994.68470422</DistanceMeters>
          </Trackpoint>
          <Trackpoint>
            <Time>2021-08-03T09:01:15.000Z</Time>
            <Position>
              <LatitudeDegrees>41.2019824795424938201904296875</LatitudeDegrees>
              <LongitudeDegrees>-1.5168299339711666107177734375</LongitudeDegrees>
            </Position>
            <AltitudeMeters>659.4000244140625</AltitudeMeters>
            <DistanceMeters>523013.72849403</DistanceMeters>
          </Trackpoint>
          <Trackpoint>
            <Time>2021-08-03T09:01:21.000Z</Time>
            <Position>
              <LatitudeDegrees>41.20175935328006744384765625</LatitudeDegrees>
              <LongitudeDegrees>-1.516813337802886962890625</LongitudeDegrees>
            </Position>
            <AltitudeMeters>659.5999755859375</AltitudeMeters>
            <DistanceMeters>523038.60190669</DistanceMeters>
          </Trackpoint>
          <Trackpoint>
            <Time>2021-08-03T09:01:38.000Z</Time>
            <Position>
              <LatitudeDegrees>41.20119835250079631805419921875</LatitudeDegrees>
              <LongitudeDegrees>-1.51683940552175045013427734375</LongitudeDegrees>
            </Position>
            <AltitudeMeters>659.5999755859375</AltitudeMeters>
            <DistanceMeters>523101.08065256</DistanceMeters>
          </Trackpoint>
          <Trackpoint>
            <Time>2021-08-03T09:01:54.000Z</Time>
            <Position>
              <LatitudeDegrees>41.200661323964595794677734375</LatitudeDegrees>
              <LongitudeDegrees>-1.51698432862758636474609375</LongitudeDegrees>
            </Position>
            <AltitudeMeters>660</AltitudeMeters>
            <DistanceMeters>523162.07262959</DistanceMeters>
          </Trackpoint>
          <Trackpoint>
            <Time>2021-08-03T09:02:09.000Z</Time>
            <Position>
              <LatitudeDegrees>41.20012831874191761016845703125</LatitudeDegrees>
              <LongitudeDegrees>-1.5171484462916851043701171875</LongitudeDegrees>
            </Position>
            <AltitudeMeters>660.5999755859375</AltitudeMeters>
            <DistanceMeters>523222.96836994</DistanceMeters>
          </Trackpoint>
          <Trackpoint>
            <Time>2021-08-03T09:02:11.000Z</Time>
            <Position>
              <LatitudeDegrees>41.20004818774759769439697265625</LatitudeDegrees>
              <LongitudeDegrees>-1.5171739272773265838623046875</LongitudeDegrees>
            </Position>
            <AltitudeMeters>660.5999755859375</AltitudeMeters>
            <DistanceMeters>523232.13832478</DistanceMeters>
          </Trackpoint>
          <Trackpoint>
            <Time>2021-08-03T09:02:25.000Z</Time>
            <Position>
              <LatitudeDegrees>41.19949783198535442352294921875</LatitudeDegrees>
              <LongitudeDegrees>-1.517354808747768402099609375</LongitudeDegrees>
            </Position>
            <AltitudeMeters>660.79998779296875</AltitudeMeters>
            <DistanceMeters>523295.23921152</DistanceMeters>
          </Trackpoint>
          <Trackpoint>
            <Time>2021-08-03T09:02:39.000Z</Time>
            <Position>
              <LatitudeDegrees>41.19898754172027111053466796875</LatitudeDegrees>
              <LongitudeDegrees>-1.51751465164124965667724609375</LongitudeDegrees>
            </Position>
            <AltitudeMeters>661.20001220703125</AltitudeMeters>
            <DistanceMeters>523353.59172711</DistanceMeters>
          </Trackpoint>
          <Trackpoint>
            <Time>2021-08-03T09:02:41.000Z</Time>
            <Position>
              <LatitudeDegrees>41.1989489011466503143310546875</LatitudeDegrees>
              <LongitudeDegrees>-1.5175856463611125946044921875</LongitudeDegrees>
            </Position>
            <AltitudeMeters>661.79998779296875</AltitudeMeters>
            <DistanceMeters>523360.93034931</DistanceMeters>
          </Trackpoint>
          <Trackpoint>
            <Time>2021-08-03T09:02:48.000Z</Time>
            <Position>
              <LatitudeDegrees>41.19882057420909404754638671875</LatitudeDegrees>
              <LongitudeDegrees>-1.51777951978147029876708984375</LongitudeDegrees>
            </Position>
            <AltitudeMeters>662.79998779296875</AltitudeMeters>
            <DistanceMeters>523382.55513923</DistanceMeters>
          </Trackpoint>
          <Trackpoint>
            <Time>2021-08-03T09:02:56.000Z</Time>
            <Position>
              <LatitudeDegrees>41.19869333691895008087158203125</LatitudeDegrees>
              <LongitudeDegrees>-1.51799149811267852783203125</LongitudeDegrees>
            </Position>
            <AltitudeMeters>663.79998779296875</AltitudeMeters>
            <DistanceMeters>523405.26433705</DistanceMeters>
          </Trackpoint>
          <Trackpoint>
            <Time>2021-08-03T09:03:05.000Z</Time>
            <Position>
              <LatitudeDegrees>41.1985800974071025848388671875</LatitudeDegrees>
              <LongitudeDegrees>-1.51820481754839420318603515625</LongitudeDegrees>
            </Position>
            <AltitudeMeters>664.79998779296875</AltitudeMeters>
            <DistanceMeters>523427.12791696</DistanceMeters>
          </Trackpoint>
          <Trackpoint>
            <Time>2021-08-03T09:03:15.000Z</Time>
            <Position>
              <LatitudeDegrees>41.19847591035068035125732421875</LatitudeDegrees>
              <LongitudeDegrees>-1.51844470761716365814208984375</LongitudeDegrees>
            </Position>
            <AltitudeMeters>666</AltitudeMeters>
            <DistanceMeters>523450.3247535</DistanceMeters>
          </Trackpoint>
          <Trackpoint>
            <Time>2021-08-03T09:03:24.000Z</Time>
            <Position>
              <LatitudeDegrees>41.1983420513570308685302734375</LatitudeDegrees>
              <LongitudeDegrees>-1.5186045505106449127197265625</LongitudeDegrees>
            </Position>
            <AltitudeMeters>667</AltitudeMeters>
            <DistanceMeters>523470.35376111</DistanceMeters>
          </Trackpoint>
          <Trackpoint>
            <Time>2021-08-03T09:03:36.000Z</Time>
            <Position>
              <LatitudeDegrees>41.19812496006488800048828125</LatitudeDegrees>
              <LongitudeDegrees>-1.51872483082115650177001953125</LongitudeDegrees>
            </Position>
            <AltitudeMeters>668</AltitudeMeters>
            <DistanceMeters>523496.53219807</DistanceMeters>
          </Trackpoint>
          <Trackpoint>
            <Time>2021-08-03T09:03:44.000Z</Time>
            <Position>
              <LatitudeDegrees>41.19801633059978485107421875</LatitudeDegrees>
              <LongitudeDegrees>-1.51877696625888347625732421875</LongitudeDegrees>
            </Position>
            <AltitudeMeters>669.20001220703125</AltitudeMeters>
            <DistanceMeters>523509.38682248</DistanceMeters>
          </Trackpoint>
          <Trackpoint>
            <Time>2021-08-03T09:03:46.000Z</Time>
            <Position>
              <LatitudeDegrees>41.19798707775771617889404296875</LatitudeDegrees>
              <LongitudeDegrees>-1.51876020245254039764404296875</LongitudeDegrees>
            </Position>
            <AltitudeMeters>669.20001220703125</AltitudeMeters>
            <DistanceMeters>523512.93349649</DistanceMeters>
          </Trackpoint>
          <Trackpoint>
            <Time>2021-08-03T09:03:52.000Z</Time>
            <Position>
              <LatitudeDegrees>41.198015995323657989501953125</LatitudeDegrees>
              <LongitudeDegrees>-1.51861988939344882965087890625</LongitudeDegrees>
            </Position>
            <AltitudeMeters>670</AltitudeMeters>
            <DistanceMeters>523525.11768529</DistanceMeters>
          </Trackpoint>
          <Trackpoint>
            <Time>2021-08-03T09:03:54.000Z</Time>
            <Position>
              <LatitudeDegrees>41.19803552515804767608642578125</LatitudeDegrees>
              <LongitudeDegrees>-1.51857714168727397918701171875</LongitudeDegrees>
            </Position>
            <AltitudeMeters>670.20001220703125</AltitudeMeters>
            <DistanceMeters>523529.3053348</DistanceMeters>
          </Trackpoint>
          <Trackpoint>
            <Time>2021-08-03T09:04:16.000Z</Time>
            <Position>
              <LatitudeDegrees>41.1981247924268245697021484375</LatitudeDegrees>
              <LongitudeDegrees>-1.51796978898346424102783203125</LongitudeDegrees>
            </Position>
            <AltitudeMeters>671.4000244140625</AltitudeMeters>
            <DistanceMeters>523581.13097428</DistanceMeters>
          </Trackpoint>
          <Trackpoint>
            <Time>2021-08-03T09:04:21.000Z</Time>
            <Position>
              <LatitudeDegrees>41.19804315268993377685546875</LatitudeDegrees>
              <LongitudeDegrees>-1.51789569295942783355712890625</LongitudeDegrees>
            </Position>
            <AltitudeMeters>672.4000244140625</AltitudeMeters>
            <DistanceMeters>523592.13398454</DistanceMeters>
          </Trackpoint>
          <Trackpoint>
            <Time>2021-08-03T09:04:25.000Z</Time>
            <Position>
              <LatitudeDegrees>41.19798816740512847900390625</LatitudeDegrees>
              <LongitudeDegrees>-1.5178280510008335113525390625</LongitudeDegrees>
            </Position>
            <AltitudeMeters>673.4000244140625</AltitudeMeters>
            <DistanceMeters>523600.47362775</DistanceMeters>
          </Trackpoint>
          <Trackpoint>
            <Time>2021-08-03T09:04:31.000Z</Time>
            <Position>
              <LatitudeDegrees>41.19787576608359813690185546875</LatitudeDegrees>
              <LongitudeDegrees>-1.5177547931671142578125</LongitudeDegrees>
            </Position>
            <AltitudeMeters>674.5999755859375</AltitudeMeters>
            <DistanceMeters>523614.40727923</DistanceMeters>
          </Trackpoint>
          <Trackpoint>
            <Time>2021-08-03T09:04:47.000Z</Time>
            <Position>
              <LatitudeDegrees>41.19746790267527103424072265625</LatitudeDegrees>
              <LongitudeDegrees>-1.5175323374569416046142578125</LongitudeDegrees>
            </Position>
            <AltitudeMeters>673.20001220703125</AltitudeMeters>
            <DistanceMeters>523663.47751403</DistanceMeters>
          </Trackpoint>
          <Trackpoint>
            <Time>2021-08-03T09:04:49.000Z</Time>
            <Position>
              <LatitudeDegrees>41.197352819144725799560546875</LatitudeDegrees>
              <LongitudeDegrees>-1.51750040240585803985595703125</LongitudeDegrees>
            </Position>
            <AltitudeMeters>671.20001220703125</AltitudeMeters>
            <DistanceMeters>523676.56259254</DistanceMeters>
          </Trackpoint>
          <Trackpoint>
            <Time>2021-08-03T09:04:50.000Z</Time>
            <Position>
              <LatitudeDegrees>41.1972902901470661163330078125</LatitudeDegrees>
              <LongitudeDegrees>-1.51746503077447414398193359375</LongitudeDegrees>
            </Position>
            <AltitudeMeters>669.5999755859375</AltitudeMeters>
            <DistanceMeters>523684.12602656</DistanceMeters>
          </Trackpoint>
          <Trackpoint>
            <Time>2021-08-03T09:04:52.000Z</Time>
            <Position>
              <LatitudeDegrees>41.19718291796743869781494140625</LatitudeDegrees>
              <LongitudeDegrees>-1.5173402242362499237060546875</LongitudeDegrees>
            </Position>
            <AltitudeMeters>668</AltitudeMeters>
            <DistanceMeters>523700.00316781</DistanceMeters>
          </Trackpoint>
          <Trackpoint>
            <Time>2021-08-03T09:04:58.000Z</Time>
            <Position>
              <LatitudeDegrees>41.19687010534107685089111328125</LatitudeDegrees>
              <LongitudeDegrees>-1.517130173742771148681640625</LongitudeDegrees>
            </Position>
            <AltitudeMeters>669.4000244140625</AltitudeMeters>
            <DistanceMeters>523739.01160512</DistanceMeters>
          </Trackpoint>
          <Trackpoint>
            <Time>2021-08-03T09:05:00.000Z</Time>
            <Position>
              <LatitudeDegrees>41.19681537151336669921875</LatitudeDegrees>
              <LongitudeDegrees>-1.51711902581155300140380859375</LongitudeDegrees>
            </Position>
            <AltitudeMeters>670.5999755859375</AltitudeMeters>
            <DistanceMeters>523745.17443738</DistanceMeters>
          </Trackpoint>
          <Trackpoint>
            <Time>2021-08-03T09:05:08.000Z</Time>
            <Position>
              <LatitudeDegrees>41.19660020805895328521728515625</LatitudeDegrees>
              <LongitudeDegrees>-1.51697116903960704803466796875</LongitudeDegrees>
            </Position>
            <AltitudeMeters>671.5999755859375</AltitudeMeters>
            <DistanceMeters>523772.13457301</DistanceMeters>
          </Trackpoint>
          <Trackpoint>
            <Time>2021-08-03T09:05:12.000Z</Time>
            <Position>
              <LatitudeDegrees>41.1965305544435977935791015625</LatitudeDegrees>
              <LongitudeDegrees>-1.51686874218285083770751953125</LongitudeDegrees>
            </Position>
            <AltitudeMeters>673.20001220703125</AltitudeMeters>
            <DistanceMeters>523783.69663389</DistanceMeters>
          </Trackpoint>
          <Trackpoint>
            <Time>2021-08-03T09:05:18.000Z</Time>
            <Position>
              <LatitudeDegrees>41.19640700519084930419921875</LatitudeDegrees>
              <LongitudeDegrees>-1.5168119966983795166015625</LongitudeDegrees>
            </Position>
            <AltitudeMeters>674.20001220703125</AltitudeMeters>
            <DistanceMeters>523798.24596556</DistanceMeters>
          </Trackpoint>
          <Trackpoint>
            <Time>2021-08-03T09:05:26.000Z</Time>
            <Position>
              <LatitudeDegrees>41.196212209761142730712890625</LatitudeDegrees>
              <LongitudeDegrees>-1.5166244097054004669189453125</LongitudeDegrees>
            </Position>
            <AltitudeMeters>673</AltitudeMeters>
            <DistanceMeters>523825.02074359</DistanceMeters>
          </Trackpoint>
          <Trackpoint>
            <Time>2021-08-03T09:05:27.000Z</Time>
            <Position>
              <LatitudeDegrees>41.196179352700710296630859375</LatitudeDegrees>
              <LongitudeDegrees>-1.516584344208240509033203125</LongitudeDegrees>
            </Position>
            <AltitudeMeters>672.5999755859375</AltitudeMeters>
            <DistanceMeters>523829.98401353</DistanceMeters>
          </Trackpoint>
          <Trackpoint>
            <Time>2021-08-03T09:05:29.000Z</Time>
            <Position>
              <LatitudeDegrees>41.19610659778118133544921875</LatitudeDegrees>
              <LongitudeDegrees>-1.51648535393178462982177734375</LongitudeDegrees>
            </Position>
            <AltitudeMeters>671.4000244140625</AltitudeMeters>
            <DistanceMeters>523841.5733775</DistanceMeters>
          </Trackpoint>
          <Trackpoint>
            <Time>2021-08-03T09:05:34.000Z</Time>
            <Position>
              <LatitudeDegrees>41.1959020793437957763671875</LatitudeDegrees>
              <LongitudeDegrees>-1.5161952562630176544189453125</LongitudeDegrees>
            </Position>
            <AltitudeMeters>670</AltitudeMeters>
            <DistanceMeters>523874.86691957</DistanceMeters>
          </Trackpoint>
          <Trackpoint>
            <Time>2021-08-03T09:05:35.000Z</Time>
            <Position>
              <LatitudeDegrees>41.1958564817905426025390625</LatitudeDegrees>
              <LongitudeDegrees>-1.5161392651498317718505859375</LongitudeDegrees>
            </Position>
            <AltitudeMeters>669.5999755859375</AltitudeMeters>
            <DistanceMeters>523881.77713261</DistanceMeters>
          </Trackpoint>
          <Trackpoint>
            <Time>2021-08-03T09:05:37.000Z</Time>
            <Position>
              <LatitudeDegrees>41.19575078599154949188232421875</LatitudeDegrees>
              <LongitudeDegrees>-1.516045220196247100830078125</LongitudeDegrees>
            </Position>
            <AltitudeMeters>668.4000244140625</AltitudeMeters>
            <DistanceMeters>523895.93451855</DistanceMeters>
          </Trackpoint>
          <Trackpoint>
            <Time>2021-08-03T09:05:40.000Z</Time>
            <Position>
              <LatitudeDegrees>41.1955656297504901885986328125</LatitudeDegrees>
              <LongitudeDegrees>-1.51588336564600467681884765625</LongitudeDegrees>
            </Position>
            <AltitudeMeters>667.4000244140625</AltitudeMeters>
            <DistanceMeters>523920.60122791</DistanceMeters>
          </Trackpoint>
          <Trackpoint>
            <Time>2021-08-03T09:05:54.000Z</Time>
            <Position>
              <LatitudeDegrees>41.19508660398423671722412109375</LatitudeDegrees>
              <LongitudeDegrees>-1.5154834650456905364990234375</LongitudeDegrees>
            </Position>
            <AltitudeMeters>668.5999755859375</AltitudeMeters>
            <DistanceMeters>523983.56444019</DistanceMeters>
          </Trackpoint>
          <Trackpoint>
            <Time>2021-08-03T09:06:06.000Z</Time>
            <Position>
              <LatitudeDegrees>41.19468879885971546173095703125</LatitudeDegrees>
              <LongitudeDegrees>-1.51517945341765880584716796875</LongitudeDegrees>
            </Position>
            <AltitudeMeters>668</AltitudeMeters>
            <DistanceMeters>524034.63986269</DistanceMeters>
          </Trackpoint>
          <Trackpoint>
            <Time>2021-08-03T09:06:20.000Z</Time>
            <Position>
              <LatitudeDegrees>41.1941896565258502960205078125</LatitudeDegrees>
              <LongitudeDegrees>-1.51486161164939403533935546875</LongitudeDegrees>
            </Position>
            <AltitudeMeters>668.79998779296875</AltitudeMeters>
            <DistanceMeters>524096.24385743</DistanceMeters>
          </Trackpoint>
          <Trackpoint>
            <Time>2021-08-03T09:06:25.000Z</Time>
            <Position>
              <LatitudeDegrees>41.1940250359475612640380859375</LatitudeDegrees>
              <LongitudeDegrees>-1.51474543847143650054931640625</LongitudeDegrees>
            </Position>
            <AltitudeMeters>669.79998779296875</AltitudeMeters>
            <DistanceMeters>524116.98973662</DistanceMeters>
          </Trackpoint>
          <Trackpoint>
            <Time>2021-08-03T09:06:32.000Z</Time>
            <Position>
              <LatitudeDegrees>41.1938153207302093505859375</LatitudeDegrees>
              <LongitudeDegrees>-1.5145882777869701385498046875</LongitudeDegrees>
            </Position>
            <AltitudeMeters>670.79998779296875</AltitudeMeters>
            <DistanceMeters>524143.78710158</DistanceMeters>
          </Trackpoint>
          <Trackpoint>
            <Time>2021-08-03T09:06:45.000Z</Time>
            <Position>
              <LatitudeDegrees>41.19341743178665637969970703125</LatitudeDegrees>
              <LongitudeDegrees>-1.51424068026244640350341796875</LongitudeDegrees>
            </Position>
            <AltitudeMeters>672</AltitudeMeters>
            <DistanceMeters>524196.78492378</DistanceMeters>
          </Trackpoint>
          <Trackpoint>
            <Time>2021-08-03T09:06:53.000Z</Time>
            <Position>
              <LatitudeDegrees>41.19317133910953998565673828125</LatitudeDegrees>
              <LongitudeDegrees>-1.5141138620674610137939453125</LongitudeDegrees>
            </Position>
            <AltitudeMeters>672.79998779296875</AltitudeMeters>
            <DistanceMeters>524226.16293624</DistanceMeters>
          </Trackpoint>
          <Trackpoint>
            <Time>2021-08-03T09:07:00.000Z</Time>
            <Position>
              <LatitudeDegrees>41.192928515374660491943359375</LatitudeDegrees>
              <LongitudeDegrees>-1.5138590522110462188720703125</LongitudeDegrees>
            </Position>
            <AltitudeMeters>671.5999755859375</AltitudeMeters>
            <DistanceMeters>524260.59973123</DistanceMeters>
          </Trackpoint>
          <Trackpoint>
            <Time>2021-08-03T09:07:07.000Z</Time>
            <Position>
              <LatitudeDegrees>41.1927114240825176239013671875</LatitudeDegrees>
              <LongitudeDegrees>-1.51368328370153903961181640625</LongitudeDegrees>
            </Position>
            <AltitudeMeters>673.4000244140625</AltitudeMeters>
            <DistanceMeters>524288.89376589</DistanceMeters>
          </Trackpoint>
          <Trackpoint>
            <Time>2021-08-03T09:07:16.000Z</Time>
            <Position>
              <LatitudeDegrees>41.1924589611589908599853515625</LatitudeDegrees>
              <LongitudeDegrees>-1.5134936012327671051025390625</LongitudeDegrees>
            </Position>
            <AltitudeMeters>674.4000244140625</AltitudeMeters>
            <DistanceMeters>524321.17348895</DistanceMeters>
          </Trackpoint>
          <Trackpoint>
            <Time>2021-08-03T09:07:27.000Z</Time>
            <Position>
              <LatitudeDegrees>41.1923178099095821380615234375</LatitudeDegrees>
              <LongitudeDegrees>-1.5134074352681636810302734375</LongitudeDegrees>
            </Position>
            <AltitudeMeters>673.4000244140625</AltitudeMeters>
            <DistanceMeters>524338.46208433</DistanceMeters>
          </Trackpoint>
          <Trackpoint>
            <Time>2021-08-03T09:07:28.000Z</Time>
            <Position>
              <LatitudeDegrees>41.1923080869019031524658203125</LatitudeDegrees>
              <LongitudeDegrees>-1.5133948624134063720703125</LongitudeDegrees>
            </Position>
            <AltitudeMeters>673.20001220703125</AltitudeMeters>
            <DistanceMeters>524339.97058666</DistanceMeters>
          </Trackpoint>
          <Trackpoint>
            <Time>2021-08-03T09:07:30.000Z</Time>
            <Position>
              <LatitudeDegrees>41.19226911105215549468994140625</LatitudeDegrees>
              <LongitudeDegrees>-1.5133333392441272735595703125</LongitudeDegrees>
            </Position>
            <AltitudeMeters>672.20001220703125</AltitudeMeters>
            <DistanceMeters>524346.70676763</DistanceMeters>
          </Trackpoint>
          <Trackpoint>
            <Time>2021-08-03T09:07:32.000Z</Time>
            <Position>
              <LatitudeDegrees>41.19225016795098781585693359375</LatitudeDegrees>
              <LongitudeDegrees>-1.51324457488954067230224609375</LongitudeDegrees>
            </Position>
            <AltitudeMeters>671.20001220703125</AltitudeMeters>
            <DistanceMeters>524354.43495795</DistanceMeters>
          </Trackpoint>
          <Trackpoint>
            <Time>2021-08-03T09:07:33.000Z</Time>
            <Position>
              <LatitudeDegrees>41.19225955568253993988037109375</LatitudeDegrees>
              <LongitudeDegrees>-1.51320300064980983734130859375</LongitudeDegrees>
            </Position>
            <AltitudeMeters>670.5999755859375</AltitudeMeters>
            <DistanceMeters>524358.07089413</DistanceMeters>
          </Trackpoint>
          <Trackpoint>
            <Time>2021-08-03T09:07:35.000Z</Time>
            <Position>
              <LatitudeDegrees>41.19229383766651153564453125</LatitudeDegrees>
              <LongitudeDegrees>-1.51313695125281810760498046875</LongitudeDegrees>
            </Position>
            <AltitudeMeters>669.4000244140625</AltitudeMeters>
            <DistanceMeters>524364.79096945</DistanceMeters>
          </Trackpoint>
          <Trackpoint>
            <Time>2021-08-03T09:07:38.000Z</Time>
            <Position>
              <LatitudeDegrees>41.19235494174063205718994140625</LatitudeDegrees>
              <LongitudeDegrees>-1.5130607597529888153076171875</LongitudeDegrees>
            </Position>
            <AltitudeMeters>668.4000244140625</AltitudeMeters>
            <DistanceMeters>524374.11666869</DistanceMeters>
          </Trackpoint>
          <Trackpoint>
            <Time>2021-08-03T09:07:39.000Z</Time>
            <Position>
              <LatitudeDegrees>41.192376315593719482421875</LatitudeDegrees>
              <LongitudeDegrees>-1.51303133927285671234130859375</LongitudeDegrees>
            </Position>
            <AltitudeMeters>668.20001220703125</AltitudeMeters>
            <DistanceMeters>524377.54026902</DistanceMeters>
          </Trackpoint>
          <Trackpoint>
            <Time>2021-08-03T09:07:42.000Z</Time>
            <Position>
              <LatitudeDegrees>41.19244546629488468170166015625</LatitudeDegrees>
              <LongitudeDegrees>-1.512907706201076507568359375</LongitudeDegrees>
            </Position>
            <AltitudeMeters>667</AltitudeMeters>
            <DistanceMeters>524390.44222349</DistanceMeters>
          </Trackpoint>
          <Trackpoint>
            <Time>2021-08-03T09:07:47.000Z</Time>
            <Position>
              <LatitudeDegrees>41.19257949292659759521484375</LatitudeDegrees>
              <LongitudeDegrees>-1.51268013752996921539306640625</LongitudeDegrees>
            </Position>
            <AltitudeMeters>666.20001220703125</AltitudeMeters>
            <DistanceMeters>524414.64588394</DistanceMeters>
          </Trackpoint>
          <Trackpoint>
            <Time>2021-08-03T09:07:48.000Z</Time>
            <Position>
              <LatitudeDegrees>41.19261612184345722198486328125</LatitudeDegrees>
              <LongitudeDegrees>-1.5126423351466655731201171875</LongitudeDegrees>
            </Position>
            <AltitudeMeters>666</AltitudeMeters>
            <DistanceMeters>524419.80803035</DistanceMeters>
          </Trackpoint>
          <Trackpoint>
            <Time>2021-08-03T09:07:52.000Z</Time>
            <Position>
              <LatitudeDegrees>41.19278359226882457733154296875</LatitudeDegrees>
              <LongitudeDegrees>-1.5125598572194576263427734375</LongitudeDegrees>
            </Position>
            <AltitudeMeters>665.79998779296875</AltitudeMeters>
            <DistanceMeters>524439.68656514</DistanceMeters>
          </Trackpoint>
          <Trackpoint>
            <Time>2021-08-03T09:07:57.000Z</Time>
            <Position>
              <LatitudeDegrees>41.192966736853122711181640625</LatitudeDegrees>
              <LongitudeDegrees>-1.51255524717271327972412109375</LongitudeDegrees>
            </Position>
            <AltitudeMeters>666.20001220703125</AltitudeMeters>
            <DistanceMeters>524460.07439113</DistanceMeters>
          </Trackpoint>
          <Trackpoint>
            <Time>2021-08-03T09:08:01.000Z</Time>
            <Position>
              <LatitudeDegrees>41.19307092390954494476318359375</LatitudeDegrees>
              <LongitudeDegrees>-1.51245315559208393096923828125</LongitudeDegrees>
            </Position>
            <AltitudeMeters>666.20001220703125</AltitudeMeters>
            <DistanceMeters>524474.48214589</DistanceMeters>
          </Trackpoint>
          <Trackpoint>
            <Time>2021-08-03T09:08:08.000Z</Time>
            <Position>
              <LatitudeDegrees>41.19327007792890071868896484375</LatitudeDegrees>
              <LongitudeDegrees>-1.512211002409458160400390625</LongitudeDegrees>
            </Position>
            <AltitudeMeters>665.4000244140625</AltitudeMeters>
            <DistanceMeters>524504.52652143</DistanceMeters>
          </Trackpoint>
          <Trackpoint>
            <Time>2021-08-03T09:08:12.000Z</Time>
            <Position>
              <LatitudeDegrees>41.1933259852230548858642578125</LatitudeDegrees>
              <LongitudeDegrees>-1.5120170451700687408447265625</LongitudeDegrees>
            </Position>
            <AltitudeMeters>665.20001220703125</AltitudeMeters>
            <DistanceMeters>524521.92186166</DistanceMeters>
          </Trackpoint>
          <Trackpoint>
            <Time>2021-08-03T09:08:28.000Z</Time>
            <Position>
              <LatitudeDegrees>41.19350007735192775726318359375</LatitudeDegrees>
              <LongitudeDegrees>-1.51132947765290737152099609375</LongitudeDegrees>
            </Position>
            <AltitudeMeters>665.79998779296875</AltitudeMeters>
            <DistanceMeters>524582.68087574</DistanceMeters>
          </Trackpoint>
          <Trackpoint>
            <Time>2021-08-03T09:08:36.000Z</Time>
            <Position>
              <LatitudeDegrees>41.19358724914491176605224609375</LatitudeDegrees>
              <LongitudeDegrees>-1.5110712312161922454833984375</LongitudeDegrees>
            </Position>
            <AltitudeMeters>666.5999755859375</AltitudeMeters>
            <DistanceMeters>524606.38656529</DistanceMeters>
          </Trackpoint>
          <Trackpoint>
            <Time>2021-08-03T09:08:40.000Z</Time>
            <Position>
              <LatitudeDegrees>41.193530671298503875732421875</LatitudeDegrees>
              <LongitudeDegrees>-1.5109916031360626220703125</LongitudeDegrees>
            </Position>
            <AltitudeMeters>667</AltitudeMeters>
            <DistanceMeters>524615.5594739</DistanceMeters>
          </Trackpoint>
          <Trackpoint>
            <Time>2021-08-03T09:08:41.000Z</Time>
            <Position>
              <LatitudeDegrees>41.19350795634090900421142578125</LatitudeDegrees>
              <LongitudeDegrees>-1.5109726600348949432373046875</LongitudeDegrees>
            </Position>
            <AltitudeMeters>667</AltitudeMeters>
            <DistanceMeters>524618.544886</DistanceMeters>
          </Trackpoint>
          <Trackpoint>
            <Time>2021-08-03T09:08:49.000Z</Time>
            <Position>
              <LatitudeDegrees>41.19329296052455902099609375</LatitudeDegrees>
              <LongitudeDegrees>-1.51082203723490238189697265625</LongitudeDegrees>
            </Position>
            <AltitudeMeters>668</AltitudeMeters>
            <DistanceMeters>524645.59597239</DistanceMeters>
          </Trackpoint>
          <Trackpoint>
            <Time>2021-08-03T09:09:02.000Z</Time>
            <Position>
              <LatitudeDegrees>41.19296531192958354949951171875</LatitudeDegrees>
              <LongitudeDegrees>-1.5105830691754817962646484375</LongitudeDegrees>
            </Position>
            <AltitudeMeters>668.20001220703125</AltitudeMeters>
            <DistanceMeters>524687.19510375</DistanceMeters>
          </Trackpoint>
          <Trackpoint>
            <Time>2021-08-03T09:09:15.000Z</Time>
            <Position>
              <LatitudeDegrees>41.1924529261887073516845703125</LatitudeDegrees>
              <LongitudeDegrees>-1.51035784743726253509521484375</LongitudeDegrees>
            </Position>
            <AltitudeMeters>667</AltitudeMeters>
            <DistanceMeters>524747.2634134</DistanceMeters>
          </Trackpoint>
          <Trackpoint>
            <Time>2021-08-03T09:09:29.000Z</Time>
            <Position>
              <LatitudeDegrees>41.19194339029490947723388671875</LatitudeDegrees>
              <LongitudeDegrees>-1.5100459568202495574951171875</LongitudeDegrees>
            </Position>
            <AltitudeMeters>666.5999755859375</AltitudeMeters>
            <DistanceMeters>524809.70283464</DistanceMeters>
          </Trackpoint>
          <Trackpoint>
            <Time>2021-08-03T09:09:44.000Z</Time>
            <Position>
              <LatitudeDegrees>41.1914737522602081298828125</LatitudeDegrees>
              <LongitudeDegrees>-1.50966751389205455780029296875</LongitudeDegrees>
            </Position>
            <AltitudeMeters>667.4000244140625</AltitudeMeters>
            <DistanceMeters>524870.83404513</DistanceMeters>
          </Trackpoint>
          <Trackpoint>
            <Time>2021-08-03T09:10:00.000Z</Time>
            <Position>
              <LatitudeDegrees>41.19111073203384876251220703125</LatitudeDegrees>
              <LongitudeDegrees>-1.50920751504600048065185546875</LongitudeDegrees>
            </Position>
            <AltitudeMeters>668.20001220703125</AltitudeMeters>
            <DistanceMeters>524926.66367531</DistanceMeters>
          </Trackpoint>
          <Trackpoint>
            <Time>2021-08-03T09:10:05.000Z</Time>
            <Position>
              <LatitudeDegrees>41.19104200042784214019775390625</LatitudeDegrees>
              <LongitudeDegrees>-1.50906267575919628143310546875</LongitudeDegrees>
            </Position>
            <AltitudeMeters>669.4000244140625</AltitudeMeters>
            <DistanceMeters>524941.00547022</DistanceMeters>
          </Trackpoint>
          <Trackpoint>
            <Time>2021-08-03T09:10:09.000Z</Time>
            <Position>
              <LatitudeDegrees>41.19100444950163364410400390625</LatitudeDegrees>
              <LongitudeDegrees>-1.5089553035795688629150390625</LongitudeDegrees>
            </Position>
            <AltitudeMeters>670.4000244140625</AltitudeMeters>
            <DistanceMeters>524950.92199847</DistanceMeters>
          </Trackpoint>
          <Trackpoint>
            <Time>2021-08-03T09:10:14.000Z</Time>
            <Position>
              <LatitudeDegrees>41.19096220470964908599853515625</LatitudeDegrees>
              <LongitudeDegrees>-1.50885296054184436798095703125</LongitudeDegrees>
            </Position>
            <AltitudeMeters>671.5999755859375</AltitudeMeters>
            <DistanceMeters>524960.69913451</DistanceMeters>
          </Trackpoint>
          <Trackpoint>
            <Time>2021-08-03T09:10:24.000Z</Time>
            <Position>
              <LatitudeDegrees>41.1906930617988109588623046875</LatitudeDegrees>
              <LongitudeDegrees>-1.50862363167107105255126953125</LongitudeDegrees>
            </Position>
            <AltitudeMeters>670.5999755859375</AltitudeMeters>
            <DistanceMeters>524996.28432357</DistanceMeters>
          </Trackpoint>
          <Trackpoint>
            <Time>2021-08-03T09:10:25.000Z</Time>
            <Position>
              <LatitudeDegrees>41.1906501464545726776123046875</LatitudeDegrees>
              <LongitudeDegrees>-1.50859697721898555755615234375</LongitudeDegrees>
            </Position>
            <AltitudeMeters>670</AltitudeMeters>
            <DistanceMeters>525001.55637964</DistanceMeters>
          </Trackpoint>
          <Trackpoint>
            <Time>2021-08-03T09:10:27.000Z</Time>
            <Position>
              <LatitudeDegrees>41.19056892581284046173095703125</LatitudeDegrees>
              <LongitudeDegrees>-1.50853402912616729736328125</LongitudeDegrees>
            </Position>
            <AltitudeMeters>669.4000244140625</AltitudeMeters>
            <DistanceMeters>525012.02140555</DistanceMeters>
          </Trackpoint>
          <Trackpoint>
            <Time>2021-08-03T09:10:29.000Z</Time>
            <Position>
              <LatitudeDegrees>41.1904893815517425537109375</LatitudeDegrees>
              <LongitudeDegrees>-1.50847208686172962188720703125</LongitudeDegrees>
            </Position>
            <AltitudeMeters>669.20001220703125</AltitudeMeters>
            <DistanceMeters>525022.28341078</DistanceMeters>
          </Trackpoint>
          <Trackpoint>
            <Time>2021-08-03T09:10:32.000Z</Time>
            <Position>
              <LatitudeDegrees>41.1903765611350536346435546875</LatitudeDegrees>
              <LongitudeDegrees>-1.5083863399922847747802734375</LongitudeDegrees>
            </Position>
            <AltitudeMeters>669.4000244140625</AltitudeMeters>
            <DistanceMeters>525036.74933597</DistanceMeters>
          </Trackpoint>
          <Trackpoint>
            <Time>2021-08-03T09:10:37.000Z</Time>
            <Position>
              <LatitudeDegrees>41.1902265250682830810546875</LatitudeDegrees>
              <LongitudeDegrees>-1.50828366167843341827392578125</LongitudeDegrees>
            </Position>
            <AltitudeMeters>669.5999755859375</AltitudeMeters>
            <DistanceMeters>525055.53292314</DistanceMeters>
          </Trackpoint>
          <Trackpoint>
            <Time>2021-08-03T09:10:48.000Z</Time>
            <Position>
              <LatitudeDegrees>41.18997615762054920196533203125</LatitudeDegrees>
              <LongitudeDegrees>-1.5079271793365478515625</LongitudeDegrees>
            </Position>
            <AltitudeMeters>670.4000244140625</AltitudeMeters>
            <DistanceMeters>525096.37473726</DistanceMeters>
          </Trackpoint>
          <Trackpoint>
            <Time>2021-08-03T09:11:02.000Z</Time>
            <Position>
              <LatitudeDegrees>41.18959913961589336395263671875</LatitudeDegrees>
              <LongitudeDegrees>-1.507503725588321685791015625</LongitudeDegrees>
            </Position>
            <AltitudeMeters>671.4000244140625</AltitudeMeters>
            <DistanceMeters>525151.31875291</DistanceMeters>
          </Trackpoint>
          <Trackpoint>
            <Time>2021-08-03T09:11:18.000Z</Time>
            <Position>
              <LatitudeDegrees>41.189085580408573150634765625</LatitudeDegrees>
              <LongitudeDegrees>-1.507269032299518585205078125</LongitudeDegrees>
            </Position>
            <AltitudeMeters>671.4000244140625</AltitudeMeters>
            <DistanceMeters>525211.76463267</DistanceMeters>
          </Trackpoint>
          <Trackpoint>
            <Time>2021-08-03T09:11:24.000Z</Time>
            <Position>
              <LatitudeDegrees>41.18885524570941925048828125</LatitudeDegrees>
              <LongitudeDegrees>-1.507139615714550018310546875</LongitudeDegrees>
            </Position>
            <AltitudeMeters>670.4000244140625</AltitudeMeters>
            <DistanceMeters>525239.59886409</DistanceMeters>
          </Trackpoint>
          <Trackpoint>
            <Time>2021-08-03T09:11:25.000Z</Time>
            <Position>
              <LatitudeDegrees>41.18881174363195896148681640625</LatitudeDegrees>
              <LongitudeDegrees>-1.507124193012714385986328125</LongitudeDegrees>
            </Position>
            <AltitudeMeters>670.20001220703125</AltitudeMeters>
            <DistanceMeters>525244.61101659</DistanceMeters>
          </Trackpoint>
          <Trackpoint>
            <Time>2021-08-03T09:11:31.000Z</Time>
            <Position>
              <LatitudeDegrees>41.1885871924459934234619140625</LatitudeDegrees>
              <LongitudeDegrees>-1.5070455707609653472900390625</LongitudeDegrees>
            </Position>
            <AltitudeMeters>670.5999755859375</AltitudeMeters>
            <DistanceMeters>525270.45688541</DistanceMeters>
          </Trackpoint>
          <Trackpoint>
            <Time>2021-08-03T09:11:35.000Z</Time>
            <Position>
              <LatitudeDegrees>41.18844084441661834716796875</LatitudeDegrees>
              <LongitudeDegrees>-1.50697004981338977813720703125</LongitudeDegrees>
            </Position>
            <AltitudeMeters>670.5999755859375</AltitudeMeters>
            <DistanceMeters>525287.93069366</DistanceMeters>
          </Trackpoint>
          <Trackpoint>
            <Time>2021-08-03T09:11:49.000Z</Time>
            <Position>
              <LatitudeDegrees>41.18811654858291149139404296875</LatitudeDegrees>
              <LongitudeDegrees>-1.5064048580825328826904296875</LongitudeDegrees>
            </Position>
            <AltitudeMeters>670</AltitudeMeters>
            <DistanceMeters>525347.46202929</DistanceMeters>
          </Trackpoint>
          <Trackpoint>
            <Time>2021-08-03T09:12:08.000Z</Time>
            <Position>
              <LatitudeDegrees>41.18765001185238361358642578125</LatitudeDegrees>
              <LongitudeDegrees>-1.505982242524623870849609375</LongitudeDegrees>
            </Position>
            <AltitudeMeters>670.79998779296875</AltitudeMeters>
            <DistanceMeters>525410.30637902</DistanceMeters>
          </Trackpoint>
          <Trackpoint>
            <Time>2021-08-03T09:12:12.000Z</Time>
            <Position>
              <LatitudeDegrees>41.1875562183558940887451171875</LatitudeDegrees>
              <LongitudeDegrees>-1.50590823031961917877197265625</LongitudeDegrees>
            </Position>
            <AltitudeMeters>671.4000244140625</AltitudeMeters>
            <DistanceMeters>525422.44787802</DistanceMeters>
          </Trackpoint>
          <Trackpoint>
            <Time>2021-08-03T09:12:18.000Z</Time>
            <Position>
              <LatitudeDegrees>41.187440715730190277099609375</LatitudeDegrees>
              <LongitudeDegrees>-1.50579138658940792083740234375</LongitudeDegrees>
            </Position>
            <AltitudeMeters>672.5999755859375</AltitudeMeters>
            <DistanceMeters>525438.60465523</DistanceMeters>
          </Trackpoint>
          <Trackpoint>
            <Time>2021-08-03T09:12:24.000Z</Time>
            <Position>
              <LatitudeDegrees>41.18732370436191558837890625</LatitudeDegrees>
              <LongitudeDegrees>-1.50568376295268535614013671875</LongitudeDegrees>
            </Position>
            <AltitudeMeters>673.5999755859375</AltitudeMeters>
            <DistanceMeters>525454.44364459</DistanceMeters>
          </Trackpoint>
          <Trackpoint>
            <Time>2021-08-03T09:12:27.000Z</Time>
            <Position>
              <LatitudeDegrees>41.18726670742034912109375</LatitudeDegrees>
              <LongitudeDegrees>-1.5056280232965946197509765625</LongitudeDegrees>
            </Position>
            <AltitudeMeters>674.79998779296875</AltitudeMeters>
            <DistanceMeters>525462.32112422</DistanceMeters>
          </Trackpoint>
          <Trackpoint>
            <Time>2021-08-03T09:12:32.000Z</Time>
            <Position>
              <LatitudeDegrees>41.1871662922203540802001953125</LatitudeDegrees>
              <LongitudeDegrees>-1.50554277934134006500244140625</LongitudeDegrees>
            </Position>
            <AltitudeMeters>675.79998779296875</AltitudeMeters>
            <DistanceMeters>525475.5833951</DistanceMeters>
          </Trackpoint>
          <Trackpoint>
            <Time>2021-08-03T09:12:41.000Z</Time>
            <Position>
              <LatitudeDegrees>41.18696856312453746795654296875</LatitudeDegrees>
              <LongitudeDegrees>-1.50544035248458385467529296875</LongitudeDegrees>
            </Position>
            <AltitudeMeters>677</AltitudeMeters>
            <DistanceMeters>525499.20436806</DistanceMeters>
          </Trackpoint>
          <Trackpoint>
            <Time>2021-08-03T09:12:44.000Z</Time>
            <Position>
              <LatitudeDegrees>41.1869113147258758544921875</LatitudeDegrees>
              <LongitudeDegrees>-1.50542828254401683807373046875</LongitudeDegrees>
            </Position>
            <AltitudeMeters>678</AltitudeMeters>
            <DistanceMeters>525505.65639506</DistanceMeters>
          </Trackpoint>
          <Trackpoint>
            <Time>2021-08-03T09:12:49.000Z</Time>
            <Position>
              <LatitudeDegrees>41.18680394254624843597412109375</LatitudeDegrees>
              <LongitudeDegrees>-1.505405902862548828125</LongitudeDegrees>
            </Position>
            <AltitudeMeters>679</AltitudeMeters>
            <DistanceMeters>525517.75281431</DistanceMeters>
          </Trackpoint>
          <Trackpoint>
            <Time>2021-08-03T09:12:54.000Z</Time>
            <Position>
              <LatitudeDegrees>41.186684332787990570068359375</LatitudeDegrees>
              <LongitudeDegrees>-1.50542325340211391448974609375</LongitudeDegrees>
            </Position>
            <AltitudeMeters>680.20001220703125</AltitudeMeters>
            <DistanceMeters>525531.14483985</DistanceMeters>
          </Trackpoint>
          <Trackpoint>
            <Time>2021-08-03T09:13:12.000Z</Time>
            <Position>
              <LatitudeDegrees>41.18613012135028839111328125</LatitudeDegrees>
              <LongitudeDegrees>-1.50538905523717403411865234375</LongitudeDegrees>
            </Position>
            <AltitudeMeters>679</AltitudeMeters>
            <DistanceMeters>525592.89612066</DistanceMeters>
          </Trackpoint>
          <Trackpoint>
            <Time>2021-08-03T09:13:27.000Z</Time>
            <Position>
              <LatitudeDegrees>41.18562184274196624755859375</LatitudeDegrees>
              <LongitudeDegrees>-1.5056843496859073638916015625</LongitudeDegrees>
            </Position>
            <AltitudeMeters>679.79998779296875</AltitudeMeters>
            <DistanceMeters>525654.63965062</DistanceMeters>
          </Trackpoint>
          <Trackpoint>
            <Time>2021-08-03T09:13:29.000Z</Time>
            <Position>
              <LatitudeDegrees>41.1855676956474781036376953125</LatitudeDegrees>
              <LongitudeDegrees>-1.5057452023029327392578125</LongitudeDegrees>
            </Position>
            <AltitudeMeters>680</AltitudeMeters>
            <DistanceMeters>525662.53259034</DistanceMeters>
          </Trackpoint>
          <Trackpoint>
            <Time>2021-08-03T09:13:36.000Z</Time>
            <Position>
              <LatitudeDegrees>41.185378096997737884521484375</LatitudeDegrees>
              <LongitudeDegrees>-1.50593169964849948883056640625</LongitudeDegrees>
            </Position>
            <AltitudeMeters>681.4000244140625</AltitudeMeters>
            <DistanceMeters>525688.7881809</DistanceMeters>
          </Trackpoint>
          <Trackpoint>
            <Time>2021-08-03T09:13:45.000Z</Time>
            <Position>
              <LatitudeDegrees>41.18514063768088817596435546875</LatitudeDegrees>
              <LongitudeDegrees>-1.506116352975368499755859375</LongitudeDegrees>
            </Position>
            <AltitudeMeters>682.4000244140625</AltitudeMeters>
            <DistanceMeters>525719.4112676</DistanceMeters>
          </Trackpoint>
          <Trackpoint>
            <Time>2021-08-03T09:14:02.000Z</Time>
            <Position>
              <LatitudeDegrees>41.18464861996471881866455078125</LatitudeDegrees>
              <LongitudeDegrees>-1.50645003654062747955322265625</LongitudeDegrees>
            </Position>
            <AltitudeMeters>681.79998779296875</AltitudeMeters>
            <DistanceMeters>525780.89450646</DistanceMeters>
          </Trackpoint>
          <Trackpoint>
            <Time>2021-08-03T09:14:05.000Z</Time>
            <Position>
              <LatitudeDegrees>41.1845544911921024322509765625</LatitudeDegrees>
              <LongitudeDegrees>-1.506502926349639892578125</LongitudeDegrees>
            </Position>
            <AltitudeMeters>681.20001220703125</AltitudeMeters>
            <DistanceMeters>525792.26996229</DistanceMeters>
          </Trackpoint>
          <Trackpoint>
            <Time>2021-08-03T09:14:22.000Z</Time>
            <Position>
              <LatitudeDegrees>41.18403238244354724884033203125</LatitudeDegrees>
              <LongitudeDegrees>-1.506809033453464508056640625</LongitudeDegrees>
            </Position>
            <AltitudeMeters>681.5999755859375</AltitudeMeters>
            <DistanceMeters>525855.78720006</DistanceMeters>
          </Trackpoint>
          <Trackpoint>
            <Time>2021-08-03T09:14:24.000Z</Time>
            <Position>
              <LatitudeDegrees>41.18396733887493610382080078125</LatitudeDegrees>
              <LongitudeDegrees>-1.50687298737466335296630859375</LongitudeDegrees>
            </Position>
            <AltitudeMeters>681.20001220703125</AltitudeMeters>
            <DistanceMeters>525864.7932062</DistanceMeters>
          </Trackpoint>
          <Trackpoint>
            <Time>2021-08-03T09:14:38.000Z</Time>
            <Position>
              <LatitudeDegrees>41.1835882253944873809814453125</LatitudeDegrees>
              <LongitudeDegrees>-1.5074314735829830169677734375</LongitudeDegrees>
            </Position>
            <AltitudeMeters>681.20001220703125</AltitudeMeters>
            <DistanceMeters>525927.79383953</DistanceMeters>
          </Trackpoint>
          <Trackpoint>
            <Time>2021-08-03T09:14:45.000Z</Time>
            <Position>
              <LatitudeDegrees>41.18344749324023723602294921875</LatitudeDegrees>
              <LongitudeDegrees>-1.5076752193272113800048828125</LongitudeDegrees>
            </Position>
            <AltitudeMeters>682.20001220703125</AltitudeMeters>
            <DistanceMeters>525953.52801421</DistanceMeters>
          </Trackpoint>
          <Trackpoint>
            <Time>2021-08-03T09:15:05.000Z</Time>
            <Position>
              <LatitudeDegrees>41.1832569725811481475830078125</LatitudeDegrees>
              <LongitudeDegrees>-1.50832674466073513031005859375</LongitudeDegrees>
            </Position>
            <AltitudeMeters>683.4000244140625</AltitudeMeters>
            <DistanceMeters>526012.0789693</DistanceMeters>
          </Trackpoint>
          <Trackpoint>
            <Time>2021-08-03T09:15:09.000Z</Time>
            <Position>
              <LatitudeDegrees>41.18324666284024715423583984375</LatitudeDegrees>
              <LongitudeDegrees>-1.50837049819529056549072265625</LongitudeDegrees>
            </Position>
            <AltitudeMeters>684</AltitudeMeters>
            <DistanceMeters>526015.91786038</DistanceMeters>
          </Trackpoint>
          <Trackpoint>
            <Time>2021-08-03T09:19:11.000Z</Time>
            <Position>
              <LatitudeDegrees>41.18316686712205410003662109375</LatitudeDegrees>
              <LongitudeDegrees>-1.5084403194487094879150390625</LongitudeDegrees>
            </Position>
            <AltitudeMeters>685</AltitudeMeters>
            <DistanceMeters>526026.55151531</DistanceMeters>
          </Trackpoint>
          <Trackpoint>
            <Time>2021-08-03T09:19:17.000Z</Time>
            <Position>
              <LatitudeDegrees>41.18309360928833484649658203125</LatitudeDegrees>
              <LongitudeDegrees>-1.50850477628409862518310546875</LongitudeDegrees>
            </Position>
            <AltitudeMeters>686</AltitudeMeters>
            <DistanceMeters>526036.33142174</DistanceMeters>
          </Trackpoint>
          <Trackpoint>
            <Time>2021-08-03T09:19:22.000Z</Time>
            <Position>
              <LatitudeDegrees>41.183015406131744384765625</LatitudeDegrees>
              <LongitudeDegrees>-1.5085502900183200836181640625</LongitudeDegrees>
            </Position>
            <AltitudeMeters>687.20001220703125</AltitudeMeters>
            <DistanceMeters>526045.83409318</DistanceMeters>
          </Trackpoint>
          <Trackpoint>
            <Time>2021-08-03T09:19:39.000Z</Time>
            <Position>
              <LatitudeDegrees>41.182862184941768646240234375</LatitudeDegrees>
              <LongitudeDegrees>-1.5091386996209621429443359375</LongitudeDegrees>
            </Position>
            <AltitudeMeters>686.4000244140625</AltitudeMeters>
            <DistanceMeters>526097.99034312</DistanceMeters>
          </Trackpoint>
          <Trackpoint>
            <Time>2021-08-03T09:19:40.000Z</Time>
            <Position>
              <LatitudeDegrees>41.18287467397749423980712890625</LatitudeDegrees>
              <LongitudeDegrees>-1.509204246103763580322265625</LongitudeDegrees>
            </Position>
            <AltitudeMeters>685.79998779296875</AltitudeMeters>
            <DistanceMeters>526103.65460491</DistanceMeters>
          </Trackpoint>
          <Trackpoint>
            <Time>2021-08-03T09:19:42.000Z</Time>
            <Position>
              <LatitudeDegrees>41.1829113028943538665771484375</LatitudeDegrees>
              <LongitudeDegrees>-1.50935201905667781829833984375</LongitudeDegrees>
            </Position>
            <AltitudeMeters>684.4000244140625</AltitudeMeters>
            <DistanceMeters>526116.68678346</DistanceMeters>
          </Trackpoint>
          <Trackpoint>
            <Time>2021-08-03T09:19:44.000Z</Time>
            <Position>
              <LatitudeDegrees>41.182918846607208251953125</LatitudeDegrees>
              <LongitudeDegrees>-1.50952418334782123565673828125</LongitudeDegrees>
            </Position>
            <AltitudeMeters>682.5999755859375</AltitudeMeters>
            <DistanceMeters>526131.13271945</DistanceMeters>
          </Trackpoint>
          <Trackpoint>
            <Time>2021-08-03T09:19:46.000Z</Time>
            <Position>
              <LatitudeDegrees>41.182895712554454803466796875</LatitudeDegrees>
              <LongitudeDegrees>-1.5097039751708507537841796875</LongitudeDegrees>
            </Position>
            <AltitudeMeters>681.20001220703125</AltitudeMeters>
            <DistanceMeters>526146.41223503</DistanceMeters>
          </Trackpoint>
          <Trackpoint>
            <Time>2021-08-03T09:19:48.000Z</Time>
            <Position>
              <LatitudeDegrees>41.18288456462323665618896484375</LatitudeDegrees>
              <LongitudeDegrees>-1.50988318026065826416015625</LongitudeDegrees>
            </Position>
            <AltitudeMeters>681</AltitudeMeters>
            <DistanceMeters>526161.47509335</DistanceMeters>
          </Trackpoint>
          <Trackpoint>
            <Time>2021-08-03T09:19:53.000Z</Time>
            <Position>
              <LatitudeDegrees>41.1828638613224029541015625</LatitudeDegrees>
              <LongitudeDegrees>-1.51021116413176059722900390625</LongitudeDegrees>
            </Position>
            <AltitudeMeters>682.4000244140625</AltitudeMeters>
            <DistanceMeters>526189.04578077</DistanceMeters>
          </Trackpoint>
          <Trackpoint>
            <Time>2021-08-03T09:20:08.000Z</Time>
            <Position>
              <LatitudeDegrees>41.18270368315279483795166015625</LatitudeDegrees>
              <LongitudeDegrees>-1.51091189123690128326416015625</LongitudeDegrees>
            </Position>
            <AltitudeMeters>683.4000244140625</AltitudeMeters>
            <DistanceMeters>526250.39154198</DistanceMeters>
          </Trackpoint>
          <Trackpoint>
            <Time>2021-08-03T09:20:09.000Z</Time>
            <Position>
              <LatitudeDegrees>41.18269312195479869842529296875</LatitudeDegrees>
              <LongitudeDegrees>-1.51095782406628131866455078125</LongitudeDegrees>
            </Position>
            <AltitudeMeters>683.5999755859375</AltitudeMeters>
            <DistanceMeters>526254.41533709</DistanceMeters>
          </Trackpoint>
          <Trackpoint>
            <Time>2021-08-03T09:20:24.000Z</Time>
            <Position>
              <LatitudeDegrees>41.18266596458852291107177734375</LatitudeDegrees>
              <LongitudeDegrees>-1.51169911958277225494384765625</LongitudeDegrees>
            </Position>
            <AltitudeMeters>683.4000244140625</AltitudeMeters>
            <DistanceMeters>526316.58539845</DistanceMeters>
          </Trackpoint>
          <Trackpoint>
            <Time>2021-08-03T09:20:30.000Z</Time>
            <Position>
              <LatitudeDegrees>41.1826357059180736541748046875</LatitudeDegrees>
              <LongitudeDegrees>-1.51205937378108501434326171875</LongitudeDegrees>
            </Position>
            <AltitudeMeters>682.4000244140625</AltitudeMeters>
            <DistanceMeters>526346.95026278</DistanceMeters>
          </Trackpoint>
          <Trackpoint>
            <Time>2021-08-03T09:20:44.000Z</Time>
            <Position>
              <LatitudeDegrees>41.182452142238616943359375</LatitudeDegrees>
              <LongitudeDegrees>-1.512721963226795196533203125</LongitudeDegrees>
            </Position>
            <AltitudeMeters>682.79998779296875</AltitudeMeters>
            <DistanceMeters>526406.09475544</DistanceMeters>
          </Trackpoint>
          <Trackpoint>
            <Time>2021-08-03T09:20:59.000Z</Time>
            <Position>
              <LatitudeDegrees>41.1819232441484928131103515625</LatitudeDegrees>
              <LongitudeDegrees>-1.51287912391126155853271484375</LongitudeDegrees>
            </Position>
            <AltitudeMeters>682.20001220703125</AltitudeMeters>
            <DistanceMeters>526466.41636346</DistanceMeters>
          </Trackpoint>
          <Trackpoint>
            <Time>2021-08-03T09:21:09.000Z</Time>
            <Position>
              <LatitudeDegrees>41.1815738864243030548095703125</LatitudeDegrees>
              <LongitudeDegrees>-1.51273545809090137481689453125</LongitudeDegrees>
            </Position>
            <AltitudeMeters>682.4000244140625</AltitudeMeters>
            <DistanceMeters>526507.1204218</DistanceMeters>
          </Trackpoint>
          <Trackpoint>
            <Time>2021-08-03T09:21:22.000Z</Time>
            <Position>
              <LatitudeDegrees>41.18154178373515605926513671875</LatitudeDegrees>
              <LongitudeDegrees>-1.51213564909994602203369140625</LongitudeDegrees>
            </Position>
            <AltitudeMeters>683.79998779296875</AltitudeMeters>
            <DistanceMeters>526557.49264808</DistanceMeters>
          </Trackpoint>
          <Trackpoint>
            <Time>2021-08-03T09:21:23.000Z</Time>
            <Position>
              <LatitudeDegrees>41.1815544404089450836181640625</LatitudeDegrees>
              <LongitudeDegrees>-1.51209658943116664886474609375</LongitudeDegrees>
            </Position>
            <AltitudeMeters>684.20001220703125</AltitudeMeters>
            <DistanceMeters>526561.0558331</DistanceMeters>
          </Trackpoint>
          <Trackpoint>
            <Time>2021-08-03T09:21:31.000Z</Time>
            <Position>
              <LatitudeDegrees>41.18159006349742412567138671875</LatitudeDegrees>
              <LongitudeDegrees>-1.5117967687547206878662109375</LongitudeDegrees>
            </Position>
            <AltitudeMeters>684.20001220703125</AltitudeMeters>
            <DistanceMeters>526586.48271618</DistanceMeters>
          </Trackpoint>
          <Trackpoint>
            <Time>2021-08-03T09:21:44.000Z</Time>
            <Position>
              <LatitudeDegrees>41.18128596805036067962646484375</LatitudeDegrees>
              <LongitudeDegrees>-1.51127784512937068939208984375</LongitudeDegrees>
            </Position>
            <AltitudeMeters>684.79998779296875</AltitudeMeters>
            <DistanceMeters>526641.57543216</DistanceMeters>
          </Trackpoint>
          <Trackpoint>
            <Time>2021-08-03T09:21:53.000Z</Time>
            <Position>
              <LatitudeDegrees>41.180998720228672027587890625</LatitudeDegrees>
              <LongitudeDegrees>-1.51111925952136516571044921875</LongitudeDegrees>
            </Position>
            <AltitudeMeters>685.79998779296875</AltitudeMeters>
            <DistanceMeters>526676.19699116</DistanceMeters>
          </Trackpoint>
          <Trackpoint>
            <Time>2021-08-03T09:21:59.000Z</Time>
            <Position>
              <LatitudeDegrees>41.18077249266207218170166015625</LatitudeDegrees>
              <LongitudeDegrees>-1.51105396449565887451171875</LongitudeDegrees>
            </Position>
            <AltitudeMeters>685.20001220703125</AltitudeMeters>
            <DistanceMeters>526701.9637787</DistanceMeters>
          </Trackpoint>
          <Trackpoint>
            <Time>2021-08-03T09:22:00.000Z</Time>
            <Position>
              <LatitudeDegrees>41.18072622455656528472900390625</LatitudeDegrees>
              <LongitudeDegrees>-1.51104784570634365081787109375</LongitudeDegrees>
            </Position>
            <AltitudeMeters>685</AltitudeMeters>
            <DistanceMeters>526707.13902814</DistanceMeters>
          </Trackpoint>
          <Trackpoint>
            <Time>2021-08-03T09:22:04.000Z</Time>
            <Position>
              <LatitudeDegrees>41.18052304722368717193603515625</LatitudeDegrees>
              <LongitudeDegrees>-1.51103653013706207275390625</LongitudeDegrees>
            </Position>
            <AltitudeMeters>683.5999755859375</AltitudeMeters>
            <DistanceMeters>526729.7729473</DistanceMeters>
          </Trackpoint>
          <Trackpoint>
            <Time>2021-08-03T09:22:05.000Z</Time>
            <Position>
              <LatitudeDegrees>41.18046755902469158172607421875</LatitudeDegrees>
              <LongitudeDegrees>-1.51104885153472423553466796875</LongitudeDegrees>
            </Position>
            <AltitudeMeters>683.4000244140625</AltitudeMeters>
            <DistanceMeters>526736.03462375</DistanceMeters>
          </Trackpoint>
          <Trackpoint>
            <Time>2021-08-03T09:22:08.000Z</Time>
            <Position>
              <LatitudeDegrees>41.18030595593154430389404296875</LatitudeDegrees>
              <LongitudeDegrees>-1.5111034177243709564208984375</LongitudeDegrees>
            </Position>
            <AltitudeMeters>682.79998779296875</AltitudeMeters>
            <DistanceMeters>526754.59307589</DistanceMeters>
          </Trackpoint>
          <Trackpoint>
            <Time>2021-08-03T09:22:11.000Z</Time>
            <Position>
              <LatitudeDegrees>41.1801553331315517425537109375</LatitudeDegrees>
              <LongitudeDegrees>-1.5111466683447360992431640625</LongitudeDegrees>
            </Position>
            <AltitudeMeters>682.5999755859375</AltitudeMeters>
            <DistanceMeters>526771.74480555</DistanceMeters>
          </Trackpoint>
          <Trackpoint>
            <Time>2021-08-03T09:22:17.000Z</Time>
            <Position>
              <LatitudeDegrees>41.17994184605777263641357421875</LatitudeDegrees>
              <LongitudeDegrees>-1.5112727321684360504150390625</LongitudeDegrees>
            </Position>
            <AltitudeMeters>683.4000244140625</AltitudeMeters>
            <DistanceMeters>526797.74742087</DistanceMeters>
          </Trackpoint>
          <Trackpoint>
            <Time>2021-08-03T09:22:28.000Z</Time>
            <Position>
              <LatitudeDegrees>41.17954395711421966552734375</LatitudeDegrees>
              <LongitudeDegrees>-1.5114450640976428985595703125</LongitudeDegrees>
            </Position>
            <AltitudeMeters>683.79998779296875</AltitudeMeters>
            <DistanceMeters>526844.32679836</DistanceMeters>
          </Trackpoint>
          <Trackpoint>
            <Time>2021-08-03T09:22:32.000Z</Time>
            <Position>
              <LatitudeDegrees>41.17942417971789836883544921875</LatitudeDegrees>
              <LongitudeDegrees>-1.511460654437541961669921875</LongitudeDegrees>
            </Position>
            <AltitudeMeters>684.79998779296875</AltitudeMeters>
            <DistanceMeters>526857.72185786</DistanceMeters>
          </Trackpoint>
          <Trackpoint>
            <Time>2021-08-03T09:22:36.000Z</Time>
            <Position>
              <LatitudeDegrees>41.17933918721973896026611328125</LatitudeDegrees>
              <LongitudeDegrees>-1.511448584496974945068359375</LongitudeDegrees>
            </Position>
            <AltitudeMeters>686</AltitudeMeters>
            <DistanceMeters>526867.23592567</DistanceMeters>
          </Trackpoint>
          <Trackpoint>
            <Time>2021-08-03T09:22:42.000Z</Time>
            <Position>
              <LatitudeDegrees>41.1792574636638164520263671875</LatitudeDegrees>
              <LongitudeDegrees>-1.51137541048228740692138671875</LongitudeDegrees>
            </Position>
            <AltitudeMeters>687</AltitudeMeters>
            <DistanceMeters>526878.20482436</DistanceMeters>
          </Trackpoint>
          <Trackpoint>
            <Time>2021-08-03T09:22:47.000Z</Time>
            <Position>
              <LatitudeDegrees>41.1792276240885257720947265625</LatitudeDegrees>
              <LongitudeDegrees>-1.51127549819648265838623046875</LongitudeDegrees>
            </Position>
            <AltitudeMeters>688.20001220703125</AltitudeMeters>
            <DistanceMeters>526887.20982777</DistanceMeters>
          </Trackpoint>
          <Trackpoint>
            <Time>2021-08-03T09:22:55.000Z</Time>
            <Position>
              <LatitudeDegrees>41.17918931879103183746337890625</LatitudeDegrees>
              <LongitudeDegrees>-1.51108170859515666961669921875</LongitudeDegrees>
            </Position>
            <AltitudeMeters>689.20001220703125</AltitudeMeters>
            <DistanceMeters>526903.99435413</DistanceMeters>
          </Trackpoint>
          <Trackpoint>
            <Time>2021-08-03T09:22:59.000Z</Time>
            <Position>
              <LatitudeDegrees>41.17917641066014766693115234375</LatitudeDegrees>
              <LongitudeDegrees>-1.51100300252437591552734375</LongitudeDegrees>
            </Position>
            <AltitudeMeters>690.20001220703125</AltitudeMeters>
            <DistanceMeters>526910.74192002</DistanceMeters>
          </Trackpoint>
          <Trackpoint>
            <Time>2021-08-03T09:23:02.000Z</Time>
            <Position>
              <LatitudeDegrees>41.1791739799082279205322265625</LatitudeDegrees>
              <LongitudeDegrees>-1.51094541884958744049072265625</LongitudeDegrees>
            </Position>
            <AltitudeMeters>690.4000244140625</AltitudeMeters>
            <DistanceMeters>526915.5733533</DistanceMeters>
          </Trackpoint>
          <Trackpoint>
            <Time>2021-08-03T09:23:06.000Z</Time>
            <Position>
              <LatitudeDegrees>41.17921597324311733245849609375</LatitudeDegrees>
              <LongitudeDegrees>-1.5108419023454189300537109375</LongitudeDegrees>
            </Position>
            <AltitudeMeters>689</AltitudeMeters>
            <DistanceMeters>526925.42409954</DistanceMeters>
          </Trackpoint>
          <Trackpoint>
            <Time>2021-08-03T09:23:07.000Z</Time>
            <Position>
              <LatitudeDegrees>41.179236508905887603759765625</LatitudeDegrees>
              <LongitudeDegrees>-1.51081390678882598876953125</LongitudeDegrees>
            </Position>
            <AltitudeMeters>688.79998779296875</AltitudeMeters>
            <DistanceMeters>526928.69804223</DistanceMeters>
          </Trackpoint>
          <Trackpoint>
            <Time>2021-08-03T09:23:09.000Z</Time>
            <Position>
              <LatitudeDegrees>41.1793040670454502105712890625</LatitudeDegrees>
              <LongitudeDegrees>-1.51075062341988086700439453125</LongitudeDegrees>
            </Position>
            <AltitudeMeters>687.4000244140625</AltitudeMeters>
            <DistanceMeters>526937.89847356</DistanceMeters>
          </Trackpoint>
          <Trackpoint>
            <Time>2021-08-03T09:23:11.000Z</Time>
            <Position>
              <LatitudeDegrees>41.1793858744204044342041015625</LatitudeDegrees>
              <LongitudeDegrees>-1.51066143997013568878173828125</LongitudeDegrees>
            </Position>
            <AltitudeMeters>686</AltitudeMeters>
            <DistanceMeters>526949.67642051</DistanceMeters>
          </Trackpoint>
          <Trackpoint>
            <Time>2021-08-03T09:23:13.000Z</Time>
            <Position>
              <LatitudeDegrees>41.1794760636985301971435546875</LatitudeDegrees>
              <LongitudeDegrees>-1.51055867783725261688232421875</LongitudeDegrees>
            </Position>
            <AltitudeMeters>684.79998779296875</AltitudeMeters>
            <DistanceMeters>526962.90050688</DistanceMeters>
          </Trackpoint>
          <Trackpoint>
            <Time>2021-08-03T09:23:17.000Z</Time>
            <Position>
              <LatitudeDegrees>41.17967546917498111724853515625</LatitudeDegrees>
              <LongitudeDegrees>-1.51043177582323551177978515625</LongitudeDegrees>
            </Position>
            <AltitudeMeters>684.79998779296875</AltitudeMeters>
            <DistanceMeters>526987.50930707</DistanceMeters>
          </Trackpoint>
          <Trackpoint>
            <Time>2021-08-03T09:23:21.000Z</Time>
            <Position>
              <LatitudeDegrees>41.17978393100202083587646484375</LatitudeDegrees>
              <LongitudeDegrees>-1.5102766267955303192138671875</LongitudeDegrees>
            </Position>
            <AltitudeMeters>685</AltitudeMeters>
            <DistanceMeters>527005.24776849</DistanceMeters>
          </Trackpoint>
          <Trackpoint>
            <Time>2021-08-03T09:23:24.000Z</Time>
            <Position>
              <LatitudeDegrees>41.17985735647380352020263671875</LatitudeDegrees>
              <LongitudeDegrees>-1.51013723574578762054443359375</LongitudeDegrees>
            </Position>
            <AltitudeMeters>684.5999755859375</AltitudeMeters>
            <DistanceMeters>527019.49987499</DistanceMeters>
          </Trackpoint>
          <Trackpoint>
            <Time>2021-08-03T09:23:28.000Z</Time>
            <Position>
              <LatitudeDegrees>41.179925166070461273193359375</LatitudeDegrees>
              <LongitudeDegrees>-1.50994579307734966278076171875</LongitudeDegrees>
            </Position>
            <AltitudeMeters>684.79998779296875</AltitudeMeters>
            <DistanceMeters>527037.22433152</DistanceMeters>
          </Trackpoint>
          <Trackpoint>
            <Time>2021-08-03T09:23:33.000Z</Time>
            <Position>
              <LatitudeDegrees>41.17997788824141025543212890625</LatitudeDegrees>
              <LongitudeDegrees>-1.50977714918553829193115234375</LongitudeDegrees>
            </Position>
            <AltitudeMeters>685.79998779296875</AltitudeMeters>
            <DistanceMeters>527052.52186175</DistanceMeters>
          </Trackpoint>
          <Trackpoint>
            <Time>2021-08-03T09:23:40.000Z</Time>
            <Position>
              <LatitudeDegrees>41.18000772781670093536376953125</LatitudeDegrees>
              <LongitudeDegrees>-1.50960691273212432861328125</LongitudeDegrees>
            </Position>
            <AltitudeMeters>687</AltitudeMeters>
            <DistanceMeters>527067.16461201</DistanceMeters>
          </Trackpoint>
          <Trackpoint>
            <Time>2021-08-03T09:23:48.000Z</Time>
            <Position>
              <LatitudeDegrees>41.1799840070307254791259765625</LatitudeDegrees>
              <LongitudeDegrees>-1.5093904919922351837158203125</LongitudeDegrees>
            </Position>
            <AltitudeMeters>688.20001220703125</AltitudeMeters>
            <DistanceMeters>527085.48530908</DistanceMeters>
          </Trackpoint>
          <Trackpoint>
            <Time>2021-08-03T09:23:54.000Z</Time>
            <Position>
              <LatitudeDegrees>41.17996565066277980804443359375</LatitudeDegrees>
              <LongitudeDegrees>-1.5092459879815578460693359375</LongitudeDegrees>
            </Position>
            <AltitudeMeters>689.20001220703125</AltitudeMeters>
            <DistanceMeters>527097.76178968</DistanceMeters>
          </Trackpoint>
          <Trackpoint>
            <Time>2021-08-03T09:24:01.000Z</Time>
            <Position>
              <LatitudeDegrees>41.179950647056102752685546875</LatitudeDegrees>
              <LongitudeDegrees>-1.50907583534717559814453125</LongitudeDegrees>
            </Position>
            <AltitudeMeters>690.4000244140625</AltitudeMeters>
            <DistanceMeters>527112.11302599</DistanceMeters>
          </Trackpoint>
          <Trackpoint>
            <Time>2021-08-03T09:24:24.000Z</Time>
            <Position>
              <LatitudeDegrees>41.17978795431554317474365234375</LatitudeDegrees>
              <LongitudeDegrees>-1.50846554897725582122802734375</LongitudeDegrees>
            </Position>
            <AltitudeMeters>690.20001220703125</AltitudeMeters>
            <DistanceMeters>527166.34955964</DistanceMeters>
          </Trackpoint>
          <Trackpoint>
            <Time>2021-08-03T09:24:26.000Z</Time>
            <Position>
              <LatitudeDegrees>41.17970095016062259674072265625</LatitudeDegrees>
              <LongitudeDegrees>-1.50841173715889453887939453125</LongitudeDegrees>
            </Position>
            <AltitudeMeters>688.79998779296875</AltitudeMeters>
            <DistanceMeters>527177.03150917</DistanceMeters>
          </Trackpoint>
          <Trackpoint>
            <Time>2021-08-03T09:24:29.000Z</Time>
            <Position>
              <LatitudeDegrees>41.17954370565712451934814453125</LatitudeDegrees>
              <LongitudeDegrees>-1.508333198726177215576171875</LongitudeDegrees>
            </Position>
            <AltitudeMeters>687.4000244140625</AltitudeMeters>
            <DistanceMeters>527195.72932829</DistanceMeters>
          </Trackpoint>
          <Trackpoint>
            <Time>2021-08-03T09:24:34.000Z</Time>
            <Position>
              <LatitudeDegrees>41.17927263490855693817138671875</LatitudeDegrees>
              <LongitudeDegrees>-1.50829103775322437286376953125</LongitudeDegrees>
            </Position>
            <AltitudeMeters>687</AltitudeMeters>
            <DistanceMeters>527226.10623434</DistanceMeters>
          </Trackpoint>
          <Trackpoint>
            <Time>2021-08-03T09:24:41.000Z</Time>
            <Position>
              <LatitudeDegrees>41.1790324933826923370361328125</LatitudeDegrees>
              <LongitudeDegrees>-1.50820068083703517913818359375</LongitudeDegrees>
            </Position>
            <AltitudeMeters>686.5999755859375</AltitudeMeters>
            <DistanceMeters>527253.8855841</DistanceMeters>
          </Trackpoint>
          <Trackpoint>
            <Time>2021-08-03T09:24:43.000Z</Time>
            <Position>
              <LatitudeDegrees>41.17895118892192840576171875</LatitudeDegrees>
              <LongitudeDegrees>-1.50816924870014190673828125</LongitudeDegrees>
            </Position>
            <AltitudeMeters>686.4000244140625</AltitudeMeters>
            <DistanceMeters>527263.3100115</DistanceMeters>
          </Trackpoint>
          <Trackpoint>
            <Time>2021-08-03T09:24:57.000Z</Time>
            <Position>
              <LatitudeDegrees>41.17838666774332523345947265625</LatitudeDegrees>
              <LongitudeDegrees>-1.5080198831856250762939453125</LongitudeDegrees>
            </Position>
            <AltitudeMeters>685.5999755859375</AltitudeMeters>
            <DistanceMeters>527327.37620201</DistanceMeters>
          </Trackpoint>
          <Trackpoint>
            <Time>2021-08-03T09:25:00.000Z</Time>
            <Position>
              <LatitudeDegrees>41.1782580055296421051025390625</LatitudeDegrees>
              <LongitudeDegrees>-1.50804008357226848602294921875</LongitudeDegrees>
            </Position>
            <AltitudeMeters>685.79998779296875</AltitudeMeters>
            <DistanceMeters>527341.79648635</DistanceMeters>
          </Trackpoint>
          <Trackpoint>
            <Time>2021-08-03T09:25:12.000Z</Time>
            <Position>
              <LatitudeDegrees>41.17792499251663684844970703125</LatitudeDegrees>
              <LongitudeDegrees>-1.5080651454627513885498046875</LongitudeDegrees>
            </Position>
            <AltitudeMeters>687.5999755859375</AltitudeMeters>
            <DistanceMeters>527378.92093176</DistanceMeters>
          </Trackpoint>
          <Trackpoint>
            <Time>2021-08-03T09:25:16.000Z</Time>
            <Position>
              <LatitudeDegrees>41.17786766029894351959228515625</LatitudeDegrees>
              <LongitudeDegrees>-1.50804360397160053253173828125</LongitudeDegrees>
            </Position>
            <AltitudeMeters>688.5999755859375</AltitudeMeters>
            <DistanceMeters>527385.55240764</DistanceMeters>
          </Trackpoint>
          <Trackpoint>
            <Time>2021-08-03T09:25:24.000Z</Time>
            <Position>
              <LatitudeDegrees>41.17777462117373943328857421875</LatitudeDegrees>
              <LongitudeDegrees>-1.50800521485507488250732421875</LongitudeDegrees>
            </Position>
            <AltitudeMeters>689.5999755859375</AltitudeMeters>
            <DistanceMeters>527396.39545128</DistanceMeters>
          </Trackpoint>
          <Trackpoint>
            <Time>2021-08-03T09:25:32.000Z</Time>
            <Position>
              <LatitudeDegrees>41.177572198212146759033203125</LatitudeDegrees>
              <LongitudeDegrees>-1.50812960229814052581787109375</LongitudeDegrees>
            </Position>
            <AltitudeMeters>688.5999755859375</AltitudeMeters>
            <DistanceMeters>527421.21871368</DistanceMeters>
          </Trackpoint>
          <Trackpoint>
            <Time>2021-08-03T09:25:35.000Z</Time>
            <Position>
              <LatitudeDegrees>41.17744454182684421539306640625</LatitudeDegrees>
              <LongitudeDegrees>-1.50820788927376270294189453125</LongitudeDegrees>
            </Position>
            <AltitudeMeters>687.5999755859375</AltitudeMeters>
            <DistanceMeters>527436.86756805</DistanceMeters>
          </Trackpoint>
          <Trackpoint>
            <Time>2021-08-03T09:25:41.000Z</Time>
            <Position>
              <LatitudeDegrees>41.1771878041326999664306640625</LatitudeDegrees>
              <LongitudeDegrees>-1.50832070969045162200927734375</LongitudeDegrees>
            </Position>
            <AltitudeMeters>686.5999755859375</AltitudeMeters>
            <DistanceMeters>527466.96539536</DistanceMeters>
          </Trackpoint>
          <Trackpoint>
            <Time>2021-08-03T09:25:46.000Z</Time>
            <Position>
              <LatitudeDegrees>41.1770127899944782257080078125</LatitudeDegrees>
              <LongitudeDegrees>-1.50839715264737606048583984375</LongitudeDegrees>
            </Position>
            <AltitudeMeters>687.4000244140625</AltitudeMeters>
            <DistanceMeters>527487.47047813</DistanceMeters>
          </Trackpoint>
          <Trackpoint>
            <Time>2021-08-03T09:26:02.000Z</Time>
            <Position>
              <LatitudeDegrees>41.17652119137346744537353515625</LatitudeDegrees>
              <LongitudeDegrees>-1.508695296943187713623046875</LongitudeDegrees>
            </Position>
            <AltitudeMeters>687.5999755859375</AltitudeMeters>
            <DistanceMeters>527547.61765932</DistanceMeters>
          </Trackpoint>
          <Trackpoint>
            <Time>2021-08-03T09:26:17.000Z</Time>
            <Position>
              <LatitudeDegrees>41.17611299268901348114013671875</LatitudeDegrees>
              <LongitudeDegrees>-1.50892026722431182861328125</LongitudeDegrees>
            </Position>
            <AltitudeMeters>687</AltitudeMeters>
            <DistanceMeters>527596.80497741</DistanceMeters>
          </Trackpoint>
          <Trackpoint>
            <Time>2021-08-03T09:26:20.000Z</Time>
            <Position>
              <LatitudeDegrees>41.17597854696214199066162109375</LatitudeDegrees>
              <LongitudeDegrees>-1.508948765695095062255859375</LongitudeDegrees>
            </Position>
            <AltitudeMeters>686.4000244140625</AltitudeMeters>
            <DistanceMeters>527611.95808877</DistanceMeters>
          </Trackpoint>
          <Trackpoint>
            <Time>2021-08-03T09:26:36.000Z</Time>
            <Position>
              <LatitudeDegrees>41.1754877865314483642578125</LatitudeDegrees>
              <LongitudeDegrees>-1.50920391082763671875</LongitudeDegrees>
            </Position>
            <AltitudeMeters>686</AltitudeMeters>
            <DistanceMeters>527670.61413165</DistanceMeters>
          </Trackpoint>
          <Trackpoint>
            <Time>2021-08-03T09:26:46.000Z</Time>
            <Position>
              <LatitudeDegrees>41.17526541464030742645263671875</LatitudeDegrees>
              <LongitudeDegrees>-1.5089740790426731109619140625</LongitudeDegrees>
            </Position>
            <AltitudeMeters>687.4000244140625</AltitudeMeters>
            <DistanceMeters>527701.9720835</DistanceMeters>
          </Trackpoint>
          <Trackpoint>
            <Time>2021-08-03T09:26:52.000Z</Time>
            <Position>
              <LatitudeDegrees>41.175219230353832244873046875</LatitudeDegrees>
              <LongitudeDegrees>-1.5088101290166378021240234375</LongitudeDegrees>
            </Position>
            <AltitudeMeters>687.20001220703125</AltitudeMeters>
            <DistanceMeters>527716.63763363</DistanceMeters>
          </Trackpoint>
          <Trackpoint>
            <Time>2021-08-03T09:27:11.000Z</Time>
            <Position>
              <LatitudeDegrees>41.17518411017954349517822265625</LatitudeDegrees>
              <LongitudeDegrees>-1.50810898281633853912353515625</LongitudeDegrees>
            </Position>
            <AltitudeMeters>686.4000244140625</AltitudeMeters>
            <DistanceMeters>527775.50743097</DistanceMeters>
          </Trackpoint>
          <Trackpoint>
            <Time>2021-08-03T09:27:21.000Z</Time>
            <Position>
              <LatitudeDegrees>41.175164245069026947021484375</LatitudeDegrees>
              <LongitudeDegrees>-1.5077308751642704010009765625</LongitudeDegrees>
            </Position>
            <AltitudeMeters>687.5999755859375</AltitudeMeters>
            <DistanceMeters>527807.2611447</DistanceMeters>
          </Trackpoint>
          <Trackpoint>
            <Time>2021-08-03T09:27:42.000Z</Time>
            <Position>
              <LatitudeDegrees>41.1750118620693683624267578125</LatitudeDegrees>
              <LongitudeDegrees>-1.50703710503876209259033203125</LongitudeDegrees>
            </Position>
            <AltitudeMeters>688</AltitudeMeters>
            <DistanceMeters>527867.80725748</DistanceMeters>
          </Trackpoint>
          <Trackpoint>
            <Time>2021-08-03T09:27:49.000Z</Time>
            <Position>
              <LatitudeDegrees>41.17500700056552886962890625</LatitudeDegrees>
              <LongitudeDegrees>-1.50689679197967052459716796875</LongitudeDegrees>
            </Position>
            <AltitudeMeters>688.79998779296875</AltitudeMeters>
            <DistanceMeters>527879.57446583</DistanceMeters>
          </Trackpoint>
          <Trackpoint>
            <Time>2021-08-03T09:27:53.000Z</Time>
            <Position>
              <LatitudeDegrees>41.175013370811939239501953125</LatitudeDegrees>
              <LongitudeDegrees>-1.50680928491055965423583984375</LongitudeDegrees>
            </Position>
            <AltitudeMeters>690</AltitudeMeters>
            <DistanceMeters>527886.93888292</DistanceMeters>
          </Trackpoint>
          <Trackpoint>
            <Time>2021-08-03T09:28:01.000Z</Time>
            <Position>
              <LatitudeDegrees>41.17500926367938518524169921875</LatitudeDegrees>
              <LongitudeDegrees>-1.5066429041326045989990234375</LongitudeDegrees>
            </Position>
            <AltitudeMeters>691.4000244140625</AltitudeMeters>
            <DistanceMeters>527900.88484242</DistanceMeters>
          </Trackpoint>
          <Trackpoint>
            <Time>2021-08-03T09:28:04.000Z</Time>
            <Position>
              <LatitudeDegrees>41.17499317042529582977294921875</LatitudeDegrees>
              <LongitudeDegrees>-1.5065912716090679168701171875</LongitudeDegrees>
            </Position>
            <AltitudeMeters>692</AltitudeMeters>
            <DistanceMeters>527905.56533016</DistanceMeters>
          </Trackpoint>
          <Trackpoint>
            <Time>2021-08-03T09:28:09.000Z</Time>
            <Position>
              <LatitudeDegrees>41.17495830170810222625732421875</LatitudeDegrees>
              <LongitudeDegrees>-1.5064935386180877685546875</LongitudeDegrees>
            </Position>
            <AltitudeMeters>692.4000244140625</AltitudeMeters>
            <DistanceMeters>527914.62631548</DistanceMeters>
          </Trackpoint>
          <Trackpoint>
            <Time>2021-08-03T09:28:27.000Z</Time>
            <Position>
              <LatitudeDegrees>41.17481010966002941131591796875</LatitudeDegrees>
              <LongitudeDegrees>-1.50607804767787456512451171875</LongitudeDegrees>
            </Position>
            <AltitudeMeters>694</AltitudeMeters>
            <DistanceMeters>527953.14520397</DistanceMeters>
          </Trackpoint>
          <Trackpoint>
            <Time>2021-08-03T09:28:39.000Z</Time>
            <Position>
              <LatitudeDegrees>41.17461229674518108367919921875</LatitudeDegrees>
              <LongitudeDegrees>-1.505755595862865447998046875</LongitudeDegrees>
            </Position>
            <AltitudeMeters>693</AltitudeMeters>
            <DistanceMeters>527987.99527171</DistanceMeters>
          </Trackpoint>
          <Trackpoint>
            <Time>2021-08-03T09:28:47.000Z</Time>
            <Position>
              <LatitudeDegrees>41.17445605807006359100341796875</LatitudeDegrees>
              <LongitudeDegrees>-1.50562559254467487335205078125</LongitudeDegrees>
            </Position>
            <AltitudeMeters>694</AltitudeMeters>
            <DistanceMeters>528008.51422183</DistanceMeters>
          </Trackpoint>
          <Trackpoint>
            <Time>2021-08-03T09:28:51.000Z</Time>
            <Position>
              <LatitudeDegrees>41.17438875138759613037109375</LatitudeDegrees>
              <LongitudeDegrees>-1.50554864667356014251708984375</LongitudeDegrees>
            </Position>
            <AltitudeMeters>694.20001220703125</AltitudeMeters>
            <DistanceMeters>528018.39791381</DistanceMeters>
          </Trackpoint>
          <Trackpoint>
            <Time>2021-08-03T09:29:09.000Z</Time>
            <Position>
              <LatitudeDegrees>41.17401299066841602325439453125</LatitudeDegrees>
              <LongitudeDegrees>-1.50515436194837093353271484375</LongitudeDegrees>
            </Position>
            <AltitudeMeters>695.20001220703125</AltitudeMeters>
            <DistanceMeters>528071.6923993</DistanceMeters>
          </Trackpoint>
          <Trackpoint>
            <Time>2021-08-03T09:29:19.000Z</Time>
            <Position>
              <LatitudeDegrees>41.17376689799129962921142578125</LatitudeDegrees>
              <LongitudeDegrees>-1.50498856790363788604736328125</LongitudeDegrees>
            </Position>
            <AltitudeMeters>693.79998779296875</AltitudeMeters>
            <DistanceMeters>528102.40352798</DistanceMeters>
          </Trackpoint>
          <Trackpoint>
            <Time>2021-08-03T09:29:21.000Z</Time>
            <Position>
              <LatitudeDegrees>41.17367670871317386627197265625</LatitudeDegrees>
              <LongitudeDegrees>-1.50496325455605983734130859375</LongitudeDegrees>
            </Position>
            <AltitudeMeters>693</AltitudeMeters>
            <DistanceMeters>528112.66289302</DistanceMeters>
          </Trackpoint>
          <Trackpoint>
            <Time>2021-08-03T09:29:22.000Z</Time>
            <Position>
              <LatitudeDegrees>41.17363731376826763153076171875</LatitudeDegrees>
              <LongitudeDegrees>-1.504968702793121337890625</LongitudeDegrees>
            </Position>
            <AltitudeMeters>692.79998779296875</AltitudeMeters>
            <DistanceMeters>528117.07114942</DistanceMeters>
          </Trackpoint>
          <Trackpoint>
            <Time>2021-08-03T09:29:29.000Z</Time>
            <Position>
              <LatitudeDegrees>41.173360459506511688232421875</LatitudeDegrees>
              <LongitudeDegrees>-1.5050194971263408660888671875</LongitudeDegrees>
            </Position>
            <AltitudeMeters>691.79998779296875</AltitudeMeters>
            <DistanceMeters>528148.1781411</DistanceMeters>
          </Trackpoint>
          <Trackpoint>
            <Time>2021-08-03T09:29:30.000Z</Time>
            <Position>
              <LatitudeDegrees>41.17331695742905139923095703125</LatitudeDegrees>
              <LongitudeDegrees>-1.50503332726657390594482421875</LongitudeDegrees>
            </Position>
            <AltitudeMeters>691.4000244140625</AltitudeMeters>
            <DistanceMeters>528153.15594481</DistanceMeters>
          </Trackpoint>
          <Trackpoint>
            <Time>2021-08-03T09:29:35.000Z</Time>
            <Position>
              <LatitudeDegrees>41.173143200576305389404296875</LatitudeDegrees>
              <LongitudeDegrees>-1.5050597302615642547607421875</LongitudeDegrees>
            </Position>
            <AltitudeMeters>691.4000244140625</AltitudeMeters>
            <DistanceMeters>528172.62135022</DistanceMeters>
          </Trackpoint>
          <Trackpoint>
            <Time>2021-08-03T09:29:43.000Z</Time>
            <Position>
              <LatitudeDegrees>41.17292284034192562103271484375</LatitudeDegrees>
              <LongitudeDegrees>-1.50515419431030750274658203125</LongitudeDegrees>
            </Position>
            <AltitudeMeters>692.79998779296875</AltitudeMeters>
            <DistanceMeters>528198.39304365</DistanceMeters>
          </Trackpoint>
          <Trackpoint>
            <Time>2021-08-03T09:29:54.000Z</Time>
            <Position>
              <LatitudeDegrees>41.172656714916229248046875</LatitudeDegrees>
              <LongitudeDegrees>-1.505330465734004974365234375</LongitudeDegrees>
            </Position>
            <AltitudeMeters>693.79998779296875</AltitudeMeters>
            <DistanceMeters>528231.49059044</DistanceMeters>
          </Trackpoint>
          <Trackpoint>
            <Time>2021-08-03T09:30:07.000Z</Time>
            <Position>
              <LatitudeDegrees>41.17229855619370937347412109375</LatitudeDegrees>
              <LongitudeDegrees>-1.50546868331730365753173828125</LongitudeDegrees>
            </Position>
            <AltitudeMeters>694.79998779296875</AltitudeMeters>
            <DistanceMeters>528273.00214893</DistanceMeters>
          </Trackpoint>
          <Trackpoint>
            <Time>2021-08-03T09:30:13.000Z</Time>
            <Position>
              <LatitudeDegrees>41.17215136997401714324951171875</LatitudeDegrees>
              <LongitudeDegrees>-1.50547153316438198089599609375</LongitudeDegrees>
            </Position>
            <AltitudeMeters>696.20001220703125</AltitudeMeters>
            <DistanceMeters>528289.38592299</DistanceMeters>
          </Trackpoint>
          <Trackpoint>
            <Time>2021-08-03T09:30:33.000Z</Time>
            <Position>
              <LatitudeDegrees>41.17159749381244182586669921875</LatitudeDegrees>
              <LongitudeDegrees>-1.5053762309253215789794921875</LongitudeDegrees>
            </Position>
            <AltitudeMeters>696.20001220703125</AltitudeMeters>
            <DistanceMeters>528351.54835836</DistanceMeters>
          </Trackpoint>
          <Trackpoint>
            <Time>2021-08-03T09:30:49.000Z</Time>
            <Position>
              <LatitudeDegrees>41.17124277167022228240966796875</LatitudeDegrees>
              <LongitudeDegrees>-1.5049363486468791961669921875</LongitudeDegrees>
            </Position>
            <AltitudeMeters>694.5999755859375</AltitudeMeters>
            <DistanceMeters>528405.55765066</DistanceMeters>
          </Trackpoint>
          <Trackpoint>
            <Time>2021-08-03T09:30:52.000Z</Time>
            <Position>
              <LatitudeDegrees>41.171218045055866241455078125</LatitudeDegrees>
              <LongitudeDegrees>-1.5047784335911273956298828125</LongitudeDegrees>
            </Position>
            <AltitudeMeters>693.4000244140625</AltitudeMeters>
            <DistanceMeters>528419.07150525</DistanceMeters>
          </Trackpoint>
          <Trackpoint>
            <Time>2021-08-03T09:30:58.000Z</Time>
            <Position>
              <LatitudeDegrees>41.1711706034839153289794921875</LatitudeDegrees>
              <LongitudeDegrees>-1.5045055188238620758056640625</LongitudeDegrees>
            </Position>
            <AltitudeMeters>692</AltitudeMeters>
            <DistanceMeters>528442.53867896</DistanceMeters>
          </Trackpoint>
          <Trackpoint>
            <Time>2021-08-03T09:31:12.000Z</Time>
            <Position>
              <LatitudeDegrees>41.1712581105530261993408203125</LatitudeDegrees>
              <LongitudeDegrees>-1.5040425024926662445068359375</LongitudeDegrees>
            </Position>
            <AltitudeMeters>693.20001220703125</AltitudeMeters>
            <DistanceMeters>528482.53510583</DistanceMeters>
          </Trackpoint>
          <Trackpoint>
            <Time>2021-08-03T09:31:16.000Z</Time>
            <Position>
              <LatitudeDegrees>41.17127713747322559356689453125</LatitudeDegrees>
              <LongitudeDegrees>-1.50393613614141941070556640625</LongitudeDegrees>
            </Position>
            <AltitudeMeters>693.5999755859375</AltitudeMeters>
            <DistanceMeters>528491.69422206</DistanceMeters>
          </Trackpoint>
          <Trackpoint>
            <Time>2021-08-03T09:31:34.000Z</Time>
            <Position>
              <LatitudeDegrees>41.17130479775369167327880859375</LatitudeDegrees>
              <LongitudeDegrees>-1.50329257361590862274169921875</LongitudeDegrees>
            </Position>
            <AltitudeMeters>692.4000244140625</AltitudeMeters>
            <DistanceMeters>528545.70092277</DistanceMeters>
          </Trackpoint>
          <Trackpoint>
            <Time>2021-08-03T09:31:47.000Z</Time>
            <Position>
              <LatitudeDegrees>41.171309910714626312255859375</LatitudeDegrees>
              <LongitudeDegrees>-1.502772308886051177978515625</LongitudeDegrees>
            </Position>
            <AltitudeMeters>691.4000244140625</AltitudeMeters>
            <DistanceMeters>528589.29343758</DistanceMeters>
          </Trackpoint>
          <Trackpoint>
            <Time>2021-08-03T09:32:07.000Z</Time>
            <Position>
              <LatitudeDegrees>41.17136850021779537200927734375</LatitudeDegrees>
              <LongitudeDegrees>-1.50204551406204700469970703125</LongitudeDegrees>
            </Position>
            <AltitudeMeters>692.5999755859375</AltitudeMeters>
            <DistanceMeters>528650.53386058</DistanceMeters>
          </Trackpoint>
          <Trackpoint>
            <Time>2021-08-03T09:32:10.000Z</Time>
            <Position>
              <LatitudeDegrees>41.1713774688541889190673828125</LatitudeDegrees>
              <LongitudeDegrees>-1.5019822306931018829345703125</LongitudeDegrees>
            </Position>
            <AltitudeMeters>692.5999755859375</AltitudeMeters>
            <DistanceMeters>528655.92950386</DistanceMeters>
          </Trackpoint>
          <Trackpoint>
            <Time>2021-08-03T09:32:16.000Z</Time>
            <Position>
              <LatitudeDegrees>41.17138057015836238861083984375</LatitudeDegrees>
              <LongitudeDegrees>-1.501875780522823333740234375</LongitudeDegrees>
            </Position>
            <AltitudeMeters>692.5999755859375</AltitudeMeters>
            <DistanceMeters>528664.85594742</DistanceMeters>
          </Trackpoint>
          <Trackpoint>
            <Time>2021-08-03T09:33:04.000Z</Time>
            <Position>
              <LatitudeDegrees>41.1714314483106136322021484375</LatitudeDegrees>
              <LongitudeDegrees>-1.50158534757792949676513671875</LongitudeDegrees>
            </Position>
            <AltitudeMeters>694.4000244140625</AltitudeMeters>
            <DistanceMeters>528689.83948087</DistanceMeters>
          </Trackpoint>
          <Trackpoint>
            <Time>2021-08-03T09:33:07.000Z</Time>
            <Position>
              <LatitudeDegrees>41.17141275666654109954833984375</LatitudeDegrees>
              <LongitudeDegrees>-1.50147973559796810150146484375</LongitudeDegrees>
            </Position>
            <AltitudeMeters>694</AltitudeMeters>
            <DistanceMeters>528698.92932132</DistanceMeters>
          </Trackpoint>
          <Trackpoint>
            <Time>2021-08-03T09:33:11.000Z</Time>
            <Position>
              <LatitudeDegrees>41.1714096553623676300048828125</LatitudeDegrees>
              <LongitudeDegrees>-1.5013022907078266143798828125</LongitudeDegrees>
            </Position>
            <AltitudeMeters>694</AltitudeMeters>
            <DistanceMeters>528713.80001539</DistanceMeters>
          </Trackpoint>
          <Trackpoint>
            <Time>2021-08-03T09:33:17.000Z</Time>
            <Position>
              <LatitudeDegrees>41.17140839807689189910888671875</LatitudeDegrees>
              <LongitudeDegrees>-1.50114613585174083709716796875</LongitudeDegrees>
            </Position>
            <AltitudeMeters>693.4000244140625</AltitudeMeters>
            <DistanceMeters>528726.88371361</DistanceMeters>
          </Trackpoint>
          <Trackpoint>
            <Time>2021-08-03T09:33:29.000Z</Time>
            <Position>
              <LatitudeDegrees>41.1714267544448375701904296875</LatitudeDegrees>
              <LongitudeDegrees>-1.5008657611906528472900390625</LongitudeDegrees>
            </Position>
            <AltitudeMeters>693.5999755859375</AltitudeMeters>
            <DistanceMeters>528750.4625971</DistanceMeters>
          </Trackpoint>
          <Trackpoint>
            <Time>2021-08-03T09:33:32.000Z</Time>
            <Position>
              <LatitudeDegrees>41.17143404670059680938720703125</LatitudeDegrees>
              <LongitudeDegrees>-1.50076475925743579864501953125</LongitudeDegrees>
            </Position>
            <AltitudeMeters>693.4000244140625</AltitudeMeters>
            <DistanceMeters>528758.96363832</DistanceMeters>
          </Trackpoint>
          <Trackpoint>
            <Time>2021-08-03T09:33:35.000Z</Time>
            <Position>
              <LatitudeDegrees>41.17144636809825897216796875</LatitudeDegrees>
              <LongitudeDegrees>-1.5006827004253864288330078125</LongitudeDegrees>
            </Position>
            <AltitudeMeters>693.5999755859375</AltitudeMeters>
            <DistanceMeters>528765.97375073</DistanceMeters>
          </Trackpoint>
          <Trackpoint>
            <Time>2021-08-03T09:33:42.000Z</Time>
            <Position>
              <LatitudeDegrees>41.17143857292830944061279296875</LatitudeDegrees>
              <LongitudeDegrees>-1.5004907548427581787109375</LongitudeDegrees>
            </Position>
            <AltitudeMeters>694.4000244140625</AltitudeMeters>
            <DistanceMeters>528782.07846605</DistanceMeters>
          </Trackpoint>
          <Trackpoint>
            <Time>2021-08-03T09:33:46.000Z</Time>
            <Position>
              <LatitudeDegrees>41.17142935283482074737548828125</LatitudeDegrees>
              <LongitudeDegrees>-1.500373743474483489990234375</LongitudeDegrees>
            </Position>
            <AltitudeMeters>694.79998779296875</AltitudeMeters>
            <DistanceMeters>528791.93562703</DistanceMeters>
          </Trackpoint>
          <Trackpoint>
            <Time>2021-08-03T09:33:52.000Z</Time>
            <Position>
              <LatitudeDegrees>41.17144142277538776397705078125</LatitudeDegrees>
              <LongitudeDegrees>-1.50020501576364040374755859375</LongitudeDegrees>
            </Position>
            <AltitudeMeters>695.5999755859375</AltitudeMeters>
            <DistanceMeters>528806.13568361</DistanceMeters>
          </Trackpoint>
          <Trackpoint>
            <Time>2021-08-03T09:34:02.000Z</Time>
            <Position>
              <LatitudeDegrees>41.17144913412630558013916015625</LatitudeDegrees>
              <LongitudeDegrees>-1.499935872852802276611328125</LongitudeDegrees>
            </Position>
            <AltitudeMeters>696.4000244140625</AltitudeMeters>
            <DistanceMeters>528828.70127713</DistanceMeters>
          </Trackpoint>
          <Trackpoint>
            <Time>2021-08-03T09:34:04.000Z</Time>
            <Position>
              <LatitudeDegrees>41.1714408360421657562255859375</LatitudeDegrees>
              <LongitudeDegrees>-1.4998884312808513641357421875</LongitudeDegrees>
            </Position>
            <AltitudeMeters>696.79998779296875</AltitudeMeters>
            <DistanceMeters>528832.7818973</DistanceMeters>
          </Trackpoint>
          <Trackpoint>
            <Time>2021-08-03T09:34:10.000Z</Time>
            <Position>
              <LatitudeDegrees>41.1714394949376583099365234375</LatitudeDegrees>
              <LongitudeDegrees>-1.49976228363811969757080078125</LongitudeDegrees>
            </Position>
            <AltitudeMeters>697.79998779296875</AltitudeMeters>
            <DistanceMeters>528843.35167051</DistanceMeters>
          </Trackpoint>
          <Trackpoint>
            <Time>2021-08-03T09:34:16.000Z</Time>
            <Position>
              <LatitudeDegrees>41.17142281495034694671630859375</LatitudeDegrees>
              <LongitudeDegrees>-1.49956380017101764678955078125</LongitudeDegrees>
            </Position>
            <AltitudeMeters>697.20001220703125</AltitudeMeters>
            <DistanceMeters>528860.08419931</DistanceMeters>
          </Trackpoint>
          <Trackpoint>
            <Time>2021-08-03T09:34:18.000Z</Time>
            <Position>
              <LatitudeDegrees>41.17142893373966217041015625</LatitudeDegrees>
              <LongitudeDegrees>-1.49947193451225757598876953125</LongitudeDegrees>
            </Position>
            <AltitudeMeters>696.4000244140625</AltitudeMeters>
            <DistanceMeters>528867.81063674</DistanceMeters>
          </Trackpoint>
          <Trackpoint>
            <Time>2021-08-03T09:34:31.000Z</Time>
            <Position>
              <LatitudeDegrees>41.17142197676002979278564453125</LatitudeDegrees>
              <LongitudeDegrees>-1.49902568198740482330322265625</LongitudeDegrees>
            </Position>
            <AltitudeMeters>697.79998779296875</AltitudeMeters>
            <DistanceMeters>528905.20651644</DistanceMeters>
          </Trackpoint>
          <Trackpoint>
            <Time>2021-08-03T09:34:35.000Z</Time>
            <Position>
              <LatitudeDegrees>41.1714106611907482147216796875</LatitudeDegrees>
              <LongitudeDegrees>-1.4989040605723857879638671875</LongitudeDegrees>
            </Position>
            <AltitudeMeters>698.79998779296875</AltitudeMeters>
            <DistanceMeters>528915.47380004</DistanceMeters>
          </Trackpoint>
          <Trackpoint>
            <Time>2021-08-03T09:34:41.000Z</Time>
            <Position>
              <LatitudeDegrees>41.17139733396470546722412109375</LatitudeDegrees>
              <LongitudeDegrees>-1.49876249022781848907470703125</LongitudeDegrees>
            </Position>
            <AltitudeMeters>699.79998779296875</AltitudeMeters>
            <DistanceMeters>528927.42678584</DistanceMeters>
          </Trackpoint>
          <Trackpoint>
            <Time>2021-08-03T09:34:56.000Z</Time>
            <Position>
              <LatitudeDegrees>41.17134419269859790802001953125</LatitudeDegrees>
              <LongitudeDegrees>-1.498265527188777923583984375</LongitudeDegrees>
            </Position>
            <AltitudeMeters>698.5999755859375</AltitudeMeters>
            <DistanceMeters>528969.48134114</DistanceMeters>
          </Trackpoint>
          <Trackpoint>
            <Time>2021-08-03T09:34:57.000Z</Time>
            <Position>
              <LatitudeDegrees>41.1713298596441745758056640625</LatitudeDegrees>
              <LongitudeDegrees>-1.49819754995405673980712890625</LongitudeDegrees>
            </Position>
            <AltitudeMeters>697.79998779296875</AltitudeMeters>
            <DistanceMeters>528975.39594308</DistanceMeters>
          </Trackpoint>
          <Trackpoint>
            <Time>2021-08-03T09:34:58.000Z</Time>
            <Position>
              <LatitudeDegrees>41.171304546296596527099609375</LatitudeDegrees>
              <LongitudeDegrees>-1.4981342665851116180419921875</LongitudeDegrees>
            </Position>
            <AltitudeMeters>697.4000244140625</AltitudeMeters>
            <DistanceMeters>528981.39994718</DistanceMeters>
          </Trackpoint>
          <Trackpoint>
            <Time>2021-08-03T09:35:01.000Z</Time>
            <Position>
              <LatitudeDegrees>41.1712158657610416412353515625</LatitudeDegrees>
              <LongitudeDegrees>-1.49800325743854045867919921875</LongitudeDegrees>
            </Position>
            <AltitudeMeters>697</AltitudeMeters>
            <DistanceMeters>528996.16123928</DistanceMeters>
          </Trackpoint>
          <Trackpoint>
            <Time>2021-08-03T09:35:17.000Z</Time>
            <Position>
              <LatitudeDegrees>41.1708614788949489593505859375</LatitudeDegrees>
              <LongitudeDegrees>-1.49745424278080463409423828125</LongitudeDegrees>
            </Position>
            <AltitudeMeters>697.5999755859375</AltitudeMeters>
            <DistanceMeters>529056.75513379</DistanceMeters>
          </Trackpoint>
          <Trackpoint>
            <Time>2021-08-03T09:35:19.000Z</Time>
            <Position>
              <LatitudeDegrees>41.17080624215304851531982421875</LatitudeDegrees>
              <LongitudeDegrees>-1.4973698370158672332763671875</LongitudeDegrees>
            </Position>
            <AltitudeMeters>697.4000244140625</AltitudeMeters>
            <DistanceMeters>529066.12623263</DistanceMeters>
          </Trackpoint>
          <Trackpoint>
            <Time>2021-08-03T09:35:28.000Z</Time>
            <Position>
              <LatitudeDegrees>41.1706106923520565032958984375</LatitudeDegrees>
              <LongitudeDegrees>-1.49700011126697063446044921875</LongitudeDegrees>
            </Position>
            <AltitudeMeters>698.4000244140625</AltitudeMeters>
            <DistanceMeters>529103.98492811</DistanceMeters>
          </Trackpoint>
          <Trackpoint>
            <Time>2021-08-03T09:35:44.000Z</Time>
            <Position>
              <LatitudeDegrees>41.1701362766325473785400390625</LatitudeDegrees>
              <LongitudeDegrees>-1.49663683958351612091064453125</LongitudeDegrees>
            </Position>
            <AltitudeMeters>699.20001220703125</AltitudeMeters>
            <DistanceMeters>529164.9321025</DistanceMeters>
          </Trackpoint>
          <Trackpoint>
            <Time>2021-08-03T09:35:56.000Z</Time>
            <Position>
              <LatitudeDegrees>41.16967854090034961700439453125</LatitudeDegrees>
              <LongitudeDegrees>-1.4965881407260894775390625</LongitudeDegrees>
            </Position>
            <AltitudeMeters>699.5999755859375</AltitudeMeters>
            <DistanceMeters>529216.04216583</DistanceMeters>
          </Trackpoint>
          <Trackpoint>
            <Time>2021-08-03T09:35:59.000Z</Time>
            <Position>
              <LatitudeDegrees>41.1695733480155467987060546875</LatitudeDegrees>
              <LongitudeDegrees>-1.49657565169036388397216796875</LongitudeDegrees>
            </Position>
            <AltitudeMeters>701</AltitudeMeters>
            <DistanceMeters>529227.79708947</DistanceMeters>
          </Trackpoint>
          <Trackpoint>
            <Time>2021-08-03T09:36:09.000Z</Time>
            <Position>
              <LatitudeDegrees>41.169182918965816497802734375</LatitudeDegrees>
              <LongitudeDegrees>-1.49663264863193035125732421875</LongitudeDegrees>
            </Position>
            <AltitudeMeters>700</AltitudeMeters>
            <DistanceMeters>529271.51433571</DistanceMeters>
          </Trackpoint>
          <Trackpoint>
            <Time>2021-08-03T09:36:10.000Z</Time>
            <Position>
              <LatitudeDegrees>41.1691361479461193084716796875</LatitudeDegrees>
              <LongitudeDegrees>-1.4966573752462863922119140625</LongitudeDegrees>
            </Position>
            <AltitudeMeters>699.79998779296875</AltitudeMeters>
            <DistanceMeters>529277.11688386</DistanceMeters>
          </Trackpoint>
          <Trackpoint>
            <Time>2021-08-03T09:36:13.000Z</Time>
            <Position>
              <LatitudeDegrees>41.168982088565826416015625</LatitudeDegrees>
              <LongitudeDegrees>-1.4967358298599720001220703125</LongitudeDegrees>
            </Position>
            <AltitudeMeters>698.5999755859375</AltitudeMeters>
            <DistanceMeters>529295.48065811</DistanceMeters>
          </Trackpoint>
          <Trackpoint>
            <Time>2021-08-03T09:36:16.000Z</Time>
            <Position>
              <LatitudeDegrees>41.16881755180656909942626953125</LatitudeDegrees>
              <LongitudeDegrees>-1.49681537412106990814208984375</LongitudeDegrees>
            </Position>
            <AltitudeMeters>697.4000244140625</AltitudeMeters>
            <DistanceMeters>529314.9692449</DistanceMeters>
          </Trackpoint>
          <Trackpoint>
            <Time>2021-08-03T09:36:17.000Z</Time>
            <Position>
              <LatitudeDegrees>41.1687626503407955169677734375</LatitudeDegrees>
              <LongitudeDegrees>-1.496850661933422088623046875</LongitudeDegrees>
            </Position>
            <AltitudeMeters>696.79998779296875</AltitudeMeters>
            <DistanceMeters>529321.75817046</DistanceMeters>
          </Trackpoint>
          <Trackpoint>
            <Time>2021-08-03T09:36:19.000Z</Time>
            <Position>
              <LatitudeDegrees>41.16865913383662700653076171875</LatitudeDegrees>
              <LongitudeDegrees>-1.4969380013644695281982421875</LongitudeDegrees>
            </Position>
            <AltitudeMeters>696.4000244140625</AltitudeMeters>
            <DistanceMeters>529335.40699741</DistanceMeters>
          </Trackpoint>
          <Trackpoint>
            <Time>2021-08-03T09:36:25.000Z</Time>
            <Position>
              <LatitudeDegrees>41.16838135756552219390869140625</LatitudeDegrees>
              <LongitudeDegrees>-1.497156433761119842529296875</LongitudeDegrees>
            </Position>
            <AltitudeMeters>697.4000244140625</AltitudeMeters>
            <DistanceMeters>529371.33488779</DistanceMeters>
          </Trackpoint>
          <Trackpoint>
            <Time>2021-08-03T09:36:30.000Z</Time>
            <Position>
              <LatitudeDegrees>41.1682000569999217987060546875</LatitudeDegrees>
              <LongitudeDegrees>-1.49726816453039646148681640625</LongitudeDegrees>
            </Position>
            <AltitudeMeters>698.79998779296875</AltitudeMeters>
            <DistanceMeters>529393.58007129</DistanceMeters>
          </Trackpoint>
          <Trackpoint>
            <Time>2021-08-03T09:36:34.000Z</Time>
            <Position>
              <LatitudeDegrees>41.16806066595017910003662109375</LatitudeDegrees>
              <LongitudeDegrees>-1.49736531078815460205078125</LongitudeDegrees>
            </Position>
            <AltitudeMeters>699.79998779296875</AltitudeMeters>
            <DistanceMeters>529411.10007011</DistanceMeters>
          </Trackpoint>
          <Trackpoint>
            <Time>2021-08-03T09:36:48.000Z</Time>
            <Position>
              <LatitudeDegrees>41.16753897629678249359130859375</LatitudeDegrees>
              <LongitudeDegrees>-1.4975108206272125244140625</LongitudeDegrees>
            </Position>
            <AltitudeMeters>700.79998779296875</AltitudeMeters>
            <DistanceMeters>529470.43137492</DistanceMeters>
          </Trackpoint>
          <Trackpoint>
            <Time>2021-08-03T09:36:49.000Z</Time>
            <Position>
              <LatitudeDegrees>41.16750461049377918243408203125</LatitudeDegrees>
              <LongitudeDegrees>-1.497508473694324493408203125</LongitudeDegrees>
            </Position>
            <AltitudeMeters>700.79998779296875</AltitudeMeters>
            <DistanceMeters>529474.26320272</DistanceMeters>
          </Trackpoint>
          <Trackpoint>
            <Time>2021-08-03T09:37:02.000Z</Time>
            <Position>
              <LatitudeDegrees>41.16703036241233348846435546875</LatitudeDegrees>
              <LongitudeDegrees>-1.497512161731719970703125</LongitudeDegrees>
            </Position>
            <AltitudeMeters>700.79998779296875</AltitudeMeters>
            <DistanceMeters>529527.04881049</DistanceMeters>
          </Trackpoint>
          <Trackpoint>
            <Time>2021-08-03T09:37:08.000Z</Time>
            <Position>
              <LatitudeDegrees>41.1667781509459018707275390625</LatitudeDegrees>
              <LongitudeDegrees>-1.49739422835409641265869140625</LongitudeDegrees>
            </Position>
            <AltitudeMeters>699.79998779296875</AltitudeMeters>
            <DistanceMeters>529556.80871367</DistanceMeters>
          </Trackpoint>
          <Trackpoint>
            <Time>2021-08-03T09:37:17.000Z</Time>
            <Position>
              <LatitudeDegrees>41.16644782014191150665283203125</LatitudeDegrees>
              <LongitudeDegrees>-1.49715065024793148040771484375</LongitudeDegrees>
            </Position>
            <AltitudeMeters>699</AltitudeMeters>
            <DistanceMeters>529598.85994064</DistanceMeters>
          </Trackpoint>
          <Trackpoint>
            <Time>2021-08-03T09:37:18.000Z</Time>
            <Position>
              <LatitudeDegrees>41.1664120294153690338134765625</LatitudeDegrees>
              <LongitudeDegrees>-1.49709985591471195220947265625</LongitudeDegrees>
            </Position>
            <AltitudeMeters>698.79998779296875</AltitudeMeters>
            <DistanceMeters>529604.68996703</DistanceMeters>
          </Trackpoint>
          <Trackpoint>
            <Time>2021-08-03T09:37:27.000Z</Time>
            <Position>
              <LatitudeDegrees>41.1661424674093723297119140625</LatitudeDegrees>
              <LongitudeDegrees>-1.49672451429069042205810546875</LongitudeDegrees>
            </Position>
            <AltitudeMeters>700</AltitudeMeters>
            <DistanceMeters>529648.15510724</DistanceMeters>
          </Trackpoint>
          <Trackpoint>
            <Time>2021-08-03T09:37:39.000Z</Time>
            <Position>
              <LatitudeDegrees>41.1658594943583011627197265625</LatitudeDegrees>
              <LongitudeDegrees>-1.49627172388136386871337890625</LongitudeDegrees>
            </Position>
            <AltitudeMeters>701.20001220703125</AltitudeMeters>
            <DistanceMeters>529697.46344286</DistanceMeters>
          </Trackpoint>
          <Trackpoint>
            <Time>2021-08-03T09:37:44.000Z</Time>
            <Position>
              <LatitudeDegrees>41.16578011773526668548583984375</LatitudeDegrees>
              <LongitudeDegrees>-1.49603501893579959869384765625</LongitudeDegrees>
            </Position>
            <AltitudeMeters>702.20001220703125</AltitudeMeters>
            <DistanceMeters>529719.17533156</DistanceMeters>
          </Trackpoint>
          <Trackpoint>
            <Time>2021-08-03T09:37:47.000Z</Time>
            <Position>
              <LatitudeDegrees>41.165758073329925537109375</LatitudeDegrees>
              <LongitudeDegrees>-1.49591985158622264862060546875</LongitudeDegrees>
            </Position>
            <AltitudeMeters>703.4000244140625</AltitudeMeters>
            <DistanceMeters>529729.13184597</DistanceMeters>
          </Trackpoint>
          <Trackpoint>
            <Time>2021-08-03T09:37:52.000Z</Time>
            <Position>
              <LatitudeDegrees>41.16572110913693904876708984375</LatitudeDegrees>
              <LongitudeDegrees>-1.49576076306402683258056640625</LongitudeDegrees>
            </Position>
            <AltitudeMeters>704.4000244140625</AltitudeMeters>
            <DistanceMeters>529743.08201362</DistanceMeters>
          </Trackpoint>
          <Trackpoint>
            <Time>2021-08-03T09:38:03.000Z</Time>
            <Position>
              <LatitudeDegrees>41.16562739945948123931884765625</LatitudeDegrees>
              <LongitudeDegrees>-1.49541475810110569000244140625</LongitudeDegrees>
            </Position>
            <AltitudeMeters>705.4000244140625</AltitudeMeters>
            <DistanceMeters>529773.89236506</DistanceMeters>
          </Trackpoint>
          <Trackpoint>
            <Time>2021-08-03T09:38:14.000Z</Time>
            <Position>
              <LatitudeDegrees>41.16551256738603115081787109375</LatitudeDegrees>
              <LongitudeDegrees>-1.49504293687641620635986328125</LongitudeDegrees>
            </Position>
            <AltitudeMeters>706.5999755859375</AltitudeMeters>
            <DistanceMeters>529807.56683476</DistanceMeters>
          </Trackpoint>
          <Trackpoint>
            <Time>2021-08-03T09:38:23.000Z</Time>
            <Position>
              <LatitudeDegrees>41.16543444804847240447998046875</LatitudeDegrees>
              <LongitudeDegrees>-1.49473079480230808258056640625</LongitudeDegrees>
            </Position>
            <AltitudeMeters>707.5999755859375</AltitudeMeters>
            <DistanceMeters>529835.12851379</DistanceMeters>
          </Trackpoint>
          <Trackpoint>
            <Time>2021-08-03T09:38:32.000Z</Time>
            <Position>
              <LatitudeDegrees>41.16539740003645420074462890625</LatitudeDegrees>
              <LongitudeDegrees>-1.494423933327198028564453125</LongitudeDegrees>
            </Position>
            <AltitudeMeters>708.5999755859375</AltitudeMeters>
            <DistanceMeters>529861.16878127</DistanceMeters>
          </Trackpoint>
          <Trackpoint>
            <Time>2021-08-03T09:38:38.000Z</Time>
            <Position>
              <LatitudeDegrees>41.16536772809922695159912109375</LatitudeDegrees>
              <LongitudeDegrees>-1.49419502355158329010009765625</LongitudeDegrees>
            </Position>
            <AltitudeMeters>709.5999755859375</AltitudeMeters>
            <DistanceMeters>529880.63140305</DistanceMeters>
          </Trackpoint>
          <Trackpoint>
            <Time>2021-08-03T09:38:42.000Z</Time>
            <Position>
              <LatitudeDegrees>41.165345013141632080078125</LatitudeDegrees>
              <LongitudeDegrees>-1.4940341748297214508056640625</LongitudeDegrees>
            </Position>
            <AltitudeMeters>710.5999755859375</AltitudeMeters>
            <DistanceMeters>529894.34392586</DistanceMeters>
          </Trackpoint>
          <Trackpoint>
            <Time>2021-08-03T09:38:59.000Z</Time>
            <Position>
              <LatitudeDegrees>41.16518198512494564056396484375</LatitudeDegrees>
              <LongitudeDegrees>-1.4933374710381031036376953125</LongitudeDegrees>
            </Position>
            <AltitudeMeters>710.79998779296875</AltitudeMeters>
            <DistanceMeters>529955.4755795</DistanceMeters>
          </Trackpoint>
          <Trackpoint>
            <Time>2021-08-03T09:39:12.000Z</Time>
            <Position>
              <LatitudeDegrees>41.16506413556635379791259765625</LatitudeDegrees>
              <LongitudeDegrees>-1.49266071617603302001953125</LongitudeDegrees>
            </Position>
            <AltitudeMeters>709.5999755859375</AltitudeMeters>
            <DistanceMeters>530013.67818147</DistanceMeters>
          </Trackpoint>
          <Trackpoint>
            <Time>2021-08-03T09:39:26.000Z</Time>
            <Position>
              <LatitudeDegrees>41.16496824659407138824462890625</LatitudeDegrees>
              <LongitudeDegrees>-1.49192989803850650787353515625</LongitudeDegrees>
            </Position>
            <AltitudeMeters>710.4000244140625</AltitudeMeters>
            <DistanceMeters>530075.83654928</DistanceMeters>
          </Trackpoint>
          <Trackpoint>
            <Time>2021-08-03T09:39:28.000Z</Time>
            <Position>
              <LatitudeDegrees>41.164954416453838348388671875</LatitudeDegrees>
              <LongitudeDegrees>-1.4918267168104648590087890625</LongitudeDegrees>
            </Position>
            <AltitudeMeters>710.79998779296875</AltitudeMeters>
            <DistanceMeters>530084.61816945</DistanceMeters>
          </Trackpoint>
          <Trackpoint>
            <Time>2021-08-03T09:39:32.000Z</Time>
            <Position>
              <LatitudeDegrees>41.16491594351828098297119140625</LatitudeDegrees>
              <LongitudeDegrees>-1.49161105044186115264892578125</LongitudeDegrees>
            </Position>
            <AltitudeMeters>711.20001220703125</AltitudeMeters>
            <DistanceMeters>530103.18951134</DistanceMeters>
          </Trackpoint>
          <Trackpoint>
            <Time>2021-08-03T09:39:40.000Z</Time>
            <Position>
              <LatitudeDegrees>41.16475299932062625885009765625</LatitudeDegrees>
              <LongitudeDegrees>-1.49116429500281810760498046875</LongitudeDegrees>
            </Position>
            <AltitudeMeters>709.79998779296875</AltitudeMeters>
            <DistanceMeters>530144.78516937</DistanceMeters>
          </Trackpoint>
          <Trackpoint>
            <Time>2021-08-03T09:39:42.000Z</Time>
            <Position>
              <LatitudeDegrees>41.16466431878507137298583984375</LatitudeDegrees>
              <LongitudeDegrees>-1.49104124866425991058349609375</LongitudeDegrees>
            </Position>
            <AltitudeMeters>708.79998779296875</AltitudeMeters>
            <DistanceMeters>530159.05848555</DistanceMeters>
          </Trackpoint>
          <Trackpoint>
            <Time>2021-08-03T09:39:46.000Z</Time>
            <Position>
              <LatitudeDegrees>41.1644506640732288360595703125</LatitudeDegrees>
              <LongitudeDegrees>-1.49090789258480072021484375</LongitudeDegrees>
            </Position>
            <AltitudeMeters>708.20001220703125</AltitudeMeters>
            <DistanceMeters>530185.33315727</DistanceMeters>
          </Trackpoint>
          <Trackpoint>
            <Time>2021-08-03T09:39:50.000Z</Time>
            <Position>
              <LatitudeDegrees>41.1642323993146419525146484375</LatitudeDegrees>
              <LongitudeDegrees>-1.4908098243176937103271484375</LongitudeDegrees>
            </Position>
            <AltitudeMeters>707.5999755859375</AltitudeMeters>
            <DistanceMeters>530210.97875314</DistanceMeters>
          </Trackpoint>
          <Trackpoint>
            <Time>2021-08-03T09:39:59.000Z</Time>
            <Position>
              <LatitudeDegrees>41.16378304548561573028564453125</LatitudeDegrees>
              <LongitudeDegrees>-1.49051838554441928863525390625</LongitudeDegrees>
            </Position>
            <AltitudeMeters>706.20001220703125</AltitudeMeters>
            <DistanceMeters>530266.63602225</DistanceMeters>
          </Trackpoint>
          <Trackpoint>
            <Time>2021-08-03T09:40:02.000Z</Time>
            <Position>
              <LatitudeDegrees>41.163628064095973968505859375</LatitudeDegrees>
              <LongitudeDegrees>-1.490363068878650665283203125</LongitudeDegrees>
            </Position>
            <AltitudeMeters>705</AltitudeMeters>
            <DistanceMeters>530288.24452041</DistanceMeters>
          </Trackpoint>
          <Trackpoint>
            <Time>2021-08-03T09:40:03.000Z</Time>
            <Position>
              <LatitudeDegrees>41.1635787785053253173828125</LatitudeDegrees>
              <LongitudeDegrees>-1.49030280299484729766845703125</LongitudeDegrees>
            </Position>
            <AltitudeMeters>704.5999755859375</AltitudeMeters>
            <DistanceMeters>530295.70093916</DistanceMeters>
          </Trackpoint>
          <Trackpoint>
            <Time>2021-08-03T09:40:07.000Z</Time>
            <Position>
              <LatitudeDegrees>41.1634934507310390472412109375</LatitudeDegrees>
              <LongitudeDegrees>-1.48997440002858638763427734375</LongitudeDegrees>
            </Position>
            <AltitudeMeters>703.79998779296875</AltitudeMeters>
            <DistanceMeters>530324.81139251</DistanceMeters>
          </Trackpoint>
          <Trackpoint>
            <Time>2021-08-03T09:40:08.000Z</Time>
            <Position>
              <LatitudeDegrees>41.16349873133003711700439453125</LatitudeDegrees>
              <LongitudeDegrees>-1.48987616412341594696044921875</LongitudeDegrees>
            </Position>
            <AltitudeMeters>703.20001220703125</AltitudeMeters>
            <DistanceMeters>530333.06395796</DistanceMeters>
          </Trackpoint>
          <Trackpoint>
            <Time>2021-08-03T09:40:09.000Z</Time>
            <Position>
              <LatitudeDegrees>41.163500659167766571044921875</LatitudeDegrees>
              <LongitudeDegrees>-1.48977474309504032135009765625</LongitudeDegrees>
            </Position>
            <AltitudeMeters>702.5999755859375</AltitudeMeters>
            <DistanceMeters>530341.56499918</DistanceMeters>
          </Trackpoint>
          <Trackpoint>
            <Time>2021-08-03T09:40:12.000Z</Time>
            <Position>
              <LatitudeDegrees>41.16347174160182476043701171875</LatitudeDegrees>
              <LongitudeDegrees>-1.4894613437354564666748046875</LongitudeDegrees>
            </Position>
            <AltitudeMeters>701</AltitudeMeters>
            <DistanceMeters>530368.02170618</DistanceMeters>
          </Trackpoint>
          <Trackpoint>
            <Time>2021-08-03T09:40:16.000Z</Time>
            <Position>
              <LatitudeDegrees>41.1633170954883098602294921875</LatitudeDegrees>
              <LongitudeDegrees>-1.48920292966067790985107421875</LongitudeDegrees>
            </Position>
            <AltitudeMeters>701.4000244140625</AltitudeMeters>
            <DistanceMeters>530395.68247943</DistanceMeters>
          </Trackpoint>
          <Trackpoint>
            <Time>2021-08-03T09:40:18.000Z</Time>
            <Position>
              <LatitudeDegrees>41.16324442438781261444091796875</LatitudeDegrees>
              <LongitudeDegrees>-1.4891139976680278778076171875</LongitudeDegrees>
            </Position>
            <AltitudeMeters>702.20001220703125</AltitudeMeters>
            <DistanceMeters>530406.68015391</DistanceMeters>
          </Trackpoint>
          <Trackpoint>
            <Time>2021-08-03T09:40:21.000Z</Time>
            <Position>
              <LatitudeDegrees>41.1631668917834758758544921875</LatitudeDegrees>
              <LongitudeDegrees>-1.48899975232779979705810546875</LongitudeDegrees>
            </Position>
            <AltitudeMeters>703.20001220703125</AltitudeMeters>
            <DistanceMeters>530419.56810278</DistanceMeters>
          </Trackpoint>
          <Trackpoint>
            <Time>2021-08-03T09:40:28.000Z</Time>
            <Position>
              <LatitudeDegrees>41.16304694674909114837646484375</LatitudeDegrees>
              <LongitudeDegrees>-1.488741002976894378662109375</LongitudeDegrees>
            </Position>
            <AltitudeMeters>704.4000244140625</AltitudeMeters>
            <DistanceMeters>530445.02994302</DistanceMeters>
          </Trackpoint>
          <Trackpoint>
            <Time>2021-08-03T09:40:32.000Z</Time>
            <Position>
              <LatitudeDegrees>41.1630022712051868438720703125</LatitudeDegrees>
              <LongitudeDegrees>-1.48859725333750247955322265625</LongitudeDegrees>
            </Position>
            <AltitudeMeters>705.4000244140625</AltitudeMeters>
            <DistanceMeters>530458.06142864</DistanceMeters>
          </Trackpoint>
          <Trackpoint>
            <Time>2021-08-03T09:40:39.000Z</Time>
            <Position>
              <LatitudeDegrees>41.162954159080982208251953125</LatitudeDegrees>
              <LongitudeDegrees>-1.48834663443267345428466796875</LongitudeDegrees>
            </Position>
            <AltitudeMeters>706.5999755859375</AltitudeMeters>
            <DistanceMeters>530479.73335371</DistanceMeters>
          </Trackpoint>
          <Trackpoint>
            <Time>2021-08-03T09:40:45.000Z</Time>
            <Position>
              <LatitudeDegrees>41.1628953181207180023193359375</LatitudeDegrees>
              <LongitudeDegrees>-1.48815401829779148101806640625</LongitudeDegrees>
            </Position>
            <AltitudeMeters>707.79998779296875</AltitudeMeters>
            <DistanceMeters>530497.15100132</DistanceMeters>
          </Trackpoint>
          <Trackpoint>
            <Time>2021-08-03T09:40:51.000Z</Time>
            <Position>
              <LatitudeDegrees>41.16281426511704921722412109375</LatitudeDegrees>
              <LongitudeDegrees>-1.48797146044671535491943359375</LongitudeDegrees>
            </Position>
            <AltitudeMeters>708.79998779296875</AltitudeMeters>
            <DistanceMeters>530514.91006801</DistanceMeters>
          </Trackpoint>
          <Trackpoint>
            <Time>2021-08-03T09:41:06.000Z</Time>
            <Position>
              <LatitudeDegrees>41.16239282302558422088623046875</LatitudeDegrees>
              <LongitudeDegrees>-1.48750794120132923126220703125</LongitudeDegrees>
            </Position>
            <AltitudeMeters>708.4000244140625</AltitudeMeters>
            <DistanceMeters>530575.81010855</DistanceMeters>
          </Trackpoint>
          <Trackpoint>
            <Time>2021-08-03T09:41:09.000Z</Time>
            <Position>
              <LatitudeDegrees>41.16228821687400341033935546875</LatitudeDegrees>
              <LongitudeDegrees>-1.4873859845101833343505859375</LongitudeDegrees>
            </Position>
            <AltitudeMeters>707.79998779296875</AltitudeMeters>
            <DistanceMeters>530591.3015033</DistanceMeters>
          </Trackpoint>
          <Trackpoint>
            <Time>2021-08-03T09:41:19.000Z</Time>
            <Position>
              <LatitudeDegrees>41.1619672738015651702880859375</LatitudeDegrees>
              <LongitudeDegrees>-1.48705816827714443206787109375</LongitudeDegrees>
            </Position>
            <AltitudeMeters>708.79998779296875</AltitudeMeters>
            <DistanceMeters>530636.36340772</DistanceMeters>
          </Trackpoint>
          <Trackpoint>
            <Time>2021-08-03T09:41:29.000Z</Time>
            <Position>
              <LatitudeDegrees>41.16165320388972759246826171875</LatitudeDegrees>
              <LongitudeDegrees>-1.4867908693850040435791015625</LongitudeDegrees>
            </Position>
            <AltitudeMeters>710</AltitudeMeters>
            <DistanceMeters>530677.88018664</DistanceMeters>
          </Trackpoint>
          <Trackpoint>
            <Time>2021-08-03T09:41:37.000Z</Time>
            <Position>
              <LatitudeDegrees>41.1613828875124454498291015625</LatitudeDegrees>
              <LongitudeDegrees>-1.486593224108219146728515625</LongitudeDegrees>
            </Position>
            <AltitudeMeters>711</AltitudeMeters>
            <DistanceMeters>530712.22389822</DistanceMeters>
          </Trackpoint>
          <Trackpoint>
            <Time>2021-08-03T09:41:54.000Z</Time>
            <Position>
              <LatitudeDegrees>41.160943508148193359375</LatitudeDegrees>
              <LongitudeDegrees>-1.48626909591257572174072265625</LongitudeDegrees>
            </Position>
            <AltitudeMeters>711.79998779296875</AltitudeMeters>
            <DistanceMeters>530768.16372867</DistanceMeters>
          </Trackpoint>
          <Trackpoint>
            <Time>2021-08-03T09:42:03.000Z</Time>
            <Position>
              <LatitudeDegrees>41.16073739714920520782470703125</LatitudeDegrees>
              <LongitudeDegrees>-1.48603088222444057464599609375</LongitudeDegrees>
            </Position>
            <AltitudeMeters>713</AltitudeMeters>
            <DistanceMeters>530798.57316813</DistanceMeters>
          </Trackpoint>
          <Trackpoint>
            <Time>2021-08-03T09:42:12.000Z</Time>
            <Position>
              <LatitudeDegrees>41.160531453788280487060546875</LatitudeDegrees>
              <LongitudeDegrees>-1.485694684088230133056640625</LongitudeDegrees>
            </Position>
            <AltitudeMeters>711.5999755859375</AltitudeMeters>
            <DistanceMeters>530834.89227393</DistanceMeters>
          </Trackpoint>
          <Trackpoint>
            <Time>2021-08-03T09:42:14.000Z</Time>
            <Position>
              <LatitudeDegrees>41.16046615876257419586181640625</LatitudeDegrees>
              <LongitudeDegrees>-1.48562000133097171783447265625</LongitudeDegrees>
            </Position>
            <AltitudeMeters>711</AltitudeMeters>
            <DistanceMeters>530844.48291305</DistanceMeters>
          </Trackpoint>
          <Trackpoint>
            <Time>2021-08-03T09:42:18.000Z</Time>
            <Position>
              <LatitudeDegrees>41.1603458784520626068115234375</LatitudeDegrees>
              <LongitudeDegrees>-1.48544565774500370025634765625</LongitudeDegrees>
            </Position>
            <AltitudeMeters>710.79998779296875</AltitudeMeters>
            <DistanceMeters>530864.29866043</DistanceMeters>
          </Trackpoint>
          <Trackpoint>
            <Time>2021-08-03T09:42:24.000Z</Time>
            <Position>
              <LatitudeDegrees>41.16020858287811279296875</LatitudeDegrees>
              <LongitudeDegrees>-1.48513183929026126861572265625</LongitudeDegrees>
            </Position>
            <AltitudeMeters>710.4000244140625</AltitudeMeters>
            <DistanceMeters>530894.71329606</DistanceMeters>
          </Trackpoint>
          <Trackpoint>
            <Time>2021-08-03T09:42:27.000Z</Time>
            <Position>
              <LatitudeDegrees>41.16014898754656314849853515625</LatitudeDegrees>
              <LongitudeDegrees>-1.484966464340686798095703125</LongitudeDegrees>
            </Position>
            <AltitudeMeters>709.20001220703125</AltitudeMeters>
            <DistanceMeters>530910.07679723</DistanceMeters>
          </Trackpoint>
          <Trackpoint>
            <Time>2021-08-03T09:42:33.000Z</Time>
            <Position>
              <LatitudeDegrees>41.16001538001000881195068359375</LatitudeDegrees>
              <LongitudeDegrees>-1.48459422402083873748779296875</LongitudeDegrees>
            </Position>
            <AltitudeMeters>708.20001220703125</AltitudeMeters>
            <DistanceMeters>530944.63256649</DistanceMeters>
          </Trackpoint>
          <Trackpoint>
            <Time>2021-08-03T09:42:36.000Z</Time>
            <Position>
              <LatitudeDegrees>41.15993323735892772674560546875</LatitudeDegrees>
              <LongitudeDegrees>-1.48437847383320331573486328125</LongitudeDegrees>
            </Position>
            <AltitudeMeters>707.4000244140625</AltitudeMeters>
            <DistanceMeters>530964.89198564</DistanceMeters>
          </Trackpoint>
          <Trackpoint>
            <Time>2021-08-03T09:42:37.000Z</Time>
            <Position>
              <LatitudeDegrees>41.15990750491619110107421875</LatitudeDegrees>
              <LongitudeDegrees>-1.48430018685758113861083984375</LongitudeDegrees>
            </Position>
            <AltitudeMeters>707</AltitudeMeters>
            <DistanceMeters>530972.05059471</DistanceMeters>
          </Trackpoint>
          <Trackpoint>
            <Time>2021-08-03T09:42:41.000Z</Time>
            <Position>
              <LatitudeDegrees>41.15977481938898563385009765625</LatitudeDegrees>
              <LongitudeDegrees>-1.48399190045893192291259765625</LongitudeDegrees>
            </Position>
            <AltitudeMeters>705.79998779296875</AltitudeMeters>
            <DistanceMeters>531001.80746343</DistanceMeters>
          </Trackpoint>
          <Trackpoint>
            <Time>2021-08-03T09:42:46.000Z</Time>
            <Position>
              <LatitudeDegrees>41.1595594882965087890625</LatitudeDegrees>
              <LongitudeDegrees>-1.48363030515611171722412109375</LongitudeDegrees>
            </Position>
            <AltitudeMeters>704.79998779296875</AltitudeMeters>
            <DistanceMeters>531040.44070242</DistanceMeters>
          </Trackpoint>
          <Trackpoint>
            <Time>2021-08-03T09:42:53.000Z</Time>
            <Position>
              <LatitudeDegrees>41.159226559102535247802734375</LatitudeDegrees>
              <LongitudeDegrees>-1.48322931490838527679443359375</LongitudeDegrees>
            </Position>
            <AltitudeMeters>705</AltitudeMeters>
            <DistanceMeters>531090.46276848</DistanceMeters>
          </Trackpoint>
          <Trackpoint>
            <Time>2021-08-03T09:43:04.000Z</Time>
            <Position>
              <LatitudeDegrees>41.15892707370221614837646484375</LatitudeDegrees>
              <LongitudeDegrees>-1.48258776403963565826416015625</LongitudeDegrees>
            </Position>
            <AltitudeMeters>705.20001220703125</AltitudeMeters>
            <DistanceMeters>531153.71844848</DistanceMeters>
          </Trackpoint>
          <Trackpoint>
            <Time>2021-08-03T09:43:09.000Z</Time>
            <Position>
              <LatitudeDegrees>41.15878927521407604217529296875</LatitudeDegrees>
              <LongitudeDegrees>-1.48234049789607524871826171875</LongitudeDegrees>
            </Position>
            <AltitudeMeters>705</AltitudeMeters>
            <DistanceMeters>531179.49749901</DistanceMeters>
          </Trackpoint>
          <Trackpoint>
            <Time>2021-08-03T09:43:14.000Z</Time>
            <Position>
              <LatitudeDegrees>41.15864812396466732025146484375</LatitudeDegrees>
              <LongitudeDegrees>-1.4822088181972503662109375</LongitudeDegrees>
            </Position>
            <AltitudeMeters>705.79998779296875</AltitudeMeters>
            <DistanceMeters>531198.69571768</DistanceMeters>
          </Trackpoint>
          <Trackpoint>
            <Time>2021-08-03T09:43:16.000Z</Time>
            <Position>
              <LatitudeDegrees>41.15860152058303356170654296875</LatitudeDegrees>
              <LongitudeDegrees>-1.48217260837554931640625</LongitudeDegrees>
            </Position>
            <AltitudeMeters>706</AltitudeMeters>
            <DistanceMeters>531204.7057348</DistanceMeters>
          </Trackpoint>
          <Trackpoint>
            <Time>2021-08-03T09:43:27.000Z</Time>
            <Position>
              <LatitudeDegrees>41.1584022827446460723876953125</LatitudeDegrees>
              <LongitudeDegrees>-1.4820386655628681182861328125</LongitudeDegrees>
            </Position>
            <AltitudeMeters>706.4000244140625</AltitudeMeters>
            <DistanceMeters>531229.56008048</DistanceMeters>
          </Trackpoint>
          <Trackpoint>
            <Time>2021-08-03T09:43:30.000Z</Time>
            <Position>
              <LatitudeDegrees>41.15838174708187580108642578125</LatitudeDegrees>
              <LongitudeDegrees>-1.4820063114166259765625</LongitudeDegrees>
            </Position>
            <AltitudeMeters>706.4000244140625</AltitudeMeters>
            <DistanceMeters>531233.10548122</DistanceMeters>
          </Trackpoint>
          <Trackpoint>
            <Time>2021-08-03T09:43:42.000Z</Time>
            <Position>
              <LatitudeDegrees>41.1583228223025798797607421875</LatitudeDegrees>
              <LongitudeDegrees>-1.4820212312042713165283203125</LongitudeDegrees>
            </Position>
            <AltitudeMeters>706</AltitudeMeters>
            <DistanceMeters>531239.7824182</DistanceMeters>
          </Trackpoint>
          <Trackpoint>
            <Time>2021-08-03T09:43:47.000Z</Time>
            <Position>
              <LatitudeDegrees>41.15827630273997783660888671875</LatitudeDegrees>
              <LongitudeDegrees>-1.48206205107271671295166015625</LongitudeDegrees>
            </Position>
            <AltitudeMeters>705.79998779296875</AltitudeMeters>
            <DistanceMeters>531245.98832474</DistanceMeters>
          </Trackpoint>
          <Trackpoint>
            <Time>2021-08-03T10:08:50.000Z</Time>
            <Position>
              <LatitudeDegrees>41.15821964107453823089599609375</LatitudeDegrees>
              <LongitudeDegrees>-1.48190966807305812835693359375</LongitudeDegrees>
            </Position>
            <AltitudeMeters>710</AltitudeMeters>
            <DistanceMeters>531260.2302901</DistanceMeters>
          </Trackpoint>
          <Trackpoint>
            <Time>2021-08-03T10:09:06.000Z</Time>
            <Position>
              <LatitudeDegrees>41.15825928747653961181640625</LatitudeDegrees>
              <LongitudeDegrees>-1.4816487394273281097412109375</LongitudeDegrees>
            </Position>
            <AltitudeMeters>709.79998779296875</AltitudeMeters>
            <DistanceMeters>531282.53668542</DistanceMeters>
          </Trackpoint>
          <Trackpoint>
            <Time>2021-08-03T10:09:36.000Z</Time>
            <Position>
              <LatitudeDegrees>41.15813062526285648345947265625</LatitudeDegrees>
              <LongitudeDegrees>-1.481063850224018096923828125</LongitudeDegrees>
            </Position>
            <AltitudeMeters>711.20001220703125</AltitudeMeters>
            <DistanceMeters>531333.59884628</DistanceMeters>
          </Trackpoint>
          <Trackpoint>
            <Time>2021-08-03T10:09:46.000Z</Time>
            <Position>
              <LatitudeDegrees>41.1581193096935749053955078125</LatitudeDegrees>
              <LongitudeDegrees>-1.4808608405292034149169921875</LongitudeDegrees>
            </Position>
            <AltitudeMeters>712.4000244140625</AltitudeMeters>
            <DistanceMeters>531350.65766346</DistanceMeters>
          </Trackpoint>
          <Trackpoint>
            <Time>2021-08-03T10:09:56.000Z</Time>
            <Position>
              <LatitudeDegrees>41.15809441544115543365478515625</LatitudeDegrees>
              <LongitudeDegrees>-1.480654813349246978759765625</LongitudeDegrees>
            </Position>
            <AltitudeMeters>713.5999755859375</AltitudeMeters>
            <DistanceMeters>531368.14361177</DistanceMeters>
          </Trackpoint>
          <Trackpoint>
            <Time>2021-08-03T10:10:00.000Z</Time>
            <Position>
              <LatitudeDegrees>41.1580904759466648101806640625</LatitudeDegrees>
              <LongitudeDegrees>-1.480570994317531585693359375</LongitudeDegrees>
            </Position>
            <AltitudeMeters>714.79998779296875</AltitudeMeters>
            <DistanceMeters>531375.18136492</DistanceMeters>
          </Trackpoint>
          <Trackpoint>
            <Time>2021-08-03T10:10:07.000Z</Time>
            <Position>
              <LatitudeDegrees>41.15808871574699878692626953125</LatitudeDegrees>
              <LongitudeDegrees>-1.48040679283440113067626953125</LongitudeDegrees>
            </Position>
            <AltitudeMeters>715.79998779296875</AltitudeMeters>
            <DistanceMeters>531388.94286059</DistanceMeters>
          </Trackpoint>
          <Trackpoint>
            <Time>2021-08-03T10:10:13.000Z</Time>
            <Position>
              <LatitudeDegrees>41.15810899995267391204833984375</LatitudeDegrees>
              <LongitudeDegrees>-1.48026128299534320831298828125</LongitudeDegrees>
            </Position>
            <AltitudeMeters>717.20001220703125</AltitudeMeters>
            <DistanceMeters>531401.3433917</DistanceMeters>
          </Trackpoint>
          <Trackpoint>
            <Time>2021-08-03T10:10:20.000Z</Time>
            <Position>
              <LatitudeDegrees>41.15811847150325775146484375</LatitudeDegrees>
              <LongitudeDegrees>-1.48008040152490139007568359375</LongitudeDegrees>
            </Position>
            <AltitudeMeters>718.20001220703125</AltitudeMeters>
            <DistanceMeters>531416.53756605</DistanceMeters>
          </Trackpoint>
          <Trackpoint>
            <Time>2021-08-03T10:10:28.000Z</Time>
            <Position>
              <LatitudeDegrees>41.15811084397137165069580078125</LatitudeDegrees>
              <LongitudeDegrees>-1.479861550033092498779296875</LongitudeDegrees>
            </Position>
            <AltitudeMeters>719.20001220703125</AltitudeMeters>
            <DistanceMeters>531434.89666825</DistanceMeters>
          </Trackpoint>
          <Trackpoint>
            <Time>2021-08-03T10:10:39.000Z</Time>
            <Position>
              <LatitudeDegrees>41.15808921866118907928466796875</LatitudeDegrees>
              <LongitudeDegrees>-1.4796002022922039031982421875</LongitudeDegrees>
            </Position>
            <AltitudeMeters>720.20001220703125</AltitudeMeters>
            <DistanceMeters>531456.92914018</DistanceMeters>
          </Trackpoint>
          <Trackpoint>
            <Time>2021-08-03T10:10:45.000Z</Time>
            <Position>
              <LatitudeDegrees>41.15807211957871913909912109375</LatitudeDegrees>
              <LongitudeDegrees>-1.4794701151549816131591796875</LongitudeDegrees>
            </Position>
            <AltitudeMeters>721.4000244140625</AltitudeMeters>
            <DistanceMeters>531467.99475524</DistanceMeters>
          </Trackpoint>
          <Trackpoint>
            <Time>2021-08-03T10:10:59.000Z</Time>
            <Position>
              <LatitudeDegrees>41.1580093391239643096923828125</LatitudeDegrees>
              <LongitudeDegrees>-1.47915822453796863555908203125</LongitudeDegrees>
            </Position>
            <AltitudeMeters>722.5999755859375</AltitudeMeters>
            <DistanceMeters>531495.0488458</DistanceMeters>
          </Trackpoint>
          <Trackpoint>
            <Time>2021-08-03T10:11:08.000Z</Time>
            <Position>
              <LatitudeDegrees>41.15797220729291439056396484375</LatitudeDegrees>
              <LongitudeDegrees>-1.4789581485092639923095703125</LongitudeDegrees>
            </Position>
            <AltitudeMeters>723.5999755859375</AltitudeMeters>
            <DistanceMeters>531512.31679745</DistanceMeters>
          </Trackpoint>
          <Trackpoint>
            <Time>2021-08-03T10:11:18.000Z</Time>
            <Position>
              <LatitudeDegrees>41.15790121257305145263671875</LatitudeDegrees>
              <LongitudeDegrees>-1.47874566726386547088623046875</LongitudeDegrees>
            </Position>
            <AltitudeMeters>724.5999755859375</AltitudeMeters>
            <DistanceMeters>531531.79727389</DistanceMeters>
          </Trackpoint>
          <Trackpoint>
            <Time>2021-08-03T10:11:37.000Z</Time>
            <Position>
              <LatitudeDegrees>41.15762452594935894012451171875</LatitudeDegrees>
              <LongitudeDegrees>-1.47835305891931056976318359375</LongitudeDegrees>
            </Position>
            <AltitudeMeters>724.79998779296875</AltitudeMeters>
            <DistanceMeters>531576.86178334</DistanceMeters>
          </Trackpoint>
          <Trackpoint>
            <Time>2021-08-03T10:11:57.000Z</Time>
            <Position>
              <LatitudeDegrees>41.15718908607959747314453125</LatitudeDegrees>
              <LongitudeDegrees>-1.47792759351432323455810546875</LongitudeDegrees>
            </Position>
            <AltitudeMeters>725.20001220703125</AltitudeMeters>
            <DistanceMeters>531637.02892891</DistanceMeters>
          </Trackpoint>
          <Trackpoint>
            <Time>2021-08-03T10:12:15.000Z</Time>
            <Position>
              <LatitudeDegrees>41.1567849107086658477783203125</LatitudeDegrees>
              <LongitudeDegrees>-1.47740573622286319732666015625</LongitudeDegrees>
            </Position>
            <AltitudeMeters>724.79998779296875</AltitudeMeters>
            <DistanceMeters>531699.76779383</DistanceMeters>
          </Trackpoint>
          <Trackpoint>
            <Time>2021-08-03T10:12:22.000Z</Time>
            <Position>
              <LatitudeDegrees>41.156600676476955413818359375</LatitudeDegrees>
              <LongitudeDegrees>-1.47717439569532871246337890625</LongitudeDegrees>
            </Position>
            <AltitudeMeters>723.79998779296875</AltitudeMeters>
            <DistanceMeters>531727.98704827</DistanceMeters>
          </Trackpoint>
          <Trackpoint>
            <Time>2021-08-03T10:12:37.000Z</Time>
            <Position>
              <LatitudeDegrees>41.1561636440455913543701171875</LatitudeDegrees>
              <LongitudeDegrees>-1.47668070159852504730224609375</LongitudeDegrees>
            </Position>
            <AltitudeMeters>723.5999755859375</AltitudeMeters>
            <DistanceMeters>531791.84436399</DistanceMeters>
          </Trackpoint>
          <Trackpoint>
            <Time>2021-08-03T10:12:41.000Z</Time>
            <Position>
              <LatitudeDegrees>41.15604906342923641204833984375</LatitudeDegrees>
              <LongitudeDegrees>-1.4765629358589649200439453125</LongitudeDegrees>
            </Position>
            <AltitudeMeters>725</AltitudeMeters>
            <DistanceMeters>531807.97037222</DistanceMeters>
          </Trackpoint>
          <Trackpoint>
            <Time>2021-08-03T10:12:46.000Z</Time>
            <Position>
              <LatitudeDegrees>41.1559101752936840057373046875</LatitudeDegrees>
              <LongitudeDegrees>-1.47642438299953937530517578125</LongitudeDegrees>
            </Position>
            <AltitudeMeters>726</AltitudeMeters>
            <DistanceMeters>531827.3040471</DistanceMeters>
          </Trackpoint>
          <Trackpoint>
            <Time>2021-08-03T10:13:01.000Z</Time>
            <Position>
              <LatitudeDegrees>41.1554535292088985443115234375</LatitudeDegrees>
              <LongitudeDegrees>-1.47599774412810802459716796875</LongitudeDegrees>
            </Position>
            <AltitudeMeters>725.4000244140625</AltitudeMeters>
            <DistanceMeters>531889.44527005</DistanceMeters>
          </Trackpoint>
          <Trackpoint>
            <Time>2021-08-03T10:13:04.000Z</Time>
            <Position>
              <LatitudeDegrees>41.1553529463708400726318359375</LatitudeDegrees>
              <LongitudeDegrees>-1.47584921680390834808349609375</LongitudeDegrees>
            </Position>
            <AltitudeMeters>724.79998779296875</AltitudeMeters>
            <DistanceMeters>531906.18589197</DistanceMeters>
          </Trackpoint>
          <Trackpoint>
            <Time>2021-08-03T10:13:08.000Z</Time>
            <Position>
              <LatitudeDegrees>41.1552077718079090118408203125</LatitudeDegrees>
              <LongitudeDegrees>-1.47564075887203216552734375</LongitudeDegrees>
            </Position>
            <AltitudeMeters>723.79998779296875</AltitudeMeters>
            <DistanceMeters>531929.98206884</DistanceMeters>
          </Trackpoint>
          <Trackpoint>
            <Time>2021-08-03T10:13:20.000Z</Time>
            <Position>
              <LatitudeDegrees>41.15484676323831081390380859375</LatitudeDegrees>
              <LongitudeDegrees>-1.475056707859039306640625</LongitudeDegrees>
            </Position>
            <AltitudeMeters>724</AltitudeMeters>
            <DistanceMeters>531993.30766025</DistanceMeters>
          </Trackpoint>
          <Trackpoint>
            <Time>2021-08-03T10:13:27.000Z</Time>
            <Position>
              <LatitudeDegrees>41.1546870879828929901123046875</LatitudeDegrees>
              <LongitudeDegrees>-1.47471631877124309539794921875</LongitudeDegrees>
            </Position>
            <AltitudeMeters>724</AltitudeMeters>
            <DistanceMeters>532026.91663573</DistanceMeters>
          </Trackpoint>
          <Trackpoint>
            <Time>2021-08-03T10:13:38.000Z</Time>
            <Position>
              <LatitudeDegrees>41.15436329506337642669677734375</LatitudeDegrees>
              <LongitudeDegrees>-1.47432019002735614776611328125</LongitudeDegrees>
            </Position>
            <AltitudeMeters>724.79998779296875</AltitudeMeters>
            <DistanceMeters>532075.91486451</DistanceMeters>
          </Trackpoint>
          <Trackpoint>
            <Time>2021-08-03T10:13:53.000Z</Time>
            <Position>
              <LatitudeDegrees>41.15391436032950878143310546875</LatitudeDegrees>
              <LongitudeDegrees>-1.47386807017028331756591796875</LongitudeDegrees>
            </Position>
            <AltitudeMeters>725.20001220703125</AltitudeMeters>
            <DistanceMeters>532138.62328061</DistanceMeters>
          </Trackpoint>
          <Trackpoint>
            <Time>2021-08-03T10:13:56.000Z</Time>
            <Position>
              <LatitudeDegrees>41.1538287810981273651123046875</LatitudeDegrees>
              <LongitudeDegrees>-1.473779641091823577880859375</LongitudeDegrees>
            </Position>
            <AltitudeMeters>725.79998779296875</AltitudeMeters>
            <DistanceMeters>532150.69204745</DistanceMeters>
          </Trackpoint>
          <Trackpoint>
            <Time>2021-08-03T10:14:10.000Z</Time>
            <Position>
              <LatitudeDegrees>41.15334623493254184722900390625</LatitudeDegrees>
              <LongitudeDegrees>-1.4734130166471004486083984375</LongitudeDegrees>
            </Position>
            <AltitudeMeters>725.20001220703125</AltitudeMeters>
            <DistanceMeters>532212.56764741</DistanceMeters>
          </Trackpoint>
          <Trackpoint>
            <Time>2021-08-03T10:14:12.000Z</Time>
            <Position>
              <LatitudeDegrees>41.15325269289314746856689453125</LatitudeDegrees>
              <LongitudeDegrees>-1.4733843505382537841796875</LongitudeDegrees>
            </Position>
            <AltitudeMeters>724.5999755859375</AltitudeMeters>
            <DistanceMeters>532223.25213273</DistanceMeters>
          </Trackpoint>
          <Trackpoint>
            <Time>2021-08-03T10:14:16.000Z</Time>
            <Position>
              <LatitudeDegrees>41.153036691248416900634765625</LatitudeDegrees>
              <LongitudeDegrees>-1.47334168665111064910888671875</LongitudeDegrees>
            </Position>
            <AltitudeMeters>723.4000244140625</AltitudeMeters>
            <DistanceMeters>532247.55817562</DistanceMeters>
          </Trackpoint>
          <Trackpoint>
            <Time>2021-08-03T10:14:19.000Z</Time>
            <Position>
              <LatitudeDegrees>41.15284717641770839691162109375</LatitudeDegrees>
              <LongitudeDegrees>-1.47334705106914043426513671875</LongitudeDegrees>
            </Position>
            <AltitudeMeters>721.79998779296875</AltitudeMeters>
            <DistanceMeters>532268.65624634</DistanceMeters>
          </Trackpoint>
          <Trackpoint>
            <Time>2021-08-03T10:14:21.000Z</Time>
            <Position>
              <LatitudeDegrees>41.15270669572055339813232421875</LatitudeDegrees>
              <LongitudeDegrees>-1.47334135137498378753662109375</LongitudeDegrees>
            </Position>
            <AltitudeMeters>720.20001220703125</AltitudeMeters>
            <DistanceMeters>532284.29932921</DistanceMeters>
          </Trackpoint>
          <Trackpoint>
            <Time>2021-08-03T10:14:23.000Z</Time>
            <Position>
              <LatitudeDegrees>41.152557916939258575439453125</LatitudeDegrees>
              <LongitudeDegrees>-1.47331536747515201568603515625</LongitudeDegrees>
            </Position>
            <AltitudeMeters>719</AltitudeMeters>
            <DistanceMeters>532301.00133872</DistanceMeters>
          </Trackpoint>
          <Trackpoint>
            <Time>2021-08-03T10:14:26.000Z</Time>
            <Position>
              <LatitudeDegrees>41.15232917480170726776123046875</LatitudeDegrees>
              <LongitudeDegrees>-1.4732326380908489227294921875</LongitudeDegrees>
            </Position>
            <AltitudeMeters>717.5999755859375</AltitudeMeters>
            <DistanceMeters>532327.38798333</DistanceMeters>
          </Trackpoint>
          <Trackpoint>
            <Time>2021-08-03T10:14:27.000Z</Time>
            <Position>
              <LatitudeDegrees>41.152255833148956298828125</LatitudeDegrees>
              <LongitudeDegrees>-1.47319248877465724945068359375</LongitudeDegrees>
            </Position>
            <AltitudeMeters>717</AltitudeMeters>
            <DistanceMeters>532336.21728964</DistanceMeters>
          </Trackpoint>
          <Trackpoint>
            <Time>2021-08-03T10:14:29.000Z</Time>
            <Position>
              <LatitudeDegrees>41.15212281234562397003173828125</LatitudeDegrees>
              <LongitudeDegrees>-1.47308704443275928497314453125</LongitudeDegrees>
            </Position>
            <AltitudeMeters>716.4000244140625</AltitudeMeters>
            <DistanceMeters>532353.45933641</DistanceMeters>
          </Trackpoint>
          <Trackpoint>
            <Time>2021-08-03T10:14:37.000Z</Time>
            <Position>
              <LatitudeDegrees>41.15167253650724887847900390625</LatitudeDegrees>
              <LongitudeDegrees>-1.472641713917255401611328125</LongitudeDegrees>
            </Position>
            <AltitudeMeters>717.4000244140625</AltitudeMeters>
            <DistanceMeters>532415.94595869</DistanceMeters>
          </Trackpoint>
          <Trackpoint>
            <Time>2021-08-03T10:14:38.000Z</Time>
            <Position>
              <LatitudeDegrees>41.15162358619272708892822265625</LatitudeDegrees>
              <LongitudeDegrees>-1.4725895784795284271240234375</LongitudeDegrees>
            </Position>
            <AltitudeMeters>717.5999755859375</AltitudeMeters>
            <DistanceMeters>532422.9296141</DistanceMeters>
          </Trackpoint>
          <Trackpoint>
            <Time>2021-08-03T10:14:45.000Z</Time>
            <Position>
              <LatitudeDegrees>41.151349581778049468994140625</LatitudeDegrees>
              <LongitudeDegrees>-1.4722221158444881439208984375</LongitudeDegrees>
            </Position>
            <AltitudeMeters>718.4000244140625</AltitudeMeters>
            <DistanceMeters>532466.27117248</DistanceMeters>
          </Trackpoint>
          <Trackpoint>
            <Time>2021-08-03T10:14:55.000Z</Time>
            <Position>
              <LatitudeDegrees>41.1511133797466754913330078125</LatitudeDegrees>
              <LongitudeDegrees>-1.4715461991727352142333984375</LongitudeDegrees>
            </Position>
            <AltitudeMeters>717.79998779296875</AltitudeMeters>
            <DistanceMeters>532528.72143937</DistanceMeters>
          </Trackpoint>
          <Trackpoint>
            <Time>2021-08-03T10:15:05.000Z</Time>
            <Position>
              <LatitudeDegrees>41.15089352242648601531982421875</LatitudeDegrees>
              <LongitudeDegrees>-1.4708759821951389312744140625</LongitudeDegrees>
            </Position>
            <AltitudeMeters>718.5999755859375</AltitudeMeters>
            <DistanceMeters>532589.98987201</DistanceMeters>
          </Trackpoint>
          <Trackpoint>
            <Time>2021-08-03T10:15:06.000Z</Time>
            <Position>
              <LatitudeDegrees>41.15087508223950862884521484375</LatitudeDegrees>
              <LongitudeDegrees>-1.47080884315073490142822265625</LongitudeDegrees>
            </Position>
            <AltitudeMeters>718.79998779296875</AltitudeMeters>
            <DistanceMeters>532595.97881713</DistanceMeters>
          </Trackpoint>
          <Trackpoint>
            <Time>2021-08-03T10:15:11.000Z</Time>
            <Position>
              <LatitudeDegrees>41.1507988907396793365478515625</LatitudeDegrees>
              <LongitudeDegrees>-1.47046484984457492828369140625</LongitudeDegrees>
            </Position>
            <AltitudeMeters>719.20001220703125</AltitudeMeters>
            <DistanceMeters>532626.02965397</DistanceMeters>
          </Trackpoint>
          <Trackpoint>
            <Time>2021-08-03T10:15:21.000Z</Time>
            <Position>
              <LatitudeDegrees>41.150586493313312530517578125</LatitudeDegrees>
              <LongitudeDegrees>-1.46980619989335536956787109375</LongitudeDegrees>
            </Position>
            <AltitudeMeters>719.79998779296875</AltitudeMeters>
            <DistanceMeters>532686.07916942</DistanceMeters>
          </Trackpoint>
          <Trackpoint>
            <Time>2021-08-03T10:15:32.000Z</Time>
            <Position>
              <LatitudeDegrees>41.1502265743911266326904296875</LatitudeDegrees>
              <LongitudeDegrees>-1.4692012779414653778076171875</LongitudeDegrees>
            </Position>
            <AltitudeMeters>719.20001220703125</AltitudeMeters>
            <DistanceMeters>532750.69370172</DistanceMeters>
          </Trackpoint>
          <Trackpoint>
            <Time>2021-08-03T10:15:44.000Z</Time>
            <Position>
              <LatitudeDegrees>41.14982231520116329193115234375</LatitudeDegrees>
              <LongitudeDegrees>-1.4686517603695392608642578125</LongitudeDegrees>
            </Position>
            <AltitudeMeters>720.79998779296875</AltitudeMeters>
            <DistanceMeters>532815.07982324</DistanceMeters>
          </Trackpoint>
          <Trackpoint>
            <Time>2021-08-03T10:15:47.000Z</Time>
            <Position>
              <LatitudeDegrees>41.14971921779215335845947265625</LatitudeDegrees>
              <LongitudeDegrees>-1.46853424608707427978515625</LongitudeDegrees>
            </Position>
            <AltitudeMeters>721</AltitudeMeters>
            <DistanceMeters>532830.20161631</DistanceMeters>
          </Trackpoint>
          <Trackpoint>
            <Time>2021-08-03T10:15:55.000Z</Time>
            <Position>
              <LatitudeDegrees>41.149472706019878387451171875</LatitudeDegrees>
              <LongitudeDegrees>-1.46829511038959026336669921875</LongitudeDegrees>
            </Position>
            <AltitudeMeters>722</AltitudeMeters>
            <DistanceMeters>532864.17921501</DistanceMeters>
          </Trackpoint>
          <Trackpoint>
            <Time>2021-08-03T10:16:06.000Z</Time>
            <Position>
              <LatitudeDegrees>41.14916869439184665679931640625</LatitudeDegrees>
              <LongitudeDegrees>-1.46803669631481170654296875</LongitudeDegrees>
            </Position>
            <AltitudeMeters>722.4000244140625</AltitudeMeters>
            <DistanceMeters>532904.35383067</DistanceMeters>
          </Trackpoint>
          <Trackpoint>
            <Time>2021-08-03T10:16:12.000Z</Time>
            <Position>
              <LatitudeDegrees>41.14900591783225536346435546875</LatitudeDegrees>
              <LongitudeDegrees>-1.46822872571647167205810546875</LongitudeDegrees>
            </Position>
            <AltitudeMeters>722.20001220703125</AltitudeMeters>
            <DistanceMeters>532928.58694709</DistanceMeters>
          </Trackpoint>
          <Trackpoint>
            <Time>2021-08-03T10:16:16.000Z</Time>
            <Position>
              <LatitudeDegrees>41.14887817762792110443115234375</LatitudeDegrees>
              <LongitudeDegrees>-1.46809570491313934326171875</LongitudeDegrees>
            </Position>
            <AltitudeMeters>721.20001220703125</AltitudeMeters>
            <DistanceMeters>532946.65427211</DistanceMeters>
          </Trackpoint>
          <Trackpoint>
            <Time>2021-08-03T10:16:31.000Z</Time>
            <Position>
              <LatitudeDegrees>41.1485079489648342132568359375</LatitudeDegrees>
              <LongitudeDegrees>-1.4675165154039859771728515625</LongitudeDegrees>
            </Position>
            <AltitudeMeters>722.20001220703125</AltitudeMeters>
            <DistanceMeters>533010.32841099</DistanceMeters>
          </Trackpoint>
          <Trackpoint>
            <Time>2021-08-03T10:16:46.000Z</Time>
            <Position>
              <LatitudeDegrees>41.1480928771197795867919921875</LatitudeDegrees>
              <LongitudeDegrees>-1.46701083518564701080322265625</LongitudeDegrees>
            </Position>
            <AltitudeMeters>722</AltitudeMeters>
            <DistanceMeters>533073.02199322</DistanceMeters>
          </Trackpoint>
          <Trackpoint>
            <Time>2021-08-03T10:16:48.000Z</Time>
            <Position>
              <LatitudeDegrees>41.14801232703030109405517578125</LatitudeDegrees>
              <LongitudeDegrees>-1.4669851027429103851318359375</LongitudeDegrees>
            </Position>
            <AltitudeMeters>722</AltitudeMeters>
            <DistanceMeters>533082.24301268</DistanceMeters>
          </Trackpoint>
          <Trackpoint>
            <Time>2021-08-03T10:17:02.000Z</Time>
            <Position>
              <LatitudeDegrees>41.14744084887206554412841796875</LatitudeDegrees>
              <LongitudeDegrees>-1.46691779606044292449951171875</LongitudeDegrees>
            </Position>
            <AltitudeMeters>722</AltitudeMeters>
            <DistanceMeters>533146.09926781</DistanceMeters>
          </Trackpoint>
          <Trackpoint>
            <Time>2021-08-03T10:17:16.000Z</Time>
            <Position>
              <LatitudeDegrees>41.14689367823302745819091796875</LatitudeDegrees>
              <LongitudeDegrees>-1.4667423628270626068115234375</LongitudeDegrees>
            </Position>
            <AltitudeMeters>722.4000244140625</AltitudeMeters>
            <DistanceMeters>533208.75020115</DistanceMeters>
          </Trackpoint>
          <Trackpoint>
            <Time>2021-08-03T10:17:31.000Z</Time>
            <Position>
              <LatitudeDegrees>41.1463226191699504852294921875</LatitudeDegrees>
              <LongitudeDegrees>-1.46666466258466243743896484375</LongitudeDegrees>
            </Position>
            <AltitudeMeters>722.20001220703125</AltitudeMeters>
            <DistanceMeters>533272.64278897</DistanceMeters>
          </Trackpoint>
          <Trackpoint>
            <Time>2021-08-03T10:17:35.000Z</Time>
            <Position>
              <LatitudeDegrees>41.1461539752781391143798828125</LatitudeDegrees>
              <LongitudeDegrees>-1.466638259589672088623046875</LongitudeDegrees>
            </Position>
            <AltitudeMeters>722.20001220703125</AltitudeMeters>
            <DistanceMeters>533291.54283563</DistanceMeters>
          </Trackpoint>
          <Trackpoint>
            <Time>2021-08-03T10:17:41.000Z</Time>
            <Position>
              <LatitudeDegrees>41.14590042270720005035400390625</LatitudeDegrees>
              <LongitudeDegrees>-1.46658486686646938323974609375</LongitudeDegrees>
            </Position>
            <AltitudeMeters>721.79998779296875</AltitudeMeters>
            <DistanceMeters>533320.11634315</DistanceMeters>
          </Trackpoint>
          <Trackpoint>
            <Time>2021-08-03T10:17:47.000Z</Time>
            <Position>
              <LatitudeDegrees>41.145649887621402740478515625</LatitudeDegrees>
              <LongitudeDegrees>-1.46650792099535465240478515625</LongitudeDegrees>
            </Position>
            <AltitudeMeters>722</AltitudeMeters>
            <DistanceMeters>533348.73753136</DistanceMeters>
          </Trackpoint>
          <Trackpoint>
            <Time>2021-08-03T10:17:54.000Z</Time>
            <Position>
              <LatitudeDegrees>41.14542818628251552581787109375</LatitudeDegrees>
              <LongitudeDegrees>-1.466264426708221435546875</LongitudeDegrees>
            </Position>
            <AltitudeMeters>722.20001220703125</AltitudeMeters>
            <DistanceMeters>533380.75941919</DistanceMeters>
          </Trackpoint>
          <Trackpoint>
            <Time>2021-08-03T10:17:57.000Z</Time>
            <Position>
              <LatitudeDegrees>41.14534671418368816375732421875</LatitudeDegrees>
              <LongitudeDegrees>-1.46614464931190013885498046875</LongitudeDegrees>
            </Position>
            <AltitudeMeters>722.4000244140625</AltitudeMeters>
            <DistanceMeters>533394.28729889</DistanceMeters>
          </Trackpoint>
          <Trackpoint>
            <Time>2021-08-03T10:18:01.000Z</Time>
            <Position>
              <LatitudeDegrees>41.14522215910255908966064453125</LatitudeDegrees>
              <LongitudeDegrees>-1.4660017378628253936767578125</LongitudeDegrees>
            </Position>
            <AltitudeMeters>722.4000244140625</AltitudeMeters>
            <DistanceMeters>533412.60848886</DistanceMeters>
          </Trackpoint>
          <Trackpoint>
            <Time>2021-08-03T10:18:16.000Z</Time>
            <Position>
              <LatitudeDegrees>41.1447324045002460479736328125</LatitudeDegrees>
              <LongitudeDegrees>-1.465641818940639495849609375</LongitudeDegrees>
            </Position>
            <AltitudeMeters>723</AltitudeMeters>
            <DistanceMeters>533474.90971604</DistanceMeters>
          </Trackpoint>
          <Trackpoint>
            <Time>2021-08-03T10:18:21.000Z</Time>
            <Position>
              <LatitudeDegrees>41.14455445669591426849365234375</LatitudeDegrees>
              <LongitudeDegrees>-1.46546236239373683929443359375</LongitudeDegrees>
            </Position>
            <AltitudeMeters>723.20001220703125</AltitudeMeters>
            <DistanceMeters>533499.77949802</DistanceMeters>
          </Trackpoint>
          <Trackpoint>
            <Time>2021-08-03T10:18:26.000Z</Time>
            <Position>
              <LatitudeDegrees>41.14443493075668811798095703125</LatitudeDegrees>
              <LongitudeDegrees>-1.46529271267354488372802734375</LongitudeDegrees>
            </Position>
            <AltitudeMeters>723.5999755859375</AltitudeMeters>
            <DistanceMeters>533519.25186074</DistanceMeters>
          </Trackpoint>
          <Trackpoint>
            <Time>2021-08-03T10:18:40.000Z</Time>
            <Position>
              <LatitudeDegrees>41.14424684084951877593994140625</LatitudeDegrees>
              <LongitudeDegrees>-1.46459081210196018218994140625</LongitudeDegrees>
            </Position>
            <AltitudeMeters>724</AltitudeMeters>
            <DistanceMeters>533581.69648813</DistanceMeters>
          </Trackpoint>
          <Trackpoint>
            <Time>2021-08-03T10:18:42.000Z</Time>
            <Position>
              <LatitudeDegrees>41.14424415864050388336181640625</LatitudeDegrees>
              <LongitudeDegrees>-1.46448075771331787109375</LongitudeDegrees>
            </Position>
            <AltitudeMeters>723.79998779296875</AltitudeMeters>
            <DistanceMeters>533590.92582782</DistanceMeters>
          </Trackpoint>
          <Trackpoint>
            <Time>2021-08-03T10:18:55.000Z</Time>
            <Position>
              <LatitudeDegrees>41.14420593716204166412353515625</LatitudeDegrees>
              <LongitudeDegrees>-1.46408353932201862335205078125</LongitudeDegrees>
            </Position>
            <AltitudeMeters>724.4000244140625</AltitudeMeters>
            <DistanceMeters>533624.49003818</DistanceMeters>
          </Trackpoint>
          <Trackpoint>
            <Time>2021-08-03T10:18:56.000Z</Time>
            <Position>
              <LatitudeDegrees>41.144178695976734161376953125</LatitudeDegrees>
              <LongitudeDegrees>-1.46407373249530792236328125</LongitudeDegrees>
            </Position>
            <AltitudeMeters>724.5999755859375</AltitudeMeters>
            <DistanceMeters>533627.63023617</DistanceMeters>
          </Trackpoint>
          <Trackpoint>
            <Time>2021-08-03T10:19:00.000Z</Time>
            <Position>
              <LatitudeDegrees>41.14410669542849063873291015625</LatitudeDegrees>
              <LongitudeDegrees>-1.4639723114669322967529296875</LongitudeDegrees>
            </Position>
            <AltitudeMeters>724.79998779296875</AltitudeMeters>
            <DistanceMeters>533639.31272629</DistanceMeters>
          </Trackpoint>
          <Trackpoint>
            <Time>2021-08-03T10:19:01.000Z</Time>
            <Position>
              <LatitudeDegrees>41.1440916918218135833740234375</LatitudeDegrees>
              <LongitudeDegrees>-1.4639307372272014617919921875</LongitudeDegrees>
            </Position>
            <AltitudeMeters>725</AltitudeMeters>
            <DistanceMeters>533643.17740564</DistanceMeters>
          </Trackpoint>
          <Trackpoint>
            <Time>2021-08-03T10:19:16.000Z</Time>
            <Position>
              <LatitudeDegrees>41.1439002491533756256103515625</LatitudeDegrees>
              <LongitudeDegrees>-1.46323956549167633056640625</LongitudeDegrees>
            </Position>
            <AltitudeMeters>725.5999755859375</AltitudeMeters>
            <DistanceMeters>533704.90367553</DistanceMeters>
          </Trackpoint>
          <Trackpoint>
            <Time>2021-08-03T10:19:31.000Z</Time>
            <Position>
              <LatitudeDegrees>41.14359757862985134124755859375</LatitudeDegrees>
              <LongitudeDegrees>-1.46259315311908721923828125</LongitudeDegrees>
            </Position>
            <AltitudeMeters>726</AltitudeMeters>
            <DistanceMeters>533768.70334056</DistanceMeters>
          </Trackpoint>
          <Trackpoint>
            <Time>2021-08-03T10:19:33.000Z</Time>
            <Position>
              <LatitudeDegrees>41.14352616481482982635498046875</LatitudeDegrees>
              <LongitudeDegrees>-1.46250673569738864898681640625</LongitudeDegrees>
            </Position>
            <AltitudeMeters>726.20001220703125</AltitudeMeters>
            <DistanceMeters>533779.4569055</DistanceMeters>
          </Trackpoint>
          <Trackpoint>
            <Time>2021-08-03T10:19:35.000Z</Time>
            <Position>
              <LatitudeDegrees>41.1434546671807765960693359375</LatitudeDegrees>
              <LongitudeDegrees>-1.4624360762536525726318359375</LongitudeDegrees>
            </Position>
            <AltitudeMeters>726.4000244140625</AltitudeMeters>
            <DistanceMeters>533789.37707551</DistanceMeters>
          </Trackpoint>
          <Trackpoint>
            <Time>2021-08-03T10:19:49.000Z</Time>
            <Position>
              <LatitudeDegrees>41.14303196780383586883544921875</LatitudeDegrees>
              <LongitudeDegrees>-1.46199024282395839691162109375</LongitudeDegrees>
            </Position>
            <AltitudeMeters>726.79998779296875</AltitudeMeters>
            <DistanceMeters>533849.45936425</DistanceMeters>
          </Trackpoint>
          <Trackpoint>
            <Time>2021-08-03T10:19:50.000Z</Time>
            <Position>
              <LatitudeDegrees>41.1429943330585956573486328125</LatitudeDegrees>
              <LongitudeDegrees>-1.4619648456573486328125</LongitudeDegrees>
            </Position>
            <AltitudeMeters>726.79998779296875</AltitudeMeters>
            <DistanceMeters>533854.15814461</DistanceMeters>
          </Trackpoint>
          <Trackpoint>
            <Time>2021-08-03T10:20:05.000Z</Time>
            <Position>
              <LatitudeDegrees>41.1424617469310760498046875</LatitudeDegrees>
              <LongitudeDegrees>-1.46177868358790874481201171875</LongitudeDegrees>
            </Position>
            <AltitudeMeters>727.20001220703125</AltitudeMeters>
            <DistanceMeters>533915.45538433</DistanceMeters>
          </Trackpoint>
          <Trackpoint>
            <Time>2021-08-03T10:20:17.000Z</Time>
            <Position>
              <LatitudeDegrees>41.1420451663434505462646484375</LatitudeDegrees>
              <LongitudeDegrees>-1.46178773604333400726318359375</LongitudeDegrees>
            </Position>
            <AltitudeMeters>727.79998779296875</AltitudeMeters>
            <DistanceMeters>533961.82783676</DistanceMeters>
          </Trackpoint>
          <Trackpoint>
            <Time>2021-08-03T10:20:31.000Z</Time>
            <Position>
              <LatitudeDegrees>41.14151819609105587005615234375</LatitudeDegrees>
              <LongitudeDegrees>-1.46191530860960483551025390625</LongitudeDegrees>
            </Position>
            <AltitudeMeters>727.79998779296875</AltitudeMeters>
            <DistanceMeters>534021.44738834</DistanceMeters>
          </Trackpoint>
          <Trackpoint>
            <Time>2021-08-03T10:20:45.000Z</Time>
            <Position>
              <LatitudeDegrees>41.14097286947071552276611328125</LatitudeDegrees>
              <LongitudeDegrees>-1.4617837965488433837890625</LongitudeDegrees>
            </Position>
            <AltitudeMeters>728.5999755859375</AltitudeMeters>
            <DistanceMeters>534083.13626923</DistanceMeters>
          </Trackpoint>
          <Trackpoint>
            <Time>2021-08-03T10:21:00.000Z</Time>
            <Position>
              <LatitudeDegrees>41.1404274590313434600830078125</LatitudeDegrees>
              <LongitudeDegrees>-1.4616009034216403961181640625</LongitudeDegrees>
            </Position>
            <AltitudeMeters>728.5999755859375</AltitudeMeters>
            <DistanceMeters>534145.74733707</DistanceMeters>
          </Trackpoint>
          <Trackpoint>
            <Time>2021-08-03T10:21:14.000Z</Time>
            <Position>
              <LatitudeDegrees>41.13994860090315341949462890625</LatitudeDegrees>
              <LongitudeDegrees>-1.461234278976917266845703125</LongitudeDegrees>
            </Position>
            <AltitudeMeters>728.79998779296875</AltitudeMeters>
            <DistanceMeters>534207.2702182</DistanceMeters>
          </Trackpoint>
          <Trackpoint>
            <Time>2021-08-03T10:21:29.000Z</Time>
            <Position>
              <LatitudeDegrees>41.13956772722303867340087890625</LatitudeDegrees>
              <LongitudeDegrees>-1.460685096681118011474609375</LongitudeDegrees>
            </Position>
            <AltitudeMeters>729</AltitudeMeters>
            <DistanceMeters>534269.84976496</DistanceMeters>
          </Trackpoint>
          <Trackpoint>
            <Time>2021-08-03T10:21:33.000Z</Time>
            <Position>
              <LatitudeDegrees>41.1395389772951602935791015625</LatitudeDegrees>
              <LongitudeDegrees>-1.46049591712653636932373046875</LongitudeDegrees>
            </Position>
            <AltitudeMeters>729.20001220703125</AltitudeMeters>
            <DistanceMeters>534286.02692928</DistanceMeters>
          </Trackpoint>
          <Trackpoint>
            <Time>2021-08-03T10:21:48.000Z</Time>
            <Position>
              <LatitudeDegrees>41.13939237780869007110595703125</LatitudeDegrees>
              <LongitudeDegrees>-1.4597632549703121185302734375</LongitudeDegrees>
            </Position>
            <AltitudeMeters>729.79998779296875</AltitudeMeters>
            <DistanceMeters>534349.57131521</DistanceMeters>
          </Trackpoint>
          <Trackpoint>
            <Time>2021-08-03T10:22:06.000Z</Time>
            <Position>
              <LatitudeDegrees>41.139141507446765899658203125</LatitudeDegrees>
              <LongitudeDegrees>-1.45912245847284793853759765625</LongitudeDegrees>
            </Position>
            <AltitudeMeters>730</AltitudeMeters>
            <DistanceMeters>534410.1089262</DistanceMeters>
          </Trackpoint>
          <Trackpoint>
            <Time>2021-08-03T10:22:18.000Z</Time>
            <Position>
              <LatitudeDegrees>41.138810925185680389404296875</LatitudeDegrees>
              <LongitudeDegrees>-1.45872406661510467529296875</LongitudeDegrees>
            </Position>
            <AltitudeMeters>730.5999755859375</AltitudeMeters>
            <DistanceMeters>534459.79826702</DistanceMeters>
          </Trackpoint>
          <Trackpoint>
            <Time>2021-08-03T10:22:39.000Z</Time>
            <Position>
              <LatitudeDegrees>41.138389147818088531494140625</LatitudeDegrees>
              <LongitudeDegrees>-1.45834160037338733673095703125</LongitudeDegrees>
            </Position>
            <AltitudeMeters>731.4000244140625</AltitudeMeters>
            <DistanceMeters>534516.64577011</DistanceMeters>
          </Trackpoint>
          <Trackpoint>
            <Time>2021-08-03T10:22:59.000Z</Time>
            <Position>
              <LatitudeDegrees>41.1383175663650035858154296875</LatitudeDegrees>
              <LongitudeDegrees>-1.4585633017122745513916015625</LongitudeDegrees>
            </Position>
            <AltitudeMeters>732.20001220703125</AltitudeMeters>
            <DistanceMeters>534536.86548106</DistanceMeters>
          </Trackpoint>
          <Trackpoint>
            <Time>2021-08-03T10:23:00.000Z</Time>
            <Position>
              <LatitudeDegrees>41.13831815309822559356689453125</LatitudeDegrees>
              <LongitudeDegrees>-1.45857989788055419921875</LongitudeDegrees>
            </Position>
            <AltitudeMeters>732.4000244140625</AltitudeMeters>
            <DistanceMeters>534538.25560205</DistanceMeters>
          </Trackpoint>
          <Trackpoint>
            <Time>2021-08-03T10:23:05.000Z</Time>
            <Position>
              <LatitudeDegrees>41.13828211091458797454833984375</LatitudeDegrees>
              <LongitudeDegrees>-1.45864116959273815155029296875</LongitudeDegrees>
            </Position>
            <AltitudeMeters>732.79998779296875</AltitudeMeters>
            <DistanceMeters>534544.77169132</DistanceMeters>
          </Trackpoint>
          <Trackpoint>
            <Time>2021-08-03T10:23:10.000Z</Time>
            <Position>
              <LatitudeDegrees>41.13818806596100330352783203125</LatitudeDegrees>
              <LongitudeDegrees>-1.4586241543292999267578125</LongitudeDegrees>
            </Position>
            <AltitudeMeters>733.79998779296875</AltitudeMeters>
            <DistanceMeters>534555.33548253</DistanceMeters>
          </Trackpoint>
          <Trackpoint>
            <Time>2021-08-03T10:23:28.000Z</Time>
            <Position>
              <LatitudeDegrees>41.137801744043827056884765625</LatitudeDegrees>
              <LongitudeDegrees>-1.4582367427647113800048828125</LongitudeDegrees>
            </Position>
            <AltitudeMeters>732.79998779296875</AltitudeMeters>
            <DistanceMeters>534609.21940035</DistanceMeters>
          </Trackpoint>
          <Trackpoint>
            <Time>2021-08-03T10:23:38.000Z</Time>
            <Position>
              <LatitudeDegrees>41.1375548131763935089111328125</LatitudeDegrees>
              <LongitudeDegrees>-1.45819257013499736785888671875</LongitudeDegrees>
            </Position>
            <AltitudeMeters>732.20001220703125</AltitudeMeters>
            <DistanceMeters>534636.95157571</DistanceMeters>
          </Trackpoint>
          <Trackpoint>
            <Time>2021-08-03T10:23:56.000Z</Time>
            <Position>
              <LatitudeDegrees>41.137025915086269378662109375</LatitudeDegrees>
              <LongitudeDegrees>-1.45801940001547336578369140625</LongitudeDegrees>
            </Position>
            <AltitudeMeters>733</AltitudeMeters>
            <DistanceMeters>534697.58226852</DistanceMeters>
          </Trackpoint>
          <Trackpoint>
            <Time>2021-08-03T10:24:11.000Z</Time>
            <Position>
              <LatitudeDegrees>41.13659374415874481201171875</LatitudeDegrees>
              <LongitudeDegrees>-1.45809483714401721954345703125</LongitudeDegrees>
            </Position>
            <AltitudeMeters>733.20001220703125</AltitudeMeters>
            <DistanceMeters>534746.09766407</DistanceMeters>
          </Trackpoint>
          <Trackpoint>
            <Time>2021-08-03T10:24:17.000Z</Time>
            <Position>
              <LatitudeDegrees>41.1364463903009891510009765625</LatitudeDegrees>
              <LongitudeDegrees>-1.4580721221864223480224609375</LongitudeDegrees>
            </Position>
            <AltitudeMeters>733.20001220703125</AltitudeMeters>
            <DistanceMeters>534762.60881206</DistanceMeters>
          </Trackpoint>
          <Trackpoint>
            <Time>2021-08-03T10:24:37.000Z</Time>
            <Position>
              <LatitudeDegrees>41.13595831207931041717529296875</LatitudeDegrees>
              <LongitudeDegrees>-1.45789367146790027618408203125</LongitudeDegrees>
            </Position>
            <AltitudeMeters>733</AltitudeMeters>
            <DistanceMeters>534818.95484605</DistanceMeters>
          </Trackpoint>
          <Trackpoint>
            <Time>2021-08-03T10:24:59.000Z</Time>
            <Position>
              <LatitudeDegrees>41.1355438269674777984619140625</LatitudeDegrees>
              <LongitudeDegrees>-1.45742847584187984466552734375</LongitudeDegrees>
            </Position>
            <AltitudeMeters>733.4000244140625</AltitudeMeters>
            <DistanceMeters>534879.36134843</DistanceMeters>
          </Trackpoint>
          <Trackpoint>
            <Time>2021-08-03T10:25:15.000Z</Time>
            <Position>
              <LatitudeDegrees>41.13526873290538787841796875</LatitudeDegrees>
              <LongitudeDegrees>-1.457237787544727325439453125</LongitudeDegrees>
            </Position>
            <AltitudeMeters>734</AltitudeMeters>
            <DistanceMeters>534913.90143499</DistanceMeters>
          </Trackpoint>
          <Trackpoint>
            <Time>2021-08-03T10:25:22.000Z</Time>
            <Position>
              <LatitudeDegrees>41.135171838104724884033203125</LatitudeDegrees>
              <LongitudeDegrees>-1.45721490494906902313232421875</LongitudeDegrees>
            </Position>
            <AltitudeMeters>734.79998779296875</AltitudeMeters>
            <DistanceMeters>534924.85550528</DistanceMeters>
          </Trackpoint>
          <Trackpoint>
            <Time>2021-08-03T10:25:23.000Z</Time>
            <Position>
              <LatitudeDegrees>41.13515683449804782867431640625</LatitudeDegrees>
              <LongitudeDegrees>-1.4571920223534107208251953125</LongitudeDegrees>
            </Position>
            <AltitudeMeters>735</AltitudeMeters>
            <DistanceMeters>534927.39824686</DistanceMeters>
          </Trackpoint>
          <Trackpoint>
            <Time>2021-08-03T10:25:26.000Z</Time>
            <Position>
              <LatitudeDegrees>41.13508977927267551422119140625</LatitudeDegrees>
              <LongitudeDegrees>-1.45711348392069339752197265625</LongitudeDegrees>
            </Position>
            <AltitudeMeters>735</AltitudeMeters>
            <DistanceMeters>534937.35022547</DistanceMeters>
          </Trackpoint>
          <Trackpoint>
            <Time>2021-08-03T10:25:44.000Z</Time>
            <Position>
              <LatitudeDegrees>41.1347170360386371612548828125</LatitudeDegrees>
              <LongitudeDegrees>-1.456715762615203857421875</LongitudeDegrees>
            </Position>
            <AltitudeMeters>736</AltitudeMeters>
            <DistanceMeters>534990.57392387</DistanceMeters>
          </Trackpoint>
          <Trackpoint>
            <Time>2021-08-03T10:26:07.000Z</Time>
            <Position>
              <LatitudeDegrees>41.134259216487407684326171875</LatitudeDegrees>
              <LongitudeDegrees>-1.45646430552005767822265625</LongitudeDegrees>
            </Position>
            <AltitudeMeters>737</AltitudeMeters>
            <DistanceMeters>535045.71824636</DistanceMeters>
          </Trackpoint>
          <Trackpoint>
            <Time>2021-08-03T10:26:17.000Z</Time>
            <Position>
              <LatitudeDegrees>41.1341138742864131927490234375</LatitudeDegrees>
              <LongitudeDegrees>-1.45631971769034862518310546875</LongitudeDegrees>
            </Position>
            <AltitudeMeters>738</AltitudeMeters>
            <DistanceMeters>535065.93237407</DistanceMeters>
          </Trackpoint>
          <Trackpoint>
            <Time>2021-08-03T10:26:37.000Z</Time>
            <Position>
              <LatitudeDegrees>41.13372512161731719970703125</LatitudeDegrees>
              <LongitudeDegrees>-1.4563099108636379241943359375</LongitudeDegrees>
            </Position>
            <AltitudeMeters>739.20001220703125</AltitudeMeters>
            <DistanceMeters>535109.20929673</DistanceMeters>
          </Trackpoint>
          <Trackpoint>
            <Time>2021-08-03T10:26:44.000Z</Time>
            <Position>
              <LatitudeDegrees>41.13360852934420108795166015625</LatitudeDegrees>
              <LongitudeDegrees>-1.45633212290704250335693359375</LongitudeDegrees>
            </Position>
            <AltitudeMeters>738.20001220703125</AltitudeMeters>
            <DistanceMeters>535122.31953986</DistanceMeters>
          </Trackpoint>
          <Trackpoint>
            <Time>2021-08-03T10:26:49.000Z</Time>
            <Position>
              <LatitudeDegrees>41.13351632840931415557861328125</LatitudeDegrees>
              <LongitudeDegrees>-1.45631636492908000946044921875</LongitudeDegrees>
            </Position>
            <AltitudeMeters>738.4000244140625</AltitudeMeters>
            <DistanceMeters>535132.66654843</DistanceMeters>
          </Trackpoint>
          <Trackpoint>
            <Time>2021-08-03T10:26:59.000Z</Time>
            <Position>
              <LatitudeDegrees>41.133341230452060699462890625</LatitudeDegrees>
              <LongitudeDegrees>-1.45603087730705738067626953125</LongitudeDegrees>
            </Position>
            <AltitudeMeters>737.4000244140625</AltitudeMeters>
            <DistanceMeters>535163.53034168</DistanceMeters>
          </Trackpoint>
          <Trackpoint>
            <Time>2021-08-03T10:27:18.000Z</Time>
            <Position>
              <LatitudeDegrees>41.13294593989849090576171875</LatitudeDegrees>
              <LongitudeDegrees>-1.45553181879222393035888671875</LongitudeDegrees>
            </Position>
            <AltitudeMeters>736.4000244140625</AltitudeMeters>
            <DistanceMeters>535224.24267077</DistanceMeters>
          </Trackpoint>
          <Trackpoint>
            <Time>2021-08-03T10:27:19.000Z</Time>
            <Position>
              <LatitudeDegrees>41.1329169385135173797607421875</LatitudeDegrees>
              <LongitudeDegrees>-1.4555136300623416900634765625</LongitudeDegrees>
            </Position>
            <AltitudeMeters>736.20001220703125</AltitudeMeters>
            <DistanceMeters>535227.81218585</DistanceMeters>
          </Trackpoint>
          <Trackpoint>
            <Time>2021-08-03T10:27:25.000Z</Time>
            <Position>
              <LatitudeDegrees>41.1327244900166988372802734375</LatitudeDegrees>
              <LongitudeDegrees>-1.45548504777252674102783203125</LongitudeDegrees>
            </Position>
            <AltitudeMeters>735.20001220703125</AltitudeMeters>
            <DistanceMeters>535249.3656608</DistanceMeters>
          </Trackpoint>
          <Trackpoint>
            <Time>2021-08-03T10:27:41.000Z</Time>
            <Position>
              <LatitudeDegrees>41.13218612037599086761474609375</LatitudeDegrees>
              <LongitudeDegrees>-1.4554184116423130035400390625</LongitudeDegrees>
            </Position>
            <AltitudeMeters>735.4000244140625</AltitudeMeters>
            <DistanceMeters>535309.54706258</DistanceMeters>
          </Trackpoint>
          <Trackpoint>
            <Time>2021-08-03T10:27:48.000Z</Time>
            <Position>
              <LatitudeDegrees>41.13199107348918914794921875</LatitudeDegrees>
              <LongitudeDegrees>-1.45531958900392055511474609375</LongitudeDegrees>
            </Position>
            <AltitudeMeters>736.5999755859375</AltitudeMeters>
            <DistanceMeters>535332.7833775</DistanceMeters>
          </Trackpoint>
          <Trackpoint>
            <Time>2021-08-03T10:28:09.000Z</Time>
            <Position>
              <LatitudeDegrees>41.1315934360027313232421875</LatitudeDegrees>
              <LongitudeDegrees>-1.4548129029572010040283203125</LongitudeDegrees>
            </Position>
            <AltitudeMeters>737</AltitudeMeters>
            <DistanceMeters>535394.12693067</DistanceMeters>
          </Trackpoint>
          <Trackpoint>
            <Time>2021-08-03T10:28:24.000Z</Time>
            <Position>
              <LatitudeDegrees>41.131530739367008209228515625</LatitudeDegrees>
              <LongitudeDegrees>-1.45412667654454708099365234375</LongitudeDegrees>
            </Position>
            <AltitudeMeters>736.20001220703125</AltitudeMeters>
            <DistanceMeters>535452.07686707</DistanceMeters>
          </Trackpoint>
          <Trackpoint>
            <Time>2021-08-03T10:28:40.000Z</Time>
            <Position>
              <LatitudeDegrees>41.13131674937903881072998046875</LatitudeDegrees>
              <LongitudeDegrees>-1.45343382842838764190673828125</LongitudeDegrees>
            </Position>
            <AltitudeMeters>736.79998779296875</AltitudeMeters>
            <DistanceMeters>535514.854006</DistanceMeters>
          </Trackpoint>
          <Trackpoint>
            <Time>2021-08-03T10:28:47.000Z</Time>
            <Position>
              <LatitudeDegrees>41.13115497864782810211181640625</LatitudeDegrees>
              <LongitudeDegrees>-1.45313970744609832763671875</LongitudeDegrees>
            </Position>
            <AltitudeMeters>736.5999755859375</AltitudeMeters>
            <DistanceMeters>535545.38554365</DistanceMeters>
          </Trackpoint>
          <Trackpoint>
            <Time>2021-08-03T10:28:52.000Z</Time>
            <Position>
              <LatitudeDegrees>41.13095750100910663604736328125</LatitudeDegrees>
              <LongitudeDegrees>-1.4530278928577899932861328125</LongitudeDegrees>
            </Position>
            <AltitudeMeters>735.79998779296875</AltitudeMeters>
            <DistanceMeters>535569.28093638</DistanceMeters>
          </Trackpoint>
          <Trackpoint>
            <Time>2021-08-03T10:28:53.000Z</Time>
            <Position>
              <LatitudeDegrees>41.1309170164167881011962890625</LatitudeDegrees>
              <LongitudeDegrees>-1.45301540382206439971923828125</LongitudeDegrees>
            </Position>
            <AltitudeMeters>736</AltitudeMeters>
            <DistanceMeters>535573.90708826</DistanceMeters>
          </Trackpoint>
          <Trackpoint>
            <Time>2021-08-03T10:28:56.000Z</Time>
            <Position>
              <LatitudeDegrees>41.13080142997205257415771484375</LatitudeDegrees>
              <LongitudeDegrees>-1.452969722449779510498046875</LongitudeDegrees>
            </Position>
            <AltitudeMeters>736.5999755859375</AltitudeMeters>
            <DistanceMeters>535587.3300952</DistanceMeters>
          </Trackpoint>
          <Trackpoint>
            <Time>2021-08-03T10:28:59.000Z</Time>
            <Position>
              <LatitudeDegrees>41.13070788793265819549560546875</LatitudeDegrees>
              <LongitudeDegrees>-1.4528659544885158538818359375</LongitudeDegrees>
            </Position>
            <AltitudeMeters>737</AltitudeMeters>
            <DistanceMeters>535600.89763397</DistanceMeters>
          </Trackpoint>
          <Trackpoint>
            <Time>2021-08-03T10:29:07.000Z</Time>
            <Position>
              <LatitudeDegrees>41.13047336228191852569580078125</LatitudeDegrees>
              <LongitudeDegrees>-1.45262078382074832916259765625</LongitudeDegrees>
            </Position>
            <AltitudeMeters>736.79998779296875</AltitudeMeters>
            <DistanceMeters>535634.12153371</DistanceMeters>
          </Trackpoint>
          <Trackpoint>
            <Time>2021-08-03T10:29:22.000Z</Time>
            <Position>
              <LatitudeDegrees>41.12993289716541767120361328125</LatitudeDegrees>
              <LongitudeDegrees>-1.452581472694873809814453125</LongitudeDegrees>
            </Position>
            <AltitudeMeters>737.4000244140625</AltitudeMeters>
            <DistanceMeters>535694.36667199</DistanceMeters>
          </Trackpoint>
          <Trackpoint>
            <Time>2021-08-03T10:29:23.000Z</Time>
            <Position>
              <LatitudeDegrees>41.12990305759012699127197265625</LatitudeDegrees>
              <LongitudeDegrees>-1.45255766808986663818359375</LongitudeDegrees>
            </Position>
            <AltitudeMeters>737.4000244140625</AltitudeMeters>
            <DistanceMeters>535698.24068632</DistanceMeters>
          </Trackpoint>
          <Trackpoint>
            <Time>2021-08-03T10:29:30.000Z</Time>
            <Position>
              <LatitudeDegrees>41.1299574561417102813720703125</LatitudeDegrees>
              <LongitudeDegrees>-1.452319957315921783447265625</LongitudeDegrees>
            </Position>
            <AltitudeMeters>737</AltitudeMeters>
            <DistanceMeters>535719.06866923</DistanceMeters>
          </Trackpoint>
          <Trackpoint>
            <Time>2021-08-03T10:29:43.000Z</Time>
            <Position>
              <LatitudeDegrees>41.1302823387086391448974609375</LatitudeDegrees>
              <LongitudeDegrees>-1.4517384208738803863525390625</LongitudeDegrees>
            </Position>
            <AltitudeMeters>736.20001220703125</AltitudeMeters>
            <DistanceMeters>535779.76790819</DistanceMeters>
          </Trackpoint>
          <Trackpoint>
            <Time>2021-08-03T10:29:48.000Z</Time>
            <Position>
              <LatitudeDegrees>41.13042390905320644378662109375</LatitudeDegrees>
              <LongitudeDegrees>-1.45146810449659824371337890625</LongitudeDegrees>
            </Position>
            <AltitudeMeters>736</AltitudeMeters>
            <DistanceMeters>535807.36952933</DistanceMeters>
          </Trackpoint>
          <Trackpoint>
            <Time>2021-08-03T10:30:01.000Z</Time>
            <Position>
              <LatitudeDegrees>41.1306947283446788787841796875</LatitudeDegrees>
              <LongitudeDegrees>-1.45092445425689220428466796875</LongitudeDegrees>
            </Position>
            <AltitudeMeters>737.20001220703125</AltitudeMeters>
            <DistanceMeters>535862.01195585</DistanceMeters>
          </Trackpoint>
          <Trackpoint>
            <Time>2021-08-03T10:30:11.000Z</Time>
            <Position>
              <LatitudeDegrees>41.13043681718409061431884765625</LatitudeDegrees>
              <LongitudeDegrees>-1.4507403038442134857177734375</LongitudeDegrees>
            </Position>
            <AltitudeMeters>737.20001220703125</AltitudeMeters>
            <DistanceMeters>535894.60598036</DistanceMeters>
          </Trackpoint>
          <Trackpoint>
            <Time>2021-08-03T10:30:12.000Z</Time>
            <Position>
              <LatitudeDegrees>41.13041401840746402740478515625</LatitudeDegrees>
              <LongitudeDegrees>-1.45072949118912220001220703125</LongitudeDegrees>
            </Position>
            <AltitudeMeters>737.20001220703125</AltitudeMeters>
            <DistanceMeters>535897.30045275</DistanceMeters>
          </Trackpoint>
          <Trackpoint>
            <Time>2021-08-03T10:30:20.000Z</Time>
            <Position>
              <LatitudeDegrees>41.1302615515887737274169921875</LatitudeDegrees>
              <LongitudeDegrees>-1.45063393749296665191650390625</LongitudeDegrees>
            </Position>
            <AltitudeMeters>737.79998779296875</AltitudeMeters>
            <DistanceMeters>535916.06576279</DistanceMeters>
          </Trackpoint>
          <Trackpoint>
            <Time>2021-08-03T10:30:38.000Z</Time>
            <Position>
              <LatitudeDegrees>41.13021184690296649932861328125</LatitudeDegrees>
              <LongitudeDegrees>-1.4505937881767749786376953125</LongitudeDegrees>
            </Position>
            <AltitudeMeters>737.5999755859375</AltitudeMeters>
            <DistanceMeters>535922.54014422</DistanceMeters>
          </Trackpoint>
          <Trackpoint>
            <Time>2021-08-03T10:30:56.000Z</Time>
            <Position>
              <LatitudeDegrees>41.1296972818672657012939453125</LatitudeDegrees>
              <LongitudeDegrees>-1.45036764442920684814453125</LongitudeDegrees>
            </Position>
            <AltitudeMeters>737.79998779296875</AltitudeMeters>
            <DistanceMeters>535982.86856315</DistanceMeters>
          </Trackpoint>
          <Trackpoint>
            <Time>2021-08-03T10:31:10.000Z</Time>
            <Position>
              <LatitudeDegrees>41.1291725747287273406982421875</LatitudeDegrees>
              <LongitudeDegrees>-1.45004334859549999237060546875</LongitudeDegrees>
            </Position>
            <AltitudeMeters>738</AltitudeMeters>
            <DistanceMeters>536047.28777488</DistanceMeters>
          </Trackpoint>
          <Trackpoint>
            <Time>2021-08-03T10:31:19.000Z</Time>
            <Position>
              <LatitudeDegrees>41.12881802022457122802734375</LatitudeDegrees>
              <LongitudeDegrees>-1.44987168721854686737060546875</LongitudeDegrees>
            </Position>
            <AltitudeMeters>738.5999755859375</AltitudeMeters>
            <DistanceMeters>536089.29259242</DistanceMeters>
          </Trackpoint>
          <Trackpoint>
            <Time>2021-08-03T10:31:32.000Z</Time>
            <Position>
              <LatitudeDegrees>41.12831602804362773895263671875</LatitudeDegrees>
              <LongitudeDegrees>-1.44958586432039737701416015625</LongitudeDegrees>
            </Position>
            <AltitudeMeters>738</AltitudeMeters>
            <DistanceMeters>536150.08689378</DistanceMeters>
          </Trackpoint>
          <Trackpoint>
            <Time>2021-08-03T10:31:45.000Z</Time>
            <Position>
              <LatitudeDegrees>41.12780406139791011810302734375</LatitudeDegrees>
              <LongitudeDegrees>-1.449289731681346893310546875</LongitudeDegrees>
            </Position>
            <AltitudeMeters>738.5999755859375</AltitudeMeters>
            <DistanceMeters>536212.24337298</DistanceMeters>
          </Trackpoint>
          <Trackpoint>
            <Time>2021-08-03T10:31:57.000Z</Time>
            <Position>
              <LatitudeDegrees>41.1273314058780670166015625</LatitudeDegrees>
              <LongitudeDegrees>-1.4489003084599971771240234375</LongitudeDegrees>
            </Position>
            <AltitudeMeters>738.5999755859375</AltitudeMeters>
            <DistanceMeters>536274.15836399</DistanceMeters>
          </Trackpoint>
          <Trackpoint>
            <Time>2021-08-03T10:32:06.000Z</Time>
            <Position>
              <LatitudeDegrees>41.12697534263134002685546875</LatitudeDegrees>
              <LongitudeDegrees>-1.44854868762195110321044921875</LongitudeDegrees>
            </Position>
            <AltitudeMeters>738.4000244140625</AltitudeMeters>
            <DistanceMeters>536323.55086982</DistanceMeters>
          </Trackpoint>
          <Trackpoint>
            <Time>2021-08-03T10:32:17.000Z</Time>
            <Position>
              <LatitudeDegrees>41.12660586833953857421875</LatitudeDegrees>
              <LongitudeDegrees>-1.4479665644466876983642578125</LongitudeDegrees>
            </Position>
            <AltitudeMeters>738.4000244140625</AltitudeMeters>
            <DistanceMeters>536387.37098382</DistanceMeters>
          </Trackpoint>
          <Trackpoint>
            <Time>2021-08-03T10:32:26.000Z</Time>
            <Position>
              <LatitudeDegrees>41.1262918822467327117919921875</LatitudeDegrees>
              <LongitudeDegrees>-1.4475079067051410675048828125</LongitudeDegrees>
            </Position>
            <AltitudeMeters>739.20001220703125</AltitudeMeters>
            <DistanceMeters>536439.33243931</DistanceMeters>
          </Trackpoint>
          <Trackpoint>
            <Time>2021-08-03T10:32:37.000Z</Time>
            <Position>
              <LatitudeDegrees>41.12597797997295856475830078125</LatitudeDegrees>
              <LongitudeDegrees>-1.44686870276927947998046875</LongitudeDegrees>
            </Position>
            <AltitudeMeters>738.5999755859375</AltitudeMeters>
            <DistanceMeters>536503.30602976</DistanceMeters>
          </Trackpoint>
          <Trackpoint>
            <Time>2021-08-03T10:32:43.000Z</Time>
            <Position>
              <LatitudeDegrees>41.12576088868081569671630859375</LatitudeDegrees>
              <LongitudeDegrees>-1.446590088307857513427734375</LongitudeDegrees>
            </Position>
            <AltitudeMeters>738.5999755859375</AltitudeMeters>
            <DistanceMeters>536536.91352746</DistanceMeters>
          </Trackpoint>
          <Trackpoint>
            <Time>2021-08-03T10:32:54.000Z</Time>
            <Position>
              <LatitudeDegrees>41.12531798891723155975341796875</LatitudeDegrees>
              <LongitudeDegrees>-1.44613704644143581390380859375</LongitudeDegrees>
            </Position>
            <AltitudeMeters>739.5999755859375</AltitudeMeters>
            <DistanceMeters>536599.14521605</DistanceMeters>
          </Trackpoint>
          <Trackpoint>
            <Time>2021-08-03T10:32:59.000Z</Time>
            <Position>
              <LatitudeDegrees>41.1251159012317657470703125</LatitudeDegrees>
              <LongitudeDegrees>-1.44593018107116222381591796875</LongitudeDegrees>
            </Position>
            <AltitudeMeters>739.20001220703125</AltitudeMeters>
            <DistanceMeters>536627.54819071</DistanceMeters>
          </Trackpoint>
          <Trackpoint>
            <Time>2021-08-03T10:33:02.000Z</Time>
            <Position>
              <LatitudeDegrees>41.12497852183878421783447265625</LatitudeDegrees>
              <LongitudeDegrees>-1.44584116525948047637939453125</LongitudeDegrees>
            </Position>
            <AltitudeMeters>739.20001220703125</AltitudeMeters>
            <DistanceMeters>536644.56301515</DistanceMeters>
          </Trackpoint>
          <Trackpoint>
            <Time>2021-08-03T10:33:09.000Z</Time>
            <Position>
              <LatitudeDegrees>41.12463704310357570648193359375</LatitudeDegrees>
              <LongitudeDegrees>-1.44566841423511505126953125</LongitudeDegrees>
            </Position>
            <AltitudeMeters>739.20001220703125</AltitudeMeters>
            <DistanceMeters>536685.23655809</DistanceMeters>
          </Trackpoint>
          <Trackpoint>
            <Time>2021-08-03T10:33:20.000Z</Time>
            <Position>
              <LatitudeDegrees>41.12414536066353321075439453125</LatitudeDegrees>
              <LongitudeDegrees>-1.44526096992194652557373046875</LongitudeDegrees>
            </Position>
            <AltitudeMeters>739.5999755859375</AltitudeMeters>
            <DistanceMeters>536749.74878004</DistanceMeters>
          </Trackpoint>
          <Trackpoint>
            <Time>2021-08-03T10:33:31.000Z</Time>
            <Position>
              <LatitudeDegrees>41.12367563880980014801025390625</LatitudeDegrees>
              <LongitudeDegrees>-1.44486802630126476287841796875</LongitudeDegrees>
            </Position>
            <AltitudeMeters>739.5999755859375</AltitudeMeters>
            <DistanceMeters>536811.54442663</DistanceMeters>
          </Trackpoint>
          <Trackpoint>
            <Time>2021-08-03T10:33:36.000Z</Time>
            <Position>
              <LatitudeDegrees>41.12343323417007923126220703125</LatitudeDegrees>
              <LongitudeDegrees>-1.4446748234331607818603515625</LongitudeDegrees>
            </Position>
            <AltitudeMeters>740</AltitudeMeters>
            <DistanceMeters>536843.01391159</DistanceMeters>
          </Trackpoint>
          <Trackpoint>
            <Time>2021-08-03T10:33:47.000Z</Time>
            <Position>
              <LatitudeDegrees>41.12291514873504638671875</LatitudeDegrees>
              <LongitudeDegrees>-1.4443051815032958984375</LongitudeDegrees>
            </Position>
            <AltitudeMeters>740.5999755859375</AltitudeMeters>
            <DistanceMeters>536908.47869724</DistanceMeters>
          </Trackpoint>
          <Trackpoint>
            <Time>2021-08-03T10:33:57.000Z</Time>
            <Position>
              <LatitudeDegrees>41.122413575649261474609375</LatitudeDegrees>
              <LongitudeDegrees>-1.4439543150365352630615234375</LongitudeDegrees>
            </Position>
            <AltitudeMeters>740.20001220703125</AltitudeMeters>
            <DistanceMeters>536971.58158742</DistanceMeters>
          </Trackpoint>
          <Trackpoint>
            <Time>2021-08-03T10:34:01.000Z</Time>
            <Position>
              <LatitudeDegrees>41.1222263239324092864990234375</LatitudeDegrees>
              <LongitudeDegrees>-1.44381123594939708709716796875</LongitudeDegrees>
            </Position>
            <AltitudeMeters>740.20001220703125</AltitudeMeters>
            <DistanceMeters>536995.62916725</DistanceMeters>
          </Trackpoint>
          <Trackpoint>
            <Time>2021-08-03T10:34:05.000Z</Time>
            <Position>
              <LatitudeDegrees>41.12207620404660701751708984375</LatitudeDegrees>
              <LongitudeDegrees>-1.44359364174306392669677734375</LongitudeDegrees>
            </Position>
            <AltitudeMeters>740</AltitudeMeters>
            <DistanceMeters>537020.36825496</DistanceMeters>
          </Trackpoint>
          <Trackpoint>
            <Time>2021-08-03T10:34:15.000Z</Time>
            <Position>
              <LatitudeDegrees>41.1217351444065570831298828125</LatitudeDegrees>
              <LongitudeDegrees>-1.44302501343190670013427734375</LongitudeDegrees>
            </Position>
            <AltitudeMeters>740</AltitudeMeters>
            <DistanceMeters>537081.31142883</DistanceMeters>
          </Trackpoint>
          <Trackpoint>
            <Time>2021-08-03T10:34:26.000Z</Time>
            <Position>
              <LatitudeDegrees>41.1212905682623386383056640625</LatitudeDegrees>
              <LongitudeDegrees>-1.4425599016249179840087890625</LongitudeDegrees>
            </Position>
            <AltitudeMeters>740.79998779296875</AltitudeMeters>
            <DistanceMeters>537144.31378214</DistanceMeters>
          </Trackpoint>
          <Trackpoint>
            <Time>2021-08-03T10:34:36.000Z</Time>
            <Position>
              <LatitudeDegrees>41.12088664434850215911865234375</LatitudeDegrees>
              <LongitudeDegrees>-1.44216117449104785919189453125</LongitudeDegrees>
            </Position>
            <AltitudeMeters>741.20001220703125</AltitudeMeters>
            <DistanceMeters>537200.33934418</DistanceMeters>
          </Trackpoint>
          <Trackpoint>
            <Time>2021-08-03T10:34:43.000Z</Time>
            <Position>
              <LatitudeDegrees>41.12064340151846408843994140625</LatitudeDegrees>
              <LongitudeDegrees>-1.4418457634747028350830078125</LongitudeDegrees>
            </Position>
            <AltitudeMeters>742.20001220703125</AltitudeMeters>
            <DistanceMeters>537238.18599246</DistanceMeters>
          </Trackpoint>
          <Trackpoint>
            <Time>2021-08-03T10:34:49.000Z</Time>
            <Position>
              <LatitudeDegrees>41.12042815424501895904541015625</LatitudeDegrees>
              <LongitudeDegrees>-1.44158667884767055511474609375</LongitudeDegrees>
            </Position>
            <AltitudeMeters>742.20001220703125</AltitudeMeters>
            <DistanceMeters>537270.52580467</DistanceMeters>
          </Trackpoint>
          <Trackpoint>
            <Time>2021-08-03T10:35:01.000Z</Time>
            <Position>
              <LatitudeDegrees>41.1199860088527202606201171875</LatitudeDegrees>
              <LongitudeDegrees>-1.44107789732515811920166015625</LongitudeDegrees>
            </Position>
            <AltitudeMeters>743</AltitudeMeters>
            <DistanceMeters>537335.65384538</DistanceMeters>
          </Trackpoint>
          <Trackpoint>
            <Time>2021-08-03T10:35:06.000Z</Time>
            <Position>
              <LatitudeDegrees>41.11977771855890750885009765625</LatitudeDegrees>
              <LongitudeDegrees>-1.44089215435087680816650390625</LongitudeDegrees>
            </Position>
            <AltitudeMeters>743</AltitudeMeters>
            <DistanceMeters>537363.58232445</DistanceMeters>
          </Trackpoint>
          <Trackpoint>
            <Time>2021-08-03T10:35:08.000Z</Time>
            <Position>
              <LatitudeDegrees>41.1197134293615818023681640625</LatitudeDegrees>
              <LongitudeDegrees>-1.440805904567241668701171875</LongitudeDegrees>
            </Position>
            <AltitudeMeters>743.4000244140625</AltitudeMeters>
            <DistanceMeters>537373.7559539</DistanceMeters>
          </Trackpoint>
          <Trackpoint>
            <Time>2021-08-03T10:35:14.000Z</Time>
            <Position>
              <LatitudeDegrees>41.1195323802530765533447265625</LatitudeDegrees>
              <LongitudeDegrees>-1.4405368454754352569580078125</LongitudeDegrees>
            </Position>
            <AltitudeMeters>744</AltitudeMeters>
            <DistanceMeters>537404.00551103</DistanceMeters>
          </Trackpoint>
          <Trackpoint>
            <Time>2021-08-03T10:35:25.000Z</Time>
            <Position>
              <LatitudeDegrees>41.1191897280514240264892578125</LatitudeDegrees>
              <LongitudeDegrees>-1.4399333484470844268798828125</LongitudeDegrees>
            </Position>
            <AltitudeMeters>743.5999755859375</AltitudeMeters>
            <DistanceMeters>537467.37023339</DistanceMeters>
          </Trackpoint>
          <Trackpoint>
            <Time>2021-08-03T10:35:37.000Z</Time>
            <Position>
              <LatitudeDegrees>41.11883710138499736785888671875</LatitudeDegrees>
              <LongitudeDegrees>-1.4393248222768306732177734375</LongitudeDegrees>
            </Position>
            <AltitudeMeters>744</AltitudeMeters>
            <DistanceMeters>537531.74331045</DistanceMeters>
          </Trackpoint>
          <Trackpoint>
            <Time>2021-08-03T10:35:49.000Z</Time>
            <Position>
              <LatitudeDegrees>41.11845689825713634490966796875</LatitudeDegrees>
              <LongitudeDegrees>-1.4387374185025691986083984375</LongitudeDegrees>
            </Position>
            <AltitudeMeters>744.4000244140625</AltitudeMeters>
            <DistanceMeters>537596.67903541</DistanceMeters>
          </Trackpoint>
          <Trackpoint>
            <Time>2021-08-03T10:36:00.000Z</Time>
            <Position>
              <LatitudeDegrees>41.118088848888874053955078125</LatitudeDegrees>
              <LongitudeDegrees>-1.438181698322296142578125</LongitudeDegrees>
            </Position>
            <AltitudeMeters>744.4000244140625</AltitudeMeters>
            <DistanceMeters>537658.72238402</DistanceMeters>
          </Trackpoint>
          <Trackpoint>
            <Time>2021-08-03T10:36:03.000Z</Time>
            <Position>
              <LatitudeDegrees>41.11798248253762722015380859375</LatitudeDegrees>
              <LongitudeDegrees>-1.43803124316036701202392578125</LongitudeDegrees>
            </Position>
            <AltitudeMeters>744.20001220703125</AltitudeMeters>
            <DistanceMeters>537676.02298845</DistanceMeters>
          </Trackpoint>
          <Trackpoint>
            <Time>2021-08-03T10:36:09.000Z</Time>
            <Position>
              <LatitudeDegrees>41.11777729354798793792724609375</LatitudeDegrees>
              <LongitudeDegrees>-1.43773217685520648956298828125</LongitudeDegrees>
            </Position>
            <AltitudeMeters>744.20001220703125</AltitudeMeters>
            <DistanceMeters>537709.94073718</DistanceMeters>
          </Trackpoint>
          <Trackpoint>
            <Time>2021-08-03T10:36:15.000Z</Time>
            <Position>
              <LatitudeDegrees>41.11757914535701274871826171875</LatitudeDegrees>
              <LongitudeDegrees>-1.4374293386936187744140625</LongitudeDegrees>
            </Position>
            <AltitudeMeters>744.5999755859375</AltitudeMeters>
            <DistanceMeters>537743.57415369</DistanceMeters>
          </Trackpoint>
          <Trackpoint>
            <Time>2021-08-03T10:36:27.000Z</Time>
            <Position>
              <LatitudeDegrees>41.11716005019843578338623046875</LatitudeDegrees>
              <LongitudeDegrees>-1.4368990994989871978759765625</LongitudeDegrees>
            </Position>
            <AltitudeMeters>745.4000244140625</AltitudeMeters>
            <DistanceMeters>537808.01515922</DistanceMeters>
          </Trackpoint>
          <Trackpoint>
            <Time>2021-08-03T10:36:28.000Z</Time>
            <Position>
              <LatitudeDegrees>41.11712752841413021087646484375</LatitudeDegrees>
              <LongitudeDegrees>-1.43685878254473209381103515625</LongitudeDegrees>
            </Position>
            <AltitudeMeters>745.5999755859375</AltitudeMeters>
            <DistanceMeters>537812.96841247</DistanceMeters>
          </Trackpoint>
          <Trackpoint>
            <Time>2021-08-03T10:36:39.000Z</Time>
            <Position>
              <LatitudeDegrees>41.1167784221470355987548828125</LatitudeDegrees>
              <LongitudeDegrees>-1.43644136376678943634033203125</LongitudeDegrees>
            </Position>
            <AltitudeMeters>746.4000244140625</AltitudeMeters>
            <DistanceMeters>537865.26462746</DistanceMeters>
          </Trackpoint>
          <Trackpoint>
            <Time>2021-08-03T10:36:50.000Z</Time>
            <Position>
              <LatitudeDegrees>41.11641054041683673858642578125</LatitudeDegrees>
              <LongitudeDegrees>-1.43598220311105251312255859375</LongitudeDegrees>
            </Position>
            <AltitudeMeters>746</AltitudeMeters>
            <DistanceMeters>537921.4690531</DistanceMeters>
          </Trackpoint>
          <Trackpoint>
            <Time>2021-08-03T10:36:54.000Z</Time>
            <Position>
              <LatitudeDegrees>41.11629805527627468109130859375</LatitudeDegrees>
              <LongitudeDegrees>-1.4357913471758365631103515625</LongitudeDegrees>
            </Position>
            <AltitudeMeters>745.79998779296875</AltitudeMeters>
            <DistanceMeters>537941.78788907</DistanceMeters>
          </Trackpoint>
          <Trackpoint>
            <Time>2021-08-03T10:37:06.000Z</Time>
            <Position>
              <LatitudeDegrees>41.1160582490265369415283203125</LatitudeDegrees>
              <LongitudeDegrees>-1.435150802135467529296875</LongitudeDegrees>
            </Position>
            <AltitudeMeters>745.4000244140625</AltitudeMeters>
            <DistanceMeters>538001.76548116</DistanceMeters>
          </Trackpoint>
          <Trackpoint>
            <Time>2021-08-03T10:37:07.000Z</Time>
            <Position>
              <LatitudeDegrees>41.11603905446827411651611328125</LatitudeDegrees>
              <LongitudeDegrees>-1.43510059453547000885009765625</LongitudeDegrees>
            </Position>
            <AltitudeMeters>745.4000244140625</AltitudeMeters>
            <DistanceMeters>538006.48631039</DistanceMeters>
          </Trackpoint>
          <Trackpoint>
            <Time>2021-08-03T10:37:20.000Z</Time>
            <Position>
              <LatitudeDegrees>41.115817017853260040283203125</LatitudeDegrees>
              <LongitudeDegrees>-1.43444797955453395843505859375</LongitudeDegrees>
            </Position>
            <AltitudeMeters>745.79998779296875</AltitudeMeters>
            <DistanceMeters>538066.53138956</DistanceMeters>
          </Trackpoint>
          <Trackpoint>
            <Time>2021-08-03T10:37:33.000Z</Time>
            <Position>
              <LatitudeDegrees>41.11572691239416599273681640625</LatitudeDegrees>
              <LongitudeDegrees>-1.43368958495557308197021484375</LongitudeDegrees>
            </Position>
            <AltitudeMeters>746.20001220703125</AltitudeMeters>
            <DistanceMeters>538130.91098918</DistanceMeters>
          </Trackpoint>
          <Trackpoint>
            <Time>2021-08-03T10:37:37.000Z</Time>
            <Position>
              <LatitudeDegrees>41.115701682865619659423828125</LatitudeDegrees>
              <LongitudeDegrees>-1.4334544725716114044189453125</LongitudeDegrees>
            </Position>
            <AltitudeMeters>746.79998779296875</AltitudeMeters>
            <DistanceMeters>538150.8246982</DistanceMeters>
          </Trackpoint>
          <Trackpoint>
            <Time>2021-08-03T10:37:43.000Z</Time>
            <Position>
              <LatitudeDegrees>41.11563169397413730621337890625</LatitudeDegrees>
              <LongitudeDegrees>-1.43314258195459842681884765625</LongitudeDegrees>
            </Position>
            <AltitudeMeters>747.20001220703125</AltitudeMeters>
            <DistanceMeters>538178.11308811</DistanceMeters>
          </Trackpoint>
          <Trackpoint>
            <Time>2021-08-03T10:37:48.000Z</Time>
            <Position>
              <LatitudeDegrees>41.11559933982789516448974609375</LatitudeDegrees>
              <LongitudeDegrees>-1.43289833329617977142333984375</LongitudeDegrees>
            </Position>
            <AltitudeMeters>748.20001220703125</AltitudeMeters>
            <DistanceMeters>538198.90852898</DistanceMeters>
          </Trackpoint>
          <Trackpoint>
            <Time>2021-08-03T10:37:52.000Z</Time>
            <Position>
              <LatitudeDegrees>41.11559464596211910247802734375</LatitudeDegrees>
              <LongitudeDegrees>-1.43274259753525257110595703125</LongitudeDegrees>
            </Position>
            <AltitudeMeters>749.4000244140625</AltitudeMeters>
            <DistanceMeters>538211.97772543</DistanceMeters>
          </Trackpoint>
          <Trackpoint>
            <Time>2021-08-03T10:37:59.000Z</Time>
            <Position>
              <LatitudeDegrees>41.1156369745731353759765625</LatitudeDegrees>
              <LongitudeDegrees>-1.43253355287015438079833984375</LongitudeDegrees>
            </Position>
            <AltitudeMeters>750.4000244140625</AltitudeMeters>
            <DistanceMeters>538230.12857414</DistanceMeters>
          </Trackpoint>
          <Trackpoint>
            <Time>2021-08-03T10:38:05.000Z</Time>
            <Position>
              <LatitudeDegrees>41.11566320993006229400634765625</LatitudeDegrees>
              <LongitudeDegrees>-1.43235686235129833221435546875</LongitudeDegrees>
            </Position>
            <AltitudeMeters>751.79998779296875</AltitudeMeters>
            <DistanceMeters>538245.22975127</DistanceMeters>
          </Trackpoint>
          <Trackpoint>
            <Time>2021-08-03T10:38:12.000Z</Time>
            <Position>
              <LatitudeDegrees>41.1156723462045192718505859375</LatitudeDegrees>
              <LongitudeDegrees>-1.43216860480606555938720703125</LongitudeDegrees>
            </Position>
            <AltitudeMeters>753.20001220703125</AltitudeMeters>
            <DistanceMeters>538261.04820309</DistanceMeters>
          </Trackpoint>
          <Trackpoint>
            <Time>2021-08-03T10:38:23.000Z</Time>
            <Position>
              <LatitudeDegrees>41.1157719232141971588134765625</LatitudeDegrees>
              <LongitudeDegrees>-1.43183165229856967926025390625</LongitudeDegrees>
            </Position>
            <AltitudeMeters>754.20001220703125</AltitudeMeters>
            <DistanceMeters>538291.39878955</DistanceMeters>
          </Trackpoint>
          <Trackpoint>
            <Time>2021-08-03T10:38:29.000Z</Time>
            <Position>
              <LatitudeDegrees>41.11581760458648204803466796875</LatitudeDegrees>
              <LongitudeDegrees>-1.43166015855967998504638671875</LongitudeDegrees>
            </Position>
            <AltitudeMeters>755.20001220703125</AltitudeMeters>
            <DistanceMeters>538306.65109525</DistanceMeters>
          </Trackpoint>
          <Trackpoint>
            <Time>2021-08-03T10:38:37.000Z</Time>
            <Position>
              <LatitudeDegrees>41.1158302612602710723876953125</LatitudeDegrees>
              <LongitudeDegrees>-1.4313139021396636962890625</LongitudeDegrees>
            </Position>
            <AltitudeMeters>754.20001220703125</AltitudeMeters>
            <DistanceMeters>538335.71995201</DistanceMeters>
          </Trackpoint>
          <Trackpoint>
            <Time>2021-08-03T10:38:40.000Z</Time>
            <Position>
              <LatitudeDegrees>41.11580930650234222412109375</LatitudeDegrees>
              <LongitudeDegrees>-1.4311216212809085845947265625</LongitudeDegrees>
            </Position>
            <AltitudeMeters>753.20001220703125</AltitudeMeters>
            <DistanceMeters>538352.01086809</DistanceMeters>
          </Trackpoint>
          <Trackpoint>
            <Time>2021-08-03T10:38:45.000Z</Time>
            <Position>
              <LatitudeDegrees>41.1157477833330631256103515625</LatitudeDegrees>
              <LongitudeDegrees>-1.43078190274536609649658203125</LongitudeDegrees>
            </Position>
            <AltitudeMeters>752.20001220703125</AltitudeMeters>
            <DistanceMeters>538381.30869986</DistanceMeters>
          </Trackpoint>
          <Trackpoint>
            <Time>2021-08-03T10:38:51.000Z</Time>
            <Position>
              <LatitudeDegrees>41.115684248507022857666015625</LatitudeDegrees>
              <LongitudeDegrees>-1.43044377677142620086669921875</LongitudeDegrees>
            </Position>
            <AltitudeMeters>752.20001220703125</AltitudeMeters>
            <DistanceMeters>538410.53014847</DistanceMeters>
          </Trackpoint>
          <Trackpoint>
            <Time>2021-08-03T10:38:53.000Z</Time>
            <Position>
              <LatitudeDegrees>41.11566069535911083221435546875</LatitudeDegrees>
              <LongitudeDegrees>-1.43034822307527065277099609375</LongitudeDegrees>
            </Position>
            <AltitudeMeters>752</AltitudeMeters>
            <DistanceMeters>538418.96025532</DistanceMeters>
          </Trackpoint>
          <Trackpoint>
            <Time>2021-08-03T10:38:59.000Z</Time>
            <Position>
              <LatitudeDegrees>41.115613169968128204345703125</LatitudeDegrees>
              <LongitudeDegrees>-1.43001998774707317352294921875</LongitudeDegrees>
            </Position>
            <AltitudeMeters>750.79998779296875</AltitudeMeters>
            <DistanceMeters>538446.98749832</DistanceMeters>
          </Trackpoint>
          <Trackpoint>
            <Time>2021-08-03T10:39:10.000Z</Time>
            <Position>
              <LatitudeDegrees>41.11540873534977436065673828125</LatitudeDegrees>
              <LongitudeDegrees>-1.42933786846697330474853515625</LongitudeDegrees>
            </Position>
            <AltitudeMeters>750.20001220703125</AltitudeMeters>
            <DistanceMeters>538508.54522885</DistanceMeters>
          </Trackpoint>
          <Trackpoint>
            <Time>2021-08-03T10:39:17.000Z</Time>
            <Position>
              <LatitudeDegrees>41.11521913670003414154052734375</LatitudeDegrees>
              <LongitudeDegrees>-1.42893268726766109466552734375</LongitudeDegrees>
            </Position>
            <AltitudeMeters>749.79998779296875</AltitudeMeters>
            <DistanceMeters>538548.54131707</DistanceMeters>
          </Trackpoint>
          <Trackpoint>
            <Time>2021-08-03T10:39:28.000Z</Time>
            <Position>
              <LatitudeDegrees>41.1149223335087299346923828125</LatitudeDegrees>
              <LongitudeDegrees>-1.428318880498409271240234375</LongitudeDegrees>
            </Position>
            <AltitudeMeters>750</AltitudeMeters>
            <DistanceMeters>538609.70073486</DistanceMeters>
          </Trackpoint>
          <Trackpoint>
            <Time>2021-08-03T10:39:37.000Z</Time>
            <Position>
              <LatitudeDegrees>41.1146095208823680877685546875</LatitudeDegrees>
              <LongitudeDegrees>-1.42790146172046661376953125</LongitudeDegrees>
            </Position>
            <AltitudeMeters>751</AltitudeMeters>
            <DistanceMeters>538659.07038255</DistanceMeters>
          </Trackpoint>
          <Trackpoint>
            <Time>2021-08-03T10:39:41.000Z</Time>
            <Position>
              <LatitudeDegrees>41.1144878156483173370361328125</LatitudeDegrees>
              <LongitudeDegrees>-1.42775268293917179107666015625</LongitudeDegrees>
            </Position>
            <AltitudeMeters>752</AltitudeMeters>
            <DistanceMeters>538677.48620676</DistanceMeters>
          </Trackpoint>
          <Trackpoint>
            <Time>2021-08-03T10:39:45.000Z</Time>
            <Position>
              <LatitudeDegrees>41.114380024373531341552734375</LatitudeDegrees>
              <LongitudeDegrees>-1.4275941811501979827880859375</LongitudeDegrees>
            </Position>
            <AltitudeMeters>752.79998779296875</AltitudeMeters>
            <DistanceMeters>538695.39111597</DistanceMeters>
          </Trackpoint>
          <Trackpoint>
            <Time>2021-08-03T10:39:47.000Z</Time>
            <Position>
              <LatitudeDegrees>41.11433668993413448333740234375</LatitudeDegrees>
              <LongitudeDegrees>-1.42750223167240619659423828125</LongitudeDegrees>
            </Position>
            <AltitudeMeters>753</AltitudeMeters>
            <DistanceMeters>538704.48592219</DistanceMeters>
          </Trackpoint>
          <Trackpoint>
            <Time>2021-08-03T10:39:56.000Z</Time>
            <Position>
              <LatitudeDegrees>41.11416318453848361968994140625</LatitudeDegrees>
              <LongitudeDegrees>-1.42706193029880523681640625</LongitudeDegrees>
            </Position>
            <AltitudeMeters>754</AltitudeMeters>
            <DistanceMeters>538746.15272549</DistanceMeters>
          </Trackpoint>
          <Trackpoint>
            <Time>2021-08-03T10:40:04.000Z</Time>
            <Position>
              <LatitudeDegrees>41.11397593282163143157958984375</LatitudeDegrees>
              <LongitudeDegrees>-1.42668248154222965240478515625</LongitudeDegrees>
            </Position>
            <AltitudeMeters>755</AltitudeMeters>
            <DistanceMeters>538784.18953461</DistanceMeters>
          </Trackpoint>
          <Trackpoint>
            <Time>2021-08-03T10:40:07.000Z</Time>
            <Position>
              <LatitudeDegrees>41.113893203437328338623046875</LatitudeDegrees>
              <LongitudeDegrees>-1.42655658535659313201904296875</LongitudeDegrees>
            </Position>
            <AltitudeMeters>755.5999755859375</AltitudeMeters>
            <DistanceMeters>538798.19751666</DistanceMeters>
          </Trackpoint>
          <Trackpoint>
            <Time>2021-08-03T10:40:15.000Z</Time>
            <Position>
              <LatitudeDegrees>41.11368005163967609405517578125</LatitudeDegrees>
              <LongitudeDegrees>-1.426167748868465423583984375</LongitudeDegrees>
            </Position>
            <AltitudeMeters>756</AltitudeMeters>
            <DistanceMeters>538838.52110386</DistanceMeters>
          </Trackpoint>
          <Trackpoint>
            <Time>2021-08-03T10:40:17.000Z</Time>
            <Position>
              <LatitudeDegrees>41.1136288382112979888916015625</LatitudeDegrees>
              <LongitudeDegrees>-1.4260723628103733062744140625</LongitudeDegrees>
            </Position>
            <AltitudeMeters>756.20001220703125</AltitudeMeters>
            <DistanceMeters>538848.34339161</DistanceMeters>
          </Trackpoint>
          <Trackpoint>
            <Time>2021-08-03T10:40:29.000Z</Time>
            <Position>
              <LatitudeDegrees>41.1133995093405246734619140625</LatitudeDegrees>
              <LongitudeDegrees>-1.425422094762325286865234375</LongitudeDegrees>
            </Position>
            <AltitudeMeters>756.4000244140625</AltitudeMeters>
            <DistanceMeters>538908.55059605</DistanceMeters>
          </Trackpoint>
          <Trackpoint>
            <Time>2021-08-03T10:40:34.000Z</Time>
            <Position>
              <LatitudeDegrees>41.11335198394954204559326171875</LatitudeDegrees>
              <LongitudeDegrees>-1.4251215197145938873291015625</LongitudeDegrees>
            </Position>
            <AltitudeMeters>756</AltitudeMeters>
            <DistanceMeters>538934.30476416</DistanceMeters>
          </Trackpoint>
          <Trackpoint>
            <Time>2021-08-03T10:40:38.000Z</Time>
            <Position>
              <LatitudeDegrees>41.11325458623468875885009765625</LatitudeDegrees>
              <LongitudeDegrees>-1.42490752972662448883056640625</LongitudeDegrees>
            </Position>
            <AltitudeMeters>755</AltitudeMeters>
            <DistanceMeters>538955.26930281</DistanceMeters>
          </Trackpoint>
          <Trackpoint>
            <Time>2021-08-03T10:40:40.000Z</Time>
            <Position>
              <LatitudeDegrees>41.113123409450054168701171875</LatitudeDegrees>
              <LongitudeDegrees>-1.42489814199507236480712890625</LongitudeDegrees>
            </Position>
            <AltitudeMeters>753.4000244140625</AltitudeMeters>
            <DistanceMeters>538969.89076169</DistanceMeters>
          </Trackpoint>
          <Trackpoint>
            <Time>2021-08-03T10:40:41.000Z</Time>
            <Position>
              <LatitudeDegrees>41.11304663121700286865234375</LatitudeDegrees>
              <LongitudeDegrees>-1.42489529214799404144287109375</LongitudeDegrees>
            </Position>
            <AltitudeMeters>752.4000244140625</AltitudeMeters>
            <DistanceMeters>538978.4394697</DistanceMeters>
          </Trackpoint>
          <Trackpoint>
            <Time>2021-08-03T10:40:42.000Z</Time>
            <Position>
              <LatitudeDegrees>41.112964153289794921875</LatitudeDegrees>
              <LongitudeDegrees>-1.42489160411059856414794921875</LongitudeDegrees>
            </Position>
            <AltitudeMeters>751.4000244140625</AltitudeMeters>
            <DistanceMeters>538987.62516697</DistanceMeters>
          </Trackpoint>
          <Trackpoint>
            <Time>2021-08-03T10:40:43.000Z</Time>
            <Position>
              <LatitudeDegrees>41.11287941224873065948486328125</LatitudeDegrees>
              <LongitudeDegrees>-1.4248750917613506317138671875</LongitudeDegrees>
            </Position>
            <AltitudeMeters>750.5999755859375</AltitudeMeters>
            <DistanceMeters>538997.15772482</DistanceMeters>
          </Trackpoint>
          <Trackpoint>
            <Time>2021-08-03T10:40:44.000Z</Time>
            <Position>
              <LatitudeDegrees>41.1128000356256961822509765625</LatitudeDegrees>
              <LongitudeDegrees>-1.42483058385550975799560546875</LongitudeDegrees>
            </Position>
            <AltitudeMeters>750</AltitudeMeters>
            <DistanceMeters>539006.74836394</DistanceMeters>
          </Trackpoint>
          <Trackpoint>
            <Time>2021-08-03T10:40:46.000Z</Time>
            <Position>
              <LatitudeDegrees>41.1126702837646007537841796875</LatitudeDegrees>
              <LongitudeDegrees>-1.42467283643782138824462890625</LongitudeDegrees>
            </Position>
            <AltitudeMeters>748.79998779296875</AltitudeMeters>
            <DistanceMeters>539026.33262974</DistanceMeters>
          </Trackpoint>
          <Trackpoint>
            <Time>2021-08-03T10:40:51.000Z</Time>
            <Position>
              <LatitudeDegrees>41.11237012781202793121337890625</LatitudeDegrees>
              <LongitudeDegrees>-1.42429783008992671966552734375</LongitudeDegrees>
            </Position>
            <AltitudeMeters>748.20001220703125</AltitudeMeters>
            <DistanceMeters>539072.21292093</DistanceMeters>
          </Trackpoint>
          <Trackpoint>
            <Time>2021-08-03T10:40:58.000Z</Time>
            <Position>
              <LatitudeDegrees>41.1120744980871677398681640625</LatitudeDegrees>
              <LongitudeDegrees>-1.42377044074237346649169921875</LongitudeDegrees>
            </Position>
            <AltitudeMeters>750.20001220703125</AltitudeMeters>
            <DistanceMeters>539127.33627899</DistanceMeters>
          </Trackpoint>
          <Trackpoint>
            <Time>2021-08-03T10:41:04.000Z</Time>
            <Position>
              <LatitudeDegrees>41.11185413785278797149658203125</LatitudeDegrees>
              <LongitudeDegrees>-1.42343885265290737152099609375</LongitudeDegrees>
            </Position>
            <AltitudeMeters>751.20001220703125</AltitudeMeters>
            <DistanceMeters>539164.41374974</DistanceMeters>
          </Trackpoint>
          <Trackpoint>
            <Time>2021-08-03T10:41:11.000Z</Time>
            <Position>
              <LatitudeDegrees>41.11166822724044322967529296875</LatitudeDegrees>
              <LongitudeDegrees>-1.42310542054474353790283203125</LongitudeDegrees>
            </Position>
            <AltitudeMeters>751.4000244140625</AltitudeMeters>
            <DistanceMeters>539199.19845993</DistanceMeters>
          </Trackpoint>
          <Trackpoint>
            <Time>2021-08-03T10:41:18.000Z</Time>
            <Position>
              <LatitudeDegrees>41.11164744012057781219482421875</LatitudeDegrees>
              <LongitudeDegrees>-1.42271197400987148284912109375</LongitudeDegrees>
            </Position>
            <AltitudeMeters>752.20001220703125</AltitudeMeters>
            <DistanceMeters>539232.27321739</DistanceMeters>
          </Trackpoint>
          <Trackpoint>
            <Time>2021-08-03T10:41:22.000Z</Time>
            <Position>
              <LatitudeDegrees>41.11164509318768978118896484375</LatitudeDegrees>
              <LongitudeDegrees>-1.4224862493574619293212890625</LongitudeDegrees>
            </Position>
            <AltitudeMeters>753.20001220703125</AltitudeMeters>
            <DistanceMeters>539251.20381732</DistanceMeters>
          </Trackpoint>
          <Trackpoint>
            <Time>2021-08-03T10:41:36.000Z</Time>
            <Position>
              <LatitudeDegrees>41.1116178520023822784423828125</LatitudeDegrees>
              <LongitudeDegrees>-1.42175786197185516357421875</LongitudeDegrees>
            </Position>
            <AltitudeMeters>754.4000244140625</AltitudeMeters>
            <DistanceMeters>539312.36035591</DistanceMeters>
          </Trackpoint>
          <Trackpoint>
            <Time>2021-08-03T10:41:51.000Z</Time>
            <Position>
              <LatitudeDegrees>41.11151416786015033721923828125</LatitudeDegrees>
              <LongitudeDegrees>-1.42101396806538105010986328125</LongitudeDegrees>
            </Position>
            <AltitudeMeters>755.5999755859375</AltitudeMeters>
            <DistanceMeters>539375.80049218</DistanceMeters>
          </Trackpoint>
          <Trackpoint>
            <Time>2021-08-03T10:42:06.000Z</Time>
            <Position>
              <LatitudeDegrees>41.1114394851028919219970703125</LatitudeDegrees>
              <LongitudeDegrees>-1.4202774502336978912353515625</LongitudeDegrees>
            </Position>
            <AltitudeMeters>756.5999755859375</AltitudeMeters>
            <DistanceMeters>539438.12063145</DistanceMeters>
          </Trackpoint>
          <Trackpoint>
            <Time>2021-08-03T10:42:12.000Z</Time>
            <Position>
              <LatitudeDegrees>41.11144535243511199951171875</LatitudeDegrees>
              <LongitudeDegrees>-1.420059688389301300048828125</LongitudeDegrees>
            </Position>
            <AltitudeMeters>757.79998779296875</AltitudeMeters>
            <DistanceMeters>539456.39345571</DistanceMeters>
          </Trackpoint>
          <Trackpoint>
            <Time>2021-08-03T10:42:15.000Z</Time>
            <Position>
              <LatitudeDegrees>41.1114713363349437713623046875</LatitudeDegrees>
              <LongitudeDegrees>-1.4199964888393878936767578125</LongitudeDegrees>
            </Position>
            <AltitudeMeters>758.20001220703125</AltitudeMeters>
            <DistanceMeters>539462.43045733</DistanceMeters>
          </Trackpoint>
          <Trackpoint>
            <Time>2021-08-03T10:42:25.000Z</Time>
            <Position>
              <LatitudeDegrees>41.1113781295716762542724609375</LatitudeDegrees>
              <LongitudeDegrees>-1.41960212029516696929931640625</LongitudeDegrees>
            </Position>
            <AltitudeMeters>758.79998779296875</AltitudeMeters>
            <DistanceMeters>539497.09059654</DistanceMeters>
          </Trackpoint>
          <Trackpoint>
            <Time>2021-08-03T10:42:38.000Z</Time>
            <Position>
              <LatitudeDegrees>41.1112622916698455810546875</LatitudeDegrees>
              <LongitudeDegrees>-1.41914379782974720001220703125</LongitudeDegrees>
            </Position>
            <AltitudeMeters>759.5999755859375</AltitudeMeters>
            <DistanceMeters>539537.62971015</DistanceMeters>
          </Trackpoint>
          <Trackpoint>
            <Time>2021-08-03T10:42:44.000Z</Time>
            <Position>
              <LatitudeDegrees>41.11109809018671512603759765625</LatitudeDegrees>
              <LongitudeDegrees>-1.41912636347115039825439453125</LongitudeDegrees>
            </Position>
            <AltitudeMeters>759.5999755859375</AltitudeMeters>
            <DistanceMeters>539555.96420293</DistanceMeters>
          </Trackpoint>
          <Trackpoint>
            <Time>2021-08-03T10:42:48.000Z</Time>
            <Position>
              <LatitudeDegrees>41.1110814101994037628173828125</LatitudeDegrees>
              <LongitudeDegrees>-1.41906098462641239166259765625</LongitudeDegrees>
            </Position>
            <AltitudeMeters>759.5999755859375</AltitudeMeters>
            <DistanceMeters>539561.75225819</DistanceMeters>
          </Trackpoint>
          <Trackpoint>
            <Time>2021-08-03T10:48:50.000Z</Time>
            <Position>
              <LatitudeDegrees>41.1110686697065830230712890625</LatitudeDegrees>
              <LongitudeDegrees>-1.41909669153392314910888671875</LongitudeDegrees>
            </Position>
            <AltitudeMeters>759.5999755859375</AltitudeMeters>
            <DistanceMeters>539565.06595295</DistanceMeters>
          </Trackpoint>
          <Trackpoint>
            <Time>2021-08-03T10:48:57.000Z</Time>
            <Position>
              <LatitudeDegrees>41.11100857146084308624267578125</LatitudeDegrees>
              <LongitudeDegrees>-1.41896174289286136627197265625</LongitudeDegrees>
            </Position>
            <AltitudeMeters>759</AltitudeMeters>
            <DistanceMeters>539578.2116204</DistanceMeters>
          </Trackpoint>
          <Trackpoint>
            <Time>2021-08-03T10:49:12.000Z</Time>
            <Position>
              <LatitudeDegrees>41.1107685975730419158935546875</LatitudeDegrees>
              <LongitudeDegrees>-1.418400742113590240478515625</LongitudeDegrees>
            </Position>
            <AltitudeMeters>758.4000244140625</AltitudeMeters>
            <DistanceMeters>539632.31003762</DistanceMeters>
          </Trackpoint>
          <Trackpoint>
            <Time>2021-08-03T10:49:23.000Z</Time>
            <Position>
              <LatitudeDegrees>41.11056282185018062591552734375</LatitudeDegrees>
              <LongitudeDegrees>-1.41793697141110897064208984375</LongitudeDegrees>
            </Position>
            <AltitudeMeters>758.4000244140625</AltitudeMeters>
            <DistanceMeters>539677.44452593</DistanceMeters>
          </Trackpoint>
          <Trackpoint>
            <Time>2021-08-03T10:49:28.000Z</Time>
            <Position>
              <LatitudeDegrees>41.110645048320293426513671875</LatitudeDegrees>
              <LongitudeDegrees>-1.4178125001490116119384765625</LongitudeDegrees>
            </Position>
            <AltitudeMeters>758.5999755859375</AltitudeMeters>
            <DistanceMeters>539691.32688494</DistanceMeters>
          </Trackpoint>
          <Trackpoint>
            <Time>2021-08-03T10:49:38.000Z</Time>
            <Position>
              <LatitudeDegrees>41.11099448986351490020751953125</LatitudeDegrees>
              <LongitudeDegrees>-1.41761980019509792327880859375</LongitudeDegrees>
            </Position>
            <AltitudeMeters>759.5999755859375</AltitudeMeters>
            <DistanceMeters>539733.44387826</DistanceMeters>
          </Trackpoint>
          <Trackpoint>
            <Time>2021-08-03T10:49:53.000Z</Time>
            <Position>
              <LatitudeDegrees>41.11151550896465778350830078125</LatitudeDegrees>
              <LongitudeDegrees>-1.417394243180751800537109375</LongitudeDegrees>
            </Position>
            <AltitudeMeters>760.4000244140625</AltitudeMeters>
            <DistanceMeters>539794.44111096</DistanceMeters>
          </Trackpoint>
          <Trackpoint>
            <Time>2021-08-03T10:49:57.000Z</Time>
            <Position>
              <LatitudeDegrees>41.11164995469152927398681640625</LatitudeDegrees>
              <LongitudeDegrees>-1.41734252683818340301513671875</LongitudeDegrees>
            </Position>
            <AltitudeMeters>760.5999755859375</AltitudeMeters>
            <DistanceMeters>539810.02114577</DistanceMeters>
          </Trackpoint>
          <Trackpoint>
            <Time>2021-08-03T10:50:13.000Z</Time>
            <Position>
              <LatitudeDegrees>41.11219796352088451385498046875</LatitudeDegrees>
              <LongitudeDegrees>-1.41714035533368587493896484375</LongitudeDegrees>
            </Position>
            <AltitudeMeters>761.79998779296875</AltitudeMeters>
            <DistanceMeters>539873.32805415</DistanceMeters>
          </Trackpoint>
          <Trackpoint>
            <Time>2021-08-03T10:50:14.000Z</Time>
            <Position>
              <LatitudeDegrees>41.112227551639080047607421875</LatitudeDegrees>
              <LongitudeDegrees>-1.4171342365443706512451171875</LongitudeDegrees>
            </Position>
            <AltitudeMeters>761.79998779296875</AltitudeMeters>
            <DistanceMeters>539876.66212435</DistanceMeters>
          </Trackpoint>
          <Trackpoint>
            <Time>2021-08-03T10:50:35.000Z</Time>
            <Position>
              <LatitudeDegrees>41.11277178861200809478759765625</LatitudeDegrees>
              <LongitudeDegrees>-1.41697741113603115081787109375</LongitudeDegrees>
            </Position>
            <AltitudeMeters>761.5999755859375</AltitudeMeters>
            <DistanceMeters>539938.64795617</DistanceMeters>
          </Trackpoint>
          <Trackpoint>
            <Time>2021-08-03T10:50:53.000Z</Time>
            <Position>
              <LatitudeDegrees>41.1131572723388671875</LatitudeDegrees>
              <LongitudeDegrees>-1.41654758714139461517333984375</LongitudeDegrees>
            </Position>
            <AltitudeMeters>762.79998779296875</AltitudeMeters>
            <DistanceMeters>539994.68351034</DistanceMeters>
          </Trackpoint>
          <Trackpoint>
            <Time>2021-08-03T10:51:11.000Z</Time>
            <Position>
              <LatitudeDegrees>41.1135661415755748748779296875</LatitudeDegrees>
              <LongitudeDegrees>-1.41605439595878124237060546875</LongitudeDegrees>
            </Position>
            <AltitudeMeters>764</AltitudeMeters>
            <DistanceMeters>540056.1764419</DistanceMeters>
          </Trackpoint>
          <Trackpoint>
            <Time>2021-08-03T10:51:25.000Z</Time>
            <Position>
              <LatitudeDegrees>41.1137877590954303741455078125</LatitudeDegrees>
              <LongitudeDegrees>-1.415774188935756683349609375</LongitudeDegrees>
            </Position>
            <AltitudeMeters>765</AltitudeMeters>
            <DistanceMeters>540090.2432208</DistanceMeters>
          </Trackpoint>
          <Trackpoint>
            <Time>2021-08-03T10:51:37.000Z</Time>
            <Position>
              <LatitudeDegrees>41.1139490269124507904052734375</LatitudeDegrees>
              <LongitudeDegrees>-1.4154192991554737091064453125</LongitudeDegrees>
            </Position>
            <AltitudeMeters>766</AltitudeMeters>
            <DistanceMeters>540124.99663523</DistanceMeters>
          </Trackpoint>
          <Trackpoint>
            <Time>2021-08-03T10:51:39.000Z</Time>
            <Position>
              <LatitudeDegrees>41.1139404773712158203125</LatitudeDegrees>
              <LongitudeDegrees>-1.41535383649170398712158203125</LongitudeDegrees>
            </Position>
            <AltitudeMeters>766.20001220703125</AltitudeMeters>
            <DistanceMeters>540130.56685449</DistanceMeters>
          </Trackpoint>
          <Trackpoint>
            <Time>2021-08-03T10:51:56.000Z</Time>
            <Position>
              <LatitudeDegrees>41.1139379628002643585205078125</LatitudeDegrees>
              <LongitudeDegrees>-1.41482770442962646484375</LongitudeDegrees>
            </Position>
            <AltitudeMeters>767.4000244140625</AltitudeMeters>
            <DistanceMeters>540174.68658215</DistanceMeters>
          </Trackpoint>
          <Trackpoint>
            <Time>2021-08-03T10:52:18.000Z</Time>
            <Position>
              <LatitudeDegrees>41.1138813011348247528076171875</LatitudeDegrees>
              <LongitudeDegrees>-1.4140968024730682373046875</LongitudeDegrees>
            </Position>
            <AltitudeMeters>768.20001220703125</AltitudeMeters>
            <DistanceMeters>540236.30025058</DistanceMeters>
          </Trackpoint>
          <Trackpoint>
            <Time>2021-08-03T10:52:21.000Z</Time>
            <Position>
              <LatitudeDegrees>41.1138970591127872467041015625</LatitudeDegrees>
              <LongitudeDegrees>-1.4139940403401851654052734375</LongitudeDegrees>
            </Position>
            <AltitudeMeters>768.4000244140625</AltitudeMeters>
            <DistanceMeters>540245.0942016</DistanceMeters>
          </Trackpoint>
          <Trackpoint>
            <Time>2021-08-03T10:52:41.000Z</Time>
            <Position>
              <LatitudeDegrees>41.1140727438032627105712890625</LatitudeDegrees>
              <LongitudeDegrees>-1.41343270428478717803955078125</LongitudeDegrees>
            </Position>
            <AltitudeMeters>769.79998779296875</AltitudeMeters>
            <DistanceMeters>540296.06511746</DistanceMeters>
          </Trackpoint>
          <Trackpoint>
            <Time>2021-08-03T10:52:45.000Z</Time>
            <Position>
              <LatitudeDegrees>41.11409679986536502838134765625</LatitudeDegrees>
              <LongitudeDegrees>-1.41327914781868457794189453125</LongitudeDegrees>
            </Position>
            <AltitudeMeters>770</AltitudeMeters>
            <DistanceMeters>540309.21696579</DistanceMeters>
          </Trackpoint>
          <Trackpoint>
            <Time>2021-08-03T10:52:50.000Z</Time>
            <Position>
              <LatitudeDegrees>41.1141565628349781036376953125</LatitudeDegrees>
              <LongitudeDegrees>-1.4131794869899749755859375</LongitudeDegrees>
            </Position>
            <AltitudeMeters>770</AltitudeMeters>
            <DistanceMeters>540319.89806993</DistanceMeters>
          </Trackpoint>
          <Trackpoint>
            <Time>2021-08-03T10:52:56.000Z</Time>
            <Position>
              <LatitudeDegrees>41.1142524518072605133056640625</LatitudeDegrees>
              <LongitudeDegrees>-1.4132068119943141937255859375</LongitudeDegrees>
            </Position>
            <AltitudeMeters>771</AltitudeMeters>
            <DistanceMeters>540330.81415388</DistanceMeters>
          </Trackpoint>
          <Trackpoint>
            <Time>2021-08-03T10:53:02.000Z</Time>
            <Position>
              <LatitudeDegrees>41.1143446527421474456787109375</LatitudeDegrees>
              <LongitudeDegrees>-1.413157694041728973388671875</LongitudeDegrees>
            </Position>
            <AltitudeMeters>772.20001220703125</AltitudeMeters>
            <DistanceMeters>540341.87201376</DistanceMeters>
          </Trackpoint>
          <Trackpoint>
            <Time>2021-08-03T10:53:07.000Z</Time>
            <Position>
              <LatitudeDegrees>41.11443794332444667816162109375</LatitudeDegrees>
              <LongitudeDegrees>-1.41322634182870388031005859375</LongitudeDegrees>
            </Position>
            <AltitudeMeters>772.20001220703125</AltitudeMeters>
            <DistanceMeters>540353.74426979</DistanceMeters>
          </Trackpoint>
          <Trackpoint>
            <Time>2021-08-03T10:53:09.000Z</Time>
            <Position>
              <LatitudeDegrees>41.11449007876217365264892578125</LatitudeDegrees>
              <LongitudeDegrees>-1.41326062381267547607421875</LongitudeDegrees>
            </Position>
            <AltitudeMeters>772.4000244140625</AltitudeMeters>
            <DistanceMeters>540360.21934855</DistanceMeters>
          </Trackpoint>
          <Trackpoint>
            <Time>2021-08-03T10:53:20.000Z</Time>
            <Position>
              <LatitudeDegrees>41.1147344112396240234375</LatitudeDegrees>
              <LongitudeDegrees>-1.41347679309546947479248046875</LongitudeDegrees>
            </Position>
            <AltitudeMeters>773.5999755859375</AltitudeMeters>
            <DistanceMeters>540392.90163155</DistanceMeters>
          </Trackpoint>
          <Trackpoint>
            <Time>2021-08-03T10:53:36.000Z</Time>
            <Position>
              <LatitudeDegrees>41.11492157913744449615478515625</LatitudeDegrees>
              <LongitudeDegrees>-1.41390376724302768707275390625</LongitudeDegrees>
            </Position>
            <AltitudeMeters>774.79998779296875</AltitudeMeters>
            <DistanceMeters>540434.32456005</DistanceMeters>
          </Trackpoint>
          <Trackpoint>
            <Time>2021-08-03T10:53:38.000Z</Time>
            <Position>
              <LatitudeDegrees>41.114930212497711181640625</LatitudeDegrees>
              <LongitudeDegrees>-1.41393176279962062835693359375</LongitudeDegrees>
            </Position>
            <AltitudeMeters>774.79998779296875</AltitudeMeters>
            <DistanceMeters>540436.86018905</DistanceMeters>
          </Trackpoint>
          <Trackpoint>
            <Time>2021-08-03T10:53:42.000Z</Time>
            <Position>
              <LatitudeDegrees>41.11495661549270153045654296875</LatitudeDegrees>
              <LongitudeDegrees>-1.4139895141124725341796875</LongitudeDegrees>
            </Position>
            <AltitudeMeters>775</AltitudeMeters>
            <DistanceMeters>540442.52445084</DistanceMeters>
          </Trackpoint>
          <Trackpoint>
            <Time>2021-08-03T10:53:48.000Z</Time>
            <Position>
              <LatitudeDegrees>41.11497203819453716278076171875</LatitudeDegrees>
              <LongitudeDegrees>-1.4139658771455287933349609375</LongitudeDegrees>
            </Position>
            <AltitudeMeters>775.20001220703125</AltitudeMeters>
            <DistanceMeters>540445.14415657</DistanceMeters>
          </Trackpoint>
          <Trackpoint>
            <Time>2021-08-03T10:59:11.000Z</Time>
            <Position>
              <LatitudeDegrees>41.11498343758285045623779296875</LatitudeDegrees>
              <LongitudeDegrees>-1.41379036009311676025390625</LongitudeDegrees>
            </Position>
            <AltitudeMeters>775.79998779296875</AltitudeMeters>
            <DistanceMeters>540459.91645589</DistanceMeters>
          </Trackpoint>
          <Trackpoint>
            <Time>2021-08-03T10:59:12.000Z</Time>
            <Position>
              <LatitudeDegrees>41.11497974954545497894287109375</LatitudeDegrees>
              <LongitudeDegrees>-1.4137583412230014801025390625</LongitudeDegrees>
            </Position>
            <AltitudeMeters>775.5999755859375</AltitudeMeters>
            <DistanceMeters>540462.63096181</DistanceMeters>
          </Trackpoint>
          <Trackpoint>
            <Time>2021-08-03T10:59:16.000Z</Time>
            <Position>
              <LatitudeDegrees>41.11491822637617588043212890625</LatitudeDegrees>
              <LongitudeDegrees>-1.41360973007977008819580078125</LongitudeDegrees>
            </Position>
            <AltitudeMeters>774.5999755859375</AltitudeMeters>
            <DistanceMeters>540476.84976561</DistanceMeters>
          </Trackpoint>
          <Trackpoint>
            <Time>2021-08-03T10:59:27.000Z</Time>
            <Position>
              <LatitudeDegrees>41.11465687863528728485107421875</LatitudeDegrees>
              <LongitudeDegrees>-1.413253247737884521484375</LongitudeDegrees>
            </Position>
            <AltitudeMeters>773.5999755859375</AltitudeMeters>
            <DistanceMeters>540518.55956587</DistanceMeters>
          </Trackpoint>
          <Trackpoint>
            <Time>2021-08-03T10:59:34.000Z</Time>
            <Position>
              <LatitudeDegrees>41.1144621670246124267578125</LatitudeDegrees>
              <LongitudeDegrees>-1.4131085760891437530517578125</LongitudeDegrees>
            </Position>
            <AltitudeMeters>772.5999755859375</AltitudeMeters>
            <DistanceMeters>540543.39592071</DistanceMeters>
          </Trackpoint>
          <Trackpoint>
            <Time>2021-08-03T10:59:38.000Z</Time>
            <Position>
              <LatitudeDegrees>41.11438899300992488861083984375</LatitudeDegrees>
              <LongitudeDegrees>-1.4130797423422336578369140625</LongitudeDegrees>
            </Position>
            <AltitudeMeters>771.20001220703125</AltitudeMeters>
            <DistanceMeters>540551.89218054</DistanceMeters>
          </Trackpoint>
          <Trackpoint>
            <Time>2021-08-03T10:59:41.000Z</Time>
            <Position>
              <LatitudeDegrees>41.11436418257653713226318359375</LatitudeDegrees>
              <LongitudeDegrees>-1.413096673786640167236328125</LongitudeDegrees>
            </Position>
            <AltitudeMeters>770.79998779296875</AltitudeMeters>
            <DistanceMeters>540554.99767915</DistanceMeters>
          </Trackpoint>
          <Trackpoint>
            <Time>2021-08-03T10:59:51.000Z</Time>
            <Position>
              <LatitudeDegrees>41.1142242886126041412353515625</LatitudeDegrees>
              <LongitudeDegrees>-1.4133355580270290374755859375</LongitudeDegrees>
            </Position>
            <AltitudeMeters>770.20001220703125</AltitudeMeters>
            <DistanceMeters>540580.36910007</DistanceMeters>
          </Trackpoint>
          <Trackpoint>
            <Time>2021-08-03T11:00:05.000Z</Time>
            <Position>
              <LatitudeDegrees>41.11416704021394252777099609375</LatitudeDegrees>
              <LongitudeDegrees>-1.4137570001184940338134765625</LongitudeDegrees>
            </Position>
            <AltitudeMeters>769.4000244140625</AltitudeMeters>
            <DistanceMeters>540616.27888949</DistanceMeters>
          </Trackpoint>
          <Trackpoint>
            <Time>2021-08-03T11:00:12.000Z</Time>
            <Position>
              <LatitudeDegrees>41.114160083234310150146484375</LatitudeDegrees>
              <LongitudeDegrees>-1.4139045216143131256103515625</LongitudeDegrees>
            </Position>
            <AltitudeMeters>769.20001220703125</AltitudeMeters>
            <DistanceMeters>540628.67395789</DistanceMeters>
          </Trackpoint>
          <Trackpoint>
            <Time>2021-08-03T11:00:21.000Z</Time>
            <Position>
              <LatitudeDegrees>41.114154718816280364990234375</LatitudeDegrees>
              <LongitudeDegrees>-1.4140818826854228973388671875</LongitudeDegrees>
            </Position>
            <AltitudeMeters>768.4000244140625</AltitudeMeters>
            <DistanceMeters>540643.55830858</DistanceMeters>
          </Trackpoint>
          <Trackpoint>
            <Time>2021-08-03T11:00:28.000Z</Time>
            <Position>
              <LatitudeDegrees>41.114213727414608001708984375</LatitudeDegrees>
              <LongitudeDegrees>-1.4144376106560230255126953125</LongitudeDegrees>
            </Position>
            <AltitudeMeters>768.5999755859375</AltitudeMeters>
            <DistanceMeters>540674.10241354</DistanceMeters>
          </Trackpoint>
          <Trackpoint>
            <Time>2021-08-03T11:00:44.000Z</Time>
            <Position>
              <LatitudeDegrees>41.11417206935584545135498046875</LatitudeDegrees>
              <LongitudeDegrees>-1.4150766469538211822509765625</LongitudeDegrees>
            </Position>
            <AltitudeMeters>767.79998779296875</AltitudeMeters>
            <DistanceMeters>540727.88904488</DistanceMeters>
          </Trackpoint>
          <Trackpoint>
            <Time>2021-08-03T11:00:47.000Z</Time>
            <Position>
              <LatitudeDegrees>41.11418925225734710693359375</LatitudeDegrees>
              <LongitudeDegrees>-1.41511268913745880126953125</LongitudeDegrees>
            </Position>
            <AltitudeMeters>767.79998779296875</AltitudeMeters>
            <DistanceMeters>540731.4648788</DistanceMeters>
          </Trackpoint>
          <Trackpoint>
            <Time>2021-08-03T12:41:27.000Z</Time>
            <Position>
              <LatitudeDegrees>41.11419335938990116119384765625</LatitudeDegrees>
              <LongitudeDegrees>-1.41454540193080902099609375</LongitudeDegrees>
            </Position>
            <AltitudeMeters>779</AltitudeMeters>
            <DistanceMeters>540779.03692625</DistanceMeters>
          </Trackpoint>
          <Trackpoint>
            <Time>2021-08-03T12:41:30.000Z</Time>
            <Position>
              <LatitudeDegrees>41.114089675247669219970703125</LatitudeDegrees>
              <LongitudeDegrees>-1.414583623409271240234375</LongitudeDegrees>
            </Position>
            <AltitudeMeters>777.5999755859375</AltitudeMeters>
            <DistanceMeters>540791.01406257</DistanceMeters>
          </Trackpoint>
          <Trackpoint>
            <Time>2021-08-03T12:41:31.000Z</Time>
            <Position>
              <LatitudeDegrees>41.11404986120760440826416015625</LatitudeDegrees>
              <LongitudeDegrees>-1.41460382379591464996337890625</LongitudeDegrees>
            </Position>
            <AltitudeMeters>777.20001220703125</AltitudeMeters>
            <DistanceMeters>540795.75969326</DistanceMeters>
          </Trackpoint>
          <Trackpoint>
            <Time>2021-08-03T12:41:33.000Z</Time>
            <Position>
              <LatitudeDegrees>41.11400225199759006500244140625</LatitudeDegrees>
              <LongitudeDegrees>-1.41469049267470836639404296875</LongitudeDegrees>
            </Position>
            <AltitudeMeters>776</AltitudeMeters>
            <DistanceMeters>540804.75365928</DistanceMeters>
          </Trackpoint>
          <Trackpoint>
            <Time>2021-08-03T12:41:35.000Z</Time>
            <Position>
              <LatitudeDegrees>41.11398213542997837066650390625</LatitudeDegrees>
              <LongitudeDegrees>-1.41480096615850925445556640625</LongitudeDegrees>
            </Position>
            <AltitudeMeters>775.4000244140625</AltitudeMeters>
            <DistanceMeters>540814.28479609</DistanceMeters>
          </Trackpoint>
          <Trackpoint>
            <Time>2021-08-03T12:41:38.000Z</Time>
            <Position>
              <LatitudeDegrees>41.11395045183598995208740234375</LatitudeDegrees>
              <LongitudeDegrees>-1.4149824343621730804443359375</LongitudeDegrees>
            </Position>
            <AltitudeMeters>775.20001220703125</AltitudeMeters>
            <DistanceMeters>540829.90534972</DistanceMeters>
          </Trackpoint>
          <Trackpoint>
            <Time>2021-08-03T12:41:45.000Z</Time>
            <Position>
              <LatitudeDegrees>41.1137780360877513885498046875</LatitudeDegrees>
              <LongitudeDegrees>-1.41534763388335704803466796875</LongitudeDegrees>
            </Position>
            <AltitudeMeters>774.5999755859375</AltitudeMeters>
            <DistanceMeters>540866.04537223</DistanceMeters>
          </Trackpoint>
          <Trackpoint>
            <Time>2021-08-03T12:41:49.000Z</Time>
            <Position>
              <LatitudeDegrees>41.113670580089092254638671875</LatitudeDegrees>
              <LongitudeDegrees>-1.41553589142858982086181640625</LongitudeDegrees>
            </Position>
            <AltitudeMeters>774.20001220703125</AltitudeMeters>
            <DistanceMeters>540885.85086365</DistanceMeters>
          </Trackpoint>
          <Trackpoint>
            <Time>2021-08-03T12:41:53.000Z</Time>
            <Position>
              <LatitudeDegrees>41.113556586205959320068359375</LatitudeDegrees>
              <LongitudeDegrees>-1.41569514758884906768798828125</LongitudeDegrees>
            </Position>
            <AltitudeMeters>774</AltitudeMeters>
            <DistanceMeters>540904.27134553</DistanceMeters>
          </Trackpoint>
          <Trackpoint>
            <Time>2021-08-03T12:41:58.000Z</Time>
            <Position>
              <LatitudeDegrees>41.1133837513625621795654296875</LatitudeDegrees>
              <LongitudeDegrees>-1.415900252759456634521484375</LongitudeDegrees>
            </Position>
            <AltitudeMeters>773.79998779296875</AltitudeMeters>
            <DistanceMeters>540930.07595436</DistanceMeters>
          </Trackpoint>
          <Trackpoint>
            <Time>2021-08-03T12:42:05.000Z</Time>
            <Position>
              <LatitudeDegrees>41.1131720244884490966796875</LatitudeDegrees>
              <LongitudeDegrees>-1.41626344062387943267822265625</LongitudeDegrees>
            </Position>
            <AltitudeMeters>774.20001220703125</AltitudeMeters>
            <DistanceMeters>540968.58417469</DistanceMeters>
          </Trackpoint>
          <Trackpoint>
            <Time>2021-08-03T12:42:09.000Z</Time>
            <Position>
              <LatitudeDegrees>41.11303229816257953643798828125</LatitudeDegrees>
              <LongitudeDegrees>-1.41644482500851154327392578125</LongitudeDegrees>
            </Position>
            <AltitudeMeters>773.79998779296875</AltitudeMeters>
            <DistanceMeters>540990.3376141</DistanceMeters>
          </Trackpoint>
          <Trackpoint>
            <Time>2021-08-03T12:42:10.000Z</Time>
            <Position>
              <LatitudeDegrees>41.113002039492130279541015625</LatitudeDegrees>
              <LongitudeDegrees>-1.4164965413510799407958984375</LongitudeDegrees>
            </Position>
            <AltitudeMeters>773.4000244140625</AltitudeMeters>
            <DistanceMeters>540995.82946764</DistanceMeters>
          </Trackpoint>
          <Trackpoint>
            <Time>2021-08-03T12:42:15.000Z</Time>
            <Position>
              <LatitudeDegrees>41.1128285340964794158935546875</LatitudeDegrees>
              <LongitudeDegrees>-1.41672561876475811004638671875</LongitudeDegrees>
            </Position>
            <AltitudeMeters>772.20001220703125</AltitudeMeters>
            <DistanceMeters>541023.06817541</DistanceMeters>
          </Trackpoint>
          <Trackpoint>
            <Time>2021-08-03T12:42:16.000Z</Time>
            <Position>
              <LatitudeDegrees>41.11278385855257511138916015625</LatitudeDegrees>
              <LongitudeDegrees>-1.41676090657711029052734375</LongitudeDegrees>
            </Position>
            <AltitudeMeters>772.20001220703125</AltitudeMeters>
            <DistanceMeters>541028.85467033</DistanceMeters>
          </Trackpoint>
          <Trackpoint>
            <Time>2021-08-03T12:42:21.000Z</Time>
            <Position>
              <LatitudeDegrees>41.11252896487712860107421875</LatitudeDegrees>
              <LongitudeDegrees>-1.4168165624141693115234375</LongitudeDegrees>
            </Position>
            <AltitudeMeters>772.20001220703125</AltitudeMeters>
            <DistanceMeters>541057.60618017</DistanceMeters>
          </Trackpoint>
          <Trackpoint>
            <Time>2021-08-03T12:42:25.000Z</Time>
            <Position>
              <LatitudeDegrees>41.112440116703510284423828125</LatitudeDegrees>
              <LongitudeDegrees>-1.41683642752468585968017578125</LongitudeDegrees>
            </Position>
            <AltitudeMeters>773.4000244140625</AltitudeMeters>
            <DistanceMeters>541067.63408779</DistanceMeters>
          </Trackpoint>
          <Trackpoint>
            <Time>2021-08-03T12:42:26.000Z</Time>
            <Position>
              <LatitudeDegrees>41.11244179308414459228515625</LatitudeDegrees>
              <LongitudeDegrees>-1.416856460273265838623046875</LongitudeDegrees>
            </Position>
            <AltitudeMeters>773.79998779296875</AltitudeMeters>
            <DistanceMeters>541069.32331962</DistanceMeters>
          </Trackpoint>
          <Trackpoint>
            <Time>2021-08-03T14:48:04Z</Time>
            <Position>
              <LatitudeDegrees>41.110698</LatitudeDegrees>
              <LongitudeDegrees>-1.417712</LongitudeDegrees>
            </Position>
            <AltitudeMeters>758.033</AltitudeMeters>
            <DistanceMeters>541276.24653765</DistanceMeters>
          </Trackpoint>
          <Trackpoint>
            <Time>2021-08-03T14:48:41Z</Time>
            <Position>
              <LatitudeDegrees>41.110650</LatitudeDegrees>
              <LongitudeDegrees>-1.417730</LongitudeDegrees>
            </Position>
            <AltitudeMeters>758.023</AltitudeMeters>
            <DistanceMeters>541281.7988958</DistanceMeters>
          </Trackpoint>
          <Trackpoint>
            <Time>2021-08-03T14:48:43Z</Time>
            <Position>
              <LatitudeDegrees>41.110619</LatitudeDegrees>
              <LongitudeDegrees>-1.417781</LongitudeDegrees>
            </Position>
            <AltitudeMeters>758.015</AltitudeMeters>
            <DistanceMeters>541287.29321519</DistanceMeters>
          </Trackpoint>
          <Trackpoint>
            <Time>2021-08-03T14:48:45Z</Time>
            <Position>
              <LatitudeDegrees>41.110580</LatitudeDegrees>
              <LongitudeDegrees>-1.417868</LongitudeDegrees>
            </Position>
            <AltitudeMeters>758.008</AltitudeMeters>
            <DistanceMeters>541295.78309564</DistanceMeters>
          </Trackpoint>
          <Trackpoint>
            <Time>2021-08-03T14:48:47Z</Time>
            <Position>
              <LatitudeDegrees>41.110529</LatitudeDegrees>
              <LongitudeDegrees>-1.417919</LongitudeDegrees>
            </Position>
            <AltitudeMeters>758.060</AltitudeMeters>
            <DistanceMeters>541302.88979794</DistanceMeters>
          </Trackpoint>
          <Trackpoint>
            <Time>2021-08-03T14:48:49Z</Time>
            <Position>
              <LatitudeDegrees>41.110457</LatitudeDegrees>
              <LongitudeDegrees>-1.417974</LongitudeDegrees>
            </Position>
            <AltitudeMeters>758.042</AltitudeMeters>
            <DistanceMeters>541312.13624395</DistanceMeters>
          </Trackpoint>
          <Trackpoint>
            <Time>2021-08-03T14:48:51Z</Time>
            <Position>
              <LatitudeDegrees>41.110379</LatitudeDegrees>
              <LongitudeDegrees>-1.418023</LongitudeDegrees>
            </Position>
            <AltitudeMeters>758.082</AltitudeMeters>
            <DistanceMeters>541321.74146602</DistanceMeters>
          </Trackpoint>
          <Trackpoint>
            <Time>2021-08-03T14:48:53Z</Time>
            <Position>
              <LatitudeDegrees>41.110308</LatitudeDegrees>
              <LongitudeDegrees>-1.418051</LongitudeDegrees>
            </Position>
            <AltitudeMeters>758.085</AltitudeMeters>
            <DistanceMeters>541329.98527311</DistanceMeters>
          </Trackpoint>
          <Trackpoint>
            <Time>2021-08-03T14:48:55Z</Time>
            <Position>
              <LatitudeDegrees>41.110235</LatitudeDegrees>
              <LongitudeDegrees>-1.418062</LongitudeDegrees>
            </Position>
            <AltitudeMeters>758.093</AltitudeMeters>
            <DistanceMeters>541338.16254136</DistanceMeters>
          </Trackpoint>
          <Trackpoint>
            <Time>2021-08-03T14:48:57Z</Time>
            <Position>
              <LatitudeDegrees>41.110150</LatitudeDegrees>
              <LongitudeDegrees>-1.418082</LongitudeDegrees>
            </Position>
            <AltitudeMeters>758.018</AltitudeMeters>
            <DistanceMeters>541347.77105329</DistanceMeters>
          </Trackpoint>
          <Trackpoint>
            <Time>2021-08-03T14:48:58Z</Time>
            <Position>
              <LatitudeDegrees>41.110104</LatitudeDegrees>
              <LongitudeDegrees>-1.418100</LongitudeDegrees>
            </Position>
            <AltitudeMeters>758.063</AltitudeMeters>
            <DistanceMeters>541353.1077996</DistanceMeters>
          </Trackpoint>
          <Trackpoint>
            <Time>2021-08-03T14:48:59Z</Time>
            <Position>
              <LatitudeDegrees>41.110047</LatitudeDegrees>
              <LongitudeDegrees>-1.418145</LongitudeDegrees>
            </Position>
            <AltitudeMeters>758.074</AltitudeMeters>
            <DistanceMeters>541360.4893632</DistanceMeters>
          </Trackpoint>
          <Trackpoint>
            <Time>2021-08-03T14:49:01Z</Time>
            <Position>
              <LatitudeDegrees>41.109973</LatitudeDegrees>
              <LongitudeDegrees>-1.418242</LongitudeDegrees>
            </Position>
            <AltitudeMeters>758.061</AltitudeMeters>
            <DistanceMeters>541372.06547371</DistanceMeters>
          </Trackpoint>
          <Trackpoint>
            <Time>2021-08-03T14:49:02Z</Time>
            <Position>
              <LatitudeDegrees>41.109903</LatitudeDegrees>
              <LongitudeDegrees>-1.418271</LongitudeDegrees>
            </Position>
            <AltitudeMeters>758.021</AltitudeMeters>
            <DistanceMeters>541380.22726726</DistanceMeters>
          </Trackpoint>
          <Trackpoint>
            <Time>2021-08-03T14:49:04Z</Time>
            <Position>
              <LatitudeDegrees>41.109813</LatitudeDegrees>
              <LongitudeDegrees>-1.418297</LongitudeDegrees>
            </Position>
            <AltitudeMeters>758.013</AltitudeMeters>
            <DistanceMeters>541390.47914805</DistanceMeters>
          </Trackpoint>
          <Trackpoint>
            <Time>2021-08-03T14:49:06Z</Time>
            <Position>
              <LatitudeDegrees>41.109720</LatitudeDegrees>
              <LongitudeDegrees>-1.418344</LongitudeDegrees>
            </Position>
            <AltitudeMeters>758.008</AltitudeMeters>
            <DistanceMeters>541401.55536665</DistanceMeters>
          </Trackpoint>
          <Trackpoint>
            <Time>2021-08-03T14:49:07Z</Time>
            <Position>
              <LatitudeDegrees>41.109670</LatitudeDegrees>
              <LongitudeDegrees>-1.418381</LongitudeDegrees>
            </Position>
            <AltitudeMeters>758.093</AltitudeMeters>
            <DistanceMeters>541407.92711866</DistanceMeters>
          </Trackpoint>
          <Trackpoint>
            <Time>2021-08-03T14:49:09Z</Time>
            <Position>
              <LatitudeDegrees>41.109579</LatitudeDegrees>
              <LongitudeDegrees>-1.418429</LongitudeDegrees>
            </Position>
            <AltitudeMeters>758.095</AltitudeMeters>
            <DistanceMeters>541418.825817</DistanceMeters>
          </Trackpoint>
          <Trackpoint>
            <Time>2021-08-03T14:49:11Z</Time>
            <Position>
              <LatitudeDegrees>41.109520</LatitudeDegrees>
              <LongitudeDegrees>-1.418471</LongitudeDegrees>
            </Position>
            <AltitudeMeters>758.045</AltitudeMeters>
            <DistanceMeters>541426.27799589</DistanceMeters>
          </Trackpoint>
          <Trackpoint>
            <Time>2021-08-03T14:49:13Z</Time>
            <Position>
              <LatitudeDegrees>41.109434</LatitudeDegrees>
              <LongitudeDegrees>-1.418517</LongitudeDegrees>
            </Position>
            <AltitudeMeters>758.018</AltitudeMeters>
            <DistanceMeters>541436.59791457</DistanceMeters>
          </Trackpoint>
          <Trackpoint>
            <Time>2021-08-03T14:49:15Z</Time>
            <Position>
              <LatitudeDegrees>41.109344</LatitudeDegrees>
              <LongitudeDegrees>-1.418571</LongitudeDegrees>
            </Position>
            <AltitudeMeters>757.836</AltitudeMeters>
            <DistanceMeters>541447.59107212</DistanceMeters>
          </Trackpoint>
          <Trackpoint>
            <Time>2021-08-03T14:49:16Z</Time>
            <Position>
              <LatitudeDegrees>41.109297</LatitudeDegrees>
              <LongitudeDegrees>-1.418597</LongitudeDegrees>
            </Position>
            <AltitudeMeters>758.071</AltitudeMeters>
            <DistanceMeters>541453.25852145</DistanceMeters>
          </Trackpoint>
          <Trackpoint>
            <Time>2021-08-03T14:49:17Z</Time>
            <Position>
              <LatitudeDegrees>41.109247</LatitudeDegrees>
              <LongitudeDegrees>-1.418608</LongitudeDegrees>
            </Position>
            <AltitudeMeters>758.066</AltitudeMeters>
            <DistanceMeters>541458.8996197</DistanceMeters>
          </Trackpoint>
          <Trackpoint>
            <Time>2021-08-03T14:49:19Z</Time>
            <Position>
              <LatitudeDegrees>41.109158</LatitudeDegrees>
              <LongitudeDegrees>-1.418661</LongitudeDegrees>
            </Position>
            <AltitudeMeters>757.917</AltitudeMeters>
            <DistanceMeters>541469.75681169</DistanceMeters>
          </Trackpoint>
          <Trackpoint>
            <Time>2021-08-03T14:49:20Z</Time>
            <Position>
              <LatitudeDegrees>41.109116</LatitudeDegrees>
              <LongitudeDegrees>-1.418696</LongitudeDegrees>
            </Position>
            <AltitudeMeters>757.855</AltitudeMeters>
            <DistanceMeters>541475.276547</DistanceMeters>
          </Trackpoint>
          <Trackpoint>
            <Time>2021-08-03T14:49:22Z</Time>
            <Position>
              <LatitudeDegrees>41.109022</LatitudeDegrees>
              <LongitudeDegrees>-1.418757</LongitudeDegrees>
            </Position>
            <AltitudeMeters>757.907</AltitudeMeters>
            <DistanceMeters>541486.92265142</DistanceMeters>
          </Trackpoint>
          <Trackpoint>
            <Time>2021-08-03T14:49:23Z</Time>
            <Position>
              <LatitudeDegrees>41.108969</LatitudeDegrees>
              <LongitudeDegrees>-1.418791</LongitudeDegrees>
            </Position>
            <AltitudeMeters>757.817</AltitudeMeters>
            <DistanceMeters>541493.47467274</DistanceMeters>
          </Trackpoint>
          <Trackpoint>
            <Time>2021-08-03T14:49:24Z</Time>
            <Position>
              <LatitudeDegrees>41.108913</LatitudeDegrees>
              <LongitudeDegrees>-1.418816</LongitudeDegrees>
            </Position>
            <AltitudeMeters>757.708</AltitudeMeters>
            <DistanceMeters>541500.0514551</DistanceMeters>
          </Trackpoint>
          <Trackpoint>
            <Time>2021-08-03T14:49:26Z</Time>
            <Position>
              <LatitudeDegrees>41.108802</LatitudeDegrees>
              <LongitudeDegrees>-1.418866</LongitudeDegrees>
            </Position>
            <AltitudeMeters>757.252</AltitudeMeters>
            <DistanceMeters>541513.09817657</DistanceMeters>
          </Trackpoint>
          <Trackpoint>
            <Time>2021-08-03T14:49:27Z</Time>
            <Position>
              <LatitudeDegrees>41.108747</LatitudeDegrees>
              <LongitudeDegrees>-1.418894</LongitudeDegrees>
            </Position>
            <AltitudeMeters>757.284</AltitudeMeters>
            <DistanceMeters>541519.65433122</DistanceMeters>
          </Trackpoint>
          <Trackpoint>
            <Time>2021-08-03T14:49:29Z</Time>
            <Position>
              <LatitudeDegrees>41.108639</LatitudeDegrees>
              <LongitudeDegrees>-1.418956</LongitudeDegrees>
            </Position>
            <AltitudeMeters>757.114</AltitudeMeters>
            <DistanceMeters>541532.75113625</DistanceMeters>
          </Trackpoint>
          <Trackpoint>
            <Time>2021-08-03T14:49:31Z</Time>
            <Position>
              <LatitudeDegrees>41.108527</LatitudeDegrees>
              <LongitudeDegrees>-1.418994</LongitudeDegrees>
            </Position>
            <AltitudeMeters>757.127</AltitudeMeters>
            <DistanceMeters>541545.61734632</DistanceMeters>
          </Trackpoint>
          <Trackpoint>
            <Time>2021-08-03T14:49:32Z</Time>
            <Position>
              <LatitudeDegrees>41.108473</LatitudeDegrees>
              <LongitudeDegrees>-1.419008</LongitudeDegrees>
            </Position>
            <AltitudeMeters>756.925</AltitudeMeters>
            <DistanceMeters>541551.74196365</DistanceMeters>
          </Trackpoint>
          <Trackpoint>
            <Time>2021-08-03T14:49:34Z</Time>
            <Position>
              <LatitudeDegrees>41.108369</LatitudeDegrees>
              <LongitudeDegrees>-1.419061</LongitudeDegrees>
            </Position>
            <AltitudeMeters>756.740</AltitudeMeters>
            <DistanceMeters>541564.14140241</DistanceMeters>
          </Trackpoint>
          <Trackpoint>
            <Time>2021-08-03T14:49:36Z</Time>
            <Position>
              <LatitudeDegrees>41.108286</LatitudeDegrees>
              <LongitudeDegrees>-1.419106</LongitudeDegrees>
            </Position>
            <AltitudeMeters>757.055</AltitudeMeters>
            <DistanceMeters>541574.12056485</DistanceMeters>
          </Trackpoint>
          <Trackpoint>
            <Time>2021-08-03T14:49:37Z</Time>
            <Position>
              <LatitudeDegrees>41.108238</LatitudeDegrees>
              <LongitudeDegrees>-1.419135</LongitudeDegrees>
            </Position>
            <AltitudeMeters>757.046</AltitudeMeters>
            <DistanceMeters>541579.99072428</DistanceMeters>
          </Trackpoint>
          <Trackpoint>
            <Time>2021-08-03T14:49:38Z</Time>
            <Position>
              <LatitudeDegrees>41.108194</LatitudeDegrees>
              <LongitudeDegrees>-1.419160</LongitudeDegrees>
            </Position>
            <AltitudeMeters>757.182</AltitudeMeters>
            <DistanceMeters>541585.31815615</DistanceMeters>
          </Trackpoint>
          <Trackpoint>
            <Time>2021-08-03T14:49:40Z</Time>
            <Position>
              <LatitudeDegrees>41.108103</LatitudeDegrees>
              <LongitudeDegrees>-1.419199</LongitudeDegrees>
            </Position>
            <AltitudeMeters>757.243</AltitudeMeters>
            <DistanceMeters>541595.96199657</DistanceMeters>
          </Trackpoint>
          <Trackpoint>
            <Time>2021-08-03T14:49:41Z</Time>
            <Position>
              <LatitudeDegrees>41.108054</LatitudeDegrees>
              <LongitudeDegrees>-1.419221</LongitudeDegrees>
            </Position>
            <AltitudeMeters>757.217</AltitudeMeters>
            <DistanceMeters>541601.71954906</DistanceMeters>
          </Trackpoint>
          <Trackpoint>
            <Time>2021-08-03T14:49:42Z</Time>
            <Position>
              <LatitudeDegrees>41.108006</LatitudeDegrees>
              <LongitudeDegrees>-1.419249</LongitudeDegrees>
            </Position>
            <AltitudeMeters>757.208</AltitudeMeters>
            <DistanceMeters>541607.55499405</DistanceMeters>
          </Trackpoint>
          <Trackpoint>
            <Time>2021-08-03T14:49:44Z</Time>
            <Position>
              <LatitudeDegrees>41.107914</LatitudeDegrees>
              <LongitudeDegrees>-1.419292</LongitudeDegrees>
            </Position>
            <AltitudeMeters>757.215</AltitudeMeters>
            <DistanceMeters>541618.4113543</DistanceMeters>
          </Trackpoint>
          <Trackpoint>
            <Time>2021-08-03T14:49:46Z</Time>
            <Position>
              <LatitudeDegrees>41.107815</LatitudeDegrees>
              <LongitudeDegrees>-1.419343</LongitudeDegrees>
            </Position>
            <AltitudeMeters>757.147</AltitudeMeters>
            <DistanceMeters>541630.23139418</DistanceMeters>
          </Trackpoint>
          <Trackpoint>
            <Time>2021-08-03T14:49:48Z</Time>
            <Position>
              <LatitudeDegrees>41.107717</LatitudeDegrees>
              <LongitudeDegrees>-1.419396</LongitudeDegrees>
            </Position>
            <AltitudeMeters>756.777</AltitudeMeters>
            <DistanceMeters>541642.00972447</DistanceMeters>
          </Trackpoint>
          <Trackpoint>
            <Time>2021-08-03T14:49:49Z</Time>
            <Position>
              <LatitudeDegrees>41.107671</LatitudeDegrees>
              <LongitudeDegrees>-1.419414</LongitudeDegrees>
            </Position>
            <AltitudeMeters>756.730</AltitudeMeters>
            <DistanceMeters>541647.34647077</DistanceMeters>
          </Trackpoint>
          <Trackpoint>
            <Time>2021-08-03T14:49:50Z</Time>
            <Position>
              <LatitudeDegrees>41.107626</LatitudeDegrees>
              <LongitudeDegrees>-1.419434</LongitudeDegrees>
            </Position>
            <AltitudeMeters>756.738</AltitudeMeters>
            <DistanceMeters>541652.62879376</DistanceMeters>
          </Trackpoint>
          <Trackpoint>
            <Time>2021-08-03T14:49:52Z</Time>
            <Position>
              <LatitudeDegrees>41.107499</LatitudeDegrees>
              <LongitudeDegrees>-1.419475</LongitudeDegrees>
            </Position>
            <AltitudeMeters>756.923</AltitudeMeters>
            <DistanceMeters>541667.17626336</DistanceMeters>
          </Trackpoint>
          <Trackpoint>
            <Time>2021-08-03T14:49:53Z</Time>
            <Position>
              <LatitudeDegrees>41.107452</LatitudeDegrees>
              <LongitudeDegrees>-1.419501</LongitudeDegrees>
            </Position>
            <AltitudeMeters>757.198</AltitudeMeters>
            <DistanceMeters>541672.84291597</DistanceMeters>
          </Trackpoint>
          <Trackpoint>
            <Time>2021-08-03T14:49:55Z</Time>
            <Position>
              <LatitudeDegrees>41.107361</LatitudeDegrees>
              <LongitudeDegrees>-1.419555</LongitudeDegrees>
            </Position>
            <AltitudeMeters>757.299</AltitudeMeters>
            <DistanceMeters>541683.93786987</DistanceMeters>
          </Trackpoint>
          <Trackpoint>
            <Time>2021-08-03T14:49:57Z</Time>
            <Position>
              <LatitudeDegrees>41.107268</LatitudeDegrees>
              <LongitudeDegrees>-1.419609</LongitudeDegrees>
            </Position>
            <AltitudeMeters>757.677</AltitudeMeters>
            <DistanceMeters>541695.23606267</DistanceMeters>
          </Trackpoint>
          <Trackpoint>
            <Time>2021-08-03T14:49:59Z</Time>
            <Position>
              <LatitudeDegrees>41.107195</LatitudeDegrees>
              <LongitudeDegrees>-1.419662</LongitudeDegrees>
            </Position>
            <AltitudeMeters>757.661</AltitudeMeters>
            <DistanceMeters>541704.49714609</DistanceMeters>
          </Trackpoint>
          <Trackpoint>
            <Time>2021-08-03T14:50:00Z</Time>
            <Position>
              <LatitudeDegrees>41.107138</LatitudeDegrees>
              <LongitudeDegrees>-1.419673</LongitudeDegrees>
            </Position>
            <AltitudeMeters>757.727</AltitudeMeters>
            <DistanceMeters>541710.90775276</DistanceMeters>
          </Trackpoint>
          <Trackpoint>
            <Time>2021-08-03T14:50:01Z</Time>
            <Position>
              <LatitudeDegrees>41.107096</LatitudeDegrees>
              <LongitudeDegrees>-1.419697</LongitudeDegrees>
            </Position>
            <AltitudeMeters>757.908</AltitudeMeters>
            <DistanceMeters>541715.99767313</DistanceMeters>
          </Trackpoint>
          <Trackpoint>
            <Time>2021-08-03T14:50:03Z</Time>
            <Position>
              <LatitudeDegrees>41.107014</LatitudeDegrees>
              <LongitudeDegrees>-1.419754</LongitudeDegrees>
            </Position>
            <AltitudeMeters>758.364</AltitudeMeters>
            <DistanceMeters>541726.30007666</DistanceMeters>
          </Trackpoint>
          <Trackpoint>
            <Time>2021-08-03T14:50:05Z</Time>
            <Position>
              <LatitudeDegrees>41.106952</LatitudeDegrees>
              <LongitudeDegrees>-1.419797</LongitudeDegrees>
            </Position>
            <AltitudeMeters>758.346</AltitudeMeters>
            <DistanceMeters>541734.08531096</DistanceMeters>
          </Trackpoint>
          <Trackpoint>
            <Time>2021-08-03T14:50:07Z</Time>
            <Position>
              <LatitudeDegrees>41.106878</LatitudeDegrees>
              <LongitudeDegrees>-1.419855</LongitudeDegrees>
            </Position>
            <AltitudeMeters>758.496</AltitudeMeters>
            <DistanceMeters>541743.65002237</DistanceMeters>
          </Trackpoint>
          <Trackpoint>
            <Time>2021-08-03T14:50:09Z</Time>
            <Position>
              <LatitudeDegrees>41.106839</LatitudeDegrees>
              <LongitudeDegrees>-1.419921</LongitudeDegrees>
            </Position>
            <AltitudeMeters>758.589</AltitudeMeters>
            <DistanceMeters>541750.68392519</DistanceMeters>
          </Trackpoint>
          <Trackpoint>
            <Time>2021-08-03T14:50:11Z</Time>
            <Position>
              <LatitudeDegrees>41.106772</LatitudeDegrees>
              <LongitudeDegrees>-1.419972</LongitudeDegrees>
            </Position>
            <AltitudeMeters>758.877</AltitudeMeters>
            <DistanceMeters>541759.2805609</DistanceMeters>
          </Trackpoint>
          <Trackpoint>
            <Time>2021-08-03T14:50:13Z</Time>
            <Position>
              <LatitudeDegrees>41.106715</LatitudeDegrees>
              <LongitudeDegrees>-1.420011</LongitudeDegrees>
            </Position>
            <AltitudeMeters>758.992</AltitudeMeters>
            <DistanceMeters>541766.41832605</DistanceMeters>
          </Trackpoint>
          <Trackpoint>
            <Time>2021-08-03T14:50:15Z</Time>
            <Position>
              <LatitudeDegrees>41.106664</LatitudeDegrees>
              <LongitudeDegrees>-1.420043</LongitudeDegrees>
            </Position>
            <AltitudeMeters>759.247</AltitudeMeters>
            <DistanceMeters>541772.69728407</DistanceMeters>
          </Trackpoint>
          <Trackpoint>
            <Time>2021-08-03T14:50:17Z</Time>
            <Position>
              <LatitudeDegrees>41.106607</LatitudeDegrees>
              <LongitudeDegrees>-1.420077</LongitudeDegrees>
            </Position>
            <AltitudeMeters>759.398</AltitudeMeters>
            <DistanceMeters>541779.65243464</DistanceMeters>
          </Trackpoint>
          <Trackpoint>
            <Time>2021-08-03T14:50:19Z</Time>
            <Position>
              <LatitudeDegrees>41.106549</LatitudeDegrees>
              <LongitudeDegrees>-1.420108</LongitudeDegrees>
            </Position>
            <AltitudeMeters>759.398</AltitudeMeters>
            <DistanceMeters>541786.61212788</DistanceMeters>
          </Trackpoint>
          <Trackpoint>
            <Time>2021-08-03T14:50:21Z</Time>
            <Position>
              <LatitudeDegrees>41.106486</LatitudeDegrees>
              <LongitudeDegrees>-1.420140</LongitudeDegrees>
            </Position>
            <AltitudeMeters>759.415</AltitudeMeters>
            <DistanceMeters>541794.11983973</DistanceMeters>
          </Trackpoint>
          <Trackpoint>
            <Time>2021-08-03T14:50:23Z</Time>
            <Position>
              <LatitudeDegrees>41.106424</LatitudeDegrees>
              <LongitudeDegrees>-1.420174</LongitudeDegrees>
            </Position>
            <AltitudeMeters>759.426</AltitudeMeters>
            <DistanceMeters>541801.58654529</DistanceMeters>
          </Trackpoint>
          <Trackpoint>
            <Time>2021-08-03T14:50:25Z</Time>
            <Position>
              <LatitudeDegrees>41.106361</LatitudeDegrees>
              <LongitudeDegrees>-1.420213</LongitudeDegrees>
            </Position>
            <AltitudeMeters>759.408</AltitudeMeters>
            <DistanceMeters>541809.32407764</DistanceMeters>
          </Trackpoint>
          <Trackpoint>
            <Time>2021-08-03T14:50:27Z</Time>
            <Position>
              <LatitudeDegrees>41.106291</LatitudeDegrees>
              <LongitudeDegrees>-1.420251</LongitudeDegrees>
            </Position>
            <AltitudeMeters>759.516</AltitudeMeters>
            <DistanceMeters>541817.74185703</DistanceMeters>
          </Trackpoint>
          <Trackpoint>
            <Time>2021-08-03T14:50:29Z</Time>
            <Position>
              <LatitudeDegrees>41.106209</LatitudeDegrees>
              <LongitudeDegrees>-1.420299</LongitudeDegrees>
            </Position>
            <AltitudeMeters>759.588</AltitudeMeters>
            <DistanceMeters>541827.71649398</DistanceMeters>
          </Trackpoint>
          <Trackpoint>
            <Time>2021-08-03T14:50:31Z</Time>
            <Position>
              <LatitudeDegrees>41.106145</LatitudeDegrees>
              <LongitudeDegrees>-1.420342</LongitudeDegrees>
            </Position>
            <AltitudeMeters>759.368</AltitudeMeters>
            <DistanceMeters>541835.70043471</DistanceMeters>
          </Trackpoint>
          <Trackpoint>
            <Time>2021-08-03T14:50:33Z</Time>
            <Position>
              <LatitudeDegrees>41.106080</LatitudeDegrees>
              <LongitudeDegrees>-1.420381</LongitudeDegrees>
            </Position>
            <AltitudeMeters>759.291</AltitudeMeters>
            <DistanceMeters>541843.64014274</DistanceMeters>
          </Trackpoint>
          <Trackpoint>
            <Time>2021-08-03T14:50:35Z</Time>
            <Position>
              <LatitudeDegrees>41.106014</LatitudeDegrees>
              <LongitudeDegrees>-1.420415</LongitudeDegrees>
            </Position>
            <AltitudeMeters>759.199</AltitudeMeters>
            <DistanceMeters>541851.51991467</DistanceMeters>
          </Trackpoint>
          <Trackpoint>
            <Time>2021-08-03T14:50:37Z</Time>
            <Position>
              <LatitudeDegrees>41.105944</LatitudeDegrees>
              <LongitudeDegrees>-1.420452</LongitudeDegrees>
            </Position>
            <AltitudeMeters>759.044</AltitudeMeters>
            <DistanceMeters>541859.90598857</DistanceMeters>
          </Trackpoint>
          <Trackpoint>
            <Time>2021-08-03T14:50:39Z</Time>
            <Position>
              <LatitudeDegrees>41.105872</LatitudeDegrees>
              <LongitudeDegrees>-1.420492</LongitudeDegrees>
            </Position>
            <AltitudeMeters>758.989</AltitudeMeters>
            <DistanceMeters>541868.59353016</DistanceMeters>
          </Trackpoint>
          <Trackpoint>
            <Time>2021-08-03T14:50:41Z</Time>
            <Position>
              <LatitudeDegrees>41.105799</LatitudeDegrees>
              <LongitudeDegrees>-1.420532</LongitudeDegrees>
            </Position>
            <AltitudeMeters>758.830</AltitudeMeters>
            <DistanceMeters>541877.38285914</DistanceMeters>
          </Trackpoint>
          <Trackpoint>
            <Time>2021-08-03T14:50:43Z</Time>
            <Position>
              <LatitudeDegrees>41.105720</LatitudeDegrees>
              <LongitudeDegrees>-1.420575</LongitudeDegrees>
            </Position>
            <AltitudeMeters>758.878</AltitudeMeters>
            <DistanceMeters>541886.8864808</DistanceMeters>
          </Trackpoint>
          <Trackpoint>
            <Time>2021-08-03T14:50:45Z</Time>
            <Position>
              <LatitudeDegrees>41.105644</LatitudeDegrees>
              <LongitudeDegrees>-1.420621</LongitudeDegrees>
            </Position>
            <AltitudeMeters>758.833</AltitudeMeters>
            <DistanceMeters>541896.1835713</DistanceMeters>
          </Trackpoint>
          <Trackpoint>
            <Time>2021-08-03T14:50:47Z</Time>
            <Position>
              <LatitudeDegrees>41.105566</LatitudeDegrees>
              <LongitudeDegrees>-1.420668</LongitudeDegrees>
            </Position>
            <AltitudeMeters>758.826</AltitudeMeters>
            <DistanceMeters>541905.71802354</DistanceMeters>
          </Trackpoint>
          <Trackpoint>
            <Time>2021-08-03T14:50:49Z</Time>
            <Position>
              <LatitudeDegrees>41.105487</LatitudeDegrees>
              <LongitudeDegrees>-1.420708</LongitudeDegrees>
            </Position>
            <AltitudeMeters>758.908</AltitudeMeters>
            <DistanceMeters>541915.12950694</DistanceMeters>
          </Trackpoint>
          <Trackpoint>
            <Time>2021-08-03T14:50:51Z</Time>
            <Position>
              <LatitudeDegrees>41.105413</LatitudeDegrees>
              <LongitudeDegrees>-1.420744</LongitudeDegrees>
            </Position>
            <AltitudeMeters>758.914</AltitudeMeters>
            <DistanceMeters>541923.9018676</DistanceMeters>
          </Trackpoint>
          <Trackpoint>
            <Time>2021-08-03T14:50:53Z</Time>
            <Position>
              <LatitudeDegrees>41.105341</LatitudeDegrees>
              <LongitudeDegrees>-1.420787</LongitudeDegrees>
            </Position>
            <AltitudeMeters>758.946</AltitudeMeters>
            <DistanceMeters>541932.68965536</DistanceMeters>
          </Trackpoint>
          <Trackpoint>
            <Time>2021-08-03T14:50:55Z</Time>
            <Position>
              <LatitudeDegrees>41.105263</LatitudeDegrees>
              <LongitudeDegrees>-1.420835</LongitudeDegrees>
            </Position>
            <AltitudeMeters>758.966</AltitudeMeters>
            <DistanceMeters>541942.25908612</DistanceMeters>
          </Trackpoint>
          <Trackpoint>
            <Time>2021-08-03T14:50:57Z</Time>
            <Position>
              <LatitudeDegrees>41.105177</LatitudeDegrees>
              <LongitudeDegrees>-1.420873</LongitudeDegrees>
            </Position>
            <AltitudeMeters>759.069</AltitudeMeters>
            <DistanceMeters>541952.34714647</DistanceMeters>
          </Trackpoint>
          <Trackpoint>
            <Time>2021-08-03T14:50:59Z</Time>
            <Position>
              <LatitudeDegrees>41.105094</LatitudeDegrees>
              <LongitudeDegrees>-1.420906</LongitudeDegrees>
            </Position>
            <AltitudeMeters>759.627</AltitudeMeters>
            <DistanceMeters>541961.99083649</DistanceMeters>
          </Trackpoint>
          <Trackpoint>
            <Time>2021-08-03T14:51:01Z</Time>
            <Position>
              <LatitudeDegrees>41.105010</LatitudeDegrees>
              <LongitudeDegrees>-1.420948</LongitudeDegrees>
            </Position>
            <AltitudeMeters>760.252</AltitudeMeters>
            <DistanceMeters>541971.98175562</DistanceMeters>
          </Trackpoint>
          <Trackpoint>
            <Time>2021-08-03T14:51:03Z</Time>
            <Position>
              <LatitudeDegrees>41.104935</LatitudeDegrees>
              <LongitudeDegrees>-1.420981</LongitudeDegrees>
            </Position>
            <AltitudeMeters>760.417</AltitudeMeters>
            <DistanceMeters>541980.77570665</DistanceMeters>
          </Trackpoint>
          <Trackpoint>
            <Time>2021-08-03T14:51:05Z</Time>
            <Position>
              <LatitudeDegrees>41.104863</LatitudeDegrees>
              <LongitudeDegrees>-1.421019</LongitudeDegrees>
            </Position>
            <AltitudeMeters>760.718</AltitudeMeters>
            <DistanceMeters>541989.40013357</DistanceMeters>
          </Trackpoint>
          <Trackpoint>
            <Time>2021-08-03T14:51:07Z</Time>
            <Position>
              <LatitudeDegrees>41.104791</LatitudeDegrees>
              <LongitudeDegrees>-1.421066</LongitudeDegrees>
            </Position>
            <AltitudeMeters>760.987</AltitudeMeters>
            <DistanceMeters>541998.33062264</DistanceMeters>
          </Trackpoint>
          <Trackpoint>
            <Time>2021-08-03T14:51:09Z</Time>
            <Position>
              <LatitudeDegrees>41.104726</LatitudeDegrees>
              <LongitudeDegrees>-1.421112</LongitudeDegrees>
            </Position>
            <AltitudeMeters>761.242</AltitudeMeters>
            <DistanceMeters>542006.52939628</DistanceMeters>
          </Trackpoint>
          <Trackpoint>
            <Time>2021-08-03T14:51:11Z</Time>
            <Position>
              <LatitudeDegrees>41.104663</LatitudeDegrees>
              <LongitudeDegrees>-1.421156</LongitudeDegrees>
            </Position>
            <AltitudeMeters>761.526</AltitudeMeters>
            <DistanceMeters>542014.45316568</DistanceMeters>
          </Trackpoint>
          <Trackpoint>
            <Time>2021-08-03T14:51:13Z</Time>
            <Position>
              <LatitudeDegrees>41.104617</LatitudeDegrees>
              <LongitudeDegrees>-1.421189</LongitudeDegrees>
            </Position>
            <AltitudeMeters>761.808</AltitudeMeters>
            <DistanceMeters>542020.2738913</DistanceMeters>
          </Trackpoint>
          <Trackpoint>
            <Time>2021-08-03T14:51:15Z</Time>
            <Position>
              <LatitudeDegrees>41.104573</LatitudeDegrees>
              <LongitudeDegrees>-1.421224</LongitudeDegrees>
            </Position>
            <AltitudeMeters>762.115</AltitudeMeters>
            <DistanceMeters>542025.98340757</DistanceMeters>
          </Trackpoint>
          <Trackpoint>
            <Time>2021-08-03T14:51:17Z</Time>
            <Position>
              <LatitudeDegrees>41.104523</LatitudeDegrees>
              <LongitudeDegrees>-1.421266</LongitudeDegrees>
            </Position>
            <AltitudeMeters>762.317</AltitudeMeters>
            <DistanceMeters>542032.56979407</DistanceMeters>
          </Trackpoint>
          <Trackpoint>
            <Time>2021-08-03T14:51:19Z</Time>
            <Position>
              <LatitudeDegrees>41.104464</LatitudeDegrees>
              <LongitudeDegrees>-1.421304</LongitudeDegrees>
            </Position>
            <AltitudeMeters>762.427</AltitudeMeters>
            <DistanceMeters>542039.8689345</DistanceMeters>
          </Trackpoint>
          <Trackpoint>
            <Time>2021-08-03T14:51:21Z</Time>
            <Position>
              <LatitudeDegrees>41.104412</LatitudeDegrees>
              <LongitudeDegrees>-1.421342</LongitudeDegrees>
            </Position>
            <AltitudeMeters>763.070</AltitudeMeters>
            <DistanceMeters>542046.47585433</DistanceMeters>
          </Trackpoint>
          <Trackpoint>
            <Time>2021-08-03T14:51:23Z</Time>
            <Position>
              <LatitudeDegrees>41.104361</LatitudeDegrees>
              <LongitudeDegrees>-1.421388</LongitudeDegrees>
            </Position>
            <AltitudeMeters>763.248</AltitudeMeters>
            <DistanceMeters>542053.33952017</DistanceMeters>
          </Trackpoint>
          <Trackpoint>
            <Time>2021-08-03T14:51:25Z</Time>
            <Position>
              <LatitudeDegrees>41.104322</LatitudeDegrees>
              <LongitudeDegrees>-1.421422</LongitudeDegrees>
            </Position>
            <AltitudeMeters>763.293</AltitudeMeters>
            <DistanceMeters>542058.53392759</DistanceMeters>
          </Trackpoint>
          <Trackpoint>
            <Time>2021-08-03T14:51:29Z</Time>
            <Position>
              <LatitudeDegrees>41.104274</LatitudeDegrees>
              <LongitudeDegrees>-1.421448</LongitudeDegrees>
            </Position>
            <AltitudeMeters>763.338</AltitudeMeters>
            <DistanceMeters>542064.30323099</DistanceMeters>
          </Trackpoint>
          <Trackpoint>
            <Time>2021-08-03T14:51:33Z</Time>
            <Position>
              <LatitudeDegrees>41.104225</LatitudeDegrees>
              <LongitudeDegrees>-1.421390</LongitudeDegrees>
            </Position>
            <AltitudeMeters>763.539</AltitudeMeters>
            <DistanceMeters>542071.61102629</DistanceMeters>
          </Trackpoint>
          <Trackpoint>
            <Time>2021-08-03T14:51:36Z</Time>
            <Position>
              <LatitudeDegrees>41.104194</LatitudeDegrees>
              <LongitudeDegrees>-1.421339</LongitudeDegrees>
            </Position>
            <AltitudeMeters>763.518</AltitudeMeters>
            <DistanceMeters>542077.10781042</DistanceMeters>
          </Trackpoint>
          <Trackpoint>
            <Time>2021-08-03T14:51:38Z</Time>
            <Position>
              <LatitudeDegrees>41.104152</LatitudeDegrees>
              <LongitudeDegrees>-1.421280</LongitudeDegrees>
            </Position>
            <AltitudeMeters>763.698</AltitudeMeters>
            <DistanceMeters>542083.91533216</DistanceMeters>
          </Trackpoint>
          <Trackpoint>
            <Time>2021-08-03T14:51:40Z</Time>
            <Position>
              <LatitudeDegrees>41.104110</LatitudeDegrees>
              <LongitudeDegrees>-1.421210</LongitudeDegrees>
            </Position>
            <AltitudeMeters>763.617</AltitudeMeters>
            <DistanceMeters>542091.42003647</DistanceMeters>
          </Trackpoint>
          <Trackpoint>
            <Time>2021-08-03T14:51:42Z</Time>
            <Position>
              <LatitudeDegrees>41.104027</LatitudeDegrees>
              <LongitudeDegrees>-1.421111</LongitudeDegrees>
            </Position>
            <AltitudeMeters>763.508</AltitudeMeters>
            <DistanceMeters>542103.84094047</DistanceMeters>
          </Trackpoint>
          <Trackpoint>
            <Time>2021-08-03T14:51:44Z</Time>
            <Position>
              <LatitudeDegrees>41.103979</LatitudeDegrees>
              <LongitudeDegrees>-1.421033</LongitudeDegrees>
            </Position>
            <AltitudeMeters>763.678</AltitudeMeters>
            <DistanceMeters>542112.28709959</DistanceMeters>
          </Trackpoint>
          <Trackpoint>
            <Time>2021-08-03T14:51:46Z</Time>
            <Position>
              <LatitudeDegrees>41.103920</LatitudeDegrees>
              <LongitudeDegrees>-1.420962</LongitudeDegrees>
            </Position>
            <AltitudeMeters>763.690</AltitudeMeters>
            <DistanceMeters>542121.15162017</DistanceMeters>
          </Trackpoint>
          <Trackpoint>
            <Time>2021-08-03T14:51:48Z</Time>
            <Position>
              <LatitudeDegrees>41.103872</LatitudeDegrees>
              <LongitudeDegrees>-1.420883</LongitudeDegrees>
            </Position>
            <AltitudeMeters>763.620</AltitudeMeters>
            <DistanceMeters>542129.66274661</DistanceMeters>
          </Trackpoint>
          <Trackpoint>
            <Time>2021-08-03T14:51:50Z</Time>
            <Position>
              <LatitudeDegrees>41.103820</LatitudeDegrees>
              <LongitudeDegrees>-1.420809</LongitudeDegrees>
            </Position>
            <AltitudeMeters>763.773</AltitudeMeters>
            <DistanceMeters>542138.14837149</DistanceMeters>
          </Trackpoint>
          <Trackpoint>
            <Time>2021-08-03T14:51:52Z</Time>
            <Position>
              <LatitudeDegrees>41.103762</LatitudeDegrees>
              <LongitudeDegrees>-1.420733</LongitudeDegrees>
            </Position>
            <AltitudeMeters>763.651</AltitudeMeters>
            <DistanceMeters>542147.22031267</DistanceMeters>
          </Trackpoint>
          <Trackpoint>
            <Time>2021-08-03T14:51:54Z</Time>
            <Position>
              <LatitudeDegrees>41.103706</LatitudeDegrees>
              <LongitudeDegrees>-1.420661</LongitudeDegrees>
            </Position>
            <AltitudeMeters>763.766</AltitudeMeters>
            <DistanceMeters>542155.89849436</DistanceMeters>
          </Trackpoint>
          <Trackpoint>
            <Time>2021-08-03T14:51:56Z</Time>
            <Position>
              <LatitudeDegrees>41.103652</LatitudeDegrees>
              <LongitudeDegrees>-1.420586</LongitudeDegrees>
            </Position>
            <AltitudeMeters>763.751</AltitudeMeters>
            <DistanceMeters>542164.59901911</DistanceMeters>
          </Trackpoint>
          <Trackpoint>
            <Time>2021-08-03T14:51:58Z</Time>
            <Position>
              <LatitudeDegrees>41.103601</LatitudeDegrees>
              <LongitudeDegrees>-1.420516</LongitudeDegrees>
            </Position>
            <AltitudeMeters>763.752</AltitudeMeters>
            <DistanceMeters>542172.76578986</DistanceMeters>
          </Trackpoint>
          <Trackpoint>
            <Time>2021-08-03T14:52:00Z</Time>
            <Position>
              <LatitudeDegrees>41.103557</LatitudeDegrees>
              <LongitudeDegrees>-1.420453</LongitudeDegrees>
            </Position>
            <AltitudeMeters>763.796</AltitudeMeters>
            <DistanceMeters>542179.97029397</DistanceMeters>
          </Trackpoint>
          <Trackpoint>
            <Time>2021-08-03T14:52:02Z</Time>
            <Position>
              <LatitudeDegrees>41.103522</LatitudeDegrees>
              <LongitudeDegrees>-1.420402</LongitudeDegrees>
            </Position>
            <AltitudeMeters>763.731</AltitudeMeters>
            <DistanceMeters>542185.75600857</DistanceMeters>
          </Trackpoint>
          <Trackpoint>
            <Time>2021-08-03T14:52:04Z</Time>
            <Position>
              <LatitudeDegrees>41.103489</LatitudeDegrees>
              <LongitudeDegrees>-1.420351</LongitudeDegrees>
            </Position>
            <AltitudeMeters>763.924</AltitudeMeters>
            <DistanceMeters>542191.39390437</DistanceMeters>
          </Trackpoint>
          <Trackpoint>
            <Time>2021-08-03T14:52:06Z</Time>
            <Position>
              <LatitudeDegrees>41.103434</LatitudeDegrees>
              <LongitudeDegrees>-1.420299</LongitudeDegrees>
            </Position>
            <AltitudeMeters>763.808</AltitudeMeters>
            <DistanceMeters>542198.9106316</DistanceMeters>
          </Trackpoint>
          <Trackpoint>
            <Time>2021-08-03T14:52:07Z</Time>
            <Position>
              <LatitudeDegrees>41.103393</LatitudeDegrees>
              <LongitudeDegrees>-1.420261</LongitudeDegrees>
            </Position>
            <AltitudeMeters>763.856</AltitudeMeters>
            <DistanceMeters>542204.47679655</DistanceMeters>
          </Trackpoint>
          <Trackpoint>
            <Time>2021-08-03T14:52:09Z</Time>
            <Position>
              <LatitudeDegrees>41.103338</LatitudeDegrees>
              <LongitudeDegrees>-1.420167</LongitudeDegrees>
            </Position>
            <AltitudeMeters>763.118</AltitudeMeters>
            <DistanceMeters>542214.45822097</DistanceMeters>
          </Trackpoint>
          <Trackpoint>
            <Time>2021-08-03T14:52:11Z</Time>
            <Position>
              <LatitudeDegrees>41.103298</LatitudeDegrees>
              <LongitudeDegrees>-1.420128</LongitudeDegrees>
            </Position>
            <AltitudeMeters>762.588</AltitudeMeters>
            <DistanceMeters>542219.98286199</DistanceMeters>
          </Trackpoint>
          <Trackpoint>
            <Time>2021-08-03T14:52:13Z</Time>
            <Position>
              <LatitudeDegrees>41.103249</LatitudeDegrees>
              <LongitudeDegrees>-1.420063</LongitudeDegrees>
            </Position>
            <AltitudeMeters>762.891</AltitudeMeters>
            <DistanceMeters>542227.69409104</DistanceMeters>
          </Trackpoint>
          <Trackpoint>
            <Time>2021-08-03T14:52:14Z</Time>
            <Position>
              <LatitudeDegrees>41.103224</LatitudeDegrees>
              <LongitudeDegrees>-1.420012</LongitudeDegrees>
            </Position>
            <AltitudeMeters>763.229</AltitudeMeters>
            <DistanceMeters>542232.79729988</DistanceMeters>
          </Trackpoint>
          <Trackpoint>
            <Time>2021-08-03T14:52:15Z</Time>
            <Position>
              <LatitudeDegrees>41.103191</LatitudeDegrees>
              <LongitudeDegrees>-1.419959</LongitudeDegrees>
            </Position>
            <AltitudeMeters>763.444</AltitudeMeters>
            <DistanceMeters>542238.56347204</DistanceMeters>
          </Trackpoint>
          <Trackpoint>
            <Time>2021-08-03T14:52:17Z</Time>
            <Position>
              <LatitudeDegrees>41.103143</LatitudeDegrees>
              <LongitudeDegrees>-1.419871</LongitudeDegrees>
            </Position>
            <AltitudeMeters>763.439</AltitudeMeters>
            <DistanceMeters>542247.67415054</DistanceMeters>
          </Trackpoint>
          <Trackpoint>
            <Time>2021-08-03T14:52:18Z</Time>
            <Position>
              <LatitudeDegrees>41.103108</LatitudeDegrees>
              <LongitudeDegrees>-1.419828</LongitudeDegrees>
            </Position>
            <AltitudeMeters>763.480</AltitudeMeters>
            <DistanceMeters>542252.98375492</DistanceMeters>
          </Trackpoint>
          <Trackpoint>
            <Time>2021-08-03T14:52:20Z</Time>
            <Position>
              <LatitudeDegrees>41.103063</LatitudeDegrees>
              <LongitudeDegrees>-1.419769</LongitudeDegrees>
            </Position>
            <AltitudeMeters>763.557</AltitudeMeters>
            <DistanceMeters>542260.02471506</DistanceMeters>
          </Trackpoint>
          <Trackpoint>
            <Time>2021-08-03T14:52:22Z</Time>
            <Position>
              <LatitudeDegrees>41.103009</LatitudeDegrees>
              <LongitudeDegrees>-1.419729</LongitudeDegrees>
            </Position>
            <AltitudeMeters>763.700</AltitudeMeters>
            <DistanceMeters>542266.90743117</DistanceMeters>
          </Trackpoint>
          <Trackpoint>
            <Time>2021-08-03T14:52:24Z</Time>
            <Position>
              <LatitudeDegrees>41.102949</LatitudeDegrees>
              <LongitudeDegrees>-1.419677</LongitudeDegrees>
            </Position>
            <AltitudeMeters>763.720</AltitudeMeters>
            <DistanceMeters>542274.88401681</DistanceMeters>
          </Trackpoint>
          <Trackpoint>
            <Time>2021-08-03T14:52:26Z</Time>
            <Position>
              <LatitudeDegrees>41.102885</LatitudeDegrees>
              <LongitudeDegrees>-1.419605</LongitudeDegrees>
            </Position>
            <AltitudeMeters>763.708</AltitudeMeters>
            <DistanceMeters>542284.22277895</DistanceMeters>
          </Trackpoint>
          <Trackpoint>
            <Time>2021-08-03T14:52:28Z</Time>
            <Position>
              <LatitudeDegrees>41.102823</LatitudeDegrees>
              <LongitudeDegrees>-1.419512</LongitudeDegrees>
            </Position>
            <AltitudeMeters>763.642</AltitudeMeters>
            <DistanceMeters>542294.63677041</DistanceMeters>
          </Trackpoint>
          <Trackpoint>
            <Time>2021-08-03T14:52:30Z</Time>
            <Position>
              <LatitudeDegrees>41.102773</LatitudeDegrees>
              <LongitudeDegrees>-1.419431</LongitudeDegrees>
            </Position>
            <AltitudeMeters>763.064</AltitudeMeters>
            <DistanceMeters>542303.41890472</DistanceMeters>
          </Trackpoint>
          <Trackpoint>
            <Time>2021-08-03T14:52:32Z</Time>
            <Position>
              <LatitudeDegrees>41.102715</LatitudeDegrees>
              <LongitudeDegrees>-1.419352</LongitudeDegrees>
            </Position>
            <AltitudeMeters>763.094</AltitudeMeters>
            <DistanceMeters>542312.67023243</DistanceMeters>
          </Trackpoint>
          <Trackpoint>
            <Time>2021-08-03T14:52:34Z</Time>
            <Position>
              <LatitudeDegrees>41.102657</LatitudeDegrees>
              <LongitudeDegrees>-1.419286</LongitudeDegrees>
            </Position>
            <AltitudeMeters>763.797</AltitudeMeters>
            <DistanceMeters>542321.17392881</DistanceMeters>
          </Trackpoint>
          <Trackpoint>
            <Time>2021-08-03T14:52:36Z</Time>
            <Position>
              <LatitudeDegrees>41.102588</LatitudeDegrees>
              <LongitudeDegrees>-1.419216</LongitudeDegrees>
            </Position>
            <AltitudeMeters>763.835</AltitudeMeters>
            <DistanceMeters>542330.84053272</DistanceMeters>
          </Trackpoint>
          <Trackpoint>
            <Time>2021-08-03T14:52:38Z</Time>
            <Position>
              <LatitudeDegrees>41.102511</LatitudeDegrees>
              <LongitudeDegrees>-1.419138</LongitudeDegrees>
            </Position>
            <AltitudeMeters>763.780</AltitudeMeters>
            <DistanceMeters>542341.62177309</DistanceMeters>
          </Trackpoint>
          <Trackpoint>
            <Time>2021-08-03T14:52:39Z</Time>
            <Position>
              <LatitudeDegrees>41.102473</LatitudeDegrees>
              <LongitudeDegrees>-1.419098</LongitudeDegrees>
            </Position>
            <AltitudeMeters>763.775</AltitudeMeters>
            <DistanceMeters>542347.01992617</DistanceMeters>
          </Trackpoint>
          <Trackpoint>
            <Time>2021-08-03T14:52:40Z</Time>
            <Position>
              <LatitudeDegrees>41.102436</LatitudeDegrees>
              <LongitudeDegrees>-1.419059</LongitudeDegrees>
            </Position>
            <AltitudeMeters>763.516</AltitudeMeters>
            <DistanceMeters>542352.27912042</DistanceMeters>
          </Trackpoint>
          <Trackpoint>
            <Time>2021-08-03T14:52:42Z</Time>
            <Position>
              <LatitudeDegrees>41.102351</LatitudeDegrees>
              <LongitudeDegrees>-1.418953</LongitudeDegrees>
            </Position>
            <AltitudeMeters>763.579</AltitudeMeters>
            <DistanceMeters>542365.26096608</DistanceMeters>
          </Trackpoint>
          <Trackpoint>
            <Time>2021-08-03T14:52:44Z</Time>
            <Position>
              <LatitudeDegrees>41.102273</LatitudeDegrees>
              <LongitudeDegrees>-1.418855</LongitudeDegrees>
            </Position>
            <AltitudeMeters>763.605</AltitudeMeters>
            <DistanceMeters>542377.21546271</DistanceMeters>
          </Trackpoint>
          <Trackpoint>
            <Time>2021-08-03T14:52:45Z</Time>
            <Position>
              <LatitudeDegrees>41.102235</LatitudeDegrees>
              <LongitudeDegrees>-1.418804</LongitudeDegrees>
            </Position>
            <AltitudeMeters>763.725</AltitudeMeters>
            <DistanceMeters>542383.2307363</DistanceMeters>
          </Trackpoint>
          <Trackpoint>
            <Time>2021-08-03T14:52:46Z</Time>
            <Position>
              <LatitudeDegrees>41.102191</LatitudeDegrees>
              <LongitudeDegrees>-1.418750</LongitudeDegrees>
            </Position>
            <AltitudeMeters>763.508</AltitudeMeters>
            <DistanceMeters>542389.90090771</DistanceMeters>
          </Trackpoint>
          <Trackpoint>
            <Time>2021-08-03T14:52:48Z</Time>
            <Position>
              <LatitudeDegrees>41.102089</LatitudeDegrees>
              <LongitudeDegrees>-1.418640</LongitudeDegrees>
            </Position>
            <AltitudeMeters>763.234</AltitudeMeters>
            <DistanceMeters>542404.53008444</DistanceMeters>
          </Trackpoint>
          <Trackpoint>
            <Time>2021-08-03T14:52:50Z</Time>
            <Position>
              <LatitudeDegrees>41.101996</LatitudeDegrees>
              <LongitudeDegrees>-1.418530</LongitudeDegrees>
            </Position>
            <AltitudeMeters>763.076</AltitudeMeters>
            <DistanceMeters>542418.39617212</DistanceMeters>
          </Trackpoint>
          <Trackpoint>
            <Time>2021-08-03T14:52:52Z</Time>
            <Position>
              <LatitudeDegrees>41.101914</LatitudeDegrees>
              <LongitudeDegrees>-1.418426</LongitudeDegrees>
            </Position>
            <AltitudeMeters>763.196</AltitudeMeters>
            <DistanceMeters>542431.02078496</DistanceMeters>
          </Trackpoint>
          <Trackpoint>
            <Time>2021-08-03T14:52:54Z</Time>
            <Position>
              <LatitudeDegrees>41.101830</LatitudeDegrees>
              <LongitudeDegrees>-1.418324</LongitudeDegrees>
            </Position>
            <AltitudeMeters>763.349</AltitudeMeters>
            <DistanceMeters>542443.69323064</DistanceMeters>
          </Trackpoint>
          <Trackpoint>
            <Time>2021-08-03T14:52:55Z</Time>
            <Position>
              <LatitudeDegrees>41.101789</LatitudeDegrees>
              <LongitudeDegrees>-1.418279</LongitudeDegrees>
            </Position>
            <AltitudeMeters>763.427</AltitudeMeters>
            <DistanceMeters>542449.6139364</DistanceMeters>
          </Trackpoint>
          <Trackpoint>
            <Time>2021-08-03T14:52:57Z</Time>
            <Position>
              <LatitudeDegrees>41.101713</LatitudeDegrees>
              <LongitudeDegrees>-1.418218</LongitudeDegrees>
            </Position>
            <AltitudeMeters>763.492</AltitudeMeters>
            <DistanceMeters>542459.49991219</DistanceMeters>
          </Trackpoint>
          <Trackpoint>
            <Time>2021-08-03T14:52:59Z</Time>
            <Position>
              <LatitudeDegrees>41.101666</LatitudeDegrees>
              <LongitudeDegrees>-1.418184</LongitudeDegrees>
            </Position>
            <AltitudeMeters>763.477</AltitudeMeters>
            <DistanceMeters>542465.45862519</DistanceMeters>
          </Trackpoint>
          <Trackpoint>
            <Time>2021-08-03T14:53:01Z</Time>
            <Position>
              <LatitudeDegrees>41.101589</LatitudeDegrees>
              <LongitudeDegrees>-1.418124</LongitudeDegrees>
            </Position>
            <AltitudeMeters>763.438</AltitudeMeters>
            <DistanceMeters>542475.39743831</DistanceMeters>
          </Trackpoint>
          <Trackpoint>
            <Time>2021-08-03T14:53:03Z</Time>
            <Position>
              <LatitudeDegrees>41.101496</LatitudeDegrees>
              <LongitudeDegrees>-1.418116</LongitudeDegrees>
            </Position>
            <AltitudeMeters>763.699</AltitudeMeters>
            <DistanceMeters>542485.77016027</DistanceMeters>
          </Trackpoint>
          <Trackpoint>
            <Time>2021-08-03T14:53:05Z</Time>
            <Position>
              <LatitudeDegrees>41.101428</LatitudeDegrees>
              <LongitudeDegrees>-1.418014</LongitudeDegrees>
            </Position>
            <AltitudeMeters>763.707</AltitudeMeters>
            <DistanceMeters>542497.19235552</DistanceMeters>
          </Trackpoint>
          <Trackpoint>
            <Time>2021-08-03T14:53:06Z</Time>
            <Position>
              <LatitudeDegrees>41.101396</LatitudeDegrees>
              <LongitudeDegrees>-1.417972</LongitudeDegrees>
            </Position>
            <AltitudeMeters>763.827</AltitudeMeters>
            <DistanceMeters>542502.20090345</DistanceMeters>
          </Trackpoint>
          <Trackpoint>
            <Time>2021-08-03T14:53:07Z</Time>
            <Position>
              <LatitudeDegrees>41.101353</LatitudeDegrees>
              <LongitudeDegrees>-1.417932</LongitudeDegrees>
            </Position>
            <AltitudeMeters>763.808</AltitudeMeters>
            <DistanceMeters>542508.04485324</DistanceMeters>
          </Trackpoint>
          <Trackpoint>
            <Time>2021-08-03T14:53:09Z</Time>
            <Position>
              <LatitudeDegrees>41.101313</LatitudeDegrees>
              <LongitudeDegrees>-1.417900</LongitudeDegrees>
            </Position>
            <AltitudeMeters>763.396</AltitudeMeters>
            <DistanceMeters>542513.2436049</DistanceMeters>
          </Trackpoint>
          <Trackpoint>
            <Time>2021-08-03T14:53:11Z</Time>
            <Position>
              <LatitudeDegrees>41.101258</LatitudeDegrees>
              <LongitudeDegrees>-1.417843</LongitudeDegrees>
            </Position>
            <AltitudeMeters>763.338</AltitudeMeters>
            <DistanceMeters>542521.01083997</DistanceMeters>
          </Trackpoint>
          <Trackpoint>
            <Time>2021-08-03T14:53:13Z</Time>
            <Position>
              <LatitudeDegrees>41.101149</LatitudeDegrees>
              <LongitudeDegrees>-1.417745</LongitudeDegrees>
            </Position>
            <AltitudeMeters>762.928</AltitudeMeters>
            <DistanceMeters>542535.66468649</DistanceMeters>
          </Trackpoint>
          <Trackpoint>
            <Time>2021-08-03T14:53:15Z</Time>
            <Position>
              <LatitudeDegrees>41.101050</LatitudeDegrees>
              <LongitudeDegrees>-1.417664</LongitudeDegrees>
            </Position>
            <AltitudeMeters>763.041</AltitudeMeters>
            <DistanceMeters>542548.60926445</DistanceMeters>
          </Trackpoint>
          <Trackpoint>
            <Time>2021-08-03T14:53:17Z</Time>
            <Position>
              <LatitudeDegrees>41.101003</LatitudeDegrees>
              <LongitudeDegrees>-1.417629</LongitudeDegrees>
            </Position>
            <AltitudeMeters>763.049</AltitudeMeters>
            <DistanceMeters>542554.60875482</DistanceMeters>
          </Trackpoint>
          <Trackpoint>
            <Time>2021-08-03T14:53:19Z</Time>
            <Position>
              <LatitudeDegrees>41.100961</LatitudeDegrees>
              <LongitudeDegrees>-1.417594</LongitudeDegrees>
            </Position>
            <AltitudeMeters>763.034</AltitudeMeters>
            <DistanceMeters>542560.12849013</DistanceMeters>
          </Trackpoint>
          <Trackpoint>
            <Time>2021-08-03T14:53:21Z</Time>
            <Position>
              <LatitudeDegrees>41.100909</LatitudeDegrees>
              <LongitudeDegrees>-1.417547</LongitudeDegrees>
            </Position>
            <AltitudeMeters>763.079</AltitudeMeters>
            <DistanceMeters>542567.13151413</DistanceMeters>
          </Trackpoint>
          <Trackpoint>
            <Time>2021-08-03T14:53:23Z</Time>
            <Position>
              <LatitudeDegrees>41.100854</LatitudeDegrees>
              <LongitudeDegrees>-1.417499</LongitudeDegrees>
            </Position>
            <AltitudeMeters>763.190</AltitudeMeters>
            <DistanceMeters>542574.45843739</DistanceMeters>
          </Trackpoint>
          <Trackpoint>
            <Time>2021-08-03T14:53:24Z</Time>
            <Position>
              <LatitudeDegrees>41.100808</LatitudeDegrees>
              <LongitudeDegrees>-1.417458</LongitudeDegrees>
            </Position>
            <AltitudeMeters>763.343</AltitudeMeters>
            <DistanceMeters>542580.62566384</DistanceMeters>
          </Trackpoint>
          <Trackpoint>
            <Time>2021-08-03T14:53:26Z</Time>
            <Position>
              <LatitudeDegrees>41.100589</LatitudeDegrees>
              <LongitudeDegrees>-1.417258</LongitudeDegrees>
            </Position>
            <AltitudeMeters>763.464</AltitudeMeters>
            <DistanceMeters>542610.21500519</DistanceMeters>
          </Trackpoint>
          <Trackpoint>
            <Time>2021-08-03T14:53:28Z</Time>
            <Position>
              <LatitudeDegrees>41.100504</LatitudeDegrees>
              <LongitudeDegrees>-1.417187</LongitudeDegrees>
            </Position>
            <AltitudeMeters>763.710</AltitudeMeters>
            <DistanceMeters>542621.39347547</DistanceMeters>
          </Trackpoint>
          <Trackpoint>
            <Time>2021-08-03T14:53:30Z</Time>
            <Position>
              <LatitudeDegrees>41.100422</LatitudeDegrees>
              <LongitudeDegrees>-1.417114</LongitudeDegrees>
            </Position>
            <AltitudeMeters>763.808</AltitudeMeters>
            <DistanceMeters>542632.38375766</DistanceMeters>
          </Trackpoint>
          <Trackpoint>
            <Time>2021-08-03T14:53:32Z</Time>
            <Position>
              <LatitudeDegrees>41.100347</LatitudeDegrees>
              <LongitudeDegrees>-1.417049</LongitudeDegrees>
            </Position>
            <AltitudeMeters>763.991</AltitudeMeters>
            <DistanceMeters>542642.35386706</DistanceMeters>
          </Trackpoint>
          <Trackpoint>
            <Time>2021-08-03T14:53:34Z</Time>
            <Position>
              <LatitudeDegrees>41.100262</LatitudeDegrees>
              <LongitudeDegrees>-1.416964</LongitudeDegrees>
            </Position>
            <AltitudeMeters>764.093</AltitudeMeters>
            <DistanceMeters>542654.19985321</DistanceMeters>
          </Trackpoint>
          <Trackpoint>
            <Time>2021-08-03T14:53:35Z</Time>
            <Position>
              <LatitudeDegrees>41.100219</LatitudeDegrees>
              <LongitudeDegrees>-1.416930</LongitudeDegrees>
            </Position>
            <AltitudeMeters>764.153</AltitudeMeters>
            <DistanceMeters>542659.77007248</DistanceMeters>
          </Trackpoint>
          <Trackpoint>
            <Time>2021-08-03T14:53:37Z</Time>
            <Position>
              <LatitudeDegrees>41.100137</LatitudeDegrees>
              <LongitudeDegrees>-1.416853</LongitudeDegrees>
            </Position>
            <AltitudeMeters>764.456</AltitudeMeters>
            <DistanceMeters>542670.95096593</DistanceMeters>
          </Trackpoint>
          <Trackpoint>
            <Time>2021-08-03T14:53:39Z</Time>
            <Position>
              <LatitudeDegrees>41.100064</LatitudeDegrees>
              <LongitudeDegrees>-1.416794</LongitudeDegrees>
            </Position>
            <AltitudeMeters>764.534</AltitudeMeters>
            <DistanceMeters>542680.46408456</DistanceMeters>
          </Trackpoint>
          <Trackpoint>
            <Time>2021-08-03T14:53:41Z</Time>
            <Position>
              <LatitudeDegrees>41.099995</LatitudeDegrees>
              <LongitudeDegrees>-1.416729</LongitudeDegrees>
            </Position>
            <AltitudeMeters>764.519</AltitudeMeters>
            <DistanceMeters>542689.88180248</DistanceMeters>
          </Trackpoint>
          <Trackpoint>
            <Time>2021-08-03T14:53:43Z</Time>
            <Position>
              <LatitudeDegrees>41.099945</LatitudeDegrees>
              <LongitudeDegrees>-1.416679</LongitudeDegrees>
            </Position>
            <AltitudeMeters>764.564</AltitudeMeters>
            <DistanceMeters>542696.85057218</DistanceMeters>
          </Trackpoint>
          <Trackpoint>
            <Time>2021-08-03T14:53:45Z</Time>
            <Position>
              <LatitudeDegrees>41.099876</LatitudeDegrees>
              <LongitudeDegrees>-1.416627</LongitudeDegrees>
            </Position>
            <AltitudeMeters>764.585</AltitudeMeters>
            <DistanceMeters>542705.68243497</DistanceMeters>
          </Trackpoint>
          <Trackpoint>
            <Time>2021-08-03T14:53:47Z</Time>
            <Position>
              <LatitudeDegrees>41.099739</LatitudeDegrees>
              <LongitudeDegrees>-1.416495</LongitudeDegrees>
            </Position>
            <AltitudeMeters>764.431</AltitudeMeters>
            <DistanceMeters>542724.52601918</DistanceMeters>
          </Trackpoint>
          <Trackpoint>
            <Time>2021-08-03T14:53:49Z</Time>
            <Position>
              <LatitudeDegrees>41.099653</LatitudeDegrees>
              <LongitudeDegrees>-1.416407</LongitudeDegrees>
            </Position>
            <AltitudeMeters>764.561</AltitudeMeters>
            <DistanceMeters>542736.61272993</DistanceMeters>
          </Trackpoint>
          <Trackpoint>
            <Time>2021-08-03T14:53:51Z</Time>
            <Position>
              <LatitudeDegrees>41.099557</LatitudeDegrees>
              <LongitudeDegrees>-1.416330</LongitudeDegrees>
            </Position>
            <AltitudeMeters>764.507</AltitudeMeters>
            <DistanceMeters>542749.0978082</DistanceMeters>
          </Trackpoint>
          <Trackpoint>
            <Time>2021-08-03T14:53:53Z</Time>
            <Position>
              <LatitudeDegrees>41.099496</LatitudeDegrees>
              <LongitudeDegrees>-1.416263</LongitudeDegrees>
            </Position>
            <AltitudeMeters>764.508</AltitudeMeters>
            <DistanceMeters>542757.9112478</DistanceMeters>
          </Trackpoint>
          <Trackpoint>
            <Time>2021-08-03T14:53:55Z</Time>
            <Position>
              <LatitudeDegrees>41.099429</LatitudeDegrees>
              <LongitudeDegrees>-1.416218</LongitudeDegrees>
            </Position>
            <AltitudeMeters>764.440</AltitudeMeters>
            <DistanceMeters>542766.26927815</DistanceMeters>
          </Trackpoint>
          <Trackpoint>
            <Time>2021-08-03T14:53:57Z</Time>
            <Position>
              <LatitudeDegrees>41.099347</LatitudeDegrees>
              <LongitudeDegrees>-1.416166</LongitudeDegrees>
            </Position>
            <AltitudeMeters>764.562</AltitudeMeters>
            <DistanceMeters>542776.38460297</DistanceMeters>
          </Trackpoint>
          <Trackpoint>
            <Time>2021-08-03T14:53:59Z</Time>
            <Position>
              <LatitudeDegrees>41.099256</LatitudeDegrees>
              <LongitudeDegrees>-1.416094</LongitudeDegrees>
            </Position>
            <AltitudeMeters>764.582</AltitudeMeters>
            <DistanceMeters>542788.1771081</DistanceMeters>
          </Trackpoint>
          <Trackpoint>
            <Time>2021-08-03T14:54:01Z</Time>
            <Position>
              <LatitudeDegrees>41.099176</LatitudeDegrees>
              <LongitudeDegrees>-1.416002</LongitudeDegrees>
            </Position>
            <AltitudeMeters>764.575</AltitudeMeters>
            <DistanceMeters>542799.95965432</DistanceMeters>
          </Trackpoint>
          <Trackpoint>
            <Time>2021-08-03T14:54:02Z</Time>
            <Position>
              <LatitudeDegrees>41.099129</LatitudeDegrees>
              <LongitudeDegrees>-1.415940</LongitudeDegrees>
            </Position>
            <AltitudeMeters>764.493</AltitudeMeters>
            <DistanceMeters>542807.33509874</DistanceMeters>
          </Trackpoint>
          <Trackpoint>
            <Time>2021-08-03T14:54:04Z</Time>
            <Position>
              <LatitudeDegrees>41.099087</LatitudeDegrees>
              <LongitudeDegrees>-1.415917</LongitudeDegrees>
            </Position>
            <AltitudeMeters>764.018</AltitudeMeters>
            <DistanceMeters>542812.39209157</DistanceMeters>
          </Trackpoint>
          <Trackpoint>
            <Time>2021-08-03T14:54:06Z</Time>
            <Position>
              <LatitudeDegrees>41.099000</LatitudeDegrees>
              <LongitudeDegrees>-1.415846</LongitudeDegrees>
            </Position>
            <AltitudeMeters>764.093</AltitudeMeters>
            <DistanceMeters>542823.76000361</DistanceMeters>
          </Trackpoint>
          <Trackpoint>
            <Time>2021-08-03T14:54:07Z</Time>
            <Position>
              <LatitudeDegrees>41.098959</LatitudeDegrees>
              <LongitudeDegrees>-1.415806</LongitudeDegrees>
            </Position>
            <AltitudeMeters>764.054</AltitudeMeters>
            <DistanceMeters>542829.42346823</DistanceMeters>
          </Trackpoint>
          <Trackpoint>
            <Time>2021-08-03T14:54:09Z</Time>
            <Position>
              <LatitudeDegrees>41.098877</LatitudeDegrees>
              <LongitudeDegrees>-1.415717</LongitudeDegrees>
            </Position>
            <AltitudeMeters>764.136</AltitudeMeters>
            <DistanceMeters>542841.21405884</DistanceMeters>
          </Trackpoint>
          <Trackpoint>
            <Time>2021-08-03T14:54:11Z</Time>
            <Position>
              <LatitudeDegrees>41.098790</LatitudeDegrees>
              <LongitudeDegrees>-1.415636</LongitudeDegrees>
            </Position>
            <AltitudeMeters>764.217</AltitudeMeters>
            <DistanceMeters>542853.04249933</DistanceMeters>
          </Trackpoint>
          <Trackpoint>
            <Time>2021-08-03T14:54:12Z</Time>
            <Position>
              <LatitudeDegrees>41.098751</LatitudeDegrees>
              <LongitudeDegrees>-1.415599</LongitudeDegrees>
            </Position>
            <AltitudeMeters>764.218</AltitudeMeters>
            <DistanceMeters>542858.3775533</DistanceMeters>
          </Trackpoint>
          <Trackpoint>
            <Time>2021-08-03T14:54:14Z</Time>
            <Position>
              <LatitudeDegrees>41.098668</LatitudeDegrees>
              <LongitudeDegrees>-1.415511</LongitudeDegrees>
            </Position>
            <AltitudeMeters>764.208</AltitudeMeters>
            <DistanceMeters>542870.20217607</DistanceMeters>
          </Trackpoint>
          <Trackpoint>
            <Time>2021-08-03T14:54:15Z</Time>
            <Position>
              <LatitudeDegrees>41.098627</LatitudeDegrees>
              <LongitudeDegrees>-1.415471</LongitudeDegrees>
            </Position>
            <AltitudeMeters>764.260</AltitudeMeters>
            <DistanceMeters>542875.8656407</DistanceMeters>
          </Trackpoint>
          <Trackpoint>
            <Time>2021-08-03T14:54:17Z</Time>
            <Position>
              <LatitudeDegrees>41.098552</LatitudeDegrees>
              <LongitudeDegrees>-1.415385</LongitudeDegrees>
            </Position>
            <AltitudeMeters>764.282</AltitudeMeters>
            <DistanceMeters>542886.89815629</DistanceMeters>
          </Trackpoint>
          <Trackpoint>
            <Time>2021-08-03T14:54:19Z</Time>
            <Position>
              <LatitudeDegrees>41.098481</LatitudeDegrees>
              <LongitudeDegrees>-1.415314</LongitudeDegrees>
            </Position>
            <AltitudeMeters>764.222</AltitudeMeters>
            <DistanceMeters>542896.7932621</DistanceMeters>
          </Trackpoint>
          <Trackpoint>
            <Time>2021-08-03T14:54:21Z</Time>
            <Position>
              <LatitudeDegrees>41.098408</LatitudeDegrees>
              <LongitudeDegrees>-1.415259</LongitudeDegrees>
            </Position>
            <AltitudeMeters>764.195</AltitudeMeters>
            <DistanceMeters>542906.13685771</DistanceMeters>
          </Trackpoint>
          <Trackpoint>
            <Time>2021-08-03T14:54:23Z</Time>
            <Position>
              <LatitudeDegrees>41.098343</LatitudeDegrees>
              <LongitudeDegrees>-1.415200</LongitudeDegrees>
            </Position>
            <AltitudeMeters>764.193</AltitudeMeters>
            <DistanceMeters>542914.90200976</DistanceMeters>
          </Trackpoint>
          <Trackpoint>
            <Time>2021-08-03T14:54:25Z</Time>
            <Position>
              <LatitudeDegrees>41.098273</LatitudeDegrees>
              <LongitudeDegrees>-1.415141</LongitudeDegrees>
            </Position>
            <AltitudeMeters>764.238</AltitudeMeters>
            <DistanceMeters>542924.13183864</DistanceMeters>
          </Trackpoint>
          <Trackpoint>
            <Time>2021-08-03T14:54:27Z</Time>
            <Position>
              <LatitudeDegrees>41.098210</LatitudeDegrees>
              <LongitudeDegrees>-1.415117</LongitudeDegrees>
            </Position>
            <AltitudeMeters>764.393</AltitudeMeters>
            <DistanceMeters>542931.4272667</DistanceMeters>
          </Trackpoint>
          <Trackpoint>
            <Time>2021-08-03T14:54:29Z</Time>
            <Position>
              <LatitudeDegrees>41.098140</LatitudeDegrees>
              <LongitudeDegrees>-1.415075</LongitudeDegrees>
            </Position>
            <AltitudeMeters>764.394</AltitudeMeters>
            <DistanceMeters>542939.97755903</DistanceMeters>
          </Trackpoint>
          <Trackpoint>
            <Time>2021-08-03T14:54:30Z</Time>
            <Position>
              <LatitudeDegrees>41.098103</LatitudeDegrees>
              <LongitudeDegrees>-1.415038</LongitudeDegrees>
            </Position>
            <AltitudeMeters>764.523</AltitudeMeters>
            <DistanceMeters>542945.1335793</DistanceMeters>
          </Trackpoint>
          <Trackpoint>
            <Time>2021-08-03T14:54:32Z</Time>
            <Position>
              <LatitudeDegrees>41.098030</LatitudeDegrees>
              <LongitudeDegrees>-1.414922</LongitudeDegrees>
            </Position>
            <AltitudeMeters>764.583</AltitudeMeters>
            <DistanceMeters>542957.80958736</DistanceMeters>
          </Trackpoint>
          <Trackpoint>
            <Time>2021-08-03T14:54:33Z</Time>
            <Position>
              <LatitudeDegrees>41.097977</LatitudeDegrees>
              <LongitudeDegrees>-1.414865</LongitudeDegrees>
            </Position>
            <AltitudeMeters>764.611</AltitudeMeters>
            <DistanceMeters>542965.40221589</DistanceMeters>
          </Trackpoint>
          <Trackpoint>
            <Time>2021-08-03T14:54:35Z</Time>
            <Position>
              <LatitudeDegrees>41.097922</LatitudeDegrees>
              <LongitudeDegrees>-1.414823</LongitudeDegrees>
            </Position>
            <AltitudeMeters>764.808</AltitudeMeters>
            <DistanceMeters>542972.46494498</DistanceMeters>
          </Trackpoint>
          <Trackpoint>
            <Time>2021-08-03T14:54:37Z</Time>
            <Position>
              <LatitudeDegrees>41.097862</LatitudeDegrees>
              <LongitudeDegrees>-1.414766</LongitudeDegrees>
            </Position>
            <AltitudeMeters>764.839</AltitudeMeters>
            <DistanceMeters>542980.67802425</DistanceMeters>
          </Trackpoint>
          <Trackpoint>
            <Time>2021-08-03T14:54:38Z</Time>
            <Position>
              <LatitudeDegrees>41.097819</LatitudeDegrees>
              <LongitudeDegrees>-1.414727</LongitudeDegrees>
            </Position>
            <AltitudeMeters>764.861</AltitudeMeters>
            <DistanceMeters>542986.47543268</DistanceMeters>
          </Trackpoint>
          <Trackpoint>
            <Time>2021-08-03T14:54:39Z</Time>
            <Position>
              <LatitudeDegrees>41.097775</LatitudeDegrees>
              <LongitudeDegrees>-1.414688</LongitudeDegrees>
            </Position>
            <AltitudeMeters>764.871</AltitudeMeters>
            <DistanceMeters>542992.36555608</DistanceMeters>
          </Trackpoint>
          <Trackpoint>
            <Time>2021-08-03T14:54:40Z</Time>
            <Position>
              <LatitudeDegrees>41.097738</LatitudeDegrees>
              <LongitudeDegrees>-1.414654</LongitudeDegrees>
            </Position>
            <AltitudeMeters>764.884</AltitudeMeters>
            <DistanceMeters>542997.37590662</DistanceMeters>
          </Trackpoint>
          <Trackpoint>
            <Time>2021-08-03T14:54:42Z</Time>
            <Position>
              <LatitudeDegrees>41.097689</LatitudeDegrees>
              <LongitudeDegrees>-1.414622</LongitudeDegrees>
            </Position>
            <AltitudeMeters>764.922</AltitudeMeters>
            <DistanceMeters>543003.45464603</DistanceMeters>
          </Trackpoint>
          <Trackpoint>
            <Time>2021-08-03T14:54:44Z</Time>
            <Position>
              <LatitudeDegrees>41.097613</LatitudeDegrees>
              <LongitudeDegrees>-1.414541</LongitudeDegrees>
            </Position>
            <AltitudeMeters>765.167</AltitudeMeters>
            <DistanceMeters>543014.30435002</DistanceMeters>
          </Trackpoint>
          <Trackpoint>
            <Time>2021-08-03T14:54:46Z</Time>
            <Position>
              <LatitudeDegrees>41.097557</LatitudeDegrees>
              <LongitudeDegrees>-1.414485</LongitudeDegrees>
            </Position>
            <AltitudeMeters>765.212</AltitudeMeters>
            <DistanceMeters>543022.10869916</DistanceMeters>
          </Trackpoint>
          <Trackpoint>
            <Time>2021-08-03T14:54:48Z</Time>
            <Position>
              <LatitudeDegrees>41.097503</LatitudeDegrees>
              <LongitudeDegrees>-1.414439</LongitudeDegrees>
            </Position>
            <AltitudeMeters>765.493</AltitudeMeters>
            <DistanceMeters>543029.25152297</DistanceMeters>
          </Trackpoint>
          <Trackpoint>
            <Time>2021-08-03T14:54:50Z</Time>
            <Position>
              <LatitudeDegrees>41.097451</LatitudeDegrees>
              <LongitudeDegrees>-1.414395</LongitudeDegrees>
            </Position>
            <AltitudeMeters>765.629</AltitudeMeters>
            <DistanceMeters>543036.1158466</DistanceMeters>
          </Trackpoint>
          <Trackpoint>
            <Time>2021-08-03T14:54:52Z</Time>
            <Position>
              <LatitudeDegrees>41.097406</LatitudeDegrees>
              <LongitudeDegrees>-1.414345</LongitudeDegrees>
            </Position>
            <AltitudeMeters>765.800</AltitudeMeters>
            <DistanceMeters>543042.64923556</DistanceMeters>
          </Trackpoint>
          <Trackpoint>
            <Time>2021-08-03T14:54:54Z</Time>
            <Position>
              <LatitudeDegrees>41.097365</LatitudeDegrees>
              <LongitudeDegrees>-1.414306</LongitudeDegrees>
            </Position>
            <AltitudeMeters>765.920</AltitudeMeters>
            <DistanceMeters>543048.26385904</DistanceMeters>
          </Trackpoint>
          <Trackpoint>
            <Time>2021-08-03T14:54:56Z</Time>
            <Position>
              <LatitudeDegrees>41.097320</LatitudeDegrees>
              <LongitudeDegrees>-1.414269</LongitudeDegrees>
            </Position>
            <AltitudeMeters>766.108</AltitudeMeters>
            <DistanceMeters>543054.15628163</DistanceMeters>
          </Trackpoint>
          <Trackpoint>
            <Time>2021-08-03T14:54:58Z</Time>
            <Position>
              <LatitudeDegrees>41.097262</LatitudeDegrees>
              <LongitudeDegrees>-1.414230</LongitudeDegrees>
            </Position>
            <AltitudeMeters>766.159</AltitudeMeters>
            <DistanceMeters>543061.39330059</DistanceMeters>
          </Trackpoint>
          <Trackpoint>
            <Time>2021-08-03T14:55:00Z</Time>
            <Position>
              <LatitudeDegrees>41.097185</LatitudeDegrees>
              <LongitudeDegrees>-1.414180</LongitudeDegrees>
            </Position>
            <AltitudeMeters>766.141</AltitudeMeters>
            <DistanceMeters>543070.93485343</DistanceMeters>
          </Trackpoint>
          <Trackpoint>
            <Time>2021-08-03T14:55:02Z</Time>
            <Position>
              <LatitudeDegrees>41.097107</LatitudeDegrees>
              <LongitudeDegrees>-1.414118</LongitudeDegrees>
            </Position>
            <AltitudeMeters>765.781</AltitudeMeters>
            <DistanceMeters>543081.05508698</DistanceMeters>
          </Trackpoint>
          <Trackpoint>
            <Time>2021-08-03T14:55:04Z</Time>
            <Position>
              <LatitudeDegrees>41.097032</LatitudeDegrees>
              <LongitudeDegrees>-1.414061</LongitudeDegrees>
            </Position>
            <AltitudeMeters>765.734</AltitudeMeters>
            <DistanceMeters>543090.67440054</DistanceMeters>
          </Trackpoint>
          <Trackpoint>
            <Time>2021-08-03T14:55:06Z</Time>
            <Position>
              <LatitudeDegrees>41.096971</LatitudeDegrees>
              <LongitudeDegrees>-1.414021</LongitudeDegrees>
            </Position>
            <AltitudeMeters>765.952</AltitudeMeters>
            <DistanceMeters>543098.24797602</DistanceMeters>
          </Trackpoint>
          <Trackpoint>
            <Time>2021-08-03T14:55:08Z</Time>
            <Position>
              <LatitudeDegrees>41.096903</LatitudeDegrees>
              <LongitudeDegrees>-1.413953</LongitudeDegrees>
            </Position>
            <AltitudeMeters>766.077</AltitudeMeters>
            <DistanceMeters>543107.72543192</DistanceMeters>
          </Trackpoint>
          <Trackpoint>
            <Time>2021-08-03T14:55:09Z</Time>
            <Position>
              <LatitudeDegrees>41.096863</LatitudeDegrees>
              <LongitudeDegrees>-1.413907</LongitudeDegrees>
            </Position>
            <AltitudeMeters>766.092</AltitudeMeters>
            <DistanceMeters>543113.61708821</DistanceMeters>
          </Trackpoint>
          <Trackpoint>
            <Time>2021-08-03T14:55:10Z</Time>
            <Position>
              <LatitudeDegrees>41.096818</LatitudeDegrees>
              <LongitudeDegrees>-1.413852</LongitudeDegrees>
            </Position>
            <AltitudeMeters>766.063</AltitudeMeters>
            <DistanceMeters>543120.42726241</DistanceMeters>
          </Trackpoint>
          <Trackpoint>
            <Time>2021-08-03T14:55:12Z</Time>
            <Position>
              <LatitudeDegrees>41.096738</LatitudeDegrees>
              <LongitudeDegrees>-1.413753</LongitudeDegrees>
            </Position>
            <AltitudeMeters>766.129</AltitudeMeters>
            <DistanceMeters>543132.60255439</DistanceMeters>
          </Trackpoint>
          <Trackpoint>
            <Time>2021-08-03T14:55:14Z</Time>
            <Position>
              <LatitudeDegrees>41.096651</LatitudeDegrees>
              <LongitudeDegrees>-1.413669</LongitudeDegrees>
            </Position>
            <AltitudeMeters>766.100</AltitudeMeters>
            <DistanceMeters>543144.57742867</DistanceMeters>
          </Trackpoint>
          <Trackpoint>
            <Time>2021-08-03T14:55:16Z</Time>
            <Position>
              <LatitudeDegrees>41.096573</LatitudeDegrees>
              <LongitudeDegrees>-1.413599</LongitudeDegrees>
            </Position>
            <AltitudeMeters>766.120</AltitudeMeters>
            <DistanceMeters>543155.05840572</DistanceMeters>
          </Trackpoint>
          <Trackpoint>
            <Time>2021-08-03T14:55:17Z</Time>
            <Position>
              <LatitudeDegrees>41.096536</LatitudeDegrees>
              <LongitudeDegrees>-1.413561</LongitudeDegrees>
            </Position>
            <AltitudeMeters>766.108</AltitudeMeters>
            <DistanceMeters>543160.26670195</DistanceMeters>
          </Trackpoint>
          <Trackpoint>
            <Time>2021-08-03T14:55:19Z</Time>
            <Position>
              <LatitudeDegrees>41.096458</LatitudeDegrees>
              <LongitudeDegrees>-1.413480</LongitudeDegrees>
            </Position>
            <AltitudeMeters>766.269</AltitudeMeters>
            <DistanceMeters>543171.29102954</DistanceMeters>
          </Trackpoint>
          <Trackpoint>
            <Time>2021-08-03T14:55:21Z</Time>
            <Position>
              <LatitudeDegrees>41.096370</LatitudeDegrees>
              <LongitudeDegrees>-1.413401</LongitudeDegrees>
            </Position>
            <AltitudeMeters>766.271</AltitudeMeters>
            <DistanceMeters>543183.11717955</DistanceMeters>
          </Trackpoint>
          <Trackpoint>
            <Time>2021-08-03T14:55:23Z</Time>
            <Position>
              <LatitudeDegrees>41.096286</LatitudeDegrees>
              <LongitudeDegrees>-1.413324</LongitudeDegrees>
            </Position>
            <AltitudeMeters>766.261</AltitudeMeters>
            <DistanceMeters>543194.48072183</DistanceMeters>
          </Trackpoint>
          <Trackpoint>
            <Time>2021-08-03T14:55:24Z</Time>
            <Position>
              <LatitudeDegrees>41.096246</LatitudeDegrees>
              <LongitudeDegrees>-1.413285</LongitudeDegrees>
            </Position>
            <AltitudeMeters>766.244</AltitudeMeters>
            <DistanceMeters>543200.00536285</DistanceMeters>
          </Trackpoint>
          <Trackpoint>
            <Time>2021-08-03T14:55:26Z</Time>
            <Position>
              <LatitudeDegrees>41.096161</LatitudeDegrees>
              <LongitudeDegrees>-1.413203</LongitudeDegrees>
            </Position>
            <AltitudeMeters>766.012</AltitudeMeters>
            <DistanceMeters>543211.70214395</DistanceMeters>
          </Trackpoint>
          <Trackpoint>
            <Time>2021-08-03T14:55:28Z</Time>
            <Position>
              <LatitudeDegrees>41.096080</LatitudeDegrees>
              <LongitudeDegrees>-1.413131</LongitudeDegrees>
            </Position>
            <AltitudeMeters>765.877</AltitudeMeters>
            <DistanceMeters>543222.55351238</DistanceMeters>
          </Trackpoint>
          <Trackpoint>
            <Time>2021-08-03T14:55:30Z</Time>
            <Position>
              <LatitudeDegrees>41.096030</LatitudeDegrees>
              <LongitudeDegrees>-1.413085</LongitudeDegrees>
            </Position>
            <AltitudeMeters>765.822</AltitudeMeters>
            <DistanceMeters>543229.32579105</DistanceMeters>
          </Trackpoint>
          <Trackpoint>
            <Time>2021-08-03T14:55:32Z</Time>
            <Position>
              <LatitudeDegrees>41.095978</LatitudeDegrees>
              <LongitudeDegrees>-1.413039</LongitudeDegrees>
            </Position>
            <AltitudeMeters>765.813</AltitudeMeters>
            <DistanceMeters>543236.28288884</DistanceMeters>
          </Trackpoint>
          <Trackpoint>
            <Time>2021-08-03T14:55:34Z</Time>
            <Position>
              <LatitudeDegrees>41.095922</LatitudeDegrees>
              <LongitudeDegrees>-1.412991</LongitudeDegrees>
            </Position>
            <AltitudeMeters>766.042</AltitudeMeters>
            <DistanceMeters>543243.7034957</DistanceMeters>
          </Trackpoint>
          <Trackpoint>
            <Time>2021-08-03T14:55:36Z</Time>
            <Position>
              <LatitudeDegrees>41.095856</LatitudeDegrees>
              <LongitudeDegrees>-1.412929</LongitudeDegrees>
            </Position>
            <AltitudeMeters>766.122</AltitudeMeters>
            <DistanceMeters>543252.70348379</DistanceMeters>
          </Trackpoint>
          <Trackpoint>
            <Time>2021-08-03T14:55:38Z</Time>
            <Position>
              <LatitudeDegrees>41.095784</LatitudeDegrees>
              <LongitudeDegrees>-1.412859</LongitudeDegrees>
            </Position>
            <AltitudeMeters>766.314</AltitudeMeters>
            <DistanceMeters>543262.63820752</DistanceMeters>
          </Trackpoint>
          <Trackpoint>
            <Time>2021-08-03T14:55:40Z</Time>
            <Position>
              <LatitudeDegrees>41.095709</LatitudeDegrees>
              <LongitudeDegrees>-1.412788</LongitudeDegrees>
            </Position>
            <AltitudeMeters>766.308</AltitudeMeters>
            <DistanceMeters>543272.89229013</DistanceMeters>
          </Trackpoint>
          <Trackpoint>
            <Time>2021-08-03T14:55:42Z</Time>
            <Position>
              <LatitudeDegrees>41.095639</LatitudeDegrees>
              <LongitudeDegrees>-1.412725</LongitudeDegrees>
            </Position>
            <AltitudeMeters>766.271</AltitudeMeters>
            <DistanceMeters>543282.30665151</DistanceMeters>
          </Trackpoint>
          <Trackpoint>
            <Time>2021-08-03T14:55:44Z</Time>
            <Position>
              <LatitudeDegrees>41.095572</LatitudeDegrees>
              <LongitudeDegrees>-1.412662</LongitudeDegrees>
            </Position>
            <AltitudeMeters>765.613</AltitudeMeters>
            <DistanceMeters>543291.44602825</DistanceMeters>
          </Trackpoint>
          <Trackpoint>
            <Time>2021-08-03T14:55:46Z</Time>
            <Position>
              <LatitudeDegrees>41.095499</LatitudeDegrees>
              <LongitudeDegrees>-1.412595</LongitudeDegrees>
            </Position>
            <AltitudeMeters>764.643</AltitudeMeters>
            <DistanceMeters>543301.32469396</DistanceMeters>
          </Trackpoint>
          <Trackpoint>
            <Time>2021-08-03T14:55:48Z</Time>
            <Position>
              <LatitudeDegrees>41.095413</LatitudeDegrees>
              <LongitudeDegrees>-1.412519</LongitudeDegrees>
            </Position>
            <AltitudeMeters>764.616</AltitudeMeters>
            <DistanceMeters>543312.82488959</DistanceMeters>
          </Trackpoint>
          <Trackpoint>
            <Time>2021-08-03T14:55:49Z</Time>
            <Position>
              <LatitudeDegrees>41.095371</LatitudeDegrees>
              <LongitudeDegrees>-1.412481</LongitudeDegrees>
            </Position>
            <AltitudeMeters>764.694</AltitudeMeters>
            <DistanceMeters>543318.48356886</DistanceMeters>
          </Trackpoint>
          <Trackpoint>
            <Time>2021-08-03T14:55:51Z</Time>
            <Position>
              <LatitudeDegrees>41.095291</LatitudeDegrees>
              <LongitudeDegrees>-1.412404</LongitudeDegrees>
            </Position>
            <AltitudeMeters>765.329</AltitudeMeters>
            <DistanceMeters>543329.48370633</DistanceMeters>
          </Trackpoint>
          <Trackpoint>
            <Time>2021-08-03T14:55:52Z</Time>
            <Position>
              <LatitudeDegrees>41.095252</LatitudeDegrees>
              <LongitudeDegrees>-1.412367</LongitudeDegrees>
            </Position>
            <AltitudeMeters>765.574</AltitudeMeters>
            <DistanceMeters>543334.82045263</DistanceMeters>
          </Trackpoint>
          <Trackpoint>
            <Time>2021-08-03T14:55:53Z</Time>
            <Position>
              <LatitudeDegrees>41.095214</LatitudeDegrees>
              <LongitudeDegrees>-1.412331</LongitudeDegrees>
            </Position>
            <AltitudeMeters>765.585</AltitudeMeters>
            <DistanceMeters>543340.01833573</DistanceMeters>
          </Trackpoint>
          <Trackpoint>
            <Time>2021-08-03T14:55:55Z</Time>
            <Position>
              <LatitudeDegrees>41.095141</LatitudeDegrees>
              <LongitudeDegrees>-1.412260</LongitudeDegrees>
            </Position>
            <AltitudeMeters>765.797</AltitudeMeters>
            <DistanceMeters>543350.09206389</DistanceMeters>
          </Trackpoint>
          <Trackpoint>
            <Time>2021-08-03T14:55:57Z</Time>
            <Position>
              <LatitudeDegrees>41.095057</LatitudeDegrees>
              <LongitudeDegrees>-1.412183</LongitudeDegrees>
            </Position>
            <AltitudeMeters>766.023</AltitudeMeters>
            <DistanceMeters>543361.45560617</DistanceMeters>
          </Trackpoint>
          <Trackpoint>
            <Time>2021-08-03T14:55:59Z</Time>
            <Position>
              <LatitudeDegrees>41.094900</LatitudeDegrees>
              <LongitudeDegrees>-1.412025</LongitudeDegrees>
            </Position>
            <AltitudeMeters>766.425</AltitudeMeters>
            <DistanceMeters>543383.38702249</DistanceMeters>
          </Trackpoint>
          <Trackpoint>
            <Time>2021-08-03T14:56:01Z</Time>
            <Position>
              <LatitudeDegrees>41.094839</LatitudeDegrees>
              <LongitudeDegrees>-1.411968</LongitudeDegrees>
            </Position>
            <AltitudeMeters>766.408</AltitudeMeters>
            <DistanceMeters>543391.69085677</DistanceMeters>
          </Trackpoint>
          <Trackpoint>
            <Time>2021-08-03T14:56:02Z</Time>
            <Position>
              <LatitudeDegrees>41.094799</LatitudeDegrees>
              <LongitudeDegrees>-1.411924</LongitudeDegrees>
            </Position>
            <AltitudeMeters>766.586</AltitudeMeters>
            <DistanceMeters>543397.47344902</DistanceMeters>
          </Trackpoint>
          <Trackpoint>
            <Time>2021-08-03T14:56:04Z</Time>
            <Position>
              <LatitudeDegrees>41.094726</LatitudeDegrees>
              <LongitudeDegrees>-1.411855</LongitudeDegrees>
            </Position>
            <AltitudeMeters>766.738</AltitudeMeters>
            <DistanceMeters>543407.44899123</DistanceMeters>
          </Trackpoint>
          <Trackpoint>
            <Time>2021-08-03T14:56:06Z</Time>
            <Position>
              <LatitudeDegrees>41.094661</LatitudeDegrees>
              <LongitudeDegrees>-1.411788</LongitudeDegrees>
            </Position>
            <AltitudeMeters>766.598</AltitudeMeters>
            <DistanceMeters>543416.60958621</DistanceMeters>
          </Trackpoint>
          <Trackpoint>
            <Time>2021-08-03T14:56:08Z</Time>
            <Position>
              <LatitudeDegrees>41.094589</LatitudeDegrees>
              <LongitudeDegrees>-1.411718</LongitudeDegrees>
            </Position>
            <AltitudeMeters>766.111</AltitudeMeters>
            <DistanceMeters>543426.54430993</DistanceMeters>
          </Trackpoint>
          <Trackpoint>
            <Time>2021-08-03T14:56:10Z</Time>
            <Position>
              <LatitudeDegrees>41.094508</LatitudeDegrees>
              <LongitudeDegrees>-1.411653</LongitudeDegrees>
            </Position>
            <AltitudeMeters>766.169</AltitudeMeters>
            <DistanceMeters>543437.07985452</DistanceMeters>
          </Trackpoint>
          <Trackpoint>
            <Time>2021-08-03T14:56:12Z</Time>
            <Position>
              <LatitudeDegrees>41.094430</LatitudeDegrees>
              <LongitudeDegrees>-1.411577</LongitudeDegrees>
            </Position>
            <AltitudeMeters>766.424</AltitudeMeters>
            <DistanceMeters>543447.85020094</DistanceMeters>
          </Trackpoint>
          <Trackpoint>
            <Time>2021-08-03T14:56:14Z</Time>
            <Position>
              <LatitudeDegrees>41.094365</LatitudeDegrees>
              <LongitudeDegrees>-1.411519</LongitudeDegrees>
            </Position>
            <AltitudeMeters>766.529</AltitudeMeters>
            <DistanceMeters>543456.56886961</DistanceMeters>
          </Trackpoint>
          <Trackpoint>
            <Time>2021-08-03T14:56:16Z</Time>
            <Position>
              <LatitudeDegrees>41.094304</LatitudeDegrees>
              <LongitudeDegrees>-1.411463</LongitudeDegrees>
            </Position>
            <AltitudeMeters>766.540</AltitudeMeters>
            <DistanceMeters>543464.82526393</DistanceMeters>
          </Trackpoint>
          <Trackpoint>
            <Time>2021-08-03T14:56:18Z</Time>
            <Position>
              <LatitudeDegrees>41.094234</LatitudeDegrees>
              <LongitudeDegrees>-1.411404</LongitudeDegrees>
            </Position>
            <AltitudeMeters>766.483</AltitudeMeters>
            <DistanceMeters>543474.05509281</DistanceMeters>
          </Trackpoint>
          <Trackpoint>
            <Time>2021-08-03T14:56:20Z</Time>
            <Position>
              <LatitudeDegrees>41.094170</LatitudeDegrees>
              <LongitudeDegrees>-1.411362</LongitudeDegrees>
            </Position>
            <AltitudeMeters>766.225</AltitudeMeters>
            <DistanceMeters>543482.0010537</DistanceMeters>
          </Trackpoint>
          <Trackpoint>
            <Time>2021-08-03T14:56:22Z</Time>
            <Position>
              <LatitudeDegrees>41.094125</LatitudeDegrees>
              <LongitudeDegrees>-1.411311</LongitudeDegrees>
            </Position>
            <AltitudeMeters>766.317</AltitudeMeters>
            <DistanceMeters>543488.58744021</DistanceMeters>
          </Trackpoint>
          <Trackpoint>
            <Time>2021-08-03T14:56:24Z</Time>
            <Position>
              <LatitudeDegrees>41.094073</LatitudeDegrees>
              <LongitudeDegrees>-1.411264</LongitudeDegrees>
            </Position>
            <AltitudeMeters>766.308</AltitudeMeters>
            <DistanceMeters>543495.59046421</DistanceMeters>
          </Trackpoint>
          <Trackpoint>
            <Time>2021-08-03T14:56:26Z</Time>
            <Position>
              <LatitudeDegrees>41.094013</LatitudeDegrees>
              <LongitudeDegrees>-1.411208</LongitudeDegrees>
            </Position>
            <AltitudeMeters>766.375</AltitudeMeters>
            <DistanceMeters>543503.75502325</DistanceMeters>
          </Trackpoint>
          <Trackpoint>
            <Time>2021-08-03T14:56:28Z</Time>
            <Position>
              <LatitudeDegrees>41.093949</LatitudeDegrees>
              <LongitudeDegrees>-1.411145</LongitudeDegrees>
            </Position>
            <AltitudeMeters>766.357</AltitudeMeters>
            <DistanceMeters>543512.62463575</DistanceMeters>
          </Trackpoint>
          <Trackpoint>
            <Time>2021-08-03T14:56:30Z</Time>
            <Position>
              <LatitudeDegrees>41.093880</LatitudeDegrees>
              <LongitudeDegrees>-1.411092</LongitudeDegrees>
            </Position>
            <AltitudeMeters>766.137</AltitudeMeters>
            <DistanceMeters>543521.49831969</DistanceMeters>
          </Trackpoint>
          <Trackpoint>
            <Time>2021-08-03T14:56:32Z</Time>
            <Position>
              <LatitudeDegrees>41.093803</LatitudeDegrees>
              <LongitudeDegrees>-1.411036</LongitudeDegrees>
            </Position>
            <AltitudeMeters>765.860</AltitudeMeters>
            <DistanceMeters>543531.27083669</DistanceMeters>
          </Trackpoint>
          <Trackpoint>
            <Time>2021-08-03T14:56:33Z</Time>
            <Position>
              <LatitudeDegrees>41.093762</LatitudeDegrees>
              <LongitudeDegrees>-1.411006</LongitudeDegrees>
            </Position>
            <AltitudeMeters>765.848</AltitudeMeters>
            <DistanceMeters>543536.48086642</DistanceMeters>
          </Trackpoint>
          <Trackpoint>
            <Time>2021-08-03T14:56:35Z</Time>
            <Position>
              <LatitudeDegrees>41.093680</LatitudeDegrees>
              <LongitudeDegrees>-1.410918</LongitudeDegrees>
            </Position>
            <AltitudeMeters>766.023</AltitudeMeters>
            <DistanceMeters>543548.21887759</DistanceMeters>
          </Trackpoint>
          <Trackpoint>
            <Time>2021-08-03T14:56:38Z</Time>
            <Position>
              <LatitudeDegrees>41.093630</LatitudeDegrees>
              <LongitudeDegrees>-1.410893</LongitudeDegrees>
            </Position>
            <AltitudeMeters>766.168</AltitudeMeters>
            <DistanceMeters>543554.16545471</DistanceMeters>
          </Trackpoint>
          <Trackpoint>
            <Time>2021-08-03T14:56:39Z</Time>
            <Position>
              <LatitudeDegrees>41.093584</LatitudeDegrees>
              <LongitudeDegrees>-1.410864</LongitudeDegrees>
            </Position>
            <AltitudeMeters>766.129</AltitudeMeters>
            <DistanceMeters>543559.83370064</DistanceMeters>
          </Trackpoint>
          <Trackpoint>
            <Time>2021-08-03T14:56:41Z</Time>
            <Position>
              <LatitudeDegrees>41.093484</LatitudeDegrees>
              <LongitudeDegrees>-1.410782</LongitudeDegrees>
            </Position>
            <AltitudeMeters>766.232</AltitudeMeters>
            <DistanceMeters>543572.91774395</DistanceMeters>
          </Trackpoint>
          <Trackpoint>
            <Time>2021-08-03T14:56:42Z</Time>
            <Position>
              <LatitudeDegrees>41.093441</LatitudeDegrees>
              <LongitudeDegrees>-1.410744</LongitudeDegrees>
            </Position>
            <AltitudeMeters>766.292</AltitudeMeters>
            <DistanceMeters>543578.66823436</DistanceMeters>
          </Trackpoint>
          <Trackpoint>
            <Time>2021-08-03T14:56:44Z</Time>
            <Position>
              <LatitudeDegrees>41.093373</LatitudeDegrees>
              <LongitudeDegrees>-1.410690</LongitudeDegrees>
            </Position>
            <AltitudeMeters>766.211</AltitudeMeters>
            <DistanceMeters>543587.4888431</DistanceMeters>
          </Trackpoint>
          <Trackpoint>
            <Time>2021-08-03T14:56:46Z</Time>
            <Position>
              <LatitudeDegrees>41.093330</LatitudeDegrees>
              <LongitudeDegrees>-1.410671</LongitudeDegrees>
            </Position>
            <AltitudeMeters>765.908</AltitudeMeters>
            <DistanceMeters>543592.53332082</DistanceMeters>
          </Trackpoint>
          <Trackpoint>
            <Time>2021-08-03T14:56:48Z</Time>
            <Position>
              <LatitudeDegrees>41.093271</LatitudeDegrees>
              <LongitudeDegrees>-1.410629</LongitudeDegrees>
            </Position>
            <AltitudeMeters>765.930</AltitudeMeters>
            <DistanceMeters>543599.9854997</DistanceMeters>
          </Trackpoint>
          <Trackpoint>
            <Time>2021-08-03T14:56:50Z</Time>
            <Position>
              <LatitudeDegrees>41.093202</LatitudeDegrees>
              <LongitudeDegrees>-1.410560</LongitudeDegrees>
            </Position>
            <AltitudeMeters>766.082</AltitudeMeters>
            <DistanceMeters>543609.60152709</DistanceMeters>
          </Trackpoint>
          <Trackpoint>
            <Time>2021-08-03T14:56:51Z</Time>
            <Position>
              <LatitudeDegrees>41.093160</LatitudeDegrees>
              <LongitudeDegrees>-1.410516</LongitudeDegrees>
            </Position>
            <AltitudeMeters>766.272</AltitudeMeters>
            <DistanceMeters>543615.55720844</DistanceMeters>
          </Trackpoint>
          <Trackpoint>
            <Time>2021-08-03T14:56:53Z</Time>
            <Position>
              <LatitudeDegrees>41.093063</LatitudeDegrees>
              <LongitudeDegrees>-1.410418</LongitudeDegrees>
            </Position>
            <AltitudeMeters>766.385</AltitudeMeters>
            <DistanceMeters>543629.12641102</DistanceMeters>
          </Trackpoint>
          <Trackpoint>
            <Time>2021-08-03T14:56:54Z</Time>
            <Position>
              <LatitudeDegrees>41.093015</LatitudeDegrees>
              <LongitudeDegrees>-1.410370</LongitudeDegrees>
            </Position>
            <AltitudeMeters>766.543</AltitudeMeters>
            <DistanceMeters>543635.81618372</DistanceMeters>
          </Trackpoint>
          <Trackpoint>
            <Time>2021-08-03T14:56:56Z</Time>
            <Position>
              <LatitudeDegrees>41.092922</LatitudeDegrees>
              <LongitudeDegrees>-1.410272</LongitudeDegrees>
            </Position>
            <AltitudeMeters>766.748</AltitudeMeters>
            <DistanceMeters>543649.03412301</DistanceMeters>
          </Trackpoint>
          <Trackpoint>
            <Time>2021-08-03T14:56:57Z</Time>
            <Position>
              <LatitudeDegrees>41.092876</LatitudeDegrees>
              <LongitudeDegrees>-1.410225</LongitudeDegrees>
            </Position>
            <AltitudeMeters>766.863</AltitudeMeters>
            <DistanceMeters>543655.49593959</DistanceMeters>
          </Trackpoint>
          <Trackpoint>
            <Time>2021-08-03T14:56:58Z</Time>
            <Position>
              <LatitudeDegrees>41.092817</LatitudeDegrees>
              <LongitudeDegrees>-1.410160</LongitudeDegrees>
            </Position>
            <AltitudeMeters>766.914</AltitudeMeters>
            <DistanceMeters>543664.03143353</DistanceMeters>
          </Trackpoint>
          <Trackpoint>
            <Time>2021-08-03T14:57:00Z</Time>
            <Position>
              <LatitudeDegrees>41.092709</LatitudeDegrees>
              <LongitudeDegrees>-1.410042</LongitudeDegrees>
            </Position>
            <AltitudeMeters>767.218</AltitudeMeters>
            <DistanceMeters>543679.60248206</DistanceMeters>
          </Trackpoint>
          <Trackpoint>
            <Time>2021-08-03T14:57:02Z</Time>
            <Position>
              <LatitudeDegrees>41.092615</LatitudeDegrees>
              <LongitudeDegrees>-1.409944</LongitudeDegrees>
            </Position>
            <AltitudeMeters>767.498</AltitudeMeters>
            <DistanceMeters>543692.90757953</DistanceMeters>
          </Trackpoint>
          <Trackpoint>
            <Time>2021-08-03T14:57:03Z</Time>
            <Position>
              <LatitudeDegrees>41.092568</LatitudeDegrees>
              <LongitudeDegrees>-1.409895</LongitudeDegrees>
            </Position>
            <AltitudeMeters>767.417</AltitudeMeters>
            <DistanceMeters>543699.56080692</DistanceMeters>
          </Trackpoint>
          <Trackpoint>
            <Time>2021-08-03T14:57:05Z</Time>
            <Position>
              <LatitudeDegrees>41.092478</LatitudeDegrees>
              <LongitudeDegrees>-1.409802</LongitudeDegrees>
            </Position>
            <AltitudeMeters>767.208</AltitudeMeters>
            <DistanceMeters>543712.25745706</DistanceMeters>
          </Trackpoint>
          <Trackpoint>
            <Time>2021-08-03T14:57:06Z</Time>
            <Position>
              <LatitudeDegrees>41.092438</LatitudeDegrees>
              <LongitudeDegrees>-1.409756</LongitudeDegrees>
            </Position>
            <AltitudeMeters>767.298</AltitudeMeters>
            <DistanceMeters>543718.14987964</DistanceMeters>
          </Trackpoint>
          <Trackpoint>
            <Time>2021-08-03T14:57:08Z</Time>
            <Position>
              <LatitudeDegrees>41.092361</LatitudeDegrees>
              <LongitudeDegrees>-1.409672</LongitudeDegrees>
            </Position>
            <AltitudeMeters>767.250</AltitudeMeters>
            <DistanceMeters>543729.24524048</DistanceMeters>
          </Trackpoint>
          <Trackpoint>
            <Time>2021-08-03T14:57:09Z</Time>
            <Position>
              <LatitudeDegrees>41.092322</LatitudeDegrees>
              <LongitudeDegrees>-1.409633</LongitudeDegrees>
            </Position>
            <AltitudeMeters>767.240</AltitudeMeters>
            <DistanceMeters>543734.68090145</DistanceMeters>
          </Trackpoint>
          <Trackpoint>
            <Time>2021-08-03T14:57:10Z</Time>
            <Position>
              <LatitudeDegrees>41.092283</LatitudeDegrees>
              <LongitudeDegrees>-1.409597</LongitudeDegrees>
            </Position>
            <AltitudeMeters>767.243</AltitudeMeters>
            <DistanceMeters>543739.97005798</DistanceMeters>
          </Trackpoint>
          <Trackpoint>
            <Time>2021-08-03T14:57:12Z</Time>
            <Position>
              <LatitudeDegrees>41.092219</LatitudeDegrees>
              <LongitudeDegrees>-1.409547</LongitudeDegrees>
            </Position>
            <AltitudeMeters>767.261</AltitudeMeters>
            <DistanceMeters>543748.2362898</DistanceMeters>
          </Trackpoint>
          <Trackpoint>
            <Time>2021-08-03T14:57:14Z</Time>
            <Position>
              <LatitudeDegrees>41.092158</LatitudeDegrees>
              <LongitudeDegrees>-1.409514</LongitudeDegrees>
            </Position>
            <AltitudeMeters>767.316</AltitudeMeters>
            <DistanceMeters>543755.56814121</DistanceMeters>
          </Trackpoint>
          <Trackpoint>
            <Time>2021-08-03T14:57:16Z</Time>
            <Position>
              <LatitudeDegrees>41.092074</LatitudeDegrees>
              <LongitudeDegrees>-1.409454</LongitudeDegrees>
            </Position>
            <AltitudeMeters>767.641</AltitudeMeters>
            <DistanceMeters>543766.18607436</DistanceMeters>
          </Trackpoint>
          <Trackpoint>
            <Time>2021-08-03T14:57:17Z</Time>
            <Position>
              <LatitudeDegrees>41.092033</LatitudeDegrees>
              <LongitudeDegrees>-1.409416</LongitudeDegrees>
            </Position>
            <AltitudeMeters>767.772</AltitudeMeters>
            <DistanceMeters>543771.75142809</DistanceMeters>
          </Trackpoint>
          <Trackpoint>
            <Time>2021-08-03T14:57:18Z</Time>
            <Position>
              <LatitudeDegrees>41.091991</LatitudeDegrees>
              <LongitudeDegrees>-1.409378</LongitudeDegrees>
            </Position>
            <AltitudeMeters>767.796</AltitudeMeters>
            <DistanceMeters>543777.40851134</DistanceMeters>
          </Trackpoint>
          <Trackpoint>
            <Time>2021-08-03T14:57:20Z</Time>
            <Position>
              <LatitudeDegrees>41.091910</LatitudeDegrees>
              <LongitudeDegrees>-1.409298</LongitudeDegrees>
            </Position>
            <AltitudeMeters>768.031</AltitudeMeters>
            <DistanceMeters>543788.64740405</DistanceMeters>
          </Trackpoint>
          <Trackpoint>
            <Time>2021-08-03T14:57:21Z</Time>
            <Position>
              <LatitudeDegrees>41.091869</LatitudeDegrees>
              <LongitudeDegrees>-1.409256</LongitudeDegrees>
            </Position>
            <AltitudeMeters>768.024</AltitudeMeters>
            <DistanceMeters>543794.41279315</DistanceMeters>
          </Trackpoint>
          <Trackpoint>
            <Time>2021-08-03T14:57:23Z</Time>
            <Position>
              <LatitudeDegrees>41.091788</LatitudeDegrees>
              <LongitudeDegrees>-1.409173</LongitudeDegrees>
            </Position>
            <AltitudeMeters>767.808</AltitudeMeters>
            <DistanceMeters>543805.80332159</DistanceMeters>
          </Trackpoint>
          <Trackpoint>
            <Time>2021-08-03T14:57:25Z</Time>
            <Position>
              <LatitudeDegrees>41.091706</LatitudeDegrees>
              <LongitudeDegrees>-1.409092</LongitudeDegrees>
            </Position>
            <AltitudeMeters>767.546</AltitudeMeters>
            <DistanceMeters>543817.18195227</DistanceMeters>
          </Trackpoint>
          <Trackpoint>
            <Time>2021-08-03T14:57:27Z</Time>
            <Position>
              <LatitudeDegrees>41.091626</LatitudeDegrees>
              <LongitudeDegrees>-1.409012</LongitudeDegrees>
            </Position>
            <AltitudeMeters>767.348</AltitudeMeters>
            <DistanceMeters>543828.33211337</DistanceMeters>
          </Trackpoint>
          <Trackpoint>
            <Time>2021-08-03T14:57:29Z</Time>
            <Position>
              <LatitudeDegrees>41.091571</LatitudeDegrees>
              <LongitudeDegrees>-1.408939</LongitudeDegrees>
            </Position>
            <AltitudeMeters>767.588</AltitudeMeters>
            <DistanceMeters>543836.99154492</DistanceMeters>
          </Trackpoint>
          <Trackpoint>
            <Time>2021-08-03T14:57:31Z</Time>
            <Position>
              <LatitudeDegrees>41.091504</LatitudeDegrees>
              <LongitudeDegrees>-1.408860</LongitudeDegrees>
            </Position>
            <AltitudeMeters>767.841</AltitudeMeters>
            <DistanceMeters>543846.96753973</DistanceMeters>
          </Trackpoint>
          <Trackpoint>
            <Time>2021-08-03T14:57:33Z</Time>
            <Position>
              <LatitudeDegrees>41.091431</LatitudeDegrees>
              <LongitudeDegrees>-1.408790</LongitudeDegrees>
            </Position>
            <AltitudeMeters>767.919</AltitudeMeters>
            <DistanceMeters>543856.99184473</DistanceMeters>
          </Trackpoint>
          <Trackpoint>
            <Time>2021-08-03T14:57:34Z</Time>
            <Position>
              <LatitudeDegrees>41.091385</LatitudeDegrees>
              <LongitudeDegrees>-1.408759</LongitudeDegrees>
            </Position>
            <AltitudeMeters>767.944</AltitudeMeters>
            <DistanceMeters>543862.7344782</DistanceMeters>
          </Trackpoint>
          <Trackpoint>
            <Time>2021-08-03T14:57:36Z</Time>
            <Position>
              <LatitudeDegrees>41.091341</LatitudeDegrees>
              <LongitudeDegrees>-1.408727</LongitudeDegrees>
            </Position>
            <AltitudeMeters>768.089</AltitudeMeters>
            <DistanceMeters>543868.31926862</DistanceMeters>
          </Trackpoint>
          <Trackpoint>
            <Time>2021-08-03T14:57:38Z</Time>
            <Position>
              <LatitudeDegrees>41.091278</LatitudeDegrees>
              <LongitudeDegrees>-1.408678</LongitudeDegrees>
            </Position>
            <AltitudeMeters>768.020</AltitudeMeters>
            <DistanceMeters>543876.44780288</DistanceMeters>
          </Trackpoint>
          <Trackpoint>
            <Time>2021-08-03T14:57:40Z</Time>
            <Position>
              <LatitudeDegrees>41.091211</LatitudeDegrees>
              <LongitudeDegrees>-1.408609</LongitudeDegrees>
            </Position>
            <AltitudeMeters>768.297</AltitudeMeters>
            <DistanceMeters>543885.88754834</DistanceMeters>
          </Trackpoint>
          <Trackpoint>
            <Time>2021-08-03T14:57:42Z</Time>
            <Position>
              <LatitudeDegrees>41.091124</LatitudeDegrees>
              <LongitudeDegrees>-1.408524</LongitudeDegrees>
            </Position>
            <AltitudeMeters>768.523</AltitudeMeters>
            <DistanceMeters>543897.9128402</DistanceMeters>
          </Trackpoint>
          <Trackpoint>
            <Time>2021-08-03T14:57:44Z</Time>
            <Position>
              <LatitudeDegrees>41.091045</LatitudeDegrees>
              <LongitudeDegrees>-1.408446</LongitudeDegrees>
            </Position>
            <AltitudeMeters>768.525</AltitudeMeters>
            <DistanceMeters>543908.87350336</DistanceMeters>
          </Trackpoint>
          <Trackpoint>
            <Time>2021-08-03T14:57:45Z</Time>
            <Position>
              <LatitudeDegrees>41.091002</LatitudeDegrees>
              <LongitudeDegrees>-1.408408</LongitudeDegrees>
            </Position>
            <AltitudeMeters>768.308</AltitudeMeters>
            <DistanceMeters>543914.62399377</DistanceMeters>
          </Trackpoint>
          <Trackpoint>
            <Time>2021-08-03T14:57:47Z</Time>
            <Position>
              <LatitudeDegrees>41.090921</LatitudeDegrees>
              <LongitudeDegrees>-1.408336</LongitudeDegrees>
            </Position>
            <AltitudeMeters>768.336</AltitudeMeters>
            <DistanceMeters>543925.47619433</DistanceMeters>
          </Trackpoint>
          <Trackpoint>
            <Time>2021-08-03T14:57:49Z</Time>
            <Position>
              <LatitudeDegrees>41.090848</LatitudeDegrees>
              <LongitudeDegrees>-1.408272</LongitudeDegrees>
            </Position>
            <AltitudeMeters>768.398</AltitudeMeters>
            <DistanceMeters>543935.21492592</DistanceMeters>
          </Trackpoint>
          <Trackpoint>
            <Time>2021-08-03T14:57:51Z</Time>
            <Position>
              <LatitudeDegrees>41.090775</LatitudeDegrees>
              <LongitudeDegrees>-1.408207</LongitudeDegrees>
            </Position>
            <AltitudeMeters>768.468</AltitudeMeters>
            <DistanceMeters>543945.00037075</DistanceMeters>
          </Trackpoint>
          <Trackpoint>
            <Time>2021-08-03T14:57:52Z</Time>
            <Position>
              <LatitudeDegrees>41.090735</LatitudeDegrees>
              <LongitudeDegrees>-1.408174</LongitudeDegrees>
            </Position>
            <AltitudeMeters>768.591</AltitudeMeters>
            <DistanceMeters>543950.24322805</DistanceMeters>
          </Trackpoint>
          <Trackpoint>
            <Time>2021-08-03T14:57:54Z</Time>
            <Position>
              <LatitudeDegrees>41.090657</LatitudeDegrees>
              <LongitudeDegrees>-1.408110</LongitudeDegrees>
            </Position>
            <AltitudeMeters>768.589</AltitudeMeters>
            <DistanceMeters>543960.45053044</DistanceMeters>
          </Trackpoint>
          <Trackpoint>
            <Time>2021-08-03T14:57:56Z</Time>
            <Position>
              <LatitudeDegrees>41.090590</LatitudeDegrees>
              <LongitudeDegrees>-1.408049</LongitudeDegrees>
            </Position>
            <AltitudeMeters>768.694</AltitudeMeters>
            <DistanceMeters>543969.49455789</DistanceMeters>
          </Trackpoint>
          <Trackpoint>
            <Time>2021-08-03T14:57:58Z</Time>
            <Position>
              <LatitudeDegrees>41.090529</LatitudeDegrees>
              <LongitudeDegrees>-1.407990</LongitudeDegrees>
            </Position>
            <AltitudeMeters>768.519</AltitudeMeters>
            <DistanceMeters>543977.89569337</DistanceMeters>
          </Trackpoint>
          <Trackpoint>
            <Time>2021-08-03T14:58:00Z</Time>
            <Position>
              <LatitudeDegrees>41.090489</LatitudeDegrees>
              <LongitudeDegrees>-1.407948</LongitudeDegrees>
            </Position>
            <AltitudeMeters>768.450</AltitudeMeters>
            <DistanceMeters>543983.57348986</DistanceMeters>
          </Trackpoint>
          <Trackpoint>
            <Time>2021-08-03T14:58:02Z</Time>
            <Position>
              <LatitudeDegrees>41.090436</LatitudeDegrees>
              <LongitudeDegrees>-1.407898</LongitudeDegrees>
            </Position>
            <AltitudeMeters>768.432</AltitudeMeters>
            <DistanceMeters>543990.81113267</DistanceMeters>
          </Trackpoint>
          <Trackpoint>
            <Time>2021-08-03T14:58:04Z</Time>
            <Position>
              <LatitudeDegrees>41.090384</LatitudeDegrees>
              <LongitudeDegrees>-1.407848</LongitudeDegrees>
            </Position>
            <AltitudeMeters>768.392</AltitudeMeters>
            <DistanceMeters>543997.95901155</DistanceMeters>
          </Trackpoint>
          <Trackpoint>
            <Time>2021-08-03T14:58:06Z</Time>
            <Position>
              <LatitudeDegrees>41.090329</LatitudeDegrees>
              <LongitudeDegrees>-1.407795</LongitudeDegrees>
            </Position>
            <AltitudeMeters>768.111</AltitudeMeters>
            <DistanceMeters>544005.52542977</DistanceMeters>
          </Trackpoint>
          <Trackpoint>
            <Time>2021-08-03T14:58:08Z</Time>
            <Position>
              <LatitudeDegrees>41.090267</LatitudeDegrees>
              <LongitudeDegrees>-1.407746</LongitudeDegrees>
            </Position>
            <AltitudeMeters>768.108</AltitudeMeters>
            <DistanceMeters>544013.55729544</DistanceMeters>
          </Trackpoint>
          <Trackpoint>
            <Time>2021-08-03T14:58:09Z</Time>
            <Position>
              <LatitudeDegrees>41.090226</LatitudeDegrees>
              <LongitudeDegrees>-1.407709</LongitudeDegrees>
            </Position>
            <AltitudeMeters>768.160</AltitudeMeters>
            <DistanceMeters>544019.07539454</DistanceMeters>
          </Trackpoint>
          <Trackpoint>
            <Time>2021-08-03T14:58:11Z</Time>
            <Position>
              <LatitudeDegrees>41.090134</LatitudeDegrees>
              <LongitudeDegrees>-1.407619</LongitudeDegrees>
            </Position>
            <AltitudeMeters>768.572</AltitudeMeters>
            <DistanceMeters>544031.79762274</DistanceMeters>
          </Trackpoint>
          <Trackpoint>
            <Time>2021-08-03T14:58:12Z</Time>
            <Position>
              <LatitudeDegrees>41.090088</LatitudeDegrees>
              <LongitudeDegrees>-1.407574</LongitudeDegrees>
            </Position>
            <AltitudeMeters>768.722</AltitudeMeters>
            <DistanceMeters>544038.15802701</DistanceMeters>
          </Trackpoint>
          <Trackpoint>
            <Time>2021-08-03T14:58:14Z</Time>
            <Position>
              <LatitudeDegrees>41.089997</LatitudeDegrees>
              <LongitudeDegrees>-1.407487</LongitudeDegrees>
            </Position>
            <AltitudeMeters>768.815</AltitudeMeters>
            <DistanceMeters>544050.64165866</DistanceMeters>
          </Trackpoint>
          <Trackpoint>
            <Time>2021-08-03T14:58:15Z</Time>
            <Position>
              <LatitudeDegrees>41.089918</LatitudeDegrees>
              <LongitudeDegrees>-1.407416</LongitudeDegrees>
            </Position>
            <AltitudeMeters>768.833</AltitudeMeters>
            <DistanceMeters>544061.26171774</DistanceMeters>
          </Trackpoint>
          <Trackpoint>
            <Time>2021-08-03T14:58:16Z</Time>
            <Position>
              <LatitudeDegrees>41.089857</LatitudeDegrees>
              <LongitudeDegrees>-1.407362</LongitudeDegrees>
            </Position>
            <AltitudeMeters>769.048</AltitudeMeters>
            <DistanceMeters>544069.42351129</DistanceMeters>
          </Trackpoint>
          <Trackpoint>
            <Time>2021-08-03T14:58:18Z</Time>
            <Position>
              <LatitudeDegrees>41.089792</LatitudeDegrees>
              <LongitudeDegrees>-1.407300</LongitudeDegrees>
            </Position>
            <AltitudeMeters>769.243</AltitudeMeters>
            <DistanceMeters>544078.33324765</DistanceMeters>
          </Trackpoint>
          <Trackpoint>
            <Time>2021-08-03T14:58:20Z</Time>
            <Position>
              <LatitudeDegrees>41.089715</LatitudeDegrees>
              <LongitudeDegrees>-1.407234</LongitudeDegrees>
            </Position>
            <AltitudeMeters>769.594</AltitudeMeters>
            <DistanceMeters>544088.53656825</DistanceMeters>
          </Trackpoint>
          <Trackpoint>
            <Time>2021-08-03T14:58:22Z</Time>
            <Position>
              <LatitudeDegrees>41.089637</LatitudeDegrees>
              <LongitudeDegrees>-1.407181</LongitudeDegrees>
            </Position>
            <AltitudeMeters>769.692</AltitudeMeters>
            <DistanceMeters>544098.29058719</DistanceMeters>
          </Trackpoint>
          <Trackpoint>
            <Time>2021-08-03T14:58:24Z</Time>
            <Position>
              <LatitudeDegrees>41.089592</LatitudeDegrees>
              <LongitudeDegrees>-1.407126</LongitudeDegrees>
            </Position>
            <AltitudeMeters>769.773</AltitudeMeters>
            <DistanceMeters>544105.10009837</DistanceMeters>
          </Trackpoint>
          <Trackpoint>
            <Time>2021-08-03T14:58:26Z</Time>
            <Position>
              <LatitudeDegrees>41.089523</LatitudeDegrees>
              <LongitudeDegrees>-1.407063</LongitudeDegrees>
            </Position>
            <AltitudeMeters>769.920</AltitudeMeters>
            <DistanceMeters>544114.42240794</DistanceMeters>
          </Trackpoint>
          <Trackpoint>
            <Time>2021-08-03T14:58:28Z</Time>
            <Position>
              <LatitudeDegrees>41.089449</LatitudeDegrees>
              <LongitudeDegrees>-1.406988</LongitudeDegrees>
            </Position>
            <AltitudeMeters>770.108</AltitudeMeters>
            <DistanceMeters>544124.78685628</DistanceMeters>
          </Trackpoint>
          <Trackpoint>
            <Time>2021-08-03T14:58:30Z</Time>
            <Position>
              <LatitudeDegrees>41.089379</LatitudeDegrees>
              <LongitudeDegrees>-1.406923</LongitudeDegrees>
            </Position>
            <AltitudeMeters>770.136</AltitudeMeters>
            <DistanceMeters>544134.29617726</DistanceMeters>
          </Trackpoint>
          <Trackpoint>
            <Time>2021-08-03T14:58:32Z</Time>
            <Position>
              <LatitudeDegrees>41.089305</LatitudeDegrees>
              <LongitudeDegrees>-1.406841</LongitudeDegrees>
            </Position>
            <AltitudeMeters>769.198</AltitudeMeters>
            <DistanceMeters>544145.02704557</DistanceMeters>
          </Trackpoint>
          <Trackpoint>
            <Time>2021-08-03T14:58:34Z</Time>
            <Position>
              <LatitudeDegrees>41.089225</LatitudeDegrees>
              <LongitudeDegrees>-1.406767</LongitudeDegrees>
            </Position>
            <AltitudeMeters>769.118</AltitudeMeters>
            <DistanceMeters>544155.88132617</DistanceMeters>
          </Trackpoint>
          <Trackpoint>
            <Time>2021-08-03T14:58:36Z</Time>
            <Position>
              <LatitudeDegrees>41.089146</LatitudeDegrees>
              <LongitudeDegrees>-1.406697</LongitudeDegrees>
            </Position>
            <AltitudeMeters>769.241</AltitudeMeters>
            <DistanceMeters>544166.45451615</DistanceMeters>
          </Trackpoint>
          <Trackpoint>
            <Time>2021-08-03T14:58:38Z</Time>
            <Position>
              <LatitudeDegrees>41.089063</LatitudeDegrees>
              <LongitudeDegrees>-1.406635</LongitudeDegrees>
            </Position>
            <AltitudeMeters>769.269</AltitudeMeters>
            <DistanceMeters>544177.05585246</DistanceMeters>
          </Trackpoint>
          <Trackpoint>
            <Time>2021-08-03T14:58:40Z</Time>
            <Position>
              <LatitudeDegrees>41.088981</LatitudeDegrees>
              <LongitudeDegrees>-1.406554</LongitudeDegrees>
            </Position>
            <AltitudeMeters>769.274</AltitudeMeters>
            <DistanceMeters>544188.43448313</DistanceMeters>
          </Trackpoint>
          <Trackpoint>
            <Time>2021-08-03T14:58:42Z</Time>
            <Position>
              <LatitudeDegrees>41.088900</LatitudeDegrees>
              <LongitudeDegrees>-1.406468</LongitudeDegrees>
            </Position>
            <AltitudeMeters>769.339</AltitudeMeters>
            <DistanceMeters>544199.98091326</DistanceMeters>
          </Trackpoint>
          <Trackpoint>
            <Time>2021-08-03T14:58:44Z</Time>
            <Position>
              <LatitudeDegrees>41.088844</LatitudeDegrees>
              <LongitudeDegrees>-1.406394</LongitudeDegrees>
            </Position>
            <AltitudeMeters>769.490</AltitudeMeters>
            <DistanceMeters>544208.7779443</DistanceMeters>
          </Trackpoint>
          <Trackpoint>
            <Time>2021-08-03T14:58:46Z</Time>
            <Position>
              <LatitudeDegrees>41.088779</LatitudeDegrees>
              <LongitudeDegrees>-1.406335</LongitudeDegrees>
            </Position>
            <AltitudeMeters>769.535</AltitudeMeters>
            <DistanceMeters>544217.54309634</DistanceMeters>
          </Trackpoint>
          <Trackpoint>
            <Time>2021-08-03T14:58:48Z</Time>
            <Position>
              <LatitudeDegrees>41.088694</LatitudeDegrees>
              <LongitudeDegrees>-1.406266</LongitudeDegrees>
            </Position>
            <AltitudeMeters>769.686</AltitudeMeters>
            <DistanceMeters>544228.63398005</DistanceMeters>
          </Trackpoint>
          <Trackpoint>
            <Time>2021-08-03T14:58:50Z</Time>
            <Position>
              <LatitudeDegrees>41.088615</LatitudeDegrees>
              <LongitudeDegrees>-1.406189</LongitudeDegrees>
            </Position>
            <AltitudeMeters>769.614</AltitudeMeters>
            <DistanceMeters>544239.5446857</DistanceMeters>
          </Trackpoint>
          <Trackpoint>
            <Time>2021-08-03T14:58:52Z</Time>
            <Position>
              <LatitudeDegrees>41.088545</LatitudeDegrees>
              <LongitudeDegrees>-1.406126</LongitudeDegrees>
            </Position>
            <AltitudeMeters>769.408</AltitudeMeters>
            <DistanceMeters>544248.95904708</DistanceMeters>
          </Trackpoint>
          <Trackpoint>
            <Time>2021-08-03T14:58:54Z</Time>
            <Position>
              <LatitudeDegrees>41.088474</LatitudeDegrees>
              <LongitudeDegrees>-1.406060</LongitudeDegrees>
            </Position>
            <AltitudeMeters>769.340</AltitudeMeters>
            <DistanceMeters>544258.6083537</DistanceMeters>
          </Trackpoint>
          <Trackpoint>
            <Time>2021-08-03T14:58:56Z</Time>
            <Position>
              <LatitudeDegrees>41.088389</LatitudeDegrees>
              <LongitudeDegrees>-1.405984</LongitudeDegrees>
            </Position>
            <AltitudeMeters>769.362</AltitudeMeters>
            <DistanceMeters>544270.01670554</DistanceMeters>
          </Trackpoint>
          <Trackpoint>
            <Time>2021-08-03T14:58:58Z</Time>
            <Position>
              <LatitudeDegrees>41.088305</LatitudeDegrees>
              <LongitudeDegrees>-1.405923</LongitudeDegrees>
            </Position>
            <AltitudeMeters>769.342</AltitudeMeters>
            <DistanceMeters>544280.67495876</DistanceMeters>
          </Trackpoint>
          <Trackpoint>
            <Time>2021-08-03T14:59:00Z</Time>
            <Position>
              <LatitudeDegrees>41.088227</LatitudeDegrees>
              <LongitudeDegrees>-1.405858</LongitudeDegrees>
            </Position>
            <AltitudeMeters>769.795</AltitudeMeters>
            <DistanceMeters>544290.92639913</DistanceMeters>
          </Trackpoint>
          <Trackpoint>
            <Time>2021-08-03T14:59:03Z</Time>
            <Position>
              <LatitudeDegrees>41.088171</LatitudeDegrees>
              <LongitudeDegrees>-1.405805</LongitudeDegrees>
            </Position>
            <AltitudeMeters>770.143</AltitudeMeters>
            <DistanceMeters>544298.58298168</DistanceMeters>
          </Trackpoint>
          <Trackpoint>
            <Time>2021-08-03T14:59:05Z</Time>
            <Position>
              <LatitudeDegrees>41.088065</LatitudeDegrees>
              <LongitudeDegrees>-1.405722</LongitudeDegrees>
            </Position>
            <AltitudeMeters>770.218</AltitudeMeters>
            <DistanceMeters>544312.28265718</DistanceMeters>
          </Trackpoint>
          <Trackpoint>
            <Time>2021-08-03T14:59:07Z</Time>
            <Position>
              <LatitudeDegrees>41.087933</LatitudeDegrees>
              <LongitudeDegrees>-1.405623</LongitudeDegrees>
            </Position>
            <AltitudeMeters>770.313</AltitudeMeters>
            <DistanceMeters>544329.15946586</DistanceMeters>
          </Trackpoint>
          <Trackpoint>
            <Time>2021-08-03T14:59:09Z</Time>
            <Position>
              <LatitudeDegrees>41.087862</LatitudeDegrees>
              <LongitudeDegrees>-1.405555</LongitudeDegrees>
            </Position>
            <AltitudeMeters>770.294</AltitudeMeters>
            <DistanceMeters>544338.90607574</DistanceMeters>
          </Trackpoint>
          <Trackpoint>
            <Time>2021-08-03T14:59:11Z</Time>
            <Position>
              <LatitudeDegrees>41.087792</LatitudeDegrees>
              <LongitudeDegrees>-1.405481</LongitudeDegrees>
            </Position>
            <AltitudeMeters>770.228</AltitudeMeters>
            <DistanceMeters>544348.86712387</DistanceMeters>
          </Trackpoint>
          <Trackpoint>
            <Time>2021-08-03T14:59:12Z</Time>
            <Position>
              <LatitudeDegrees>41.087744</LatitudeDegrees>
              <LongitudeDegrees>-1.405415</LongitudeDegrees>
            </Position>
            <AltitudeMeters>770.289</AltitudeMeters>
            <DistanceMeters>544356.56135426</DistanceMeters>
          </Trackpoint>
          <Trackpoint>
            <Time>2021-08-03T14:59:14Z</Time>
            <Position>
              <LatitudeDegrees>41.087666</LatitudeDegrees>
              <LongitudeDegrees>-1.405354</LongitudeDegrees>
            </Position>
            <AltitudeMeters>770.217</AltitudeMeters>
            <DistanceMeters>544366.6391154</DistanceMeters>
          </Trackpoint>
          <Trackpoint>
            <Time>2021-08-03T14:59:16Z</Time>
            <Position>
              <LatitudeDegrees>41.087605</LatitudeDegrees>
              <LongitudeDegrees>-1.405303</LongitudeDegrees>
            </Position>
            <AltitudeMeters>770.408</AltitudeMeters>
            <DistanceMeters>544374.66423255</DistanceMeters>
          </Trackpoint>
          <Trackpoint>
            <Time>2021-08-03T14:59:17Z</Time>
            <Position>
              <LatitudeDegrees>41.087563</LatitudeDegrees>
              <LongitudeDegrees>-1.405275</LongitudeDegrees>
            </Position>
            <AltitudeMeters>770.599</AltitudeMeters>
            <DistanceMeters>544379.89588255</DistanceMeters>
          </Trackpoint>
          <Trackpoint>
            <Time>2021-08-03T14:59:19Z</Time>
            <Position>
              <LatitudeDegrees>41.087485</LatitudeDegrees>
              <LongitudeDegrees>-1.405201</LongitudeDegrees>
            </Position>
            <AltitudeMeters>770.571</AltitudeMeters>
            <DistanceMeters>544390.56852909</DistanceMeters>
          </Trackpoint>
          <Trackpoint>
            <Time>2021-08-03T14:59:20Z</Time>
            <Position>
              <LatitudeDegrees>41.087452</LatitudeDegrees>
              <LongitudeDegrees>-1.405158</LongitudeDegrees>
            </Position>
            <AltitudeMeters>770.991</AltitudeMeters>
            <DistanceMeters>544395.71753914</DistanceMeters>
          </Trackpoint>
          <Trackpoint>
            <Time>2021-08-03T14:59:22Z</Time>
            <Position>
              <LatitudeDegrees>41.087369</LatitudeDegrees>
              <LongitudeDegrees>-1.405093</LongitudeDegrees>
            </Position>
            <AltitudeMeters>771.064</AltitudeMeters>
            <DistanceMeters>544406.44504091</DistanceMeters>
          </Trackpoint>
          <Trackpoint>
            <Time>2021-08-03T14:59:23Z</Time>
            <Position>
              <LatitudeDegrees>41.087330</LatitudeDegrees>
              <LongitudeDegrees>-1.405055</LongitudeDegrees>
            </Position>
            <AltitudeMeters>771.022</AltitudeMeters>
            <DistanceMeters>544411.83063331</DistanceMeters>
          </Trackpoint>
          <Trackpoint>
            <Time>2021-08-03T14:59:25Z</Time>
            <Position>
              <LatitudeDegrees>41.087262</LatitudeDegrees>
              <LongitudeDegrees>-1.404987</LongitudeDegrees>
            </Position>
            <AltitudeMeters>771.057</AltitudeMeters>
            <DistanceMeters>544421.3085656</DistanceMeters>
          </Trackpoint>
          <Trackpoint>
            <Time>2021-08-03T14:59:26Z</Time>
            <Position>
              <LatitudeDegrees>41.087224</LatitudeDegrees>
              <LongitudeDegrees>-1.404953</LongitudeDegrees>
            </Position>
            <AltitudeMeters>771.012</AltitudeMeters>
            <DistanceMeters>544426.41000464</DistanceMeters>
          </Trackpoint>
          <Trackpoint>
            <Time>2021-08-03T14:59:28Z</Time>
            <Position>
              <LatitudeDegrees>41.087141</LatitudeDegrees>
              <LongitudeDegrees>-1.404873</LongitudeDegrees>
            </Position>
            <AltitudeMeters>771.073</AltitudeMeters>
            <DistanceMeters>544437.82824635</DistanceMeters>
          </Trackpoint>
          <Trackpoint>
            <Time>2021-08-03T14:59:30Z</Time>
            <Position>
              <LatitudeDegrees>41.087062</LatitudeDegrees>
              <LongitudeDegrees>-1.404804</LongitudeDegrees>
            </Position>
            <AltitudeMeters>771.145</AltitudeMeters>
            <DistanceMeters>544448.35521638</DistanceMeters>
          </Trackpoint>
          <Trackpoint>
            <Time>2021-08-03T14:59:32Z</Time>
            <Position>
              <LatitudeDegrees>41.086983</LatitudeDegrees>
              <LongitudeDegrees>-1.404723</LongitudeDegrees>
            </Position>
            <AltitudeMeters>771.047</AltitudeMeters>
            <DistanceMeters>544459.46806145</DistanceMeters>
          </Trackpoint>
          <Trackpoint>
            <Time>2021-08-03T14:59:33Z</Time>
            <Position>
              <LatitudeDegrees>41.086944</LatitudeDegrees>
              <LongitudeDegrees>-1.404685</LongitudeDegrees>
            </Position>
            <AltitudeMeters>771.011</AltitudeMeters>
            <DistanceMeters>544464.85365385</DistanceMeters>
          </Trackpoint>
          <Trackpoint>
            <Time>2021-08-03T14:59:35Z</Time>
            <Position>
              <LatitudeDegrees>41.086870</LatitudeDegrees>
              <LongitudeDegrees>-1.404598</LongitudeDegrees>
            </Position>
            <AltitudeMeters>770.908</AltitudeMeters>
            <DistanceMeters>544475.85871566</DistanceMeters>
          </Trackpoint>
          <Trackpoint>
            <Time>2021-08-03T14:59:37Z</Time>
            <Position>
              <LatitudeDegrees>41.086780</LatitudeDegrees>
              <LongitudeDegrees>-1.404532</LongitudeDegrees>
            </Position>
            <AltitudeMeters>771.021</AltitudeMeters>
            <DistanceMeters>544487.30381456</DistanceMeters>
          </Trackpoint>
          <Trackpoint>
            <Time>2021-08-03T14:59:38Z</Time>
            <Position>
              <LatitudeDegrees>41.086741</LatitudeDegrees>
              <LongitudeDegrees>-1.404501</LongitudeDegrees>
            </Position>
            <AltitudeMeters>771.083</AltitudeMeters>
            <DistanceMeters>544492.36437745</DistanceMeters>
          </Trackpoint>
          <Trackpoint>
            <Time>2021-08-03T14:59:40Z</Time>
            <Position>
              <LatitudeDegrees>41.086671</LatitudeDegrees>
              <LongitudeDegrees>-1.404430</LongitudeDegrees>
            </Position>
            <AltitudeMeters>771.053</AltitudeMeters>
            <DistanceMeters>544502.17194465</DistanceMeters>
          </Trackpoint>
          <Trackpoint>
            <Time>2021-08-03T14:59:41Z</Time>
            <Position>
              <LatitudeDegrees>41.086632</LatitudeDegrees>
              <LongitudeDegrees>-1.404379</LongitudeDegrees>
            </Position>
            <AltitudeMeters>771.076</AltitudeMeters>
            <DistanceMeters>544508.26700285</DistanceMeters>
          </Trackpoint>
          <Trackpoint>
            <Time>2021-08-03T14:59:43Z</Time>
            <Position>
              <LatitudeDegrees>41.086577</LatitudeDegrees>
              <LongitudeDegrees>-1.404335</LongitudeDegrees>
            </Position>
            <AltitudeMeters>771.164</AltitudeMeters>
            <DistanceMeters>544515.41614494</DistanceMeters>
          </Trackpoint>
          <Trackpoint>
            <Time>2021-08-03T14:59:45Z</Time>
            <Position>
              <LatitudeDegrees>41.086495</LatitudeDegrees>
              <LongitudeDegrees>-1.404255</LongitudeDegrees>
            </Position>
            <AltitudeMeters>771.159</AltitudeMeters>
            <DistanceMeters>544526.74506707</DistanceMeters>
          </Trackpoint>
          <Trackpoint>
            <Time>2021-08-03T14:59:46Z</Time>
            <Position>
              <LatitudeDegrees>41.086455</LatitudeDegrees>
              <LongitudeDegrees>-1.404225</LongitudeDegrees>
            </Position>
            <AltitudeMeters>771.234</AltitudeMeters>
            <DistanceMeters>544531.85888182</DistanceMeters>
          </Trackpoint>
          <Trackpoint>
            <Time>2021-08-03T14:59:48Z</Time>
            <Position>
              <LatitudeDegrees>41.086380</LatitudeDegrees>
              <LongitudeDegrees>-1.404151</LongitudeDegrees>
            </Position>
            <AltitudeMeters>771.265</AltitudeMeters>
            <DistanceMeters>544542.26159474</DistanceMeters>
          </Trackpoint>
          <Trackpoint>
            <Time>2021-08-03T14:59:49Z</Time>
            <Position>
              <LatitudeDegrees>41.086335</LatitudeDegrees>
              <LongitudeDegrees>-1.404116</LongitudeDegrees>
            </Position>
            <AltitudeMeters>771.396</AltitudeMeters>
            <DistanceMeters>544548.06756369</DistanceMeters>
          </Trackpoint>
          <Trackpoint>
            <Time>2021-08-03T14:59:51Z</Time>
            <Position>
              <LatitudeDegrees>41.086254</LatitudeDegrees>
              <LongitudeDegrees>-1.404037</LongitudeDegrees>
            </Position>
            <AltitudeMeters>771.731</AltitudeMeters>
            <DistanceMeters>544559.25693409</DistanceMeters>
          </Trackpoint>
          <Trackpoint>
            <Time>2021-08-03T14:59:53Z</Time>
            <Position>
              <LatitudeDegrees>41.086166</LatitudeDegrees>
              <LongitudeDegrees>-1.403961</LongitudeDegrees>
            </Position>
            <AltitudeMeters>772.124</AltitudeMeters>
            <DistanceMeters>544570.94406103</DistanceMeters>
          </Trackpoint>
          <Trackpoint>
            <Time>2021-08-03T14:59:54Z</Time>
            <Position>
              <LatitudeDegrees>41.086124</LatitudeDegrees>
              <LongitudeDegrees>-1.403918</LongitudeDegrees>
            </Position>
            <AltitudeMeters>772.208</AltitudeMeters>
            <DistanceMeters>544576.84949541</DistanceMeters>
          </Trackpoint>
          <Trackpoint>
            <Time>2021-08-03T14:59:56Z</Time>
            <Position>
              <LatitudeDegrees>41.086051</LatitudeDegrees>
              <LongitudeDegrees>-1.403836</LongitudeDegrees>
            </Position>
            <AltitudeMeters>772.246</AltitudeMeters>
            <DistanceMeters>544587.49503248</DistanceMeters>
          </Trackpoint>
          <Trackpoint>
            <Time>2021-08-03T14:59:58Z</Time>
            <Position>
              <LatitudeDegrees>41.085971</LatitudeDegrees>
              <LongitudeDegrees>-1.403769</LongitudeDegrees>
            </Position>
            <AltitudeMeters>772.098</AltitudeMeters>
            <DistanceMeters>544598.02457561</DistanceMeters>
          </Trackpoint>
          <Trackpoint>
            <Time>2021-08-03T15:00:00Z</Time>
            <Position>
              <LatitudeDegrees>41.085913</LatitudeDegrees>
              <LongitudeDegrees>-1.403702</LongitudeDegrees>
            </Position>
            <AltitudeMeters>772.078</AltitudeMeters>
            <DistanceMeters>544606.58384019</DistanceMeters>
          </Trackpoint>
          <Trackpoint>
            <Time>2021-08-03T15:00:02Z</Time>
            <Position>
              <LatitudeDegrees>41.085861</LatitudeDegrees>
              <LongitudeDegrees>-1.403649</LongitudeDegrees>
            </Position>
            <AltitudeMeters>772.061</AltitudeMeters>
            <DistanceMeters>544613.88236202</DistanceMeters>
          </Trackpoint>
          <Trackpoint>
            <Time>2021-08-03T15:00:04Z</Time>
            <Position>
              <LatitudeDegrees>41.085765</LatitudeDegrees>
              <LongitudeDegrees>-1.403574</LongitudeDegrees>
            </Position>
            <AltitudeMeters>772.239</AltitudeMeters>
            <DistanceMeters>544626.28252903</DistanceMeters>
          </Trackpoint>
          <Trackpoint>
            <Time>2021-08-03T15:00:06Z</Time>
            <Position>
              <LatitudeDegrees>41.085701</LatitudeDegrees>
              <LongitudeDegrees>-1.403518</LongitudeDegrees>
            </Position>
            <AltitudeMeters>772.254</AltitudeMeters>
            <DistanceMeters>544634.81590681</DistanceMeters>
          </Trackpoint>
          <Trackpoint>
            <Time>2021-08-03T15:00:08Z</Time>
            <Position>
              <LatitudeDegrees>41.085635</LatitudeDegrees>
              <LongitudeDegrees>-1.403454</LongitudeDegrees>
            </Position>
            <AltitudeMeters>772.349</AltitudeMeters>
            <DistanceMeters>544643.9146837</DistanceMeters>
          </Trackpoint>
          <Trackpoint>
            <Time>2021-08-03T15:00:10Z</Time>
            <Position>
              <LatitudeDegrees>41.085574</LatitudeDegrees>
              <LongitudeDegrees>-1.403405</LongitudeDegrees>
            </Position>
            <AltitudeMeters>772.440</AltitudeMeters>
            <DistanceMeters>544651.85097901</DistanceMeters>
          </Trackpoint>
          <Trackpoint>
            <Time>2021-08-03T15:00:12Z</Time>
            <Position>
              <LatitudeDegrees>41.085523</LatitudeDegrees>
              <LongitudeDegrees>-1.403366</LongitudeDegrees>
            </Position>
            <AltitudeMeters>772.448</AltitudeMeters>
            <DistanceMeters>544658.40300033</DistanceMeters>
          </Trackpoint>
          <Trackpoint>
            <Time>2021-08-03T15:00:14Z</Time>
            <Position>
              <LatitudeDegrees>41.085463</LatitudeDegrees>
              <LongitudeDegrees>-1.403313</LongitudeDegrees>
            </Position>
            <AltitudeMeters>772.361</AltitudeMeters>
            <DistanceMeters>544666.42586671</DistanceMeters>
          </Trackpoint>
          <Trackpoint>
            <Time>2021-08-03T15:00:16Z</Time>
            <Position>
              <LatitudeDegrees>41.085377</LatitudeDegrees>
              <LongitudeDegrees>-1.403237</LongitudeDegrees>
            </Position>
            <AltitudeMeters>771.917</AltitudeMeters>
            <DistanceMeters>544677.92684752</DistanceMeters>
          </Trackpoint>
          <Trackpoint>
            <Time>2021-08-03T15:00:18Z</Time>
            <Position>
              <LatitudeDegrees>41.085269</LatitudeDegrees>
              <LongitudeDegrees>-1.403140</LongitudeDegrees>
            </Position>
            <AltitudeMeters>771.508</AltitudeMeters>
            <DistanceMeters>544692.44293632</DistanceMeters>
          </Trackpoint>
          <Trackpoint>
            <Time>2021-08-03T15:00:20Z</Time>
            <Position>
              <LatitudeDegrees>41.085183</LatitudeDegrees>
              <LongitudeDegrees>-1.403070</LongitudeDegrees>
            </Position>
            <AltitudeMeters>771.661</AltitudeMeters>
            <DistanceMeters>544703.67298741</DistanceMeters>
          </Trackpoint>
          <Trackpoint>
            <Time>2021-08-03T15:00:22Z</Time>
            <Position>
              <LatitudeDegrees>41.085107</LatitudeDegrees>
              <LongitudeDegrees>-1.402988</LongitudeDegrees>
            </Position>
            <AltitudeMeters>771.543</AltitudeMeters>
            <DistanceMeters>544714.57624181</DistanceMeters>
          </Trackpoint>
          <Trackpoint>
            <Time>2021-08-03T15:00:24Z</Time>
            <Position>
              <LatitudeDegrees>41.085043</LatitudeDegrees>
              <LongitudeDegrees>-1.402902</LongitudeDegrees>
            </Position>
            <AltitudeMeters>771.583</AltitudeMeters>
            <DistanceMeters>544724.71519591</DistanceMeters>
          </Trackpoint>
          <Trackpoint>
            <Time>2021-08-03T15:00:28Z</Time>
            <Position>
              <LatitudeDegrees>41.084989</LatitudeDegrees>
              <LongitudeDegrees>-1.402826</LongitudeDegrees>
            </Position>
            <AltitudeMeters>771.966</AltitudeMeters>
            <DistanceMeters>544733.47725673</DistanceMeters>
          </Trackpoint>
          <Trackpoint>
            <Time>2021-08-03T15:00:29Z</Time>
            <Position>
              <LatitudeDegrees>41.084904</LatitudeDegrees>
              <LongitudeDegrees>-1.402761</LongitudeDegrees>
            </Position>
            <AltitudeMeters>772.174</AltitudeMeters>
            <DistanceMeters>544744.39706257</DistanceMeters>
          </Trackpoint>
          <Trackpoint>
            <Time>2021-08-03T15:00:31Z</Time>
            <Position>
              <LatitudeDegrees>41.084767</LatitudeDegrees>
              <LongitudeDegrees>-1.402630</LongitudeDegrees>
            </Position>
            <AltitudeMeters>772.259</AltitudeMeters>
            <DistanceMeters>544763.19314489</DistanceMeters>
          </Trackpoint>
          <Trackpoint>
            <Time>2021-08-03T15:00:33Z</Time>
            <Position>
              <LatitudeDegrees>41.084686</LatitudeDegrees>
              <LongitudeDegrees>-1.402533</LongitudeDegrees>
            </Position>
            <AltitudeMeters>772.354</AltitudeMeters>
            <DistanceMeters>544775.33799024</DistanceMeters>
          </Trackpoint>
          <Trackpoint>
            <Time>2021-08-03T15:00:35Z</Time>
            <Position>
              <LatitudeDegrees>41.084599</LatitudeDegrees>
              <LongitudeDegrees>-1.402462</LongitudeDegrees>
            </Position>
            <AltitudeMeters>772.325</AltitudeMeters>
            <DistanceMeters>544786.70629944</DistanceMeters>
          </Trackpoint>
          <Trackpoint>
            <Time>2021-08-03T15:00:37Z</Time>
            <Position>
              <LatitudeDegrees>41.084499</LatitudeDegrees>
              <LongitudeDegrees>-1.402373</LongitudeDegrees>
            </Position>
            <AltitudeMeters>771.165</AltitudeMeters>
            <DistanceMeters>544800.10877237</DistanceMeters>
          </Trackpoint>
          <Trackpoint>
            <Time>2021-08-03T15:00:39Z</Time>
            <Position>
              <LatitudeDegrees>41.084412</LatitudeDegrees>
              <LongitudeDegrees>-1.402289</LongitudeDegrees>
            </Position>
            <AltitudeMeters>771.168</AltitudeMeters>
            <DistanceMeters>544812.08515472</DistanceMeters>
          </Trackpoint>
          <Trackpoint>
            <Time>2021-08-03T15:00:40Z</Time>
            <Position>
              <LatitudeDegrees>41.084369</LatitudeDegrees>
              <LongitudeDegrees>-1.402251</LongitudeDegrees>
            </Position>
            <AltitudeMeters>771.114</AltitudeMeters>
            <DistanceMeters>544817.83564513</DistanceMeters>
          </Trackpoint>
          <Trackpoint>
            <Time>2021-08-03T15:00:42Z</Time>
            <Position>
              <LatitudeDegrees>41.084292</LatitudeDegrees>
              <LongitudeDegrees>-1.402185</LongitudeDegrees>
            </Position>
            <AltitudeMeters>771.308</AltitudeMeters>
            <DistanceMeters>544828.03896574</DistanceMeters>
          </Trackpoint>
          <Trackpoint>
            <Time>2021-08-03T15:00:44Z</Time>
            <Position>
              <LatitudeDegrees>41.084214</LatitudeDegrees>
              <LongitudeDegrees>-1.402110</LongitudeDegrees>
            </Position>
            <AltitudeMeters>771.423</AltitudeMeters>
            <DistanceMeters>544838.76099461</DistanceMeters>
          </Trackpoint>
          <Trackpoint>
            <Time>2021-08-03T15:00:46Z</Time>
            <Position>
              <LatitudeDegrees>41.084148</LatitudeDegrees>
              <LongitudeDegrees>-1.402054</LongitudeDegrees>
            </Position>
            <AltitudeMeters>771.565</AltitudeMeters>
            <DistanceMeters>544847.48069894</DistanceMeters>
          </Trackpoint>
          <Trackpoint>
            <Time>2021-08-03T15:00:48Z</Time>
            <Position>
              <LatitudeDegrees>41.084083</LatitudeDegrees>
              <LongitudeDegrees>-1.402005</LongitudeDegrees>
            </Position>
            <AltitudeMeters>771.645</AltitudeMeters>
            <DistanceMeters>544855.80191437</DistanceMeters>
          </Trackpoint>
          <Trackpoint>
            <Time>2021-08-03T15:00:49Z</Time>
            <Position>
              <LatitudeDegrees>41.084031</LatitudeDegrees>
              <LongitudeDegrees>-1.401960</LongitudeDegrees>
            </Position>
            <AltitudeMeters>771.718</AltitudeMeters>
            <DistanceMeters>544862.71212741</DistanceMeters>
          </Trackpoint>
          <Trackpoint>
            <Time>2021-08-03T15:00:51Z</Time>
            <Position>
              <LatitudeDegrees>41.083952</LatitudeDegrees>
              <LongitudeDegrees>-1.401896</LongitudeDegrees>
            </Position>
            <AltitudeMeters>771.966</AltitudeMeters>
            <DistanceMeters>544873.01453094</DistanceMeters>
          </Trackpoint>
          <Trackpoint>
            <Time>2021-08-03T15:00:52Z</Time>
            <Position>
              <LatitudeDegrees>41.083912</LatitudeDegrees>
              <LongitudeDegrees>-1.401865</LongitudeDegrees>
            </Position>
            <AltitudeMeters>771.971</AltitudeMeters>
            <DistanceMeters>544878.17055121</DistanceMeters>
          </Trackpoint>
          <Trackpoint>
            <Time>2021-08-03T15:00:54Z</Time>
            <Position>
              <LatitudeDegrees>41.083839</LatitudeDegrees>
              <LongitudeDegrees>-1.401800</LongitudeDegrees>
            </Position>
            <AltitudeMeters>772.246</AltitudeMeters>
            <DistanceMeters>544887.95599605</DistanceMeters>
          </Trackpoint>
          <Trackpoint>
            <Time>2021-08-03T15:00:55Z</Time>
            <Position>
              <LatitudeDegrees>41.083799</LatitudeDegrees>
              <LongitudeDegrees>-1.401767</LongitudeDegrees>
            </Position>
            <AltitudeMeters>772.347</AltitudeMeters>
            <DistanceMeters>544893.1979921</DistanceMeters>
          </Trackpoint>
          <Trackpoint>
            <Time>2021-08-03T15:00:57Z</Time>
            <Position>
              <LatitudeDegrees>41.083731</LatitudeDegrees>
              <LongitudeDegrees>-1.401712</LongitudeDegrees>
            </Position>
            <AltitudeMeters>772.783</AltitudeMeters>
            <DistanceMeters>544902.06251269</DistanceMeters>
          </Trackpoint>
          <Trackpoint>
            <Time>2021-08-03T15:00:59Z</Time>
            <Position>
              <LatitudeDegrees>41.083652</LatitudeDegrees>
              <LongitudeDegrees>-1.401650</LongitudeDegrees>
            </Position>
            <AltitudeMeters>772.925</AltitudeMeters>
            <DistanceMeters>544912.27865793</DistanceMeters>
          </Trackpoint>
          <Trackpoint>
            <Time>2021-08-03T15:01:00Z</Time>
            <Position>
              <LatitudeDegrees>41.083611</LatitudeDegrees>
              <LongitudeDegrees>-1.401620</LongitudeDegrees>
            </Position>
            <AltitudeMeters>772.917</AltitudeMeters>
            <DistanceMeters>544917.49042058</DistanceMeters>
          </Trackpoint>
          <Trackpoint>
            <Time>2021-08-03T15:01:02Z</Time>
            <Position>
              <LatitudeDegrees>41.083539</LatitudeDegrees>
              <LongitudeDegrees>-1.401545</LongitudeDegrees>
            </Position>
            <AltitudeMeters>773.108</AltitudeMeters>
            <DistanceMeters>544927.67912799</DistanceMeters>
          </Trackpoint>
          <Trackpoint>
            <Time>2021-08-03T15:01:04Z</Time>
            <Position>
              <LatitudeDegrees>41.083469</LatitudeDegrees>
              <LongitudeDegrees>-1.401469</LongitudeDegrees>
            </Position>
            <AltitudeMeters>773.115</AltitudeMeters>
            <DistanceMeters>544937.74702788</DistanceMeters>
          </Trackpoint>
          <Trackpoint>
            <Time>2021-08-03T15:01:06Z</Time>
            <Position>
              <LatitudeDegrees>41.083395</LatitudeDegrees>
              <LongitudeDegrees>-1.401396</LongitudeDegrees>
            </Position>
            <AltitudeMeters>773.347</AltitudeMeters>
            <DistanceMeters>544948.01167263</DistanceMeters>
          </Trackpoint>
          <Trackpoint>
            <Time>2021-08-03T15:01:08Z</Time>
            <Position>
              <LatitudeDegrees>41.083331</LatitudeDegrees>
              <LongitudeDegrees>-1.401321</LongitudeDegrees>
            </Position>
            <AltitudeMeters>773.247</AltitudeMeters>
            <DistanceMeters>544957.51624441</DistanceMeters>
          </Trackpoint>
          <Trackpoint>
            <Time>2021-08-03T15:01:11Z</Time>
            <Position>
              <LatitudeDegrees>41.083288</LatitudeDegrees>
              <LongitudeDegrees>-1.401279</LongitudeDegrees>
            </Position>
            <AltitudeMeters>773.290</AltitudeMeters>
            <DistanceMeters>544963.45978368</DistanceMeters>
          </Trackpoint>
          <Trackpoint>
            <Time>2021-08-03T15:01:14Z</Time>
            <Position>
              <LatitudeDegrees>41.083229</LatitudeDegrees>
              <LongitudeDegrees>-1.401236</LongitudeDegrees>
            </Position>
            <AltitudeMeters>773.128</AltitudeMeters>
            <DistanceMeters>544970.95184316</DistanceMeters>
          </Trackpoint>
          <Trackpoint>
            <Time>2021-08-03T15:01:16Z</Time>
            <Position>
              <LatitudeDegrees>41.083187</LatitudeDegrees>
              <LongitudeDegrees>-1.401200</LongitudeDegrees>
            </Position>
            <AltitudeMeters>773.113</AltitudeMeters>
            <DistanceMeters>544976.51719689</DistanceMeters>
          </Trackpoint>
          <Trackpoint>
            <Time>2021-08-03T15:01:18Z</Time>
            <Position>
              <LatitudeDegrees>41.083140</LatitudeDegrees>
              <LongitudeDegrees>-1.401170</LongitudeDegrees>
            </Position>
            <AltitudeMeters>773.238</AltitudeMeters>
            <DistanceMeters>544982.32316584</DistanceMeters>
          </Trackpoint>
          <Trackpoint>
            <Time>2021-08-03T15:01:20Z</Time>
            <Position>
              <LatitudeDegrees>41.082924</LatitudeDegrees>
              <LongitudeDegrees>-1.400944</LongitudeDegrees>
            </Position>
            <AltitudeMeters>773.169</AltitudeMeters>
            <DistanceMeters>545012.94138666</DistanceMeters>
          </Trackpoint>
          <Trackpoint>
            <Time>2021-08-03T15:01:22Z</Time>
            <Position>
              <LatitudeDegrees>41.082849</LatitudeDegrees>
              <LongitudeDegrees>-1.400879</LongitudeDegrees>
            </Position>
            <AltitudeMeters>773.354</AltitudeMeters>
            <DistanceMeters>545022.91240173</DistanceMeters>
          </Trackpoint>
          <Trackpoint>
            <Time>2021-08-03T15:01:24Z</Time>
            <Position>
              <LatitudeDegrees>41.082771</LatitudeDegrees>
              <LongitudeDegrees>-1.400813</LongitudeDegrees>
            </Position>
            <AltitudeMeters>773.156</AltitudeMeters>
            <DistanceMeters>545033.20954491</DistanceMeters>
          </Trackpoint>
          <Trackpoint>
            <Time>2021-08-03T15:01:26Z</Time>
            <Position>
              <LatitudeDegrees>41.082726</LatitudeDegrees>
              <LongitudeDegrees>-1.400775</LongitudeDegrees>
            </Position>
            <AltitudeMeters>773.111</AltitudeMeters>
            <DistanceMeters>545039.14700383</DistanceMeters>
          </Trackpoint>
          <Trackpoint>
            <Time>2021-08-03T15:01:28Z</Time>
            <Position>
              <LatitudeDegrees>41.082631</LatitudeDegrees>
              <LongitudeDegrees>-1.400687</LongitudeDegrees>
            </Position>
            <AltitudeMeters>773.308</AltitudeMeters>
            <DistanceMeters>545052.04335789</DistanceMeters>
          </Trackpoint>
          <Trackpoint>
            <Time>2021-08-03T15:01:30Z</Time>
            <Position>
              <LatitudeDegrees>41.082534</LatitudeDegrees>
              <LongitudeDegrees>-1.400595</LongitudeDegrees>
            </Position>
            <AltitudeMeters>773.622</AltitudeMeters>
            <DistanceMeters>545065.31447732</DistanceMeters>
          </Trackpoint>
          <Trackpoint>
            <Time>2021-08-03T15:01:32Z</Time>
            <Position>
              <LatitudeDegrees>41.082450</LatitudeDegrees>
              <LongitudeDegrees>-1.400521</LongitudeDegrees>
            </Position>
            <AltitudeMeters>773.944</AltitudeMeters>
            <DistanceMeters>545076.53688687</DistanceMeters>
          </Trackpoint>
          <Trackpoint>
            <Time>2021-08-03T15:01:34Z</Time>
            <Position>
              <LatitudeDegrees>41.082370</LatitudeDegrees>
              <LongitudeDegrees>-1.400450</LongitudeDegrees>
            </Position>
            <AltitudeMeters>773.944</AltitudeMeters>
            <DistanceMeters>545087.24922609</DistanceMeters>
          </Trackpoint>
          <Trackpoint>
            <Time>2021-08-03T15:01:36Z</Time>
            <Position>
              <LatitudeDegrees>41.082293</LatitudeDegrees>
              <LongitudeDegrees>-1.400376</LongitudeDegrees>
            </Position>
            <AltitudeMeters>773.957</AltitudeMeters>
            <DistanceMeters>545097.83137984</DistanceMeters>
          </Trackpoint>
          <Trackpoint>
            <Time>2021-08-03T15:01:37Z</Time>
            <Position>
              <LatitudeDegrees>41.082256</LatitudeDegrees>
              <LongitudeDegrees>-1.400339</LongitudeDegrees>
            </Position>
            <AltitudeMeters>773.995</AltitudeMeters>
            <DistanceMeters>545102.98740011</DistanceMeters>
          </Trackpoint>
          <Trackpoint>
            <Time>2021-08-03T15:01:39Z</Time>
            <Position>
              <LatitudeDegrees>41.082192</LatitudeDegrees>
              <LongitudeDegrees>-1.400272</LongitudeDegrees>
            </Position>
            <AltitudeMeters>774.040</AltitudeMeters>
            <DistanceMeters>545112.06133184</DistanceMeters>
          </Trackpoint>
          <Trackpoint>
            <Time>2021-08-03T15:01:41Z</Time>
            <Position>
              <LatitudeDegrees>41.082143</LatitudeDegrees>
              <LongitudeDegrees>-1.400206</LongitudeDegrees>
            </Position>
            <AltitudeMeters>773.915</AltitudeMeters>
            <DistanceMeters>545119.8326349</DistanceMeters>
          </Trackpoint>
          <Trackpoint>
            <Time>2021-08-03T15:01:43Z</Time>
            <Position>
              <LatitudeDegrees>41.082082</LatitudeDegrees>
              <LongitudeDegrees>-1.400147</LongitudeDegrees>
            </Position>
            <AltitudeMeters>774.016</AltitudeMeters>
            <DistanceMeters>545128.2343078</DistanceMeters>
          </Trackpoint>
          <Trackpoint>
            <Time>2021-08-03T15:01:44Z</Time>
            <Position>
              <LatitudeDegrees>41.082044</LatitudeDegrees>
              <LongitudeDegrees>-1.400112</LongitudeDegrees>
            </Position>
            <AltitudeMeters>773.954</AltitudeMeters>
            <DistanceMeters>545133.38331784</DistanceMeters>
          </Trackpoint>
          <Trackpoint>
            <Time>2021-08-03T15:01:46Z</Time>
            <Position>
              <LatitudeDegrees>41.081981</LatitudeDegrees>
              <LongitudeDegrees>-1.400044</LongitudeDegrees>
            </Position>
            <AltitudeMeters>773.956</AltitudeMeters>
            <DistanceMeters>545142.42335058</DistanceMeters>
          </Trackpoint>
          <Trackpoint>
            <Time>2021-08-03T15:01:48Z</Time>
            <Position>
              <LatitudeDegrees>41.081915</LatitudeDegrees>
              <LongitudeDegrees>-1.399972</LongitudeDegrees>
            </Position>
            <AltitudeMeters>774.011</AltitudeMeters>
            <DistanceMeters>545151.93362111</DistanceMeters>
          </Trackpoint>
          <Trackpoint>
            <Time>2021-08-03T15:01:50Z</Time>
            <Position>
              <LatitudeDegrees>41.081859</LatitudeDegrees>
              <LongitudeDegrees>-1.399915</LongitudeDegrees>
            </Position>
            <AltitudeMeters>774.008</AltitudeMeters>
            <DistanceMeters>545159.78929056</DistanceMeters>
          </Trackpoint>
          <Trackpoint>
            <Time>2021-08-03T15:01:53Z</Time>
            <Position>
              <LatitudeDegrees>41.081801</LatitudeDegrees>
              <LongitudeDegrees>-1.399848</LongitudeDegrees>
            </Position>
            <AltitudeMeters>774.552</AltitudeMeters>
            <DistanceMeters>545168.34908263</DistanceMeters>
          </Trackpoint>
          <Trackpoint>
            <Time>2021-08-03T15:01:55Z</Time>
            <Position>
              <LatitudeDegrees>41.081680</LatitudeDegrees>
              <LongitudeDegrees>-1.399726</LongitudeDegrees>
            </Position>
            <AltitudeMeters>774.654</AltitudeMeters>
            <DistanceMeters>545185.26463855</DistanceMeters>
          </Trackpoint>
          <Trackpoint>
            <Time>2021-08-03T15:01:57Z</Time>
            <Position>
              <LatitudeDegrees>41.081613</LatitudeDegrees>
              <LongitudeDegrees>-1.399652</LongitudeDegrees>
            </Position>
            <AltitudeMeters>774.714</AltitudeMeters>
            <DistanceMeters>545194.96760599</DistanceMeters>
          </Trackpoint>
          <Trackpoint>
            <Time>2021-08-03T15:01:59Z</Time>
            <Position>
              <LatitudeDegrees>41.081545</LatitudeDegrees>
              <LongitudeDegrees>-1.399571</LongitudeDegrees>
            </Position>
            <AltitudeMeters>774.937</AltitudeMeters>
            <DistanceMeters>545205.1390162</DistanceMeters>
          </Trackpoint>
          <Trackpoint>
            <Time>2021-08-03T15:02:01Z</Time>
            <Position>
              <LatitudeDegrees>41.081477</LatitudeDegrees>
              <LongitudeDegrees>-1.399486</LongitudeDegrees>
            </Position>
            <AltitudeMeters>774.995</AltitudeMeters>
            <DistanceMeters>545215.53782216</DistanceMeters>
          </Trackpoint>
          <Trackpoint>
            <Time>2021-08-03T15:02:02Z</Time>
            <Position>
              <LatitudeDegrees>41.081443</LatitudeDegrees>
              <LongitudeDegrees>-1.399445</LongitudeDegrees>
            </Position>
            <AltitudeMeters>774.970</AltitudeMeters>
            <DistanceMeters>545220.65163692</DistanceMeters>
          </Trackpoint>
          <Trackpoint>
            <Time>2021-08-03T15:02:04Z</Time>
            <Position>
              <LatitudeDegrees>41.081383</LatitudeDegrees>
              <LongitudeDegrees>-1.399367</LongitudeDegrees>
            </Position>
            <AltitudeMeters>774.985</AltitudeMeters>
            <DistanceMeters>545230.00151233</DistanceMeters>
          </Trackpoint>
          <Trackpoint>
            <Time>2021-08-03T15:02:06Z</Time>
            <Position>
              <LatitudeDegrees>41.081324</LatitudeDegrees>
              <LongitudeDegrees>-1.399273</LongitudeDegrees>
            </Position>
            <AltitudeMeters>775.076</AltitudeMeters>
            <DistanceMeters>545240.26351756</DistanceMeters>
          </Trackpoint>
          <Trackpoint>
            <Time>2021-08-03T15:02:08Z</Time>
            <Position>
              <LatitudeDegrees>41.081267</LatitudeDegrees>
              <LongitudeDegrees>-1.399201</LongitudeDegrees>
            </Position>
            <AltitudeMeters>775.454</AltitudeMeters>
            <DistanceMeters>545249.02351697</DistanceMeters>
          </Trackpoint>
          <Trackpoint>
            <Time>2021-08-03T15:02:10Z</Time>
            <Position>
              <LatitudeDegrees>41.081207</LatitudeDegrees>
              <LongitudeDegrees>-1.399135</LongitudeDegrees>
            </Position>
            <AltitudeMeters>775.856</AltitudeMeters>
            <DistanceMeters>545257.69857646</DistanceMeters>
          </Trackpoint>
          <Trackpoint>
            <Time>2021-08-03T15:02:12Z</Time>
            <Position>
              <LatitudeDegrees>41.081151</LatitudeDegrees>
              <LongitudeDegrees>-1.399062</LongitudeDegrees>
            </Position>
            <AltitudeMeters>776.011</AltitudeMeters>
            <DistanceMeters>545266.43741828</DistanceMeters>
          </Trackpoint>
          <Trackpoint>
            <Time>2021-08-03T15:02:14Z</Time>
            <Position>
              <LatitudeDegrees>41.081101</LatitudeDegrees>
              <LongitudeDegrees>-1.399018</LongitudeDegrees>
            </Position>
            <AltitudeMeters>776.108</AltitudeMeters>
            <DistanceMeters>545273.11570755</DistanceMeters>
          </Trackpoint>
          <Trackpoint>
            <Time>2021-08-03T15:02:16Z</Time>
            <Position>
              <LatitudeDegrees>41.081062</LatitudeDegrees>
              <LongitudeDegrees>-1.398966</LongitudeDegrees>
            </Position>
            <AltitudeMeters>776.332</AltitudeMeters>
            <DistanceMeters>545279.27047568</DistanceMeters>
          </Trackpoint>
          <Trackpoint>
            <Time>2021-08-03T15:02:18Z</Time>
            <Position>
              <LatitudeDegrees>41.081002</LatitudeDegrees>
              <LongitudeDegrees>-1.398881</LongitudeDegrees>
            </Position>
            <AltitudeMeters>776.454</AltitudeMeters>
            <DistanceMeters>545289.04114445</DistanceMeters>
          </Trackpoint>
          <Trackpoint>
            <Time>2021-08-03T15:02:20Z</Time>
            <Position>
              <LatitudeDegrees>41.080957</LatitudeDegrees>
              <LongitudeDegrees>-1.398815</LongitudeDegrees>
            </Position>
            <AltitudeMeters>776.434</AltitudeMeters>
            <DistanceMeters>545296.5072453</DistanceMeters>
          </Trackpoint>
          <Trackpoint>
            <Time>2021-08-03T15:02:22Z</Time>
            <Position>
              <LatitudeDegrees>41.080889</LatitudeDegrees>
              <LongitudeDegrees>-1.398736</LongitudeDegrees>
            </Position>
            <AltitudeMeters>776.437</AltitudeMeters>
            <DistanceMeters>545306.56751849</DistanceMeters>
          </Trackpoint>
          <Trackpoint>
            <Time>2021-08-03T15:02:23Z</Time>
            <Position>
              <LatitudeDegrees>41.080837</LatitudeDegrees>
              <LongitudeDegrees>-1.398615</LongitudeDegrees>
            </Position>
            <AltitudeMeters>776.325</AltitudeMeters>
            <DistanceMeters>545318.2534864</DistanceMeters>
          </Trackpoint>
          <Trackpoint>
            <Time>2021-08-03T15:02:25Z</Time>
            <Position>
              <LatitudeDegrees>41.080772</LatitudeDegrees>
              <LongitudeDegrees>-1.398540</LongitudeDegrees>
            </Position>
            <AltitudeMeters>775.910</AltitudeMeters>
            <DistanceMeters>545327.84177135</DistanceMeters>
          </Trackpoint>
          <Trackpoint>
            <Time>2021-08-03T15:02:26Z</Time>
            <Position>
              <LatitudeDegrees>41.080743</LatitudeDegrees>
              <LongitudeDegrees>-1.398493</LongitudeDegrees>
            </Position>
            <AltitudeMeters>776.415</AltitudeMeters>
            <DistanceMeters>545332.93789732</DistanceMeters>
          </Trackpoint>
          <Trackpoint>
            <Time>2021-08-03T15:02:28Z</Time>
            <Position>
              <LatitudeDegrees>41.080688</LatitudeDegrees>
              <LongitudeDegrees>-1.398396</LongitudeDegrees>
            </Position>
            <AltitudeMeters>776.996</AltitudeMeters>
            <DistanceMeters>545343.12128565</DistanceMeters>
          </Trackpoint>
          <Trackpoint>
            <Time>2021-08-03T15:02:30Z</Time>
            <Position>
              <LatitudeDegrees>41.080629</LatitudeDegrees>
              <LongitudeDegrees>-1.398306</LongitudeDegrees>
            </Position>
            <AltitudeMeters>776.898</AltitudeMeters>
            <DistanceMeters>545353.12846046</DistanceMeters>
          </Trackpoint>
          <Trackpoint>
            <Time>2021-08-03T15:02:32Z</Time>
            <Position>
              <LatitudeDegrees>41.080561</LatitudeDegrees>
              <LongitudeDegrees>-1.398220</LongitudeDegrees>
            </Position>
            <AltitudeMeters>776.615</AltitudeMeters>
            <DistanceMeters>545363.58485399</DistanceMeters>
          </Trackpoint>
          <Trackpoint>
            <Time>2021-08-03T15:02:34Z</Time>
            <Position>
              <LatitudeDegrees>41.080501</LatitudeDegrees>
              <LongitudeDegrees>-1.398102</LongitudeDegrees>
            </Position>
            <AltitudeMeters>775.926</AltitudeMeters>
            <DistanceMeters>545375.52650242</DistanceMeters>
          </Trackpoint>
          <Trackpoint>
            <Time>2021-08-03T15:02:36Z</Time>
            <Position>
              <LatitudeDegrees>41.080438</LatitudeDegrees>
              <LongitudeDegrees>-1.398006</LongitudeDegrees>
            </Position>
            <AltitudeMeters>775.808</AltitudeMeters>
            <DistanceMeters>545386.20549279</DistanceMeters>
          </Trackpoint>
          <Trackpoint>
            <Time>2021-08-03T15:02:39Z</Time>
            <Position>
              <LatitudeDegrees>41.080383</LatitudeDegrees>
              <LongitudeDegrees>-1.397925</LongitudeDegrees>
            </Position>
            <AltitudeMeters>776.036</AltitudeMeters>
            <DistanceMeters>545395.3517832</DistanceMeters>
          </Trackpoint>
          <Trackpoint>
            <Time>2021-08-03T15:02:41Z</Time>
            <Position>
              <LatitudeDegrees>41.080305</LatitudeDegrees>
              <LongitudeDegrees>-1.397803</LongitudeDegrees>
            </Position>
            <AltitudeMeters>776.058</AltitudeMeters>
            <DistanceMeters>545408.7731082</DistanceMeters>
          </Trackpoint>
          <Trackpoint>
            <Time>2021-08-03T15:02:43Z</Time>
            <Position>
              <LatitudeDegrees>41.080227</LatitudeDegrees>
              <LongitudeDegrees>-1.397680</LongitudeDegrees>
            </Position>
            <AltitudeMeters>776.288</AltitudeMeters>
            <DistanceMeters>545422.25886883</DistanceMeters>
          </Trackpoint>
          <Trackpoint>
            <Time>2021-08-03T15:02:45Z</Time>
            <Position>
              <LatitudeDegrees>41.080155</LatitudeDegrees>
              <LongitudeDegrees>-1.397566</LongitudeDegrees>
            </Position>
            <AltitudeMeters>776.361</AltitudeMeters>
            <DistanceMeters>545434.73671231</DistanceMeters>
          </Trackpoint>
          <Trackpoint>
            <Time>2021-08-03T15:02:47Z</Time>
            <Position>
              <LatitudeDegrees>41.080091</LatitudeDegrees>
              <LongitudeDegrees>-1.397460</LongitudeDegrees>
            </Position>
            <AltitudeMeters>776.749</AltitudeMeters>
            <DistanceMeters>545446.13120393</DistanceMeters>
          </Trackpoint>
          <Trackpoint>
            <Time>2021-08-03T15:02:48Z</Time>
            <Position>
              <LatitudeDegrees>41.080060</LatitudeDegrees>
              <LongitudeDegrees>-1.397410</LongitudeDegrees>
            </Position>
            <AltitudeMeters>776.994</AltitudeMeters>
            <DistanceMeters>545451.56354134</DistanceMeters>
          </Trackpoint>
          <Trackpoint>
            <Time>2021-08-03T15:02:49Z</Time>
            <Position>
              <LatitudeDegrees>41.080025</LatitudeDegrees>
              <LongitudeDegrees>-1.397356</LongitudeDegrees>
            </Position>
            <AltitudeMeters>776.889</AltitudeMeters>
            <DistanceMeters>545457.53814528</DistanceMeters>
          </Trackpoint>
          <Trackpoint>
            <Time>2021-08-03T15:02:51Z</Time>
            <Position>
              <LatitudeDegrees>41.079949</LatitudeDegrees>
              <LongitudeDegrees>-1.397239</LongitudeDegrees>
            </Position>
            <AltitudeMeters>777.060</AltitudeMeters>
            <DistanceMeters>545470.4963192</DistanceMeters>
          </Trackpoint>
          <Trackpoint>
            <Time>2021-08-03T15:02:53Z</Time>
            <Position>
              <LatitudeDegrees>41.079876</LatitudeDegrees>
              <LongitudeDegrees>-1.397120</LongitudeDegrees>
            </Position>
            <AltitudeMeters>777.198</AltitudeMeters>
            <DistanceMeters>545483.36884431</DistanceMeters>
          </Trackpoint>
          <Trackpoint>
            <Time>2021-08-03T15:02:54Z</Time>
            <Position>
              <LatitudeDegrees>41.079840</LatitudeDegrees>
              <LongitudeDegrees>-1.397059</LongitudeDegrees>
            </Position>
            <AltitudeMeters>777.115</AltitudeMeters>
            <DistanceMeters>545489.86967178</DistanceMeters>
          </Trackpoint>
          <Trackpoint>
            <Time>2021-08-03T15:02:55Z</Time>
            <Position>
              <LatitudeDegrees>41.079799</LatitudeDegrees>
              <LongitudeDegrees>-1.396991</LongitudeDegrees>
            </Position>
            <AltitudeMeters>777.126</AltitudeMeters>
            <DistanceMeters>545497.17561333</DistanceMeters>
          </Trackpoint>
          <Trackpoint>
            <Time>2021-08-03T15:02:57Z</Time>
            <Position>
              <LatitudeDegrees>41.079728</LatitudeDegrees>
              <LongitudeDegrees>-1.396870</LongitudeDegrees>
            </Position>
            <AltitudeMeters>777.108</AltitudeMeters>
            <DistanceMeters>545510.04041962</DistanceMeters>
          </Trackpoint>
          <Trackpoint>
            <Time>2021-08-03T15:02:58Z</Time>
            <Position>
              <LatitudeDegrees>41.079697</LatitudeDegrees>
              <LongitudeDegrees>-1.396811</LongitudeDegrees>
            </Position>
            <AltitudeMeters>777.076</AltitudeMeters>
            <DistanceMeters>545516.07293221</DistanceMeters>
          </Trackpoint>
          <Trackpoint>
            <Time>2021-08-03T15:03:00Z</Time>
            <Position>
              <LatitudeDegrees>41.079634</LatitudeDegrees>
              <LongitudeDegrees>-1.396704</LongitudeDegrees>
            </Position>
            <AltitudeMeters>777.058</AltitudeMeters>
            <DistanceMeters>545527.4642534</DistanceMeters>
          </Trackpoint>
          <Trackpoint>
            <Time>2021-08-03T15:03:01Z</Time>
            <Position>
              <LatitudeDegrees>41.079600</LatitudeDegrees>
              <LongitudeDegrees>-1.396654</LongitudeDegrees>
            </Position>
            <AltitudeMeters>777.098</AltitudeMeters>
            <DistanceMeters>545533.11414899</DistanceMeters>
          </Trackpoint>
          <Trackpoint>
            <Time>2021-08-03T15:03:02Z</Time>
            <Position>
              <LatitudeDegrees>41.079564</LatitudeDegrees>
              <LongitudeDegrees>-1.396602</LongitudeDegrees>
            </Position>
            <AltitudeMeters>777.191</AltitudeMeters>
            <DistanceMeters>545539.03790431</DistanceMeters>
          </Trackpoint>
          <Trackpoint>
            <Time>2021-08-03T15:03:03Z</Time>
            <Position>
              <LatitudeDegrees>41.079533</LatitudeDegrees>
              <LongitudeDegrees>-1.396547</LongitudeDegrees>
            </Position>
            <AltitudeMeters>777.249</AltitudeMeters>
            <DistanceMeters>545544.79937643</DistanceMeters>
          </Trackpoint>
          <Trackpoint>
            <Time>2021-08-03T15:03:05Z</Time>
            <Position>
              <LatitudeDegrees>41.079467</LatitudeDegrees>
              <LongitudeDegrees>-1.396435</LongitudeDegrees>
            </Position>
            <AltitudeMeters>777.374</AltitudeMeters>
            <DistanceMeters>545556.72664872</DistanceMeters>
          </Trackpoint>
          <Trackpoint>
            <Time>2021-08-03T15:03:06Z</Time>
            <Position>
              <LatitudeDegrees>41.079434</LatitudeDegrees>
              <LongitudeDegrees>-1.396381</LongitudeDegrees>
            </Position>
            <AltitudeMeters>777.259</AltitudeMeters>
            <DistanceMeters>545562.5582238</DistanceMeters>
          </Trackpoint>
          <Trackpoint>
            <Time>2021-08-03T15:03:08Z</Time>
            <Position>
              <LatitudeDegrees>41.079369</LatitudeDegrees>
              <LongitudeDegrees>-1.396281</LongitudeDegrees>
            </Position>
            <AltitudeMeters>777.130</AltitudeMeters>
            <DistanceMeters>545573.63607282</DistanceMeters>
          </Trackpoint>
          <Trackpoint>
            <Time>2021-08-03T15:03:09Z</Time>
            <Position>
              <LatitudeDegrees>41.079337</LatitudeDegrees>
              <LongitudeDegrees>-1.396235</LongitudeDegrees>
            </Position>
            <AltitudeMeters>777.115</AltitudeMeters>
            <DistanceMeters>545578.88753485</DistanceMeters>
          </Trackpoint>
          <Trackpoint>
            <Time>2021-08-03T15:03:11Z</Time>
            <Position>
              <LatitudeDegrees>41.079275</LatitudeDegrees>
              <LongitudeDegrees>-1.396138</LongitudeDegrees>
            </Position>
            <AltitudeMeters>777.165</AltitudeMeters>
            <DistanceMeters>545589.55764281</DistanceMeters>
          </Trackpoint>
          <Trackpoint>
            <Time>2021-08-03T15:03:12Z</Time>
            <Position>
              <LatitudeDegrees>41.079244</LatitudeDegrees>
              <LongitudeDegrees>-1.396090</LongitudeDegrees>
            </Position>
            <AltitudeMeters>777.111</AltitudeMeters>
            <DistanceMeters>545594.86129137</DistanceMeters>
          </Trackpoint>
          <Trackpoint>
            <Time>2021-08-03T15:03:14Z</Time>
            <Position>
              <LatitudeDegrees>41.079180</LatitudeDegrees>
              <LongitudeDegrees>-1.395977</LongitudeDegrees>
            </Position>
            <AltitudeMeters>777.108</AltitudeMeters>
            <DistanceMeters>545606.71984864</DistanceMeters>
          </Trackpoint>
          <Trackpoint>
            <Time>2021-08-03T15:03:15Z</Time>
            <Position>
              <LatitudeDegrees>41.079130</LatitudeDegrees>
              <LongitudeDegrees>-1.395912</LongitudeDegrees>
            </Position>
            <AltitudeMeters>777.198</AltitudeMeters>
            <DistanceMeters>545614.51203922</DistanceMeters>
          </Trackpoint>
          <Trackpoint>
            <Time>2021-08-03T15:03:16Z</Time>
            <Position>
              <LatitudeDegrees>41.079092</LatitudeDegrees>
              <LongitudeDegrees>-1.395853</LongitudeDegrees>
            </Position>
            <AltitudeMeters>777.260</AltitudeMeters>
            <DistanceMeters>545621.02258289</DistanceMeters>
          </Trackpoint>
          <Trackpoint>
            <Time>2021-08-03T15:03:18Z</Time>
            <Position>
              <LatitudeDegrees>41.079035</LatitudeDegrees>
              <LongitudeDegrees>-1.395764</LongitudeDegrees>
            </Position>
            <AltitudeMeters>777.210</AltitudeMeters>
            <DistanceMeters>545630.8209385</DistanceMeters>
          </Trackpoint>
          <Trackpoint>
            <Time>2021-08-03T15:03:20Z</Time>
            <Position>
              <LatitudeDegrees>41.078977</LatitudeDegrees>
              <LongitudeDegrees>-1.395675</LongitudeDegrees>
            </Position>
            <AltitudeMeters>777.213</AltitudeMeters>
            <DistanceMeters>545640.69137389</DistanceMeters>
          </Trackpoint>
          <Trackpoint>
            <Time>2021-08-03T15:03:22Z</Time>
            <Position>
              <LatitudeDegrees>41.078921</LatitudeDegrees>
              <LongitudeDegrees>-1.395582</LongitudeDegrees>
            </Position>
            <AltitudeMeters>777.251</AltitudeMeters>
            <DistanceMeters>545650.67777285</DistanceMeters>
          </Trackpoint>
          <Trackpoint>
            <Time>2021-08-03T15:03:24Z</Time>
            <Position>
              <LatitudeDegrees>41.078866</LatitudeDegrees>
              <LongitudeDegrees>-1.395498</LongitudeDegrees>
            </Position>
            <AltitudeMeters>777.376</AltitudeMeters>
            <DistanceMeters>545660.01266641</DistanceMeters>
          </Trackpoint>
          <Trackpoint>
            <Time>2021-08-03T15:03:26Z</Time>
            <Position>
              <LatitudeDegrees>41.078818</LatitudeDegrees>
              <LongitudeDegrees>-1.395425</LongitudeDegrees>
            </Position>
            <AltitudeMeters>777.471</AltitudeMeters>
            <DistanceMeters>545668.13953414</DistanceMeters>
          </Trackpoint>
          <Trackpoint>
            <Time>2021-08-03T15:03:28Z</Time>
            <Position>
              <LatitudeDegrees>41.078771</LatitudeDegrees>
              <LongitudeDegrees>-1.395352</LongitudeDegrees>
            </Position>
            <AltitudeMeters>777.652</AltitudeMeters>
            <DistanceMeters>545676.19385405</DistanceMeters>
          </Trackpoint>
          <Trackpoint>
            <Time>2021-08-03T15:03:30Z</Time>
            <Position>
              <LatitudeDegrees>41.078721</LatitudeDegrees>
              <LongitudeDegrees>-1.395270</LongitudeDegrees>
            </Position>
            <AltitudeMeters>777.614</AltitudeMeters>
            <DistanceMeters>545685.0420608</DistanceMeters>
          </Trackpoint>
          <Trackpoint>
            <Time>2021-08-03T15:03:32Z</Time>
            <Position>
              <LatitudeDegrees>41.078663</LatitudeDegrees>
              <LongitudeDegrees>-1.395182</LongitudeDegrees>
            </Position>
            <AltitudeMeters>777.754</AltitudeMeters>
            <DistanceMeters>545694.84962799</DistanceMeters>
          </Trackpoint>
          <Trackpoint>
            <Time>2021-08-03T15:03:33Z</Time>
            <Position>
              <LatitudeDegrees>41.078633</LatitudeDegrees>
              <LongitudeDegrees>-1.395133</LongitudeDegrees>
            </Position>
            <AltitudeMeters>777.909</AltitudeMeters>
            <DistanceMeters>545700.14560925</DistanceMeters>
          </Trackpoint>
          <Trackpoint>
            <Time>2021-08-03T15:03:35Z</Time>
            <Position>
              <LatitudeDegrees>41.078570</LatitudeDegrees>
              <LongitudeDegrees>-1.395030</LongitudeDegrees>
            </Position>
            <AltitudeMeters>778.008</AltitudeMeters>
            <DistanceMeters>545711.27388262</DistanceMeters>
          </Trackpoint>
          <Trackpoint>
            <Time>2021-08-03T15:03:36Z</Time>
            <Position>
              <LatitudeDegrees>41.078535</LatitudeDegrees>
              <LongitudeDegrees>-1.394979</LongitudeDegrees>
            </Position>
            <AltitudeMeters>778.038</AltitudeMeters>
            <DistanceMeters>545717.06037754</DistanceMeters>
          </Trackpoint>
          <Trackpoint>
            <Time>2021-08-03T15:03:38Z</Time>
            <Position>
              <LatitudeDegrees>41.078467</LatitudeDegrees>
              <LongitudeDegrees>-1.394871</LongitudeDegrees>
            </Position>
            <AltitudeMeters>778.120</AltitudeMeters>
            <DistanceMeters>545728.86665808</DistanceMeters>
          </Trackpoint>
          <Trackpoint>
            <Time>2021-08-03T15:03:40Z</Time>
            <Position>
              <LatitudeDegrees>41.078394</LatitudeDegrees>
              <LongitudeDegrees>-1.394767</LongitudeDegrees>
            </Position>
            <AltitudeMeters>778.150</AltitudeMeters>
            <DistanceMeters>545740.78976562</DistanceMeters>
          </Trackpoint>
          <Trackpoint>
            <Time>2021-08-03T15:03:41Z</Time>
            <Position>
              <LatitudeDegrees>41.078356</LatitudeDegrees>
              <LongitudeDegrees>-1.394701</LongitudeDegrees>
            </Position>
            <AltitudeMeters>778.193</AltitudeMeters>
            <DistanceMeters>545747.75853532</DistanceMeters>
          </Trackpoint>
          <Trackpoint>
            <Time>2021-08-03T15:03:42Z</Time>
            <Position>
              <LatitudeDegrees>41.078313</LatitudeDegrees>
              <LongitudeDegrees>-1.394625</LongitudeDegrees>
            </Position>
            <AltitudeMeters>778.261</AltitudeMeters>
            <DistanceMeters>545755.73172402</DistanceMeters>
          </Trackpoint>
          <Trackpoint>
            <Time>2021-08-03T15:03:44Z</Time>
            <Position>
              <LatitudeDegrees>41.078228</LatitudeDegrees>
              <LongitudeDegrees>-1.394487</LongitudeDegrees>
            </Position>
            <AltitudeMeters>778.336</AltitudeMeters>
            <DistanceMeters>545770.68386877</DistanceMeters>
          </Trackpoint>
          <Trackpoint>
            <Time>2021-08-03T15:03:45Z</Time>
            <Position>
              <LatitudeDegrees>41.078191</LatitudeDegrees>
              <LongitudeDegrees>-1.394420</LongitudeDegrees>
            </Position>
            <AltitudeMeters>778.311</AltitudeMeters>
            <DistanceMeters>545777.65263847</DistanceMeters>
          </Trackpoint>
          <Trackpoint>
            <Time>2021-08-03T15:03:46Z</Time>
            <Position>
              <LatitudeDegrees>41.078152</LatitudeDegrees>
              <LongitudeDegrees>-1.394362</LongitudeDegrees>
            </Position>
            <AltitudeMeters>778.332</AltitudeMeters>
            <DistanceMeters>545784.17357629</DistanceMeters>
          </Trackpoint>
          <Trackpoint>
            <Time>2021-08-03T15:03:48Z</Time>
            <Position>
              <LatitudeDegrees>41.078079</LatitudeDegrees>
              <LongitudeDegrees>-1.394254</LongitudeDegrees>
            </Position>
            <AltitudeMeters>778.352</AltitudeMeters>
            <DistanceMeters>545796.34441742</DistanceMeters>
          </Trackpoint>
          <Trackpoint>
            <Time>2021-08-03T15:03:50Z</Time>
            <Position>
              <LatitudeDegrees>41.078034</LatitudeDegrees>
              <LongitudeDegrees>-1.394189</LongitudeDegrees>
            </Position>
            <AltitudeMeters>778.453</AltitudeMeters>
            <DistanceMeters>545803.74979751</DistanceMeters>
          </Trackpoint>
          <Trackpoint>
            <Time>2021-08-03T15:03:52Z</Time>
            <Position>
              <LatitudeDegrees>41.077966</LatitudeDegrees>
              <LongitudeDegrees>-1.394092</LongitudeDegrees>
            </Position>
            <AltitudeMeters>778.508</AltitudeMeters>
            <DistanceMeters>545814.86345513</DistanceMeters>
          </Trackpoint>
          <Trackpoint>
            <Time>2021-08-03T15:03:53Z</Time>
            <Position>
              <LatitudeDegrees>41.077975</LatitudeDegrees>
              <LongitudeDegrees>-1.394158</LongitudeDegrees>
            </Position>
            <AltitudeMeters>778.508</AltitudeMeters>
            <DistanceMeters>545820.49012803</DistanceMeters>
          </Trackpoint>
          <Trackpoint>
            <Time>2021-08-03T15:03:55Z</Time>
            <Position>
              <LatitudeDegrees>41.077950</LatitudeDegrees>
              <LongitudeDegrees>-1.394100</LongitudeDegrees>
            </Position>
            <AltitudeMeters>778.582</AltitudeMeters>
            <DistanceMeters>545826.09509333</DistanceMeters>
          </Trackpoint>
          <Trackpoint>
            <Time>2021-08-03T15:03:57Z</Time>
            <Position>
              <LatitudeDegrees>41.077891</LatitudeDegrees>
              <LongitudeDegrees>-1.394010</LongitudeDegrees>
            </Position>
            <AltitudeMeters>778.334</AltitudeMeters>
            <DistanceMeters>545836.10226814</DistanceMeters>
          </Trackpoint>
          <Trackpoint>
            <Time>2021-08-03T15:03:59Z</Time>
            <Position>
              <LatitudeDegrees>41.077834</LatitudeDegrees>
              <LongitudeDegrees>-1.393917</LongitudeDegrees>
            </Position>
            <AltitudeMeters>777.984</AltitudeMeters>
            <DistanceMeters>545846.15895031</DistanceMeters>
          </Trackpoint>
          <Trackpoint>
            <Time>2021-08-03T15:04:00Z</Time>
            <Position>
              <LatitudeDegrees>41.077806</LatitudeDegrees>
              <LongitudeDegrees>-1.393868</LongitudeDegrees>
            </Position>
            <AltitudeMeters>777.947</AltitudeMeters>
            <DistanceMeters>545851.31847212</DistanceMeters>
          </Trackpoint>
          <Trackpoint>
            <Time>2021-08-03T15:04:01Z</Time>
            <Position>
              <LatitudeDegrees>41.077775</LatitudeDegrees>
              <LongitudeDegrees>-1.393824</LongitudeDegrees>
            </Position>
            <AltitudeMeters>777.875</AltitudeMeters>
            <DistanceMeters>545856.37010513</DistanceMeters>
          </Trackpoint>
          <Trackpoint>
            <Time>2021-08-03T15:04:03Z</Time>
            <Position>
              <LatitudeDegrees>41.077718</LatitudeDegrees>
              <LongitudeDegrees>-1.393730</LongitudeDegrees>
            </Position>
            <AltitudeMeters>777.940</AltitudeMeters>
            <DistanceMeters>545866.49167701</DistanceMeters>
          </Trackpoint>
          <Trackpoint>
            <Time>2021-08-03T15:04:05Z</Time>
            <Position>
              <LatitudeDegrees>41.077656</LatitudeDegrees>
              <LongitudeDegrees>-1.393631</LongitudeDegrees>
            </Position>
            <AltitudeMeters>778.025</AltitudeMeters>
            <DistanceMeters>545877.29049209</DistanceMeters>
          </Trackpoint>
          <Trackpoint>
            <Time>2021-08-03T15:04:07Z</Time>
            <Position>
              <LatitudeDegrees>41.077592</LatitudeDegrees>
              <LongitudeDegrees>-1.393546</LongitudeDegrees>
            </Position>
            <AltitudeMeters>778.326</AltitudeMeters>
            <DistanceMeters>545887.37049309</DistanceMeters>
          </Trackpoint>
          <Trackpoint>
            <Time>2021-08-03T15:04:08Z</Time>
            <Position>
              <LatitudeDegrees>41.077564</LatitudeDegrees>
              <LongitudeDegrees>-1.393494</LongitudeDegrees>
            </Position>
            <AltitudeMeters>778.342</AltitudeMeters>
            <DistanceMeters>545892.73256017</DistanceMeters>
          </Trackpoint>
          <Trackpoint>
            <Time>2021-08-03T15:04:10Z</Time>
            <Position>
              <LatitudeDegrees>41.077510</LatitudeDegrees>
              <LongitudeDegrees>-1.393416</LongitudeDegrees>
            </Position>
            <AltitudeMeters>778.622</AltitudeMeters>
            <DistanceMeters>545901.61793908</DistanceMeters>
          </Trackpoint>
          <Trackpoint>
            <Time>2021-08-03T15:04:11Z</Time>
            <Position>
              <LatitudeDegrees>41.077476</LatitudeDegrees>
              <LongitudeDegrees>-1.393368</LongitudeDegrees>
            </Position>
            <AltitudeMeters>778.714</AltitudeMeters>
            <DistanceMeters>545907.14421437</DistanceMeters>
          </Trackpoint>
          <Trackpoint>
            <Time>2021-08-03T15:04:13Z</Time>
            <Position>
              <LatitudeDegrees>41.077431</LatitudeDegrees>
              <LongitudeDegrees>-1.393321</LongitudeDegrees>
            </Position>
            <AltitudeMeters>779.008</AltitudeMeters>
            <DistanceMeters>545913.5195084</DistanceMeters>
          </Trackpoint>
          <Trackpoint>
            <Time>2021-08-03T15:04:15Z</Time>
            <Position>
              <LatitudeDegrees>41.077371</LatitudeDegrees>
              <LongitudeDegrees>-1.393263</LongitudeDegrees>
            </Position>
            <AltitudeMeters>779.091</AltitudeMeters>
            <DistanceMeters>545921.78300876</DistanceMeters>
          </Trackpoint>
          <Trackpoint>
            <Time>2021-08-03T15:04:17Z</Time>
            <Position>
              <LatitudeDegrees>41.077272</LatitudeDegrees>
              <LongitudeDegrees>-1.393120</LongitudeDegrees>
            </Position>
            <AltitudeMeters>779.173</AltitudeMeters>
            <DistanceMeters>545938.07309336</DistanceMeters>
          </Trackpoint>
          <Trackpoint>
            <Time>2021-08-03T15:04:18Z</Time>
            <Position>
              <LatitudeDegrees>41.077230</LatitudeDegrees>
              <LongitudeDegrees>-1.393049</LongitudeDegrees>
            </Position>
            <AltitudeMeters>779.463</AltitudeMeters>
            <DistanceMeters>545945.64547644</DistanceMeters>
          </Trackpoint>
          <Trackpoint>
            <Time>2021-08-03T15:04:19Z</Time>
            <Position>
              <LatitudeDegrees>41.077183</LatitudeDegrees>
              <LongitudeDegrees>-1.392976</LongitudeDegrees>
            </Position>
            <AltitudeMeters>779.546</AltitudeMeters>
            <DistanceMeters>545953.69979634</DistanceMeters>
          </Trackpoint>
          <Trackpoint>
            <Time>2021-08-03T15:04:21Z</Time>
            <Position>
              <LatitudeDegrees>41.077108</LatitudeDegrees>
              <LongitudeDegrees>-1.392842</LongitudeDegrees>
            </Position>
            <AltitudeMeters>779.364</AltitudeMeters>
            <DistanceMeters>545967.70262034</DistanceMeters>
          </Trackpoint>
          <Trackpoint>
            <Time>2021-08-03T15:04:22Z</Time>
            <Position>
              <LatitudeDegrees>41.077078</LatitudeDegrees>
              <LongitudeDegrees>-1.392784</LongitudeDegrees>
            </Position>
            <AltitudeMeters>779.189</AltitudeMeters>
            <DistanceMeters>545973.6034656</DistanceMeters>
          </Trackpoint>
          <Trackpoint>
            <Time>2021-08-03T15:04:24Z</Time>
            <Position>
              <LatitudeDegrees>41.077014</LatitudeDegrees>
              <LongitudeDegrees>-1.392672</LongitudeDegrees>
            </Position>
            <AltitudeMeters>779.084</AltitudeMeters>
            <DistanceMeters>545985.39520496</DistanceMeters>
          </Trackpoint>
          <Trackpoint>
            <Time>2021-08-03T15:04:25Z</Time>
            <Position>
              <LatitudeDegrees>41.076982</LatitudeDegrees>
              <LongitudeDegrees>-1.392618</LongitudeDegrees>
            </Position>
            <AltitudeMeters>779.035</AltitudeMeters>
            <DistanceMeters>545991.15824419</DistanceMeters>
          </Trackpoint>
          <Trackpoint>
            <Time>2021-08-03T15:04:27Z</Time>
            <Position>
              <LatitudeDegrees>41.076918</LatitudeDegrees>
              <LongitudeDegrees>-1.392515</LongitudeDegrees>
            </Position>
            <AltitudeMeters>779.067</AltitudeMeters>
            <DistanceMeters>546002.35769783</DistanceMeters>
          </Trackpoint>
          <Trackpoint>
            <Time>2021-08-03T15:04:29Z</Time>
            <Position>
              <LatitudeDegrees>41.076872</LatitudeDegrees>
              <LongitudeDegrees>-1.392439</LongitudeDegrees>
            </Position>
            <AltitudeMeters>779.181</AltitudeMeters>
            <DistanceMeters>546010.5355182</DistanceMeters>
          </Trackpoint>
          <Trackpoint>
            <Time>2021-08-03T15:04:31Z</Time>
            <Position>
              <LatitudeDegrees>41.076815</LatitudeDegrees>
              <LongitudeDegrees>-1.392349</LongitudeDegrees>
            </Position>
            <AltitudeMeters>779.219</AltitudeMeters>
            <DistanceMeters>546020.39771641</DistanceMeters>
          </Trackpoint>
          <Trackpoint>
            <Time>2021-08-03T15:04:32Z</Time>
            <Position>
              <LatitudeDegrees>41.076783</LatitudeDegrees>
              <LongitudeDegrees>-1.392296</LongitudeDegrees>
            </Position>
            <AltitudeMeters>779.208</AltitudeMeters>
            <DistanceMeters>546026.09456595</DistanceMeters>
          </Trackpoint>
          <Trackpoint>
            <Time>2021-08-03T15:04:34Z</Time>
            <Position>
              <LatitudeDegrees>41.076742</LatitudeDegrees>
              <LongitudeDegrees>-1.392225</LongitudeDegrees>
            </Position>
            <AltitudeMeters>779.233</AltitudeMeters>
            <DistanceMeters>546033.59866861</DistanceMeters>
          </Trackpoint>
          <Trackpoint>
            <Time>2021-08-03T15:04:36Z</Time>
            <Position>
              <LatitudeDegrees>41.076700</LatitudeDegrees>
              <LongitudeDegrees>-1.392152</LongitudeDegrees>
            </Position>
            <AltitudeMeters>779.175</AltitudeMeters>
            <DistanceMeters>546041.30462622</DistanceMeters>
          </Trackpoint>
          <Trackpoint>
            <Time>2021-08-03T15:04:38Z</Time>
            <Position>
              <LatitudeDegrees>41.076646</LatitudeDegrees>
              <LongitudeDegrees>-1.392075</LongitudeDegrees>
            </Position>
            <AltitudeMeters>779.135</AltitudeMeters>
            <DistanceMeters>546050.12830567</DistanceMeters>
          </Trackpoint>
          <Trackpoint>
            <Time>2021-08-03T15:04:40Z</Time>
            <Position>
              <LatitudeDegrees>41.076605</LatitudeDegrees>
              <LongitudeDegrees>-1.392017</LongitudeDegrees>
            </Position>
            <AltitudeMeters>779.348</AltitudeMeters>
            <DistanceMeters>546056.80050747</DistanceMeters>
          </Trackpoint>
          <Trackpoint>
            <Time>2021-08-03T15:04:42Z</Time>
            <Position>
              <LatitudeDegrees>41.076567</LatitudeDegrees>
              <LongitudeDegrees>-1.391966</LongitudeDegrees>
            </Position>
            <AltitudeMeters>779.556</AltitudeMeters>
            <DistanceMeters>546062.81803243</DistanceMeters>
          </Trackpoint>
          <Trackpoint>
            <Time>2021-08-03T15:04:44Z</Time>
            <Position>
              <LatitudeDegrees>41.076526</LatitudeDegrees>
              <LongitudeDegrees>-1.391909</LongitudeDegrees>
            </Position>
            <AltitudeMeters>779.651</AltitudeMeters>
            <DistanceMeters>546069.42905126</DistanceMeters>
          </Trackpoint>
          <Trackpoint>
            <Time>2021-08-03T15:04:46Z</Time>
            <Position>
              <LatitudeDegrees>41.076485</LatitudeDegrees>
              <LongitudeDegrees>-1.391848</LongitudeDegrees>
            </Position>
            <AltitudeMeters>779.626</AltitudeMeters>
            <DistanceMeters>546076.28613577</DistanceMeters>
          </Trackpoint>
          <Trackpoint>
            <Time>2021-08-03T15:04:48Z</Time>
            <Position>
              <LatitudeDegrees>41.076443</LatitudeDegrees>
              <LongitudeDegrees>-1.391795</LongitudeDegrees>
            </Position>
            <AltitudeMeters>779.817</AltitudeMeters>
            <DistanceMeters>546082.73816277</DistanceMeters>
          </Trackpoint>
          <Trackpoint>
            <Time>2021-08-03T15:04:50Z</Time>
            <Position>
              <LatitudeDegrees>41.076398</LatitudeDegrees>
              <LongitudeDegrees>-1.391748</LongitudeDegrees>
            </Position>
            <AltitudeMeters>779.978</AltitudeMeters>
            <DistanceMeters>546089.11274856</DistanceMeters>
          </Trackpoint>
          <Trackpoint>
            <Time>2021-08-03T15:04:52Z</Time>
            <Position>
              <LatitudeDegrees>41.076354</LatitudeDegrees>
              <LongitudeDegrees>-1.391696</LongitudeDegrees>
            </Position>
            <AltitudeMeters>780.033</AltitudeMeters>
            <DistanceMeters>546095.67165733</DistanceMeters>
          </Trackpoint>
          <Trackpoint>
            <Time>2021-08-03T15:04:55Z</Time>
            <Position>
              <LatitudeDegrees>41.076297</LatitudeDegrees>
              <LongitudeDegrees>-1.391632</LongitudeDegrees>
            </Position>
            <AltitudeMeters>780.026</AltitudeMeters>
            <DistanceMeters>546103.98418672</DistanceMeters>
          </Trackpoint>
          <Trackpoint>
            <Time>2021-08-03T15:04:57Z</Time>
            <Position>
              <LatitudeDegrees>41.076230</LatitudeDegrees>
              <LongitudeDegrees>-1.391564</LongitudeDegrees>
            </Position>
            <AltitudeMeters>780.008</AltitudeMeters>
            <DistanceMeters>546113.37405714</DistanceMeters>
          </Trackpoint>
          <Trackpoint>
            <Time>2021-08-03T15:04:59Z</Time>
            <Position>
              <LatitudeDegrees>41.076160</LatitudeDegrees>
              <LongitudeDegrees>-1.391489</LongitudeDegrees>
            </Position>
            <AltitudeMeters>779.854</AltitudeMeters>
            <DistanceMeters>546123.38889907</DistanceMeters>
          </Trackpoint>
          <Trackpoint>
            <Time>2021-08-03T15:05:01Z</Time>
            <Position>
              <LatitudeDegrees>41.076087</LatitudeDegrees>
              <LongitudeDegrees>-1.391411</LongitudeDegrees>
            </Position>
            <AltitudeMeters>779.786</AltitudeMeters>
            <DistanceMeters>546133.82194951</DistanceMeters>
          </Trackpoint>
          <Trackpoint>
            <Time>2021-08-03T15:05:03Z</Time>
            <Position>
              <LatitudeDegrees>41.076030</LatitudeDegrees>
              <LongitudeDegrees>-1.391355</LongitudeDegrees>
            </Position>
            <AltitudeMeters>779.526</AltitudeMeters>
            <DistanceMeters>546141.71660515</DistanceMeters>
          </Trackpoint>
          <Trackpoint>
            <Time>2021-08-03T15:05:05Z</Time>
            <Position>
              <LatitudeDegrees>41.075971</LatitudeDegrees>
              <LongitudeDegrees>-1.391300</LongitudeDegrees>
            </Position>
            <AltitudeMeters>779.239</AltitudeMeters>
            <DistanceMeters>546149.74284744</DistanceMeters>
          </Trackpoint>
          <Trackpoint>
            <Time>2021-08-03T15:05:07Z</Time>
            <Position>
              <LatitudeDegrees>41.075901</LatitudeDegrees>
              <LongitudeDegrees>-1.391238</LongitudeDegrees>
            </Position>
            <AltitudeMeters>779.287</AltitudeMeters>
            <DistanceMeters>546159.11153695</DistanceMeters>
          </Trackpoint>
          <Trackpoint>
            <Time>2021-08-03T15:05:09Z</Time>
            <Position>
              <LatitudeDegrees>41.075825</LatitudeDegrees>
              <LongitudeDegrees>-1.391170</LongitudeDegrees>
            </Position>
            <AltitudeMeters>779.582</AltitudeMeters>
            <DistanceMeters>546169.31441503</DistanceMeters>
          </Trackpoint>
          <Trackpoint>
            <Time>2021-08-03T15:05:10Z</Time>
            <Position>
              <LatitudeDegrees>41.075787</LatitudeDegrees>
              <LongitudeDegrees>-1.391135</LongitudeDegrees>
            </Position>
            <AltitudeMeters>779.517</AltitudeMeters>
            <DistanceMeters>546174.46342508</DistanceMeters>
          </Trackpoint>
          <Trackpoint>
            <Time>2021-08-03T15:05:11Z</Time>
            <Position>
              <LatitudeDegrees>41.075746</LatitudeDegrees>
              <LongitudeDegrees>-1.391098</LongitudeDegrees>
            </Position>
            <AltitudeMeters>779.598</AltitudeMeters>
            <DistanceMeters>546179.98234235</DistanceMeters>
          </Trackpoint>
          <Trackpoint>
            <Time>2021-08-03T15:05:12Z</Time>
            <Position>
              <LatitudeDegrees>41.075705</LatitudeDegrees>
              <LongitudeDegrees>-1.391063</LongitudeDegrees>
            </Position>
            <AltitudeMeters>779.557</AltitudeMeters>
            <DistanceMeters>546185.40802657</DistanceMeters>
          </Trackpoint>
          <Trackpoint>
            <Time>2021-08-03T15:05:13Z</Time>
            <Position>
              <LatitudeDegrees>41.075663</LatitudeDegrees>
              <LongitudeDegrees>-1.391029</LongitudeDegrees>
            </Position>
            <AltitudeMeters>779.500</AltitudeMeters>
            <DistanceMeters>546190.88341274</DistanceMeters>
          </Trackpoint>
          <Trackpoint>
            <Time>2021-08-03T15:05:15Z</Time>
            <Position>
              <LatitudeDegrees>41.075581</LatitudeDegrees>
              <LongitudeDegrees>-1.390961</LongitudeDegrees>
            </Position>
            <AltitudeMeters>779.620</AltitudeMeters>
            <DistanceMeters>546201.64704971</DistanceMeters>
          </Trackpoint>
          <Trackpoint>
            <Time>2021-08-03T15:05:17Z</Time>
            <Position>
              <LatitudeDegrees>41.075497</LatitudeDegrees>
              <LongitudeDegrees>-1.390892</LongitudeDegrees>
            </Position>
            <AltitudeMeters>779.708</AltitudeMeters>
            <DistanceMeters>546212.64349248</DistanceMeters>
          </Trackpoint>
          <Trackpoint>
            <Time>2021-08-03T15:05:19Z</Time>
            <Position>
              <LatitudeDegrees>41.075426</LatitudeDegrees>
              <LongitudeDegrees>-1.390835</LongitudeDegrees>
            </Position>
            <AltitudeMeters>779.962</AltitudeMeters>
            <DistanceMeters>546221.88016733</DistanceMeters>
          </Trackpoint>
          <Trackpoint>
            <Time>2021-08-03T15:05:21Z</Time>
            <Position>
              <LatitudeDegrees>41.075341</LatitudeDegrees>
              <LongitudeDegrees>-1.390769</LongitudeDegrees>
            </Position>
            <AltitudeMeters>780.124</AltitudeMeters>
            <DistanceMeters>546232.8424781</DistanceMeters>
          </Trackpoint>
          <Trackpoint>
            <Time>2021-08-03T15:05:23Z</Time>
            <Position>
              <LatitudeDegrees>41.075258</LatitudeDegrees>
              <LongitudeDegrees>-1.390715</LongitudeDegrees>
            </Position>
            <AltitudeMeters>780.144</AltitudeMeters>
            <DistanceMeters>546243.1317257</DistanceMeters>
          </Trackpoint>
          <Trackpoint>
            <Time>2021-08-03T15:05:24Z</Time>
            <Position>
              <LatitudeDegrees>41.075219</LatitudeDegrees>
              <LongitudeDegrees>-1.390682</LongitudeDegrees>
            </Position>
            <AltitudeMeters>780.137</AltitudeMeters>
            <DistanceMeters>546248.27985879</DistanceMeters>
          </Trackpoint>
          <Trackpoint>
            <Time>2021-08-03T15:05:25Z</Time>
            <Position>
              <LatitudeDegrees>41.075179</LatitudeDegrees>
              <LongitudeDegrees>-1.390651</LongitudeDegrees>
            </Position>
            <AltitudeMeters>780.075</AltitudeMeters>
            <DistanceMeters>546253.43587907</DistanceMeters>
          </Trackpoint>
          <Trackpoint>
            <Time>2021-08-03T15:05:26Z</Time>
            <Position>
              <LatitudeDegrees>41.075137</LatitudeDegrees>
              <LongitudeDegrees>-1.390618</LongitudeDegrees>
            </Position>
            <AltitudeMeters>780.040</AltitudeMeters>
            <DistanceMeters>546258.86904756</DistanceMeters>
          </Trackpoint>
          <Trackpoint>
            <Time>2021-08-03T15:05:28Z</Time>
            <Position>
              <LatitudeDegrees>41.075063</LatitudeDegrees>
              <LongitudeDegrees>-1.390555</LongitudeDegrees>
            </Position>
            <AltitudeMeters>780.165</AltitudeMeters>
            <DistanceMeters>546268.65541516</DistanceMeters>
          </Trackpoint>
          <Trackpoint>
            <Time>2021-08-03T15:05:30Z</Time>
            <Position>
              <LatitudeDegrees>41.074991</LatitudeDegrees>
              <LongitudeDegrees>-1.390502</LongitudeDegrees>
            </Position>
            <AltitudeMeters>780.296</AltitudeMeters>
            <DistanceMeters>546277.82044495</DistanceMeters>
          </Trackpoint>
          <Trackpoint>
            <Time>2021-08-03T15:05:32Z</Time>
            <Position>
              <LatitudeDegrees>41.074912</LatitudeDegrees>
              <LongitudeDegrees>-1.390445</LongitudeDegrees>
            </Position>
            <AltitudeMeters>780.229</AltitudeMeters>
            <DistanceMeters>546287.82987541</DistanceMeters>
          </Trackpoint>
          <Trackpoint>
            <Time>2021-08-03T15:05:33Z</Time>
            <Position>
              <LatitudeDegrees>41.074873</LatitudeDegrees>
              <LongitudeDegrees>-1.390414</LongitudeDegrees>
            </Position>
            <AltitudeMeters>780.100</AltitudeMeters>
            <DistanceMeters>546292.88954603</DistanceMeters>
          </Trackpoint>
          <Trackpoint>
            <Time>2021-08-03T15:05:34Z</Time>
            <Position>
              <LatitudeDegrees>41.074833</LatitudeDegrees>
              <LongitudeDegrees>-1.390376</LongitudeDegrees>
            </Position>
            <AltitudeMeters>780.120</AltitudeMeters>
            <DistanceMeters>546298.36575675</DistanceMeters>
          </Trackpoint>
          <Trackpoint>
            <Time>2021-08-03T15:05:36Z</Time>
            <Position>
              <LatitudeDegrees>41.074765</LatitudeDegrees>
              <LongitudeDegrees>-1.390339</LongitudeDegrees>
            </Position>
            <AltitudeMeters>780.108</AltitudeMeters>
            <DistanceMeters>546306.54578526</DistanceMeters>
          </Trackpoint>
          <Trackpoint>
            <Time>2021-08-03T15:05:38Z</Time>
            <Position>
              <LatitudeDegrees>41.074709</LatitudeDegrees>
              <LongitudeDegrees>-1.390301</LongitudeDegrees>
            </Position>
            <AltitudeMeters>780.139</AltitudeMeters>
            <DistanceMeters>546313.54687481</DistanceMeters>
          </Trackpoint>
          <Trackpoint>
            <Time>2021-08-03T15:05:40Z</Time>
            <Position>
              <LatitudeDegrees>41.074618</LatitudeDegrees>
              <LongitudeDegrees>-1.390225</LongitudeDegrees>
            </Position>
            <AltitudeMeters>780.161</AltitudeMeters>
            <DistanceMeters>546325.51571489</DistanceMeters>
          </Trackpoint>
          <Trackpoint>
            <Time>2021-08-03T15:05:42Z</Time>
            <Position>
              <LatitudeDegrees>41.074524</LatitudeDegrees>
              <LongitudeDegrees>-1.390149</LongitudeDegrees>
            </Position>
            <AltitudeMeters>780.261</AltitudeMeters>
            <DistanceMeters>546337.76863499</DistanceMeters>
          </Trackpoint>
          <Trackpoint>
            <Time>2021-08-03T15:05:44Z</Time>
            <Position>
              <LatitudeDegrees>41.074439</LatitudeDegrees>
              <LongitudeDegrees>-1.390085</LongitudeDegrees>
            </Position>
            <AltitudeMeters>780.434</AltitudeMeters>
            <DistanceMeters>546348.64659995</DistanceMeters>
          </Trackpoint>
          <Trackpoint>
            <Time>2021-08-03T15:05:46Z</Time>
            <Position>
              <LatitudeDegrees>41.074368</LatitudeDegrees>
              <LongitudeDegrees>-1.390028</LongitudeDegrees>
            </Position>
            <AltitudeMeters>780.382</AltitudeMeters>
            <DistanceMeters>546357.8837636</DistanceMeters>
          </Trackpoint>
          <Trackpoint>
            <Time>2021-08-03T15:05:48Z</Time>
            <Position>
              <LatitudeDegrees>41.074296</LatitudeDegrees>
              <LongitudeDegrees>-1.389968</LongitudeDegrees>
            </Position>
            <AltitudeMeters>780.287</AltitudeMeters>
            <DistanceMeters>546367.34787097</DistanceMeters>
          </Trackpoint>
          <Trackpoint>
            <Time>2021-08-03T15:05:50Z</Time>
            <Position>
              <LatitudeDegrees>41.074212</LatitudeDegrees>
              <LongitudeDegrees>-1.389907</LongitudeDegrees>
            </Position>
            <AltitudeMeters>780.332</AltitudeMeters>
            <DistanceMeters>546378.00697139</DistanceMeters>
          </Trackpoint>
          <Trackpoint>
            <Time>2021-08-03T15:05:52Z</Time>
            <Position>
              <LatitudeDegrees>41.074138</LatitudeDegrees>
              <LongitudeDegrees>-1.389854</LongitudeDegrees>
            </Position>
            <AltitudeMeters>780.783</AltitudeMeters>
            <DistanceMeters>546387.36698216</DistanceMeters>
          </Trackpoint>
          <Trackpoint>
            <Time>2021-08-03T15:05:54Z</Time>
            <Position>
              <LatitudeDegrees>41.074100</LatitudeDegrees>
              <LongitudeDegrees>-1.389820</LongitudeDegrees>
            </Position>
            <AltitudeMeters>781.059</AltitudeMeters>
            <DistanceMeters>546392.4684212</DistanceMeters>
          </Trackpoint>
          <Trackpoint>
            <Time>2021-08-03T15:05:56Z</Time>
            <Position>
              <LatitudeDegrees>41.074042</LatitudeDegrees>
              <LongitudeDegrees>-1.389789</LongitudeDegrees>
            </Position>
            <AltitudeMeters>780.903</AltitudeMeters>
            <DistanceMeters>546399.42811445</DistanceMeters>
          </Trackpoint>
          <Trackpoint>
            <Time>2021-08-03T15:05:58Z</Time>
            <Position>
              <LatitudeDegrees>41.073942</LatitudeDegrees>
              <LongitudeDegrees>-1.389720</LongitudeDegrees>
            </Position>
            <AltitudeMeters>780.623</AltitudeMeters>
            <DistanceMeters>546411.97416014</DistanceMeters>
          </Trackpoint>
          <Trackpoint>
            <Time>2021-08-03T15:05:59Z</Time>
            <Position>
              <LatitudeDegrees>41.073898</LatitudeDegrees>
              <LongitudeDegrees>-1.389676</LongitudeDegrees>
            </Position>
            <AltitudeMeters>780.308</AltitudeMeters>
            <DistanceMeters>546418.10688126</DistanceMeters>
          </Trackpoint>
          <Trackpoint>
            <Time>2021-08-03T15:06:01Z</Time>
            <Position>
              <LatitudeDegrees>41.073819</LatitudeDegrees>
              <LongitudeDegrees>-1.389620</LongitudeDegrees>
            </Position>
            <AltitudeMeters>780.242</AltitudeMeters>
            <DistanceMeters>546428.07608491</DistanceMeters>
          </Trackpoint>
          <Trackpoint>
            <Time>2021-08-03T15:06:03Z</Time>
            <Position>
              <LatitudeDegrees>41.073747</LatitudeDegrees>
              <LongitudeDegrees>-1.389556</LongitudeDegrees>
            </Position>
            <AltitudeMeters>781.164</AltitudeMeters>
            <DistanceMeters>546437.72211558</DistanceMeters>
          </Trackpoint>
          <Trackpoint>
            <Time>2021-08-03T15:06:05Z</Time>
            <Position>
              <LatitudeDegrees>41.073672</LatitudeDegrees>
              <LongitudeDegrees>-1.389502</LongitudeDegrees>
            </Position>
            <AltitudeMeters>781.374</AltitudeMeters>
            <DistanceMeters>546447.22003449</DistanceMeters>
          </Trackpoint>
          <Trackpoint>
            <Time>2021-08-03T15:06:06Z</Time>
            <Position>
              <LatitudeDegrees>41.073631</LatitudeDegrees>
              <LongitudeDegrees>-1.389470</LongitudeDegrees>
            </Position>
            <AltitudeMeters>781.227</AltitudeMeters>
            <DistanceMeters>546452.51431039</DistanceMeters>
          </Trackpoint>
          <Trackpoint>
            <Time>2021-08-03T15:06:08Z</Time>
            <Position>
              <LatitudeDegrees>41.073547</LatitudeDegrees>
              <LongitudeDegrees>-1.389414</LongitudeDegrees>
            </Position>
            <AltitudeMeters>781.135</AltitudeMeters>
            <DistanceMeters>546462.97804189</DistanceMeters>
          </Trackpoint>
          <Trackpoint>
            <Time>2021-08-03T15:06:10Z</Time>
            <Position>
              <LatitudeDegrees>41.073461</LatitudeDegrees>
              <LongitudeDegrees>-1.389348</LongitudeDegrees>
            </Position>
            <AltitudeMeters>780.820</AltitudeMeters>
            <DistanceMeters>546474.03631007</DistanceMeters>
          </Trackpoint>
          <Trackpoint>
            <Time>2021-08-03T15:06:12Z</Time>
            <Position>
              <LatitudeDegrees>41.073373</LatitudeDegrees>
              <LongitudeDegrees>-1.389292</LongitudeDegrees>
            </Position>
            <AltitudeMeters>780.715</AltitudeMeters>
            <DistanceMeters>546484.89973812</DistanceMeters>
          </Trackpoint>
          <Trackpoint>
            <Time>2021-08-03T15:06:14Z</Time>
            <Position>
              <LatitudeDegrees>41.073278</LatitudeDegrees>
              <LongitudeDegrees>-1.389222</LongitudeDegrees>
            </Position>
            <AltitudeMeters>780.846</AltitudeMeters>
            <DistanceMeters>546496.99503756</DistanceMeters>
          </Trackpoint>
          <Trackpoint>
            <Time>2021-08-03T15:06:16Z</Time>
            <Position>
              <LatitudeDegrees>41.073196</LatitudeDegrees>
              <LongitudeDegrees>-1.389156</LongitudeDegrees>
            </Position>
            <AltitudeMeters>780.612</AltitudeMeters>
            <DistanceMeters>546507.67022209</DistanceMeters>
          </Trackpoint>
          <Trackpoint>
            <Time>2021-08-03T15:06:17Z</Time>
            <Position>
              <LatitudeDegrees>41.073155</LatitudeDegrees>
              <LongitudeDegrees>-1.389111</LongitudeDegrees>
            </Position>
            <AltitudeMeters>780.432</AltitudeMeters>
            <DistanceMeters>546513.59321517</DistanceMeters>
          </Trackpoint>
          <Trackpoint>
            <Time>2021-08-03T15:06:19Z</Time>
            <Position>
              <LatitudeDegrees>41.073089</LatitudeDegrees>
              <LongitudeDegrees>-1.389059</LongitudeDegrees>
            </Position>
            <AltitudeMeters>780.705</AltitudeMeters>
            <DistanceMeters>546522.13716847</DistanceMeters>
          </Trackpoint>
          <Trackpoint>
            <Time>2021-08-03T15:06:20Z</Time>
            <Position>
              <LatitudeDegrees>41.073044</LatitudeDegrees>
              <LongitudeDegrees>-1.389029</LongitudeDegrees>
            </Position>
            <AltitudeMeters>780.708</AltitudeMeters>
            <DistanceMeters>546527.74374461</DistanceMeters>
          </Trackpoint>
          <Trackpoint>
            <Time>2021-08-03T15:06:22Z</Time>
            <Position>
              <LatitudeDegrees>41.072959</LatitudeDegrees>
              <LongitudeDegrees>-1.388995</LongitudeDegrees>
            </Position>
            <AltitudeMeters>780.638</AltitudeMeters>
            <DistanceMeters>546537.62515224</DistanceMeters>
          </Trackpoint>
          <Trackpoint>
            <Time>2021-08-03T15:06:23Z</Time>
            <Position>
              <LatitudeDegrees>41.072916</LatitudeDegrees>
              <LongitudeDegrees>-1.388978</LongitudeDegrees>
            </Position>
            <AltitudeMeters>780.610</AltitudeMeters>
            <DistanceMeters>546542.61925587</DistanceMeters>
          </Trackpoint>
          <Trackpoint>
            <Time>2021-08-03T15:06:25Z</Time>
            <Position>
              <LatitudeDegrees>41.072841</LatitudeDegrees>
              <LongitudeDegrees>-1.388923</LongitudeDegrees>
            </Position>
            <AltitudeMeters>780.460</AltitudeMeters>
            <DistanceMeters>546552.15796911</DistanceMeters>
          </Trackpoint>
          <Trackpoint>
            <Time>2021-08-03T15:06:26Z</Time>
            <Position>
              <LatitudeDegrees>41.072799</LatitudeDegrees>
              <LongitudeDegrees>-1.388885</LongitudeDegrees>
            </Position>
            <AltitudeMeters>780.133</AltitudeMeters>
            <DistanceMeters>546557.81664838</DistanceMeters>
          </Trackpoint>
          <Trackpoint>
            <Time>2021-08-03T15:06:27Z</Time>
            <Position>
              <LatitudeDegrees>41.072760</LatitudeDegrees>
              <LongitudeDegrees>-1.388852</LongitudeDegrees>
            </Position>
            <AltitudeMeters>779.991</AltitudeMeters>
            <DistanceMeters>546562.96565843</DistanceMeters>
          </Trackpoint>
          <Trackpoint>
            <Time>2021-08-03T15:06:29Z</Time>
            <Position>
              <LatitudeDegrees>41.072671</LatitudeDegrees>
              <LongitudeDegrees>-1.388793</LongitudeDegrees>
            </Position>
            <AltitudeMeters>779.966</AltitudeMeters>
            <DistanceMeters>546574.03943096</DistanceMeters>
          </Trackpoint>
          <Trackpoint>
            <Time>2021-08-03T15:06:30Z</Time>
            <Position>
              <LatitudeDegrees>41.072623</LatitudeDegrees>
              <LongitudeDegrees>-1.388767</LongitudeDegrees>
            </Position>
            <AltitudeMeters>780.151</AltitudeMeters>
            <DistanceMeters>546579.81029934</DistanceMeters>
          </Trackpoint>
          <Trackpoint>
            <Time>2021-08-03T15:06:32Z</Time>
            <Position>
              <LatitudeDegrees>41.072543</LatitudeDegrees>
              <LongitudeDegrees>-1.388692</LongitudeDegrees>
            </Position>
            <AltitudeMeters>780.322</AltitudeMeters>
            <DistanceMeters>546590.71396783</DistanceMeters>
          </Trackpoint>
          <Trackpoint>
            <Time>2021-08-03T15:06:34Z</Time>
            <Position>
              <LatitudeDegrees>41.072472</LatitudeDegrees>
              <LongitudeDegrees>-1.388634</LongitudeDegrees>
            </Position>
            <AltitudeMeters>780.584</AltitudeMeters>
            <DistanceMeters>546599.99501837</DistanceMeters>
          </Trackpoint>
          <Trackpoint>
            <Time>2021-08-03T15:06:36Z</Time>
            <Position>
              <LatitudeDegrees>41.072393</LatitudeDegrees>
              <LongitudeDegrees>-1.388576</LongitudeDegrees>
            </Position>
            <AltitudeMeters>780.507</AltitudeMeters>
            <DistanceMeters>546610.04451463</DistanceMeters>
          </Trackpoint>
          <Trackpoint>
            <Time>2021-08-03T15:06:38Z</Time>
            <Position>
              <LatitudeDegrees>41.072310</LatitudeDegrees>
              <LongitudeDegrees>-1.388515</LongitudeDegrees>
            </Position>
            <AltitudeMeters>780.417</AltitudeMeters>
            <DistanceMeters>546620.60574108</DistanceMeters>
          </Trackpoint>
          <Trackpoint>
            <Time>2021-08-03T15:06:40Z</Time>
            <Position>
              <LatitudeDegrees>41.072228</LatitudeDegrees>
              <LongitudeDegrees>-1.388454</LongitudeDegrees>
            </Position>
            <AltitudeMeters>780.408</AltitudeMeters>
            <DistanceMeters>546631.06990407</DistanceMeters>
          </Trackpoint>
          <Trackpoint>
            <Time>2021-08-03T15:06:42Z</Time>
            <Position>
              <LatitudeDegrees>41.072164</LatitudeDegrees>
              <LongitudeDegrees>-1.388408</LongitudeDegrees>
            </Position>
            <AltitudeMeters>780.685</AltitudeMeters>
            <DistanceMeters>546639.17228987</DistanceMeters>
          </Trackpoint>
          <Trackpoint>
            <Time>2021-08-03T15:06:44Z</Time>
            <Position>
              <LatitudeDegrees>41.072117</LatitudeDegrees>
              <LongitudeDegrees>-1.388372</LongitudeDegrees>
            </Position>
            <AltitudeMeters>780.747</AltitudeMeters>
            <DistanceMeters>546645.21377719</DistanceMeters>
          </Trackpoint>
          <Trackpoint>
            <Time>2021-08-03T15:06:46Z</Time>
            <Position>
              <LatitudeDegrees>41.072045</LatitudeDegrees>
              <LongitudeDegrees>-1.388318</LongitudeDegrees>
            </Position>
            <AltitudeMeters>781.027</AltitudeMeters>
            <DistanceMeters>546654.42009554</DistanceMeters>
          </Trackpoint>
          <Trackpoint>
            <Time>2021-08-03T15:06:47Z</Time>
            <Position>
              <LatitudeDegrees>41.072005</LatitudeDegrees>
              <LongitudeDegrees>-1.388290</LongitudeDegrees>
            </Position>
            <AltitudeMeters>781.450</AltitudeMeters>
            <DistanceMeters>546659.45471812</DistanceMeters>
          </Trackpoint>
          <Trackpoint>
            <Time>2021-08-03T15:06:49Z</Time>
            <Position>
              <LatitudeDegrees>41.071921</LatitudeDegrees>
              <LongitudeDegrees>-1.388233</LongitudeDegrees>
            </Position>
            <AltitudeMeters>781.758</AltitudeMeters>
            <DistanceMeters>546669.95678238</DistanceMeters>
          </Trackpoint>
          <Trackpoint>
            <Time>2021-08-03T15:06:51Z</Time>
            <Position>
              <LatitudeDegrees>41.071838</LatitudeDegrees>
              <LongitudeDegrees>-1.388174</LongitudeDegrees>
            </Position>
            <AltitudeMeters>781.713</AltitudeMeters>
            <DistanceMeters>546680.43819021</DistanceMeters>
          </Trackpoint>
          <Trackpoint>
            <Time>2021-08-03T15:06:53Z</Time>
            <Position>
              <LatitudeDegrees>41.071760</LatitudeDegrees>
              <LongitudeDegrees>-1.388115</LongitudeDegrees>
            </Position>
            <AltitudeMeters>781.618</AltitudeMeters>
            <DistanceMeters>546690.43227223</DistanceMeters>
          </Trackpoint>
          <Trackpoint>
            <Time>2021-08-03T15:06:55Z</Time>
            <Position>
              <LatitudeDegrees>41.071674</LatitudeDegrees>
              <LongitudeDegrees>-1.388049</LongitudeDegrees>
            </Position>
            <AltitudeMeters>781.669</AltitudeMeters>
            <DistanceMeters>546701.49054041</DistanceMeters>
          </Trackpoint>
          <Trackpoint>
            <Time>2021-08-03T15:06:56Z</Time>
            <Position>
              <LatitudeDegrees>41.071633</LatitudeDegrees>
              <LongitudeDegrees>-1.388020</LongitudeDegrees>
            </Position>
            <AltitudeMeters>781.694</AltitudeMeters>
            <DistanceMeters>546706.66229896</DistanceMeters>
          </Trackpoint>
          <Trackpoint>
            <Time>2021-08-03T15:06:58Z</Time>
            <Position>
              <LatitudeDegrees>41.071550</LatitudeDegrees>
              <LongitudeDegrees>-1.387960</LongitudeDegrees>
            </Position>
            <AltitudeMeters>781.857</AltitudeMeters>
            <DistanceMeters>546717.18326265</DistanceMeters>
          </Trackpoint>
          <Trackpoint>
            <Time>2021-08-03T15:06:59Z</Time>
            <Position>
              <LatitudeDegrees>41.071510</LatitudeDegrees>
              <LongitudeDegrees>-1.387930</LongitudeDegrees>
            </Position>
            <AltitudeMeters>781.822</AltitudeMeters>
            <DistanceMeters>546722.29796024</DistanceMeters>
          </Trackpoint>
          <Trackpoint>
            <Time>2021-08-03T15:07:00Z</Time>
            <Position>
              <LatitudeDegrees>41.071467</LatitudeDegrees>
              <LongitudeDegrees>-1.387900</LongitudeDegrees>
            </Position>
            <AltitudeMeters>781.908</AltitudeMeters>
            <DistanceMeters>546727.70530594</DistanceMeters>
          </Trackpoint>
          <Trackpoint>
            <Time>2021-08-03T15:07:02Z</Time>
            <Position>
              <LatitudeDegrees>41.071422</LatitudeDegrees>
              <LongitudeDegrees>-1.387833</LongitudeDegrees>
            </Position>
            <AltitudeMeters>782.126</AltitudeMeters>
            <DistanceMeters>546735.23463659</DistanceMeters>
          </Trackpoint>
          <Trackpoint>
            <Time>2021-08-03T15:07:03Z</Time>
            <Position>
              <LatitudeDegrees>41.071354</LatitudeDegrees>
              <LongitudeDegrees>-1.387792</LongitudeDegrees>
            </Position>
            <AltitudeMeters>782.048</AltitudeMeters>
            <DistanceMeters>546743.54825223</DistanceMeters>
          </Trackpoint>
          <Trackpoint>
            <Time>2021-08-03T15:07:05Z</Time>
            <Position>
              <LatitudeDegrees>41.071276</LatitudeDegrees>
              <LongitudeDegrees>-1.387786</LongitudeDegrees>
            </Position>
            <AltitudeMeters>782.088</AltitudeMeters>
            <DistanceMeters>546752.24410527</DistanceMeters>
          </Trackpoint>
          <Trackpoint>
            <Time>2021-08-03T15:07:06Z</Time>
            <Position>
              <LatitudeDegrees>41.071220</LatitudeDegrees>
              <LongitudeDegrees>-1.387783</LongitudeDegrees>
            </Position>
            <AltitudeMeters>781.921</AltitudeMeters>
            <DistanceMeters>546758.48194139</DistanceMeters>
          </Trackpoint>
          <Trackpoint>
            <Time>2021-08-03T15:07:08Z</Time>
            <Position>
              <LatitudeDegrees>41.071106</LatitudeDegrees>
              <LongitudeDegrees>-1.387680</LongitudeDegrees>
            </Position>
            <AltitudeMeters>781.279</AltitudeMeters>
            <DistanceMeters>546773.83397693</DistanceMeters>
          </Trackpoint>
          <Trackpoint>
            <Time>2021-08-03T15:07:09Z</Time>
            <Position>
              <LatitudeDegrees>41.071054</LatitudeDegrees>
              <LongitudeDegrees>-1.387633</LongitudeDegrees>
            </Position>
            <AltitudeMeters>781.234</AltitudeMeters>
            <DistanceMeters>546780.83700093</DistanceMeters>
          </Trackpoint>
          <Trackpoint>
            <Time>2021-08-03T15:07:11Z</Time>
            <Position>
              <LatitudeDegrees>41.070956</LatitudeDegrees>
              <LongitudeDegrees>-1.387557</LongitudeDegrees>
            </Position>
            <AltitudeMeters>781.719</AltitudeMeters>
            <DistanceMeters>546793.47162365</DistanceMeters>
          </Trackpoint>
          <Trackpoint>
            <Time>2021-08-03T15:07:12Z</Time>
            <Position>
              <LatitudeDegrees>41.070911</LatitudeDegrees>
              <LongitudeDegrees>-1.387520</LongitudeDegrees>
            </Position>
            <AltitudeMeters>781.780</AltitudeMeters>
            <DistanceMeters>546799.36327994</DistanceMeters>
          </Trackpoint>
          <Trackpoint>
            <Time>2021-08-03T15:07:14Z</Time>
            <Position>
              <LatitudeDegrees>41.070820</LatitudeDegrees>
              <LongitudeDegrees>-1.387453</LongitudeDegrees>
            </Position>
            <AltitudeMeters>781.858</AltitudeMeters>
            <DistanceMeters>546810.94718844</DistanceMeters>
          </Trackpoint>
          <Trackpoint>
            <Time>2021-08-03T15:07:15Z</Time>
            <Position>
              <LatitudeDegrees>41.070778</LatitudeDegrees>
              <LongitudeDegrees>-1.387419</LongitudeDegrees>
            </Position>
            <AltitudeMeters>781.852</AltitudeMeters>
            <DistanceMeters>546816.42339916</DistanceMeters>
          </Trackpoint>
          <Trackpoint>
            <Time>2021-08-03T15:07:16Z</Time>
            <Position>
              <LatitudeDegrees>41.070738</LatitudeDegrees>
              <LongitudeDegrees>-1.387387</LongitudeDegrees>
            </Position>
            <AltitudeMeters>781.917</AltitudeMeters>
            <DistanceMeters>546821.62301923</DistanceMeters>
          </Trackpoint>
          <Trackpoint>
            <Time>2021-08-03T15:07:17Z</Time>
            <Position>
              <LatitudeDegrees>41.070697</LatitudeDegrees>
              <LongitudeDegrees>-1.387357</LongitudeDegrees>
            </Position>
            <AltitudeMeters>781.908</AltitudeMeters>
            <DistanceMeters>546826.83478188</DistanceMeters>
          </Trackpoint>
          <Trackpoint>
            <Time>2021-08-03T15:07:19Z</Time>
            <Position>
              <LatitudeDegrees>41.070615</LatitudeDegrees>
              <LongitudeDegrees>-1.387295</LongitudeDegrees>
            </Position>
            <AltitudeMeters>781.872</AltitudeMeters>
            <DistanceMeters>546837.34028493</DistanceMeters>
          </Trackpoint>
          <Trackpoint>
            <Time>2021-08-03T15:07:20Z</Time>
            <Position>
              <LatitudeDegrees>41.070577</LatitudeDegrees>
              <LongitudeDegrees>-1.387261</LongitudeDegrees>
            </Position>
            <AltitudeMeters>781.974</AltitudeMeters>
            <DistanceMeters>546842.44172397</DistanceMeters>
          </Trackpoint>
          <Trackpoint>
            <Time>2021-08-03T15:07:22Z</Time>
            <Position>
              <LatitudeDegrees>41.070494</LatitudeDegrees>
              <LongitudeDegrees>-1.387202</LongitudeDegrees>
            </Position>
            <AltitudeMeters>782.254</AltitudeMeters>
            <DistanceMeters>546852.92227023</DistanceMeters>
          </Trackpoint>
          <Trackpoint>
            <Time>2021-08-03T15:07:24Z</Time>
            <Position>
              <LatitudeDegrees>41.070414</LatitudeDegrees>
              <LongitudeDegrees>-1.387145</LongitudeDegrees>
            </Position>
            <AltitudeMeters>782.387</AltitudeMeters>
            <DistanceMeters>546863.02955744</DistanceMeters>
          </Trackpoint>
          <Trackpoint>
            <Time>2021-08-03T15:07:26Z</Time>
            <Position>
              <LatitudeDegrees>41.070371</LatitudeDegrees>
              <LongitudeDegrees>-1.387096</LongitudeDegrees>
            </Position>
            <AltitudeMeters>782.395</AltitudeMeters>
            <DistanceMeters>546869.3386443</DistanceMeters>
          </Trackpoint>
          <Trackpoint>
            <Time>2021-08-03T15:07:28Z</Time>
            <Position>
              <LatitudeDegrees>41.070305</LatitudeDegrees>
              <LongitudeDegrees>-1.387050</LongitudeDegrees>
            </Position>
            <AltitudeMeters>782.020</AltitudeMeters>
            <DistanceMeters>546877.6370395</DistanceMeters>
          </Trackpoint>
          <Trackpoint>
            <Time>2021-08-03T15:07:30Z</Time>
            <Position>
              <LatitudeDegrees>41.070228</LatitudeDegrees>
              <LongitudeDegrees>-1.386991</LongitudeDegrees>
            </Position>
            <AltitudeMeters>782.085</AltitudeMeters>
            <DistanceMeters>546887.5344265</DistanceMeters>
          </Trackpoint>
          <Trackpoint>
            <Time>2021-08-03T15:07:32Z</Time>
            <Position>
              <LatitudeDegrees>41.070146</LatitudeDegrees>
              <LongitudeDegrees>-1.386925</LongitudeDegrees>
            </Position>
            <AltitudeMeters>782.026</AltitudeMeters>
            <DistanceMeters>546898.21003396</DistanceMeters>
          </Trackpoint>
          <Trackpoint>
            <Time>2021-08-03T15:07:34Z</Time>
            <Position>
              <LatitudeDegrees>41.070066</LatitudeDegrees>
              <LongitudeDegrees>-1.386869</LongitudeDegrees>
            </Position>
            <AltitudeMeters>782.245</AltitudeMeters>
            <DistanceMeters>546908.27748538</DistanceMeters>
          </Trackpoint>
          <Trackpoint>
            <Time>2021-08-03T15:07:36Z</Time>
            <Position>
              <LatitudeDegrees>41.069995</LatitudeDegrees>
              <LongitudeDegrees>-1.386810</LongitudeDegrees>
            </Position>
            <AltitudeMeters>782.247</AltitudeMeters>
            <DistanceMeters>546917.60270045</DistanceMeters>
          </Trackpoint>
          <Trackpoint>
            <Time>2021-08-03T15:07:38Z</Time>
            <Position>
              <LatitudeDegrees>41.069927</LatitudeDegrees>
              <LongitudeDegrees>-1.386745</LongitudeDegrees>
            </Position>
            <AltitudeMeters>782.311</AltitudeMeters>
            <DistanceMeters>546926.93178812</DistanceMeters>
          </Trackpoint>
          <Trackpoint>
            <Time>2021-08-03T15:07:40Z</Time>
            <Position>
              <LatitudeDegrees>41.069859</LatitudeDegrees>
              <LongitudeDegrees>-1.386692</LongitudeDegrees>
            </Position>
            <AltitudeMeters>782.808</AltitudeMeters>
            <DistanceMeters>546935.71032287</DistanceMeters>
          </Trackpoint>
          <Trackpoint>
            <Time>2021-08-03T15:07:42Z</Time>
            <Position>
              <LatitudeDegrees>41.069781</LatitudeDegrees>
              <LongitudeDegrees>-1.386645</LongitudeDegrees>
            </Position>
            <AltitudeMeters>782.981</AltitudeMeters>
            <DistanceMeters>546945.24524865</DistanceMeters>
          </Trackpoint>
          <Trackpoint>
            <Time>2021-08-03T15:07:44Z</Time>
            <Position>
              <LatitudeDegrees>41.069719</LatitudeDegrees>
              <LongitudeDegrees>-1.386587</LongitudeDegrees>
            </Position>
            <AltitudeMeters>782.993</AltitudeMeters>
            <DistanceMeters>546953.68926924</DistanceMeters>
          </Trackpoint>
          <Trackpoint>
            <Time>2021-08-03T15:07:46Z</Time>
            <Position>
              <LatitudeDegrees>41.069661</LatitudeDegrees>
              <LongitudeDegrees>-1.386539</LongitudeDegrees>
            </Position>
            <AltitudeMeters>782.833</AltitudeMeters>
            <DistanceMeters>546961.29853005</DistanceMeters>
          </Trackpoint>
          <Trackpoint>
            <Time>2021-08-03T15:07:48Z</Time>
            <Position>
              <LatitudeDegrees>41.069592</LatitudeDegrees>
              <LongitudeDegrees>-1.386494</LongitudeDegrees>
            </Position>
            <AltitudeMeters>782.856</AltitudeMeters>
            <DistanceMeters>546969.85673956</DistanceMeters>
          </Trackpoint>
          <Trackpoint>
            <Time>2021-08-03T15:07:50Z</Time>
            <Position>
              <LatitudeDegrees>41.069527</LatitudeDegrees>
              <LongitudeDegrees>-1.386451</LongitudeDegrees>
            </Position>
            <AltitudeMeters>782.924</AltitudeMeters>
            <DistanceMeters>546977.94127377</DistanceMeters>
          </Trackpoint>
          <Trackpoint>
            <Time>2021-08-03T15:07:52Z</Time>
            <Position>
              <LatitudeDegrees>41.069449</LatitudeDegrees>
              <LongitudeDegrees>-1.386388</LongitudeDegrees>
            </Position>
            <AltitudeMeters>782.949</AltitudeMeters>
            <DistanceMeters>546988.10557918</DistanceMeters>
          </Trackpoint>
          <Trackpoint>
            <Time>2021-08-03T15:07:54Z</Time>
            <Position>
              <LatitudeDegrees>41.069372</LatitudeDegrees>
              <LongitudeDegrees>-1.386321</LongitudeDegrees>
            </Position>
            <AltitudeMeters>783.444</AltitudeMeters>
            <DistanceMeters>546998.35525768</DistanceMeters>
          </Trackpoint>
          <Trackpoint>
            <Time>2021-08-03T15:07:55Z</Time>
            <Position>
              <LatitudeDegrees>41.069322</LatitudeDegrees>
              <LongitudeDegrees>-1.386277</LongitudeDegrees>
            </Position>
            <AltitudeMeters>783.415</AltitudeMeters>
            <DistanceMeters>547005.034223</DistanceMeters>
          </Trackpoint>
          <Trackpoint>
            <Time>2021-08-03T15:07:57Z</Time>
            <Position>
              <LatitudeDegrees>41.069240</LatitudeDegrees>
              <LongitudeDegrees>-1.386209</LongitudeDegrees>
            </Position>
            <AltitudeMeters>783.761</AltitudeMeters>
            <DistanceMeters>547015.79827943</DistanceMeters>
          </Trackpoint>
          <Trackpoint>
            <Time>2021-08-03T15:07:59Z</Time>
            <Position>
              <LatitudeDegrees>41.069187</LatitudeDegrees>
              <LongitudeDegrees>-1.386170</LongitudeDegrees>
            </Position>
            <AltitudeMeters>783.721</AltitudeMeters>
            <DistanceMeters>547022.54517615</DistanceMeters>
          </Trackpoint>
          <Trackpoint>
            <Time>2021-08-03T15:08:01Z</Time>
            <Position>
              <LatitudeDegrees>41.069107</LatitudeDegrees>
              <LongitudeDegrees>-1.386111</LongitudeDegrees>
            </Position>
            <AltitudeMeters>783.813</AltitudeMeters>
            <DistanceMeters>547032.73344041</DistanceMeters>
          </Trackpoint>
          <Trackpoint>
            <Time>2021-08-03T15:08:02Z</Time>
            <Position>
              <LatitudeDegrees>41.069065</LatitudeDegrees>
              <LongitudeDegrees>-1.386079</LongitudeDegrees>
            </Position>
            <AltitudeMeters>783.808</AltitudeMeters>
            <DistanceMeters>547038.12489811</DistanceMeters>
          </Trackpoint>
          <Trackpoint>
            <Time>2021-08-03T15:08:04Z</Time>
            <Position>
              <LatitudeDegrees>41.068984</LatitudeDegrees>
              <LongitudeDegrees>-1.386024</LongitudeDegrees>
            </Position>
            <AltitudeMeters>783.693</AltitudeMeters>
            <DistanceMeters>547048.25315898</DistanceMeters>
          </Trackpoint>
          <Trackpoint>
            <Time>2021-08-03T15:08:05Z</Time>
            <Position>
              <LatitudeDegrees>41.068942</LatitudeDegrees>
              <LongitudeDegrees>-1.385996</LongitudeDegrees>
            </Position>
            <AltitudeMeters>783.765</AltitudeMeters>
            <DistanceMeters>547053.48567193</DistanceMeters>
          </Trackpoint>
          <Trackpoint>
            <Time>2021-08-03T15:08:07Z</Time>
            <Position>
              <LatitudeDegrees>41.068860</LatitudeDegrees>
              <LongitudeDegrees>-1.385940</LongitudeDegrees>
            </Position>
            <AltitudeMeters>783.845</AltitudeMeters>
            <DistanceMeters>547063.75119638</DistanceMeters>
          </Trackpoint>
          <Trackpoint>
            <Time>2021-08-03T15:08:09Z</Time>
            <Position>
              <LatitudeDegrees>41.068785</LatitudeDegrees>
              <LongitudeDegrees>-1.385886</LongitudeDegrees>
            </Position>
            <AltitudeMeters>783.738</AltitudeMeters>
            <DistanceMeters>547073.24911529</DistanceMeters>
          </Trackpoint>
          <Trackpoint>
            <Time>2021-08-03T15:08:11Z</Time>
            <Position>
              <LatitudeDegrees>41.068720</LatitudeDegrees>
              <LongitudeDegrees>-1.385836</LongitudeDegrees>
            </Position>
            <AltitudeMeters>783.456</AltitudeMeters>
            <DistanceMeters>547081.61254593</DistanceMeters>
          </Trackpoint>
          <Trackpoint>
            <Time>2021-08-03T15:08:12Z</Time>
            <Position>
              <LatitudeDegrees>41.068681</LatitudeDegrees>
              <LongitudeDegrees>-1.385805</LongitudeDegrees>
            </Position>
            <AltitudeMeters>783.421</AltitudeMeters>
            <DistanceMeters>547086.67221655</DistanceMeters>
          </Trackpoint>
          <Trackpoint>
            <Time>2021-08-03T15:08:13Z</Time>
            <Position>
              <LatitudeDegrees>41.068635</LatitudeDegrees>
              <LongitudeDegrees>-1.385770</LongitudeDegrees>
            </Position>
            <AltitudeMeters>783.466</AltitudeMeters>
            <DistanceMeters>547092.57459191</DistanceMeters>
          </Trackpoint>
          <Trackpoint>
            <Time>2021-08-03T15:08:14Z</Time>
            <Position>
              <LatitudeDegrees>41.068585</LatitudeDegrees>
              <LongitudeDegrees>-1.385733</LongitudeDegrees>
            </Position>
            <AltitudeMeters>783.467</AltitudeMeters>
            <DistanceMeters>547098.94776097</DistanceMeters>
          </Trackpoint>
          <Trackpoint>
            <Time>2021-08-03T15:08:16Z</Time>
            <Position>
              <LatitudeDegrees>41.068483</LatitudeDegrees>
              <LongitudeDegrees>-1.385664</LongitudeDegrees>
            </Position>
            <AltitudeMeters>783.746</AltitudeMeters>
            <DistanceMeters>547111.69197357</DistanceMeters>
          </Trackpoint>
          <Trackpoint>
            <Time>2021-08-03T15:08:17Z</Time>
            <Position>
              <LatitudeDegrees>41.068436</LatitudeDegrees>
              <LongitudeDegrees>-1.385632</LongitudeDegrees>
            </Position>
            <AltitudeMeters>783.988</AltitudeMeters>
            <DistanceMeters>547117.57212346</DistanceMeters>
          </Trackpoint>
          <Trackpoint>
            <Time>2021-08-03T15:08:18Z</Time>
            <Position>
              <LatitudeDegrees>41.068393</LatitudeDegrees>
              <LongitudeDegrees>-1.385605</LongitudeDegrees>
            </Position>
            <AltitudeMeters>783.916</AltitudeMeters>
            <DistanceMeters>547122.86639936</DistanceMeters>
          </Trackpoint>
          <Trackpoint>
            <Time>2021-08-03T15:08:19Z</Time>
            <Position>
              <LatitudeDegrees>41.068349</LatitudeDegrees>
              <LongitudeDegrees>-1.385582</LongitudeDegrees>
            </Position>
            <AltitudeMeters>784.008</AltitudeMeters>
            <DistanceMeters>547128.12988438</DistanceMeters>
          </Trackpoint>
          <Trackpoint>
            <Time>2021-08-03T15:08:20Z</Time>
            <Position>
              <LatitudeDegrees>41.068299</LatitudeDegrees>
              <LongitudeDegrees>-1.385553</LongitudeDegrees>
            </Position>
            <AltitudeMeters>784.061</AltitudeMeters>
            <DistanceMeters>547134.2041656</DistanceMeters>
          </Trackpoint>
          <Trackpoint>
            <Time>2021-08-03T15:08:22Z</Time>
            <Position>
              <LatitudeDegrees>41.068200</LatitudeDegrees>
              <LongitudeDegrees>-1.385497</LongitudeDegrees>
            </Position>
            <AltitudeMeters>784.173</AltitudeMeters>
            <DistanceMeters>547146.18280971</DistanceMeters>
          </Trackpoint>
          <Trackpoint>
            <Time>2021-08-03T15:08:24Z</Time>
            <Position>
              <LatitudeDegrees>41.068120</LatitudeDegrees>
              <LongitudeDegrees>-1.385452</LongitudeDegrees>
            </Position>
            <AltitudeMeters>784.263</AltitudeMeters>
            <DistanceMeters>547155.85455008</DistanceMeters>
          </Trackpoint>
          <Trackpoint>
            <Time>2021-08-03T15:08:26Z</Time>
            <Position>
              <LatitudeDegrees>41.068036</LatitudeDegrees>
              <LongitudeDegrees>-1.385406</LongitudeDegrees>
            </Position>
            <AltitudeMeters>784.456</AltitudeMeters>
            <DistanceMeters>547165.96942853</DistanceMeters>
          </Trackpoint>
          <Trackpoint>
            <Time>2021-08-03T15:08:28Z</Time>
            <Position>
              <LatitudeDegrees>41.067958</LatitudeDegrees>
              <LongitudeDegrees>-1.385369</LongitudeDegrees>
            </Position>
            <AltitudeMeters>784.534</AltitudeMeters>
            <DistanceMeters>547175.18946865</DistanceMeters>
          </Trackpoint>
          <Trackpoint>
            <Time>2021-08-03T15:08:29Z</Time>
            <Position>
              <LatitudeDegrees>41.067913</LatitudeDegrees>
              <LongitudeDegrees>-1.385348</LongitudeDegrees>
            </Position>
            <AltitudeMeters>784.589</AltitudeMeters>
            <DistanceMeters>547180.49992331</DistanceMeters>
          </Trackpoint>
          <Trackpoint>
            <Time>2021-08-03T15:08:31Z</Time>
            <Position>
              <LatitudeDegrees>41.067820</LatitudeDegrees>
              <LongitudeDegrees>-1.385290</LongitudeDegrees>
            </Position>
            <AltitudeMeters>784.554</AltitudeMeters>
            <DistanceMeters>547191.93791909</DistanceMeters>
          </Trackpoint>
          <Trackpoint>
            <Time>2021-08-03T15:08:33Z</Time>
            <Position>
              <LatitudeDegrees>41.067732</LatitudeDegrees>
              <LongitudeDegrees>-1.385229</LongitudeDegrees>
            </Position>
            <AltitudeMeters>784.395</AltitudeMeters>
            <DistanceMeters>547202.98965262</DistanceMeters>
          </Trackpoint>
          <Trackpoint>
            <Time>2021-08-03T15:08:34Z</Time>
            <Position>
              <LatitudeDegrees>41.067689</LatitudeDegrees>
              <LongitudeDegrees>-1.385205</LongitudeDegrees>
            </Position>
            <AltitudeMeters>784.399</AltitudeMeters>
            <DistanceMeters>547208.18232132</DistanceMeters>
          </Trackpoint>
          <Trackpoint>
            <Time>2021-08-03T15:08:36Z</Time>
            <Position>
              <LatitudeDegrees>41.067613</LatitudeDegrees>
              <LongitudeDegrees>-1.385150</LongitudeDegrees>
            </Position>
            <AltitudeMeters>784.107</AltitudeMeters>
            <DistanceMeters>547217.81851746</DistanceMeters>
          </Trackpoint>
          <Trackpoint>
            <Time>2021-08-03T15:08:40Z</Time>
            <Position>
              <LatitudeDegrees>41.067545</LatitudeDegrees>
              <LongitudeDegrees>-1.385096</LongitudeDegrees>
            </Position>
            <AltitudeMeters>784.127</AltitudeMeters>
            <DistanceMeters>547226.63963807</DistanceMeters>
          </Trackpoint>
          <Trackpoint>
            <Time>2021-08-03T15:08:42Z</Time>
            <Position>
              <LatitudeDegrees>41.067480</LatitudeDegrees>
              <LongitudeDegrees>-1.385064</LongitudeDegrees>
            </Position>
            <AltitudeMeters>784.408</AltitudeMeters>
            <DistanceMeters>547234.35672004</DistanceMeters>
          </Trackpoint>
          <Trackpoint>
            <Time>2021-08-03T15:08:44Z</Time>
            <Position>
              <LatitudeDegrees>41.067433</LatitudeDegrees>
              <LongitudeDegrees>-1.385040</LongitudeDegrees>
            </Position>
            <AltitudeMeters>784.576</AltitudeMeters>
            <DistanceMeters>547239.96249082</DistanceMeters>
          </Trackpoint>
          <Trackpoint>
            <Time>2021-08-03T15:08:47Z</Time>
            <Position>
              <LatitudeDegrees>41.067336</LatitudeDegrees>
              <LongitudeDegrees>-1.385014</LongitudeDegrees>
            </Position>
            <AltitudeMeters>784.528</AltitudeMeters>
            <DistanceMeters>547250.97739468</DistanceMeters>
          </Trackpoint>
          <Trackpoint>
            <Time>2021-08-03T15:08:49Z</Time>
            <Position>
              <LatitudeDegrees>41.067256</LatitudeDegrees>
              <LongitudeDegrees>-1.385002</LongitudeDegrees>
            </Position>
            <AltitudeMeters>784.458</AltitudeMeters>
            <DistanceMeters>547259.93867081</DistanceMeters>
          </Trackpoint>
          <Trackpoint>
            <Time>2021-08-03T15:08:51Z</Time>
            <Position>
              <LatitudeDegrees>41.067175</LatitudeDegrees>
              <LongitudeDegrees>-1.385012</LongitudeDegrees>
            </Position>
            <AltitudeMeters>784.291</AltitudeMeters>
            <DistanceMeters>547268.99317599</DistanceMeters>
          </Trackpoint>
          <Trackpoint>
            <Time>2021-08-03T15:08:53Z</Time>
            <Position>
              <LatitudeDegrees>41.067109</LatitudeDegrees>
              <LongitudeDegrees>-1.385031</LongitudeDegrees>
            </Position>
            <AltitudeMeters>783.989</AltitudeMeters>
            <DistanceMeters>547276.50990322</DistanceMeters>
          </Trackpoint>
          <Trackpoint>
            <Time>2021-08-03T15:08:55Z</Time>
            <Position>
              <LatitudeDegrees>41.067032</LatitudeDegrees>
              <LongitudeDegrees>-1.385057</LongitudeDegrees>
            </Position>
            <AltitudeMeters>783.954</AltitudeMeters>
            <DistanceMeters>547285.35402682</DistanceMeters>
          </Trackpoint>
          <Trackpoint>
            <Time>2021-08-03T15:08:57Z</Time>
            <Position>
              <LatitudeDegrees>41.066962</LatitudeDegrees>
              <LongitudeDegrees>-1.385083</LongitudeDegrees>
            </Position>
            <AltitudeMeters>783.979</AltitudeMeters>
            <DistanceMeters>547293.44470195</DistanceMeters>
          </Trackpoint>
          <Trackpoint>
            <Time>2021-08-03T15:08:58Z</Time>
            <Position>
              <LatitudeDegrees>41.066902</LatitudeDegrees>
              <LongitudeDegrees>-1.385097</LongitudeDegrees>
            </Position>
            <AltitudeMeters>783.710</AltitudeMeters>
            <DistanceMeters>547300.2256421</DistanceMeters>
          </Trackpoint>
          <Trackpoint>
            <Time>2021-08-03T15:09:00Z</Time>
            <Position>
              <LatitudeDegrees>41.066832</LatitudeDegrees>
              <LongitudeDegrees>-1.385112</LongitudeDegrees>
            </Position>
            <AltitudeMeters>783.489</AltitudeMeters>
            <DistanceMeters>547308.11800976</DistanceMeters>
          </Trackpoint>
          <Trackpoint>
            <Time>2021-08-03T15:09:02Z</Time>
            <Position>
              <LatitudeDegrees>41.066758</LatitudeDegrees>
              <LongitudeDegrees>-1.385112</LongitudeDegrees>
            </Position>
            <AltitudeMeters>783.406</AltitudeMeters>
            <DistanceMeters>547316.35414564</DistanceMeters>
          </Trackpoint>
          <Trackpoint>
            <Time>2021-08-03T15:09:05Z</Time>
            <Position>
              <LatitudeDegrees>41.066701</LatitudeDegrees>
              <LongitudeDegrees>-1.385103</LongitudeDegrees>
            </Position>
            <AltitudeMeters>783.226</AltitudeMeters>
            <DistanceMeters>547322.74288147</DistanceMeters>
          </Trackpoint>
          <Trackpoint>
            <Time>2021-08-03T15:09:07Z</Time>
            <Position>
              <LatitudeDegrees>41.066614</LatitudeDegrees>
              <LongitudeDegrees>-1.385070</LongitudeDegrees>
            </Position>
            <AltitudeMeters>783.208</AltitudeMeters>
            <DistanceMeters>547332.81392008</DistanceMeters>
          </Trackpoint>
          <Trackpoint>
            <Time>2021-08-03T15:09:09Z</Time>
            <Position>
              <LatitudeDegrees>41.066539</LatitudeDegrees>
              <LongitudeDegrees>-1.385058</LongitudeDegrees>
            </Position>
            <AltitudeMeters>783.235</AltitudeMeters>
            <DistanceMeters>547341.22257624</DistanceMeters>
          </Trackpoint>
          <Trackpoint>
            <Time>2021-08-03T15:09:11Z</Time>
            <Position>
              <LatitudeDegrees>41.066484</LatitudeDegrees>
              <LongitudeDegrees>-1.385092</LongitudeDegrees>
            </Position>
            <AltitudeMeters>783.677</AltitudeMeters>
            <DistanceMeters>547347.97683018</DistanceMeters>
          </Trackpoint>
          <Trackpoint>
            <Time>2021-08-03T15:09:13Z</Time>
            <Position>
              <LatitudeDegrees>41.066470</LatitudeDegrees>
              <LongitudeDegrees>-1.385165</LongitudeDegrees>
            </Position>
            <AltitudeMeters>784.127</AltitudeMeters>
            <DistanceMeters>547354.29735691</DistanceMeters>
          </Trackpoint>
          <Trackpoint>
            <Time>2021-08-03T15:09:15Z</Time>
            <Position>
              <LatitudeDegrees>41.066464</LatitudeDegrees>
              <LongitudeDegrees>-1.385254</LongitudeDegrees>
            </Position>
            <AltitudeMeters>784.380</AltitudeMeters>
            <DistanceMeters>547361.7954404</DistanceMeters>
          </Trackpoint>
          <Trackpoint>
            <Time>2021-08-03T15:09:17Z</Time>
            <Position>
              <LatitudeDegrees>41.066453</LatitudeDegrees>
              <LongitudeDegrees>-1.385345</LongitudeDegrees>
            </Position>
            <AltitudeMeters>784.558</AltitudeMeters>
            <DistanceMeters>547369.52888699</DistanceMeters>
          </Trackpoint>
          <Trackpoint>
            <Time>2021-08-03T15:09:19Z</Time>
            <Position>
              <LatitudeDegrees>41.066429</LatitudeDegrees>
              <LongitudeDegrees>-1.385427</LongitudeDegrees>
            </Position>
            <AltitudeMeters>784.643</AltitudeMeters>
            <DistanceMeters>547376.90983891</DistanceMeters>
          </Trackpoint>
          <Trackpoint>
            <Time>2021-08-03T15:09:21Z</Time>
            <Position>
              <LatitudeDegrees>41.066412</LatitudeDegrees>
              <LongitudeDegrees>-1.385531</LongitudeDegrees>
            </Position>
            <AltitudeMeters>784.848</AltitudeMeters>
            <DistanceMeters>547385.83931678</DistanceMeters>
          </Trackpoint>
          <Trackpoint>
            <Time>2021-08-03T15:09:23Z</Time>
            <Position>
              <LatitudeDegrees>41.066397</LatitudeDegrees>
              <LongitudeDegrees>-1.385618</LongitudeDegrees>
            </Position>
            <AltitudeMeters>784.929</AltitudeMeters>
            <DistanceMeters>547393.32896529</DistanceMeters>
          </Trackpoint>
          <Trackpoint>
            <Time>2021-08-03T15:09:26Z</Time>
            <Position>
              <LatitudeDegrees>41.066396</LatitudeDegrees>
              <LongitudeDegrees>-1.385704</LongitudeDegrees>
            </Position>
            <AltitudeMeters>785.022</AltitudeMeters>
            <DistanceMeters>547400.54599245</DistanceMeters>
          </Trackpoint>
          <Trackpoint>
            <Time>2021-08-03T15:09:29Z</Time>
            <Position>
              <LatitudeDegrees>41.066376</LatitudeDegrees>
              <LongitudeDegrees>-1.385759</LongitudeDegrees>
            </Position>
            <AltitudeMeters>785.662</AltitudeMeters>
            <DistanceMeters>547405.67039117</DistanceMeters>
          </Trackpoint>
          <Trackpoint>
            <Time>2021-08-03T15:09:33Z</Time>
            <Position>
              <LatitudeDegrees>41.066321</LatitudeDegrees>
              <LongitudeDegrees>-1.385766</LongitudeDegrees>
            </Position>
            <AltitudeMeters>785.808</AltitudeMeters>
            <DistanceMeters>547411.82002207</DistanceMeters>
          </Trackpoint>
          <Trackpoint>
            <Time>2021-08-03T15:09:35Z</Time>
            <Position>
              <LatitudeDegrees>41.066298</LatitudeDegrees>
              <LongitudeDegrees>-1.385838</LongitudeDegrees>
            </Position>
            <AltitudeMeters>785.908</AltitudeMeters>
            <DistanceMeters>547418.38305983</DistanceMeters>
          </Trackpoint>
          <Trackpoint>
            <Time>2021-08-03T15:09:37Z</Time>
            <Position>
              <LatitudeDegrees>41.066279</LatitudeDegrees>
              <LongitudeDegrees>-1.385912</LongitudeDegrees>
            </Position>
            <AltitudeMeters>785.999</AltitudeMeters>
            <DistanceMeters>547424.94334521</DistanceMeters>
          </Trackpoint>
          <Trackpoint>
            <Time>2021-08-03T15:09:39Z</Time>
            <Position>
              <LatitudeDegrees>41.066283</LatitudeDegrees>
              <LongitudeDegrees>-1.385984</LongitudeDegrees>
            </Position>
            <AltitudeMeters>786.431</AltitudeMeters>
            <DistanceMeters>547431.00199694</DistanceMeters>
          </Trackpoint>
          <Trackpoint>
            <Time>2021-08-03T15:09:42Z</Time>
            <Position>
              <LatitudeDegrees>41.066318</LatitudeDegrees>
              <LongitudeDegrees>-1.386057</LongitudeDegrees>
            </Position>
            <AltitudeMeters>787.311</AltitudeMeters>
            <DistanceMeters>547438.26144087</DistanceMeters>
          </Trackpoint>
          <Trackpoint>
            <Time>2021-08-03T15:09:44Z</Time>
            <Position>
              <LatitudeDegrees>41.066347</LatitudeDegrees>
              <LongitudeDegrees>-1.386116</LongitudeDegrees>
            </Position>
            <AltitudeMeters>787.934</AltitudeMeters>
            <DistanceMeters>547444.1714608</DistanceMeters>
          </Trackpoint>
          <Trackpoint>
            <Time>2021-08-03T15:09:48Z</Time>
            <Position>
              <LatitudeDegrees>41.066363</LatitudeDegrees>
              <LongitudeDegrees>-1.386176</LongitudeDegrees>
            </Position>
            <AltitudeMeters>788.832</AltitudeMeters>
            <DistanceMeters>547449.51328087</DistanceMeters>
          </Trackpoint>
          <Trackpoint>
            <Time>2021-08-03T15:09:51Z</Time>
            <Position>
              <LatitudeDegrees>41.066389</LatitudeDegrees>
              <LongitudeDegrees>-1.386255</LongitudeDegrees>
            </Position>
            <AltitudeMeters>789.357</AltitudeMeters>
            <DistanceMeters>547456.74655557</DistanceMeters>
          </Trackpoint>
          <Trackpoint>
            <Time>2021-08-03T15:09:53Z</Time>
            <Position>
              <LatitudeDegrees>41.066405</LatitudeDegrees>
              <LongitudeDegrees>-1.386326</LongitudeDegrees>
            </Position>
            <AltitudeMeters>789.752</AltitudeMeters>
            <DistanceMeters>547462.96481797</DistanceMeters>
          </Trackpoint>
          <Trackpoint>
            <Time>2021-08-03T15:09:57Z</Time>
            <Position>
              <LatitudeDegrees>41.066427</LatitudeDegrees>
              <LongitudeDegrees>-1.386401</LongitudeDegrees>
            </Position>
            <AltitudeMeters>790.583</AltitudeMeters>
            <DistanceMeters>547469.71907191</DistanceMeters>
          </Trackpoint>
          <Trackpoint>
            <Time>2021-08-03T15:10:01Z</Time>
            <Position>
              <LatitudeDegrees>41.066430</LatitudeDegrees>
              <LongitudeDegrees>-1.386463</LongitudeDegrees>
            </Position>
            <AltitudeMeters>791.688</AltitudeMeters>
            <DistanceMeters>547474.9325669</DistanceMeters>
          </Trackpoint>
          <Trackpoint>
            <Time>2021-08-03T15:10:20Z</Time>
            <Position>
              <LatitudeDegrees>41.066367</LatitudeDegrees>
              <LongitudeDegrees>-1.386489</LongitudeDegrees>
            </Position>
            <AltitudeMeters>793.424</AltitudeMeters>
            <DistanceMeters>547482.27610941</DistanceMeters>
          </Trackpoint>
          <Trackpoint>
            <Time>2021-08-03T15:10:22Z</Time>
            <Position>
              <LatitudeDegrees>41.066319</LatitudeDegrees>
              <LongitudeDegrees>-1.386515</LongitudeDegrees>
            </Position>
            <AltitudeMeters>793.526</AltitudeMeters>
            <DistanceMeters>547488.04697779</DistanceMeters>
          </Trackpoint>
          <Trackpoint>
            <Time>2021-08-03T15:10:25Z</Time>
            <Position>
              <LatitudeDegrees>41.066275</LatitudeDegrees>
              <LongitudeDegrees>-1.386532</LongitudeDegrees>
            </Position>
            <AltitudeMeters>793.908</AltitudeMeters>
            <DistanceMeters>547493.14753171</DistanceMeters>
          </Trackpoint>
          <Trackpoint>
            <Time>2021-08-03T15:10:28Z</Time>
            <Position>
              <LatitudeDegrees>41.066264</LatitudeDegrees>
              <LongitudeDegrees>-1.386622</LongitudeDegrees>
            </Position>
            <AltitudeMeters>794.275</AltitudeMeters>
            <DistanceMeters>547500.79939525</DistanceMeters>
          </Trackpoint>
          <Trackpoint>
            <Time>2021-08-03T15:10:31Z</Time>
            <Position>
              <LatitudeDegrees>41.066250</LatitudeDegrees>
              <LongitudeDegrees>-1.386705</LongitudeDegrees>
            </Position>
            <AltitudeMeters>795.517</AltitudeMeters>
            <DistanceMeters>547507.9371604</DistanceMeters>
          </Trackpoint>
          <Trackpoint>
            <Time>2021-08-03T15:10:34Z</Time>
            <Position>
              <LatitudeDegrees>41.066200</LatitudeDegrees>
              <LongitudeDegrees>-1.386760</LongitudeDegrees>
            </Position>
            <AltitudeMeters>795.797</AltitudeMeters>
            <DistanceMeters>547515.16668891</DistanceMeters>
          </Trackpoint>
          <Trackpoint>
            <Time>2021-08-03T15:10:36Z</Time>
            <Position>
              <LatitudeDegrees>41.066138</LatitudeDegrees>
              <LongitudeDegrees>-1.386811</LongitudeDegrees>
            </Position>
            <AltitudeMeters>795.720</AltitudeMeters>
            <DistanceMeters>547523.28633102</DistanceMeters>
          </Trackpoint>
          <Trackpoint>
            <Time>2021-08-03T15:10:38Z</Time>
            <Position>
              <LatitudeDegrees>41.066080</LatitudeDegrees>
              <LongitudeDegrees>-1.386837</LongitudeDegrees>
            </Position>
            <AltitudeMeters>795.798</AltitudeMeters>
            <DistanceMeters>547530.10048197</DistanceMeters>
          </Trackpoint>
          <Trackpoint>
            <Time>2021-08-03T15:10:40Z</Time>
            <Position>
              <LatitudeDegrees>41.065913</LatitudeDegrees>
              <LongitudeDegrees>-1.386924</LongitudeDegrees>
            </Position>
            <AltitudeMeters>793.823</AltitudeMeters>
            <DistanceMeters>547550.070567</DistanceMeters>
          </Trackpoint>
          <Trackpoint>
            <Time>2021-08-03T15:10:42Z</Time>
            <Position>
              <LatitudeDegrees>41.065852</LatitudeDegrees>
              <LongitudeDegrees>-1.387045</LongitudeDegrees>
            </Position>
            <AltitudeMeters>790.758</AltitudeMeters>
            <DistanceMeters>547562.28510436</DistanceMeters>
          </Trackpoint>
          <Trackpoint>
            <Time>2021-08-03T15:10:44Z</Time>
            <Position>
              <LatitudeDegrees>41.065810</LatitudeDegrees>
              <LongitudeDegrees>-1.387112</LongitudeDegrees>
            </Position>
            <AltitudeMeters>791.099</AltitudeMeters>
            <DistanceMeters>547569.59660575</DistanceMeters>
          </Trackpoint>
          <Trackpoint>
            <Time>2021-08-03T15:10:46Z</Time>
            <Position>
              <LatitudeDegrees>41.065777</LatitudeDegrees>
              <LongitudeDegrees>-1.387158</LongitudeDegrees>
            </Position>
            <AltitudeMeters>791.673</AltitudeMeters>
            <DistanceMeters>547574.92488505</DistanceMeters>
          </Trackpoint>
          <Trackpoint>
            <Time>2021-08-03T15:11:45Z</Time>
            <Position>
              <LatitudeDegrees>41.065724</LatitudeDegrees>
              <LongitudeDegrees>-1.387158</LongitudeDegrees>
            </Position>
            <AltitudeMeters>793.385</AltitudeMeters>
            <DistanceMeters>547580.82343441</DistanceMeters>
          </Trackpoint>
          <Trackpoint>
            <Time>2021-08-03T15:12:49Z</Time>
            <Position>
              <LatitudeDegrees>41.065739</LatitudeDegrees>
              <LongitudeDegrees>-1.387099</LongitudeDegrees>
            </Position>
            <AltitudeMeters>793.413</AltitudeMeters>
            <DistanceMeters>547586.04817566</DistanceMeters>
          </Trackpoint>
          <Trackpoint>
            <Time>2021-08-03T15:13:01Z</Time>
            <Position>
              <LatitudeDegrees>41.065756</LatitudeDegrees>
              <LongitudeDegrees>-1.387038</LongitudeDegrees>
            </Position>
            <AltitudeMeters>793.408</AltitudeMeters>
            <DistanceMeters>547591.50621763</DistanceMeters>
          </Trackpoint>
          <Trackpoint>
            <Time>2021-08-03T15:13:03Z</Time>
            <Position>
              <LatitudeDegrees>41.065763</LatitudeDegrees>
              <LongitudeDegrees>-1.386979</LongitudeDegrees>
            </Position>
            <AltitudeMeters>793.484</AltitudeMeters>
            <DistanceMeters>547596.51746923</DistanceMeters>
          </Trackpoint>
          <Trackpoint>
            <Time>2021-08-03T15:13:05Z</Time>
            <Position>
              <LatitudeDegrees>41.065777</LatitudeDegrees>
              <LongitudeDegrees>-1.386886</LongitudeDegrees>
            </Position>
            <AltitudeMeters>793.436</AltitudeMeters>
            <DistanceMeters>547604.4759211</DistanceMeters>
          </Trackpoint>
          <Trackpoint>
            <Time>2021-08-03T15:13:06Z</Time>
            <Position>
              <LatitudeDegrees>41.065793</LatitudeDegrees>
              <LongitudeDegrees>-1.386828</LongitudeDegrees>
            </Position>
            <AltitudeMeters>793.466</AltitudeMeters>
            <DistanceMeters>547609.65814527</DistanceMeters>
          </Trackpoint>
          <Trackpoint>
            <Time>2021-08-03T15:13:08Z</Time>
            <Position>
              <LatitudeDegrees>41.065825</LatitudeDegrees>
              <LongitudeDegrees>-1.386694</LongitudeDegrees>
            </Position>
            <AltitudeMeters>792.639</AltitudeMeters>
            <DistanceMeters>547621.45371299</DistanceMeters>
          </Trackpoint>
          <Trackpoint>
            <Time>2021-08-03T15:13:10Z</Time>
            <Position>
              <LatitudeDegrees>41.065770</LatitudeDegrees>
              <LongitudeDegrees>-1.386565</LongitudeDegrees>
            </Position>
            <AltitudeMeters>790.277</AltitudeMeters>
            <DistanceMeters>547633.8902378</DistanceMeters>
          </Trackpoint>
          <Trackpoint>
            <Time>2021-08-03T15:13:12Z</Time>
            <Position>
              <LatitudeDegrees>41.065659</LatitudeDegrees>
              <LongitudeDegrees>-1.386503</LongitudeDegrees>
            </Position>
            <AltitudeMeters>787.452</AltitudeMeters>
            <DistanceMeters>547647.29540551</DistanceMeters>
          </Trackpoint>
          <Trackpoint>
            <Time>2021-08-03T15:13:14Z</Time>
            <Position>
              <LatitudeDegrees>41.065550</LatitudeDegrees>
              <LongitudeDegrees>-1.386398</LongitudeDegrees>
            </Position>
            <AltitudeMeters>784.837</AltitudeMeters>
            <DistanceMeters>547662.28946477</DistanceMeters>
          </Trackpoint>
          <Trackpoint>
            <Time>2021-08-03T15:13:15Z</Time>
            <Position>
              <LatitudeDegrees>41.065493</LatitudeDegrees>
              <LongitudeDegrees>-1.386338</LongitudeDegrees>
            </Position>
            <AltitudeMeters>784.888</AltitudeMeters>
            <DistanceMeters>547670.38962128</DistanceMeters>
          </Trackpoint>
          <Trackpoint>
            <Time>2021-08-03T15:13:17Z</Time>
            <Position>
              <LatitudeDegrees>41.065372</LatitudeDegrees>
              <LongitudeDegrees>-1.386224</LongitudeDegrees>
            </Position>
            <AltitudeMeters>785.128</AltitudeMeters>
            <DistanceMeters>547686.90897085</DistanceMeters>
          </Trackpoint>
          <Trackpoint>
            <Time>2021-08-03T15:13:18Z</Time>
            <Position>
              <LatitudeDegrees>41.065306</LatitudeDegrees>
              <LongitudeDegrees>-1.386182</LongitudeDegrees>
            </Position>
            <AltitudeMeters>785.389</AltitudeMeters>
            <DistanceMeters>547695.05692286</DistanceMeters>
          </Trackpoint>
          <Trackpoint>
            <Time>2021-08-03T15:13:20Z</Time>
            <Position>
              <LatitudeDegrees>41.065188</LatitudeDegrees>
              <LongitudeDegrees>-1.386107</LongitudeDegrees>
            </Position>
            <AltitudeMeters>785.717</AltitudeMeters>
            <DistanceMeters>547709.62083255</DistanceMeters>
          </Trackpoint>
          <Trackpoint>
            <Time>2021-08-03T15:13:22Z</Time>
            <Position>
              <LatitudeDegrees>41.065093</LatitudeDegrees>
              <LongitudeDegrees>-1.386055</LongitudeDegrees>
            </Position>
            <AltitudeMeters>786.208</AltitudeMeters>
            <DistanceMeters>547721.05961779</DistanceMeters>
          </Trackpoint>
          <Trackpoint>
            <Time>2021-08-03T15:13:23Z</Time>
            <Position>
              <LatitudeDegrees>41.065051</LatitudeDegrees>
              <LongitudeDegrees>-1.386028</LongitudeDegrees>
            </Position>
            <AltitudeMeters>786.339</AltitudeMeters>
            <DistanceMeters>547726.25402521</DistanceMeters>
          </Trackpoint>
          <Trackpoint>
            <Time>2021-08-03T15:13:24Z</Time>
            <Position>
              <LatitudeDegrees>41.065007</LatitudeDegrees>
              <LongitudeDegrees>-1.386000</LongitudeDegrees>
            </Position>
            <AltitudeMeters>786.511</AltitudeMeters>
            <DistanceMeters>547731.68636263</DistanceMeters>
          </Trackpoint>
          <Trackpoint>
            <Time>2021-08-03T15:13:26Z</Time>
            <Position>
              <LatitudeDegrees>41.064926</LatitudeDegrees>
              <LongitudeDegrees>-1.385964</LongitudeDegrees>
            </Position>
            <AltitudeMeters>786.881</AltitudeMeters>
            <DistanceMeters>547741.19473396</DistanceMeters>
          </Trackpoint>
          <Trackpoint>
            <Time>2021-08-03T15:13:28Z</Time>
            <Position>
              <LatitudeDegrees>41.064863</LatitudeDegrees>
              <LongitudeDegrees>-1.385927</LongitudeDegrees>
            </Position>
            <AltitudeMeters>787.124</AltitudeMeters>
            <DistanceMeters>547748.86369007</DistanceMeters>
          </Trackpoint>
          <Trackpoint>
            <Time>2021-08-03T15:13:30Z</Time>
            <Position>
              <LatitudeDegrees>41.064814</LatitudeDegrees>
              <LongitudeDegrees>-1.385904</LongitudeDegrees>
            </Position>
            <AltitudeMeters>787.372</AltitudeMeters>
            <DistanceMeters>547754.65018499</DistanceMeters>
          </Trackpoint>
          <Trackpoint>
            <Time>2021-08-03T15:13:33Z</Time>
            <Position>
              <LatitudeDegrees>41.064754</LatitudeDegrees>
              <LongitudeDegrees>-1.385859</LongitudeDegrees>
            </Position>
            <AltitudeMeters>787.777</AltitudeMeters>
            <DistanceMeters>547762.32208425</DistanceMeters>
          </Trackpoint>
          <Trackpoint>
            <Time>2021-08-03T15:13:35Z</Time>
            <Position>
              <LatitudeDegrees>41.064744</LatitudeDegrees>
              <LongitudeDegrees>-1.385763</LongitudeDegrees>
            </Position>
            <AltitudeMeters>787.692</AltitudeMeters>
            <DistanceMeters>547770.45561608</DistanceMeters>
          </Trackpoint>
          <Trackpoint>
            <Time>2021-08-03T15:13:37Z</Time>
            <Position>
              <LatitudeDegrees>41.064753</LatitudeDegrees>
              <LongitudeDegrees>-1.385647</LongitudeDegrees>
            </Position>
            <AltitudeMeters>787.683</AltitudeMeters>
            <DistanceMeters>547780.24198368</DistanceMeters>
          </Trackpoint>
          <Trackpoint>
            <Time>2021-08-03T15:13:39Z</Time>
            <Position>
              <LatitudeDegrees>41.064760</LatitudeDegrees>
              <LongitudeDegrees>-1.385525</LongitudeDegrees>
            </Position>
            <AltitudeMeters>787.438</AltitudeMeters>
            <DistanceMeters>547790.50970701</DistanceMeters>
          </Trackpoint>
          <Trackpoint>
            <Time>2021-08-03T15:13:40Z</Time>
            <Position>
              <LatitudeDegrees>41.064760</LatitudeDegrees>
              <LongitudeDegrees>-1.385459</LongitudeDegrees>
            </Position>
            <AltitudeMeters>787.270</AltitudeMeters>
            <DistanceMeters>547796.04903908</DistanceMeters>
          </Trackpoint>
          <Trackpoint>
            <Time>2021-08-03T15:13:41Z</Time>
            <Position>
              <LatitudeDegrees>41.064766</LatitudeDegrees>
              <LongitudeDegrees>-1.385393</LongitudeDegrees>
            </Position>
            <AltitudeMeters>786.917</AltitudeMeters>
            <DistanceMeters>547801.62735813</DistanceMeters>
          </Trackpoint>
          <Trackpoint>
            <Time>2021-08-03T15:13:43Z</Time>
            <Position>
              <LatitudeDegrees>41.064769</LatitudeDegrees>
              <LongitudeDegrees>-1.385266</LongitudeDegrees>
            </Position>
            <AltitudeMeters>786.708</AltitudeMeters>
            <DistanceMeters>547812.2898467</DistanceMeters>
          </Trackpoint>
          <Trackpoint>
            <Time>2021-08-03T15:13:45Z</Time>
            <Position>
              <LatitudeDegrees>41.064766</LatitudeDegrees>
              <LongitudeDegrees>-1.385133</LongitudeDegrees>
            </Position>
            <AltitudeMeters>786.530</AltitudeMeters>
            <DistanceMeters>547823.45619326</DistanceMeters>
          </Trackpoint>
          <Trackpoint>
            <Time>2021-08-03T15:13:47Z</Time>
            <Position>
              <LatitudeDegrees>41.064770</LatitudeDegrees>
              <LongitudeDegrees>-1.385007</LongitudeDegrees>
            </Position>
            <AltitudeMeters>786.432</AltitudeMeters>
            <DistanceMeters>547834.03877367</DistanceMeters>
          </Trackpoint>
          <Trackpoint>
            <Time>2021-08-03T15:13:49Z</Time>
            <Position>
              <LatitudeDegrees>41.064766</LatitudeDegrees>
              <LongitudeDegrees>-1.384884</LongitudeDegrees>
            </Position>
            <AltitudeMeters>786.352</AltitudeMeters>
            <DistanceMeters>547844.37006127</DistanceMeters>
          </Trackpoint>
          <Trackpoint>
            <Time>2021-08-03T15:13:50Z</Time>
            <Position>
              <LatitudeDegrees>41.064745</LatitudeDegrees>
              <LongitudeDegrees>-1.384827</LongitudeDegrees>
            </Position>
            <AltitudeMeters>786.235</AltitudeMeters>
            <DistanceMeters>547849.69410202</DistanceMeters>
          </Trackpoint>
          <Trackpoint>
            <Time>2021-08-03T15:13:52Z</Time>
            <Position>
              <LatitudeDegrees>41.064674</LatitudeDegrees>
              <LongitudeDegrees>-1.384768</LongitudeDegrees>
            </Position>
            <AltitudeMeters>786.153</AltitudeMeters>
            <DistanceMeters>547859.01883291</DistanceMeters>
          </Trackpoint>
          <Trackpoint>
            <Time>2021-08-03T15:13:54Z</Time>
            <Position>
              <LatitudeDegrees>41.064597</LatitudeDegrees>
              <LongitudeDegrees>-1.384759</LongitudeDegrees>
            </Position>
            <AltitudeMeters>786.078</AltitudeMeters>
            <DistanceMeters>547867.62176883</DistanceMeters>
          </Trackpoint>
          <Trackpoint>
            <Time>2021-08-03T15:13:56Z</Time>
            <Position>
              <LatitudeDegrees>41.064510</LatitudeDegrees>
              <LongitudeDegrees>-1.384748</LongitudeDegrees>
            </Position>
            <AltitudeMeters>785.813</AltitudeMeters>
            <DistanceMeters>547877.3489031</DistanceMeters>
          </Trackpoint>
          <Trackpoint>
            <Time>2021-08-03T15:13:58Z</Time>
            <Position>
              <LatitudeDegrees>41.064419</LatitudeDegrees>
              <LongitudeDegrees>-1.384728</LongitudeDegrees>
            </Position>
            <AltitudeMeters>785.744</AltitudeMeters>
            <DistanceMeters>547887.61574693</DistanceMeters>
          </Trackpoint>
          <Trackpoint>
            <Time>2021-08-03T15:14:00Z</Time>
            <Position>
              <LatitudeDegrees>41.064329</LatitudeDegrees>
              <LongitudeDegrees>-1.384708</LongitudeDegrees>
            </Position>
            <AltitudeMeters>785.938</AltitudeMeters>
            <DistanceMeters>547897.77249805</DistanceMeters>
          </Trackpoint>
          <Trackpoint>
            <Time>2021-08-03T15:14:02Z</Time>
            <Position>
              <LatitudeDegrees>41.064245</LatitudeDegrees>
              <LongitudeDegrees>-1.384709</LongitudeDegrees>
            </Position>
            <AltitudeMeters>785.970</AltitudeMeters>
            <DistanceMeters>547907.12237346</DistanceMeters>
          </Trackpoint>
          <Trackpoint>
            <Time>2021-08-03T15:14:04Z</Time>
            <Position>
              <LatitudeDegrees>41.064159</LatitudeDegrees>
              <LongitudeDegrees>-1.384719</LongitudeDegrees>
            </Position>
            <AltitudeMeters>786.017</AltitudeMeters>
            <DistanceMeters>547916.73088539</DistanceMeters>
          </Trackpoint>
          <Trackpoint>
            <Time>2021-08-03T15:14:06Z</Time>
            <Position>
              <LatitudeDegrees>41.064076</LatitudeDegrees>
              <LongitudeDegrees>-1.384732</LongitudeDegrees>
            </Position>
            <AltitudeMeters>786.008</AltitudeMeters>
            <DistanceMeters>547926.03331639</DistanceMeters>
          </Trackpoint>
          <Trackpoint>
            <Time>2021-08-03T15:14:08Z</Time>
            <Position>
              <LatitudeDegrees>41.063995</LatitudeDegrees>
              <LongitudeDegrees>-1.384756</LongitudeDegrees>
            </Position>
            <AltitudeMeters>786.020</AltitudeMeters>
            <DistanceMeters>547935.27096882</DistanceMeters>
          </Trackpoint>
          <Trackpoint>
            <Time>2021-08-03T15:14:10Z</Time>
            <Position>
              <LatitudeDegrees>41.063920</LatitudeDegrees>
              <LongitudeDegrees>-1.384781</LongitudeDegrees>
            </Position>
            <AltitudeMeters>786.012</AltitudeMeters>
            <DistanceMeters>547943.87810232</DistanceMeters>
          </Trackpoint>
          <Trackpoint>
            <Time>2021-08-03T15:14:12Z</Time>
            <Position>
              <LatitudeDegrees>41.063847</LatitudeDegrees>
              <LongitudeDegrees>-1.384800</LongitudeDegrees>
            </Position>
            <AltitudeMeters>786.542</AltitudeMeters>
            <DistanceMeters>547952.15797795</DistanceMeters>
          </Trackpoint>
          <Trackpoint>
            <Time>2021-08-03T15:14:14Z</Time>
            <Position>
              <LatitudeDegrees>41.063769</LatitudeDegrees>
              <LongitudeDegrees>-1.384819</LongitudeDegrees>
            </Position>
            <AltitudeMeters>786.755</AltitudeMeters>
            <DistanceMeters>547960.98472704</DistanceMeters>
          </Trackpoint>
          <Trackpoint>
            <Time>2021-08-03T15:14:16Z</Time>
            <Position>
              <LatitudeDegrees>41.063689</LatitudeDegrees>
              <LongitudeDegrees>-1.384840</LongitudeDegrees>
            </Position>
            <AltitudeMeters>786.973</AltitudeMeters>
            <DistanceMeters>547970.06164378</DistanceMeters>
          </Trackpoint>
          <Trackpoint>
            <Time>2021-08-03T15:14:18Z</Time>
            <Position>
              <LatitudeDegrees>41.063610</LatitudeDegrees>
              <LongitudeDegrees>-1.384863</LongitudeDegrees>
            </Position>
            <AltitudeMeters>787.118</AltitudeMeters>
            <DistanceMeters>547979.06413988</DistanceMeters>
          </Trackpoint>
          <Trackpoint>
            <Time>2021-08-03T15:14:20Z</Time>
            <Position>
              <LatitudeDegrees>41.063529</LatitudeDegrees>
              <LongitudeDegrees>-1.384885</LongitudeDegrees>
            </Position>
            <AltitudeMeters>787.123</AltitudeMeters>
            <DistanceMeters>547988.26653397</DistanceMeters>
          </Trackpoint>
          <Trackpoint>
            <Time>2021-08-03T15:14:22Z</Time>
            <Position>
              <LatitudeDegrees>41.063451</LatitudeDegrees>
              <LongitudeDegrees>-1.384906</LongitudeDegrees>
            </Position>
            <AltitudeMeters>787.394</AltitudeMeters>
            <DistanceMeters>547997.12545006</DistanceMeters>
          </Trackpoint>
          <Trackpoint>
            <Time>2021-08-03T15:14:24Z</Time>
            <Position>
              <LatitudeDegrees>41.063373</LatitudeDegrees>
              <LongitudeDegrees>-1.384923</LongitudeDegrees>
            </Position>
            <AltitudeMeters>787.439</AltitudeMeters>
            <DistanceMeters>548005.92350753</DistanceMeters>
          </Trackpoint>
          <Trackpoint>
            <Time>2021-08-03T15:14:26Z</Time>
            <Position>
              <LatitudeDegrees>41.063303</LatitudeDegrees>
              <LongitudeDegrees>-1.384917</LongitudeDegrees>
            </Position>
            <AltitudeMeters>787.401</AltitudeMeters>
            <DistanceMeters>548013.73074879</DistanceMeters>
          </Trackpoint>
          <Trackpoint>
            <Time>2021-08-03T15:14:28Z</Time>
            <Position>
              <LatitudeDegrees>41.063235</LatitudeDegrees>
              <LongitudeDegrees>-1.384907</LongitudeDegrees>
            </Position>
            <AltitudeMeters>787.921</AltitudeMeters>
            <DistanceMeters>548021.3459409</DistanceMeters>
          </Trackpoint>
          <Trackpoint>
            <Time>2021-08-03T15:14:30Z</Time>
            <Position>
              <LatitudeDegrees>41.063161</LatitudeDegrees>
              <LongitudeDegrees>-1.384903</LongitudeDegrees>
            </Position>
            <AltitudeMeters>787.908</AltitudeMeters>
            <DistanceMeters>548029.58974799</DistanceMeters>
          </Trackpoint>
          <Trackpoint>
            <Time>2021-08-03T15:14:32Z</Time>
            <Position>
              <LatitudeDegrees>41.063110</LatitudeDegrees>
              <LongitudeDegrees>-1.384893</LongitudeDegrees>
            </Position>
            <AltitudeMeters>788.210</AltitudeMeters>
            <DistanceMeters>548035.32766213</DistanceMeters>
          </Trackpoint>
          <Trackpoint>
            <Time>2021-08-03T15:14:34Z</Time>
            <Position>
              <LatitudeDegrees>41.063063</LatitudeDegrees>
              <LongitudeDegrees>-1.384886</LongitudeDegrees>
            </Position>
            <AltitudeMeters>788.372</AltitudeMeters>
            <DistanceMeters>548040.59200489</DistanceMeters>
          </Trackpoint>
          <Trackpoint>
            <Time>2021-08-03T15:14:36Z</Time>
            <Position>
              <LatitudeDegrees>41.062995</LatitudeDegrees>
              <LongitudeDegrees>-1.384877</LongitudeDegrees>
            </Position>
            <AltitudeMeters>788.682</AltitudeMeters>
            <DistanceMeters>548048.19829832</DistanceMeters>
          </Trackpoint>
          <Trackpoint>
            <Time>2021-08-03T15:14:38Z</Time>
            <Position>
              <LatitudeDegrees>41.062916</LatitudeDegrees>
              <LongitudeDegrees>-1.384866</LongitudeDegrees>
            </Position>
            <AltitudeMeters>788.975</AltitudeMeters>
            <DistanceMeters>548057.0393583</DistanceMeters>
          </Trackpoint>
          <Trackpoint>
            <Time>2021-08-03T15:14:40Z</Time>
            <Position>
              <LatitudeDegrees>41.062842</LatitudeDegrees>
              <LongitudeDegrees>-1.384864</LongitudeDegrees>
            </Position>
            <AltitudeMeters>789.173</AltitudeMeters>
            <DistanceMeters>548065.27768669</DistanceMeters>
          </Trackpoint>
          <Trackpoint>
            <Time>2021-08-03T15:14:42Z</Time>
            <Position>
              <LatitudeDegrees>41.062769</LatitudeDegrees>
              <LongitudeDegrees>-1.384858</LongitudeDegrees>
            </Position>
            <AltitudeMeters>789.218</AltitudeMeters>
            <DistanceMeters>548073.41898641</DistanceMeters>
          </Trackpoint>
          <Trackpoint>
            <Time>2021-08-03T15:14:44Z</Time>
            <Position>
              <LatitudeDegrees>41.062707</LatitudeDegrees>
              <LongitudeDegrees>-1.384856</LongitudeDegrees>
            </Position>
            <AltitudeMeters>789.393</AltitudeMeters>
            <DistanceMeters>548080.32135436</DistanceMeters>
          </Trackpoint>
          <Trackpoint>
            <Time>2021-08-03T15:14:46Z</Time>
            <Position>
              <LatitudeDegrees>41.062635</LatitudeDegrees>
              <LongitudeDegrees>-1.384851</LongitudeDegrees>
            </Position>
            <AltitudeMeters>789.544</AltitudeMeters>
            <DistanceMeters>548088.3464715</DistanceMeters>
          </Trackpoint>
          <Trackpoint>
            <Time>2021-08-03T15:14:48Z</Time>
            <Position>
              <LatitudeDegrees>41.062555</LatitudeDegrees>
              <LongitudeDegrees>-1.384845</LongitudeDegrees>
            </Position>
            <AltitudeMeters>789.721</AltitudeMeters>
            <DistanceMeters>548097.26481851</DistanceMeters>
          </Trackpoint>
          <Trackpoint>
            <Time>2021-08-03T15:14:50Z</Time>
            <Position>
              <LatitudeDegrees>41.062471</LatitudeDegrees>
              <LongitudeDegrees>-1.384843</LongitudeDegrees>
            </Position>
            <AltitudeMeters>789.741</AltitudeMeters>
            <DistanceMeters>548106.61565966</DistanceMeters>
          </Trackpoint>
          <Trackpoint>
            <Time>2021-08-03T15:14:52Z</Time>
            <Position>
              <LatitudeDegrees>41.062391</LatitudeDegrees>
              <LongitudeDegrees>-1.384840</LongitudeDegrees>
            </Position>
            <AltitudeMeters>789.705</AltitudeMeters>
            <DistanceMeters>548115.52336877</DistanceMeters>
          </Trackpoint>
          <Trackpoint>
            <Time>2021-08-03T15:14:54Z</Time>
            <Position>
              <LatitudeDegrees>41.062315</LatitudeDegrees>
              <LongitudeDegrees>-1.384843</LongitudeDegrees>
            </Position>
            <AltitudeMeters>790.008</AltitudeMeters>
            <DistanceMeters>548123.98661675</DistanceMeters>
          </Trackpoint>
          <Trackpoint>
            <Time>2021-08-03T15:14:56Z</Time>
            <Position>
              <LatitudeDegrees>41.062234</LatitudeDegrees>
              <LongitudeDegrees>-1.384853</LongitudeDegrees>
            </Position>
            <AltitudeMeters>790.289</AltitudeMeters>
            <DistanceMeters>548133.04112193</DistanceMeters>
          </Trackpoint>
          <Trackpoint>
            <Time>2021-08-03T15:14:58Z</Time>
            <Position>
              <LatitudeDegrees>41.062159</LatitudeDegrees>
              <LongitudeDegrees>-1.384886</LongitudeDegrees>
            </Position>
            <AltitudeMeters>790.751</AltitudeMeters>
            <DistanceMeters>548141.83609975</DistanceMeters>
          </Trackpoint>
          <Trackpoint>
            <Time>2021-08-03T15:14:59Z</Time>
            <Position>
              <LatitudeDegrees>41.062113</LatitudeDegrees>
              <LongitudeDegrees>-1.384893</LongitudeDegrees>
            </Position>
            <AltitudeMeters>790.911</AltitudeMeters>
            <DistanceMeters>548146.9894923</DistanceMeters>
          </Trackpoint>
          <Trackpoint>
            <Time>2021-08-03T15:15:01Z</Time>
            <Position>
              <LatitudeDegrees>41.062032</LatitudeDegrees>
              <LongitudeDegrees>-1.384893</LongitudeDegrees>
            </Position>
            <AltitudeMeters>790.974</AltitudeMeters>
            <DistanceMeters>548156.0055196</DistanceMeters>
          </Trackpoint>
          <Trackpoint>
            <Time>2021-08-03T15:15:03Z</Time>
            <Position>
              <LatitudeDegrees>41.061968</LatitudeDegrees>
              <LongitudeDegrees>-1.384909</LongitudeDegrees>
            </Position>
            <AltitudeMeters>791.222</AltitudeMeters>
            <DistanceMeters>548163.25500543</DistanceMeters>
          </Trackpoint>
          <Trackpoint>
            <Time>2021-08-03T15:15:04Z</Time>
            <Position>
              <LatitudeDegrees>41.061919</LatitudeDegrees>
              <LongitudeDegrees>-1.384912</LongitudeDegrees>
            </Position>
            <AltitudeMeters>791.377</AltitudeMeters>
            <DistanceMeters>548168.71470161</DistanceMeters>
          </Trackpoint>
          <Trackpoint>
            <Time>2021-08-03T15:15:06Z</Time>
            <Position>
              <LatitudeDegrees>41.061827</LatitudeDegrees>
              <LongitudeDegrees>-1.384925</LongitudeDegrees>
            </Position>
            <AltitudeMeters>791.622</AltitudeMeters>
            <DistanceMeters>548179.0127217</DistanceMeters>
          </Trackpoint>
          <Trackpoint>
            <Time>2021-08-03T15:15:08Z</Time>
            <Position>
              <LatitudeDegrees>41.061743</LatitudeDegrees>
              <LongitudeDegrees>-1.384939</LongitudeDegrees>
            </Position>
            <AltitudeMeters>791.943</AltitudeMeters>
            <DistanceMeters>548188.4361909</DistanceMeters>
          </Trackpoint>
          <Trackpoint>
            <Time>2021-08-03T15:15:10Z</Time>
            <Position>
              <LatitudeDegrees>41.061661</LatitudeDegrees>
              <LongitudeDegrees>-1.384956</LongitudeDegrees>
            </Position>
            <AltitudeMeters>792.121</AltitudeMeters>
            <DistanceMeters>548197.67384333</DistanceMeters>
          </Trackpoint>
          <Trackpoint>
            <Time>2021-08-03T15:15:12Z</Time>
            <Position>
              <LatitudeDegrees>41.061578</LatitudeDegrees>
              <LongitudeDegrees>-1.384971</LongitudeDegrees>
            </Position>
            <AltitudeMeters>792.241</AltitudeMeters>
            <DistanceMeters>548206.99760576</DistanceMeters>
          </Trackpoint>
          <Trackpoint>
            <Time>2021-08-03T15:15:14Z</Time>
            <Position>
              <LatitudeDegrees>41.061498</LatitudeDegrees>
              <LongitudeDegrees>-1.384980</LongitudeDegrees>
            </Position>
            <AltitudeMeters>792.305</AltitudeMeters>
            <DistanceMeters>548215.93365444</DistanceMeters>
          </Trackpoint>
          <Trackpoint>
            <Time>2021-08-03T15:15:16Z</Time>
            <Position>
              <LatitudeDegrees>41.061415</LatitudeDegrees>
              <LongitudeDegrees>-1.384985</LongitudeDegrees>
            </Position>
            <AltitudeMeters>792.508</AltitudeMeters>
            <DistanceMeters>548225.181077</DistanceMeters>
          </Trackpoint>
          <Trackpoint>
            <Time>2021-08-03T15:15:19Z</Time>
            <Position>
              <LatitudeDegrees>41.061312</LatitudeDegrees>
              <LongitudeDegrees>-1.384955</LongitudeDegrees>
            </Position>
            <AltitudeMeters>792.859</AltitudeMeters>
            <DistanceMeters>548236.91831885</DistanceMeters>
          </Trackpoint>
          <Trackpoint>
            <Time>2021-08-03T15:15:21Z</Time>
            <Position>
              <LatitudeDegrees>41.061238</LatitudeDegrees>
              <LongitudeDegrees>-1.384966</LongitudeDegrees>
            </Position>
            <AltitudeMeters>793.191</AltitudeMeters>
            <DistanceMeters>548245.20582519</DistanceMeters>
          </Trackpoint>
          <Trackpoint>
            <Time>2021-08-03T15:15:23Z</Time>
            <Position>
              <LatitudeDegrees>41.061164</LatitudeDegrees>
              <LongitudeDegrees>-1.384984</LongitudeDegrees>
            </Position>
            <AltitudeMeters>793.221</AltitudeMeters>
            <DistanceMeters>548253.5795068</DistanceMeters>
          </Trackpoint>
          <Trackpoint>
            <Time>2021-08-03T15:15:26Z</Time>
            <Position>
              <LatitudeDegrees>41.061114</LatitudeDegrees>
              <LongitudeDegrees>-1.384992</LongitudeDegrees>
            </Position>
            <AltitudeMeters>793.414</AltitudeMeters>
            <DistanceMeters>548259.18366649</DistanceMeters>
          </Trackpoint>
          <Trackpoint>
            <Time>2021-08-03T15:15:28Z</Time>
            <Position>
              <LatitudeDegrees>41.061070</LatitudeDegrees>
              <LongitudeDegrees>-1.385014</LongitudeDegrees>
            </Position>
            <AltitudeMeters>793.552</AltitudeMeters>
            <DistanceMeters>548264.41790492</DistanceMeters>
          </Trackpoint>
          <Trackpoint>
            <Time>2021-08-03T15:15:30Z</Time>
            <Position>
              <LatitudeDegrees>41.061011</LatitudeDegrees>
              <LongitudeDegrees>-1.385044</LongitudeDegrees>
            </Position>
            <AltitudeMeters>793.547</AltitudeMeters>
            <DistanceMeters>548271.45116581</DistanceMeters>
          </Trackpoint>
          <Trackpoint>
            <Time>2021-08-03T15:15:32Z</Time>
            <Position>
              <LatitudeDegrees>41.060945</LatitudeDegrees>
              <LongitudeDegrees>-1.385075</LongitudeDegrees>
            </Position>
            <AltitudeMeters>793.652</AltitudeMeters>
            <DistanceMeters>548279.2439358</DistanceMeters>
          </Trackpoint>
          <Trackpoint>
            <Time>2021-08-03T15:15:34Z</Time>
            <Position>
              <LatitudeDegrees>41.060878</LatitudeDegrees>
              <LongitudeDegrees>-1.385108</LongitudeDegrees>
            </Position>
            <AltitudeMeters>793.673</AltitudeMeters>
            <DistanceMeters>548287.19841539</DistanceMeters>
          </Trackpoint>
          <Trackpoint>
            <Time>2021-08-03T15:15:36Z</Time>
            <Position>
              <LatitudeDegrees>41.060759</LatitudeDegrees>
              <LongitudeDegrees>-1.385175</LongitudeDegrees>
            </Position>
            <AltitudeMeters>793.731</AltitudeMeters>
            <DistanceMeters>548301.58735534</DistanceMeters>
          </Trackpoint>
          <Trackpoint>
            <Time>2021-08-03T15:15:38Z</Time>
            <Position>
              <LatitudeDegrees>41.060705</LatitudeDegrees>
              <LongitudeDegrees>-1.385200</LongitudeDegrees>
            </Position>
            <AltitudeMeters>794.161</AltitudeMeters>
            <DistanceMeters>548307.95343601</DistanceMeters>
          </Trackpoint>
          <Trackpoint>
            <Time>2021-08-03T15:15:40Z</Time>
            <Position>
              <LatitudeDegrees>41.060644</LatitudeDegrees>
              <LongitudeDegrees>-1.385236</LongitudeDegrees>
            </Position>
            <AltitudeMeters>794.207</AltitudeMeters>
            <DistanceMeters>548315.38498682</DistanceMeters>
          </Trackpoint>
          <Trackpoint>
            <Time>2021-08-03T15:15:42Z</Time>
            <Position>
              <LatitudeDegrees>41.060584</LatitudeDegrees>
              <LongitudeDegrees>-1.385273</LongitudeDegrees>
            </Position>
            <AltitudeMeters>794.708</AltitudeMeters>
            <DistanceMeters>548322.75001698</DistanceMeters>
          </Trackpoint>
          <Trackpoint>
            <Time>2021-08-03T15:15:44Z</Time>
            <Position>
              <LatitudeDegrees>41.060526</LatitudeDegrees>
              <LongitudeDegrees>-1.385301</LongitudeDegrees>
            </Position>
            <AltitudeMeters>794.880</AltitudeMeters>
            <DistanceMeters>548329.620915</DistanceMeters>
          </Trackpoint>
          <Trackpoint>
            <Time>2021-08-03T15:15:46Z</Time>
            <Position>
              <LatitudeDegrees>41.060451</LatitudeDegrees>
              <LongitudeDegrees>-1.385340</LongitudeDegrees>
            </Position>
            <AltitudeMeters>795.032</AltitudeMeters>
            <DistanceMeters>548338.58773164</DistanceMeters>
          </Trackpoint>
          <Trackpoint>
            <Time>2021-08-03T15:15:48Z</Time>
            <Position>
              <LatitudeDegrees>41.060390</LatitudeDegrees>
              <LongitudeDegrees>-1.385387</LongitudeDegrees>
            </Position>
            <AltitudeMeters>795.122</AltitudeMeters>
            <DistanceMeters>548346.43995183</DistanceMeters>
          </Trackpoint>
          <Trackpoint>
            <Time>2021-08-03T15:15:50Z</Time>
            <Position>
              <LatitudeDegrees>41.060354</LatitudeDegrees>
              <LongitudeDegrees>-1.385435</LongitudeDegrees>
            </Position>
            <AltitudeMeters>795.465</AltitudeMeters>
            <DistanceMeters>548352.12172297</DistanceMeters>
          </Trackpoint>
          <Trackpoint>
            <Time>2021-08-03T15:15:52Z</Time>
            <Position>
              <LatitudeDegrees>41.060305</LatitudeDegrees>
              <LongitudeDegrees>-1.385477</LongitudeDegrees>
            </Position>
            <AltitudeMeters>795.643</AltitudeMeters>
            <DistanceMeters>548358.61629664</DistanceMeters>
          </Trackpoint>
          <Trackpoint>
            <Time>2021-08-03T15:15:54Z</Time>
            <Position>
              <LatitudeDegrees>41.060254</LatitudeDegrees>
              <LongitudeDegrees>-1.385523</LongitudeDegrees>
            </Position>
            <AltitudeMeters>795.798</AltitudeMeters>
            <DistanceMeters>548365.48062027</DistanceMeters>
          </Trackpoint>
          <Trackpoint>
            <Time>2021-08-03T15:15:56Z</Time>
            <Position>
              <LatitudeDegrees>41.060197</LatitudeDegrees>
              <LongitudeDegrees>-1.385549</LongitudeDegrees>
            </Position>
            <AltitudeMeters>796.033</AltitudeMeters>
            <DistanceMeters>548372.18926402</DistanceMeters>
          </Trackpoint>
          <Trackpoint>
            <Time>2021-08-03T15:15:58Z</Time>
            <Position>
              <LatitudeDegrees>41.060127</LatitudeDegrees>
              <LongitudeDegrees>-1.385545</LongitudeDegrees>
            </Position>
            <AltitudeMeters>796.114</AltitudeMeters>
            <DistanceMeters>548379.98724676</DistanceMeters>
          </Trackpoint>
          <Trackpoint>
            <Time>2021-08-03T15:16:00Z</Time>
            <Position>
              <LatitudeDegrees>41.060051</LatitudeDegrees>
              <LongitudeDegrees>-1.385528</LongitudeDegrees>
            </Position>
            <AltitudeMeters>796.347</AltitudeMeters>
            <DistanceMeters>548388.56548043</DistanceMeters>
          </Trackpoint>
          <Trackpoint>
            <Time>2021-08-03T15:16:02Z</Time>
            <Position>
              <LatitudeDegrees>41.059958</LatitudeDegrees>
              <LongitudeDegrees>-1.385511</LongitudeDegrees>
            </Position>
            <AltitudeMeters>796.329</AltitudeMeters>
            <DistanceMeters>548399.01409872</DistanceMeters>
          </Trackpoint>
          <Trackpoint>
            <Time>2021-08-03T15:16:03Z</Time>
            <Position>
              <LatitudeDegrees>41.059907</LatitudeDegrees>
              <LongitudeDegrees>-1.385504</LongitudeDegrees>
            </Position>
            <AltitudeMeters>796.321</AltitudeMeters>
            <DistanceMeters>548404.72045094</DistanceMeters>
          </Trackpoint>
          <Trackpoint>
            <Time>2021-08-03T15:16:05Z</Time>
            <Position>
              <LatitudeDegrees>41.059804</LatitudeDegrees>
              <LongitudeDegrees>-1.385478</LongitudeDegrees>
            </Position>
            <AltitudeMeters>795.108</AltitudeMeters>
            <DistanceMeters>548416.38979337</DistanceMeters>
          </Trackpoint>
          <Trackpoint>
            <Time>2021-08-03T15:16:07Z</Time>
            <Position>
              <LatitudeDegrees>41.059704</LatitudeDegrees>
              <LongitudeDegrees>-1.385447</LongitudeDegrees>
            </Position>
            <AltitudeMeters>794.591</AltitudeMeters>
            <DistanceMeters>548427.81989162</DistanceMeters>
          </Trackpoint>
          <Trackpoint>
            <Time>2021-08-03T15:16:08Z</Time>
            <Position>
              <LatitudeDegrees>41.059649</LatitudeDegrees>
              <LongitudeDegrees>-1.385406</LongitudeDegrees>
            </Position>
            <AltitudeMeters>794.163</AltitudeMeters>
            <DistanceMeters>548434.84158781</DistanceMeters>
          </Trackpoint>
          <Trackpoint>
            <Time>2021-08-03T15:16:10Z</Time>
            <Position>
              <LatitudeDegrees>41.059529</LatitudeDegrees>
              <LongitudeDegrees>-1.385353</LongitudeDegrees>
            </Position>
            <AltitudeMeters>793.913</AltitudeMeters>
            <DistanceMeters>548448.9190186</DistanceMeters>
          </Trackpoint>
          <Trackpoint>
            <Time>2021-08-03T15:16:12Z</Time>
            <Position>
              <LatitudeDegrees>41.059443</LatitudeDegrees>
              <LongitudeDegrees>-1.385285</LongitudeDegrees>
            </Position>
            <AltitudeMeters>794.326</AltitudeMeters>
            <DistanceMeters>548460.06310409</DistanceMeters>
          </Trackpoint>
          <Trackpoint>
            <Time>2021-08-03T15:16:16Z</Time>
            <Position>
              <LatitudeDegrees>41.059393</LatitudeDegrees>
              <LongitudeDegrees>-1.385276</LongitudeDegrees>
            </Position>
            <AltitudeMeters>794.374</AltitudeMeters>
            <DistanceMeters>548465.67933566</DistanceMeters>
          </Trackpoint>
          <Trackpoint>
            <Time>2021-08-03T15:16:18Z</Time>
            <Position>
              <LatitudeDegrees>41.059198</LatitudeDegrees>
              <LongitudeDegrees>-1.385187</LongitudeDegrees>
            </Position>
            <AltitudeMeters>794.829</AltitudeMeters>
            <DistanceMeters>548488.63276264</DistanceMeters>
          </Trackpoint>
          <Trackpoint>
            <Time>2021-08-03T15:16:20Z</Time>
            <Position>
              <LatitudeDegrees>41.059116</LatitudeDegrees>
              <LongitudeDegrees>-1.385137</LongitudeDegrees>
            </Position>
            <AltitudeMeters>794.684</AltitudeMeters>
            <DistanceMeters>548498.67776508</DistanceMeters>
          </Trackpoint>
          <Trackpoint>
            <Time>2021-08-03T15:16:22Z</Time>
            <Position>
              <LatitudeDegrees>41.059028</LatitudeDegrees>
              <LongitudeDegrees>-1.385102</LongitudeDegrees>
            </Position>
            <AltitudeMeters>794.545</AltitudeMeters>
            <DistanceMeters>548508.90318709</DistanceMeters>
          </Trackpoint>
          <Trackpoint>
            <Time>2021-08-03T15:16:23Z</Time>
            <Position>
              <LatitudeDegrees>41.058982</LatitudeDegrees>
              <LongitudeDegrees>-1.385098</LongitudeDegrees>
            </Position>
            <AltitudeMeters>794.636</AltitudeMeters>
            <DistanceMeters>548514.03462966</DistanceMeters>
          </Trackpoint>
          <Trackpoint>
            <Time>2021-08-03T15:16:24Z</Time>
            <Position>
              <LatitudeDegrees>41.058936</LatitudeDegrees>
              <LongitudeDegrees>-1.385094</LongitudeDegrees>
            </Position>
            <AltitudeMeters>794.917</AltitudeMeters>
            <DistanceMeters>548519.16607224</DistanceMeters>
          </Trackpoint>
          <Trackpoint>
            <Time>2021-08-03T15:16:27Z</Time>
            <Position>
              <LatitudeDegrees>41.058873</LatitudeDegrees>
              <LongitudeDegrees>-1.385090</LongitudeDegrees>
            </Position>
            <AltitudeMeters>795.118</AltitudeMeters>
            <DistanceMeters>548526.18648229</DistanceMeters>
          </Trackpoint>
          <Trackpoint>
            <Time>2021-08-03T15:16:29Z</Time>
            <Position>
              <LatitudeDegrees>41.058786</LatitudeDegrees>
              <LongitudeDegrees>-1.385082</LongitudeDegrees>
            </Position>
            <AltitudeMeters>795.108</AltitudeMeters>
            <DistanceMeters>548535.89317161</DistanceMeters>
          </Trackpoint>
          <Trackpoint>
            <Time>2021-08-03T15:16:30Z</Time>
            <Position>
              <LatitudeDegrees>41.058739</LatitudeDegrees>
              <LongitudeDegrees>-1.385073</LongitudeDegrees>
            </Position>
            <AltitudeMeters>795.070</AltitudeMeters>
            <DistanceMeters>548541.17891248</DistanceMeters>
          </Trackpoint>
          <Trackpoint>
            <Time>2021-08-03T15:16:31Z</Time>
            <Position>
              <LatitudeDegrees>41.058690</LatitudeDegrees>
              <LongitudeDegrees>-1.385059</LongitudeDegrees>
            </Position>
            <AltitudeMeters>794.952</AltitudeMeters>
            <DistanceMeters>548546.75804086</DistanceMeters>
          </Trackpoint>
          <Trackpoint>
            <Time>2021-08-03T15:16:32Z</Time>
            <Position>
              <LatitudeDegrees>41.058640</LatitudeDegrees>
              <LongitudeDegrees>-1.385042</LongitudeDegrees>
            </Position>
            <AltitudeMeters>794.892</AltitudeMeters>
            <DistanceMeters>548552.50303254</DistanceMeters>
          </Trackpoint>
          <Trackpoint>
            <Time>2021-08-03T15:16:34Z</Time>
            <Position>
              <LatitudeDegrees>41.058520</LatitudeDegrees>
              <LongitudeDegrees>-1.384993</LongitudeDegrees>
            </Position>
            <AltitudeMeters>794.815</AltitudeMeters>
            <DistanceMeters>548566.47809938</DistanceMeters>
          </Trackpoint>
          <Trackpoint>
            <Time>2021-08-03T15:16:35Z</Time>
            <Position>
              <LatitudeDegrees>41.058459</LatitudeDegrees>
              <LongitudeDegrees>-1.384958</LongitudeDegrees>
            </Position>
            <AltitudeMeters>794.843</AltitudeMeters>
            <DistanceMeters>548573.87554916</DistanceMeters>
          </Trackpoint>
          <Trackpoint>
            <Time>2021-08-03T15:16:37Z</Time>
            <Position>
              <LatitudeDegrees>41.058334</LatitudeDegrees>
              <LongitudeDegrees>-1.384878</LongitudeDegrees>
            </Position>
            <AltitudeMeters>795.148</AltitudeMeters>
            <DistanceMeters>548589.32345615</DistanceMeters>
          </Trackpoint>
          <Trackpoint>
            <Time>2021-08-03T15:16:38Z</Time>
            <Position>
              <LatitudeDegrees>41.058271</LatitudeDegrees>
              <LongitudeDegrees>-1.384837</LongitudeDegrees>
            </Position>
            <AltitudeMeters>795.173</AltitudeMeters>
            <DistanceMeters>548597.13416652</DistanceMeters>
          </Trackpoint>
          <Trackpoint>
            <Time>2021-08-03T15:16:39Z</Time>
            <Position>
              <LatitudeDegrees>41.058213</LatitudeDegrees>
              <LongitudeDegrees>-1.384799</LongitudeDegrees>
            </Position>
            <AltitudeMeters>795.224</AltitudeMeters>
            <DistanceMeters>548604.3336553</DistanceMeters>
          </Trackpoint>
          <Trackpoint>
            <Time>2021-08-03T15:16:41Z</Time>
            <Position>
              <LatitudeDegrees>41.058145</LatitudeDegrees>
              <LongitudeDegrees>-1.384770</LongitudeDegrees>
            </Position>
            <AltitudeMeters>795.185</AltitudeMeters>
            <DistanceMeters>548612.28416064</DistanceMeters>
          </Trackpoint>
          <Trackpoint>
            <Time>2021-08-03T15:16:43Z</Time>
            <Position>
              <LatitudeDegrees>41.058097</LatitudeDegrees>
              <LongitudeDegrees>-1.384758</LongitudeDegrees>
            </Position>
            <AltitudeMeters>795.089</AltitudeMeters>
            <DistanceMeters>548617.72148262</DistanceMeters>
          </Trackpoint>
          <Trackpoint>
            <Time>2021-08-03T15:16:44Z</Time>
            <Position>
              <LatitudeDegrees>41.058049</LatitudeDegrees>
              <LongitudeDegrees>-1.384735</LongitudeDegrees>
            </Position>
            <AltitudeMeters>794.917</AltitudeMeters>
            <DistanceMeters>548623.40245905</DistanceMeters>
          </Trackpoint>
          <Trackpoint>
            <Time>2021-08-03T15:16:45Z</Time>
            <Position>
              <LatitudeDegrees>41.058006</LatitudeDegrees>
              <LongitudeDegrees>-1.384706</LongitudeDegrees>
            </Position>
            <AltitudeMeters>794.908</AltitudeMeters>
            <DistanceMeters>548628.77125817</DistanceMeters>
          </Trackpoint>
          <Trackpoint>
            <Time>2021-08-03T15:16:46Z</Time>
            <Position>
              <LatitudeDegrees>41.057964</LatitudeDegrees>
              <LongitudeDegrees>-1.384679</LongitudeDegrees>
            </Position>
            <AltitudeMeters>794.985</AltitudeMeters>
            <DistanceMeters>548633.96566559</DistanceMeters>
          </Trackpoint>
          <Trackpoint>
            <Time>2021-08-03T15:16:47Z</Time>
            <Position>
              <LatitudeDegrees>41.057922</LatitudeDegrees>
              <LongitudeDegrees>-1.384651</LongitudeDegrees>
            </Position>
            <AltitudeMeters>794.717</AltitudeMeters>
            <DistanceMeters>548639.19817854</DistanceMeters>
          </Trackpoint>
          <Trackpoint>
            <Time>2021-08-03T15:16:49Z</Time>
            <Position>
              <LatitudeDegrees>41.057842</LatitudeDegrees>
              <LongitudeDegrees>-1.384587</LongitudeDegrees>
            </Position>
            <AltitudeMeters>794.477</AltitudeMeters>
            <DistanceMeters>548649.5965503</DistanceMeters>
          </Trackpoint>
          <Trackpoint>
            <Time>2021-08-03T15:16:51Z</Time>
            <Position>
              <LatitudeDegrees>41.057760</LatitudeDegrees>
              <LongitudeDegrees>-1.384529</LongitudeDegrees>
            </Position>
            <AltitudeMeters>794.160</AltitudeMeters>
            <DistanceMeters>548659.94050389</DistanceMeters>
          </Trackpoint>
          <Trackpoint>
            <Time>2021-08-03T15:16:52Z</Time>
            <Position>
              <LatitudeDegrees>41.057716</LatitudeDegrees>
              <LongitudeDegrees>-1.384500</LongitudeDegrees>
            </Position>
            <AltitudeMeters>794.148</AltitudeMeters>
            <DistanceMeters>548665.40928923</DistanceMeters>
          </Trackpoint>
          <Trackpoint>
            <Time>2021-08-03T15:16:53Z</Time>
            <Position>
              <LatitudeDegrees>41.057672</LatitudeDegrees>
              <LongitudeDegrees>-1.384470</LongitudeDegrees>
            </Position>
            <AltitudeMeters>794.373</AltitudeMeters>
            <DistanceMeters>548670.9159213</DistanceMeters>
          </Trackpoint>
          <Trackpoint>
            <Time>2021-08-03T15:16:55Z</Time>
            <Position>
              <LatitudeDegrees>41.057589</LatitudeDegrees>
              <LongitudeDegrees>-1.384387</LongitudeDegrees>
            </Position>
            <AltitudeMeters>794.578</AltitudeMeters>
            <DistanceMeters>548682.48657009</DistanceMeters>
          </Trackpoint>
          <Trackpoint>
            <Time>2021-08-03T15:16:57Z</Time>
            <Position>
              <LatitudeDegrees>41.057544</LatitudeDegrees>
              <LongitudeDegrees>-1.384344</LongitudeDegrees>
            </Position>
            <AltitudeMeters>794.869</AltitudeMeters>
            <DistanceMeters>548688.66111321</DistanceMeters>
          </Trackpoint>
          <Trackpoint>
            <Time>2021-08-03T15:16:58Z</Time>
            <Position>
              <LatitudeDegrees>41.057508</LatitudeDegrees>
              <LongitudeDegrees>-1.384305</LongitudeDegrees>
            </Position>
            <AltitudeMeters>794.814</AltitudeMeters>
            <DistanceMeters>548693.83636264</DistanceMeters>
          </Trackpoint>
          <Trackpoint>
            <Time>2021-08-03T15:16:59Z</Time>
            <Position>
              <LatitudeDegrees>41.057469</LatitudeDegrees>
              <LongitudeDegrees>-1.384258</LongitudeDegrees>
            </Position>
            <AltitudeMeters>794.854</AltitudeMeters>
            <DistanceMeters>548699.70190535</DistanceMeters>
          </Trackpoint>
          <Trackpoint>
            <Time>2021-08-03T15:17:01Z</Time>
            <Position>
              <LatitudeDegrees>41.057401</LatitudeDegrees>
              <LongitudeDegrees>-1.384140</LongitudeDegrees>
            </Position>
            <AltitudeMeters>794.909</AltitudeMeters>
            <DistanceMeters>548712.16599116</DistanceMeters>
          </Trackpoint>
          <Trackpoint>
            <Time>2021-08-03T15:17:03Z</Time>
            <Position>
              <LatitudeDegrees>41.057341</LatitudeDegrees>
              <LongitudeDegrees>-1.384038</LongitudeDegrees>
            </Position>
            <AltitudeMeters>795.008</AltitudeMeters>
            <DistanceMeters>548723.02318315</DistanceMeters>
          </Trackpoint>
          <Trackpoint>
            <Time>2021-08-03T15:17:05Z</Time>
            <Position>
              <LatitudeDegrees>41.057304</LatitudeDegrees>
              <LongitudeDegrees>-1.383994</LongitudeDegrees>
            </Position>
            <AltitudeMeters>795.588</AltitudeMeters>
            <DistanceMeters>548728.55435834</DistanceMeters>
          </Trackpoint>
          <Trackpoint>
            <Time>2021-08-03T15:17:07Z</Time>
            <Position>
              <LatitudeDegrees>41.057255</LatitudeDegrees>
              <LongitudeDegrees>-1.383947</LongitudeDegrees>
            </Position>
            <AltitudeMeters>795.910</AltitudeMeters>
            <DistanceMeters>548735.28450421</DistanceMeters>
          </Trackpoint>
          <Trackpoint>
            <Time>2021-08-03T15:17:10Z</Time>
            <Position>
              <LatitudeDegrees>41.057169</LatitudeDegrees>
              <LongitudeDegrees>-1.383882</LongitudeDegrees>
            </Position>
            <AltitudeMeters>795.910</AltitudeMeters>
            <DistanceMeters>548746.30186722</DistanceMeters>
          </Trackpoint>
          <Trackpoint>
            <Time>2021-08-03T15:17:11Z</Time>
            <Position>
              <LatitudeDegrees>41.057118</LatitudeDegrees>
              <LongitudeDegrees>-1.383849</LongitudeDegrees>
            </Position>
            <AltitudeMeters>795.963</AltitudeMeters>
            <DistanceMeters>548752.6166766</DistanceMeters>
          </Trackpoint>
          <Trackpoint>
            <Time>2021-08-03T15:17:13Z</Time>
            <Position>
              <LatitudeDegrees>41.057014</LatitudeDegrees>
              <LongitudeDegrees>-1.383782</LongitudeDegrees>
            </Position>
            <AltitudeMeters>795.911</AltitudeMeters>
            <DistanceMeters>548765.48499203</DistanceMeters>
          </Trackpoint>
          <Trackpoint>
            <Time>2021-08-03T15:17:14Z</Time>
            <Position>
              <LatitudeDegrees>41.056963</LatitudeDegrees>
              <LongitudeDegrees>-1.383740</LongitudeDegrees>
            </Position>
            <AltitudeMeters>795.826</AltitudeMeters>
            <DistanceMeters>548772.16666083</DistanceMeters>
          </Trackpoint>
          <Trackpoint>
            <Time>2021-08-03T15:17:16Z</Time>
            <Position>
              <LatitudeDegrees>41.056901</LatitudeDegrees>
              <LongitudeDegrees>-1.383666</LongitudeDegrees>
            </Position>
            <AltitudeMeters>795.761</AltitudeMeters>
            <DistanceMeters>548781.45014345</DistanceMeters>
          </Trackpoint>
          <Trackpoint>
            <Time>2021-08-03T15:17:18Z</Time>
            <Position>
              <LatitudeDegrees>41.056874</LatitudeDegrees>
              <LongitudeDegrees>-1.383599</LongitudeDegrees>
            </Position>
            <AltitudeMeters>795.642</AltitudeMeters>
            <DistanceMeters>548787.82543749</DistanceMeters>
          </Trackpoint>
          <Trackpoint>
            <Time>2021-08-03T15:17:20Z</Time>
            <Position>
              <LatitudeDegrees>41.056777</LatitudeDegrees>
              <LongitudeDegrees>-1.383418</LongitudeDegrees>
            </Position>
            <AltitudeMeters>795.654</AltitudeMeters>
            <DistanceMeters>548806.46206353</DistanceMeters>
          </Trackpoint>
          <Trackpoint>
            <Time>2021-08-03T15:17:22Z</Time>
            <Position>
              <LatitudeDegrees>41.056711</LatitudeDegrees>
              <LongitudeDegrees>-1.383334</LongitudeDegrees>
            </Position>
            <AltitudeMeters>795.756</AltitudeMeters>
            <DistanceMeters>548816.64367821</DistanceMeters>
          </Trackpoint>
          <Trackpoint>
            <Time>2021-08-03T15:17:23Z</Time>
            <Position>
              <LatitudeDegrees>41.056672</LatitudeDegrees>
              <LongitudeDegrees>-1.383301</LongitudeDegrees>
            </Position>
            <AltitudeMeters>795.711</AltitudeMeters>
            <DistanceMeters>548821.79268826</DistanceMeters>
          </Trackpoint>
          <Trackpoint>
            <Time>2021-08-03T15:17:24Z</Time>
            <Position>
              <LatitudeDegrees>41.056638</LatitudeDegrees>
              <LongitudeDegrees>-1.383253</LongitudeDegrees>
            </Position>
            <AltitudeMeters>795.708</AltitudeMeters>
            <DistanceMeters>548827.31896354</DistanceMeters>
          </Trackpoint>
          <Trackpoint>
            <Time>2021-08-03T15:17:26Z</Time>
            <Position>
              <LatitudeDegrees>41.056566</LatitudeDegrees>
              <LongitudeDegrees>-1.383187</LongitudeDegrees>
            </Position>
            <AltitudeMeters>795.732</AltitudeMeters>
            <DistanceMeters>548837.0609399</DistanceMeters>
          </Trackpoint>
          <Trackpoint>
            <Time>2021-08-03T15:17:28Z</Time>
            <Position>
              <LatitudeDegrees>41.056475</LatitudeDegrees>
              <LongitudeDegrees>-1.383133</LongitudeDegrees>
            </Position>
            <AltitudeMeters>795.784</AltitudeMeters>
            <DistanceMeters>548848.15670767</DistanceMeters>
          </Trackpoint>
          <Trackpoint>
            <Time>2021-08-03T15:17:30Z</Time>
            <Position>
              <LatitudeDegrees>41.056379</LatitudeDegrees>
              <LongitudeDegrees>-1.383066</LongitudeDegrees>
            </Position>
            <AltitudeMeters>795.354</AltitudeMeters>
            <DistanceMeters>548860.23145877</DistanceMeters>
          </Trackpoint>
          <Trackpoint>
            <Time>2021-08-03T15:17:32Z</Time>
            <Position>
              <LatitudeDegrees>41.056286</LatitudeDegrees>
              <LongitudeDegrees>-1.382991</LongitudeDegrees>
            </Position>
            <AltitudeMeters>794.717</AltitudeMeters>
            <DistanceMeters>548872.34652635</DistanceMeters>
          </Trackpoint>
          <Trackpoint>
            <Time>2021-08-03T15:17:34Z</Time>
            <Position>
              <LatitudeDegrees>41.056210</LatitudeDegrees>
              <LongitudeDegrees>-1.382900</LongitudeDegrees>
            </Position>
            <AltitudeMeters>794.625</AltitudeMeters>
            <DistanceMeters>548883.74260285</DistanceMeters>
          </Trackpoint>
          <Trackpoint>
            <Time>2021-08-03T15:17:35Z</Time>
            <Position>
              <LatitudeDegrees>41.056176</LatitudeDegrees>
              <LongitudeDegrees>-1.382820</LongitudeDegrees>
            </Position>
            <AltitudeMeters>794.520</AltitudeMeters>
            <DistanceMeters>548891.4497322</DistanceMeters>
          </Trackpoint>
          <Trackpoint>
            <Time>2021-08-03T15:17:36Z</Time>
            <Position>
              <LatitudeDegrees>41.056142</LatitudeDegrees>
              <LongitudeDegrees>-1.382761</LongitudeDegrees>
            </Position>
            <AltitudeMeters>794.645</AltitudeMeters>
            <DistanceMeters>548897.68177511</DistanceMeters>
          </Trackpoint>
          <Trackpoint>
            <Time>2021-08-03T15:17:38Z</Time>
            <Position>
              <LatitudeDegrees>41.056072</LatitudeDegrees>
              <LongitudeDegrees>-1.382653</LongitudeDegrees>
            </Position>
            <AltitudeMeters>794.696</AltitudeMeters>
            <DistanceMeters>548909.63438316</DistanceMeters>
          </Trackpoint>
          <Trackpoint>
            <Time>2021-08-03T15:17:40Z</Time>
            <Position>
              <LatitudeDegrees>41.055993</LatitudeDegrees>
              <LongitudeDegrees>-1.382544</LongitudeDegrees>
            </Position>
            <AltitudeMeters>794.787</AltitudeMeters>
            <DistanceMeters>548922.32285167</DistanceMeters>
          </Trackpoint>
          <Trackpoint>
            <Time>2021-08-03T15:17:42Z</Time>
            <Position>
              <LatitudeDegrees>41.055926</LatitudeDegrees>
              <LongitudeDegrees>-1.382518</LongitudeDegrees>
            </Position>
            <AltitudeMeters>795.042</AltitudeMeters>
            <DistanceMeters>548930.09299266</DistanceMeters>
          </Trackpoint>
          <Trackpoint>
            <Time>2021-08-03T15:17:44Z</Time>
            <Position>
              <LatitudeDegrees>41.055836</LatitudeDegrees>
              <LongitudeDegrees>-1.382470</LongitudeDegrees>
            </Position>
            <AltitudeMeters>795.126</AltitudeMeters>
            <DistanceMeters>548940.8901352</DistanceMeters>
          </Trackpoint>
          <Trackpoint>
            <Time>2021-08-03T15:17:46Z</Time>
            <Position>
              <LatitudeDegrees>41.055751</LatitudeDegrees>
              <LongitudeDegrees>-1.382414</LongitudeDegrees>
            </Position>
            <AltitudeMeters>795.108</AltitudeMeters>
            <DistanceMeters>548951.4539264</DistanceMeters>
          </Trackpoint>
          <Trackpoint>
            <Time>2021-08-03T15:17:47Z</Time>
            <Position>
              <LatitudeDegrees>41.055705</LatitudeDegrees>
              <LongitudeDegrees>-1.382381</LongitudeDegrees>
            </Position>
            <AltitudeMeters>795.165</AltitudeMeters>
            <DistanceMeters>548957.27465203</DistanceMeters>
          </Trackpoint>
          <Trackpoint>
            <Time>2021-08-03T15:17:48Z</Time>
            <Position>
              <LatitudeDegrees>41.055659</LatitudeDegrees>
              <LongitudeDegrees>-1.382348</LongitudeDegrees>
            </Position>
            <AltitudeMeters>794.997</AltitudeMeters>
            <DistanceMeters>548963.09537766</DistanceMeters>
          </Trackpoint>
          <Trackpoint>
            <Time>2021-08-03T15:17:49Z</Time>
            <Position>
              <LatitudeDegrees>41.055611</LatitudeDegrees>
              <LongitudeDegrees>-1.382311</LongitudeDegrees>
            </Position>
            <AltitudeMeters>794.797</AltitudeMeters>
            <DistanceMeters>548969.27430663</DistanceMeters>
          </Trackpoint>
          <Trackpoint>
            <Time>2021-08-03T15:17:50Z</Time>
            <Position>
              <LatitudeDegrees>41.055562</LatitudeDegrees>
              <LongitudeDegrees>-1.382277</LongitudeDegrees>
            </Position>
            <AltitudeMeters>794.790</AltitudeMeters>
            <DistanceMeters>548975.42980829</DistanceMeters>
          </Trackpoint>
          <Trackpoint>
            <Time>2021-08-03T15:17:52Z</Time>
            <Position>
              <LatitudeDegrees>41.055427</LatitudeDegrees>
              <LongitudeDegrees>-1.382189</LongitudeDegrees>
            </Position>
            <AltitudeMeters>795.098</AltitudeMeters>
            <DistanceMeters>548992.17258772</DistanceMeters>
          </Trackpoint>
          <Trackpoint>
            <Time>2021-08-03T15:17:54Z</Time>
            <Position>
              <LatitudeDegrees>41.055343</LatitudeDegrees>
              <LongitudeDegrees>-1.382145</LongitudeDegrees>
            </Position>
            <AltitudeMeters>795.173</AltitudeMeters>
            <DistanceMeters>549002.2247793</DistanceMeters>
          </Trackpoint>
          <Trackpoint>
            <Time>2021-08-03T15:17:55Z</Time>
            <Position>
              <LatitudeDegrees>41.055302</LatitudeDegrees>
              <LongitudeDegrees>-1.382116</LongitudeDegrees>
            </Position>
            <AltitudeMeters>795.068</AltitudeMeters>
            <DistanceMeters>549007.39653784</DistanceMeters>
          </Trackpoint>
          <Trackpoint>
            <Time>2021-08-03T15:17:56Z</Time>
            <Position>
              <LatitudeDegrees>41.055262</LatitudeDegrees>
              <LongitudeDegrees>-1.382085</LongitudeDegrees>
            </Position>
            <AltitudeMeters>795.079</AltitudeMeters>
            <DistanceMeters>549012.55255811</DistanceMeters>
          </Trackpoint>
          <Trackpoint>
            <Time>2021-08-03T15:17:58Z</Time>
            <Position>
              <LatitudeDegrees>41.055188</LatitudeDegrees>
              <LongitudeDegrees>-1.382040</LongitudeDegrees>
            </Position>
            <AltitudeMeters>794.931</AltitudeMeters>
            <DistanceMeters>549021.61354343</DistanceMeters>
          </Trackpoint>
          <Trackpoint>
            <Time>2021-08-03T15:18:00Z</Time>
            <Position>
              <LatitudeDegrees>41.055108</LatitudeDegrees>
              <LongitudeDegrees>-1.381989</LongitudeDegrees>
            </Position>
            <AltitudeMeters>794.961</AltitudeMeters>
            <DistanceMeters>549031.49358019</DistanceMeters>
          </Trackpoint>
          <Trackpoint>
            <Time>2021-08-03T15:18:02Z</Time>
            <Position>
              <LatitudeDegrees>41.055033</LatitudeDegrees>
              <LongitudeDegrees>-1.381937</LongitudeDegrees>
            </Position>
            <AltitudeMeters>795.407</AltitudeMeters>
            <DistanceMeters>549040.9132156</DistanceMeters>
          </Trackpoint>
          <Trackpoint>
            <Time>2021-08-03T15:18:04Z</Time>
            <Position>
              <LatitudeDegrees>41.054961</LatitudeDegrees>
              <LongitudeDegrees>-1.381881</LongitudeDegrees>
            </Position>
            <AltitudeMeters>795.608</AltitudeMeters>
            <DistanceMeters>549050.20350465</DistanceMeters>
          </Trackpoint>
          <Trackpoint>
            <Time>2021-08-03T15:18:06Z</Time>
            <Position>
              <LatitudeDegrees>41.054888</LatitudeDegrees>
              <LongitudeDegrees>-1.381831</LongitudeDegrees>
            </Position>
            <AltitudeMeters>795.730</AltitudeMeters>
            <DistanceMeters>549059.34831399</DistanceMeters>
          </Trackpoint>
          <Trackpoint>
            <Time>2021-08-03T15:18:08Z</Time>
            <Position>
              <LatitudeDegrees>41.054812</LatitudeDegrees>
              <LongitudeDegrees>-1.381775</LongitudeDegrees>
            </Position>
            <AltitudeMeters>795.742</AltitudeMeters>
            <DistanceMeters>549069.02518811</DistanceMeters>
          </Trackpoint>
          <Trackpoint>
            <Time>2021-08-03T15:18:10Z</Time>
            <Position>
              <LatitudeDegrees>41.054730</LatitudeDegrees>
              <LongitudeDegrees>-1.381721</LongitudeDegrees>
            </Position>
            <AltitudeMeters>795.722</AltitudeMeters>
            <DistanceMeters>549079.21566794</DistanceMeters>
          </Trackpoint>
          <Trackpoint>
            <Time>2021-08-03T15:18:12Z</Time>
            <Position>
              <LatitudeDegrees>41.054651</LatitudeDegrees>
              <LongitudeDegrees>-1.381670</LongitudeDegrees>
            </Position>
            <AltitudeMeters>795.715</AltitudeMeters>
            <DistanceMeters>549088.99465099</DistanceMeters>
          </Trackpoint>
          <Trackpoint>
            <Time>2021-08-03T15:18:14Z</Time>
            <Position>
              <LatitudeDegrees>41.054570</LatitudeDegrees>
              <LongitudeDegrees>-1.381628</LongitudeDegrees>
            </Position>
            <AltitudeMeters>795.623</AltitudeMeters>
            <DistanceMeters>549098.67525703</DistanceMeters>
          </Trackpoint>
          <Trackpoint>
            <Time>2021-08-03T15:18:16Z</Time>
            <Position>
              <LatitudeDegrees>41.054487</LatitudeDegrees>
              <LongitudeDegrees>-1.381586</LongitudeDegrees>
            </Position>
            <AltitudeMeters>795.748</AltitudeMeters>
            <DistanceMeters>549108.56351612</DistanceMeters>
          </Trackpoint>
          <Trackpoint>
            <Time>2021-08-03T15:18:17Z</Time>
            <Position>
              <LatitudeDegrees>41.054444</LatitudeDegrees>
              <LongitudeDegrees>-1.381556</LongitudeDegrees>
            </Position>
            <AltitudeMeters>795.713</AltitudeMeters>
            <DistanceMeters>549113.97086182</DistanceMeters>
          </Trackpoint>
          <Trackpoint>
            <Time>2021-08-03T15:18:19Z</Time>
            <Position>
              <LatitudeDegrees>41.054388</LatitudeDegrees>
              <LongitudeDegrees>-1.381535</LongitudeDegrees>
            </Position>
            <AltitudeMeters>796.164</AltitudeMeters>
            <DistanceMeters>549120.44803212</DistanceMeters>
          </Trackpoint>
          <Trackpoint>
            <Time>2021-08-03T15:18:21Z</Time>
            <Position>
              <LatitudeDegrees>41.054328</LatitudeDegrees>
              <LongitudeDegrees>-1.381516</LongitudeDegrees>
            </Position>
            <AltitudeMeters>796.657</AltitudeMeters>
            <DistanceMeters>549127.31367114</DistanceMeters>
          </Trackpoint>
          <Trackpoint>
            <Time>2021-08-03T15:18:23Z</Time>
            <Position>
              <LatitudeDegrees>41.054241</LatitudeDegrees>
              <LongitudeDegrees>-1.381490</LongitudeDegrees>
            </Position>
            <AltitudeMeters>797.300</AltitudeMeters>
            <DistanceMeters>549137.24021102</DistanceMeters>
          </Trackpoint>
          <Trackpoint>
            <Time>2021-08-03T15:18:25Z</Time>
            <Position>
              <LatitudeDegrees>41.054151</LatitudeDegrees>
              <LongitudeDegrees>-1.381463</LongitudeDegrees>
            </Position>
            <AltitudeMeters>797.620</AltitudeMeters>
            <DistanceMeters>549147.51101202</DistanceMeters>
          </Trackpoint>
          <Trackpoint>
            <Time>2021-08-03T15:18:27Z</Time>
            <Position>
              <LatitudeDegrees>41.054057</LatitudeDegrees>
              <LongitudeDegrees>-1.381425</LongitudeDegrees>
            </Position>
            <AltitudeMeters>798.108</AltitudeMeters>
            <DistanceMeters>549158.44858271</DistanceMeters>
          </Trackpoint>
          <Trackpoint>
            <Time>2021-08-03T15:18:29Z</Time>
            <Position>
              <LatitudeDegrees>41.053973</LatitudeDegrees>
              <LongitudeDegrees>-1.381393</LongitudeDegrees>
            </Position>
            <AltitudeMeters>798.012</AltitudeMeters>
            <DistanceMeters>549168.17618113</DistanceMeters>
          </Trackpoint>
          <Trackpoint>
            <Time>2021-08-03T15:18:31Z</Time>
            <Position>
              <LatitudeDegrees>41.053891</LatitudeDegrees>
              <LongitudeDegrees>-1.381343</LongitudeDegrees>
            </Position>
            <AltitudeMeters>797.634</AltitudeMeters>
            <DistanceMeters>549178.22118358</DistanceMeters>
          </Trackpoint>
          <Trackpoint>
            <Time>2021-08-03T15:18:33Z</Time>
            <Position>
              <LatitudeDegrees>41.053854</LatitudeDegrees>
              <LongitudeDegrees>-1.381305</LongitudeDegrees>
            </Position>
            <AltitudeMeters>797.694</AltitudeMeters>
            <DistanceMeters>549183.42947981</DistanceMeters>
          </Trackpoint>
          <Trackpoint>
            <Time>2021-08-03T15:18:35Z</Time>
            <Position>
              <LatitudeDegrees>41.053813</LatitudeDegrees>
              <LongitudeDegrees>-1.381229</LongitudeDegrees>
            </Position>
            <AltitudeMeters>797.547</AltitudeMeters>
            <DistanceMeters>549191.27191889</DistanceMeters>
          </Trackpoint>
          <Trackpoint>
            <Time>2021-08-03T15:18:37Z</Time>
            <Position>
              <LatitudeDegrees>41.053713</LatitudeDegrees>
              <LongitudeDegrees>-1.381048</LongitudeDegrees>
            </Position>
            <AltitudeMeters>797.285</AltitudeMeters>
            <DistanceMeters>549210.10447799</DistanceMeters>
          </Trackpoint>
          <Trackpoint>
            <Time>2021-08-03T15:18:38Z</Time>
            <Position>
              <LatitudeDegrees>41.053684</LatitudeDegrees>
              <LongitudeDegrees>-1.380993</LongitudeDegrees>
            </Position>
            <AltitudeMeters>797.060</AltitudeMeters>
            <DistanceMeters>549215.73756672</DistanceMeters>
          </Trackpoint>
          <Trackpoint>
            <Time>2021-08-03T15:18:40Z</Time>
            <Position>
              <LatitudeDegrees>41.053622</LatitudeDegrees>
              <LongitudeDegrees>-1.380902</LongitudeDegrees>
            </Position>
            <AltitudeMeters>796.815</AltitudeMeters>
            <DistanceMeters>549226.0312015</DistanceMeters>
          </Trackpoint>
          <Trackpoint>
            <Time>2021-08-03T15:18:41Z</Time>
            <Position>
              <LatitudeDegrees>41.053591</LatitudeDegrees>
              <LongitudeDegrees>-1.380858</LongitudeDegrees>
            </Position>
            <AltitudeMeters>796.746</AltitudeMeters>
            <DistanceMeters>549231.08462175</DistanceMeters>
          </Trackpoint>
          <Trackpoint>
            <Time>2021-08-03T15:18:42Z</Time>
            <Position>
              <LatitudeDegrees>41.053554</LatitudeDegrees>
              <LongitudeDegrees>-1.380811</LongitudeDegrees>
            </Position>
            <AltitudeMeters>796.773</AltitudeMeters>
            <DistanceMeters>549236.78780817</DistanceMeters>
          </Trackpoint>
          <Trackpoint>
            <Time>2021-08-03T15:18:43Z</Time>
            <Position>
              <LatitudeDegrees>41.053522</LatitudeDegrees>
              <LongitudeDegrees>-1.380766</LongitudeDegrees>
            </Position>
            <AltitudeMeters>796.785</AltitudeMeters>
            <DistanceMeters>549241.97873758</DistanceMeters>
          </Trackpoint>
          <Trackpoint>
            <Time>2021-08-03T15:18:45Z</Time>
            <Position>
              <LatitudeDegrees>41.053462</LatitudeDegrees>
              <LongitudeDegrees>-1.380665</LongitudeDegrees>
            </Position>
            <AltitudeMeters>796.613</AltitudeMeters>
            <DistanceMeters>549252.77002415</DistanceMeters>
          </Trackpoint>
          <Trackpoint>
            <Time>2021-08-03T15:18:46Z</Time>
            <Position>
              <LatitudeDegrees>41.053425</LatitudeDegrees>
              <LongitudeDegrees>-1.380623</LongitudeDegrees>
            </Position>
            <AltitudeMeters>796.608</AltitudeMeters>
            <DistanceMeters>549258.1907131</DistanceMeters>
          </Trackpoint>
          <Trackpoint>
            <Time>2021-08-03T15:18:48Z</Time>
            <Position>
              <LatitudeDegrees>41.053347</LatitudeDegrees>
              <LongitudeDegrees>-1.380540</LongitudeDegrees>
            </Position>
            <AltitudeMeters>796.594</AltitudeMeters>
            <DistanceMeters>549269.32142057</DistanceMeters>
          </Trackpoint>
          <Trackpoint>
            <Time>2021-08-03T15:18:49Z</Time>
            <Position>
              <LatitudeDegrees>41.053307</LatitudeDegrees>
              <LongitudeDegrees>-1.380510</LongitudeDegrees>
            </Position>
            <AltitudeMeters>796.596</AltitudeMeters>
            <DistanceMeters>549274.43700085</DistanceMeters>
          </Trackpoint>
          <Trackpoint>
            <Time>2021-08-03T15:18:51Z</Time>
            <Position>
              <LatitudeDegrees>41.053227</LatitudeDegrees>
              <LongitudeDegrees>-1.380458</LongitudeDegrees>
            </Position>
            <AltitudeMeters>796.446</AltitudeMeters>
            <DistanceMeters>549284.35352909</DistanceMeters>
          </Trackpoint>
          <Trackpoint>
            <Time>2021-08-03T15:18:53Z</Time>
            <Position>
              <LatitudeDegrees>41.053134</LatitudeDegrees>
              <LongitudeDegrees>-1.380402</LongitudeDegrees>
            </Position>
            <AltitudeMeters>796.379</AltitudeMeters>
            <DistanceMeters>549295.72183829</DistanceMeters>
          </Trackpoint>
          <Trackpoint>
            <Time>2021-08-03T15:18:55Z</Time>
            <Position>
              <LatitudeDegrees>41.053048</LatitudeDegrees>
              <LongitudeDegrees>-1.380353</LongitudeDegrees>
            </Position>
            <AltitudeMeters>796.277</AltitudeMeters>
            <DistanceMeters>549306.1401644</DistanceMeters>
          </Trackpoint>
          <Trackpoint>
            <Time>2021-08-03T15:18:57Z</Time>
            <Position>
              <LatitudeDegrees>41.052983</LatitudeDegrees>
              <LongitudeDegrees>-1.380299</LongitudeDegrees>
            </Position>
            <AltitudeMeters>796.272</AltitudeMeters>
            <DistanceMeters>549314.67724511</DistanceMeters>
          </Trackpoint>
          <Trackpoint>
            <Time>2021-08-03T15:18:59Z</Time>
            <Position>
              <LatitudeDegrees>41.052909</LatitudeDegrees>
              <LongitudeDegrees>-1.380259</LongitudeDegrees>
            </Position>
            <AltitudeMeters>796.277</AltitudeMeters>
            <DistanceMeters>549323.57125824</DistanceMeters>
          </Trackpoint>
          <Trackpoint>
            <Time>2021-08-03T15:19:01Z</Time>
            <Position>
              <LatitudeDegrees>41.052839</LatitudeDegrees>
              <LongitudeDegrees>-1.380222</LongitudeDegrees>
            </Position>
            <AltitudeMeters>796.418</AltitudeMeters>
            <DistanceMeters>549331.95894717</DistanceMeters>
          </Trackpoint>
          <Trackpoint>
            <Time>2021-08-03T15:19:03Z</Time>
            <Position>
              <LatitudeDegrees>41.052766</LatitudeDegrees>
              <LongitudeDegrees>-1.380185</LongitudeDegrees>
            </Position>
            <AltitudeMeters>796.563</AltitudeMeters>
            <DistanceMeters>549340.65791496</DistanceMeters>
          </Trackpoint>
          <Trackpoint>
            <Time>2021-08-03T15:19:04Z</Time>
            <Position>
              <LatitudeDegrees>41.052729</LatitudeDegrees>
              <LongitudeDegrees>-1.380149</LongitudeDegrees>
            </Position>
            <AltitudeMeters>796.544</AltitudeMeters>
            <DistanceMeters>549345.76466155</DistanceMeters>
          </Trackpoint>
          <Trackpoint>
            <Time>2021-08-03T15:19:05Z</Time>
            <Position>
              <LatitudeDegrees>41.052694</LatitudeDegrees>
              <LongitudeDegrees>-1.380103</LongitudeDegrees>
            </Position>
            <AltitudeMeters>796.518</AltitudeMeters>
            <DistanceMeters>549351.24993408</DistanceMeters>
          </Trackpoint>
          <Trackpoint>
            <Time>2021-08-03T15:19:07Z</Time>
            <Position>
              <LatitudeDegrees>41.052620</LatitudeDegrees>
              <LongitudeDegrees>-1.380036</LongitudeDegrees>
            </Position>
            <AltitudeMeters>796.408</AltitudeMeters>
            <DistanceMeters>549361.22276026</DistanceMeters>
          </Trackpoint>
          <Trackpoint>
            <Time>2021-08-03T15:19:08Z</Time>
            <Position>
              <LatitudeDegrees>41.052578</LatitudeDegrees>
              <LongitudeDegrees>-1.379997</LongitudeDegrees>
            </Position>
            <AltitudeMeters>796.193</AltitudeMeters>
            <DistanceMeters>549366.92911248</DistanceMeters>
          </Trackpoint>
          <Trackpoint>
            <Time>2021-08-03T15:19:10Z</Time>
            <Position>
              <LatitudeDegrees>41.052492</LatitudeDegrees>
              <LongitudeDegrees>-1.379913</LongitudeDegrees>
            </Position>
            <AltitudeMeters>796.195</AltitudeMeters>
            <DistanceMeters>549378.81771023</DistanceMeters>
          </Trackpoint>
          <Trackpoint>
            <Time>2021-08-03T15:19:12Z</Time>
            <Position>
              <LatitudeDegrees>41.052407</LatitudeDegrees>
              <LongitudeDegrees>-1.379834</LongitudeDegrees>
            </Position>
            <AltitudeMeters>795.885</AltitudeMeters>
            <DistanceMeters>549390.37039519</DistanceMeters>
          </Trackpoint>
          <Trackpoint>
            <Time>2021-08-03T15:19:13Z</Time>
            <Position>
              <LatitudeDegrees>41.052367</LatitudeDegrees>
              <LongitudeDegrees>-1.379787</LongitudeDegrees>
            </Position>
            <AltitudeMeters>795.898</AltitudeMeters>
            <DistanceMeters>549396.31849064</DistanceMeters>
          </Trackpoint>
          <Trackpoint>
            <Time>2021-08-03T15:19:15Z</Time>
            <Position>
              <LatitudeDegrees>41.052284</LatitudeDegrees>
              <LongitudeDegrees>-1.379700</LongitudeDegrees>
            </Position>
            <AltitudeMeters>795.696</AltitudeMeters>
            <DistanceMeters>549408.09413729</DistanceMeters>
          </Trackpoint>
          <Trackpoint>
            <Time>2021-08-03T15:19:17Z</Time>
            <Position>
              <LatitudeDegrees>41.052245</LatitudeDegrees>
              <LongitudeDegrees>-1.379667</LongitudeDegrees>
            </Position>
            <AltitudeMeters>795.681</AltitudeMeters>
            <DistanceMeters>549413.24490078</DistanceMeters>
          </Trackpoint>
          <Trackpoint>
            <Time>2021-08-03T15:19:19Z</Time>
            <Position>
              <LatitudeDegrees>41.052176</LatitudeDegrees>
              <LongitudeDegrees>-1.379606</LongitudeDegrees>
            </Position>
            <AltitudeMeters>795.756</AltitudeMeters>
            <DistanceMeters>549422.47472966</DistanceMeters>
          </Trackpoint>
          <Trackpoint>
            <Time>2021-08-03T15:19:20Z</Time>
            <Position>
              <LatitudeDegrees>41.052097</LatitudeDegrees>
              <LongitudeDegrees>-1.379547</LongitudeDegrees>
            </Position>
            <AltitudeMeters>795.767</AltitudeMeters>
            <DistanceMeters>549432.56547503</DistanceMeters>
          </Trackpoint>
          <Trackpoint>
            <Time>2021-08-03T15:19:22Z</Time>
            <Position>
              <LatitudeDegrees>41.052007</LatitudeDegrees>
              <LongitudeDegrees>-1.379449</LongitudeDegrees>
            </Position>
            <AltitudeMeters>795.986</AltitudeMeters>
            <DistanceMeters>549445.52678446</DistanceMeters>
          </Trackpoint>
          <Trackpoint>
            <Time>2021-08-03T15:19:24Z</Time>
            <Position>
              <LatitudeDegrees>41.051921</LatitudeDegrees>
              <LongitudeDegrees>-1.379368</LongitudeDegrees>
            </Position>
            <AltitudeMeters>796.260</AltitudeMeters>
            <DistanceMeters>549457.26710331</DistanceMeters>
          </Trackpoint>
          <Trackpoint>
            <Time>2021-08-03T15:19:26Z</Time>
            <Position>
              <LatitudeDegrees>41.051836</LatitudeDegrees>
              <LongitudeDegrees>-1.379347</LongitudeDegrees>
            </Position>
            <AltitudeMeters>796.226</AltitudeMeters>
            <DistanceMeters>549466.89064029</DistanceMeters>
          </Trackpoint>
          <Trackpoint>
            <Time>2021-08-03T15:19:28Z</Time>
            <Position>
              <LatitudeDegrees>41.051743</LatitudeDegrees>
              <LongitudeDegrees>-1.379323</LongitudeDegrees>
            </Position>
            <AltitudeMeters>796.008</AltitudeMeters>
            <DistanceMeters>549477.43560883</DistanceMeters>
          </Trackpoint>
          <Trackpoint>
            <Time>2021-08-03T15:19:30Z</Time>
            <Position>
              <LatitudeDegrees>41.051661</LatitudeDegrees>
              <LongitudeDegrees>-1.379301</LongitudeDegrees>
            </Position>
            <AltitudeMeters>795.525</AltitudeMeters>
            <DistanceMeters>549486.74774199</DistanceMeters>
          </Trackpoint>
          <Trackpoint>
            <Time>2021-08-03T15:19:32Z</Time>
            <Position>
              <LatitudeDegrees>41.051577</LatitudeDegrees>
              <LongitudeDegrees>-1.379281</LongitudeDegrees>
            </Position>
            <AltitudeMeters>795.477</AltitudeMeters>
            <DistanceMeters>549496.24708691</DistanceMeters>
          </Trackpoint>
          <Trackpoint>
            <Time>2021-08-03T15:19:34Z</Time>
            <Position>
              <LatitudeDegrees>41.051491</LatitudeDegrees>
              <LongitudeDegrees>-1.379227</LongitudeDegrees>
            </Position>
            <AltitudeMeters>795.417</AltitudeMeters>
            <DistanceMeters>549506.83819684</DistanceMeters>
          </Trackpoint>
          <Trackpoint>
            <Time>2021-08-03T15:19:36Z</Time>
            <Position>
              <LatitudeDegrees>41.051450</LatitudeDegrees>
              <LongitudeDegrees>-1.379192</LongitudeDegrees>
            </Position>
            <AltitudeMeters>795.970</AltitudeMeters>
            <DistanceMeters>549512.26637697</DistanceMeters>
          </Trackpoint>
          <Trackpoint>
            <Time>2021-08-03T15:19:38Z</Time>
            <Position>
              <LatitudeDegrees>41.051358</LatitudeDegrees>
              <LongitudeDegrees>-1.379096</LongitudeDegrees>
            </Position>
            <AltitudeMeters>796.598</AltitudeMeters>
            <DistanceMeters>549525.29647663</DistanceMeters>
          </Trackpoint>
          <Trackpoint>
            <Time>2021-08-03T15:19:40Z</Time>
            <Position>
              <LatitudeDegrees>41.051259</LatitudeDegrees>
              <LongitudeDegrees>-1.378986</LongitudeDegrees>
            </Position>
            <AltitudeMeters>796.713</AltitudeMeters>
            <DistanceMeters>549539.67223155</DistanceMeters>
          </Trackpoint>
          <Trackpoint>
            <Time>2021-08-03T15:19:41Z</Time>
            <Position>
              <LatitudeDegrees>41.051220</LatitudeDegrees>
              <LongitudeDegrees>-1.378937</LongitudeDegrees>
            </Position>
            <AltitudeMeters>796.718</AltitudeMeters>
            <DistanceMeters>549545.65212308</DistanceMeters>
          </Trackpoint>
          <Trackpoint>
            <Time>2021-08-03T15:19:42Z</Time>
            <Position>
              <LatitudeDegrees>41.051190</LatitudeDegrees>
              <LongitudeDegrees>-1.378891</LongitudeDegrees>
            </Position>
            <AltitudeMeters>796.899</AltitudeMeters>
            <DistanceMeters>549550.7571011</DistanceMeters>
          </Trackpoint>
          <Trackpoint>
            <Time>2021-08-03T15:19:44Z</Time>
            <Position>
              <LatitudeDegrees>41.051141</LatitudeDegrees>
              <LongitudeDegrees>-1.378795</LongitudeDegrees>
            </Position>
            <AltitudeMeters>797.096</AltitudeMeters>
            <DistanceMeters>549560.48701999</DistanceMeters>
          </Trackpoint>
          <Trackpoint>
            <Time>2021-08-03T15:19:46Z</Time>
            <Position>
              <LatitudeDegrees>41.051111</LatitudeDegrees>
              <LongitudeDegrees>-1.378714</LongitudeDegrees>
            </Position>
            <AltitudeMeters>797.031</AltitudeMeters>
            <DistanceMeters>549568.06178769</DistanceMeters>
          </Trackpoint>
          <Trackpoint>
            <Time>2021-08-03T15:19:48Z</Time>
            <Position>
              <LatitudeDegrees>41.051092</LatitudeDegrees>
              <LongitudeDegrees>-1.378629</LongitudeDegrees>
            </Position>
            <AltitudeMeters>797.024</AltitudeMeters>
            <DistanceMeters>549575.50305295</DistanceMeters>
          </Trackpoint>
          <Trackpoint>
            <Time>2021-08-03T15:19:50Z</Time>
            <Position>
              <LatitudeDegrees>41.051078</LatitudeDegrees>
              <LongitudeDegrees>-1.378531</LongitudeDegrees>
            </Position>
            <AltitudeMeters>797.008</AltitudeMeters>
            <DistanceMeters>549583.87511682</DistanceMeters>
          </Trackpoint>
          <Trackpoint>
            <Time>2021-08-03T15:19:52Z</Time>
            <Position>
              <LatitudeDegrees>41.051032</LatitudeDegrees>
              <LongitudeDegrees>-1.378450</LongitudeDegrees>
            </Position>
            <AltitudeMeters>797.026</AltitudeMeters>
            <DistanceMeters>549592.38624325</DistanceMeters>
          </Trackpoint>
          <Trackpoint>
            <Time>2021-08-03T15:19:54Z</Time>
            <Position>
              <LatitudeDegrees>41.050977</LatitudeDegrees>
              <LongitudeDegrees>-1.378416</LongitudeDegrees>
            </Position>
            <AltitudeMeters>797.038</AltitudeMeters>
            <DistanceMeters>549599.14049719</DistanceMeters>
          </Trackpoint>
          <Trackpoint>
            <Time>2021-08-03T15:19:56Z</Time>
            <Position>
              <LatitudeDegrees>41.050925</LatitudeDegrees>
              <LongitudeDegrees>-1.378389</LongitudeDegrees>
            </Position>
            <AltitudeMeters>797.078</AltitudeMeters>
            <DistanceMeters>549605.35585454</DistanceMeters>
          </Trackpoint>
          <Trackpoint>
            <Time>2021-08-03T15:19:59Z</Time>
            <Position>
              <LatitudeDegrees>41.050864</LatitudeDegrees>
              <LongitudeDegrees>-1.378392</LongitudeDegrees>
            </Position>
            <AltitudeMeters>797.021</AltitudeMeters>
            <DistanceMeters>549612.14943391</DistanceMeters>
          </Trackpoint>
          <Trackpoint>
            <Time>2021-08-03T15:20:01Z</Time>
            <Position>
              <LatitudeDegrees>41.050817</LatitudeDegrees>
              <LongitudeDegrees>-1.378405</LongitudeDegrees>
            </Position>
            <AltitudeMeters>797.199</AltitudeMeters>
            <DistanceMeters>549617.49294416</DistanceMeters>
          </Trackpoint>
          <Trackpoint>
            <Time>2021-08-03T15:20:03Z</Time>
            <Position>
              <LatitudeDegrees>41.050738</LatitudeDegrees>
              <LongitudeDegrees>-1.378429</LongitudeDegrees>
            </Position>
            <AltitudeMeters>797.244</AltitudeMeters>
            <DistanceMeters>549626.51297679</DistanceMeters>
          </Trackpoint>
          <Trackpoint>
            <Time>2021-08-03T15:20:04Z</Time>
            <Position>
              <LatitudeDegrees>41.050688</LatitudeDegrees>
              <LongitudeDegrees>-1.378426</LongitudeDegrees>
            </Position>
            <AltitudeMeters>797.989</AltitudeMeters>
            <DistanceMeters>549632.08319606</DistanceMeters>
          </Trackpoint>
          <Trackpoint>
            <Time>2021-08-03T15:20:06Z</Time>
            <Position>
              <LatitudeDegrees>41.050636</LatitudeDegrees>
              <LongitudeDegrees>-1.378453</LongitudeDegrees>
            </Position>
            <AltitudeMeters>798.550</AltitudeMeters>
            <DistanceMeters>549638.29855341</DistanceMeters>
          </Trackpoint>
          <Trackpoint>
            <Time>2021-08-03T15:20:08Z</Time>
            <Position>
              <LatitudeDegrees>41.050577</LatitudeDegrees>
              <LongitudeDegrees>-1.378471</LongitudeDegrees>
            </Position>
            <AltitudeMeters>798.639</AltitudeMeters>
            <DistanceMeters>549645.03674489</DistanceMeters>
          </Trackpoint>
          <Trackpoint>
            <Time>2021-08-03T15:20:10Z</Time>
            <Position>
              <LatitudeDegrees>41.050516</LatitudeDegrees>
              <LongitudeDegrees>-1.378493</LongitudeDegrees>
            </Position>
            <AltitudeMeters>798.801</AltitudeMeters>
            <DistanceMeters>549652.07257313</DistanceMeters>
          </Trackpoint>
          <Trackpoint>
            <Time>2021-08-03T15:20:12Z</Time>
            <Position>
              <LatitudeDegrees>41.050447</LatitudeDegrees>
              <LongitudeDegrees>-1.378513</LongitudeDegrees>
            </Position>
            <AltitudeMeters>798.821</AltitudeMeters>
            <DistanceMeters>549659.93283922</DistanceMeters>
          </Trackpoint>
          <Trackpoint>
            <Time>2021-08-03T15:20:14Z</Time>
            <Position>
              <LatitudeDegrees>41.050376</LatitudeDegrees>
              <LongitudeDegrees>-1.378540</LongitudeDegrees>
            </Position>
            <AltitudeMeters>798.808</AltitudeMeters>
            <DistanceMeters>549668.15361121</DistanceMeters>
          </Trackpoint>
          <Trackpoint>
            <Time>2021-08-03T15:20:16Z</Time>
            <Position>
              <LatitudeDegrees>41.050307</LatitudeDegrees>
              <LongitudeDegrees>-1.378570</LongitudeDegrees>
            </Position>
            <AltitudeMeters>798.850</AltitudeMeters>
            <DistanceMeters>549676.23646981</DistanceMeters>
          </Trackpoint>
          <Trackpoint>
            <Time>2021-08-03T15:20:18Z</Time>
            <Position>
              <LatitudeDegrees>41.050243</LatitudeDegrees>
              <LongitudeDegrees>-1.378589</LongitudeDegrees>
            </Position>
            <AltitudeMeters>798.722</AltitudeMeters>
            <DistanceMeters>549683.53684727</DistanceMeters>
          </Trackpoint>
          <Trackpoint>
            <Time>2021-08-03T15:20:20Z</Time>
            <Position>
              <LatitudeDegrees>41.050180</LatitudeDegrees>
              <LongitudeDegrees>-1.378606</LongitudeDegrees>
            </Position>
            <AltitudeMeters>798.732</AltitudeMeters>
            <DistanceMeters>549690.69230208</DistanceMeters>
          </Trackpoint>
          <Trackpoint>
            <Time>2021-08-03T15:20:22Z</Time>
            <Position>
              <LatitudeDegrees>41.050115</LatitudeDegrees>
              <LongitudeDegrees>-1.378619</LongitudeDegrees>
            </Position>
            <AltitudeMeters>798.995</AltitudeMeters>
            <DistanceMeters>549698.00812487</DistanceMeters>
          </Trackpoint>
          <Trackpoint>
            <Time>2021-08-03T15:20:24Z</Time>
            <Position>
              <LatitudeDegrees>41.050051</LatitudeDegrees>
              <LongitudeDegrees>-1.378637</LongitudeDegrees>
            </Position>
            <AltitudeMeters>799.133</AltitudeMeters>
            <DistanceMeters>549705.2899247</DistanceMeters>
          </Trackpoint>
          <Trackpoint>
            <Time>2021-08-03T15:20:26Z</Time>
            <Position>
              <LatitudeDegrees>41.049991</LatitudeDegrees>
              <LongitudeDegrees>-1.378666</LongitudeDegrees>
            </Position>
            <AltitudeMeters>799.868</AltitudeMeters>
            <DistanceMeters>549712.3972623</DistanceMeters>
          </Trackpoint>
          <Trackpoint>
            <Time>2021-08-03T15:20:28Z</Time>
            <Position>
              <LatitudeDegrees>41.049931</LatitudeDegrees>
              <LongitudeDegrees>-1.378685</LongitudeDegrees>
            </Position>
            <AltitudeMeters>800.073</AltitudeMeters>
            <DistanceMeters>549719.26421644</DistanceMeters>
          </Trackpoint>
          <Trackpoint>
            <Time>2021-08-03T15:20:30Z</Time>
            <Position>
              <LatitudeDegrees>41.049875</LatitudeDegrees>
              <LongitudeDegrees>-1.378683</LongitudeDegrees>
            </Position>
            <AltitudeMeters>800.444</AltitudeMeters>
            <DistanceMeters>549725.49988073</DistanceMeters>
          </Trackpoint>
          <Trackpoint>
            <Time>2021-08-03T15:20:32Z</Time>
            <Position>
              <LatitudeDegrees>41.049809</LatitudeDegrees>
              <LongitudeDegrees>-1.378688</LongitudeDegrees>
            </Position>
            <AltitudeMeters>800.525</AltitudeMeters>
            <DistanceMeters>549732.85693708</DistanceMeters>
          </Trackpoint>
          <Trackpoint>
            <Time>2021-08-03T15:20:34Z</Time>
            <Position>
              <LatitudeDegrees>41.049746</LatitudeDegrees>
              <LongitudeDegrees>-1.378691</LongitudeDegrees>
            </Position>
            <AltitudeMeters>800.826</AltitudeMeters>
            <DistanceMeters>549739.87348729</DistanceMeters>
          </Trackpoint>
          <Trackpoint>
            <Time>2021-08-03T15:20:36Z</Time>
            <Position>
              <LatitudeDegrees>41.049686</LatitudeDegrees>
              <LongitudeDegrees>-1.378693</LongitudeDegrees>
            </Position>
            <AltitudeMeters>801.208</AltitudeMeters>
            <DistanceMeters>549746.55380448</DistanceMeters>
          </Trackpoint>
          <Trackpoint>
            <Time>2021-08-03T15:20:38Z</Time>
            <Position>
              <LatitudeDegrees>41.049631</LatitudeDegrees>
              <LongitudeDegrees>-1.378694</LongitudeDegrees>
            </Position>
            <AltitudeMeters>801.408</AltitudeMeters>
            <DistanceMeters>549752.67694725</DistanceMeters>
          </Trackpoint>
          <Trackpoint>
            <Time>2021-08-03T15:20:40Z</Time>
            <Position>
              <LatitudeDegrees>41.049571</LatitudeDegrees>
              <LongitudeDegrees>-1.378701</LongitudeDegrees>
            </Position>
            <AltitudeMeters>801.569</AltitudeMeters>
            <DistanceMeters>549759.38087822</DistanceMeters>
          </Trackpoint>
          <Trackpoint>
            <Time>2021-08-03T15:20:42Z</Time>
            <Position>
              <LatitudeDegrees>41.049504</LatitudeDegrees>
              <LongitudeDegrees>-1.378709</LongitudeDegrees>
            </Position>
            <AltitudeMeters>801.561</AltitudeMeters>
            <DistanceMeters>549766.868115</DistanceMeters>
          </Trackpoint>
          <Trackpoint>
            <Time>2021-08-03T15:20:44Z</Time>
            <Position>
              <LatitudeDegrees>41.049434</LatitudeDegrees>
              <LongitudeDegrees>-1.378718</LongitudeDegrees>
            </Position>
            <AltitudeMeters>802.041</AltitudeMeters>
            <DistanceMeters>549774.69499424</DistanceMeters>
          </Trackpoint>
          <Trackpoint>
            <Time>2021-08-03T15:20:46Z</Time>
            <Position>
              <LatitudeDegrees>41.049363</LatitudeDegrees>
              <LongitudeDegrees>-1.378728</LongitudeDegrees>
            </Position>
            <AltitudeMeters>802.284</AltitudeMeters>
            <DistanceMeters>549782.64209148</DistanceMeters>
          </Trackpoint>
          <Trackpoint>
            <Time>2021-08-03T15:20:48Z</Time>
            <Position>
              <LatitudeDegrees>41.049295</LatitudeDegrees>
              <LongitudeDegrees>-1.378743</LongitudeDegrees>
            </Position>
            <AltitudeMeters>802.612</AltitudeMeters>
            <DistanceMeters>549790.31457924</DistanceMeters>
          </Trackpoint>
          <Trackpoint>
            <Time>2021-08-03T15:20:50Z</Time>
            <Position>
              <LatitudeDegrees>41.049241</LatitudeDegrees>
              <LongitudeDegrees>-1.378748</LongitudeDegrees>
            </Position>
            <AltitudeMeters>803.027</AltitudeMeters>
            <DistanceMeters>549796.33960267</DistanceMeters>
          </Trackpoint>
          <Trackpoint>
            <Time>2021-08-03T15:20:54Z</Time>
            <Position>
              <LatitudeDegrees>41.049187</LatitudeDegrees>
              <LongitudeDegrees>-1.378754</LongitudeDegrees>
            </Position>
            <AltitudeMeters>803.442</AltitudeMeters>
            <DistanceMeters>549802.37061816</DistanceMeters>
          </Trackpoint>
          <Trackpoint>
            <Time>2021-08-03T15:20:56Z</Time>
            <Position>
              <LatitudeDegrees>41.049115</LatitudeDegrees>
              <LongitudeDegrees>-1.378775</LongitudeDegrees>
            </Position>
            <AltitudeMeters>803.523</AltitudeMeters>
            <DistanceMeters>549810.57599749</DistanceMeters>
          </Trackpoint>
          <Trackpoint>
            <Time>2021-08-03T15:20:58Z</Time>
            <Position>
              <LatitudeDegrees>41.048972</LatitudeDegrees>
              <LongitudeDegrees>-1.378824</LongitudeDegrees>
            </Position>
            <AltitudeMeters>803.745</AltitudeMeters>
            <DistanceMeters>549827.01506978</DistanceMeters>
          </Trackpoint>
          <Trackpoint>
            <Time>2021-08-03T15:21:00Z</Time>
            <Position>
              <LatitudeDegrees>41.048901</LatitudeDegrees>
              <LongitudeDegrees>-1.378844</LongitudeDegrees>
            </Position>
            <AltitudeMeters>804.047</AltitudeMeters>
            <DistanceMeters>549835.09401727</DistanceMeters>
          </Trackpoint>
          <Trackpoint>
            <Time>2021-08-03T15:21:02Z</Time>
            <Position>
              <LatitudeDegrees>41.048832</LatitudeDegrees>
              <LongitudeDegrees>-1.378854</LongitudeDegrees>
            </Position>
            <AltitudeMeters>804.111</AltitudeMeters>
            <DistanceMeters>549842.81870142</DistanceMeters>
          </Trackpoint>
          <Trackpoint>
            <Time>2021-08-03T15:21:04Z</Time>
            <Position>
              <LatitudeDegrees>41.048754</LatitudeDegrees>
              <LongitudeDegrees>-1.378860</LongitudeDegrees>
            </Position>
            <AltitudeMeters>804.508</AltitudeMeters>
            <DistanceMeters>549851.51455446</DistanceMeters>
          </Trackpoint>
          <Trackpoint>
            <Time>2021-08-03T15:21:06Z</Time>
            <Position>
              <LatitudeDegrees>41.048681</LatitudeDegrees>
              <LongitudeDegrees>-1.378856</LongitudeDegrees>
            </Position>
            <AltitudeMeters>804.541</AltitudeMeters>
            <DistanceMeters>549859.64697599</DistanceMeters>
          </Trackpoint>
          <Trackpoint>
            <Time>2021-08-03T15:21:08Z</Time>
            <Position>
              <LatitudeDegrees>41.048614</LatitudeDegrees>
              <LongitudeDegrees>-1.378839</LongitudeDegrees>
            </Position>
            <AltitudeMeters>804.623</AltitudeMeters>
            <DistanceMeters>549867.23960452</DistanceMeters>
          </Trackpoint>
          <Trackpoint>
            <Time>2021-08-03T15:21:10Z</Time>
            <Position>
              <LatitudeDegrees>41.048548</LatitudeDegrees>
              <LongitudeDegrees>-1.378816</LongitudeDegrees>
            </Position>
            <AltitudeMeters>804.763</AltitudeMeters>
            <DistanceMeters>549874.83461132</DistanceMeters>
          </Trackpoint>
          <Trackpoint>
            <Time>2021-08-03T15:21:12Z</Time>
            <Position>
              <LatitudeDegrees>41.048481</LatitudeDegrees>
              <LongitudeDegrees>-1.378788</LongitudeDegrees>
            </Position>
            <AltitudeMeters>804.946</AltitudeMeters>
            <DistanceMeters>549882.6534103</DistanceMeters>
          </Trackpoint>
          <Trackpoint>
            <Time>2021-08-03T15:21:14Z</Time>
            <Position>
              <LatitudeDegrees>41.048422</LatitudeDegrees>
              <LongitudeDegrees>-1.378754</LongitudeDegrees>
            </Position>
            <AltitudeMeters>805.034</AltitudeMeters>
            <DistanceMeters>549889.81391127</DistanceMeters>
          </Trackpoint>
          <Trackpoint>
            <Time>2021-08-03T15:21:16Z</Time>
            <Position>
              <LatitudeDegrees>41.048376</LatitudeDegrees>
              <LongitudeDegrees>-1.378722</LongitudeDegrees>
            </Position>
            <AltitudeMeters>805.139</AltitudeMeters>
            <DistanceMeters>549895.59572266</DistanceMeters>
          </Trackpoint>
          <Trackpoint>
            <Time>2021-08-03T15:21:18Z</Time>
            <Position>
              <LatitudeDegrees>41.048320</LatitudeDegrees>
              <LongitudeDegrees>-1.378695</LongitudeDegrees>
            </Position>
            <AltitudeMeters>805.344</AltitudeMeters>
            <DistanceMeters>549902.22787935</DistanceMeters>
          </Trackpoint>
          <Trackpoint>
            <Time>2021-08-03T15:21:20Z</Time>
            <Position>
              <LatitudeDegrees>41.048263</LatitudeDegrees>
              <LongitudeDegrees>-1.378680</LongitudeDegrees>
            </Position>
            <AltitudeMeters>805.345</AltitudeMeters>
            <DistanceMeters>549908.69667941</DistanceMeters>
          </Trackpoint>
          <Trackpoint>
            <Time>2021-08-03T15:21:22Z</Time>
            <Position>
              <LatitudeDegrees>41.048205</LatitudeDegrees>
              <LongitudeDegrees>-1.378690</LongitudeDegrees>
            </Position>
            <AltitudeMeters>805.348</AltitudeMeters>
            <DistanceMeters>549915.20652955</DistanceMeters>
          </Trackpoint>
          <Trackpoint>
            <Time>2021-08-03T15:21:24Z</Time>
            <Position>
              <LatitudeDegrees>41.048148</LatitudeDegrees>
              <LongitudeDegrees>-1.378707</LongitudeDegrees>
            </Position>
            <AltitudeMeters>805.661</AltitudeMeters>
            <DistanceMeters>549921.70874593</DistanceMeters>
          </Trackpoint>
          <Trackpoint>
            <Time>2021-08-03T15:21:26Z</Time>
            <Position>
              <LatitudeDegrees>41.048096</LatitudeDegrees>
              <LongitudeDegrees>-1.378737</LongitudeDegrees>
            </Position>
            <AltitudeMeters>805.817</AltitudeMeters>
            <DistanceMeters>549928.0206947</DistanceMeters>
          </Trackpoint>
          <Trackpoint>
            <Time>2021-08-03T15:21:28Z</Time>
            <Position>
              <LatitudeDegrees>41.048060</LatitudeDegrees>
              <LongitudeDegrees>-1.378777</LongitudeDegrees>
            </Position>
            <AltitudeMeters>805.908</AltitudeMeters>
            <DistanceMeters>549933.2480278</DistanceMeters>
          </Trackpoint>
          <Trackpoint>
            <Time>2021-08-03T15:21:30Z</Time>
            <Position>
              <LatitudeDegrees>41.048019</LatitudeDegrees>
              <LongitudeDegrees>-1.378846</LongitudeDegrees>
            </Position>
            <AltitudeMeters>806.291</AltitudeMeters>
            <DistanceMeters>549940.62163548</DistanceMeters>
          </Trackpoint>
          <Trackpoint>
            <Time>2021-08-03T15:21:32Z</Time>
            <Position>
              <LatitudeDegrees>41.047975</LatitudeDegrees>
              <LongitudeDegrees>-1.378917</LongitudeDegrees>
            </Position>
            <AltitudeMeters>806.333</AltitudeMeters>
            <DistanceMeters>549948.33579154</DistanceMeters>
          </Trackpoint>
          <Trackpoint>
            <Time>2021-08-03T15:21:34Z</Time>
            <Position>
              <LatitudeDegrees>41.047939</LatitudeDegrees>
              <LongitudeDegrees>-1.378956</LongitudeDegrees>
            </Position>
            <AltitudeMeters>806.413</AltitudeMeters>
            <DistanceMeters>549953.50929583</DistanceMeters>
          </Trackpoint>
          <Trackpoint>
            <Time>2021-08-03T15:21:37Z</Time>
            <Position>
              <LatitudeDegrees>41.047895</LatitudeDegrees>
              <LongitudeDegrees>-1.378993</LongitudeDegrees>
            </Position>
            <AltitudeMeters>806.476</AltitudeMeters>
            <DistanceMeters>549959.30748301</DistanceMeters>
          </Trackpoint>
          <Trackpoint>
            <Time>2021-08-03T15:21:40Z</Time>
            <Position>
              <LatitudeDegrees>41.047827</LatitudeDegrees>
              <LongitudeDegrees>-1.379021</LongitudeDegrees>
            </Position>
            <AltitudeMeters>806.624</AltitudeMeters>
            <DistanceMeters>549967.23296166</DistanceMeters>
          </Trackpoint>
          <Trackpoint>
            <Time>2021-08-03T15:21:42Z</Time>
            <Position>
              <LatitudeDegrees>41.047775</LatitudeDegrees>
              <LongitudeDegrees>-1.379013</LongitudeDegrees>
            </Position>
            <AltitudeMeters>806.729</AltitudeMeters>
            <DistanceMeters>549973.05988944</DistanceMeters>
          </Trackpoint>
          <Trackpoint>
            <Time>2021-08-03T15:21:44Z</Time>
            <Position>
              <LatitudeDegrees>41.047723</LatitudeDegrees>
              <LongitudeDegrees>-1.378986</LongitudeDegrees>
            </Position>
            <AltitudeMeters>806.974</AltitudeMeters>
            <DistanceMeters>549979.27524679</DistanceMeters>
          </Trackpoint>
          <Trackpoint>
            <Time>2021-08-03T15:21:46Z</Time>
            <Position>
              <LatitudeDegrees>41.047664</LatitudeDegrees>
              <LongitudeDegrees>-1.378966</LongitudeDegrees>
            </Position>
            <AltitudeMeters>807.395</AltitudeMeters>
            <DistanceMeters>549986.05219071</DistanceMeters>
          </Trackpoint>
          <Trackpoint>
            <Time>2021-08-03T15:21:48Z</Time>
            <Position>
              <LatitudeDegrees>41.047602</LatitudeDegrees>
              <LongitudeDegrees>-1.378949</LongitudeDegrees>
            </Position>
            <AltitudeMeters>807.482</AltitudeMeters>
            <DistanceMeters>549993.09891976</DistanceMeters>
          </Trackpoint>
          <Trackpoint>
            <Time>2021-08-03T15:21:51Z</Time>
            <Position>
              <LatitudeDegrees>41.047540</LatitudeDegrees>
              <LongitudeDegrees>-1.378936</LongitudeDegrees>
            </Position>
            <AltitudeMeters>807.443</AltitudeMeters>
            <DistanceMeters>550000.085807</DistanceMeters>
          </Trackpoint>
          <Trackpoint>
            <Time>2021-08-03T15:21:53Z</Time>
            <Position>
              <LatitudeDegrees>41.047488</LatitudeDegrees>
              <LongitudeDegrees>-1.378937</LongitudeDegrees>
            </Position>
            <AltitudeMeters>807.517</AltitudeMeters>
            <DistanceMeters>550005.87386225</DistanceMeters>
          </Trackpoint>
          <Trackpoint>
            <Time>2021-08-03T15:21:55Z</Time>
            <Position>
              <LatitudeDegrees>41.047435</LatitudeDegrees>
              <LongitudeDegrees>-1.378950</LongitudeDegrees>
            </Position>
            <AltitudeMeters>807.508</AltitudeMeters>
            <DistanceMeters>550011.87335262</DistanceMeters>
          </Trackpoint>
          <Trackpoint>
            <Time>2021-08-03T15:21:57Z</Time>
            <Position>
              <LatitudeDegrees>41.047382</LatitudeDegrees>
              <LongitudeDegrees>-1.378978</LongitudeDegrees>
            </Position>
            <AltitudeMeters>807.695</AltitudeMeters>
            <DistanceMeters>550018.22309996</DistanceMeters>
          </Trackpoint>
          <Trackpoint>
            <Time>2021-08-03T15:21:59Z</Time>
            <Position>
              <LatitudeDegrees>41.047327</LatitudeDegrees>
              <LongitudeDegrees>-1.379012</LongitudeDegrees>
            </Position>
            <AltitudeMeters>808.087</AltitudeMeters>
            <DistanceMeters>550024.9773539</DistanceMeters>
          </Trackpoint>
          <Trackpoint>
            <Time>2021-08-03T15:22:01Z</Time>
            <Position>
              <LatitudeDegrees>41.047268</LatitudeDegrees>
              <LongitudeDegrees>-1.379036</LongitudeDegrees>
            </Position>
            <AltitudeMeters>808.157</AltitudeMeters>
            <DistanceMeters>550031.84562292</DistanceMeters>
          </Trackpoint>
          <Trackpoint>
            <Time>2021-08-03T15:22:03Z</Time>
            <Position>
              <LatitudeDegrees>41.047200</LatitudeDegrees>
              <LongitudeDegrees>-1.379036</LongitudeDegrees>
            </Position>
            <AltitudeMeters>808.290</AltitudeMeters>
            <DistanceMeters>550039.41383109</DistanceMeters>
          </Trackpoint>
          <Trackpoint>
            <Time>2021-08-03T15:22:05Z</Time>
            <Position>
              <LatitudeDegrees>41.047121</LatitudeDegrees>
              <LongitudeDegrees>-1.379009</LongitudeDegrees>
            </Position>
            <AltitudeMeters>808.468</AltitudeMeters>
            <DistanceMeters>550048.49373185</DistanceMeters>
          </Trackpoint>
          <Trackpoint>
            <Time>2021-08-03T15:22:07Z</Time>
            <Position>
              <LatitudeDegrees>41.047053</LatitudeDegrees>
              <LongitudeDegrees>-1.378967</LongitudeDegrees>
            </Position>
            <AltitudeMeters>808.913</AltitudeMeters>
            <DistanceMeters>550056.84311447</DistanceMeters>
          </Trackpoint>
          <Trackpoint>
            <Time>2021-08-03T15:22:09Z</Time>
            <Position>
              <LatitudeDegrees>41.047008</LatitudeDegrees>
              <LongitudeDegrees>-1.378921</LongitudeDegrees>
            </Position>
            <AltitudeMeters>809.478</AltitudeMeters>
            <DistanceMeters>550063.16792583</DistanceMeters>
          </Trackpoint>
          <Trackpoint>
            <Time>2021-08-03T15:22:11Z</Time>
            <Position>
              <LatitudeDegrees>41.046977</LatitudeDegrees>
              <LongitudeDegrees>-1.378874</LongitudeDegrees>
            </Position>
            <AltitudeMeters>809.939</AltitudeMeters>
            <DistanceMeters>550068.40906049</DistanceMeters>
          </Trackpoint>
          <Trackpoint>
            <Time>2021-08-03T15:22:14Z</Time>
            <Position>
              <LatitudeDegrees>41.046943</LatitudeDegrees>
              <LongitudeDegrees>-1.378807</LongitudeDegrees>
            </Position>
            <AltitudeMeters>810.251</AltitudeMeters>
            <DistanceMeters>550075.18733674</DistanceMeters>
          </Trackpoint>
          <Trackpoint>
            <Time>2021-08-03T15:22:17Z</Time>
            <Position>
              <LatitudeDegrees>41.046927</LatitudeDegrees>
              <LongitudeDegrees>-1.378719</LongitudeDegrees>
            </Position>
            <AltitudeMeters>810.801</AltitudeMeters>
            <DistanceMeters>550082.78590955</DistanceMeters>
          </Trackpoint>
          <Trackpoint>
            <Time>2021-08-03T15:22:19Z</Time>
            <Position>
              <LatitudeDegrees>41.046917</LatitudeDegrees>
              <LongitudeDegrees>-1.378656</LongitudeDegrees>
            </Position>
            <AltitudeMeters>811.011</AltitudeMeters>
            <DistanceMeters>550088.18991429</DistanceMeters>
          </Trackpoint>
          <Trackpoint>
            <Time>2021-08-03T15:22:22Z</Time>
            <Position>
              <LatitudeDegrees>41.046906</LatitudeDegrees>
              <LongitudeDegrees>-1.378579</LongitudeDegrees>
            </Position>
            <AltitudeMeters>811.308</AltitudeMeters>
            <DistanceMeters>550094.76806953</DistanceMeters>
          </Trackpoint>
          <Trackpoint>
            <Time>2021-08-03T15:22:25Z</Time>
            <Position>
              <LatitudeDegrees>41.046904</LatitudeDegrees>
              <LongitudeDegrees>-1.378509</LongitudeDegrees>
            </Position>
            <AltitudeMeters>812.062</AltitudeMeters>
            <DistanceMeters>550100.64745152</DistanceMeters>
          </Trackpoint>
          <Trackpoint>
            <Time>2021-08-03T15:22:29Z</Time>
            <Position>
              <LatitudeDegrees>41.046903</LatitudeDegrees>
              <LongitudeDegrees>-1.378431</LongitudeDegrees>
            </Position>
            <AltitudeMeters>812.794</AltitudeMeters>
            <DistanceMeters>550107.1953369</DistanceMeters>
          </Trackpoint>
          <Trackpoint>
            <Time>2021-08-03T15:22:33Z</Time>
            <Position>
              <LatitudeDegrees>41.046911</LatitudeDegrees>
              <LongitudeDegrees>-1.378347</LongitudeDegrees>
            </Position>
            <AltitudeMeters>813.444</AltitudeMeters>
            <DistanceMeters>550114.30267449</DistanceMeters>
          </Trackpoint>
          <Trackpoint>
            <Time>2021-08-03T15:22:36Z</Time>
            <Position>
              <LatitudeDegrees>41.046926</LatitudeDegrees>
              <LongitudeDegrees>-1.378277</LongitudeDegrees>
            </Position>
            <AltitudeMeters>813.977</AltitudeMeters>
            <DistanceMeters>550120.41031281</DistanceMeters>
          </Trackpoint>
          <Trackpoint>
            <Time>2021-08-03T15:22:41Z</Time>
            <Position>
              <LatitudeDegrees>41.046942</LatitudeDegrees>
              <LongitudeDegrees>-1.378211</LongitudeDegrees>
            </Position>
            <AltitudeMeters>815.025</AltitudeMeters>
            <DistanceMeters>550126.22948686</DistanceMeters>
          </Trackpoint>
          <Trackpoint>
            <Time>2021-08-03T15:22:45Z</Time>
            <Position>
              <LatitudeDegrees>41.046986</LatitudeDegrees>
              <LongitudeDegrees>-1.378154</LongitudeDegrees>
            </Position>
            <AltitudeMeters>815.640</AltitudeMeters>
            <DistanceMeters>550133.07602809</DistanceMeters>
          </Trackpoint>
          <Trackpoint>
            <Time>2021-08-03T15:22:49Z</Time>
            <Position>
              <LatitudeDegrees>41.047034</LatitudeDegrees>
              <LongitudeDegrees>-1.378100</LongitudeDegrees>
            </Position>
            <AltitudeMeters>816.735</AltitudeMeters>
            <DistanceMeters>550140.08227499</DistanceMeters>
          </Trackpoint>
          <Trackpoint>
            <Time>2021-08-03T15:22:52Z</Time>
            <Position>
              <LatitudeDegrees>41.047073</LatitudeDegrees>
              <LongitudeDegrees>-1.378050</LongitudeDegrees>
            </Position>
            <AltitudeMeters>817.276</AltitudeMeters>
            <DistanceMeters>550146.12077221</DistanceMeters>
          </Trackpoint>
          <Trackpoint>
            <Time>2021-08-03T15:22:55Z</Time>
            <Position>
              <LatitudeDegrees>41.047107</LatitudeDegrees>
              <LongitudeDegrees>-1.377993</LongitudeDegrees>
            </Position>
            <AltitudeMeters>817.599</AltitudeMeters>
            <DistanceMeters>550152.2210136</DistanceMeters>
          </Trackpoint>
          <Trackpoint>
            <Time>2021-08-03T15:22:58Z</Time>
            <Position>
              <LatitudeDegrees>41.047128</LatitudeDegrees>
              <LongitudeDegrees>-1.377916</LongitudeDegrees>
            </Position>
            <AltitudeMeters>818.107</AltitudeMeters>
            <DistanceMeters>550159.09388271</DistanceMeters>
          </Trackpoint>
          <Trackpoint>
            <Time>2021-08-03T15:23:01Z</Time>
            <Position>
              <LatitudeDegrees>41.047094</LatitudeDegrees>
              <LongitudeDegrees>-1.377838</LongitudeDegrees>
            </Position>
            <AltitudeMeters>818.227</AltitudeMeters>
            <DistanceMeters>550166.65612273</DistanceMeters>
          </Trackpoint>
          <Trackpoint>
            <Time>2021-08-03T15:23:03Z</Time>
            <Position>
              <LatitudeDegrees>41.047044</LatitudeDegrees>
              <LongitudeDegrees>-1.377822</LongitudeDegrees>
            </Position>
            <AltitudeMeters>818.208</AltitudeMeters>
            <DistanceMeters>550172.38143299</DistanceMeters>
          </Trackpoint>
          <Trackpoint>
            <Time>2021-08-03T15:23:05Z</Time>
            <Position>
              <LatitudeDegrees>41.046996</LatitudeDegrees>
              <LongitudeDegrees>-1.377822</LongitudeDegrees>
            </Position>
            <AltitudeMeters>818.326</AltitudeMeters>
            <DistanceMeters>550177.72409821</DistanceMeters>
          </Trackpoint>
          <Trackpoint>
            <Time>2021-08-03T15:23:08Z</Time>
            <Position>
              <LatitudeDegrees>41.046944</LatitudeDegrees>
              <LongitudeDegrees>-1.377813</LongitudeDegrees>
            </Position>
            <AltitudeMeters>818.778</AltitudeMeters>
            <DistanceMeters>550183.56186392</DistanceMeters>
          </Trackpoint>
          <Trackpoint>
            <Time>2021-08-03T15:23:14Z</Time>
            <Position>
              <LatitudeDegrees>41.046894</LatitudeDegrees>
              <LongitudeDegrees>-1.377808</LongitudeDegrees>
            </Position>
            <AltitudeMeters>819.438</AltitudeMeters>
            <DistanceMeters>550189.14261061</DistanceMeters>
          </Trackpoint>
          <Trackpoint>
            <Time>2021-08-03T15:23:18Z</Time>
            <Position>
              <LatitudeDegrees>41.046842</LatitudeDegrees>
              <LongitudeDegrees>-1.377808</LongitudeDegrees>
            </Position>
            <AltitudeMeters>819.851</AltitudeMeters>
            <DistanceMeters>550194.93066586</DistanceMeters>
          </Trackpoint>
          <Trackpoint>
            <Time>2021-08-03T15:23:22Z</Time>
            <Position>
              <LatitudeDegrees>41.046784</LatitudeDegrees>
              <LongitudeDegrees>-1.377820</LongitudeDegrees>
            </Position>
            <AltitudeMeters>820.389</AltitudeMeters>
            <DistanceMeters>550201.46405483</DistanceMeters>
          </Trackpoint>
          <Trackpoint>
            <Time>2021-08-03T15:23:26Z</Time>
            <Position>
              <LatitudeDegrees>41.046731</LatitudeDegrees>
              <LongitudeDegrees>-1.377843</LongitudeDegrees>
            </Position>
            <AltitudeMeters>820.884</AltitudeMeters>
            <DistanceMeters>550207.67068887</DistanceMeters>
          </Trackpoint>
          <Trackpoint>
            <Time>2021-08-03T15:23:29Z</Time>
            <Position>
              <LatitudeDegrees>41.046690</LatitudeDegrees>
              <LongitudeDegrees>-1.377877</LongitudeDegrees>
            </Position>
            <AltitudeMeters>821.029</AltitudeMeters>
            <DistanceMeters>550213.05292681</DistanceMeters>
          </Trackpoint>
          <Trackpoint>
            <Time>2021-08-03T15:23:32Z</Time>
            <Position>
              <LatitudeDegrees>41.046637</LatitudeDegrees>
              <LongitudeDegrees>-1.377902</LongitudeDegrees>
            </Position>
            <AltitudeMeters>821.240</AltitudeMeters>
            <DistanceMeters>550219.31316097</DistanceMeters>
          </Trackpoint>
          <Trackpoint>
            <Time>2021-08-03T15:23:35Z</Time>
            <Position>
              <LatitudeDegrees>41.046590</LatitudeDegrees>
              <LongitudeDegrees>-1.377928</LongitudeDegrees>
            </Position>
            <AltitudeMeters>821.354</AltitudeMeters>
            <DistanceMeters>550224.9814069</DistanceMeters>
          </Trackpoint>
          <Trackpoint>
            <Time>2021-08-03T15:23:38Z</Time>
            <Position>
              <LatitudeDegrees>41.046537</LatitudeDegrees>
              <LongitudeDegrees>-1.377957</LongitudeDegrees>
            </Position>
            <AltitudeMeters>821.556</AltitudeMeters>
            <DistanceMeters>550231.3623641</DistanceMeters>
          </Trackpoint>
          <Trackpoint>
            <Time>2021-08-03T15:23:41Z</Time>
            <Position>
              <LatitudeDegrees>41.046492</LatitudeDegrees>
              <LongitudeDegrees>-1.377996</LongitudeDegrees>
            </Position>
            <AltitudeMeters>822.411</AltitudeMeters>
            <DistanceMeters>550237.34527501</DistanceMeters>
          </Trackpoint>
          <Trackpoint>
            <Time>2021-08-03T15:23:44Z</Time>
            <Position>
              <LatitudeDegrees>41.046459</LatitudeDegrees>
              <LongitudeDegrees>-1.378037</LongitudeDegrees>
            </Position>
            <AltitudeMeters>822.908</AltitudeMeters>
            <DistanceMeters>550242.37810368</DistanceMeters>
          </Trackpoint>
          <Trackpoint>
            <Time>2021-08-03T15:23:48Z</Time>
            <Position>
              <LatitudeDegrees>41.046424</LatitudeDegrees>
              <LongitudeDegrees>-1.378094</LongitudeDegrees>
            </Position>
            <AltitudeMeters>823.752</AltitudeMeters>
            <DistanceMeters>550248.54752604</DistanceMeters>
          </Trackpoint>
          <Trackpoint>
            <Time>2021-08-03T15:23:51Z</Time>
            <Position>
              <LatitudeDegrees>41.046395</LatitudeDegrees>
              <LongitudeDegrees>-1.378149</LongitudeDegrees>
            </Position>
            <AltitudeMeters>823.794</AltitudeMeters>
            <DistanceMeters>550254.18061477</DistanceMeters>
          </Trackpoint>
          <Trackpoint>
            <Time>2021-08-03T15:23:54Z</Time>
            <Position>
              <LatitudeDegrees>41.046375</LatitudeDegrees>
              <LongitudeDegrees>-1.378225</LongitudeDegrees>
            </Position>
            <AltitudeMeters>824.074</AltitudeMeters>
            <DistanceMeters>550260.93754206</DistanceMeters>
          </Trackpoint>
          <Trackpoint>
            <Time>2021-08-03T15:23:56Z</Time>
            <Position>
              <LatitudeDegrees>41.046359</LatitudeDegrees>
              <LongitudeDegrees>-1.378287</LongitudeDegrees>
            </Position>
            <AltitudeMeters>824.127</AltitudeMeters>
            <DistanceMeters>550266.4376108</DistanceMeters>
          </Trackpoint>
          <Trackpoint>
            <Time>2021-08-03T15:23:58Z</Time>
            <Position>
              <LatitudeDegrees>41.046337</LatitudeDegrees>
              <LongitudeDegrees>-1.378362</LongitudeDegrees>
            </Position>
            <AltitudeMeters>824.265</AltitudeMeters>
            <DistanceMeters>550273.19320155</DistanceMeters>
          </Trackpoint>
          <Trackpoint>
            <Time>2021-08-03T15:24:00Z</Time>
            <Position>
              <LatitudeDegrees>41.046309</LatitudeDegrees>
              <LongitudeDegrees>-1.378431</LongitudeDegrees>
            </Position>
            <AltitudeMeters>824.460</AltitudeMeters>
            <DistanceMeters>550279.77135678</DistanceMeters>
          </Trackpoint>
          <Trackpoint>
            <Time>2021-08-03T15:24:03Z</Time>
            <Position>
              <LatitudeDegrees>41.046280</LatitudeDegrees>
              <LongitudeDegrees>-1.378488</LongitudeDegrees>
            </Position>
            <AltitudeMeters>825.225</AltitudeMeters>
            <DistanceMeters>550285.54378973</DistanceMeters>
          </Trackpoint>
          <Trackpoint>
            <Time>2021-08-03T15:24:06Z</Time>
            <Position>
              <LatitudeDegrees>41.046230</LatitudeDegrees>
              <LongitudeDegrees>-1.378555</LongitudeDegrees>
            </Position>
            <AltitudeMeters>825.456</AltitudeMeters>
            <DistanceMeters>550293.45558408</DistanceMeters>
          </Trackpoint>
          <Trackpoint>
            <Time>2021-08-03T15:24:08Z</Time>
            <Position>
              <LatitudeDegrees>41.046183</LatitudeDegrees>
              <LongitudeDegrees>-1.378607</LongitudeDegrees>
            </Position>
            <AltitudeMeters>826.142</AltitudeMeters>
            <DistanceMeters>550300.2684097</DistanceMeters>
          </Trackpoint>
          <Trackpoint>
            <Time>2021-08-03T15:24:10Z</Time>
            <Position>
              <LatitudeDegrees>41.046123</LatitudeDegrees>
              <LongitudeDegrees>-1.378656</LongitudeDegrees>
            </Position>
            <AltitudeMeters>826.122</AltitudeMeters>
            <DistanceMeters>550308.11200013</DistanceMeters>
          </Trackpoint>
          <Trackpoint>
            <Time>2021-08-03T15:24:12Z</Time>
            <Position>
              <LatitudeDegrees>41.046066</LatitudeDegrees>
              <LongitudeDegrees>-1.378698</LongitudeDegrees>
            </Position>
            <AltitudeMeters>826.614</AltitudeMeters>
            <DistanceMeters>550315.36895581</DistanceMeters>
          </Trackpoint>
          <Trackpoint>
            <Time>2021-08-03T15:24:14Z</Time>
            <Position>
              <LatitudeDegrees>41.046012</LatitudeDegrees>
              <LongitudeDegrees>-1.378738</LongitudeDegrees>
            </Position>
            <AltitudeMeters>826.708</AltitudeMeters>
            <DistanceMeters>550322.25298379</DistanceMeters>
          </Trackpoint>
          <Trackpoint>
            <Time>2021-08-03T15:24:16Z</Time>
            <Position>
              <LatitudeDegrees>41.045959</LatitudeDegrees>
              <LongitudeDegrees>-1.378785</LongitudeDegrees>
            </Position>
            <AltitudeMeters>826.791</AltitudeMeters>
            <DistanceMeters>550329.34824109</DistanceMeters>
          </Trackpoint>
          <Trackpoint>
            <Time>2021-08-03T15:24:18Z</Time>
            <Position>
              <LatitudeDegrees>41.045906</LatitudeDegrees>
              <LongitudeDegrees>-1.378835</LongitudeDegrees>
            </Position>
            <AltitudeMeters>826.833</AltitudeMeters>
            <DistanceMeters>550336.58713145</DistanceMeters>
          </Trackpoint>
          <Trackpoint>
            <Time>2021-08-03T15:24:20Z</Time>
            <Position>
              <LatitudeDegrees>41.045856</LatitudeDegrees>
              <LongitudeDegrees>-1.378883</LongitudeDegrees>
            </Position>
            <AltitudeMeters>826.813</AltitudeMeters>
            <DistanceMeters>550343.45802947</DistanceMeters>
          </Trackpoint>
          <Trackpoint>
            <Time>2021-08-03T15:24:22Z</Time>
            <Position>
              <LatitudeDegrees>41.045813</LatitudeDegrees>
              <LongitudeDegrees>-1.378929</LongitudeDegrees>
            </Position>
            <AltitudeMeters>826.886</AltitudeMeters>
            <DistanceMeters>550349.60692613</DistanceMeters>
          </Trackpoint>
          <Trackpoint>
            <Time>2021-08-03T15:24:24Z</Time>
            <Position>
              <LatitudeDegrees>41.045774</LatitudeDegrees>
              <LongitudeDegrees>-1.378973</LongitudeDegrees>
            </Position>
            <AltitudeMeters>826.834</AltitudeMeters>
            <DistanceMeters>550355.30615283</DistanceMeters>
          </Trackpoint>
          <Trackpoint>
            <Time>2021-08-03T15:24:25Z</Time>
            <Position>
              <LatitudeDegrees>41.045718</LatitudeDegrees>
              <LongitudeDegrees>-1.379035</LongitudeDegrees>
            </Position>
            <AltitudeMeters>826.259</AltitudeMeters>
            <DistanceMeters>550363.42523886</DistanceMeters>
          </Trackpoint>
          <Trackpoint>
            <Time>2021-08-03T15:24:27Z</Time>
            <Position>
              <LatitudeDegrees>41.045632</LatitudeDegrees>
              <LongitudeDegrees>-1.379077</LongitudeDegrees>
            </Position>
            <AltitudeMeters>824.534</AltitudeMeters>
            <DistanceMeters>550373.62546145</DistanceMeters>
          </Trackpoint>
          <Trackpoint>
            <Time>2021-08-03T15:24:29Z</Time>
            <Position>
              <LatitudeDegrees>41.045576</LatitudeDegrees>
              <LongitudeDegrees>-1.379014</LongitudeDegrees>
            </Position>
            <AltitudeMeters>824.335</AltitudeMeters>
            <DistanceMeters>550381.79996851</DistanceMeters>
          </Trackpoint>
          <Trackpoint>
            <Time>2021-08-03T15:24:32Z</Time>
            <Position>
              <LatitudeDegrees>41.045566</LatitudeDegrees>
              <LongitudeDegrees>-1.378915</LongitudeDegrees>
            </Position>
            <AltitudeMeters>823.843</AltitudeMeters>
            <DistanceMeters>550390.18442705</DistanceMeters>
          </Trackpoint>
          <Trackpoint>
            <Time>2021-08-03T15:24:34Z</Time>
            <Position>
              <LatitudeDegrees>41.045597</LatitudeDegrees>
              <LongitudeDegrees>-1.378810</LongitudeDegrees>
            </Position>
            <AltitudeMeters>822.764</AltitudeMeters>
            <DistanceMeters>550399.64996552</DistanceMeters>
          </Trackpoint>
          <Trackpoint>
            <Time>2021-08-03T15:24:36Z</Time>
            <Position>
              <LatitudeDegrees>41.045653</LatitudeDegrees>
              <LongitudeDegrees>-1.378660</LongitudeDegrees>
            </Position>
            <AltitudeMeters>821.710</AltitudeMeters>
            <DistanceMeters>550413.69978655</DistanceMeters>
          </Trackpoint>
          <Trackpoint>
            <Time>2021-08-03T15:24:38Z</Time>
            <Position>
              <LatitudeDegrees>41.045721</LatitudeDegrees>
              <LongitudeDegrees>-1.378475</LongitudeDegrees>
            </Position>
            <AltitudeMeters>819.208</AltitudeMeters>
            <DistanceMeters>550430.97531915</DistanceMeters>
          </Trackpoint>
          <Trackpoint>
            <Time>2021-08-03T15:24:40Z</Time>
            <Position>
              <LatitudeDegrees>41.045807</LatitudeDegrees>
              <LongitudeDegrees>-1.378222</LongitudeDegrees>
            </Position>
            <AltitudeMeters>816.071</AltitudeMeters>
            <DistanceMeters>550454.27004782</DistanceMeters>
          </Trackpoint>
          <Trackpoint>
            <Time>2021-08-03T15:24:42Z</Time>
            <Position>
              <LatitudeDegrees>41.045862</LatitudeDegrees>
              <LongitudeDegrees>-1.378015</LongitudeDegrees>
            </Position>
            <AltitudeMeters>813.953</AltitudeMeters>
            <DistanceMeters>550472.69298063</DistanceMeters>
          </Trackpoint>
          <Trackpoint>
            <Time>2021-08-03T15:24:43Z</Time>
            <Position>
              <LatitudeDegrees>41.045892</LatitudeDegrees>
              <LongitudeDegrees>-1.377892</LongitudeDegrees>
            </Position>
            <AltitudeMeters>812.813</AltitudeMeters>
            <DistanceMeters>550483.54393297</DistanceMeters>
          </Trackpoint>
          <Trackpoint>
            <Time>2021-08-03T15:24:45Z</Time>
            <Position>
              <LatitudeDegrees>41.045936</LatitudeDegrees>
              <LongitudeDegrees>-1.377656</LongitudeDegrees>
            </Position>
            <AltitudeMeters>811.426</AltitudeMeters>
            <DistanceMeters>550503.95057417</DistanceMeters>
          </Trackpoint>
          <Trackpoint>
            <Time>2021-08-03T15:24:47Z</Time>
            <Position>
              <LatitudeDegrees>41.045945</LatitudeDegrees>
              <LongitudeDegrees>-1.377435</LongitudeDegrees>
            </Position>
            <AltitudeMeters>811.464</AltitudeMeters>
            <DistanceMeters>550522.52872214</DistanceMeters>
          </Trackpoint>
          <Trackpoint>
            <Time>2021-08-03T15:24:48Z</Time>
            <Position>
              <LatitudeDegrees>41.045950</LatitudeDegrees>
              <LongitudeDegrees>-1.377328</LongitudeDegrees>
            </Position>
            <AltitudeMeters>811.229</AltitudeMeters>
            <DistanceMeters>550531.52770684</DistanceMeters>
          </Trackpoint>
          <Trackpoint>
            <Time>2021-08-03T15:24:49Z</Time>
            <Position>
              <LatitudeDegrees>41.045960</LatitudeDegrees>
              <LongitudeDegrees>-1.377240</LongitudeDegrees>
            </Position>
            <AltitudeMeters>810.764</AltitudeMeters>
            <DistanceMeters>550538.99803965</DistanceMeters>
          </Trackpoint>
          <Trackpoint>
            <Time>2021-08-03T15:24:50Z</Time>
            <Position>
              <LatitudeDegrees>41.045964</LatitudeDegrees>
              <LongitudeDegrees>-1.377134</LongitudeDegrees>
            </Position>
            <AltitudeMeters>810.235</AltitudeMeters>
            <DistanceMeters>550547.90625563</DistanceMeters>
          </Trackpoint>
          <Trackpoint>
            <Time>2021-08-03T15:24:52Z</Time>
            <Position>
              <LatitudeDegrees>41.045974</LatitudeDegrees>
              <LongitudeDegrees>-1.376946</LongitudeDegrees>
            </Position>
            <AltitudeMeters>809.067</AltitudeMeters>
            <DistanceMeters>550563.72641993</DistanceMeters>
          </Trackpoint>
          <Trackpoint>
            <Time>2021-08-03T15:24:54Z</Time>
            <Position>
              <LatitudeDegrees>41.045981</LatitudeDegrees>
              <LongitudeDegrees>-1.376767</LongitudeDegrees>
            </Position>
            <AltitudeMeters>807.581</AltitudeMeters>
            <DistanceMeters>550578.77188291</DistanceMeters>
          </Trackpoint>
          <Trackpoint>
            <Time>2021-08-03T15:24:56Z</Time>
            <Position>
              <LatitudeDegrees>41.045981</LatitudeDegrees>
              <LongitudeDegrees>-1.376643</LongitudeDegrees>
            </Position>
            <AltitudeMeters>806.919</AltitudeMeters>
            <DistanceMeters>550589.18067041</DistanceMeters>
          </Trackpoint>
          <Trackpoint>
            <Time>2021-08-03T15:24:58Z</Time>
            <Position>
              <LatitudeDegrees>41.045978</LatitudeDegrees>
              <LongitudeDegrees>-1.376545</LongitudeDegrees>
            </Position>
            <AltitudeMeters>806.608</AltitudeMeters>
            <DistanceMeters>550597.41351644</DistanceMeters>
          </Trackpoint>
          <Trackpoint>
            <Time>2021-08-03T15:25:00Z</Time>
            <Position>
              <LatitudeDegrees>41.045959</LatitudeDegrees>
              <LongitudeDegrees>-1.376449</LongitudeDegrees>
            </Position>
            <AltitudeMeters>806.363</AltitudeMeters>
            <DistanceMeters>550605.74449283</DistanceMeters>
          </Trackpoint>
          <Trackpoint>
            <Time>2021-08-03T15:25:02Z</Time>
            <Position>
              <LatitudeDegrees>41.045972</LatitudeDegrees>
              <LongitudeDegrees>-1.376352</LongitudeDegrees>
            </Position>
            <AltitudeMeters>806.165</AltitudeMeters>
            <DistanceMeters>550614.01454718</DistanceMeters>
          </Trackpoint>
          <Trackpoint>
            <Time>2021-08-03T15:25:04Z</Time>
            <Position>
              <LatitudeDegrees>41.045986</LatitudeDegrees>
              <LongitudeDegrees>-1.376259</LongitudeDegrees>
            </Position>
            <AltitudeMeters>805.445</AltitudeMeters>
            <DistanceMeters>550621.97526803</DistanceMeters>
          </Trackpoint>
          <Trackpoint>
            <Time>2021-08-03T15:25:06Z</Time>
            <Position>
              <LatitudeDegrees>41.045996</LatitudeDegrees>
              <LongitudeDegrees>-1.376167</LongitudeDegrees>
            </Position>
            <AltitudeMeters>804.478</AltitudeMeters>
            <DistanceMeters>550629.77846004</DistanceMeters>
          </Trackpoint>
          <Trackpoint>
            <Time>2021-08-03T15:25:08Z</Time>
            <Position>
              <LatitudeDegrees>41.046025</LatitudeDegrees>
              <LongitudeDegrees>-1.376102</LongitudeDegrees>
            </Position>
            <AltitudeMeters>803.776</AltitudeMeters>
            <DistanceMeters>550636.11895689</DistanceMeters>
          </Trackpoint>
          <Trackpoint>
            <Time>2021-08-03T15:25:10Z</Time>
            <Position>
              <LatitudeDegrees>41.046019</LatitudeDegrees>
              <LongitudeDegrees>-1.375964</LongitudeDegrees>
            </Position>
            <AltitudeMeters>802.741</AltitudeMeters>
            <DistanceMeters>550647.72233742</DistanceMeters>
          </Trackpoint>
          <Trackpoint>
            <Time>2021-08-03T15:25:11Z</Time>
            <Position>
              <LatitudeDegrees>41.046024</LatitudeDegrees>
              <LongitudeDegrees>-1.375862</LongitudeDegrees>
            </Position>
            <AltitudeMeters>801.896</AltitudeMeters>
            <DistanceMeters>550656.30214996</DistanceMeters>
          </Trackpoint>
          <Trackpoint>
            <Time>2021-08-03T15:25:12Z</Time>
            <Position>
              <LatitudeDegrees>41.046055</LatitudeDegrees>
              <LongitudeDegrees>-1.375793</LongitudeDegrees>
            </Position>
            <AltitudeMeters>801.177</AltitudeMeters>
            <DistanceMeters>550663.04436064</DistanceMeters>
          </Trackpoint>
          <Trackpoint>
            <Time>2021-08-03T15:25:13Z</Time>
            <Position>
              <LatitudeDegrees>41.046098</LatitudeDegrees>
              <LongitudeDegrees>-1.375774</LongitudeDegrees>
            </Position>
            <AltitudeMeters>800.361</AltitudeMeters>
            <DistanceMeters>550668.08883835</DistanceMeters>
          </Trackpoint>
          <Trackpoint>
            <Time>2021-08-03T15:25:15Z</Time>
            <Position>
              <LatitudeDegrees>41.046194</LatitudeDegrees>
              <LongitudeDegrees>-1.375671</LongitudeDegrees>
            </Position>
            <AltitudeMeters>799.821</AltitudeMeters>
            <DistanceMeters>550681.83359114</DistanceMeters>
          </Trackpoint>
          <Trackpoint>
            <Time>2021-08-03T15:25:17Z</Time>
            <Position>
              <LatitudeDegrees>41.046201</LatitudeDegrees>
              <LongitudeDegrees>-1.375493</LongitudeDegrees>
            </Position>
            <AltitudeMeters>798.613</AltitudeMeters>
            <DistanceMeters>550696.79539568</DistanceMeters>
          </Trackpoint>
          <Trackpoint>
            <Time>2021-08-03T15:25:18Z</Time>
            <Position>
              <LatitudeDegrees>41.046222</LatitudeDegrees>
              <LongitudeDegrees>-1.375424</LongitudeDegrees>
            </Position>
            <AltitudeMeters>798.308</AltitudeMeters>
            <DistanceMeters>550703.04118869</DistanceMeters>
          </Trackpoint>
          <Trackpoint>
            <Time>2021-08-03T15:25:19Z</Time>
            <Position>
              <LatitudeDegrees>41.046245</LatitudeDegrees>
              <LongitudeDegrees>-1.375351</LongitudeDegrees>
            </Position>
            <AltitudeMeters>798.243</AltitudeMeters>
            <DistanceMeters>550709.68218962</DistanceMeters>
          </Trackpoint>
          <Trackpoint>
            <Time>2021-08-03T15:25:21Z</Time>
            <Position>
              <LatitudeDegrees>41.046280</LatitudeDegrees>
              <LongitudeDegrees>-1.375242</LongitudeDegrees>
            </Position>
            <AltitudeMeters>797.825</AltitudeMeters>
            <DistanceMeters>550719.62645264</DistanceMeters>
          </Trackpoint>
          <Trackpoint>
            <Time>2021-08-03T15:25:23Z</Time>
            <Position>
              <LatitudeDegrees>41.046320</LatitudeDegrees>
              <LongitudeDegrees>-1.375099</LongitudeDegrees>
            </Position>
            <AltitudeMeters>797.675</AltitudeMeters>
            <DistanceMeters>550732.42898823</DistanceMeters>
          </Trackpoint>
          <Trackpoint>
            <Time>2021-08-03T15:25:26Z</Time>
            <Position>
              <LatitudeDegrees>41.046361</LatitudeDegrees>
              <LongitudeDegrees>-1.375029</LongitudeDegrees>
            </Position>
            <AltitudeMeters>797.198</AltitudeMeters>
            <DistanceMeters>550739.868433</DistanceMeters>
          </Trackpoint>
          <Trackpoint>
            <Time>2021-08-03T15:25:28Z</Time>
            <Position>
              <LatitudeDegrees>41.046355</LatitudeDegrees>
              <LongitudeDegrees>-1.374956</LongitudeDegrees>
            </Position>
            <AltitudeMeters>797.036</AltitudeMeters>
            <DistanceMeters>550746.03273034</DistanceMeters>
          </Trackpoint>
          <Trackpoint>
            <Time>2021-08-03T15:25:30Z</Time>
            <Position>
              <LatitudeDegrees>41.046308</LatitudeDegrees>
              <LongitudeDegrees>-1.374915</LongitudeDegrees>
            </Position>
            <AltitudeMeters>796.911</AltitudeMeters>
            <DistanceMeters>550752.29440679</DistanceMeters>
          </Trackpoint>
          <Trackpoint>
            <Time>2021-08-03T15:25:32Z</Time>
            <Position>
              <LatitudeDegrees>41.046216</LatitudeDegrees>
              <LongitudeDegrees>-1.374878</LongitudeDegrees>
            </Position>
            <AltitudeMeters>796.826</AltitudeMeters>
            <DistanceMeters>550762.99493805</DistanceMeters>
          </Trackpoint>
          <Trackpoint>
            <Time>2021-08-03T15:25:33Z</Time>
            <Position>
              <LatitudeDegrees>41.046162</LatitudeDegrees>
              <LongitudeDegrees>-1.374862</LongitudeDegrees>
            </Position>
            <AltitudeMeters>796.427</AltitudeMeters>
            <DistanceMeters>550769.153373</DistanceMeters>
          </Trackpoint>
          <Trackpoint>
            <Time>2021-08-03T15:25:35Z</Time>
            <Position>
              <LatitudeDegrees>41.046050</LatitudeDegrees>
              <LongitudeDegrees>-1.374849</LongitudeDegrees>
            </Position>
            <AltitudeMeters>795.963</AltitudeMeters>
            <DistanceMeters>550781.66698781</DistanceMeters>
          </Trackpoint>
          <Trackpoint>
            <Time>2021-08-03T15:25:36Z</Time>
            <Position>
              <LatitudeDegrees>41.045994</LatitudeDegrees>
              <LongitudeDegrees>-1.374850</LongitudeDegrees>
            </Position>
            <AltitudeMeters>795.644</AltitudeMeters>
            <DistanceMeters>550787.90120381</DistanceMeters>
          </Trackpoint>
          <Trackpoint>
            <Time>2021-08-03T15:25:37Z</Time>
            <Position>
              <LatitudeDegrees>41.045944</LatitudeDegrees>
              <LongitudeDegrees>-1.374843</LongitudeDegrees>
            </Position>
            <AltitudeMeters>795.418</AltitudeMeters>
            <DistanceMeters>550793.49568724</DistanceMeters>
          </Trackpoint>
          <Trackpoint>
            <Time>2021-08-03T15:25:39Z</Time>
            <Position>
              <LatitudeDegrees>41.045865</LatitudeDegrees>
              <LongitudeDegrees>-1.374824</LongitudeDegrees>
            </Position>
            <AltitudeMeters>796.008</AltitudeMeters>
            <DistanceMeters>550802.43173592</DistanceMeters>
          </Trackpoint>
          <Trackpoint>
            <Time>2021-08-03T15:25:41Z</Time>
            <Position>
              <LatitudeDegrees>41.045788</LatitudeDegrees>
              <LongitudeDegrees>-1.374809</LongitudeDegrees>
            </Position>
            <AltitudeMeters>796.153</AltitudeMeters>
            <DistanceMeters>550811.09429532</DistanceMeters>
          </Trackpoint>
          <Trackpoint>
            <Time>2021-08-03T15:25:43Z</Time>
            <Position>
              <LatitudeDegrees>41.045715</LatitudeDegrees>
              <LongitudeDegrees>-1.374794</LongitudeDegrees>
            </Position>
            <AltitudeMeters>796.025</AltitudeMeters>
            <DistanceMeters>550819.31616568</DistanceMeters>
          </Trackpoint>
          <Trackpoint>
            <Time>2021-08-03T15:25:45Z</Time>
            <Position>
              <LatitudeDegrees>41.045592</LatitudeDegrees>
              <LongitudeDegrees>-1.374760</LongitudeDegrees>
            </Position>
            <AltitudeMeters>796.015</AltitudeMeters>
            <DistanceMeters>550833.30027579</DistanceMeters>
          </Trackpoint>
          <Trackpoint>
            <Time>2021-08-03T15:25:46Z</Time>
            <Position>
              <LatitudeDegrees>41.045505</LatitudeDegrees>
              <LongitudeDegrees>-1.374718</LongitudeDegrees>
            </Position>
            <AltitudeMeters>796.148</AltitudeMeters>
            <DistanceMeters>550843.60487034</DistanceMeters>
          </Trackpoint>
          <Trackpoint>
            <Time>2021-08-03T15:25:48Z</Time>
            <Position>
              <LatitudeDegrees>41.045414</LatitudeDegrees>
              <LongitudeDegrees>-1.374690</LongitudeDegrees>
            </Position>
            <AltitudeMeters>796.266</AltitudeMeters>
            <DistanceMeters>550854.00237365</DistanceMeters>
          </Trackpoint>
          <Trackpoint>
            <Time>2021-08-03T15:25:50Z</Time>
            <Position>
              <LatitudeDegrees>41.045310</LatitudeDegrees>
              <LongitudeDegrees>-1.374619</LongitudeDegrees>
            </Position>
            <AltitudeMeters>795.921</AltitudeMeters>
            <DistanceMeters>550867.02207392</DistanceMeters>
          </Trackpoint>
          <Trackpoint>
            <Time>2021-08-03T15:25:51Z</Time>
            <Position>
              <LatitudeDegrees>41.045265</LatitudeDegrees>
              <LongitudeDegrees>-1.374587</LongitudeDegrees>
            </Position>
            <AltitudeMeters>795.986</AltitudeMeters>
            <DistanceMeters>550872.70463966</DistanceMeters>
          </Trackpoint>
          <Trackpoint>
            <Time>2021-08-03T15:25:53Z</Time>
            <Position>
              <LatitudeDegrees>41.045189</LatitudeDegrees>
              <LongitudeDegrees>-1.374520</LongitudeDegrees>
            </Position>
            <AltitudeMeters>795.767</AltitudeMeters>
            <DistanceMeters>550882.86227981</DistanceMeters>
          </Trackpoint>
          <Trackpoint>
            <Time>2021-08-03T15:25:54Z</Time>
            <Position>
              <LatitudeDegrees>41.045149</LatitudeDegrees>
              <LongitudeDegrees>-1.374494</LongitudeDegrees>
            </Position>
            <AltitudeMeters>795.626</AltitudeMeters>
            <DistanceMeters>550887.82008861</DistanceMeters>
          </Trackpoint>
          <Trackpoint>
            <Time>2021-08-03T15:25:56Z</Time>
            <Position>
              <LatitudeDegrees>41.045054</LatitudeDegrees>
              <LongitudeDegrees>-1.374474</LongitudeDegrees>
            </Position>
            <AltitudeMeters>795.647</AltitudeMeters>
            <DistanceMeters>550898.52610375</DistanceMeters>
          </Trackpoint>
          <Trackpoint>
            <Time>2021-08-03T15:25:57Z</Time>
            <Position>
              <LatitudeDegrees>41.045007</LatitudeDegrees>
              <LongitudeDegrees>-1.374485</LongitudeDegrees>
            </Position>
            <AltitudeMeters>795.611</AltitudeMeters>
            <DistanceMeters>550903.83825858</DistanceMeters>
          </Trackpoint>
          <Trackpoint>
            <Time>2021-08-03T15:25:59Z</Time>
            <Position>
              <LatitudeDegrees>41.044922</LatitudeDegrees>
              <LongitudeDegrees>-1.374512</LongitudeDegrees>
            </Position>
            <AltitudeMeters>796.008</AltitudeMeters>
            <DistanceMeters>550913.56632114</DistanceMeters>
          </Trackpoint>
          <Trackpoint>
            <Time>2021-08-03T15:26:00Z</Time>
            <Position>
              <LatitudeDegrees>41.044876</LatitudeDegrees>
              <LongitudeDegrees>-1.374519</LongitudeDegrees>
            </Position>
            <AltitudeMeters>796.069</AltitudeMeters>
            <DistanceMeters>550918.71971369</DistanceMeters>
          </Trackpoint>
          <Trackpoint>
            <Time>2021-08-03T15:26:04Z</Time>
            <Position>
              <LatitudeDegrees>41.044812</LatitudeDegrees>
              <LongitudeDegrees>-1.374525</LongitudeDegrees>
            </Position>
            <AltitudeMeters>795.441</AltitudeMeters>
            <DistanceMeters>550925.86127317</DistanceMeters>
          </Trackpoint>
          <Trackpoint>
            <Time>2021-08-03T15:26:06Z</Time>
            <Position>
              <LatitudeDegrees>41.044694</LatitudeDegrees>
              <LongitudeDegrees>-1.374487</LongitudeDegrees>
            </Position>
            <AltitudeMeters>795.461</AltitudeMeters>
            <DistanceMeters>550939.37713224</DistanceMeters>
          </Trackpoint>
          <Trackpoint>
            <Time>2021-08-03T15:26:08Z</Time>
            <Position>
              <LatitudeDegrees>41.044776</LatitudeDegrees>
              <LongitudeDegrees>-1.374604</LongitudeDegrees>
            </Position>
            <AltitudeMeters>795.614</AltitudeMeters>
            <DistanceMeters>550952.78465743</DistanceMeters>
          </Trackpoint>
          <Trackpoint>
            <Time>2021-08-03T15:26:09Z</Time>
            <Position>
              <LatitudeDegrees>41.044652</LatitudeDegrees>
              <LongitudeDegrees>-1.374599</LongitudeDegrees>
            </Position>
            <AltitudeMeters>796.092</AltitudeMeters>
            <DistanceMeters>550966.5920096</DistanceMeters>
          </Trackpoint>
          <Trackpoint>
            <Time>2021-08-03T15:26:11Z</Time>
            <Position>
              <LatitudeDegrees>41.044310</LatitudeDegrees>
              <LongitudeDegrees>-1.374219</LongitudeDegrees>
            </Position>
            <AltitudeMeters>796.197</AltitudeMeters>
            <DistanceMeters>551016.2558107</DistanceMeters>
          </Trackpoint>
          <Trackpoint>
            <Time>2021-08-03T15:26:13Z</Time>
            <Position>
              <LatitudeDegrees>41.044238</LatitudeDegrees>
              <LongitudeDegrees>-1.374124</LongitudeDegrees>
            </Position>
            <AltitudeMeters>795.942</AltitudeMeters>
            <DistanceMeters>551027.56119446</DistanceMeters>
          </Trackpoint>
          <Trackpoint>
            <Time>2021-08-03T15:26:15Z</Time>
            <Position>
              <LatitudeDegrees>41.044153</LatitudeDegrees>
              <LongitudeDegrees>-1.374032</LongitudeDegrees>
            </Position>
            <AltitudeMeters>796.143</AltitudeMeters>
            <DistanceMeters>551039.77351376</DistanceMeters>
          </Trackpoint>
          <Trackpoint>
            <Time>2021-08-03T15:26:17Z</Time>
            <Position>
              <LatitudeDegrees>41.044063</LatitudeDegrees>
              <LongitudeDegrees>-1.373945</LongitudeDegrees>
            </Position>
            <AltitudeMeters>796.146</AltitudeMeters>
            <DistanceMeters>551052.17076753</DistanceMeters>
          </Trackpoint>
          <Trackpoint>
            <Time>2021-08-03T15:26:19Z</Time>
            <Position>
              <LatitudeDegrees>41.043982</LatitudeDegrees>
              <LongitudeDegrees>-1.373876</LongitudeDegrees>
            </Position>
            <AltitudeMeters>796.388</AltitudeMeters>
            <DistanceMeters>551062.88647806</DistanceMeters>
          </Trackpoint>
          <Trackpoint>
            <Time>2021-08-03T15:26:20Z</Time>
            <Position>
              <LatitudeDegrees>41.043929</LatitudeDegrees>
              <LongitudeDegrees>-1.373823</LongitudeDegrees>
            </Position>
            <AltitudeMeters>796.416</AltitudeMeters>
            <DistanceMeters>551070.2747669</DistanceMeters>
          </Trackpoint>
          <Trackpoint>
            <Time>2021-08-03T15:26:21Z</Time>
            <Position>
              <LatitudeDegrees>41.043883</LatitudeDegrees>
              <LongitudeDegrees>-1.373781</LongitudeDegrees>
            </Position>
            <AltitudeMeters>796.808</AltitudeMeters>
            <DistanceMeters>551076.49012426</DistanceMeters>
          </Trackpoint>
          <Trackpoint>
            <Time>2021-08-03T15:26:23Z</Time>
            <Position>
              <LatitudeDegrees>41.043793</LatitudeDegrees>
              <LongitudeDegrees>-1.373718</LongitudeDegrees>
            </Position>
            <AltitudeMeters>797.091</AltitudeMeters>
            <DistanceMeters>551087.8170535</DistanceMeters>
          </Trackpoint>
          <Trackpoint>
            <Time>2021-08-03T15:26:24Z</Time>
            <Position>
              <LatitudeDegrees>41.043746</LatitudeDegrees>
              <LongitudeDegrees>-1.373691</LongitudeDegrees>
            </Position>
            <AltitudeMeters>797.033</AltitudeMeters>
            <DistanceMeters>551093.51786442</DistanceMeters>
          </Trackpoint>
          <Trackpoint>
            <Time>2021-08-03T15:26:26Z</Time>
            <Position>
              <LatitudeDegrees>41.043648</LatitudeDegrees>
              <LongitudeDegrees>-1.373643</LongitudeDegrees>
            </Position>
            <AltitudeMeters>797.143</AltitudeMeters>
            <DistanceMeters>551105.14612158</DistanceMeters>
          </Trackpoint>
          <Trackpoint>
            <Time>2021-08-03T15:26:28Z</Time>
            <Position>
              <LatitudeDegrees>41.043552</LatitudeDegrees>
              <LongitudeDegrees>-1.373604</LongitudeDegrees>
            </Position>
            <AltitudeMeters>797.276</AltitudeMeters>
            <DistanceMeters>551116.32136016</DistanceMeters>
          </Trackpoint>
          <Trackpoint>
            <Time>2021-08-03T15:26:30Z</Time>
            <Position>
              <LatitudeDegrees>41.043468</LatitudeDegrees>
              <LongitudeDegrees>-1.373568</LongitudeDegrees>
            </Position>
            <AltitudeMeters>797.964</AltitudeMeters>
            <DistanceMeters>551126.1468651</DistanceMeters>
          </Trackpoint>
          <Trackpoint>
            <Time>2021-08-03T15:26:32Z</Time>
            <Position>
              <LatitudeDegrees>41.043408</LatitudeDegrees>
              <LongitudeDegrees>-1.373540</LongitudeDegrees>
            </Position>
            <AltitudeMeters>798.229</AltitudeMeters>
            <DistanceMeters>551133.22683362</DistanceMeters>
          </Trackpoint>
          <Trackpoint>
            <Time>2021-08-03T15:26:35Z</Time>
            <Position>
              <LatitudeDegrees>41.043360</LatitudeDegrees>
              <LongitudeDegrees>-1.373533</LongitudeDegrees>
            </Position>
            <AltitudeMeters>798.564</AltitudeMeters>
            <DistanceMeters>551138.60067624</DistanceMeters>
          </Trackpoint>
          <Trackpoint>
            <Time>2021-08-03T15:26:37Z</Time>
            <Position>
              <LatitudeDegrees>41.043310</LatitudeDegrees>
              <LongitudeDegrees>-1.373518</LongitudeDegrees>
            </Position>
            <AltitudeMeters>798.835</AltitudeMeters>
            <DistanceMeters>551144.30702846</DistanceMeters>
          </Trackpoint>
          <Trackpoint>
            <Time>2021-08-03T15:26:39Z</Time>
            <Position>
              <LatitudeDegrees>41.043260</LatitudeDegrees>
              <LongitudeDegrees>-1.373501</LongitudeDegrees>
            </Position>
            <AltitudeMeters>799.266</AltitudeMeters>
            <DistanceMeters>551150.05123418</DistanceMeters>
          </Trackpoint>
          <Trackpoint>
            <Time>2021-08-03T15:26:41Z</Time>
            <Position>
              <LatitudeDegrees>41.043210</LatitudeDegrees>
              <LongitudeDegrees>-1.373478</LongitudeDegrees>
            </Position>
            <AltitudeMeters>799.529</AltitudeMeters>
            <DistanceMeters>551155.94135758</DistanceMeters>
          </Trackpoint>
          <Trackpoint>
            <Time>2021-08-03T15:26:43Z</Time>
            <Position>
              <LatitudeDegrees>41.043159</LatitudeDegrees>
              <LongitudeDegrees>-1.373448</LongitudeDegrees>
            </Position>
            <AltitudeMeters>799.621</AltitudeMeters>
            <DistanceMeters>551162.15162782</DistanceMeters>
          </Trackpoint>
          <Trackpoint>
            <Time>2021-08-03T15:26:45Z</Time>
            <Position>
              <LatitudeDegrees>41.042995</LatitudeDegrees>
              <LongitudeDegrees>-1.373350</LongitudeDegrees>
            </Position>
            <AltitudeMeters>800.008</AltitudeMeters>
            <DistanceMeters>551182.17319503</DistanceMeters>
          </Trackpoint>
          <Trackpoint>
            <Time>2021-08-03T15:26:46Z</Time>
            <Position>
              <LatitudeDegrees>41.042946</LatitudeDegrees>
              <LongitudeDegrees>-1.373330</LongitudeDegrees>
            </Position>
            <AltitudeMeters>799.213</AltitudeMeters>
            <DistanceMeters>551187.87954725</DistanceMeters>
          </Trackpoint>
          <Trackpoint>
            <Time>2021-08-03T15:26:48Z</Time>
            <Position>
              <LatitudeDegrees>41.042842</LatitudeDegrees>
              <LongitudeDegrees>-1.373302</LongitudeDegrees>
            </Position>
            <AltitudeMeters>797.925</AltitudeMeters>
            <DistanceMeters>551199.69079829</DistanceMeters>
          </Trackpoint>
          <Trackpoint>
            <Time>2021-08-03T15:26:50Z</Time>
            <Position>
              <LatitudeDegrees>41.042737</LatitudeDegrees>
              <LongitudeDegrees>-1.373284</LongitudeDegrees>
            </Position>
            <AltitudeMeters>797.465</AltitudeMeters>
            <DistanceMeters>551211.47487719</DistanceMeters>
          </Trackpoint>
          <Trackpoint>
            <Time>2021-08-03T15:26:52Z</Time>
            <Position>
              <LatitudeDegrees>41.042639</LatitudeDegrees>
              <LongitudeDegrees>-1.373284</LongitudeDegrees>
            </Position>
            <AltitudeMeters>796.928</AltitudeMeters>
            <DistanceMeters>551222.38268573</DistanceMeters>
          </Trackpoint>
          <Trackpoint>
            <Time>2021-08-03T15:26:54Z</Time>
            <Position>
              <LatitudeDegrees>41.042535</LatitudeDegrees>
              <LongitudeDegrees>-1.373269</LongitudeDegrees>
            </Position>
            <AltitudeMeters>796.956</AltitudeMeters>
            <DistanceMeters>551234.0264638</DistanceMeters>
          </Trackpoint>
          <Trackpoint>
            <Time>2021-08-03T15:26:55Z</Time>
            <Position>
              <LatitudeDegrees>41.042487</LatitudeDegrees>
              <LongitudeDegrees>-1.373259</LongitudeDegrees>
            </Position>
            <AltitudeMeters>797.171</AltitudeMeters>
            <DistanceMeters>551239.43464442</DistanceMeters>
          </Trackpoint>
          <Trackpoint>
            <Time>2021-08-03T15:26:57Z</Time>
            <Position>
              <LatitudeDegrees>41.042379</LatitudeDegrees>
              <LongitudeDegrees>-1.373201</LongitudeDegrees>
            </Position>
            <AltitudeMeters>797.376</AltitudeMeters>
            <DistanceMeters>551252.40361523</DistanceMeters>
          </Trackpoint>
          <Trackpoint>
            <Time>2021-08-03T15:26:58Z</Time>
            <Position>
              <LatitudeDegrees>41.042329</LatitudeDegrees>
              <LongitudeDegrees>-1.373155</LongitudeDegrees>
            </Position>
            <AltitudeMeters>797.397</AltitudeMeters>
            <DistanceMeters>551259.17656055</DistanceMeters>
          </Trackpoint>
          <Trackpoint>
            <Time>2021-08-03T15:27:00Z</Time>
            <Position>
              <LatitudeDegrees>41.042253</LatitudeDegrees>
              <LongitudeDegrees>-1.373073</LongitudeDegrees>
            </Position>
            <AltitudeMeters>797.092</AltitudeMeters>
            <DistanceMeters>551270.08188525</DistanceMeters>
          </Trackpoint>
          <Trackpoint>
            <Time>2021-08-03T15:27:01Z</Time>
            <Position>
              <LatitudeDegrees>41.042213</LatitudeDegrees>
              <LongitudeDegrees>-1.373025</LongitudeDegrees>
            </Position>
            <AltitudeMeters>796.773</AltitudeMeters>
            <DistanceMeters>551276.08588934</DistanceMeters>
          </Trackpoint>
          <Trackpoint>
            <Time>2021-08-03T15:27:03Z</Time>
            <Position>
              <LatitudeDegrees>41.042134</LatitudeDegrees>
              <LongitudeDegrees>-1.372917</LongitudeDegrees>
            </Position>
            <AltitudeMeters>796.620</AltitudeMeters>
            <DistanceMeters>551288.71550811</DistanceMeters>
          </Trackpoint>
          <Trackpoint>
            <Time>2021-08-03T15:27:04Z</Time>
            <Position>
              <LatitudeDegrees>41.042098</LatitudeDegrees>
              <LongitudeDegrees>-1.372872</LongitudeDegrees>
            </Position>
            <AltitudeMeters>796.608</AltitudeMeters>
            <DistanceMeters>551294.22132019</DistanceMeters>
          </Trackpoint>
          <Trackpoint>
            <Time>2021-08-03T15:27:06Z</Time>
            <Position>
              <LatitudeDegrees>41.042027</LatitudeDegrees>
              <LongitudeDegrees>-1.372772</LongitudeDegrees>
            </Position>
            <AltitudeMeters>797.286</AltitudeMeters>
            <DistanceMeters>551305.75053201</DistanceMeters>
          </Trackpoint>
          <Trackpoint>
            <Time>2021-08-03T15:27:07Z</Time>
            <Position>
              <LatitudeDegrees>41.041985</LatitudeDegrees>
              <LongitudeDegrees>-1.372720</LongitudeDegrees>
            </Position>
            <AltitudeMeters>797.258</AltitudeMeters>
            <DistanceMeters>551312.14633112</DistanceMeters>
          </Trackpoint>
          <Trackpoint>
            <Time>2021-08-03T15:27:09Z</Time>
            <Position>
              <LatitudeDegrees>41.041923</LatitudeDegrees>
              <LongitudeDegrees>-1.372633</LongitudeDegrees>
            </Position>
            <AltitudeMeters>797.278</AltitudeMeters>
            <DistanceMeters>551322.19447945</DistanceMeters>
          </Trackpoint>
          <Trackpoint>
            <Time>2021-08-03T15:27:11Z</Time>
            <Position>
              <LatitudeDegrees>41.041864</LatitudeDegrees>
              <LongitudeDegrees>-1.372517</LongitudeDegrees>
            </Position>
            <AltitudeMeters>796.831</AltitudeMeters>
            <DistanceMeters>551333.93979672</DistanceMeters>
          </Trackpoint>
          <Trackpoint>
            <Time>2021-08-03T15:27:12Z</Time>
            <Position>
              <LatitudeDegrees>41.041837</LatitudeDegrees>
              <LongitudeDegrees>-1.372447</LongitudeDegrees>
            </Position>
            <AltitudeMeters>796.539</AltitudeMeters>
            <DistanceMeters>551340.5398792</DistanceMeters>
          </Trackpoint>
          <Trackpoint>
            <Time>2021-08-03T15:27:14Z</Time>
            <Position>
              <LatitudeDegrees>41.041784</LatitudeDegrees>
              <LongitudeDegrees>-1.372292</LongitudeDegrees>
            </Position>
            <AltitudeMeters>796.444</AltitudeMeters>
            <DistanceMeters>551354.82679097</DistanceMeters>
          </Trackpoint>
          <Trackpoint>
            <Time>2021-08-03T15:27:16Z</Time>
            <Position>
              <LatitudeDegrees>41.041741</LatitudeDegrees>
              <LongitudeDegrees>-1.372133</LongitudeDegrees>
            </Position>
            <AltitudeMeters>796.669</AltitudeMeters>
            <DistanceMeters>551369.00648357</DistanceMeters>
          </Trackpoint>
          <Trackpoint>
            <Time>2021-08-03T15:27:17Z</Time>
            <Position>
              <LatitudeDegrees>41.041720</LatitudeDegrees>
              <LongitudeDegrees>-1.372059</LongitudeDegrees>
            </Position>
            <AltitudeMeters>796.410</AltitudeMeters>
            <DistanceMeters>551375.64340401</DistanceMeters>
          </Trackpoint>
          <Trackpoint>
            <Time>2021-08-03T15:27:18Z</Time>
            <Position>
              <LatitudeDegrees>41.041693</LatitudeDegrees>
              <LongitudeDegrees>-1.371986</LongitudeDegrees>
            </Position>
            <AltitudeMeters>796.538</AltitudeMeters>
            <DistanceMeters>551382.46947128</DistanceMeters>
          </Trackpoint>
          <Trackpoint>
            <Time>2021-08-03T15:27:20Z</Time>
            <Position>
              <LatitudeDegrees>41.041627</LatitudeDegrees>
              <LongitudeDegrees>-1.371853</LongitudeDegrees>
            </Position>
            <AltitudeMeters>796.570</AltitudeMeters>
            <DistanceMeters>551395.83449811</DistanceMeters>
          </Trackpoint>
          <Trackpoint>
            <Time>2021-08-03T15:27:21Z</Time>
            <Position>
              <LatitudeDegrees>41.041591</LatitudeDegrees>
              <LongitudeDegrees>-1.371800</LongitudeDegrees>
            </Position>
            <AltitudeMeters>796.617</AltitudeMeters>
            <DistanceMeters>551401.82193525</DistanceMeters>
          </Trackpoint>
          <Trackpoint>
            <Time>2021-08-03T15:27:22Z</Time>
            <Position>
              <LatitudeDegrees>41.041554</LatitudeDegrees>
              <LongitudeDegrees>-1.371755</LongitudeDegrees>
            </Position>
            <AltitudeMeters>796.608</AltitudeMeters>
            <DistanceMeters>551407.41076647</DistanceMeters>
          </Trackpoint>
          <Trackpoint>
            <Time>2021-08-03T15:27:23Z</Time>
            <Position>
              <LatitudeDegrees>41.041516</LatitudeDegrees>
              <LongitudeDegrees>-1.371712</LongitudeDegrees>
            </Position>
            <AltitudeMeters>796.690</AltitudeMeters>
            <DistanceMeters>551412.97125042</DistanceMeters>
          </Trackpoint>
          <Trackpoint>
            <Time>2021-08-03T15:27:24Z</Time>
            <Position>
              <LatitudeDegrees>41.041480</LatitudeDegrees>
              <LongitudeDegrees>-1.371675</LongitudeDegrees>
            </Position>
            <AltitudeMeters>797.162</AltitudeMeters>
            <DistanceMeters>551418.04072747</DistanceMeters>
          </Trackpoint>
          <Trackpoint>
            <Time>2021-08-03T15:27:26Z</Time>
            <Position>
              <LatitudeDegrees>41.041395</LatitudeDegrees>
              <LongitudeDegrees>-1.371590</LongitudeDegrees>
            </Position>
            <AltitudeMeters>797.392</AltitudeMeters>
            <DistanceMeters>551429.89052446</DistanceMeters>
          </Trackpoint>
          <Trackpoint>
            <Time>2021-08-03T15:27:28Z</Time>
            <Position>
              <LatitudeDegrees>41.041312</LatitudeDegrees>
              <LongitudeDegrees>-1.371506</LongitudeDegrees>
            </Position>
            <AltitudeMeters>797.995</AltitudeMeters>
            <DistanceMeters>551441.51256746</DistanceMeters>
          </Trackpoint>
          <Trackpoint>
            <Time>2021-08-03T15:27:30Z</Time>
            <Position>
              <LatitudeDegrees>41.041241</LatitudeDegrees>
              <LongitudeDegrees>-1.371426</LongitudeDegrees>
            </Position>
            <AltitudeMeters>798.123</AltitudeMeters>
            <DistanceMeters>551451.88311279</DistanceMeters>
          </Trackpoint>
          <Trackpoint>
            <Time>2021-08-03T15:27:32Z</Time>
            <Position>
              <LatitudeDegrees>41.041165</LatitudeDegrees>
              <LongitudeDegrees>-1.371387</LongitudeDegrees>
            </Position>
            <AltitudeMeters>798.218</AltitudeMeters>
            <DistanceMeters>551460.95356076</DistanceMeters>
          </Trackpoint>
          <Trackpoint>
            <Time>2021-08-03T15:27:34Z</Time>
            <Position>
              <LatitudeDegrees>41.041089</LatitudeDegrees>
              <LongitudeDegrees>-1.371309</LongitudeDegrees>
            </Position>
            <AltitudeMeters>798.293</AltitudeMeters>
            <DistanceMeters>551471.65071593</DistanceMeters>
          </Trackpoint>
          <Trackpoint>
            <Time>2021-08-03T15:27:36Z</Time>
            <Position>
              <LatitudeDegrees>41.041015</LatitudeDegrees>
              <LongitudeDegrees>-1.371229</LongitudeDegrees>
            </Position>
            <AltitudeMeters>798.054</AltitudeMeters>
            <DistanceMeters>551482.27842482</DistanceMeters>
          </Trackpoint>
          <Trackpoint>
            <Time>2021-08-03T15:27:37Z</Time>
            <Position>
              <LatitudeDegrees>41.040973</LatitudeDegrees>
              <LongitudeDegrees>-1.371188</LongitudeDegrees>
            </Position>
            <AltitudeMeters>798.069</AltitudeMeters>
            <DistanceMeters>551488.08361605</DistanceMeters>
          </Trackpoint>
          <Trackpoint>
            <Time>2021-08-03T15:27:39Z</Time>
            <Position>
              <LatitudeDegrees>41.040898</LatitudeDegrees>
              <LongitudeDegrees>-1.371113</LongitudeDegrees>
            </Position>
            <AltitudeMeters>798.004</AltitudeMeters>
            <DistanceMeters>551498.53914595</DistanceMeters>
          </Trackpoint>
          <Trackpoint>
            <Time>2021-08-03T15:27:41Z</Time>
            <Position>
              <LatitudeDegrees>41.040824</LatitudeDegrees>
              <LongitudeDegrees>-1.371050</LongitudeDegrees>
            </Position>
            <AltitudeMeters>798.224</AltitudeMeters>
            <DistanceMeters>551508.32735881</DistanceMeters>
          </Trackpoint>
          <Trackpoint>
            <Time>2021-08-03T15:27:43Z</Time>
            <Position>
              <LatitudeDegrees>41.040755</LatitudeDegrees>
              <LongitudeDegrees>-1.370978</LongitudeDegrees>
            </Position>
            <AltitudeMeters>799.008</AltitudeMeters>
            <DistanceMeters>551518.1007998</DistanceMeters>
          </Trackpoint>
          <Trackpoint>
            <Time>2021-08-03T15:27:45Z</Time>
            <Position>
              <LatitudeDegrees>41.040690</LatitudeDegrees>
              <LongitudeDegrees>-1.370915</LongitudeDegrees>
            </Position>
            <AltitudeMeters>799.213</AltitudeMeters>
            <DistanceMeters>551527.06257975</DistanceMeters>
          </Trackpoint>
          <Trackpoint>
            <Time>2021-08-03T15:27:46Z</Time>
            <Position>
              <LatitudeDegrees>41.040651</LatitudeDegrees>
              <LongitudeDegrees>-1.370881</LongitudeDegrees>
            </Position>
            <AltitudeMeters>799.275</AltitudeMeters>
            <DistanceMeters>551532.2578563</DistanceMeters>
          </Trackpoint>
          <Trackpoint>
            <Time>2021-08-03T15:27:48Z</Time>
            <Position>
              <LatitudeDegrees>41.040531</LatitudeDegrees>
              <LongitudeDegrees>-1.370817</LongitudeDegrees>
            </Position>
            <AltitudeMeters>799.085</AltitudeMeters>
            <DistanceMeters>551546.65432512</DistanceMeters>
          </Trackpoint>
          <Trackpoint>
            <Time>2021-08-03T15:27:50Z</Time>
            <Position>
              <LatitudeDegrees>41.040416</LatitudeDegrees>
              <LongitudeDegrees>-1.370773</LongitudeDegrees>
            </Position>
            <AltitudeMeters>798.158</AltitudeMeters>
            <DistanceMeters>551559.97637911</DistanceMeters>
          </Trackpoint>
          <Trackpoint>
            <Time>2021-08-03T15:27:51Z</Time>
            <Position>
              <LatitudeDegrees>41.040363</LatitudeDegrees>
              <LongitudeDegrees>-1.370748</LongitudeDegrees>
            </Position>
            <AltitudeMeters>797.946</AltitudeMeters>
            <DistanceMeters>551566.23805556</DistanceMeters>
          </Trackpoint>
          <Trackpoint>
            <Time>2021-08-03T15:27:52Z</Time>
            <Position>
              <LatitudeDegrees>41.040313</LatitudeDegrees>
              <LongitudeDegrees>-1.370729</LongitudeDegrees>
            </Position>
            <AltitudeMeters>797.641</AltitudeMeters>
            <DistanceMeters>551572.02689082</DistanceMeters>
          </Trackpoint>
          <Trackpoint>
            <Time>2021-08-03T15:27:54Z</Time>
            <Position>
              <LatitudeDegrees>41.040231</LatitudeDegrees>
              <LongitudeDegrees>-1.370710</LongitudeDegrees>
            </Position>
            <AltitudeMeters>797.456</AltitudeMeters>
            <DistanceMeters>551581.29187364</DistanceMeters>
          </Trackpoint>
          <Trackpoint>
            <Time>2021-08-03T15:27:57Z</Time>
            <Position>
              <LatitudeDegrees>41.040168</LatitudeDegrees>
              <LongitudeDegrees>-1.370684</LongitudeDegrees>
            </Position>
            <AltitudeMeters>797.627</AltitudeMeters>
            <DistanceMeters>551588.63541615</DistanceMeters>
          </Trackpoint>
          <Trackpoint>
            <Time>2021-08-03T15:28:00Z</Time>
            <Position>
              <LatitudeDegrees>41.040115</LatitudeDegrees>
              <LongitudeDegrees>-1.370657</LongitudeDegrees>
            </Position>
            <AltitudeMeters>797.927</AltitudeMeters>
            <DistanceMeters>551594.95451403</DistanceMeters>
          </Trackpoint>
          <Trackpoint>
            <Time>2021-08-03T15:28:02Z</Time>
            <Position>
              <LatitudeDegrees>41.040063</LatitudeDegrees>
              <LongitudeDegrees>-1.370610</LongitudeDegrees>
            </Position>
            <AltitudeMeters>797.768</AltitudeMeters>
            <DistanceMeters>551601.95818273</DistanceMeters>
          </Trackpoint>
          <Trackpoint>
            <Time>2021-08-03T15:28:04Z</Time>
            <Position>
              <LatitudeDegrees>41.039991</LatitudeDegrees>
              <LongitudeDegrees>-1.370519</LongitudeDegrees>
            </Position>
            <AltitudeMeters>797.714</AltitudeMeters>
            <DistanceMeters>551613.02950865</DistanceMeters>
          </Trackpoint>
          <Trackpoint>
            <Time>2021-08-03T15:28:05Z</Time>
            <Position>
              <LatitudeDegrees>41.039956</LatitudeDegrees>
              <LongitudeDegrees>-1.370467</LongitudeDegrees>
            </Position>
            <AltitudeMeters>797.108</AltitudeMeters>
            <DistanceMeters>551618.88040771</DistanceMeters>
          </Trackpoint>
          <Trackpoint>
            <Time>2021-08-03T15:28:06Z</Time>
            <Position>
              <LatitudeDegrees>41.039917</LatitudeDegrees>
              <LongitudeDegrees>-1.370415</LongitudeDegrees>
            </Position>
            <AltitudeMeters>796.499</AltitudeMeters>
            <DistanceMeters>551625.03737619</DistanceMeters>
          </Trackpoint>
          <Trackpoint>
            <Time>2021-08-03T15:28:07Z</Time>
            <Position>
              <LatitudeDegrees>41.039879</LatitudeDegrees>
              <LongitudeDegrees>-1.370361</LongitudeDegrees>
            </Position>
            <AltitudeMeters>796.371</AltitudeMeters>
            <DistanceMeters>551631.23745969</DistanceMeters>
          </Trackpoint>
          <Trackpoint>
            <Time>2021-08-03T15:28:09Z</Time>
            <Position>
              <LatitudeDegrees>41.039809</LatitudeDegrees>
              <LongitudeDegrees>-1.370254</LongitudeDegrees>
            </Position>
            <AltitudeMeters>796.831</AltitudeMeters>
            <DistanceMeters>551643.1283359</DistanceMeters>
          </Trackpoint>
          <Trackpoint>
            <Time>2021-08-03T15:28:11Z</Time>
            <Position>
              <LatitudeDegrees>41.039743</LatitudeDegrees>
              <LongitudeDegrees>-1.370148</LongitudeDegrees>
            </Position>
            <AltitudeMeters>797.154</AltitudeMeters>
            <DistanceMeters>551654.66694271</DistanceMeters>
          </Trackpoint>
          <Trackpoint>
            <Time>2021-08-03T15:28:13Z</Time>
            <Position>
              <LatitudeDegrees>41.039681</LatitudeDegrees>
              <LongitudeDegrees>-1.370035</LongitudeDegrees>
            </Position>
            <AltitudeMeters>797.322</AltitudeMeters>
            <DistanceMeters>551666.39725834</DistanceMeters>
          </Trackpoint>
          <Trackpoint>
            <Time>2021-08-03T15:28:15Z</Time>
            <Position>
              <LatitudeDegrees>41.039635</LatitudeDegrees>
              <LongitudeDegrees>-1.369906</LongitudeDegrees>
            </Position>
            <AltitudeMeters>798.137</AltitudeMeters>
            <DistanceMeters>551678.37552552</DistanceMeters>
          </Trackpoint>
          <Trackpoint>
            <Time>2021-08-03T15:28:17Z</Time>
            <Position>
              <LatitudeDegrees>41.039598</LatitudeDegrees>
              <LongitudeDegrees>-1.369766</LongitudeDegrees>
            </Position>
            <AltitudeMeters>798.662</AltitudeMeters>
            <DistanceMeters>551690.82946437</DistanceMeters>
          </Trackpoint>
          <Trackpoint>
            <Time>2021-08-03T15:28:19Z</Time>
            <Position>
              <LatitudeDegrees>41.039572</LatitudeDegrees>
              <LongitudeDegrees>-1.369620</LongitudeDegrees>
            </Position>
            <AltitudeMeters>798.863</AltitudeMeters>
            <DistanceMeters>551703.4232828</DistanceMeters>
          </Trackpoint>
          <Trackpoint>
            <Time>2021-08-03T15:28:21Z</Time>
            <Position>
              <LatitudeDegrees>41.039546</LatitudeDegrees>
              <LongitudeDegrees>-1.369471</LongitudeDegrees>
            </Position>
            <AltitudeMeters>798.983</AltitudeMeters>
            <DistanceMeters>551716.26209176</DistanceMeters>
          </Trackpoint>
          <Trackpoint>
            <Time>2021-08-03T15:28:23Z</Time>
            <Position>
              <LatitudeDegrees>41.039510</LatitudeDegrees>
              <LongitudeDegrees>-1.369324</LongitudeDegrees>
            </Position>
            <AltitudeMeters>798.725</AltitudeMeters>
            <DistanceMeters>551729.2373276</DistanceMeters>
          </Trackpoint>
          <Trackpoint>
            <Time>2021-08-03T15:28:25Z</Time>
            <Position>
              <LatitudeDegrees>41.039467</LatitudeDegrees>
              <LongitudeDegrees>-1.369185</LongitudeDegrees>
            </Position>
            <AltitudeMeters>798.617</AltitudeMeters>
            <DistanceMeters>551741.84977489</DistanceMeters>
          </Trackpoint>
          <Trackpoint>
            <Time>2021-08-03T15:28:26Z</Time>
            <Position>
              <LatitudeDegrees>41.039449</LatitudeDegrees>
              <LongitudeDegrees>-1.369112</LongitudeDegrees>
            </Position>
            <AltitudeMeters>798.608</AltitudeMeters>
            <DistanceMeters>551748.29760181</DistanceMeters>
          </Trackpoint>
          <Trackpoint>
            <Time>2021-08-03T15:28:28Z</Time>
            <Position>
              <LatitudeDegrees>41.039407</LatitudeDegrees>
              <LongitudeDegrees>-1.368971</LongitudeDegrees>
            </Position>
            <AltitudeMeters>798.495</AltitudeMeters>
            <DistanceMeters>551761.02408802</DistanceMeters>
          </Trackpoint>
          <Trackpoint>
            <Time>2021-08-03T15:28:29Z</Time>
            <Position>
              <LatitudeDegrees>41.039385</LatitudeDegrees>
              <LongitudeDegrees>-1.368907</LongitudeDegrees>
            </Position>
            <AltitudeMeters>798.167</AltitudeMeters>
            <DistanceMeters>551766.92875779</DistanceMeters>
          </Trackpoint>
          <Trackpoint>
            <Time>2021-08-03T15:28:30Z</Time>
            <Position>
              <LatitudeDegrees>41.039370</LatitudeDegrees>
              <LongitudeDegrees>-1.368839</LongitudeDegrees>
            </Position>
            <AltitudeMeters>797.987</AltitudeMeters>
            <DistanceMeters>551772.87685324</DistanceMeters>
          </Trackpoint>
          <Trackpoint>
            <Time>2021-08-03T15:28:31Z</Time>
            <Position>
              <LatitudeDegrees>41.039350</LatitudeDegrees>
              <LongitudeDegrees>-1.368779</LongitudeDegrees>
            </Position>
            <AltitudeMeters>797.950</AltitudeMeters>
            <DistanceMeters>551778.38348531</DistanceMeters>
          </Trackpoint>
          <Trackpoint>
            <Time>2021-08-03T15:28:32Z</Time>
            <Position>
              <LatitudeDegrees>41.039333</LatitudeDegrees>
              <LongitudeDegrees>-1.368717</LongitudeDegrees>
            </Position>
            <AltitudeMeters>798.058</AltitudeMeters>
            <DistanceMeters>551783.92118696</DistanceMeters>
          </Trackpoint>
          <Trackpoint>
            <Time>2021-08-03T15:28:33Z</Time>
            <Position>
              <LatitudeDegrees>41.039310</LatitudeDegrees>
              <LongitudeDegrees>-1.368664</LongitudeDegrees>
            </Position>
            <AltitudeMeters>798.183</AltitudeMeters>
            <DistanceMeters>551789.05526849</DistanceMeters>
          </Trackpoint>
          <Trackpoint>
            <Time>2021-08-03T15:28:34Z</Time>
            <Position>
              <LatitudeDegrees>41.039284</LatitudeDegrees>
              <LongitudeDegrees>-1.368615</LongitudeDegrees>
            </Position>
            <AltitudeMeters>798.248</AltitudeMeters>
            <DistanceMeters>551794.08540509</DistanceMeters>
          </Trackpoint>
          <Trackpoint>
            <Time>2021-08-03T15:28:36Z</Time>
            <Position>
              <LatitudeDegrees>41.039233</LatitudeDegrees>
              <LongitudeDegrees>-1.368529</LongitudeDegrees>
            </Position>
            <AltitudeMeters>798.849</AltitudeMeters>
            <DistanceMeters>551803.26913603</DistanceMeters>
          </Trackpoint>
          <Trackpoint>
            <Time>2021-08-03T15:28:38Z</Time>
            <Position>
              <LatitudeDegrees>41.039175</LatitudeDegrees>
              <LongitudeDegrees>-1.368465</LongitudeDegrees>
            </Position>
            <AltitudeMeters>799.315</AltitudeMeters>
            <DistanceMeters>551811.66812151</DistanceMeters>
          </Trackpoint>
          <Trackpoint>
            <Time>2021-08-03T15:28:40Z</Time>
            <Position>
              <LatitudeDegrees>41.039109</LatitudeDegrees>
              <LongitudeDegrees>-1.368406</LongitudeDegrees>
            </Position>
            <AltitudeMeters>799.965</AltitudeMeters>
            <DistanceMeters>551820.52856646</DistanceMeters>
          </Trackpoint>
          <Trackpoint>
            <Time>2021-08-03T15:28:42Z</Time>
            <Position>
              <LatitudeDegrees>41.039014</LatitudeDegrees>
              <LongitudeDegrees>-1.368327</LongitudeDegrees>
            </Position>
            <AltitudeMeters>799.911</AltitudeMeters>
            <DistanceMeters>551833.01002786</DistanceMeters>
          </Trackpoint>
          <Trackpoint>
            <Time>2021-08-03T15:28:44Z</Time>
            <Position>
              <LatitudeDegrees>41.038922</LatitudeDegrees>
              <LongitudeDegrees>-1.368261</LongitudeDegrees>
            </Position>
            <AltitudeMeters>799.308</AltitudeMeters>
            <DistanceMeters>551844.65264258</DistanceMeters>
          </Trackpoint>
          <Trackpoint>
            <Time>2021-08-03T15:28:45Z</Time>
            <Position>
              <LatitudeDegrees>41.038872</LatitudeDegrees>
              <LongitudeDegrees>-1.368229</LongitudeDegrees>
            </Position>
            <AltitudeMeters>798.998</AltitudeMeters>
            <DistanceMeters>551850.83157155</DistanceMeters>
          </Trackpoint>
          <Trackpoint>
            <Time>2021-08-03T15:28:46Z</Time>
            <Position>
              <LatitudeDegrees>41.038824</LatitudeDegrees>
              <LongitudeDegrees>-1.368197</LongitudeDegrees>
            </Position>
            <AltitudeMeters>798.480</AltitudeMeters>
            <DistanceMeters>551856.81146308</DistanceMeters>
          </Trackpoint>
          <Trackpoint>
            <Time>2021-08-03T15:28:48Z</Time>
            <Position>
              <LatitudeDegrees>41.038702</LatitudeDegrees>
              <LongitudeDegrees>-1.368117</LongitudeDegrees>
            </Position>
            <AltitudeMeters>797.730</AltitudeMeters>
            <DistanceMeters>551871.96040241</DistanceMeters>
          </Trackpoint>
          <Trackpoint>
            <Time>2021-08-03T15:28:49Z</Time>
            <Position>
              <LatitudeDegrees>41.038640</LatitudeDegrees>
              <LongitudeDegrees>-1.368088</LongitudeDegrees>
            </Position>
            <AltitudeMeters>797.233</AltitudeMeters>
            <DistanceMeters>551879.27807645</DistanceMeters>
          </Trackpoint>
          <Trackpoint>
            <Time>2021-08-03T15:28:51Z</Time>
            <Position>
              <LatitudeDegrees>41.038524</LatitudeDegrees>
              <LongitudeDegrees>-1.368044</LongitudeDegrees>
            </Position>
            <AltitudeMeters>797.211</AltitudeMeters>
            <DistanceMeters>551892.70680038</DistanceMeters>
          </Trackpoint>
          <Trackpoint>
            <Time>2021-08-03T15:28:52Z</Time>
            <Position>
              <LatitudeDegrees>41.038469</LatitudeDegrees>
              <LongitudeDegrees>-1.368032</LongitudeDegrees>
            </Position>
            <AltitudeMeters>797.616</AltitudeMeters>
            <DistanceMeters>551898.91125168</DistanceMeters>
          </Trackpoint>
          <Trackpoint>
            <Time>2021-08-03T15:28:54Z</Time>
            <Position>
              <LatitudeDegrees>41.038366</LatitudeDegrees>
              <LongitudeDegrees>-1.368019</LongitudeDegrees>
            </Position>
            <AltitudeMeters>797.971</AltitudeMeters>
            <DistanceMeters>551910.42714082</DistanceMeters>
          </Trackpoint>
          <Trackpoint>
            <Time>2021-08-03T15:28:56Z</Time>
            <Position>
              <LatitudeDegrees>41.038252</LatitudeDegrees>
              <LongitudeDegrees>-1.368046</LongitudeDegrees>
            </Position>
            <AltitudeMeters>797.982</AltitudeMeters>
            <DistanceMeters>551923.31649093</DistanceMeters>
          </Trackpoint>
          <Trackpoint>
            <Time>2021-08-03T15:28:58Z</Time>
            <Position>
              <LatitudeDegrees>41.038120</LatitudeDegrees>
              <LongitudeDegrees>-1.368063</LongitudeDegrees>
            </Position>
            <AltitudeMeters>797.899</AltitudeMeters>
            <DistanceMeters>551938.07717129</DistanceMeters>
          </Trackpoint>
          <Trackpoint>
            <Time>2021-08-03T15:29:00Z</Time>
            <Position>
              <LatitudeDegrees>41.038002</LatitudeDegrees>
              <LongitudeDegrees>-1.368028</LongitudeDegrees>
            </Position>
            <AltitudeMeters>797.807</AltitudeMeters>
            <DistanceMeters>551951.53545027</DistanceMeters>
          </Trackpoint>
          <Trackpoint>
            <Time>2021-08-03T15:29:01Z</Time>
            <Position>
              <LatitudeDegrees>41.037948</LatitudeDegrees>
              <LongitudeDegrees>-1.368001</LongitudeDegrees>
            </Position>
            <AltitudeMeters>798.327</AltitudeMeters>
            <DistanceMeters>551957.95872197</DistanceMeters>
          </Trackpoint>
          <Trackpoint>
            <Time>2021-08-03T15:29:03Z</Time>
            <Position>
              <LatitudeDegrees>41.037854</LatitudeDegrees>
              <LongitudeDegrees>-1.367947</LongitudeDegrees>
            </Position>
            <AltitudeMeters>798.308</AltitudeMeters>
            <DistanceMeters>551969.36113578</DistanceMeters>
          </Trackpoint>
          <Trackpoint>
            <Time>2021-08-03T15:29:04Z</Time>
            <Position>
              <LatitudeDegrees>41.037815</LatitudeDegrees>
              <LongitudeDegrees>-1.367902</LongitudeDegrees>
            </Position>
            <AltitudeMeters>798.346</AltitudeMeters>
            <DistanceMeters>551975.11476596</DistanceMeters>
          </Trackpoint>
          <Trackpoint>
            <Time>2021-08-03T15:29:06Z</Time>
            <Position>
              <LatitudeDegrees>41.037741</LatitudeDegrees>
              <LongitudeDegrees>-1.367820</LongitudeDegrees>
            </Position>
            <AltitudeMeters>798.398</AltitudeMeters>
            <DistanceMeters>551985.84899976</DistanceMeters>
          </Trackpoint>
          <Trackpoint>
            <Time>2021-08-03T15:29:07Z</Time>
            <Position>
              <LatitudeDegrees>41.037705</LatitudeDegrees>
              <LongitudeDegrees>-1.367784</LongitudeDegrees>
            </Position>
            <AltitudeMeters>798.588</AltitudeMeters>
            <DistanceMeters>551990.86835363</DistanceMeters>
          </Trackpoint>
          <Trackpoint>
            <Time>2021-08-03T15:29:09Z</Time>
            <Position>
              <LatitudeDegrees>41.037647</LatitudeDegrees>
              <LongitudeDegrees>-1.367718</LongitudeDegrees>
            </Position>
            <AltitudeMeters>798.821</AltitudeMeters>
            <DistanceMeters>551999.37576585</DistanceMeters>
          </Trackpoint>
          <Trackpoint>
            <Time>2021-08-03T15:29:11Z</Time>
            <Position>
              <LatitudeDegrees>41.037596</LatitudeDegrees>
              <LongitudeDegrees>-1.367640</LongitudeDegrees>
            </Position>
            <AltitudeMeters>799.039</AltitudeMeters>
            <DistanceMeters>552008.04145196</DistanceMeters>
          </Trackpoint>
          <Trackpoint>
            <Time>2021-08-03T15:29:12Z</Time>
            <Position>
              <LatitudeDegrees>41.037568</LatitudeDegrees>
              <LongitudeDegrees>-1.367591</LongitudeDegrees>
            </Position>
            <AltitudeMeters>799.054</AltitudeMeters>
            <DistanceMeters>552013.20097378</DistanceMeters>
          </Trackpoint>
          <Trackpoint>
            <Time>2021-08-03T15:29:13Z</Time>
            <Position>
              <LatitudeDegrees>41.037537</LatitudeDegrees>
              <LongitudeDegrees>-1.367536</LongitudeDegrees>
            </Position>
            <AltitudeMeters>799.719</AltitudeMeters>
            <DistanceMeters>552018.96401301</DistanceMeters>
          </Trackpoint>
          <Trackpoint>
            <Time>2021-08-03T15:29:15Z</Time>
            <Position>
              <LatitudeDegrees>41.037472</LatitudeDegrees>
              <LongitudeDegrees>-1.367421</LongitudeDegrees>
            </Position>
            <AltitudeMeters>800.140</AltitudeMeters>
            <DistanceMeters>552031.0282897</DistanceMeters>
          </Trackpoint>
          <Trackpoint>
            <Time>2021-08-03T15:29:17Z</Time>
            <Position>
              <LatitudeDegrees>41.037414</LatitudeDegrees>
              <LongitudeDegrees>-1.367298</LongitudeDegrees>
            </Position>
            <AltitudeMeters>800.384</AltitudeMeters>
            <DistanceMeters>552043.2058065</DistanceMeters>
          </Trackpoint>
          <Trackpoint>
            <Time>2021-08-03T15:29:19Z</Time>
            <Position>
              <LatitudeDegrees>41.037370</LatitudeDegrees>
              <LongitudeDegrees>-1.367155</LongitudeDegrees>
            </Position>
            <AltitudeMeters>800.007</AltitudeMeters>
            <DistanceMeters>552056.17094718</DistanceMeters>
          </Trackpoint>
          <Trackpoint>
            <Time>2021-08-03T15:29:20Z</Time>
            <Position>
              <LatitudeDegrees>41.037352</LatitudeDegrees>
              <LongitudeDegrees>-1.367081</LongitudeDegrees>
            </Position>
            <AltitudeMeters>799.917</AltitudeMeters>
            <DistanceMeters>552062.69811354</DistanceMeters>
          </Trackpoint>
          <Trackpoint>
            <Time>2021-08-03T15:29:21Z</Time>
            <Position>
              <LatitudeDegrees>41.037335</LatitudeDegrees>
              <LongitudeDegrees>-1.367012</LongitudeDegrees>
            </Position>
            <AltitudeMeters>799.908</AltitudeMeters>
            <DistanceMeters>552068.79169002</DistanceMeters>
          </Trackpoint>
          <Trackpoint>
            <Time>2021-08-03T15:29:23Z</Time>
            <Position>
              <LatitudeDegrees>41.037299</LatitudeDegrees>
              <LongitudeDegrees>-1.366881</LongitudeDegrees>
            </Position>
            <AltitudeMeters>800.415</AltitudeMeters>
            <DistanceMeters>552080.49657446</DistanceMeters>
          </Trackpoint>
          <Trackpoint>
            <Time>2021-08-03T15:29:25Z</Time>
            <Position>
              <LatitudeDegrees>41.037248</LatitudeDegrees>
              <LongitudeDegrees>-1.366765</LongitudeDegrees>
            </Position>
            <AltitudeMeters>800.647</AltitudeMeters>
            <DistanceMeters>552091.76916226</DistanceMeters>
          </Trackpoint>
          <Trackpoint>
            <Time>2021-08-03T15:29:27Z</Time>
            <Position>
              <LatitudeDegrees>41.037180</LatitudeDegrees>
              <LongitudeDegrees>-1.366661</LongitudeDegrees>
            </Position>
            <AltitudeMeters>800.717</AltitudeMeters>
            <DistanceMeters>552103.32419192</DistanceMeters>
          </Trackpoint>
          <Trackpoint>
            <Time>2021-08-03T15:29:29Z</Time>
            <Position>
              <LatitudeDegrees>41.037106</LatitudeDegrees>
              <LongitudeDegrees>-1.366538</LongitudeDegrees>
            </Position>
            <AltitudeMeters>800.730</AltitudeMeters>
            <DistanceMeters>552116.53290522</DistanceMeters>
          </Trackpoint>
          <Trackpoint>
            <Time>2021-08-03T15:29:31Z</Time>
            <Position>
              <LatitudeDegrees>41.037075</LatitudeDegrees>
              <LongitudeDegrees>-1.366411</LongitudeDegrees>
            </Position>
            <AltitudeMeters>800.028</AltitudeMeters>
            <DistanceMeters>552127.73961317</DistanceMeters>
          </Trackpoint>
          <Trackpoint>
            <Time>2021-08-03T15:29:33Z</Time>
            <Position>
              <LatitudeDegrees>41.037107</LatitudeDegrees>
              <LongitudeDegrees>-1.366271</LongitudeDegrees>
            </Position>
            <AltitudeMeters>799.523</AltitudeMeters>
            <DistanceMeters>552140.02087397</DistanceMeters>
          </Trackpoint>
          <Trackpoint>
            <Time>2021-08-03T15:29:35Z</Time>
            <Position>
              <LatitudeDegrees>41.037171</LatitudeDegrees>
              <LongitudeDegrees>-1.366146</LongitudeDegrees>
            </Position>
            <AltitudeMeters>799.538</AltitudeMeters>
            <DistanceMeters>552152.70471574</DistanceMeters>
          </Trackpoint>
          <Trackpoint>
            <Time>2021-08-03T15:29:37Z</Time>
            <Position>
              <LatitudeDegrees>41.037228</LatitudeDegrees>
              <LongitudeDegrees>-1.366030</LongitudeDegrees>
            </Position>
            <AltitudeMeters>799.559</AltitudeMeters>
            <DistanceMeters>552164.32753569</DistanceMeters>
          </Trackpoint>
          <Trackpoint>
            <Time>2021-08-03T15:29:38Z</Time>
            <Position>
              <LatitudeDegrees>41.037255</LatitudeDegrees>
              <LongitudeDegrees>-1.365975</LongitudeDegrees>
            </Position>
            <AltitudeMeters>799.267</AltitudeMeters>
            <DistanceMeters>552169.83662698</DistanceMeters>
          </Trackpoint>
          <Trackpoint>
            <Time>2021-08-03T15:29:39Z</Time>
            <Position>
              <LatitudeDegrees>41.037279</LatitudeDegrees>
              <LongitudeDegrees>-1.365922</LongitudeDegrees>
            </Position>
            <AltitudeMeters>799.281</AltitudeMeters>
            <DistanceMeters>552175.02581651</DistanceMeters>
          </Trackpoint>
          <Trackpoint>
            <Time>2021-08-03T15:29:41Z</Time>
            <Position>
              <LatitudeDegrees>41.037316</LatitudeDegrees>
              <LongitudeDegrees>-1.365831</LongitudeDegrees>
            </Position>
            <AltitudeMeters>799.019</AltitudeMeters>
            <DistanceMeters>552183.70503869</DistanceMeters>
          </Trackpoint>
          <Trackpoint>
            <Time>2021-08-03T15:29:43Z</Time>
            <Position>
              <LatitudeDegrees>41.037347</LatitudeDegrees>
              <LongitudeDegrees>-1.365734</LongitudeDegrees>
            </Position>
            <AltitudeMeters>799.108</AltitudeMeters>
            <DistanceMeters>552192.54916229</DistanceMeters>
          </Trackpoint>
          <Trackpoint>
            <Time>2021-08-03T15:29:45Z</Time>
            <Position>
              <LatitudeDegrees>41.037394</LatitudeDegrees>
              <LongitudeDegrees>-1.365640</LongitudeDegrees>
            </Position>
            <AltitudeMeters>799.153</AltitudeMeters>
            <DistanceMeters>552202.01756231</DistanceMeters>
          </Trackpoint>
          <Trackpoint>
            <Time>2021-08-03T15:29:47Z</Time>
            <Position>
              <LatitudeDegrees>41.037445</LatitudeDegrees>
              <LongitudeDegrees>-1.365550</LongitudeDegrees>
            </Position>
            <AltitudeMeters>799.385</AltitudeMeters>
            <DistanceMeters>552211.46782453</DistanceMeters>
          </Trackpoint>
          <Trackpoint>
            <Time>2021-08-03T15:29:49Z</Time>
            <Position>
              <LatitudeDegrees>41.037482</LatitudeDegrees>
              <LongitudeDegrees>-1.365445</LongitudeDegrees>
            </Position>
            <AltitudeMeters>799.585</AltitudeMeters>
            <DistanceMeters>552221.19774341</DistanceMeters>
          </Trackpoint>
          <Trackpoint>
            <Time>2021-08-03T15:29:51Z</Time>
            <Position>
              <LatitudeDegrees>41.037485</LatitudeDegrees>
              <LongitudeDegrees>-1.365320</LongitudeDegrees>
            </Position>
            <AltitudeMeters>799.558</AltitudeMeters>
            <DistanceMeters>552231.69765785</DistanceMeters>
          </Trackpoint>
          <Trackpoint>
            <Time>2021-08-03T15:29:53Z</Time>
            <Position>
              <LatitudeDegrees>41.037460</LatitudeDegrees>
              <LongitudeDegrees>-1.365180</LongitudeDegrees>
            </Position>
            <AltitudeMeters>799.466</AltitudeMeters>
            <DistanceMeters>552243.77577381</DistanceMeters>
          </Trackpoint>
          <Trackpoint>
            <Time>2021-08-03T15:29:55Z</Time>
            <Position>
              <LatitudeDegrees>41.037424</LatitudeDegrees>
              <LongitudeDegrees>-1.365080</LongitudeDegrees>
            </Position>
            <AltitudeMeters>799.431</AltitudeMeters>
            <DistanceMeters>552253.07869016</DistanceMeters>
          </Trackpoint>
          <Trackpoint>
            <Time>2021-08-03T15:29:57Z</Time>
            <Position>
              <LatitudeDegrees>41.037382</LatitudeDegrees>
              <LongitudeDegrees>-1.365014</LongitudeDegrees>
            </Position>
            <AltitudeMeters>799.536</AltitudeMeters>
            <DistanceMeters>552260.32817599</DistanceMeters>
          </Trackpoint>
          <Trackpoint>
            <Time>2021-08-03T15:29:59Z</Time>
            <Position>
              <LatitudeDegrees>41.037325</LatitudeDegrees>
              <LongitudeDegrees>-1.364958</LongitudeDegrees>
            </Position>
            <AltitudeMeters>799.627</AltitudeMeters>
            <DistanceMeters>552268.22454718</DistanceMeters>
          </Trackpoint>
          <Trackpoint>
            <Time>2021-08-03T15:30:01Z</Time>
            <Position>
              <LatitudeDegrees>41.037255</LatitudeDegrees>
              <LongitudeDegrees>-1.364897</LongitudeDegrees>
            </Position>
            <AltitudeMeters>800.096</AltitudeMeters>
            <DistanceMeters>552277.54782535</DistanceMeters>
          </Trackpoint>
          <Trackpoint>
            <Time>2021-08-03T15:30:03Z</Time>
            <Position>
              <LatitudeDegrees>41.037178</LatitudeDegrees>
              <LongitudeDegrees>-1.364843</LongitudeDegrees>
            </Position>
            <AltitudeMeters>800.131</AltitudeMeters>
            <DistanceMeters>552287.24334471</DistanceMeters>
          </Trackpoint>
          <Trackpoint>
            <Time>2021-08-03T15:30:04Z</Time>
            <Position>
              <LatitudeDegrees>41.037135</LatitudeDegrees>
              <LongitudeDegrees>-1.364815</LongitudeDegrees>
            </Position>
            <AltitudeMeters>800.224</AltitudeMeters>
            <DistanceMeters>552292.57501243</DistanceMeters>
          </Trackpoint>
          <Trackpoint>
            <Time>2021-08-03T15:30:06Z</Time>
            <Position>
              <LatitudeDegrees>41.037043</LatitudeDegrees>
              <LongitudeDegrees>-1.364753</LongitudeDegrees>
            </Position>
            <AltitudeMeters>800.508</AltitudeMeters>
            <DistanceMeters>552304.06145866</DistanceMeters>
          </Trackpoint>
          <Trackpoint>
            <Time>2021-08-03T15:30:07Z</Time>
            <Position>
              <LatitudeDegrees>41.036990</LatitudeDegrees>
              <LongitudeDegrees>-1.364716</LongitudeDegrees>
            </Position>
            <AltitudeMeters>800.756</AltitudeMeters>
            <DistanceMeters>552310.72824471</DistanceMeters>
          </Trackpoint>
          <Trackpoint>
            <Time>2021-08-03T15:30:08Z</Time>
            <Position>
              <LatitudeDegrees>41.036935</LatitudeDegrees>
              <LongitudeDegrees>-1.364676</LongitudeDegrees>
            </Position>
            <AltitudeMeters>800.958</AltitudeMeters>
            <DistanceMeters>552317.71125357</DistanceMeters>
          </Trackpoint>
          <Trackpoint>
            <Time>2021-08-03T15:30:10Z</Time>
            <Position>
              <LatitudeDegrees>41.036825</LatitudeDegrees>
              <LongitudeDegrees>-1.364597</LongitudeDegrees>
            </Position>
            <AltitudeMeters>801.168</AltitudeMeters>
            <DistanceMeters>552331.63518051</DistanceMeters>
          </Trackpoint>
          <Trackpoint>
            <Time>2021-08-03T15:30:11Z</Time>
            <Position>
              <LatitudeDegrees>41.036775</LatitudeDegrees>
              <LongitudeDegrees>-1.364556</LongitudeDegrees>
            </Position>
            <AltitudeMeters>801.251</AltitudeMeters>
            <DistanceMeters>552338.17754723</DistanceMeters>
          </Trackpoint>
          <Trackpoint>
            <Time>2021-08-03T15:30:13Z</Time>
            <Position>
              <LatitudeDegrees>41.036678</LatitudeDegrees>
              <LongitudeDegrees>-1.364471</LongitudeDegrees>
            </Position>
            <AltitudeMeters>801.549</AltitudeMeters>
            <DistanceMeters>552351.11898563</DistanceMeters>
          </Trackpoint>
          <Trackpoint>
            <Time>2021-08-03T15:30:15Z</Time>
            <Position>
              <LatitudeDegrees>41.036626</LatitudeDegrees>
              <LongitudeDegrees>-1.364423</LongitudeDegrees>
            </Position>
            <AltitudeMeters>801.724</AltitudeMeters>
            <DistanceMeters>552358.17147888</DistanceMeters>
          </Trackpoint>
          <Trackpoint>
            <Time>2021-08-03T15:30:17Z</Time>
            <Position>
              <LatitudeDegrees>41.036577</LatitudeDegrees>
              <LongitudeDegrees>-1.364377</LongitudeDegrees>
            </Position>
            <AltitudeMeters>801.899</AltitudeMeters>
            <DistanceMeters>552364.85449901</DistanceMeters>
          </Trackpoint>
          <Trackpoint>
            <Time>2021-08-03T15:30:19Z</Time>
            <Position>
              <LatitudeDegrees>41.036507</LatitudeDegrees>
              <LongitudeDegrees>-1.364300</LongitudeDegrees>
            </Position>
            <AltitudeMeters>802.360</AltitudeMeters>
            <DistanceMeters>552374.97830105</DistanceMeters>
          </Trackpoint>
          <Trackpoint>
            <Time>2021-08-03T15:30:21Z</Time>
            <Position>
              <LatitudeDegrees>41.036401</LatitudeDegrees>
              <LongitudeDegrees>-1.364171</LongitudeDegrees>
            </Position>
            <AltitudeMeters>802.652</AltitudeMeters>
            <DistanceMeters>552390.99361532</DistanceMeters>
          </Trackpoint>
          <Trackpoint>
            <Time>2021-08-03T15:30:23Z</Time>
            <Position>
              <LatitudeDegrees>41.036339</LatitudeDegrees>
              <LongitudeDegrees>-1.364115</LongitudeDegrees>
            </Position>
            <AltitudeMeters>802.853</AltitudeMeters>
            <DistanceMeters>552399.3440794</DistanceMeters>
          </Trackpoint>
          <Trackpoint>
            <Time>2021-08-03T15:30:25Z</Time>
            <Position>
              <LatitudeDegrees>41.036282</LatitudeDegrees>
              <LongitudeDegrees>-1.364039</LongitudeDegrees>
            </Position>
            <AltitudeMeters>802.908</AltitudeMeters>
            <DistanceMeters>552408.34206058</DistanceMeters>
          </Trackpoint>
          <Trackpoint>
            <Time>2021-08-03T15:30:27Z</Time>
            <Position>
              <LatitudeDegrees>41.036224</LatitudeDegrees>
              <LongitudeDegrees>-1.363996</LongitudeDegrees>
            </Position>
            <AltitudeMeters>803.108</AltitudeMeters>
            <DistanceMeters>552415.73889999</DistanceMeters>
          </Trackpoint>
          <Trackpoint>
            <Time>2021-08-03T15:30:29Z</Time>
            <Position>
              <LatitudeDegrees>41.036170</LatitudeDegrees>
              <LongitudeDegrees>-1.363950</LongitudeDegrees>
            </Position>
            <AltitudeMeters>803.382</AltitudeMeters>
            <DistanceMeters>552422.88425178</DistanceMeters>
          </Trackpoint>
          <Trackpoint>
            <Time>2021-08-03T15:30:31Z</Time>
            <Position>
              <LatitudeDegrees>41.036120</LatitudeDegrees>
              <LongitudeDegrees>-1.363898</LongitudeDegrees>
            </Position>
            <AltitudeMeters>803.834</AltitudeMeters>
            <DistanceMeters>552429.95784023</DistanceMeters>
          </Trackpoint>
          <Trackpoint>
            <Time>2021-08-03T15:30:33Z</Time>
            <Position>
              <LatitudeDegrees>41.036075</LatitudeDegrees>
              <LongitudeDegrees>-1.363849</LongitudeDegrees>
            </Position>
            <AltitudeMeters>804.094</AltitudeMeters>
            <DistanceMeters>552436.4391916</DistanceMeters>
          </Trackpoint>
          <Trackpoint>
            <Time>2021-08-03T15:30:36Z</Time>
            <Position>
              <LatitudeDegrees>41.036043</LatitudeDegrees>
              <LongitudeDegrees>-1.363804</LongitudeDegrees>
            </Position>
            <AltitudeMeters>804.437</AltitudeMeters>
            <DistanceMeters>552441.63359902</DistanceMeters>
          </Trackpoint>
          <Trackpoint>
            <Time>2021-08-03T15:30:41Z</Time>
            <Position>
              <LatitudeDegrees>41.036101</LatitudeDegrees>
              <LongitudeDegrees>-1.363737</LongitudeDegrees>
            </Position>
            <AltitudeMeters>804.695</AltitudeMeters>
            <DistanceMeters>552450.19602803</DistanceMeters>
          </Trackpoint>
          <Trackpoint>
            <Time>2021-08-03T15:30:43Z</Time>
            <Position>
              <LatitudeDegrees>41.036181</LatitudeDegrees>
              <LongitudeDegrees>-1.363676</LongitudeDegrees>
            </Position>
            <AltitudeMeters>804.660</AltitudeMeters>
            <DistanceMeters>552460.46770819</DistanceMeters>
          </Trackpoint>
          <Trackpoint>
            <Time>2021-08-03T15:30:45Z</Time>
            <Position>
              <LatitudeDegrees>41.036266</LatitudeDegrees>
              <LongitudeDegrees>-1.363606</LongitudeDegrees>
            </Position>
            <AltitudeMeters>804.585</AltitudeMeters>
            <DistanceMeters>552471.60490398</DistanceMeters>
          </Trackpoint>
          <Trackpoint>
            <Time>2021-08-03T15:30:46Z</Time>
            <Position>
              <LatitudeDegrees>41.036307</LatitudeDegrees>
              <LongitudeDegrees>-1.363570</LongitudeDegrees>
            </Position>
            <AltitudeMeters>804.246</AltitudeMeters>
            <DistanceMeters>552477.07864069</DistanceMeters>
          </Trackpoint>
          <Trackpoint>
            <Time>2021-08-03T15:30:47Z</Time>
            <Position>
              <LatitudeDegrees>41.036350</LatitudeDegrees>
              <LongitudeDegrees>-1.363534</LongitudeDegrees>
            </Position>
            <AltitudeMeters>804.022</AltitudeMeters>
            <DistanceMeters>552482.73971314</DistanceMeters>
          </Trackpoint>
          <Trackpoint>
            <Time>2021-08-03T15:30:48Z</Time>
            <Position>
              <LatitudeDegrees>41.036392</LatitudeDegrees>
              <LongitudeDegrees>-1.363500</LongitudeDegrees>
            </Position>
            <AltitudeMeters>804.062</AltitudeMeters>
            <DistanceMeters>552488.21674829</DistanceMeters>
          </Trackpoint>
          <Trackpoint>
            <Time>2021-08-03T15:30:50Z</Time>
            <Position>
              <LatitudeDegrees>41.036453</LatitudeDegrees>
              <LongitudeDegrees>-1.363447</LongitudeDegrees>
            </Position>
            <AltitudeMeters>803.808</AltitudeMeters>
            <DistanceMeters>552496.33472204</DistanceMeters>
          </Trackpoint>
          <Trackpoint>
            <Time>2021-08-03T15:30:52Z</Time>
            <Position>
              <LatitudeDegrees>41.036522</LatitudeDegrees>
              <LongitudeDegrees>-1.363376</LongitudeDegrees>
            </Position>
            <AltitudeMeters>803.808</AltitudeMeters>
            <DistanceMeters>552506.05628468</DistanceMeters>
          </Trackpoint>
          <Trackpoint>
            <Time>2021-08-03T15:30:54Z</Time>
            <Position>
              <LatitudeDegrees>41.036635</LatitudeDegrees>
              <LongitudeDegrees>-1.363272</LongitudeDegrees>
            </Position>
            <AltitudeMeters>803.669</AltitudeMeters>
            <DistanceMeters>552521.36679591</DistanceMeters>
          </Trackpoint>
          <Trackpoint>
            <Time>2021-08-03T15:30:55Z</Time>
            <Position>
              <LatitudeDegrees>41.036675</LatitudeDegrees>
              <LongitudeDegrees>-1.363241</LongitudeDegrees>
            </Position>
            <AltitudeMeters>803.541</AltitudeMeters>
            <DistanceMeters>552526.52456726</DistanceMeters>
          </Trackpoint>
          <Trackpoint>
            <Time>2021-08-03T15:30:57Z</Time>
            <Position>
              <LatitudeDegrees>41.036739</LatitudeDegrees>
              <LongitudeDegrees>-1.363162</LongitudeDegrees>
            </Position>
            <AltitudeMeters>803.571</AltitudeMeters>
            <DistanceMeters>552536.25726996</DistanceMeters>
          </Trackpoint>
          <Trackpoint>
            <Time>2021-08-03T15:30:59Z</Time>
            <Position>
              <LatitudeDegrees>41.036799</LatitudeDegrees>
              <LongitudeDegrees>-1.363083</LongitudeDegrees>
            </Position>
            <AltitudeMeters>803.584</AltitudeMeters>
            <DistanceMeters>552545.66923309</DistanceMeters>
          </Trackpoint>
          <Trackpoint>
            <Time>2021-08-03T15:31:02Z</Time>
            <Position>
              <LatitudeDegrees>41.036851</LatitudeDegrees>
              <LongitudeDegrees>-1.363015</LongitudeDegrees>
            </Position>
            <AltitudeMeters>803.532</AltitudeMeters>
            <DistanceMeters>552553.79832279</DistanceMeters>
          </Trackpoint>
          <Trackpoint>
            <Time>2021-08-03T15:31:03Z</Time>
            <Position>
              <LatitudeDegrees>41.036888</LatitudeDegrees>
              <LongitudeDegrees>-1.362961</LongitudeDegrees>
            </Position>
            <AltitudeMeters>803.567</AltitudeMeters>
            <DistanceMeters>552559.92294013</DistanceMeters>
          </Trackpoint>
          <Trackpoint>
            <Time>2021-08-03T15:31:05Z</Time>
            <Position>
              <LatitudeDegrees>41.036991</LatitudeDegrees>
              <LongitudeDegrees>-1.362805</LongitudeDegrees>
            </Position>
            <AltitudeMeters>803.562</AltitudeMeters>
            <DistanceMeters>552577.32840004</DistanceMeters>
          </Trackpoint>
          <Trackpoint>
            <Time>2021-08-03T15:31:07Z</Time>
            <Position>
              <LatitudeDegrees>41.037056</LatitudeDegrees>
              <LongitudeDegrees>-1.362731</LongitudeDegrees>
            </Position>
            <AltitudeMeters>803.663</AltitudeMeters>
            <DistanceMeters>552586.86427282</DistanceMeters>
          </Trackpoint>
          <Trackpoint>
            <Time>2021-08-03T15:31:09Z</Time>
            <Position>
              <LatitudeDegrees>41.037118</LatitudeDegrees>
              <LongitudeDegrees>-1.362668</LongitudeDegrees>
            </Position>
            <AltitudeMeters>803.877</AltitudeMeters>
            <DistanceMeters>552595.55908737</DistanceMeters>
          </Trackpoint>
          <Trackpoint>
            <Time>2021-08-03T15:31:10Z</Time>
            <Position>
              <LatitudeDegrees>41.037154</LatitudeDegrees>
              <LongitudeDegrees>-1.362628</LongitudeDegrees>
            </Position>
            <AltitudeMeters>803.861</AltitudeMeters>
            <DistanceMeters>552600.78728413</DistanceMeters>
          </Trackpoint>
          <Trackpoint>
            <Time>2021-08-03T15:31:12Z</Time>
            <Position>
              <LatitudeDegrees>41.037227</LatitudeDegrees>
              <LongitudeDegrees>-1.362542</LongitudeDegrees>
            </Position>
            <AltitudeMeters>803.827</AltitudeMeters>
            <DistanceMeters>552611.65694467</DistanceMeters>
          </Trackpoint>
          <Trackpoint>
            <Time>2021-08-03T15:31:13Z</Time>
            <Position>
              <LatitudeDegrees>41.037271</LatitudeDegrees>
              <LongitudeDegrees>-1.362506</LongitudeDegrees>
            </Position>
            <AltitudeMeters>803.508</AltitudeMeters>
            <DistanceMeters>552617.41214409</DistanceMeters>
          </Trackpoint>
          <Trackpoint>
            <Time>2021-08-03T15:31:15Z</Time>
            <Position>
              <LatitudeDegrees>41.037362</LatitudeDegrees>
              <LongitudeDegrees>-1.362440</LongitudeDegrees>
            </Position>
            <AltitudeMeters>803.294</AltitudeMeters>
            <DistanceMeters>552628.95700998</DistanceMeters>
          </Trackpoint>
          <Trackpoint>
            <Time>2021-08-03T15:31:17Z</Time>
            <Position>
              <LatitudeDegrees>41.037452</LatitudeDegrees>
              <LongitudeDegrees>-1.362370</LongitudeDegrees>
            </Position>
            <AltitudeMeters>802.726</AltitudeMeters>
            <DistanceMeters>552640.57050307</DistanceMeters>
          </Trackpoint>
          <Trackpoint>
            <Time>2021-08-03T15:31:18Z</Time>
            <Position>
              <LatitudeDegrees>41.037498</LatitudeDegrees>
              <LongitudeDegrees>-1.362333</LongitudeDegrees>
            </Position>
            <AltitudeMeters>802.596</AltitudeMeters>
            <DistanceMeters>552646.55869424</DistanceMeters>
          </Trackpoint>
          <Trackpoint>
            <Time>2021-08-03T15:31:20Z</Time>
            <Position>
              <LatitudeDegrees>41.037600</LatitudeDegrees>
              <LongitudeDegrees>-1.362257</LongitudeDegrees>
            </Position>
            <AltitudeMeters>802.349</AltitudeMeters>
            <DistanceMeters>552659.5815152</DistanceMeters>
          </Trackpoint>
          <Trackpoint>
            <Time>2021-08-03T15:31:21Z</Time>
            <Position>
              <LatitudeDegrees>41.037664</LatitudeDegrees>
              <LongitudeDegrees>-1.362210</LongitudeDegrees>
            </Position>
            <AltitudeMeters>801.817</AltitudeMeters>
            <DistanceMeters>552667.72392401</DistanceMeters>
          </Trackpoint>
          <Trackpoint>
            <Time>2021-08-03T15:31:22Z</Time>
            <Position>
              <LatitudeDegrees>41.037729</LatitudeDegrees>
              <LongitudeDegrees>-1.362150</LongitudeDegrees>
            </Position>
            <AltitudeMeters>801.642</AltitudeMeters>
            <DistanceMeters>552676.53941253</DistanceMeters>
          </Trackpoint>
          <Trackpoint>
            <Time>2021-08-03T15:31:24Z</Time>
            <Position>
              <LatitudeDegrees>41.037849</LatitudeDegrees>
              <LongitudeDegrees>-1.362040</LongitudeDegrees>
            </Position>
            <AltitudeMeters>801.757</AltitudeMeters>
            <DistanceMeters>552692.77730655</DistanceMeters>
          </Trackpoint>
          <Trackpoint>
            <Time>2021-08-03T15:31:26Z</Time>
            <Position>
              <LatitudeDegrees>41.037942</LatitudeDegrees>
              <LongitudeDegrees>-1.361950</LongitudeDegrees>
            </Position>
            <AltitudeMeters>801.958</AltitudeMeters>
            <DistanceMeters>552705.5928842</DistanceMeters>
          </Trackpoint>
          <Trackpoint>
            <Time>2021-08-03T15:31:28Z</Time>
            <Position>
              <LatitudeDegrees>41.038006</LatitudeDegrees>
              <LongitudeDegrees>-1.361860</LongitudeDegrees>
            </Position>
            <AltitudeMeters>802.039</AltitudeMeters>
            <DistanceMeters>552715.97735206</DistanceMeters>
          </Trackpoint>
          <Trackpoint>
            <Time>2021-08-03T15:31:31Z</Time>
            <Position>
              <LatitudeDegrees>41.038024</LatitudeDegrees>
              <LongitudeDegrees>-1.361798</LongitudeDegrees>
            </Position>
            <AltitudeMeters>802.701</AltitudeMeters>
            <DistanceMeters>552721.55567111</DistanceMeters>
          </Trackpoint>
          <Trackpoint>
            <Time>2021-08-03T15:31:33Z</Time>
            <Position>
              <LatitudeDegrees>41.038025</LatitudeDegrees>
              <LongitudeDegrees>-1.361690</LongitudeDegrees>
            </Position>
            <AltitudeMeters>803.421</AltitudeMeters>
            <DistanceMeters>552730.62362987</DistanceMeters>
          </Trackpoint>
          <Trackpoint>
            <Time>2021-08-03T15:31:35Z</Time>
            <Position>
              <LatitudeDegrees>41.038063</LatitudeDegrees>
              <LongitudeDegrees>-1.361592</LongitudeDegrees>
            </Position>
            <AltitudeMeters>803.508</AltitudeMeters>
            <DistanceMeters>552739.87446954</DistanceMeters>
          </Trackpoint>
          <Trackpoint>
            <Time>2021-08-03T15:31:37Z</Time>
            <Position>
              <LatitudeDegrees>41.038075</LatitudeDegrees>
              <LongitudeDegrees>-1.361477</LongitudeDegrees>
            </Position>
            <AltitudeMeters>803.540</AltitudeMeters>
            <DistanceMeters>552749.62107942</DistanceMeters>
          </Trackpoint>
          <Trackpoint>
            <Time>2021-08-03T15:31:39Z</Time>
            <Position>
              <LatitudeDegrees>41.038059</LatitudeDegrees>
              <LongitudeDegrees>-1.361368</LongitudeDegrees>
            </Position>
            <AltitudeMeters>803.282</AltitudeMeters>
            <DistanceMeters>552758.94338899</DistanceMeters>
          </Trackpoint>
          <Trackpoint>
            <Time>2021-08-03T15:31:41Z</Time>
            <Position>
              <LatitudeDegrees>41.038060</LatitudeDegrees>
              <LongitudeDegrees>-1.361261</LongitudeDegrees>
            </Position>
            <AltitudeMeters>803.162</AltitudeMeters>
            <DistanceMeters>552767.92680667</DistanceMeters>
          </Trackpoint>
          <Trackpoint>
            <Time>2021-08-03T15:31:42Z</Time>
            <Position>
              <LatitudeDegrees>41.038074</LatitudeDegrees>
              <LongitudeDegrees>-1.361201</LongitudeDegrees>
            </Position>
            <AltitudeMeters>803.095</AltitudeMeters>
            <DistanceMeters>552773.19971908</DistanceMeters>
          </Trackpoint>
          <Trackpoint>
            <Time>2021-08-03T15:31:44Z</Time>
            <Position>
              <LatitudeDegrees>41.038111</LatitudeDegrees>
              <LongitudeDegrees>-1.361109</LongitudeDegrees>
            </Position>
            <AltitudeMeters>803.063</AltitudeMeters>
            <DistanceMeters>552781.9524997</DistanceMeters>
          </Trackpoint>
          <Trackpoint>
            <Time>2021-08-03T15:31:46Z</Time>
            <Position>
              <LatitudeDegrees>41.038167</LatitudeDegrees>
              <LongitudeDegrees>-1.361025</LongitudeDegrees>
            </Position>
            <AltitudeMeters>803.018</AltitudeMeters>
            <DistanceMeters>552791.36350336</DistanceMeters>
          </Trackpoint>
          <Trackpoint>
            <Time>2021-08-03T15:31:48Z</Time>
            <Position>
              <LatitudeDegrees>41.038222</LatitudeDegrees>
              <LongitudeDegrees>-1.360932</LongitudeDegrees>
            </Position>
            <AltitudeMeters>803.093</AltitudeMeters>
            <DistanceMeters>552801.2845836</DistanceMeters>
          </Trackpoint>
          <Trackpoint>
            <Time>2021-08-03T15:31:50Z</Time>
            <Position>
              <LatitudeDegrees>41.038274</LatitudeDegrees>
              <LongitudeDegrees>-1.360842</LongitudeDegrees>
            </Position>
            <AltitudeMeters>803.144</AltitudeMeters>
            <DistanceMeters>552810.80292153</DistanceMeters>
          </Trackpoint>
          <Trackpoint>
            <Time>2021-08-03T15:31:52Z</Time>
            <Position>
              <LatitudeDegrees>41.038327</LatitudeDegrees>
              <LongitudeDegrees>-1.360760</LongitudeDegrees>
            </Position>
            <AltitudeMeters>803.282</AltitudeMeters>
            <DistanceMeters>552819.86888843</DistanceMeters>
          </Trackpoint>
          <Trackpoint>
            <Time>2021-08-03T15:31:54Z</Time>
            <Position>
              <LatitudeDegrees>41.038384</LatitudeDegrees>
              <LongitudeDegrees>-1.360680</LongitudeDegrees>
            </Position>
            <AltitudeMeters>803.143</AltitudeMeters>
            <DistanceMeters>552829.10751834</DistanceMeters>
          </Trackpoint>
          <Trackpoint>
            <Time>2021-08-03T15:31:56Z</Time>
            <Position>
              <LatitudeDegrees>41.038416</LatitudeDegrees>
              <LongitudeDegrees>-1.360633</LongitudeDegrees>
            </Position>
            <AltitudeMeters>803.117</AltitudeMeters>
            <DistanceMeters>552834.42307185</DistanceMeters>
          </Trackpoint>
          <Trackpoint>
            <Time>2021-08-03T15:31:58Z</Time>
            <Position>
              <LatitudeDegrees>41.038468</LatitudeDegrees>
              <LongitudeDegrees>-1.360554</LongitudeDegrees>
            </Position>
            <AltitudeMeters>803.308</AltitudeMeters>
            <DistanceMeters>552843.22574679</DistanceMeters>
          </Trackpoint>
          <Trackpoint>
            <Time>2021-08-03T15:32:00Z</Time>
            <Position>
              <LatitudeDegrees>41.038537</LatitudeDegrees>
              <LongitudeDegrees>-1.360444</LongitudeDegrees>
            </Position>
            <AltitudeMeters>803.675</AltitudeMeters>
            <DistanceMeters>552855.23601078</DistanceMeters>
          </Trackpoint>
          <Trackpoint>
            <Time>2021-08-03T15:32:02Z</Time>
            <Position>
              <LatitudeDegrees>41.038602</LatitudeDegrees>
              <LongitudeDegrees>-1.360330</LongitudeDegrees>
            </Position>
            <AltitudeMeters>803.777</AltitudeMeters>
            <DistanceMeters>552867.23310994</DistanceMeters>
          </Trackpoint>
          <Trackpoint>
            <Time>2021-08-03T15:32:03Z</Time>
            <Position>
              <LatitudeDegrees>41.038631</LatitudeDegrees>
              <LongitudeDegrees>-1.360277</LongitudeDegrees>
            </Position>
            <AltitudeMeters>803.967</AltitudeMeters>
            <DistanceMeters>552872.72989407</DistanceMeters>
          </Trackpoint>
          <Trackpoint>
            <Time>2021-08-03T15:32:04Z</Time>
            <Position>
              <LatitudeDegrees>41.038659</LatitudeDegrees>
              <LongitudeDegrees>-1.360225</LongitudeDegrees>
            </Position>
            <AltitudeMeters>804.190</AltitudeMeters>
            <DistanceMeters>552878.09364496</DistanceMeters>
          </Trackpoint>
          <Trackpoint>
            <Time>2021-08-03T15:32:05Z</Time>
            <Position>
              <LatitudeDegrees>41.038687</LatitudeDegrees>
              <LongitudeDegrees>-1.360178</LongitudeDegrees>
            </Position>
            <AltitudeMeters>804.288</AltitudeMeters>
            <DistanceMeters>552883.12108804</DistanceMeters>
          </Trackpoint>
          <Trackpoint>
            <Time>2021-08-03T15:32:07Z</Time>
            <Position>
              <LatitudeDegrees>41.038741</LatitudeDegrees>
              <LongitudeDegrees>-1.360090</LongitudeDegrees>
            </Position>
            <AltitudeMeters>804.393</AltitudeMeters>
            <DistanceMeters>552892.64464241</DistanceMeters>
          </Trackpoint>
          <Trackpoint>
            <Time>2021-08-03T15:32:09Z</Time>
            <Position>
              <LatitudeDegrees>41.038791</LatitudeDegrees>
              <LongitudeDegrees>-1.360007</LongitudeDegrees>
            </Position>
            <AltitudeMeters>804.458</AltitudeMeters>
            <DistanceMeters>552901.56197683</DistanceMeters>
          </Trackpoint>
          <Trackpoint>
            <Time>2021-08-03T15:32:11Z</Time>
            <Position>
              <LatitudeDegrees>41.038841</LatitudeDegrees>
              <LongitudeDegrees>-1.359906</LongitudeDegrees>
            </Position>
            <AltitudeMeters>804.889</AltitudeMeters>
            <DistanceMeters>552911.70360248</DistanceMeters>
          </Trackpoint>
          <Trackpoint>
            <Time>2021-08-03T15:32:13Z</Time>
            <Position>
              <LatitudeDegrees>41.038876</LatitudeDegrees>
              <LongitudeDegrees>-1.359816</LongitudeDegrees>
            </Position>
            <AltitudeMeters>805.039</AltitudeMeters>
            <DistanceMeters>552920.20411256</DistanceMeters>
          </Trackpoint>
          <Trackpoint>
            <Time>2021-08-03T15:32:15Z</Time>
            <Position>
              <LatitudeDegrees>41.038920</LatitudeDegrees>
              <LongitudeDegrees>-1.359707</LongitudeDegrees>
            </Position>
            <AltitudeMeters>805.301</AltitudeMeters>
            <DistanceMeters>552930.58292665</DistanceMeters>
          </Trackpoint>
          <Trackpoint>
            <Time>2021-08-03T15:32:16Z</Time>
            <Position>
              <LatitudeDegrees>41.038950</LatitudeDegrees>
              <LongitudeDegrees>-1.359647</LongitudeDegrees>
            </Position>
            <AltitudeMeters>805.521</AltitudeMeters>
            <DistanceMeters>552936.62590846</DistanceMeters>
          </Trackpoint>
          <Trackpoint>
            <Time>2021-08-03T15:32:17Z</Time>
            <Position>
              <LatitudeDegrees>41.038978</LatitudeDegrees>
              <LongitudeDegrees>-1.359591</LongitudeDegrees>
            </Position>
            <AltitudeMeters>805.608</AltitudeMeters>
            <DistanceMeters>552942.26540571</DistanceMeters>
          </Trackpoint>
          <Trackpoint>
            <Time>2021-08-03T15:32:18Z</Time>
            <Position>
              <LatitudeDegrees>41.039001</LatitudeDegrees>
              <LongitudeDegrees>-1.359537</LongitudeDegrees>
            </Position>
            <AltitudeMeters>805.660</AltitudeMeters>
            <DistanceMeters>552947.47196787</DistanceMeters>
          </Trackpoint>
          <Trackpoint>
            <Time>2021-08-03T15:32:20Z</Time>
            <Position>
              <LatitudeDegrees>41.039050</LatitudeDegrees>
              <LongitudeDegrees>-1.359423</LongitudeDegrees>
            </Position>
            <AltitudeMeters>805.772</AltitudeMeters>
            <DistanceMeters>552958.4876915</DistanceMeters>
          </Trackpoint>
          <Trackpoint>
            <Time>2021-08-03T15:32:21Z</Time>
            <Position>
              <LatitudeDegrees>41.039075</LatitudeDegrees>
              <LongitudeDegrees>-1.359365</LongitudeDegrees>
            </Position>
            <AltitudeMeters>805.712</AltitudeMeters>
            <DistanceMeters>552964.09587804</DistanceMeters>
          </Trackpoint>
          <Trackpoint>
            <Time>2021-08-03T15:32:23Z</Time>
            <Position>
              <LatitudeDegrees>41.039132</LatitudeDegrees>
              <LongitudeDegrees>-1.359245</LongitudeDegrees>
            </Position>
            <AltitudeMeters>806.185</AltitudeMeters>
            <DistanceMeters>552976.00117434</DistanceMeters>
          </Trackpoint>
          <Trackpoint>
            <Time>2021-08-03T15:32:25Z</Time>
            <Position>
              <LatitudeDegrees>41.039191</LatitudeDegrees>
              <LongitudeDegrees>-1.359146</LongitudeDegrees>
            </Position>
            <AltitudeMeters>806.323</AltitudeMeters>
            <DistanceMeters>552986.59313684</DistanceMeters>
          </Trackpoint>
          <Trackpoint>
            <Time>2021-08-03T15:32:27Z</Time>
            <Position>
              <LatitudeDegrees>41.039236</LatitudeDegrees>
              <LongitudeDegrees>-1.359051</LongitudeDegrees>
            </Position>
            <AltitudeMeters>806.668</AltitudeMeters>
            <DistanceMeters>552996.01085476</DistanceMeters>
          </Trackpoint>
          <Trackpoint>
            <Time>2021-08-03T15:32:29Z</Time>
            <Position>
              <LatitudeDegrees>41.039282</LatitudeDegrees>
              <LongitudeDegrees>-1.358953</LongitudeDegrees>
            </Position>
            <AltitudeMeters>806.733</AltitudeMeters>
            <DistanceMeters>553005.70078432</DistanceMeters>
          </Trackpoint>
          <Trackpoint>
            <Time>2021-08-03T15:32:31Z</Time>
            <Position>
              <LatitudeDegrees>41.039328</LatitudeDegrees>
              <LongitudeDegrees>-1.358853</LongitudeDegrees>
            </Position>
            <AltitudeMeters>806.734</AltitudeMeters>
            <DistanceMeters>553015.53409803</DistanceMeters>
          </Trackpoint>
          <Trackpoint>
            <Time>2021-08-03T15:32:33Z</Time>
            <Position>
              <LatitudeDegrees>41.039372</LatitudeDegrees>
              <LongitudeDegrees>-1.358756</LongitudeDegrees>
            </Position>
            <AltitudeMeters>806.871</AltitudeMeters>
            <DistanceMeters>553025.03581916</DistanceMeters>
          </Trackpoint>
          <Trackpoint>
            <Time>2021-08-03T15:32:35Z</Time>
            <Position>
              <LatitudeDegrees>41.039421</LatitudeDegrees>
              <LongitudeDegrees>-1.358654</LongitudeDegrees>
            </Position>
            <AltitudeMeters>806.941</AltitudeMeters>
            <DistanceMeters>553035.18812395</DistanceMeters>
          </Trackpoint>
          <Trackpoint>
            <Time>2021-08-03T15:32:37Z</Time>
            <Position>
              <LatitudeDegrees>41.039461</LatitudeDegrees>
              <LongitudeDegrees>-1.358548</LongitudeDegrees>
            </Position>
            <AltitudeMeters>807.015</AltitudeMeters>
            <DistanceMeters>553045.13783389</DistanceMeters>
          </Trackpoint>
          <Trackpoint>
            <Time>2021-08-03T15:32:39Z</Time>
            <Position>
              <LatitudeDegrees>41.039511</LatitudeDegrees>
              <LongitudeDegrees>-1.358443</LongitudeDegrees>
            </Position>
            <AltitudeMeters>807.108</AltitudeMeters>
            <DistanceMeters>553055.56222548</DistanceMeters>
          </Trackpoint>
          <Trackpoint>
            <Time>2021-08-03T15:32:40Z</Time>
            <Position>
              <LatitudeDegrees>41.039529</LatitudeDegrees>
              <LongitudeDegrees>-1.358384</LongitudeDegrees>
            </Position>
            <AltitudeMeters>807.274</AltitudeMeters>
            <DistanceMeters>553060.9048907</DistanceMeters>
          </Trackpoint>
          <Trackpoint>
            <Time>2021-08-03T15:32:41Z</Time>
            <Position>
              <LatitudeDegrees>41.039556</LatitudeDegrees>
              <LongitudeDegrees>-1.358334</LongitudeDegrees>
            </Position>
            <AltitudeMeters>807.456</AltitudeMeters>
            <DistanceMeters>553066.06616239</DistanceMeters>
          </Trackpoint>
          <Trackpoint>
            <Time>2021-08-03T15:32:43Z</Time>
            <Position>
              <LatitudeDegrees>41.039602</LatitudeDegrees>
              <LongitudeDegrees>-1.358234</LongitudeDegrees>
            </Position>
            <AltitudeMeters>807.796</AltitudeMeters>
            <DistanceMeters>553075.89855775</DistanceMeters>
          </Trackpoint>
          <Trackpoint>
            <Time>2021-08-03T15:32:45Z</Time>
            <Position>
              <LatitudeDegrees>41.039655</LatitudeDegrees>
              <LongitudeDegrees>-1.358136</LongitudeDegrees>
            </Position>
            <AltitudeMeters>807.969</AltitudeMeters>
            <DistanceMeters>553086.02146778</DistanceMeters>
          </Trackpoint>
          <Trackpoint>
            <Time>2021-08-03T15:32:47Z</Time>
            <Position>
              <LatitudeDegrees>41.039701</LatitudeDegrees>
              <LongitudeDegrees>-1.358034</LongitudeDegrees>
            </Position>
            <AltitudeMeters>808.157</AltitudeMeters>
            <DistanceMeters>553095.99836773</DistanceMeters>
          </Trackpoint>
          <Trackpoint>
            <Time>2021-08-03T15:32:49Z</Time>
            <Position>
              <LatitudeDegrees>41.039754</LatitudeDegrees>
              <LongitudeDegrees>-1.357933</LongitudeDegrees>
            </Position>
            <AltitudeMeters>808.532</AltitudeMeters>
            <DistanceMeters>553106.32746997</DistanceMeters>
          </Trackpoint>
          <Trackpoint>
            <Time>2021-08-03T15:32:50Z</Time>
            <Position>
              <LatitudeDegrees>41.039791</LatitudeDegrees>
              <LongitudeDegrees>-1.357886</LongitudeDegrees>
            </Position>
            <AltitudeMeters>808.627</AltitudeMeters>
            <DistanceMeters>553112.0306564</DistanceMeters>
          </Trackpoint>
          <Trackpoint>
            <Time>2021-08-03T15:32:51Z</Time>
            <Position>
              <LatitudeDegrees>41.039825</LatitudeDegrees>
              <LongitudeDegrees>-1.357846</LongitudeDegrees>
            </Position>
            <AltitudeMeters>808.878</AltitudeMeters>
            <DistanceMeters>553117.09032701</DistanceMeters>
          </Trackpoint>
          <Trackpoint>
            <Time>2021-08-03T15:32:53Z</Time>
            <Position>
              <LatitudeDegrees>41.039879</LatitudeDegrees>
              <LongitudeDegrees>-1.357765</LongitudeDegrees>
            </Position>
            <AltitudeMeters>809.167</AltitudeMeters>
            <DistanceMeters>553126.16624885</DistanceMeters>
          </Trackpoint>
          <Trackpoint>
            <Time>2021-08-03T15:32:55Z</Time>
            <Position>
              <LatitudeDegrees>41.039924</LatitudeDegrees>
              <LongitudeDegrees>-1.357681</LongitudeDegrees>
            </Position>
            <AltitudeMeters>809.281</AltitudeMeters>
            <DistanceMeters>553134.81576811</DistanceMeters>
          </Trackpoint>
          <Trackpoint>
            <Time>2021-08-03T15:32:57Z</Time>
            <Position>
              <LatitudeDegrees>41.039966</LatitudeDegrees>
              <LongitudeDegrees>-1.357602</LongitudeDegrees>
            </Position>
            <AltitudeMeters>809.319</AltitudeMeters>
            <DistanceMeters>553142.92984768</DistanceMeters>
          </Trackpoint>
          <Trackpoint>
            <Time>2021-08-03T15:32:59Z</Time>
            <Position>
              <LatitudeDegrees>41.039993</LatitudeDegrees>
              <LongitudeDegrees>-1.357515</LongitudeDegrees>
            </Position>
            <AltitudeMeters>809.408</AltitudeMeters>
            <DistanceMeters>553150.82793404</DistanceMeters>
          </Trackpoint>
          <Trackpoint>
            <Time>2021-08-03T15:33:01Z</Time>
            <Position>
              <LatitudeDegrees>41.040031</LatitudeDegrees>
              <LongitudeDegrees>-1.357426</LongitudeDegrees>
            </Position>
            <AltitudeMeters>809.523</AltitudeMeters>
            <DistanceMeters>553159.41405913</DistanceMeters>
          </Trackpoint>
          <Trackpoint>
            <Time>2021-08-03T15:33:03Z</Time>
            <Position>
              <LatitudeDegrees>41.040073</LatitudeDegrees>
              <LongitudeDegrees>-1.357331</LongitudeDegrees>
            </Position>
            <AltitudeMeters>809.685</AltitudeMeters>
            <DistanceMeters>553168.65757487</DistanceMeters>
          </Trackpoint>
          <Trackpoint>
            <Time>2021-08-03T15:33:05Z</Time>
            <Position>
              <LatitudeDegrees>41.040106</LatitudeDegrees>
              <LongitudeDegrees>-1.357239</LongitudeDegrees>
            </Position>
            <AltitudeMeters>809.815</AltitudeMeters>
            <DistanceMeters>553177.20997917</DistanceMeters>
          </Trackpoint>
          <Trackpoint>
            <Time>2021-08-03T15:33:07Z</Time>
            <Position>
              <LatitudeDegrees>41.040131</LatitudeDegrees>
              <LongitudeDegrees>-1.357146</LongitudeDegrees>
            </Position>
            <AltitudeMeters>810.138</AltitudeMeters>
            <DistanceMeters>553185.4980303</DistanceMeters>
          </Trackpoint>
          <Trackpoint>
            <Time>2021-08-03T15:33:09Z</Time>
            <Position>
              <LatitudeDegrees>41.040171</LatitudeDegrees>
              <LongitudeDegrees>-1.357060</LongitudeDegrees>
            </Position>
            <AltitudeMeters>810.286</AltitudeMeters>
            <DistanceMeters>553193.97992979</DistanceMeters>
          </Trackpoint>
          <Trackpoint>
            <Time>2021-08-03T15:33:11Z</Time>
            <Position>
              <LatitudeDegrees>41.040133</LatitudeDegrees>
              <LongitudeDegrees>-1.357001</LongitudeDegrees>
            </Position>
            <AltitudeMeters>810.241</AltitudeMeters>
            <DistanceMeters>553200.49324685</DistanceMeters>
          </Trackpoint>
          <Trackpoint>
            <Time>2021-08-03T15:33:15Z</Time>
            <Position>
              <LatitudeDegrees>41.040085</LatitudeDegrees>
              <LongitudeDegrees>-1.356940</LongitudeDegrees>
            </Position>
            <AltitudeMeters>810.226</AltitudeMeters>
            <DistanceMeters>553207.89313763</DistanceMeters>
          </Trackpoint>
          <Trackpoint>
            <Time>2021-08-03T15:33:17Z</Time>
            <Position>
              <LatitudeDegrees>41.040048</LatitudeDegrees>
              <LongitudeDegrees>-1.356882</LongitudeDegrees>
            </Position>
            <AltitudeMeters>810.287</AltitudeMeters>
            <DistanceMeters>553214.26984793</DistanceMeters>
          </Trackpoint>
          <Trackpoint>
            <Time>2021-08-03T15:33:19Z</Time>
            <Position>
              <LatitudeDegrees>41.040053</LatitudeDegrees>
              <LongitudeDegrees>-1.356812</LongitudeDegrees>
            </Position>
            <AltitudeMeters>809.656</AltitudeMeters>
            <DistanceMeters>553220.17222329</DistanceMeters>
          </Trackpoint>
          <Trackpoint>
            <Time>2021-08-03T15:33:23Z</Time>
            <Position>
              <LatitudeDegrees>41.040085</LatitudeDegrees>
              <LongitudeDegrees>-1.356769</LongitudeDegrees>
            </Position>
            <AltitudeMeters>808.759</AltitudeMeters>
            <DistanceMeters>553225.24348129</DistanceMeters>
          </Trackpoint>
          <Trackpoint>
            <Time>2021-08-03T15:36:33Z</Time>
            <Position>
              <LatitudeDegrees>41.040124</LatitudeDegrees>
              <LongitudeDegrees>-1.356727</LongitudeDegrees>
            </Position>
            <AltitudeMeters>809.014</AltitudeMeters>
            <DistanceMeters>553230.8363504</DistanceMeters>
          </Trackpoint>
          <Trackpoint>
            <Time>2021-08-03T15:37:08Z</Time>
            <Position>
              <LatitudeDegrees>41.040075</LatitudeDegrees>
              <LongitudeDegrees>-1.356715</LongitudeDegrees>
            </Position>
            <AltitudeMeters>808.908</AltitudeMeters>
            <DistanceMeters>553236.38382735</DistanceMeters>
          </Trackpoint>
          <Trackpoint>
            <Time>2021-08-03T15:37:31Z</Time>
            <Position>
              <LatitudeDegrees>41.040019</LatitudeDegrees>
              <LongitudeDegrees>-1.356724</LongitudeDegrees>
            </Position>
            <AltitudeMeters>808.982</AltitudeMeters>
            <DistanceMeters>553242.66278536</DistanceMeters>
          </Trackpoint>
          <Trackpoint>
            <Time>2021-08-03T15:37:34Z</Time>
            <Position>
              <LatitudeDegrees>41.039986</LatitudeDegrees>
              <LongitudeDegrees>-1.356777</LongitudeDegrees>
            </Position>
            <AltitudeMeters>808.984</AltitudeMeters>
            <DistanceMeters>553248.43287131</DistanceMeters>
          </Trackpoint>
          <Trackpoint>
            <Time>2021-08-03T15:37:36Z</Time>
            <Position>
              <LatitudeDegrees>41.039977</LatitudeDegrees>
              <LongitudeDegrees>-1.356836</LongitudeDegrees>
            </Position>
            <AltitudeMeters>808.844</AltitudeMeters>
            <DistanceMeters>553253.48539802</DistanceMeters>
          </Trackpoint>
          <Trackpoint>
            <Time>2021-08-03T15:37:39Z</Time>
            <Position>
              <LatitudeDegrees>41.039969</LatitudeDegrees>
              <LongitudeDegrees>-1.356897</LongitudeDegrees>
            </Position>
            <AltitudeMeters>808.667</AltitudeMeters>
            <DistanceMeters>553258.68328111</DistanceMeters>
          </Trackpoint>
          <Trackpoint>
            <Time>2021-08-03T15:38:18Z</Time>
            <Position>
              <LatitudeDegrees>41.039924</LatitudeDegrees>
              <LongitudeDegrees>-1.356900</LongitudeDegrees>
            </Position>
            <AltitudeMeters>808.275</AltitudeMeters>
            <DistanceMeters>553263.69813534</DistanceMeters>
          </Trackpoint>
          <Trackpoint>
            <Time>2021-08-03T15:38:21Z</Time>
            <Position>
              <LatitudeDegrees>41.039888</LatitudeDegrees>
              <LongitudeDegrees>-1.356813</LongitudeDegrees>
            </Position>
            <AltitudeMeters>808.270</AltitudeMeters>
            <DistanceMeters>553272.02856975</DistanceMeters>
          </Trackpoint>
          <Trackpoint>
            <Time>2021-08-03T15:38:23Z</Time>
            <Position>
              <LatitudeDegrees>41.039849</LatitudeDegrees>
              <LongitudeDegrees>-1.356737</LongitudeDegrees>
            </Position>
            <AltitudeMeters>808.255</AltitudeMeters>
            <DistanceMeters>553279.74506663</DistanceMeters>
          </Trackpoint>
          <Trackpoint>
            <Time>2021-08-03T15:38:25Z</Time>
            <Position>
              <LatitudeDegrees>41.039797</LatitudeDegrees>
              <LongitudeDegrees>-1.356660</LongitudeDegrees>
            </Position>
            <AltitudeMeters>808.266</AltitudeMeters>
            <DistanceMeters>553288.42116698</DistanceMeters>
          </Trackpoint>
          <Trackpoint>
            <Time>2021-08-03T15:38:27Z</Time>
            <Position>
              <LatitudeDegrees>41.039730</LatitudeDegrees>
              <LongitudeDegrees>-1.356596</LongitudeDegrees>
            </Position>
            <AltitudeMeters>806.822</AltitudeMeters>
            <DistanceMeters>553297.6127607</DistanceMeters>
          </Trackpoint>
          <Trackpoint>
            <Time>2021-08-03T15:38:29Z</Time>
            <Position>
              <LatitudeDegrees>41.039664</LatitudeDegrees>
              <LongitudeDegrees>-1.356527</LongitudeDegrees>
            </Position>
            <AltitudeMeters>806.662</AltitudeMeters>
            <DistanceMeters>553306.96794648</DistanceMeters>
          </Trackpoint>
          <Trackpoint>
            <Time>2021-08-03T15:38:31Z</Time>
            <Position>
              <LatitudeDegrees>41.039597</LatitudeDegrees>
              <LongitudeDegrees>-1.356457</LongitudeDegrees>
            </Position>
            <AltitudeMeters>806.408</AltitudeMeters>
            <DistanceMeters>553316.46206166</DistanceMeters>
          </Trackpoint>
          <Trackpoint>
            <Time>2021-08-03T15:38:33Z</Time>
            <Position>
              <LatitudeDegrees>41.039524</LatitudeDegrees>
              <LongitudeDegrees>-1.356398</LongitudeDegrees>
            </Position>
            <AltitudeMeters>805.908</AltitudeMeters>
            <DistanceMeters>553325.97802753</DistanceMeters>
          </Trackpoint>
          <Trackpoint>
            <Time>2021-08-03T15:38:35Z</Time>
            <Position>
              <LatitudeDegrees>41.039454</LatitudeDegrees>
              <LongitudeDegrees>-1.356344</LongitudeDegrees>
            </Position>
            <AltitudeMeters>805.829</AltitudeMeters>
            <DistanceMeters>553334.99205149</DistanceMeters>
          </Trackpoint>
          <Trackpoint>
            <Time>2021-08-03T15:38:37Z</Time>
            <Position>
              <LatitudeDegrees>41.039382</LatitudeDegrees>
              <LongitudeDegrees>-1.356273</LongitudeDegrees>
            </Position>
            <AltitudeMeters>805.781</AltitudeMeters>
            <DistanceMeters>553344.98025876</DistanceMeters>
          </Trackpoint>
          <Trackpoint>
            <Time>2021-08-03T15:38:39Z</Time>
            <Position>
              <LatitudeDegrees>41.039319</LatitudeDegrees>
              <LongitudeDegrees>-1.356212</LongitudeDegrees>
            </Position>
            <AltitudeMeters>805.591</AltitudeMeters>
            <DistanceMeters>553353.66364165</DistanceMeters>
          </Trackpoint>
          <Trackpoint>
            <Time>2021-08-03T15:38:41Z</Time>
            <Position>
              <LatitudeDegrees>41.039262</LatitudeDegrees>
              <LongitudeDegrees>-1.356173</LongitudeDegrees>
            </Position>
            <AltitudeMeters>805.574</AltitudeMeters>
            <DistanceMeters>553360.80330421</DistanceMeters>
          </Trackpoint>
          <Trackpoint>
            <Time>2021-08-03T15:38:43Z</Time>
            <Position>
              <LatitudeDegrees>41.039201</LatitudeDegrees>
              <LongitudeDegrees>-1.356130</LongitudeDegrees>
            </Position>
            <AltitudeMeters>805.662</AltitudeMeters>
            <DistanceMeters>553368.49283869</DistanceMeters>
          </Trackpoint>
          <Trackpoint>
            <Time>2021-08-03T15:38:45Z</Time>
            <Position>
              <LatitudeDegrees>41.039139</LatitudeDegrees>
              <LongitudeDegrees>-1.356084</LongitudeDegrees>
            </Position>
            <AltitudeMeters>806.147</AltitudeMeters>
            <DistanceMeters>553376.40120828</DistanceMeters>
          </Trackpoint>
          <Trackpoint>
            <Time>2021-08-03T15:38:47Z</Time>
            <Position>
              <LatitudeDegrees>41.039080</LatitudeDegrees>
              <LongitudeDegrees>-1.356036</LongitudeDegrees>
            </Position>
            <AltitudeMeters>806.352</AltitudeMeters>
            <DistanceMeters>553384.10540794</DistanceMeters>
          </Trackpoint>
          <Trackpoint>
            <Time>2021-08-03T15:38:49Z</Time>
            <Position>
              <LatitudeDegrees>41.039025</LatitudeDegrees>
              <LongitudeDegrees>-1.355992</LongitudeDegrees>
            </Position>
            <AltitudeMeters>806.543</AltitudeMeters>
            <DistanceMeters>553391.25518155</DistanceMeters>
          </Trackpoint>
          <Trackpoint>
            <Time>2021-08-03T15:38:51Z</Time>
            <Position>
              <LatitudeDegrees>41.038979</LatitudeDegrees>
              <LongitudeDegrees>-1.355946</LongitudeDegrees>
            </Position>
            <AltitudeMeters>806.653</AltitudeMeters>
            <DistanceMeters>553397.6679008</DistanceMeters>
          </Trackpoint>
          <Trackpoint>
            <Time>2021-08-03T15:38:53Z</Time>
            <Position>
              <LatitudeDegrees>41.038939</LatitudeDegrees>
              <LongitudeDegrees>-1.355903</LongitudeDegrees>
            </Position>
            <AltitudeMeters>806.904</AltitudeMeters>
            <DistanceMeters>553403.39872867</DistanceMeters>
          </Trackpoint>
          <Trackpoint>
            <Time>2021-08-03T15:38:55Z</Time>
            <Position>
              <LatitudeDegrees>41.038896</LatitudeDegrees>
              <LongitudeDegrees>-1.355863</LongitudeDegrees>
            </Position>
            <AltitudeMeters>806.914</AltitudeMeters>
            <DistanceMeters>553409.2449958</DistanceMeters>
          </Trackpoint>
          <Trackpoint>
            <Time>2021-08-03T15:38:57Z</Time>
            <Position>
              <LatitudeDegrees>41.038851</LatitudeDegrees>
              <LongitudeDegrees>-1.355820</LongitudeDegrees>
            </Position>
            <AltitudeMeters>806.908</AltitudeMeters>
            <DistanceMeters>553415.41953892</DistanceMeters>
          </Trackpoint>
          <Trackpoint>
            <Time>2021-08-03T15:38:59Z</Time>
            <Position>
              <LatitudeDegrees>41.038801</LatitudeDegrees>
              <LongitudeDegrees>-1.355776</LongitudeDegrees>
            </Position>
            <AltitudeMeters>806.952</AltitudeMeters>
            <DistanceMeters>553422.0991802</DistanceMeters>
          </Trackpoint>
          <Trackpoint>
            <Time>2021-08-03T15:39:01Z</Time>
            <Position>
              <LatitudeDegrees>41.038754</LatitudeDegrees>
              <LongitudeDegrees>-1.355735</LongitudeDegrees>
            </Position>
            <AltitudeMeters>806.934</AltitudeMeters>
            <DistanceMeters>553428.36085665</DistanceMeters>
          </Trackpoint>
          <Trackpoint>
            <Time>2021-08-03T15:39:03Z</Time>
            <Position>
              <LatitudeDegrees>41.038700</LatitudeDegrees>
              <LongitudeDegrees>-1.355691</LongitudeDegrees>
            </Position>
            <AltitudeMeters>806.714</AltitudeMeters>
            <DistanceMeters>553435.41527025</DistanceMeters>
          </Trackpoint>
          <Trackpoint>
            <Time>2021-08-03T15:39:05Z</Time>
            <Position>
              <LatitudeDegrees>41.038641</LatitudeDegrees>
              <LongitudeDegrees>-1.355640</LongitudeDegrees>
            </Position>
            <AltitudeMeters>806.687</AltitudeMeters>
            <DistanceMeters>553443.25483021</DistanceMeters>
          </Trackpoint>
          <Trackpoint>
            <Time>2021-08-03T15:39:07Z</Time>
            <Position>
              <LatitudeDegrees>41.038577</LatitudeDegrees>
              <LongitudeDegrees>-1.355591</LongitudeDegrees>
            </Position>
            <AltitudeMeters>806.655</AltitudeMeters>
            <DistanceMeters>553451.48054372</DistanceMeters>
          </Trackpoint>
          <Trackpoint>
            <Time>2021-08-03T15:39:09Z</Time>
            <Position>
              <LatitudeDegrees>41.038512</LatitudeDegrees>
              <LongitudeDegrees>-1.355545</LongitudeDegrees>
            </Position>
            <AltitudeMeters>806.710</AltitudeMeters>
            <DistanceMeters>553459.68151984</DistanceMeters>
          </Trackpoint>
          <Trackpoint>
            <Time>2021-08-03T15:39:11Z</Time>
            <Position>
              <LatitudeDegrees>41.038448</LatitudeDegrees>
              <LongitudeDegrees>-1.355502</LongitudeDegrees>
            </Position>
            <AltitudeMeters>806.815</AltitudeMeters>
            <DistanceMeters>553467.66715694</DistanceMeters>
          </Trackpoint>
          <Trackpoint>
            <Time>2021-08-03T15:39:13Z</Time>
            <Position>
              <LatitudeDegrees>41.038375</LatitudeDegrees>
              <LongitudeDegrees>-1.355441</LongitudeDegrees>
            </Position>
            <AltitudeMeters>806.826</AltitudeMeters>
            <DistanceMeters>553477.27096872</DistanceMeters>
          </Trackpoint>
          <Trackpoint>
            <Time>2021-08-03T15:39:15Z</Time>
            <Position>
              <LatitudeDegrees>41.038310</LatitudeDegrees>
              <LongitudeDegrees>-1.355374</LongitudeDegrees>
            </Position>
            <AltitudeMeters>806.761</AltitudeMeters>
            <DistanceMeters>553486.43402775</DistanceMeters>
          </Trackpoint>
          <Trackpoint>
            <Time>2021-08-03T15:39:17Z</Time>
            <Position>
              <LatitudeDegrees>41.038255</LatitudeDegrees>
              <LongitudeDegrees>-1.355307</LongitudeDegrees>
            </Position>
            <AltitudeMeters>806.721</AltitudeMeters>
            <DistanceMeters>553494.74710029</DistanceMeters>
          </Trackpoint>
          <Trackpoint>
            <Time>2021-08-03T15:39:19Z</Time>
            <Position>
              <LatitudeDegrees>41.038209</LatitudeDegrees>
              <LongitudeDegrees>-1.355235</LongitudeDegrees>
            </Position>
            <AltitudeMeters>806.913</AltitudeMeters>
            <DistanceMeters>553502.66916008</DistanceMeters>
          </Trackpoint>
          <Trackpoint>
            <Time>2021-08-03T15:39:21Z</Time>
            <Position>
              <LatitudeDegrees>41.038166</LatitudeDegrees>
              <LongitudeDegrees>-1.355122</LongitudeDegrees>
            </Position>
            <AltitudeMeters>807.008</AltitudeMeters>
            <DistanceMeters>553513.29474457</DistanceMeters>
          </Trackpoint>
          <Trackpoint>
            <Time>2021-08-03T15:39:23Z</Time>
            <Position>
              <LatitudeDegrees>41.038135</LatitudeDegrees>
              <LongitudeDegrees>-1.355036</LongitudeDegrees>
            </Position>
            <AltitudeMeters>807.673</AltitudeMeters>
            <DistanceMeters>553521.29619706</DistanceMeters>
          </Trackpoint>
          <Trackpoint>
            <Time>2021-08-03T15:39:25Z</Time>
            <Position>
              <LatitudeDegrees>41.038092</LatitudeDegrees>
              <LongitudeDegrees>-1.354967</LongitudeDegrees>
            </Position>
            <AltitudeMeters>807.715</AltitudeMeters>
            <DistanceMeters>553528.81052125</DistanceMeters>
          </Trackpoint>
          <Trackpoint>
            <Time>2021-08-03T15:39:27Z</Time>
            <Position>
              <LatitudeDegrees>41.038050</LatitudeDegrees>
              <LongitudeDegrees>-1.354904</LongitudeDegrees>
            </Position>
            <AltitudeMeters>807.715</AltitudeMeters>
            <DistanceMeters>553535.86941364</DistanceMeters>
          </Trackpoint>
          <Trackpoint>
            <Time>2021-08-03T15:39:29Z</Time>
            <Position>
              <LatitudeDegrees>41.038003</LatitudeDegrees>
              <LongitudeDegrees>-1.354834</LongitudeDegrees>
            </Position>
            <AltitudeMeters>807.858</AltitudeMeters>
            <DistanceMeters>553543.73714356</DistanceMeters>
          </Trackpoint>
          <Trackpoint>
            <Time>2021-08-03T15:39:31Z</Time>
            <Position>
              <LatitudeDegrees>41.037951</LatitudeDegrees>
              <LongitudeDegrees>-1.354757</LongitudeDegrees>
            </Position>
            <AltitudeMeters>807.956</AltitudeMeters>
            <DistanceMeters>553552.41428464</DistanceMeters>
          </Trackpoint>
          <Trackpoint>
            <Time>2021-08-03T15:39:33Z</Time>
            <Position>
              <LatitudeDegrees>41.037898</LatitudeDegrees>
              <LongitudeDegrees>-1.354690</LongitudeDegrees>
            </Position>
            <AltitudeMeters>808.041</AltitudeMeters>
            <DistanceMeters>553560.56445288</DistanceMeters>
          </Trackpoint>
          <Trackpoint>
            <Time>2021-08-03T15:39:35Z</Time>
            <Position>
              <LatitudeDegrees>41.037852</LatitudeDegrees>
              <LongitudeDegrees>-1.354615</LongitudeDegrees>
            </Position>
            <AltitudeMeters>808.296</AltitudeMeters>
            <DistanceMeters>553568.67908888</DistanceMeters>
          </Trackpoint>
          <Trackpoint>
            <Time>2021-08-03T15:39:37Z</Time>
            <Position>
              <LatitudeDegrees>41.037801</LatitudeDegrees>
              <LongitudeDegrees>-1.354545</LongitudeDegrees>
            </Position>
            <AltitudeMeters>808.337</AltitudeMeters>
            <DistanceMeters>553576.8491761</DistanceMeters>
          </Trackpoint>
          <Trackpoint>
            <Time>2021-08-03T15:39:39Z</Time>
            <Position>
              <LatitudeDegrees>41.037747</LatitudeDegrees>
              <LongitudeDegrees>-1.354488</LongitudeDegrees>
            </Position>
            <AltitudeMeters>808.352</AltitudeMeters>
            <DistanceMeters>553584.53166135</DistanceMeters>
          </Trackpoint>
          <Trackpoint>
            <Time>2021-08-03T15:39:41Z</Time>
            <Position>
              <LatitudeDegrees>41.037690</LatitudeDegrees>
              <LongitudeDegrees>-1.354438</LongitudeDegrees>
            </Position>
            <AltitudeMeters>808.453</AltitudeMeters>
            <DistanceMeters>553592.13854835</DistanceMeters>
          </Trackpoint>
          <Trackpoint>
            <Time>2021-08-03T15:39:43Z</Time>
            <Position>
              <LatitudeDegrees>41.037628</LatitudeDegrees>
              <LongitudeDegrees>-1.354386</LongitudeDegrees>
            </Position>
            <AltitudeMeters>808.508</AltitudeMeters>
            <DistanceMeters>553600.30421332</DistanceMeters>
          </Trackpoint>
          <Trackpoint>
            <Time>2021-08-03T15:39:45Z</Time>
            <Position>
              <LatitudeDegrees>41.037566</LatitudeDegrees>
              <LongitudeDegrees>-1.354338</LongitudeDegrees>
            </Position>
            <AltitudeMeters>809.008</AltitudeMeters>
            <DistanceMeters>553608.29550237</DistanceMeters>
          </Trackpoint>
          <Trackpoint>
            <Time>2021-08-03T15:39:47Z</Time>
            <Position>
              <LatitudeDegrees>41.037499</LatitudeDegrees>
              <LongitudeDegrees>-1.354292</LongitudeDegrees>
            </Position>
            <AltitudeMeters>809.262</AltitudeMeters>
            <DistanceMeters>553616.69395027</DistanceMeters>
          </Trackpoint>
          <Trackpoint>
            <Time>2021-08-03T15:39:49Z</Time>
            <Position>
              <LatitudeDegrees>41.037425</LatitudeDegrees>
              <LongitudeDegrees>-1.354247</LongitudeDegrees>
            </Position>
            <AltitudeMeters>809.354</AltitudeMeters>
            <DistanceMeters>553625.75543387</DistanceMeters>
          </Trackpoint>
          <Trackpoint>
            <Time>2021-08-03T15:39:51Z</Time>
            <Position>
              <LatitudeDegrees>41.037344</LatitudeDegrees>
              <LongitudeDegrees>-1.354205</LongitudeDegrees>
            </Position>
            <AltitudeMeters>809.514</AltitudeMeters>
            <DistanceMeters>553635.43603991</DistanceMeters>
          </Trackpoint>
          <Trackpoint>
            <Time>2021-08-03T15:39:53Z</Time>
            <Position>
              <LatitudeDegrees>41.037259</LatitudeDegrees>
              <LongitudeDegrees>-1.354136</LongitudeDegrees>
            </Position>
            <AltitudeMeters>809.727</AltitudeMeters>
            <DistanceMeters>553646.52936591</DistanceMeters>
          </Trackpoint>
          <Trackpoint>
            <Time>2021-08-03T15:39:55Z</Time>
            <Position>
              <LatitudeDegrees>41.037164</LatitudeDegrees>
              <LongitudeDegrees>-1.354083</LongitudeDegrees>
            </Position>
            <AltitudeMeters>809.745</AltitudeMeters>
            <DistanceMeters>553658.0016527</DistanceMeters>
          </Trackpoint>
          <Trackpoint>
            <Time>2021-08-03T15:39:56Z</Time>
            <Position>
              <LatitudeDegrees>41.037114</LatitudeDegrees>
              <LongitudeDegrees>-1.354055</LongitudeDegrees>
            </Position>
            <AltitudeMeters>809.360</AltitudeMeters>
            <DistanceMeters>553664.04314002</DistanceMeters>
          </Trackpoint>
          <Trackpoint>
            <Time>2021-08-03T15:39:57Z</Time>
            <Position>
              <LatitudeDegrees>41.037064</LatitudeDegrees>
              <LongitudeDegrees>-1.354023</LongitudeDegrees>
            </Position>
            <AltitudeMeters>808.445</AltitudeMeters>
            <DistanceMeters>553670.22279966</DistanceMeters>
          </Trackpoint>
          <Trackpoint>
            <Time>2021-08-03T15:39:59Z</Time>
            <Position>
              <LatitudeDegrees>41.036977</LatitudeDegrees>
              <LongitudeDegrees>-1.353944</LongitudeDegrees>
            </Position>
            <AltitudeMeters>807.616</AltitudeMeters>
            <DistanceMeters>553681.96004151</DistanceMeters>
          </Trackpoint>
          <Trackpoint>
            <Time>2021-08-03T15:40:01Z</Time>
            <Position>
              <LatitudeDegrees>41.036897</LatitudeDegrees>
              <LongitudeDegrees>-1.353846</LongitudeDegrees>
            </Position>
            <AltitudeMeters>807.452</AltitudeMeters>
            <DistanceMeters>553694.08330527</DistanceMeters>
          </Trackpoint>
          <Trackpoint>
            <Time>2021-08-03T15:40:02Z</Time>
            <Position>
              <LatitudeDegrees>41.036869</LatitudeDegrees>
              <LongitudeDegrees>-1.353798</LongitudeDegrees>
            </Position>
            <AltitudeMeters>807.453</AltitudeMeters>
            <DistanceMeters>553699.17677262</DistanceMeters>
          </Trackpoint>
          <Trackpoint>
            <Time>2021-08-03T15:40:03Z</Time>
            <Position>
              <LatitudeDegrees>41.036837</LatitudeDegrees>
              <LongitudeDegrees>-1.353747</LongitudeDegrees>
            </Position>
            <AltitudeMeters>807.508</AltitudeMeters>
            <DistanceMeters>553704.74537051</DistanceMeters>
          </Trackpoint>
          <Trackpoint>
            <Time>2021-08-03T15:40:05Z</Time>
            <Position>
              <LatitudeDegrees>41.036769</LatitudeDegrees>
              <LongitudeDegrees>-1.353650</LongitudeDegrees>
            </Position>
            <AltitudeMeters>807.608</AltitudeMeters>
            <DistanceMeters>553715.86268387</DistanceMeters>
          </Trackpoint>
          <Trackpoint>
            <Time>2021-08-03T15:40:06Z</Time>
            <Position>
              <LatitudeDegrees>41.036736</LatitudeDegrees>
              <LongitudeDegrees>-1.353607</LongitudeDegrees>
            </Position>
            <AltitudeMeters>807.732</AltitudeMeters>
            <DistanceMeters>553721.01169391</DistanceMeters>
          </Trackpoint>
          <Trackpoint>
            <Time>2021-08-03T15:40:08Z</Time>
            <Position>
              <LatitudeDegrees>41.036668</LatitudeDegrees>
              <LongitudeDegrees>-1.353508</LongitudeDegrees>
            </Position>
            <AltitudeMeters>807.894</AltitudeMeters>
            <DistanceMeters>553732.25299676</DistanceMeters>
          </Trackpoint>
          <Trackpoint>
            <Time>2021-08-03T15:40:09Z</Time>
            <Position>
              <LatitudeDegrees>41.036633</LatitudeDegrees>
              <LongitudeDegrees>-1.353462</LongitudeDegrees>
            </Position>
            <AltitudeMeters>807.894</AltitudeMeters>
            <DistanceMeters>553737.73826929</DistanceMeters>
          </Trackpoint>
          <Trackpoint>
            <Time>2021-08-03T15:40:11Z</Time>
            <Position>
              <LatitudeDegrees>41.036566</LatitudeDegrees>
              <LongitudeDegrees>-1.353375</LongitudeDegrees>
            </Position>
            <AltitudeMeters>807.857</AltitudeMeters>
            <DistanceMeters>553748.17694413</DistanceMeters>
          </Trackpoint>
          <Trackpoint>
            <Time>2021-08-03T15:40:12Z</Time>
            <Position>
              <LatitudeDegrees>41.036536</LatitudeDegrees>
              <LongitudeDegrees>-1.353329</LongitudeDegrees>
            </Position>
            <AltitudeMeters>807.865</AltitudeMeters>
            <DistanceMeters>553753.28192216</DistanceMeters>
          </Trackpoint>
          <Trackpoint>
            <Time>2021-08-03T15:40:14Z</Time>
            <Position>
              <LatitudeDegrees>41.036471</LatitudeDegrees>
              <LongitudeDegrees>-1.353243</LongitudeDegrees>
            </Position>
            <AltitudeMeters>807.810</AltitudeMeters>
            <DistanceMeters>553763.50336943</DistanceMeters>
          </Trackpoint>
          <Trackpoint>
            <Time>2021-08-03T15:40:15Z</Time>
            <Position>
              <LatitudeDegrees>41.036434</LatitudeDegrees>
              <LongitudeDegrees>-1.353199</LongitudeDegrees>
            </Position>
            <AltitudeMeters>807.835</AltitudeMeters>
            <DistanceMeters>553769.03536085</DistanceMeters>
          </Trackpoint>
          <Trackpoint>
            <Time>2021-08-03T15:40:17Z</Time>
            <Position>
              <LatitudeDegrees>41.036353</LatitudeDegrees>
              <LongitudeDegrees>-1.353141</LongitudeDegrees>
            </Position>
            <AltitudeMeters>808.016</AltitudeMeters>
            <DistanceMeters>553779.28195535</DistanceMeters>
          </Trackpoint>
          <Trackpoint>
            <Time>2021-08-03T15:40:19Z</Time>
            <Position>
              <LatitudeDegrees>41.036265</LatitudeDegrees>
              <LongitudeDegrees>-1.353104</LongitudeDegrees>
            </Position>
            <AltitudeMeters>808.034</AltitudeMeters>
            <DistanceMeters>553789.55803018</DistanceMeters>
          </Trackpoint>
          <Trackpoint>
            <Time>2021-08-03T15:40:21Z</Time>
            <Position>
              <LatitudeDegrees>41.036175</LatitudeDegrees>
              <LongitudeDegrees>-1.353074</LongitudeDegrees>
            </Position>
            <AltitudeMeters>808.155</AltitudeMeters>
            <DistanceMeters>553799.88756954</DistanceMeters>
          </Trackpoint>
          <Trackpoint>
            <Time>2021-08-03T15:40:23Z</Time>
            <Position>
              <LatitudeDegrees>41.036098</LatitudeDegrees>
              <LongitudeDegrees>-1.353042</LongitudeDegrees>
            </Position>
            <AltitudeMeters>808.110</AltitudeMeters>
            <DistanceMeters>553808.86847388</DistanceMeters>
          </Trackpoint>
          <Trackpoint>
            <Time>2021-08-03T15:40:25Z</Time>
            <Position>
              <LatitudeDegrees>41.036047</LatitudeDegrees>
              <LongitudeDegrees>-1.353012</LongitudeDegrees>
            </Position>
            <AltitudeMeters>808.308</AltitudeMeters>
            <DistanceMeters>553815.07947111</DistanceMeters>
          </Trackpoint>
          <Trackpoint>
            <Time>2021-08-03T15:40:26Z</Time>
            <Position>
              <LatitudeDegrees>41.036006</LatitudeDegrees>
              <LongitudeDegrees>-1.352981</LongitudeDegrees>
            </Position>
            <AltitudeMeters>808.950</AltitudeMeters>
            <DistanceMeters>553820.33265239</DistanceMeters>
          </Trackpoint>
          <Trackpoint>
            <Time>2021-08-03T15:40:27Z</Time>
            <Position>
              <LatitudeDegrees>41.035965</LatitudeDegrees>
              <LongitudeDegrees>-1.352946</LongitudeDegrees>
            </Position>
            <AltitudeMeters>809.452</AltitudeMeters>
            <DistanceMeters>553825.7591687</DistanceMeters>
          </Trackpoint>
          <Trackpoint>
            <Time>2021-08-03T15:40:29Z</Time>
            <Position>
              <LatitudeDegrees>41.035879</LatitudeDegrees>
              <LongitudeDegrees>-1.352871</LongitudeDegrees>
            </Position>
            <AltitudeMeters>810.072</AltitudeMeters>
            <DistanceMeters>553837.21649044</DistanceMeters>
          </Trackpoint>
          <Trackpoint>
            <Time>2021-08-03T15:40:30Z</Time>
            <Position>
              <LatitudeDegrees>41.035828</LatitudeDegrees>
              <LongitudeDegrees>-1.352831</LongitudeDegrees>
            </Position>
            <AltitudeMeters>810.125</AltitudeMeters>
            <DistanceMeters>553843.81246711</DistanceMeters>
          </Trackpoint>
          <Trackpoint>
            <Time>2021-08-03T15:40:31Z</Time>
            <Position>
              <LatitudeDegrees>41.035769</LatitudeDegrees>
              <LongitudeDegrees>-1.352788</LongitudeDegrees>
            </Position>
            <AltitudeMeters>810.323</AltitudeMeters>
            <DistanceMeters>553851.3063343</DistanceMeters>
          </Trackpoint>
          <Trackpoint>
            <Time>2021-08-03T15:40:33Z</Time>
            <Position>
              <LatitudeDegrees>41.035656</LatitudeDegrees>
              <LongitudeDegrees>-1.352712</LongitudeDegrees>
            </Position>
            <AltitudeMeters>810.048</AltitudeMeters>
            <DistanceMeters>553865.40940005</DistanceMeters>
          </Trackpoint>
          <Trackpoint>
            <Time>2021-08-03T15:40:35Z</Time>
            <Position>
              <LatitudeDegrees>41.035562</LatitudeDegrees>
              <LongitudeDegrees>-1.352654</LongitudeDegrees>
            </Position>
            <AltitudeMeters>809.853</AltitudeMeters>
            <DistanceMeters>553876.94957195</DistanceMeters>
          </Trackpoint>
          <Trackpoint>
            <Time>2021-08-03T15:40:36Z</Time>
            <Position>
              <LatitudeDegrees>41.035519</LatitudeDegrees>
              <LongitudeDegrees>-1.352627</LongitudeDegrees>
            </Position>
            <AltitudeMeters>809.694</AltitudeMeters>
            <DistanceMeters>553882.2447006</DistanceMeters>
          </Trackpoint>
          <Trackpoint>
            <Time>2021-08-03T15:40:37Z</Time>
            <Position>
              <LatitudeDegrees>41.035470</LatitudeDegrees>
              <LongitudeDegrees>-1.352596</LongitudeDegrees>
            </Position>
            <AltitudeMeters>809.514</AltitudeMeters>
            <DistanceMeters>553888.2876824</DistanceMeters>
          </Trackpoint>
          <Trackpoint>
            <Time>2021-08-03T15:40:39Z</Time>
            <Position>
              <LatitudeDegrees>41.035399</LatitudeDegrees>
              <LongitudeDegrees>-1.352551</LongitudeDegrees>
            </Position>
            <AltitudeMeters>809.254</AltitudeMeters>
            <DistanceMeters>553897.04665092</DistanceMeters>
          </Trackpoint>
          <Trackpoint>
            <Time>2021-08-03T15:40:41Z</Time>
            <Position>
              <LatitudeDegrees>41.035336</LatitudeDegrees>
              <LongitudeDegrees>-1.352585</LongitudeDegrees>
            </Position>
            <AltitudeMeters>809.109</AltitudeMeters>
            <DistanceMeters>553904.61664862</DistanceMeters>
          </Trackpoint>
          <Trackpoint>
            <Time>2021-08-03T15:40:42Z</Time>
            <Position>
              <LatitudeDegrees>41.035302</LatitudeDegrees>
              <LongitudeDegrees>-1.352625</LongitudeDegrees>
            </Position>
            <AltitudeMeters>808.908</AltitudeMeters>
            <DistanceMeters>553909.67542679</DistanceMeters>
          </Trackpoint>
          <Trackpoint>
            <Time>2021-08-03T15:40:44Z</Time>
            <Position>
              <LatitudeDegrees>41.035215</LatitudeDegrees>
              <LongitudeDegrees>-1.352703</LongitudeDegrees>
            </Position>
            <AltitudeMeters>808.848</AltitudeMeters>
            <DistanceMeters>553921.36487147</DistanceMeters>
          </Trackpoint>
          <Trackpoint>
            <Time>2021-08-03T15:40:46Z</Time>
            <Position>
              <LatitudeDegrees>41.035112</LatitudeDegrees>
              <LongitudeDegrees>-1.352814</LongitudeDegrees>
            </Position>
            <AltitudeMeters>807.550</AltitudeMeters>
            <DistanceMeters>553936.13869892</DistanceMeters>
          </Trackpoint>
          <Trackpoint>
            <Time>2021-08-03T15:40:47Z</Time>
            <Position>
              <LatitudeDegrees>41.035073</LatitudeDegrees>
              <LongitudeDegrees>-1.352865</LongitudeDegrees>
            </Position>
            <AltitudeMeters>807.140</AltitudeMeters>
            <DistanceMeters>553942.23597903</DistanceMeters>
          </Trackpoint>
          <Trackpoint>
            <Time>2021-08-03T15:40:49Z</Time>
            <Position>
              <LatitudeDegrees>41.034994</LatitudeDegrees>
              <LongitudeDegrees>-1.352977</LongitudeDegrees>
            </Position>
            <AltitudeMeters>807.233</AltitudeMeters>
            <DistanceMeters>553955.10990707</DistanceMeters>
          </Trackpoint>
          <Trackpoint>
            <Time>2021-08-03T15:40:50Z</Time>
            <Position>
              <LatitudeDegrees>41.034946</LatitudeDegrees>
              <LongitudeDegrees>-1.353026</LongitudeDegrees>
            </Position>
            <AltitudeMeters>807.271</AltitudeMeters>
            <DistanceMeters>553961.85345694</DistanceMeters>
          </Trackpoint>
          <Trackpoint>
            <Time>2021-08-03T15:40:51Z</Time>
            <Position>
              <LatitudeDegrees>41.034894</LatitudeDegrees>
              <LongitudeDegrees>-1.353054</LongitudeDegrees>
            </Position>
            <AltitudeMeters>807.146</AltitudeMeters>
            <DistanceMeters>553968.10069557</DistanceMeters>
          </Trackpoint>
          <Trackpoint>
            <Time>2021-08-03T15:40:53Z</Time>
            <Position>
              <LatitudeDegrees>41.034795</LatitudeDegrees>
              <LongitudeDegrees>-1.353066</LongitudeDegrees>
            </Position>
            <AltitudeMeters>806.911</AltitudeMeters>
            <DistanceMeters>553979.16549454</DistanceMeters>
          </Trackpoint>
          <Trackpoint>
            <Time>2021-08-03T15:40:54Z</Time>
            <Position>
              <LatitudeDegrees>41.034742</LatitudeDegrees>
              <LongitudeDegrees>-1.353056</LongitudeDegrees>
            </Position>
            <AltitudeMeters>806.982</AltitudeMeters>
            <DistanceMeters>553985.12344977</DistanceMeters>
          </Trackpoint>
          <Trackpoint>
            <Time>2021-08-03T15:40:56Z</Time>
            <Position>
              <LatitudeDegrees>41.034645</LatitudeDegrees>
              <LongitudeDegrees>-1.353008</LongitudeDegrees>
            </Position>
            <AltitudeMeters>806.953</AltitudeMeters>
            <DistanceMeters>553996.64796123</DistanceMeters>
          </Trackpoint>
          <Trackpoint>
            <Time>2021-08-03T15:40:57Z</Time>
            <Position>
              <LatitudeDegrees>41.034600</LatitudeDegrees>
              <LongitudeDegrees>-1.352984</LongitudeDegrees>
            </Position>
            <AltitudeMeters>807.004</AltitudeMeters>
            <DistanceMeters>554002.04695065</DistanceMeters>
          </Trackpoint>
          <Trackpoint>
            <Time>2021-08-03T15:40:59Z</Time>
            <Position>
              <LatitudeDegrees>41.034503</LatitudeDegrees>
              <LongitudeDegrees>-1.352938</LongitudeDegrees>
            </Position>
            <AltitudeMeters>807.014</AltitudeMeters>
            <DistanceMeters>554013.51293874</DistanceMeters>
          </Trackpoint>
          <Trackpoint>
            <Time>2021-08-03T15:41:01Z</Time>
            <Position>
              <LatitudeDegrees>41.034406</LatitudeDegrees>
              <LongitudeDegrees>-1.352910</LongitudeDegrees>
            </Position>
            <AltitudeMeters>807.008</AltitudeMeters>
            <DistanceMeters>554024.56222078</DistanceMeters>
          </Trackpoint>
          <Trackpoint>
            <Time>2021-08-03T15:41:02Z</Time>
            <Position>
              <LatitudeDegrees>41.034354</LatitudeDegrees>
              <LongitudeDegrees>-1.352909</LongitudeDegrees>
            </Position>
            <AltitudeMeters>807.022</AltitudeMeters>
            <DistanceMeters>554030.35105604</DistanceMeters>
          </Trackpoint>
          <Trackpoint>
            <Time>2021-08-03T15:41:04Z</Time>
            <Position>
              <LatitudeDegrees>41.034267</LatitudeDegrees>
              <LongitudeDegrees>-1.352950</LongitudeDegrees>
            </Position>
            <AltitudeMeters>806.884</AltitudeMeters>
            <DistanceMeters>554040.62800958</DistanceMeters>
          </Trackpoint>
          <Trackpoint>
            <Time>2021-08-03T15:41:06Z</Time>
            <Position>
              <LatitudeDegrees>41.034221</LatitudeDegrees>
              <LongitudeDegrees>-1.352983</LongitudeDegrees>
            </Position>
            <AltitudeMeters>806.344</AltitudeMeters>
            <DistanceMeters>554046.45028637</DistanceMeters>
          </Trackpoint>
          <Trackpoint>
            <Time>2021-08-03T15:41:08Z</Time>
            <Position>
              <LatitudeDegrees>41.034177</LatitudeDegrees>
              <LongitudeDegrees>-1.353041</LongitudeDegrees>
            </Position>
            <AltitudeMeters>806.227</AltitudeMeters>
            <DistanceMeters>554053.35657798</DistanceMeters>
          </Trackpoint>
          <Trackpoint>
            <Time>2021-08-03T15:41:09Z</Time>
            <Position>
              <LatitudeDegrees>41.034143</LatitudeDegrees>
              <LongitudeDegrees>-1.353089</LongitudeDegrees>
            </Position>
            <AltitudeMeters>806.085</AltitudeMeters>
            <DistanceMeters>554058.88448705</DistanceMeters>
          </Trackpoint>
          <Trackpoint>
            <Time>2021-08-03T15:41:11Z</Time>
            <Position>
              <LatitudeDegrees>41.034002</LatitudeDegrees>
              <LongitudeDegrees>-1.353266</LongitudeDegrees>
            </Position>
            <AltitudeMeters>805.930</AltitudeMeters>
            <DistanceMeters>554080.49758156</DistanceMeters>
          </Trackpoint>
          <Trackpoint>
            <Time>2021-08-03T15:41:13Z</Time>
            <Position>
              <LatitudeDegrees>41.033936</LatitudeDegrees>
              <LongitudeDegrees>-1.353350</LongitudeDegrees>
            </Position>
            <AltitudeMeters>805.875</AltitudeMeters>
            <DistanceMeters>554090.68096989</DistanceMeters>
          </Trackpoint>
          <Trackpoint>
            <Time>2021-08-03T15:41:14Z</Time>
            <Position>
              <LatitudeDegrees>41.033899</LatitudeDegrees>
              <LongitudeDegrees>-1.353392</LongitudeDegrees>
            </Position>
            <AltitudeMeters>805.996</AltitudeMeters>
            <DistanceMeters>554096.10249171</DistanceMeters>
          </Trackpoint>
          <Trackpoint>
            <Time>2021-08-03T15:41:16Z</Time>
            <Position>
              <LatitudeDegrees>41.033820</LatitudeDegrees>
              <LongitudeDegrees>-1.353480</LongitudeDegrees>
            </Position>
            <AltitudeMeters>806.341</AltitudeMeters>
            <DistanceMeters>554107.58775865</DistanceMeters>
          </Trackpoint>
          <Trackpoint>
            <Time>2021-08-03T15:41:17Z</Time>
            <Position>
              <LatitudeDegrees>41.033782</LatitudeDegrees>
              <LongitudeDegrees>-1.353521</LongitudeDegrees>
            </Position>
            <AltitudeMeters>806.481</AltitudeMeters>
            <DistanceMeters>554113.040835</DistanceMeters>
          </Trackpoint>
          <Trackpoint>
            <Time>2021-08-03T15:41:19Z</Time>
            <Position>
              <LatitudeDegrees>41.033702</LatitudeDegrees>
              <LongitudeDegrees>-1.353584</LongitudeDegrees>
            </Position>
            <AltitudeMeters>806.509</AltitudeMeters>
            <DistanceMeters>554123.39743908</DistanceMeters>
          </Trackpoint>
          <Trackpoint>
            <Time>2021-08-03T15:41:21Z</Time>
            <Position>
              <LatitudeDegrees>41.033631</LatitudeDegrees>
              <LongitudeDegrees>-1.353601</LongitudeDegrees>
            </Position>
            <AltitudeMeters>807.208</AltitudeMeters>
            <DistanceMeters>554131.42761815</DistanceMeters>
          </Trackpoint>
          <Trackpoint>
            <Time>2021-08-03T15:41:23Z</Time>
            <Position>
              <LatitudeDegrees>41.033577</LatitudeDegrees>
              <LongitudeDegrees>-1.353617</LongitudeDegrees>
            </Position>
            <AltitudeMeters>807.381</AltitudeMeters>
            <DistanceMeters>554137.5860531</DistanceMeters>
          </Trackpoint>
          <Trackpoint>
            <Time>2021-08-03T15:41:26Z</Time>
            <Position>
              <LatitudeDegrees>41.033516</LatitudeDegrees>
              <LongitudeDegrees>-1.353641</LongitudeDegrees>
            </Position>
            <AltitudeMeters>807.723</AltitudeMeters>
            <DistanceMeters>554144.66857205</DistanceMeters>
          </Trackpoint>
          <Trackpoint>
            <Time>2021-08-03T15:41:29Z</Time>
            <Position>
              <LatitudeDegrees>41.033463</LatitudeDegrees>
              <LongitudeDegrees>-1.353675</LongitudeDegrees>
            </Position>
            <AltitudeMeters>808.463</AltitudeMeters>
            <DistanceMeters>554151.22197144</DistanceMeters>
          </Trackpoint>
          <Trackpoint>
            <Time>2021-08-03T15:41:32Z</Time>
            <Position>
              <LatitudeDegrees>41.033406</LatitudeDegrees>
              <LongitudeDegrees>-1.353692</LongitudeDegrees>
            </Position>
            <AltitudeMeters>808.566</AltitudeMeters>
            <DistanceMeters>554157.72488217</DistanceMeters>
          </Trackpoint>
          <Trackpoint>
            <Time>2021-08-03T15:41:34Z</Time>
            <Position>
              <LatitudeDegrees>41.033358</LatitudeDegrees>
              <LongitudeDegrees>-1.353677</LongitudeDegrees>
            </Position>
            <AltitudeMeters>808.574</AltitudeMeters>
            <DistanceMeters>554163.21426876</DistanceMeters>
          </Trackpoint>
          <Trackpoint>
            <Time>2021-08-03T15:41:36Z</Time>
            <Position>
              <LatitudeDegrees>41.033336</LatitudeDegrees>
              <LongitudeDegrees>-1.353615</LongitudeDegrees>
            </Position>
            <AltitudeMeters>808.529</AltitudeMeters>
            <DistanceMeters>554168.96632927</DistanceMeters>
          </Trackpoint>
          <Trackpoint>
            <Time>2021-08-03T15:41:38Z</Time>
            <Position>
              <LatitudeDegrees>41.033327</LatitudeDegrees>
              <LongitudeDegrees>-1.353521</LongitudeDegrees>
            </Position>
            <AltitudeMeters>808.424</AltitudeMeters>
            <DistanceMeters>554176.921944</DistanceMeters>
          </Trackpoint>
          <Trackpoint>
            <Time>2021-08-03T15:41:40Z</Time>
            <Position>
              <LatitudeDegrees>41.033319</LatitudeDegrees>
              <LongitudeDegrees>-1.353410</LongitudeDegrees>
            </Position>
            <AltitudeMeters>808.215</AltitudeMeters>
            <DistanceMeters>554186.28388408</DistanceMeters>
          </Trackpoint>
          <Trackpoint>
            <Time>2021-08-03T15:41:42Z</Time>
            <Position>
              <LatitudeDegrees>41.033312</LatitudeDegrees>
              <LongitudeDegrees>-1.353303</LongitudeDegrees>
            </Position>
            <AltitudeMeters>808.169</AltitudeMeters>
            <DistanceMeters>554195.30091287</DistanceMeters>
          </Trackpoint>
          <Trackpoint>
            <Time>2021-08-03T15:41:44Z</Time>
            <Position>
              <LatitudeDegrees>41.033301</LatitudeDegrees>
              <LongitudeDegrees>-1.353169</LongitudeDegrees>
            </Position>
            <AltitudeMeters>808.104</AltitudeMeters>
            <DistanceMeters>554206.61787245</DistanceMeters>
          </Trackpoint>
          <Trackpoint>
            <Time>2021-08-03T15:41:46Z</Time>
            <Position>
              <LatitudeDegrees>41.033283</LatitudeDegrees>
              <LongitudeDegrees>-1.353021</LongitudeDegrees>
            </Position>
            <AltitudeMeters>808.224</AltitudeMeters>
            <DistanceMeters>554219.2045186</DistanceMeters>
          </Trackpoint>
          <Trackpoint>
            <Time>2021-08-03T15:41:48Z</Time>
            <Position>
              <LatitudeDegrees>41.033253</LatitudeDegrees>
              <LongitudeDegrees>-1.352828</LongitudeDegrees>
            </Position>
            <AltitudeMeters>808.108</AltitudeMeters>
            <DistanceMeters>554235.74872142</DistanceMeters>
          </Trackpoint>
          <Trackpoint>
            <Time>2021-08-03T15:41:50Z</Time>
            <Position>
              <LatitudeDegrees>41.033216</LatitudeDegrees>
              <LongitudeDegrees>-1.352715</LongitudeDegrees>
            </Position>
            <AltitudeMeters>808.013</AltitudeMeters>
            <DistanceMeters>554246.0909289</DistanceMeters>
          </Trackpoint>
          <Trackpoint>
            <Time>2021-08-03T15:41:52Z</Time>
            <Position>
              <LatitudeDegrees>41.033178</LatitudeDegrees>
              <LongitudeDegrees>-1.352610</LongitudeDegrees>
            </Position>
            <AltitudeMeters>807.865</AltitudeMeters>
            <DistanceMeters>554255.86806494</DistanceMeters>
          </Trackpoint>
          <Trackpoint>
            <Time>2021-08-03T15:41:53Z</Time>
            <Position>
              <LatitudeDegrees>41.033156</LatitudeDegrees>
              <LongitudeDegrees>-1.352556</LongitudeDegrees>
            </Position>
            <AltitudeMeters>807.865</AltitudeMeters>
            <DistanceMeters>554261.02058129</DistanceMeters>
          </Trackpoint>
          <Trackpoint>
            <Time>2021-08-03T15:41:57Z</Time>
            <Position>
              <LatitudeDegrees>41.033107</LatitudeDegrees>
              <LongitudeDegrees>-1.352471</LongitudeDegrees>
            </Position>
            <AltitudeMeters>807.918</AltitudeMeters>
            <DistanceMeters>554270.00249105</DistanceMeters>
          </Trackpoint>
          <Trackpoint>
            <Time>2021-08-03T15:41:58Z</Time>
            <Position>
              <LatitudeDegrees>41.033068</LatitudeDegrees>
              <LongitudeDegrees>-1.352415</LongitudeDegrees>
            </Position>
            <AltitudeMeters>808.186</AltitudeMeters>
            <DistanceMeters>554276.4011133</DistanceMeters>
          </Trackpoint>
          <Trackpoint>
            <Time>2021-08-03T15:42:00Z</Time>
            <Position>
              <LatitudeDegrees>41.032989</LatitudeDegrees>
              <LongitudeDegrees>-1.352309</LongitudeDegrees>
            </Position>
            <AltitudeMeters>808.331</AltitudeMeters>
            <DistanceMeters>554288.91184129</DistanceMeters>
          </Trackpoint>
          <Trackpoint>
            <Time>2021-08-03T15:42:02Z</Time>
            <Position>
              <LatitudeDegrees>41.032908</LatitudeDegrees>
              <LongitudeDegrees>-1.352207</LongitudeDegrees>
            </Position>
            <AltitudeMeters>808.396</AltitudeMeters>
            <DistanceMeters>554301.34691383</DistanceMeters>
          </Trackpoint>
          <Trackpoint>
            <Time>2021-08-03T15:42:04Z</Time>
            <Position>
              <LatitudeDegrees>41.032833</LatitudeDegrees>
              <LongitudeDegrees>-1.352106</LongitudeDegrees>
            </Position>
            <AltitudeMeters>807.937</AltitudeMeters>
            <DistanceMeters>554313.24614064</DistanceMeters>
          </Trackpoint>
          <Trackpoint>
            <Time>2021-08-03T15:42:06Z</Time>
            <Position>
              <LatitudeDegrees>41.032773</LatitudeDegrees>
              <LongitudeDegrees>-1.352016</LongitudeDegrees>
            </Position>
            <AltitudeMeters>808.055</AltitudeMeters>
            <DistanceMeters>554323.33061985</DistanceMeters>
          </Trackpoint>
          <Trackpoint>
            <Time>2021-08-03T15:42:08Z</Time>
            <Position>
              <LatitudeDegrees>41.032713</LatitudeDegrees>
              <LongitudeDegrees>-1.351931</LongitudeDegrees>
            </Position>
            <AltitudeMeters>808.107</AltitudeMeters>
            <DistanceMeters>554333.10406083</DistanceMeters>
          </Trackpoint>
          <Trackpoint>
            <Time>2021-08-03T15:42:10Z</Time>
            <Position>
              <LatitudeDegrees>41.032654</LatitudeDegrees>
              <LongitudeDegrees>-1.351847</LongitudeDegrees>
            </Position>
            <AltitudeMeters>808.417</AltitudeMeters>
            <DistanceMeters>554342.74072551</DistanceMeters>
          </Trackpoint>
          <Trackpoint>
            <Time>2021-08-03T15:42:12Z</Time>
            <Position>
              <LatitudeDegrees>41.032540</LatitudeDegrees>
              <LongitudeDegrees>-1.351683</LongitudeDegrees>
            </Position>
            <AltitudeMeters>808.408</AltitudeMeters>
            <DistanceMeters>554361.46460566</DistanceMeters>
          </Trackpoint>
          <Trackpoint>
            <Time>2021-08-03T15:42:13Z</Time>
            <Position>
              <LatitudeDegrees>41.032502</LatitudeDegrees>
              <LongitudeDegrees>-1.351624</LongitudeDegrees>
            </Position>
            <AltitudeMeters>807.722</AltitudeMeters>
            <DistanceMeters>554367.97792272</DistanceMeters>
          </Trackpoint>
          <Trackpoint>
            <Time>2021-08-03T15:42:14Z</Time>
            <Position>
              <LatitudeDegrees>41.032469</LatitudeDegrees>
              <LongitudeDegrees>-1.351578</LongitudeDegrees>
            </Position>
            <AltitudeMeters>807.744</AltitudeMeters>
            <DistanceMeters>554373.3078965</DistanceMeters>
          </Trackpoint>
          <Trackpoint>
            <Time>2021-08-03T15:42:16Z</Time>
            <Position>
              <LatitudeDegrees>41.032371</LatitudeDegrees>
              <LongitudeDegrees>-1.351525</LongitudeDegrees>
            </Position>
            <AltitudeMeters>807.894</AltitudeMeters>
            <DistanceMeters>554385.0881433</DistanceMeters>
          </Trackpoint>
          <Trackpoint>
            <Time>2021-08-03T15:42:18Z</Time>
            <Position>
              <LatitudeDegrees>41.032282</LatitudeDegrees>
              <LongitudeDegrees>-1.351497</LongitudeDegrees>
            </Position>
            <AltitudeMeters>807.977</AltitudeMeters>
            <DistanceMeters>554395.26887105</DistanceMeters>
          </Trackpoint>
          <Trackpoint>
            <Time>2021-08-03T15:42:20Z</Time>
            <Position>
              <LatitudeDegrees>41.032221</LatitudeDegrees>
              <LongitudeDegrees>-1.351467</LongitudeDegrees>
            </Position>
            <AltitudeMeters>808.025</AltitudeMeters>
            <DistanceMeters>554402.51087933</DistanceMeters>
          </Trackpoint>
          <Trackpoint>
            <Time>2021-08-03T15:42:22Z</Time>
            <Position>
              <LatitudeDegrees>41.032137</LatitudeDegrees>
              <LongitudeDegrees>-1.351437</LongitudeDegrees>
            </Position>
            <AltitudeMeters>808.140</AltitudeMeters>
            <DistanceMeters>554412.1938171</DistanceMeters>
          </Trackpoint>
          <Trackpoint>
            <Time>2021-08-03T15:42:24Z</Time>
            <Position>
              <LatitudeDegrees>41.032066</LatitudeDegrees>
              <LongitudeDegrees>-1.351409</LongitudeDegrees>
            </Position>
            <AltitudeMeters>808.135</AltitudeMeters>
            <DistanceMeters>554420.43871949</DistanceMeters>
          </Trackpoint>
          <Trackpoint>
            <Time>2021-08-03T15:42:26Z</Time>
            <Position>
              <LatitudeDegrees>41.031929</LatitudeDegrees>
              <LongitudeDegrees>-1.351357</LongitudeDegrees>
            </Position>
            <AltitudeMeters>808.136</AltitudeMeters>
            <DistanceMeters>554436.29992782</DistanceMeters>
          </Trackpoint>
          <Trackpoint>
            <Time>2021-08-03T15:42:28Z</Time>
            <Position>
              <LatitudeDegrees>41.031843</LatitudeDegrees>
              <LongitudeDegrees>-1.351339</LongitudeDegrees>
            </Position>
            <AltitudeMeters>808.045</AltitudeMeters>
            <DistanceMeters>554445.99032332</DistanceMeters>
          </Trackpoint>
          <Trackpoint>
            <Time>2021-08-03T15:42:30Z</Time>
            <Position>
              <LatitudeDegrees>41.031760</LatitudeDegrees>
              <LongitudeDegrees>-1.351304</LongitudeDegrees>
            </Position>
            <AltitudeMeters>807.947</AltitudeMeters>
            <DistanceMeters>554455.68444554</DistanceMeters>
          </Trackpoint>
          <Trackpoint>
            <Time>2021-08-03T15:42:32Z</Time>
            <Position>
              <LatitudeDegrees>41.031674</LatitudeDegrees>
              <LongitudeDegrees>-1.351248</LongitudeDegrees>
            </Position>
            <AltitudeMeters>808.111</AltitudeMeters>
            <DistanceMeters>554466.34862777</DistanceMeters>
          </Trackpoint>
          <Trackpoint>
            <Time>2021-08-03T15:42:34Z</Time>
            <Position>
              <LatitudeDegrees>41.031603</LatitudeDegrees>
              <LongitudeDegrees>-1.351190</LongitudeDegrees>
            </Position>
            <AltitudeMeters>808.108</AltitudeMeters>
            <DistanceMeters>554475.63065122</DistanceMeters>
          </Trackpoint>
          <Trackpoint>
            <Time>2021-08-03T15:42:36Z</Time>
            <Position>
              <LatitudeDegrees>41.031514</LatitudeDegrees>
              <LongitudeDegrees>-1.351140</LongitudeDegrees>
            </Position>
            <AltitudeMeters>808.121</AltitudeMeters>
            <DistanceMeters>554486.39009266</DistanceMeters>
          </Trackpoint>
          <Trackpoint>
            <Time>2021-08-03T15:42:38Z</Time>
            <Position>
              <LatitudeDegrees>41.031420</LatitudeDegrees>
              <LongitudeDegrees>-1.351095</LongitudeDegrees>
            </Position>
            <AltitudeMeters>808.133</AltitudeMeters>
            <DistanceMeters>554497.51430803</DistanceMeters>
          </Trackpoint>
          <Trackpoint>
            <Time>2021-08-03T15:42:40Z</Time>
            <Position>
              <LatitudeDegrees>41.031332</LatitudeDegrees>
              <LongitudeDegrees>-1.351070</LongitudeDegrees>
            </Position>
            <AltitudeMeters>808.053</AltitudeMeters>
            <DistanceMeters>554507.53140389</DistanceMeters>
          </Trackpoint>
          <Trackpoint>
            <Time>2021-08-03T15:42:42Z</Time>
            <Position>
              <LatitudeDegrees>41.031246</LatitudeDegrees>
              <LongitudeDegrees>-1.351033</LongitudeDegrees>
            </Position>
            <AltitudeMeters>808.086</AltitudeMeters>
            <DistanceMeters>554517.59436952</DistanceMeters>
          </Trackpoint>
          <Trackpoint>
            <Time>2021-08-03T15:42:44Z</Time>
            <Position>
              <LatitudeDegrees>41.031158</LatitudeDegrees>
              <LongitudeDegrees>-1.350991</LongitudeDegrees>
            </Position>
            <AltitudeMeters>807.944</AltitudeMeters>
            <DistanceMeters>554528.00445825</DistanceMeters>
          </Trackpoint>
          <Trackpoint>
            <Time>2021-08-03T15:42:46Z</Time>
            <Position>
              <LatitudeDegrees>41.031072</LatitudeDegrees>
              <LongitudeDegrees>-1.350952</LongitudeDegrees>
            </Position>
            <AltitudeMeters>807.929</AltitudeMeters>
            <DistanceMeters>554538.12112205</DistanceMeters>
          </Trackpoint>
          <Trackpoint>
            <Time>2021-08-03T15:42:48Z</Time>
            <Position>
              <LatitudeDegrees>41.030989</LatitudeDegrees>
              <LongitudeDegrees>-1.350908</LongitudeDegrees>
            </Position>
            <AltitudeMeters>808.074</AltitudeMeters>
            <DistanceMeters>554548.0703782</DistanceMeters>
          </Trackpoint>
          <Trackpoint>
            <Time>2021-08-03T15:42:49Z</Time>
            <Position>
              <LatitudeDegrees>41.030946</LatitudeDegrees>
              <LongitudeDegrees>-1.350889</LongitudeDegrees>
            </Position>
            <AltitudeMeters>808.145</AltitudeMeters>
            <DistanceMeters>554553.11485591</DistanceMeters>
          </Trackpoint>
          <Trackpoint>
            <Time>2021-08-03T15:42:51Z</Time>
            <Position>
              <LatitudeDegrees>41.030862</LatitudeDegrees>
              <LongitudeDegrees>-1.350866</LongitudeDegrees>
            </Position>
            <AltitudeMeters>808.286</AltitudeMeters>
            <DistanceMeters>554562.66113956</DistanceMeters>
          </Trackpoint>
          <Trackpoint>
            <Time>2021-08-03T15:42:53Z</Time>
            <Position>
              <LatitudeDegrees>41.030777</LatitudeDegrees>
              <LongitudeDegrees>-1.350837</LongitudeDegrees>
            </Position>
            <AltitudeMeters>808.460</AltitudeMeters>
            <DistanceMeters>554572.43042193</DistanceMeters>
          </Trackpoint>
          <Trackpoint>
            <Time>2021-08-03T15:42:55Z</Time>
            <Position>
              <LatitudeDegrees>41.030691</LatitudeDegrees>
              <LongitudeDegrees>-1.350824</LongitudeDegrees>
            </Position>
            <AltitudeMeters>808.326</AltitudeMeters>
            <DistanceMeters>554582.06427503</DistanceMeters>
          </Trackpoint>
          <Trackpoint>
            <Time>2021-08-03T15:42:57Z</Time>
            <Position>
              <LatitudeDegrees>41.030602</LatitudeDegrees>
              <LongitudeDegrees>-1.350807</LongitudeDegrees>
            </Position>
            <AltitudeMeters>808.308</AltitudeMeters>
            <DistanceMeters>554592.07235217</DistanceMeters>
          </Trackpoint>
          <Trackpoint>
            <Time>2021-08-03T15:42:59Z</Time>
            <Position>
              <LatitudeDegrees>41.030517</LatitudeDegrees>
              <LongitudeDegrees>-1.350798</LongitudeDegrees>
            </Position>
            <AltitudeMeters>808.355</AltitudeMeters>
            <DistanceMeters>554601.56313783</DistanceMeters>
          </Trackpoint>
          <Trackpoint>
            <Time>2021-08-03T15:43:01Z</Time>
            <Position>
              <LatitudeDegrees>41.030434</LatitudeDegrees>
              <LongitudeDegrees>-1.350800</LongitudeDegrees>
            </Position>
            <AltitudeMeters>808.317</AltitudeMeters>
            <DistanceMeters>554610.80274511</DistanceMeters>
          </Trackpoint>
          <Trackpoint>
            <Time>2021-08-03T15:43:02Z</Time>
            <Position>
              <LatitudeDegrees>41.030383</LatitudeDegrees>
              <LongitudeDegrees>-1.350794</LongitudeDegrees>
            </Position>
            <AltitudeMeters>808.727</AltitudeMeters>
            <DistanceMeters>554616.50117954</DistanceMeters>
          </Trackpoint>
          <Trackpoint>
            <Time>2021-08-03T15:43:04Z</Time>
            <Position>
              <LatitudeDegrees>41.030296</LatitudeDegrees>
              <LongitudeDegrees>-1.350810</LongitudeDegrees>
            </Position>
            <AltitudeMeters>808.940</AltitudeMeters>
            <DistanceMeters>554626.27739195</DistanceMeters>
          </Trackpoint>
          <Trackpoint>
            <Time>2021-08-03T15:43:06Z</Time>
            <Position>
              <LatitudeDegrees>41.030216</LatitudeDegrees>
              <LongitudeDegrees>-1.350788</LongitudeDegrees>
            </Position>
            <AltitudeMeters>808.948</AltitudeMeters>
            <DistanceMeters>554635.37120523</DistanceMeters>
          </Trackpoint>
          <Trackpoint>
            <Time>2021-08-03T15:43:07Z</Time>
            <Position>
              <LatitudeDegrees>41.030172</LatitudeDegrees>
              <LongitudeDegrees>-1.350775</LongitudeDegrees>
            </Position>
            <AltitudeMeters>808.593</AltitudeMeters>
            <DistanceMeters>554640.3896595</DistanceMeters>
          </Trackpoint>
          <Trackpoint>
            <Time>2021-08-03T15:43:09Z</Time>
            <Position>
              <LatitudeDegrees>41.030089</LatitudeDegrees>
              <LongitudeDegrees>-1.350733</LongitudeDegrees>
            </Position>
            <AltitudeMeters>808.418</AltitudeMeters>
            <DistanceMeters>554650.27791858</DistanceMeters>
          </Trackpoint>
          <Trackpoint>
            <Time>2021-08-03T15:43:11Z</Time>
            <Position>
              <LatitudeDegrees>41.030005</LatitudeDegrees>
              <LongitudeDegrees>-1.350669</LongitudeDegrees>
            </Position>
            <AltitudeMeters>808.459</AltitudeMeters>
            <DistanceMeters>554661.06167138</DistanceMeters>
          </Trackpoint>
          <Trackpoint>
            <Time>2021-08-03T15:43:12Z</Time>
            <Position>
              <LatitudeDegrees>41.029970</LatitudeDegrees>
              <LongitudeDegrees>-1.350631</LongitudeDegrees>
            </Position>
            <AltitudeMeters>808.466</AltitudeMeters>
            <DistanceMeters>554666.09719069</DistanceMeters>
          </Trackpoint>
          <Trackpoint>
            <Time>2021-08-03T15:43:14Z</Time>
            <Position>
              <LatitudeDegrees>41.029911</LatitudeDegrees>
              <LongitudeDegrees>-1.350556</LongitudeDegrees>
            </Position>
            <AltitudeMeters>808.529</AltitudeMeters>
            <DistanceMeters>554675.19497507</DistanceMeters>
          </Trackpoint>
          <Trackpoint>
            <Time>2021-08-03T15:43:16Z</Time>
            <Position>
              <LatitudeDegrees>41.029849</LatitudeDegrees>
              <LongitudeDegrees>-1.350477</LongitudeDegrees>
            </Position>
            <AltitudeMeters>808.621</AltitudeMeters>
            <DistanceMeters>554684.76676464</DistanceMeters>
          </Trackpoint>
          <Trackpoint>
            <Time>2021-08-03T15:43:18Z</Time>
            <Position>
              <LatitudeDegrees>41.029782</LatitudeDegrees>
              <LongitudeDegrees>-1.350407</LongitudeDegrees>
            </Position>
            <AltitudeMeters>808.608</AltitudeMeters>
            <DistanceMeters>554694.26135537</DistanceMeters>
          </Trackpoint>
          <Trackpoint>
            <Time>2021-08-03T15:43:20Z</Time>
            <Position>
              <LatitudeDegrees>41.029712</LatitudeDegrees>
              <LongitudeDegrees>-1.350342</LongitudeDegrees>
            </Position>
            <AltitudeMeters>808.793</AltitudeMeters>
            <DistanceMeters>554703.77352473</DistanceMeters>
          </Trackpoint>
          <Trackpoint>
            <Time>2021-08-03T15:43:22Z</Time>
            <Position>
              <LatitudeDegrees>41.029638</LatitudeDegrees>
              <LongitudeDegrees>-1.350272</LongitudeDegrees>
            </Position>
            <AltitudeMeters>808.895</AltitudeMeters>
            <DistanceMeters>554713.89152733</DistanceMeters>
          </Trackpoint>
          <Trackpoint>
            <Time>2021-08-03T15:43:24Z</Time>
            <Position>
              <LatitudeDegrees>41.029566</LatitudeDegrees>
              <LongitudeDegrees>-1.350185</LongitudeDegrees>
            </Position>
            <AltitudeMeters>808.935</AltitudeMeters>
            <DistanceMeters>554724.73457097</DistanceMeters>
          </Trackpoint>
          <Trackpoint>
            <Time>2021-08-03T15:43:26Z</Time>
            <Position>
              <LatitudeDegrees>41.029523</LatitudeDegrees>
              <LongitudeDegrees>-1.350144</LongitudeDegrees>
            </Position>
            <AltitudeMeters>808.928</AltitudeMeters>
            <DistanceMeters>554730.62929184</DistanceMeters>
          </Trackpoint>
          <Trackpoint>
            <Time>2021-08-03T15:43:28Z</Time>
            <Position>
              <LatitudeDegrees>41.029465</LatitudeDegrees>
              <LongitudeDegrees>-1.350057</LongitudeDegrees>
            </Position>
            <AltitudeMeters>808.976</AltitudeMeters>
            <DistanceMeters>554740.37775452</DistanceMeters>
          </Trackpoint>
          <Trackpoint>
            <Time>2021-08-03T15:43:29Z</Time>
            <Position>
              <LatitudeDegrees>41.029429</LatitudeDegrees>
              <LongitudeDegrees>-1.350008</LongitudeDegrees>
            </Position>
            <AltitudeMeters>808.911</AltitudeMeters>
            <DistanceMeters>554746.12038799</DistanceMeters>
          </Trackpoint>
          <Trackpoint>
            <Time>2021-08-03T15:43:31Z</Time>
            <Position>
              <LatitudeDegrees>41.029363</LatitudeDegrees>
              <LongitudeDegrees>-1.349933</LongitudeDegrees>
            </Position>
            <AltitudeMeters>808.916</AltitudeMeters>
            <DistanceMeters>554755.79586226</DistanceMeters>
          </Trackpoint>
          <Trackpoint>
            <Time>2021-08-03T15:43:33Z</Time>
            <Position>
              <LatitudeDegrees>41.029290</LatitudeDegrees>
              <LongitudeDegrees>-1.349870</LongitudeDegrees>
            </Position>
            <AltitudeMeters>808.947</AltitudeMeters>
            <DistanceMeters>554765.49091594</DistanceMeters>
          </Trackpoint>
          <Trackpoint>
            <Time>2021-08-03T15:43:34Z</Time>
            <Position>
              <LatitudeDegrees>41.029247</LatitudeDegrees>
              <LongitudeDegrees>-1.349842</LongitudeDegrees>
            </Position>
            <AltitudeMeters>809.059</AltitudeMeters>
            <DistanceMeters>554770.82258365</DistanceMeters>
          </Trackpoint>
          <Trackpoint>
            <Time>2021-08-03T15:43:36Z</Time>
            <Position>
              <LatitudeDegrees>41.029200</LatitudeDegrees>
              <LongitudeDegrees>-1.349814</LongitudeDegrees>
            </Position>
            <AltitudeMeters>809.203</AltitudeMeters>
            <DistanceMeters>554776.55734942</DistanceMeters>
          </Trackpoint>
          <Trackpoint>
            <Time>2021-08-03T15:43:38Z</Time>
            <Position>
              <LatitudeDegrees>41.029113</LatitudeDegrees>
              <LongitudeDegrees>-1.349778</LongitudeDegrees>
            </Position>
            <AltitudeMeters>809.223</AltitudeMeters>
            <DistanceMeters>554786.7016459</DistanceMeters>
          </Trackpoint>
          <Trackpoint>
            <Time>2021-08-03T15:43:39Z</Time>
            <Position>
              <LatitudeDegrees>41.029069</LatitudeDegrees>
              <LongitudeDegrees>-1.349761</LongitudeDegrees>
            </Position>
            <AltitudeMeters>809.208</AltitudeMeters>
            <DistanceMeters>554791.80219982</DistanceMeters>
          </Trackpoint>
          <Trackpoint>
            <Time>2021-08-03T15:43:41Z</Time>
            <Position>
              <LatitudeDegrees>41.028962</LatitudeDegrees>
              <LongitudeDegrees>-1.349707</LongitudeDegrees>
            </Position>
            <AltitudeMeters>809.392</AltitudeMeters>
            <DistanceMeters>554804.54499522</DistanceMeters>
          </Trackpoint>
          <Trackpoint>
            <Time>2021-08-03T15:43:43Z</Time>
            <Position>
              <LatitudeDegrees>41.028889</LatitudeDegrees>
              <LongitudeDegrees>-1.349674</LongitudeDegrees>
            </Position>
            <AltitudeMeters>809.764</AltitudeMeters>
            <DistanceMeters>554813.12901664</DistanceMeters>
          </Trackpoint>
          <Trackpoint>
            <Time>2021-08-03T15:43:45Z</Time>
            <Position>
              <LatitudeDegrees>41.028817</LatitudeDegrees>
              <LongitudeDegrees>-1.349626</LongitudeDegrees>
            </Position>
            <AltitudeMeters>809.814</AltitudeMeters>
            <DistanceMeters>554822.09885394</DistanceMeters>
          </Trackpoint>
          <Trackpoint>
            <Time>2021-08-03T15:43:47Z</Time>
            <Position>
              <LatitudeDegrees>41.028741</LatitudeDegrees>
              <LongitudeDegrees>-1.349578</LongitudeDegrees>
            </Position>
            <AltitudeMeters>809.817</AltitudeMeters>
            <DistanceMeters>554831.46947096</DistanceMeters>
          </Trackpoint>
          <Trackpoint>
            <Time>2021-08-03T15:43:49Z</Time>
            <Position>
              <LatitudeDegrees>41.028676</LatitudeDegrees>
              <LongitudeDegrees>-1.349540</LongitudeDegrees>
            </Position>
            <AltitudeMeters>809.945</AltitudeMeters>
            <DistanceMeters>554839.37669862</DistanceMeters>
          </Trackpoint>
          <Trackpoint>
            <Time>2021-08-03T15:43:51Z</Time>
            <Position>
              <LatitudeDegrees>41.028597</LatitudeDegrees>
              <LongitudeDegrees>-1.349488</LongitudeDegrees>
            </Position>
            <AltitudeMeters>810.070</AltitudeMeters>
            <DistanceMeters>554849.19392867</DistanceMeters>
          </Trackpoint>
          <Trackpoint>
            <Time>2021-08-03T15:43:53Z</Time>
            <Position>
              <LatitudeDegrees>41.028523</LatitudeDegrees>
              <LongitudeDegrees>-1.349447</LongitudeDegrees>
            </Position>
            <AltitudeMeters>810.155</AltitudeMeters>
            <DistanceMeters>554858.12087802</DistanceMeters>
          </Trackpoint>
          <Trackpoint>
            <Time>2021-08-03T15:43:55Z</Time>
            <Position>
              <LatitudeDegrees>41.028451</LatitudeDegrees>
              <LongitudeDegrees>-1.349404</LongitudeDegrees>
            </Position>
            <AltitudeMeters>810.276</AltitudeMeters>
            <DistanceMeters>554866.91072068</DistanceMeters>
          </Trackpoint>
          <Trackpoint>
            <Time>2021-08-03T15:43:57Z</Time>
            <Position>
              <LatitudeDegrees>41.028382</LatitudeDegrees>
              <LongitudeDegrees>-1.349361</LongitudeDegrees>
            </Position>
            <AltitudeMeters>810.223</AltitudeMeters>
            <DistanceMeters>554875.39740965</DistanceMeters>
          </Trackpoint>
          <Trackpoint>
            <Time>2021-08-03T15:43:59Z</Time>
            <Position>
              <LatitudeDegrees>41.028310</LatitudeDegrees>
              <LongitudeDegrees>-1.349317</LongitudeDegrees>
            </Position>
            <AltitudeMeters>810.283</AltitudeMeters>
            <DistanceMeters>554884.22211244</DistanceMeters>
          </Trackpoint>
          <Trackpoint>
            <Time>2021-08-03T15:44:01Z</Time>
            <Position>
              <LatitudeDegrees>41.028234</LatitudeDegrees>
              <LongitudeDegrees>-1.349273</LongitudeDegrees>
            </Position>
            <AltitudeMeters>810.211</AltitudeMeters>
            <DistanceMeters>554893.45291963</DistanceMeters>
          </Trackpoint>
          <Trackpoint>
            <Time>2021-08-03T15:44:03Z</Time>
            <Position>
              <LatitudeDegrees>41.028169</LatitudeDegrees>
              <LongitudeDegrees>-1.349244</LongitudeDegrees>
            </Position>
            <AltitudeMeters>810.208</AltitudeMeters>
            <DistanceMeters>554901.08706092</DistanceMeters>
          </Trackpoint>
          <Trackpoint>
            <Time>2021-08-03T15:44:05Z</Time>
            <Position>
              <LatitudeDegrees>41.028106</LatitudeDegrees>
              <LongitudeDegrees>-1.349215</LongitudeDegrees>
            </Position>
            <AltitudeMeters>810.249</AltitudeMeters>
            <DistanceMeters>554908.51010117</DistanceMeters>
          </Trackpoint>
          <Trackpoint>
            <Time>2021-08-03T15:44:07Z</Time>
            <Position>
              <LatitudeDegrees>41.028033</LatitudeDegrees>
              <LongitudeDegrees>-1.349172</LongitudeDegrees>
            </Position>
            <AltitudeMeters>810.261</AltitudeMeters>
            <DistanceMeters>554917.40106789</DistanceMeters>
          </Trackpoint>
          <Trackpoint>
            <Time>2021-08-03T15:44:09Z</Time>
            <Position>
              <LatitudeDegrees>41.027963</LatitudeDegrees>
              <LongitudeDegrees>-1.349131</LongitudeDegrees>
            </Position>
            <AltitudeMeters>810.271</AltitudeMeters>
            <DistanceMeters>554925.91802768</DistanceMeters>
          </Trackpoint>
          <Trackpoint>
            <Time>2021-08-03T15:44:11Z</Time>
            <Position>
              <LatitudeDegrees>41.027904</LatitudeDegrees>
              <LongitudeDegrees>-1.349094</LongitudeDegrees>
            </Position>
            <AltitudeMeters>810.134</AltitudeMeters>
            <DistanceMeters>554933.18306703</DistanceMeters>
          </Trackpoint>
          <Trackpoint>
            <Time>2021-08-03T15:44:13Z</Time>
            <Position>
              <LatitudeDegrees>41.027835</LatitudeDegrees>
              <LongitudeDegrees>-1.349061</LongitudeDegrees>
            </Position>
            <AltitudeMeters>810.022</AltitudeMeters>
            <DistanceMeters>554941.34762607</DistanceMeters>
          </Trackpoint>
          <Trackpoint>
            <Time>2021-08-03T15:44:15Z</Time>
            <Position>
              <LatitudeDegrees>41.027751</LatitudeDegrees>
              <LongitudeDegrees>-1.349072</LongitudeDegrees>
            </Position>
            <AltitudeMeters>809.747</AltitudeMeters>
            <DistanceMeters>554950.74182306</DistanceMeters>
          </Trackpoint>
          <Trackpoint>
            <Time>2021-08-03T15:44:17Z</Time>
            <Position>
              <LatitudeDegrees>41.027676</LatitudeDegrees>
              <LongitudeDegrees>-1.349152</LongitudeDegrees>
            </Position>
            <AltitudeMeters>809.692</AltitudeMeters>
            <DistanceMeters>554961.45669086</DistanceMeters>
          </Trackpoint>
          <Trackpoint>
            <Time>2021-08-03T15:44:19Z</Time>
            <Position>
              <LatitudeDegrees>41.027636</LatitudeDegrees>
              <LongitudeDegrees>-1.349254</LongitudeDegrees>
            </Position>
            <AltitudeMeters>809.693</AltitudeMeters>
            <DistanceMeters>554971.10927231</DistanceMeters>
          </Trackpoint>
          <Trackpoint>
            <Time>2021-08-03T15:44:21Z</Time>
            <Position>
              <LatitudeDegrees>41.027601</LatitudeDegrees>
              <LongitudeDegrees>-1.349361</LongitudeDegrees>
            </Position>
            <AltitudeMeters>809.121</AltitudeMeters>
            <DistanceMeters>554980.90209682</DistanceMeters>
          </Trackpoint>
          <Trackpoint>
            <Time>2021-08-03T15:44:23Z</Time>
            <Position>
              <LatitudeDegrees>41.027566</LatitudeDegrees>
              <LongitudeDegrees>-1.349462</LongitudeDegrees>
            </Position>
            <AltitudeMeters>809.241</AltitudeMeters>
            <DistanceMeters>554990.23408789</DistanceMeters>
          </Trackpoint>
          <Trackpoint>
            <Time>2021-08-03T15:44:25Z</Time>
            <Position>
              <LatitudeDegrees>41.027529</LatitudeDegrees>
              <LongitudeDegrees>-1.349565</LongitudeDegrees>
            </Position>
            <AltitudeMeters>809.305</AltitudeMeters>
            <DistanceMeters>554999.81295038</DistanceMeters>
          </Trackpoint>
          <Trackpoint>
            <Time>2021-08-03T15:44:27Z</Time>
            <Position>
              <LatitudeDegrees>41.027499</LatitudeDegrees>
              <LongitudeDegrees>-1.349638</LongitudeDegrees>
            </Position>
            <AltitudeMeters>809.608</AltitudeMeters>
            <DistanceMeters>555006.79337247</DistanceMeters>
          </Trackpoint>
          <Trackpoint>
            <Time>2021-08-03T15:44:29Z</Time>
            <Position>
              <LatitudeDegrees>41.027398</LatitudeDegrees>
              <LongitudeDegrees>-1.349766</LongitudeDegrees>
            </Position>
            <AltitudeMeters>809.739</AltitudeMeters>
            <DistanceMeters>555022.34614257</DistanceMeters>
          </Trackpoint>
          <Trackpoint>
            <Time>2021-08-03T15:44:31Z</Time>
            <Position>
              <LatitudeDegrees>41.027321</LatitudeDegrees>
              <LongitudeDegrees>-1.349784</LongitudeDegrees>
            </Position>
            <AltitudeMeters>809.741</AltitudeMeters>
            <DistanceMeters>555031.04926162</DistanceMeters>
          </Trackpoint>
          <Trackpoint>
            <Time>2021-08-03T15:44:32Z</Time>
            <Position>
              <LatitudeDegrees>41.027276</LatitudeDegrees>
              <LongitudeDegrees>-1.349776</LongitudeDegrees>
            </Position>
            <AltitudeMeters>809.771</AltitudeMeters>
            <DistanceMeters>555036.10268186</DistanceMeters>
          </Trackpoint>
          <Trackpoint>
            <Time>2021-08-03T15:44:34Z</Time>
            <Position>
              <LatitudeDegrees>41.027211</LatitudeDegrees>
              <LongitudeDegrees>-1.349785</LongitudeDegrees>
            </Position>
            <AltitudeMeters>809.944</AltitudeMeters>
            <DistanceMeters>555043.37641666</DistanceMeters>
          </Trackpoint>
          <Trackpoint>
            <Time>2021-08-03T15:44:37Z</Time>
            <Position>
              <LatitudeDegrees>41.027148</LatitudeDegrees>
              <LongitudeDegrees>-1.349745</LongitudeDegrees>
            </Position>
            <AltitudeMeters>810.182</AltitudeMeters>
            <DistanceMeters>555051.15120487</DistanceMeters>
          </Trackpoint>
          <Trackpoint>
            <Time>2021-08-03T15:44:39Z</Time>
            <Position>
              <LatitudeDegrees>41.027105</LatitudeDegrees>
              <LongitudeDegrees>-1.349707</LongitudeDegrees>
            </Position>
            <AltitudeMeters>810.187</AltitudeMeters>
            <DistanceMeters>555056.90248038</DistanceMeters>
          </Trackpoint>
          <Trackpoint>
            <Time>2021-08-03T15:44:41Z</Time>
            <Position>
              <LatitudeDegrees>41.027039</LatitudeDegrees>
              <LongitudeDegrees>-1.349645</LongitudeDegrees>
            </Position>
            <AltitudeMeters>810.132</AltitudeMeters>
            <DistanceMeters>555065.90597949</DistanceMeters>
          </Trackpoint>
          <Trackpoint>
            <Time>2021-08-03T15:44:43Z</Time>
            <Position>
              <LatitudeDegrees>41.026966</LatitudeDegrees>
              <LongitudeDegrees>-1.349571</LongitudeDegrees>
            </Position>
            <AltitudeMeters>810.043</AltitudeMeters>
            <DistanceMeters>555076.13493329</DistanceMeters>
          </Trackpoint>
          <Trackpoint>
            <Time>2021-08-03T15:44:44Z</Time>
            <Position>
              <LatitudeDegrees>41.026915</LatitudeDegrees>
              <LongitudeDegrees>-1.349512</LongitudeDegrees>
            </Position>
            <AltitudeMeters>809.947</AltitudeMeters>
            <DistanceMeters>555083.66905968</DistanceMeters>
          </Trackpoint>
          <Trackpoint>
            <Time>2021-08-03T15:44:45Z</Time>
            <Position>
              <LatitudeDegrees>41.026876</LatitudeDegrees>
              <LongitudeDegrees>-1.349475</LongitudeDegrees>
            </Position>
            <AltitudeMeters>809.729</AltitudeMeters>
            <DistanceMeters>555089.00665195</DistanceMeters>
          </Trackpoint>
          <Trackpoint>
            <Time>2021-08-03T15:44:47Z</Time>
            <Position>
              <LatitudeDegrees>41.026804</LatitudeDegrees>
              <LongitudeDegrees>-1.349420</LongitudeDegrees>
            </Position>
            <AltitudeMeters>809.821</AltitudeMeters>
            <DistanceMeters>555098.25602729</DistanceMeters>
          </Trackpoint>
          <Trackpoint>
            <Time>2021-08-03T15:44:49Z</Time>
            <Position>
              <LatitudeDegrees>41.026737</LatitudeDegrees>
              <LongitudeDegrees>-1.349375</LongitudeDegrees>
            </Position>
            <AltitudeMeters>810.408</AltitudeMeters>
            <DistanceMeters>555106.61621818</DistanceMeters>
          </Trackpoint>
          <Trackpoint>
            <Time>2021-08-03T15:44:51Z</Time>
            <Position>
              <LatitudeDegrees>41.026667</LatitudeDegrees>
              <LongitudeDegrees>-1.349347</LongitudeDegrees>
            </Position>
            <AltitudeMeters>810.511</AltitudeMeters>
            <DistanceMeters>555114.75418971</DistanceMeters>
          </Trackpoint>
          <Trackpoint>
            <Time>2021-08-03T15:44:53Z</Time>
            <Position>
              <LatitudeDegrees>41.026590</LatitudeDegrees>
              <LongitudeDegrees>-1.349320</LongitudeDegrees>
            </Position>
            <AltitudeMeters>810.683</AltitudeMeters>
            <DistanceMeters>555123.61921962</DistanceMeters>
          </Trackpoint>
          <Trackpoint>
            <Time>2021-08-03T15:44:55Z</Time>
            <Position>
              <LatitudeDegrees>41.026545</LatitudeDegrees>
              <LongitudeDegrees>-1.349332</LongitudeDegrees>
            </Position>
            <AltitudeMeters>810.763</AltitudeMeters>
            <DistanceMeters>555128.72950151</DistanceMeters>
          </Trackpoint>
          <Trackpoint>
            <Time>2021-08-03T15:44:57Z</Time>
            <Position>
              <LatitudeDegrees>41.026488</LatitudeDegrees>
              <LongitudeDegrees>-1.349312</LongitudeDegrees>
            </Position>
            <AltitudeMeters>810.816</AltitudeMeters>
            <DistanceMeters>555135.29253927</DistanceMeters>
          </Trackpoint>
          <Trackpoint>
            <Time>2021-08-03T15:44:59Z</Time>
            <Position>
              <LatitudeDegrees>41.026425</LatitudeDegrees>
              <LongitudeDegrees>-1.349279</LongitudeDegrees>
            </Position>
            <AltitudeMeters>810.944</AltitudeMeters>
            <DistanceMeters>555142.83265607</DistanceMeters>
          </Trackpoint>
          <Trackpoint>
            <Time>2021-08-03T15:45:02Z</Time>
            <Position>
              <LatitudeDegrees>41.026375</LatitudeDegrees>
              <LongitudeDegrees>-1.349256</LongitudeDegrees>
            </Position>
            <AltitudeMeters>810.999</AltitudeMeters>
            <DistanceMeters>555148.72431236</DistanceMeters>
          </Trackpoint>
          <Trackpoint>
            <Time>2021-08-03T15:45:05Z</Time>
            <Position>
              <LatitudeDegrees>41.026328</LatitudeDegrees>
              <LongitudeDegrees>-1.349220</LongitudeDegrees>
            </Position>
            <AltitudeMeters>810.844</AltitudeMeters>
            <DistanceMeters>555154.76654697</DistanceMeters>
          </Trackpoint>
          <Trackpoint>
            <Time>2021-08-03T15:45:07Z</Time>
            <Position>
              <LatitudeDegrees>41.026277</LatitudeDegrees>
              <LongitudeDegrees>-1.349173</LongitudeDegrees>
            </Position>
            <AltitudeMeters>810.785</AltitudeMeters>
            <DistanceMeters>555161.67937306</DistanceMeters>
          </Trackpoint>
          <Trackpoint>
            <Time>2021-08-03T15:45:09Z</Time>
            <Position>
              <LatitudeDegrees>41.026225</LatitudeDegrees>
              <LongitudeDegrees>-1.349109</LongitudeDegrees>
            </Position>
            <AltitudeMeters>810.785</AltitudeMeters>
            <DistanceMeters>555169.57745941</DistanceMeters>
          </Trackpoint>
          <Trackpoint>
            <Time>2021-08-03T15:45:11Z</Time>
            <Position>
              <LatitudeDegrees>41.026163</LatitudeDegrees>
              <LongitudeDegrees>-1.349028</LongitudeDegrees>
            </Position>
            <AltitudeMeters>810.789</AltitudeMeters>
            <DistanceMeters>555179.26645703</DistanceMeters>
          </Trackpoint>
          <Trackpoint>
            <Time>2021-08-03T15:45:13Z</Time>
            <Position>
              <LatitudeDegrees>41.026099</LatitudeDegrees>
              <LongitudeDegrees>-1.348946</LongitudeDegrees>
            </Position>
            <AltitudeMeters>810.717</AltitudeMeters>
            <DistanceMeters>555189.173875</DistanceMeters>
          </Trackpoint>
          <Trackpoint>
            <Time>2021-08-03T15:45:15Z</Time>
            <Position>
              <LatitudeDegrees>41.026040</LatitudeDegrees>
              <LongitudeDegrees>-1.348869</LongitudeDegrees>
            </Position>
            <AltitudeMeters>810.808</AltitudeMeters>
            <DistanceMeters>555198.38999669</DistanceMeters>
          </Trackpoint>
          <Trackpoint>
            <Time>2021-08-03T15:45:17Z</Time>
            <Position>
              <LatitudeDegrees>41.025980</LatitudeDegrees>
              <LongitudeDegrees>-1.348797</LongitudeDegrees>
            </Position>
            <AltitudeMeters>810.895</AltitudeMeters>
            <DistanceMeters>555207.39850917</DistanceMeters>
          </Trackpoint>
          <Trackpoint>
            <Time>2021-08-03T15:45:19Z</Time>
            <Position>
              <LatitudeDegrees>41.025923</LatitudeDegrees>
              <LongitudeDegrees>-1.348728</LongitudeDegrees>
            </Position>
            <AltitudeMeters>810.927</AltitudeMeters>
            <DistanceMeters>555215.98989118</DistanceMeters>
          </Trackpoint>
          <Trackpoint>
            <Time>2021-08-03T15:45:21Z</Time>
            <Position>
              <LatitudeDegrees>41.025873</LatitudeDegrees>
              <LongitudeDegrees>-1.348661</LongitudeDegrees>
            </Position>
            <AltitudeMeters>811.077</AltitudeMeters>
            <DistanceMeters>555223.90282679</DistanceMeters>
          </Trackpoint>
          <Trackpoint>
            <Time>2021-08-03T15:45:23Z</Time>
            <Position>
              <LatitudeDegrees>41.025830</LatitudeDegrees>
              <LongitudeDegrees>-1.348601</LongitudeDegrees>
            </Position>
            <AltitudeMeters>811.190</AltitudeMeters>
            <DistanceMeters>555230.85148269</DistanceMeters>
          </Trackpoint>
          <Trackpoint>
            <Time>2021-08-03T15:45:25Z</Time>
            <Position>
              <LatitudeDegrees>41.025774</LatitudeDegrees>
              <LongitudeDegrees>-1.348535</LongitudeDegrees>
            </Position>
            <AltitudeMeters>811.248</AltitudeMeters>
            <DistanceMeters>555239.19220861</DistanceMeters>
          </Trackpoint>
          <Trackpoint>
            <Time>2021-08-03T15:45:27Z</Time>
            <Position>
              <LatitudeDegrees>41.025685</LatitudeDegrees>
              <LongitudeDegrees>-1.348442</LongitudeDegrees>
            </Position>
            <AltitudeMeters>811.293</AltitudeMeters>
            <DistanceMeters>555251.80608775</DistanceMeters>
          </Trackpoint>
          <Trackpoint>
            <Time>2021-08-03T15:45:29Z</Time>
            <Position>
              <LatitudeDegrees>41.025629</LatitudeDegrees>
              <LongitudeDegrees>-1.348417</LongitudeDegrees>
            </Position>
            <AltitudeMeters>811.368</AltitudeMeters>
            <DistanceMeters>555258.38287011</DistanceMeters>
          </Trackpoint>
          <Trackpoint>
            <Time>2021-08-03T15:45:31Z</Time>
            <Position>
              <LatitudeDegrees>41.025567</LatitudeDegrees>
              <LongitudeDegrees>-1.348418</LongitudeDegrees>
            </Position>
            <AltitudeMeters>811.239</AltitudeMeters>
            <DistanceMeters>555265.28392968</DistanceMeters>
          </Trackpoint>
          <Trackpoint>
            <Time>2021-08-03T15:45:33Z</Time>
            <Position>
              <LatitudeDegrees>41.025496</LatitudeDegrees>
              <LongitudeDegrees>-1.348437</LongitudeDegrees>
            </Position>
            <AltitudeMeters>811.196</AltitudeMeters>
            <DistanceMeters>555273.34553375</DistanceMeters>
          </Trackpoint>
          <Trackpoint>
            <Time>2021-08-03T15:45:35Z</Time>
            <Position>
              <LatitudeDegrees>41.025446</LatitudeDegrees>
              <LongitudeDegrees>-1.348450</LongitudeDegrees>
            </Position>
            <AltitudeMeters>811.131</AltitudeMeters>
            <DistanceMeters>555279.01696498</DistanceMeters>
          </Trackpoint>
          <Trackpoint>
            <Time>2021-08-03T15:45:39Z</Time>
            <Position>
              <LatitudeDegrees>41.025367</LatitudeDegrees>
              <LongitudeDegrees>-1.348480</LongitudeDegrees>
            </Position>
            <AltitudeMeters>811.124</AltitudeMeters>
            <DistanceMeters>555288.16374902</DistanceMeters>
          </Trackpoint>
          <Trackpoint>
            <Time>2021-08-03T15:45:41Z</Time>
            <Position>
              <LatitudeDegrees>41.025229</LatitudeDegrees>
              <LongitudeDegrees>-1.348479</LongitudeDegrees>
            </Position>
            <AltitudeMeters>811.108</AltitudeMeters>
            <DistanceMeters>555303.52401716</DistanceMeters>
          </Trackpoint>
          <Trackpoint>
            <Time>2021-08-03T15:45:43Z</Time>
            <Position>
              <LatitudeDegrees>41.025172</LatitudeDegrees>
              <LongitudeDegrees>-1.348467</LongitudeDegrees>
            </Position>
            <AltitudeMeters>811.266</AltitudeMeters>
            <DistanceMeters>555309.94799174</DistanceMeters>
          </Trackpoint>
          <Trackpoint>
            <Time>2021-08-03T15:45:45Z</Time>
            <Position>
              <LatitudeDegrees>41.025122</LatitudeDegrees>
              <LongitudeDegrees>-1.348441</LongitudeDegrees>
            </Position>
            <AltitudeMeters>811.258</AltitudeMeters>
            <DistanceMeters>555315.926373</DistanceMeters>
          </Trackpoint>
          <Trackpoint>
            <Time>2021-08-03T15:45:48Z</Time>
            <Position>
              <LatitudeDegrees>41.025065</LatitudeDegrees>
              <LongitudeDegrees>-1.348404</LongitudeDegrees>
            </Position>
            <AltitudeMeters>811.298</AltitudeMeters>
            <DistanceMeters>555322.99038054</DistanceMeters>
          </Trackpoint>
          <Trackpoint>
            <Time>2021-08-03T15:45:50Z</Time>
            <Position>
              <LatitudeDegrees>41.025014</LatitudeDegrees>
              <LongitudeDegrees>-1.348364</LongitudeDegrees>
            </Position>
            <AltitudeMeters>811.261</AltitudeMeters>
            <DistanceMeters>555329.58635721</DistanceMeters>
          </Trackpoint>
          <Trackpoint>
            <Time>2021-08-03T15:45:52Z</Time>
            <Position>
              <LatitudeDegrees>41.024964</LatitudeDegrees>
              <LongitudeDegrees>-1.348318</LongitudeDegrees>
            </Position>
            <AltitudeMeters>811.259</AltitudeMeters>
            <DistanceMeters>555336.36063566</DistanceMeters>
          </Trackpoint>
          <Trackpoint>
            <Time>2021-08-03T15:45:54Z</Time>
            <Position>
              <LatitudeDegrees>41.024916</LatitudeDegrees>
              <LongitudeDegrees>-1.348266</LongitudeDegrees>
            </Position>
            <AltitudeMeters>811.394</AltitudeMeters>
            <DistanceMeters>555343.26104095</DistanceMeters>
          </Trackpoint>
          <Trackpoint>
            <Time>2021-08-03T15:45:56Z</Time>
            <Position>
              <LatitudeDegrees>41.024872</LatitudeDegrees>
              <LongitudeDegrees>-1.348199</LongitudeDegrees>
            </Position>
            <AltitudeMeters>811.359</AltitudeMeters>
            <DistanceMeters>555350.7198814</DistanceMeters>
          </Trackpoint>
          <Trackpoint>
            <Time>2021-08-03T15:45:58Z</Time>
            <Position>
              <LatitudeDegrees>41.024841</LatitudeDegrees>
              <LongitudeDegrees>-1.348127</LongitudeDegrees>
            </Position>
            <AltitudeMeters>811.450</AltitudeMeters>
            <DistanceMeters>555357.68087201</DistanceMeters>
          </Trackpoint>
          <Trackpoint>
            <Time>2021-08-03T15:46:00Z</Time>
            <Position>
              <LatitudeDegrees>41.024818</LatitudeDegrees>
              <LongitudeDegrees>-1.348051</LongitudeDegrees>
            </Position>
            <AltitudeMeters>811.274</AltitudeMeters>
            <DistanceMeters>555364.55702502</DistanceMeters>
          </Trackpoint>
          <Trackpoint>
            <Time>2021-08-03T15:46:02Z</Time>
            <Position>
              <LatitudeDegrees>41.024796</LatitudeDegrees>
              <LongitudeDegrees>-1.347969</LongitudeDegrees>
            </Position>
            <AltitudeMeters>811.156</AltitudeMeters>
            <DistanceMeters>555371.86482032</DistanceMeters>
          </Trackpoint>
          <Trackpoint>
            <Time>2021-08-03T15:46:04Z</Time>
            <Position>
              <LatitudeDegrees>41.024769</LatitudeDegrees>
              <LongitudeDegrees>-1.347885</LongitudeDegrees>
            </Position>
            <AltitudeMeters>811.121</AltitudeMeters>
            <DistanceMeters>555379.53201</DistanceMeters>
          </Trackpoint>
          <Trackpoint>
            <Time>2021-08-03T15:46:06Z</Time>
            <Position>
              <LatitudeDegrees>41.024745</LatitudeDegrees>
              <LongitudeDegrees>-1.347817</LongitudeDegrees>
            </Position>
            <AltitudeMeters>811.108</AltitudeMeters>
            <DistanceMeters>555385.83680155</DistanceMeters>
          </Trackpoint>
          <Trackpoint>
            <Time>2021-08-03T15:46:09Z</Time>
            <Position>
              <LatitudeDegrees>41.024704</LatitudeDegrees>
              <LongitudeDegrees>-1.347743</LongitudeDegrees>
            </Position>
            <AltitudeMeters>811.124</AltitudeMeters>
            <DistanceMeters>555393.54627385</DistanceMeters>
          </Trackpoint>
          <Trackpoint>
            <Time>2021-08-03T15:46:11Z</Time>
            <Position>
              <LatitudeDegrees>41.024665</LatitudeDegrees>
              <LongitudeDegrees>-1.347688</LongitudeDegrees>
            </Position>
            <AltitudeMeters>811.146</AltitudeMeters>
            <DistanceMeters>555399.88463406</DistanceMeters>
          </Trackpoint>
          <Trackpoint>
            <Time>2021-08-03T15:46:13Z</Time>
            <Position>
              <LatitudeDegrees>41.024608</LatitudeDegrees>
              <LongitudeDegrees>-1.347634</LongitudeDegrees>
            </Position>
            <AltitudeMeters>811.186</AltitudeMeters>
            <DistanceMeters>555407.6826168</DistanceMeters>
          </Trackpoint>
          <Trackpoint>
            <Time>2021-08-03T15:46:15Z</Time>
            <Position>
              <LatitudeDegrees>41.024540</LatitudeDegrees>
              <LongitudeDegrees>-1.347610</LongitudeDegrees>
            </Position>
            <AltitudeMeters>811.189</AltitudeMeters>
            <DistanceMeters>555415.51526254</DistanceMeters>
          </Trackpoint>
          <Trackpoint>
            <Time>2021-08-03T15:46:17Z</Time>
            <Position>
              <LatitudeDegrees>41.024469</LatitudeDegrees>
              <LongitudeDegrees>-1.347615</LongitudeDegrees>
            </Position>
            <AltitudeMeters>811.137</AltitudeMeters>
            <DistanceMeters>555423.42933925</DistanceMeters>
          </Trackpoint>
          <Trackpoint>
            <Time>2021-08-03T15:46:19Z</Time>
            <Position>
              <LatitudeDegrees>41.024404</LatitudeDegrees>
              <LongitudeDegrees>-1.347633</LongitudeDegrees>
            </Position>
            <AltitudeMeters>811.222</AltitudeMeters>
            <DistanceMeters>555430.82007213</DistanceMeters>
          </Trackpoint>
          <Trackpoint>
            <Time>2021-08-03T15:46:21Z</Time>
            <Position>
              <LatitudeDegrees>41.024343</LatitudeDegrees>
              <LongitudeDegrees>-1.347639</LongitudeDegrees>
            </Position>
            <AltitudeMeters>811.317</AltitudeMeters>
            <DistanceMeters>555437.62825708</DistanceMeters>
          </Trackpoint>
          <Trackpoint>
            <Time>2021-08-03T15:46:23Z</Time>
            <Position>
              <LatitudeDegrees>41.024283</LatitudeDegrees>
              <LongitudeDegrees>-1.347616</LongitudeDegrees>
            </Position>
            <AltitudeMeters>811.238</AltitudeMeters>
            <DistanceMeters>555444.58081051</DistanceMeters>
          </Trackpoint>
          <Trackpoint>
            <Time>2021-08-03T15:46:25Z</Time>
            <Position>
              <LatitudeDegrees>41.024212</LatitudeDegrees>
              <LongitudeDegrees>-1.347616</LongitudeDegrees>
            </Position>
            <AltitudeMeters>811.158</AltitudeMeters>
            <DistanceMeters>555452.48346884</DistanceMeters>
          </Trackpoint>
          <Trackpoint>
            <Time>2021-08-03T15:46:27Z</Time>
            <Position>
              <LatitudeDegrees>41.024143</LatitudeDegrees>
              <LongitudeDegrees>-1.347623</LongitudeDegrees>
            </Position>
            <AltitudeMeters>810.952</AltitudeMeters>
            <DistanceMeters>555460.18591016</DistanceMeters>
          </Trackpoint>
          <Trackpoint>
            <Time>2021-08-03T15:46:29Z</Time>
            <Position>
              <LatitudeDegrees>41.024087</LatitudeDegrees>
              <LongitudeDegrees>-1.347685</LongitudeDegrees>
            </Position>
            <AltitudeMeters>810.917</AltitudeMeters>
            <DistanceMeters>555468.3072203</DistanceMeters>
          </Trackpoint>
          <Trackpoint>
            <Time>2021-08-03T15:46:31Z</Time>
            <Position>
              <LatitudeDegrees>41.024054</LatitudeDegrees>
              <LongitudeDegrees>-1.347810</LongitudeDegrees>
            </Position>
            <AltitudeMeters>811.008</AltitudeMeters>
            <DistanceMeters>555479.42778219</DistanceMeters>
          </Trackpoint>
          <Trackpoint>
            <Time>2021-08-03T15:46:33Z</Time>
            <Position>
              <LatitudeDegrees>41.024036</LatitudeDegrees>
              <LongitudeDegrees>-1.347888</LongitudeDegrees>
            </Position>
            <AltitudeMeters>811.562</AltitudeMeters>
            <DistanceMeters>555486.27630153</DistanceMeters>
          </Trackpoint>
          <Trackpoint>
            <Time>2021-08-03T15:46:35Z</Time>
            <Position>
              <LatitudeDegrees>41.024019</LatitudeDegrees>
              <LongitudeDegrees>-1.347946</LongitudeDegrees>
            </Position>
            <AltitudeMeters>811.864</AltitudeMeters>
            <DistanceMeters>555491.50190687</DistanceMeters>
          </Trackpoint>
          <Trackpoint>
            <Time>2021-08-03T15:46:38Z</Time>
            <Position>
              <LatitudeDegrees>41.024003</LatitudeDegrees>
              <LongitudeDegrees>-1.348005</LongitudeDegrees>
            </Position>
            <AltitudeMeters>812.154</AltitudeMeters>
            <DistanceMeters>555496.76624962</DistanceMeters>
          </Trackpoint>
          <Trackpoint>
            <Time>2021-08-03T15:46:42Z</Time>
            <Position>
              <LatitudeDegrees>41.023987</LatitudeDegrees>
              <LongitudeDegrees>-1.348065</LongitudeDegrees>
            </Position>
            <AltitudeMeters>812.997</AltitudeMeters>
            <DistanceMeters>555502.10975986</DistanceMeters>
          </Trackpoint>
          <Trackpoint>
            <Time>2021-08-03T15:46:45Z</Time>
            <Position>
              <LatitudeDegrees>41.023971</LatitudeDegrees>
              <LongitudeDegrees>-1.348128</LongitudeDegrees>
            </Position>
            <AltitudeMeters>813.175</AltitudeMeters>
            <DistanceMeters>555507.69131553</DistanceMeters>
          </Trackpoint>
          <Trackpoint>
            <Time>2021-08-03T15:46:49Z</Time>
            <Position>
              <LatitudeDegrees>41.023933</LatitudeDegrees>
              <LongitudeDegrees>-1.348184</LongitudeDegrees>
            </Position>
            <AltitudeMeters>813.240</AltitudeMeters>
            <DistanceMeters>555514.01612689</DistanceMeters>
          </Trackpoint>
          <Trackpoint>
            <Time>2021-08-03T15:46:51Z</Time>
            <Position>
              <LatitudeDegrees>41.023899</LatitudeDegrees>
              <LongitudeDegrees>-1.348238</LongitudeDegrees>
            </Position>
            <AltitudeMeters>813.365</AltitudeMeters>
            <DistanceMeters>555519.92309018</DistanceMeters>
          </Trackpoint>
          <Trackpoint>
            <Time>2021-08-03T15:46:54Z</Time>
            <Position>
              <LatitudeDegrees>41.023871</LatitudeDegrees>
              <LongitudeDegrees>-1.348302</LongitudeDegrees>
            </Position>
            <AltitudeMeters>813.896</AltitudeMeters>
            <DistanceMeters>555526.13554113</DistanceMeters>
          </Trackpoint>
          <Trackpoint>
            <Time>2021-08-03T15:46:57Z</Time>
            <Position>
              <LatitudeDegrees>41.023828</LatitudeDegrees>
              <LongitudeDegrees>-1.348376</LongitudeDegrees>
            </Position>
            <AltitudeMeters>814.141</AltitudeMeters>
            <DistanceMeters>555533.97970717</DistanceMeters>
          </Trackpoint>
          <Trackpoint>
            <Time>2021-08-03T15:47:00Z</Time>
            <Position>
              <LatitudeDegrees>41.023785</LatitudeDegrees>
              <LongitudeDegrees>-1.348442</LongitudeDegrees>
            </Position>
            <AltitudeMeters>814.181</AltitudeMeters>
            <DistanceMeters>555541.30231558</DistanceMeters>
          </Trackpoint>
          <Trackpoint>
            <Time>2021-08-03T15:47:02Z</Time>
            <Position>
              <LatitudeDegrees>41.023750</LatitudeDegrees>
              <LongitudeDegrees>-1.348496</LongitudeDegrees>
            </Position>
            <AltitudeMeters>814.109</AltitudeMeters>
            <DistanceMeters>555547.27994157</DistanceMeters>
          </Trackpoint>
          <Trackpoint>
            <Time>2021-08-03T15:47:05Z</Time>
            <Position>
              <LatitudeDegrees>41.023696</LatitudeDegrees>
              <LongitudeDegrees>-1.348549</LongitudeDegrees>
            </Position>
            <AltitudeMeters>814.108</AltitudeMeters>
            <DistanceMeters>555554.75873114</DistanceMeters>
          </Trackpoint>
          <Trackpoint>
            <Time>2021-08-03T15:47:07Z</Time>
            <Position>
              <LatitudeDegrees>41.023646</LatitudeDegrees>
              <LongitudeDegrees>-1.348584</LongitudeDegrees>
            </Position>
            <AltitudeMeters>814.171</AltitudeMeters>
            <DistanceMeters>555561.05205421</DistanceMeters>
          </Trackpoint>
          <Trackpoint>
            <Time>2021-08-03T15:47:09Z</Time>
            <Position>
              <LatitudeDegrees>41.023598</LatitudeDegrees>
              <LongitudeDegrees>-1.348603</LongitudeDegrees>
            </Position>
            <AltitudeMeters>814.443</AltitudeMeters>
            <DistanceMeters>555566.62713476</DistanceMeters>
          </Trackpoint>
          <Trackpoint>
            <Time>2021-08-03T15:47:11Z</Time>
            <Position>
              <LatitudeDegrees>41.023553</LatitudeDegrees>
              <LongitudeDegrees>-1.348583</LongitudeDegrees>
            </Position>
            <AltitudeMeters>814.743</AltitudeMeters>
            <DistanceMeters>555571.90945776</DistanceMeters>
          </Trackpoint>
          <Trackpoint>
            <Time>2021-08-03T15:47:13Z</Time>
            <Position>
              <LatitudeDegrees>41.023523</LatitudeDegrees>
              <LongitudeDegrees>-1.348529</LongitudeDegrees>
            </Position>
            <AltitudeMeters>814.826</AltitudeMeters>
            <DistanceMeters>555577.54094322</DistanceMeters>
          </Trackpoint>
          <Trackpoint>
            <Time>2021-08-03T15:47:15Z</Time>
            <Position>
              <LatitudeDegrees>41.023504</LatitudeDegrees>
              <LongitudeDegrees>-1.348463</LongitudeDegrees>
            </Position>
            <AltitudeMeters>814.954</AltitudeMeters>
            <DistanceMeters>555583.47307672</DistanceMeters>
          </Trackpoint>
          <Trackpoint>
            <Time>2021-08-03T15:47:17Z</Time>
            <Position>
              <LatitudeDegrees>41.023485</LatitudeDegrees>
              <LongitudeDegrees>-1.348386</LongitudeDegrees>
            </Position>
            <AltitudeMeters>815.699</AltitudeMeters>
            <DistanceMeters>555590.27661784</DistanceMeters>
          </Trackpoint>
          <Trackpoint>
            <Time>2021-08-03T15:47:19Z</Time>
            <Position>
              <LatitudeDegrees>41.023450</LatitudeDegrees>
              <LongitudeDegrees>-1.348287</LongitudeDegrees>
            </Position>
            <AltitudeMeters>815.684</AltitudeMeters>
            <DistanceMeters>555599.4569067</DistanceMeters>
          </Trackpoint>
          <Trackpoint>
            <Time>2021-08-03T15:47:21Z</Time>
            <Position>
              <LatitudeDegrees>41.023411</LatitudeDegrees>
              <LongitudeDegrees>-1.348191</LongitudeDegrees>
            </Position>
            <AltitudeMeters>815.625</AltitudeMeters>
            <DistanceMeters>555608.61207844</DistanceMeters>
          </Trackpoint>
          <Trackpoint>
            <Time>2021-08-03T15:47:23Z</Time>
            <Position>
              <LatitudeDegrees>41.023376</LatitudeDegrees>
              <LongitudeDegrees>-1.348092</LongitudeDegrees>
            </Position>
            <AltitudeMeters>815.092</AltitudeMeters>
            <DistanceMeters>555617.7928591</DistanceMeters>
          </Trackpoint>
          <Trackpoint>
            <Time>2021-08-03T15:47:25Z</Time>
            <Position>
              <LatitudeDegrees>41.023342</LatitudeDegrees>
              <LongitudeDegrees>-1.348018</LongitudeDegrees>
            </Position>
            <AltitudeMeters>814.973</AltitudeMeters>
            <DistanceMeters>555625.06845585</DistanceMeters>
          </Trackpoint>
          <Trackpoint>
            <Time>2021-08-03T15:47:27Z</Time>
            <Position>
              <LatitudeDegrees>41.023309</LatitudeDegrees>
              <LongitudeDegrees>-1.347951</LongitudeDegrees>
            </Position>
            <AltitudeMeters>814.920</AltitudeMeters>
            <DistanceMeters>555631.78785926</DistanceMeters>
          </Trackpoint>
          <Trackpoint>
            <Time>2021-08-03T15:47:29Z</Time>
            <Position>
              <LatitudeDegrees>41.023278</LatitudeDegrees>
              <LongitudeDegrees>-1.347838</LongitudeDegrees>
            </Position>
            <AltitudeMeters>815.008</AltitudeMeters>
            <DistanceMeters>555641.88397252</DistanceMeters>
          </Trackpoint>
          <Trackpoint>
            <Time>2021-08-03T15:47:31Z</Time>
            <Position>
              <LatitudeDegrees>41.023236</LatitudeDegrees>
              <LongitudeDegrees>-1.347745</LongitudeDegrees>
            </Position>
            <AltitudeMeters>815.146</AltitudeMeters>
            <DistanceMeters>555650.98523019</DistanceMeters>
          </Trackpoint>
          <Trackpoint>
            <Time>2021-08-03T15:47:33Z</Time>
            <Position>
              <LatitudeDegrees>41.023182</LatitudeDegrees>
              <LongitudeDegrees>-1.347651</LongitudeDegrees>
            </Position>
            <AltitudeMeters>815.278</AltitudeMeters>
            <DistanceMeters>555660.90631044</DistanceMeters>
          </Trackpoint>
          <Trackpoint>
            <Time>2021-08-03T15:47:35Z</Time>
            <Position>
              <LatitudeDegrees>41.023121</LatitudeDegrees>
              <LongitudeDegrees>-1.347588</LongitudeDegrees>
            </Position>
            <AltitudeMeters>815.428</AltitudeMeters>
            <DistanceMeters>555669.51344394</DistanceMeters>
          </Trackpoint>
          <Trackpoint>
            <Time>2021-08-03T15:47:37Z</Time>
            <Position>
              <LatitudeDegrees>41.023057</LatitudeDegrees>
              <LongitudeDegrees>-1.347521</LongitudeDegrees>
            </Position>
            <AltitudeMeters>815.811</AltitudeMeters>
            <DistanceMeters>555678.59036068</DistanceMeters>
          </Trackpoint>
          <Trackpoint>
            <Time>2021-08-03T15:47:39Z</Time>
            <Position>
              <LatitudeDegrees>41.023002</LatitudeDegrees>
              <LongitudeDegrees>-1.347453</LongitudeDegrees>
            </Position>
            <AltitudeMeters>815.889</AltitudeMeters>
            <DistanceMeters>555686.96188523</DistanceMeters>
          </Trackpoint>
          <Trackpoint>
            <Time>2021-08-03T15:47:41Z</Time>
            <Position>
              <LatitudeDegrees>41.022966</LatitudeDegrees>
              <LongitudeDegrees>-1.347371</LongitudeDegrees>
            </Position>
            <AltitudeMeters>815.884</AltitudeMeters>
            <DistanceMeters>555694.92827571</DistanceMeters>
          </Trackpoint>
          <Trackpoint>
            <Time>2021-08-03T15:47:43Z</Time>
            <Position>
              <LatitudeDegrees>41.022907</LatitudeDegrees>
              <LongitudeDegrees>-1.347288</LongitudeDegrees>
            </Position>
            <AltitudeMeters>815.879</AltitudeMeters>
            <DistanceMeters>555704.50383816</DistanceMeters>
          </Trackpoint>
          <Trackpoint>
            <Time>2021-08-03T15:47:45Z</Time>
            <Position>
              <LatitudeDegrees>41.022871</LatitudeDegrees>
              <LongitudeDegrees>-1.347235</LongitudeDegrees>
            </Position>
            <AltitudeMeters>815.820</AltitudeMeters>
            <DistanceMeters>555710.49278327</DistanceMeters>
          </Trackpoint>
          <Trackpoint>
            <Time>2021-08-03T15:47:47Z</Time>
            <Position>
              <LatitudeDegrees>41.022809</LatitudeDegrees>
              <LongitudeDegrees>-1.347155</LongitudeDegrees>
            </Position>
            <AltitudeMeters>815.747</AltitudeMeters>
            <DistanceMeters>555720.12382399</DistanceMeters>
          </Trackpoint>
          <Trackpoint>
            <Time>2021-08-03T15:47:49Z</Time>
            <Position>
              <LatitudeDegrees>41.022729</LatitudeDegrees>
              <LongitudeDegrees>-1.347080</LongitudeDegrees>
            </Position>
            <AltitudeMeters>815.829</AltitudeMeters>
            <DistanceMeters>555731.0299767</DistanceMeters>
          </Trackpoint>
          <Trackpoint>
            <Time>2021-08-03T15:47:51Z</Time>
            <Position>
              <LatitudeDegrees>41.022655</LatitudeDegrees>
              <LongitudeDegrees>-1.347039</LongitudeDegrees>
            </Position>
            <AltitudeMeters>816.021</AltitudeMeters>
            <DistanceMeters>555739.95743181</DistanceMeters>
          </Trackpoint>
          <Trackpoint>
            <Time>2021-08-03T15:47:53Z</Time>
            <Position>
              <LatitudeDegrees>41.022577</LatitudeDegrees>
              <LongitudeDegrees>-1.347009</LongitudeDegrees>
            </Position>
            <AltitudeMeters>816.108</AltitudeMeters>
            <DistanceMeters>555748.99746454</DistanceMeters>
          </Trackpoint>
          <Trackpoint>
            <Time>2021-08-03T15:47:55Z</Time>
            <Position>
              <LatitudeDegrees>41.022494</LatitudeDegrees>
              <LongitudeDegrees>-1.346995</LongitudeDegrees>
            </Position>
            <AltitudeMeters>816.431</AltitudeMeters>
            <DistanceMeters>555758.31056736</DistanceMeters>
          </Trackpoint>
          <Trackpoint>
            <Time>2021-08-03T15:47:57Z</Time>
            <Position>
              <LatitudeDegrees>41.022415</LatitudeDegrees>
              <LongitudeDegrees>-1.347004</LongitudeDegrees>
            </Position>
            <AltitudeMeters>816.553</AltitudeMeters>
            <DistanceMeters>555767.13578177</DistanceMeters>
          </Trackpoint>
          <Trackpoint>
            <Time>2021-08-03T15:47:59Z</Time>
            <Position>
              <LatitudeDegrees>41.022340</LatitudeDegrees>
              <LongitudeDegrees>-1.347036</LongitudeDegrees>
            </Position>
            <AltitudeMeters>816.513</AltitudeMeters>
            <DistanceMeters>555775.90505375</DistanceMeters>
          </Trackpoint>
          <Trackpoint>
            <Time>2021-08-03T15:48:01Z</Time>
            <Position>
              <LatitudeDegrees>41.022271</LatitudeDegrees>
              <LongitudeDegrees>-1.347079</LongitudeDegrees>
            </Position>
            <AltitudeMeters>816.686</AltitudeMeters>
            <DistanceMeters>555784.39174272</DistanceMeters>
          </Trackpoint>
          <Trackpoint>
            <Time>2021-08-03T15:48:03Z</Time>
            <Position>
              <LatitudeDegrees>41.022208</LatitudeDegrees>
              <LongitudeDegrees>-1.347129</LongitudeDegrees>
            </Position>
            <AltitudeMeters>816.964</AltitudeMeters>
            <DistanceMeters>555792.56514504</DistanceMeters>
          </Trackpoint>
          <Trackpoint>
            <Time>2021-08-03T15:48:05Z</Time>
            <Position>
              <LatitudeDegrees>41.022147</LatitudeDegrees>
              <LongitudeDegrees>-1.347177</LongitudeDegrees>
            </Position>
            <AltitudeMeters>817.379</AltitudeMeters>
            <DistanceMeters>555800.46094442</DistanceMeters>
          </Trackpoint>
          <Trackpoint>
            <Time>2021-08-03T15:48:07Z</Time>
            <Position>
              <LatitudeDegrees>41.022097</LatitudeDegrees>
              <LongitudeDegrees>-1.347204</LongitudeDegrees>
            </Position>
            <AltitudeMeters>817.524</AltitudeMeters>
            <DistanceMeters>555806.46945885</DistanceMeters>
          </Trackpoint>
          <Trackpoint>
            <Time>2021-08-03T15:48:10Z</Time>
            <Position>
              <LatitudeDegrees>41.022034</LatitudeDegrees>
              <LongitudeDegrees>-1.347199</LongitudeDegrees>
            </Position>
            <AltitudeMeters>817.985</AltitudeMeters>
            <DistanceMeters>555813.49372661</DistanceMeters>
          </Trackpoint>
          <Trackpoint>
            <Time>2021-08-03T15:48:12Z</Time>
            <Position>
              <LatitudeDegrees>41.021981</LatitudeDegrees>
              <LongitudeDegrees>-1.347169</LongitudeDegrees>
            </Position>
            <AltitudeMeters>818.087</AltitudeMeters>
            <DistanceMeters>555819.90785386</DistanceMeters>
          </Trackpoint>
          <Trackpoint>
            <Time>2021-08-03T15:48:14Z</Time>
            <Position>
              <LatitudeDegrees>41.021921</LatitudeDegrees>
              <LongitudeDegrees>-1.347125</LongitudeDegrees>
            </Position>
            <AltitudeMeters>818.342</AltitudeMeters>
            <DistanceMeters>555827.53962908</DistanceMeters>
          </Trackpoint>
          <Trackpoint>
            <Time>2021-08-03T15:48:16Z</Time>
            <Position>
              <LatitudeDegrees>41.021842</LatitudeDegrees>
              <LongitudeDegrees>-1.347078</LongitudeDegrees>
            </Position>
            <AltitudeMeters>818.426</AltitudeMeters>
            <DistanceMeters>555837.17769924</DistanceMeters>
          </Trackpoint>
          <Trackpoint>
            <Time>2021-08-03T15:48:17Z</Time>
            <Position>
              <LatitudeDegrees>41.021793</LatitudeDegrees>
              <LongitudeDegrees>-1.347047</LongitudeDegrees>
            </Position>
            <AltitudeMeters>818.408</AltitudeMeters>
            <DistanceMeters>555843.22068105</DistanceMeters>
          </Trackpoint>
          <Trackpoint>
            <Time>2021-08-03T15:48:19Z</Time>
            <Position>
              <LatitudeDegrees>41.021714</LatitudeDegrees>
              <LongitudeDegrees>-1.346973</LongitudeDegrees>
            </Position>
            <AltitudeMeters>818.585</AltitudeMeters>
            <DistanceMeters>555853.98767326</DistanceMeters>
          </Trackpoint>
          <Trackpoint>
            <Time>2021-08-03T15:48:21Z</Time>
            <Position>
              <LatitudeDegrees>41.021654</LatitudeDegrees>
              <LongitudeDegrees>-1.346888</LongitudeDegrees>
            </Position>
            <AltitudeMeters>818.677</AltitudeMeters>
            <DistanceMeters>555863.76250006</DistanceMeters>
          </Trackpoint>
          <Trackpoint>
            <Time>2021-08-03T15:48:23Z</Time>
            <Position>
              <LatitudeDegrees>41.021598</LatitudeDegrees>
              <LongitudeDegrees>-1.346811</LongitudeDegrees>
            </Position>
            <AltitudeMeters>818.547</AltitudeMeters>
            <DistanceMeters>555872.74290165</DistanceMeters>
          </Trackpoint>
          <Trackpoint>
            <Time>2021-08-03T15:48:25Z</Time>
            <Position>
              <LatitudeDegrees>41.021541</LatitudeDegrees>
              <LongitudeDegrees>-1.346748</LongitudeDegrees>
            </Position>
            <AltitudeMeters>818.590</AltitudeMeters>
            <DistanceMeters>555881.00312305</DistanceMeters>
          </Trackpoint>
          <Trackpoint>
            <Time>2021-08-03T15:48:27Z</Time>
            <Position>
              <LatitudeDegrees>41.021490</LatitudeDegrees>
              <LongitudeDegrees>-1.346689</LongitudeDegrees>
            </Position>
            <AltitudeMeters>818.468</AltitudeMeters>
            <DistanceMeters>555888.53724944</DistanceMeters>
          </Trackpoint>
          <Trackpoint>
            <Time>2021-08-03T15:48:29Z</Time>
            <Position>
              <LatitudeDegrees>41.021446</LatitudeDegrees>
              <LongitudeDegrees>-1.346634</LongitudeDegrees>
            </Position>
            <AltitudeMeters>818.423</AltitudeMeters>
            <DistanceMeters>555895.26806615</DistanceMeters>
          </Trackpoint>
          <Trackpoint>
            <Time>2021-08-03T15:48:31Z</Time>
            <Position>
              <LatitudeDegrees>41.021404</LatitudeDegrees>
              <LongitudeDegrees>-1.346595</LongitudeDegrees>
            </Position>
            <AltitudeMeters>818.428</AltitudeMeters>
            <DistanceMeters>555900.97600061</DistanceMeters>
          </Trackpoint>
          <Trackpoint>
            <Time>2021-08-03T15:48:33Z</Time>
            <Position>
              <LatitudeDegrees>41.021338</LatitudeDegrees>
              <LongitudeDegrees>-1.346548</LongitudeDegrees>
            </Position>
            <AltitudeMeters>818.349</AltitudeMeters>
            <DistanceMeters>555909.3151024</DistanceMeters>
          </Trackpoint>
          <Trackpoint>
            <Time>2021-08-03T15:48:35Z</Time>
            <Position>
              <LatitudeDegrees>41.021271</LatitudeDegrees>
              <LongitudeDegrees>-1.346502</LongitudeDegrees>
            </Position>
            <AltitudeMeters>818.334</AltitudeMeters>
            <DistanceMeters>555917.71301268</DistanceMeters>
          </Trackpoint>
          <Trackpoint>
            <Time>2021-08-03T15:48:37Z</Time>
            <Position>
              <LatitudeDegrees>41.021219</LatitudeDegrees>
              <LongitudeDegrees>-1.346433</LongitudeDegrees>
            </Position>
            <AltitudeMeters>818.355</AltitudeMeters>
            <DistanceMeters>555925.90297042</DistanceMeters>
          </Trackpoint>
          <Trackpoint>
            <Time>2021-08-03T15:48:39Z</Time>
            <Position>
              <LatitudeDegrees>41.021167</LatitudeDegrees>
              <LongitudeDegrees>-1.346366</LongitudeDegrees>
            </Position>
            <AltitudeMeters>818.910</AltitudeMeters>
            <DistanceMeters>555933.97409001</DistanceMeters>
          </Trackpoint>
          <Trackpoint>
            <Time>2021-08-03T15:48:41Z</Time>
            <Position>
              <LatitudeDegrees>41.021124</LatitudeDegrees>
              <LongitudeDegrees>-1.346283</LongitudeDegrees>
            </Position>
            <AltitudeMeters>819.108</AltitudeMeters>
            <DistanceMeters>555942.42933189</DistanceMeters>
          </Trackpoint>
          <Trackpoint>
            <Time>2021-08-03T15:48:43Z</Time>
            <Position>
              <LatitudeDegrees>41.021078</LatitudeDegrees>
              <LongitudeDegrees>-1.346198</LongitudeDegrees>
            </Position>
            <AltitudeMeters>819.140</AltitudeMeters>
            <DistanceMeters>555951.2140364</DistanceMeters>
          </Trackpoint>
          <Trackpoint>
            <Time>2021-08-03T15:48:45Z</Time>
            <Position>
              <LatitudeDegrees>41.021030</LatitudeDegrees>
              <LongitudeDegrees>-1.346107</LongitudeDegrees>
            </Position>
            <AltitudeMeters>819.072</AltitudeMeters>
            <DistanceMeters>555960.53731457</DistanceMeters>
          </Trackpoint>
          <Trackpoint>
            <Time>2021-08-03T15:48:47Z</Time>
            <Position>
              <LatitudeDegrees>41.020982</LatitudeDegrees>
              <LongitudeDegrees>-1.346017</LongitudeDegrees>
            </Position>
            <AltitudeMeters>818.452</AltitudeMeters>
            <DistanceMeters>555969.7925458</DistanceMeters>
          </Trackpoint>
          <Trackpoint>
            <Time>2021-08-03T15:48:49Z</Time>
            <Position>
              <LatitudeDegrees>41.020939</LatitudeDegrees>
              <LongitudeDegrees>-1.345924</LongitudeDegrees>
            </Position>
            <AltitudeMeters>818.315</AltitudeMeters>
            <DistanceMeters>555978.95166203</DistanceMeters>
          </Trackpoint>
          <Trackpoint>
            <Time>2021-08-03T15:48:51Z</Time>
            <Position>
              <LatitudeDegrees>41.020903</LatitudeDegrees>
              <LongitudeDegrees>-1.345817</LongitudeDegrees>
            </Position>
            <AltitudeMeters>817.923</AltitudeMeters>
            <DistanceMeters>555988.79002518</DistanceMeters>
          </Trackpoint>
          <Trackpoint>
            <Time>2021-08-03T15:48:52Z</Time>
            <Position>
              <LatitudeDegrees>41.020887</LatitudeDegrees>
              <LongitudeDegrees>-1.345753</LongitudeDegrees>
            </Position>
            <AltitudeMeters>817.638</AltitudeMeters>
            <DistanceMeters>555994.45189513</DistanceMeters>
          </Trackpoint>
          <Trackpoint>
            <Time>2021-08-03T15:48:54Z</Time>
            <Position>
              <LatitudeDegrees>41.020861</LatitudeDegrees>
              <LongitudeDegrees>-1.345633</LongitudeDegrees>
            </Position>
            <AltitudeMeters>817.233</AltitudeMeters>
            <DistanceMeters>556004.93588724</DistanceMeters>
          </Trackpoint>
          <Trackpoint>
            <Time>2021-08-03T15:48:56Z</Time>
            <Position>
              <LatitudeDegrees>41.020839</LatitudeDegrees>
              <LongitudeDegrees>-1.345505</LongitudeDegrees>
            </Position>
            <AltitudeMeters>816.794</AltitudeMeters>
            <DistanceMeters>556015.95980527</DistanceMeters>
          </Trackpoint>
          <Trackpoint>
            <Time>2021-08-03T15:48:58Z</Time>
            <Position>
              <LatitudeDegrees>41.020804</LatitudeDegrees>
              <LongitudeDegrees>-1.345369</LongitudeDegrees>
            </Position>
            <AltitudeMeters>816.292</AltitudeMeters>
            <DistanceMeters>556028.02670142</DistanceMeters>
          </Trackpoint>
          <Trackpoint>
            <Time>2021-08-03T15:49:00Z</Time>
            <Position>
              <LatitudeDegrees>41.020760</LatitudeDegrees>
              <LongitudeDegrees>-1.345220</LongitudeDegrees>
            </Position>
            <AltitudeMeters>815.873</AltitudeMeters>
            <DistanceMeters>556041.46315625</DistanceMeters>
          </Trackpoint>
          <Trackpoint>
            <Time>2021-08-03T15:49:01Z</Time>
            <Position>
              <LatitudeDegrees>41.020743</LatitudeDegrees>
              <LongitudeDegrees>-1.345074</LongitudeDegrees>
            </Position>
            <AltitudeMeters>815.820</AltitudeMeters>
            <DistanceMeters>556053.86841976</DistanceMeters>
          </Trackpoint>
          <Trackpoint>
            <Time>2021-08-03T15:49:02Z</Time>
            <Position>
              <LatitudeDegrees>41.020706</LatitudeDegrees>
              <LongitudeDegrees>-1.344985</LongitudeDegrees>
            </Position>
            <AltitudeMeters>815.808</AltitudeMeters>
            <DistanceMeters>556062.40179755</DistanceMeters>
          </Trackpoint>
          <Trackpoint>
            <Time>2021-08-03T15:49:04Z</Time>
            <Position>
              <LatitudeDegrees>41.020658</LatitudeDegrees>
              <LongitudeDegrees>-1.344867</LongitudeDegrees>
            </Position>
            <AltitudeMeters>816.056</AltitudeMeters>
            <DistanceMeters>556073.65915482</DistanceMeters>
          </Trackpoint>
          <Trackpoint>
            <Time>2021-08-03T15:49:05Z</Time>
            <Position>
              <LatitudeDegrees>41.020641</LatitudeDegrees>
              <LongitudeDegrees>-1.344811</LongitudeDegrees>
            </Position>
            <AltitudeMeters>816.198</AltitudeMeters>
            <DistanceMeters>556078.72863187</DistanceMeters>
          </Trackpoint>
          <Trackpoint>
            <Time>2021-08-03T15:49:07Z</Time>
            <Position>
              <LatitudeDegrees>41.020613</LatitudeDegrees>
              <LongitudeDegrees>-1.344759</LongitudeDegrees>
            </Position>
            <AltitudeMeters>816.158</AltitudeMeters>
            <DistanceMeters>556084.09406603</DistanceMeters>
          </Trackpoint>
          <Trackpoint>
            <Time>2021-08-03T15:49:08Z</Time>
            <Position>
              <LatitudeDegrees>41.020559</LatitudeDegrees>
              <LongitudeDegrees>-1.344621</LongitudeDegrees>
            </Position>
            <AltitudeMeters>816.191</AltitudeMeters>
            <DistanceMeters>556097.14839874</DistanceMeters>
          </Trackpoint>
          <Trackpoint>
            <Time>2021-08-03T15:49:10Z</Time>
            <Position>
              <LatitudeDegrees>41.020542</LatitudeDegrees>
              <LongitudeDegrees>-1.344548</LongitudeDegrees>
            </Position>
            <AltitudeMeters>816.079</AltitudeMeters>
            <DistanceMeters>556103.56393367</DistanceMeters>
          </Trackpoint>
          <Trackpoint>
            <Time>2021-08-03T15:49:12Z</Time>
            <Position>
              <LatitudeDegrees>41.020486</LatitudeDegrees>
              <LongitudeDegrees>-1.344423</LongitudeDegrees>
            </Position>
            <AltitudeMeters>816.094</AltitudeMeters>
            <DistanceMeters>556115.77181562</DistanceMeters>
          </Trackpoint>
          <Trackpoint>
            <Time>2021-08-03T15:49:14Z</Time>
            <Position>
              <LatitudeDegrees>41.020423</LatitudeDegrees>
              <LongitudeDegrees>-1.344341</LongitudeDegrees>
            </Position>
            <AltitudeMeters>816.029</AltitudeMeters>
            <DistanceMeters>556125.5996179</DistanceMeters>
          </Trackpoint>
          <Trackpoint>
            <Time>2021-08-03T15:49:15Z</Time>
            <Position>
              <LatitudeDegrees>41.020390</LatitudeDegrees>
              <LongitudeDegrees>-1.344293</LongitudeDegrees>
            </Position>
            <AltitudeMeters>816.030</AltitudeMeters>
            <DistanceMeters>556131.05186621</DistanceMeters>
          </Trackpoint>
          <Trackpoint>
            <Time>2021-08-03T15:49:17Z</Time>
            <Position>
              <LatitudeDegrees>41.020350</LatitudeDegrees>
              <LongitudeDegrees>-1.344246</LongitudeDegrees>
            </Position>
            <AltitudeMeters>816.074</AltitudeMeters>
            <DistanceMeters>556137.00147962</DistanceMeters>
          </Trackpoint>
          <Trackpoint>
            <Time>2021-08-03T15:49:19Z</Time>
            <Position>
              <LatitudeDegrees>41.020278</LatitudeDegrees>
              <LongitudeDegrees>-1.344140</LongitudeDegrees>
            </Position>
            <AltitudeMeters>816.056</AltitudeMeters>
            <DistanceMeters>556148.97861593</DistanceMeters>
          </Trackpoint>
          <Trackpoint>
            <Time>2021-08-03T15:49:20Z</Time>
            <Position>
              <LatitudeDegrees>41.020237</LatitudeDegrees>
              <LongitudeDegrees>-1.344076</LongitudeDegrees>
            </Position>
            <AltitudeMeters>816.021</AltitudeMeters>
            <DistanceMeters>556156.02982866</DistanceMeters>
          </Trackpoint>
          <Trackpoint>
            <Time>2021-08-03T15:49:22Z</Time>
            <Position>
              <LatitudeDegrees>41.020197</LatitudeDegrees>
              <LongitudeDegrees>-1.344020</LongitudeDegrees>
            </Position>
            <AltitudeMeters>815.908</AltitudeMeters>
            <DistanceMeters>556162.50560468</DistanceMeters>
          </Trackpoint>
          <Trackpoint>
            <Time>2021-08-03T15:49:24Z</Time>
            <Position>
              <LatitudeDegrees>41.020139</LatitudeDegrees>
              <LongitudeDegrees>-1.343953</LongitudeDegrees>
            </Position>
            <AltitudeMeters>815.964</AltitudeMeters>
            <DistanceMeters>556171.06908824</DistanceMeters>
          </Trackpoint>
          <Trackpoint>
            <Time>2021-08-03T15:49:26Z</Time>
            <Position>
              <LatitudeDegrees>41.020083</LatitudeDegrees>
              <LongitudeDegrees>-1.343877</LongitudeDegrees>
            </Position>
            <AltitudeMeters>815.926</AltitudeMeters>
            <DistanceMeters>556179.99047232</DistanceMeters>
          </Trackpoint>
          <Trackpoint>
            <Time>2021-08-03T15:49:27Z</Time>
            <Position>
              <LatitudeDegrees>41.020055</LatitudeDegrees>
              <LongitudeDegrees>-1.343825</LongitudeDegrees>
            </Position>
            <AltitudeMeters>815.976</AltitudeMeters>
            <DistanceMeters>556185.35590647</DistanceMeters>
          </Trackpoint>
          <Trackpoint>
            <Time>2021-08-03T15:49:29Z</Time>
            <Position>
              <LatitudeDegrees>41.019976</LatitudeDegrees>
              <LongitudeDegrees>-1.343693</LongitudeDegrees>
            </Position>
            <AltitudeMeters>815.979</AltitudeMeters>
            <DistanceMeters>556199.50435991</DistanceMeters>
          </Trackpoint>
          <Trackpoint>
            <Time>2021-08-03T15:49:31Z</Time>
            <Position>
              <LatitudeDegrees>41.019902</LatitudeDegrees>
              <LongitudeDegrees>-1.343617</LongitudeDegrees>
            </Position>
            <AltitudeMeters>816.097</AltitudeMeters>
            <DistanceMeters>556209.92441937</DistanceMeters>
          </Trackpoint>
          <Trackpoint>
            <Time>2021-08-03T15:49:33Z</Time>
            <Position>
              <LatitudeDegrees>41.019814</LatitudeDegrees>
              <LongitudeDegrees>-1.343529</LongitudeDegrees>
            </Position>
            <AltitudeMeters>816.142</AltitudeMeters>
            <DistanceMeters>556222.19427815</DistanceMeters>
          </Trackpoint>
          <Trackpoint>
            <Time>2021-08-03T15:49:34Z</Time>
            <Position>
              <LatitudeDegrees>41.019778</LatitudeDegrees>
              <LongitudeDegrees>-1.343491</LongitudeDegrees>
            </Position>
            <AltitudeMeters>816.157</AltitudeMeters>
            <DistanceMeters>556227.3169144</DistanceMeters>
          </Trackpoint>
          <Trackpoint>
            <Time>2021-08-03T15:49:36Z</Time>
            <Position>
              <LatitudeDegrees>41.019710</LatitudeDegrees>
              <LongitudeDegrees>-1.343418</LongitudeDegrees>
            </Position>
            <AltitudeMeters>816.298</AltitudeMeters>
            <DistanceMeters>556237.05703674</DistanceMeters>
          </Trackpoint>
          <Trackpoint>
            <Time>2021-08-03T15:49:37Z</Time>
            <Position>
              <LatitudeDegrees>41.019671</LatitudeDegrees>
              <LongitudeDegrees>-1.343380</LongitudeDegrees>
            </Position>
            <AltitudeMeters>816.245</AltitudeMeters>
            <DistanceMeters>556242.44430559</DistanceMeters>
          </Trackpoint>
          <Trackpoint>
            <Time>2021-08-03T15:49:39Z</Time>
            <Position>
              <LatitudeDegrees>41.019607</LatitudeDegrees>
              <LongitudeDegrees>-1.343309</LongitudeDegrees>
            </Position>
            <AltitudeMeters>816.447</AltitudeMeters>
            <DistanceMeters>556251.7336226</DistanceMeters>
          </Trackpoint>
          <Trackpoint>
            <Time>2021-08-03T15:49:41Z</Time>
            <Position>
              <LatitudeDegrees>41.019556</LatitudeDegrees>
              <LongitudeDegrees>-1.343247</LongitudeDegrees>
            </Position>
            <AltitudeMeters>816.611</AltitudeMeters>
            <DistanceMeters>556259.43606391</DistanceMeters>
          </Trackpoint>
          <Trackpoint>
            <Time>2021-08-03T15:49:43Z</Time>
            <Position>
              <LatitudeDegrees>41.019500</LatitudeDegrees>
              <LongitudeDegrees>-1.343154</LongitudeDegrees>
            </Position>
            <AltitudeMeters>817.008</AltitudeMeters>
            <DistanceMeters>556269.42788683</DistanceMeters>
          </Trackpoint>
          <Trackpoint>
            <Time>2021-08-03T15:49:46Z</Time>
            <Position>
              <LatitudeDegrees>41.019457</LatitudeDegrees>
              <LongitudeDegrees>-1.343124</LongitudeDegrees>
            </Position>
            <AltitudeMeters>817.151</AltitudeMeters>
            <DistanceMeters>556274.83606745</DistanceMeters>
          </Trackpoint>
          <Trackpoint>
            <Time>2021-08-03T15:49:50Z</Time>
            <Position>
              <LatitudeDegrees>41.019401</LatitudeDegrees>
              <LongitudeDegrees>-1.343097</LongitudeDegrees>
            </Position>
            <AltitudeMeters>817.283</AltitudeMeters>
            <DistanceMeters>556281.46822414</DistanceMeters>
          </Trackpoint>
          <Trackpoint>
            <Time>2021-08-03T15:49:53Z</Time>
            <Position>
              <LatitudeDegrees>41.019350</LatitudeDegrees>
              <LongitudeDegrees>-1.343048</LongitudeDegrees>
            </Position>
            <AltitudeMeters>817.223</AltitudeMeters>
            <DistanceMeters>556288.47962458</DistanceMeters>
          </Trackpoint>
          <Trackpoint>
            <Time>2021-08-03T15:49:55Z</Time>
            <Position>
              <LatitudeDegrees>41.019311</LatitudeDegrees>
              <LongitudeDegrees>-1.343005</LongitudeDegrees>
            </Position>
            <AltitudeMeters>817.276</AltitudeMeters>
            <DistanceMeters>556294.12552308</DistanceMeters>
          </Trackpoint>
          <Trackpoint>
            <Time>2021-08-03T15:49:57Z</Time>
            <Position>
              <LatitudeDegrees>41.019263</LatitudeDegrees>
              <LongitudeDegrees>-1.342964</LongitudeDegrees>
            </Position>
            <AltitudeMeters>817.294</AltitudeMeters>
            <DistanceMeters>556300.48166672</DistanceMeters>
          </Trackpoint>
          <Trackpoint>
            <Time>2021-08-03T15:49:59Z</Time>
            <Position>
              <LatitudeDegrees>41.019210</LatitudeDegrees>
              <LongitudeDegrees>-1.342927</LongitudeDegrees>
            </Position>
            <AltitudeMeters>817.129</AltitudeMeters>
            <DistanceMeters>556307.14845277</DistanceMeters>
          </Trackpoint>
          <Trackpoint>
            <Time>2021-08-03T15:50:01Z</Time>
            <Position>
              <LatitudeDegrees>41.019153</LatitudeDegrees>
              <LongitudeDegrees>-1.342886</LongitudeDegrees>
            </Position>
            <AltitudeMeters>817.114</AltitudeMeters>
            <DistanceMeters>556314.36673103</DistanceMeters>
          </Trackpoint>
          <Trackpoint>
            <Time>2021-08-03T15:50:03Z</Time>
            <Position>
              <LatitudeDegrees>41.019100</LatitudeDegrees>
              <LongitudeDegrees>-1.342842</LongitudeDegrees>
            </Position>
            <AltitudeMeters>817.055</AltitudeMeters>
            <DistanceMeters>556321.32772164</DistanceMeters>
          </Trackpoint>
          <Trackpoint>
            <Time>2021-08-03T15:50:06Z</Time>
            <Position>
              <LatitudeDegrees>41.019039</LatitudeDegrees>
              <LongitudeDegrees>-1.342801</LongitudeDegrees>
            </Position>
            <AltitudeMeters>816.919</AltitudeMeters>
            <DistanceMeters>556328.93994868</DistanceMeters>
          </Trackpoint>
          <Trackpoint>
            <Time>2021-08-03T15:50:08Z</Time>
            <Position>
              <LatitudeDegrees>41.018995</LatitudeDegrees>
              <LongitudeDegrees>-1.342766</LongitudeDegrees>
            </Position>
            <AltitudeMeters>816.909</AltitudeMeters>
            <DistanceMeters>556334.65262724</DistanceMeters>
          </Trackpoint>
          <Trackpoint>
            <Time>2021-08-03T15:50:10Z</Time>
            <Position>
              <LatitudeDegrees>41.018947</LatitudeDegrees>
              <LongitudeDegrees>-1.342697</LongitudeDegrees>
            </Position>
            <AltitudeMeters>816.919</AltitudeMeters>
            <DistanceMeters>556342.53469079</DistanceMeters>
          </Trackpoint>
          <Trackpoint>
            <Time>2021-08-03T15:50:12Z</Time>
            <Position>
              <LatitudeDegrees>41.018874</LatitudeDegrees>
              <LongitudeDegrees>-1.342662</LongitudeDegrees>
            </Position>
            <AltitudeMeters>816.908</AltitudeMeters>
            <DistanceMeters>556351.17480896</DistanceMeters>
          </Trackpoint>
          <Trackpoint>
            <Time>2021-08-03T15:50:14Z</Time>
            <Position>
              <LatitudeDegrees>41.018793</LatitudeDegrees>
              <LongitudeDegrees>-1.342626</LongitudeDegrees>
            </Position>
            <AltitudeMeters>816.998</AltitudeMeters>
            <DistanceMeters>556360.68318029</DistanceMeters>
          </Trackpoint>
          <Trackpoint>
            <Time>2021-08-03T15:50:16Z</Time>
            <Position>
              <LatitudeDegrees>41.018714</LatitudeDegrees>
              <LongitudeDegrees>-1.342575</LongitudeDegrees>
            </Position>
            <AltitudeMeters>817.270</AltitudeMeters>
            <DistanceMeters>556370.46354837</DistanceMeters>
          </Trackpoint>
          <Trackpoint>
            <Time>2021-08-03T15:50:18Z</Time>
            <Position>
              <LatitudeDegrees>41.018643</LatitudeDegrees>
              <LongitudeDegrees>-1.342523</LongitudeDegrees>
            </Position>
            <AltitudeMeters>817.330</AltitudeMeters>
            <DistanceMeters>556379.49258653</DistanceMeters>
          </Trackpoint>
          <Trackpoint>
            <Time>2021-08-03T15:50:20Z</Time>
            <Position>
              <LatitudeDegrees>41.018578</LatitudeDegrees>
              <LongitudeDegrees>-1.342481</LongitudeDegrees>
            </Position>
            <AltitudeMeters>817.483</AltitudeMeters>
            <DistanceMeters>556387.54129876</DistanceMeters>
          </Trackpoint>
          <Trackpoint>
            <Time>2021-08-03T15:50:22Z</Time>
            <Position>
              <LatitudeDegrees>41.018512</LatitudeDegrees>
              <LongitudeDegrees>-1.342440</LongitudeDegrees>
            </Position>
            <AltitudeMeters>817.461</AltitudeMeters>
            <DistanceMeters>556395.65370882</DistanceMeters>
          </Trackpoint>
          <Trackpoint>
            <Time>2021-08-03T15:50:24Z</Time>
            <Position>
              <LatitudeDegrees>41.018449</LatitudeDegrees>
              <LongitudeDegrees>-1.342403</LongitudeDegrees>
            </Position>
            <AltitudeMeters>817.496</AltitudeMeters>
            <DistanceMeters>556403.32325366</DistanceMeters>
          </Trackpoint>
          <Trackpoint>
            <Time>2021-08-03T15:50:26Z</Time>
            <Position>
              <LatitudeDegrees>41.018379</LatitudeDegrees>
              <LongitudeDegrees>-1.342362</LongitudeDegrees>
            </Position>
            <AltitudeMeters>817.361</AltitudeMeters>
            <DistanceMeters>556411.84180367</DistanceMeters>
          </Trackpoint>
          <Trackpoint>
            <Time>2021-08-03T15:50:28Z</Time>
            <Position>
              <LatitudeDegrees>41.018316</LatitudeDegrees>
              <LongitudeDegrees>-1.342316</LongitudeDegrees>
            </Position>
            <AltitudeMeters>817.372</AltitudeMeters>
            <DistanceMeters>556419.84776911</DistanceMeters>
          </Trackpoint>
          <Trackpoint>
            <Time>2021-08-03T15:50:30Z</Time>
            <Position>
              <LatitudeDegrees>41.018250</LatitudeDegrees>
              <LongitudeDegrees>-1.342269</LongitudeDegrees>
            </Position>
            <AltitudeMeters>817.217</AltitudeMeters>
            <DistanceMeters>556428.18632945</DistanceMeters>
          </Trackpoint>
          <Trackpoint>
            <Time>2021-08-03T15:50:32Z</Time>
            <Position>
              <LatitudeDegrees>41.018178</LatitudeDegrees>
              <LongitudeDegrees>-1.342224</LongitudeDegrees>
            </Position>
            <AltitudeMeters>817.187</AltitudeMeters>
            <DistanceMeters>556437.0467744</DistanceMeters>
          </Trackpoint>
          <Trackpoint>
            <Time>2021-08-03T15:50:34Z</Time>
            <Position>
              <LatitudeDegrees>41.018103</LatitudeDegrees>
              <LongitudeDegrees>-1.342168</LongitudeDegrees>
            </Position>
            <AltitudeMeters>817.215</AltitudeMeters>
            <DistanceMeters>556446.62799338</DistanceMeters>
          </Trackpoint>
          <Trackpoint>
            <Time>2021-08-03T15:50:36Z</Time>
            <Position>
              <LatitudeDegrees>41.018030</LatitudeDegrees>
              <LongitudeDegrees>-1.342108</LongitudeDegrees>
            </Position>
            <AltitudeMeters>817.108</AltitudeMeters>
            <DistanceMeters>556456.18845538</DistanceMeters>
          </Trackpoint>
          <Trackpoint>
            <Time>2021-08-03T15:50:38Z</Time>
            <Position>
              <LatitudeDegrees>41.017956</LatitudeDegrees>
              <LongitudeDegrees>-1.342049</LongitudeDegrees>
            </Position>
            <AltitudeMeters>817.248</AltitudeMeters>
            <DistanceMeters>556465.7997863</DistanceMeters>
          </Trackpoint>
          <Trackpoint>
            <Time>2021-08-03T15:50:40Z</Time>
            <Position>
              <LatitudeDegrees>41.017884</LatitudeDegrees>
              <LongitudeDegrees>-1.341991</LongitudeDegrees>
            </Position>
            <AltitudeMeters>817.230</AltitudeMeters>
            <DistanceMeters>556475.1771465</DistanceMeters>
          </Trackpoint>
          <Trackpoint>
            <Time>2021-08-03T15:50:42Z</Time>
            <Position>
              <LatitudeDegrees>41.017817</LatitudeDegrees>
              <LongitudeDegrees>-1.341931</LongitudeDegrees>
            </Position>
            <AltitudeMeters>817.220</AltitudeMeters>
            <DistanceMeters>556484.17763626</DistanceMeters>
          </Trackpoint>
          <Trackpoint>
            <Time>2021-08-03T15:50:44Z</Time>
            <Position>
              <LatitudeDegrees>41.017749</LatitudeDegrees>
              <LongitudeDegrees>-1.341875</LongitudeDegrees>
            </Position>
            <AltitudeMeters>817.023</AltitudeMeters>
            <DistanceMeters>556493.08787936</DistanceMeters>
          </Trackpoint>
          <Trackpoint>
            <Time>2021-08-03T15:50:48Z</Time>
            <Position>
              <LatitudeDegrees>41.017769</LatitudeDegrees>
              <LongitudeDegrees>-1.341944</LongitudeDegrees>
            </Position>
            <AltitudeMeters>817.161</AltitudeMeters>
            <DistanceMeters>556499.29596813</DistanceMeters>
          </Trackpoint>
          <Trackpoint>
            <Time>2021-08-03T15:50:51Z</Time>
            <Position>
              <LatitudeDegrees>41.017772</LatitudeDegrees>
              <LongitudeDegrees>-1.342013</LongitudeDegrees>
            </Position>
            <AltitudeMeters>817.276</AltitudeMeters>
            <DistanceMeters>556505.09960364</DistanceMeters>
          </Trackpoint>
          <Trackpoint>
            <Time>2021-08-03T15:50:54Z</Time>
            <Position>
              <LatitudeDegrees>41.017703</LatitudeDegrees>
              <LongitudeDegrees>-1.341991</LongitudeDegrees>
            </Position>
            <AltitudeMeters>817.341</AltitudeMeters>
            <DistanceMeters>556512.99826164</DistanceMeters>
          </Trackpoint>
          <Trackpoint>
            <Time>2021-08-03T15:50:55Z</Time>
            <Position>
              <LatitudeDegrees>41.017660</LatitudeDegrees>
              <LongitudeDegrees>-1.341963</LongitudeDegrees>
            </Position>
            <AltitudeMeters>817.392</AltitudeMeters>
            <DistanceMeters>556518.32992936</DistanceMeters>
          </Trackpoint>
          <Trackpoint>
            <Time>2021-08-03T15:50:57Z</Time>
            <Position>
              <LatitudeDegrees>41.017311</LatitudeDegrees>
              <LongitudeDegrees>-1.341552</LongitudeDegrees>
            </Position>
            <AltitudeMeters>817.318</AltitudeMeters>
            <DistanceMeters>556570.29312266</DistanceMeters>
          </Trackpoint>
          <Trackpoint>
            <Time>2021-08-03T15:50:59Z</Time>
            <Position>
              <LatitudeDegrees>41.017241</LatitudeDegrees>
              <LongitudeDegrees>-1.341504</LongitudeDegrees>
            </Position>
            <AltitudeMeters>817.698</AltitudeMeters>
            <DistanceMeters>556579.06548332</DistanceMeters>
          </Trackpoint>
          <Trackpoint>
            <Time>2021-08-03T15:51:01Z</Time>
            <Position>
              <LatitudeDegrees>41.017192</LatitudeDegrees>
              <LongitudeDegrees>-1.341459</LongitudeDegrees>
            </Position>
            <AltitudeMeters>817.817</AltitudeMeters>
            <DistanceMeters>556585.70036257</DistanceMeters>
          </Trackpoint>
          <Trackpoint>
            <Time>2021-08-03T15:51:04Z</Time>
            <Position>
              <LatitudeDegrees>41.017141</LatitudeDegrees>
              <LongitudeDegrees>-1.341420</LongitudeDegrees>
            </Position>
            <AltitudeMeters>817.908</AltitudeMeters>
            <DistanceMeters>556592.25376196</DistanceMeters>
          </Trackpoint>
          <Trackpoint>
            <Time>2021-08-03T15:51:06Z</Time>
            <Position>
              <LatitudeDegrees>41.017092</LatitudeDegrees>
              <LongitudeDegrees>-1.341398</LongitudeDegrees>
            </Position>
            <AltitudeMeters>818.128</AltitudeMeters>
            <DistanceMeters>556598.01209858</DistanceMeters>
          </Trackpoint>
          <Trackpoint>
            <Time>2021-08-03T15:51:08Z</Time>
            <Position>
              <LatitudeDegrees>41.017014</LatitudeDegrees>
              <LongitudeDegrees>-1.341360</LongitudeDegrees>
            </Position>
            <AltitudeMeters>818.250</AltitudeMeters>
            <DistanceMeters>556607.26147392</DistanceMeters>
          </Trackpoint>
          <Trackpoint>
            <Time>2021-08-03T15:51:10Z</Time>
            <Position>
              <LatitudeDegrees>41.016929</LatitudeDegrees>
              <LongitudeDegrees>-1.341296</LongitudeDegrees>
            </Position>
            <AltitudeMeters>818.490</AltitudeMeters>
            <DistanceMeters>556618.14234394</DistanceMeters>
          </Trackpoint>
          <Trackpoint>
            <Time>2021-08-03T15:51:12Z</Time>
            <Position>
              <LatitudeDegrees>41.016749</LatitudeDegrees>
              <LongitudeDegrees>-1.341092</LongitudeDegrees>
            </Position>
            <AltitudeMeters>818.713</AltitudeMeters>
            <DistanceMeters>556644.50296689</DistanceMeters>
          </Trackpoint>
          <Trackpoint>
            <Time>2021-08-03T15:51:14Z</Time>
            <Position>
              <LatitudeDegrees>41.016677</LatitudeDegrees>
              <LongitudeDegrees>-1.341036</LongitudeDegrees>
            </Position>
            <AltitudeMeters>818.911</AltitudeMeters>
            <DistanceMeters>556653.79422788</DistanceMeters>
          </Trackpoint>
          <Trackpoint>
            <Time>2021-08-03T15:51:15Z</Time>
            <Position>
              <LatitudeDegrees>41.016634</LatitudeDegrees>
              <LongitudeDegrees>-1.341004</LongitudeDegrees>
            </Position>
            <AltitudeMeters>818.976</AltitudeMeters>
            <DistanceMeters>556659.28279191</DistanceMeters>
          </Trackpoint>
          <Trackpoint>
            <Time>2021-08-03T15:51:16Z</Time>
            <Position>
              <LatitudeDegrees>41.016591</LatitudeDegrees>
              <LongitudeDegrees>-1.340974</LongitudeDegrees>
            </Position>
            <AltitudeMeters>818.921</AltitudeMeters>
            <DistanceMeters>556664.69180731</DistanceMeters>
          </Trackpoint>
          <Trackpoint>
            <Time>2021-08-03T15:51:18Z</Time>
            <Position>
              <LatitudeDegrees>41.016514</LatitudeDegrees>
              <LongitudeDegrees>-1.340921</LongitudeDegrees>
            </Position>
            <AltitudeMeters>818.922</AltitudeMeters>
            <DistanceMeters>556674.34906518</DistanceMeters>
          </Trackpoint>
          <Trackpoint>
            <Time>2021-08-03T15:51:20Z</Time>
            <Position>
              <LatitudeDegrees>41.016439</LatitudeDegrees>
              <LongitudeDegrees>-1.340863</LongitudeDegrees>
            </Position>
            <AltitudeMeters>818.928</AltitudeMeters>
            <DistanceMeters>556684.0138006</DistanceMeters>
          </Trackpoint>
          <Trackpoint>
            <Time>2021-08-03T15:51:21Z</Time>
            <Position>
              <LatitudeDegrees>41.016396</LatitudeDegrees>
              <LongitudeDegrees>-1.340827</LongitudeDegrees>
            </Position>
            <AltitudeMeters>818.789</AltitudeMeters>
            <DistanceMeters>556689.67487305</DistanceMeters>
          </Trackpoint>
          <Trackpoint>
            <Time>2021-08-03T15:51:23Z</Time>
            <Position>
              <LatitudeDegrees>41.016308</LatitudeDegrees>
              <LongitudeDegrees>-1.340766</LongitudeDegrees>
            </Position>
            <AltitudeMeters>818.517</AltitudeMeters>
            <DistanceMeters>556700.72824061</DistanceMeters>
          </Trackpoint>
          <Trackpoint>
            <Time>2021-08-03T15:51:25Z</Time>
            <Position>
              <LatitudeDegrees>41.016232</LatitudeDegrees>
              <LongitudeDegrees>-1.340712</LongitudeDegrees>
            </Position>
            <AltitudeMeters>818.608</AltitudeMeters>
            <DistanceMeters>556710.32640917</DistanceMeters>
          </Trackpoint>
          <Trackpoint>
            <Time>2021-08-03T15:51:27Z</Time>
            <Position>
              <LatitudeDegrees>41.016162</LatitudeDegrees>
              <LongitudeDegrees>-1.340665</LongitudeDegrees>
            </Position>
            <AltitudeMeters>818.989</AltitudeMeters>
            <DistanceMeters>556719.06008284</DistanceMeters>
          </Trackpoint>
          <Trackpoint>
            <Time>2021-08-03T15:51:29Z</Time>
            <Position>
              <LatitudeDegrees>41.016101</LatitudeDegrees>
              <LongitudeDegrees>-1.340616</LongitudeDegrees>
            </Position>
            <AltitudeMeters>818.931</AltitudeMeters>
            <DistanceMeters>556726.99922219</DistanceMeters>
          </Trackpoint>
          <Trackpoint>
            <Time>2021-08-03T15:51:31Z</Time>
            <Position>
              <LatitudeDegrees>41.016031</LatitudeDegrees>
              <LongitudeDegrees>-1.340560</LongitudeDegrees>
            </Position>
            <AltitudeMeters>818.981</AltitudeMeters>
            <DistanceMeters>556736.09948763</DistanceMeters>
          </Trackpoint>
          <Trackpoint>
            <Time>2021-08-03T15:51:32Z</Time>
            <Position>
              <LatitudeDegrees>41.015989</LatitudeDegrees>
              <LongitudeDegrees>-1.340523</LongitudeDegrees>
            </Position>
            <AltitudeMeters>818.944</AltitudeMeters>
            <DistanceMeters>556741.71169812</DistanceMeters>
          </Trackpoint>
          <Trackpoint>
            <Time>2021-08-03T15:51:34Z</Time>
            <Position>
              <LatitudeDegrees>41.015899</LatitudeDegrees>
              <LongitudeDegrees>-1.340442</LongitudeDegrees>
            </Position>
            <AltitudeMeters>819.142</AltitudeMeters>
            <DistanceMeters>556753.82042849</DistanceMeters>
          </Trackpoint>
          <Trackpoint>
            <Time>2021-08-03T15:51:36Z</Time>
            <Position>
              <LatitudeDegrees>41.015830</LatitudeDegrees>
              <LongitudeDegrees>-1.340396</LongitudeDegrees>
            </Position>
            <AltitudeMeters>819.437</AltitudeMeters>
            <DistanceMeters>556762.4175894</DistanceMeters>
          </Trackpoint>
          <Trackpoint>
            <Time>2021-08-03T15:51:37Z</Time>
            <Position>
              <LatitudeDegrees>41.015787</LatitudeDegrees>
              <LongitudeDegrees>-1.340364</LongitudeDegrees>
            </Position>
            <AltitudeMeters>819.532</AltitudeMeters>
            <DistanceMeters>556767.90615343</DistanceMeters>
          </Trackpoint>
          <Trackpoint>
            <Time>2021-08-03T15:51:39Z</Time>
            <Position>
              <LatitudeDegrees>41.015721</LatitudeDegrees>
              <LongitudeDegrees>-1.340322</LongitudeDegrees>
            </Position>
            <AltitudeMeters>819.623</AltitudeMeters>
            <DistanceMeters>556776.05521363</DistanceMeters>
          </Trackpoint>
          <Trackpoint>
            <Time>2021-08-03T15:51:41Z</Time>
            <Position>
              <LatitudeDegrees>41.015657</LatitudeDegrees>
              <LongitudeDegrees>-1.340272</LongitudeDegrees>
            </Position>
            <AltitudeMeters>819.658</AltitudeMeters>
            <DistanceMeters>556784.32417601</DistanceMeters>
          </Trackpoint>
          <Trackpoint>
            <Time>2021-08-03T15:51:43Z</Time>
            <Position>
              <LatitudeDegrees>41.015566</LatitudeDegrees>
              <LongitudeDegrees>-1.340210</LongitudeDegrees>
            </Position>
            <AltitudeMeters>819.752</AltitudeMeters>
            <DistanceMeters>556795.71272236</DistanceMeters>
          </Trackpoint>
          <Trackpoint>
            <Time>2021-08-03T15:51:45Z</Time>
            <Position>
              <LatitudeDegrees>41.015490</LatitudeDegrees>
              <LongitudeDegrees>-1.340146</LongitudeDegrees>
            </Position>
            <AltitudeMeters>819.617</AltitudeMeters>
            <DistanceMeters>556805.73432453</DistanceMeters>
          </Trackpoint>
          <Trackpoint>
            <Time>2021-08-03T15:51:47Z</Time>
            <Position>
              <LatitudeDegrees>41.015422</LatitudeDegrees>
              <LongitudeDegrees>-1.340083</LongitudeDegrees>
            </Position>
            <AltitudeMeters>819.408</AltitudeMeters>
            <DistanceMeters>556814.96904391</DistanceMeters>
          </Trackpoint>
          <Trackpoint>
            <Time>2021-08-03T15:51:48Z</Time>
            <Position>
              <LatitudeDegrees>41.015377</LatitudeDegrees>
              <LongitudeDegrees>-1.340051</LongitudeDegrees>
            </Position>
            <AltitudeMeters>819.432</AltitudeMeters>
            <DistanceMeters>556820.65319851</DistanceMeters>
          </Trackpoint>
          <Trackpoint>
            <Time>2021-08-03T15:51:50Z</Time>
            <Position>
              <LatitudeDegrees>41.015312</LatitudeDegrees>
              <LongitudeDegrees>-1.339999</LongitudeDegrees>
            </Position>
            <AltitudeMeters>819.664</AltitudeMeters>
            <DistanceMeters>556829.10309877</DistanceMeters>
          </Trackpoint>
          <Trackpoint>
            <Time>2021-08-03T15:51:52Z</Time>
            <Position>
              <LatitudeDegrees>41.015241</LatitudeDegrees>
              <LongitudeDegrees>-1.339942</LongitudeDegrees>
            </Position>
            <AltitudeMeters>819.644</AltitudeMeters>
            <DistanceMeters>556838.34172868</DistanceMeters>
          </Trackpoint>
          <Trackpoint>
            <Time>2021-08-03T15:51:54Z</Time>
            <Position>
              <LatitudeDegrees>41.015170</LatitudeDegrees>
              <LongitudeDegrees>-1.339887</LongitudeDegrees>
            </Position>
            <AltitudeMeters>819.857</AltitudeMeters>
            <DistanceMeters>556847.49591403</DistanceMeters>
          </Trackpoint>
          <Trackpoint>
            <Time>2021-08-03T15:51:56Z</Time>
            <Position>
              <LatitudeDegrees>41.015102</LatitudeDegrees>
              <LongitudeDegrees>-1.339838</LongitudeDegrees>
            </Position>
            <AltitudeMeters>819.955</AltitudeMeters>
            <DistanceMeters>556856.11143655</DistanceMeters>
          </Trackpoint>
          <Trackpoint>
            <Time>2021-08-03T15:51:58Z</Time>
            <Position>
              <LatitudeDegrees>41.015035</LatitudeDegrees>
              <LongitudeDegrees>-1.339789</LongitudeDegrees>
            </Position>
            <AltitudeMeters>819.930</AltitudeMeters>
            <DistanceMeters>556864.62892645</DistanceMeters>
          </Trackpoint>
          <Trackpoint>
            <Time>2021-08-03T15:52:00Z</Time>
            <Position>
              <LatitudeDegrees>41.014964</LatitudeDegrees>
              <LongitudeDegrees>-1.339743</LongitudeDegrees>
            </Position>
            <AltitudeMeters>820.215</AltitudeMeters>
            <DistanceMeters>556873.42544423</DistanceMeters>
          </Trackpoint>
          <Trackpoint>
            <Time>2021-08-03T15:52:02Z</Time>
            <Position>
              <LatitudeDegrees>41.014891</LatitudeDegrees>
              <LongitudeDegrees>-1.339702</LongitudeDegrees>
            </Position>
            <AltitudeMeters>820.426</AltitudeMeters>
            <DistanceMeters>556882.25014701</DistanceMeters>
          </Trackpoint>
          <Trackpoint>
            <Time>2021-08-03T15:52:04Z</Time>
            <Position>
              <LatitudeDegrees>41.014821</LatitudeDegrees>
              <LongitudeDegrees>-1.339660</LongitudeDegrees>
            </Position>
            <AltitudeMeters>820.412</AltitudeMeters>
            <DistanceMeters>556890.80255131</DistanceMeters>
          </Trackpoint>
          <Trackpoint>
            <Time>2021-08-03T15:52:06Z</Time>
            <Position>
              <LatitudeDegrees>41.014750</LatitudeDegrees>
              <LongitudeDegrees>-1.339617</LongitudeDegrees>
            </Position>
            <AltitudeMeters>820.432</AltitudeMeters>
            <DistanceMeters>556899.49113227</DistanceMeters>
          </Trackpoint>
          <Trackpoint>
            <Time>2021-08-03T15:52:08Z</Time>
            <Position>
              <LatitudeDegrees>41.014678</LatitudeDegrees>
              <LongitudeDegrees>-1.339570</LongitudeDegrees>
            </Position>
            <AltitudeMeters>820.505</AltitudeMeters>
            <DistanceMeters>556908.42465428</DistanceMeters>
          </Trackpoint>
          <Trackpoint>
            <Time>2021-08-03T15:52:10Z</Time>
            <Position>
              <LatitudeDegrees>41.014618</LatitudeDegrees>
              <LongitudeDegrees>-1.339533</LongitudeDegrees>
            </Position>
            <AltitudeMeters>820.508</AltitudeMeters>
            <DistanceMeters>556915.79029745</DistanceMeters>
          </Trackpoint>
          <Trackpoint>
            <Time>2021-08-03T15:52:12Z</Time>
            <Position>
              <LatitudeDegrees>41.014564</LatitudeDegrees>
              <LongitudeDegrees>-1.339500</LongitudeDegrees>
            </Position>
            <AltitudeMeters>820.758</AltitudeMeters>
            <DistanceMeters>556922.40882454</DistanceMeters>
          </Trackpoint>
          <Trackpoint>
            <Time>2021-08-03T15:52:14Z</Time>
            <Position>
              <LatitudeDegrees>41.014499</LatitudeDegrees>
              <LongitudeDegrees>-1.339459</LongitudeDegrees>
            </Position>
            <AltitudeMeters>820.710</AltitudeMeters>
            <DistanceMeters>556930.42155463</DistanceMeters>
          </Trackpoint>
          <Trackpoint>
            <Time>2021-08-03T15:52:16Z</Time>
            <Position>
              <LatitudeDegrees>41.014430</LatitudeDegrees>
              <LongitudeDegrees>-1.339406</LongitudeDegrees>
            </Position>
            <AltitudeMeters>820.720</AltitudeMeters>
            <DistanceMeters>556939.29829091</DistanceMeters>
          </Trackpoint>
          <Trackpoint>
            <Time>2021-08-03T15:52:18Z</Time>
            <Position>
              <LatitudeDegrees>41.014357</LatitudeDegrees>
              <LongitudeDegrees>-1.339350</LongitudeDegrees>
            </Position>
            <AltitudeMeters>820.753</AltitudeMeters>
            <DistanceMeters>556948.68623776</DistanceMeters>
          </Trackpoint>
          <Trackpoint>
            <Time>2021-08-03T15:52:19Z</Time>
            <Position>
              <LatitudeDegrees>41.014317</LatitudeDegrees>
              <LongitudeDegrees>-1.339323</LongitudeDegrees>
            </Position>
            <AltitudeMeters>820.721</AltitudeMeters>
            <DistanceMeters>556953.68214922</DistanceMeters>
          </Trackpoint>
          <Trackpoint>
            <Time>2021-08-03T15:52:21Z</Time>
            <Position>
              <LatitudeDegrees>41.014250</LatitudeDegrees>
              <LongitudeDegrees>-1.339276</LongitudeDegrees>
            </Position>
            <AltitudeMeters>820.786</AltitudeMeters>
            <DistanceMeters>556962.11921581</DistanceMeters>
          </Trackpoint>
          <Trackpoint>
            <Time>2021-08-03T15:52:23Z</Time>
            <Position>
              <LatitudeDegrees>41.014177</LatitudeDegrees>
              <LongitudeDegrees>-1.339224</LongitudeDegrees>
            </Position>
            <AltitudeMeters>820.881</AltitudeMeters>
            <DistanceMeters>556971.34366215</DistanceMeters>
          </Trackpoint>
          <Trackpoint>
            <Time>2021-08-03T15:52:25Z</Time>
            <Position>
              <LatitudeDegrees>41.014100</LatitudeDegrees>
              <LongitudeDegrees>-1.339164</LongitudeDegrees>
            </Position>
            <AltitudeMeters>821.142</AltitudeMeters>
            <DistanceMeters>556981.28565475</DistanceMeters>
          </Trackpoint>
          <Trackpoint>
            <Time>2021-08-03T15:52:27Z</Time>
            <Position>
              <LatitudeDegrees>41.014016</LatitudeDegrees>
              <LongitudeDegrees>-1.339094</LongitudeDegrees>
            </Position>
            <AltitudeMeters>821.285</AltitudeMeters>
            <DistanceMeters>556992.32962335</DistanceMeters>
          </Trackpoint>
          <Trackpoint>
            <Time>2021-08-03T15:52:29Z</Time>
            <Position>
              <LatitudeDegrees>41.013936</LatitudeDegrees>
              <LongitudeDegrees>-1.339031</LongitudeDegrees>
            </Position>
            <AltitudeMeters>821.389</AltitudeMeters>
            <DistanceMeters>557002.68709931</DistanceMeters>
          </Trackpoint>
          <Trackpoint>
            <Time>2021-08-03T15:52:31Z</Time>
            <Position>
              <LatitudeDegrees>41.013860</LatitudeDegrees>
              <LongitudeDegrees>-1.338971</LongitudeDegrees>
            </Position>
            <AltitudeMeters>821.317</AltitudeMeters>
            <DistanceMeters>557012.53326103</DistanceMeters>
          </Trackpoint>
          <Trackpoint>
            <Time>2021-08-03T15:52:33Z</Time>
            <Position>
              <LatitudeDegrees>41.013790</LatitudeDegrees>
              <LongitudeDegrees>-1.338927</LongitudeDegrees>
            </Position>
            <AltitudeMeters>821.308</AltitudeMeters>
            <DistanceMeters>557021.15611725</DistanceMeters>
          </Trackpoint>
          <Trackpoint>
            <Time>2021-08-03T15:52:35Z</Time>
            <Position>
              <LatitudeDegrees>41.013726</LatitudeDegrees>
              <LongitudeDegrees>-1.338894</LongitudeDegrees>
            </Position>
            <AltitudeMeters>821.385</AltitudeMeters>
            <DistanceMeters>557028.79971553</DistanceMeters>
          </Trackpoint>
          <Trackpoint>
            <Time>2021-08-03T15:52:37Z</Time>
            <Position>
              <LatitudeDegrees>41.013657</LatitudeDegrees>
              <LongitudeDegrees>-1.338843</LongitudeDegrees>
            </Position>
            <AltitudeMeters>821.467</AltitudeMeters>
            <DistanceMeters>557037.59315312</DistanceMeters>
          </Trackpoint>
          <Trackpoint>
            <Time>2021-08-03T15:52:39Z</Time>
            <Position>
              <LatitudeDegrees>41.013582</LatitudeDegrees>
              <LongitudeDegrees>-1.338786</LongitudeDegrees>
            </Position>
            <AltitudeMeters>821.517</AltitudeMeters>
            <DistanceMeters>557047.21622092</DistanceMeters>
          </Trackpoint>
          <Trackpoint>
            <Time>2021-08-03T15:52:41Z</Time>
            <Position>
              <LatitudeDegrees>41.013513</LatitudeDegrees>
              <LongitudeDegrees>-1.338733</LongitudeDegrees>
            </Position>
            <AltitudeMeters>821.620</AltitudeMeters>
            <DistanceMeters>557056.0929572</DistanceMeters>
          </Trackpoint>
          <Trackpoint>
            <Time>2021-08-03T15:52:43Z</Time>
            <Position>
              <LatitudeDegrees>41.013442</LatitudeDegrees>
              <LongitudeDegrees>-1.338674</LongitudeDegrees>
            </Position>
            <AltitudeMeters>821.778</AltitudeMeters>
            <DistanceMeters>557065.42010877</DistanceMeters>
          </Trackpoint>
          <Trackpoint>
            <Time>2021-08-03T15:52:45Z</Time>
            <Position>
              <LatitudeDegrees>41.013373</LatitudeDegrees>
              <LongitudeDegrees>-1.338624</LongitudeDegrees>
            </Position>
            <AltitudeMeters>821.723</AltitudeMeters>
            <DistanceMeters>557074.17288939</DistanceMeters>
          </Trackpoint>
          <Trackpoint>
            <Time>2021-08-03T15:52:47Z</Time>
            <Position>
              <LatitudeDegrees>41.013300</LatitudeDegrees>
              <LongitudeDegrees>-1.338566</LongitudeDegrees>
            </Position>
            <AltitudeMeters>821.958</AltitudeMeters>
            <DistanceMeters>557083.64605675</DistanceMeters>
          </Trackpoint>
          <Trackpoint>
            <Time>2021-08-03T15:52:48Z</Time>
            <Position>
              <LatitudeDegrees>41.013259</LatitudeDegrees>
              <LongitudeDegrees>-1.338533</LongitudeDegrees>
            </Position>
            <AltitudeMeters>822.079</AltitudeMeters>
            <DistanceMeters>557088.98534053</DistanceMeters>
          </Trackpoint>
          <Trackpoint>
            <Time>2021-08-03T15:52:50Z</Time>
            <Position>
              <LatitudeDegrees>41.013182</LatitudeDegrees>
              <LongitudeDegrees>-1.338464</LongitudeDegrees>
            </Position>
            <AltitudeMeters>822.096</AltitudeMeters>
            <DistanceMeters>557099.33060351</DistanceMeters>
          </Trackpoint>
          <Trackpoint>
            <Time>2021-08-03T15:52:51Z</Time>
            <Position>
              <LatitudeDegrees>41.013142</LatitudeDegrees>
              <LongitudeDegrees>-1.338433</LongitudeDegrees>
            </Position>
            <AltitudeMeters>822.231</AltitudeMeters>
            <DistanceMeters>557104.48749939</DistanceMeters>
          </Trackpoint>
          <Trackpoint>
            <Time>2021-08-03T15:52:53Z</Time>
            <Position>
              <LatitudeDegrees>41.013065</LatitudeDegrees>
              <LongitudeDegrees>-1.338367</LongitudeDegrees>
            </Position>
            <AltitudeMeters>822.424</AltitudeMeters>
            <DistanceMeters>557114.69435943</DistanceMeters>
          </Trackpoint>
          <Trackpoint>
            <Time>2021-08-03T15:52:55Z</Time>
            <Position>
              <LatitudeDegrees>41.012996</LatitudeDegrees>
              <LongitudeDegrees>-1.338316</LongitudeDegrees>
            </Position>
            <AltitudeMeters>822.408</AltitudeMeters>
            <DistanceMeters>557123.48779702</DistanceMeters>
          </Trackpoint>
          <Trackpoint>
            <Time>2021-08-03T15:52:57Z</Time>
            <Position>
              <LatitudeDegrees>41.012935</LatitudeDegrees>
              <LongitudeDegrees>-1.338278</LongitudeDegrees>
            </Position>
            <AltitudeMeters>822.496</AltitudeMeters>
            <DistanceMeters>557130.98949258</DistanceMeters>
          </Trackpoint>
          <Trackpoint>
            <Time>2021-08-03T15:52:59Z</Time>
            <Position>
              <LatitudeDegrees>41.012859</LatitudeDegrees>
              <LongitudeDegrees>-1.338226</LongitudeDegrees>
            </Position>
            <AltitudeMeters>822.498</AltitudeMeters>
            <DistanceMeters>557140.50925346</DistanceMeters>
          </Trackpoint>
          <Trackpoint>
            <Time>2021-08-03T15:53:01Z</Time>
            <Position>
              <LatitudeDegrees>41.012787</LatitudeDegrees>
              <LongitudeDegrees>-1.338170</LongitudeDegrees>
            </Position>
            <AltitudeMeters>822.418</AltitudeMeters>
            <DistanceMeters>557149.80051445</DistanceMeters>
          </Trackpoint>
          <Trackpoint>
            <Time>2021-08-03T15:53:03Z</Time>
            <Position>
              <LatitudeDegrees>41.012716</LatitudeDegrees>
              <LongitudeDegrees>-1.338118</LongitudeDegrees>
            </Position>
            <AltitudeMeters>822.411</AltitudeMeters>
            <DistanceMeters>557158.82955262</DistanceMeters>
          </Trackpoint>
          <Trackpoint>
            <Time>2021-08-03T15:53:05Z</Time>
            <Position>
              <LatitudeDegrees>41.012647</LatitudeDegrees>
              <LongitudeDegrees>-1.338064</LongitudeDegrees>
            </Position>
            <AltitudeMeters>822.699</AltitudeMeters>
            <DistanceMeters>557167.74789962</DistanceMeters>
          </Trackpoint>
          <Trackpoint>
            <Time>2021-08-03T15:53:07Z</Time>
            <Position>
              <LatitudeDegrees>41.012578</LatitudeDegrees>
              <LongitudeDegrees>-1.338014</LongitudeDegrees>
            </Position>
            <AltitudeMeters>823.094</AltitudeMeters>
            <DistanceMeters>557176.50068024</DistanceMeters>
          </Trackpoint>
          <Trackpoint>
            <Time>2021-08-03T15:53:09Z</Time>
            <Position>
              <LatitudeDegrees>41.012509</LatitudeDegrees>
              <LongitudeDegrees>-1.337963</LongitudeDegrees>
            </Position>
            <AltitudeMeters>823.289</AltitudeMeters>
            <DistanceMeters>557185.29463127</DistanceMeters>
          </Trackpoint>
          <Trackpoint>
            <Time>2021-08-03T15:53:11Z</Time>
            <Position>
              <LatitudeDegrees>41.012441</LatitudeDegrees>
              <LongitudeDegrees>-1.337912</LongitudeDegrees>
            </Position>
            <AltitudeMeters>823.220</AltitudeMeters>
            <DistanceMeters>557193.99152268</DistanceMeters>
          </Trackpoint>
          <Trackpoint>
            <Time>2021-08-03T15:53:13Z</Time>
            <Position>
              <LatitudeDegrees>41.012377</LatitudeDegrees>
              <LongitudeDegrees>-1.337863</LongitudeDegrees>
            </Position>
            <AltitudeMeters>823.421</AltitudeMeters>
            <DistanceMeters>557202.21888271</DistanceMeters>
          </Trackpoint>
          <Trackpoint>
            <Time>2021-08-03T15:53:15Z</Time>
            <Position>
              <LatitudeDegrees>41.012319</LatitudeDegrees>
              <LongitudeDegrees>-1.337815</LongitudeDegrees>
            </Position>
            <AltitudeMeters>823.541</AltitudeMeters>
            <DistanceMeters>557209.8299234</DistanceMeters>
          </Trackpoint>
          <Trackpoint>
            <Time>2021-08-03T15:53:17Z</Time>
            <Position>
              <LatitudeDegrees>41.012263</LatitudeDegrees>
              <LongitudeDegrees>-1.337774</LongitudeDegrees>
            </Position>
            <AltitudeMeters>823.605</AltitudeMeters>
            <DistanceMeters>557216.95058905</DistanceMeters>
          </Trackpoint>
          <Trackpoint>
            <Time>2021-08-03T15:53:19Z</Time>
            <Position>
              <LatitudeDegrees>41.012213</LatitudeDegrees>
              <LongitudeDegrees>-1.337740</LongitudeDegrees>
            </Position>
            <AltitudeMeters>823.608</AltitudeMeters>
            <DistanceMeters>557223.20505075</DistanceMeters>
          </Trackpoint>
          <Trackpoint>
            <Time>2021-08-03T15:53:21Z</Time>
            <Position>
              <LatitudeDegrees>41.012145</LatitudeDegrees>
              <LongitudeDegrees>-1.337687</LongitudeDegrees>
            </Position>
            <AltitudeMeters>823.779</AltitudeMeters>
            <DistanceMeters>557231.98461409</DistanceMeters>
          </Trackpoint>
          <Trackpoint>
            <Time>2021-08-03T15:53:23Z</Time>
            <Position>
              <LatitudeDegrees>41.012076</LatitudeDegrees>
              <LongitudeDegrees>-1.337632</LongitudeDegrees>
            </Position>
            <AltitudeMeters>824.041</AltitudeMeters>
            <DistanceMeters>557240.94639404</DistanceMeters>
          </Trackpoint>
          <Trackpoint>
            <Time>2021-08-03T15:53:25Z</Time>
            <Position>
              <LatitudeDegrees>41.012011</LatitudeDegrees>
              <LongitudeDegrees>-1.337580</LongitudeDegrees>
            </Position>
            <AltitudeMeters>824.111</AltitudeMeters>
            <DistanceMeters>557249.3962943</DistanceMeters>
          </Trackpoint>
          <Trackpoint>
            <Time>2021-08-03T15:53:27Z</Time>
            <Position>
              <LatitudeDegrees>41.011939</LatitudeDegrees>
              <LongitudeDegrees>-1.337528</LongitudeDegrees>
            </Position>
            <AltitudeMeters>824.344</AltitudeMeters>
            <DistanceMeters>557258.52232274</DistanceMeters>
          </Trackpoint>
          <Trackpoint>
            <Time>2021-08-03T15:53:28Z</Time>
            <Position>
              <LatitudeDegrees>41.011899</LatitudeDegrees>
              <LongitudeDegrees>-1.337496</LongitudeDegrees>
            </Position>
            <AltitudeMeters>824.322</AltitudeMeters>
            <DistanceMeters>557263.72194281</DistanceMeters>
          </Trackpoint>
          <Trackpoint>
            <Time>2021-08-03T15:53:30Z</Time>
            <Position>
              <LatitudeDegrees>41.011826</LatitudeDegrees>
              <LongitudeDegrees>-1.337436</LongitudeDegrees>
            </Position>
            <AltitudeMeters>824.457</AltitudeMeters>
            <DistanceMeters>557273.28240482</DistanceMeters>
          </Trackpoint>
          <Trackpoint>
            <Time>2021-08-03T15:53:32Z</Time>
            <Position>
              <LatitudeDegrees>41.011760</LatitudeDegrees>
              <LongitudeDegrees>-1.337385</LongitudeDegrees>
            </Position>
            <AltitudeMeters>824.542</AltitudeMeters>
            <DistanceMeters>557281.7861012</DistanceMeters>
          </Trackpoint>
          <Trackpoint>
            <Time>2021-08-03T15:53:34Z</Time>
            <Position>
              <LatitudeDegrees>41.011679</LatitudeDegrees>
              <LongitudeDegrees>-1.337323</LongitudeDegrees>
            </Position>
            <AltitudeMeters>824.743</AltitudeMeters>
            <DistanceMeters>557292.197491</DistanceMeters>
          </Trackpoint>
          <Trackpoint>
            <Time>2021-08-03T15:53:36Z</Time>
            <Position>
              <LatitudeDegrees>41.011592</LatitudeDegrees>
              <LongitudeDegrees>-1.337262</LongitudeDegrees>
            </Position>
            <AltitudeMeters>824.798</AltitudeMeters>
            <DistanceMeters>557303.15238561</DistanceMeters>
          </Trackpoint>
          <Trackpoint>
            <Time>2021-08-03T15:53:37Z</Time>
            <Position>
              <LatitudeDegrees>41.011550</LatitudeDegrees>
              <LongitudeDegrees>-1.337233</LongitudeDegrees>
            </Position>
            <AltitudeMeters>824.815</AltitudeMeters>
            <DistanceMeters>557308.4227286</DistanceMeters>
          </Trackpoint>
          <Trackpoint>
            <Time>2021-08-03T15:53:39Z</Time>
            <Position>
              <LatitudeDegrees>41.011472</LatitudeDegrees>
              <LongitudeDegrees>-1.337169</LongitudeDegrees>
            </Position>
            <AltitudeMeters>824.926</AltitudeMeters>
            <DistanceMeters>557318.63356904</DistanceMeters>
          </Trackpoint>
          <Trackpoint>
            <Time>2021-08-03T15:53:41Z</Time>
            <Position>
              <LatitudeDegrees>41.011403</LatitudeDegrees>
              <LongitudeDegrees>-1.337111</LongitudeDegrees>
            </Position>
            <AltitudeMeters>825.108</AltitudeMeters>
            <DistanceMeters>557327.72837527</DistanceMeters>
          </Trackpoint>
          <Trackpoint>
            <Time>2021-08-03T15:53:43Z</Time>
            <Position>
              <LatitudeDegrees>41.011310</LatitudeDegrees>
              <LongitudeDegrees>-1.337033</LongitudeDegrees>
            </Position>
            <AltitudeMeters>825.396</AltitudeMeters>
            <DistanceMeters>557339.97797854</DistanceMeters>
          </Trackpoint>
          <Trackpoint>
            <Time>2021-08-03T15:53:45Z</Time>
            <Position>
              <LatitudeDegrees>41.011230</LatitudeDegrees>
              <LongitudeDegrees>-1.336955</LongitudeDegrees>
            </Position>
            <AltitudeMeters>825.358</AltitudeMeters>
            <DistanceMeters>557351.03216301</DistanceMeters>
          </Trackpoint>
          <Trackpoint>
            <Time>2021-08-03T15:53:47Z</Time>
            <Position>
              <LatitudeDegrees>41.011156</LatitudeDegrees>
              <LongitudeDegrees>-1.336912</LongitudeDegrees>
            </Position>
            <AltitudeMeters>825.288</AltitudeMeters>
            <DistanceMeters>557360.02512496</DistanceMeters>
          </Trackpoint>
          <Trackpoint>
            <Time>2021-08-03T15:53:50Z</Time>
            <Position>
              <LatitudeDegrees>41.011099</LatitudeDegrees>
              <LongitudeDegrees>-1.336878</LongitudeDegrees>
            </Position>
            <AltitudeMeters>825.151</AltitudeMeters>
            <DistanceMeters>557366.98222276</DistanceMeters>
          </Trackpoint>
          <Trackpoint>
            <Time>2021-08-03T15:53:53Z</Time>
            <Position>
              <LatitudeDegrees>41.011048</LatitudeDegrees>
              <LongitudeDegrees>-1.336851</LongitudeDegrees>
            </Position>
            <AltitudeMeters>825.289</AltitudeMeters>
            <DistanceMeters>557373.09503359</DistanceMeters>
          </Trackpoint>
          <Trackpoint>
            <Time>2021-08-03T15:53:55Z</Time>
            <Position>
              <LatitudeDegrees>41.010988</LatitudeDegrees>
              <LongitudeDegrees>-1.336789</LongitudeDegrees>
            </Position>
            <AltitudeMeters>825.464</AltitudeMeters>
            <DistanceMeters>557381.5630816</DistanceMeters>
          </Trackpoint>
          <Trackpoint>
            <Time>2021-08-03T15:53:57Z</Time>
            <Position>
              <LatitudeDegrees>41.010933</LatitudeDegrees>
              <LongitudeDegrees>-1.336741</LongitudeDegrees>
            </Position>
            <AltitudeMeters>825.499</AltitudeMeters>
            <DistanceMeters>557388.89308534</DistanceMeters>
          </Trackpoint>
          <Trackpoint>
            <Time>2021-08-03T15:53:59Z</Time>
            <Position>
              <LatitudeDegrees>41.010873</LatitudeDegrees>
              <LongitudeDegrees>-1.336690</LongitudeDegrees>
            </Position>
            <AltitudeMeters>825.440</AltitudeMeters>
            <DistanceMeters>557396.82653559</DistanceMeters>
          </Trackpoint>
          <Trackpoint>
            <Time>2021-08-03T15:54:01Z</Time>
            <Position>
              <LatitudeDegrees>41.010803</LatitudeDegrees>
              <LongitudeDegrees>-1.336628</LongitudeDegrees>
            </Position>
            <AltitudeMeters>825.163</AltitudeMeters>
            <DistanceMeters>557406.19715261</DistanceMeters>
          </Trackpoint>
          <Trackpoint>
            <Time>2021-08-03T15:54:03Z</Time>
            <Position>
              <LatitudeDegrees>41.010722</LatitudeDegrees>
              <LongitudeDegrees>-1.336555</LongitudeDegrees>
            </Position>
            <AltitudeMeters>824.944</AltitudeMeters>
            <DistanceMeters>557417.09999289</DistanceMeters>
          </Trackpoint>
          <Trackpoint>
            <Time>2021-08-03T15:54:05Z</Time>
            <Position>
              <LatitudeDegrees>41.010649</LatitudeDegrees>
              <LongitudeDegrees>-1.336488</LongitudeDegrees>
            </Position>
            <AltitudeMeters>824.818</AltitudeMeters>
            <DistanceMeters>557426.98277119</DistanceMeters>
          </Trackpoint>
          <Trackpoint>
            <Time>2021-08-03T15:54:06Z</Time>
            <Position>
              <LatitudeDegrees>41.010611</LatitudeDegrees>
              <LongitudeDegrees>-1.336455</LongitudeDegrees>
            </Position>
            <AltitudeMeters>824.708</AltitudeMeters>
            <DistanceMeters>557432.03976402</DistanceMeters>
          </Trackpoint>
          <Trackpoint>
            <Time>2021-08-03T15:54:08Z</Time>
            <Position>
              <LatitudeDegrees>41.010550</LatitudeDegrees>
              <LongitudeDegrees>-1.336394</LongitudeDegrees>
            </Position>
            <AltitudeMeters>824.663</AltitudeMeters>
            <DistanceMeters>557440.54452224</DistanceMeters>
          </Trackpoint>
          <Trackpoint>
            <Time>2021-08-03T15:54:10Z</Time>
            <Position>
              <LatitudeDegrees>41.010475</LatitudeDegrees>
              <LongitudeDegrees>-1.336320</LongitudeDegrees>
            </Position>
            <AltitudeMeters>824.675</AltitudeMeters>
            <DistanceMeters>557450.9515745</DistanceMeters>
          </Trackpoint>
          <Trackpoint>
            <Time>2021-08-03T15:54:12Z</Time>
            <Position>
              <LatitudeDegrees>41.010394</LatitudeDegrees>
              <LongitudeDegrees>-1.336237</LongitudeDegrees>
            </Position>
            <AltitudeMeters>824.625</AltitudeMeters>
            <DistanceMeters>557462.34765099</DistanceMeters>
          </Trackpoint>
          <Trackpoint>
            <Time>2021-08-03T15:54:13Z</Time>
            <Position>
              <LatitudeDegrees>41.010350</LatitudeDegrees>
              <LongitudeDegrees>-1.336192</LongitudeDegrees>
            </Position>
            <AltitudeMeters>824.788</AltitudeMeters>
            <DistanceMeters>557468.53315291</DistanceMeters>
          </Trackpoint>
          <Trackpoint>
            <Time>2021-08-03T15:54:15Z</Time>
            <Position>
              <LatitudeDegrees>41.010268</LatitudeDegrees>
              <LongitudeDegrees>-1.336113</LongitudeDegrees>
            </Position>
            <AltitudeMeters>824.716</AltitudeMeters>
            <DistanceMeters>557479.81695004</DistanceMeters>
          </Trackpoint>
          <Trackpoint>
            <Time>2021-08-03T15:54:17Z</Time>
            <Position>
              <LatitudeDegrees>41.010199</LatitudeDegrees>
              <LongitudeDegrees>-1.336037</LongitudeDegrees>
            </Position>
            <AltitudeMeters>824.831</AltitudeMeters>
            <DistanceMeters>557489.80334901</DistanceMeters>
          </Trackpoint>
          <Trackpoint>
            <Time>2021-08-03T15:54:19Z</Time>
            <Position>
              <LatitudeDegrees>41.010157</LatitudeDegrees>
              <LongitudeDegrees>-1.335988</LongitudeDegrees>
            </Position>
            <AltitudeMeters>824.686</AltitudeMeters>
            <DistanceMeters>557496.03176842</DistanceMeters>
          </Trackpoint>
          <Trackpoint>
            <Time>2021-08-03T15:54:21Z</Time>
            <Position>
              <LatitudeDegrees>41.010109</LatitudeDegrees>
              <LongitudeDegrees>-1.335935</LongitudeDegrees>
            </Position>
            <AltitudeMeters>824.637</AltitudeMeters>
            <DistanceMeters>557502.98562054</DistanceMeters>
          </Trackpoint>
          <Trackpoint>
            <Time>2021-08-03T15:54:23Z</Time>
            <Position>
              <LatitudeDegrees>41.010056</LatitudeDegrees>
              <LongitudeDegrees>-1.335876</LongitudeDegrees>
            </Position>
            <AltitudeMeters>824.658</AltitudeMeters>
            <DistanceMeters>557510.68923414</DistanceMeters>
          </Trackpoint>
          <Trackpoint>
            <Time>2021-08-03T15:54:25Z</Time>
            <Position>
              <LatitudeDegrees>41.010000</LatitudeDegrees>
              <LongitudeDegrees>-1.335822</LongitudeDegrees>
            </Position>
            <AltitudeMeters>824.652</AltitudeMeters>
            <DistanceMeters>557518.39753505</DistanceMeters>
          </Trackpoint>
          <Trackpoint>
            <Time>2021-08-03T15:54:27Z</Time>
            <Position>
              <LatitudeDegrees>41.009938</LatitudeDegrees>
              <LongitudeDegrees>-1.335755</LongitudeDegrees>
            </Position>
            <AltitudeMeters>824.617</AltitudeMeters>
            <DistanceMeters>557527.30169538</DistanceMeters>
          </Trackpoint>
          <Trackpoint>
            <Time>2021-08-03T15:54:29Z</Time>
            <Position>
              <LatitudeDegrees>41.009877</LatitudeDegrees>
              <LongitudeDegrees>-1.335681</LongitudeDegrees>
            </Position>
            <AltitudeMeters>825.108</AltitudeMeters>
            <DistanceMeters>557536.50556126</DistanceMeters>
          </Trackpoint>
          <Trackpoint>
            <Time>2021-08-03T15:54:30Z</Time>
            <Position>
              <LatitudeDegrees>41.009840</LatitudeDegrees>
              <LongitudeDegrees>-1.335636</LongitudeDegrees>
            </Position>
            <AltitudeMeters>825.162</AltitudeMeters>
            <DistanceMeters>557542.09520029</DistanceMeters>
          </Trackpoint>
          <Trackpoint>
            <Time>2021-08-03T15:54:31Z</Time>
            <Position>
              <LatitudeDegrees>41.009798</LatitudeDegrees>
              <LongitudeDegrees>-1.335586</LongitudeDegrees>
            </Position>
            <AltitudeMeters>825.474</AltitudeMeters>
            <DistanceMeters>557548.37990827</DistanceMeters>
          </Trackpoint>
          <Trackpoint>
            <Time>2021-08-03T15:54:33Z</Time>
            <Position>
              <LatitudeDegrees>41.009693</LatitudeDegrees>
              <LongitudeDegrees>-1.335470</LongitudeDegrees>
            </Position>
            <AltitudeMeters>825.444</AltitudeMeters>
            <DistanceMeters>557563.59516607</DistanceMeters>
          </Trackpoint>
          <Trackpoint>
            <Time>2021-08-03T15:54:35Z</Time>
            <Position>
              <LatitudeDegrees>41.009607</LatitudeDegrees>
              <LongitudeDegrees>-1.335373</LongitudeDegrees>
            </Position>
            <AltitudeMeters>825.437</AltitudeMeters>
            <DistanceMeters>557576.16458202</DistanceMeters>
          </Trackpoint>
          <Trackpoint>
            <Time>2021-08-03T15:54:37Z</Time>
            <Position>
              <LatitudeDegrees>41.009533</LatitudeDegrees>
              <LongitudeDegrees>-1.335301</LongitudeDegrees>
            </Position>
            <AltitudeMeters>825.335</AltitudeMeters>
            <DistanceMeters>557586.38249491</DistanceMeters>
          </Trackpoint>
          <Trackpoint>
            <Time>2021-08-03T15:54:38Z</Time>
            <Position>
              <LatitudeDegrees>41.009494</LatitudeDegrees>
              <LongitudeDegrees>-1.335251</LongitudeDegrees>
            </Position>
            <AltitudeMeters>825.220</AltitudeMeters>
            <DistanceMeters>557592.42248737</DistanceMeters>
          </Trackpoint>
          <Trackpoint>
            <Time>2021-08-03T15:54:39Z</Time>
            <Position>
              <LatitudeDegrees>41.009451</LatitudeDegrees>
              <LongitudeDegrees>-1.335201</LongitudeDegrees>
            </Position>
            <AltitudeMeters>825.255</AltitudeMeters>
            <DistanceMeters>557598.78998634</DistanceMeters>
          </Trackpoint>
          <Trackpoint>
            <Time>2021-08-03T15:54:41Z</Time>
            <Position>
              <LatitudeDegrees>41.009362</LatitudeDegrees>
              <LongitudeDegrees>-1.335110</LongitudeDegrees>
            </Position>
            <AltitudeMeters>825.216</AltitudeMeters>
            <DistanceMeters>557611.30179697</DistanceMeters>
          </Trackpoint>
          <Trackpoint>
            <Time>2021-08-03T15:54:43Z</Time>
            <Position>
              <LatitudeDegrees>41.009269</LatitudeDegrees>
              <LongitudeDegrees>-1.334992</LongitudeDegrees>
            </Position>
            <AltitudeMeters>825.469</AltitudeMeters>
            <DistanceMeters>557625.632254</DistanceMeters>
          </Trackpoint>
          <Trackpoint>
            <Time>2021-08-03T15:54:45Z</Time>
            <Position>
              <LatitudeDegrees>41.009192</LatitudeDegrees>
              <LongitudeDegrees>-1.334896</LongitudeDegrees>
            </Position>
            <AltitudeMeters>825.904</AltitudeMeters>
            <DistanceMeters>557637.39907864</DistanceMeters>
          </Trackpoint>
          <Trackpoint>
            <Time>2021-08-03T15:54:47Z</Time>
            <Position>
              <LatitudeDegrees>41.009117</LatitudeDegrees>
              <LongitudeDegrees>-1.334812</LongitudeDegrees>
            </Position>
            <AltitudeMeters>825.924</AltitudeMeters>
            <DistanceMeters>557648.3288033</DistanceMeters>
          </Trackpoint>
          <Trackpoint>
            <Time>2021-08-03T15:54:49Z</Time>
            <Position>
              <LatitudeDegrees>41.009079</LatitudeDegrees>
              <LongitudeDegrees>-1.334780</LongitudeDegrees>
            </Position>
            <AltitudeMeters>825.908</AltitudeMeters>
            <DistanceMeters>557653.33915384</DistanceMeters>
          </Trackpoint>
          <Trackpoint>
            <Time>2021-08-03T15:54:51Z</Time>
            <Position>
              <LatitudeDegrees>41.009024</LatitudeDegrees>
              <LongitudeDegrees>-1.334728</LongitudeDegrees>
            </Position>
            <AltitudeMeters>825.983</AltitudeMeters>
            <DistanceMeters>557660.86008456</DistanceMeters>
          </Trackpoint>
          <Trackpoint>
            <Time>2021-08-03T15:54:52Z</Time>
            <Position>
              <LatitudeDegrees>41.008993</LatitudeDegrees>
              <LongitudeDegrees>-1.334678</LongitudeDegrees>
            </Position>
            <AltitudeMeters>825.965</AltitudeMeters>
            <DistanceMeters>557666.29491483</DistanceMeters>
          </Trackpoint>
          <Trackpoint>
            <Time>2021-08-03T15:54:54Z</Time>
            <Position>
              <LatitudeDegrees>41.008905</LatitudeDegrees>
              <LongitudeDegrees>-1.334561</LongitudeDegrees>
            </Position>
            <AltitudeMeters>826.015</AltitudeMeters>
            <DistanceMeters>557680.16946598</DistanceMeters>
          </Trackpoint>
          <Trackpoint>
            <Time>2021-08-03T15:54:56Z</Time>
            <Position>
              <LatitudeDegrees>41.008843</LatitudeDegrees>
              <LongitudeDegrees>-1.334524</LongitudeDegrees>
            </Position>
            <AltitudeMeters>826.258</AltitudeMeters>
            <DistanceMeters>557687.73707754</DistanceMeters>
          </Trackpoint>
          <Trackpoint>
            <Time>2021-08-03T15:54:58Z</Time>
            <Position>
              <LatitudeDegrees>41.008777</LatitudeDegrees>
              <LongitudeDegrees>-1.334452</LongitudeDegrees>
            </Position>
            <AltitudeMeters>826.516</AltitudeMeters>
            <DistanceMeters>557697.25209443</DistanceMeters>
          </Trackpoint>
          <Trackpoint>
            <Time>2021-08-03T15:55:00Z</Time>
            <Position>
              <LatitudeDegrees>41.008725</LatitudeDegrees>
              <LongitudeDegrees>-1.334394</LongitudeDegrees>
            </Position>
            <AltitudeMeters>826.671</AltitudeMeters>
            <DistanceMeters>557704.81731912</DistanceMeters>
          </Trackpoint>
          <Trackpoint>
            <Time>2021-08-03T15:55:02Z</Time>
            <Position>
              <LatitudeDegrees>41.008665</LatitudeDegrees>
              <LongitudeDegrees>-1.334323</LongitudeDegrees>
            </Position>
            <AltitudeMeters>826.686</AltitudeMeters>
            <DistanceMeters>557713.77053019</DistanceMeters>
          </Trackpoint>
          <Trackpoint>
            <Time>2021-08-03T15:55:04Z</Time>
            <Position>
              <LatitudeDegrees>41.008604</LatitudeDegrees>
              <LongitudeDegrees>-1.334246</LongitudeDegrees>
            </Position>
            <AltitudeMeters>826.667</AltitudeMeters>
            <DistanceMeters>557723.14692738</DistanceMeters>
          </Trackpoint>
          <Trackpoint>
            <Time>2021-08-03T15:55:05Z</Time>
            <Position>
              <LatitudeDegrees>41.008568</LatitudeDegrees>
              <LongitudeDegrees>-1.334201</LongitudeDegrees>
            </Position>
            <AltitudeMeters>826.681</AltitudeMeters>
            <DistanceMeters>557728.65519906</DistanceMeters>
          </Trackpoint>
          <Trackpoint>
            <Time>2021-08-03T15:55:07Z</Time>
            <Position>
              <LatitudeDegrees>41.008507</LatitudeDegrees>
              <LongitudeDegrees>-1.334125</LongitudeDegrees>
            </Position>
            <AltitudeMeters>826.661</AltitudeMeters>
            <DistanceMeters>557737.97363321</DistanceMeters>
          </Trackpoint>
          <Trackpoint>
            <Time>2021-08-03T15:55:09Z</Time>
            <Position>
              <LatitudeDegrees>41.008454</LatitudeDegrees>
              <LongitudeDegrees>-1.334062</LongitudeDegrees>
            </Position>
            <AltitudeMeters>826.517</AltitudeMeters>
            <DistanceMeters>557745.8979724</DistanceMeters>
          </Trackpoint>
          <Trackpoint>
            <Time>2021-08-03T15:55:10Z</Time>
            <Position>
              <LatitudeDegrees>41.008413</LatitudeDegrees>
              <LongitudeDegrees>-1.334008</LongitudeDegrees>
            </Position>
            <AltitudeMeters>826.508</AltitudeMeters>
            <DistanceMeters>557752.33248097</DistanceMeters>
          </Trackpoint>
          <Trackpoint>
            <Time>2021-08-03T15:55:12Z</Time>
            <Position>
              <LatitudeDegrees>41.008327</LatitudeDegrees>
              <LongitudeDegrees>-1.333909</LongitudeDegrees>
            </Position>
            <AltitudeMeters>826.515</AltitudeMeters>
            <DistanceMeters>557765.01169431</DistanceMeters>
          </Trackpoint>
          <Trackpoint>
            <Time>2021-08-03T15:55:13Z</Time>
            <Position>
              <LatitudeDegrees>41.008287</LatitudeDegrees>
              <LongitudeDegrees>-1.333866</LongitudeDegrees>
            </Position>
            <AltitudeMeters>826.527</AltitudeMeters>
            <DistanceMeters>557770.74488524</DistanceMeters>
          </Trackpoint>
          <Trackpoint>
            <Time>2021-08-03T15:55:14Z</Time>
            <Position>
              <LatitudeDegrees>41.008252</LatitudeDegrees>
              <LongitudeDegrees>-1.333822</LongitudeDegrees>
            </Position>
            <AltitudeMeters>826.597</AltitudeMeters>
            <DistanceMeters>557776.11368436</DistanceMeters>
          </Trackpoint>
          <Trackpoint>
            <Time>2021-08-03T15:55:17Z</Time>
            <Position>
              <LatitudeDegrees>41.008205</LatitudeDegrees>
              <LongitudeDegrees>-1.333764</LongitudeDegrees>
            </Position>
            <AltitudeMeters>826.710</AltitudeMeters>
            <DistanceMeters>557783.26219488</DistanceMeters>
          </Trackpoint>
          <Trackpoint>
            <Time>2021-08-03T15:55:19Z</Time>
            <Position>
              <LatitudeDegrees>41.008157</LatitudeDegrees>
              <LongitudeDegrees>-1.333733</LongitudeDegrees>
            </Position>
            <AltitudeMeters>826.938</AltitudeMeters>
            <DistanceMeters>557789.20573415</DistanceMeters>
          </Trackpoint>
          <Trackpoint>
            <Time>2021-08-03T15:55:21Z</Time>
            <Position>
              <LatitudeDegrees>41.008099</LatitudeDegrees>
              <LongitudeDegrees>-1.333654</LongitudeDegrees>
            </Position>
            <AltitudeMeters>827.193</AltitudeMeters>
            <DistanceMeters>557798.46389193</DistanceMeters>
          </Trackpoint>
          <Trackpoint>
            <Time>2021-08-03T15:55:23Z</Time>
            <Position>
              <LatitudeDegrees>41.008031</LatitudeDegrees>
              <LongitudeDegrees>-1.333581</LongitudeDegrees>
            </Position>
            <AltitudeMeters>827.268</AltitudeMeters>
            <DistanceMeters>557808.20401427</DistanceMeters>
          </Trackpoint>
          <Trackpoint>
            <Time>2021-08-03T15:55:25Z</Time>
            <Position>
              <LatitudeDegrees>41.007970</LatitudeDegrees>
              <LongitudeDegrees>-1.333512</LongitudeDegrees>
            </Position>
            <AltitudeMeters>827.389</AltitudeMeters>
            <DistanceMeters>557817.13045783</DistanceMeters>
          </Trackpoint>
          <Trackpoint>
            <Time>2021-08-03T15:55:27Z</Time>
            <Position>
              <LatitudeDegrees>41.007932</LatitudeDegrees>
              <LongitudeDegrees>-1.333467</LongitudeDegrees>
            </Position>
            <AltitudeMeters>827.419</AltitudeMeters>
            <DistanceMeters>557822.80188906</DistanceMeters>
          </Trackpoint>
          <Trackpoint>
            <Time>2021-08-03T15:55:30Z</Time>
            <Position>
              <LatitudeDegrees>41.007871</LatitudeDegrees>
              <LongitudeDegrees>-1.333429</LongitudeDegrees>
            </Position>
            <AltitudeMeters>827.509</AltitudeMeters>
            <DistanceMeters>557830.30358463</DistanceMeters>
          </Trackpoint>
          <Trackpoint>
            <Time>2021-08-03T15:55:31Z</Time>
            <Position>
              <LatitudeDegrees>41.007826</LatitudeDegrees>
              <LongitudeDegrees>-1.333383</LongitudeDegrees>
            </Position>
            <AltitudeMeters>827.619</AltitudeMeters>
            <DistanceMeters>557836.62910981</DistanceMeters>
          </Trackpoint>
          <Trackpoint>
            <Time>2021-08-03T15:55:33Z</Time>
            <Position>
              <LatitudeDegrees>41.007721</LatitudeDegrees>
              <LongitudeDegrees>-1.333219</LongitudeDegrees>
            </Position>
            <AltitudeMeters>827.708</AltitudeMeters>
            <DistanceMeters>557854.69343577</DistanceMeters>
          </Trackpoint>
          <Trackpoint>
            <Time>2021-08-03T15:55:35Z</Time>
            <Position>
              <LatitudeDegrees>41.007665</LatitudeDegrees>
              <LongitudeDegrees>-1.333161</LongitudeDegrees>
            </Position>
            <AltitudeMeters>827.848</AltitudeMeters>
            <DistanceMeters>557862.60351792</DistanceMeters>
          </Trackpoint>
          <Trackpoint>
            <Time>2021-08-03T15:55:36Z</Time>
            <Position>
              <LatitudeDegrees>41.007627</LatitudeDegrees>
              <LongitudeDegrees>-1.333119</LongitudeDegrees>
            </Position>
            <AltitudeMeters>827.970</AltitudeMeters>
            <DistanceMeters>557868.11014999</DistanceMeters>
          </Trackpoint>
          <Trackpoint>
            <Time>2021-08-03T15:55:39Z</Time>
            <Position>
              <LatitudeDegrees>41.007571</LatitudeDegrees>
              <LongitudeDegrees>-1.333057</LongitudeDegrees>
            </Position>
            <AltitudeMeters>828.190</AltitudeMeters>
            <DistanceMeters>557876.23257195</DistanceMeters>
          </Trackpoint>
          <Trackpoint>
            <Time>2021-08-03T15:55:41Z</Time>
            <Position>
              <LatitudeDegrees>41.007501</LatitudeDegrees>
              <LongitudeDegrees>-1.332974</LongitudeDegrees>
            </Position>
            <AltitudeMeters>828.123</AltitudeMeters>
            <DistanceMeters>557886.68723814</DistanceMeters>
          </Trackpoint>
          <Trackpoint>
            <Time>2021-08-03T15:55:43Z</Time>
            <Position>
              <LatitudeDegrees>41.007409</LatitudeDegrees>
              <LongitudeDegrees>-1.332872</LongitudeDegrees>
            </Position>
            <AltitudeMeters>828.181</AltitudeMeters>
            <DistanceMeters>557900.03840697</DistanceMeters>
          </Trackpoint>
          <Trackpoint>
            <Time>2021-08-03T15:55:45Z</Time>
            <Position>
              <LatitudeDegrees>41.007346</LatitudeDegrees>
              <LongitudeDegrees>-1.332798</LongitudeDegrees>
            </Position>
            <AltitudeMeters>828.396</AltitudeMeters>
            <DistanceMeters>557909.40806028</DistanceMeters>
          </Trackpoint>
          <Trackpoint>
            <Time>2021-08-03T15:55:47Z</Time>
            <Position>
              <LatitudeDegrees>41.007283</LatitudeDegrees>
              <LongitudeDegrees>-1.332719</LongitudeDegrees>
            </Position>
            <AltitudeMeters>828.221</AltitudeMeters>
            <DistanceMeters>557919.06251257</DistanceMeters>
          </Trackpoint>
          <Trackpoint>
            <Time>2021-08-03T15:55:49Z</Time>
            <Position>
              <LatitudeDegrees>41.007218</LatitudeDegrees>
              <LongitudeDegrees>-1.332649</LongitudeDegrees>
            </Position>
            <AltitudeMeters>828.392</AltitudeMeters>
            <DistanceMeters>557928.38530645</DistanceMeters>
          </Trackpoint>
          <Trackpoint>
            <Time>2021-08-03T15:55:51Z</Time>
            <Position>
              <LatitudeDegrees>41.007153</LatitudeDegrees>
              <LongitudeDegrees>-1.332574</LongitudeDegrees>
            </Position>
            <AltitudeMeters>828.384</AltitudeMeters>
            <DistanceMeters>557937.97876981</DistanceMeters>
          </Trackpoint>
          <Trackpoint>
            <Time>2021-08-03T15:55:53Z</Time>
            <Position>
              <LatitudeDegrees>41.007084</LatitudeDegrees>
              <LongitudeDegrees>-1.332495</LongitudeDegrees>
            </Position>
            <AltitudeMeters>828.507</AltitudeMeters>
            <DistanceMeters>557948.12840586</DistanceMeters>
          </Trackpoint>
          <Trackpoint>
            <Time>2021-08-03T15:55:54Z</Time>
            <Position>
              <LatitudeDegrees>41.007050</LatitudeDegrees>
              <LongitudeDegrees>-1.332456</LongitudeDegrees>
            </Position>
            <AltitudeMeters>828.517</AltitudeMeters>
            <DistanceMeters>557953.13334663</DistanceMeters>
          </Trackpoint>
          <Trackpoint>
            <Time>2021-08-03T15:55:56Z</Time>
            <Position>
              <LatitudeDegrees>41.006984</LatitudeDegrees>
              <LongitudeDegrees>-1.332383</LongitudeDegrees>
            </Position>
            <AltitudeMeters>828.608</AltitudeMeters>
            <DistanceMeters>557962.70136184</DistanceMeters>
          </Trackpoint>
          <Trackpoint>
            <Time>2021-08-03T15:55:58Z</Time>
            <Position>
              <LatitudeDegrees>41.006919</LatitudeDegrees>
              <LongitudeDegrees>-1.332316</LongitudeDegrees>
            </Position>
            <AltitudeMeters>828.985</AltitudeMeters>
            <DistanceMeters>557971.86688425</DistanceMeters>
          </Trackpoint>
          <Trackpoint>
            <Time>2021-08-03T15:56:00Z</Time>
            <Position>
              <LatitudeDegrees>41.006880</LatitudeDegrees>
              <LongitudeDegrees>-1.332276</LongitudeDegrees>
            </Position>
            <AltitudeMeters>828.947</AltitudeMeters>
            <DistanceMeters>557977.35544827</DistanceMeters>
          </Trackpoint>
          <Trackpoint>
            <Time>2021-08-03T15:56:02Z</Time>
            <Position>
              <LatitudeDegrees>41.006825</LatitudeDegrees>
              <LongitudeDegrees>-1.332220</LongitudeDegrees>
            </Position>
            <AltitudeMeters>828.887</AltitudeMeters>
            <DistanceMeters>557985.07545504</DistanceMeters>
          </Trackpoint>
          <Trackpoint>
            <Time>2021-08-03T15:56:04Z</Time>
            <Position>
              <LatitudeDegrees>41.006766</LatitudeDegrees>
              <LongitudeDegrees>-1.332151</LongitudeDegrees>
            </Position>
            <AltitudeMeters>828.770</AltitudeMeters>
            <DistanceMeters>557993.83339255</DistanceMeters>
          </Trackpoint>
          <Trackpoint>
            <Time>2021-08-03T15:56:06Z</Time>
            <Position>
              <LatitudeDegrees>41.006706</LatitudeDegrees>
              <LongitudeDegrees>-1.332075</LongitudeDegrees>
            </Position>
            <AltitudeMeters>828.718</AltitudeMeters>
            <DistanceMeters>558003.07104498</DistanceMeters>
          </Trackpoint>
          <Trackpoint>
            <Time>2021-08-03T15:56:08Z</Time>
            <Position>
              <LatitudeDegrees>41.006640</LatitudeDegrees>
              <LongitudeDegrees>-1.332001</LongitudeDegrees>
            </Position>
            <AltitudeMeters>828.723</AltitudeMeters>
            <DistanceMeters>558012.69364358</DistanceMeters>
          </Trackpoint>
          <Trackpoint>
            <Time>2021-08-03T15:56:10Z</Time>
            <Position>
              <LatitudeDegrees>41.006570</LatitudeDegrees>
              <LongitudeDegrees>-1.331922</LongitudeDegrees>
            </Position>
            <AltitudeMeters>828.928</AltitudeMeters>
            <DistanceMeters>558022.92833394</DistanceMeters>
          </Trackpoint>
          <Trackpoint>
            <Time>2021-08-03T15:56:12Z</Time>
            <Position>
              <LatitudeDegrees>41.006501</LatitudeDegrees>
              <LongitudeDegrees>-1.331837</LongitudeDegrees>
            </Position>
            <AltitudeMeters>828.949</AltitudeMeters>
            <DistanceMeters>558033.41404854</DistanceMeters>
          </Trackpoint>
          <Trackpoint>
            <Time>2021-08-03T15:56:14Z</Time>
            <Position>
              <LatitudeDegrees>41.006436</LatitudeDegrees>
              <LongitudeDegrees>-1.331758</LongitudeDegrees>
            </Position>
            <AltitudeMeters>828.948</AltitudeMeters>
            <DistanceMeters>558043.23127859</DistanceMeters>
          </Trackpoint>
          <Trackpoint>
            <Time>2021-08-03T15:56:16Z</Time>
            <Position>
              <LatitudeDegrees>41.006373</LatitudeDegrees>
              <LongitudeDegrees>-1.331685</LongitudeDegrees>
            </Position>
            <AltitudeMeters>828.961</AltitudeMeters>
            <DistanceMeters>558052.54583572</DistanceMeters>
          </Trackpoint>
          <Trackpoint>
            <Time>2021-08-03T15:56:18Z</Time>
            <Position>
              <LatitudeDegrees>41.006311</LatitudeDegrees>
              <LongitudeDegrees>-1.331616</LongitudeDegrees>
            </Position>
            <AltitudeMeters>828.817</AltitudeMeters>
            <DistanceMeters>558061.55685383</DistanceMeters>
          </Trackpoint>
          <Trackpoint>
            <Time>2021-08-03T15:56:20Z</Time>
            <Position>
              <LatitudeDegrees>41.006250</LatitudeDegrees>
              <LongitudeDegrees>-1.331551</LongitudeDegrees>
            </Position>
            <AltitudeMeters>828.808</AltitudeMeters>
            <DistanceMeters>558070.26930599</DistanceMeters>
          </Trackpoint>
          <Trackpoint>
            <Time>2021-08-03T15:56:22Z</Time>
            <Position>
              <LatitudeDegrees>41.006178</LatitudeDegrees>
              <LongitudeDegrees>-1.331473</LongitudeDegrees>
            </Position>
            <AltitudeMeters>828.891</AltitudeMeters>
            <DistanceMeters>558080.61980486</DistanceMeters>
          </Trackpoint>
          <Trackpoint>
            <Time>2021-08-03T15:56:24Z</Time>
            <Position>
              <LatitudeDegrees>41.006096</LatitudeDegrees>
              <LongitudeDegrees>-1.331379</LongitudeDegrees>
            </Position>
            <AltitudeMeters>829.053</AltitudeMeters>
            <DistanceMeters>558092.68707517</DistanceMeters>
          </Trackpoint>
          <Trackpoint>
            <Time>2021-08-03T15:56:26Z</Time>
            <Position>
              <LatitudeDegrees>41.006024</LatitudeDegrees>
              <LongitudeDegrees>-1.331291</LongitudeDegrees>
            </Position>
            <AltitudeMeters>829.113</AltitudeMeters>
            <DistanceMeters>558103.58908719</DistanceMeters>
          </Trackpoint>
          <Trackpoint>
            <Time>2021-08-03T15:56:27Z</Time>
            <Position>
              <LatitudeDegrees>41.005991</LatitudeDegrees>
              <LongitudeDegrees>-1.331249</LongitudeDegrees>
            </Position>
            <AltitudeMeters>829.126</AltitudeMeters>
            <DistanceMeters>558108.68166803</DistanceMeters>
          </Trackpoint>
          <Trackpoint>
            <Time>2021-08-03T15:56:29Z</Time>
            <Position>
              <LatitudeDegrees>41.005937</LatitudeDegrees>
              <LongitudeDegrees>-1.331177</LongitudeDegrees>
            </Position>
            <AltitudeMeters>829.514</AltitudeMeters>
            <DistanceMeters>558117.20763515</DistanceMeters>
          </Trackpoint>
          <Trackpoint>
            <Time>2021-08-03T15:56:31Z</Time>
            <Position>
              <LatitudeDegrees>41.005884</LatitudeDegrees>
              <LongitudeDegrees>-1.331115</LongitudeDegrees>
            </Position>
            <AltitudeMeters>829.639</AltitudeMeters>
            <DistanceMeters>558125.07593891</DistanceMeters>
          </Trackpoint>
          <Trackpoint>
            <Time>2021-08-03T15:56:33Z</Time>
            <Position>
              <LatitudeDegrees>41.005829</LatitudeDegrees>
              <LongitudeDegrees>-1.331057</LongitudeDegrees>
            </Position>
            <AltitudeMeters>829.664</AltitudeMeters>
            <DistanceMeters>558132.89935621</DistanceMeters>
          </Trackpoint>
          <Trackpoint>
            <Time>2021-08-03T15:56:35Z</Time>
            <Position>
              <LatitudeDegrees>41.005735</LatitudeDegrees>
              <LongitudeDegrees>-1.330960</LongitudeDegrees>
            </Position>
            <AltitudeMeters>829.655</AltitudeMeters>
            <DistanceMeters>558146.15992477</DistanceMeters>
          </Trackpoint>
          <Trackpoint>
            <Time>2021-08-03T15:56:37Z</Time>
            <Position>
              <LatitudeDegrees>41.005661</LatitudeDegrees>
              <LongitudeDegrees>-1.330881</LongitudeDegrees>
            </Position>
            <AltitudeMeters>829.867</AltitudeMeters>
            <DistanceMeters>558156.73653041</DistanceMeters>
          </Trackpoint>
          <Trackpoint>
            <Time>2021-08-03T15:56:39Z</Time>
            <Position>
              <LatitudeDegrees>41.005602</LatitudeDegrees>
              <LongitudeDegrees>-1.330811</LongitudeDegrees>
            </Position>
            <AltitudeMeters>830.081</AltitudeMeters>
            <DistanceMeters>558165.55099453</DistanceMeters>
          </Trackpoint>
          <Trackpoint>
            <Time>2021-08-03T15:56:41Z</Time>
            <Position>
              <LatitudeDegrees>41.005557</LatitudeDegrees>
              <LongitudeDegrees>-1.330758</LongitudeDegrees>
            </Position>
            <AltitudeMeters>830.019</AltitudeMeters>
            <DistanceMeters>558172.2515572</DistanceMeters>
          </Trackpoint>
          <Trackpoint>
            <Time>2021-08-03T15:56:44Z</Time>
            <Position>
              <LatitudeDegrees>41.005509</LatitudeDegrees>
              <LongitudeDegrees>-1.330713</LongitudeDegrees>
            </Position>
            <AltitudeMeters>830.208</AltitudeMeters>
            <DistanceMeters>558178.79599397</DistanceMeters>
          </Trackpoint>
          <Trackpoint>
            <Time>2021-08-03T15:56:46Z</Time>
            <Position>
              <LatitudeDegrees>41.005394</LatitudeDegrees>
              <LongitudeDegrees>-1.330582</LongitudeDegrees>
            </Position>
            <AltitudeMeters>830.343</AltitudeMeters>
            <DistanceMeters>558195.67547773</DistanceMeters>
          </Trackpoint>
          <Trackpoint>
            <Time>2021-08-03T15:56:48Z</Time>
            <Position>
              <LatitudeDegrees>41.005334</LatitudeDegrees>
              <LongitudeDegrees>-1.330524</LongitudeDegrees>
            </Position>
            <AltitudeMeters>830.475</AltitudeMeters>
            <DistanceMeters>558203.94225573</DistanceMeters>
          </Trackpoint>
          <Trackpoint>
            <Time>2021-08-03T15:56:50Z</Time>
            <Position>
              <LatitudeDegrees>41.005275</LatitudeDegrees>
              <LongitudeDegrees>-1.330449</LongitudeDegrees>
            </Position>
            <AltitudeMeters>831.035</AltitudeMeters>
            <DistanceMeters>558213.04252117</DistanceMeters>
          </Trackpoint>
          <Trackpoint>
            <Time>2021-08-03T15:56:52Z</Time>
            <Position>
              <LatitudeDegrees>41.005220</LatitudeDegrees>
              <LongitudeDegrees>-1.330390</LongitudeDegrees>
            </Position>
            <AltitudeMeters>831.358</AltitudeMeters>
            <DistanceMeters>558220.9188544</DistanceMeters>
          </Trackpoint>
          <Trackpoint>
            <Time>2021-08-03T15:56:54Z</Time>
            <Position>
              <LatitudeDegrees>41.005166</LatitudeDegrees>
              <LongitudeDegrees>-1.330333</LongitudeDegrees>
            </Position>
            <AltitudeMeters>831.446</AltitudeMeters>
            <DistanceMeters>558228.60251497</DistanceMeters>
          </Trackpoint>
          <Trackpoint>
            <Time>2021-08-03T15:56:56Z</Time>
            <Position>
              <LatitudeDegrees>41.005126</LatitudeDegrees>
              <LongitudeDegrees>-1.330282</LongitudeDegrees>
            </Position>
            <AltitudeMeters>831.771</AltitudeMeters>
            <DistanceMeters>558234.77998234</DistanceMeters>
          </Trackpoint>
          <Trackpoint>
            <Time>2021-08-03T15:56:58Z</Time>
            <Position>
              <LatitudeDegrees>41.005097</LatitudeDegrees>
              <LongitudeDegrees>-1.330211</LongitudeDegrees>
            </Position>
            <AltitudeMeters>831.816</AltitudeMeters>
            <DistanceMeters>558241.56092248</DistanceMeters>
          </Trackpoint>
          <Trackpoint>
            <Time>2021-08-03T15:57:00Z</Time>
            <Position>
              <LatitudeDegrees>41.005092</LatitudeDegrees>
              <LongitudeDegrees>-1.330146</LongitudeDegrees>
            </Position>
            <AltitudeMeters>832.077</AltitudeMeters>
            <DistanceMeters>558247.0494865</DistanceMeters>
          </Trackpoint>
          <Trackpoint>
            <Time>2021-08-03T15:57:02Z</Time>
            <Position>
              <LatitudeDegrees>41.005088</LatitudeDegrees>
              <LongitudeDegrees>-1.330013</LongitudeDegrees>
            </Position>
            <AltitudeMeters>831.821</AltitudeMeters>
            <DistanceMeters>558258.22957229</DistanceMeters>
          </Trackpoint>
          <Trackpoint>
            <Time>2021-08-03T15:57:04Z</Time>
            <Position>
              <LatitudeDegrees>41.005052</LatitudeDegrees>
              <LongitudeDegrees>-1.329936</LongitudeDegrees>
            </Position>
            <AltitudeMeters>831.241</AltitudeMeters>
            <DistanceMeters>558265.83764629</DistanceMeters>
          </Trackpoint>
          <Trackpoint>
            <Time>2021-08-03T15:57:06Z</Time>
            <Position>
              <LatitudeDegrees>41.004990</LatitudeDegrees>
              <LongitudeDegrees>-1.329951</LongitudeDegrees>
            </Position>
            <AltitudeMeters>830.805</AltitudeMeters>
            <DistanceMeters>558272.85290941</DistanceMeters>
          </Trackpoint>
          <Trackpoint>
            <Time>2021-08-03T15:57:08Z</Time>
            <Position>
              <LatitudeDegrees>41.004942</LatitudeDegrees>
              <LongitudeDegrees>-1.329980</LongitudeDegrees>
            </Position>
            <AltitudeMeters>830.808</AltitudeMeters>
            <DistanceMeters>558278.72460694</DistanceMeters>
          </Trackpoint>
          <Trackpoint>
            <Time>2021-08-03T15:57:11Z</Time>
            <Position>
              <LatitudeDegrees>41.004892</LatitudeDegrees>
              <LongitudeDegrees>-1.329984</LongitudeDegrees>
            </Position>
            <AltitudeMeters>831.339</AltitudeMeters>
            <DistanceMeters>558284.29968748</DistanceMeters>
          </Trackpoint>
          <Trackpoint>
            <Time>2021-08-03T15:57:13Z</Time>
            <Position>
              <LatitudeDegrees>41.004845</LatitudeDegrees>
              <LongitudeDegrees>-1.329946</LongitudeDegrees>
            </Position>
            <AltitudeMeters>831.841</AltitudeMeters>
            <DistanceMeters>558290.42725289</DistanceMeters>
          </Trackpoint>
          <Trackpoint>
            <Time>2021-08-03T15:57:15Z</Time>
            <Position>
              <LatitudeDegrees>41.004786</LatitudeDegrees>
              <LongitudeDegrees>-1.329889</LongitudeDegrees>
            </Position>
            <AltitudeMeters>831.821</AltitudeMeters>
            <DistanceMeters>558298.55412062</DistanceMeters>
          </Trackpoint>
          <Trackpoint>
            <Time>2021-08-03T15:57:17Z</Time>
            <Position>
              <LatitudeDegrees>41.004716</LatitudeDegrees>
              <LongitudeDegrees>-1.329821</LongitudeDegrees>
            </Position>
            <AltitudeMeters>831.944</AltitudeMeters>
            <DistanceMeters>558308.21511799</DistanceMeters>
          </Trackpoint>
          <Trackpoint>
            <Time>2021-08-03T15:57:19Z</Time>
            <Position>
              <LatitudeDegrees>41.004630</LatitudeDegrees>
              <LongitudeDegrees>-1.329745</LongitudeDegrees>
            </Position>
            <AltitudeMeters>832.022</AltitudeMeters>
            <DistanceMeters>558319.72080879</DistanceMeters>
          </Trackpoint>
          <Trackpoint>
            <Time>2021-08-03T15:57:21Z</Time>
            <Position>
              <LatitudeDegrees>41.004532</LatitudeDegrees>
              <LongitudeDegrees>-1.329667</LongitudeDegrees>
            </Position>
            <AltitudeMeters>831.817</AltitudeMeters>
            <DistanceMeters>558332.44445647</DistanceMeters>
          </Trackpoint>
          <Trackpoint>
            <Time>2021-08-03T15:57:22Z</Time>
            <Position>
              <LatitudeDegrees>41.004484</LatitudeDegrees>
              <LongitudeDegrees>-1.329628</LongitudeDegrees>
            </Position>
            <AltitudeMeters>831.622</AltitudeMeters>
            <DistanceMeters>558338.71189874</DistanceMeters>
          </Trackpoint>
          <Trackpoint>
            <Time>2021-08-03T15:57:23Z</Time>
            <Position>
              <LatitudeDegrees>41.004437</LatitudeDegrees>
              <LongitudeDegrees>-1.329583</LongitudeDegrees>
            </Position>
            <AltitudeMeters>831.333</AltitudeMeters>
            <DistanceMeters>558345.16602475</DistanceMeters>
          </Trackpoint>
          <Trackpoint>
            <Time>2021-08-03T15:57:25Z</Time>
            <Position>
              <LatitudeDegrees>41.004347</LatitudeDegrees>
              <LongitudeDegrees>-1.329501</LongitudeDegrees>
            </Position>
            <AltitudeMeters>831.423</AltitudeMeters>
            <DistanceMeters>558357.32201796</DistanceMeters>
          </Trackpoint>
          <Trackpoint>
            <Time>2021-08-03T15:57:26Z</Time>
            <Position>
              <LatitudeDegrees>41.004302</LatitudeDegrees>
              <LongitudeDegrees>-1.329462</LongitudeDegrees>
            </Position>
            <AltitudeMeters>831.483</AltitudeMeters>
            <DistanceMeters>558363.30794674</DistanceMeters>
          </Trackpoint>
          <Trackpoint>
            <Time>2021-08-03T15:57:28Z</Time>
            <Position>
              <LatitudeDegrees>41.004210</LatitudeDegrees>
              <LongitudeDegrees>-1.329382</LongitudeDegrees>
            </Position>
            <AltitudeMeters>831.711</AltitudeMeters>
            <DistanceMeters>558375.55570694</DistanceMeters>
          </Trackpoint>
          <Trackpoint>
            <Time>2021-08-03T15:57:29Z</Time>
            <Position>
              <LatitudeDegrees>41.004164</LatitudeDegrees>
              <LongitudeDegrees>-1.329342</LongitudeDegrees>
            </Position>
            <AltitudeMeters>831.708</AltitudeMeters>
            <DistanceMeters>558381.68032428</DistanceMeters>
          </Trackpoint>
          <Trackpoint>
            <Time>2021-08-03T15:57:31Z</Time>
            <Position>
              <LatitudeDegrees>41.004068</LatitudeDegrees>
              <LongitudeDegrees>-1.329273</LongitudeDegrees>
            </Position>
            <AltitudeMeters>831.949</AltitudeMeters>
            <DistanceMeters>558393.83631749</DistanceMeters>
          </Trackpoint>
          <Trackpoint>
            <Time>2021-08-03T15:57:32Z</Time>
            <Position>
              <LatitudeDegrees>41.004022</LatitudeDegrees>
              <LongitudeDegrees>-1.329242</LongitudeDegrees>
            </Position>
            <AltitudeMeters>832.121</AltitudeMeters>
            <DistanceMeters>558399.58052321</DistanceMeters>
          </Trackpoint>
          <Trackpoint>
            <Time>2021-08-03T15:57:34Z</Time>
            <Position>
              <LatitudeDegrees>41.003933</LatitudeDegrees>
              <LongitudeDegrees>-1.329187</LongitudeDegrees>
            </Position>
            <AltitudeMeters>832.131</AltitudeMeters>
            <DistanceMeters>558410.51066096</DistanceMeters>
          </Trackpoint>
          <Trackpoint>
            <Time>2021-08-03T15:57:36Z</Time>
            <Position>
              <LatitudeDegrees>41.003853</LatitudeDegrees>
              <LongitudeDegrees>-1.329138</LongitudeDegrees>
            </Position>
            <AltitudeMeters>832.014</AltitudeMeters>
            <DistanceMeters>558420.32006944</DistanceMeters>
          </Trackpoint>
          <Trackpoint>
            <Time>2021-08-03T15:57:38Z</Time>
            <Position>
              <LatitudeDegrees>41.003782</LatitudeDegrees>
              <LongitudeDegrees>-1.329093</LongitudeDegrees>
            </Position>
            <AltitudeMeters>831.542</AltitudeMeters>
            <DistanceMeters>558429.08006884</DistanceMeters>
          </Trackpoint>
          <Trackpoint>
            <Time>2021-08-03T15:57:40Z</Time>
            <Position>
              <LatitudeDegrees>41.003711</LatitudeDegrees>
              <LongitudeDegrees>-1.329052</LongitudeDegrees>
            </Position>
            <AltitudeMeters>831.657</AltitudeMeters>
            <DistanceMeters>558437.69978282</DistanceMeters>
          </Trackpoint>
          <Trackpoint>
            <Time>2021-08-03T15:57:42Z</Time>
            <Position>
              <LatitudeDegrees>41.003634</LatitudeDegrees>
              <LongitudeDegrees>-1.329009</LongitudeDegrees>
            </Position>
            <AltitudeMeters>831.482</AltitudeMeters>
            <DistanceMeters>558447.00027217</DistanceMeters>
          </Trackpoint>
          <Trackpoint>
            <Time>2021-08-03T15:57:44Z</Time>
            <Position>
              <LatitudeDegrees>41.003556</LatitudeDegrees>
              <LongitudeDegrees>-1.328966</LongitudeDegrees>
            </Position>
            <AltitudeMeters>831.663</AltitudeMeters>
            <DistanceMeters>558456.40359651</DistanceMeters>
          </Trackpoint>
          <Trackpoint>
            <Time>2021-08-03T15:57:45Z</Time>
            <Position>
              <LatitudeDegrees>41.003461</LatitudeDegrees>
              <LongitudeDegrees>-1.328920</LongitudeDegrees>
            </Position>
            <AltitudeMeters>831.756</AltitudeMeters>
            <DistanceMeters>558467.66095378</DistanceMeters>
          </Trackpoint>
          <Trackpoint>
            <Time>2021-08-03T15:57:47Z</Time>
            <Position>
              <LatitudeDegrees>41.003383</LatitudeDegrees>
              <LongitudeDegrees>-1.328863</LongitudeDegrees>
            </Position>
            <AltitudeMeters>831.759</AltitudeMeters>
            <DistanceMeters>558477.57474983</DistanceMeters>
          </Trackpoint>
          <Trackpoint>
            <Time>2021-08-03T15:57:49Z</Time>
            <Position>
              <LatitudeDegrees>41.003313</LatitudeDegrees>
              <LongitudeDegrees>-1.328831</LongitudeDegrees>
            </Position>
            <AltitudeMeters>831.714</AltitudeMeters>
            <DistanceMeters>558485.81691369</DistanceMeters>
          </Trackpoint>
          <Trackpoint>
            <Time>2021-08-03T15:57:51Z</Time>
            <Position>
              <LatitudeDegrees>41.003241</LatitudeDegrees>
              <LongitudeDegrees>-1.328789</LongitudeDegrees>
            </Position>
            <AltitudeMeters>831.708</AltitudeMeters>
            <DistanceMeters>558494.5727888</DistanceMeters>
          </Trackpoint>
          <Trackpoint>
            <Time>2021-08-03T15:57:52Z</Time>
            <Position>
              <LatitudeDegrees>41.003192</LatitudeDegrees>
              <LongitudeDegrees>-1.328764</LongitudeDegrees>
            </Position>
            <AltitudeMeters>831.742</AltitudeMeters>
            <DistanceMeters>558500.41673859</DistanceMeters>
          </Trackpoint>
          <Trackpoint>
            <Time>2021-08-03T15:57:54Z</Time>
            <Position>
              <LatitudeDegrees>41.003111</LatitudeDegrees>
              <LongitudeDegrees>-1.328723</LongitudeDegrees>
            </Position>
            <AltitudeMeters>831.634</AltitudeMeters>
            <DistanceMeters>558510.06744884</DistanceMeters>
          </Trackpoint>
          <Trackpoint>
            <Time>2021-08-03T15:57:56Z</Time>
            <Position>
              <LatitudeDegrees>41.003026</LatitudeDegrees>
              <LongitudeDegrees>-1.328673</LongitudeDegrees>
            </Position>
            <AltitudeMeters>831.634</AltitudeMeters>
            <DistanceMeters>558520.41882011</DistanceMeters>
          </Trackpoint>
          <Trackpoint>
            <Time>2021-08-03T15:57:57Z</Time>
            <Position>
              <LatitudeDegrees>41.002980</LatitudeDegrees>
              <LongitudeDegrees>-1.328647</LongitudeDegrees>
            </Position>
            <AltitudeMeters>831.537</AltitudeMeters>
            <DistanceMeters>558525.98498506</DistanceMeters>
          </Trackpoint>
          <Trackpoint>
            <Time>2021-08-03T15:57:58Z</Time>
            <Position>
              <LatitudeDegrees>41.002935</LatitudeDegrees>
              <LongitudeDegrees>-1.328623</LongitudeDegrees>
            </Position>
            <AltitudeMeters>831.575</AltitudeMeters>
            <DistanceMeters>558531.38397448</DistanceMeters>
          </Trackpoint>
          <Trackpoint>
            <Time>2021-08-03T15:58:00Z</Time>
            <Position>
              <LatitudeDegrees>41.002824</LatitudeDegrees>
              <LongitudeDegrees>-1.328557</LongitudeDegrees>
            </Position>
            <AltitudeMeters>831.560</AltitudeMeters>
            <DistanceMeters>558544.92553135</DistanceMeters>
          </Trackpoint>
          <Trackpoint>
            <Time>2021-08-03T15:58:02Z</Time>
            <Position>
              <LatitudeDegrees>41.002752</LatitudeDegrees>
              <LongitudeDegrees>-1.328511</LongitudeDegrees>
            </Position>
            <AltitudeMeters>831.575</AltitudeMeters>
            <DistanceMeters>558553.82258986</DistanceMeters>
          </Trackpoint>
          <Trackpoint>
            <Time>2021-08-03T15:58:04Z</Time>
            <Position>
              <LatitudeDegrees>41.002659</LatitudeDegrees>
              <LongitudeDegrees>-1.328453</LongitudeDegrees>
            </Position>
            <AltitudeMeters>831.746</AltitudeMeters>
            <DistanceMeters>558565.26255917</DistanceMeters>
          </Trackpoint>
          <Trackpoint>
            <Time>2021-08-03T15:58:05Z</Time>
            <Position>
              <LatitudeDegrees>41.002616</LatitudeDegrees>
              <LongitudeDegrees>-1.328431</LongitudeDegrees>
            </Position>
            <AltitudeMeters>831.837</AltitudeMeters>
            <DistanceMeters>558570.39224169</DistanceMeters>
          </Trackpoint>
          <Trackpoint>
            <Time>2021-08-03T15:58:08Z</Time>
            <Position>
              <LatitudeDegrees>41.002541</LatitudeDegrees>
              <LongitudeDegrees>-1.328389</LongitudeDegrees>
            </Position>
            <AltitudeMeters>831.849</AltitudeMeters>
            <DistanceMeters>558579.45422355</DistanceMeters>
          </Trackpoint>
          <Trackpoint>
            <Time>2021-08-03T15:58:09Z</Time>
            <Position>
              <LatitudeDegrees>41.002491</LatitudeDegrees>
              <LongitudeDegrees>-1.328358</LongitudeDegrees>
            </Position>
            <AltitudeMeters>831.813</AltitudeMeters>
            <DistanceMeters>558585.59797806</DistanceMeters>
          </Trackpoint>
          <Trackpoint>
            <Time>2021-08-03T15:58:11Z</Time>
            <Position>
              <LatitudeDegrees>41.002402</LatitudeDegrees>
              <LongitudeDegrees>-1.328301</LongitudeDegrees>
            </Position>
            <AltitudeMeters>831.108</AltitudeMeters>
            <DistanceMeters>558596.59975722</DistanceMeters>
          </Trackpoint>
          <Trackpoint>
            <Time>2021-08-03T15:58:13Z</Time>
            <Position>
              <LatitudeDegrees>41.002328</LatitudeDegrees>
              <LongitudeDegrees>-1.328262</LongitudeDegrees>
            </Position>
            <AltitudeMeters>830.940</AltitudeMeters>
            <DistanceMeters>558605.46376845</DistanceMeters>
          </Trackpoint>
          <Trackpoint>
            <Time>2021-08-03T15:58:14Z</Time>
            <Position>
              <LatitudeDegrees>41.002284</LatitudeDegrees>
              <LongitudeDegrees>-1.328241</LongitudeDegrees>
            </Position>
            <AltitudeMeters>830.992</AltitudeMeters>
            <DistanceMeters>558610.66859596</DistanceMeters>
          </Trackpoint>
          <Trackpoint>
            <Time>2021-08-03T15:58:15Z</Time>
            <Position>
              <LatitudeDegrees>41.002237</LatitudeDegrees>
              <LongitudeDegrees>-1.328218</LongitudeDegrees>
            </Position>
            <AltitudeMeters>831.142</AltitudeMeters>
            <DistanceMeters>558616.24529599</DistanceMeters>
          </Trackpoint>
          <Trackpoint>
            <Time>2021-08-03T15:58:16Z</Time>
            <Position>
              <LatitudeDegrees>41.002185</LatitudeDegrees>
              <LongitudeDegrees>-1.328189</LongitudeDegrees>
            </Position>
            <AltitudeMeters>831.535</AltitudeMeters>
            <DistanceMeters>558622.52569199</DistanceMeters>
          </Trackpoint>
          <Trackpoint>
            <Time>2021-08-03T15:58:18Z</Time>
            <Position>
              <LatitudeDegrees>41.002091</LatitudeDegrees>
              <LongitudeDegrees>-1.328126</LongitudeDegrees>
            </Position>
            <AltitudeMeters>831.633</AltitudeMeters>
            <DistanceMeters>558634.24984755</DistanceMeters>
          </Trackpoint>
          <Trackpoint>
            <Time>2021-08-03T15:58:20Z</Time>
            <Position>
              <LatitudeDegrees>41.002033</LatitudeDegrees>
              <LongitudeDegrees>-1.328085</LongitudeDegrees>
            </Position>
            <AltitudeMeters>831.898</AltitudeMeters>
            <DistanceMeters>558641.56567034</DistanceMeters>
          </Trackpoint>
          <Trackpoint>
            <Time>2021-08-03T15:58:22Z</Time>
            <Position>
              <LatitudeDegrees>41.001943</LatitudeDegrees>
              <LongitudeDegrees>-1.328037</LongitudeDegrees>
            </Position>
            <AltitudeMeters>832.083</AltitudeMeters>
            <DistanceMeters>558652.36364918</DistanceMeters>
          </Trackpoint>
          <Trackpoint>
            <Time>2021-08-03T15:58:23Z</Time>
            <Position>
              <LatitudeDegrees>41.001896</LatitudeDegrees>
              <LongitudeDegrees>-1.328012</LongitudeDegrees>
            </Position>
            <AltitudeMeters>831.934</AltitudeMeters>
            <DistanceMeters>558658.00074409</DistanceMeters>
          </Trackpoint>
          <Trackpoint>
            <Time>2021-08-03T15:58:24Z</Time>
            <Position>
              <LatitudeDegrees>41.001850</LatitudeDegrees>
              <LongitudeDegrees>-1.327988</LongitudeDegrees>
            </Position>
            <AltitudeMeters>831.964</AltitudeMeters>
            <DistanceMeters>558663.50245439</DistanceMeters>
          </Trackpoint>
          <Trackpoint>
            <Time>2021-08-03T15:58:26Z</Time>
            <Position>
              <LatitudeDegrees>41.001763</LatitudeDegrees>
              <LongitudeDegrees>-1.327938</LongitudeDegrees>
            </Position>
            <AltitudeMeters>832.106</AltitudeMeters>
            <DistanceMeters>558674.05812174</DistanceMeters>
          </Trackpoint>
          <Trackpoint>
            <Time>2021-08-03T15:58:28Z</Time>
            <Position>
              <LatitudeDegrees>41.001676</LatitudeDegrees>
              <LongitudeDegrees>-1.327891</LongitudeDegrees>
            </Position>
            <AltitudeMeters>832.116</AltitudeMeters>
            <DistanceMeters>558684.51537883</DistanceMeters>
          </Trackpoint>
          <Trackpoint>
            <Time>2021-08-03T15:58:29Z</Time>
            <Position>
              <LatitudeDegrees>41.001630</LatitudeDegrees>
              <LongitudeDegrees>-1.327866</LongitudeDegrees>
            </Position>
            <AltitudeMeters>832.308</AltitudeMeters>
            <DistanceMeters>558690.04981821</DistanceMeters>
          </Trackpoint>
          <Trackpoint>
            <Time>2021-08-03T15:58:31Z</Time>
            <Position>
              <LatitudeDegrees>41.001527</LatitudeDegrees>
              <LongitudeDegrees>-1.327810</LongitudeDegrees>
            </Position>
            <AltitudeMeters>832.553</AltitudeMeters>
            <DistanceMeters>558702.44124347</DistanceMeters>
          </Trackpoint>
          <Trackpoint>
            <Time>2021-08-03T15:58:33Z</Time>
            <Position>
              <LatitudeDegrees>41.001430</LatitudeDegrees>
              <LongitudeDegrees>-1.327747</LongitudeDegrees>
            </Position>
            <AltitudeMeters>832.545</AltitudeMeters>
            <DistanceMeters>558714.46465787</DistanceMeters>
          </Trackpoint>
          <Trackpoint>
            <Time>2021-08-03T15:58:35Z</Time>
            <Position>
              <LatitudeDegrees>41.001355</LatitudeDegrees>
              <LongitudeDegrees>-1.327698</LongitudeDegrees>
            </Position>
            <AltitudeMeters>832.655</AltitudeMeters>
            <DistanceMeters>558723.77194121</DistanceMeters>
          </Trackpoint>
          <Trackpoint>
            <Time>2021-08-03T15:58:37Z</Time>
            <Position>
              <LatitudeDegrees>41.001297</LatitudeDegrees>
              <LongitudeDegrees>-1.327662</LongitudeDegrees>
            </Position>
            <AltitudeMeters>832.678</AltitudeMeters>
            <DistanceMeters>558730.90084507</DistanceMeters>
          </Trackpoint>
          <Trackpoint>
            <Time>2021-08-03T15:58:39Z</Time>
            <Position>
              <LatitudeDegrees>41.001242</LatitudeDegrees>
              <LongitudeDegrees>-1.327630</LongitudeDegrees>
            </Position>
            <AltitudeMeters>832.686</AltitudeMeters>
            <DistanceMeters>558737.58656705</DistanceMeters>
          </Trackpoint>
          <Trackpoint>
            <Time>2021-08-03T15:58:41Z</Time>
            <Position>
              <LatitudeDegrees>41.001141</LatitudeDegrees>
              <LongitudeDegrees>-1.327573</LongitudeDegrees>
            </Position>
            <AltitudeMeters>832.761</AltitudeMeters>
            <DistanceMeters>558749.80516983</DistanceMeters>
          </Trackpoint>
          <Trackpoint>
            <Time>2021-08-03T15:58:43Z</Time>
            <Position>
              <LatitudeDegrees>41.000995</LatitudeDegrees>
              <LongitudeDegrees>-1.327451</LongitudeDegrees>
            </Position>
            <AltitudeMeters>833.066</AltitudeMeters>
            <DistanceMeters>558769.0170241</DistanceMeters>
          </Trackpoint>
          <Trackpoint>
            <Time>2021-08-03T15:58:45Z</Time>
            <Position>
              <LatitudeDegrees>41.000912</LatitudeDegrees>
              <LongitudeDegrees>-1.327404</LongitudeDegrees>
            </Position>
            <AltitudeMeters>833.037</AltitudeMeters>
            <DistanceMeters>558779.0633749</DistanceMeters>
          </Trackpoint>
          <Trackpoint>
            <Time>2021-08-03T15:58:47Z</Time>
            <Position>
              <LatitudeDegrees>41.000859</LatitudeDegrees>
              <LongitudeDegrees>-1.327385</LongitudeDegrees>
            </Position>
            <AltitudeMeters>832.947</AltitudeMeters>
            <DistanceMeters>558785.17470832</DistanceMeters>
          </Trackpoint>
          <Trackpoint>
            <Time>2021-08-03T15:58:49Z</Time>
            <Position>
              <LatitudeDegrees>41.000779</LatitudeDegrees>
              <LongitudeDegrees>-1.327361</LongitudeDegrees>
            </Position>
            <AltitudeMeters>832.929</AltitudeMeters>
            <DistanceMeters>558794.30370474</DistanceMeters>
          </Trackpoint>
          <Trackpoint>
            <Time>2021-08-03T15:58:50Z</Time>
            <Position>
              <LatitudeDegrees>41.000709</LatitudeDegrees>
              <LongitudeDegrees>-1.327330</LongitudeDegrees>
            </Position>
            <AltitudeMeters>832.921</AltitudeMeters>
            <DistanceMeters>558802.5178834</DistanceMeters>
          </Trackpoint>
          <Trackpoint>
            <Time>2021-08-03T15:58:52Z</Time>
            <Position>
              <LatitudeDegrees>41.000608</LatitudeDegrees>
              <LongitudeDegrees>-1.327286</LongitudeDegrees>
            </Position>
            <AltitudeMeters>832.908</AltitudeMeters>
            <DistanceMeters>558814.35128509</DistanceMeters>
          </Trackpoint>
          <Trackpoint>
            <Time>2021-08-03T15:58:53Z</Time>
            <Position>
              <LatitudeDegrees>41.000565</LatitudeDegrees>
              <LongitudeDegrees>-1.327267</LongitudeDegrees>
            </Position>
            <AltitudeMeters>833.011</AltitudeMeters>
            <DistanceMeters>558819.3957628</DistanceMeters>
          </Trackpoint>
          <Trackpoint>
            <Time>2021-08-03T15:58:55Z</Time>
            <Position>
              <LatitudeDegrees>41.000483</LatitudeDegrees>
              <LongitudeDegrees>-1.327221</LongitudeDegrees>
            </Position>
            <AltitudeMeters>833.663</AltitudeMeters>
            <DistanceMeters>558829.30682589</DistanceMeters>
          </Trackpoint>
          <Trackpoint>
            <Time>2021-08-03T15:58:57Z</Time>
            <Position>
              <LatitudeDegrees>41.000378</LatitudeDegrees>
              <LongitudeDegrees>-1.327171</LongitudeDegrees>
            </Position>
            <AltitudeMeters>833.833</AltitudeMeters>
            <DistanceMeters>558841.72554868</DistanceMeters>
          </Trackpoint>
          <Trackpoint>
            <Time>2021-08-03T15:58:59Z</Time>
            <Position>
              <LatitudeDegrees>41.000280</LatitudeDegrees>
              <LongitudeDegrees>-1.327083</LongitudeDegrees>
            </Position>
            <AltitudeMeters>833.976</AltitudeMeters>
            <DistanceMeters>558854.9017488</DistanceMeters>
          </Trackpoint>
          <Trackpoint>
            <Time>2021-08-03T15:59:00Z</Time>
            <Position>
              <LatitudeDegrees>41.000236</LatitudeDegrees>
              <LongitudeDegrees>-1.327060</LongitudeDegrees>
            </Position>
            <AltitudeMeters>834.094</AltitudeMeters>
            <DistanceMeters>558860.16694915</DistanceMeters>
          </Trackpoint>
          <Trackpoint>
            <Time>2021-08-03T15:59:01Z</Time>
            <Position>
              <LatitudeDegrees>41.000192</LatitudeDegrees>
              <LongitudeDegrees>-1.327032</LongitudeDegrees>
            </Position>
            <AltitudeMeters>834.289</AltitudeMeters>
            <DistanceMeters>558865.60011764</DistanceMeters>
          </Trackpoint>
          <Trackpoint>
            <Time>2021-08-03T15:59:02Z</Time>
            <Position>
              <LatitudeDegrees>41.000147</LatitudeDegrees>
              <LongitudeDegrees>-1.327006</LongitudeDegrees>
            </Position>
            <AltitudeMeters>834.294</AltitudeMeters>
            <DistanceMeters>558871.06394713</DistanceMeters>
          </Trackpoint>
          <Trackpoint>
            <Time>2021-08-03T15:59:04Z</Time>
            <Position>
              <LatitudeDegrees>41.000055</LatitudeDegrees>
              <LongitudeDegrees>-1.326950</LongitudeDegrees>
            </Position>
            <AltitudeMeters>833.945</AltitudeMeters>
            <DistanceMeters>558882.3325289</DistanceMeters>
          </Trackpoint>
          <Trackpoint>
            <Time>2021-08-03T15:59:05Z</Time>
            <Position>
              <LatitudeDegrees>41.000012</LatitudeDegrees>
              <LongitudeDegrees>-1.326922</LongitudeDegrees>
            </Position>
            <AltitudeMeters>833.593</AltitudeMeters>
            <DistanceMeters>558887.66589001</DistanceMeters>
          </Trackpoint>
          <Trackpoint>
            <Time>2021-08-03T15:59:07Z</Time>
            <Position>
              <LatitudeDegrees>40.999961</LatitudeDegrees>
              <LongitudeDegrees>-1.326898</LongitudeDegrees>
            </Position>
            <AltitudeMeters>832.765</AltitudeMeters>
            <DistanceMeters>558893.68941449</DistanceMeters>
          </Trackpoint>
          <Trackpoint>
            <Time>2021-08-03T15:59:10Z</Time>
            <Position>
              <LatitudeDegrees>40.999891</LatitudeDegrees>
              <LongitudeDegrees>-1.326874</LongitudeDegrees>
            </Position>
            <AltitudeMeters>832.621</AltitudeMeters>
            <DistanceMeters>558901.73700471</DistanceMeters>
          </Trackpoint>
          <Trackpoint>
            <Time>2021-08-03T15:59:11Z</Time>
            <Position>
              <LatitudeDegrees>40.999801</LatitudeDegrees>
              <LongitudeDegrees>-1.326830</LongitudeDegrees>
            </Position>
            <AltitudeMeters>832.508</AltitudeMeters>
            <DistanceMeters>558912.41430376</DistanceMeters>
          </Trackpoint>
          <Trackpoint>
            <Time>2021-08-03T15:59:13Z</Time>
            <Position>
              <LatitudeDegrees>40.999655</LatitudeDegrees>
              <LongitudeDegrees>-1.326723</LongitudeDegrees>
            </Position>
            <AltitudeMeters>832.466</AltitudeMeters>
            <DistanceMeters>558930.98467316</DistanceMeters>
          </Trackpoint>
          <Trackpoint>
            <Time>2021-08-03T15:59:15Z</Time>
            <Position>
              <LatitudeDegrees>40.999561</LatitudeDegrees>
              <LongitudeDegrees>-1.326647</LongitudeDegrees>
            </Position>
            <AltitudeMeters>832.418</AltitudeMeters>
            <DistanceMeters>558943.24090919</DistanceMeters>
          </Trackpoint>
          <Trackpoint>
            <Time>2021-08-03T15:59:17Z</Time>
            <Position>
              <LatitudeDegrees>40.999473</LatitudeDegrees>
              <LongitudeDegrees>-1.326599</LongitudeDegrees>
            </Position>
            <AltitudeMeters>832.618</AltitudeMeters>
            <DistanceMeters>558953.83287169</DistanceMeters>
          </Trackpoint>
          <Trackpoint>
            <Time>2021-08-03T15:59:18Z</Time>
            <Position>
              <LatitudeDegrees>40.999426</LatitudeDegrees>
              <LongitudeDegrees>-1.326564</LongitudeDegrees>
            </Position>
            <AltitudeMeters>832.771</AltitudeMeters>
            <DistanceMeters>558959.83311459</DistanceMeters>
          </Trackpoint>
          <Trackpoint>
            <Time>2021-08-03T15:59:19Z</Time>
            <Position>
              <LatitudeDegrees>40.999382</LatitudeDegrees>
              <LongitudeDegrees>-1.326538</LongitudeDegrees>
            </Position>
            <AltitudeMeters>832.869</AltitudeMeters>
            <DistanceMeters>558965.19518167</DistanceMeters>
          </Trackpoint>
          <Trackpoint>
            <Time>2021-08-03T15:59:20Z</Time>
            <Position>
              <LatitudeDegrees>40.999339</LatitudeDegrees>
              <LongitudeDegrees>-1.326515</LongitudeDegrees>
            </Position>
            <AltitudeMeters>833.074</AltitudeMeters>
            <DistanceMeters>558970.35645336</DistanceMeters>
          </Trackpoint>
          <Trackpoint>
            <Time>2021-08-03T15:59:22Z</Time>
            <Position>
              <LatitudeDegrees>40.999245</LatitudeDegrees>
              <LongitudeDegrees>-1.326476</LongitudeDegrees>
            </Position>
            <AltitudeMeters>833.389</AltitudeMeters>
            <DistanceMeters>558981.31958784</DistanceMeters>
          </Trackpoint>
          <Trackpoint>
            <Time>2021-08-03T15:59:25Z</Time>
            <Position>
              <LatitudeDegrees>40.999169</LatitudeDegrees>
              <LongitudeDegrees>-1.326438</LongitudeDegrees>
            </Position>
            <AltitudeMeters>833.440</AltitudeMeters>
            <DistanceMeters>558990.36061941</DistanceMeters>
          </Trackpoint>
          <Trackpoint>
            <Time>2021-08-03T15:59:26Z</Time>
            <Position>
              <LatitudeDegrees>40.999124</LatitudeDegrees>
              <LongitudeDegrees>-1.326413</LongitudeDegrees>
            </Position>
            <AltitudeMeters>833.423</AltitudeMeters>
            <DistanceMeters>558995.79129429</DistanceMeters>
          </Trackpoint>
          <Trackpoint>
            <Time>2021-08-03T15:59:27Z</Time>
            <Position>
              <LatitudeDegrees>40.999068</LatitudeDegrees>
              <LongitudeDegrees>-1.326380</LongitudeDegrees>
            </Position>
            <AltitudeMeters>833.383</AltitudeMeters>
            <DistanceMeters>559002.61272991</DistanceMeters>
          </Trackpoint>
          <Trackpoint>
            <Time>2021-08-03T15:59:29Z</Time>
            <Position>
              <LatitudeDegrees>40.998960</LatitudeDegrees>
              <LongitudeDegrees>-1.326317</LongitudeDegrees>
            </Position>
            <AltitudeMeters>833.111</AltitudeMeters>
            <DistanceMeters>559015.7463707</DistanceMeters>
          </Trackpoint>
          <Trackpoint>
            <Time>2021-08-03T15:59:30Z</Time>
            <Position>
              <LatitudeDegrees>40.998913</LatitudeDegrees>
              <LongitudeDegrees>-1.326285</LongitudeDegrees>
            </Position>
            <AltitudeMeters>833.108</AltitudeMeters>
            <DistanceMeters>559021.62728838</DistanceMeters>
          </Trackpoint>
          <Trackpoint>
            <Time>2021-08-03T15:59:31Z</Time>
            <Position>
              <LatitudeDegrees>40.998871</LatitudeDegrees>
              <LongitudeDegrees>-1.326257</LongitudeDegrees>
            </Position>
            <AltitudeMeters>833.259</AltitudeMeters>
            <DistanceMeters>559026.85980133</DistanceMeters>
          </Trackpoint>
          <Trackpoint>
            <Time>2021-08-03T15:59:32Z</Time>
            <Position>
              <LatitudeDegrees>40.998828</LatitudeDegrees>
              <LongitudeDegrees>-1.326226</LongitudeDegrees>
            </Position>
            <AltitudeMeters>833.421</AltitudeMeters>
            <DistanceMeters>559032.30790754</DistanceMeters>
          </Trackpoint>
          <Trackpoint>
            <Time>2021-08-03T15:59:34Z</Time>
            <Position>
              <LatitudeDegrees>40.998753</LatitudeDegrees>
              <LongitudeDegrees>-1.326152</LongitudeDegrees>
            </Position>
            <AltitudeMeters>833.461</AltitudeMeters>
            <DistanceMeters>559042.71539364</DistanceMeters>
          </Trackpoint>
          <Trackpoint>
            <Time>2021-08-03T15:59:35Z</Time>
            <Position>
              <LatitudeDegrees>40.998714</LatitudeDegrees>
              <LongitudeDegrees>-1.326120</LongitudeDegrees>
            </Position>
            <AltitudeMeters>833.424</AltitudeMeters>
            <DistanceMeters>559047.82037166</DistanceMeters>
          </Trackpoint>
          <Trackpoint>
            <Time>2021-08-03T15:59:37Z</Time>
            <Position>
              <LatitudeDegrees>40.998628</LatitudeDegrees>
              <LongitudeDegrees>-1.326080</LongitudeDegrees>
            </Position>
            <AltitudeMeters>833.462</AltitudeMeters>
            <DistanceMeters>559057.96466815</DistanceMeters>
          </Trackpoint>
          <Trackpoint>
            <Time>2021-08-03T15:59:38Z</Time>
            <Position>
              <LatitudeDegrees>40.998584</LatitudeDegrees>
              <LongitudeDegrees>-1.326065</LongitudeDegrees>
            </Position>
            <AltitudeMeters>833.467</AltitudeMeters>
            <DistanceMeters>559063.02166098</DistanceMeters>
          </Trackpoint>
          <Trackpoint>
            <Time>2021-08-03T15:59:40Z</Time>
            <Position>
              <LatitudeDegrees>40.998489</LatitudeDegrees>
              <LongitudeDegrees>-1.326045</LongitudeDegrees>
            </Position>
            <AltitudeMeters>833.552</AltitudeMeters>
            <DistanceMeters>559073.72809785</DistanceMeters>
          </Trackpoint>
          <Trackpoint>
            <Time>2021-08-03T15:59:42Z</Time>
            <Position>
              <LatitudeDegrees>40.998404</LatitudeDegrees>
              <LongitudeDegrees>-1.326007</LongitudeDegrees>
            </Position>
            <AltitudeMeters>833.613</AltitudeMeters>
            <DistanceMeters>559083.71268817</DistanceMeters>
          </Trackpoint>
          <Trackpoint>
            <Time>2021-08-03T15:59:44Z</Time>
            <Position>
              <LatitudeDegrees>40.998329</LatitudeDegrees>
              <LongitudeDegrees>-1.325937</LongitudeDegrees>
            </Position>
            <AltitudeMeters>833.879</AltitudeMeters>
            <DistanceMeters>559093.92352862</DistanceMeters>
          </Trackpoint>
          <Trackpoint>
            <Time>2021-08-03T15:59:46Z</Time>
            <Position>
              <LatitudeDegrees>40.998251</LatitudeDegrees>
              <LongitudeDegrees>-1.325885</LongitudeDegrees>
            </Position>
            <AltitudeMeters>834.205</AltitudeMeters>
            <DistanceMeters>559103.64230424</DistanceMeters>
          </Trackpoint>
          <Trackpoint>
            <Time>2021-08-03T15:59:48Z</Time>
            <Position>
              <LatitudeDegrees>40.998171</LatitudeDegrees>
              <LongitudeDegrees>-1.325834</LongitudeDegrees>
            </Position>
            <AltitudeMeters>834.425</AltitudeMeters>
            <DistanceMeters>559113.52325493</DistanceMeters>
          </Trackpoint>
          <Trackpoint>
            <Time>2021-08-03T15:59:49Z</Time>
            <Position>
              <LatitudeDegrees>40.998129</LatitudeDegrees>
              <LongitudeDegrees>-1.325806</LongitudeDegrees>
            </Position>
            <AltitudeMeters>834.508</AltitudeMeters>
            <DistanceMeters>559118.75749336</DistanceMeters>
          </Trackpoint>
          <Trackpoint>
            <Time>2021-08-03T15:59:50Z</Time>
            <Position>
              <LatitudeDegrees>40.998084</LatitudeDegrees>
              <LongitudeDegrees>-1.325782</LongitudeDegrees>
            </Position>
            <AltitudeMeters>834.694</AltitudeMeters>
            <DistanceMeters>559124.15648278</DistanceMeters>
          </Trackpoint>
          <Trackpoint>
            <Time>2021-08-03T15:59:52Z</Time>
            <Position>
              <LatitudeDegrees>40.998003</LatitudeDegrees>
              <LongitudeDegrees>-1.325724</LongitudeDegrees>
            </Position>
            <AltitudeMeters>834.756</AltitudeMeters>
            <DistanceMeters>559134.4043991</DistanceMeters>
          </Trackpoint>
          <Trackpoint>
            <Time>2021-08-03T15:59:54Z</Time>
            <Position>
              <LatitudeDegrees>40.997936</LatitudeDegrees>
              <LongitudeDegrees>-1.325674</LongitudeDegrees>
            </Position>
            <AltitudeMeters>834.786</AltitudeMeters>
            <DistanceMeters>559142.96313617</DistanceMeters>
          </Trackpoint>
          <Trackpoint>
            <Time>2021-08-03T15:59:55Z</Time>
            <Position>
              <LatitudeDegrees>40.997887</LatitudeDegrees>
              <LongitudeDegrees>-1.325632</LongitudeDegrees>
            </Position>
            <AltitudeMeters>834.739</AltitudeMeters>
            <DistanceMeters>559149.45840499</DistanceMeters>
          </Trackpoint>
          <Trackpoint>
            <Time>2021-08-03T15:59:57Z</Time>
            <Position>
              <LatitudeDegrees>40.997819</LatitudeDegrees>
              <LongitudeDegrees>-1.325583</LongitudeDegrees>
            </Position>
            <AltitudeMeters>834.827</AltitudeMeters>
            <DistanceMeters>559158.07392752</DistanceMeters>
          </Trackpoint>
          <Trackpoint>
            <Time>2021-08-03T15:59:59Z</Time>
            <Position>
              <LatitudeDegrees>40.997733</LatitudeDegrees>
              <LongitudeDegrees>-1.325534</LongitudeDegrees>
            </Position>
            <AltitudeMeters>834.992</AltitudeMeters>
            <DistanceMeters>559168.49355367</DistanceMeters>
          </Trackpoint>
          <Trackpoint>
            <Time>2021-08-03T16:00:01Z</Time>
            <Position>
              <LatitudeDegrees>40.997668</LatitudeDegrees>
              <LongitudeDegrees>-1.325487</LongitudeDegrees>
            </Position>
            <AltitudeMeters>835.377</AltitudeMeters>
            <DistanceMeters>559176.73516971</DistanceMeters>
          </Trackpoint>
          <Trackpoint>
            <Time>2021-08-03T16:00:02Z</Time>
            <Position>
              <LatitudeDegrees>40.997629</LatitudeDegrees>
              <LongitudeDegrees>-1.325457</LongitudeDegrees>
            </Position>
            <AltitudeMeters>835.438</AltitudeMeters>
            <DistanceMeters>559181.75452358</DistanceMeters>
          </Trackpoint>
          <Trackpoint>
            <Time>2021-08-03T16:00:04Z</Time>
            <Position>
              <LatitudeDegrees>40.997570</LatitudeDegrees>
              <LongitudeDegrees>-1.325402</LongitudeDegrees>
            </Position>
            <AltitudeMeters>835.754</AltitudeMeters>
            <DistanceMeters>559189.78414037</DistanceMeters>
          </Trackpoint>
          <Trackpoint>
            <Time>2021-08-03T16:00:06Z</Time>
            <Position>
              <LatitudeDegrees>40.997508</LatitudeDegrees>
              <LongitudeDegrees>-1.325347</LongitudeDegrees>
            </Position>
            <AltitudeMeters>835.756</AltitudeMeters>
            <DistanceMeters>559198.08906204</DistanceMeters>
          </Trackpoint>
          <Trackpoint>
            <Time>2021-08-03T16:00:08Z</Time>
            <Position>
              <LatitudeDegrees>40.997444</LatitudeDegrees>
              <LongitudeDegrees>-1.325282</LongitudeDegrees>
            </Position>
            <AltitudeMeters>835.611</AltitudeMeters>
            <DistanceMeters>559207.0649376</DistanceMeters>
          </Trackpoint>
          <Trackpoint>
            <Time>2021-08-03T16:00:10Z</Time>
            <Position>
              <LatitudeDegrees>40.997371</LatitudeDegrees>
              <LongitudeDegrees>-1.325227</LongitudeDegrees>
            </Position>
            <AltitudeMeters>834.808</AltitudeMeters>
            <DistanceMeters>559216.4114321</DistanceMeters>
          </Trackpoint>
          <Trackpoint>
            <Time>2021-08-03T16:00:12Z</Time>
            <Position>
              <LatitudeDegrees>40.997296</LatitudeDegrees>
              <LongitudeDegrees>-1.325182</LongitudeDegrees>
            </Position>
            <AltitudeMeters>834.862</AltitudeMeters>
            <DistanceMeters>559225.57449113</DistanceMeters>
          </Trackpoint>
          <Trackpoint>
            <Time>2021-08-03T16:00:14Z</Time>
            <Position>
              <LatitudeDegrees>40.997223</LatitudeDegrees>
              <LongitudeDegrees>-1.325131</LongitudeDegrees>
            </Position>
            <AltitudeMeters>834.814</AltitudeMeters>
            <DistanceMeters>559234.75920529</DistanceMeters>
          </Trackpoint>
          <Trackpoint>
            <Time>2021-08-03T16:00:16Z</Time>
            <Position>
              <LatitudeDegrees>40.997156</LatitudeDegrees>
              <LongitudeDegrees>-1.325076</LongitudeDegrees>
            </Position>
            <AltitudeMeters>835.384</AltitudeMeters>
            <DistanceMeters>559243.53156594</DistanceMeters>
          </Trackpoint>
          <Trackpoint>
            <Time>2021-08-03T16:00:18Z</Time>
            <Position>
              <LatitudeDegrees>40.997079</LatitudeDegrees>
              <LongitudeDegrees>-1.325027</LongitudeDegrees>
            </Position>
            <AltitudeMeters>835.557</AltitudeMeters>
            <DistanceMeters>559253.03898753</DistanceMeters>
          </Trackpoint>
          <Trackpoint>
            <Time>2021-08-03T16:00:19Z</Time>
            <Position>
              <LatitudeDegrees>40.997035</LatitudeDegrees>
              <LongitudeDegrees>-1.325000</LongitudeDegrees>
            </Position>
            <AltitudeMeters>835.655</AltitudeMeters>
            <DistanceMeters>559258.43630414</DistanceMeters>
          </Trackpoint>
          <Trackpoint>
            <Time>2021-08-03T16:00:21Z</Time>
            <Position>
              <LatitudeDegrees>40.996958</LatitudeDegrees>
              <LongitudeDegrees>-1.324954</LongitudeDegrees>
            </Position>
            <AltitudeMeters>835.740</AltitudeMeters>
            <DistanceMeters>559267.83770766</DistanceMeters>
          </Trackpoint>
          <Trackpoint>
            <Time>2021-08-03T16:00:23Z</Time>
            <Position>
              <LatitudeDegrees>40.996880</LatitudeDegrees>
              <LongitudeDegrees>-1.324899</LongitudeDegrees>
            </Position>
            <AltitudeMeters>835.745</AltitudeMeters>
            <DistanceMeters>559277.67193965</DistanceMeters>
          </Trackpoint>
          <Trackpoint>
            <Time>2021-08-03T16:00:25Z</Time>
            <Position>
              <LatitudeDegrees>40.996803</LatitudeDegrees>
              <LongitudeDegrees>-1.324842</LongitudeDegrees>
            </Position>
            <AltitudeMeters>835.766</AltitudeMeters>
            <DistanceMeters>559287.4891697</DistanceMeters>
          </Trackpoint>
          <Trackpoint>
            <Time>2021-08-03T16:00:26Z</Time>
            <Position>
              <LatitudeDegrees>40.996764</LatitudeDegrees>
              <LongitudeDegrees>-1.324809</LongitudeDegrees>
            </Position>
            <AltitudeMeters>835.747</AltitudeMeters>
            <DistanceMeters>559292.6399332</DistanceMeters>
          </Trackpoint>
          <Trackpoint>
            <Time>2021-08-03T16:00:28Z</Time>
            <Position>
              <LatitudeDegrees>40.996694</LatitudeDegrees>
              <LongitudeDegrees>-1.324743</LongitudeDegrees>
            </Position>
            <AltitudeMeters>835.729</AltitudeMeters>
            <DistanceMeters>559302.20275622</DistanceMeters>
          </Trackpoint>
          <Trackpoint>
            <Time>2021-08-03T16:00:30Z</Time>
            <Position>
              <LatitudeDegrees>40.996623</LatitudeDegrees>
              <LongitudeDegrees>-1.324672</LongitudeDegrees>
            </Position>
            <AltitudeMeters>835.921</AltitudeMeters>
            <DistanceMeters>559312.10379202</DistanceMeters>
          </Trackpoint>
          <Trackpoint>
            <Time>2021-08-03T16:00:32Z</Time>
            <Position>
              <LatitudeDegrees>40.996552</LatitudeDegrees>
              <LongitudeDegrees>-1.324605</LongitudeDegrees>
            </Position>
            <AltitudeMeters>835.908</AltitudeMeters>
            <DistanceMeters>559321.80582875</DistanceMeters>
          </Trackpoint>
          <Trackpoint>
            <Time>2021-08-03T16:00:34Z</Time>
            <Position>
              <LatitudeDegrees>40.996487</LatitudeDegrees>
              <LongitudeDegrees>-1.324532</LongitudeDegrees>
            </Position>
            <AltitudeMeters>836.161</AltitudeMeters>
            <DistanceMeters>559331.29042793</DistanceMeters>
          </Trackpoint>
          <Trackpoint>
            <Time>2021-08-03T16:00:36Z</Time>
            <Position>
              <LatitudeDegrees>40.996416</LatitudeDegrees>
              <LongitudeDegrees>-1.324454</LongitudeDegrees>
            </Position>
            <AltitudeMeters>836.333</AltitudeMeters>
            <DistanceMeters>559341.55595237</DistanceMeters>
          </Trackpoint>
          <Trackpoint>
            <Time>2021-08-03T16:00:37Z</Time>
            <Position>
              <LatitudeDegrees>40.996379</LatitudeDegrees>
              <LongitudeDegrees>-1.324416</LongitudeDegrees>
            </Position>
            <AltitudeMeters>836.413</AltitudeMeters>
            <DistanceMeters>559346.7659821</DistanceMeters>
          </Trackpoint>
          <Trackpoint>
            <Time>2021-08-03T16:00:38Z</Time>
            <Position>
              <LatitudeDegrees>40.996340</LatitudeDegrees>
              <LongitudeDegrees>-1.324381</LongitudeDegrees>
            </Position>
            <AltitudeMeters>836.586</AltitudeMeters>
            <DistanceMeters>559352.00970051</DistanceMeters>
          </Trackpoint>
          <Trackpoint>
            <Time>2021-08-03T16:00:40Z</Time>
            <Position>
              <LatitudeDegrees>40.996267</LatitudeDegrees>
              <LongitudeDegrees>-1.324311</LongitudeDegrees>
            </Position>
            <AltitudeMeters>836.634</AltitudeMeters>
            <DistanceMeters>559362.03940896</DistanceMeters>
          </Trackpoint>
          <Trackpoint>
            <Time>2021-08-03T16:00:42Z</Time>
            <Position>
              <LatitudeDegrees>40.996203</LatitudeDegrees>
              <LongitudeDegrees>-1.324235</LongitudeDegrees>
            </Position>
            <AltitudeMeters>836.789</AltitudeMeters>
            <DistanceMeters>559371.60459242</DistanceMeters>
          </Trackpoint>
          <Trackpoint>
            <Time>2021-08-03T16:00:44Z</Time>
            <Position>
              <LatitudeDegrees>40.996144</LatitudeDegrees>
              <LongitudeDegrees>-1.324161</LongitudeDegrees>
            </Position>
            <AltitudeMeters>836.824</AltitudeMeters>
            <DistanceMeters>559380.64662273</DistanceMeters>
          </Trackpoint>
          <Trackpoint>
            <Time>2021-08-03T16:00:46Z</Time>
            <Position>
              <LatitudeDegrees>40.996087</LatitudeDegrees>
              <LongitudeDegrees>-1.324086</LongitudeDegrees>
            </Position>
            <AltitudeMeters>837.035</AltitudeMeters>
            <DistanceMeters>559389.58822755</DistanceMeters>
          </Trackpoint>
          <Trackpoint>
            <Time>2021-08-03T16:00:48Z</Time>
            <Position>
              <LatitudeDegrees>40.996024</LatitudeDegrees>
              <LongitudeDegrees>-1.324005</LongitudeDegrees>
            </Position>
            <AltitudeMeters>837.121</AltitudeMeters>
            <DistanceMeters>559399.35889632</DistanceMeters>
          </Trackpoint>
          <Trackpoint>
            <Time>2021-08-03T16:00:50Z</Time>
            <Position>
              <LatitudeDegrees>40.995964</LatitudeDegrees>
              <LongitudeDegrees>-1.323930</LongitudeDegrees>
            </Position>
            <AltitudeMeters>837.141</AltitudeMeters>
            <DistanceMeters>559408.54016876</DistanceMeters>
          </Trackpoint>
          <Trackpoint>
            <Time>2021-08-03T16:00:51Z</Time>
            <Position>
              <LatitudeDegrees>40.995930</LatitudeDegrees>
              <LongitudeDegrees>-1.323889</LongitudeDegrees>
            </Position>
            <AltitudeMeters>837.005</AltitudeMeters>
            <DistanceMeters>559413.65751394</DistanceMeters>
          </Trackpoint>
          <Trackpoint>
            <Time>2021-08-03T16:00:53Z</Time>
            <Position>
              <LatitudeDegrees>40.995888</LatitudeDegrees>
              <LongitudeDegrees>-1.323783</LongitudeDegrees>
            </Position>
            <AltitudeMeters>837.008</AltitudeMeters>
            <DistanceMeters>559423.7141961</DistanceMeters>
          </Trackpoint>
          <Trackpoint>
            <Time>2021-08-03T16:00:55Z</Time>
            <Position>
              <LatitudeDegrees>40.995838</LatitudeDegrees>
              <LongitudeDegrees>-1.323703</LongitudeDegrees>
            </Position>
            <AltitudeMeters>837.069</AltitudeMeters>
            <DistanceMeters>559432.43959435</DistanceMeters>
          </Trackpoint>
          <Trackpoint>
            <Time>2021-08-03T16:00:57Z</Time>
            <Position>
              <LatitudeDegrees>40.995772</LatitudeDegrees>
              <LongitudeDegrees>-1.323640</LongitudeDegrees>
            </Position>
            <AltitudeMeters>837.591</AltitudeMeters>
            <DistanceMeters>559441.49360086</DistanceMeters>
          </Trackpoint>
          <Trackpoint>
            <Time>2021-08-03T16:00:58Z</Time>
            <Position>
              <LatitudeDegrees>40.995738</LatitudeDegrees>
              <LongitudeDegrees>-1.323600</LongitudeDegrees>
            </Position>
            <AltitudeMeters>837.551</AltitudeMeters>
            <DistanceMeters>559446.55416375</DistanceMeters>
          </Trackpoint>
          <Trackpoint>
            <Time>2021-08-03T16:01:00Z</Time>
            <Position>
              <LatitudeDegrees>40.995672</LatitudeDegrees>
              <LongitudeDegrees>-1.323520</LongitudeDegrees>
            </Position>
            <AltitudeMeters>837.594</AltitudeMeters>
            <DistanceMeters>559456.51067816</DistanceMeters>
          </Trackpoint>
          <Trackpoint>
            <Time>2021-08-03T16:01:01Z</Time>
            <Position>
              <LatitudeDegrees>40.995629</LatitudeDegrees>
              <LongitudeDegrees>-1.323477</LongitudeDegrees>
            </Position>
            <AltitudeMeters>837.512</AltitudeMeters>
            <DistanceMeters>559462.5064045</DistanceMeters>
          </Trackpoint>
          <Trackpoint>
            <Time>2021-08-03T16:01:03Z</Time>
            <Position>
              <LatitudeDegrees>40.995552</LatitudeDegrees>
              <LongitudeDegrees>-1.323398</LongitudeDegrees>
            </Position>
            <AltitudeMeters>837.527</AltitudeMeters>
            <DistanceMeters>559473.34528334</DistanceMeters>
          </Trackpoint>
          <Trackpoint>
            <Time>2021-08-03T16:01:04Z</Time>
            <Position>
              <LatitudeDegrees>40.995520</LatitudeDegrees>
              <LongitudeDegrees>-1.323340</LongitudeDegrees>
            </Position>
            <AltitudeMeters>837.652</AltitudeMeters>
            <DistanceMeters>559479.38078899</DistanceMeters>
          </Trackpoint>
          <Trackpoint>
            <Time>2021-08-03T16:01:06Z</Time>
            <Position>
              <LatitudeDegrees>40.995450</LatitudeDegrees>
              <LongitudeDegrees>-1.323244</LongitudeDegrees>
            </Position>
            <AltitudeMeters>837.873</AltitudeMeters>
            <DistanceMeters>559490.59394128</DistanceMeters>
          </Trackpoint>
          <Trackpoint>
            <Time>2021-08-03T16:01:08Z</Time>
            <Position>
              <LatitudeDegrees>40.995378</LatitudeDegrees>
              <LongitudeDegrees>-1.323131</LongitudeDegrees>
            </Position>
            <AltitudeMeters>838.094</AltitudeMeters>
            <DistanceMeters>559503.01702611</DistanceMeters>
          </Trackpoint>
          <Trackpoint>
            <Time>2021-08-03T16:01:10Z</Time>
            <Position>
              <LatitudeDegrees>40.995311</LatitudeDegrees>
              <LongitudeDegrees>-1.323067</LongitudeDegrees>
            </Position>
            <AltitudeMeters>838.157</AltitudeMeters>
            <DistanceMeters>559512.21009335</DistanceMeters>
          </Trackpoint>
          <Trackpoint>
            <Time>2021-08-03T16:01:12Z</Time>
            <Position>
              <LatitudeDegrees>40.995255</LatitudeDegrees>
              <LongitudeDegrees>-1.322995</LongitudeDegrees>
            </Position>
            <AltitudeMeters>838.222</AltitudeMeters>
            <DistanceMeters>559520.89555584</DistanceMeters>
          </Trackpoint>
          <Trackpoint>
            <Time>2021-08-03T16:01:14Z</Time>
            <Position>
              <LatitudeDegrees>40.995204</LatitudeDegrees>
              <LongitudeDegrees>-1.322939</LongitudeDegrees>
            </Position>
            <AltitudeMeters>838.208</AltitudeMeters>
            <DistanceMeters>559528.26855118</DistanceMeters>
          </Trackpoint>
          <Trackpoint>
            <Time>2021-08-03T16:01:16Z</Time>
            <Position>
              <LatitudeDegrees>40.995139</LatitudeDegrees>
              <LongitudeDegrees>-1.322854</LongitudeDegrees>
            </Position>
            <AltitudeMeters>838.296</AltitudeMeters>
            <DistanceMeters>559538.43418912</DistanceMeters>
          </Trackpoint>
          <Trackpoint>
            <Time>2021-08-03T16:01:17Z</Time>
            <Position>
              <LatitudeDegrees>40.995103</LatitudeDegrees>
              <LongitudeDegrees>-1.322803</LongitudeDegrees>
            </Position>
            <AltitudeMeters>838.248</AltitudeMeters>
            <DistanceMeters>559544.30127114</DistanceMeters>
          </Trackpoint>
          <Trackpoint>
            <Time>2021-08-03T16:01:19Z</Time>
            <Position>
              <LatitudeDegrees>40.995030</LatitudeDegrees>
              <LongitudeDegrees>-1.322730</LongitudeDegrees>
            </Position>
            <AltitudeMeters>838.338</AltitudeMeters>
            <DistanceMeters>559554.48111187</DistanceMeters>
          </Trackpoint>
          <Trackpoint>
            <Time>2021-08-03T16:01:21Z</Time>
            <Position>
              <LatitudeDegrees>40.994970</LatitudeDegrees>
              <LongitudeDegrees>-1.322667</LongitudeDegrees>
            </Position>
            <AltitudeMeters>838.651</AltitudeMeters>
            <DistanceMeters>559563.00231159</DistanceMeters>
          </Trackpoint>
          <Trackpoint>
            <Time>2021-08-03T16:01:23Z</Time>
            <Position>
              <LatitudeDegrees>40.994905</LatitudeDegrees>
              <LongitudeDegrees>-1.322569</LongitudeDegrees>
            </Position>
            <AltitudeMeters>838.949</AltitudeMeters>
            <DistanceMeters>559573.96215086</DistanceMeters>
          </Trackpoint>
          <Trackpoint>
            <Time>2021-08-03T16:01:25Z</Time>
            <Position>
              <LatitudeDegrees>40.994846</LatitudeDegrees>
              <LongitudeDegrees>-1.322500</LongitudeDegrees>
            </Position>
            <AltitudeMeters>839.084</AltitudeMeters>
            <DistanceMeters>559582.72163484</DistanceMeters>
          </Trackpoint>
          <Trackpoint>
            <Time>2021-08-03T16:01:26Z</Time>
            <Position>
              <LatitudeDegrees>40.994813</LatitudeDegrees>
              <LongitudeDegrees>-1.322448</LongitudeDegrees>
            </Position>
            <AltitudeMeters>839.029</AltitudeMeters>
            <DistanceMeters>559588.42798706</DistanceMeters>
          </Trackpoint>
          <Trackpoint>
            <Time>2021-08-03T16:01:27Z</Time>
            <Position>
              <LatitudeDegrees>40.994774</LatitudeDegrees>
              <LongitudeDegrees>-1.322407</LongitudeDegrees>
            </Position>
            <AltitudeMeters>839.080</AltitudeMeters>
            <DistanceMeters>559593.96894906</DistanceMeters>
          </Trackpoint>
          <Trackpoint>
            <Time>2021-08-03T16:01:29Z</Time>
            <Position>
              <LatitudeDegrees>40.994710</LatitudeDegrees>
              <LongitudeDegrees>-1.322298</LongitudeDegrees>
            </Position>
            <AltitudeMeters>839.095</AltitudeMeters>
            <DistanceMeters>559605.56999467</DistanceMeters>
          </Trackpoint>
          <Trackpoint>
            <Time>2021-08-03T16:01:30Z</Time>
            <Position>
              <LatitudeDegrees>40.994679</LatitudeDegrees>
              <LongitudeDegrees>-1.322249</LongitudeDegrees>
            </Position>
            <AltitudeMeters>839.249</AltitudeMeters>
            <DistanceMeters>559610.94215665</DistanceMeters>
          </Trackpoint>
          <Trackpoint>
            <Time>2021-08-03T16:01:31Z</Time>
            <Position>
              <LatitudeDegrees>40.994649</LatitudeDegrees>
              <LongitudeDegrees>-1.322203</LongitudeDegrees>
            </Position>
            <AltitudeMeters>839.223</AltitudeMeters>
            <DistanceMeters>559616.04890324</DistanceMeters>
          </Trackpoint>
          <Trackpoint>
            <Time>2021-08-03T16:01:33Z</Time>
            <Position>
              <LatitudeDegrees>40.994588</LatitudeDegrees>
              <LongitudeDegrees>-1.322147</LongitudeDegrees>
            </Position>
            <AltitudeMeters>839.208</AltitudeMeters>
            <DistanceMeters>559624.30912465</DistanceMeters>
          </Trackpoint>
          <Trackpoint>
            <Time>2021-08-03T16:01:35Z</Time>
            <Position>
              <LatitudeDegrees>40.994517</LatitudeDegrees>
              <LongitudeDegrees>-1.322059</LongitudeDegrees>
            </Position>
            <AltitudeMeters>838.646</AltitudeMeters>
            <DistanceMeters>559635.1300766</DistanceMeters>
          </Trackpoint>
          <Trackpoint>
            <Time>2021-08-03T16:01:37Z</Time>
            <Position>
              <LatitudeDegrees>40.994447</LatitudeDegrees>
              <LongitudeDegrees>-1.321968</LongitudeDegrees>
            </Position>
            <AltitudeMeters>838.838</AltitudeMeters>
            <DistanceMeters>559646.04533329</DistanceMeters>
          </Trackpoint>
          <Trackpoint>
            <Time>2021-08-03T16:01:39Z</Time>
            <Position>
              <LatitudeDegrees>40.994392</LatitudeDegrees>
              <LongitudeDegrees>-1.321903</LongitudeDegrees>
            </Position>
            <AltitudeMeters>839.088</AltitudeMeters>
            <DistanceMeters>559654.24851131</DistanceMeters>
          </Trackpoint>
          <Trackpoint>
            <Time>2021-08-03T16:01:41Z</Time>
            <Position>
              <LatitudeDegrees>40.994329</LatitudeDegrees>
              <LongitudeDegrees>-1.321825</LongitudeDegrees>
            </Position>
            <AltitudeMeters>839.111</AltitudeMeters>
            <DistanceMeters>559663.84573902</DistanceMeters>
          </Trackpoint>
          <Trackpoint>
            <Time>2021-08-03T16:01:42Z</Time>
            <Position>
              <LatitudeDegrees>40.994291</LatitudeDegrees>
              <LongitudeDegrees>-1.321777</LongitudeDegrees>
            </Position>
            <AltitudeMeters>839.199</AltitudeMeters>
            <DistanceMeters>559669.68891616</DistanceMeters>
          </Trackpoint>
          <Trackpoint>
            <Time>2021-08-03T16:01:43Z</Time>
            <Position>
              <LatitudeDegrees>40.994249</LatitudeDegrees>
              <LongitudeDegrees>-1.321706</LongitudeDegrees>
            </Position>
            <AltitudeMeters>839.134</AltitudeMeters>
            <DistanceMeters>559677.26725939</DistanceMeters>
          </Trackpoint>
          <Trackpoint>
            <Time>2021-08-03T16:01:45Z</Time>
            <Position>
              <LatitudeDegrees>40.994166</LatitudeDegrees>
              <LongitudeDegrees>-1.321596</LongitudeDegrees>
            </Position>
            <AltitudeMeters>839.159</AltitudeMeters>
            <DistanceMeters>559690.33438285</DistanceMeters>
          </Trackpoint>
          <Trackpoint>
            <Time>2021-08-03T16:01:47Z</Time>
            <Position>
              <LatitudeDegrees>40.994113</LatitudeDegrees>
              <LongitudeDegrees>-1.321507</LongitudeDegrees>
            </Position>
            <AltitudeMeters>838.950</AltitudeMeters>
            <DistanceMeters>559699.85793722</DistanceMeters>
          </Trackpoint>
          <Trackpoint>
            <Time>2021-08-03T16:01:49Z</Time>
            <Position>
              <LatitudeDegrees>40.994042</LatitudeDegrees>
              <LongitudeDegrees>-1.321420</LongitudeDegrees>
            </Position>
            <AltitudeMeters>838.991</AltitudeMeters>
            <DistanceMeters>559710.6224131</DistanceMeters>
          </Trackpoint>
          <Trackpoint>
            <Time>2021-08-03T16:01:50Z</Time>
            <Position>
              <LatitudeDegrees>40.994012</LatitudeDegrees>
              <LongitudeDegrees>-1.321374</LongitudeDegrees>
            </Position>
            <AltitudeMeters>838.981</AltitudeMeters>
            <DistanceMeters>559715.73004375</DistanceMeters>
          </Trackpoint>
          <Trackpoint>
            <Time>2021-08-03T16:01:52Z</Time>
            <Position>
              <LatitudeDegrees>40.993955</LatitudeDegrees>
              <LongitudeDegrees>-1.321283</LongitudeDegrees>
            </Position>
            <AltitudeMeters>838.919</AltitudeMeters>
            <DistanceMeters>559725.66476747</DistanceMeters>
          </Trackpoint>
          <Trackpoint>
            <Time>2021-08-03T16:01:53Z</Time>
            <Position>
              <LatitudeDegrees>40.993922</LatitudeDegrees>
              <LongitudeDegrees>-1.321239</LongitudeDegrees>
            </Position>
            <AltitudeMeters>838.908</AltitudeMeters>
            <DistanceMeters>559730.87653013</DistanceMeters>
          </Trackpoint>
          <Trackpoint>
            <Time>2021-08-03T16:01:54Z</Time>
            <Position>
              <LatitudeDegrees>40.993883</LatitudeDegrees>
              <LongitudeDegrees>-1.321195</LongitudeDegrees>
            </Position>
            <AltitudeMeters>838.926</AltitudeMeters>
            <DistanceMeters>559736.57734105</DistanceMeters>
          </Trackpoint>
          <Trackpoint>
            <Time>2021-08-03T16:01:55Z</Time>
            <Position>
              <LatitudeDegrees>40.993849</LatitudeDegrees>
              <LongitudeDegrees>-1.321154</LongitudeDegrees>
            </Position>
            <AltitudeMeters>839.078</AltitudeMeters>
            <DistanceMeters>559741.69468622</DistanceMeters>
          </Trackpoint>
          <Trackpoint>
            <Time>2021-08-03T16:01:57Z</Time>
            <Position>
              <LatitudeDegrees>40.993769</LatitudeDegrees>
              <LongitudeDegrees>-1.321049</LongitudeDegrees>
            </Position>
            <AltitudeMeters>839.378</AltitudeMeters>
            <DistanceMeters>559754.22812988</DistanceMeters>
          </Trackpoint>
          <Trackpoint>
            <Time>2021-08-03T16:01:58Z</Time>
            <Position>
              <LatitudeDegrees>40.993727</LatitudeDegrees>
              <LongitudeDegrees>-1.321004</LongitudeDegrees>
            </Position>
            <AltitudeMeters>839.521</AltitudeMeters>
            <DistanceMeters>559760.24115126</DistanceMeters>
          </Trackpoint>
          <Trackpoint>
            <Time>2021-08-03T16:02:00Z</Time>
            <Position>
              <LatitudeDegrees>40.993661</LatitudeDegrees>
              <LongitudeDegrees>-1.320918</LongitudeDegrees>
            </Position>
            <AltitudeMeters>839.659</AltitudeMeters>
            <DistanceMeters>559770.54443125</DistanceMeters>
          </Trackpoint>
          <Trackpoint>
            <Time>2021-08-03T16:02:01Z</Time>
            <Position>
              <LatitudeDegrees>40.993617</LatitudeDegrees>
              <LongitudeDegrees>-1.320870</LongitudeDegrees>
            </Position>
            <AltitudeMeters>839.624</AltitudeMeters>
            <DistanceMeters>559776.88848758</DistanceMeters>
          </Trackpoint>
          <Trackpoint>
            <Time>2021-08-03T16:02:03Z</Time>
            <Position>
              <LatitudeDegrees>40.993565</LatitudeDegrees>
              <LongitudeDegrees>-1.320813</LongitudeDegrees>
            </Position>
            <AltitudeMeters>839.129</AltitudeMeters>
            <DistanceMeters>559784.39980688</DistanceMeters>
          </Trackpoint>
          <Trackpoint>
            <Time>2021-08-03T16:02:05Z</Time>
            <Position>
              <LatitudeDegrees>40.993499</LatitudeDegrees>
              <LongitudeDegrees>-1.320733</LongitudeDegrees>
            </Position>
            <AltitudeMeters>839.060</AltitudeMeters>
            <DistanceMeters>559794.35632129</DistanceMeters>
          </Trackpoint>
          <Trackpoint>
            <Time>2021-08-03T16:02:07Z</Time>
            <Position>
              <LatitudeDegrees>40.993420</LatitudeDegrees>
              <LongitudeDegrees>-1.320621</LongitudeDegrees>
            </Position>
            <AltitudeMeters>838.858</AltitudeMeters>
            <DistanceMeters>559807.23410658</DistanceMeters>
          </Trackpoint>
          <Trackpoint>
            <Time>2021-08-03T16:02:08Z</Time>
            <Position>
              <LatitudeDegrees>40.993381</LatitudeDegrees>
              <LongitudeDegrees>-1.320569</LongitudeDegrees>
            </Position>
            <AltitudeMeters>838.952</AltitudeMeters>
            <DistanceMeters>559813.39254153</DistanceMeters>
          </Trackpoint>
          <Trackpoint>
            <Time>2021-08-03T16:02:10Z</Time>
            <Position>
              <LatitudeDegrees>40.993311</LatitudeDegrees>
              <LongitudeDegrees>-1.320484</LongitudeDegrees>
            </Position>
            <AltitudeMeters>838.517</AltitudeMeters>
            <DistanceMeters>559823.96146038</DistanceMeters>
          </Trackpoint>
          <Trackpoint>
            <Time>2021-08-03T16:02:11Z</Time>
            <Position>
              <LatitudeDegrees>40.993273</LatitudeDegrees>
              <LongitudeDegrees>-1.320432</LongitudeDegrees>
            </Position>
            <AltitudeMeters>838.508</AltitudeMeters>
            <DistanceMeters>559830.04242766</DistanceMeters>
          </Trackpoint>
          <Trackpoint>
            <Time>2021-08-03T16:02:12Z</Time>
            <Position>
              <LatitudeDegrees>40.993241</LatitudeDegrees>
              <LongitudeDegrees>-1.320382</LongitudeDegrees>
            </Position>
            <AltitudeMeters>838.072</AltitudeMeters>
            <DistanceMeters>559835.54987959</DistanceMeters>
          </Trackpoint>
          <Trackpoint>
            <Time>2021-08-03T16:02:14Z</Time>
            <Position>
              <LatitudeDegrees>40.993178</LatitudeDegrees>
              <LongitudeDegrees>-1.320296</LongitudeDegrees>
            </Position>
            <AltitudeMeters>837.964</AltitudeMeters>
            <DistanceMeters>559845.617331</DistanceMeters>
          </Trackpoint>
          <Trackpoint>
            <Time>2021-08-03T16:02:16Z</Time>
            <Position>
              <LatitudeDegrees>40.993111</LatitudeDegrees>
              <LongitudeDegrees>-1.320221</LongitudeDegrees>
            </Position>
            <AltitudeMeters>837.944</AltitudeMeters>
            <DistanceMeters>559855.37967841</DistanceMeters>
          </Trackpoint>
          <Trackpoint>
            <Time>2021-08-03T16:02:17Z</Time>
            <Position>
              <LatitudeDegrees>40.993075</LatitudeDegrees>
              <LongitudeDegrees>-1.320182</LongitudeDegrees>
            </Position>
            <AltitudeMeters>837.937</AltitudeMeters>
            <DistanceMeters>559860.5558002</DistanceMeters>
          </Trackpoint>
          <Trackpoint>
            <Time>2021-08-03T16:02:22Z</Time>
            <Position>
              <LatitudeDegrees>40.993023</LatitudeDegrees>
              <LongitudeDegrees>-1.320120</LongitudeDegrees>
            </Position>
            <AltitudeMeters>838.225</AltitudeMeters>
            <DistanceMeters>559868.34161442</DistanceMeters>
          </Trackpoint>
          <Trackpoint>
            <Time>2021-08-03T16:02:24Z</Time>
            <Position>
              <LatitudeDegrees>40.992867</LatitudeDegrees>
              <LongitudeDegrees>-1.319945</LongitudeDegrees>
            </Position>
            <AltitudeMeters>838.330</AltitudeMeters>
            <DistanceMeters>559891.09272455</DistanceMeters>
          </Trackpoint>
          <Trackpoint>
            <Time>2021-08-03T16:02:26Z</Time>
            <Position>
              <LatitudeDegrees>40.992813</LatitudeDegrees>
              <LongitudeDegrees>-1.319863</LongitudeDegrees>
            </Position>
            <AltitudeMeters>838.895</AltitudeMeters>
            <DistanceMeters>559900.23407715</DistanceMeters>
          </Trackpoint>
          <Trackpoint>
            <Time>2021-08-03T16:02:28Z</Time>
            <Position>
              <LatitudeDegrees>40.992755</LatitudeDegrees>
              <LongitudeDegrees>-1.319793</LongitudeDegrees>
            </Position>
            <AltitudeMeters>838.586</AltitudeMeters>
            <DistanceMeters>559908.96619977</DistanceMeters>
          </Trackpoint>
          <Trackpoint>
            <Time>2021-08-03T16:02:30Z</Time>
            <Position>
              <LatitudeDegrees>40.992699</LatitudeDegrees>
              <LongitudeDegrees>-1.319707</LongitudeDegrees>
            </Position>
            <AltitudeMeters>838.525</AltitudeMeters>
            <DistanceMeters>559918.50775262</DistanceMeters>
          </Trackpoint>
          <Trackpoint>
            <Time>2021-08-03T16:02:32Z</Time>
            <Position>
              <LatitudeDegrees>40.992639</LatitudeDegrees>
              <LongitudeDegrees>-1.319656</LongitudeDegrees>
            </Position>
            <AltitudeMeters>838.526</AltitudeMeters>
            <DistanceMeters>559926.44234101</DistanceMeters>
          </Trackpoint>
          <Trackpoint>
            <Time>2021-08-03T16:02:34Z</Time>
            <Position>
              <LatitudeDegrees>40.992561</LatitudeDegrees>
              <LongitudeDegrees>-1.319546</LongitudeDegrees>
            </Position>
            <AltitudeMeters>838.908</AltitudeMeters>
            <DistanceMeters>559939.12191044</DistanceMeters>
          </Trackpoint>
          <Trackpoint>
            <Time>2021-08-03T16:02:35Z</Time>
            <Position>
              <LatitudeDegrees>40.992527</LatitudeDegrees>
              <LongitudeDegrees>-1.319498</LongitudeDegrees>
            </Position>
            <AltitudeMeters>838.908</AltitudeMeters>
            <DistanceMeters>559944.65145282</DistanceMeters>
          </Trackpoint>
          <Trackpoint>
            <Time>2021-08-03T16:02:37Z</Time>
            <Position>
              <LatitudeDegrees>40.992477</LatitudeDegrees>
              <LongitudeDegrees>-1.319416</LongitudeDegrees>
            </Position>
            <AltitudeMeters>838.849</AltitudeMeters>
            <DistanceMeters>559953.50680057</DistanceMeters>
          </Trackpoint>
          <Trackpoint>
            <Time>2021-08-03T16:02:39Z</Time>
            <Position>
              <LatitudeDegrees>40.992415</LatitudeDegrees>
              <LongitudeDegrees>-1.319344</LongitudeDegrees>
            </Position>
            <AltitudeMeters>837.821</AltitudeMeters>
            <DistanceMeters>559962.68364605</DistanceMeters>
          </Trackpoint>
          <Trackpoint>
            <Time>2021-08-03T16:02:40Z</Time>
            <Position>
              <LatitudeDegrees>40.992383</LatitudeDegrees>
              <LongitudeDegrees>-1.319300</LongitudeDegrees>
            </Position>
            <AltitudeMeters>837.851</AltitudeMeters>
            <DistanceMeters>559967.81596842</DistanceMeters>
          </Trackpoint>
          <Trackpoint>
            <Time>2021-08-03T16:02:42Z</Time>
            <Position>
              <LatitudeDegrees>40.992310</LatitudeDegrees>
              <LongitudeDegrees>-1.319220</LongitudeDegrees>
            </Position>
            <AltitudeMeters>837.844</AltitudeMeters>
            <DistanceMeters>559978.36008058</DistanceMeters>
          </Trackpoint>
          <Trackpoint>
            <Time>2021-08-03T16:02:43Z</Time>
            <Position>
              <LatitudeDegrees>40.992271</LatitudeDegrees>
              <LongitudeDegrees>-1.319180</LongitudeDegrees>
            </Position>
            <AltitudeMeters>837.992</AltitudeMeters>
            <DistanceMeters>559983.84946717</DistanceMeters>
          </Trackpoint>
          <Trackpoint>
            <Time>2021-08-03T16:02:45Z</Time>
            <Position>
              <LatitudeDegrees>40.992227</LatitudeDegrees>
              <LongitudeDegrees>-1.319110</LongitudeDegrees>
            </Position>
            <AltitudeMeters>838.087</AltitudeMeters>
            <DistanceMeters>559991.50192074</DistanceMeters>
          </Trackpoint>
          <Trackpoint>
            <Time>2021-08-03T16:02:47Z</Time>
            <Position>
              <LatitudeDegrees>40.992170</LatitudeDegrees>
              <LongitudeDegrees>-1.319038</LongitudeDegrees>
            </Position>
            <AltitudeMeters>838.152</AltitudeMeters>
            <DistanceMeters>560000.26758789</DistanceMeters>
          </Trackpoint>
          <Trackpoint>
            <Time>2021-08-03T16:02:49Z</Time>
            <Position>
              <LatitudeDegrees>40.992105</LatitudeDegrees>
              <LongitudeDegrees>-1.318960</LongitudeDegrees>
            </Position>
            <AltitudeMeters>837.763</AltitudeMeters>
            <DistanceMeters>560010.02808513</DistanceMeters>
          </Trackpoint>
          <Trackpoint>
            <Time>2021-08-03T16:02:51Z</Time>
            <Position>
              <LatitudeDegrees>40.992039</LatitudeDegrees>
              <LongitudeDegrees>-1.318877</LongitudeDegrees>
            </Position>
            <AltitudeMeters>837.782</AltitudeMeters>
            <DistanceMeters>560020.15590021</DistanceMeters>
          </Trackpoint>
          <Trackpoint>
            <Time>2021-08-03T16:02:52Z</Time>
            <Position>
              <LatitudeDegrees>40.991983</LatitudeDegrees>
              <LongitudeDegrees>-1.318799</LongitudeDegrees>
            </Position>
            <AltitudeMeters>838.243</AltitudeMeters>
            <DistanceMeters>560029.19892915</DistanceMeters>
          </Trackpoint>
          <Trackpoint>
            <Time>2021-08-03T16:02:54Z</Time>
            <Position>
              <LatitudeDegrees>40.991926</LatitudeDegrees>
              <LongitudeDegrees>-1.318727</LongitudeDegrees>
            </Position>
            <AltitudeMeters>838.317</AltitudeMeters>
            <DistanceMeters>560037.96511136</DistanceMeters>
          </Trackpoint>
          <Trackpoint>
            <Time>2021-08-03T16:02:56Z</Time>
            <Position>
              <LatitudeDegrees>40.991869</LatitudeDegrees>
              <LongitudeDegrees>-1.318660</LongitudeDegrees>
            </Position>
            <AltitudeMeters>839.508</AltitudeMeters>
            <DistanceMeters>560046.44647852</DistanceMeters>
          </Trackpoint>
          <Trackpoint>
            <Time>2021-08-03T16:02:57Z</Time>
            <Position>
              <LatitudeDegrees>40.991836</LatitudeDegrees>
              <LongitudeDegrees>-1.318616</LongitudeDegrees>
            </Position>
            <AltitudeMeters>839.665</AltitudeMeters>
            <DistanceMeters>560051.65650825</DistanceMeters>
          </Trackpoint>
          <Trackpoint>
            <Time>2021-08-03T16:02:59Z</Time>
            <Position>
              <LatitudeDegrees>40.991767</LatitudeDegrees>
              <LongitudeDegrees>-1.318533</LongitudeDegrees>
            </Position>
            <AltitudeMeters>839.757</AltitudeMeters>
            <DistanceMeters>560062.02966548</DistanceMeters>
          </Trackpoint>
          <Trackpoint>
            <Time>2021-08-03T16:03:01Z</Time>
            <Position>
              <LatitudeDegrees>40.991728</LatitudeDegrees>
              <LongitudeDegrees>-1.318491</LongitudeDegrees>
            </Position>
            <AltitudeMeters>839.927</AltitudeMeters>
            <DistanceMeters>560067.62414892</DistanceMeters>
          </Trackpoint>
          <Trackpoint>
            <Time>2021-08-03T16:03:04Z</Time>
            <Position>
              <LatitudeDegrees>40.991673</LatitudeDegrees>
              <LongitudeDegrees>-1.318437</LongitudeDegrees>
            </Position>
            <AltitudeMeters>840.180</AltitudeMeters>
            <DistanceMeters>560075.24349019</DistanceMeters>
          </Trackpoint>
          <Trackpoint>
            <Time>2021-08-03T16:03:05Z</Time>
            <Position>
              <LatitudeDegrees>40.991615</LatitudeDegrees>
              <LongitudeDegrees>-1.318365</LongitudeDegrees>
            </Position>
            <AltitudeMeters>840.248</AltitudeMeters>
            <DistanceMeters>560084.09067633</DistanceMeters>
          </Trackpoint>
          <Trackpoint>
            <Time>2021-08-03T16:03:07Z</Time>
            <Position>
              <LatitudeDegrees>40.991501</LatitudeDegrees>
              <LongitudeDegrees>-1.318222</LongitudeDegrees>
            </Position>
            <AltitudeMeters>840.283</AltitudeMeters>
            <DistanceMeters>560101.5642262</DistanceMeters>
          </Trackpoint>
          <Trackpoint>
            <Time>2021-08-03T16:03:09Z</Time>
            <Position>
              <LatitudeDegrees>40.991442</LatitudeDegrees>
              <LongitudeDegrees>-1.318141</LongitudeDegrees>
            </Position>
            <AltitudeMeters>840.158</AltitudeMeters>
            <DistanceMeters>560111.02069737</DistanceMeters>
          </Trackpoint>
          <Trackpoint>
            <Time>2021-08-03T16:03:11Z</Time>
            <Position>
              <LatitudeDegrees>40.991384</LatitudeDegrees>
              <LongitudeDegrees>-1.318055</LongitudeDegrees>
            </Position>
            <AltitudeMeters>839.999</AltitudeMeters>
            <DistanceMeters>560120.70876294</DistanceMeters>
          </Trackpoint>
          <Trackpoint>
            <Time>2021-08-03T16:03:13Z</Time>
            <Position>
              <LatitudeDegrees>40.991308</LatitudeDegrees>
              <LongitudeDegrees>-1.317965</LongitudeDegrees>
            </Position>
            <AltitudeMeters>840.095</AltitudeMeters>
            <DistanceMeters>560132.05401347</DistanceMeters>
          </Trackpoint>
          <Trackpoint>
            <Time>2021-08-03T16:03:15Z</Time>
            <Position>
              <LatitudeDegrees>40.991242</LatitudeDegrees>
              <LongitudeDegrees>-1.317883</LongitudeDegrees>
            </Position>
            <AltitudeMeters>839.949</AltitudeMeters>
            <DistanceMeters>560142.12460375</DistanceMeters>
          </Trackpoint>
          <Trackpoint>
            <Time>2021-08-03T16:03:16Z</Time>
            <Position>
              <LatitudeDegrees>40.991205</LatitudeDegrees>
              <LongitudeDegrees>-1.317844</LongitudeDegrees>
            </Position>
            <AltitudeMeters>840.123</AltitudeMeters>
            <DistanceMeters>560147.38723089</DistanceMeters>
          </Trackpoint>
          <Trackpoint>
            <Time>2021-08-03T16:03:18Z</Time>
            <Position>
              <LatitudeDegrees>40.991160</LatitudeDegrees>
              <LongitudeDegrees>-1.317800</LongitudeDegrees>
            </Position>
            <AltitudeMeters>840.408</AltitudeMeters>
            <DistanceMeters>560153.61129933</DistanceMeters>
          </Trackpoint>
          <Trackpoint>
            <Time>2021-08-03T16:03:19Z</Time>
            <Position>
              <LatitudeDegrees>40.991117</LatitudeDegrees>
              <LongitudeDegrees>-1.317754</LongitudeDegrees>
            </Position>
            <AltitudeMeters>840.586</AltitudeMeters>
            <DistanceMeters>560159.76239845</DistanceMeters>
          </Trackpoint>
          <Trackpoint>
            <Time>2021-08-03T16:03:20Z</Time>
            <Position>
              <LatitudeDegrees>40.991070</LatitudeDegrees>
              <LongitudeDegrees>-1.317699</LongitudeDegrees>
            </Position>
            <AltitudeMeters>840.588</AltitudeMeters>
            <DistanceMeters>560166.74152678</DistanceMeters>
          </Trackpoint>
          <Trackpoint>
            <Time>2021-08-03T16:03:22Z</Time>
            <Position>
              <LatitudeDegrees>40.990991</LatitudeDegrees>
              <LongitudeDegrees>-1.317589</LongitudeDegrees>
            </Position>
            <AltitudeMeters>841.428</AltitudeMeters>
            <DistanceMeters>560179.49777927</DistanceMeters>
          </Trackpoint>
          <Trackpoint>
            <Time>2021-08-03T16:03:24Z</Time>
            <Position>
              <LatitudeDegrees>40.990927</LatitudeDegrees>
              <LongitudeDegrees>-1.317503</LongitudeDegrees>
            </Position>
            <AltitudeMeters>841.821</AltitudeMeters>
            <DistanceMeters>560189.64385592</DistanceMeters>
          </Trackpoint>
          <Trackpoint>
            <Time>2021-08-03T16:03:26Z</Time>
            <Position>
              <LatitudeDegrees>40.990876</LatitudeDegrees>
              <LongitudeDegrees>-1.317445</LongitudeDegrees>
            </Position>
            <AltitudeMeters>841.669</AltitudeMeters>
            <DistanceMeters>560197.12505996</DistanceMeters>
          </Trackpoint>
          <Trackpoint>
            <Time>2021-08-03T16:03:28Z</Time>
            <Position>
              <LatitudeDegrees>40.990837</LatitudeDegrees>
              <LongitudeDegrees>-1.317342</LongitudeDegrees>
            </Position>
            <AltitudeMeters>841.414</AltitudeMeters>
            <DistanceMeters>560206.80613239</DistanceMeters>
          </Trackpoint>
          <Trackpoint>
            <Time>2021-08-03T16:03:30Z</Time>
            <Position>
              <LatitudeDegrees>40.990774</LatitudeDegrees>
              <LongitudeDegrees>-1.317272</LongitudeDegrees>
            </Position>
            <AltitudeMeters>841.479</AltitudeMeters>
            <DistanceMeters>560215.95834464</DistanceMeters>
          </Trackpoint>
          <Trackpoint>
            <Time>2021-08-03T16:03:32Z</Time>
            <Position>
              <LatitudeDegrees>40.990722</LatitudeDegrees>
              <LongitudeDegrees>-1.317207</LongitudeDegrees>
            </Position>
            <AltitudeMeters>841.480</AltitudeMeters>
            <DistanceMeters>560223.91509435</DistanceMeters>
          </Trackpoint>
          <Trackpoint>
            <Time>2021-08-03T16:03:34Z</Time>
            <Position>
              <LatitudeDegrees>40.990671</LatitudeDegrees>
              <LongitudeDegrees>-1.317128</LongitudeDegrees>
            </Position>
            <AltitudeMeters>841.694</AltitudeMeters>
            <DistanceMeters>560232.64825103</DistanceMeters>
          </Trackpoint>
          <Trackpoint>
            <Time>2021-08-03T16:03:36Z</Time>
            <Position>
              <LatitudeDegrees>40.990620</LatitudeDegrees>
              <LongitudeDegrees>-1.317062</LongitudeDegrees>
            </Position>
            <AltitudeMeters>841.757</AltitudeMeters>
            <DistanceMeters>560240.58283943</DistanceMeters>
          </Trackpoint>
          <Trackpoint>
            <Time>2021-08-03T16:03:38Z</Time>
            <Position>
              <LatitudeDegrees>40.990567</LatitudeDegrees>
              <LongitudeDegrees>-1.316998</LongitudeDegrees>
            </Position>
            <AltitudeMeters>841.722</AltitudeMeters>
            <DistanceMeters>560248.56395208</DistanceMeters>
          </Trackpoint>
          <Trackpoint>
            <Time>2021-08-03T16:03:40Z</Time>
            <Position>
              <LatitudeDegrees>40.990510</LatitudeDegrees>
              <LongitudeDegrees>-1.316926</LongitudeDegrees>
            </Position>
            <AltitudeMeters>841.808</AltitudeMeters>
            <DistanceMeters>560257.33013429</DistanceMeters>
          </Trackpoint>
          <Trackpoint>
            <Time>2021-08-03T16:03:42Z</Time>
            <Position>
              <LatitudeDegrees>40.990436</LatitudeDegrees>
              <LongitudeDegrees>-1.316810</LongitudeDegrees>
            </Position>
            <AltitudeMeters>841.976</AltitudeMeters>
            <DistanceMeters>560270.08992576</DistanceMeters>
          </Trackpoint>
          <Trackpoint>
            <Time>2021-08-03T16:03:44Z</Time>
            <Position>
              <LatitudeDegrees>40.990378</LatitudeDegrees>
              <LongitudeDegrees>-1.316717</LongitudeDegrees>
            </Position>
            <AltitudeMeters>842.148</AltitudeMeters>
            <DistanceMeters>560280.22487122</DistanceMeters>
          </Trackpoint>
          <Trackpoint>
            <Time>2021-08-03T16:03:46Z</Time>
            <Position>
              <LatitudeDegrees>40.990320</LatitudeDegrees>
              <LongitudeDegrees>-1.316690</LongitudeDegrees>
            </Position>
            <AltitudeMeters>842.468</AltitudeMeters>
            <DistanceMeters>560287.06745453</DistanceMeters>
          </Trackpoint>
          <Trackpoint>
            <Time>2021-08-03T16:03:48Z</Time>
            <Position>
              <LatitudeDegrees>40.990255</LatitudeDegrees>
              <LongitudeDegrees>-1.316607</LongitudeDegrees>
            </Position>
            <AltitudeMeters>842.531</AltitudeMeters>
            <DistanceMeters>560297.11605219</DistanceMeters>
          </Trackpoint>
          <Trackpoint>
            <Time>2021-08-03T16:03:49Z</Time>
            <Position>
              <LatitudeDegrees>40.990223</LatitudeDegrees>
              <LongitudeDegrees>-1.316564</LongitudeDegrees>
            </Position>
            <AltitudeMeters>842.659</AltitudeMeters>
            <DistanceMeters>560302.18909051</DistanceMeters>
          </Trackpoint>
          <Trackpoint>
            <Time>2021-08-03T16:03:50Z</Time>
            <Position>
              <LatitudeDegrees>40.990185</LatitudeDegrees>
              <LongitudeDegrees>-1.316523</LongitudeDegrees>
            </Position>
            <AltitudeMeters>842.694</AltitudeMeters>
            <DistanceMeters>560307.64465024</DistanceMeters>
          </Trackpoint>
          <Trackpoint>
            <Time>2021-08-03T16:03:51Z</Time>
            <Position>
              <LatitudeDegrees>40.990154</LatitudeDegrees>
              <LongitudeDegrees>-1.316480</LongitudeDegrees>
            </Position>
            <AltitudeMeters>842.949</AltitudeMeters>
            <DistanceMeters>560312.6405617</DistanceMeters>
          </Trackpoint>
          <Trackpoint>
            <Time>2021-08-03T16:03:53Z</Time>
            <Position>
              <LatitudeDegrees>40.990093</LatitudeDegrees>
              <LongitudeDegrees>-1.316402</LongitudeDegrees>
            </Position>
            <AltitudeMeters>843.130</AltitudeMeters>
            <DistanceMeters>560322.07647998</DistanceMeters>
          </Trackpoint>
          <Trackpoint>
            <Time>2021-08-03T16:03:55Z</Time>
            <Position>
              <LatitudeDegrees>40.990032</LatitudeDegrees>
              <LongitudeDegrees>-1.316326</LongitudeDegrees>
            </Position>
            <AltitudeMeters>843.139</AltitudeMeters>
            <DistanceMeters>560331.39685204</DistanceMeters>
          </Trackpoint>
          <Trackpoint>
            <Time>2021-08-03T16:03:57Z</Time>
            <Position>
              <LatitudeDegrees>40.989965</LatitudeDegrees>
              <LongitudeDegrees>-1.316249</LongitudeDegrees>
            </Position>
            <AltitudeMeters>843.101</AltitudeMeters>
            <DistanceMeters>560341.26865963</DistanceMeters>
          </Trackpoint>
          <Trackpoint>
            <Time>2021-08-03T16:03:59Z</Time>
            <Position>
              <LatitudeDegrees>40.989896</LatitudeDegrees>
              <LongitudeDegrees>-1.316181</LongitudeDegrees>
            </Position>
            <AltitudeMeters>843.221</AltitudeMeters>
            <DistanceMeters>560350.8404492</DistanceMeters>
          </Trackpoint>
          <Trackpoint>
            <Time>2021-08-03T16:04:01Z</Time>
            <Position>
              <LatitudeDegrees>40.989829</LatitudeDegrees>
              <LongitudeDegrees>-1.316097</LongitudeDegrees>
            </Position>
            <AltitudeMeters>843.208</AltitudeMeters>
            <DistanceMeters>560361.10685325</DistanceMeters>
          </Trackpoint>
          <Trackpoint>
            <Time>2021-08-03T16:04:03Z</Time>
            <Position>
              <LatitudeDegrees>40.989761</LatitudeDegrees>
              <LongitudeDegrees>-1.316018</LongitudeDegrees>
            </Position>
            <AltitudeMeters>843.310</AltitudeMeters>
            <DistanceMeters>560371.17340767</DistanceMeters>
          </Trackpoint>
          <Trackpoint>
            <Time>2021-08-03T16:04:05Z</Time>
            <Position>
              <LatitudeDegrees>40.989694</LatitudeDegrees>
              <LongitudeDegrees>-1.315942</LongitudeDegrees>
            </Position>
            <AltitudeMeters>843.392</AltitudeMeters>
            <DistanceMeters>560380.99109762</DistanceMeters>
          </Trackpoint>
          <Trackpoint>
            <Time>2021-08-03T16:04:06Z</Time>
            <Position>
              <LatitudeDegrees>40.989644</LatitudeDegrees>
              <LongitudeDegrees>-1.315897</LongitudeDegrees>
            </Position>
            <AltitudeMeters>843.342</AltitudeMeters>
            <DistanceMeters>560387.71855949</DistanceMeters>
          </Trackpoint>
          <Trackpoint>
            <Time>2021-08-03T16:04:08Z</Time>
            <Position>
              <LatitudeDegrees>40.989567</LatitudeDegrees>
              <LongitudeDegrees>-1.315810</LongitudeDegrees>
            </Position>
            <AltitudeMeters>843.355</AltitudeMeters>
            <DistanceMeters>560398.98233213</DistanceMeters>
          </Trackpoint>
          <Trackpoint>
            <Time>2021-08-03T16:04:10Z</Time>
            <Position>
              <LatitudeDegrees>40.989517</LatitudeDegrees>
              <LongitudeDegrees>-1.315754</LongitudeDegrees>
            </Position>
            <AltitudeMeters>843.323</AltitudeMeters>
            <DistanceMeters>560406.26909063</DistanceMeters>
          </Trackpoint>
          <Trackpoint>
            <Time>2021-08-03T16:04:12Z</Time>
            <Position>
              <LatitudeDegrees>40.989450</LatitudeDegrees>
              <LongitudeDegrees>-1.315678</LongitudeDegrees>
            </Position>
            <AltitudeMeters>843.268</AltitudeMeters>
            <DistanceMeters>560416.08632068</DistanceMeters>
          </Trackpoint>
          <Trackpoint>
            <Time>2021-08-03T16:04:14Z</Time>
            <Position>
              <LatitudeDegrees>40.989374</LatitudeDegrees>
              <LongitudeDegrees>-1.315561</LongitudeDegrees>
            </Position>
            <AltitudeMeters>843.583</AltitudeMeters>
            <DistanceMeters>560429.05459519</DistanceMeters>
          </Trackpoint>
          <Trackpoint>
            <Time>2021-08-03T16:04:16Z</Time>
            <Position>
              <LatitudeDegrees>40.989304</LatitudeDegrees>
              <LongitudeDegrees>-1.315492</LongitudeDegrees>
            </Position>
            <AltitudeMeters>843.844</AltitudeMeters>
            <DistanceMeters>560438.76546993</DistanceMeters>
          </Trackpoint>
          <Trackpoint>
            <Time>2021-08-03T16:04:18Z</Time>
            <Position>
              <LatitudeDegrees>40.989241</LatitudeDegrees>
              <LongitudeDegrees>-1.315424</LongitudeDegrees>
            </Position>
            <AltitudeMeters>843.965</AltitudeMeters>
            <DistanceMeters>560447.81049578</DistanceMeters>
          </Trackpoint>
          <Trackpoint>
            <Time>2021-08-03T16:04:20Z</Time>
            <Position>
              <LatitudeDegrees>40.989198</LatitudeDegrees>
              <LongitudeDegrees>-1.315376</LongitudeDegrees>
            </Position>
            <AltitudeMeters>843.968</AltitudeMeters>
            <DistanceMeters>560454.06928733</DistanceMeters>
          </Trackpoint>
          <Trackpoint>
            <Time>2021-08-03T16:04:22Z</Time>
            <Position>
              <LatitudeDegrees>40.989126</LatitudeDegrees>
              <LongitudeDegrees>-1.315305</LongitudeDegrees>
            </Position>
            <AltitudeMeters>843.914</AltitudeMeters>
            <DistanceMeters>560464.06020645</DistanceMeters>
          </Trackpoint>
          <Trackpoint>
            <Time>2021-08-03T16:04:24Z</Time>
            <Position>
              <LatitudeDegrees>40.989065</LatitudeDegrees>
              <LongitudeDegrees>-1.315245</LongitudeDegrees>
            </Position>
            <AltitudeMeters>843.808</AltitudeMeters>
            <DistanceMeters>560472.51705016</DistanceMeters>
          </Trackpoint>
          <Trackpoint>
            <Time>2021-08-03T16:04:26Z</Time>
            <Position>
              <LatitudeDegrees>40.988977</LatitudeDegrees>
              <LongitudeDegrees>-1.315157</LongitudeDegrees>
            </Position>
            <AltitudeMeters>843.883</AltitudeMeters>
            <DistanceMeters>560484.78911661</DistanceMeters>
          </Trackpoint>
          <Trackpoint>
            <Time>2021-08-03T16:04:27Z</Time>
            <Position>
              <LatitudeDegrees>40.988935</LatitudeDegrees>
              <LongitudeDegrees>-1.315110</LongitudeDegrees>
            </Position>
            <AltitudeMeters>843.795</AltitudeMeters>
            <DistanceMeters>560490.90783354</DistanceMeters>
          </Trackpoint>
          <Trackpoint>
            <Time>2021-08-03T16:04:28Z</Time>
            <Position>
              <LatitudeDegrees>40.988891</LatitudeDegrees>
              <LongitudeDegrees>-1.315060</LongitudeDegrees>
            </Position>
            <AltitudeMeters>843.915</AltitudeMeters>
            <DistanceMeters>560497.35986054</DistanceMeters>
          </Trackpoint>
          <Trackpoint>
            <Time>2021-08-03T16:04:29Z</Time>
            <Position>
              <LatitudeDegrees>40.988851</LatitudeDegrees>
              <LongitudeDegrees>-1.315019</LongitudeDegrees>
            </Position>
            <AltitudeMeters>844.228</AltitudeMeters>
            <DistanceMeters>560502.98894024</DistanceMeters>
          </Trackpoint>
          <Trackpoint>
            <Time>2021-08-03T16:04:30Z</Time>
            <Position>
              <LatitudeDegrees>40.988814</LatitudeDegrees>
              <LongitudeDegrees>-1.314984</LongitudeDegrees>
            </Position>
            <AltitudeMeters>844.436</AltitudeMeters>
            <DistanceMeters>560508.04950313</DistanceMeters>
          </Trackpoint>
          <Trackpoint>
            <Time>2021-08-03T16:04:32Z</Time>
            <Position>
              <LatitudeDegrees>40.988736</LatitudeDegrees>
              <LongitudeDegrees>-1.314916</LongitudeDegrees>
            </Position>
            <AltitudeMeters>844.411</AltitudeMeters>
            <DistanceMeters>560518.44222868</DistanceMeters>
          </Trackpoint>
          <Trackpoint>
            <Time>2021-08-03T16:04:33Z</Time>
            <Position>
              <LatitudeDegrees>40.988694</LatitudeDegrees>
              <LongitudeDegrees>-1.314879</LongitudeDegrees>
            </Position>
            <AltitudeMeters>844.416</AltitudeMeters>
            <DistanceMeters>560524.05604795</DistanceMeters>
          </Trackpoint>
          <Trackpoint>
            <Time>2021-08-03T16:04:35Z</Time>
            <Position>
              <LatitudeDegrees>40.988618</LatitudeDegrees>
              <LongitudeDegrees>-1.314808</LongitudeDegrees>
            </Position>
            <AltitudeMeters>844.527</AltitudeMeters>
            <DistanceMeters>560534.40741922</DistanceMeters>
          </Trackpoint>
          <Trackpoint>
            <Time>2021-08-03T16:04:36Z</Time>
            <Position>
              <LatitudeDegrees>40.988576</LatitudeDegrees>
              <LongitudeDegrees>-1.314774</LongitudeDegrees>
            </Position>
            <AltitudeMeters>844.515</AltitudeMeters>
            <DistanceMeters>560539.88692687</DistanceMeters>
          </Trackpoint>
          <Trackpoint>
            <Time>2021-08-03T16:04:38Z</Time>
            <Position>
              <LatitudeDegrees>40.988510</LatitudeDegrees>
              <LongitudeDegrees>-1.314735</LongitudeDegrees>
            </Position>
            <AltitudeMeters>844.565</AltitudeMeters>
            <DistanceMeters>560547.93115013</DistanceMeters>
          </Trackpoint>
          <Trackpoint>
            <Time>2021-08-03T16:04:40Z</Time>
            <Position>
              <LatitudeDegrees>40.988448</LatitudeDegrees>
              <LongitudeDegrees>-1.314691</LongitudeDegrees>
            </Position>
            <AltitudeMeters>844.411</AltitudeMeters>
            <DistanceMeters>560555.75918301</DistanceMeters>
          </Trackpoint>
          <Trackpoint>
            <Time>2021-08-03T16:04:42Z</Time>
            <Position>
              <LatitudeDegrees>40.988390</LatitudeDegrees>
              <LongitudeDegrees>-1.314643</LongitudeDegrees>
            </Position>
            <AltitudeMeters>844.008</AltitudeMeters>
            <DistanceMeters>560563.3708169</DistanceMeters>
          </Trackpoint>
          <Trackpoint>
            <Time>2021-08-03T16:04:44Z</Time>
            <Position>
              <LatitudeDegrees>40.988346</LatitudeDegrees>
              <LongitudeDegrees>-1.314608</LongitudeDegrees>
            </Position>
            <AltitudeMeters>844.218</AltitudeMeters>
            <DistanceMeters>560569.08349545</DistanceMeters>
          </Trackpoint>
          <Trackpoint>
            <Time>2021-08-03T16:04:47Z</Time>
            <Position>
              <LatitudeDegrees>40.988283</LatitudeDegrees>
              <LongitudeDegrees>-1.314586</LongitudeDegrees>
            </Position>
            <AltitudeMeters>844.280</AltitudeMeters>
            <DistanceMeters>560576.33484947</DistanceMeters>
          </Trackpoint>
          <Trackpoint>
            <Time>2021-08-03T16:04:49Z</Time>
            <Position>
              <LatitudeDegrees>40.988244</LatitudeDegrees>
              <LongitudeDegrees>-1.314548</LongitudeDegrees>
            </Position>
            <AltitudeMeters>844.210</AltitudeMeters>
            <DistanceMeters>560581.72295636</DistanceMeters>
          </Trackpoint>
          <Trackpoint>
            <Time>2021-08-03T16:04:51Z</Time>
            <Position>
              <LatitudeDegrees>40.988193</LatitudeDegrees>
              <LongitudeDegrees>-1.314504</LongitudeDegrees>
            </Position>
            <AltitudeMeters>844.273</AltitudeMeters>
            <DistanceMeters>560588.49590168</DistanceMeters>
          </Trackpoint>
          <Trackpoint>
            <Time>2021-08-03T16:04:53Z</Time>
            <Position>
              <LatitudeDegrees>40.988147</LatitudeDegrees>
              <LongitudeDegrees>-1.314463</LongitudeDegrees>
            </Position>
            <AltitudeMeters>844.251</AltitudeMeters>
            <DistanceMeters>560594.66605583</DistanceMeters>
          </Trackpoint>
          <Trackpoint>
            <Time>2021-08-03T16:04:55Z</Time>
            <Position>
              <LatitudeDegrees>40.988109</LatitudeDegrees>
              <LongitudeDegrees>-1.314430</LongitudeDegrees>
            </Position>
            <AltitudeMeters>844.116</AltitudeMeters>
            <DistanceMeters>560599.72304866</DistanceMeters>
          </Trackpoint>
          <Trackpoint>
            <Time>2021-08-03T16:04:57Z</Time>
            <Position>
              <LatitudeDegrees>40.988071</LatitudeDegrees>
              <LongitudeDegrees>-1.314395</LongitudeDegrees>
            </Position>
            <AltitudeMeters>844.071</AltitudeMeters>
            <DistanceMeters>560604.87556501</DistanceMeters>
          </Trackpoint>
          <Trackpoint>
            <Time>2021-08-03T16:04:59Z</Time>
            <Position>
              <LatitudeDegrees>40.988025</LatitudeDegrees>
              <LongitudeDegrees>-1.314358</LongitudeDegrees>
            </Position>
            <AltitudeMeters>844.072</AltitudeMeters>
            <DistanceMeters>560610.86451013</DistanceMeters>
          </Trackpoint>
          <Trackpoint>
            <Time>2021-08-03T16:05:00Z</Time>
            <Position>
              <LatitudeDegrees>40.987747</LatitudeDegrees>
              <LongitudeDegrees>-1.314103</LongitudeDegrees>
            </Position>
            <AltitudeMeters>844.051</AltitudeMeters>
            <DistanceMeters>560648.49952814</DistanceMeters>
          </Trackpoint>
          <Trackpoint>
            <Time>2021-08-03T16:05:01Z</Time>
            <Position>
              <LatitudeDegrees>40.987623</LatitudeDegrees>
              <LongitudeDegrees>-1.313998</LongitudeDegrees>
            </Position>
            <AltitudeMeters>844.101</AltitudeMeters>
            <DistanceMeters>560664.87944363</DistanceMeters>
          </Trackpoint>
          <Trackpoint>
            <Time>2021-08-03T16:05:03Z</Time>
            <Position>
              <LatitudeDegrees>40.987543</LatitudeDegrees>
              <LongitudeDegrees>-1.313931</LongitudeDegrees>
            </Position>
            <AltitudeMeters>843.711</AltitudeMeters>
            <DistanceMeters>560675.41370247</DistanceMeters>
          </Trackpoint>
          <Trackpoint>
            <Time>2021-08-03T16:05:05Z</Time>
            <Position>
              <LatitudeDegrees>40.987460</LatitudeDegrees>
              <LongitudeDegrees>-1.313867</LongitudeDegrees>
            </Position>
            <AltitudeMeters>843.408</AltitudeMeters>
            <DistanceMeters>560686.10283514</DistanceMeters>
          </Trackpoint>
          <Trackpoint>
            <Time>2021-08-03T16:05:06Z</Time>
            <Position>
              <LatitudeDegrees>40.987422</LatitudeDegrees>
              <LongitudeDegrees>-1.313830</LongitudeDegrees>
            </Position>
            <AltitudeMeters>843.272</AltitudeMeters>
            <DistanceMeters>560691.35085697</DistanceMeters>
          </Trackpoint>
          <Trackpoint>
            <Time>2021-08-03T16:05:07Z</Time>
            <Position>
              <LatitudeDegrees>40.987383</LatitudeDegrees>
              <LongitudeDegrees>-1.313792</LongitudeDegrees>
            </Position>
            <AltitudeMeters>843.374</AltitudeMeters>
            <DistanceMeters>560696.73896386</DistanceMeters>
          </Trackpoint>
          <Trackpoint>
            <Time>2021-08-03T16:05:08Z</Time>
            <Position>
              <LatitudeDegrees>40.987340</LatitudeDegrees>
              <LongitudeDegrees>-1.313761</LongitudeDegrees>
            </Position>
            <AltitudeMeters>843.294</AltitudeMeters>
            <DistanceMeters>560702.18789874</DistanceMeters>
          </Trackpoint>
          <Trackpoint>
            <Time>2021-08-03T16:05:10Z</Time>
            <Position>
              <LatitudeDegrees>40.987257</LatitudeDegrees>
              <LongitudeDegrees>-1.313691</LongitudeDegrees>
            </Position>
            <AltitudeMeters>842.737</AltitudeMeters>
            <DistanceMeters>560713.13867109</DistanceMeters>
          </Trackpoint>
          <Trackpoint>
            <Time>2021-08-03T16:05:11Z</Time>
            <Position>
              <LatitudeDegrees>40.987219</LatitudeDegrees>
              <LongitudeDegrees>-1.313655</LongitudeDegrees>
            </Position>
            <AltitudeMeters>842.355</AltitudeMeters>
            <DistanceMeters>560718.33829116</DistanceMeters>
          </Trackpoint>
          <Trackpoint>
            <Time>2021-08-03T16:05:12Z</Time>
            <Position>
              <LatitudeDegrees>40.987176</LatitudeDegrees>
              <LongitudeDegrees>-1.313616</LongitudeDegrees>
            </Position>
            <AltitudeMeters>842.350</AltitudeMeters>
            <DistanceMeters>560724.13803553</DistanceMeters>
          </Trackpoint>
          <Trackpoint>
            <Time>2021-08-03T16:05:14Z</Time>
            <Position>
              <LatitudeDegrees>40.987088</LatitudeDegrees>
              <LongitudeDegrees>-1.313548</LongitudeDegrees>
            </Position>
            <AltitudeMeters>842.645</AltitudeMeters>
            <DistanceMeters>560735.4769168</DistanceMeters>
          </Trackpoint>
          <Trackpoint>
            <Time>2021-08-03T16:05:16Z</Time>
            <Position>
              <LatitudeDegrees>40.986999</LatitudeDegrees>
              <LongitudeDegrees>-1.313481</LongitudeDegrees>
            </Position>
            <AltitudeMeters>843.846</AltitudeMeters>
            <DistanceMeters>560746.87021961</DistanceMeters>
          </Trackpoint>
          <Trackpoint>
            <Time>2021-08-03T16:05:18Z</Time>
            <Position>
              <LatitudeDegrees>40.986912</LatitudeDegrees>
              <LongitudeDegrees>-1.313403</LongitudeDegrees>
            </Position>
            <AltitudeMeters>843.852</AltitudeMeters>
            <DistanceMeters>560758.56275387</DistanceMeters>
          </Trackpoint>
          <Trackpoint>
            <Time>2021-08-03T16:05:19Z</Time>
            <Position>
              <LatitudeDegrees>40.986870</LatitudeDegrees>
              <LongitudeDegrees>-1.313366</LongitudeDegrees>
            </Position>
            <AltitudeMeters>843.753</AltitudeMeters>
            <DistanceMeters>560764.17657314</DistanceMeters>
          </Trackpoint>
          <Trackpoint>
            <Time>2021-08-03T16:05:20Z</Time>
            <Position>
              <LatitudeDegrees>40.986829</LatitudeDegrees>
              <LongitudeDegrees>-1.313334</LongitudeDegrees>
            </Position>
            <AltitudeMeters>843.508</AltitudeMeters>
            <DistanceMeters>560769.47340686</DistanceMeters>
          </Trackpoint>
          <Trackpoint>
            <Time>2021-08-03T16:05:22Z</Time>
            <Position>
              <LatitudeDegrees>40.986748</LatitudeDegrees>
              <LongitudeDegrees>-1.313260</LongitudeDegrees>
            </Position>
            <AltitudeMeters>843.408</AltitudeMeters>
            <DistanceMeters>560780.42500379</DistanceMeters>
          </Trackpoint>
          <Trackpoint>
            <Time>2021-08-03T16:05:24Z</Time>
            <Position>
              <LatitudeDegrees>40.986664</LatitudeDegrees>
              <LongitudeDegrees>-1.313193</LongitudeDegrees>
            </Position>
            <AltitudeMeters>843.692</AltitudeMeters>
            <DistanceMeters>560791.33777833</DistanceMeters>
          </Trackpoint>
          <Trackpoint>
            <Time>2021-08-03T16:05:25Z</Time>
            <Position>
              <LatitudeDegrees>40.986623</LatitudeDegrees>
              <LongitudeDegrees>-1.313159</LongitudeDegrees>
            </Position>
            <AltitudeMeters>843.844</AltitudeMeters>
            <DistanceMeters>560796.72169376</DistanceMeters>
          </Trackpoint>
          <Trackpoint>
            <Time>2021-08-03T16:05:26Z</Time>
            <Position>
              <LatitudeDegrees>40.986585</LatitudeDegrees>
              <LongitudeDegrees>-1.313127</LongitudeDegrees>
            </Position>
            <AltitudeMeters>844.074</AltitudeMeters>
            <DistanceMeters>560801.73384626</DistanceMeters>
          </Trackpoint>
          <Trackpoint>
            <Time>2021-08-03T16:05:28Z</Time>
            <Position>
              <LatitudeDegrees>40.986499</LatitudeDegrees>
              <LongitudeDegrees>-1.313073</LongitudeDegrees>
            </Position>
            <AltitudeMeters>844.297</AltitudeMeters>
            <DistanceMeters>560812.32666127</DistanceMeters>
          </Trackpoint>
          <Trackpoint>
            <Time>2021-08-03T16:05:29Z</Time>
            <Position>
              <LatitudeDegrees>40.986457</LatitudeDegrees>
              <LongitudeDegrees>-1.313040</LongitudeDegrees>
            </Position>
            <AltitudeMeters>844.275</AltitudeMeters>
            <DistanceMeters>560817.76232224</DistanceMeters>
          </Trackpoint>
          <Trackpoint>
            <Time>2021-08-03T16:05:31Z</Time>
            <Position>
              <LatitudeDegrees>40.986378</LatitudeDegrees>
              <LongitudeDegrees>-1.312982</LongitudeDegrees>
            </Position>
            <AltitudeMeters>844.290</AltitudeMeters>
            <DistanceMeters>560827.81541209</DistanceMeters>
          </Trackpoint>
          <Trackpoint>
            <Time>2021-08-03T16:05:33Z</Time>
            <Position>
              <LatitudeDegrees>40.986305</LatitudeDegrees>
              <LongitudeDegrees>-1.312932</LongitudeDegrees>
            </Position>
            <AltitudeMeters>844.275</AltitudeMeters>
            <DistanceMeters>560836.96219613</DistanceMeters>
          </Trackpoint>
          <Trackpoint>
            <Time>2021-08-03T16:05:35Z</Time>
            <Position>
              <LatitudeDegrees>40.986229</LatitudeDegrees>
              <LongitudeDegrees>-1.312900</LongitudeDegrees>
            </Position>
            <AltitudeMeters>844.256</AltitudeMeters>
            <DistanceMeters>560845.83842376</DistanceMeters>
          </Trackpoint>
          <Trackpoint>
            <Time>2021-08-03T16:05:36Z</Time>
            <Position>
              <LatitudeDegrees>40.986167</LatitudeDegrees>
              <LongitudeDegrees>-1.312881</LongitudeDegrees>
            </Position>
            <AltitudeMeters>844.215</AltitudeMeters>
            <DistanceMeters>560852.92158017</DistanceMeters>
          </Trackpoint>
          <Trackpoint>
            <Time>2021-08-03T16:05:38Z</Time>
            <Position>
              <LatitudeDegrees>40.986075</LatitudeDegrees>
              <LongitudeDegrees>-1.312853</LongitudeDegrees>
            </Position>
            <AltitudeMeters>844.265</AltitudeMeters>
            <DistanceMeters>560863.42794274</DistanceMeters>
          </Trackpoint>
          <Trackpoint>
            <Time>2021-08-03T16:05:41Z</Time>
            <Position>
              <LatitudeDegrees>40.985995</LatitudeDegrees>
              <LongitudeDegrees>-1.312803</LongitudeDegrees>
            </Position>
            <AltitudeMeters>843.911</AltitudeMeters>
            <DistanceMeters>560873.27410447</DistanceMeters>
          </Trackpoint>
          <Trackpoint>
            <Time>2021-08-03T16:05:42Z</Time>
            <Position>
              <LatitudeDegrees>40.985955</LatitudeDegrees>
              <LongitudeDegrees>-1.312769</LongitudeDegrees>
            </Position>
            <AltitudeMeters>843.908</AltitudeMeters>
            <DistanceMeters>560878.564968</DistanceMeters>
          </Trackpoint>
          <Trackpoint>
            <Time>2021-08-03T16:05:43Z</Time>
            <Position>
              <LatitudeDegrees>40.985923</LatitudeDegrees>
              <LongitudeDegrees>-1.312714</LongitudeDegrees>
            </Position>
            <AltitudeMeters>843.848</AltitudeMeters>
            <DistanceMeters>560884.39963922</DistanceMeters>
          </Trackpoint>
          <Trackpoint>
            <Time>2021-08-03T16:05:44Z</Time>
            <Position>
              <LatitudeDegrees>40.985840</LatitudeDegrees>
              <LongitudeDegrees>-1.312648</LongitudeDegrees>
            </Position>
            <AltitudeMeters>843.810</AltitudeMeters>
            <DistanceMeters>560895.17417692</DistanceMeters>
          </Trackpoint>
          <Trackpoint>
            <Time>2021-08-03T16:05:46Z</Time>
            <Position>
              <LatitudeDegrees>40.985766</LatitudeDegrees>
              <LongitudeDegrees>-1.312570</LongitudeDegrees>
            </Position>
            <AltitudeMeters>843.970</AltitudeMeters>
            <DistanceMeters>560905.69943121</DistanceMeters>
          </Trackpoint>
          <Trackpoint>
            <Time>2021-08-03T16:05:48Z</Time>
            <Position>
              <LatitudeDegrees>40.985699</LatitudeDegrees>
              <LongitudeDegrees>-1.312506</LongitudeDegrees>
            </Position>
            <AltitudeMeters>844.483</AltitudeMeters>
            <DistanceMeters>560914.89298958</DistanceMeters>
          </Trackpoint>
          <Trackpoint>
            <Time>2021-08-03T16:05:50Z</Time>
            <Position>
              <LatitudeDegrees>40.985643</LatitudeDegrees>
              <LongitudeDegrees>-1.312462</LongitudeDegrees>
            </Position>
            <AltitudeMeters>844.541</AltitudeMeters>
            <DistanceMeters>560922.13873761</DistanceMeters>
          </Trackpoint>
          <Trackpoint>
            <Time>2021-08-03T16:05:52Z</Time>
            <Position>
              <LatitudeDegrees>40.985574</LatitudeDegrees>
              <LongitudeDegrees>-1.312399</LongitudeDegrees>
            </Position>
            <AltitudeMeters>844.486</AltitudeMeters>
            <DistanceMeters>560931.46588918</DistanceMeters>
          </Trackpoint>
          <Trackpoint>
            <Time>2021-08-03T16:05:53Z</Time>
            <Position>
              <LatitudeDegrees>40.985529</LatitudeDegrees>
              <LongitudeDegrees>-1.312362</LongitudeDegrees>
            </Position>
            <AltitudeMeters>844.521</AltitudeMeters>
            <DistanceMeters>560937.36061005</DistanceMeters>
          </Trackpoint>
          <Trackpoint>
            <Time>2021-08-03T16:05:55Z</Time>
            <Position>
              <LatitudeDegrees>40.985434</LatitudeDegrees>
              <LongitudeDegrees>-1.312293</LongitudeDegrees>
            </Position>
            <AltitudeMeters>844.472</AltitudeMeters>
            <DistanceMeters>560949.41964613</DistanceMeters>
          </Trackpoint>
          <Trackpoint>
            <Time>2021-08-03T16:05:56Z</Time>
            <Position>
              <LatitudeDegrees>40.985366</LatitudeDegrees>
              <LongitudeDegrees>-1.312239</LongitudeDegrees>
            </Position>
            <AltitudeMeters>844.337</AltitudeMeters>
            <DistanceMeters>560958.24434891</DistanceMeters>
          </Trackpoint>
          <Trackpoint>
            <Time>2021-08-03T16:05:57Z</Time>
            <Position>
              <LatitudeDegrees>40.985307</LatitudeDegrees>
              <LongitudeDegrees>-1.312179</LongitudeDegrees>
            </Position>
            <AltitudeMeters>843.849</AltitudeMeters>
            <DistanceMeters>560966.52313386</DistanceMeters>
          </Trackpoint>
          <Trackpoint>
            <Time>2021-08-03T16:05:59Z</Time>
            <Position>
              <LatitudeDegrees>40.985236</LatitudeDegrees>
              <LongitudeDegrees>-1.312063</LongitudeDegrees>
            </Position>
            <AltitudeMeters>843.813</AltitudeMeters>
            <DistanceMeters>560979.07061898</DistanceMeters>
          </Trackpoint>
          <Trackpoint>
            <Time>2021-08-03T16:06:00Z</Time>
            <Position>
              <LatitudeDegrees>40.985201</LatitudeDegrees>
              <LongitudeDegrees>-1.312009</LongitudeDegrees>
            </Position>
            <AltitudeMeters>844.508</AltitudeMeters>
            <DistanceMeters>560985.05051051</DistanceMeters>
          </Trackpoint>
          <Trackpoint>
            <Time>2021-08-03T16:06:02Z</Time>
            <Position>
              <LatitudeDegrees>40.985118</LatitudeDegrees>
              <LongitudeDegrees>-1.311943</LongitudeDegrees>
            </Position>
            <AltitudeMeters>844.550</AltitudeMeters>
            <DistanceMeters>560995.82504821</DistanceMeters>
          </Trackpoint>
          <Trackpoint>
            <Time>2021-08-03T16:06:03Z</Time>
            <Position>
              <LatitudeDegrees>40.985075</LatitudeDegrees>
              <LongitudeDegrees>-1.311927</LongitudeDegrees>
            </Position>
            <AltitudeMeters>844.522</AltitudeMeters>
            <DistanceMeters>561000.79559035</DistanceMeters>
          </Trackpoint>
          <Trackpoint>
            <Time>2021-08-03T16:06:05Z</Time>
            <Position>
              <LatitudeDegrees>40.985014</LatitudeDegrees>
              <LongitudeDegrees>-1.311910</LongitudeDegrees>
            </Position>
            <AltitudeMeters>844.622</AltitudeMeters>
            <DistanceMeters>561007.73384212</DistanceMeters>
          </Trackpoint>
          <Trackpoint>
            <Time>2021-08-03T16:06:07Z</Time>
            <Position>
              <LatitudeDegrees>40.984960</LatitudeDegrees>
              <LongitudeDegrees>-1.311884</LongitudeDegrees>
            </Position>
            <AltitudeMeters>844.895</AltitudeMeters>
            <DistanceMeters>561014.1282292</DistanceMeters>
          </Trackpoint>
          <Trackpoint>
            <Time>2021-08-03T16:06:09Z</Time>
            <Position>
              <LatitudeDegrees>40.984905</LatitudeDegrees>
              <LongitudeDegrees>-1.311844</LongitudeDegrees>
            </Position>
            <AltitudeMeters>845.013</AltitudeMeters>
            <DistanceMeters>561021.11123806</DistanceMeters>
          </Trackpoint>
          <Trackpoint>
            <Time>2021-08-03T16:06:11Z</Time>
            <Position>
              <LatitudeDegrees>40.984851</LatitudeDegrees>
              <LongitudeDegrees>-1.311790</LongitudeDegrees>
            </Position>
            <AltitudeMeters>845.128</AltitudeMeters>
            <DistanceMeters>561028.64176793</DistanceMeters>
          </Trackpoint>
          <Trackpoint>
            <Time>2021-08-03T16:06:13Z</Time>
            <Position>
              <LatitudeDegrees>40.984798</LatitudeDegrees>
              <LongitudeDegrees>-1.311742</LongitudeDegrees>
            </Position>
            <AltitudeMeters>845.213</AltitudeMeters>
            <DistanceMeters>561035.78775157</DistanceMeters>
          </Trackpoint>
          <Trackpoint>
            <Time>2021-08-03T16:06:15Z</Time>
            <Position>
              <LatitudeDegrees>40.984741</LatitudeDegrees>
              <LongitudeDegrees>-1.311688</LongitudeDegrees>
            </Position>
            <AltitudeMeters>845.254</AltitudeMeters>
            <DistanceMeters>561043.58689223</DistanceMeters>
          </Trackpoint>
          <Trackpoint>
            <Time>2021-08-03T16:06:17Z</Time>
            <Position>
              <LatitudeDegrees>40.984693</LatitudeDegrees>
              <LongitudeDegrees>-1.311639</LongitudeDegrees>
            </Position>
            <AltitudeMeters>845.226</AltitudeMeters>
            <DistanceMeters>561050.33178104</DistanceMeters>
          </Trackpoint>
          <Trackpoint>
            <Time>2021-08-03T16:06:19Z</Time>
            <Position>
              <LatitudeDegrees>40.984630</LatitudeDegrees>
              <LongitudeDegrees>-1.311598</LongitudeDegrees>
            </Position>
            <AltitudeMeters>845.247</AltitudeMeters>
            <DistanceMeters>561058.14364744</DistanceMeters>
          </Trackpoint>
          <Trackpoint>
            <Time>2021-08-03T16:06:21Z</Time>
            <Position>
              <LatitudeDegrees>40.984567</LatitudeDegrees>
              <LongitudeDegrees>-1.311535</LongitudeDegrees>
            </Position>
            <AltitudeMeters>845.211</AltitudeMeters>
            <DistanceMeters>561066.92937982</DistanceMeters>
          </Trackpoint>
          <Trackpoint>
            <Time>2021-08-03T16:06:23Z</Time>
            <Position>
              <LatitudeDegrees>40.984501</LatitudeDegrees>
              <LongitudeDegrees>-1.311479</LongitudeDegrees>
            </Position>
            <AltitudeMeters>845.308</AltitudeMeters>
            <DistanceMeters>561075.65322555</DistanceMeters>
          </Trackpoint>
          <Trackpoint>
            <Time>2021-08-03T16:06:24Z</Time>
            <Position>
              <LatitudeDegrees>40.984465</LatitudeDegrees>
              <LongitudeDegrees>-1.311444</LongitudeDegrees>
            </Position>
            <AltitudeMeters>845.429</AltitudeMeters>
            <DistanceMeters>561080.62376768</DistanceMeters>
          </Trackpoint>
          <Trackpoint>
            <Time>2021-08-03T16:06:26Z</Time>
            <Position>
              <LatitudeDegrees>40.984416</LatitudeDegrees>
              <LongitudeDegrees>-1.311405</LongitudeDegrees>
            </Position>
            <AltitudeMeters>845.781</AltitudeMeters>
            <DistanceMeters>561086.98559153</DistanceMeters>
          </Trackpoint>
          <Trackpoint>
            <Time>2021-08-03T16:06:28Z</Time>
            <Position>
              <LatitudeDegrees>40.984337</LatitudeDegrees>
              <LongitudeDegrees>-1.311341</LongitudeDegrees>
            </Position>
            <AltitudeMeters>845.971</AltitudeMeters>
            <DistanceMeters>561097.29237664</DistanceMeters>
          </Trackpoint>
          <Trackpoint>
            <Time>2021-08-03T16:06:30Z</Time>
            <Position>
              <LatitudeDegrees>40.984267</LatitudeDegrees>
              <LongitudeDegrees>-1.311283</LongitudeDegrees>
            </Position>
            <AltitudeMeters>846.074</AltitudeMeters>
            <DistanceMeters>561106.4820053</DistanceMeters>
          </Trackpoint>
          <Trackpoint>
            <Time>2021-08-03T16:06:31Z</Time>
            <Position>
              <LatitudeDegrees>40.984218</LatitudeDegrees>
              <LongitudeDegrees>-1.311241</LongitudeDegrees>
            </Position>
            <AltitudeMeters>846.172</AltitudeMeters>
            <DistanceMeters>561112.97727412</DistanceMeters>
          </Trackpoint>
          <Trackpoint>
            <Time>2021-08-03T16:06:33Z</Time>
            <Position>
              <LatitudeDegrees>40.984141</LatitudeDegrees>
              <LongitudeDegrees>-1.311157</LongitudeDegrees>
            </Position>
            <AltitudeMeters>846.227</AltitudeMeters>
            <DistanceMeters>561124.07955062</DistanceMeters>
          </Trackpoint>
          <Trackpoint>
            <Time>2021-08-03T16:06:35Z</Time>
            <Position>
              <LatitudeDegrees>40.984079</LatitudeDegrees>
              <LongitudeDegrees>-1.311103</LongitudeDegrees>
            </Position>
            <AltitudeMeters>846.252</AltitudeMeters>
            <DistanceMeters>561132.33758534</DistanceMeters>
          </Trackpoint>
          <Trackpoint>
            <Time>2021-08-03T16:06:37Z</Time>
            <Position>
              <LatitudeDegrees>40.983983</LatitudeDegrees>
              <LongitudeDegrees>-1.311029</LongitudeDegrees>
            </Position>
            <AltitudeMeters>846.273</AltitudeMeters>
            <DistanceMeters>561144.69982679</DistanceMeters>
          </Trackpoint>
          <Trackpoint>
            <Time>2021-08-03T16:06:38Z</Time>
            <Position>
              <LatitudeDegrees>40.983944</LatitudeDegrees>
              <LongitudeDegrees>-1.311000</LongitudeDegrees>
            </Position>
            <AltitudeMeters>846.236</AltitudeMeters>
            <DistanceMeters>561149.67944424</DistanceMeters>
          </Trackpoint>
          <Trackpoint>
            <Time>2021-08-03T16:06:40Z</Time>
            <Position>
              <LatitudeDegrees>40.983889</LatitudeDegrees>
              <LongitudeDegrees>-1.310971</LongitudeDegrees>
            </Position>
            <AltitudeMeters>846.117</AltitudeMeters>
            <DistanceMeters>561156.26857222</DistanceMeters>
          </Trackpoint>
          <Trackpoint>
            <Time>2021-08-03T16:06:42Z</Time>
            <Position>
              <LatitudeDegrees>40.983805</LatitudeDegrees>
              <LongitudeDegrees>-1.310896</LongitudeDegrees>
            </Position>
            <AltitudeMeters>846.218</AltitudeMeters>
            <DistanceMeters>561167.54356296</DistanceMeters>
          </Trackpoint>
          <Trackpoint>
            <Time>2021-08-03T16:06:44Z</Time>
            <Position>
              <LatitudeDegrees>40.983729</LatitudeDegrees>
              <LongitudeDegrees>-1.310836</LongitudeDegrees>
            </Position>
            <AltitudeMeters>846.308</AltitudeMeters>
            <DistanceMeters>561177.39064175</DistanceMeters>
          </Trackpoint>
          <Trackpoint>
            <Time>2021-08-03T16:06:46Z</Time>
            <Position>
              <LatitudeDegrees>40.983654</LatitudeDegrees>
              <LongitudeDegrees>-1.310773</LongitudeDegrees>
            </Position>
            <AltitudeMeters>846.330</AltitudeMeters>
            <DistanceMeters>561187.27524732</DistanceMeters>
          </Trackpoint>
          <Trackpoint>
            <Time>2021-08-03T16:06:48Z</Time>
            <Position>
              <LatitudeDegrees>40.983578</LatitudeDegrees>
              <LongitudeDegrees>-1.310708</LongitudeDegrees>
            </Position>
            <AltitudeMeters>846.352</AltitudeMeters>
            <DistanceMeters>561197.34404408</DistanceMeters>
          </Trackpoint>
          <Trackpoint>
            <Time>2021-08-03T16:06:50Z</Time>
            <Position>
              <LatitudeDegrees>40.983504</LatitudeDegrees>
              <LongitudeDegrees>-1.310658</LongitudeDegrees>
            </Position>
            <AltitudeMeters>846.422</AltitudeMeters>
            <DistanceMeters>561206.59049009</DistanceMeters>
          </Trackpoint>
          <Trackpoint>
            <Time>2021-08-03T16:06:52Z</Time>
            <Position>
              <LatitudeDegrees>40.983422</LatitudeDegrees>
              <LongitudeDegrees>-1.310597</LongitudeDegrees>
            </Position>
            <AltitudeMeters>846.535</AltitudeMeters>
            <DistanceMeters>561217.05724161</DistanceMeters>
          </Trackpoint>
          <Trackpoint>
            <Time>2021-08-03T16:06:54Z</Time>
            <Position>
              <LatitudeDegrees>40.983339</LatitudeDegrees>
              <LongitudeDegrees>-1.310540</LongitudeDegrees>
            </Position>
            <AltitudeMeters>846.683</AltitudeMeters>
            <DistanceMeters>561227.46299226</DistanceMeters>
          </Trackpoint>
          <Trackpoint>
            <Time>2021-08-03T16:06:55Z</Time>
            <Position>
              <LatitudeDegrees>40.983294</LatitudeDegrees>
              <LongitudeDegrees>-1.310521</LongitudeDegrees>
            </Position>
            <AltitudeMeters>846.638</AltitudeMeters>
            <DistanceMeters>561232.71961037</DistanceMeters>
          </Trackpoint>
          <Trackpoint>
            <Time>2021-08-03T16:06:57Z</Time>
            <Position>
              <LatitudeDegrees>40.983213</LatitudeDegrees>
              <LongitudeDegrees>-1.310477</LongitudeDegrees>
            </Position>
            <AltitudeMeters>846.663</AltitudeMeters>
            <DistanceMeters>561242.4643671</DistanceMeters>
          </Trackpoint>
          <Trackpoint>
            <Time>2021-08-03T16:06:59Z</Time>
            <Position>
              <LatitudeDegrees>40.983111</LatitudeDegrees>
              <LongitudeDegrees>-1.310416</LongitudeDegrees>
            </Position>
            <AltitudeMeters>846.964</AltitudeMeters>
            <DistanceMeters>561254.92011852</DistanceMeters>
          </Trackpoint>
          <Trackpoint>
            <Time>2021-08-03T16:07:00Z</Time>
            <Position>
              <LatitudeDegrees>40.983067</LatitudeDegrees>
              <LongitudeDegrees>-1.310385</LongitudeDegrees>
            </Position>
            <AltitudeMeters>847.071</AltitudeMeters>
            <DistanceMeters>561260.46678152</DistanceMeters>
          </Trackpoint>
          <Trackpoint>
            <Time>2021-08-03T16:07:01Z</Time>
            <Position>
              <LatitudeDegrees>40.983027</LatitudeDegrees>
              <LongitudeDegrees>-1.310354</LongitudeDegrees>
            </Position>
            <AltitudeMeters>847.141</AltitudeMeters>
            <DistanceMeters>561265.62542818</DistanceMeters>
          </Trackpoint>
          <Trackpoint>
            <Time>2021-08-03T16:07:02Z</Time>
            <Position>
              <LatitudeDegrees>40.982979</LatitudeDegrees>
              <LongitudeDegrees>-1.310320</LongitudeDegrees>
            </Position>
            <AltitudeMeters>847.115</AltitudeMeters>
            <DistanceMeters>561271.6840799</DistanceMeters>
          </Trackpoint>
          <Trackpoint>
            <Time>2021-08-03T16:07:04Z</Time>
            <Position>
              <LatitudeDegrees>40.982903</LatitudeDegrees>
              <LongitudeDegrees>-1.310287</LongitudeDegrees>
            </Position>
            <AltitudeMeters>847.108</AltitudeMeters>
            <DistanceMeters>561280.58621172</DistanceMeters>
          </Trackpoint>
          <Trackpoint>
            <Time>2021-08-03T16:07:05Z</Time>
            <Position>
              <LatitudeDegrees>40.982860</LatitudeDegrees>
              <LongitudeDegrees>-1.310265</LongitudeDegrees>
            </Position>
            <AltitudeMeters>847.274</AltitudeMeters>
            <DistanceMeters>561285.71765429</DistanceMeters>
          </Trackpoint>
          <Trackpoint>
            <Time>2021-08-03T16:07:07Z</Time>
            <Position>
              <LatitudeDegrees>40.982791</LatitudeDegrees>
              <LongitudeDegrees>-1.310241</LongitudeDegrees>
            </Position>
            <AltitudeMeters>847.046</AltitudeMeters>
            <DistanceMeters>561293.65793097</DistanceMeters>
          </Trackpoint>
          <Trackpoint>
            <Time>2021-08-03T16:07:09Z</Time>
            <Position>
              <LatitudeDegrees>40.982703</LatitudeDegrees>
              <LongitudeDegrees>-1.310206</LongitudeDegrees>
            </Position>
            <AltitudeMeters>846.956</AltitudeMeters>
            <DistanceMeters>561303.88467754</DistanceMeters>
          </Trackpoint>
          <Trackpoint>
            <Time>2021-08-03T16:07:11Z</Time>
            <Position>
              <LatitudeDegrees>40.982621</LatitudeDegrees>
              <LongitudeDegrees>-1.310162</LongitudeDegrees>
            </Position>
            <AltitudeMeters>847.079</AltitudeMeters>
            <DistanceMeters>561313.73221484</DistanceMeters>
          </Trackpoint>
          <Trackpoint>
            <Time>2021-08-03T16:07:13Z</Time>
            <Position>
              <LatitudeDegrees>40.982538</LatitudeDegrees>
              <LongitudeDegrees>-1.310128</LongitudeDegrees>
            </Position>
            <AltitudeMeters>847.057</AltitudeMeters>
            <DistanceMeters>561323.40208773</DistanceMeters>
          </Trackpoint>
          <Trackpoint>
            <Time>2021-08-03T16:07:15Z</Time>
            <Position>
              <LatitudeDegrees>40.982443</LatitudeDegrees>
              <LongitudeDegrees>-1.310091</LongitudeDegrees>
            </Position>
            <AltitudeMeters>847.022</AltitudeMeters>
            <DistanceMeters>561334.42313841</DistanceMeters>
          </Trackpoint>
          <Trackpoint>
            <Time>2021-08-03T16:07:17Z</Time>
            <Position>
              <LatitudeDegrees>40.982356</LatitudeDegrees>
              <LongitudeDegrees>-1.310055</LongitudeDegrees>
            </Position>
            <AltitudeMeters>847.037</AltitudeMeters>
            <DistanceMeters>561344.5674349</DistanceMeters>
          </Trackpoint>
          <Trackpoint>
            <Time>2021-08-03T16:07:18Z</Time>
            <Position>
              <LatitudeDegrees>40.982306</LatitudeDegrees>
              <LongitudeDegrees>-1.310043</LongitudeDegrees>
            </Position>
            <AltitudeMeters>846.988</AltitudeMeters>
            <DistanceMeters>561350.22292168</DistanceMeters>
          </Trackpoint>
          <Trackpoint>
            <Time>2021-08-03T16:07:20Z</Time>
            <Position>
              <LatitudeDegrees>40.982229</LatitudeDegrees>
              <LongitudeDegrees>-1.310004</LongitudeDegrees>
            </Position>
            <AltitudeMeters>846.997</AltitudeMeters>
            <DistanceMeters>561359.39779894</DistanceMeters>
          </Trackpoint>
          <Trackpoint>
            <Time>2021-08-03T16:07:22Z</Time>
            <Position>
              <LatitudeDegrees>40.982153</LatitudeDegrees>
              <LongitudeDegrees>-1.309979</LongitudeDegrees>
            </Position>
            <AltitudeMeters>846.923</AltitudeMeters>
            <DistanceMeters>561368.11335991</DistanceMeters>
          </Trackpoint>
          <Trackpoint>
            <Time>2021-08-03T16:07:24Z</Time>
            <Position>
              <LatitudeDegrees>40.982091</LatitudeDegrees>
              <LongitudeDegrees>-1.309965</LongitudeDegrees>
            </Position>
            <AltitudeMeters>846.925</AltitudeMeters>
            <DistanceMeters>561375.11315953</DistanceMeters>
          </Trackpoint>
          <Trackpoint>
            <Time>2021-08-03T16:07:26Z</Time>
            <Position>
              <LatitudeDegrees>40.982019</LatitudeDegrees>
              <LongitudeDegrees>-1.309946</LongitudeDegrees>
            </Position>
            <AltitudeMeters>847.308</AltitudeMeters>
            <DistanceMeters>561383.28435193</DistanceMeters>
          </Trackpoint>
          <Trackpoint>
            <Time>2021-08-03T16:07:28Z</Time>
            <Position>
              <LatitudeDegrees>40.981935</LatitudeDegrees>
              <LongitudeDegrees>-1.309925</LongitudeDegrees>
            </Position>
            <AltitudeMeters>848.096</AltitudeMeters>
            <DistanceMeters>561392.79889429</DistanceMeters>
          </Trackpoint>
          <Trackpoint>
            <Time>2021-08-03T16:07:29Z</Time>
            <Position>
              <LatitudeDegrees>40.981887</LatitudeDegrees>
              <LongitudeDegrees>-1.309911</LongitudeDegrees>
            </Position>
            <AltitudeMeters>848.298</AltitudeMeters>
            <DistanceMeters>561398.26933059</DistanceMeters>
          </Trackpoint>
          <Trackpoint>
            <Time>2021-08-03T16:07:31Z</Time>
            <Position>
              <LatitudeDegrees>40.981798</LatitudeDegrees>
              <LongitudeDegrees>-1.309890</LongitudeDegrees>
            </Position>
            <AltitudeMeters>848.438</AltitudeMeters>
            <DistanceMeters>561408.33139883</DistanceMeters>
          </Trackpoint>
          <Trackpoint>
            <Time>2021-08-03T16:07:33Z</Time>
            <Position>
              <LatitudeDegrees>40.981684</LatitudeDegrees>
              <LongitudeDegrees>-1.309847</LongitudeDegrees>
            </Position>
            <AltitudeMeters>848.091</AltitudeMeters>
            <DistanceMeters>561421.52437891</DistanceMeters>
          </Trackpoint>
          <Trackpoint>
            <Time>2021-08-03T16:07:35Z</Time>
            <Position>
              <LatitudeDegrees>40.981589</LatitudeDegrees>
              <LongitudeDegrees>-1.309814</LongitudeDegrees>
            </Position>
            <AltitudeMeters>847.189</AltitudeMeters>
            <DistanceMeters>561432.4553428</DistanceMeters>
          </Trackpoint>
          <Trackpoint>
            <Time>2021-08-03T16:07:37Z</Time>
            <Position>
              <LatitudeDegrees>40.981516</LatitudeDegrees>
              <LongitudeDegrees>-1.309830</LongitudeDegrees>
            </Position>
            <AltitudeMeters>847.324</AltitudeMeters>
            <DistanceMeters>561440.69038221</DistanceMeters>
          </Trackpoint>
          <Trackpoint>
            <Time>2021-08-03T16:07:38Z</Time>
            <Position>
              <LatitudeDegrees>40.981467</LatitudeDegrees>
              <LongitudeDegrees>-1.309811</LongitudeDegrees>
            </Position>
            <AltitudeMeters>847.539</AltitudeMeters>
            <DistanceMeters>561446.37294794</DistanceMeters>
          </Trackpoint>
          <Trackpoint>
            <Time>2021-08-03T16:07:40Z</Time>
            <Position>
              <LatitudeDegrees>40.981358</LatitudeDegrees>
              <LongitudeDegrees>-1.309784</LongitudeDegrees>
            </Position>
            <AltitudeMeters>847.490</AltitudeMeters>
            <DistanceMeters>561458.7150855</DistanceMeters>
          </Trackpoint>
          <Trackpoint>
            <Time>2021-08-03T16:07:42Z</Time>
            <Position>
              <LatitudeDegrees>40.981289</LatitudeDegrees>
              <LongitudeDegrees>-1.309776</LongitudeDegrees>
            </Position>
            <AltitudeMeters>847.743</AltitudeMeters>
            <DistanceMeters>561466.4245578</DistanceMeters>
          </Trackpoint>
          <Trackpoint>
            <Time>2021-08-03T16:07:43Z</Time>
            <Position>
              <LatitudeDegrees>40.981227</LatitudeDegrees>
              <LongitudeDegrees>-1.309769</LongitudeDegrees>
            </Position>
            <AltitudeMeters>848.164</AltitudeMeters>
            <DistanceMeters>561473.35043436</DistanceMeters>
          </Trackpoint>
          <Trackpoint>
            <Time>2021-08-03T16:07:45Z</Time>
            <Position>
              <LatitudeDegrees>40.981078</LatitudeDegrees>
              <LongitudeDegrees>-1.309732</LongitudeDegrees>
            </Position>
            <AltitudeMeters>848.210</AltitudeMeters>
            <DistanceMeters>561490.22349721</DistanceMeters>
          </Trackpoint>
          <Trackpoint>
            <Time>2021-08-03T16:07:47Z</Time>
            <Position>
              <LatitudeDegrees>40.981007</LatitudeDegrees>
              <LongitudeDegrees>-1.309729</LongitudeDegrees>
            </Position>
            <AltitudeMeters>848.708</AltitudeMeters>
            <DistanceMeters>561498.12958279</DistanceMeters>
          </Trackpoint>
          <Trackpoint>
            <Time>2021-08-03T16:07:48Z</Time>
            <Position>
              <LatitudeDegrees>40.980961</LatitudeDegrees>
              <LongitudeDegrees>-1.309717</LongitudeDegrees>
            </Position>
            <AltitudeMeters>848.841</AltitudeMeters>
            <DistanceMeters>561503.34827138</DistanceMeters>
          </Trackpoint>
          <Trackpoint>
            <Time>2021-08-03T16:07:50Z</Time>
            <Position>
              <LatitudeDegrees>40.980887</LatitudeDegrees>
              <LongitudeDegrees>-1.309705</LongitudeDegrees>
            </Position>
            <AltitudeMeters>848.973</AltitudeMeters>
            <DistanceMeters>561511.64612248</DistanceMeters>
          </Trackpoint>
          <Trackpoint>
            <Time>2021-08-03T16:07:52Z</Time>
            <Position>
              <LatitudeDegrees>40.980832</LatitudeDegrees>
              <LongitudeDegrees>-1.309716</LongitudeDegrees>
            </Position>
            <AltitudeMeters>849.193</AltitudeMeters>
            <DistanceMeters>561517.83746115</DistanceMeters>
          </Trackpoint>
          <Trackpoint>
            <Time>2021-08-03T16:07:54Z</Time>
            <Position>
              <LatitudeDegrees>40.980752</LatitudeDegrees>
              <LongitudeDegrees>-1.309720</LongitudeDegrees>
            </Position>
            <AltitudeMeters>849.586</AltitudeMeters>
            <DistanceMeters>561526.74821096</DistanceMeters>
          </Trackpoint>
          <Trackpoint>
            <Time>2021-08-03T16:07:56Z</Time>
            <Position>
              <LatitudeDegrees>40.980670</LatitudeDegrees>
              <LongitudeDegrees>-1.309713</LongitudeDegrees>
            </Position>
            <AltitudeMeters>849.974</AltitudeMeters>
            <DistanceMeters>561535.89351401</DistanceMeters>
          </Trackpoint>
          <Trackpoint>
            <Time>2021-08-03T16:07:58Z</Time>
            <Position>
              <LatitudeDegrees>40.980574</LatitudeDegrees>
              <LongitudeDegrees>-1.309709</LongitudeDegrees>
            </Position>
            <AltitudeMeters>850.169</AltitudeMeters>
            <DistanceMeters>561546.58391379</DistanceMeters>
          </Trackpoint>
          <Trackpoint>
            <Time>2021-08-03T16:07:59Z</Time>
            <Position>
              <LatitudeDegrees>40.980521</LatitudeDegrees>
              <LongitudeDegrees>-1.309702</LongitudeDegrees>
            </Position>
            <AltitudeMeters>850.264</AltitudeMeters>
            <DistanceMeters>561552.5122405</DistanceMeters>
          </Trackpoint>
          <Trackpoint>
            <Time>2021-08-03T16:08:01Z</Time>
            <Position>
              <LatitudeDegrees>40.980394</LatitudeDegrees>
              <LongitudeDegrees>-1.309668</LongitudeDegrees>
            </Position>
            <AltitudeMeters>850.215</AltitudeMeters>
            <DistanceMeters>561566.93315103</DistanceMeters>
          </Trackpoint>
          <Trackpoint>
            <Time>2021-08-03T16:08:03Z</Time>
            <Position>
              <LatitudeDegrees>40.980309</LatitudeDegrees>
              <LongitudeDegrees>-1.309644</LongitudeDegrees>
            </Position>
            <AltitudeMeters>850.143</AltitudeMeters>
            <DistanceMeters>561576.60629179</DistanceMeters>
          </Trackpoint>
          <Trackpoint>
            <Time>2021-08-03T16:08:05Z</Time>
            <Position>
              <LatitudeDegrees>40.980220</LatitudeDegrees>
              <LongitudeDegrees>-1.309655</LongitudeDegrees>
            </Position>
            <AltitudeMeters>850.264</AltitudeMeters>
            <DistanceMeters>561586.55554794</DistanceMeters>
          </Trackpoint>
          <Trackpoint>
            <Time>2021-08-03T16:08:07Z</Time>
            <Position>
              <LatitudeDegrees>40.980163</LatitudeDegrees>
              <LongitudeDegrees>-1.309667</LongitudeDegrees>
            </Position>
            <AltitudeMeters>850.510</AltitudeMeters>
            <DistanceMeters>561592.97952251</DistanceMeters>
          </Trackpoint>
          <Trackpoint>
            <Time>2021-08-03T16:08:08Z</Time>
            <Position>
              <LatitudeDegrees>40.980117</LatitudeDegrees>
              <LongitudeDegrees>-1.309674</LongitudeDegrees>
            </Position>
            <AltitudeMeters>850.608</AltitudeMeters>
            <DistanceMeters>561598.13203887</DistanceMeters>
          </Trackpoint>
          <Trackpoint>
            <Time>2021-08-03T16:08:10Z</Time>
            <Position>
              <LatitudeDegrees>40.980024</LatitudeDegrees>
              <LongitudeDegrees>-1.309682</LongitudeDegrees>
            </Position>
            <AltitudeMeters>850.911</AltitudeMeters>
            <DistanceMeters>561608.50476082</DistanceMeters>
          </Trackpoint>
          <Trackpoint>
            <Time>2021-08-03T16:08:12Z</Time>
            <Position>
              <LatitudeDegrees>40.979916</LatitudeDegrees>
              <LongitudeDegrees>-1.309664</LongitudeDegrees>
            </Position>
            <AltitudeMeters>850.983</AltitudeMeters>
            <DistanceMeters>561620.61982841</DistanceMeters>
          </Trackpoint>
          <Trackpoint>
            <Time>2021-08-03T16:08:14Z</Time>
            <Position>
              <LatitudeDegrees>40.979833</LatitudeDegrees>
              <LongitudeDegrees>-1.309676</LongitudeDegrees>
            </Position>
            <AltitudeMeters>850.693</AltitudeMeters>
            <DistanceMeters>561629.91303297</DistanceMeters>
          </Trackpoint>
          <Trackpoint>
            <Time>2021-08-03T16:08:15Z</Time>
            <Position>
              <LatitudeDegrees>40.979786</LatitudeDegrees>
              <LongitudeDegrees>-1.309685</LongitudeDegrees>
            </Position>
            <AltitudeMeters>850.646</AltitudeMeters>
            <DistanceMeters>561635.19877384</DistanceMeters>
          </Trackpoint>
          <Trackpoint>
            <Time>2021-08-03T16:08:17Z</Time>
            <Position>
              <LatitudeDegrees>40.979682</LatitudeDegrees>
              <LongitudeDegrees>-1.309699</LongitudeDegrees>
            </Position>
            <AltitudeMeters>850.954</AltitudeMeters>
            <DistanceMeters>561646.83401797</DistanceMeters>
          </Trackpoint>
          <Trackpoint>
            <Time>2021-08-03T16:08:19Z</Time>
            <Position>
              <LatitudeDegrees>40.979572</LatitudeDegrees>
              <LongitudeDegrees>-1.309715</LongitudeDegrees>
            </Position>
            <AltitudeMeters>851.399</AltitudeMeters>
            <DistanceMeters>561659.15088788</DistanceMeters>
          </Trackpoint>
          <Trackpoint>
            <Time>2021-08-03T16:08:21Z</Time>
            <Position>
              <LatitudeDegrees>40.979486</LatitudeDegrees>
              <LongitudeDegrees>-1.309725</LongitudeDegrees>
            </Position>
            <AltitudeMeters>851.484</AltitudeMeters>
            <DistanceMeters>561668.7598697</DistanceMeters>
          </Trackpoint>
          <Trackpoint>
            <Time>2021-08-03T16:08:23Z</Time>
            <Position>
              <LatitudeDegrees>40.979399</LatitudeDegrees>
              <LongitudeDegrees>-1.309740</LongitudeDegrees>
            </Position>
            <AltitudeMeters>851.425</AltitudeMeters>
            <DistanceMeters>561678.52499168</DistanceMeters>
          </Trackpoint>
          <Trackpoint>
            <Time>2021-08-03T16:08:25Z</Time>
            <Position>
              <LatitudeDegrees>40.979314</LatitudeDegrees>
              <LongitudeDegrees>-1.309758</LongitudeDegrees>
            </Position>
            <AltitudeMeters>851.546</AltitudeMeters>
            <DistanceMeters>561688.10621066</DistanceMeters>
          </Trackpoint>
          <Trackpoint>
            <Time>2021-08-03T16:08:27Z</Time>
            <Position>
              <LatitudeDegrees>40.979256</LatitudeDegrees>
              <LongitudeDegrees>-1.309775</LongitudeDegrees>
            </Position>
            <AltitudeMeters>851.588</AltitudeMeters>
            <DistanceMeters>561694.71859526</DistanceMeters>
          </Trackpoint>
          <Trackpoint>
            <Time>2021-08-03T16:08:29Z</Time>
            <Position>
              <LatitudeDegrees>40.979197</LatitudeDegrees>
              <LongitudeDegrees>-1.309787</LongitudeDegrees>
            </Position>
            <AltitudeMeters>851.516</AltitudeMeters>
            <DistanceMeters>561701.36231513</DistanceMeters>
          </Trackpoint>
          <Trackpoint>
            <Time>2021-08-03T16:08:31Z</Time>
            <Position>
              <LatitudeDegrees>40.979128</LatitudeDegrees>
              <LongitudeDegrees>-1.309802</LongitudeDegrees>
            </Position>
            <AltitudeMeters>851.508</AltitudeMeters>
            <DistanceMeters>561709.14522928</DistanceMeters>
          </Trackpoint>
          <Trackpoint>
            <Time>2021-08-03T16:08:33Z</Time>
            <Position>
              <LatitudeDegrees>40.979036</LatitudeDegrees>
              <LongitudeDegrees>-1.309823</LongitudeDegrees>
            </Position>
            <AltitudeMeters>851.531</AltitudeMeters>
            <DistanceMeters>561719.53665142</DistanceMeters>
          </Trackpoint>
          <Trackpoint>
            <Time>2021-08-03T16:08:34Z</Time>
            <Position>
              <LatitudeDegrees>40.978985</LatitudeDegrees>
              <LongitudeDegrees>-1.309831</LongitudeDegrees>
            </Position>
            <AltitudeMeters>851.563</AltitudeMeters>
            <DistanceMeters>561725.25328038</DistanceMeters>
          </Trackpoint>
          <Trackpoint>
            <Time>2021-08-03T16:08:36Z</Time>
            <Position>
              <LatitudeDegrees>40.978861</LatitudeDegrees>
              <LongitudeDegrees>-1.309854</LongitudeDegrees>
            </Position>
            <AltitudeMeters>851.543</AltitudeMeters>
            <DistanceMeters>561739.18952393</DistanceMeters>
          </Trackpoint>
          <Trackpoint>
            <Time>2021-08-03T16:08:37Z</Time>
            <Position>
              <LatitudeDegrees>40.978778</LatitudeDegrees>
              <LongitudeDegrees>-1.309869</LongitudeDegrees>
            </Position>
            <AltitudeMeters>851.396</AltitudeMeters>
            <DistanceMeters>561748.5128021</DistanceMeters>
          </Trackpoint>
          <Trackpoint>
            <Time>2021-08-03T16:08:39Z</Time>
            <Position>
              <LatitudeDegrees>40.978674</LatitudeDegrees>
              <LongitudeDegrees>-1.309890</LongitudeDegrees>
            </Position>
            <AltitudeMeters>851.384</AltitudeMeters>
            <DistanceMeters>561760.2223145</DistanceMeters>
          </Trackpoint>
          <Trackpoint>
            <Time>2021-08-03T16:08:41Z</Time>
            <Position>
              <LatitudeDegrees>40.978570</LatitudeDegrees>
              <LongitudeDegrees>-1.309926</LongitudeDegrees>
            </Position>
            <AltitudeMeters>851.969</AltitudeMeters>
            <DistanceMeters>561772.18662693</DistanceMeters>
          </Trackpoint>
          <Trackpoint>
            <Time>2021-08-03T16:08:43Z</Time>
            <Position>
              <LatitudeDegrees>40.978494</LatitudeDegrees>
              <LongitudeDegrees>-1.309958</LongitudeDegrees>
            </Position>
            <AltitudeMeters>852.384</AltitudeMeters>
            <DistanceMeters>561781.06285456</DistanceMeters>
          </Trackpoint>
          <Trackpoint>
            <Time>2021-08-03T16:08:45Z</Time>
            <Position>
              <LatitudeDegrees>40.978414</LatitudeDegrees>
              <LongitudeDegrees>-1.309993</LongitudeDegrees>
            </Position>
            <AltitudeMeters>853.065</AltitudeMeters>
            <DistanceMeters>561790.44021476</DistanceMeters>
          </Trackpoint>
          <Trackpoint>
            <Time>2021-08-03T16:08:47Z</Time>
            <Position>
              <LatitudeDegrees>40.978334</LatitudeDegrees>
              <LongitudeDegrees>-1.310026</LongitudeDegrees>
            </Position>
            <AltitudeMeters>853.282</AltitudeMeters>
            <DistanceMeters>561799.76639814</DistanceMeters>
          </Trackpoint>
          <Trackpoint>
            <Time>2021-08-03T16:08:49Z</Time>
            <Position>
              <LatitudeDegrees>40.978257</LatitudeDegrees>
              <LongitudeDegrees>-1.310064</LongitudeDegrees>
            </Position>
            <AltitudeMeters>853.343</AltitudeMeters>
            <DistanceMeters>561808.91219488</DistanceMeters>
          </Trackpoint>
          <Trackpoint>
            <Time>2021-08-03T16:08:51Z</Time>
            <Position>
              <LatitudeDegrees>40.978180</LatitudeDegrees>
              <LongitudeDegrees>-1.310098</LongitudeDegrees>
            </Position>
            <AltitudeMeters>853.417</AltitudeMeters>
            <DistanceMeters>561817.94623224</DistanceMeters>
          </Trackpoint>
          <Trackpoint>
            <Time>2021-08-03T16:08:53Z</Time>
            <Position>
              <LatitudeDegrees>40.978115</LatitudeDegrees>
              <LongitudeDegrees>-1.310125</LongitudeDegrees>
            </Position>
            <AltitudeMeters>853.408</AltitudeMeters>
            <DistanceMeters>561825.5287448</DistanceMeters>
          </Trackpoint>
          <Trackpoint>
            <Time>2021-08-03T16:08:55Z</Time>
            <Position>
              <LatitudeDegrees>40.978048</LatitudeDegrees>
              <LongitudeDegrees>-1.310161</LongitudeDegrees>
            </Position>
            <AltitudeMeters>853.595</AltitudeMeters>
            <DistanceMeters>561833.57577395</DistanceMeters>
          </Trackpoint>
          <Trackpoint>
            <Time>2021-08-03T16:08:57Z</Time>
            <Position>
              <LatitudeDegrees>40.977969</LatitudeDegrees>
              <LongitudeDegrees>-1.310203</LongitudeDegrees>
            </Position>
            <AltitudeMeters>853.727</AltitudeMeters>
            <DistanceMeters>561843.05037103</DistanceMeters>
          </Trackpoint>
          <Trackpoint>
            <Time>2021-08-03T16:08:59Z</Time>
            <Position>
              <LatitudeDegrees>40.977892</LatitudeDegrees>
              <LongitudeDegrees>-1.310245</LongitudeDegrees>
            </Position>
            <AltitudeMeters>854.077</AltitudeMeters>
            <DistanceMeters>561852.31827733</DistanceMeters>
          </Trackpoint>
          <Trackpoint>
            <Time>2021-08-03T16:09:01Z</Time>
            <Position>
              <LatitudeDegrees>40.977832</LatitudeDegrees>
              <LongitudeDegrees>-1.310276</LongitudeDegrees>
            </Position>
            <AltitudeMeters>854.330</AltitudeMeters>
            <DistanceMeters>561859.48571096</DistanceMeters>
          </Trackpoint>
          <Trackpoint>
            <Time>2021-08-03T16:09:04Z</Time>
            <Position>
              <LatitudeDegrees>40.977777</LatitudeDegrees>
              <LongitudeDegrees>-1.310306</LongitudeDegrees>
            </Position>
            <AltitudeMeters>854.668</AltitudeMeters>
            <DistanceMeters>561866.10628428</DistanceMeters>
          </Trackpoint>
          <Trackpoint>
            <Time>2021-08-03T16:09:07Z</Time>
            <Position>
              <LatitudeDegrees>40.977715</LatitudeDegrees>
              <LongitudeDegrees>-1.310346</LongitudeDegrees>
            </Position>
            <AltitudeMeters>854.843</AltitudeMeters>
            <DistanceMeters>561873.78171383</DistanceMeters>
          </Trackpoint>
          <Trackpoint>
            <Time>2021-08-03T16:09:09Z</Time>
            <Position>
              <LatitudeDegrees>40.977672</LatitudeDegrees>
              <LongitudeDegrees>-1.310378</LongitudeDegrees>
            </Position>
            <AltitudeMeters>854.848</AltitudeMeters>
            <DistanceMeters>561879.27027785</DistanceMeters>
          </Trackpoint>
          <Trackpoint>
            <Time>2021-08-03T16:09:11Z</Time>
            <Position>
              <LatitudeDegrees>40.977628</LatitudeDegrees>
              <LongitudeDegrees>-1.310411</LongitudeDegrees>
            </Position>
            <AltitudeMeters>854.829</AltitudeMeters>
            <DistanceMeters>561884.8985554</DistanceMeters>
          </Trackpoint>
          <Trackpoint>
            <Time>2021-08-03T16:09:13Z</Time>
            <Position>
              <LatitudeDegrees>40.977577</LatitudeDegrees>
              <LongitudeDegrees>-1.310438</LongitudeDegrees>
            </Position>
            <AltitudeMeters>854.811</AltitudeMeters>
            <DistanceMeters>561891.01136624</DistanceMeters>
          </Trackpoint>
          <Trackpoint>
            <Time>2021-08-03T16:09:15Z</Time>
            <Position>
              <LatitudeDegrees>40.977403</LatitudeDegrees>
              <LongitudeDegrees>-1.310469</LongitudeDegrees>
            </Position>
            <AltitudeMeters>854.821</AltitudeMeters>
            <DistanceMeters>561910.55224166</DistanceMeters>
          </Trackpoint>
          <Trackpoint>
            <Time>2021-08-03T16:09:17Z</Time>
            <Position>
              <LatitudeDegrees>40.977218</LatitudeDegrees>
              <LongitudeDegrees>-1.310667</LongitudeDegrees>
            </Position>
            <AltitudeMeters>854.403</AltitudeMeters>
            <DistanceMeters>561937.02498562</DistanceMeters>
          </Trackpoint>
          <Trackpoint>
            <Time>2021-08-03T16:09:19Z</Time>
            <Position>
              <LatitudeDegrees>40.977140</LatitudeDegrees>
              <LongitudeDegrees>-1.310732</LongitudeDegrees>
            </Position>
            <AltitudeMeters>854.208</AltitudeMeters>
            <DistanceMeters>561947.28170979</DistanceMeters>
          </Trackpoint>
          <Trackpoint>
            <Time>2021-08-03T16:09:21Z</Time>
            <Position>
              <LatitudeDegrees>40.977088</LatitudeDegrees>
              <LongitudeDegrees>-1.310771</LongitudeDegrees>
            </Position>
            <AltitudeMeters>854.028</AltitudeMeters>
            <DistanceMeters>561953.93290099</DistanceMeters>
          </Trackpoint>
          <Trackpoint>
            <Time>2021-08-03T16:09:23Z</Time>
            <Position>
              <LatitudeDegrees>40.977022</LatitudeDegrees>
              <LongitudeDegrees>-1.310833</LongitudeDegrees>
            </Position>
            <AltitudeMeters>854.290</AltitudeMeters>
            <DistanceMeters>561962.93890714</DistanceMeters>
          </Trackpoint>
          <Trackpoint>
            <Time>2021-08-03T16:09:25Z</Time>
            <Position>
              <LatitudeDegrees>40.976975</LatitudeDegrees>
              <LongitudeDegrees>-1.310899</LongitudeDegrees>
            </Position>
            <AltitudeMeters>854.050</AltitudeMeters>
            <DistanceMeters>561970.56357973</DistanceMeters>
          </Trackpoint>
          <Trackpoint>
            <Time>2021-08-03T16:09:27Z</Time>
            <Position>
              <LatitudeDegrees>40.976870</LatitudeDegrees>
              <LongitudeDegrees>-1.310960</LongitudeDegrees>
            </Position>
            <AltitudeMeters>854.013</AltitudeMeters>
            <DistanceMeters>561983.32549411</DistanceMeters>
          </Trackpoint>
          <Trackpoint>
            <Time>2021-08-03T16:09:29Z</Time>
            <Position>
              <LatitudeDegrees>40.976807</LatitudeDegrees>
              <LongitudeDegrees>-1.311001</LongitudeDegrees>
            </Position>
            <AltitudeMeters>854.231</AltitudeMeters>
            <DistanceMeters>561991.13793846</DistanceMeters>
          </Trackpoint>
          <Trackpoint>
            <Time>2021-08-03T16:09:31Z</Time>
            <Position>
              <LatitudeDegrees>40.976745</LatitudeDegrees>
              <LongitudeDegrees>-1.311050</LongitudeDegrees>
            </Position>
            <AltitudeMeters>854.646</AltitudeMeters>
            <DistanceMeters>561999.1743</DistanceMeters>
          </Trackpoint>
          <Trackpoint>
            <Time>2021-08-03T16:09:33Z</Time>
            <Position>
              <LatitudeDegrees>40.976694</LatitudeDegrees>
              <LongitudeDegrees>-1.311088</LongitudeDegrees>
            </Position>
            <AltitudeMeters>854.981</AltitudeMeters>
            <DistanceMeters>562005.68761706</DistanceMeters>
          </Trackpoint>
          <Trackpoint>
            <Time>2021-08-03T16:09:36Z</Time>
            <Position>
              <LatitudeDegrees>40.976631</LatitudeDegrees>
              <LongitudeDegrees>-1.311137</LongitudeDegrees>
            </Position>
            <AltitudeMeters>855.152</AltitudeMeters>
            <DistanceMeters>562013.82003858</DistanceMeters>
          </Trackpoint>
          <Trackpoint>
            <Time>2021-08-03T16:09:38Z</Time>
            <Position>
              <LatitudeDegrees>40.976479</LatitudeDegrees>
              <LongitudeDegrees>-1.311232</LongitudeDegrees>
            </Position>
            <AltitudeMeters>855.227</AltitudeMeters>
            <DistanceMeters>562032.5267901</DistanceMeters>
          </Trackpoint>
          <Trackpoint>
            <Time>2021-08-03T16:09:40Z</Time>
            <Position>
              <LatitudeDegrees>40.976421</LatitudeDegrees>
              <LongitudeDegrees>-1.311281</LongitudeDegrees>
            </Position>
            <AltitudeMeters>855.268</AltitudeMeters>
            <DistanceMeters>562040.18337265</DistanceMeters>
          </Trackpoint>
          <Trackpoint>
            <Time>2021-08-03T16:09:42Z</Time>
            <Position>
              <LatitudeDegrees>40.976367</LatitudeDegrees>
              <LongitudeDegrees>-1.311328</LongitudeDegrees>
            </Position>
            <AltitudeMeters>855.314</AltitudeMeters>
            <DistanceMeters>562047.3753319</DistanceMeters>
          </Trackpoint>
          <Trackpoint>
            <Time>2021-08-03T16:09:45Z</Time>
            <Position>
              <LatitudeDegrees>40.976327</LatitudeDegrees>
              <LongitudeDegrees>-1.311364</LongitudeDegrees>
            </Position>
            <AltitudeMeters>855.408</AltitudeMeters>
            <DistanceMeters>562052.75756984</DistanceMeters>
          </Trackpoint>
          <Trackpoint>
            <Time>2021-08-03T16:09:48Z</Time>
            <Position>
              <LatitudeDegrees>40.976267</LatitudeDegrees>
              <LongitudeDegrees>-1.311410</LongitudeDegrees>
            </Position>
            <AltitudeMeters>855.669</AltitudeMeters>
            <DistanceMeters>562060.47348158</DistanceMeters>
          </Trackpoint>
          <Trackpoint>
            <Time>2021-08-03T16:09:50Z</Time>
            <Position>
              <LatitudeDegrees>40.976212</LatitudeDegrees>
              <LongitudeDegrees>-1.311439</LongitudeDegrees>
            </Position>
            <AltitudeMeters>855.731</AltitudeMeters>
            <DistanceMeters>562067.06260956</DistanceMeters>
          </Trackpoint>
          <Trackpoint>
            <Time>2021-08-03T16:09:52Z</Time>
            <Position>
              <LatitudeDegrees>40.976157</LatitudeDegrees>
              <LongitudeDegrees>-1.311436</LongitudeDegrees>
            </Position>
            <AltitudeMeters>855.831</AltitudeMeters>
            <DistanceMeters>562073.18870111</DistanceMeters>
          </Trackpoint>
          <Trackpoint>
            <Time>2021-08-03T16:09:54Z</Time>
            <Position>
              <LatitudeDegrees>40.976099</LatitudeDegrees>
              <LongitudeDegrees>-1.311404</LongitudeDegrees>
            </Position>
            <AltitudeMeters>855.824</AltitudeMeters>
            <DistanceMeters>562080.18204752</DistanceMeters>
          </Trackpoint>
          <Trackpoint>
            <Time>2021-08-03T16:09:56Z</Time>
            <Position>
              <LatitudeDegrees>40.976050</LatitudeDegrees>
              <LongitudeDegrees>-1.311396</LongitudeDegrees>
            </Position>
            <AltitudeMeters>855.892</AltitudeMeters>
            <DistanceMeters>562085.67718861</DistanceMeters>
          </Trackpoint>
          <Trackpoint>
            <Time>2021-08-03T16:09:58Z</Time>
            <Position>
              <LatitudeDegrees>40.975994</LatitudeDegrees>
              <LongitudeDegrees>-1.311422</LongitudeDegrees>
            </Position>
            <AltitudeMeters>855.467</AltitudeMeters>
            <DistanceMeters>562092.28137435</DistanceMeters>
          </Trackpoint>
          <Trackpoint>
            <Time>2021-08-03T16:10:00Z</Time>
            <Position>
              <LatitudeDegrees>40.975966</LatitudeDegrees>
              <LongitudeDegrees>-1.311475</LongitudeDegrees>
            </Position>
            <AltitudeMeters>854.482</AltitudeMeters>
            <DistanceMeters>562097.71786588</DistanceMeters>
          </Trackpoint>
          <Trackpoint>
            <Time>2021-08-03T16:10:03Z</Time>
            <Position>
              <LatitudeDegrees>40.975975</LatitudeDegrees>
              <LongitudeDegrees>-1.311550</LongitudeDegrees>
            </Position>
            <AltitudeMeters>853.383</AltitudeMeters>
            <DistanceMeters>562104.09953062</DistanceMeters>
          </Trackpoint>
          <Trackpoint>
            <Time>2021-08-03T16:10:06Z</Time>
            <Position>
              <LatitudeDegrees>40.975980</LatitudeDegrees>
              <LongitudeDegrees>-1.311636</LongitudeDegrees>
            </Position>
            <AltitudeMeters>853.075</AltitudeMeters>
            <DistanceMeters>562111.34777073</DistanceMeters>
          </Trackpoint>
          <Trackpoint>
            <Time>2021-08-03T16:10:08Z</Time>
            <Position>
              <LatitudeDegrees>40.975965</LatitudeDegrees>
              <LongitudeDegrees>-1.311697</LongitudeDegrees>
            </Position>
            <AltitudeMeters>852.928</AltitudeMeters>
            <DistanceMeters>562116.73922843</DistanceMeters>
          </Trackpoint>
          <Trackpoint>
            <Time>2021-08-03T16:10:10Z</Time>
            <Position>
              <LatitudeDegrees>40.975940</LatitudeDegrees>
              <LongitudeDegrees>-1.311753</LongitudeDegrees>
            </Position>
            <AltitudeMeters>852.920</AltitudeMeters>
            <DistanceMeters>562122.20636232</DistanceMeters>
          </Trackpoint>
          <Trackpoint>
            <Time>2021-08-03T16:10:12Z</Time>
            <Position>
              <LatitudeDegrees>40.975929</LatitudeDegrees>
              <LongitudeDegrees>-1.311819</LongitudeDegrees>
            </Position>
            <AltitudeMeters>852.908</AltitudeMeters>
            <DistanceMeters>562127.885749</DistanceMeters>
          </Trackpoint>
          <Trackpoint>
            <Time>2021-08-03T16:10:14Z</Time>
            <Position>
              <LatitudeDegrees>40.975920</LatitudeDegrees>
              <LongitudeDegrees>-1.311900</LongitudeDegrees>
            </Position>
            <AltitudeMeters>853.064</AltitudeMeters>
            <DistanceMeters>562134.76584062</DistanceMeters>
          </Trackpoint>
          <Trackpoint>
            <Time>2021-08-03T16:10:16Z</Time>
            <Position>
              <LatitudeDegrees>40.975904</LatitudeDegrees>
              <LongitudeDegrees>-1.311959</LongitudeDegrees>
            </Position>
            <AltitudeMeters>853.186</AltitudeMeters>
            <DistanceMeters>562140.03275574</DistanceMeters>
          </Trackpoint>
          <Trackpoint>
            <Time>2021-08-03T16:10:19Z</Time>
            <Position>
              <LatitudeDegrees>40.975882</LatitudeDegrees>
              <LongitudeDegrees>-1.312041</LongitudeDegrees>
            </Position>
            <AltitudeMeters>853.246</AltitudeMeters>
            <DistanceMeters>562147.34549207</DistanceMeters>
          </Trackpoint>
          <Trackpoint>
            <Time>2021-08-03T16:10:21Z</Time>
            <Position>
              <LatitudeDegrees>40.975873</LatitudeDegrees>
              <LongitudeDegrees>-1.312116</LongitudeDegrees>
            </Position>
            <AltitudeMeters>853.299</AltitudeMeters>
            <DistanceMeters>562153.7271568</DistanceMeters>
          </Trackpoint>
          <Trackpoint>
            <Time>2021-08-03T16:10:23Z</Time>
            <Position>
              <LatitudeDegrees>40.975859</LatitudeDegrees>
              <LongitudeDegrees>-1.312187</LongitudeDegrees>
            </Position>
            <AltitudeMeters>853.277</AltitudeMeters>
            <DistanceMeters>562159.8936511</DistanceMeters>
          </Trackpoint>
          <Trackpoint>
            <Time>2021-08-03T16:10:25Z</Time>
            <Position>
              <LatitudeDegrees>40.975832</LatitudeDegrees>
              <LongitudeDegrees>-1.312273</LongitudeDegrees>
            </Position>
            <AltitudeMeters>853.242</AltitudeMeters>
            <DistanceMeters>562167.72053034</DistanceMeters>
          </Trackpoint>
          <Trackpoint>
            <Time>2021-08-03T16:10:27Z</Time>
            <Position>
              <LatitudeDegrees>40.975807</LatitudeDegrees>
              <LongitudeDegrees>-1.312368</LongitudeDegrees>
            </Position>
            <AltitudeMeters>853.317</AltitudeMeters>
            <DistanceMeters>562176.17417009</DistanceMeters>
          </Trackpoint>
          <Trackpoint>
            <Time>2021-08-03T16:10:29Z</Time>
            <Position>
              <LatitudeDegrees>40.975777</LatitudeDegrees>
              <LongitudeDegrees>-1.312470</LongitudeDegrees>
            </Position>
            <AltitudeMeters>853.378</AltitudeMeters>
            <DistanceMeters>562185.37263823</DistanceMeters>
          </Trackpoint>
          <Trackpoint>
            <Time>2021-08-03T16:10:31Z</Time>
            <Position>
              <LatitudeDegrees>40.975723</LatitudeDegrees>
              <LongitudeDegrees>-1.312539</LongitudeDegrees>
            </Position>
            <AltitudeMeters>853.477</AltitudeMeters>
            <DistanceMeters>562193.72364299</DistanceMeters>
          </Trackpoint>
          <Trackpoint>
            <Time>2021-08-03T16:10:33Z</Time>
            <Position>
              <LatitudeDegrees>40.975664</LatitudeDegrees>
              <LongitudeDegrees>-1.312608</LongitudeDegrees>
            </Position>
            <AltitudeMeters>853.561</AltitudeMeters>
            <DistanceMeters>562202.48364239</DistanceMeters>
          </Trackpoint>
          <Trackpoint>
            <Time>2021-08-03T16:10:35Z</Time>
            <Position>
              <LatitudeDegrees>40.975601</LatitudeDegrees>
              <LongitudeDegrees>-1.312663</LongitudeDegrees>
            </Position>
            <AltitudeMeters>853.527</AltitudeMeters>
            <DistanceMeters>562210.88155267</DistanceMeters>
          </Trackpoint>
          <Trackpoint>
            <Time>2021-08-03T16:10:37Z</Time>
            <Position>
              <LatitudeDegrees>40.975553</LatitudeDegrees>
              <LongitudeDegrees>-1.312731</LongitudeDegrees>
            </Position>
            <AltitudeMeters>853.508</AltitudeMeters>
            <DistanceMeters>562218.70381564</DistanceMeters>
          </Trackpoint>
          <Trackpoint>
            <Time>2021-08-03T16:10:39Z</Time>
            <Position>
              <LatitudeDegrees>40.975505</LatitudeDegrees>
              <LongitudeDegrees>-1.312802</LongitudeDegrees>
            </Position>
            <AltitudeMeters>853.564</AltitudeMeters>
            <DistanceMeters>562226.7120366</DistanceMeters>
          </Trackpoint>
          <Trackpoint>
            <Time>2021-08-03T16:10:41Z</Time>
            <Position>
              <LatitudeDegrees>40.975457</LatitudeDegrees>
              <LongitudeDegrees>-1.312875</LongitudeDegrees>
            </Position>
            <AltitudeMeters>853.436</AltitudeMeters>
            <DistanceMeters>562234.84667858</DistanceMeters>
          </Trackpoint>
          <Trackpoint>
            <Time>2021-08-03T16:10:43Z</Time>
            <Position>
              <LatitudeDegrees>40.975408</LatitudeDegrees>
              <LongitudeDegrees>-1.312949</LongitudeDegrees>
            </Position>
            <AltitudeMeters>853.446</AltitudeMeters>
            <DistanceMeters>562243.11727887</DistanceMeters>
          </Trackpoint>
          <Trackpoint>
            <Time>2021-08-03T16:10:45Z</Time>
            <Position>
              <LatitudeDegrees>40.975356</LatitudeDegrees>
              <LongitudeDegrees>-1.313023</LongitudeDegrees>
            </Position>
            <AltitudeMeters>853.349</AltitudeMeters>
            <DistanceMeters>562251.6124758</DistanceMeters>
          </Trackpoint>
          <Trackpoint>
            <Time>2021-08-03T16:10:47Z</Time>
            <Position>
              <LatitudeDegrees>40.975305</LatitudeDegrees>
              <LongitudeDegrees>-1.313088</LongitudeDegrees>
            </Position>
            <AltitudeMeters>853.357</AltitudeMeters>
            <DistanceMeters>562259.48995543</DistanceMeters>
          </Trackpoint>
          <Trackpoint>
            <Time>2021-08-03T16:10:49Z</Time>
            <Position>
              <LatitudeDegrees>40.975251</LatitudeDegrees>
              <LongitudeDegrees>-1.313144</LongitudeDegrees>
            </Position>
            <AltitudeMeters>853.242</AltitudeMeters>
            <DistanceMeters>562267.12291378</DistanceMeters>
          </Trackpoint>
          <Trackpoint>
            <Time>2021-08-03T16:10:51Z</Time>
            <Position>
              <LatitudeDegrees>40.975199</LatitudeDegrees>
              <LongitudeDegrees>-1.313201</LongitudeDegrees>
            </Position>
            <AltitudeMeters>853.127</AltitudeMeters>
            <DistanceMeters>562274.63543518</DistanceMeters>
          </Trackpoint>
          <Trackpoint>
            <Time>2021-08-03T16:10:53Z</Time>
            <Position>
              <LatitudeDegrees>40.975147</LatitudeDegrees>
              <LongitudeDegrees>-1.313265</LongitudeDegrees>
            </Position>
            <AltitudeMeters>853.158</AltitudeMeters>
            <DistanceMeters>562282.53580786</DistanceMeters>
          </Trackpoint>
          <Trackpoint>
            <Time>2021-08-03T16:10:55Z</Time>
            <Position>
              <LatitudeDegrees>40.975105</LatitudeDegrees>
              <LongitudeDegrees>-1.313322</LongitudeDegrees>
            </Position>
            <AltitudeMeters>853.186</AltitudeMeters>
            <DistanceMeters>562289.22962884</DistanceMeters>
          </Trackpoint>
          <Trackpoint>
            <Time>2021-08-03T16:10:58Z</Time>
            <Position>
              <LatitudeDegrees>40.975058</LatitudeDegrees>
              <LongitudeDegrees>-1.313399</LongitudeDegrees>
            </Position>
            <AltitudeMeters>853.260</AltitudeMeters>
            <DistanceMeters>562297.55084426</DistanceMeters>
          </Trackpoint>
          <Trackpoint>
            <Time>2021-08-03T16:11:00Z</Time>
            <Position>
              <LatitudeDegrees>40.975026</LatitudeDegrees>
              <LongitudeDegrees>-1.313457</LongitudeDegrees>
            </Position>
            <AltitudeMeters>853.226</AltitudeMeters>
            <DistanceMeters>562303.58784588</DistanceMeters>
          </Trackpoint>
          <Trackpoint>
            <Time>2021-08-03T16:11:02Z</Time>
            <Position>
              <LatitudeDegrees>40.974984</LatitudeDegrees>
              <LongitudeDegrees>-1.313528</LongitudeDegrees>
            </Position>
            <AltitudeMeters>853.208</AltitudeMeters>
            <DistanceMeters>562311.16738058</DistanceMeters>
          </Trackpoint>
          <Trackpoint>
            <Time>2021-08-03T16:11:04Z</Time>
            <Position>
              <LatitudeDegrees>40.974930</LatitudeDegrees>
              <LongitudeDegrees>-1.313610</LongitudeDegrees>
            </Position>
            <AltitudeMeters>853.045</AltitudeMeters>
            <DistanceMeters>562320.31070863</DistanceMeters>
          </Trackpoint>
          <Trackpoint>
            <Time>2021-08-03T16:11:06Z</Time>
            <Position>
              <LatitudeDegrees>40.974880</LatitudeDegrees>
              <LongitudeDegrees>-1.313691</LongitudeDegrees>
            </Position>
            <AltitudeMeters>852.657</AltitudeMeters>
            <DistanceMeters>562329.10260571</DistanceMeters>
          </Trackpoint>
          <Trackpoint>
            <Time>2021-08-03T16:11:08Z</Time>
            <Position>
              <LatitudeDegrees>40.974830</LatitudeDegrees>
              <LongitudeDegrees>-1.313773</LongitudeDegrees>
            </Position>
            <AltitudeMeters>852.587</AltitudeMeters>
            <DistanceMeters>562337.9599927</DistanceMeters>
          </Trackpoint>
          <Trackpoint>
            <Time>2021-08-03T16:11:10Z</Time>
            <Position>
              <LatitudeDegrees>40.974779</LatitudeDegrees>
              <LongitudeDegrees>-1.313864</LongitudeDegrees>
            </Position>
            <AltitudeMeters>852.390</AltitudeMeters>
            <DistanceMeters>562347.48259883</DistanceMeters>
          </Trackpoint>
          <Trackpoint>
            <Time>2021-08-03T16:11:12Z</Time>
            <Position>
              <LatitudeDegrees>40.974741</LatitudeDegrees>
              <LongitudeDegrees>-1.313951</LongitudeDegrees>
            </Position>
            <AltitudeMeters>851.768</AltitudeMeters>
            <DistanceMeters>562355.92875795</DistanceMeters>
          </Trackpoint>
          <Trackpoint>
            <Time>2021-08-03T16:11:14Z</Time>
            <Position>
              <LatitudeDegrees>40.974712</LatitudeDegrees>
              <LongitudeDegrees>-1.314038</LongitudeDegrees>
            </Position>
            <AltitudeMeters>851.583</AltitudeMeters>
            <DistanceMeters>562363.92061198</DistanceMeters>
          </Trackpoint>
          <Trackpoint>
            <Time>2021-08-03T16:11:16Z</Time>
            <Position>
              <LatitudeDegrees>40.974679</LatitudeDegrees>
              <LongitudeDegrees>-1.314122</LongitudeDegrees>
            </Position>
            <AltitudeMeters>851.568</AltitudeMeters>
            <DistanceMeters>562371.87792911</DistanceMeters>
          </Trackpoint>
          <Trackpoint>
            <Time>2021-08-03T16:11:18Z</Time>
            <Position>
              <LatitudeDegrees>40.974652</LatitudeDegrees>
              <LongitudeDegrees>-1.314195</LongitudeDegrees>
            </Position>
            <AltitudeMeters>851.599</AltitudeMeters>
            <DistanceMeters>562378.7086249</DistanceMeters>
          </Trackpoint>
          <Trackpoint>
            <Time>2021-08-03T16:11:20Z</Time>
            <Position>
              <LatitudeDegrees>40.974624</LatitudeDegrees>
              <LongitudeDegrees>-1.314278</LongitudeDegrees>
            </Position>
            <AltitudeMeters>852.012</AltitudeMeters>
            <DistanceMeters>562386.34867818</DistanceMeters>
          </Trackpoint>
          <Trackpoint>
            <Time>2021-08-03T16:11:22Z</Time>
            <Position>
              <LatitudeDegrees>40.974587</LatitudeDegrees>
              <LongitudeDegrees>-1.314350</LongitudeDegrees>
            </Position>
            <AltitudeMeters>852.032</AltitudeMeters>
            <DistanceMeters>562393.66758613</DistanceMeters>
          </Trackpoint>
          <Trackpoint>
            <Time>2021-08-03T16:11:24Z</Time>
            <Position>
              <LatitudeDegrees>40.974557</LatitudeDegrees>
              <LongitudeDegrees>-1.314419</LongitudeDegrees>
            </Position>
            <AltitudeMeters>852.105</AltitudeMeters>
            <DistanceMeters>562400.35870853</DistanceMeters>
          </Trackpoint>
          <Trackpoint>
            <Time>2021-08-03T16:11:26Z</Time>
            <Position>
              <LatitudeDegrees>40.974535</LatitudeDegrees>
              <LongitudeDegrees>-1.314493</LongitudeDegrees>
            </Position>
            <AltitudeMeters>852.208</AltitudeMeters>
            <DistanceMeters>562407.04172866</DistanceMeters>
          </Trackpoint>
          <Trackpoint>
            <Time>2021-08-03T16:11:28Z</Time>
            <Position>
              <LatitudeDegrees>40.974514</LatitudeDegrees>
              <LongitudeDegrees>-1.314574</LongitudeDegrees>
            </Position>
            <AltitudeMeters>852.638</AltitudeMeters>
            <DistanceMeters>562414.23870848</DistanceMeters>
          </Trackpoint>
          <Trackpoint>
            <Time>2021-08-03T16:11:30Z</Time>
            <Position>
              <LatitudeDegrees>40.974474</LatitudeDegrees>
              <LongitudeDegrees>-1.314682</LongitudeDegrees>
            </Position>
            <AltitudeMeters>852.860</AltitudeMeters>
            <DistanceMeters>562424.34778238</DistanceMeters>
          </Trackpoint>
          <Trackpoint>
            <Time>2021-08-03T16:11:32Z</Time>
            <Position>
              <LatitudeDegrees>40.974427</LatitudeDegrees>
              <LongitudeDegrees>-1.314816</LongitudeDegrees>
            </Position>
            <AltitudeMeters>852.890</AltitudeMeters>
            <DistanceMeters>562436.76395993</DistanceMeters>
          </Trackpoint>
          <Trackpoint>
            <Time>2021-08-03T16:11:33Z</Time>
            <Position>
              <LatitudeDegrees>40.974402</LatitudeDegrees>
              <LongitudeDegrees>-1.314904</LongitudeDegrees>
            </Position>
            <AltitudeMeters>853.013</AltitudeMeters>
            <DistanceMeters>562444.66490408</DistanceMeters>
          </Trackpoint>
          <Trackpoint>
            <Time>2021-08-03T16:11:35Z</Time>
            <Position>
              <LatitudeDegrees>40.974353</LatitudeDegrees>
              <LongitudeDegrees>-1.315056</LongitudeDegrees>
            </Position>
            <AltitudeMeters>852.811</AltitudeMeters>
            <DistanceMeters>562458.55376627</DistanceMeters>
          </Trackpoint>
          <Trackpoint>
            <Time>2021-08-03T16:11:36Z</Time>
            <Position>
              <LatitudeDegrees>40.974335</LatitudeDegrees>
              <LongitudeDegrees>-1.315119</LongitudeDegrees>
            </Position>
            <AltitudeMeters>852.846</AltitudeMeters>
            <DistanceMeters>562464.21483873</DistanceMeters>
          </Trackpoint>
          <Trackpoint>
            <Time>2021-08-03T16:11:38Z</Time>
            <Position>
              <LatitudeDegrees>40.974315</LatitudeDegrees>
              <LongitudeDegrees>-1.315206</LongitudeDegrees>
            </Position>
            <AltitudeMeters>852.781</AltitudeMeters>
            <DistanceMeters>562471.85725552</DistanceMeters>
          </Trackpoint>
          <Trackpoint>
            <Time>2021-08-03T16:11:40Z</Time>
            <Position>
              <LatitudeDegrees>40.974294</LatitudeDegrees>
              <LongitudeDegrees>-1.315284</LongitudeDegrees>
            </Position>
            <AltitudeMeters>852.942</AltitudeMeters>
            <DistanceMeters>562478.81565116</DistanceMeters>
          </Trackpoint>
          <Trackpoint>
            <Time>2021-08-03T16:11:42Z</Time>
            <Position>
              <LatitudeDegrees>40.974267</LatitudeDegrees>
              <LongitudeDegrees>-1.315359</LongitudeDegrees>
            </Position>
            <AltitudeMeters>853.163</AltitudeMeters>
            <DistanceMeters>562485.79866002</DistanceMeters>
          </Trackpoint>
          <Trackpoint>
            <Time>2021-08-03T16:11:44Z</Time>
            <Position>
              <LatitudeDegrees>40.974241</LatitudeDegrees>
              <LongitudeDegrees>-1.315420</LongitudeDegrees>
            </Position>
            <AltitudeMeters>853.144</AltitudeMeters>
            <DistanceMeters>562491.68494946</DistanceMeters>
          </Trackpoint>
          <Trackpoint>
            <Time>2021-08-03T16:11:46Z</Time>
            <Position>
              <LatitudeDegrees>40.974215</LatitudeDegrees>
              <LongitudeDegrees>-1.315477</LongitudeDegrees>
            </Position>
            <AltitudeMeters>853.218</AltitudeMeters>
            <DistanceMeters>562497.28104677</DistanceMeters>
          </Trackpoint>
          <Trackpoint>
            <Time>2021-08-03T16:11:48Z</Time>
            <Position>
              <LatitudeDegrees>40.974188</LatitudeDegrees>
              <LongitudeDegrees>-1.315557</LongitudeDegrees>
            </Position>
            <AltitudeMeters>853.608</AltitudeMeters>
            <DistanceMeters>562504.64485075</DistanceMeters>
          </Trackpoint>
          <Trackpoint>
            <Time>2021-08-03T16:11:50Z</Time>
            <Position>
              <LatitudeDegrees>40.974156</LatitudeDegrees>
              <LongitudeDegrees>-1.315644</LongitudeDegrees>
            </Position>
            <AltitudeMeters>853.623</AltitudeMeters>
            <DistanceMeters>562512.77727227</DistanceMeters>
          </Trackpoint>
          <Trackpoint>
            <Time>2021-08-03T16:11:54Z</Time>
            <Position>
              <LatitudeDegrees>40.974110</LatitudeDegrees>
              <LongitudeDegrees>-1.315716</LongitudeDegrees>
            </Position>
            <AltitudeMeters>853.985</AltitudeMeters>
            <DistanceMeters>562520.70389021</DistanceMeters>
          </Trackpoint>
          <Trackpoint>
            <Time>2021-08-03T16:11:56Z</Time>
            <Position>
              <LatitudeDegrees>40.974082</LatitudeDegrees>
              <LongitudeDegrees>-1.315802</LongitudeDegrees>
            </Position>
            <AltitudeMeters>853.955</AltitudeMeters>
            <DistanceMeters>562528.57448894</DistanceMeters>
          </Trackpoint>
          <Trackpoint>
            <Time>2021-08-03T16:11:58Z</Time>
            <Position>
              <LatitudeDegrees>40.974067</LatitudeDegrees>
              <LongitudeDegrees>-1.315880</LongitudeDegrees>
            </Position>
            <AltitudeMeters>853.978</AltitudeMeters>
            <DistanceMeters>562535.33876254</DistanceMeters>
          </Trackpoint>
          <Trackpoint>
            <Time>2021-08-03T16:12:00Z</Time>
            <Position>
              <LatitudeDegrees>40.974049</LatitudeDegrees>
              <LongitudeDegrees>-1.315942</LongitudeDegrees>
            </Position>
            <AltitudeMeters>853.916</AltitudeMeters>
            <DistanceMeters>562540.92031822</DistanceMeters>
          </Trackpoint>
          <Trackpoint>
            <Time>2021-08-03T16:12:02Z</Time>
            <Position>
              <LatitudeDegrees>40.974033</LatitudeDegrees>
              <LongitudeDegrees>-1.316023</LongitudeDegrees>
            </Position>
            <AltitudeMeters>853.891</AltitudeMeters>
            <DistanceMeters>562547.95614646</DistanceMeters>
          </Trackpoint>
          <Trackpoint>
            <Time>2021-08-03T16:12:04Z</Time>
            <Position>
              <LatitudeDegrees>40.974014</LatitudeDegrees>
              <LongitudeDegrees>-1.316112</LongitudeDegrees>
            </Position>
            <AltitudeMeters>853.786</AltitudeMeters>
            <DistanceMeters>562555.72919229</DistanceMeters>
          </Trackpoint>
          <Trackpoint>
            <Time>2021-08-03T16:12:06Z</Time>
            <Position>
              <LatitudeDegrees>40.973992</LatitudeDegrees>
              <LongitudeDegrees>-1.316217</LongitudeDegrees>
            </Position>
            <AltitudeMeters>853.777</AltitudeMeters>
            <DistanceMeters>562564.88633649</DistanceMeters>
          </Trackpoint>
          <Trackpoint>
            <Time>2021-08-03T16:12:07Z</Time>
            <Position>
              <LatitudeDegrees>40.973962</LatitudeDegrees>
              <LongitudeDegrees>-1.316275</LongitudeDegrees>
            </Position>
            <AltitudeMeters>853.981</AltitudeMeters>
            <DistanceMeters>562570.7948283</DistanceMeters>
          </Trackpoint>
          <Trackpoint>
            <Time>2021-08-03T16:12:09Z</Time>
            <Position>
              <LatitudeDegrees>40.973895</LatitudeDegrees>
              <LongitudeDegrees>-1.316365</LongitudeDegrees>
            </Position>
            <AltitudeMeters>854.461</AltitudeMeters>
            <DistanceMeters>562581.41616273</DistanceMeters>
          </Trackpoint>
          <Trackpoint>
            <Time>2021-08-03T16:12:10Z</Time>
            <Position>
              <LatitudeDegrees>40.973855</LatitudeDegrees>
              <LongitudeDegrees>-1.316394</LongitudeDegrees>
            </Position>
            <AltitudeMeters>854.917</AltitudeMeters>
            <DistanceMeters>562586.49187038</DistanceMeters>
          </Trackpoint>
          <Trackpoint>
            <Time>2021-08-03T16:12:12Z</Time>
            <Position>
              <LatitudeDegrees>40.973774</LatitudeDegrees>
              <LongitudeDegrees>-1.316447</LongitudeDegrees>
            </Position>
            <AltitudeMeters>855.208</AltitudeMeters>
            <DistanceMeters>562596.54765458</DistanceMeters>
          </Trackpoint>
          <Trackpoint>
            <Time>2021-08-03T16:12:14Z</Time>
            <Position>
              <LatitudeDegrees>40.973698</LatitudeDegrees>
              <LongitudeDegrees>-1.316502</LongitudeDegrees>
            </Position>
            <AltitudeMeters>855.365</AltitudeMeters>
            <DistanceMeters>562606.18713001</DistanceMeters>
          </Trackpoint>
          <Trackpoint>
            <Time>2021-08-03T16:12:16Z</Time>
            <Position>
              <LatitudeDegrees>40.973614</LatitudeDegrees>
              <LongitudeDegrees>-1.316569</LongitudeDegrees>
            </Position>
            <AltitudeMeters>855.497</AltitudeMeters>
            <DistanceMeters>562617.100732</DistanceMeters>
          </Trackpoint>
          <Trackpoint>
            <Time>2021-08-03T16:12:18Z</Time>
            <Position>
              <LatitudeDegrees>40.973535</LatitudeDegrees>
              <LongitudeDegrees>-1.316618</LongitudeDegrees>
            </Position>
            <AltitudeMeters>855.427</AltitudeMeters>
            <DistanceMeters>562626.8102118</DistanceMeters>
          </Trackpoint>
          <Trackpoint>
            <Time>2021-08-03T16:12:20Z</Time>
            <Position>
              <LatitudeDegrees>40.973459</LatitudeDegrees>
              <LongitudeDegrees>-1.316665</LongitudeDegrees>
            </Position>
            <AltitudeMeters>855.280</AltitudeMeters>
            <DistanceMeters>562636.14558902</DistanceMeters>
          </Trackpoint>
          <Trackpoint>
            <Time>2021-08-03T16:12:22Z</Time>
            <Position>
              <LatitudeDegrees>40.973389</LatitudeDegrees>
              <LongitudeDegrees>-1.316719</LongitudeDegrees>
            </Position>
            <AltitudeMeters>855.188</AltitudeMeters>
            <DistanceMeters>562645.16161631</DistanceMeters>
          </Trackpoint>
          <Trackpoint>
            <Time>2021-08-03T16:12:24Z</Time>
            <Position>
              <LatitudeDegrees>40.973327</LatitudeDegrees>
              <LongitudeDegrees>-1.316765</LongitudeDegrees>
            </Position>
            <AltitudeMeters>855.213</AltitudeMeters>
            <DistanceMeters>562653.07112765</DistanceMeters>
          </Trackpoint>
          <Trackpoint>
            <Time>2021-08-03T16:12:26Z</Time>
            <Position>
              <LatitudeDegrees>40.973274</LatitudeDegrees>
              <LongitudeDegrees>-1.316808</LongitudeDegrees>
            </Position>
            <AltitudeMeters>855.248</AltitudeMeters>
            <DistanceMeters>562659.98917688</DistanceMeters>
          </Trackpoint>
          <Trackpoint>
            <Time>2021-08-03T16:12:28Z</Time>
            <Position>
              <LatitudeDegrees>40.973225</LatitudeDegrees>
              <LongitudeDegrees>-1.316846</LongitudeDegrees>
            </Position>
            <AltitudeMeters>855.329</AltitudeMeters>
            <DistanceMeters>562666.30898923</DistanceMeters>
          </Trackpoint>
          <Trackpoint>
            <Time>2021-08-03T16:12:30Z</Time>
            <Position>
              <LatitudeDegrees>40.973179</LatitudeDegrees>
              <LongitudeDegrees>-1.316878</LongitudeDegrees>
            </Position>
            <AltitudeMeters>855.415</AltitudeMeters>
            <DistanceMeters>562672.09236222</DistanceMeters>
          </Trackpoint>
          <Trackpoint>
            <Time>2021-08-03T16:12:33Z</Time>
            <Position>
              <LatitudeDegrees>40.973125</LatitudeDegrees>
              <LongitudeDegrees>-1.316923</LongitudeDegrees>
            </Position>
            <AltitudeMeters>855.865</AltitudeMeters>
            <DistanceMeters>562679.19398013</DistanceMeters>
          </Trackpoint>
          <Trackpoint>
            <Time>2021-08-03T16:12:36Z</Time>
            <Position>
              <LatitudeDegrees>40.973088</LatitudeDegrees>
              <LongitudeDegrees>-1.316965</LongitudeDegrees>
            </Position>
            <AltitudeMeters>857.111</AltitudeMeters>
            <DistanceMeters>562684.61883212</DistanceMeters>
          </Trackpoint>
          <Trackpoint>
            <Time>2021-08-03T16:12:56Z</Time>
            <Position>
              <LatitudeDegrees>40.973045</LatitudeDegrees>
              <LongitudeDegrees>-1.317019</LongitudeDegrees>
            </Position>
            <AltitudeMeters>859.108</AltitudeMeters>
            <DistanceMeters>562691.21343963</DistanceMeters>
          </Trackpoint>
          <Trackpoint>
            <Time>2021-08-03T16:13:00Z</Time>
            <Position>
              <LatitudeDegrees>40.973034</LatitudeDegrees>
              <LongitudeDegrees>-1.317107</LongitudeDegrees>
            </Position>
            <AltitudeMeters>859.348</AltitudeMeters>
            <DistanceMeters>562698.70911409</DistanceMeters>
          </Trackpoint>
          <Trackpoint>
            <Time>2021-08-03T16:13:03Z</Time>
            <Position>
              <LatitudeDegrees>40.973021</LatitudeDegrees>
              <LongitudeDegrees>-1.317177</LongitudeDegrees>
            </Position>
            <AltitudeMeters>859.380</AltitudeMeters>
            <DistanceMeters>562704.76702055</DistanceMeters>
          </Trackpoint>
          <Trackpoint>
            <Time>2021-08-03T16:13:05Z</Time>
            <Position>
              <LatitudeDegrees>40.972988</LatitudeDegrees>
              <LongitudeDegrees>-1.317229</LongitudeDegrees>
            </Position>
            <AltitudeMeters>859.330</AltitudeMeters>
            <DistanceMeters>562710.47574596</DistanceMeters>
          </Trackpoint>
          <Trackpoint>
            <Time>2021-08-03T16:13:07Z</Time>
            <Position>
              <LatitudeDegrees>40.972931</LatitudeDegrees>
              <LongitudeDegrees>-1.317262</LongitudeDegrees>
            </Position>
            <AltitudeMeters>859.163</AltitudeMeters>
            <DistanceMeters>562717.40031858</DistanceMeters>
          </Trackpoint>
          <Trackpoint>
            <Time>2021-08-03T16:13:09Z</Time>
            <Position>
              <LatitudeDegrees>40.972857</LatitudeDegrees>
              <LongitudeDegrees>-1.317259</LongitudeDegrees>
            </Position>
            <AltitudeMeters>857.951</AltitudeMeters>
            <DistanceMeters>562725.64029096</DistanceMeters>
          </Trackpoint>
          <Trackpoint>
            <Time>2021-08-03T16:13:11Z</Time>
            <Position>
              <LatitudeDegrees>40.972774</LatitudeDegrees>
              <LongitudeDegrees>-1.317227</LongitudeDegrees>
            </Position>
            <AltitudeMeters>857.016</AltitudeMeters>
            <DistanceMeters>562735.26195109</DistanceMeters>
          </Trackpoint>
          <Trackpoint>
            <Time>2021-08-03T16:13:12Z</Time>
            <Position>
              <LatitudeDegrees>40.972722</LatitudeDegrees>
              <LongitudeDegrees>-1.317192</LongitudeDegrees>
            </Position>
            <AltitudeMeters>856.721</AltitudeMeters>
            <DistanceMeters>562741.75443881</DistanceMeters>
          </Trackpoint>
          <Trackpoint>
            <Time>2021-08-03T16:13:13Z</Time>
            <Position>
              <LatitudeDegrees>40.972669</LatitudeDegrees>
              <LongitudeDegrees>-1.317142</LongitudeDegrees>
            </Position>
            <AltitudeMeters>855.822</AltitudeMeters>
            <DistanceMeters>562748.9964471</DistanceMeters>
          </Trackpoint>
          <Trackpoint>
            <Time>2021-08-03T16:13:14Z</Time>
            <Position>
              <LatitudeDegrees>40.972620</LatitudeDegrees>
              <LongitudeDegrees>-1.317092</LongitudeDegrees>
            </Position>
            <AltitudeMeters>855.639</AltitudeMeters>
            <DistanceMeters>562755.88113091</DistanceMeters>
          </Trackpoint>
          <Trackpoint>
            <Time>2021-08-03T16:13:16Z</Time>
            <Position>
              <LatitudeDegrees>40.972528</LatitudeDegrees>
              <LongitudeDegrees>-1.316989</LongitudeDegrees>
            </Position>
            <AltitudeMeters>855.701</AltitudeMeters>
            <DistanceMeters>562769.28966633</DistanceMeters>
          </Trackpoint>
          <Trackpoint>
            <Time>2021-08-03T16:13:18Z</Time>
            <Position>
              <LatitudeDegrees>40.972457</LatitudeDegrees>
              <LongitudeDegrees>-1.316875</LongitudeDegrees>
            </Position>
            <AltitudeMeters>856.021</AltitudeMeters>
            <DistanceMeters>562781.70875268</DistanceMeters>
          </Trackpoint>
          <Trackpoint>
            <Time>2021-08-03T16:13:20Z</Time>
            <Position>
              <LatitudeDegrees>40.972414</LatitudeDegrees>
              <LongitudeDegrees>-1.316764</LongitudeDegrees>
            </Position>
            <AltitudeMeters>856.508</AltitudeMeters>
            <DistanceMeters>562792.19274478</DistanceMeters>
          </Trackpoint>
          <Trackpoint>
            <Time>2021-08-03T16:13:22Z</Time>
            <Position>
              <LatitudeDegrees>40.972387</LatitudeDegrees>
              <LongitudeDegrees>-1.316666</LongitudeDegrees>
            </Position>
            <AltitudeMeters>856.880</AltitudeMeters>
            <DistanceMeters>562800.95892699</DistanceMeters>
          </Trackpoint>
          <Trackpoint>
            <Time>2021-08-03T16:13:24Z</Time>
            <Position>
              <LatitudeDegrees>40.972364</LatitudeDegrees>
              <LongitudeDegrees>-1.316572</LongitudeDegrees>
            </Position>
            <AltitudeMeters>856.842</AltitudeMeters>
            <DistanceMeters>562809.26221752</DistanceMeters>
          </Trackpoint>
          <Trackpoint>
            <Time>2021-08-03T16:13:26Z</Time>
            <Position>
              <LatitudeDegrees>40.972342</LatitudeDegrees>
              <LongitudeDegrees>-1.316481</LongitudeDegrees>
            </Position>
            <AltitudeMeters>856.862</AltitudeMeters>
            <DistanceMeters>562817.29183431</DistanceMeters>
          </Trackpoint>
          <Trackpoint>
            <Time>2021-08-03T16:13:28Z</Time>
            <Position>
              <LatitudeDegrees>40.972318</LatitudeDegrees>
              <LongitudeDegrees>-1.316401</LongitudeDegrees>
            </Position>
            <AltitudeMeters>856.845</AltitudeMeters>
            <DistanceMeters>562824.52635732</DistanceMeters>
          </Trackpoint>
          <Trackpoint>
            <Time>2021-08-03T16:13:30Z</Time>
            <Position>
              <LatitudeDegrees>40.972294</LatitudeDegrees>
              <LongitudeDegrees>-1.316318</LongitudeDegrees>
            </Position>
            <AltitudeMeters>856.813</AltitudeMeters>
            <DistanceMeters>562831.99548125</DistanceMeters>
          </Trackpoint>
          <Trackpoint>
            <Time>2021-08-03T16:13:32Z</Time>
            <Position>
              <LatitudeDegrees>40.972276</LatitudeDegrees>
              <LongitudeDegrees>-1.316233</LongitudeDegrees>
            </Position>
            <AltitudeMeters>856.878</AltitudeMeters>
            <DistanceMeters>562839.41365392</DistanceMeters>
          </Trackpoint>
          <Trackpoint>
            <Time>2021-08-03T16:13:34Z</Time>
            <Position>
              <LatitudeDegrees>40.972257</LatitudeDegrees>
              <LongitudeDegrees>-1.316134</LongitudeDegrees>
            </Position>
            <AltitudeMeters>856.663</AltitudeMeters>
            <DistanceMeters>562847.99767534</DistanceMeters>
          </Trackpoint>
          <Trackpoint>
            <Time>2021-08-03T16:13:36Z</Time>
            <Position>
              <LatitudeDegrees>40.972242</LatitudeDegrees>
              <LongitudeDegrees>-1.316036</LongitudeDegrees>
            </Position>
            <AltitudeMeters>856.564</AltitudeMeters>
            <DistanceMeters>562856.40096028</DistanceMeters>
          </Trackpoint>
          <Trackpoint>
            <Time>2021-08-03T16:13:38Z</Time>
            <Position>
              <LatitudeDegrees>40.972219</LatitudeDegrees>
              <LongitudeDegrees>-1.315945</LongitudeDegrees>
            </Position>
            <AltitudeMeters>856.542</AltitudeMeters>
            <DistanceMeters>562864.4653642</DistanceMeters>
          </Trackpoint>
          <Trackpoint>
            <Time>2021-08-03T16:13:40Z</Time>
            <Position>
              <LatitudeDegrees>40.972190</LatitudeDegrees>
              <LongitudeDegrees>-1.315875</LongitudeDegrees>
            </Position>
            <AltitudeMeters>856.522</AltitudeMeters>
            <DistanceMeters>562871.17535386</DistanceMeters>
          </Trackpoint>
          <Trackpoint>
            <Time>2021-08-03T16:13:42Z</Time>
            <Position>
              <LatitudeDegrees>40.972139</LatitudeDegrees>
              <LongitudeDegrees>-1.315802</LongitudeDegrees>
            </Position>
            <AltitudeMeters>856.614</AltitudeMeters>
            <DistanceMeters>562879.53338421</DistanceMeters>
          </Trackpoint>
          <Trackpoint>
            <Time>2021-08-03T16:13:44Z</Time>
            <Position>
              <LatitudeDegrees>40.972067</LatitudeDegrees>
              <LongitudeDegrees>-1.315736</LongitudeDegrees>
            </Position>
            <AltitudeMeters>856.708</AltitudeMeters>
            <DistanceMeters>562889.27906756</DistanceMeters>
          </Trackpoint>
          <Trackpoint>
            <Time>2021-08-03T16:13:45Z</Time>
            <Position>
              <LatitudeDegrees>40.972026</LatitudeDegrees>
              <LongitudeDegrees>-1.315701</LongitudeDegrees>
            </Position>
            <AltitudeMeters>856.711</AltitudeMeters>
            <DistanceMeters>562894.7080794</DistanceMeters>
          </Trackpoint>
          <Trackpoint>
            <Time>2021-08-03T16:13:47Z</Time>
            <Position>
              <LatitudeDegrees>40.971942</LatitudeDegrees>
              <LongitudeDegrees>-1.315634</LongitudeDegrees>
            </Position>
            <AltitudeMeters>857.153</AltitudeMeters>
            <DistanceMeters>562905.62168138</DistanceMeters>
          </Trackpoint>
          <Trackpoint>
            <Time>2021-08-03T16:13:49Z</Time>
            <Position>
              <LatitudeDegrees>40.971869</LatitudeDegrees>
              <LongitudeDegrees>-1.315581</LongitudeDegrees>
            </Position>
            <AltitudeMeters>857.253</AltitudeMeters>
            <DistanceMeters>562914.8876388</DistanceMeters>
          </Trackpoint>
          <Trackpoint>
            <Time>2021-08-03T16:13:51Z</Time>
            <Position>
              <LatitudeDegrees>40.971791</LatitudeDegrees>
              <LongitudeDegrees>-1.315534</LongitudeDegrees>
            </Position>
            <AltitudeMeters>857.356</AltitudeMeters>
            <DistanceMeters>562924.42587869</DistanceMeters>
          </Trackpoint>
          <Trackpoint>
            <Time>2021-08-03T16:13:53Z</Time>
            <Position>
              <LatitudeDegrees>40.971706</LatitudeDegrees>
              <LongitudeDegrees>-1.315495</LongitudeDegrees>
            </Position>
            <AltitudeMeters>857.314</AltitudeMeters>
            <DistanceMeters>562934.4384662</DistanceMeters>
          </Trackpoint>
          <Trackpoint>
            <Time>2021-08-03T16:13:55Z</Time>
            <Position>
              <LatitudeDegrees>40.971609</LatitudeDegrees>
              <LongitudeDegrees>-1.315465</LongitudeDegrees>
            </Position>
            <AltitudeMeters>857.349</AltitudeMeters>
            <DistanceMeters>562945.52527821</DistanceMeters>
          </Trackpoint>
          <Trackpoint>
            <Time>2021-08-03T16:13:57Z</Time>
            <Position>
              <LatitudeDegrees>40.971525</LatitudeDegrees>
              <LongitudeDegrees>-1.315450</LongitudeDegrees>
            </Position>
            <AltitudeMeters>857.374</AltitudeMeters>
            <DistanceMeters>562954.95928231</DistanceMeters>
          </Trackpoint>
          <Trackpoint>
            <Time>2021-08-03T16:14:00Z</Time>
            <Position>
              <LatitudeDegrees>40.971445</LatitudeDegrees>
              <LongitudeDegrees>-1.315444</LongitudeDegrees>
            </Position>
            <AltitudeMeters>857.435</AltitudeMeters>
            <DistanceMeters>562963.87762932</DistanceMeters>
          </Trackpoint>
          <Trackpoint>
            <Time>2021-08-03T16:14:01Z</Time>
            <Position>
              <LatitudeDegrees>40.971398</LatitudeDegrees>
              <LongitudeDegrees>-1.315436</LongitudeDegrees>
            </Position>
            <AltitudeMeters>857.584</AltitudeMeters>
            <DistanceMeters>562969.15139794</DistanceMeters>
          </Trackpoint>
          <Trackpoint>
            <Time>2021-08-03T16:14:02Z</Time>
            <Position>
              <LatitudeDegrees>40.971344</LatitudeDegrees>
              <LongitudeDegrees>-1.315426</LongitudeDegrees>
            </Position>
            <AltitudeMeters>857.507</AltitudeMeters>
            <DistanceMeters>562975.21972981</DistanceMeters>
          </Trackpoint>
          <Trackpoint>
            <Time>2021-08-03T16:14:04Z</Time>
            <Position>
              <LatitudeDegrees>40.971231</LatitudeDegrees>
              <LongitudeDegrees>-1.315394</LongitudeDegrees>
            </Position>
            <AltitudeMeters>857.617</AltitudeMeters>
            <DistanceMeters>562988.08102603</DistanceMeters>
          </Trackpoint>
          <Trackpoint>
            <Time>2021-08-03T16:14:06Z</Time>
            <Position>
              <LatitudeDegrees>40.971131</LatitudeDegrees>
              <LongitudeDegrees>-1.315352</LongitudeDegrees>
            </Position>
            <AltitudeMeters>857.508</AltitudeMeters>
            <DistanceMeters>562999.75771752</DistanceMeters>
          </Trackpoint>
          <Trackpoint>
            <Time>2021-08-03T16:14:07Z</Time>
            <Position>
              <LatitudeDegrees>40.971088</LatitudeDegrees>
              <LongitudeDegrees>-1.315334</LongitudeDegrees>
            </Position>
            <AltitudeMeters>857.675</AltitudeMeters>
            <DistanceMeters>563004.77707139</DistanceMeters>
          </Trackpoint>
          <Trackpoint>
            <Time>2021-08-03T16:14:09Z</Time>
            <Position>
              <LatitudeDegrees>40.971003</LatitudeDegrees>
              <LongitudeDegrees>-1.315304</LongitudeDegrees>
            </Position>
            <AltitudeMeters>857.937</AltitudeMeters>
            <DistanceMeters>563014.5680515</DistanceMeters>
          </Trackpoint>
          <Trackpoint>
            <Time>2021-08-03T16:14:11Z</Time>
            <Position>
              <LatitudeDegrees>40.970916</LatitudeDegrees>
              <LongitudeDegrees>-1.315278</LongitudeDegrees>
            </Position>
            <AltitudeMeters>858.287</AltitudeMeters>
            <DistanceMeters>563024.49459139</DistanceMeters>
          </Trackpoint>
          <Trackpoint>
            <Time>2021-08-03T16:14:13Z</Time>
            <Position>
              <LatitudeDegrees>40.970831</LatitudeDegrees>
              <LongitudeDegrees>-1.315245</LongitudeDegrees>
            </Position>
            <AltitudeMeters>858.590</AltitudeMeters>
            <DistanceMeters>563034.35358438</DistanceMeters>
          </Trackpoint>
          <Trackpoint>
            <Time>2021-08-03T16:14:15Z</Time>
            <Position>
              <LatitudeDegrees>40.970758</LatitudeDegrees>
              <LongitudeDegrees>-1.315220</LongitudeDegrees>
            </Position>
            <AltitudeMeters>858.698</AltitudeMeters>
            <DistanceMeters>563042.74611656</DistanceMeters>
          </Trackpoint>
          <Trackpoint>
            <Time>2021-08-03T16:14:17Z</Time>
            <Position>
              <LatitudeDegrees>40.970693</LatitudeDegrees>
              <LongitudeDegrees>-1.315198</LongitudeDegrees>
            </Position>
            <AltitudeMeters>858.823</AltitudeMeters>
            <DistanceMeters>563050.21282212</DistanceMeters>
          </Trackpoint>
          <Trackpoint>
            <Time>2021-08-03T16:14:19Z</Time>
            <Position>
              <LatitudeDegrees>40.970625</LatitudeDegrees>
              <LongitudeDegrees>-1.315170</LongitudeDegrees>
            </Position>
            <AltitudeMeters>858.878</AltitudeMeters>
            <DistanceMeters>563058.13830076</DistanceMeters>
          </Trackpoint>
          <Trackpoint>
            <Time>2021-08-03T16:14:21Z</Time>
            <Position>
              <LatitudeDegrees>40.970554</LatitudeDegrees>
              <LongitudeDegrees>-1.315143</LongitudeDegrees>
            </Position>
            <AltitudeMeters>858.759</AltitudeMeters>
            <DistanceMeters>563066.36017113</DistanceMeters>
          </Trackpoint>
          <Trackpoint>
            <Time>2021-08-03T16:14:23Z</Time>
            <Position>
              <LatitudeDegrees>40.970490</LatitudeDegrees>
              <LongitudeDegrees>-1.315129</LongitudeDegrees>
            </Position>
            <AltitudeMeters>858.136</AltitudeMeters>
            <DistanceMeters>563073.57970028</DistanceMeters>
          </Trackpoint>
          <Trackpoint>
            <Time>2021-08-03T16:14:25Z</Time>
            <Position>
              <LatitudeDegrees>40.970432</LatitudeDegrees>
              <LongitudeDegrees>-1.315126</LongitudeDegrees>
            </Position>
            <AltitudeMeters>858.117</AltitudeMeters>
            <DistanceMeters>563080.04011926</DistanceMeters>
          </Trackpoint>
          <Trackpoint>
            <Time>2021-08-03T16:14:27Z</Time>
            <Position>
              <LatitudeDegrees>40.970361</LatitudeDegrees>
              <LongitudeDegrees>-1.315118</LongitudeDegrees>
            </Position>
            <AltitudeMeters>858.118</AltitudeMeters>
            <DistanceMeters>563087.97129272</DistanceMeters>
          </Trackpoint>
          <Trackpoint>
            <Time>2021-08-03T16:14:29Z</Time>
            <Position>
              <LatitudeDegrees>40.970284</LatitudeDegrees>
              <LongitudeDegrees>-1.315097</LongitudeDegrees>
            </Position>
            <AltitudeMeters>858.208</AltitudeMeters>
            <DistanceMeters>563096.72149376</DistanceMeters>
          </Trackpoint>
          <Trackpoint>
            <Time>2021-08-03T16:14:31Z</Time>
            <Position>
              <LatitudeDegrees>40.970204</LatitudeDegrees>
              <LongitudeDegrees>-1.315072</LongitudeDegrees>
            </Position>
            <AltitudeMeters>858.280</AltitudeMeters>
            <DistanceMeters>563105.87025206</DistanceMeters>
          </Trackpoint>
          <Trackpoint>
            <Time>2021-08-03T16:14:33Z</Time>
            <Position>
              <LatitudeDegrees>40.970146</LatitudeDegrees>
              <LongitudeDegrees>-1.315045</LongitudeDegrees>
            </Position>
            <AltitudeMeters>857.862</AltitudeMeters>
            <DistanceMeters>563112.71283537</DistanceMeters>
          </Trackpoint>
          <Trackpoint>
            <Time>2021-08-03T16:14:36Z</Time>
            <Position>
              <LatitudeDegrees>40.970084</LatitudeDegrees>
              <LongitudeDegrees>-1.315032</LongitudeDegrees>
            </Position>
            <AltitudeMeters>857.812</AltitudeMeters>
            <DistanceMeters>563119.69972261</DistanceMeters>
          </Trackpoint>
          <Trackpoint>
            <Time>2021-08-03T16:14:38Z</Time>
            <Position>
              <LatitudeDegrees>40.970017</LatitudeDegrees>
              <LongitudeDegrees>-1.315012</LongitudeDegrees>
            </Position>
            <AltitudeMeters>857.755</AltitudeMeters>
            <DistanceMeters>563127.34450218</DistanceMeters>
          </Trackpoint>
          <Trackpoint>
            <Time>2021-08-03T16:14:40Z</Time>
            <Position>
              <LatitudeDegrees>40.969872</LatitudeDegrees>
              <LongitudeDegrees>-1.314957</LongitudeDegrees>
            </Position>
            <AltitudeMeters>857.583</AltitudeMeters>
            <DistanceMeters>563144.13225623</DistanceMeters>
          </Trackpoint>
          <Trackpoint>
            <Time>2021-08-03T16:14:42Z</Time>
            <Position>
              <LatitudeDegrees>40.969808</LatitudeDegrees>
              <LongitudeDegrees>-1.314924</LongitudeDegrees>
            </Position>
            <AltitudeMeters>857.368</AltitudeMeters>
            <DistanceMeters>563151.77644518</DistanceMeters>
          </Trackpoint>
          <Trackpoint>
            <Time>2021-08-03T16:14:46Z</Time>
            <Position>
              <LatitudeDegrees>40.969763</LatitudeDegrees>
              <LongitudeDegrees>-1.314871</LongitudeDegrees>
            </Position>
            <AltitudeMeters>858.923</AltitudeMeters>
            <DistanceMeters>563158.47970262</DistanceMeters>
          </Trackpoint>
          <Trackpoint>
            <Time>2021-08-03T16:14:50Z</Time>
            <Position>
              <LatitudeDegrees>40.969769</LatitudeDegrees>
              <LongitudeDegrees>-1.314790</LongitudeDegrees>
            </Position>
            <AltitudeMeters>859.624</AltitudeMeters>
            <DistanceMeters>563165.32030611</DistanceMeters>
          </Trackpoint>
          <Trackpoint>
            <Time>2021-08-03T16:14:53Z</Time>
            <Position>
              <LatitudeDegrees>40.969795</LatitudeDegrees>
              <LongitudeDegrees>-1.314694</LongitudeDegrees>
            </Position>
            <AltitudeMeters>859.452</AltitudeMeters>
            <DistanceMeters>563173.89169468</DistanceMeters>
          </Trackpoint>
          <Trackpoint>
            <Time>2021-08-03T16:14:55Z</Time>
            <Position>
              <LatitudeDegrees>40.969821</LatitudeDegrees>
              <LongitudeDegrees>-1.314637</LongitudeDegrees>
            </Position>
            <AltitudeMeters>859.453</AltitudeMeters>
            <DistanceMeters>563179.4894054</DistanceMeters>
          </Trackpoint>
          <Trackpoint>
            <Time>2021-08-03T16:14:57Z</Time>
            <Position>
              <LatitudeDegrees>40.969853</LatitudeDegrees>
              <LongitudeDegrees>-1.314576</LongitudeDegrees>
            </Position>
            <AltitudeMeters>859.408</AltitudeMeters>
            <DistanceMeters>563185.73158289</DistanceMeters>
          </Trackpoint>
          <Trackpoint>
            <Time>2021-08-03T16:15:00Z</Time>
            <Position>
              <LatitudeDegrees>40.969905</LatitudeDegrees>
              <LongitudeDegrees>-1.314535</LongitudeDegrees>
            </Position>
            <AltitudeMeters>859.208</AltitudeMeters>
            <DistanceMeters>563192.46709356</DistanceMeters>
          </Trackpoint>
          <Trackpoint>
            <Time>2021-08-03T16:15:03Z</Time>
            <Position>
              <LatitudeDegrees>40.969942</LatitudeDegrees>
              <LongitudeDegrees>-1.314571</LongitudeDegrees>
            </Position>
            <AltitudeMeters>859.142</AltitudeMeters>
            <DistanceMeters>563197.57737546</DistanceMeters>
          </Trackpoint>
          <Trackpoint>
            <Time>2021-08-03T16:15:06Z</Time>
            <Position>
              <LatitudeDegrees>40.969960</LatitudeDegrees>
              <LongitudeDegrees>-1.314634</LongitudeDegrees>
            </Position>
            <AltitudeMeters>859.014</AltitudeMeters>
            <DistanceMeters>563203.2376503</DistanceMeters>
          </Trackpoint>
          <Trackpoint>
            <Time>2021-08-03T16:15:44Z</Time>
            <Position>
              <LatitudeDegrees>40.970004</LatitudeDegrees>
              <LongitudeDegrees>-1.314685</LongitudeDegrees>
            </Position>
            <AltitudeMeters>858.844</AltitudeMeters>
            <DistanceMeters>563209.74541939</DistanceMeters>
          </Trackpoint>
          <Trackpoint>
            <Time>2021-08-03T16:16:23Z</Time>
            <Position>
              <LatitudeDegrees>40.970015</LatitudeDegrees>
              <LongitudeDegrees>-1.314618</LongitudeDegrees>
            </Position>
            <AltitudeMeters>859.397</AltitudeMeters>
            <DistanceMeters>563215.50689151</DistanceMeters>
          </Trackpoint>
          <Trackpoint>
            <Time>2021-08-03T16:16:41Z</Time>
            <Position>
              <LatitudeDegrees>40.970009</LatitudeDegrees>
              <LongitudeDegrees>-1.314550</LongitudeDegrees>
            </Position>
            <AltitudeMeters>859.585</AltitudeMeters>
            <DistanceMeters>563221.26130636</DistanceMeters>
          </Trackpoint>
          <Trackpoint>
            <Time>2021-08-03T16:16:49Z</Time>
            <Position>
              <LatitudeDegrees>40.970010</LatitudeDegrees>
              <LongitudeDegrees>-1.314481</LongitudeDegrees>
            </Position>
            <AltitudeMeters>859.780</AltitudeMeters>
            <DistanceMeters>563227.06105073</DistanceMeters>
          </Trackpoint>
          <Trackpoint>
            <Time>2021-08-03T16:17:50Z</Time>
            <Position>
              <LatitudeDegrees>40.970055</LatitudeDegrees>
              <LongitudeDegrees>-1.314475</LongitudeDegrees>
            </Position>
            <AltitudeMeters>859.375</AltitudeMeters>
            <DistanceMeters>563232.09477644</DistanceMeters>
          </Trackpoint>
          <Trackpoint>
            <Time>2021-08-03T16:18:08Z</Time>
            <Position>
              <LatitudeDegrees>40.970010</LatitudeDegrees>
              <LongitudeDegrees>-1.314490</LongitudeDegrees>
            </Position>
            <AltitudeMeters>859.026</AltitudeMeters>
            <DistanceMeters>563237.25954612</DistanceMeters>
          </Trackpoint>
          <Trackpoint>
            <Time>2021-08-03T16:18:18Z</Time>
            <Position>
              <LatitudeDegrees>40.969977</LatitudeDegrees>
              <LongitudeDegrees>-1.314532</LongitudeDegrees>
            </Position>
            <AltitudeMeters>859.193</AltitudeMeters>
            <DistanceMeters>563242.35389983</DistanceMeters>
          </Trackpoint>
          <Trackpoint>
            <Time>2021-08-03T16:18:24Z</Time>
            <Position>
              <LatitudeDegrees>40.969997</LatitudeDegrees>
              <LongitudeDegrees>-1.314588</LongitudeDegrees>
            </Position>
            <AltitudeMeters>859.165</AltitudeMeters>
            <DistanceMeters>563247.56046198</DistanceMeters>
          </Trackpoint>
          <Trackpoint>
            <Time>2021-08-03T16:18:32Z</Time>
            <Position>
              <LatitudeDegrees>40.969960</LatitudeDegrees>
              <LongitudeDegrees>-1.314621</LongitudeDegrees>
            </Position>
            <AltitudeMeters>859.121</AltitudeMeters>
            <DistanceMeters>563252.52555097</DistanceMeters>
          </Trackpoint>
          <Trackpoint>
            <Time>2021-08-03T16:18:40Z</Time>
            <Position>
              <LatitudeDegrees>40.969942</LatitudeDegrees>
              <LongitudeDegrees>-1.314679</LongitudeDegrees>
            </Position>
            <AltitudeMeters>859.108</AltitudeMeters>
            <DistanceMeters>563257.79589395</DistanceMeters>
          </Trackpoint>
          <Trackpoint>
            <Time>2021-08-03T16:18:46Z</Time>
            <Position>
              <LatitudeDegrees>40.969939</LatitudeDegrees>
              <LongitudeDegrees>-1.314742</LongitudeDegrees>
            </Position>
            <AltitudeMeters>859.796</AltitudeMeters>
            <DistanceMeters>563263.10039376</DistanceMeters>
          </Trackpoint>
          <Trackpoint>
            <Time>2021-08-03T16:18:54Z</Time>
            <Position>
              <LatitudeDegrees>40.969945</LatitudeDegrees>
              <LongitudeDegrees>-1.314805</LongitudeDegrees>
            </Position>
            <AltitudeMeters>859.898</AltitudeMeters>
            <DistanceMeters>563268.43629397</DistanceMeters>
          </Trackpoint>
          <Trackpoint>
            <Time>2021-08-03T16:19:18Z</Time>
            <Position>
              <LatitudeDegrees>40.969973</LatitudeDegrees>
              <LongitudeDegrees>-1.314758</LongitudeDegrees>
            </Position>
            <AltitudeMeters>860.298</AltitudeMeters>
            <DistanceMeters>563273.46643057</DistanceMeters>
          </Trackpoint>
          <Trackpoint>
            <Time>2021-08-03T16:19:25Z</Time>
            <Position>
              <LatitudeDegrees>40.969996</LatitudeDegrees>
              <LongitudeDegrees>-1.314705</LongitudeDegrees>
            </Position>
            <AltitudeMeters>860.341</AltitudeMeters>
            <DistanceMeters>563278.60314969</DistanceMeters>
          </Trackpoint>
          <Trackpoint>
            <Time>2021-08-03T16:19:41Z</Time>
            <Position>
              <LatitudeDegrees>40.970018</LatitudeDegrees>
              <LongitudeDegrees>-1.314644</LongitudeDegrees>
            </Position>
            <AltitudeMeters>860.379</AltitudeMeters>
            <DistanceMeters>563284.28412612</DistanceMeters>
          </Trackpoint>
          <Trackpoint>
            <Time>2021-08-03T16:28:49Z</Time>
            <Position>
              <LatitudeDegrees>40.970014</LatitudeDegrees>
              <LongitudeDegrees>-1.314707</LongitudeDegrees>
            </Position>
            <AltitudeMeters>859.254</AltitudeMeters>
            <DistanceMeters>563289.59713083</DistanceMeters>
          </Trackpoint>
          <Trackpoint>
            <Time>2021-08-03T16:29:00Z</Time>
            <Position>
              <LatitudeDegrees>40.969966</LatitudeDegrees>
              <LongitudeDegrees>-1.314735</LongitudeDegrees>
            </Position>
            <AltitudeMeters>859.079</AltitudeMeters>
            <DistanceMeters>563295.43489654</DistanceMeters>
          </Trackpoint>
          <Trackpoint>
            <Time>2021-08-03T16:29:03Z</Time>
            <Position>
              <LatitudeDegrees>40.969908</LatitudeDegrees>
              <LongitudeDegrees>-1.314732</LongitudeDegrees>
            </Position>
            <AltitudeMeters>860.210</AltitudeMeters>
            <DistanceMeters>563301.89531551</DistanceMeters>
          </Trackpoint>
          <Trackpoint>
            <Time>2021-08-03T16:29:06Z</Time>
            <Position>
              <LatitudeDegrees>40.969852</LatitudeDegrees>
              <LongitudeDegrees>-1.314732</LongitudeDegrees>
            </Position>
            <AltitudeMeters>860.212</AltitudeMeters>
            <DistanceMeters>563308.12808286</DistanceMeters>
          </Trackpoint>
          <Trackpoint>
            <Time>2021-08-03T16:29:10Z</Time>
            <Position>
              <LatitudeDegrees>40.969800</LatitudeDegrees>
              <LongitudeDegrees>-1.314750</LongitudeDegrees>
            </Position>
            <AltitudeMeters>860.132</AltitudeMeters>
            <DistanceMeters>563314.10948428</DistanceMeters>
          </Trackpoint>
          <Trackpoint>
            <Time>2021-08-03T16:29:15Z</Time>
            <Position>
              <LatitudeDegrees>40.969774</LatitudeDegrees>
              <LongitudeDegrees>-1.314805</LongitudeDegrees>
            </Position>
            <AltitudeMeters>860.105</AltitudeMeters>
            <DistanceMeters>563319.56173259</DistanceMeters>
          </Trackpoint>
          <Trackpoint>
            <Time>2021-08-03T16:29:19Z</Time>
            <Position>
              <LatitudeDegrees>40.969768</LatitudeDegrees>
              <LongitudeDegrees>-1.314867</LongitudeDegrees>
            </Position>
            <AltitudeMeters>860.108</AltitudeMeters>
            <DistanceMeters>563324.81405432</DistanceMeters>
          </Trackpoint>
          <Trackpoint>
            <Time>2021-08-03T16:29:22Z</Time>
            <Position>
              <LatitudeDegrees>40.969773</LatitudeDegrees>
              <LongitudeDegrees>-1.314950</LongitudeDegrees>
            </Position>
            <AltitudeMeters>860.188</AltitudeMeters>
            <DistanceMeters>563331.81127337</DistanceMeters>
          </Trackpoint>
          <Trackpoint>
            <Time>2021-08-03T16:29:24Z</Time>
            <Position>
              <LatitudeDegrees>40.969751</LatitudeDegrees>
              <LongitudeDegrees>-1.315023</LongitudeDegrees>
            </Position>
            <AltitudeMeters>860.160</AltitudeMeters>
            <DistanceMeters>563338.41682629</DistanceMeters>
          </Trackpoint>
          <Trackpoint>
            <Time>2021-08-03T16:29:26Z</Time>
            <Position>
              <LatitudeDegrees>40.969708</LatitudeDegrees>
              <LongitudeDegrees>-1.315081</LongitudeDegrees>
            </Position>
            <AltitudeMeters>860.050</AltitudeMeters>
            <DistanceMeters>563345.24752208</DistanceMeters>
          </Trackpoint>
          <Trackpoint>
            <Time>2021-08-03T16:29:28Z</Time>
            <Position>
              <LatitudeDegrees>40.969644</LatitudeDegrees>
              <LongitudeDegrees>-1.315111</LongitudeDegrees>
            </Position>
            <AltitudeMeters>859.233</AltitudeMeters>
            <DistanceMeters>563352.80378924</DistanceMeters>
          </Trackpoint>
          <Trackpoint>
            <Time>2021-08-03T16:29:30Z</Time>
            <Position>
              <LatitudeDegrees>40.969587</LatitudeDegrees>
              <LongitudeDegrees>-1.315105</LongitudeDegrees>
            </Position>
            <AltitudeMeters>858.541</AltitudeMeters>
            <DistanceMeters>563359.16845128</DistanceMeters>
          </Trackpoint>
          <Trackpoint>
            <Time>2021-08-03T16:29:34Z</Time>
            <Position>
              <LatitudeDegrees>40.969540</LatitudeDegrees>
              <LongitudeDegrees>-1.315095</LongitudeDegrees>
            </Position>
            <AltitudeMeters>859.956</AltitudeMeters>
            <DistanceMeters>563364.46698954</DistanceMeters>
          </Trackpoint>
          <Trackpoint>
            <Time>2021-08-03T16:29:37Z</Time>
            <Position>
              <LatitudeDegrees>40.969489</LatitudeDegrees>
              <LongitudeDegrees>-1.315098</LongitudeDegrees>
            </Position>
            <AltitudeMeters>859.991</AltitudeMeters>
            <DistanceMeters>563370.14955528</DistanceMeters>
          </Trackpoint>
          <Trackpoint>
            <Time>2021-08-03T16:29:39Z</Time>
            <Position>
              <LatitudeDegrees>40.969443</LatitudeDegrees>
              <LongitudeDegrees>-1.315098</LongitudeDegrees>
            </Position>
            <AltitudeMeters>859.942</AltitudeMeters>
            <DistanceMeters>563375.26954667</DistanceMeters>
          </Trackpoint>
          <Trackpoint>
            <Time>2021-08-03T16:29:41Z</Time>
            <Position>
              <LatitudeDegrees>40.969392</LatitudeDegrees>
              <LongitudeDegrees>-1.315094</LongitudeDegrees>
            </Position>
            <AltitudeMeters>859.964</AltitudeMeters>
            <DistanceMeters>563380.95687767</DistanceMeters>
          </Trackpoint>
          <Trackpoint>
            <Time>2021-08-03T16:29:43Z</Time>
            <Position>
              <LatitudeDegrees>40.969334</LatitudeDegrees>
              <LongitudeDegrees>-1.315086</LongitudeDegrees>
            </Position>
            <AltitudeMeters>859.906</AltitudeMeters>
            <DistanceMeters>563387.44727878</DistanceMeters>
          </Trackpoint>
          <Trackpoint>
            <Time>2021-08-03T16:29:45Z</Time>
            <Position>
              <LatitudeDegrees>40.969270</LatitudeDegrees>
              <LongitudeDegrees>-1.315079</LongitudeDegrees>
            </Position>
            <AltitudeMeters>859.816</AltitudeMeters>
            <DistanceMeters>563394.59515766</DistanceMeters>
          </Trackpoint>
          <Trackpoint>
            <Time>2021-08-03T16:29:47Z</Time>
            <Position>
              <LatitudeDegrees>40.969199</LatitudeDegrees>
              <LongitudeDegrees>-1.315076</LongitudeDegrees>
            </Position>
            <AltitudeMeters>859.508</AltitudeMeters>
            <DistanceMeters>563402.50124324</DistanceMeters>
          </Trackpoint>
          <Trackpoint>
            <Time>2021-08-03T16:29:49Z</Time>
            <Position>
              <LatitudeDegrees>40.969118</LatitudeDegrees>
              <LongitudeDegrees>-1.315067</LongitudeDegrees>
            </Position>
            <AltitudeMeters>859.273</AltitudeMeters>
            <DistanceMeters>563411.54826556</DistanceMeters>
          </Trackpoint>
          <Trackpoint>
            <Time>2021-08-03T16:29:51Z</Time>
            <Position>
              <LatitudeDegrees>40.969027</LatitudeDegrees>
              <LongitudeDegrees>-1.315050</LongitudeDegrees>
            </Position>
            <AltitudeMeters>859.245</AltitudeMeters>
            <DistanceMeters>563421.77721936</DistanceMeters>
          </Trackpoint>
          <Trackpoint>
            <Time>2021-08-03T16:29:53Z</Time>
            <Position>
              <LatitudeDegrees>40.968903</LatitudeDegrees>
              <LongitudeDegrees>-1.315004</LongitudeDegrees>
            </Position>
            <AltitudeMeters>859.575</AltitudeMeters>
            <DistanceMeters>563436.10956665</DistanceMeters>
          </Trackpoint>
          <Trackpoint>
            <Time>2021-08-03T16:29:55Z</Time>
            <Position>
              <LatitudeDegrees>40.968798</LatitudeDegrees>
              <LongitudeDegrees>-1.314949</LongitudeDegrees>
            </Position>
            <AltitudeMeters>859.658</AltitudeMeters>
            <DistanceMeters>563448.67718644</DistanceMeters>
          </Trackpoint>
          <Trackpoint>
            <Time>2021-08-03T16:29:57Z</Time>
            <Position>
              <LatitudeDegrees>40.968704</LatitudeDegrees>
              <LongitudeDegrees>-1.314895</LongitudeDegrees>
            </Position>
            <AltitudeMeters>859.776</AltitudeMeters>
            <DistanceMeters>563460.08118402</DistanceMeters>
          </Trackpoint>
          <Trackpoint>
            <Time>2021-08-03T16:29:59Z</Time>
            <Position>
              <LatitudeDegrees>40.968611</LatitudeDegrees>
              <LongitudeDegrees>-1.314841</LongitudeDegrees>
            </Position>
            <AltitudeMeters>859.731</AltitudeMeters>
            <DistanceMeters>563471.38337237</DistanceMeters>
          </Trackpoint>
          <Trackpoint>
            <Time>2021-08-03T16:30:01Z</Time>
            <Position>
              <LatitudeDegrees>40.968519</LatitudeDegrees>
              <LongitudeDegrees>-1.314783</LongitudeDegrees>
            </Position>
            <AltitudeMeters>859.746</AltitudeMeters>
            <DistanceMeters>563482.72384629</DistanceMeters>
          </Trackpoint>
          <Trackpoint>
            <Time>2021-08-03T16:30:02Z</Time>
            <Position>
              <LatitudeDegrees>40.968474</LatitudeDegrees>
              <LongitudeDegrees>-1.314757</LongitudeDegrees>
            </Position>
            <AltitudeMeters>859.797</AltitudeMeters>
            <DistanceMeters>563488.18767578</DistanceMeters>
          </Trackpoint>
          <Trackpoint>
            <Time>2021-08-03T16:30:03Z</Time>
            <Position>
              <LatitudeDegrees>40.968309</LatitudeDegrees>
              <LongitudeDegrees>-1.314675</LongitudeDegrees>
            </Position>
            <AltitudeMeters>859.749</AltitudeMeters>
            <DistanceMeters>563507.80281017</DistanceMeters>
          </Trackpoint>
          <Trackpoint>
            <Time>2021-08-03T16:30:05Z</Time>
            <Position>
              <LatitudeDegrees>40.968210</LatitudeDegrees>
              <LongitudeDegrees>-1.314629</LongitudeDegrees>
            </Position>
            <AltitudeMeters>859.702</AltitudeMeters>
            <DistanceMeters>563519.48027498</DistanceMeters>
          </Trackpoint>
          <Trackpoint>
            <Time>2021-08-03T16:30:06Z</Time>
            <Position>
              <LatitudeDegrees>40.968164</LatitudeDegrees>
              <LongitudeDegrees>-1.314613</LongitudeDegrees>
            </Position>
            <AltitudeMeters>859.722</AltitudeMeters>
            <DistanceMeters>563524.77369799</DistanceMeters>
          </Trackpoint>
          <Trackpoint>
            <Time>2021-08-03T16:30:08Z</Time>
            <Position>
              <LatitudeDegrees>40.968098</LatitudeDegrees>
              <LongitudeDegrees>-1.314592</LongitudeDegrees>
            </Position>
            <AltitudeMeters>859.608</AltitudeMeters>
            <DistanceMeters>563532.3293676</DistanceMeters>
          </Trackpoint>
          <Trackpoint>
            <Time>2021-08-03T16:30:09Z</Time>
            <Position>
              <LatitudeDegrees>40.968050</LatitudeDegrees>
              <LongitudeDegrees>-1.314576</LongitudeDegrees>
            </Position>
            <AltitudeMeters>859.671</AltitudeMeters>
            <DistanceMeters>563537.8392784</DistanceMeters>
          </Trackpoint>
          <Trackpoint>
            <Time>2021-08-03T16:30:10Z</Time>
            <Position>
              <LatitudeDegrees>40.968003</LatitudeDegrees>
              <LongitudeDegrees>-1.314560</LongitudeDegrees>
            </Position>
            <AltitudeMeters>859.693</AltitudeMeters>
            <DistanceMeters>563543.23994011</DistanceMeters>
          </Trackpoint>
          <Trackpoint>
            <Time>2021-08-03T16:30:12Z</Time>
            <Position>
              <LatitudeDegrees>40.967919</LatitudeDegrees>
              <LongitudeDegrees>-1.314529</LongitudeDegrees>
            </Position>
            <AltitudeMeters>859.613</AltitudeMeters>
            <DistanceMeters>563552.94523389</DistanceMeters>
          </Trackpoint>
          <Trackpoint>
            <Time>2021-08-03T16:30:14Z</Time>
            <Position>
              <LatitudeDegrees>40.967831</LatitudeDegrees>
              <LongitudeDegrees>-1.314512</LongitudeDegrees>
            </Position>
            <AltitudeMeters>859.886</AltitudeMeters>
            <DistanceMeters>563562.84353321</DistanceMeters>
          </Trackpoint>
          <Trackpoint>
            <Time>2021-08-03T16:30:16Z</Time>
            <Position>
              <LatitudeDegrees>40.967747</LatitudeDegrees>
              <LongitudeDegrees>-1.314508</LongitudeDegrees>
            </Position>
            <AltitudeMeters>859.934</AltitudeMeters>
            <DistanceMeters>563572.1992016</DistanceMeters>
          </Trackpoint>
          <Trackpoint>
            <Time>2021-08-03T16:30:18Z</Time>
            <Position>
              <LatitudeDegrees>40.967674</LatitudeDegrees>
              <LongitudeDegrees>-1.314522</LongitudeDegrees>
            </Position>
            <AltitudeMeters>860.189</AltitudeMeters>
            <DistanceMeters>563580.40898178</DistanceMeters>
          </Trackpoint>
          <Trackpoint>
            <Time>2021-08-03T16:30:20Z</Time>
            <Position>
              <LatitudeDegrees>40.967578</LatitudeDegrees>
              <LongitudeDegrees>-1.314516</LongitudeDegrees>
            </Position>
            <AltitudeMeters>860.334</AltitudeMeters>
            <DistanceMeters>563591.10613695</DistanceMeters>
          </Trackpoint>
          <Trackpoint>
            <Time>2021-08-03T16:30:22Z</Time>
            <Position>
              <LatitudeDegrees>40.967492</LatitudeDegrees>
              <LongitudeDegrees>-1.314496</LongitudeDegrees>
            </Position>
            <AltitudeMeters>860.335</AltitudeMeters>
            <DistanceMeters>563600.82491257</DistanceMeters>
          </Trackpoint>
          <Trackpoint>
            <Time>2021-08-03T16:30:24Z</Time>
            <Position>
              <LatitudeDegrees>40.967448</LatitudeDegrees>
              <LongitudeDegrees>-1.314467</LongitudeDegrees>
            </Position>
            <AltitudeMeters>860.813</AltitudeMeters>
            <DistanceMeters>563606.29534887</DistanceMeters>
          </Trackpoint>
          <Trackpoint>
            <Time>2021-08-03T16:30:26Z</Time>
            <Position>
              <LatitudeDegrees>40.967395</LatitudeDegrees>
              <LongitudeDegrees>-1.314412</LongitudeDegrees>
            </Position>
            <AltitudeMeters>861.343</AltitudeMeters>
            <DistanceMeters>563613.78921606</DistanceMeters>
          </Trackpoint>
          <Trackpoint>
            <Time>2021-08-03T16:30:28Z</Time>
            <Position>
              <LatitudeDegrees>40.967336</LatitudeDegrees>
              <LongitudeDegrees>-1.314347</LongitudeDegrees>
            </Position>
            <AltitudeMeters>862.207</AltitudeMeters>
            <DistanceMeters>563622.33052671</DistanceMeters>
          </Trackpoint>
          <Trackpoint>
            <Time>2021-08-03T16:30:30Z</Time>
            <Position>
              <LatitudeDegrees>40.967275</LatitudeDegrees>
              <LongitudeDegrees>-1.314301</LongitudeDegrees>
            </Position>
            <AltitudeMeters>862.808</AltitudeMeters>
            <DistanceMeters>563630.14297106</DistanceMeters>
          </Trackpoint>
          <Trackpoint>
            <Time>2021-08-03T16:30:32Z</Time>
            <Position>
              <LatitudeDegrees>40.967215</LatitudeDegrees>
              <LongitudeDegrees>-1.314267</LongitudeDegrees>
            </Position>
            <AltitudeMeters>863.528</AltitudeMeters>
            <DistanceMeters>563637.40614575</DistanceMeters>
          </Trackpoint>
          <Trackpoint>
            <Time>2021-08-03T16:30:34Z</Time>
            <Position>
              <LatitudeDegrees>40.967155</LatitudeDegrees>
              <LongitudeDegrees>-1.314239</LongitudeDegrees>
            </Position>
            <AltitudeMeters>864.030</AltitudeMeters>
            <DistanceMeters>563644.48547652</DistanceMeters>
          </Trackpoint>
          <Trackpoint>
            <Time>2021-08-03T16:30:36Z</Time>
            <Position>
              <LatitudeDegrees>40.967105</LatitudeDegrees>
              <LongitudeDegrees>-1.314206</LongitudeDegrees>
            </Position>
            <AltitudeMeters>864.510</AltitudeMeters>
            <DistanceMeters>563650.70373893</DistanceMeters>
          </Trackpoint>
          <Trackpoint>
            <Time>2021-08-03T16:30:38Z</Time>
            <Position>
              <LatitudeDegrees>40.967062</LatitudeDegrees>
              <LongitudeDegrees>-1.314160</LongitudeDegrees>
            </Position>
            <AltitudeMeters>865.073</AltitudeMeters>
            <DistanceMeters>563656.85630591</DistanceMeters>
          </Trackpoint>
          <Trackpoint>
            <Time>2021-08-03T16:30:40Z</Time>
            <Position>
              <LatitudeDegrees>40.967012</LatitudeDegrees>
              <LongitudeDegrees>-1.314113</LongitudeDegrees>
            </Position>
            <AltitudeMeters>865.271</AltitudeMeters>
            <DistanceMeters>563663.68038857</DistanceMeters>
          </Trackpoint>
          <Trackpoint>
            <Time>2021-08-03T16:30:42Z</Time>
            <Position>
              <LatitudeDegrees>40.966938</LatitudeDegrees>
              <LongitudeDegrees>-1.314079</LongitudeDegrees>
            </Position>
            <AltitudeMeters>865.696</AltitudeMeters>
            <DistanceMeters>563672.39853938</DistanceMeters>
          </Trackpoint>
          <Trackpoint>
            <Time>2021-08-03T16:30:44Z</Time>
            <Position>
              <LatitudeDegrees>40.966858</LatitudeDegrees>
              <LongitudeDegrees>-1.314063</LongitudeDegrees>
            </Position>
            <AltitudeMeters>865.761</AltitudeMeters>
            <DistanceMeters>563681.40354279</DistanceMeters>
          </Trackpoint>
          <Trackpoint>
            <Time>2021-08-03T16:30:46Z</Time>
            <Position>
              <LatitudeDegrees>40.966780</LatitudeDegrees>
              <LongitudeDegrees>-1.314063</LongitudeDegrees>
            </Position>
            <AltitudeMeters>865.862</AltitudeMeters>
            <DistanceMeters>563690.08484557</DistanceMeters>
          </Trackpoint>
          <Trackpoint>
            <Time>2021-08-03T16:30:49Z</Time>
            <Position>
              <LatitudeDegrees>40.966717</LatitudeDegrees>
              <LongitudeDegrees>-1.314095</LongitudeDegrees>
            </Position>
            <AltitudeMeters>865.961</AltitudeMeters>
            <DistanceMeters>563697.59496258</DistanceMeters>
          </Trackpoint>
          <Trackpoint>
            <Time>2021-08-03T16:30:51Z</Time>
            <Position>
              <LatitudeDegrees>40.966671</LatitudeDegrees>
              <LongitudeDegrees>-1.314132</LongitudeDegrees>
            </Position>
            <AltitudeMeters>866.021</AltitudeMeters>
            <DistanceMeters>563703.5854153</DistanceMeters>
          </Trackpoint>
          <Trackpoint>
            <Time>2021-08-03T16:30:53Z</Time>
            <Position>
              <LatitudeDegrees>40.966619</LatitudeDegrees>
              <LongitudeDegrees>-1.314166</LongitudeDegrees>
            </Position>
            <AltitudeMeters>866.013</AltitudeMeters>
            <DistanceMeters>563710.03954132</DistanceMeters>
          </Trackpoint>
          <Trackpoint>
            <Time>2021-08-03T16:30:55Z</Time>
            <Position>
              <LatitudeDegrees>40.966574</LatitudeDegrees>
              <LongitudeDegrees>-1.314189</LongitudeDegrees>
            </Position>
            <AltitudeMeters>866.308</AltitudeMeters>
            <DistanceMeters>563715.40834044</DistanceMeters>
          </Trackpoint>
          <Trackpoint>
            <Time>2021-08-03T16:30:57Z</Time>
            <Position>
              <LatitudeDegrees>40.966525</LatitudeDegrees>
              <LongitudeDegrees>-1.314203</LongitudeDegrees>
            </Position>
            <AltitudeMeters>866.523</AltitudeMeters>
            <DistanceMeters>563720.98665949</DistanceMeters>
          </Trackpoint>
          <Trackpoint>
            <Time>2021-08-03T16:30:59Z</Time>
            <Position>
              <LatitudeDegrees>40.966467</LatitudeDegrees>
              <LongitudeDegrees>-1.314209</LongitudeDegrees>
            </Position>
            <AltitudeMeters>866.565</AltitudeMeters>
            <DistanceMeters>563727.46104091</DistanceMeters>
          </Trackpoint>
          <Trackpoint>
            <Time>2021-08-03T16:31:01Z</Time>
            <Position>
              <LatitudeDegrees>40.966406</LatitudeDegrees>
              <LongitudeDegrees>-1.314205</LongitudeDegrees>
            </Position>
            <AltitudeMeters>866.655</AltitudeMeters>
            <DistanceMeters>563734.25927092</DistanceMeters>
          </Trackpoint>
          <Trackpoint>
            <Time>2021-08-03T16:31:02Z</Time>
            <Position>
              <LatitudeDegrees>40.966357</LatitudeDegrees>
              <LongitudeDegrees>-1.314193</LongitudeDegrees>
            </Position>
            <AltitudeMeters>866.688</AltitudeMeters>
            <DistanceMeters>563739.80674787</DistanceMeters>
          </Trackpoint>
          <Trackpoint>
            <Time>2021-08-03T16:31:03Z</Time>
            <Position>
              <LatitudeDegrees>40.966300</LatitudeDegrees>
              <LongitudeDegrees>-1.314174</LongitudeDegrees>
            </Position>
            <AltitudeMeters>866.776</AltitudeMeters>
            <DistanceMeters>563746.3491146</DistanceMeters>
          </Trackpoint>
          <Trackpoint>
            <Time>2021-08-03T16:31:05Z</Time>
            <Position>
              <LatitudeDegrees>40.966198</LatitudeDegrees>
              <LongitudeDegrees>-1.314129</LongitudeDegrees>
            </Position>
            <AltitudeMeters>866.871</AltitudeMeters>
            <DistanceMeters>563758.31531375</DistanceMeters>
          </Trackpoint>
          <Trackpoint>
            <Time>2021-08-03T16:31:07Z</Time>
            <Position>
              <LatitudeDegrees>40.966090</LatitudeDegrees>
              <LongitudeDegrees>-1.314081</LongitudeDegrees>
            </Position>
            <AltitudeMeters>866.786</AltitudeMeters>
            <DistanceMeters>563770.99452709</DistanceMeters>
          </Trackpoint>
          <Trackpoint>
            <Time>2021-08-03T16:31:08Z</Time>
            <Position>
              <LatitudeDegrees>40.966042</LatitudeDegrees>
              <LongitudeDegrees>-1.314057</LongitudeDegrees>
            </Position>
            <AltitudeMeters>866.667</AltitudeMeters>
            <DistanceMeters>563776.70483409</DistanceMeters>
          </Trackpoint>
          <Trackpoint>
            <Time>2021-08-03T16:31:09Z</Time>
            <Position>
              <LatitudeDegrees>40.965995</LatitudeDegrees>
              <LongitudeDegrees>-1.314033</LongitudeDegrees>
            </Position>
            <AltitudeMeters>866.582</AltitudeMeters>
            <DistanceMeters>563782.31141024</DistanceMeters>
          </Trackpoint>
          <Trackpoint>
            <Time>2021-08-03T16:31:11Z</Time>
            <Position>
              <LatitudeDegrees>40.965917</LatitudeDegrees>
              <LongitudeDegrees>-1.313985</LongitudeDegrees>
            </Position>
            <AltitudeMeters>866.443</AltitudeMeters>
            <DistanceMeters>563791.88414317</DistanceMeters>
          </Trackpoint>
          <Trackpoint>
            <Time>2021-08-03T16:31:13Z</Time>
            <Position>
              <LatitudeDegrees>40.965861</LatitudeDegrees>
              <LongitudeDegrees>-1.313947</LongitudeDegrees>
            </Position>
            <AltitudeMeters>866.217</AltitudeMeters>
            <DistanceMeters>563798.88781187</DistanceMeters>
          </Trackpoint>
          <Trackpoint>
            <Time>2021-08-03T16:31:15Z</Time>
            <Position>
              <LatitudeDegrees>40.965776</LatitudeDegrees>
              <LongitudeDegrees>-1.313904</LongitudeDegrees>
            </Position>
            <AltitudeMeters>865.908</AltitudeMeters>
            <DistanceMeters>563809.01562695</DistanceMeters>
          </Trackpoint>
          <Trackpoint>
            <Time>2021-08-03T16:31:17Z</Time>
            <Position>
              <LatitudeDegrees>40.965688</LatitudeDegrees>
              <LongitudeDegrees>-1.313870</LongitudeDegrees>
            </Position>
            <AltitudeMeters>865.935</AltitudeMeters>
            <DistanceMeters>563819.2180625</DistanceMeters>
          </Trackpoint>
          <Trackpoint>
            <Time>2021-08-03T16:31:19Z</Time>
            <Position>
              <LatitudeDegrees>40.965596</LatitudeDegrees>
              <LongitudeDegrees>-1.313848</LongitudeDegrees>
            </Position>
            <AltitudeMeters>865.847</AltitudeMeters>
            <DistanceMeters>563829.62294532</DistanceMeters>
          </Trackpoint>
          <Trackpoint>
            <Time>2021-08-03T16:31:20Z</Time>
            <Position>
              <LatitudeDegrees>40.965549</LatitudeDegrees>
              <LongitudeDegrees>-1.313833</LongitudeDegrees>
            </Position>
            <AltitudeMeters>865.827</AltitudeMeters>
            <DistanceMeters>563835.00350524</DistanceMeters>
          </Trackpoint>
          <Trackpoint>
            <Time>2021-08-03T16:31:21Z</Time>
            <Position>
              <LatitudeDegrees>40.965502</LatitudeDegrees>
              <LongitudeDegrees>-1.313814</LongitudeDegrees>
            </Position>
            <AltitudeMeters>865.850</AltitudeMeters>
            <DistanceMeters>563840.47311613</DistanceMeters>
          </Trackpoint>
          <Trackpoint>
            <Time>2021-08-03T16:31:23Z</Time>
            <Position>
              <LatitudeDegrees>40.965424</LatitudeDegrees>
              <LongitudeDegrees>-1.313755</LongitudeDegrees>
            </Position>
            <AltitudeMeters>865.918</AltitudeMeters>
            <DistanceMeters>563850.47126327</DistanceMeters>
          </Trackpoint>
          <Trackpoint>
            <Time>2021-08-03T16:31:25Z</Time>
            <Position>
              <LatitudeDegrees>40.965341</LatitudeDegrees>
              <LongitudeDegrees>-1.313681</LongitudeDegrees>
            </Position>
            <AltitudeMeters>866.153</AltitudeMeters>
            <DistanceMeters>563861.60764823</DistanceMeters>
          </Trackpoint>
          <Trackpoint>
            <Time>2021-08-03T16:31:26Z</Time>
            <Position>
              <LatitudeDegrees>40.965301</LatitudeDegrees>
              <LongitudeDegrees>-1.313648</LongitudeDegrees>
            </Position>
            <AltitudeMeters>866.148</AltitudeMeters>
            <DistanceMeters>563866.85308843</DistanceMeters>
          </Trackpoint>
          <Trackpoint>
            <Time>2021-08-03T16:31:27Z</Time>
            <Position>
              <LatitudeDegrees>40.965261</LatitudeDegrees>
              <LongitudeDegrees>-1.313604</LongitudeDegrees>
            </Position>
            <AltitudeMeters>866.269</AltitudeMeters>
            <DistanceMeters>563872.64114368</DistanceMeters>
          </Trackpoint>
          <Trackpoint>
            <Time>2021-08-03T16:31:29Z</Time>
            <Position>
              <LatitudeDegrees>40.965196</LatitudeDegrees>
              <LongitudeDegrees>-1.313519</LongitudeDegrees>
            </Position>
            <AltitudeMeters>866.293</AltitudeMeters>
            <DistanceMeters>563882.80855806</DistanceMeters>
          </Trackpoint>
          <Trackpoint>
            <Time>2021-08-03T16:31:30Z</Time>
            <Position>
              <LatitudeDegrees>40.965165</LatitudeDegrees>
              <LongitudeDegrees>-1.313473</LongitudeDegrees>
            </Position>
            <AltitudeMeters>866.265</AltitudeMeters>
            <DistanceMeters>563887.9899109</DistanceMeters>
          </Trackpoint>
          <Trackpoint>
            <Time>2021-08-03T16:31:31Z</Time>
            <Position>
              <LatitudeDegrees>40.965131</LatitudeDegrees>
              <LongitudeDegrees>-1.313428</LongitudeDegrees>
            </Position>
            <AltitudeMeters>866.121</AltitudeMeters>
            <DistanceMeters>563893.34017653</DistanceMeters>
          </Trackpoint>
          <Trackpoint>
            <Time>2021-08-03T16:31:33Z</Time>
            <Position>
              <LatitudeDegrees>40.965058</LatitudeDegrees>
              <LongitudeDegrees>-1.313340</LongitudeDegrees>
            </Position>
            <AltitudeMeters>866.008</AltitudeMeters>
            <DistanceMeters>563904.32799352</DistanceMeters>
          </Trackpoint>
          <Trackpoint>
            <Time>2021-08-03T16:31:34Z</Time>
            <Position>
              <LatitudeDegrees>40.965013</LatitudeDegrees>
              <LongitudeDegrees>-1.313300</LongitudeDegrees>
            </Position>
            <AltitudeMeters>866.046</AltitudeMeters>
            <DistanceMeters>563910.3605061</DistanceMeters>
          </Trackpoint>
          <Trackpoint>
            <Time>2021-08-03T16:31:35Z</Time>
            <Position>
              <LatitudeDegrees>40.964970</LatitudeDegrees>
              <LongitudeDegrees>-1.313260</LongitudeDegrees>
            </Position>
            <AltitudeMeters>866.098</AltitudeMeters>
            <DistanceMeters>563916.20986159</DistanceMeters>
          </Trackpoint>
          <Trackpoint>
            <Time>2021-08-03T16:31:36Z</Time>
            <Position>
              <LatitudeDegrees>40.964923</LatitudeDegrees>
              <LongitudeDegrees>-1.313232</LongitudeDegrees>
            </Position>
            <AltitudeMeters>865.968</AltitudeMeters>
            <DistanceMeters>563921.94620176</DistanceMeters>
          </Trackpoint>
          <Trackpoint>
            <Time>2021-08-03T16:31:37Z</Time>
            <Position>
              <LatitudeDegrees>40.964877</LatitudeDegrees>
              <LongitudeDegrees>-1.313207</LongitudeDegrees>
            </Position>
            <AltitudeMeters>865.731</AltitudeMeters>
            <DistanceMeters>563927.48064114</DistanceMeters>
          </Trackpoint>
          <Trackpoint>
            <Time>2021-08-03T16:31:38Z</Time>
            <Position>
              <LatitudeDegrees>40.964830</LatitudeDegrees>
              <LongitudeDegrees>-1.313183</LongitudeDegrees>
            </Position>
            <AltitudeMeters>865.329</AltitudeMeters>
            <DistanceMeters>563933.08641192</DistanceMeters>
          </Trackpoint>
          <Trackpoint>
            <Time>2021-08-03T16:31:39Z</Time>
            <Position>
              <LatitudeDegrees>40.964778</LatitudeDegrees>
              <LongitudeDegrees>-1.313159</LongitudeDegrees>
            </Position>
            <AltitudeMeters>865.084</AltitudeMeters>
            <DistanceMeters>563939.21545084</DistanceMeters>
          </Trackpoint>
          <Trackpoint>
            <Time>2021-08-03T16:31:40Z</Time>
            <Position>
              <LatitudeDegrees>40.964723</LatitudeDegrees>
              <LongitudeDegrees>-1.313138</LongitudeDegrees>
            </Position>
            <AltitudeMeters>864.859</AltitudeMeters>
            <DistanceMeters>563945.58720285</DistanceMeters>
          </Trackpoint>
          <Trackpoint>
            <Time>2021-08-03T16:31:41Z</Time>
            <Position>
              <LatitudeDegrees>40.964671</LatitudeDegrees>
              <LongitudeDegrees>-1.313121</LongitudeDegrees>
            </Position>
            <AltitudeMeters>864.740</AltitudeMeters>
            <DistanceMeters>563951.54894596</DistanceMeters>
          </Trackpoint>
          <Trackpoint>
            <Time>2021-08-03T16:31:43Z</Time>
            <Position>
              <LatitudeDegrees>40.964563</LatitudeDegrees>
              <LongitudeDegrees>-1.313097</LongitudeDegrees>
            </Position>
            <AltitudeMeters>864.349</AltitudeMeters>
            <DistanceMeters>563963.73683985</DistanceMeters>
          </Trackpoint>
          <Trackpoint>
            <Time>2021-08-03T16:31:44Z</Time>
            <Position>
              <LatitudeDegrees>40.964513</LatitudeDegrees>
              <LongitudeDegrees>-1.313094</LongitudeDegrees>
            </Position>
            <AltitudeMeters>864.302</AltitudeMeters>
            <DistanceMeters>563969.30868001</DistanceMeters>
          </Trackpoint>
          <Trackpoint>
            <Time>2021-08-03T16:31:45Z</Time>
            <Position>
              <LatitudeDegrees>40.964459</LatitudeDegrees>
              <LongitudeDegrees>-1.313089</LongitudeDegrees>
            </Position>
            <AltitudeMeters>864.322</AltitudeMeters>
            <DistanceMeters>563975.33370344</DistanceMeters>
          </Trackpoint>
          <Trackpoint>
            <Time>2021-08-03T16:31:46Z</Time>
            <Position>
              <LatitudeDegrees>40.964407</LatitudeDegrees>
              <LongitudeDegrees>-1.313082</LongitudeDegrees>
            </Position>
            <AltitudeMeters>864.308</AltitudeMeters>
            <DistanceMeters>563981.1497731</DistanceMeters>
          </Trackpoint>
          <Trackpoint>
            <Time>2021-08-03T16:31:47Z</Time>
            <Position>
              <LatitudeDegrees>40.964355</LatitudeDegrees>
              <LongitudeDegrees>-1.313074</LongitudeDegrees>
            </Position>
            <AltitudeMeters>864.341</AltitudeMeters>
            <DistanceMeters>563986.97670089</DistanceMeters>
          </Trackpoint>
          <Trackpoint>
            <Time>2021-08-03T16:31:49Z</Time>
            <Position>
              <LatitudeDegrees>40.964243</LatitudeDegrees>
              <LongitudeDegrees>-1.313050</LongitudeDegrees>
            </Position>
            <AltitudeMeters>864.393</AltitudeMeters>
            <DistanceMeters>563999.60453206</DistanceMeters>
          </Trackpoint>
          <Trackpoint>
            <Time>2021-08-03T16:31:50Z</Time>
            <Position>
              <LatitudeDegrees>40.964191</LatitudeDegrees>
              <LongitudeDegrees>-1.313039</LongitudeDegrees>
            </Position>
            <AltitudeMeters>863.973</AltitudeMeters>
            <DistanceMeters>564005.46545441</DistanceMeters>
          </Trackpoint>
          <Trackpoint>
            <Time>2021-08-03T16:31:52Z</Time>
            <Position>
              <LatitudeDegrees>40.964075</LatitudeDegrees>
              <LongitudeDegrees>-1.313016</LongitudeDegrees>
            </Position>
            <AltitudeMeters>863.966</AltitudeMeters>
            <DistanceMeters>564018.52047883</DistanceMeters>
          </Trackpoint>
          <Trackpoint>
            <Time>2021-08-03T16:31:54Z</Time>
            <Position>
              <LatitudeDegrees>40.963975</LatitudeDegrees>
              <LongitudeDegrees>-1.312989</LongitudeDegrees>
            </Position>
            <AltitudeMeters>864.024</AltitudeMeters>
            <DistanceMeters>564029.87964968</DistanceMeters>
          </Trackpoint>
          <Trackpoint>
            <Time>2021-08-03T16:31:56Z</Time>
            <Position>
              <LatitudeDegrees>40.963873</LatitudeDegrees>
              <LongitudeDegrees>-1.312962</LongitudeDegrees>
            </Position>
            <AltitudeMeters>864.089</AltitudeMeters>
            <DistanceMeters>564041.4573202</DistanceMeters>
          </Trackpoint>
          <Trackpoint>
            <Time>2021-08-03T16:31:58Z</Time>
            <Position>
              <LatitudeDegrees>40.963774</LatitudeDegrees>
              <LongitudeDegrees>-1.312936</LongitudeDegrees>
            </Position>
            <AltitudeMeters>864.034</AltitudeMeters>
            <DistanceMeters>564052.69098916</DistanceMeters>
          </Trackpoint>
          <Trackpoint>
            <Time>2021-08-03T16:32:00Z</Time>
            <Position>
              <LatitudeDegrees>40.963680</LatitudeDegrees>
              <LongitudeDegrees>-1.312912</LongitudeDegrees>
            </Position>
            <AltitudeMeters>863.995</AltitudeMeters>
            <DistanceMeters>564063.34585289</DistanceMeters>
          </Trackpoint>
          <Trackpoint>
            <Time>2021-08-03T16:32:01Z</Time>
            <Position>
              <LatitudeDegrees>40.963629</LatitudeDegrees>
              <LongitudeDegrees>-1.312905</LongitudeDegrees>
            </Position>
            <AltitudeMeters>863.973</AltitudeMeters>
            <DistanceMeters>564069.05378735</DistanceMeters>
          </Trackpoint>
          <Trackpoint>
            <Time>2021-08-03T16:32:03Z</Time>
            <Position>
              <LatitudeDegrees>40.963531</LatitudeDegrees>
              <LongitudeDegrees>-1.312880</LongitudeDegrees>
            </Position>
            <AltitudeMeters>863.985</AltitudeMeters>
            <DistanceMeters>564080.16216233</DistanceMeters>
          </Trackpoint>
          <Trackpoint>
            <Time>2021-08-03T16:32:04Z</Time>
            <Position>
              <LatitudeDegrees>40.963482</LatitudeDegrees>
              <LongitudeDegrees>-1.312863</LongitudeDegrees>
            </Position>
            <AltitudeMeters>863.913</AltitudeMeters>
            <DistanceMeters>564085.80005813</DistanceMeters>
          </Trackpoint>
          <Trackpoint>
            <Time>2021-08-03T16:32:06Z</Time>
            <Position>
              <LatitudeDegrees>40.963381</LatitudeDegrees>
              <LongitudeDegrees>-1.312835</LongitudeDegrees>
            </Position>
            <AltitudeMeters>863.908</AltitudeMeters>
            <DistanceMeters>564097.28571818</DistanceMeters>
          </Trackpoint>
          <Trackpoint>
            <Time>2021-08-03T16:32:07Z</Time>
            <Position>
              <LatitudeDegrees>40.963336</LatitudeDegrees>
              <LongitudeDegrees>-1.312827</LongitudeDegrees>
            </Position>
            <AltitudeMeters>863.914</AltitudeMeters>
            <DistanceMeters>564102.33913842</DistanceMeters>
          </Trackpoint>
          <Trackpoint>
            <Time>2021-08-03T16:32:09Z</Time>
            <Position>
              <LatitudeDegrees>40.963252</LatitudeDegrees>
              <LongitudeDegrees>-1.312803</LongitudeDegrees>
            </Position>
            <AltitudeMeters>863.986</AltitudeMeters>
            <DistanceMeters>564111.90337778</DistanceMeters>
          </Trackpoint>
          <Trackpoint>
            <Time>2021-08-03T16:32:10Z</Time>
            <Position>
              <LatitudeDegrees>40.963208</LatitudeDegrees>
              <LongitudeDegrees>-1.312791</LongitudeDegrees>
            </Position>
            <AltitudeMeters>863.966</AltitudeMeters>
            <DistanceMeters>564116.90290291</DistanceMeters>
          </Trackpoint>
          <Trackpoint>
            <Time>2021-08-03T16:32:12Z</Time>
            <Position>
              <LatitudeDegrees>40.963121</LatitudeDegrees>
              <LongitudeDegrees>-1.312765</LongitudeDegrees>
            </Position>
            <AltitudeMeters>864.169</AltitudeMeters>
            <DistanceMeters>564126.8294428</DistanceMeters>
          </Trackpoint>
          <Trackpoint>
            <Time>2021-08-03T16:32:14Z</Time>
            <Position>
              <LatitudeDegrees>40.963030</LatitudeDegrees>
              <LongitudeDegrees>-1.312737</LongitudeDegrees>
            </Position>
            <AltitudeMeters>864.287</AltitudeMeters>
            <DistanceMeters>564137.22781457</DistanceMeters>
          </Trackpoint>
          <Trackpoint>
            <Time>2021-08-03T16:32:16Z</Time>
            <Position>
              <LatitudeDegrees>40.962978</LatitudeDegrees>
              <LongitudeDegrees>-1.312720</LongitudeDegrees>
            </Position>
            <AltitudeMeters>864.322</AltitudeMeters>
            <DistanceMeters>564143.18880029</DistanceMeters>
          </Trackpoint>
          <Trackpoint>
            <Time>2021-08-03T16:32:18Z</Time>
            <Position>
              <LatitudeDegrees>40.962881</LatitudeDegrees>
              <LongitudeDegrees>-1.312688</LongitudeDegrees>
            </Position>
            <AltitudeMeters>864.477</AltitudeMeters>
            <DistanceMeters>564154.31463904</DistanceMeters>
          </Trackpoint>
          <Trackpoint>
            <Time>2021-08-03T16:32:20Z</Time>
            <Position>
              <LatitudeDegrees>40.962749</LatitudeDegrees>
              <LongitudeDegrees>-1.312637</LongitudeDegrees>
            </Position>
            <AltitudeMeters>864.588</AltitudeMeters>
            <DistanceMeters>564169.61925118</DistanceMeters>
          </Trackpoint>
          <Trackpoint>
            <Time>2021-08-03T16:32:22Z</Time>
            <Position>
              <LatitudeDegrees>40.962659</LatitudeDegrees>
              <LongitudeDegrees>-1.312613</LongitudeDegrees>
            </Position>
            <AltitudeMeters>864.624</AltitudeMeters>
            <DistanceMeters>564179.83716408</DistanceMeters>
          </Trackpoint>
          <Trackpoint>
            <Time>2021-08-03T16:32:24Z</Time>
            <Position>
              <LatitudeDegrees>40.962578</LatitudeDegrees>
              <LongitudeDegrees>-1.312605</LongitudeDegrees>
            </Position>
            <AltitudeMeters>864.604</AltitudeMeters>
            <DistanceMeters>564188.87719681</DistanceMeters>
          </Trackpoint>
          <Trackpoint>
            <Time>2021-08-03T16:32:26Z</Time>
            <Position>
              <LatitudeDegrees>40.962485</LatitudeDegrees>
              <LongitudeDegrees>-1.312619</LongitudeDegrees>
            </Position>
            <AltitudeMeters>864.514</AltitudeMeters>
            <DistanceMeters>564199.29465613</DistanceMeters>
          </Trackpoint>
          <Trackpoint>
            <Time>2021-08-03T16:32:28Z</Time>
            <Position>
              <LatitudeDegrees>40.962418</LatitudeDegrees>
              <LongitudeDegrees>-1.312643</LongitudeDegrees>
            </Position>
            <AltitudeMeters>864.508</AltitudeMeters>
            <DistanceMeters>564207.01934027</DistanceMeters>
          </Trackpoint>
          <Trackpoint>
            <Time>2021-08-03T16:32:31Z</Time>
            <Position>
              <LatitudeDegrees>40.962355</LatitudeDegrees>
              <LongitudeDegrees>-1.312671</LongitudeDegrees>
            </Position>
            <AltitudeMeters>864.269</AltitudeMeters>
            <DistanceMeters>564214.41556925</DistanceMeters>
          </Trackpoint>
          <Trackpoint>
            <Time>2021-08-03T16:32:33Z</Time>
            <Position>
              <LatitudeDegrees>40.962207</LatitudeDegrees>
              <LongitudeDegrees>-1.312776</LongitudeDegrees>
            </Position>
            <AltitudeMeters>864.041</AltitudeMeters>
            <DistanceMeters>564233.10348531</DistanceMeters>
          </Trackpoint>
          <Trackpoint>
            <Time>2021-08-03T16:32:35Z</Time>
            <Position>
              <LatitudeDegrees>40.962121</LatitudeDegrees>
              <LongitudeDegrees>-1.312822</LongitudeDegrees>
            </Position>
            <AltitudeMeters>864.171</AltitudeMeters>
            <DistanceMeters>564243.42646608</DistanceMeters>
          </Trackpoint>
          <Trackpoint>
            <Time>2021-08-03T16:32:36Z</Time>
            <Position>
              <LatitudeDegrees>40.962077</LatitudeDegrees>
              <LongitudeDegrees>-1.312840</LongitudeDegrees>
            </Position>
            <AltitudeMeters>864.044</AltitudeMeters>
            <DistanceMeters>564248.55174582</DistanceMeters>
          </Trackpoint>
          <Trackpoint>
            <Time>2021-08-03T16:32:38Z</Time>
            <Position>
              <LatitudeDegrees>40.962008</LatitudeDegrees>
              <LongitudeDegrees>-1.312864</LongitudeDegrees>
            </Position>
            <AltitudeMeters>864.522</AltitudeMeters>
            <DistanceMeters>564256.4920225</DistanceMeters>
          </Trackpoint>
          <Trackpoint>
            <Time>2021-08-03T16:32:40Z</Time>
            <Position>
              <LatitudeDegrees>40.961964</LatitudeDegrees>
              <LongitudeDegrees>-1.312890</LongitudeDegrees>
            </Position>
            <AltitudeMeters>864.647</AltitudeMeters>
            <DistanceMeters>564261.85408958</DistanceMeters>
          </Trackpoint>
          <Trackpoint>
            <Time>2021-08-03T16:32:41Z</Time>
            <Position>
              <LatitudeDegrees>40.961913</LatitudeDegrees>
              <LongitudeDegrees>-1.312917</LongitudeDegrees>
            </Position>
            <AltitudeMeters>864.772</AltitudeMeters>
            <DistanceMeters>564267.96690042</DistanceMeters>
          </Trackpoint>
          <Trackpoint>
            <Time>2021-08-03T16:32:43Z</Time>
            <Position>
              <LatitudeDegrees>40.961825</LatitudeDegrees>
              <LongitudeDegrees>-1.312964</LongitudeDegrees>
            </Position>
            <AltitudeMeters>865.163</AltitudeMeters>
            <DistanceMeters>564278.52812687</DistanceMeters>
          </Trackpoint>
          <Trackpoint>
            <Time>2021-08-03T16:32:44Z</Time>
            <Position>
              <LatitudeDegrees>40.961782</LatitudeDegrees>
              <LongitudeDegrees>-1.312988</LongitudeDegrees>
            </Position>
            <AltitudeMeters>865.296</AltitudeMeters>
            <DistanceMeters>564283.72079558</DistanceMeters>
          </Trackpoint>
          <Trackpoint>
            <Time>2021-08-03T16:32:46Z</Time>
            <Position>
              <LatitudeDegrees>40.961701</LatitudeDegrees>
              <LongitudeDegrees>-1.313027</LongitudeDegrees>
            </Position>
            <AltitudeMeters>865.331</AltitudeMeters>
            <DistanceMeters>564293.31331761</DistanceMeters>
          </Trackpoint>
          <Trackpoint>
            <Time>2021-08-03T16:32:48Z</Time>
            <Position>
              <LatitudeDegrees>40.961619</LatitudeDegrees>
              <LongitudeDegrees>-1.313075</LongitudeDegrees>
            </Position>
            <AltitudeMeters>865.324</AltitudeMeters>
            <DistanceMeters>564303.29157512</DistanceMeters>
          </Trackpoint>
          <Trackpoint>
            <Time>2021-08-03T16:32:50Z</Time>
            <Position>
              <LatitudeDegrees>40.961536</LatitudeDegrees>
              <LongitudeDegrees>-1.313126</LongitudeDegrees>
            </Position>
            <AltitudeMeters>865.308</AltitudeMeters>
            <DistanceMeters>564313.47540681</DistanceMeters>
          </Trackpoint>
          <Trackpoint>
            <Time>2021-08-03T16:32:51Z</Time>
            <Position>
              <LatitudeDegrees>40.961493</LatitudeDegrees>
              <LongitudeDegrees>-1.313152</LongitudeDegrees>
            </Position>
            <AltitudeMeters>865.356</AltitudeMeters>
            <DistanceMeters>564318.73717594</DistanceMeters>
          </Trackpoint>
          <Trackpoint>
            <Time>2021-08-03T16:32:52Z</Time>
            <Position>
              <LatitudeDegrees>40.961449</LatitudeDegrees>
              <LongitudeDegrees>-1.313177</LongitudeDegrees>
            </Position>
            <AltitudeMeters>865.578</AltitudeMeters>
            <DistanceMeters>564324.06630255</DistanceMeters>
          </Trackpoint>
          <Trackpoint>
            <Time>2021-08-03T16:32:54Z</Time>
            <Position>
              <LatitudeDegrees>40.961361</LatitudeDegrees>
              <LongitudeDegrees>-1.313222</LongitudeDegrees>
            </Position>
            <AltitudeMeters>866.088</AltitudeMeters>
            <DistanceMeters>564334.56578698</DistanceMeters>
          </Trackpoint>
          <Trackpoint>
            <Time>2021-08-03T16:32:55Z</Time>
            <Position>
              <LatitudeDegrees>40.961316</LatitudeDegrees>
              <LongitudeDegrees>-1.313240</LongitudeDegrees>
            </Position>
            <AltitudeMeters>866.281</AltitudeMeters>
            <DistanceMeters>564339.79743697</DistanceMeters>
          </Trackpoint>
          <Trackpoint>
            <Time>2021-08-03T16:32:56Z</Time>
            <Position>
              <LatitudeDegrees>40.961271</LatitudeDegrees>
              <LongitudeDegrees>-1.313256</LongitudeDegrees>
            </Position>
            <AltitudeMeters>866.329</AltitudeMeters>
            <DistanceMeters>564344.98314499</DistanceMeters>
          </Trackpoint>
          <Trackpoint>
            <Time>2021-08-03T16:32:57Z</Time>
            <Position>
              <LatitudeDegrees>40.961207</LatitudeDegrees>
              <LongitudeDegrees>-1.313277</LongitudeDegrees>
            </Position>
            <AltitudeMeters>866.434</AltitudeMeters>
            <DistanceMeters>564352.3217672</DistanceMeters>
          </Trackpoint>
          <Trackpoint>
            <Time>2021-08-03T16:32:58Z</Time>
            <Position>
              <LatitudeDegrees>40.961134</LatitudeDegrees>
              <LongitudeDegrees>-1.313300</LongitudeDegrees>
            </Position>
            <AltitudeMeters>866.429</AltitudeMeters>
            <DistanceMeters>564360.67331259</DistanceMeters>
          </Trackpoint>
          <Trackpoint>
            <Time>2021-08-03T16:33:00Z</Time>
            <Position>
              <LatitudeDegrees>40.961021</LatitudeDegrees>
              <LongitudeDegrees>-1.313336</LongitudeDegrees>
            </Position>
            <AltitudeMeters>866.410</AltitudeMeters>
            <DistanceMeters>564373.60916767</DistanceMeters>
          </Trackpoint>
          <Trackpoint>
            <Time>2021-08-03T16:33:01Z</Time>
            <Position>
              <LatitudeDegrees>40.960975</LatitudeDegrees>
              <LongitudeDegrees>-1.313347</LongitudeDegrees>
            </Position>
            <AltitudeMeters>866.258</AltitudeMeters>
            <DistanceMeters>564378.81225994</DistanceMeters>
          </Trackpoint>
          <Trackpoint>
            <Time>2021-08-03T16:33:03Z</Time>
            <Position>
              <LatitudeDegrees>40.960921</LatitudeDegrees>
              <LongitudeDegrees>-1.313346</LongitudeDegrees>
            </Position>
            <AltitudeMeters>866.052</AltitudeMeters>
            <DistanceMeters>564384.82377938</DistanceMeters>
          </Trackpoint>
          <Trackpoint>
            <Time>2021-08-03T16:33:05Z</Time>
            <Position>
              <LatitudeDegrees>40.960868</LatitudeDegrees>
              <LongitudeDegrees>-1.313364</LongitudeDegrees>
            </Position>
            <AltitudeMeters>865.817</AltitudeMeters>
            <DistanceMeters>564390.91364998</DistanceMeters>
          </Trackpoint>
          <Trackpoint>
            <Time>2021-08-03T16:33:07Z</Time>
            <Position>
              <LatitudeDegrees>40.960816</LatitudeDegrees>
              <LongitudeDegrees>-1.313397</LongitudeDegrees>
            </Position>
            <AltitudeMeters>865.708</AltitudeMeters>
            <DistanceMeters>564397.33199936</DistanceMeters>
          </Trackpoint>
          <Trackpoint>
            <Time>2021-08-03T16:33:09Z</Time>
            <Position>
              <LatitudeDegrees>40.960762</LatitudeDegrees>
              <LongitudeDegrees>-1.313415</LongitudeDegrees>
            </Position>
            <AltitudeMeters>865.642</AltitudeMeters>
            <DistanceMeters>564403.52916929</DistanceMeters>
          </Trackpoint>
          <Trackpoint>
            <Time>2021-08-03T16:33:11Z</Time>
            <Position>
              <LatitudeDegrees>40.960703</LatitudeDegrees>
              <LongitudeDegrees>-1.313400</LongitudeDegrees>
            </Position>
            <AltitudeMeters>865.634</AltitudeMeters>
            <DistanceMeters>564410.21556656</DistanceMeters>
          </Trackpoint>
          <Trackpoint>
            <Time>2021-08-03T16:33:13Z</Time>
            <Position>
              <LatitudeDegrees>40.960642</LatitudeDegrees>
              <LongitudeDegrees>-1.313394</LongitudeDegrees>
            </Position>
            <AltitudeMeters>865.554</AltitudeMeters>
            <DistanceMeters>564417.02375151</DistanceMeters>
          </Trackpoint>
          <Trackpoint>
            <Time>2021-08-03T16:33:15Z</Time>
            <Position>
              <LatitudeDegrees>40.960581</LatitudeDegrees>
              <LongitudeDegrees>-1.313399</LongitudeDegrees>
            </Position>
            <AltitudeMeters>865.587</AltitudeMeters>
            <DistanceMeters>564423.82596525</DistanceMeters>
          </Trackpoint>
          <Trackpoint>
            <Time>2021-08-03T16:33:17Z</Time>
            <Position>
              <LatitudeDegrees>40.960497</LatitudeDegrees>
              <LongitudeDegrees>-1.313384</LongitudeDegrees>
            </Position>
            <AltitudeMeters>865.615</AltitudeMeters>
            <DistanceMeters>564433.25996935</DistanceMeters>
          </Trackpoint>
          <Trackpoint>
            <Time>2021-08-03T16:33:19Z</Time>
            <Position>
              <LatitudeDegrees>40.960411</LatitudeDegrees>
              <LongitudeDegrees>-1.313344</LongitudeDegrees>
            </Position>
            <AltitudeMeters>866.070</AltitudeMeters>
            <DistanceMeters>564443.40560099</DistanceMeters>
          </Trackpoint>
          <Trackpoint>
            <Time>2021-08-03T16:33:20Z</Time>
            <Position>
              <LatitudeDegrees>40.960366</LatitudeDegrees>
              <LongitudeDegrees>-1.313329</LongitudeDegrees>
            </Position>
            <AltitudeMeters>866.255</AltitudeMeters>
            <DistanceMeters>564448.57037067</DistanceMeters>
          </Trackpoint>
          <Trackpoint>
            <Time>2021-08-03T16:33:22Z</Time>
            <Position>
              <LatitudeDegrees>40.960283</LatitudeDegrees>
              <LongitudeDegrees>-1.313303</LongitudeDegrees>
            </Position>
            <AltitudeMeters>866.666</AltitudeMeters>
            <DistanceMeters>564458.06353468</DistanceMeters>
          </Trackpoint>
          <Trackpoint>
            <Time>2021-08-03T16:33:24Z</Time>
            <Position>
              <LatitudeDegrees>40.960199</LatitudeDegrees>
              <LongitudeDegrees>-1.313276</LongitudeDegrees>
            </Position>
            <AltitudeMeters>866.735</AltitudeMeters>
            <DistanceMeters>564467.68425625</DistanceMeters>
          </Trackpoint>
          <Trackpoint>
            <Time>2021-08-03T16:33:25Z</Time>
            <Position>
              <LatitudeDegrees>40.960093</LatitudeDegrees>
              <LongitudeDegrees>-1.313310</LongitudeDegrees>
            </Position>
            <AltitudeMeters>866.986</AltitudeMeters>
            <DistanceMeters>564479.82315189</DistanceMeters>
          </Trackpoint>
          <Trackpoint>
            <Time>2021-08-03T16:33:27Z</Time>
            <Position>
              <LatitudeDegrees>40.960035</LatitudeDegrees>
              <LongitudeDegrees>-1.313299</LongitudeDegrees>
            </Position>
            <AltitudeMeters>867.114</AltitudeMeters>
            <DistanceMeters>564486.34478206</DistanceMeters>
          </Trackpoint>
          <Trackpoint>
            <Time>2021-08-03T16:33:29Z</Time>
            <Position>
              <LatitudeDegrees>40.959950</LatitudeDegrees>
              <LongitudeDegrees>-1.313274</LongitudeDegrees>
            </Position>
            <AltitudeMeters>867.108</AltitudeMeters>
            <DistanceMeters>564496.03610937</DistanceMeters>
          </Trackpoint>
          <Trackpoint>
            <Time>2021-08-03T16:33:31Z</Time>
            <Position>
              <LatitudeDegrees>40.959868</LatitudeDegrees>
              <LongitudeDegrees>-1.313245</LongitudeDegrees>
            </Position>
            <AltitudeMeters>867.430</AltitudeMeters>
            <DistanceMeters>564505.48302662</DistanceMeters>
          </Trackpoint>
          <Trackpoint>
            <Time>2021-08-03T16:33:33Z</Time>
            <Position>
              <LatitudeDegrees>40.959806</LatitudeDegrees>
              <LongitudeDegrees>-1.313229</LongitudeDegrees>
            </Position>
            <AltitudeMeters>867.512</AltitudeMeters>
            <DistanceMeters>564512.51371922</DistanceMeters>
          </Trackpoint>
          <Trackpoint>
            <Time>2021-08-03T16:33:35Z</Time>
            <Position>
              <LatitudeDegrees>40.959687</LatitudeDegrees>
              <LongitudeDegrees>-1.313208</LongitudeDegrees>
            </Position>
            <AltitudeMeters>867.852</AltitudeMeters>
            <DistanceMeters>564525.87570528</DistanceMeters>
          </Trackpoint>
          <Trackpoint>
            <Time>2021-08-03T16:33:37Z</Time>
            <Position>
              <LatitudeDegrees>40.959620</LatitudeDegrees>
              <LongitudeDegrees>-1.313230</LongitudeDegrees>
            </Position>
            <AltitudeMeters>867.825</AltitudeMeters>
            <DistanceMeters>564533.55877822</DistanceMeters>
          </Trackpoint>
          <Trackpoint>
            <Time>2021-08-03T16:33:39Z</Time>
            <Position>
              <LatitudeDegrees>40.959545</LatitudeDegrees>
              <LongitudeDegrees>-1.313237</LongitudeDegrees>
            </Position>
            <AltitudeMeters>868.183</AltitudeMeters>
            <DistanceMeters>564541.92652658</DistanceMeters>
          </Trackpoint>
          <Trackpoint>
            <Time>2021-08-03T16:33:41Z</Time>
            <Position>
              <LatitudeDegrees>40.959468</LatitudeDegrees>
              <LongitudeDegrees>-1.313251</LongitudeDegrees>
            </Position>
            <AltitudeMeters>868.158</AltitudeMeters>
            <DistanceMeters>564550.57708977</DistanceMeters>
          </Trackpoint>
          <Trackpoint>
            <Time>2021-08-03T16:33:43Z</Time>
            <Position>
              <LatitudeDegrees>40.959393</LatitudeDegrees>
              <LongitudeDegrees>-1.313279</LongitudeDegrees>
            </Position>
            <AltitudeMeters>868.163</AltitudeMeters>
            <DistanceMeters>564559.25006716</DistanceMeters>
          </Trackpoint>
          <Trackpoint>
            <Time>2021-08-03T16:33:45Z</Time>
            <Position>
              <LatitudeDegrees>40.959317</LatitudeDegrees>
              <LongitudeDegrees>-1.313319</LongitudeDegrees>
            </Position>
            <AltitudeMeters>868.044</AltitudeMeters>
            <DistanceMeters>564568.35281298</DistanceMeters>
          </Trackpoint>
          <Trackpoint>
            <Time>2021-08-03T16:33:47Z</Time>
            <Position>
              <LatitudeDegrees>40.959240</LatitudeDegrees>
              <LongitudeDegrees>-1.313371</LongitudeDegrees>
            </Position>
            <AltitudeMeters>867.859</AltitudeMeters>
            <DistanceMeters>564577.97353455</DistanceMeters>
          </Trackpoint>
          <Trackpoint>
            <Time>2021-08-03T16:33:49Z</Time>
            <Position>
              <LatitudeDegrees>40.959170</LatitudeDegrees>
              <LongitudeDegrees>-1.313448</LongitudeDegrees>
            </Position>
            <AltitudeMeters>867.403</AltitudeMeters>
            <DistanceMeters>564588.10268696</DistanceMeters>
          </Trackpoint>
          <Trackpoint>
            <Time>2021-08-03T16:33:51Z</Time>
            <Position>
              <LatitudeDegrees>40.959090</LatitudeDegrees>
              <LongitudeDegrees>-1.313506</LongitudeDegrees>
            </Position>
            <AltitudeMeters>865.823</AltitudeMeters>
            <DistanceMeters>564598.25365747</DistanceMeters>
          </Trackpoint>
          <Trackpoint>
            <Time>2021-08-03T16:33:52Z</Time>
            <Position>
              <LatitudeDegrees>40.959042</LatitudeDegrees>
              <LongitudeDegrees>-1.313514</LongitudeDegrees>
            </Position>
            <AltitudeMeters>865.408</AltitudeMeters>
            <DistanceMeters>564603.63841146</DistanceMeters>
          </Trackpoint>
          <Trackpoint>
            <Time>2021-08-03T16:33:53Z</Time>
            <Position>
              <LatitudeDegrees>40.958997</LatitudeDegrees>
              <LongitudeDegrees>-1.313519</LongitudeDegrees>
            </Position>
            <AltitudeMeters>865.432</AltitudeMeters>
            <DistanceMeters>564608.66495638</DistanceMeters>
          </Trackpoint>
          <Trackpoint>
            <Time>2021-08-03T16:33:55Z</Time>
            <Position>
              <LatitudeDegrees>40.958899</LatitudeDegrees>
              <LongitudeDegrees>-1.313508</LongitudeDegrees>
            </Position>
            <AltitudeMeters>866.144</AltitudeMeters>
            <DistanceMeters>564619.61160493</DistanceMeters>
          </Trackpoint>
          <Trackpoint>
            <Time>2021-08-03T16:33:57Z</Time>
            <Position>
              <LatitudeDegrees>40.958811</LatitudeDegrees>
              <LongitudeDegrees>-1.313505</LongitudeDegrees>
            </Position>
            <AltitudeMeters>866.424</AltitudeMeters>
            <DistanceMeters>564629.40949974</DistanceMeters>
          </Trackpoint>
          <Trackpoint>
            <Time>2021-08-03T16:33:59Z</Time>
            <Position>
              <LatitudeDegrees>40.958735</LatitudeDegrees>
              <LongitudeDegrees>-1.313494</LongitudeDegrees>
            </Position>
            <AltitudeMeters>866.637</AltitudeMeters>
            <DistanceMeters>564637.91903457</DistanceMeters>
          </Trackpoint>
          <Trackpoint>
            <Time>2021-08-03T16:34:01Z</Time>
            <Position>
              <LatitudeDegrees>40.958656</LatitudeDegrees>
              <LongitudeDegrees>-1.313489</LongitudeDegrees>
            </Position>
            <AltitudeMeters>866.725</AltitudeMeters>
            <DistanceMeters>564646.7222224</DistanceMeters>
          </Trackpoint>
          <Trackpoint>
            <Time>2021-08-03T16:34:03Z</Time>
            <Position>
              <LatitudeDegrees>40.958543</LatitudeDegrees>
              <LongitudeDegrees>-1.313476</LongitudeDegrees>
            </Position>
            <AltitudeMeters>867.330</AltitudeMeters>
            <DistanceMeters>564659.34683524</DistanceMeters>
          </Trackpoint>
          <Trackpoint>
            <Time>2021-08-03T16:34:05Z</Time>
            <Position>
              <LatitudeDegrees>40.958432</LatitudeDegrees>
              <LongitudeDegrees>-1.313461</LongitudeDegrees>
            </Position>
            <AltitudeMeters>867.365</AltitudeMeters>
            <DistanceMeters>564671.76519445</DistanceMeters>
          </Trackpoint>
          <Trackpoint>
            <Time>2021-08-03T16:34:06Z</Time>
            <Position>
              <LatitudeDegrees>40.958382</LatitudeDegrees>
              <LongitudeDegrees>-1.313455</LongitudeDegrees>
            </Position>
            <AltitudeMeters>867.126</AltitudeMeters>
            <DistanceMeters>564677.35321774</DistanceMeters>
          </Trackpoint>
          <Trackpoint>
            <Time>2021-08-03T16:34:07Z</Time>
            <Position>
              <LatitudeDegrees>40.958331</LatitudeDegrees>
              <LongitudeDegrees>-1.313449</LongitudeDegrees>
            </Position>
            <AltitudeMeters>867.026</AltitudeMeters>
            <DistanceMeters>564683.05165217</DistanceMeters>
          </Trackpoint>
          <Trackpoint>
            <Time>2021-08-03T16:34:09Z</Time>
            <Position>
              <LatitudeDegrees>40.958231</LatitudeDegrees>
              <LongitudeDegrees>-1.313437</LongitudeDegrees>
            </Position>
            <AltitudeMeters>866.947</AltitudeMeters>
            <DistanceMeters>564694.22769876</DistanceMeters>
          </Trackpoint>
          <Trackpoint>
            <Time>2021-08-03T16:34:11Z</Time>
            <Position>
              <LatitudeDegrees>40.958088</LatitudeDegrees>
              <LongitudeDegrees>-1.313407</LongitudeDegrees>
            </Position>
            <AltitudeMeters>866.911</AltitudeMeters>
            <DistanceMeters>564710.34222352</DistanceMeters>
          </Trackpoint>
          <Trackpoint>
            <Time>2021-08-03T16:34:13Z</Time>
            <Position>
              <LatitudeDegrees>40.957961</LatitudeDegrees>
              <LongitudeDegrees>-1.313350</LongitudeDegrees>
            </Position>
            <AltitudeMeters>867.108</AltitudeMeters>
            <DistanceMeters>564725.26716659</DistanceMeters>
          </Trackpoint>
          <Trackpoint>
            <Time>2021-08-03T16:34:15Z</Time>
            <Position>
              <LatitudeDegrees>40.957864</LatitudeDegrees>
              <LongitudeDegrees>-1.313306</LongitudeDegrees>
            </Position>
            <AltitudeMeters>867.879</AltitudeMeters>
            <DistanceMeters>564736.67947541</DistanceMeters>
          </Trackpoint>
          <Trackpoint>
            <Time>2021-08-03T16:34:17Z</Time>
            <Position>
              <LatitudeDegrees>40.957767</LatitudeDegrees>
              <LongitudeDegrees>-1.313293</LongitudeDegrees>
            </Position>
            <AltitudeMeters>868.121</AltitudeMeters>
            <DistanceMeters>564747.53125991</DistanceMeters>
          </Trackpoint>
          <Trackpoint>
            <Time>2021-08-03T16:34:19Z</Time>
            <Position>
              <LatitudeDegrees>40.957657</LatitudeDegrees>
              <LongitudeDegrees>-1.313298</LongitudeDegrees>
            </Position>
            <AltitudeMeters>868.281</AltitudeMeters>
            <DistanceMeters>564759.78160033</DistanceMeters>
          </Trackpoint>
          <Trackpoint>
            <Time>2021-08-03T16:34:21Z</Time>
            <Position>
              <LatitudeDegrees>40.957522</LatitudeDegrees>
              <LongitudeDegrees>-1.313310</LongitudeDegrees>
            </Position>
            <AltitudeMeters>868.284</AltitudeMeters>
            <DistanceMeters>564774.84086127</DistanceMeters>
          </Trackpoint>
          <Trackpoint>
            <Time>2021-08-03T16:34:23Z</Time>
            <Position>
              <LatitudeDegrees>40.957404</LatitudeDegrees>
              <LongitudeDegrees>-1.313318</LongitudeDegrees>
            </Position>
            <AltitudeMeters>867.322</AltitudeMeters>
            <DistanceMeters>564787.99167965</DistanceMeters>
          </Trackpoint>
          <Trackpoint>
            <Time>2021-08-03T16:34:26Z</Time>
            <Position>
              <LatitudeDegrees>40.957361</LatitudeDegrees>
              <LongitudeDegrees>-1.313298</LongitudeDegrees>
            </Position>
            <AltitudeMeters>867.217</AltitudeMeters>
            <DistanceMeters>564793.06471797</DistanceMeters>
          </Trackpoint>
          <Trackpoint>
            <Time>2021-08-03T16:34:28Z</Time>
            <Position>
              <LatitudeDegrees>40.957290</LatitudeDegrees>
              <LongitudeDegrees>-1.313297</LongitudeDegrees>
            </Position>
            <AltitudeMeters>867.282</AltitudeMeters>
            <DistanceMeters>564800.9673763</DistanceMeters>
          </Trackpoint>
          <Trackpoint>
            <Time>2021-08-03T16:34:30Z</Time>
            <Position>
              <LatitudeDegrees>40.957235</LatitudeDegrees>
              <LongitudeDegrees>-1.313286</LongitudeDegrees>
            </Position>
            <AltitudeMeters>867.273</AltitudeMeters>
            <DistanceMeters>564807.15871497</DistanceMeters>
          </Trackpoint>
          <Trackpoint>
            <Time>2021-08-03T16:34:33Z</Time>
            <Position>
              <LatitudeDegrees>40.957167</LatitudeDegrees>
              <LongitudeDegrees>-1.313276</LongitudeDegrees>
            </Position>
            <AltitudeMeters>867.311</AltitudeMeters>
            <DistanceMeters>564814.77390708</DistanceMeters>
          </Trackpoint>
          <Trackpoint>
            <Time>2021-08-03T16:34:36Z</Time>
            <Position>
              <LatitudeDegrees>40.957110</LatitudeDegrees>
              <LongitudeDegrees>-1.313256</LongitudeDegrees>
            </Position>
            <AltitudeMeters>867.421</AltitudeMeters>
            <DistanceMeters>564821.33694484</DistanceMeters>
          </Trackpoint>
          <Trackpoint>
            <Time>2021-08-03T16:34:38Z</Time>
            <Position>
              <LatitudeDegrees>40.957049</LatitudeDegrees>
              <LongitudeDegrees>-1.313242</LongitudeDegrees>
            </Position>
            <AltitudeMeters>867.503</AltitudeMeters>
            <DistanceMeters>564828.22752841</DistanceMeters>
          </Trackpoint>
          <Trackpoint>
            <Time>2021-08-03T16:34:40Z</Time>
            <Position>
              <LatitudeDegrees>40.956987</LatitudeDegrees>
              <LongitudeDegrees>-1.313219</LongitudeDegrees>
            </Position>
            <AltitudeMeters>867.708</AltitudeMeters>
            <DistanceMeters>564835.39433208</DistanceMeters>
          </Trackpoint>
          <Trackpoint>
            <Time>2021-08-03T16:34:42Z</Time>
            <Position>
              <LatitudeDegrees>40.956925</LatitudeDegrees>
              <LongitudeDegrees>-1.313192</LongitudeDegrees>
            </Position>
            <AltitudeMeters>867.988</AltitudeMeters>
            <DistanceMeters>564842.65812838</DistanceMeters>
          </Trackpoint>
          <Trackpoint>
            <Time>2021-08-03T16:34:44Z</Time>
            <Position>
              <LatitudeDegrees>40.956858</LatitudeDegrees>
              <LongitudeDegrees>-1.313159</LongitudeDegrees>
            </Position>
            <AltitudeMeters>869.060</AltitudeMeters>
            <DistanceMeters>564850.61431062</DistanceMeters>
          </Trackpoint>
          <Trackpoint>
            <Time>2021-08-03T16:34:46Z</Time>
            <Position>
              <LatitudeDegrees>40.956773</LatitudeDegrees>
              <LongitudeDegrees>-1.313117</LongitudeDegrees>
            </Position>
            <AltitudeMeters>869.030</AltitudeMeters>
            <DistanceMeters>564860.71176541</DistanceMeters>
          </Trackpoint>
          <Trackpoint>
            <Time>2021-08-03T16:34:48Z</Time>
            <Position>
              <LatitudeDegrees>40.956680</LatitudeDegrees>
              <LongitudeDegrees>-1.313067</LongitudeDegrees>
            </Position>
            <AltitudeMeters>869.013</AltitudeMeters>
            <DistanceMeters>564871.88377134</DistanceMeters>
          </Trackpoint>
          <Trackpoint>
            <Time>2021-08-03T16:34:50Z</Time>
            <Position>
              <LatitudeDegrees>40.956578</LatitudeDegrees>
              <LongitudeDegrees>-1.313012</LongitudeDegrees>
            </Position>
            <AltitudeMeters>869.041</AltitudeMeters>
            <DistanceMeters>564884.14184917</DistanceMeters>
          </Trackpoint>
          <Trackpoint>
            <Time>2021-08-03T16:34:51Z</Time>
            <Position>
              <LatitudeDegrees>40.956519</LatitudeDegrees>
              <LongitudeDegrees>-1.312983</LongitudeDegrees>
            </Position>
            <AltitudeMeters>869.266</AltitudeMeters>
            <DistanceMeters>564891.14616251</DistanceMeters>
          </Trackpoint>
          <Trackpoint>
            <Time>2021-08-03T16:34:53Z</Time>
            <Position>
              <LatitudeDegrees>40.956391</LatitudeDegrees>
              <LongitudeDegrees>-1.312917</LongitudeDegrees>
            </Position>
            <AltitudeMeters>869.251</AltitudeMeters>
            <DistanceMeters>564906.43483572</DistanceMeters>
          </Trackpoint>
          <Trackpoint>
            <Time>2021-08-03T16:34:54Z</Time>
            <Position>
              <LatitudeDegrees>40.956323</LatitudeDegrees>
              <LongitudeDegrees>-1.312883</LongitudeDegrees>
            </Position>
            <AltitudeMeters>869.052</AltitudeMeters>
            <DistanceMeters>564914.52495279</DistanceMeters>
          </Trackpoint>
          <Trackpoint>
            <Time>2021-08-03T16:34:56Z</Time>
            <Position>
              <LatitudeDegrees>40.956177</LatitudeDegrees>
              <LongitudeDegrees>-1.312829</LongitudeDegrees>
            </Position>
            <AltitudeMeters>868.686</AltitudeMeters>
            <DistanceMeters>564931.39694525</DistanceMeters>
          </Trackpoint>
          <Trackpoint>
            <Time>2021-08-03T16:34:57Z</Time>
            <Position>
              <LatitudeDegrees>40.956098</LatitudeDegrees>
              <LongitudeDegrees>-1.312809</LongitudeDegrees>
            </Position>
            <AltitudeMeters>868.660</AltitudeMeters>
            <DistanceMeters>564940.34864332</DistanceMeters>
          </Trackpoint>
          <Trackpoint>
            <Time>2021-08-03T16:34:59Z</Time>
            <Position>
              <LatitudeDegrees>40.955934</LatitudeDegrees>
              <LongitudeDegrees>-1.312783</LongitudeDegrees>
            </Position>
            <AltitudeMeters>868.826</AltitudeMeters>
            <DistanceMeters>564958.73232198</DistanceMeters>
          </Trackpoint>
          <Trackpoint>
            <Time>2021-08-03T16:35:00Z</Time>
            <Position>
              <LatitudeDegrees>40.955857</LatitudeDegrees>
              <LongitudeDegrees>-1.312766</LongitudeDegrees>
            </Position>
            <AltitudeMeters>869.008</AltitudeMeters>
            <DistanceMeters>564967.42090294</DistanceMeters>
          </Trackpoint>
          <Trackpoint>
            <Time>2021-08-03T16:35:01Z</Time>
            <Position>
              <LatitudeDegrees>40.955792</LatitudeDegrees>
              <LongitudeDegrees>-1.312763</LongitudeDegrees>
            </Position>
            <AltitudeMeters>869.115</AltitudeMeters>
            <DistanceMeters>564974.65916955</DistanceMeters>
          </Trackpoint>
          <Trackpoint>
            <Time>2021-08-03T16:35:03Z</Time>
            <Position>
              <LatitudeDegrees>40.955668</LatitudeDegrees>
              <LongitudeDegrees>-1.312760</LongitudeDegrees>
            </Position>
            <AltitudeMeters>869.237</AltitudeMeters>
            <DistanceMeters>564988.46259713</DistanceMeters>
          </Trackpoint>
          <Trackpoint>
            <Time>2021-08-03T16:35:05Z</Time>
            <Position>
              <LatitudeDegrees>40.955618</LatitudeDegrees>
              <LongitudeDegrees>-1.312840</LongitudeDegrees>
            </Position>
            <AltitudeMeters>869.167</AltitudeMeters>
            <DistanceMeters>564997.19109958</DistanceMeters>
          </Trackpoint>
          <Trackpoint>
            <Time>2021-08-03T16:35:07Z</Time>
            <Position>
              <LatitudeDegrees>40.955573</LatitudeDegrees>
              <LongitudeDegrees>-1.312894</LongitudeDegrees>
            </Position>
            <AltitudeMeters>868.770</AltitudeMeters>
            <DistanceMeters>565003.9500312</DistanceMeters>
          </Trackpoint>
          <Trackpoint>
            <Time>2021-08-03T16:35:08Z</Time>
            <Position>
              <LatitudeDegrees>40.955658</LatitudeDegrees>
              <LongitudeDegrees>-1.312864</LongitudeDegrees>
            </Position>
            <AltitudeMeters>868.668</AltitudeMeters>
            <DistanceMeters>565013.74101132</DistanceMeters>
          </Trackpoint>
          <Trackpoint>
            <Time>2021-08-03T16:35:10Z</Time>
            <Position>
              <LatitudeDegrees>40.955596</LatitudeDegrees>
              <LongitudeDegrees>-1.312863</LongitudeDegrees>
            </Position>
            <AltitudeMeters>868.633</AltitudeMeters>
            <DistanceMeters>565020.64207088</DistanceMeters>
          </Trackpoint>
          <Trackpoint>
            <Time>2021-08-03T16:35:12Z</Time>
            <Position>
              <LatitudeDegrees>40.955513</LatitudeDegrees>
              <LongitudeDegrees>-1.312858</LongitudeDegrees>
            </Position>
            <AltitudeMeters>868.858</AltitudeMeters>
            <DistanceMeters>565029.88949344</DistanceMeters>
          </Trackpoint>
          <Trackpoint>
            <Time>2021-08-03T16:35:15Z</Time>
            <Position>
              <LatitudeDegrees>40.955427</LatitudeDegrees>
              <LongitudeDegrees>-1.312818</LongitudeDegrees>
            </Position>
            <AltitudeMeters>869.169</AltitudeMeters>
            <DistanceMeters>565040.03468005</DistanceMeters>
          </Trackpoint>
          <Trackpoint>
            <Time>2021-08-03T16:35:17Z</Time>
            <Position>
              <LatitudeDegrees>40.955317</LatitudeDegrees>
              <LongitudeDegrees>-1.312766</LongitudeDegrees>
            </Position>
            <AltitudeMeters>869.164</AltitudeMeters>
            <DistanceMeters>565053.03494584</DistanceMeters>
          </Trackpoint>
          <Trackpoint>
            <Time>2021-08-03T16:35:18Z</Time>
            <Position>
              <LatitudeDegrees>40.955261</LatitudeDegrees>
              <LongitudeDegrees>-1.312752</LongitudeDegrees>
            </Position>
            <AltitudeMeters>869.306</AltitudeMeters>
            <DistanceMeters>565059.37829044</DistanceMeters>
          </Trackpoint>
          <Trackpoint>
            <Time>2021-08-03T16:35:20Z</Time>
            <Position>
              <LatitudeDegrees>40.955147</LatitudeDegrees>
              <LongitudeDegrees>-1.312748</LongitudeDegrees>
            </Position>
            <AltitudeMeters>869.616</AltitudeMeters>
            <DistanceMeters>565072.07138399</DistanceMeters>
          </Trackpoint>
          <Trackpoint>
            <Time>2021-08-03T16:35:22Z</Time>
            <Position>
              <LatitudeDegrees>40.955036</LatitudeDegrees>
              <LongitudeDegrees>-1.312758</LongitudeDegrees>
            </Position>
            <AltitudeMeters>869.108</AltitudeMeters>
            <DistanceMeters>565084.45442594</DistanceMeters>
          </Trackpoint>
          <Trackpoint>
            <Time>2021-08-03T16:35:24Z</Time>
            <Position>
              <LatitudeDegrees>40.954921</LatitudeDegrees>
              <LongitudeDegrees>-1.312757</LongitudeDegrees>
            </Position>
            <AltitudeMeters>868.873</AltitudeMeters>
            <DistanceMeters>565097.25449262</DistanceMeters>
          </Trackpoint>
          <Trackpoint>
            <Time>2021-08-03T16:35:26Z</Time>
            <Position>
              <LatitudeDegrees>40.954815</LatitudeDegrees>
              <LongitudeDegrees>-1.312744</LongitudeDegrees>
            </Position>
            <AltitudeMeters>868.855</AltitudeMeters>
            <DistanceMeters>565109.10276543</DistanceMeters>
          </Trackpoint>
          <Trackpoint>
            <Time>2021-08-03T16:35:27Z</Time>
            <Position>
              <LatitudeDegrees>40.954763</LatitudeDegrees>
              <LongitudeDegrees>-1.312731</LongitudeDegrees>
            </Position>
            <AltitudeMeters>869.045</AltitudeMeters>
            <DistanceMeters>565114.99288883</DistanceMeters>
          </Trackpoint>
          <Trackpoint>
            <Time>2021-08-03T16:35:29Z</Time>
            <Position>
              <LatitudeDegrees>40.954659</LatitudeDegrees>
              <LongitudeDegrees>-1.312712</LongitudeDegrees>
            </Position>
            <AltitudeMeters>869.448</AltitudeMeters>
            <DistanceMeters>565126.67769759</DistanceMeters>
          </Trackpoint>
          <Trackpoint>
            <Time>2021-08-03T16:35:30Z</Time>
            <Position>
              <LatitudeDegrees>40.954611</LatitudeDegrees>
              <LongitudeDegrees>-1.312702</LongitudeDegrees>
            </Position>
            <AltitudeMeters>869.416</AltitudeMeters>
            <DistanceMeters>565132.08504329</DistanceMeters>
          </Trackpoint>
          <Trackpoint>
            <Time>2021-08-03T16:35:32Z</Time>
            <Position>
              <LatitudeDegrees>40.954523</LatitudeDegrees>
              <LongitudeDegrees>-1.312703</LongitudeDegrees>
            </Position>
            <AltitudeMeters>869.361</AltitudeMeters>
            <DistanceMeters>565141.88017281</DistanceMeters>
          </Trackpoint>
          <Trackpoint>
            <Time>2021-08-03T16:35:33Z</Time>
            <Position>
              <LatitudeDegrees>40.954474</LatitudeDegrees>
              <LongitudeDegrees>-1.312710</LongitudeDegrees>
            </Position>
            <AltitudeMeters>869.236</AltitudeMeters>
            <DistanceMeters>565147.36544534</DistanceMeters>
          </Trackpoint>
          <Trackpoint>
            <Time>2021-08-03T16:35:35Z</Time>
            <Position>
              <LatitudeDegrees>40.954375</LatitudeDegrees>
              <LongitudeDegrees>-1.312736</LongitudeDegrees>
            </Position>
            <AltitudeMeters>869.257</AltitudeMeters>
            <DistanceMeters>565158.59871237</DistanceMeters>
          </Trackpoint>
          <Trackpoint>
            <Time>2021-08-03T16:35:37Z</Time>
            <Position>
              <LatitudeDegrees>40.954282</LatitudeDegrees>
              <LongitudeDegrees>-1.312769</LongitudeDegrees>
            </Position>
            <AltitudeMeters>869.135</AltitudeMeters>
            <DistanceMeters>565169.31484423</DistanceMeters>
          </Trackpoint>
          <Trackpoint>
            <Time>2021-08-03T16:35:38Z</Time>
            <Position>
              <LatitudeDegrees>40.954232</LatitudeDegrees>
              <LongitudeDegrees>-1.312782</LongitudeDegrees>
            </Position>
            <AltitudeMeters>869.186</AltitudeMeters>
            <DistanceMeters>565174.98627547</DistanceMeters>
          </Trackpoint>
          <Trackpoint>
            <Time>2021-08-03T16:35:39Z</Time>
            <Position>
              <LatitudeDegrees>40.954182</LatitudeDegrees>
              <LongitudeDegrees>-1.312788</LongitudeDegrees>
            </Position>
            <AltitudeMeters>869.214</AltitudeMeters>
            <DistanceMeters>565180.57429877</DistanceMeters>
          </Trackpoint>
          <Trackpoint>
            <Time>2021-08-03T16:35:40Z</Time>
            <Position>
              <LatitudeDegrees>40.954136</LatitudeDegrees>
              <LongitudeDegrees>-1.312792</LongitudeDegrees>
            </Position>
            <AltitudeMeters>869.408</AltitudeMeters>
            <DistanceMeters>565185.70574134</DistanceMeters>
          </Trackpoint>
          <Trackpoint>
            <Time>2021-08-03T16:35:42Z</Time>
            <Position>
              <LatitudeDegrees>40.954045</LatitudeDegrees>
              <LongitudeDegrees>-1.312796</LongitudeDegrees>
            </Position>
            <AltitudeMeters>869.770</AltitudeMeters>
            <DistanceMeters>565195.8402413</DistanceMeters>
          </Trackpoint>
          <Trackpoint>
            <Time>2021-08-03T16:35:44Z</Time>
            <Position>
              <LatitudeDegrees>40.953950</LatitudeDegrees>
              <LongitudeDegrees>-1.312793</LongitudeDegrees>
            </Position>
            <AltitudeMeters>870.142</AltitudeMeters>
            <DistanceMeters>565206.41684695</DistanceMeters>
          </Trackpoint>
          <Trackpoint>
            <Time>2021-08-03T16:35:45Z</Time>
            <Position>
              <LatitudeDegrees>40.953905</LatitudeDegrees>
              <LongitudeDegrees>-1.312787</LongitudeDegrees>
            </Position>
            <AltitudeMeters>870.142</AltitudeMeters>
            <DistanceMeters>565211.45146953</DistanceMeters>
          </Trackpoint>
          <Trackpoint>
            <Time>2021-08-03T16:35:46Z</Time>
            <Position>
              <LatitudeDegrees>40.953859</LatitudeDegrees>
              <LongitudeDegrees>-1.312784</LongitudeDegrees>
            </Position>
            <AltitudeMeters>870.185</AltitudeMeters>
            <DistanceMeters>565216.57763013</DistanceMeters>
          </Trackpoint>
          <Trackpoint>
            <Time>2021-08-03T16:35:48Z</Time>
            <Position>
              <LatitudeDegrees>40.953778</LatitudeDegrees>
              <LongitudeDegrees>-1.312772</LongitudeDegrees>
            </Position>
            <AltitudeMeters>870.253</AltitudeMeters>
            <DistanceMeters>565225.64957131</DistanceMeters>
          </Trackpoint>
          <Trackpoint>
            <Time>2021-08-03T16:35:49Z</Time>
            <Position>
              <LatitudeDegrees>40.953727</LatitudeDegrees>
              <LongitudeDegrees>-1.312763</LongitudeDegrees>
            </Position>
            <AltitudeMeters>870.258</AltitudeMeters>
            <DistanceMeters>565231.37645856</DistanceMeters>
          </Trackpoint>
          <Trackpoint>
            <Time>2021-08-03T16:35:50Z</Time>
            <Position>
              <LatitudeDegrees>40.953667</LatitudeDegrees>
              <LongitudeDegrees>-1.312751</LongitudeDegrees>
            </Position>
            <AltitudeMeters>870.563</AltitudeMeters>
            <DistanceMeters>565238.1307125</DistanceMeters>
          </Trackpoint>
          <Trackpoint>
            <Time>2021-08-03T16:35:52Z</Time>
            <Position>
              <LatitudeDegrees>40.953591</LatitudeDegrees>
              <LongitudeDegrees>-1.312722</LongitudeDegrees>
            </Position>
            <AltitudeMeters>870.644</AltitudeMeters>
            <DistanceMeters>565246.93390033</DistanceMeters>
          </Trackpoint>
          <Trackpoint>
            <Time>2021-08-03T16:35:54Z</Time>
            <Position>
              <LatitudeDegrees>40.953492</LatitudeDegrees>
              <LongitudeDegrees>-1.312647</LongitudeDegrees>
            </Position>
            <AltitudeMeters>870.676</AltitudeMeters>
            <DistanceMeters>565259.62912795</DistanceMeters>
          </Trackpoint>
          <Trackpoint>
            <Time>2021-08-03T16:35:56Z</Time>
            <Position>
              <LatitudeDegrees>40.953401</LatitudeDegrees>
              <LongitudeDegrees>-1.312601</LongitudeDegrees>
            </Position>
            <AltitudeMeters>870.590</AltitudeMeters>
            <DistanceMeters>565270.47092232</DistanceMeters>
          </Trackpoint>
          <Trackpoint>
            <Time>2021-08-03T16:35:58Z</Time>
            <Position>
              <LatitudeDegrees>40.953310</LatitudeDegrees>
              <LongitudeDegrees>-1.312566</LongitudeDegrees>
            </Position>
            <AltitudeMeters>870.319</AltitudeMeters>
            <DistanceMeters>565281.01845956</DistanceMeters>
          </Trackpoint>
          <Trackpoint>
            <Time>2021-08-03T16:36:00Z</Time>
            <Position>
              <LatitudeDegrees>40.953224</LatitudeDegrees>
              <LongitudeDegrees>-1.312555</LongitudeDegrees>
            </Position>
            <AltitudeMeters>870.308</AltitudeMeters>
            <DistanceMeters>565290.63542597</DistanceMeters>
          </Trackpoint>
          <Trackpoint>
            <Time>2021-08-03T16:36:02Z</Time>
            <Position>
              <LatitudeDegrees>40.953139</LatitudeDegrees>
              <LongitudeDegrees>-1.312554</LongitudeDegrees>
            </Position>
            <AltitudeMeters>870.344</AltitudeMeters>
            <DistanceMeters>565300.09619326</DistanceMeters>
          </Trackpoint>
          <Trackpoint>
            <Time>2021-08-03T16:36:03Z</Time>
            <Position>
              <LatitudeDegrees>40.953074</LatitudeDegrees>
              <LongitudeDegrees>-1.312557</LongitudeDegrees>
            </Position>
            <AltitudeMeters>870.396</AltitudeMeters>
            <DistanceMeters>565307.33445987</DistanceMeters>
          </Trackpoint>
          <Trackpoint>
            <Time>2021-08-03T16:36:04Z</Time>
            <Position>
              <LatitudeDegrees>40.953014</LatitudeDegrees>
              <LongitudeDegrees>-1.312563</LongitudeDegrees>
            </Position>
            <AltitudeMeters>870.246</AltitudeMeters>
            <DistanceMeters>565314.03097834</DistanceMeters>
          </Trackpoint>
          <Trackpoint>
            <Time>2021-08-03T16:36:06Z</Time>
            <Position>
              <LatitudeDegrees>40.952930</LatitudeDegrees>
              <LongitudeDegrees>-1.312578</LongitudeDegrees>
            </Position>
            <AltitudeMeters>870.139</AltitudeMeters>
            <DistanceMeters>565323.46402521</DistanceMeters>
          </Trackpoint>
          <Trackpoint>
            <Time>2021-08-03T16:36:08Z</Time>
            <Position>
              <LatitudeDegrees>40.952829</LatitudeDegrees>
              <LongitudeDegrees>-1.312576</LongitudeDegrees>
            </Position>
            <AltitudeMeters>870.137</AltitudeMeters>
            <DistanceMeters>565334.70613132</DistanceMeters>
          </Trackpoint>
          <Trackpoint>
            <Time>2021-08-03T16:36:09Z</Time>
            <Position>
              <LatitudeDegrees>40.952782</LatitudeDegrees>
              <LongitudeDegrees>-1.312589</LongitudeDegrees>
            </Position>
            <AltitudeMeters>870.272</AltitudeMeters>
            <DistanceMeters>565340.04964157</DistanceMeters>
          </Trackpoint>
          <Trackpoint>
            <Time>2021-08-03T16:36:11Z</Time>
            <Position>
              <LatitudeDegrees>40.952690</LatitudeDegrees>
              <LongitudeDegrees>-1.312595</LongitudeDegrees>
            </Position>
            <AltitudeMeters>870.397</AltitudeMeters>
            <DistanceMeters>565350.30108194</DistanceMeters>
          </Trackpoint>
          <Trackpoint>
            <Time>2021-08-03T16:36:12Z</Time>
            <Position>
              <LatitudeDegrees>40.952642</LatitudeDegrees>
              <LongitudeDegrees>-1.312608</LongitudeDegrees>
            </Position>
            <AltitudeMeters>870.348</AltitudeMeters>
            <DistanceMeters>565355.75333025</DistanceMeters>
          </Trackpoint>
          <Trackpoint>
            <Time>2021-08-03T16:36:14Z</Time>
            <Position>
              <LatitudeDegrees>40.952551</LatitudeDegrees>
              <LongitudeDegrees>-1.312624</LongitudeDegrees>
            </Position>
            <AltitudeMeters>870.165</AltitudeMeters>
            <DistanceMeters>565365.97035935</DistanceMeters>
          </Trackpoint>
          <Trackpoint>
            <Time>2021-08-03T16:36:16Z</Time>
            <Position>
              <LatitudeDegrees>40.952468</LatitudeDegrees>
              <LongitudeDegrees>-1.312616</LongitudeDegrees>
            </Position>
            <AltitudeMeters>870.168</AltitudeMeters>
            <DistanceMeters>565375.23241777</DistanceMeters>
          </Trackpoint>
          <Trackpoint>
            <Time>2021-08-03T16:36:18Z</Time>
            <Position>
              <LatitudeDegrees>40.952376</LatitudeDegrees>
              <LongitudeDegrees>-1.312583</LongitudeDegrees>
            </Position>
            <AltitudeMeters>870.614</AltitudeMeters>
            <DistanceMeters>565385.84141739</DistanceMeters>
          </Trackpoint>
          <Trackpoint>
            <Time>2021-08-03T16:36:20Z</Time>
            <Position>
              <LatitudeDegrees>40.952300</LatitudeDegrees>
              <LongitudeDegrees>-1.312551</LongitudeDegrees>
            </Position>
            <AltitudeMeters>871.008</AltitudeMeters>
            <DistanceMeters>565394.71815367</DistanceMeters>
          </Trackpoint>
          <Trackpoint>
            <Time>2021-08-03T16:36:22Z</Time>
            <Position>
              <LatitudeDegrees>40.952218</LatitudeDegrees>
              <LongitudeDegrees>-1.312499</LongitudeDegrees>
            </Position>
            <AltitudeMeters>871.483</AltitudeMeters>
            <DistanceMeters>565404.8374949</DistanceMeters>
          </Trackpoint>
          <Trackpoint>
            <Time>2021-08-03T16:36:24Z</Time>
            <Position>
              <LatitudeDegrees>40.952141</LatitudeDegrees>
              <LongitudeDegrees>-1.312454</LongitudeDegrees>
            </Position>
            <AltitudeMeters>871.825</AltitudeMeters>
            <DistanceMeters>565414.20570246</DistanceMeters>
          </Trackpoint>
          <Trackpoint>
            <Time>2021-08-03T16:36:26Z</Time>
            <Position>
              <LatitudeDegrees>40.952062</LatitudeDegrees>
              <LongitudeDegrees>-1.312400</LongitudeDegrees>
            </Position>
            <AltitudeMeters>872.055</AltitudeMeters>
            <DistanceMeters>565424.10126455</DistanceMeters>
          </Trackpoint>
          <Trackpoint>
            <Time>2021-08-03T16:36:28Z</Time>
            <Position>
              <LatitudeDegrees>40.951979</LatitudeDegrees>
              <LongitudeDegrees>-1.312356</LongitudeDegrees>
            </Position>
            <AltitudeMeters>872.228</AltitudeMeters>
            <DistanceMeters>565434.05233576</DistanceMeters>
          </Trackpoint>
          <Trackpoint>
            <Time>2021-08-03T16:36:30Z</Time>
            <Position>
              <LatitudeDegrees>40.951885</LatitudeDegrees>
              <LongitudeDegrees>-1.312308</LongitudeDegrees>
            </Position>
            <AltitudeMeters>872.716</AltitudeMeters>
            <DistanceMeters>565445.2658907</DistanceMeters>
          </Trackpoint>
          <Trackpoint>
            <Time>2021-08-03T16:36:31Z</Time>
            <Position>
              <LatitudeDegrees>40.951834</LatitudeDegrees>
              <LongitudeDegrees>-1.312292</LongitudeDegrees>
            </Position>
            <AltitudeMeters>872.921</AltitudeMeters>
            <DistanceMeters>565451.10056192</DistanceMeters>
          </Trackpoint>
          <Trackpoint>
            <Time>2021-08-03T16:36:32Z</Time>
            <Position>
              <LatitudeDegrees>40.951789</LatitudeDegrees>
              <LongitudeDegrees>-1.312267</LongitudeDegrees>
            </Position>
            <AltitudeMeters>872.926</AltitudeMeters>
            <DistanceMeters>565456.53289934</DistanceMeters>
          </Trackpoint>
          <Trackpoint>
            <Time>2021-08-03T16:36:33Z</Time>
            <Position>
              <LatitudeDegrees>40.951744</LatitudeDegrees>
              <LongitudeDegrees>-1.312247</LongitudeDegrees>
            </Position>
            <AltitudeMeters>872.917</AltitudeMeters>
            <DistanceMeters>565461.81693154</DistanceMeters>
          </Trackpoint>
          <Trackpoint>
            <Time>2021-08-03T16:36:35Z</Time>
            <Position>
              <LatitudeDegrees>40.951654</LatitudeDegrees>
              <LongitudeDegrees>-1.312208</LongitudeDegrees>
            </Position>
            <AltitudeMeters>872.917</AltitudeMeters>
            <DistanceMeters>565472.35676078</DistanceMeters>
          </Trackpoint>
          <Trackpoint>
            <Time>2021-08-03T16:36:37Z</Time>
            <Position>
              <LatitudeDegrees>40.951572</LatitudeDegrees>
              <LongitudeDegrees>-1.312178</LongitudeDegrees>
            </Position>
            <AltitudeMeters>872.987</AltitudeMeters>
            <DistanceMeters>565481.82563764</DistanceMeters>
          </Trackpoint>
          <Trackpoint>
            <Time>2021-08-03T16:36:39Z</Time>
            <Position>
              <LatitudeDegrees>40.951481</LatitudeDegrees>
              <LongitudeDegrees>-1.312158</LongitudeDegrees>
            </Position>
            <AltitudeMeters>872.915</AltitudeMeters>
            <DistanceMeters>565492.09292124</DistanceMeters>
          </Trackpoint>
          <Trackpoint>
            <Time>2021-08-03T16:36:41Z</Time>
            <Position>
              <LatitudeDegrees>40.951383</LatitudeDegrees>
              <LongitudeDegrees>-1.312144</LongitudeDegrees>
            </Position>
            <AltitudeMeters>872.908</AltitudeMeters>
            <DistanceMeters>565503.06428939</DistanceMeters>
          </Trackpoint>
          <Trackpoint>
            <Time>2021-08-03T16:36:42Z</Time>
            <Position>
              <LatitudeDegrees>40.951333</LatitudeDegrees>
              <LongitudeDegrees>-1.312141</LongitudeDegrees>
            </Position>
            <AltitudeMeters>872.948</AltitudeMeters>
            <DistanceMeters>565508.63531916</DistanceMeters>
          </Trackpoint>
          <Trackpoint>
            <Time>2021-08-03T16:36:43Z</Time>
            <Position>
              <LatitudeDegrees>40.951287</LatitudeDegrees>
              <LongitudeDegrees>-1.312133</LongitudeDegrees>
            </Position>
            <AltitudeMeters>872.910</AltitudeMeters>
            <DistanceMeters>565513.79921456</DistanceMeters>
          </Trackpoint>
          <Trackpoint>
            <Time>2021-08-03T16:36:44Z</Time>
            <Position>
              <LatitudeDegrees>40.951238</LatitudeDegrees>
              <LongitudeDegrees>-1.312127</LongitudeDegrees>
            </Position>
            <AltitudeMeters>872.950</AltitudeMeters>
            <DistanceMeters>565519.2762497</DistanceMeters>
          </Trackpoint>
          <Trackpoint>
            <Time>2021-08-03T16:36:45Z</Time>
            <Position>
              <LatitudeDegrees>40.951188</LatitudeDegrees>
              <LongitudeDegrees>-1.312116</LongitudeDegrees>
            </Position>
            <AltitudeMeters>873.073</AltitudeMeters>
            <DistanceMeters>565524.91734795</DistanceMeters>
          </Trackpoint>
          <Trackpoint>
            <Time>2021-08-03T16:36:47Z</Time>
            <Position>
              <LatitudeDegrees>40.951096</LatitudeDegrees>
              <LongitudeDegrees>-1.312104</LongitudeDegrees>
            </Position>
            <AltitudeMeters>873.451</AltitudeMeters>
            <DistanceMeters>565535.20659555</DistanceMeters>
          </Trackpoint>
          <Trackpoint>
            <Time>2021-08-03T16:36:49Z</Time>
            <Position>
              <LatitudeDegrees>40.951013</LatitudeDegrees>
              <LongitudeDegrees>-1.312097</LongitudeDegrees>
            </Position>
            <AltitudeMeters>873.576</AltitudeMeters>
            <DistanceMeters>565544.46329017</DistanceMeters>
          </Trackpoint>
          <Trackpoint>
            <Time>2021-08-03T16:36:51Z</Time>
            <Position>
              <LatitudeDegrees>40.950926</LatitudeDegrees>
              <LongitudeDegrees>-1.312099</LongitudeDegrees>
            </Position>
            <AltitudeMeters>873.511</AltitudeMeters>
            <DistanceMeters>565554.14809291</DistanceMeters>
          </Trackpoint>
          <Trackpoint>
            <Time>2021-08-03T16:36:53Z</Time>
            <Position>
              <LatitudeDegrees>40.950832</LatitudeDegrees>
              <LongitudeDegrees>-1.312096</LongitudeDegrees>
            </Position>
            <AltitudeMeters>873.442</AltitudeMeters>
            <DistanceMeters>565564.61311881</DistanceMeters>
          </Trackpoint>
          <Trackpoint>
            <Time>2021-08-03T16:36:55Z</Time>
            <Position>
              <LatitudeDegrees>40.950730</LatitudeDegrees>
              <LongitudeDegrees>-1.312067</LongitudeDegrees>
            </Position>
            <AltitudeMeters>873.394</AltitudeMeters>
            <DistanceMeters>565576.22466786</DistanceMeters>
          </Trackpoint>
          <Trackpoint>
            <Time>2021-08-03T16:36:57Z</Time>
            <Position>
              <LatitudeDegrees>40.950630</LatitudeDegrees>
              <LongitudeDegrees>-1.312030</LongitudeDegrees>
            </Position>
            <AltitudeMeters>873.357</AltitudeMeters>
            <DistanceMeters>565587.78126038</DistanceMeters>
          </Trackpoint>
          <Trackpoint>
            <Time>2021-08-03T16:36:59Z</Time>
            <Position>
              <LatitudeDegrees>40.950549</LatitudeDegrees>
              <LongitudeDegrees>-1.312003</LongitudeDegrees>
            </Position>
            <AltitudeMeters>873.422</AltitudeMeters>
            <DistanceMeters>565597.07835088</DistanceMeters>
          </Trackpoint>
          <Trackpoint>
            <Time>2021-08-03T16:37:01Z</Time>
            <Position>
              <LatitudeDegrees>40.950458</LatitudeDegrees>
              <LongitudeDegrees>-1.311970</LongitudeDegrees>
            </Position>
            <AltitudeMeters>873.808</AltitudeMeters>
            <DistanceMeters>565607.57955526</DistanceMeters>
          </Trackpoint>
          <Trackpoint>
            <Time>2021-08-03T16:37:02Z</Time>
            <Position>
              <LatitudeDegrees>40.950412</LatitudeDegrees>
              <LongitudeDegrees>-1.311960</LongitudeDegrees>
            </Position>
            <AltitudeMeters>874.096</AltitudeMeters>
            <DistanceMeters>565612.76700433</DistanceMeters>
          </Trackpoint>
          <Trackpoint>
            <Time>2021-08-03T16:37:04Z</Time>
            <Position>
              <LatitudeDegrees>40.950324</LatitudeDegrees>
              <LongitudeDegrees>-1.311943</LongitudeDegrees>
            </Position>
            <AltitudeMeters>874.118</AltitudeMeters>
            <DistanceMeters>565622.66530365</DistanceMeters>
          </Trackpoint>
          <Trackpoint>
            <Time>2021-08-03T16:37:06Z</Time>
            <Position>
              <LatitudeDegrees>40.950248</LatitudeDegrees>
              <LongitudeDegrees>-1.311921</LongitudeDegrees>
            </Position>
            <AltitudeMeters>874.148</AltitudeMeters>
            <DistanceMeters>565631.3247352</DistanceMeters>
          </Trackpoint>
          <Trackpoint>
            <Time>2021-08-03T16:37:07Z</Time>
            <Position>
              <LatitudeDegrees>40.950195</LatitudeDegrees>
              <LongitudeDegrees>-1.311903</LongitudeDegrees>
            </Position>
            <AltitudeMeters>874.321</AltitudeMeters>
            <DistanceMeters>565637.41386435</DistanceMeters>
          </Trackpoint>
          <Trackpoint>
            <Time>2021-08-03T16:37:09Z</Time>
            <Position>
              <LatitudeDegrees>40.950109</LatitudeDegrees>
              <LongitudeDegrees>-1.311876</LongitudeDegrees>
            </Position>
            <AltitudeMeters>874.699</AltitudeMeters>
            <DistanceMeters>565647.25085064</DistanceMeters>
          </Trackpoint>
          <Trackpoint>
            <Time>2021-08-03T16:37:11Z</Time>
            <Position>
              <LatitudeDegrees>40.950035</LatitudeDegrees>
              <LongitudeDegrees>-1.311859</LongitudeDegrees>
            </Position>
            <AltitudeMeters>874.754</AltitudeMeters>
            <DistanceMeters>565655.60996133</DistanceMeters>
          </Trackpoint>
          <Trackpoint>
            <Time>2021-08-03T16:37:13Z</Time>
            <Position>
              <LatitudeDegrees>40.949953</LatitudeDegrees>
              <LongitudeDegrees>-1.311831</LongitudeDegrees>
            </Position>
            <AltitudeMeters>874.749</AltitudeMeters>
            <DistanceMeters>565665.03534684</DistanceMeters>
          </Trackpoint>
          <Trackpoint>
            <Time>2021-08-03T16:37:15Z</Time>
            <Position>
              <LatitudeDegrees>40.949864</LatitudeDegrees>
              <LongitudeDegrees>-1.311818</LongitudeDegrees>
            </Position>
            <AltitudeMeters>874.580</AltitudeMeters>
            <DistanceMeters>565675.00137969</DistanceMeters>
          </Trackpoint>
          <Trackpoint>
            <Time>2021-08-03T16:37:16Z</Time>
            <Position>
              <LatitudeDegrees>40.949817</LatitudeDegrees>
              <LongitudeDegrees>-1.311818</LongitudeDegrees>
            </Position>
            <AltitudeMeters>874.517</AltitudeMeters>
            <DistanceMeters>565680.23389264</DistanceMeters>
          </Trackpoint>
          <Trackpoint>
            <Time>2021-08-03T16:37:18Z</Time>
            <Position>
              <LatitudeDegrees>40.949710</LatitudeDegrees>
              <LongitudeDegrees>-1.311825</LongitudeDegrees>
            </Position>
            <AltitudeMeters>874.387</AltitudeMeters>
            <DistanceMeters>565692.15737886</DistanceMeters>
          </Trackpoint>
          <Trackpoint>
            <Time>2021-08-03T16:37:19Z</Time>
            <Position>
              <LatitudeDegrees>40.949660</LatitudeDegrees>
              <LongitudeDegrees>-1.311825</LongitudeDegrees>
            </Position>
            <AltitudeMeters>873.815</AltitudeMeters>
            <DistanceMeters>565697.7227326</DistanceMeters>
          </Trackpoint>
          <Trackpoint>
            <Time>2021-08-03T16:37:21Z</Time>
            <Position>
              <LatitudeDegrees>40.949539</LatitudeDegrees>
              <LongitudeDegrees>-1.311821</LongitudeDegrees>
            </Position>
            <AltitudeMeters>873.008</AltitudeMeters>
            <DistanceMeters>565711.19442426</DistanceMeters>
          </Trackpoint>
          <Trackpoint>
            <Time>2021-08-03T16:37:22Z</Time>
            <Position>
              <LatitudeDegrees>40.949480</LatitudeDegrees>
              <LongitudeDegrees>-1.311808</LongitudeDegrees>
            </Position>
            <AltitudeMeters>871.938</AltitudeMeters>
            <DistanceMeters>565717.8503656</DistanceMeters>
          </Trackpoint>
          <Trackpoint>
            <Time>2021-08-03T16:37:24Z</Time>
            <Position>
              <LatitudeDegrees>40.949380</LatitudeDegrees>
              <LongitudeDegrees>-1.311736</LongitudeDegrees>
            </Position>
            <AltitudeMeters>871.520</AltitudeMeters>
            <DistanceMeters>565730.51996065</DistanceMeters>
          </Trackpoint>
          <Trackpoint>
            <Time>2021-08-03T16:37:25Z</Time>
            <Position>
              <LatitudeDegrees>40.949340</LatitudeDegrees>
              <LongitudeDegrees>-1.311683</LongitudeDegrees>
            </Position>
            <AltitudeMeters>871.540</AltitudeMeters>
            <DistanceMeters>565736.81902057</DistanceMeters>
          </Trackpoint>
          <Trackpoint>
            <Time>2021-08-03T16:37:27Z</Time>
            <Position>
              <LatitudeDegrees>40.949272</LatitudeDegrees>
              <LongitudeDegrees>-1.311582</LongitudeDegrees>
            </Position>
            <AltitudeMeters>871.833</AltitudeMeters>
            <DistanceMeters>565748.19288865</DistanceMeters>
          </Trackpoint>
          <Trackpoint>
            <Time>2021-08-03T16:37:28Z</Time>
            <Position>
              <LatitudeDegrees>40.949237</LatitudeDegrees>
              <LongitudeDegrees>-1.311540</LongitudeDegrees>
            </Position>
            <AltitudeMeters>872.221</AltitudeMeters>
            <DistanceMeters>565753.45036562</DistanceMeters>
          </Trackpoint>
          <Trackpoint>
            <Time>2021-08-03T16:37:30Z</Time>
            <Position>
              <LatitudeDegrees>40.949162</LatitudeDegrees>
              <LongitudeDegrees>-1.311457</LongitudeDegrees>
            </Position>
            <AltitudeMeters>872.926</AltitudeMeters>
            <DistanceMeters>565764.32957569</DistanceMeters>
          </Trackpoint>
          <Trackpoint>
            <Time>2021-08-03T16:37:31Z</Time>
            <Position>
              <LatitudeDegrees>40.949121</LatitudeDegrees>
              <LongitudeDegrees>-1.311420</LongitudeDegrees>
            </Position>
            <AltitudeMeters>873.021</AltitudeMeters>
            <DistanceMeters>565769.8517644</DistanceMeters>
          </Trackpoint>
          <Trackpoint>
            <Time>2021-08-03T16:37:32Z</Time>
            <Position>
              <LatitudeDegrees>40.949080</LatitudeDegrees>
              <LongitudeDegrees>-1.311388</LongitudeDegrees>
            </Position>
            <AltitudeMeters>873.052</AltitudeMeters>
            <DistanceMeters>565775.14945046</DistanceMeters>
          </Trackpoint>
          <Trackpoint>
            <Time>2021-08-03T16:37:34Z</Time>
            <Position>
              <LatitudeDegrees>40.948988</LatitudeDegrees>
              <LongitudeDegrees>-1.311333</LongitudeDegrees>
            </Position>
            <AltitudeMeters>873.077</AltitudeMeters>
            <DistanceMeters>565786.38472699</DistanceMeters>
          </Trackpoint>
          <Trackpoint>
            <Time>2021-08-03T16:37:35Z</Time>
            <Position>
              <LatitudeDegrees>40.948940</LatitudeDegrees>
              <LongitudeDegrees>-1.311310</LongitudeDegrees>
            </Position>
            <AltitudeMeters>872.961</AltitudeMeters>
            <DistanceMeters>565792.06570342</DistanceMeters>
          </Trackpoint>
          <Trackpoint>
            <Time>2021-08-03T16:37:37Z</Time>
            <Position>
              <LatitudeDegrees>40.948853</LatitudeDegrees>
              <LongitudeDegrees>-1.311256</LongitudeDegrees>
            </Position>
            <AltitudeMeters>872.827</AltitudeMeters>
            <DistanceMeters>565802.76032582</DistanceMeters>
          </Trackpoint>
          <Trackpoint>
            <Time>2021-08-03T16:37:39Z</Time>
            <Position>
              <LatitudeDegrees>40.948769</LatitudeDegrees>
              <LongitudeDegrees>-1.311183</LongitudeDegrees>
            </Position>
            <AltitudeMeters>872.808</AltitudeMeters>
            <DistanceMeters>565813.94404563</DistanceMeters>
          </Trackpoint>
          <Trackpoint>
            <Time>2021-08-03T16:37:41Z</Time>
            <Position>
              <LatitudeDegrees>40.948712</LatitudeDegrees>
              <LongitudeDegrees>-1.311139</LongitudeDegrees>
            </Position>
            <AltitudeMeters>873.034</AltitudeMeters>
            <DistanceMeters>565821.28758814</DistanceMeters>
          </Trackpoint>
          <Trackpoint>
            <Time>2021-08-03T16:37:42Z</Time>
            <Position>
              <LatitudeDegrees>40.948617</LatitudeDegrees>
              <LongitudeDegrees>-1.311070</LongitudeDegrees>
            </Position>
            <AltitudeMeters>873.086</AltitudeMeters>
            <DistanceMeters>565833.34774739</DistanceMeters>
          </Trackpoint>
          <Trackpoint>
            <Time>2021-08-03T16:37:43Z</Time>
            <Position>
              <LatitudeDegrees>40.948565</LatitudeDegrees>
              <LongitudeDegrees>-1.311003</LongitudeDegrees>
            </Position>
            <AltitudeMeters>873.066</AltitudeMeters>
            <DistanceMeters>565841.423341</DistanceMeters>
          </Trackpoint>
          <Trackpoint>
            <Time>2021-08-03T16:37:45Z</Time>
            <Position>
              <LatitudeDegrees>40.948501</LatitudeDegrees>
              <LongitudeDegrees>-1.310938</LongitudeDegrees>
            </Position>
            <AltitudeMeters>873.029</AltitudeMeters>
            <DistanceMeters>565850.40072549</DistanceMeters>
          </Trackpoint>
          <Trackpoint>
            <Time>2021-08-03T16:37:47Z</Time>
            <Position>
              <LatitudeDegrees>40.948432</LatitudeDegrees>
              <LongitudeDegrees>-1.310874</LongitudeDegrees>
            </Position>
            <AltitudeMeters>873.047</AltitudeMeters>
            <DistanceMeters>565859.77808569</DistanceMeters>
          </Trackpoint>
          <Trackpoint>
            <Time>2021-08-03T16:37:49Z</Time>
            <Position>
              <LatitudeDegrees>40.948347</LatitudeDegrees>
              <LongitudeDegrees>-1.310806</LongitudeDegrees>
            </Position>
            <AltitudeMeters>873.052</AltitudeMeters>
            <DistanceMeters>565870.83186171</DistanceMeters>
          </Trackpoint>
          <Trackpoint>
            <Time>2021-08-03T16:37:51Z</Time>
            <Position>
              <LatitudeDegrees>40.948260</LatitudeDegrees>
              <LongitudeDegrees>-1.310752</LongitudeDegrees>
            </Position>
            <AltitudeMeters>873.187</AltitudeMeters>
            <DistanceMeters>565881.52648411</DistanceMeters>
          </Trackpoint>
          <Trackpoint>
            <Time>2021-08-03T16:37:52Z</Time>
            <Position>
              <LatitudeDegrees>40.948217</LatitudeDegrees>
              <LongitudeDegrees>-1.310724</LongitudeDegrees>
            </Position>
            <AltitudeMeters>873.288</AltitudeMeters>
            <DistanceMeters>565886.86069173</DistanceMeters>
          </Trackpoint>
          <Trackpoint>
            <Time>2021-08-03T16:37:54Z</Time>
            <Position>
              <LatitudeDegrees>40.948133</LatitudeDegrees>
              <LongitudeDegrees>-1.310665</LongitudeDegrees>
            </Position>
            <AltitudeMeters>873.579</AltitudeMeters>
            <DistanceMeters>565897.4441254</DistanceMeters>
          </Trackpoint>
          <Trackpoint>
            <Time>2021-08-03T16:37:56Z</Time>
            <Position>
              <LatitudeDegrees>40.948055</LatitudeDegrees>
              <LongitudeDegrees>-1.310605</LongitudeDegrees>
            </Position>
            <AltitudeMeters>873.805</AltitudeMeters>
            <DistanceMeters>565907.48463203</DistanceMeters>
          </Trackpoint>
          <Trackpoint>
            <Time>2021-08-03T16:37:57Z</Time>
            <Position>
              <LatitudeDegrees>40.948016</LatitudeDegrees>
              <LongitudeDegrees>-1.310573</LongitudeDegrees>
            </Position>
            <AltitudeMeters>873.925</AltitudeMeters>
            <DistanceMeters>565912.59137862</DistanceMeters>
          </Trackpoint>
          <Trackpoint>
            <Time>2021-08-03T16:37:59Z</Time>
            <Position>
              <LatitudeDegrees>40.947953</LatitudeDegrees>
              <LongitudeDegrees>-1.310510</LongitudeDegrees>
            </Position>
            <AltitudeMeters>874.408</AltitudeMeters>
            <DistanceMeters>565921.37865258</DistanceMeters>
          </Trackpoint>
          <Trackpoint>
            <Time>2021-08-03T16:38:01Z</Time>
            <Position>
              <LatitudeDegrees>40.947917</LatitudeDegrees>
              <LongitudeDegrees>-1.310452</LongitudeDegrees>
            </Position>
            <AltitudeMeters>874.584</AltitudeMeters>
            <DistanceMeters>565927.689886</DistanceMeters>
          </Trackpoint>
          <Trackpoint>
            <Time>2021-08-03T16:38:02Z</Time>
            <Position>
              <LatitudeDegrees>40.947889</LatitudeDegrees>
              <LongitudeDegrees>-1.310399</LongitudeDegrees>
            </Position>
            <AltitudeMeters>874.766</AltitudeMeters>
            <DistanceMeters>565933.12720797</DistanceMeters>
          </Trackpoint>
          <Trackpoint>
            <Time>2021-08-03T16:38:03Z</Time>
            <Position>
              <LatitudeDegrees>40.947862</LatitudeDegrees>
              <LongitudeDegrees>-1.310347</LongitudeDegrees>
            </Position>
            <AltitudeMeters>875.136</AltitudeMeters>
            <DistanceMeters>565938.43255888</DistanceMeters>
          </Trackpoint>
          <Trackpoint>
            <Time>2021-08-03T16:38:05Z</Time>
            <Position>
              <LatitudeDegrees>40.947832</LatitudeDegrees>
              <LongitudeDegrees>-1.310272</LongitudeDegrees>
            </Position>
            <AltitudeMeters>875.729</AltitudeMeters>
            <DistanceMeters>565945.56652768</DistanceMeters>
          </Trackpoint>
          <Trackpoint>
            <Time>2021-08-03T16:38:07Z</Time>
            <Position>
              <LatitudeDegrees>40.947783</LatitudeDegrees>
              <LongitudeDegrees>-1.310162</LongitudeDegrees>
            </Position>
            <AltitudeMeters>875.777</AltitudeMeters>
            <DistanceMeters>565956.30244384</DistanceMeters>
          </Trackpoint>
          <Trackpoint>
            <Time>2021-08-03T16:38:09Z</Time>
            <Position>
              <LatitudeDegrees>40.947732</LatitudeDegrees>
              <LongitudeDegrees>-1.310064</LongitudeDegrees>
            </Position>
            <AltitudeMeters>875.812</AltitudeMeters>
            <DistanceMeters>565966.3073625</DistanceMeters>
          </Trackpoint>
          <Trackpoint>
            <Time>2021-08-03T16:38:10Z</Time>
            <Position>
              <LatitudeDegrees>40.947700</LatitudeDegrees>
              <LongitudeDegrees>-1.310020</LongitudeDegrees>
            </Position>
            <AltitudeMeters>875.757</AltitudeMeters>
            <DistanceMeters>565971.44232338</DistanceMeters>
          </Trackpoint>
          <Trackpoint>
            <Time>2021-08-03T16:38:12Z</Time>
            <Position>
              <LatitudeDegrees>40.947660</LatitudeDegrees>
              <LongitudeDegrees>-1.309965</LongitudeDegrees>
            </Position>
            <AltitudeMeters>875.788</AltitudeMeters>
            <DistanceMeters>565977.86207952</DistanceMeters>
          </Trackpoint>
          <Trackpoint>
            <Time>2021-08-03T16:38:14Z</Time>
            <Position>
              <LatitudeDegrees>40.947584</LatitudeDegrees>
              <LongitudeDegrees>-1.309885</LongitudeDegrees>
            </Position>
            <AltitudeMeters>875.764</AltitudeMeters>
            <DistanceMeters>565988.66883567</DistanceMeters>
          </Trackpoint>
          <Trackpoint>
            <Time>2021-08-03T16:38:16Z</Time>
            <Position>
              <LatitudeDegrees>40.947478</LatitudeDegrees>
              <LongitudeDegrees>-1.309796</LongitudeDegrees>
            </Position>
            <AltitudeMeters>875.506</AltitudeMeters>
            <DistanceMeters>566002.63937869</DistanceMeters>
          </Trackpoint>
          <Trackpoint>
            <Time>2021-08-03T16:38:18Z</Time>
            <Position>
              <LatitudeDegrees>40.947382</LatitudeDegrees>
              <LongitudeDegrees>-1.309715</LongitudeDegrees>
            </Position>
            <AltitudeMeters>874.516</AltitudeMeters>
            <DistanceMeters>566015.30968646</DistanceMeters>
          </Trackpoint>
          <Trackpoint>
            <Time>2021-08-03T16:38:19Z</Time>
            <Position>
              <LatitudeDegrees>40.947337</LatitudeDegrees>
              <LongitudeDegrees>-1.309676</LongitudeDegrees>
            </Position>
            <AltitudeMeters>874.108</AltitudeMeters>
            <DistanceMeters>566021.2971236</DistanceMeters>
          </Trackpoint>
          <Trackpoint>
            <Time>2021-08-03T16:38:21Z</Time>
            <Position>
              <LatitudeDegrees>40.947257</LatitudeDegrees>
              <LongitudeDegrees>-1.309594</LongitudeDegrees>
            </Position>
            <AltitudeMeters>873.623</AltitudeMeters>
            <DistanceMeters>566032.55849091</DistanceMeters>
          </Trackpoint>
          <Trackpoint>
            <Time>2021-08-03T16:38:22Z</Time>
            <Position>
              <LatitudeDegrees>40.947218</LatitudeDegrees>
              <LongitudeDegrees>-1.309550</LongitudeDegrees>
            </Position>
            <AltitudeMeters>873.665</AltitudeMeters>
            <DistanceMeters>566038.26167733</DistanceMeters>
          </Trackpoint>
          <Trackpoint>
            <Time>2021-08-03T16:38:24Z</Time>
            <Position>
              <LatitudeDegrees>40.947147</LatitudeDegrees>
              <LongitudeDegrees>-1.309465</LongitudeDegrees>
            </Position>
            <AltitudeMeters>873.625</AltitudeMeters>
            <DistanceMeters>566048.91569351</DistanceMeters>
          </Trackpoint>
          <Trackpoint>
            <Time>2021-08-03T16:38:25Z</Time>
            <Position>
              <LatitudeDegrees>40.947113</LatitudeDegrees>
              <LongitudeDegrees>-1.309417</LongitudeDegrees>
            </Position>
            <AltitudeMeters>873.668</AltitudeMeters>
            <DistanceMeters>566054.4468687</DistanceMeters>
          </Trackpoint>
          <Trackpoint>
            <Time>2021-08-03T16:38:26Z</Time>
            <Position>
              <LatitudeDegrees>40.947082</LatitudeDegrees>
              <LongitudeDegrees>-1.309365</LongitudeDegrees>
            </Position>
            <AltitudeMeters>873.686</AltitudeMeters>
            <DistanceMeters>566060.01627734</DistanceMeters>
          </Trackpoint>
          <Trackpoint>
            <Time>2021-08-03T16:38:27Z</Time>
            <Position>
              <LatitudeDegrees>40.947048</LatitudeDegrees>
              <LongitudeDegrees>-1.309307</LongitudeDegrees>
            </Position>
            <AltitudeMeters>873.671</AltitudeMeters>
            <DistanceMeters>566066.18862637</DistanceMeters>
          </Trackpoint>
          <Trackpoint>
            <Time>2021-08-03T16:38:29Z</Time>
            <Position>
              <LatitudeDegrees>40.946973</LatitudeDegrees>
              <LongitudeDegrees>-1.309207</LongitudeDegrees>
            </Position>
            <AltitudeMeters>873.466</AltitudeMeters>
            <DistanceMeters>566078.03613701</DistanceMeters>
          </Trackpoint>
          <Trackpoint>
            <Time>2021-08-03T16:38:31Z</Time>
            <Position>
              <LatitudeDegrees>40.946894</LatitudeDegrees>
              <LongitudeDegrees>-1.309110</LongitudeDegrees>
            </Position>
            <AltitudeMeters>873.367</AltitudeMeters>
            <DistanceMeters>566090.0283427</DistanceMeters>
          </Trackpoint>
          <Trackpoint>
            <Time>2021-08-03T16:38:32Z</Time>
            <Position>
              <LatitudeDegrees>40.946856</LatitudeDegrees>
              <LongitudeDegrees>-1.309065</LongitudeDegrees>
            </Position>
            <AltitudeMeters>873.245</AltitudeMeters>
            <DistanceMeters>566095.70295745</DistanceMeters>
          </Trackpoint>
          <Trackpoint>
            <Time>2021-08-03T16:38:34Z</Time>
            <Position>
              <LatitudeDegrees>40.946781</LatitudeDegrees>
              <LongitudeDegrees>-1.308985</LongitudeDegrees>
            </Position>
            <AltitudeMeters>873.347</AltitudeMeters>
            <DistanceMeters>566106.42288063</DistanceMeters>
          </Trackpoint>
          <Trackpoint>
            <Time>2021-08-03T16:38:35Z</Time>
            <Position>
              <LatitudeDegrees>40.946744</LatitudeDegrees>
              <LongitudeDegrees>-1.308945</LongitudeDegrees>
            </Position>
            <AltitudeMeters>873.511</AltitudeMeters>
            <DistanceMeters>566111.73928348</DistanceMeters>
          </Trackpoint>
          <Trackpoint>
            <Time>2021-08-03T16:38:37Z</Time>
            <Position>
              <LatitudeDegrees>40.946673</LatitudeDegrees>
              <LongitudeDegrees>-1.308851</LongitudeDegrees>
            </Position>
            <AltitudeMeters>873.608</AltitudeMeters>
            <DistanceMeters>566122.91452205</DistanceMeters>
          </Trackpoint>
          <Trackpoint>
            <Time>2021-08-03T16:38:38Z</Time>
            <Position>
              <LatitudeDegrees>40.946632</LatitudeDegrees>
              <LongitudeDegrees>-1.308803</LongitudeDegrees>
            </Position>
            <AltitudeMeters>873.681</AltitudeMeters>
            <DistanceMeters>566129.00587528</DistanceMeters>
          </Trackpoint>
          <Trackpoint>
            <Time>2021-08-03T16:38:39Z</Time>
            <Position>
              <LatitudeDegrees>40.946589</LatitudeDegrees>
              <LongitudeDegrees>-1.308762</LongitudeDegrees>
            </Position>
            <AltitudeMeters>873.623</AltitudeMeters>
            <DistanceMeters>566134.90442464</DistanceMeters>
          </Trackpoint>
          <Trackpoint>
            <Time>2021-08-03T16:38:40Z</Time>
            <Position>
              <LatitudeDegrees>40.946548</LatitudeDegrees>
              <LongitudeDegrees>-1.308720</LongitudeDegrees>
            </Position>
            <AltitudeMeters>873.643</AltitudeMeters>
            <DistanceMeters>566140.67451059</DistanceMeters>
          </Trackpoint>
          <Trackpoint>
            <Time>2021-08-03T16:38:42Z</Time>
            <Position>
              <LatitudeDegrees>40.946473</LatitudeDegrees>
              <LongitudeDegrees>-1.308631</LongitudeDegrees>
            </Position>
            <AltitudeMeters>873.636</AltitudeMeters>
            <DistanceMeters>566151.88444117</DistanceMeters>
          </Trackpoint>
          <Trackpoint>
            <Time>2021-08-03T16:38:43Z</Time>
            <Position>
              <LatitudeDegrees>40.946436</LatitudeDegrees>
              <LongitudeDegrees>-1.308585</LongitudeDegrees>
            </Position>
            <AltitudeMeters>873.694</AltitudeMeters>
            <DistanceMeters>566157.53193885</DistanceMeters>
          </Trackpoint>
          <Trackpoint>
            <Time>2021-08-03T16:38:45Z</Time>
            <Position>
              <LatitudeDegrees>40.946378</LatitudeDegrees>
              <LongitudeDegrees>-1.308495</LongitudeDegrees>
            </Position>
            <AltitudeMeters>873.819</AltitudeMeters>
            <DistanceMeters>566167.47756389</DistanceMeters>
          </Trackpoint>
          <Trackpoint>
            <Time>2021-08-03T16:38:47Z</Time>
            <Position>
              <LatitudeDegrees>40.946336</LatitudeDegrees>
              <LongitudeDegrees>-1.308390</LongitudeDegrees>
            </Position>
            <AltitudeMeters>873.924</AltitudeMeters>
            <DistanceMeters>566177.46622319</DistanceMeters>
          </Trackpoint>
          <Trackpoint>
            <Time>2021-08-03T16:38:49Z</Time>
            <Position>
              <LatitudeDegrees>40.946282</LatitudeDegrees>
              <LongitudeDegrees>-1.308271</LongitudeDegrees>
            </Position>
            <AltitudeMeters>874.125</AltitudeMeters>
            <DistanceMeters>566189.13711317</DistanceMeters>
          </Trackpoint>
          <Trackpoint>
            <Time>2021-08-03T16:38:50Z</Time>
            <Position>
              <LatitudeDegrees>40.946257</LatitudeDegrees>
              <LongitudeDegrees>-1.308217</LongitudeDegrees>
            </Position>
            <AltitudeMeters>874.243</AltitudeMeters>
            <DistanceMeters>566194.46115393</DistanceMeters>
          </Trackpoint>
          <Trackpoint>
            <Time>2021-08-03T16:38:52Z</Time>
            <Position>
              <LatitudeDegrees>40.946206</LatitudeDegrees>
              <LongitudeDegrees>-1.308074</LongitudeDegrees>
            </Position>
            <AltitudeMeters>874.264</AltitudeMeters>
            <DistanceMeters>566207.7560671</DistanceMeters>
          </Trackpoint>
          <Trackpoint>
            <Time>2021-08-03T16:38:54Z</Time>
            <Position>
              <LatitudeDegrees>40.946173</LatitudeDegrees>
              <LongitudeDegrees>-1.307998</LongitudeDegrees>
            </Position>
            <AltitudeMeters>874.210</AltitudeMeters>
            <DistanceMeters>566215.12538727</DistanceMeters>
          </Trackpoint>
          <Trackpoint>
            <Time>2021-08-03T16:38:56Z</Time>
            <Position>
              <LatitudeDegrees>40.946123</LatitudeDegrees>
              <LongitudeDegrees>-1.307893</LongitudeDegrees>
            </Position>
            <AltitudeMeters>874.108</AltitudeMeters>
            <DistanceMeters>566225.56016862</DistanceMeters>
          </Trackpoint>
          <Trackpoint>
            <Time>2021-08-03T16:38:58Z</Time>
            <Position>
              <LatitudeDegrees>40.946077</LatitudeDegrees>
              <LongitudeDegrees>-1.307791</LongitudeDegrees>
            </Position>
            <AltitudeMeters>874.111</AltitudeMeters>
            <DistanceMeters>566235.54747178</DistanceMeters>
          </Trackpoint>
          <Trackpoint>
            <Time>2021-08-03T16:38:59Z</Time>
            <Position>
              <LatitudeDegrees>40.946047</LatitudeDegrees>
              <LongitudeDegrees>-1.307740</LongitudeDegrees>
            </Position>
            <AltitudeMeters>874.133</AltitudeMeters>
            <DistanceMeters>566240.98230205</DistanceMeters>
          </Trackpoint>
          <Trackpoint>
            <Time>2021-08-03T16:39:00Z</Time>
            <Position>
              <LatitudeDegrees>40.946025</LatitudeDegrees>
              <LongitudeDegrees>-1.307688</LongitudeDegrees>
            </Position>
            <AltitudeMeters>874.233</AltitudeMeters>
            <DistanceMeters>566245.99265258</DistanceMeters>
          </Trackpoint>
          <Trackpoint>
            <Time>2021-08-03T16:39:01Z</Time>
            <Position>
              <LatitudeDegrees>40.946006</LatitudeDegrees>
              <LongitudeDegrees>-1.307634</LongitudeDegrees>
            </Position>
            <AltitudeMeters>874.416</AltitudeMeters>
            <DistanceMeters>566251.00120051</DistanceMeters>
          </Trackpoint>
          <Trackpoint>
            <Time>2021-08-03T16:39:03Z</Time>
            <Position>
              <LatitudeDegrees>40.945962</LatitudeDegrees>
              <LongitudeDegrees>-1.307530</LongitudeDegrees>
            </Position>
            <AltitudeMeters>874.514</AltitudeMeters>
            <DistanceMeters>566261.02280269</DistanceMeters>
          </Trackpoint>
          <Trackpoint>
            <Time>2021-08-03T16:39:05Z</Time>
            <Position>
              <LatitudeDegrees>40.945916</LatitudeDegrees>
              <LongitudeDegrees>-1.307442</LongitudeDegrees>
            </Position>
            <AltitudeMeters>874.669</AltitudeMeters>
            <DistanceMeters>566270.02028208</DistanceMeters>
          </Trackpoint>
          <Trackpoint>
            <Time>2021-08-03T16:39:07Z</Time>
            <Position>
              <LatitudeDegrees>40.945876</LatitudeDegrees>
              <LongitudeDegrees>-1.307358</LongitudeDegrees>
            </Position>
            <AltitudeMeters>874.634</AltitudeMeters>
            <DistanceMeters>566278.3685831</DistanceMeters>
          </Trackpoint>
          <Trackpoint>
            <Time>2021-08-03T16:39:09Z</Time>
            <Position>
              <LatitudeDegrees>40.945833</LatitudeDegrees>
              <LongitudeDegrees>-1.307275</LongitudeDegrees>
            </Position>
            <AltitudeMeters>875.085</AltitudeMeters>
            <DistanceMeters>566286.82969686</DistanceMeters>
          </Trackpoint>
          <Trackpoint>
            <Time>2021-08-03T16:39:11Z</Time>
            <Position>
              <LatitudeDegrees>40.945784</LatitudeDegrees>
              <LongitudeDegrees>-1.307184</LongitudeDegrees>
            </Position>
            <AltitudeMeters>875.094</AltitudeMeters>
            <DistanceMeters>566296.22437446</DistanceMeters>
          </Trackpoint>
          <Trackpoint>
            <Time>2021-08-03T16:39:13Z</Time>
            <Position>
              <LatitudeDegrees>40.945731</LatitudeDegrees>
              <LongitudeDegrees>-1.307083</LongitudeDegrees>
            </Position>
            <AltitudeMeters>874.757</AltitudeMeters>
            <DistanceMeters>566306.56265211</DistanceMeters>
          </Trackpoint>
          <Trackpoint>
            <Time>2021-08-03T16:39:15Z</Time>
            <Position>
              <LatitudeDegrees>40.945671</LatitudeDegrees>
              <LongitudeDegrees>-1.306986</LongitudeDegrees>
            </Position>
            <AltitudeMeters>874.522</AltitudeMeters>
            <DistanceMeters>566317.10248135</DistanceMeters>
          </Trackpoint>
          <Trackpoint>
            <Time>2021-08-03T16:39:17Z</Time>
            <Position>
              <LatitudeDegrees>40.945599</LatitudeDegrees>
              <LongitudeDegrees>-1.306898</LongitudeDegrees>
            </Position>
            <AltitudeMeters>874.208</AltitudeMeters>
            <DistanceMeters>566328.00863406</DistanceMeters>
          </Trackpoint>
          <Trackpoint>
            <Time>2021-08-03T16:39:19Z</Time>
            <Position>
              <LatitudeDegrees>40.945511</LatitudeDegrees>
              <LongitudeDegrees>-1.306827</LongitudeDegrees>
            </Position>
            <AltitudeMeters>873.796</AltitudeMeters>
            <DistanceMeters>566339.47895288</DistanceMeters>
          </Trackpoint>
          <Trackpoint>
            <Time>2021-08-03T16:39:21Z</Time>
            <Position>
              <LatitudeDegrees>40.945422</LatitudeDegrees>
              <LongitudeDegrees>-1.306762</LongitudeDegrees>
            </Position>
            <AltitudeMeters>873.498</AltitudeMeters>
            <DistanceMeters>566350.79232123</DistanceMeters>
          </Trackpoint>
          <Trackpoint>
            <Time>2021-08-03T16:39:23Z</Time>
            <Position>
              <LatitudeDegrees>40.945325</LatitudeDegrees>
              <LongitudeDegrees>-1.306696</LongitudeDegrees>
            </Position>
            <AltitudeMeters>873.278</AltitudeMeters>
            <DistanceMeters>566362.93047296</DistanceMeters>
          </Trackpoint>
          <Trackpoint>
            <Time>2021-08-03T16:39:24Z</Time>
            <Position>
              <LatitudeDegrees>40.945277</LatitudeDegrees>
              <LongitudeDegrees>-1.306664</LongitudeDegrees>
            </Position>
            <AltitudeMeters>873.191</AltitudeMeters>
            <DistanceMeters>566368.91262917</DistanceMeters>
          </Trackpoint>
          <Trackpoint>
            <Time>2021-08-03T16:39:26Z</Time>
            <Position>
              <LatitudeDegrees>40.945178</LatitudeDegrees>
              <LongitudeDegrees>-1.306593</LongitudeDegrees>
            </Position>
            <AltitudeMeters>873.159</AltitudeMeters>
            <DistanceMeters>566381.4442715</DistanceMeters>
          </Trackpoint>
          <Trackpoint>
            <Time>2021-08-03T16:39:27Z</Time>
            <Position>
              <LatitudeDegrees>40.945132</LatitudeDegrees>
              <LongitudeDegrees>-1.306555</LongitudeDegrees>
            </Position>
            <AltitudeMeters>873.444</AltitudeMeters>
            <DistanceMeters>566387.47828079</DistanceMeters>
          </Trackpoint>
          <Trackpoint>
            <Time>2021-08-03T16:39:29Z</Time>
            <Position>
              <LatitudeDegrees>40.945043</LatitudeDegrees>
              <LongitudeDegrees>-1.306496</LongitudeDegrees>
            </Position>
            <AltitudeMeters>873.619</AltitudeMeters>
            <DistanceMeters>566398.55612981</DistanceMeters>
          </Trackpoint>
          <Trackpoint>
            <Time>2021-08-03T16:39:30Z</Time>
            <Position>
              <LatitudeDegrees>40.944996</LatitudeDegrees>
              <LongitudeDegrees>-1.306469</LongitudeDegrees>
            </Position>
            <AltitudeMeters>873.690</AltitudeMeters>
            <DistanceMeters>566404.25931623</DistanceMeters>
          </Trackpoint>
          <Trackpoint>
            <Time>2021-08-03T16:39:32Z</Time>
            <Position>
              <LatitudeDegrees>40.944921</LatitudeDegrees>
              <LongitudeDegrees>-1.306397</LongitudeDegrees>
            </Position>
            <AltitudeMeters>873.663</AltitudeMeters>
            <DistanceMeters>566414.57091893</DistanceMeters>
          </Trackpoint>
          <Trackpoint>
            <Time>2021-08-03T16:39:33Z</Time>
            <Position>
              <LatitudeDegrees>40.944900</LatitudeDegrees>
              <LongitudeDegrees>-1.306340</LongitudeDegrees>
            </Position>
            <AltitudeMeters>873.644</AltitudeMeters>
            <DistanceMeters>566419.90258665</DistanceMeters>
          </Trackpoint>
          <Trackpoint>
            <Time>2021-08-03T16:39:35Z</Time>
            <Position>
              <LatitudeDegrees>40.944893</LatitudeDegrees>
              <LongitudeDegrees>-1.306215</LongitudeDegrees>
            </Position>
            <AltitudeMeters>873.618</AltitudeMeters>
            <DistanceMeters>566430.4398453</DistanceMeters>
          </Trackpoint>
          <Trackpoint>
            <Time>2021-08-03T16:39:37Z</Time>
            <Position>
              <LatitudeDegrees>40.944896</LatitudeDegrees>
              <LongitudeDegrees>-1.306099</LongitudeDegrees>
            </Position>
            <AltitudeMeters>873.608</AltitudeMeters>
            <DistanceMeters>566440.19710393</DistanceMeters>
          </Trackpoint>
          <Trackpoint>
            <Time>2021-08-03T16:39:39Z</Time>
            <Position>
              <LatitudeDegrees>40.944904</LatitudeDegrees>
              <LongitudeDegrees>-1.306005</LongitudeDegrees>
            </Position>
            <AltitudeMeters>873.883</AltitudeMeters>
            <DistanceMeters>566448.14988051</DistanceMeters>
          </Trackpoint>
          <Trackpoint>
            <Time>2021-08-03T16:39:41Z</Time>
            <Position>
              <LatitudeDegrees>40.944914</LatitudeDegrees>
              <LongitudeDegrees>-1.305916</LongitudeDegrees>
            </Position>
            <AltitudeMeters>874.095</AltitudeMeters>
            <DistanceMeters>566455.71391147</DistanceMeters>
          </Trackpoint>
          <Trackpoint>
            <Time>2021-08-03T16:39:43Z</Time>
            <Position>
              <LatitudeDegrees>40.944920</LatitudeDegrees>
              <LongitudeDegrees>-1.305810</LongitudeDegrees>
            </Position>
            <AltitudeMeters>874.425</AltitudeMeters>
            <DistanceMeters>566464.64996015</DistanceMeters>
          </Trackpoint>
          <Trackpoint>
            <Time>2021-08-03T16:39:45Z</Time>
            <Position>
              <LatitudeDegrees>40.944915</LatitudeDegrees>
              <LongitudeDegrees>-1.305702</LongitudeDegrees>
            </Position>
            <AltitudeMeters>875.048</AltitudeMeters>
            <DistanceMeters>566473.74675192</DistanceMeters>
          </Trackpoint>
          <Trackpoint>
            <Time>2021-08-03T16:39:47Z</Time>
            <Position>
              <LatitudeDegrees>40.944895</LatitudeDegrees>
              <LongitudeDegrees>-1.305598</LongitudeDegrees>
            </Position>
            <AltitudeMeters>875.516</AltitudeMeters>
            <DistanceMeters>566482.7697874</DistanceMeters>
          </Trackpoint>
          <Trackpoint>
            <Time>2021-08-03T16:39:49Z</Time>
            <Position>
              <LatitudeDegrees>40.944853</LatitudeDegrees>
              <LongitudeDegrees>-1.305513</LongitudeDegrees>
            </Position>
            <AltitudeMeters>875.531</AltitudeMeters>
            <DistanceMeters>566491.30951207</DistanceMeters>
          </Trackpoint>
          <Trackpoint>
            <Time>2021-08-03T16:39:51Z</Time>
            <Position>
              <LatitudeDegrees>40.944801</LatitudeDegrees>
              <LongitudeDegrees>-1.305461</LongitudeDegrees>
            </Position>
            <AltitudeMeters>875.346</AltitudeMeters>
            <DistanceMeters>566498.56273379</DistanceMeters>
          </Trackpoint>
          <Trackpoint>
            <Time>2021-08-03T16:39:53Z</Time>
            <Position>
              <LatitudeDegrees>40.944732</LatitudeDegrees>
              <LongitudeDegrees>-1.305401</LongitudeDegrees>
            </Position>
            <AltitudeMeters>875.217</AltitudeMeters>
            <DistanceMeters>566507.75039696</DistanceMeters>
          </Trackpoint>
          <Trackpoint>
            <Time>2021-08-03T16:39:54Z</Time>
            <Position>
              <LatitudeDegrees>40.944695</LatitudeDegrees>
              <LongitudeDegrees>-1.305365</LongitudeDegrees>
            </Position>
            <AltitudeMeters>875.277</AltitudeMeters>
            <DistanceMeters>566512.86067886</DistanceMeters>
          </Trackpoint>
          <Trackpoint>
            <Time>2021-08-03T16:39:56Z</Time>
            <Position>
              <LatitudeDegrees>40.944619</LatitudeDegrees>
              <LongitudeDegrees>-1.305279</LongitudeDegrees>
            </Position>
            <AltitudeMeters>875.361</AltitudeMeters>
            <DistanceMeters>566523.98895224</DistanceMeters>
          </Trackpoint>
          <Trackpoint>
            <Time>2021-08-03T16:39:58Z</Time>
            <Position>
              <LatitudeDegrees>40.944546</LatitudeDegrees>
              <LongitudeDegrees>-1.305183</LongitudeDegrees>
            </Position>
            <AltitudeMeters>875.327</AltitudeMeters>
            <DistanceMeters>566535.44114985</DistanceMeters>
          </Trackpoint>
          <Trackpoint>
            <Time>2021-08-03T16:40:00Z</Time>
            <Position>
              <LatitudeDegrees>40.944474</LatitudeDegrees>
              <LongitudeDegrees>-1.305091</LongitudeDegrees>
            </Position>
            <AltitudeMeters>875.308</AltitudeMeters>
            <DistanceMeters>566546.57834564</DistanceMeters>
          </Trackpoint>
          <Trackpoint>
            <Time>2021-08-03T16:40:01Z</Time>
            <Position>
              <LatitudeDegrees>40.944438</LatitudeDegrees>
              <LongitudeDegrees>-1.305048</LongitudeDegrees>
            </Position>
            <AltitudeMeters>875.324</AltitudeMeters>
            <DistanceMeters>566551.97398893</DistanceMeters>
          </Trackpoint>
          <Trackpoint>
            <Time>2021-08-03T16:40:03Z</Time>
            <Position>
              <LatitudeDegrees>40.944362</LatitudeDegrees>
              <LongitudeDegrees>-1.304972</LongitudeDegrees>
            </Position>
            <AltitudeMeters>875.456</AltitudeMeters>
            <DistanceMeters>566562.57447341</DistanceMeters>
          </Trackpoint>
          <Trackpoint>
            <Time>2021-08-03T16:40:04Z</Time>
            <Position>
              <LatitudeDegrees>40.944323</LatitudeDegrees>
              <LongitudeDegrees>-1.304937</LongitudeDegrees>
            </Position>
            <AltitudeMeters>875.556</AltitudeMeters>
            <DistanceMeters>566567.81905279</DistanceMeters>
          </Trackpoint>
          <Trackpoint>
            <Time>2021-08-03T16:40:06Z</Time>
            <Position>
              <LatitudeDegrees>40.944244</LatitudeDegrees>
              <LongitudeDegrees>-1.304874</LongitudeDegrees>
            </Position>
            <AltitudeMeters>875.749</AltitudeMeters>
            <DistanceMeters>566578.0841374</DistanceMeters>
          </Trackpoint>
          <Trackpoint>
            <Time>2021-08-03T16:40:07Z</Time>
            <Position>
              <LatitudeDegrees>40.944205</LatitudeDegrees>
              <LongitudeDegrees>-1.304844</LongitudeDegrees>
            </Position>
            <AltitudeMeters>876.077</AltitudeMeters>
            <DistanceMeters>566583.10529</DistanceMeters>
          </Trackpoint>
          <Trackpoint>
            <Time>2021-08-03T16:40:09Z</Time>
            <Position>
              <LatitudeDegrees>40.944128</LatitudeDegrees>
              <LongitudeDegrees>-1.304787</LongitudeDegrees>
            </Position>
            <AltitudeMeters>876.272</AltitudeMeters>
            <DistanceMeters>566592.92389968</DistanceMeters>
          </Trackpoint>
          <Trackpoint>
            <Time>2021-08-03T16:40:11Z</Time>
            <Position>
              <LatitudeDegrees>40.944045</LatitudeDegrees>
              <LongitudeDegrees>-1.304721</LongitudeDegrees>
            </Position>
            <AltitudeMeters>876.397</AltitudeMeters>
            <DistanceMeters>566603.70011344</DistanceMeters>
          </Trackpoint>
          <Trackpoint>
            <Time>2021-08-03T16:40:12Z</Time>
            <Position>
              <LatitudeDegrees>40.943999</LatitudeDegrees>
              <LongitudeDegrees>-1.304681</LongitudeDegrees>
            </Position>
            <AltitudeMeters>876.428</AltitudeMeters>
            <DistanceMeters>566609.82473078</DistanceMeters>
          </Trackpoint>
          <Trackpoint>
            <Time>2021-08-03T16:40:14Z</Time>
            <Position>
              <LatitudeDegrees>40.943907</LatitudeDegrees>
              <LongitudeDegrees>-1.304612</LongitudeDegrees>
            </Position>
            <AltitudeMeters>876.797</AltitudeMeters>
            <DistanceMeters>566621.59347381</DistanceMeters>
          </Trackpoint>
          <Trackpoint>
            <Time>2021-08-03T16:40:15Z</Time>
            <Position>
              <LatitudeDegrees>40.943862</LatitudeDegrees>
              <LongitudeDegrees>-1.304582</LongitudeDegrees>
            </Position>
            <AltitudeMeters>876.923</AltitudeMeters>
            <DistanceMeters>566627.20085521</DistanceMeters>
          </Trackpoint>
          <Trackpoint>
            <Time>2021-08-03T16:40:17Z</Time>
            <Position>
              <LatitudeDegrees>40.943768</LatitudeDegrees>
              <LongitudeDegrees>-1.304535</LongitudeDegrees>
            </Position>
            <AltitudeMeters>877.125</AltitudeMeters>
            <DistanceMeters>566638.3841713</DistanceMeters>
          </Trackpoint>
          <Trackpoint>
            <Time>2021-08-03T16:40:19Z</Time>
            <Position>
              <LatitudeDegrees>40.943670</LatitudeDegrees>
              <LongitudeDegrees>-1.304519</LongitudeDegrees>
            </Position>
            <AltitudeMeters>877.108</AltitudeMeters>
            <DistanceMeters>566649.37445349</DistanceMeters>
          </Trackpoint>
          <Trackpoint>
            <Time>2021-08-03T16:40:21Z</Time>
            <Position>
              <LatitudeDegrees>40.943569</LatitudeDegrees>
              <LongitudeDegrees>-1.304525</LongitudeDegrees>
            </Position>
            <AltitudeMeters>877.186</AltitudeMeters>
            <DistanceMeters>566660.62699684</DistanceMeters>
          </Trackpoint>
          <Trackpoint>
            <Time>2021-08-03T16:40:23Z</Time>
            <Position>
              <LatitudeDegrees>40.943476</LatitudeDegrees>
              <LongitudeDegrees>-1.304529</LongitudeDegrees>
            </Position>
            <AltitudeMeters>877.338</AltitudeMeters>
            <DistanceMeters>566670.98360092</DistanceMeters>
          </Trackpoint>
          <Trackpoint>
            <Time>2021-08-03T16:40:25Z</Time>
            <Position>
              <LatitudeDegrees>40.943392</LatitudeDegrees>
              <LongitudeDegrees>-1.304508</LongitudeDegrees>
            </Position>
            <AltitudeMeters>877.748</AltitudeMeters>
            <DistanceMeters>566680.49766873</DistanceMeters>
          </Trackpoint>
          <Trackpoint>
            <Time>2021-08-03T16:40:27Z</Time>
            <Position>
              <LatitudeDegrees>40.943313</LatitudeDegrees>
              <LongitudeDegrees>-1.304454</LongitudeDegrees>
            </Position>
            <AltitudeMeters>877.721</AltitudeMeters>
            <DistanceMeters>566690.39323081</DistanceMeters>
          </Trackpoint>
          <Trackpoint>
            <Time>2021-08-03T16:40:29Z</Time>
            <Position>
              <LatitudeDegrees>40.943241</LatitudeDegrees>
              <LongitudeDegrees>-1.304380</LongitudeDegrees>
            </Position>
            <AltitudeMeters>877.839</AltitudeMeters>
            <DistanceMeters>566700.53841742</DistanceMeters>
          </Trackpoint>
          <Trackpoint>
            <Time>2021-08-03T16:40:31Z</Time>
            <Position>
              <LatitudeDegrees>40.943167</LatitudeDegrees>
              <LongitudeDegrees>-1.304304</LongitudeDegrees>
            </Position>
            <AltitudeMeters>877.824</AltitudeMeters>
            <DistanceMeters>566710.96237587</DistanceMeters>
          </Trackpoint>
          <Trackpoint>
            <Time>2021-08-03T16:40:33Z</Time>
            <Position>
              <LatitudeDegrees>40.943091</LatitudeDegrees>
              <LongitudeDegrees>-1.304233</LongitudeDegrees>
            </Position>
            <AltitudeMeters>877.919</AltitudeMeters>
            <DistanceMeters>566721.3154917</DistanceMeters>
          </Trackpoint>
          <Trackpoint>
            <Time>2021-08-03T16:40:35Z</Time>
            <Position>
              <LatitudeDegrees>40.943012</LatitudeDegrees>
              <LongitudeDegrees>-1.304170</LongitudeDegrees>
            </Position>
            <AltitudeMeters>877.920</AltitudeMeters>
            <DistanceMeters>566731.58101615</DistanceMeters>
          </Trackpoint>
          <Trackpoint>
            <Time>2021-08-03T16:40:37Z</Time>
            <Position>
              <LatitudeDegrees>40.942928</LatitudeDegrees>
              <LongitudeDegrees>-1.304108</LongitudeDegrees>
            </Position>
            <AltitudeMeters>877.976</AltitudeMeters>
            <DistanceMeters>566742.28534424</DistanceMeters>
          </Trackpoint>
          <Trackpoint>
            <Time>2021-08-03T16:40:38Z</Time>
            <Position>
              <LatitudeDegrees>40.942883</LatitudeDegrees>
              <LongitudeDegrees>-1.304076</LongitudeDegrees>
            </Position>
            <AltitudeMeters>877.990</AltitudeMeters>
            <DistanceMeters>566747.97108726</DistanceMeters>
          </Trackpoint>
          <Trackpoint>
            <Time>2021-08-03T16:40:39Z</Time>
            <Position>
              <LatitudeDegrees>40.942840</LatitudeDegrees>
              <LongitudeDegrees>-1.304045</LongitudeDegrees>
            </Position>
            <AltitudeMeters>878.019</AltitudeMeters>
            <DistanceMeters>566753.42167911</DistanceMeters>
          </Trackpoint>
          <Trackpoint>
            <Time>2021-08-03T16:40:41Z</Time>
            <Position>
              <LatitudeDegrees>40.942759</LatitudeDegrees>
              <LongitudeDegrees>-1.303984</LongitudeDegrees>
            </Position>
            <AltitudeMeters>878.208</AltitudeMeters>
            <DistanceMeters>566763.79396578</DistanceMeters>
          </Trackpoint>
          <Trackpoint>
            <Time>2021-08-03T16:40:42Z</Time>
            <Position>
              <LatitudeDegrees>40.942718</LatitudeDegrees>
              <LongitudeDegrees>-1.303949</LongitudeDegrees>
            </Position>
            <AltitudeMeters>878.294</AltitudeMeters>
            <DistanceMeters>566769.2238092</DistanceMeters>
          </Trackpoint>
          <Trackpoint>
            <Time>2021-08-03T16:40:44Z</Time>
            <Position>
              <LatitudeDegrees>40.942624</LatitudeDegrees>
              <LongitudeDegrees>-1.303865</LongitudeDegrees>
            </Position>
            <AltitudeMeters>878.226</AltitudeMeters>
            <DistanceMeters>566781.8469914</DistanceMeters>
          </Trackpoint>
          <Trackpoint>
            <Time>2021-08-03T16:40:45Z</Time>
            <Position>
              <LatitudeDegrees>40.942568</LatitudeDegrees>
              <LongitudeDegrees>-1.303811</LongitudeDegrees>
            </Position>
            <AltitudeMeters>878.116</AltitudeMeters>
            <DistanceMeters>566789.55763491</DistanceMeters>
          </Trackpoint>
          <Trackpoint>
            <Time>2021-08-03T16:40:47Z</Time>
            <Position>
              <LatitudeDegrees>40.942501</LatitudeDegrees>
              <LongitudeDegrees>-1.303743</LongitudeDegrees>
            </Position>
            <AltitudeMeters>877.499</AltitudeMeters>
            <DistanceMeters>566798.95423469</DistanceMeters>
          </Trackpoint>
          <Trackpoint>
            <Time>2021-08-03T16:40:49Z</Time>
            <Position>
              <LatitudeDegrees>40.942383</LatitudeDegrees>
              <LongitudeDegrees>-1.303650</LongitudeDegrees>
            </Position>
            <AltitudeMeters>877.267</AltitudeMeters>
            <DistanceMeters>566814.23906828</DistanceMeters>
          </Trackpoint>
          <Trackpoint>
            <Time>2021-08-03T16:40:50Z</Time>
            <Position>
              <LatitudeDegrees>40.942321</LatitudeDegrees>
              <LongitudeDegrees>-1.303607</LongitudeDegrees>
            </Position>
            <AltitudeMeters>876.722</AltitudeMeters>
            <DistanceMeters>566822.03009991</DistanceMeters>
          </Trackpoint>
          <Trackpoint>
            <Time>2021-08-03T16:40:52Z</Time>
            <Position>
              <LatitudeDegrees>40.942203</LatitudeDegrees>
              <LongitudeDegrees>-1.303565</LongitudeDegrees>
            </Position>
            <AltitudeMeters>876.777</AltitudeMeters>
            <DistanceMeters>566835.63054424</DistanceMeters>
          </Trackpoint>
          <Trackpoint>
            <Time>2021-08-03T16:40:54Z</Time>
            <Position>
              <LatitudeDegrees>40.942096</LatitudeDegrees>
              <LongitudeDegrees>-1.303552</LongitudeDegrees>
            </Position>
            <AltitudeMeters>876.748</AltitudeMeters>
            <DistanceMeters>566847.58994977</DistanceMeters>
          </Trackpoint>
          <Trackpoint>
            <Time>2021-08-03T16:40:55Z</Time>
            <Position>
              <LatitudeDegrees>40.942030</LatitudeDegrees>
              <LongitudeDegrees>-1.303537</LongitudeDegrees>
            </Position>
            <AltitudeMeters>876.792</AltitudeMeters>
            <DistanceMeters>566855.0433403</DistanceMeters>
          </Trackpoint>
          <Trackpoint>
            <Time>2021-08-03T16:40:56Z</Time>
            <Position>
              <LatitudeDegrees>40.941967</LatitudeDegrees>
              <LongitudeDegrees>-1.303515</LongitudeDegrees>
            </Position>
            <AltitudeMeters>876.773</AltitudeMeters>
            <DistanceMeters>566862.29531694</DistanceMeters>
          </Trackpoint>
          <Trackpoint>
            <Time>2021-08-03T16:40:58Z</Time>
            <Position>
              <LatitudeDegrees>40.941870</LatitudeDegrees>
              <LongitudeDegrees>-1.303473</LongitudeDegrees>
            </Position>
            <AltitudeMeters>876.820</AltitudeMeters>
            <DistanceMeters>566873.65488526</DistanceMeters>
          </Trackpoint>
          <Trackpoint>
            <Time>2021-08-03T16:41:00Z</Time>
            <Position>
              <LatitudeDegrees>40.941776</LatitudeDegrees>
              <LongitudeDegrees>-1.303426</LongitudeDegrees>
            </Position>
            <AltitudeMeters>876.808</AltitudeMeters>
            <DistanceMeters>566884.83860507</DistanceMeters>
          </Trackpoint>
          <Trackpoint>
            <Time>2021-08-03T16:41:01Z</Time>
            <Position>
              <LatitudeDegrees>40.941733</LatitudeDegrees>
              <LongitudeDegrees>-1.303399</LongitudeDegrees>
            </Position>
            <AltitudeMeters>876.746</AltitudeMeters>
            <DistanceMeters>566890.13629113</DistanceMeters>
          </Trackpoint>
          <Trackpoint>
            <Time>2021-08-03T16:41:03Z</Time>
            <Position>
              <LatitudeDegrees>40.941654</LatitudeDegrees>
              <LongitudeDegrees>-1.303339</LongitudeDegrees>
            </Position>
            <AltitudeMeters>876.568</AltitudeMeters>
            <DistanceMeters>566900.27346381</DistanceMeters>
          </Trackpoint>
          <Trackpoint>
            <Time>2021-08-03T16:41:05Z</Time>
            <Position>
              <LatitudeDegrees>40.941566</LatitudeDegrees>
              <LongitudeDegrees>-1.303279</LongitudeDegrees>
            </Position>
            <AltitudeMeters>876.668</AltitudeMeters>
            <DistanceMeters>566911.29082681</DistanceMeters>
          </Trackpoint>
          <Trackpoint>
            <Time>2021-08-03T16:41:06Z</Time>
            <Position>
              <LatitudeDegrees>40.941518</LatitudeDegrees>
              <LongitudeDegrees>-1.303248</LongitudeDegrees>
            </Position>
            <AltitudeMeters>876.891</AltitudeMeters>
            <DistanceMeters>566917.23436608</DistanceMeters>
          </Trackpoint>
          <Trackpoint>
            <Time>2021-08-03T16:41:08Z</Time>
            <Position>
              <LatitudeDegrees>40.941419</LatitudeDegrees>
              <LongitudeDegrees>-1.303192</LongitudeDegrees>
            </Position>
            <AltitudeMeters>877.299</AltitudeMeters>
            <DistanceMeters>566929.21715564</DistanceMeters>
          </Trackpoint>
          <Trackpoint>
            <Time>2021-08-03T16:41:10Z</Time>
            <Position>
              <LatitudeDegrees>40.941314</LatitudeDegrees>
              <LongitudeDegrees>-1.303141</LongitudeDegrees>
            </Position>
            <AltitudeMeters>877.244</AltitudeMeters>
            <DistanceMeters>566941.66601791</DistanceMeters>
          </Trackpoint>
          <Trackpoint>
            <Time>2021-08-03T16:41:11Z</Time>
            <Position>
              <LatitudeDegrees>40.941265</LatitudeDegrees>
              <LongitudeDegrees>-1.303120</LongitudeDegrees>
            </Position>
            <AltitudeMeters>877.119</AltitudeMeters>
            <DistanceMeters>566947.39842126</DistanceMeters>
          </Trackpoint>
          <Trackpoint>
            <Time>2021-08-03T16:41:13Z</Time>
            <Position>
              <LatitudeDegrees>40.941164</LatitudeDegrees>
              <LongitudeDegrees>-1.303075</LongitudeDegrees>
            </Position>
            <AltitudeMeters>877.270</AltitudeMeters>
            <DistanceMeters>566959.25964342</DistanceMeters>
          </Trackpoint>
          <Trackpoint>
            <Time>2021-08-03T16:41:14Z</Time>
            <Position>
              <LatitudeDegrees>40.941114</LatitudeDegrees>
              <LongitudeDegrees>-1.303051</LongitudeDegrees>
            </Position>
            <AltitudeMeters>877.272</AltitudeMeters>
            <DistanceMeters>566965.17882382</DistanceMeters>
          </Trackpoint>
          <Trackpoint>
            <Time>2021-08-03T16:41:16Z</Time>
            <Position>
              <LatitudeDegrees>40.941012</LatitudeDegrees>
              <LongitudeDegrees>-1.303004</LongitudeDegrees>
            </Position>
            <AltitudeMeters>877.213</AltitudeMeters>
            <DistanceMeters>566977.19923367</DistanceMeters>
          </Trackpoint>
          <Trackpoint>
            <Time>2021-08-03T16:41:18Z</Time>
            <Position>
              <LatitudeDegrees>40.940917</LatitudeDegrees>
              <LongitudeDegrees>-1.302958</LongitudeDegrees>
            </Position>
            <AltitudeMeters>877.014</AltitudeMeters>
            <DistanceMeters>566988.45739307</DistanceMeters>
          </Trackpoint>
          <Trackpoint>
            <Time>2021-08-03T16:41:20Z</Time>
            <Position>
              <LatitudeDegrees>40.940820</LatitudeDegrees>
              <LongitudeDegrees>-1.302917</LongitudeDegrees>
            </Position>
            <AltitudeMeters>876.608</AltitudeMeters>
            <DistanceMeters>566999.7906983</DistanceMeters>
          </Trackpoint>
          <Trackpoint>
            <Time>2021-08-03T16:41:22Z</Time>
            <Position>
              <LatitudeDegrees>40.940730</LatitudeDegrees>
              <LongitudeDegrees>-1.302876</LongitudeDegrees>
            </Position>
            <AltitudeMeters>876.524</AltitudeMeters>
            <DistanceMeters>567010.38436575</DistanceMeters>
          </Trackpoint>
          <Trackpoint>
            <Time>2021-08-03T16:41:24Z</Time>
            <Position>
              <LatitudeDegrees>40.940647</LatitudeDegrees>
              <LongitudeDegrees>-1.302839</LongitudeDegrees>
            </Position>
            <AltitudeMeters>876.746</AltitudeMeters>
            <DistanceMeters>567020.13282842</DistanceMeters>
          </Trackpoint>
          <Trackpoint>
            <Time>2021-08-03T16:41:26Z</Time>
            <Position>
              <LatitudeDegrees>40.940559</LatitudeDegrees>
              <LongitudeDegrees>-1.302809</LongitudeDegrees>
            </Position>
            <AltitudeMeters>876.766</AltitudeMeters>
            <DistanceMeters>567030.24770687</DistanceMeters>
          </Trackpoint>
          <Trackpoint>
            <Time>2021-08-03T16:41:28Z</Time>
            <Position>
              <LatitudeDegrees>40.940451</LatitudeDegrees>
              <LongitudeDegrees>-1.302766</LongitudeDegrees>
            </Position>
            <AltitudeMeters>876.569</AltitudeMeters>
            <DistanceMeters>567042.80058837</DistanceMeters>
          </Trackpoint>
          <Trackpoint>
            <Time>2021-08-03T16:41:30Z</Time>
            <Position>
              <LatitudeDegrees>40.940365</LatitudeDegrees>
              <LongitudeDegrees>-1.302726</LongitudeDegrees>
            </Position>
            <AltitudeMeters>875.967</AltitudeMeters>
            <DistanceMeters>567052.94666503</DistanceMeters>
          </Trackpoint>
          <Trackpoint>
            <Time>2021-08-03T16:41:32Z</Time>
            <Position>
              <LatitudeDegrees>40.940285</LatitudeDegrees>
              <LongitudeDegrees>-1.302681</LongitudeDegrees>
            </Position>
            <AltitudeMeters>875.952</AltitudeMeters>
            <DistanceMeters>567062.62167264</DistanceMeters>
          </Trackpoint>
          <Trackpoint>
            <Time>2021-08-03T16:41:34Z</Time>
            <Position>
              <LatitudeDegrees>40.940201</LatitudeDegrees>
              <LongitudeDegrees>-1.302641</LongitudeDegrees>
            </Position>
            <AltitudeMeters>876.017</AltitudeMeters>
            <DistanceMeters>567072.55821409</DistanceMeters>
          </Trackpoint>
          <Trackpoint>
            <Time>2021-08-03T16:41:35Z</Time>
            <Position>
              <LatitudeDegrees>40.940156</LatitudeDegrees>
              <LongitudeDegrees>-1.302617</LongitudeDegrees>
            </Position>
            <AltitudeMeters>876.118</AltitudeMeters>
            <DistanceMeters>567077.95720351</DistanceMeters>
          </Trackpoint>
          <Trackpoint>
            <Time>2021-08-03T16:41:36Z</Time>
            <Position>
              <LatitudeDegrees>40.940111</LatitudeDegrees>
              <LongitudeDegrees>-1.302602</LongitudeDegrees>
            </Position>
            <AltitudeMeters>876.118</AltitudeMeters>
            <DistanceMeters>567083.12197318</DistanceMeters>
          </Trackpoint>
          <Trackpoint>
            <Time>2021-08-03T16:41:38Z</Time>
            <Position>
              <LatitudeDegrees>40.940007</LatitudeDegrees>
              <LongitudeDegrees>-1.302594</LongitudeDegrees>
            </Position>
            <AltitudeMeters>876.098</AltitudeMeters>
            <DistanceMeters>567094.71679005</DistanceMeters>
          </Trackpoint>
          <Trackpoint>
            <Time>2021-08-03T16:41:40Z</Time>
            <Position>
              <LatitudeDegrees>40.939903</LatitudeDegrees>
              <LongitudeDegrees>-1.302553</LongitudeDegrees>
            </Position>
            <AltitudeMeters>875.817</AltitudeMeters>
            <DistanceMeters>567106.79453217</DistanceMeters>
          </Trackpoint>
          <Trackpoint>
            <Time>2021-08-03T16:41:42Z</Time>
            <Position>
              <LatitudeDegrees>40.939805</LatitudeDegrees>
              <LongitudeDegrees>-1.302547</LongitudeDegrees>
            </Position>
            <AltitudeMeters>875.608</AltitudeMeters>
            <DistanceMeters>567117.71351103</DistanceMeters>
          </Trackpoint>
          <Trackpoint>
            <Time>2021-08-03T16:41:44Z</Time>
            <Position>
              <LatitudeDegrees>40.939699</LatitudeDegrees>
              <LongitudeDegrees>-1.302541</LongitudeDegrees>
            </Position>
            <AltitudeMeters>875.648</AltitudeMeters>
            <DistanceMeters>567129.5220859</DistanceMeters>
          </Trackpoint>
          <Trackpoint>
            <Time>2021-08-03T16:41:46Z</Time>
            <Position>
              <LatitudeDegrees>40.939601</LatitudeDegrees>
              <LongitudeDegrees>-1.302523</LongitudeDegrees>
            </Position>
            <AltitudeMeters>875.550</AltitudeMeters>
            <DistanceMeters>567140.53412007</DistanceMeters>
          </Trackpoint>
          <Trackpoint>
            <Time>2021-08-03T16:41:48Z</Time>
            <Position>
              <LatitudeDegrees>40.939503</LatitudeDegrees>
              <LongitudeDegrees>-1.302524</LongitudeDegrees>
            </Position>
            <AltitudeMeters>875.310</AltitudeMeters>
            <DistanceMeters>567151.44192861</DistanceMeters>
          </Trackpoint>
          <Trackpoint>
            <Time>2021-08-03T16:41:50Z</Time>
            <Position>
              <LatitudeDegrees>40.939402</LatitudeDegrees>
              <LongitudeDegrees>-1.302532</LongitudeDegrees>
            </Position>
            <AltitudeMeters>875.283</AltitudeMeters>
            <DistanceMeters>567162.70329592</DistanceMeters>
          </Trackpoint>
          <Trackpoint>
            <Time>2021-08-03T16:41:52Z</Time>
            <Position>
              <LatitudeDegrees>40.939300</LatitudeDegrees>
              <LongitudeDegrees>-1.302533</LongitudeDegrees>
            </Position>
            <AltitudeMeters>875.011</AltitudeMeters>
            <DistanceMeters>567174.05650301</DistanceMeters>
          </Trackpoint>
          <Trackpoint>
            <Time>2021-08-03T16:41:54Z</Time>
            <Position>
              <LatitudeDegrees>40.939201</LatitudeDegrees>
              <LongitudeDegrees>-1.302545</LongitudeDegrees>
            </Position>
            <AltitudeMeters>874.716</AltitudeMeters>
            <DistanceMeters>567185.12171003</DistanceMeters>
          </Trackpoint>
          <Trackpoint>
            <Time>2021-08-03T16:41:55Z</Time>
            <Position>
              <LatitudeDegrees>40.939155</LatitudeDegrees>
              <LongitudeDegrees>-1.302557</LongitudeDegrees>
            </Position>
            <AltitudeMeters>874.781</AltitudeMeters>
            <DistanceMeters>567190.34039862</DistanceMeters>
          </Trackpoint>
          <Trackpoint>
            <Time>2021-08-03T16:41:56Z</Time>
            <Position>
              <LatitudeDegrees>40.939105</LatitudeDegrees>
              <LongitudeDegrees>-1.302564</LongitudeDegrees>
            </Position>
            <AltitudeMeters>874.792</AltitudeMeters>
            <DistanceMeters>567195.93649593</DistanceMeters>
          </Trackpoint>
          <Trackpoint>
            <Time>2021-08-03T16:41:58Z</Time>
            <Position>
              <LatitudeDegrees>40.939001</LatitudeDegrees>
              <LongitudeDegrees>-1.302575</LongitudeDegrees>
            </Position>
            <AltitudeMeters>874.889</AltitudeMeters>
            <DistanceMeters>567207.54882263</DistanceMeters>
          </Trackpoint>
          <Trackpoint>
            <Time>2021-08-03T16:42:00Z</Time>
            <Position>
              <LatitudeDegrees>40.938897</LatitudeDegrees>
              <LongitudeDegrees>-1.302576</LongitudeDegrees>
            </Position>
            <AltitudeMeters>875.006</AltitudeMeters>
            <DistanceMeters>567219.12493314</DistanceMeters>
          </Trackpoint>
          <Trackpoint>
            <Time>2021-08-03T16:42:02Z</Time>
            <Position>
              <LatitudeDegrees>40.938790</LatitudeDegrees>
              <LongitudeDegrees>-1.302569</LongitudeDegrees>
            </Position>
            <AltitudeMeters>875.026</AltitudeMeters>
            <DistanceMeters>567231.04879802</DistanceMeters>
          </Trackpoint>
          <Trackpoint>
            <Time>2021-08-03T16:42:03Z</Time>
            <Position>
              <LatitudeDegrees>40.938738</LatitudeDegrees>
              <LongitudeDegrees>-1.302558</LongitudeDegrees>
            </Position>
            <AltitudeMeters>875.008</AltitudeMeters>
            <DistanceMeters>567236.91049068</DistanceMeters>
          </Trackpoint>
          <Trackpoint>
            <Time>2021-08-03T16:42:05Z</Time>
            <Position>
              <LatitudeDegrees>40.938642</LatitudeDegrees>
              <LongitudeDegrees>-1.302520</LongitudeDegrees>
            </Position>
            <AltitudeMeters>875.175</AltitudeMeters>
            <DistanceMeters>567248.06227138</DistanceMeters>
          </Trackpoint>
          <Trackpoint>
            <Time>2021-08-03T16:42:06Z</Time>
            <Position>
              <LatitudeDegrees>40.938588</LatitudeDegrees>
              <LongitudeDegrees>-1.302487</LongitudeDegrees>
            </Position>
            <AltitudeMeters>875.027</AltitudeMeters>
            <DistanceMeters>567254.68216269</DistanceMeters>
          </Trackpoint>
          <Trackpoint>
            <Time>2021-08-03T16:42:08Z</Time>
            <Position>
              <LatitudeDegrees>40.938505</LatitudeDegrees>
              <LongitudeDegrees>-1.302472</LongitudeDegrees>
            </Position>
            <AltitudeMeters>875.297</AltitudeMeters>
            <DistanceMeters>567264.00544086</DistanceMeters>
          </Trackpoint>
          <Trackpoint>
            <Time>2021-08-03T16:42:10Z</Time>
            <Position>
              <LatitudeDegrees>40.938421</LatitudeDegrees>
              <LongitudeDegrees>-1.302470</LongitudeDegrees>
            </Position>
            <AltitudeMeters>875.270</AltitudeMeters>
            <DistanceMeters>567273.35628201</DistanceMeters>
          </Trackpoint>
          <Trackpoint>
            <Time>2021-08-03T16:42:12Z</Time>
            <Position>
              <LatitudeDegrees>40.938329</LatitudeDegrees>
              <LongitudeDegrees>-1.302430</LongitudeDegrees>
            </Position>
            <AltitudeMeters>875.348</AltitudeMeters>
            <DistanceMeters>567284.13417157</DistanceMeters>
          </Trackpoint>
          <Trackpoint>
            <Time>2021-08-03T16:42:13Z</Time>
            <Position>
              <LatitudeDegrees>40.938276</LatitudeDegrees>
              <LongitudeDegrees>-1.302415</LongitudeDegrees>
            </Position>
            <AltitudeMeters>875.493</AltitudeMeters>
            <DistanceMeters>567290.16668416</DistanceMeters>
          </Trackpoint>
          <Trackpoint>
            <Time>2021-08-03T16:42:15Z</Time>
            <Position>
              <LatitudeDegrees>40.938176</LatitudeDegrees>
              <LongitudeDegrees>-1.302394</LongitudeDegrees>
            </Position>
            <AltitudeMeters>875.758</AltitudeMeters>
            <DistanceMeters>567301.43606724</DistanceMeters>
          </Trackpoint>
          <Trackpoint>
            <Time>2021-08-03T16:42:17Z</Time>
            <Position>
              <LatitudeDegrees>40.938078</LatitudeDegrees>
              <LongitudeDegrees>-1.302370</LongitudeDegrees>
            </Position>
            <AltitudeMeters>875.899</AltitudeMeters>
            <DistanceMeters>567312.5285792</DistanceMeters>
          </Trackpoint>
          <Trackpoint>
            <Time>2021-08-03T16:42:18Z</Time>
            <Position>
              <LatitudeDegrees>40.938028</LatitudeDegrees>
              <LongitudeDegrees>-1.302358</LongitudeDegrees>
            </Position>
            <AltitudeMeters>875.999</AltitudeMeters>
            <DistanceMeters>567318.18406599</DistanceMeters>
          </Trackpoint>
          <Trackpoint>
            <Time>2021-08-03T16:42:20Z</Time>
            <Position>
              <LatitudeDegrees>40.937934</LatitudeDegrees>
              <LongitudeDegrees>-1.302333</LongitudeDegrees>
            </Position>
            <AltitudeMeters>876.307</AltitudeMeters>
            <DistanceMeters>567328.85502021</DistanceMeters>
          </Trackpoint>
          <Trackpoint>
            <Time>2021-08-03T16:42:21Z</Time>
            <Position>
              <LatitudeDegrees>40.937883</LatitudeDegrees>
              <LongitudeDegrees>-1.302318</LongitudeDegrees>
            </Position>
            <AltitudeMeters>876.427</AltitudeMeters>
            <DistanceMeters>567334.67031352</DistanceMeters>
          </Trackpoint>
          <Trackpoint>
            <Time>2021-08-03T16:42:23Z</Time>
            <Position>
              <LatitudeDegrees>40.937787</LatitudeDegrees>
              <LongitudeDegrees>-1.302281</LongitudeDegrees>
            </Position>
            <AltitudeMeters>876.508</AltitudeMeters>
            <DistanceMeters>567345.79899261</DistanceMeters>
          </Trackpoint>
          <Trackpoint>
            <Time>2021-08-03T16:42:25Z</Time>
            <Position>
              <LatitudeDegrees>40.937691</LatitudeDegrees>
              <LongitudeDegrees>-1.302242</LongitudeDegrees>
            </Position>
            <AltitudeMeters>876.686</AltitudeMeters>
            <DistanceMeters>567356.97584716</DistanceMeters>
          </Trackpoint>
          <Trackpoint>
            <Time>2021-08-03T16:42:26Z</Time>
            <Position>
              <LatitudeDegrees>40.937645</LatitudeDegrees>
              <LongitudeDegrees>-1.302222</LongitudeDegrees>
            </Position>
            <AltitudeMeters>876.788</AltitudeMeters>
            <DistanceMeters>567362.36479194</DistanceMeters>
          </Trackpoint>
          <Trackpoint>
            <Time>2021-08-03T16:42:28Z</Time>
            <Position>
              <LatitudeDegrees>40.937551</LatitudeDegrees>
              <LongitudeDegrees>-1.302192</LongitudeDegrees>
            </Position>
            <AltitudeMeters>876.728</AltitudeMeters>
            <DistanceMeters>567373.12675089</DistanceMeters>
          </Trackpoint>
          <Trackpoint>
            <Time>2021-08-03T16:42:29Z</Time>
            <Position>
              <LatitudeDegrees>40.937503</LatitudeDegrees>
              <LongitudeDegrees>-1.302171</LongitudeDegrees>
            </Position>
            <AltitudeMeters>876.751</AltitudeMeters>
            <DistanceMeters>567378.7534238</DistanceMeters>
          </Trackpoint>
          <Trackpoint>
            <Time>2021-08-03T16:42:31Z</Time>
            <Position>
              <LatitudeDegrees>40.937411</LatitudeDegrees>
              <LongitudeDegrees>-1.302126</LongitudeDegrees>
            </Position>
            <AltitudeMeters>876.719</AltitudeMeters>
            <DistanceMeters>567389.66950774</DistanceMeters>
          </Trackpoint>
          <Trackpoint>
            <Time>2021-08-03T16:42:33Z</Time>
            <Position>
              <LatitudeDegrees>40.937323</LatitudeDegrees>
              <LongitudeDegrees>-1.302097</LongitudeDegrees>
            </Position>
            <AltitudeMeters>876.794</AltitudeMeters>
            <DistanceMeters>567399.76293741</DistanceMeters>
          </Trackpoint>
          <Trackpoint>
            <Time>2021-08-03T16:42:35Z</Time>
            <Position>
              <LatitudeDegrees>40.937232</LatitudeDegrees>
              <LongitudeDegrees>-1.302074</LongitudeDegrees>
            </Position>
            <AltitudeMeters>876.969</AltitudeMeters>
            <DistanceMeters>567410.07410224</DistanceMeters>
          </Trackpoint>
          <Trackpoint>
            <Time>2021-08-03T16:42:37Z</Time>
            <Position>
              <LatitudeDegrees>40.937144</LatitudeDegrees>
              <LongitudeDegrees>-1.302066</LongitudeDegrees>
            </Position>
            <AltitudeMeters>877.050</AltitudeMeters>
            <DistanceMeters>567419.89179219</DistanceMeters>
          </Trackpoint>
          <Trackpoint>
            <Time>2021-08-03T16:42:38Z</Time>
            <Position>
              <LatitudeDegrees>40.937098</LatitudeDegrees>
              <LongitudeDegrees>-1.302063</LongitudeDegrees>
            </Position>
            <AltitudeMeters>877.115</AltitudeMeters>
            <DistanceMeters>567425.01795278</DistanceMeters>
          </Trackpoint>
          <Trackpoint>
            <Time>2021-08-03T16:42:40Z</Time>
            <Position>
              <LatitudeDegrees>40.937022</LatitudeDegrees>
              <LongitudeDegrees>-1.302073</LongitudeDegrees>
            </Position>
            <AltitudeMeters>877.365</AltitudeMeters>
            <DistanceMeters>567433.51846287</DistanceMeters>
          </Trackpoint>
          <Trackpoint>
            <Time>2021-08-03T16:42:42Z</Time>
            <Position>
              <LatitudeDegrees>40.936962</LatitudeDegrees>
              <LongitudeDegrees>-1.302062</LongitudeDegrees>
            </Position>
            <AltitudeMeters>877.611</AltitudeMeters>
            <DistanceMeters>567440.26067354</DistanceMeters>
          </Trackpoint>
          <Trackpoint>
            <Time>2021-08-03T16:42:44Z</Time>
            <Position>
              <LatitudeDegrees>40.936867</LatitudeDegrees>
              <LongitudeDegrees>-1.302054</LongitudeDegrees>
            </Position>
            <AltitudeMeters>878.308</AltitudeMeters>
            <DistanceMeters>567450.85519336</DistanceMeters>
          </Trackpoint>
          <Trackpoint>
            <Time>2021-08-03T16:42:46Z</Time>
            <Position>
              <LatitudeDegrees>40.936727</LatitudeDegrees>
              <LongitudeDegrees>-1.302049</LongitudeDegrees>
            </Position>
            <AltitudeMeters>878.998</AltitudeMeters>
            <DistanceMeters>567466.44305072</DistanceMeters>
          </Trackpoint>
          <Trackpoint>
            <Time>2021-08-03T16:42:48Z</Time>
            <Position>
              <LatitudeDegrees>40.936629</LatitudeDegrees>
              <LongitudeDegrees>-1.302052</LongitudeDegrees>
            </Position>
            <AltitudeMeters>878.870</AltitudeMeters>
            <DistanceMeters>567477.35334254</DistanceMeters>
          </Trackpoint>
          <Trackpoint>
            <Time>2021-08-03T16:42:49Z</Time>
            <Position>
              <LatitudeDegrees>40.936583</LatitudeDegrees>
              <LongitudeDegrees>-1.302052</LongitudeDegrees>
            </Position>
            <AltitudeMeters>878.780</AltitudeMeters>
            <DistanceMeters>567482.47421571</DistanceMeters>
          </Trackpoint>
          <Trackpoint>
            <Time>2021-08-03T16:42:50Z</Time>
            <Position>
              <LatitudeDegrees>40.936531</LatitudeDegrees>
              <LongitudeDegrees>-1.302054</LongitudeDegrees>
            </Position>
            <AltitudeMeters>878.723</AltitudeMeters>
            <DistanceMeters>567488.26461067</DistanceMeters>
          </Trackpoint>
          <Trackpoint>
            <Time>2021-08-03T16:42:52Z</Time>
            <Position>
              <LatitudeDegrees>40.936433</LatitudeDegrees>
              <LongitudeDegrees>-1.302047</LongitudeDegrees>
            </Position>
            <AltitudeMeters>878.751</AltitudeMeters>
            <DistanceMeters>567499.18813713</DistanceMeters>
          </Trackpoint>
          <Trackpoint>
            <Time>2021-08-03T16:42:53Z</Time>
            <Position>
              <LatitudeDegrees>40.936387</LatitudeDegrees>
              <LongitudeDegrees>-1.302048</LongitudeDegrees>
            </Position>
            <AltitudeMeters>878.746</AltitudeMeters>
            <DistanceMeters>567504.30901029</DistanceMeters>
          </Trackpoint>
          <Trackpoint>
            <Time>2021-08-03T16:42:55Z</Time>
            <Position>
              <LatitudeDegrees>40.936304</LatitudeDegrees>
              <LongitudeDegrees>-1.302053</LongitudeDegrees>
            </Position>
            <AltitudeMeters>878.821</AltitudeMeters>
            <DistanceMeters>567513.55594459</DistanceMeters>
          </Trackpoint>
          <Trackpoint>
            <Time>2021-08-03T16:42:57Z</Time>
            <Position>
              <LatitudeDegrees>40.936222</LatitudeDegrees>
              <LongitudeDegrees>-1.302052</LongitudeDegrees>
            </Position>
            <AltitudeMeters>879.012</AltitudeMeters>
            <DistanceMeters>567522.68345713</DistanceMeters>
          </Trackpoint>
          <Trackpoint>
            <Time>2021-08-03T16:42:59Z</Time>
            <Position>
              <LatitudeDegrees>40.936146</LatitudeDegrees>
              <LongitudeDegrees>-1.302058</LongitudeDegrees>
            </Position>
            <AltitudeMeters>879.251</AltitudeMeters>
            <DistanceMeters>567531.15736815</DistanceMeters>
          </Trackpoint>
          <Trackpoint>
            <Time>2021-08-03T16:43:01Z</Time>
            <Position>
              <LatitudeDegrees>40.936076</LatitudeDegrees>
              <LongitudeDegrees>-1.302066</LongitudeDegrees>
            </Position>
            <AltitudeMeters>879.601</AltitudeMeters>
            <DistanceMeters>567538.97732196</DistanceMeters>
          </Trackpoint>
          <Trackpoint>
            <Time>2021-08-03T16:43:03Z</Time>
            <Position>
              <LatitudeDegrees>40.936014</LatitudeDegrees>
              <LongitudeDegrees>-1.302063</LongitudeDegrees>
            </Position>
            <AltitudeMeters>879.811</AltitudeMeters>
            <DistanceMeters>567545.88295978</DistanceMeters>
          </Trackpoint>
          <Trackpoint>
            <Time>2021-08-03T16:43:05Z</Time>
            <Position>
              <LatitudeDegrees>40.935958</LatitudeDegrees>
              <LongitudeDegrees>-1.302050</LongitudeDegrees>
            </Position>
            <AltitudeMeters>879.908</AltitudeMeters>
            <DistanceMeters>567552.21062594</DistanceMeters>
          </Trackpoint>
          <Trackpoint>
            <Time>2021-08-03T16:43:07Z</Time>
            <Position>
              <LatitudeDegrees>40.935913</LatitudeDegrees>
              <LongitudeDegrees>-1.302026</LongitudeDegrees>
            </Position>
            <AltitudeMeters>879.992</AltitudeMeters>
            <DistanceMeters>567557.61128765</DistanceMeters>
          </Trackpoint>
          <Trackpoint>
            <Time>2021-08-03T16:43:09Z</Time>
            <Position>
              <LatitudeDegrees>40.935865</LatitudeDegrees>
              <LongitudeDegrees>-1.301963</LongitudeDegrees>
            </Position>
            <AltitudeMeters>879.974</AltitudeMeters>
            <DistanceMeters>567565.1346193</DistanceMeters>
          </Trackpoint>
          <Trackpoint>
            <Time>2021-08-03T16:43:11Z</Time>
            <Position>
              <LatitudeDegrees>40.935823</LatitudeDegrees>
              <LongitudeDegrees>-1.301839</LongitudeDegrees>
            </Position>
            <AltitudeMeters>879.744</AltitudeMeters>
            <DistanceMeters>567576.56076674</DistanceMeters>
          </Trackpoint>
          <Trackpoint>
            <Time>2021-08-03T16:43:12Z</Time>
            <Position>
              <LatitudeDegrees>40.935796</LatitudeDegrees>
              <LongitudeDegrees>-1.301786</LongitudeDegrees>
            </Position>
            <AltitudeMeters>879.437</AltitudeMeters>
            <DistanceMeters>567581.93628947</DistanceMeters>
          </Trackpoint>
          <Trackpoint>
            <Time>2021-08-03T16:43:13Z</Time>
            <Position>
              <LatitudeDegrees>40.935767</LatitudeDegrees>
              <LongitudeDegrees>-1.301739</LongitudeDegrees>
            </Position>
            <AltitudeMeters>878.885</AltitudeMeters>
            <DistanceMeters>567587.03772851</DistanceMeters>
          </Trackpoint>
          <Trackpoint>
            <Time>2021-08-03T16:43:15Z</Time>
            <Position>
              <LatitudeDegrees>40.935721</LatitudeDegrees>
              <LongitudeDegrees>-1.301646</LongitudeDegrees>
            </Position>
            <AltitudeMeters>878.310</AltitudeMeters>
            <DistanceMeters>567596.38422301</DistanceMeters>
          </Trackpoint>
          <Trackpoint>
            <Time>2021-08-03T16:43:17Z</Time>
            <Position>
              <LatitudeDegrees>40.935665</LatitudeDegrees>
              <LongitudeDegrees>-1.301578</LongitudeDegrees>
            </Position>
            <AltitudeMeters>878.255</AltitudeMeters>
            <DistanceMeters>567604.84266824</DistanceMeters>
          </Trackpoint>
          <Trackpoint>
            <Time>2021-08-03T16:43:19Z</Time>
            <Position>
              <LatitudeDegrees>40.935597</LatitudeDegrees>
              <LongitudeDegrees>-1.301549</LongitudeDegrees>
            </Position>
            <AltitudeMeters>878.236</AltitudeMeters>
            <DistanceMeters>567612.79430928</DistanceMeters>
          </Trackpoint>
          <Trackpoint>
            <Time>2021-08-03T16:43:21Z</Time>
            <Position>
              <LatitudeDegrees>40.935514</LatitudeDegrees>
              <LongitudeDegrees>-1.301531</LongitudeDegrees>
            </Position>
            <AltitudeMeters>878.216</AltitudeMeters>
            <DistanceMeters>567622.15480242</DistanceMeters>
          </Trackpoint>
          <Trackpoint>
            <Time>2021-08-03T16:43:22Z</Time>
            <Position>
              <LatitudeDegrees>40.935468</LatitudeDegrees>
              <LongitudeDegrees>-1.301528</LongitudeDegrees>
            </Position>
            <AltitudeMeters>877.976</AltitudeMeters>
            <DistanceMeters>567627.28096301</DistanceMeters>
          </Trackpoint>
          <Trackpoint>
            <Time>2021-08-03T16:43:24Z</Time>
            <Position>
              <LatitudeDegrees>40.935381</LatitudeDegrees>
              <LongitudeDegrees>-1.301531</LongitudeDegrees>
            </Position>
            <AltitudeMeters>877.513</AltitudeMeters>
            <DistanceMeters>567636.96763036</DistanceMeters>
          </Trackpoint>
          <Trackpoint>
            <Time>2021-08-03T16:43:25Z</Time>
            <Position>
              <LatitudeDegrees>40.935335</LatitudeDegrees>
              <LongitudeDegrees>-1.301536</LongitudeDegrees>
            </Position>
            <AltitudeMeters>877.308</AltitudeMeters>
            <DistanceMeters>567642.10434949</DistanceMeters>
          </Trackpoint>
          <Trackpoint>
            <Time>2021-08-03T16:43:27Z</Time>
            <Position>
              <LatitudeDegrees>40.935238</LatitudeDegrees>
              <LongitudeDegrees>-1.301532</LongitudeDegrees>
            </Position>
            <AltitudeMeters>876.788</AltitudeMeters>
            <DistanceMeters>567652.90609091</DistanceMeters>
          </Trackpoint>
          <Trackpoint>
            <Time>2021-08-03T16:43:28Z</Time>
            <Position>
              <LatitudeDegrees>40.935192</LatitudeDegrees>
              <LongitudeDegrees>-1.301521</LongitudeDegrees>
            </Position>
            <AltitudeMeters>876.750</AltitudeMeters>
            <DistanceMeters>567658.10918318</DistanceMeters>
          </Trackpoint>
          <Trackpoint>
            <Time>2021-08-03T16:43:30Z</Time>
            <Position>
              <LatitudeDegrees>40.935103</LatitudeDegrees>
              <LongitudeDegrees>-1.301518</LongitudeDegrees>
            </Position>
            <AltitudeMeters>877.010</AltitudeMeters>
            <DistanceMeters>567668.01842388</DistanceMeters>
          </Trackpoint>
          <Trackpoint>
            <Time>2021-08-03T16:43:31Z</Time>
            <Position>
              <LatitudeDegrees>40.935055</LatitudeDegrees>
              <LongitudeDegrees>-1.301516</LongitudeDegrees>
            </Position>
            <AltitudeMeters>877.183</AltitudeMeters>
            <DistanceMeters>567673.36362377</DistanceMeters>
          </Trackpoint>
          <Trackpoint>
            <Time>2021-08-03T16:43:32Z</Time>
            <Position>
              <LatitudeDegrees>40.935007</LatitudeDegrees>
              <LongitudeDegrees>-1.301513</LongitudeDegrees>
            </Position>
            <AltitudeMeters>877.151</AltitudeMeters>
            <DistanceMeters>567678.71220135</DistanceMeters>
          </Trackpoint>
          <Trackpoint>
            <Time>2021-08-03T16:43:33Z</Time>
            <Position>
              <LatitudeDegrees>40.934961</LatitudeDegrees>
              <LongitudeDegrees>-1.301513</LongitudeDegrees>
            </Position>
            <AltitudeMeters>877.366</AltitudeMeters>
            <DistanceMeters>567683.83131083</DistanceMeters>
          </Trackpoint>
          <Trackpoint>
            <Time>2021-08-03T16:43:34Z</Time>
            <Position>
              <LatitudeDegrees>40.934912</LatitudeDegrees>
              <LongitudeDegrees>-1.301508</LongitudeDegrees>
            </Position>
            <AltitudeMeters>877.451</AltitudeMeters>
            <DistanceMeters>567689.30092172</DistanceMeters>
          </Trackpoint>
          <Trackpoint>
            <Time>2021-08-03T16:43:36Z</Time>
            <Position>
              <LatitudeDegrees>40.934823</LatitudeDegrees>
              <LongitudeDegrees>-1.301498</LongitudeDegrees>
            </Position>
            <AltitudeMeters>877.462</AltitudeMeters>
            <DistanceMeters>567699.24246017</DistanceMeters>
          </Trackpoint>
          <Trackpoint>
            <Time>2021-08-03T16:43:38Z</Time>
            <Position>
              <LatitudeDegrees>40.934756</LatitudeDegrees>
              <LongitudeDegrees>-1.301502</LongitudeDegrees>
            </Position>
            <AltitudeMeters>877.388</AltitudeMeters>
            <DistanceMeters>567706.70795625</DistanceMeters>
          </Trackpoint>
          <Trackpoint>
            <Time>2021-08-03T16:43:40Z</Time>
            <Position>
              <LatitudeDegrees>40.934703</LatitudeDegrees>
              <LongitudeDegrees>-1.301511</LongitudeDegrees>
            </Position>
            <AltitudeMeters>877.424</AltitudeMeters>
            <DistanceMeters>567712.65453336</DistanceMeters>
          </Trackpoint>
          <Trackpoint>
            <Time>2021-08-03T16:43:41Z</Time>
            <Position>
              <LatitudeDegrees>40.934652</LatitudeDegrees>
              <LongitudeDegrees>-1.301511</LongitudeDegrees>
            </Position>
            <AltitudeMeters>877.426</AltitudeMeters>
            <DistanceMeters>567718.33073921</DistanceMeters>
          </Trackpoint>
          <Trackpoint>
            <Time>2021-08-03T16:43:43Z</Time>
            <Position>
              <LatitudeDegrees>40.934551</LatitudeDegrees>
              <LongitudeDegrees>-1.301500</LongitudeDegrees>
            </Position>
            <AltitudeMeters>877.608</AltitudeMeters>
            <DistanceMeters>567729.61053429</DistanceMeters>
          </Trackpoint>
          <Trackpoint>
            <Time>2021-08-03T16:43:45Z</Time>
            <Position>
              <LatitudeDegrees>40.934441</LatitudeDegrees>
              <LongitudeDegrees>-1.301501</LongitudeDegrees>
            </Position>
            <AltitudeMeters>877.975</AltitudeMeters>
            <DistanceMeters>567741.85423875</DistanceMeters>
          </Trackpoint>
          <Trackpoint>
            <Time>2021-08-03T16:43:47Z</Time>
            <Position>
              <LatitudeDegrees>40.934353</LatitudeDegrees>
              <LongitudeDegrees>-1.301492</LongitudeDegrees>
            </Position>
            <AltitudeMeters>877.977</AltitudeMeters>
            <DistanceMeters>567751.67790543</DistanceMeters>
          </Trackpoint>
          <Trackpoint>
            <Time>2021-08-03T16:43:49Z</Time>
            <Position>
              <LatitudeDegrees>40.934277</LatitudeDegrees>
              <LongitudeDegrees>-1.301491</LongitudeDegrees>
            </Position>
            <AltitudeMeters>878.047</AltitudeMeters>
            <DistanceMeters>567760.13795188</DistanceMeters>
          </Trackpoint>
          <Trackpoint>
            <Time>2021-08-03T16:43:51Z</Time>
            <Position>
              <LatitudeDegrees>40.934178</LatitudeDegrees>
              <LongitudeDegrees>-1.301486</LongitudeDegrees>
            </Position>
            <AltitudeMeters>878.020</AltitudeMeters>
            <DistanceMeters>567771.16514596</DistanceMeters>
          </Trackpoint>
          <Trackpoint>
            <Time>2021-08-03T16:43:53Z</Time>
            <Position>
              <LatitudeDegrees>40.934103</LatitudeDegrees>
              <LongitudeDegrees>-1.301484</LongitudeDegrees>
            </Position>
            <AltitudeMeters>878.298</AltitudeMeters>
            <DistanceMeters>567779.51452858</DistanceMeters>
          </Trackpoint>
          <Trackpoint>
            <Time>2021-08-03T16:43:55Z</Time>
            <Position>
              <LatitudeDegrees>40.934000</LatitudeDegrees>
              <LongitudeDegrees>-1.301464</LongitudeDegrees>
            </Position>
            <AltitudeMeters>878.333</AltitudeMeters>
            <DistanceMeters>567791.10116513</DistanceMeters>
          </Trackpoint>
          <Trackpoint>
            <Time>2021-08-03T16:43:57Z</Time>
            <Position>
              <LatitudeDegrees>40.933910</LatitudeDegrees>
              <LongitudeDegrees>-1.301448</LongitudeDegrees>
            </Position>
            <AltitudeMeters>878.878</AltitudeMeters>
            <DistanceMeters>567801.20800562</DistanceMeters>
          </Trackpoint>
          <Trackpoint>
            <Time>2021-08-03T16:43:58Z</Time>
            <Position>
              <LatitudeDegrees>40.933865</LatitudeDegrees>
              <LongitudeDegrees>-1.301441</LongitudeDegrees>
            </Position>
            <AltitudeMeters>879.199</AltitudeMeters>
            <DistanceMeters>567806.25069293</DistanceMeters>
          </Trackpoint>
          <Trackpoint>
            <Time>2021-08-03T16:44:00Z</Time>
            <Position>
              <LatitudeDegrees>40.933794</LatitudeDegrees>
              <LongitudeDegrees>-1.301432</LongitudeDegrees>
            </Position>
            <AltitudeMeters>879.574</AltitudeMeters>
            <DistanceMeters>567814.18926355</DistanceMeters>
          </Trackpoint>
          <Trackpoint>
            <Time>2021-08-03T16:44:01Z</Time>
            <Position>
              <LatitudeDegrees>40.933739</LatitudeDegrees>
              <LongitudeDegrees>-1.301424</LongitudeDegrees>
            </Position>
            <AltitudeMeters>879.556</AltitudeMeters>
            <DistanceMeters>567820.3476985</DistanceMeters>
          </Trackpoint>
          <Trackpoint>
            <Time>2021-08-03T16:44:02Z</Time>
            <Position>
              <LatitudeDegrees>40.933660</LatitudeDegrees>
              <LongitudeDegrees>-1.301413</LongitudeDegrees>
            </Position>
            <AltitudeMeters>879.521</AltitudeMeters>
            <DistanceMeters>567829.18926916</DistanceMeters>
          </Trackpoint>
          <Trackpoint>
            <Time>2021-08-03T16:44:03Z</Time>
            <Position>
              <LatitudeDegrees>40.933599</LatitudeDegrees>
              <LongitudeDegrees>-1.301404</LongitudeDegrees>
            </Position>
            <AltitudeMeters>879.508</AltitudeMeters>
            <DistanceMeters>567836.02062592</DistanceMeters>
          </Trackpoint>
          <Trackpoint>
            <Time>2021-08-03T16:44:05Z</Time>
            <Position>
              <LatitudeDegrees>40.933490</LatitudeDegrees>
              <LongitudeDegrees>-1.301388</LongitudeDegrees>
            </Position>
            <AltitudeMeters>879.474</AltitudeMeters>
            <DistanceMeters>567848.22702839</DistanceMeters>
          </Trackpoint>
          <Trackpoint>
            <Time>2021-08-03T16:44:06Z</Time>
            <Position>
              <LatitudeDegrees>40.933423</LatitudeDegrees>
              <LongitudeDegrees>-1.301373</LongitudeDegrees>
            </Position>
            <AltitudeMeters>879.386</AltitudeMeters>
            <DistanceMeters>567855.79105935</DistanceMeters>
          </Trackpoint>
          <Trackpoint>
            <Time>2021-08-03T16:44:08Z</Time>
            <Position>
              <LatitudeDegrees>40.933337</LatitudeDegrees>
              <LongitudeDegrees>-1.301335</LongitudeDegrees>
            </Position>
            <AltitudeMeters>879.296</AltitudeMeters>
            <DistanceMeters>567865.88269956</DistanceMeters>
          </Trackpoint>
          <Trackpoint>
            <Time>2021-08-03T16:44:09Z</Time>
            <Position>
              <LatitudeDegrees>40.933271</LatitudeDegrees>
              <LongitudeDegrees>-1.301312</LongitudeDegrees>
            </Position>
            <AltitudeMeters>879.129</AltitudeMeters>
            <DistanceMeters>567873.47889522</DistanceMeters>
          </Trackpoint>
          <Trackpoint>
            <Time>2021-08-03T16:44:11Z</Time>
            <Position>
              <LatitudeDegrees>40.933145</LatitudeDegrees>
              <LongitudeDegrees>-1.301286</LongitudeDegrees>
            </Position>
            <AltitudeMeters>878.877</AltitudeMeters>
            <DistanceMeters>567887.67227309</DistanceMeters>
          </Trackpoint>
          <Trackpoint>
            <Time>2021-08-03T16:44:13Z</Time>
            <Position>
              <LatitudeDegrees>40.933038</LatitudeDegrees>
              <LongitudeDegrees>-1.301274</LongitudeDegrees>
            </Position>
            <AltitudeMeters>878.222</AltitudeMeters>
            <DistanceMeters>567899.6245034</DistanceMeters>
          </Trackpoint>
          <Trackpoint>
            <Time>2021-08-03T16:44:15Z</Time>
            <Position>
              <LatitudeDegrees>40.932949</LatitudeDegrees>
              <LongitudeDegrees>-1.301280</LongitudeDegrees>
            </Position>
            <AltitudeMeters>878.217</AltitudeMeters>
            <DistanceMeters>567909.5433079</DistanceMeters>
          </Trackpoint>
          <Trackpoint>
            <Time>2021-08-03T16:44:16Z</Time>
            <Position>
              <LatitudeDegrees>40.932902</LatitudeDegrees>
              <LongitudeDegrees>-1.301286</LongitudeDegrees>
            </Position>
            <AltitudeMeters>878.548</AltitudeMeters>
            <DistanceMeters>567914.79820788</DistanceMeters>
          </Trackpoint>
          <Trackpoint>
            <Time>2021-08-03T16:44:18Z</Time>
            <Position>
              <LatitudeDegrees>40.932814</LatitudeDegrees>
              <LongitudeDegrees>-1.301301</LongitudeDegrees>
            </Position>
            <AltitudeMeters>879.235</AltitudeMeters>
            <DistanceMeters>567924.67367372</DistanceMeters>
          </Trackpoint>
          <Trackpoint>
            <Time>2021-08-03T16:44:20Z</Time>
            <Position>
              <LatitudeDegrees>40.932743</LatitudeDegrees>
              <LongitudeDegrees>-1.301320</LongitudeDegrees>
            </Position>
            <AltitudeMeters>879.286</AltitudeMeters>
            <DistanceMeters>567932.73639785</DistanceMeters>
          </Trackpoint>
          <Trackpoint>
            <Time>2021-08-03T16:44:22Z</Time>
            <Position>
              <LatitudeDegrees>40.932693</LatitudeDegrees>
              <LongitudeDegrees>-1.301337</LongitudeDegrees>
            </Position>
            <AltitudeMeters>879.114</AltitudeMeters>
            <DistanceMeters>567938.48217538</DistanceMeters>
          </Trackpoint>
          <Trackpoint>
            <Time>2021-08-03T16:44:24Z</Time>
            <Position>
              <LatitudeDegrees>40.932625</LatitudeDegrees>
              <LongitudeDegrees>-1.301357</LongitudeDegrees>
            </Position>
            <AltitudeMeters>878.408</AltitudeMeters>
            <DistanceMeters>567946.23486452</DistanceMeters>
          </Trackpoint>
          <Trackpoint>
            <Time>2021-08-03T16:44:26Z</Time>
            <Position>
              <LatitudeDegrees>40.932544</LatitudeDegrees>
              <LongitudeDegrees>-1.301374</LongitudeDegrees>
            </Position>
            <AltitudeMeters>878.440</AltitudeMeters>
            <DistanceMeters>567955.36237706</DistanceMeters>
          </Trackpoint>
          <Trackpoint>
            <Time>2021-08-03T16:44:28Z</Time>
            <Position>
              <LatitudeDegrees>40.932459</LatitudeDegrees>
              <LongitudeDegrees>-1.301384</LongitudeDegrees>
            </Position>
            <AltitudeMeters>878.422</AltitudeMeters>
            <DistanceMeters>567964.85982059</DistanceMeters>
          </Trackpoint>
          <Trackpoint>
            <Time>2021-08-03T16:44:30Z</Time>
            <Position>
              <LatitudeDegrees>40.932378</LatitudeDegrees>
              <LongitudeDegrees>-1.301390</LongitudeDegrees>
            </Position>
            <AltitudeMeters>878.472</AltitudeMeters>
            <DistanceMeters>567973.8893588</DistanceMeters>
          </Trackpoint>
          <Trackpoint>
            <Time>2021-08-03T16:44:32Z</Time>
            <Position>
              <LatitudeDegrees>40.932300</LatitudeDegrees>
              <LongitudeDegrees>-1.301408</LongitudeDegrees>
            </Position>
            <AltitudeMeters>878.365</AltitudeMeters>
            <DistanceMeters>567982.70177376</DistanceMeters>
          </Trackpoint>
          <Trackpoint>
            <Time>2021-08-03T16:44:34Z</Time>
            <Position>
              <LatitudeDegrees>40.932222</LatitudeDegrees>
              <LongitudeDegrees>-1.301413</LongitudeDegrees>
            </Position>
            <AltitudeMeters>878.213</AltitudeMeters>
            <DistanceMeters>567991.39347207</DistanceMeters>
          </Trackpoint>
          <Trackpoint>
            <Time>2021-08-03T16:44:36Z</Time>
            <Position>
              <LatitudeDegrees>40.932139</LatitudeDegrees>
              <LongitudeDegrees>-1.301412</LongitudeDegrees>
            </Position>
            <AltitudeMeters>878.288</AltitudeMeters>
            <DistanceMeters>568000.63210197</DistanceMeters>
          </Trackpoint>
          <Trackpoint>
            <Time>2021-08-03T16:44:38Z</Time>
            <Position>
              <LatitudeDegrees>40.932055</LatitudeDegrees>
              <LongitudeDegrees>-1.301398</LongitudeDegrees>
            </Position>
            <AltitudeMeters>878.253</AltitudeMeters>
            <DistanceMeters>568010.05557117</DistanceMeters>
          </Trackpoint>
          <Trackpoint>
            <Time>2021-08-03T16:44:40Z</Time>
            <Position>
              <LatitudeDegrees>40.931988</LatitudeDegrees>
              <LongitudeDegrees>-1.301418</LongitudeDegrees>
            </Position>
            <AltitudeMeters>878.094</AltitudeMeters>
            <DistanceMeters>568017.70035075</DistanceMeters>
          </Trackpoint>
          <Trackpoint>
            <Time>2021-08-03T16:44:42Z</Time>
            <Position>
              <LatitudeDegrees>40.931907</LatitudeDegrees>
              <LongitudeDegrees>-1.301454</LongitudeDegrees>
            </Position>
            <AltitudeMeters>878.031</AltitudeMeters>
            <DistanceMeters>568027.21014652</DistanceMeters>
          </Trackpoint>
          <Trackpoint>
            <Time>2021-08-03T16:44:44Z</Time>
            <Position>
              <LatitudeDegrees>40.931843</LatitudeDegrees>
              <LongitudeDegrees>-1.301494</LongitudeDegrees>
            </Position>
            <AltitudeMeters>878.061</AltitudeMeters>
            <DistanceMeters>568035.08762615</DistanceMeters>
          </Trackpoint>
          <Trackpoint>
            <Time>2021-08-03T16:44:46Z</Time>
            <Position>
              <LatitudeDegrees>40.931723</LatitudeDegrees>
              <LongitudeDegrees>-1.301459</LongitudeDegrees>
            </Position>
            <AltitudeMeters>878.107</AltitudeMeters>
            <DistanceMeters>568048.76421211</DistanceMeters>
          </Trackpoint>
          <Trackpoint>
            <Time>2021-08-03T16:44:48Z</Time>
            <Position>
              <LatitudeDegrees>40.931654</LatitudeDegrees>
              <LongitudeDegrees>-1.301491</LongitudeDegrees>
            </Position>
            <AltitudeMeters>878.208</AltitudeMeters>
            <DistanceMeters>568056.90218364</DistanceMeters>
          </Trackpoint>
          <Trackpoint>
            <Time>2021-08-03T16:44:50Z</Time>
            <Position>
              <LatitudeDegrees>40.931564</LatitudeDegrees>
              <LongitudeDegrees>-1.301496</LongitudeDegrees>
            </Position>
            <AltitudeMeters>878.310</AltitudeMeters>
            <DistanceMeters>568066.92783977</DistanceMeters>
          </Trackpoint>
          <Trackpoint>
            <Time>2021-08-03T16:44:52Z</Time>
            <Position>
              <LatitudeDegrees>40.931472</LatitudeDegrees>
              <LongitudeDegrees>-1.301491</LongitudeDegrees>
            </Position>
            <AltitudeMeters>878.642</AltitudeMeters>
            <DistanceMeters>568077.1757561</DistanceMeters>
          </Trackpoint>
          <Trackpoint>
            <Time>2021-08-03T16:44:53Z</Time>
            <Position>
              <LatitudeDegrees>40.931422</LatitudeDegrees>
              <LongitudeDegrees>-1.301497</LongitudeDegrees>
            </Position>
            <AltitudeMeters>878.632</AltitudeMeters>
            <DistanceMeters>568082.76297135</DistanceMeters>
          </Trackpoint>
          <Trackpoint>
            <Time>2021-08-03T16:44:55Z</Time>
            <Position>
              <LatitudeDegrees>40.931323</LatitudeDegrees>
              <LongitudeDegrees>-1.301508</LongitudeDegrees>
            </Position>
            <AltitudeMeters>878.825</AltitudeMeters>
            <DistanceMeters>568093.82042291</DistanceMeters>
          </Trackpoint>
          <Trackpoint>
            <Time>2021-08-03T16:44:56Z</Time>
            <Position>
              <LatitudeDegrees>40.931274</LatitudeDegrees>
              <LongitudeDegrees>-1.301509</LongitudeDegrees>
            </Position>
            <AltitudeMeters>878.743</AltitudeMeters>
            <DistanceMeters>568099.27432718</DistanceMeters>
          </Trackpoint>
          <Trackpoint>
            <Time>2021-08-03T16:44:57Z</Time>
            <Position>
              <LatitudeDegrees>40.931224</LatitudeDegrees>
              <LongitudeDegrees>-1.301515</LongitudeDegrees>
            </Position>
            <AltitudeMeters>878.758</AltitudeMeters>
            <DistanceMeters>568104.86154243</DistanceMeters>
          </Trackpoint>
          <Trackpoint>
            <Time>2021-08-03T16:44:58Z</Time>
            <Position>
              <LatitudeDegrees>40.931172</LatitudeDegrees>
              <LongitudeDegrees>-1.301526</LongitudeDegrees>
            </Position>
            <AltitudeMeters>878.613</AltitudeMeters>
            <DistanceMeters>568110.72246478</DistanceMeters>
          </Trackpoint>
          <Trackpoint>
            <Time>2021-08-03T16:44:59Z</Time>
            <Position>
              <LatitudeDegrees>40.931119</LatitudeDegrees>
              <LongitudeDegrees>-1.301534</LongitudeDegrees>
            </Position>
            <AltitudeMeters>878.514</AltitudeMeters>
            <DistanceMeters>568116.6599237</DistanceMeters>
          </Trackpoint>
          <Trackpoint>
            <Time>2021-08-03T16:45:01Z</Time>
            <Position>
              <LatitudeDegrees>40.931023</LatitudeDegrees>
              <LongitudeDegrees>-1.301549</LongitudeDegrees>
            </Position>
            <AltitudeMeters>878.263</AltitudeMeters>
            <DistanceMeters>568127.4189455</DistanceMeters>
          </Trackpoint>
          <Trackpoint>
            <Time>2021-08-03T16:45:03Z</Time>
            <Position>
              <LatitudeDegrees>40.930934</LatitudeDegrees>
              <LongitudeDegrees>-1.301571</LongitudeDegrees>
            </Position>
            <AltitudeMeters>878.144</AltitudeMeters>
            <DistanceMeters>568137.49625862</DistanceMeters>
          </Trackpoint>
          <Trackpoint>
            <Time>2021-08-03T16:45:05Z</Time>
            <Position>
              <LatitudeDegrees>40.930844</LatitudeDegrees>
              <LongitudeDegrees>-1.301584</LongitudeDegrees>
            </Position>
            <AltitudeMeters>878.118</AltitudeMeters>
            <DistanceMeters>568147.57267561</DistanceMeters>
          </Trackpoint>
          <Trackpoint>
            <Time>2021-08-03T16:45:07Z</Time>
            <Position>
              <LatitudeDegrees>40.930755</LatitudeDegrees>
              <LongitudeDegrees>-1.301598</LongitudeDegrees>
            </Position>
            <AltitudeMeters>878.208</AltitudeMeters>
            <DistanceMeters>568157.54821783</DistanceMeters>
          </Trackpoint>
          <Trackpoint>
            <Time>2021-08-03T16:45:09Z</Time>
            <Position>
              <LatitudeDegrees>40.930671</LatitudeDegrees>
              <LongitudeDegrees>-1.301608</LongitudeDegrees>
            </Position>
            <AltitudeMeters>878.233</AltitudeMeters>
            <DistanceMeters>568166.93520275</DistanceMeters>
          </Trackpoint>
          <Trackpoint>
            <Time>2021-08-03T16:45:11Z</Time>
            <Position>
              <LatitudeDegrees>40.930597</LatitudeDegrees>
              <LongitudeDegrees>-1.301619</LongitudeDegrees>
            </Position>
            <AltitudeMeters>878.115</AltitudeMeters>
            <DistanceMeters>568175.22379862</DistanceMeters>
          </Trackpoint>
          <Trackpoint>
            <Time>2021-08-03T16:45:13Z</Time>
            <Position>
              <LatitudeDegrees>40.930519</LatitudeDegrees>
              <LongitudeDegrees>-1.301621</LongitudeDegrees>
            </Position>
            <AltitudeMeters>878.065</AltitudeMeters>
            <DistanceMeters>568183.90718151</DistanceMeters>
          </Trackpoint>
          <Trackpoint>
            <Time>2021-08-03T16:45:15Z</Time>
            <Position>
              <LatitudeDegrees>40.930439</LatitudeDegrees>
              <LongitudeDegrees>-1.301639</LongitudeDegrees>
            </Position>
            <AltitudeMeters>878.058</AltitudeMeters>
            <DistanceMeters>568192.93821968</DistanceMeters>
          </Trackpoint>
          <Trackpoint>
            <Time>2021-08-03T16:45:17Z</Time>
            <Position>
              <LatitudeDegrees>40.930357</LatitudeDegrees>
              <LongitudeDegrees>-1.301631</LongitudeDegrees>
            </Position>
            <AltitudeMeters>878.246</AltitudeMeters>
            <DistanceMeters>568202.08944522</DistanceMeters>
          </Trackpoint>
          <Trackpoint>
            <Time>2021-08-03T16:45:18Z</Time>
            <Position>
              <LatitudeDegrees>40.930309</LatitudeDegrees>
              <LongitudeDegrees>-1.301633</LongitudeDegrees>
            </Position>
            <AltitudeMeters>878.281</AltitudeMeters>
            <DistanceMeters>568207.43464511</DistanceMeters>
          </Trackpoint>
          <Trackpoint>
            <Time>2021-08-03T16:45:20Z</Time>
            <Position>
              <LatitudeDegrees>40.930215</LatitudeDegrees>
              <LongitudeDegrees>-1.301631</LongitudeDegrees>
            </Position>
            <AltitudeMeters>878.286</AltitudeMeters>
            <DistanceMeters>568217.89837661</DistanceMeters>
          </Trackpoint>
          <Trackpoint>
            <Time>2021-08-03T16:45:21Z</Time>
            <Position>
              <LatitudeDegrees>40.930166</LatitudeDegrees>
              <LongitudeDegrees>-1.301638</LongitudeDegrees>
            </Position>
            <AltitudeMeters>877.827</AltitudeMeters>
            <DistanceMeters>568223.38364914</DistanceMeters>
          </Trackpoint>
          <Trackpoint>
            <Time>2021-08-03T16:45:23Z</Time>
            <Position>
              <LatitudeDegrees>40.930073</LatitudeDegrees>
              <LongitudeDegrees>-1.301651</LongitudeDegrees>
            </Position>
            <AltitudeMeters>877.346</AltitudeMeters>
            <DistanceMeters>568233.79200286</DistanceMeters>
          </Trackpoint>
          <Trackpoint>
            <Time>2021-08-03T16:45:25Z</Time>
            <Position>
              <LatitudeDegrees>40.929976</LatitudeDegrees>
              <LongitudeDegrees>-1.301637</LongitudeDegrees>
            </Position>
            <AltitudeMeters>877.388</AltitudeMeters>
            <DistanceMeters>568244.65252119</DistanceMeters>
          </Trackpoint>
          <Trackpoint>
            <Time>2021-08-03T16:45:27Z</Time>
            <Position>
              <LatitudeDegrees>40.929905</LatitudeDegrees>
              <LongitudeDegrees>-1.301652</LongitudeDegrees>
            </Position>
            <AltitudeMeters>877.416</AltitudeMeters>
            <DistanceMeters>568252.65453794</DistanceMeters>
          </Trackpoint>
          <Trackpoint>
            <Time>2021-08-03T16:45:29Z</Time>
            <Position>
              <LatitudeDegrees>40.929818</LatitudeDegrees>
              <LongitudeDegrees>-1.301678</LongitudeDegrees>
            </Position>
            <AltitudeMeters>877.608</AltitudeMeters>
            <DistanceMeters>568262.58107783</DistanceMeters>
          </Trackpoint>
          <Trackpoint>
            <Time>2021-08-03T16:45:31Z</Time>
            <Position>
              <LatitudeDegrees>40.929721</LatitudeDegrees>
              <LongitudeDegrees>-1.301701</LongitudeDegrees>
            </Position>
            <AltitudeMeters>878.271</AltitudeMeters>
            <DistanceMeters>568273.54915325</DistanceMeters>
          </Trackpoint>
          <Trackpoint>
            <Time>2021-08-03T16:45:33Z</Time>
            <Position>
              <LatitudeDegrees>40.929627</LatitudeDegrees>
              <LongitudeDegrees>-1.301706</LongitudeDegrees>
            </Position>
            <AltitudeMeters>878.273</AltitudeMeters>
            <DistanceMeters>568284.01935516</DistanceMeters>
          </Trackpoint>
          <Trackpoint>
            <Time>2021-08-03T16:45:35Z</Time>
            <Position>
              <LatitudeDegrees>40.929538</LatitudeDegrees>
              <LongitudeDegrees>-1.301720</LongitudeDegrees>
            </Position>
            <AltitudeMeters>878.283</AltitudeMeters>
            <DistanceMeters>568293.99534997</DistanceMeters>
          </Trackpoint>
          <Trackpoint>
            <Time>2021-08-03T16:45:37Z</Time>
            <Position>
              <LatitudeDegrees>40.929453</LatitudeDegrees>
              <LongitudeDegrees>-1.301717</LongitudeDegrees>
            </Position>
            <AltitudeMeters>878.246</AltitudeMeters>
            <DistanceMeters>568303.45993439</DistanceMeters>
          </Trackpoint>
          <Trackpoint>
            <Time>2021-08-03T16:45:38Z</Time>
            <Position>
              <LatitudeDegrees>40.929407</LatitudeDegrees>
              <LongitudeDegrees>-1.301716</LongitudeDegrees>
            </Position>
            <AltitudeMeters>878.244</AltitudeMeters>
            <DistanceMeters>568308.58080756</DistanceMeters>
          </Trackpoint>
          <Trackpoint>
            <Time>2021-08-03T16:45:40Z</Time>
            <Position>
              <LatitudeDegrees>40.929333</LatitudeDegrees>
              <LongitudeDegrees>-1.301737</LongitudeDegrees>
            </Position>
            <AltitudeMeters>878.279</AltitudeMeters>
            <DistanceMeters>568317.00448495</DistanceMeters>
          </Trackpoint>
          <Trackpoint>
            <Time>2021-08-03T16:45:42Z</Time>
            <Position>
              <LatitudeDegrees>40.929284</LatitudeDegrees>
              <LongitudeDegrees>-1.301754</LongitudeDegrees>
            </Position>
            <AltitudeMeters>878.384</AltitudeMeters>
            <DistanceMeters>568322.64238075</DistanceMeters>
          </Trackpoint>
          <Trackpoint>
            <Time>2021-08-03T16:45:43Z</Time>
            <Position>
              <LatitudeDegrees>40.929238</LatitudeDegrees>
              <LongitudeDegrees>-1.301764</LongitudeDegrees>
            </Position>
            <AltitudeMeters>878.365</AltitudeMeters>
            <DistanceMeters>568327.83157028</DistanceMeters>
          </Trackpoint>
          <Trackpoint>
            <Time>2021-08-03T16:45:45Z</Time>
            <Position>
              <LatitudeDegrees>40.929116</LatitudeDegrees>
              <LongitudeDegrees>-1.301781</LongitudeDegrees>
            </Position>
            <AltitudeMeters>878.364</AltitudeMeters>
            <DistanceMeters>568341.48535833</DistanceMeters>
          </Trackpoint>
          <Trackpoint>
            <Time>2021-08-03T16:45:47Z</Time>
            <Position>
              <LatitudeDegrees>40.929025</LatitudeDegrees>
              <LongitudeDegrees>-1.301805</LongitudeDegrees>
            </Position>
            <AltitudeMeters>878.106</AltitudeMeters>
            <DistanceMeters>568351.81314914</DistanceMeters>
          </Trackpoint>
          <Trackpoint>
            <Time>2021-08-03T16:45:48Z</Time>
            <Position>
              <LatitudeDegrees>40.928979</LatitudeDegrees>
              <LongitudeDegrees>-1.301810</LongitudeDegrees>
            </Position>
            <AltitudeMeters>877.916</AltitudeMeters>
            <DistanceMeters>568356.94986826</DistanceMeters>
          </Trackpoint>
          <Trackpoint>
            <Time>2021-08-03T16:45:50Z</Time>
            <Position>
              <LatitudeDegrees>40.928885</LatitudeDegrees>
              <LongitudeDegrees>-1.301823</LongitudeDegrees>
            </Position>
            <AltitudeMeters>877.808</AltitudeMeters>
            <DistanceMeters>568367.46911523</DistanceMeters>
          </Trackpoint>
          <Trackpoint>
            <Time>2021-08-03T16:45:51Z</Time>
            <Position>
              <LatitudeDegrees>40.928841</LatitudeDegrees>
              <LongitudeDegrees>-1.301834</LongitudeDegrees>
            </Position>
            <AltitudeMeters>877.853</AltitudeMeters>
            <DistanceMeters>568372.45416993</DistanceMeters>
          </Trackpoint>
          <Trackpoint>
            <Time>2021-08-03T16:45:53Z</Time>
            <Position>
              <LatitudeDegrees>40.928748</LatitudeDegrees>
              <LongitudeDegrees>-1.301844</LongitudeDegrees>
            </Position>
            <AltitudeMeters>877.895</AltitudeMeters>
            <DistanceMeters>568382.83907258</DistanceMeters>
          </Trackpoint>
          <Trackpoint>
            <Time>2021-08-03T16:45:55Z</Time>
            <Position>
              <LatitudeDegrees>40.928661</LatitudeDegrees>
              <LongitudeDegrees>-1.301846</LongitudeDegrees>
            </Position>
            <AltitudeMeters>878.125</AltitudeMeters>
            <DistanceMeters>568392.5234091</DistanceMeters>
          </Trackpoint>
          <Trackpoint>
            <Time>2021-08-03T16:45:57Z</Time>
            <Position>
              <LatitudeDegrees>40.928574</LatitudeDegrees>
              <LongitudeDegrees>-1.301846</LongitudeDegrees>
            </Position>
            <AltitudeMeters>878.148</AltitudeMeters>
            <DistanceMeters>568402.20681314</DistanceMeters>
          </Trackpoint>
          <Trackpoint>
            <Time>2021-08-03T16:45:59Z</Time>
            <Position>
              <LatitudeDegrees>40.928484</LatitudeDegrees>
              <LongitudeDegrees>-1.301847</LongitudeDegrees>
            </Position>
            <AltitudeMeters>878.216</AltitudeMeters>
            <DistanceMeters>568412.22435972</DistanceMeters>
          </Trackpoint>
          <Trackpoint>
            <Time>2021-08-03T16:46:01Z</Time>
            <Position>
              <LatitudeDegrees>40.928398</LatitudeDegrees>
              <LongitudeDegrees>-1.301842</LongitudeDegrees>
            </Position>
            <AltitudeMeters>878.791</AltitudeMeters>
            <DistanceMeters>568421.80510745</DistanceMeters>
          </Trackpoint>
          <Trackpoint>
            <Time>2021-08-03T16:46:03Z</Time>
            <Position>
              <LatitudeDegrees>40.928312</LatitudeDegrees>
              <LongitudeDegrees>-1.301835</LongitudeDegrees>
            </Position>
            <AltitudeMeters>878.886</AltitudeMeters>
            <DistanceMeters>568431.39480497</DistanceMeters>
          </Trackpoint>
          <Trackpoint>
            <Time>2021-08-03T16:46:05Z</Time>
            <Position>
              <LatitudeDegrees>40.928224</LatitudeDegrees>
              <LongitudeDegrees>-1.301836</LongitudeDegrees>
            </Position>
            <AltitudeMeters>878.897</AltitudeMeters>
            <DistanceMeters>568441.18947353</DistanceMeters>
          </Trackpoint>
          <Trackpoint>
            <Time>2021-08-03T16:46:07Z</Time>
            <Position>
              <LatitudeDegrees>40.928136</LatitudeDegrees>
              <LongitudeDegrees>-1.301834</LongitudeDegrees>
            </Position>
            <AltitudeMeters>878.838</AltitudeMeters>
            <DistanceMeters>568450.98506398</DistanceMeters>
          </Trackpoint>
          <Trackpoint>
            <Time>2021-08-03T16:46:09Z</Time>
            <Position>
              <LatitudeDegrees>40.928048</LatitudeDegrees>
              <LongitudeDegrees>-1.301827</LongitudeDegrees>
            </Position>
            <AltitudeMeters>878.770</AltitudeMeters>
            <DistanceMeters>568460.79677357</DistanceMeters>
          </Trackpoint>
          <Trackpoint>
            <Time>2021-08-03T16:46:11Z</Time>
            <Position>
              <LatitudeDegrees>40.927957</LatitudeDegrees>
              <LongitudeDegrees>-1.301826</LongitudeDegrees>
            </Position>
            <AltitudeMeters>878.517</AltitudeMeters>
            <DistanceMeters>568470.92548022</DistanceMeters>
          </Trackpoint>
          <Trackpoint>
            <Time>2021-08-03T16:46:12Z</Time>
            <Position>
              <LatitudeDegrees>40.927911</LatitudeDegrees>
              <LongitudeDegrees>-1.301817</LongitudeDegrees>
            </Position>
            <AltitudeMeters>878.508</AltitudeMeters>
            <DistanceMeters>568476.10072966</DistanceMeters>
          </Trackpoint>
          <Trackpoint>
            <Time>2021-08-03T16:46:13Z</Time>
            <Position>
              <LatitudeDegrees>40.927865</LatitudeDegrees>
              <LongitudeDegrees>-1.301815</LongitudeDegrees>
            </Position>
            <AltitudeMeters>878.550</AltitudeMeters>
            <DistanceMeters>568481.22336591</DistanceMeters>
          </Trackpoint>
          <Trackpoint>
            <Time>2021-08-03T16:46:15Z</Time>
            <Position>
              <LatitudeDegrees>40.927773</LatitudeDegrees>
              <LongitudeDegrees>-1.301810</LongitudeDegrees>
            </Position>
            <AltitudeMeters>879.082</AltitudeMeters>
            <DistanceMeters>568491.47128223</DistanceMeters>
          </Trackpoint>
          <Trackpoint>
            <Time>2021-08-03T16:46:16Z</Time>
            <Position>
              <LatitudeDegrees>40.927727</LatitudeDegrees>
              <LongitudeDegrees>-1.301812</LongitudeDegrees>
            </Position>
            <AltitudeMeters>879.192</AltitudeMeters>
            <DistanceMeters>568496.59391848</DistanceMeters>
          </Trackpoint>
          <Trackpoint>
            <Time>2021-08-03T16:46:18Z</Time>
            <Position>
              <LatitudeDegrees>40.927660</LatitudeDegrees>
              <LongitudeDegrees>-1.301812</LongitudeDegrees>
            </Position>
            <AltitudeMeters>879.215</AltitudeMeters>
            <DistanceMeters>568504.05094274</DistanceMeters>
          </Trackpoint>
          <Trackpoint>
            <Time>2021-08-03T16:46:20Z</Time>
            <Position>
              <LatitudeDegrees>40.927562</LatitudeDegrees>
              <LongitudeDegrees>-1.301814</LongitudeDegrees>
            </Position>
            <AltitudeMeters>879.173</AltitudeMeters>
            <DistanceMeters>568514.9595791</DistanceMeters>
          </Trackpoint>
          <Trackpoint>
            <Time>2021-08-03T16:46:22Z</Time>
            <Position>
              <LatitudeDegrees>40.927422</LatitudeDegrees>
              <LongitudeDegrees>-1.301808</LongitudeDegrees>
            </Position>
            <AltitudeMeters>879.138</AltitudeMeters>
            <DistanceMeters>568530.5497535</DistanceMeters>
          </Trackpoint>
          <Trackpoint>
            <Time>2021-08-03T16:46:24Z</Time>
            <Position>
              <LatitudeDegrees>40.927346</LatitudeDegrees>
              <LongitudeDegrees>-1.301811</LongitudeDegrees>
            </Position>
            <AltitudeMeters>879.033</AltitudeMeters>
            <DistanceMeters>568539.01246797</DistanceMeters>
          </Trackpoint>
          <Trackpoint>
            <Time>2021-08-03T16:46:28Z</Time>
            <Position>
              <LatitudeDegrees>40.927284</LatitudeDegrees>
              <LongitudeDegrees>-1.301817</LongitudeDegrees>
            </Position>
            <AltitudeMeters>878.744</AltitudeMeters>
            <DistanceMeters>568545.93182237</DistanceMeters>
          </Trackpoint>
          <Trackpoint>
            <Time>2021-08-03T16:46:30Z</Time>
            <Position>
              <LatitudeDegrees>40.927231</LatitudeDegrees>
              <LongitudeDegrees>-1.301819</LongitudeDegrees>
            </Position>
            <AltitudeMeters>878.653</AltitudeMeters>
            <DistanceMeters>568551.83266763</DistanceMeters>
          </Trackpoint>
          <Trackpoint>
            <Time>2021-08-03T16:46:32Z</Time>
            <Position>
              <LatitudeDegrees>40.927167</LatitudeDegrees>
              <LongitudeDegrees>-1.301821</LongitudeDegrees>
            </Position>
            <AltitudeMeters>878.504</AltitudeMeters>
            <DistanceMeters>568558.95777042</DistanceMeters>
          </Trackpoint>
          <Trackpoint>
            <Time>2021-08-03T16:46:34Z</Time>
            <Position>
              <LatitudeDegrees>40.927093</LatitudeDegrees>
              <LongitudeDegrees>-1.301819</LongitudeDegrees>
            </Position>
            <AltitudeMeters>878.514</AltitudeMeters>
            <DistanceMeters>568567.19555073</DistanceMeters>
          </Trackpoint>
          <Trackpoint>
            <Time>2021-08-03T16:46:36Z</Time>
            <Position>
              <LatitudeDegrees>40.927002</LatitudeDegrees>
              <LongitudeDegrees>-1.301818</LongitudeDegrees>
            </Position>
            <AltitudeMeters>878.308</AltitudeMeters>
            <DistanceMeters>568577.32425738</DistanceMeters>
          </Trackpoint>
          <Trackpoint>
            <Time>2021-08-03T16:46:37Z</Time>
            <Position>
              <LatitudeDegrees>40.926949</LatitudeDegrees>
              <LongitudeDegrees>-1.301818</LongitudeDegrees>
            </Position>
            <AltitudeMeters>878.582</AltitudeMeters>
            <DistanceMeters>568583.22357214</DistanceMeters>
          </Trackpoint>
          <Trackpoint>
            <Time>2021-08-03T16:46:39Z</Time>
            <Position>
              <LatitudeDegrees>40.926821</LatitudeDegrees>
              <LongitudeDegrees>-1.301812</LongitudeDegrees>
            </Position>
            <AltitudeMeters>878.634</AltitudeMeters>
            <DistanceMeters>568597.47916299</DistanceMeters>
          </Trackpoint>
          <Trackpoint>
            <Time>2021-08-03T16:46:41Z</Time>
            <Position>
              <LatitudeDegrees>40.926691</LatitudeDegrees>
              <LongitudeDegrees>-1.301815</LongitudeDegrees>
            </Position>
            <AltitudeMeters>878.634</AltitudeMeters>
            <DistanceMeters>568611.95070516</DistanceMeters>
          </Trackpoint>
          <Trackpoint>
            <Time>2021-08-03T16:46:42Z</Time>
            <Position>
              <LatitudeDegrees>40.926625</LatitudeDegrees>
              <LongitudeDegrees>-1.301820</LongitudeDegrees>
            </Position>
            <AltitudeMeters>878.387</AltitudeMeters>
            <DistanceMeters>568619.30837519</DistanceMeters>
          </Trackpoint>
          <Trackpoint>
            <Time>2021-08-03T16:46:43Z</Time>
            <Position>
              <LatitudeDegrees>40.926561</LatitudeDegrees>
              <LongitudeDegrees>-1.301825</LongitudeDegrees>
            </Position>
            <AltitudeMeters>878.345</AltitudeMeters>
            <DistanceMeters>568626.44360967</DistanceMeters>
          </Trackpoint>
          <Trackpoint>
            <Time>2021-08-03T16:46:45Z</Time>
            <Position>
              <LatitudeDegrees>40.926446</LatitudeDegrees>
              <LongitudeDegrees>-1.301827</LongitudeDegrees>
            </Position>
            <AltitudeMeters>878.290</AltitudeMeters>
            <DistanceMeters>568639.2443818</DistanceMeters>
          </Trackpoint>
          <Trackpoint>
            <Time>2021-08-03T16:46:47Z</Time>
            <Position>
              <LatitudeDegrees>40.926364</LatitudeDegrees>
              <LongitudeDegrees>-1.301819</LongitudeDegrees>
            </Position>
            <AltitudeMeters>878.495</AltitudeMeters>
            <DistanceMeters>568648.39610071</DistanceMeters>
          </Trackpoint>
          <Trackpoint>
            <Time>2021-08-03T16:46:49Z</Time>
            <Position>
              <LatitudeDegrees>40.926281</LatitudeDegrees>
              <LongitudeDegrees>-1.301806</LongitudeDegrees>
            </Position>
            <AltitudeMeters>878.636</AltitudeMeters>
            <DistanceMeters>568657.69853171</DistanceMeters>
          </Trackpoint>
          <Trackpoint>
            <Time>2021-08-03T16:46:51Z</Time>
            <Position>
              <LatitudeDegrees>40.926192</LatitudeDegrees>
              <LongitudeDegrees>-1.301796</LongitudeDegrees>
            </Position>
            <AltitudeMeters>878.742</AltitudeMeters>
            <DistanceMeters>568667.63961599</DistanceMeters>
          </Trackpoint>
          <Trackpoint>
            <Time>2021-08-03T16:46:53Z</Time>
            <Position>
              <LatitudeDegrees>40.926113</LatitudeDegrees>
              <LongitudeDegrees>-1.301783</LongitudeDegrees>
            </Position>
            <AltitudeMeters>879.322</AltitudeMeters>
            <DistanceMeters>568676.50006093</DistanceMeters>
          </Trackpoint>
          <Trackpoint>
            <Time>2021-08-03T16:46:55Z</Time>
            <Position>
              <LatitudeDegrees>40.926039</LatitudeDegrees>
              <LongitudeDegrees>-1.301771</LongitudeDegrees>
            </Position>
            <AltitudeMeters>879.314</AltitudeMeters>
            <DistanceMeters>568684.79845614</DistanceMeters>
          </Trackpoint>
          <Trackpoint>
            <Time>2021-08-03T16:46:57Z</Time>
            <Position>
              <LatitudeDegrees>40.925969</LatitudeDegrees>
              <LongitudeDegrees>-1.301763</LongitudeDegrees>
            </Position>
            <AltitudeMeters>879.408</AltitudeMeters>
            <DistanceMeters>568692.61840995</DistanceMeters>
          </Trackpoint>
          <Trackpoint>
            <Time>2021-08-03T16:46:59Z</Time>
            <Position>
              <LatitudeDegrees>40.925898</LatitudeDegrees>
              <LongitudeDegrees>-1.301766</LongitudeDegrees>
            </Position>
            <AltitudeMeters>879.461</AltitudeMeters>
            <DistanceMeters>568700.52506659</DistanceMeters>
          </Trackpoint>
          <Trackpoint>
            <Time>2021-08-03T16:47:01Z</Time>
            <Position>
              <LatitudeDegrees>40.925821</LatitudeDegrees>
              <LongitudeDegrees>-1.301757</LongitudeDegrees>
            </Position>
            <AltitudeMeters>879.363</AltitudeMeters>
            <DistanceMeters>568709.1290521</DistanceMeters>
          </Trackpoint>
          <Trackpoint>
            <Time>2021-08-03T16:47:03Z</Time>
            <Position>
              <LatitudeDegrees>40.925715</LatitudeDegrees>
              <LongitudeDegrees>-1.301765</LongitudeDegrees>
            </Position>
            <AltitudeMeters>879.623</AltitudeMeters>
            <DistanceMeters>568720.94641781</DistanceMeters>
          </Trackpoint>
          <Trackpoint>
            <Time>2021-08-03T16:47:04Z</Time>
            <Position>
              <LatitudeDegrees>40.925660</LatitudeDegrees>
              <LongitudeDegrees>-1.301772</LongitudeDegrees>
            </Position>
            <AltitudeMeters>879.646</AltitudeMeters>
            <DistanceMeters>568727.0960487</DistanceMeters>
          </Trackpoint>
          <Trackpoint>
            <Time>2021-08-03T16:47:05Z</Time>
            <Position>
              <LatitudeDegrees>40.925603</LatitudeDegrees>
              <LongitudeDegrees>-1.301773</LongitudeDegrees>
            </Position>
            <AltitudeMeters>879.434</AltitudeMeters>
            <DistanceMeters>568733.44081669</DistanceMeters>
          </Trackpoint>
          <Trackpoint>
            <Time>2021-08-03T16:47:07Z</Time>
            <Position>
              <LatitudeDegrees>40.925493</LatitudeDegrees>
              <LongitudeDegrees>-1.301812</LongitudeDegrees>
            </Position>
            <AltitudeMeters>879.039</AltitudeMeters>
            <DistanceMeters>568746.11539991</DistanceMeters>
          </Trackpoint>
          <Trackpoint>
            <Time>2021-08-03T16:47:09Z</Time>
            <Position>
              <LatitudeDegrees>40.925370</LatitudeDegrees>
              <LongitudeDegrees>-1.301836</LongitudeDegrees>
            </Position>
            <AltitudeMeters>879.054</AltitudeMeters>
            <DistanceMeters>568759.95345618</DistanceMeters>
          </Trackpoint>
          <Trackpoint>
            <Time>2021-08-03T16:47:10Z</Time>
            <Position>
              <LatitudeDegrees>40.925304</LatitudeDegrees>
              <LongitudeDegrees>-1.301841</LongitudeDegrees>
            </Position>
            <AltitudeMeters>879.345</AltitudeMeters>
            <DistanceMeters>568767.31051253</DistanceMeters>
          </Trackpoint>
          <Trackpoint>
            <Time>2021-08-03T16:47:12Z</Time>
            <Position>
              <LatitudeDegrees>40.925180</LatitudeDegrees>
              <LongitudeDegrees>-1.301861</LongitudeDegrees>
            </Position>
            <AltitudeMeters>879.321</AltitudeMeters>
            <DistanceMeters>568781.21399578</DistanceMeters>
          </Trackpoint>
          <Trackpoint>
            <Time>2021-08-03T16:47:14Z</Time>
            <Position>
              <LatitudeDegrees>40.925081</LatitudeDegrees>
              <LongitudeDegrees>-1.301897</LongitudeDegrees>
            </Position>
            <AltitudeMeters>879.341</AltitudeMeters>
            <DistanceMeters>568792.6413286</DistanceMeters>
          </Trackpoint>
          <Trackpoint>
            <Time>2021-08-03T16:47:16Z</Time>
            <Position>
              <LatitudeDegrees>40.924998</LatitudeDegrees>
              <LongitudeDegrees>-1.301895</LongitudeDegrees>
            </Position>
            <AltitudeMeters>879.405</AltitudeMeters>
            <DistanceMeters>568801.88044721</DistanceMeters>
          </Trackpoint>
          <Trackpoint>
            <Time>2021-08-03T16:47:18Z</Time>
            <Position>
              <LatitudeDegrees>40.924930</LatitudeDegrees>
              <LongitudeDegrees>-1.301899</LongitudeDegrees>
            </Position>
            <AltitudeMeters>879.508</AltitudeMeters>
            <DistanceMeters>568809.45640694</DistanceMeters>
          </Trackpoint>
          <Trackpoint>
            <Time>2021-08-03T16:47:20Z</Time>
            <Position>
              <LatitudeDegrees>40.924869</LatitudeDegrees>
              <LongitudeDegrees>-1.301895</LongitudeDegrees>
            </Position>
            <AltitudeMeters>879.559</AltitudeMeters>
            <DistanceMeters>568816.25463695</DistanceMeters>
          </Trackpoint>
          <Trackpoint>
            <Time>2021-08-03T16:47:22Z</Time>
            <Position>
              <LatitudeDegrees>40.924807</LatitudeDegrees>
              <LongitudeDegrees>-1.301895</LongitudeDegrees>
            </Position>
            <AltitudeMeters>879.821</AltitudeMeters>
            <DistanceMeters>568823.15569652</DistanceMeters>
          </Trackpoint>
          <Trackpoint>
            <Time>2021-08-03T16:47:24Z</Time>
            <Position>
              <LatitudeDegrees>40.924757</LatitudeDegrees>
              <LongitudeDegrees>-1.301850</LongitudeDegrees>
            </Position>
            <AltitudeMeters>879.921</AltitudeMeters>
            <DistanceMeters>568829.88584239</DistanceMeters>
          </Trackpoint>
          <Trackpoint>
            <Time>2021-08-03T16:47:26Z</Time>
            <Position>
              <LatitudeDegrees>40.924679</LatitudeDegrees>
              <LongitudeDegrees>-1.301863</LongitudeDegrees>
            </Position>
            <AltitudeMeters>879.954</AltitudeMeters>
            <DistanceMeters>568838.63604342</DistanceMeters>
          </Trackpoint>
          <Trackpoint>
            <Time>2021-08-03T16:47:28Z</Time>
            <Position>
              <LatitudeDegrees>40.924612</LatitudeDegrees>
              <LongitudeDegrees>-1.301864</LongitudeDegrees>
            </Position>
            <AltitudeMeters>879.832</AltitudeMeters>
            <DistanceMeters>568846.09427853</DistanceMeters>
          </Trackpoint>
          <Trackpoint>
            <Time>2021-08-03T16:47:30Z</Time>
            <Position>
              <LatitudeDegrees>40.924533</LatitudeDegrees>
              <LongitudeDegrees>-1.301873</LongitudeDegrees>
            </Position>
            <AltitudeMeters>879.867</AltitudeMeters>
            <DistanceMeters>568854.91898132</DistanceMeters>
          </Trackpoint>
          <Trackpoint>
            <Time>2021-08-03T16:47:32Z</Time>
            <Position>
              <LatitudeDegrees>40.924451</LatitudeDegrees>
              <LongitudeDegrees>-1.301886</LongitudeDegrees>
            </Position>
            <AltitudeMeters>880.172</AltitudeMeters>
            <DistanceMeters>568864.11106624</DistanceMeters>
          </Trackpoint>
          <Trackpoint>
            <Time>2021-08-03T16:47:34Z</Time>
            <Position>
              <LatitudeDegrees>40.924362</LatitudeDegrees>
              <LongitudeDegrees>-1.301880</LongitudeDegrees>
            </Position>
            <AltitudeMeters>880.263</AltitudeMeters>
            <DistanceMeters>568874.02987075</DistanceMeters>
          </Trackpoint>
          <Trackpoint>
            <Time>2021-08-03T16:47:36Z</Time>
            <Position>
              <LatitudeDegrees>40.924287</LatitudeDegrees>
              <LongitudeDegrees>-1.301881</LongitudeDegrees>
            </Position>
            <AltitudeMeters>880.247</AltitudeMeters>
            <DistanceMeters>568882.37871259</DistanceMeters>
          </Trackpoint>
          <Trackpoint>
            <Time>2021-08-03T16:47:38Z</Time>
            <Position>
              <LatitudeDegrees>40.924201</LatitudeDegrees>
              <LongitudeDegrees>-1.301887</LongitudeDegrees>
            </Position>
            <AltitudeMeters>880.229</AltitudeMeters>
            <DistanceMeters>568891.96464279</DistanceMeters>
          </Trackpoint>
          <Trackpoint>
            <Time>2021-08-03T16:47:40Z</Time>
            <Position>
              <LatitudeDegrees>40.924121</LatitudeDegrees>
              <LongitudeDegrees>-1.301881</LongitudeDegrees>
            </Position>
            <AltitudeMeters>880.221</AltitudeMeters>
            <DistanceMeters>568900.88400227</DistanceMeters>
          </Trackpoint>
          <Trackpoint>
            <Time>2021-08-03T16:47:42Z</Time>
            <Position>
              <LatitudeDegrees>40.924041</LatitudeDegrees>
              <LongitudeDegrees>-1.301876</LongitudeDegrees>
            </Position>
            <AltitudeMeters>880.208</AltitudeMeters>
            <DistanceMeters>568909.79829824</DistanceMeters>
          </Trackpoint>
          <Trackpoint>
            <Time>2021-08-03T16:47:44Z</Time>
            <Position>
              <LatitudeDegrees>40.923962</LatitudeDegrees>
              <LongitudeDegrees>-1.301878</LongitudeDegrees>
            </Position>
            <AltitudeMeters>879.811</AltitudeMeters>
            <DistanceMeters>568918.59224927</DistanceMeters>
          </Trackpoint>
          <Trackpoint>
            <Time>2021-08-03T16:47:46Z</Time>
            <Position>
              <LatitudeDegrees>40.923889</LatitudeDegrees>
              <LongitudeDegrees>-1.301884</LongitudeDegrees>
            </Position>
            <AltitudeMeters>879.463</AltitudeMeters>
            <DistanceMeters>568926.73299439</DistanceMeters>
          </Trackpoint>
          <Trackpoint>
            <Time>2021-08-03T16:47:48Z</Time>
            <Position>
              <LatitudeDegrees>40.923824</LatitudeDegrees>
              <LongitudeDegrees>-1.301886</LongitudeDegrees>
            </Position>
            <AltitudeMeters>879.083</AltitudeMeters>
            <DistanceMeters>568933.96876547</DistanceMeters>
          </Trackpoint>
          <Trackpoint>
            <Time>2021-08-03T16:47:50Z</Time>
            <Position>
              <LatitudeDegrees>40.923734</LatitudeDegrees>
              <LongitudeDegrees>-1.301885</LongitudeDegrees>
            </Position>
            <AltitudeMeters>878.726</AltitudeMeters>
            <DistanceMeters>568943.98631206</DistanceMeters>
          </Trackpoint>
          <Trackpoint>
            <Time>2021-08-03T16:47:51Z</Time>
            <Position>
              <LatitudeDegrees>40.923688</LatitudeDegrees>
              <LongitudeDegrees>-1.301887</LongitudeDegrees>
            </Position>
            <AltitudeMeters>878.784</AltitudeMeters>
            <DistanceMeters>568949.1089483</DistanceMeters>
          </Trackpoint>
          <Trackpoint>
            <Time>2021-08-03T16:47:53Z</Time>
            <Position>
              <LatitudeDegrees>40.923599</LatitudeDegrees>
              <LongitudeDegrees>-1.301895</LongitudeDegrees>
            </Position>
            <AltitudeMeters>878.749</AltitudeMeters>
            <DistanceMeters>568959.03821689</DistanceMeters>
          </Trackpoint>
          <Trackpoint>
            <Time>2021-08-03T16:47:55Z</Time>
            <Position>
              <LatitudeDegrees>40.923513</LatitudeDegrees>
              <LongitudeDegrees>-1.301903</LongitudeDegrees>
            </Position>
            <AltitudeMeters>879.544</AltitudeMeters>
            <DistanceMeters>568968.63403314</DistanceMeters>
          </Trackpoint>
          <Trackpoint>
            <Time>2021-08-03T16:47:57Z</Time>
            <Position>
              <LatitudeDegrees>40.923424</LatitudeDegrees>
              <LongitudeDegrees>-1.301902</LongitudeDegrees>
            </Position>
            <AltitudeMeters>879.925</AltitudeMeters>
            <DistanceMeters>568978.54053963</DistanceMeters>
          </Trackpoint>
          <Trackpoint>
            <Time>2021-08-03T16:47:59Z</Time>
            <Position>
              <LatitudeDegrees>40.923331</LatitudeDegrees>
              <LongitudeDegrees>-1.301901</LongitudeDegrees>
            </Position>
            <AltitudeMeters>880.657</AltitudeMeters>
            <DistanceMeters>568988.89234706</DistanceMeters>
          </Trackpoint>
          <Trackpoint>
            <Time>2021-08-03T16:48:01Z</Time>
            <Position>
              <LatitudeDegrees>40.923245</LatitudeDegrees>
              <LongitudeDegrees>-1.301902</LongitudeDegrees>
            </Position>
            <AltitudeMeters>881.300</AltitudeMeters>
            <DistanceMeters>568998.46507999</DistanceMeters>
          </Trackpoint>
          <Trackpoint>
            <Time>2021-08-03T16:48:03Z</Time>
            <Position>
              <LatitudeDegrees>40.923159</LatitudeDegrees>
              <LongitudeDegrees>-1.301907</LongitudeDegrees>
            </Position>
            <AltitudeMeters>881.520</AltitudeMeters>
            <DistanceMeters>569008.04629897</DistanceMeters>
          </Trackpoint>
          <Trackpoint>
            <Time>2021-08-03T16:48:05Z</Time>
            <Position>
              <LatitudeDegrees>40.923075</LatitudeDegrees>
              <LongitudeDegrees>-1.301912</LongitudeDegrees>
            </Position>
            <AltitudeMeters>881.708</AltitudeMeters>
            <DistanceMeters>569017.40534494</DistanceMeters>
          </Trackpoint>
          <Trackpoint>
            <Time>2021-08-03T16:48:07Z</Time>
            <Position>
              <LatitudeDegrees>40.922992</LatitudeDegrees>
              <LongitudeDegrees>-1.301922</LongitudeDegrees>
            </Position>
            <AltitudeMeters>882.282</AltitudeMeters>
            <DistanceMeters>569026.68201614</DistanceMeters>
          </Trackpoint>
          <Trackpoint>
            <Time>2021-08-03T16:48:09Z</Time>
            <Position>
              <LatitudeDegrees>40.922911</LatitudeDegrees>
              <LongitudeDegrees>-1.301934</LongitudeDegrees>
            </Position>
            <AltitudeMeters>882.314</AltitudeMeters>
            <DistanceMeters>569035.75395732</DistanceMeters>
          </Trackpoint>
          <Trackpoint>
            <Time>2021-08-03T16:48:11Z</Time>
            <Position>
              <LatitudeDegrees>40.922845</LatitudeDegrees>
              <LongitudeDegrees>-1.301937</LongitudeDegrees>
            </Position>
            <AltitudeMeters>882.324</AltitudeMeters>
            <DistanceMeters>569043.10364556</DistanceMeters>
          </Trackpoint>
          <Trackpoint>
            <Time>2021-08-03T16:48:14Z</Time>
            <Position>
              <LatitudeDegrees>40.922783</LatitudeDegrees>
              <LongitudeDegrees>-1.301926</LongitudeDegrees>
            </Position>
            <AltitudeMeters>882.597</AltitudeMeters>
            <DistanceMeters>569050.06658175</DistanceMeters>
          </Trackpoint>
          <Trackpoint>
            <Time>2021-08-03T16:48:16Z</Time>
            <Position>
              <LatitudeDegrees>40.922686</LatitudeDegrees>
              <LongitudeDegrees>-1.301905</LongitudeDegrees>
            </Position>
            <AltitudeMeters>882.845</AltitudeMeters>
            <DistanceMeters>569061.00580353</DistanceMeters>
          </Trackpoint>
          <Trackpoint>
            <Time>2021-08-03T16:48:18Z</Time>
            <Position>
              <LatitudeDegrees>40.922583</LatitudeDegrees>
              <LongitudeDegrees>-1.301878</LongitudeDegrees>
            </Position>
            <AltitudeMeters>882.930</AltitudeMeters>
            <DistanceMeters>569072.69254414</DistanceMeters>
          </Trackpoint>
          <Trackpoint>
            <Time>2021-08-03T16:48:19Z</Time>
            <Position>
              <LatitudeDegrees>40.922536</LatitudeDegrees>
              <LongitudeDegrees>-1.301864</LongitudeDegrees>
            </Position>
            <AltitudeMeters>882.945</AltitudeMeters>
            <DistanceMeters>569078.05545319</DistanceMeters>
          </Trackpoint>
          <Trackpoint>
            <Time>2021-08-03T16:48:21Z</Time>
            <Position>
              <LatitudeDegrees>40.922459</LatitudeDegrees>
              <LongitudeDegrees>-1.301838</LongitudeDegrees>
            </Position>
            <AltitudeMeters>883.026</AltitudeMeters>
            <DistanceMeters>569086.90008729</DistanceMeters>
          </Trackpoint>
          <Trackpoint>
            <Time>2021-08-03T16:48:23Z</Time>
            <Position>
              <LatitudeDegrees>40.922390</LatitudeDegrees>
              <LongitudeDegrees>-1.301812</LongitudeDegrees>
            </Position>
            <AltitudeMeters>883.467</AltitudeMeters>
            <DistanceMeters>569094.88459351</DistanceMeters>
          </Trackpoint>
          <Trackpoint>
            <Time>2021-08-03T16:48:25Z</Time>
            <Position>
              <LatitudeDegrees>40.922320</LatitudeDegrees>
              <LongitudeDegrees>-1.301797</LongitudeDegrees>
            </Position>
            <AltitudeMeters>883.881</AltitudeMeters>
            <DistanceMeters>569102.77696118</DistanceMeters>
          </Trackpoint>
          <Trackpoint>
            <Time>2021-08-03T16:48:27Z</Time>
            <Position>
              <LatitudeDegrees>40.922267</LatitudeDegrees>
              <LongitudeDegrees>-1.301788</LongitudeDegrees>
            </Position>
            <AltitudeMeters>884.019</AltitudeMeters>
            <DistanceMeters>569108.72429751</DistanceMeters>
          </Trackpoint>
          <Trackpoint>
            <Time>2021-08-03T16:48:29Z</Time>
            <Position>
              <LatitudeDegrees>40.922218</LatitudeDegrees>
              <LongitudeDegrees>-1.301772</LongitudeDegrees>
            </Position>
            <AltitudeMeters>884.008</AltitudeMeters>
            <DistanceMeters>569114.34133294</DistanceMeters>
          </Trackpoint>
          <Trackpoint>
            <Time>2021-08-03T16:48:31Z</Time>
            <Position>
              <LatitudeDegrees>40.922154</LatitudeDegrees>
              <LongitudeDegrees>-1.301754</LongitudeDegrees>
            </Position>
            <AltitudeMeters>884.023</AltitudeMeters>
            <DistanceMeters>569121.62313278</DistanceMeters>
          </Trackpoint>
          <Trackpoint>
            <Time>2021-08-03T16:48:33Z</Time>
            <Position>
              <LatitudeDegrees>40.922090</LatitudeDegrees>
              <LongitudeDegrees>-1.301735</LongitudeDegrees>
            </Position>
            <AltitudeMeters>884.045</AltitudeMeters>
            <DistanceMeters>569128.92351025</DistanceMeters>
          </Trackpoint>
          <Trackpoint>
            <Time>2021-08-03T16:48:35Z</Time>
            <Position>
              <LatitudeDegrees>40.922024</LatitudeDegrees>
              <LongitudeDegrees>-1.301720</LongitudeDegrees>
            </Position>
            <AltitudeMeters>884.135</AltitudeMeters>
            <DistanceMeters>569136.37690077</DistanceMeters>
          </Trackpoint>
          <Trackpoint>
            <Time>2021-08-03T16:48:37Z</Time>
            <Position>
              <LatitudeDegrees>40.921956</LatitudeDegrees>
              <LongitudeDegrees>-1.301698</LongitudeDegrees>
            </Position>
            <AltitudeMeters>884.238</AltitudeMeters>
            <DistanceMeters>569144.1679324</DistanceMeters>
          </Trackpoint>
          <Trackpoint>
            <Time>2021-08-03T16:48:39Z</Time>
            <Position>
              <LatitudeDegrees>40.921882</LatitudeDegrees>
              <LongitudeDegrees>-1.301673</LongitudeDegrees>
            </Position>
            <AltitudeMeters>884.476</AltitudeMeters>
            <DistanceMeters>569152.66791132</DistanceMeters>
          </Trackpoint>
          <Trackpoint>
            <Time>2021-08-03T16:48:41Z</Time>
            <Position>
              <LatitudeDegrees>40.921816</LatitudeDegrees>
              <LongitudeDegrees>-1.301650</LongitudeDegrees>
            </Position>
            <AltitudeMeters>884.471</AltitudeMeters>
            <DistanceMeters>569160.26529565</DistanceMeters>
          </Trackpoint>
          <Trackpoint>
            <Time>2021-08-03T16:48:43Z</Time>
            <Position>
              <LatitudeDegrees>40.921751</LatitudeDegrees>
              <LongitudeDegrees>-1.301630</LongitudeDegrees>
            </Position>
            <AltitudeMeters>884.436</AltitudeMeters>
            <DistanceMeters>569167.69320027</DistanceMeters>
          </Trackpoint>
          <Trackpoint>
            <Time>2021-08-03T16:48:45Z</Time>
            <Position>
              <LatitudeDegrees>40.921682</LatitudeDegrees>
              <LongitudeDegrees>-1.301618</LongitudeDegrees>
            </Position>
            <AltitudeMeters>884.427</AltitudeMeters>
            <DistanceMeters>569175.44006338</DistanceMeters>
          </Trackpoint>
          <Trackpoint>
            <Time>2021-08-03T16:48:47Z</Time>
            <Position>
              <LatitudeDegrees>40.921611</LatitudeDegrees>
              <LongitudeDegrees>-1.301610</LongitudeDegrees>
            </Position>
            <AltitudeMeters>884.675</AltitudeMeters>
            <DistanceMeters>569183.37123684</DistanceMeters>
          </Trackpoint>
          <Trackpoint>
            <Time>2021-08-03T16:48:49Z</Time>
            <Position>
              <LatitudeDegrees>40.921533</LatitudeDegrees>
              <LongitudeDegrees>-1.301593</LongitudeDegrees>
            </Position>
            <AltitudeMeters>884.828</AltitudeMeters>
            <DistanceMeters>569192.16980749</DistanceMeters>
          </Trackpoint>
          <Trackpoint>
            <Time>2021-08-03T16:48:51Z</Time>
            <Position>
              <LatitudeDegrees>40.921452</LatitudeDegrees>
              <LongitudeDegrees>-1.301576</LongitudeDegrees>
            </Position>
            <AltitudeMeters>885.020</AltitudeMeters>
            <DistanceMeters>569201.29732003</DistanceMeters>
          </Trackpoint>
          <Trackpoint>
            <Time>2021-08-03T16:48:53Z</Time>
            <Position>
              <LatitudeDegrees>40.921364</LatitudeDegrees>
              <LongitudeDegrees>-1.301567</LongitudeDegrees>
            </Position>
            <AltitudeMeters>885.108</AltitudeMeters>
            <DistanceMeters>569211.12052709</DistanceMeters>
          </Trackpoint>
          <Trackpoint>
            <Time>2021-08-03T16:48:55Z</Time>
            <Position>
              <LatitudeDegrees>40.921287</LatitudeDegrees>
              <LongitudeDegrees>-1.301569</LongitudeDegrees>
            </Position>
            <AltitudeMeters>885.464</AltitudeMeters>
            <DistanceMeters>569219.69191566</DistanceMeters>
          </Trackpoint>
          <Trackpoint>
            <Time>2021-08-03T16:48:57Z</Time>
            <Position>
              <LatitudeDegrees>40.921200</LatitudeDegrees>
              <LongitudeDegrees>-1.301572</LongitudeDegrees>
            </Position>
            <AltitudeMeters>885.596</AltitudeMeters>
            <DistanceMeters>569229.378583</DistanceMeters>
          </Trackpoint>
          <Trackpoint>
            <Time>2021-08-03T16:48:59Z</Time>
            <Position>
              <LatitudeDegrees>40.921121</LatitudeDegrees>
              <LongitudeDegrees>-1.301582</LongitudeDegrees>
            </Position>
            <AltitudeMeters>885.686</AltitudeMeters>
            <DistanceMeters>569238.21146818</DistanceMeters>
          </Trackpoint>
          <Trackpoint>
            <Time>2021-08-03T16:49:01Z</Time>
            <Position>
              <LatitudeDegrees>40.921044</LatitudeDegrees>
              <LongitudeDegrees>-1.301590</LongitudeDegrees>
            </Position>
            <AltitudeMeters>885.869</AltitudeMeters>
            <DistanceMeters>569246.80810389</DistanceMeters>
          </Trackpoint>
          <Trackpoint>
            <Time>2021-08-03T16:49:03Z</Time>
            <Position>
              <LatitudeDegrees>40.920968</LatitudeDegrees>
              <LongitudeDegrees>-1.301579</LongitudeDegrees>
            </Position>
            <AltitudeMeters>886.037</AltitudeMeters>
            <DistanceMeters>569255.31710812</DistanceMeters>
          </Trackpoint>
          <Trackpoint>
            <Time>2021-08-03T16:49:05Z</Time>
            <Position>
              <LatitudeDegrees>40.920904</LatitudeDegrees>
              <LongitudeDegrees>-1.301560</LongitudeDegrees>
            </Position>
            <AltitudeMeters>886.322</AltitudeMeters>
            <DistanceMeters>569262.61748559</DistanceMeters>
          </Trackpoint>
          <Trackpoint>
            <Time>2021-08-03T16:49:07Z</Time>
            <Position>
              <LatitudeDegrees>40.920855</LatitudeDegrees>
              <LongitudeDegrees>-1.301528</LongitudeDegrees>
            </Position>
            <AltitudeMeters>886.747</AltitudeMeters>
            <DistanceMeters>569268.69919531</DistanceMeters>
          </Trackpoint>
          <Trackpoint>
            <Time>2021-08-03T16:49:09Z</Time>
            <Position>
              <LatitudeDegrees>40.920809</LatitudeDegrees>
              <LongitudeDegrees>-1.301499</LongitudeDegrees>
            </Position>
            <AltitudeMeters>887.028</AltitudeMeters>
            <DistanceMeters>569274.37062654</DistanceMeters>
          </Trackpoint>
          <Trackpoint>
            <Time>2021-08-03T16:49:11Z</Time>
            <Position>
              <LatitudeDegrees>40.920760</LatitudeDegrees>
              <LongitudeDegrees>-1.301482</LongitudeDegrees>
            </Position>
            <AltitudeMeters>887.348</AltitudeMeters>
            <DistanceMeters>569280.00852235</DistanceMeters>
          </Trackpoint>
          <Trackpoint>
            <Time>2021-08-03T16:49:14Z</Time>
            <Position>
              <LatitudeDegrees>40.920703</LatitudeDegrees>
              <LongitudeDegrees>-1.301472</LongitudeDegrees>
            </Position>
            <AltitudeMeters>887.461</AltitudeMeters>
            <DistanceMeters>569286.40855569</DistanceMeters>
          </Trackpoint>
          <Trackpoint>
            <Time>2021-08-03T16:49:16Z</Time>
            <Position>
              <LatitudeDegrees>40.920658</LatitudeDegrees>
              <LongitudeDegrees>-1.301460</LongitudeDegrees>
            </Position>
            <AltitudeMeters>887.617</AltitudeMeters>
            <DistanceMeters>569291.51707024</DistanceMeters>
          </Trackpoint>
          <Trackpoint>
            <Time>2021-08-03T16:49:18Z</Time>
            <Position>
              <LatitudeDegrees>40.920597</LatitudeDegrees>
              <LongitudeDegrees>-1.301444</LongitudeDegrees>
            </Position>
            <AltitudeMeters>888.008</AltitudeMeters>
            <DistanceMeters>569298.43772956</DistanceMeters>
          </Trackpoint>
          <Trackpoint>
            <Time>2021-08-03T16:49:20Z</Time>
            <Position>
              <LatitudeDegrees>40.920548</LatitudeDegrees>
              <LongitudeDegrees>-1.301433</LongitudeDegrees>
            </Position>
            <AltitudeMeters>888.381</AltitudeMeters>
            <DistanceMeters>569303.96972098</DistanceMeters>
          </Trackpoint>
          <Trackpoint>
            <Time>2021-08-03T16:49:22Z</Time>
            <Position>
              <LatitudeDegrees>40.920497</LatitudeDegrees>
              <LongitudeDegrees>-1.301431</LongitudeDegrees>
            </Position>
            <AltitudeMeters>888.923</AltitudeMeters>
            <DistanceMeters>569309.64751746</DistanceMeters>
          </Trackpoint>
          <Trackpoint>
            <Time>2021-08-03T16:49:24Z</Time>
            <Position>
              <LatitudeDegrees>40.920451</LatitudeDegrees>
              <LongitudeDegrees>-1.301416</LongitudeDegrees>
            </Position>
            <AltitudeMeters>889.363</AltitudeMeters>
            <DistanceMeters>569314.92128608</DistanceMeters>
          </Trackpoint>
          <Trackpoint>
            <Time>2021-08-03T16:49:27Z</Time>
            <Position>
              <LatitudeDegrees>40.920417</LatitudeDegrees>
              <LongitudeDegrees>-1.301351</LongitudeDegrees>
            </Position>
            <AltitudeMeters>890.226</AltitudeMeters>
            <DistanceMeters>569321.56908227</DistanceMeters>
          </Trackpoint>
          <Trackpoint>
            <Time>2021-08-03T16:49:30Z</Time>
            <Position>
              <LatitudeDegrees>40.920393</LatitudeDegrees>
              <LongitudeDegrees>-1.301280</LongitudeDegrees>
            </Position>
            <AltitudeMeters>890.784</AltitudeMeters>
            <DistanceMeters>569328.1100686</DistanceMeters>
          </Trackpoint>
          <Trackpoint>
            <Time>2021-08-03T16:49:32Z</Time>
            <Position>
              <LatitudeDegrees>40.920369</LatitudeDegrees>
              <LongitudeDegrees>-1.301227</LongitudeDegrees>
            </Position>
            <AltitudeMeters>890.939</AltitudeMeters>
            <DistanceMeters>569333.30621415</DistanceMeters>
          </Trackpoint>
          <Trackpoint>
            <Time>2021-08-03T16:49:34Z</Time>
            <Position>
              <LatitudeDegrees>40.920339</LatitudeDegrees>
              <LongitudeDegrees>-1.301169</LongitudeDegrees>
            </Position>
            <AltitudeMeters>891.454</AltitudeMeters>
            <DistanceMeters>569339.21776182</DistanceMeters>
          </Trackpoint>
          <Trackpoint>
            <Time>2021-08-03T16:49:36Z</Time>
            <Position>
              <LatitudeDegrees>40.920303</LatitudeDegrees>
              <LongitudeDegrees>-1.301115</LongitudeDegrees>
            </Position>
            <AltitudeMeters>891.815</AltitudeMeters>
            <DistanceMeters>569345.27417747</DistanceMeters>
          </Trackpoint>
          <Trackpoint>
            <Time>2021-08-03T16:49:38Z</Time>
            <Position>
              <LatitudeDegrees>40.920260</LatitudeDegrees>
              <LongitudeDegrees>-1.301061</LongitudeDegrees>
            </Position>
            <AltitudeMeters>892.117</AltitudeMeters>
            <DistanceMeters>569351.87152303</DistanceMeters>
          </Trackpoint>
          <Trackpoint>
            <Time>2021-08-03T16:49:40Z</Time>
            <Position>
              <LatitudeDegrees>40.920196</LatitudeDegrees>
              <LongitudeDegrees>-1.300993</LongitudeDegrees>
            </Position>
            <AltitudeMeters>892.287</AltitudeMeters>
            <DistanceMeters>569361.0064525</DistanceMeters>
          </Trackpoint>
          <Trackpoint>
            <Time>2021-08-03T16:49:42Z</Time>
            <Position>
              <LatitudeDegrees>40.920078</LatitudeDegrees>
              <LongitudeDegrees>-1.300928</LongitudeDegrees>
            </Position>
            <AltitudeMeters>892.015</AltitudeMeters>
            <DistanceMeters>569375.23224046</DistanceMeters>
          </Trackpoint>
          <Trackpoint>
            <Time>2021-08-03T16:49:44Z</Time>
            <Position>
              <LatitudeDegrees>40.920026</LatitudeDegrees>
              <LongitudeDegrees>-1.300868</LongitudeDegrees>
            </Position>
            <AltitudeMeters>892.008</AltitudeMeters>
            <DistanceMeters>569382.91119867</DistanceMeters>
          </Trackpoint>
          <Trackpoint>
            <Time>2021-08-03T16:49:46Z</Time>
            <Position>
              <LatitudeDegrees>40.919977</LatitudeDegrees>
              <LongitudeDegrees>-1.300800</LongitudeDegrees>
            </Position>
            <AltitudeMeters>891.928</AltitudeMeters>
            <DistanceMeters>569390.813857</DistanceMeters>
          </Trackpoint>
          <Trackpoint>
            <Time>2021-08-03T16:49:48Z</Time>
            <Position>
              <LatitudeDegrees>40.919928</LatitudeDegrees>
              <LongitudeDegrees>-1.300728</LongitudeDegrees>
            </Position>
            <AltitudeMeters>891.770</AltitudeMeters>
            <DistanceMeters>569398.96402524</DistanceMeters>
          </Trackpoint>
          <Trackpoint>
            <Time>2021-08-03T16:49:50Z</Time>
            <Position>
              <LatitudeDegrees>40.919875</LatitudeDegrees>
              <LongitudeDegrees>-1.300633</LongitudeDegrees>
            </Position>
            <AltitudeMeters>891.570</AltitudeMeters>
            <DistanceMeters>569408.89556716</DistanceMeters>
          </Trackpoint>
          <Trackpoint>
            <Time>2021-08-03T16:49:52Z</Time>
            <Position>
              <LatitudeDegrees>40.919850</LatitudeDegrees>
              <LongitudeDegrees>-1.300531</LongitudeDegrees>
            </Position>
            <AltitudeMeters>890.963</AltitudeMeters>
            <DistanceMeters>569417.91409801</DistanceMeters>
          </Trackpoint>
          <Trackpoint>
            <Time>2021-08-03T16:49:54Z</Time>
            <Position>
              <LatitudeDegrees>40.919821</LatitudeDegrees>
              <LongitudeDegrees>-1.300427</LongitudeDegrees>
            </Position>
            <AltitudeMeters>890.531</AltitudeMeters>
            <DistanceMeters>569427.23737618</DistanceMeters>
          </Trackpoint>
          <Trackpoint>
            <Time>2021-08-03T16:49:56Z</Time>
            <Position>
              <LatitudeDegrees>40.919788</LatitudeDegrees>
              <LongitudeDegrees>-1.300323</LongitudeDegrees>
            </Position>
            <AltitudeMeters>890.536</AltitudeMeters>
            <DistanceMeters>569436.72387932</DistanceMeters>
          </Trackpoint>
          <Trackpoint>
            <Time>2021-08-03T16:49:58Z</Time>
            <Position>
              <LatitudeDegrees>40.919748</LatitudeDegrees>
              <LongitudeDegrees>-1.300230</LongitudeDegrees>
            </Position>
            <AltitudeMeters>890.531</AltitudeMeters>
            <DistanceMeters>569445.72386741</DistanceMeters>
          </Trackpoint>
          <Trackpoint>
            <Time>2021-08-03T16:50:00Z</Time>
            <Position>
              <LatitudeDegrees>40.919692</LatitudeDegrees>
              <LongitudeDegrees>-1.300152</LongitudeDegrees>
            </Position>
            <AltitudeMeters>890.542</AltitudeMeters>
            <DistanceMeters>569454.77288577</DistanceMeters>
          </Trackpoint>
          <Trackpoint>
            <Time>2021-08-03T16:50:02Z</Time>
            <Position>
              <LatitudeDegrees>40.919617</LatitudeDegrees>
              <LongitudeDegrees>-1.300121</LongitudeDegrees>
            </Position>
            <AltitudeMeters>890.531</AltitudeMeters>
            <DistanceMeters>569463.51844164</DistanceMeters>
          </Trackpoint>
          <Trackpoint>
            <Time>2021-08-03T16:50:04Z</Time>
            <Position>
              <LatitudeDegrees>40.919541</LatitudeDegrees>
              <LongitudeDegrees>-1.300131</LongitudeDegrees>
            </Position>
            <AltitudeMeters>890.461</AltitudeMeters>
            <DistanceMeters>569472.01895172</DistanceMeters>
          </Trackpoint>
          <Trackpoint>
            <Time>2021-08-03T16:50:06Z</Time>
            <Position>
              <LatitudeDegrees>40.919474</LatitudeDegrees>
              <LongitudeDegrees>-1.300164</LongitudeDegrees>
            </Position>
            <AltitudeMeters>890.307</AltitudeMeters>
            <DistanceMeters>569479.97513397</DistanceMeters>
          </Trackpoint>
          <Trackpoint>
            <Time>2021-08-03T16:50:08Z</Time>
            <Position>
              <LatitudeDegrees>40.919406</LatitudeDegrees>
              <LongitudeDegrees>-1.300205</LongitudeDegrees>
            </Position>
            <AltitudeMeters>890.308</AltitudeMeters>
            <DistanceMeters>569488.29200751</DistanceMeters>
          </Trackpoint>
          <Trackpoint>
            <Time>2021-08-03T16:50:10Z</Time>
            <Position>
              <LatitudeDegrees>40.919333</LatitudeDegrees>
              <LongitudeDegrees>-1.300223</LongitudeDegrees>
            </Position>
            <AltitudeMeters>890.470</AltitudeMeters>
            <DistanceMeters>569496.55660056</DistanceMeters>
          </Trackpoint>
          <Trackpoint>
            <Time>2021-08-03T16:50:12Z</Time>
            <Position>
              <LatitudeDegrees>40.919254</LatitudeDegrees>
              <LongitudeDegrees>-1.300212</LongitudeDegrees>
            </Position>
            <AltitudeMeters>890.572</AltitudeMeters>
            <DistanceMeters>569505.39817122</DistanceMeters>
          </Trackpoint>
          <Trackpoint>
            <Time>2021-08-03T16:50:14Z</Time>
            <Position>
              <LatitudeDegrees>40.919177</LatitudeDegrees>
              <LongitudeDegrees>-1.300169</LongitudeDegrees>
            </Position>
            <AltitudeMeters>890.962</AltitudeMeters>
            <DistanceMeters>569514.70060222</DistanceMeters>
          </Trackpoint>
          <Trackpoint>
            <Time>2021-08-03T16:50:16Z</Time>
            <Position>
              <LatitudeDegrees>40.919110</LatitudeDegrees>
              <LongitudeDegrees>-1.300106</LongitudeDegrees>
            </Position>
            <AltitudeMeters>891.695</AltitudeMeters>
            <DistanceMeters>569523.84837345</DistanceMeters>
          </Trackpoint>
          <Trackpoint>
            <Time>2021-08-03T16:50:19Z</Time>
            <Position>
              <LatitudeDegrees>40.919063</LatitudeDegrees>
              <LongitudeDegrees>-1.300060</LongitudeDegrees>
            </Position>
            <AltitudeMeters>891.763</AltitudeMeters>
            <DistanceMeters>569530.35475481</DistanceMeters>
          </Trackpoint>
          <Trackpoint>
            <Time>2021-08-03T16:50:21Z</Time>
            <Position>
              <LatitudeDegrees>40.918984</LatitudeDegrees>
              <LongitudeDegrees>-1.300003</LongitudeDegrees>
            </Position>
            <AltitudeMeters>891.838</AltitudeMeters>
            <DistanceMeters>569540.37004757</DistanceMeters>
          </Trackpoint>
          <Trackpoint>
            <Time>2021-08-03T16:50:22Z</Time>
            <Position>
              <LatitudeDegrees>40.918942</LatitudeDegrees>
              <LongitudeDegrees>-1.299974</LongitudeDegrees>
            </Position>
            <AltitudeMeters>891.973</AltitudeMeters>
            <DistanceMeters>569545.64210365</DistanceMeters>
          </Trackpoint>
          <Trackpoint>
            <Time>2021-08-03T16:50:24Z</Time>
            <Position>
              <LatitudeDegrees>40.918865</LatitudeDegrees>
              <LongitudeDegrees>-1.299923</LongitudeDegrees>
            </Position>
            <AltitudeMeters>891.834</AltitudeMeters>
            <DistanceMeters>569555.22614964</DistanceMeters>
          </Trackpoint>
          <Trackpoint>
            <Time>2021-08-03T16:50:26Z</Time>
            <Position>
              <LatitudeDegrees>40.918789</LatitudeDegrees>
              <LongitudeDegrees>-1.299874</LongitudeDegrees>
            </Position>
            <AltitudeMeters>891.974</AltitudeMeters>
            <DistanceMeters>569564.6357139</DistanceMeters>
          </Trackpoint>
          <Trackpoint>
            <Time>2021-08-03T16:50:28Z</Time>
            <Position>
              <LatitudeDegrees>40.918718</LatitudeDegrees>
              <LongitudeDegrees>-1.299836</LongitudeDegrees>
            </Position>
            <AltitudeMeters>891.956</AltitudeMeters>
            <DistanceMeters>569573.1595625</DistanceMeters>
          </Trackpoint>
          <Trackpoint>
            <Time>2021-08-03T16:50:30Z</Time>
            <Position>
              <LatitudeDegrees>40.918652</LatitudeDegrees>
              <LongitudeDegrees>-1.299801</LongitudeDegrees>
            </Position>
            <AltitudeMeters>892.121</AltitudeMeters>
            <DistanceMeters>569581.07363922</DistanceMeters>
          </Trackpoint>
          <Trackpoint>
            <Time>2021-08-03T16:50:32Z</Time>
            <Position>
              <LatitudeDegrees>40.918579</LatitudeDegrees>
              <LongitudeDegrees>-1.299761</LongitudeDegrees>
            </Position>
            <AltitudeMeters>892.308</AltitudeMeters>
            <DistanceMeters>569589.86759024</DistanceMeters>
          </Trackpoint>
          <Trackpoint>
            <Time>2021-08-03T16:50:34Z</Time>
            <Position>
              <LatitudeDegrees>40.918507</LatitudeDegrees>
              <LongitudeDegrees>-1.299727</LongitudeDegrees>
            </Position>
            <AltitudeMeters>892.354</AltitudeMeters>
            <DistanceMeters>569598.37659447</DistanceMeters>
          </Trackpoint>
          <Trackpoint>
            <Time>2021-08-03T16:50:36Z</Time>
            <Position>
              <LatitudeDegrees>40.918437</LatitudeDegrees>
              <LongitudeDegrees>-1.299707</LongitudeDegrees>
            </Position>
            <AltitudeMeters>892.216</AltitudeMeters>
            <DistanceMeters>569606.34695129</DistanceMeters>
          </Trackpoint>
          <Trackpoint>
            <Time>2021-08-03T16:50:38Z</Time>
            <Position>
              <LatitudeDegrees>40.918371</LatitudeDegrees>
              <LongitudeDegrees>-1.299690</LongitudeDegrees>
            </Position>
            <AltitudeMeters>892.166</AltitudeMeters>
            <DistanceMeters>569613.82996566</DistanceMeters>
          </Trackpoint>
          <Trackpoint>
            <Time>2021-08-03T16:50:40Z</Time>
            <Position>
              <LatitudeDegrees>40.918314</LatitudeDegrees>
              <LongitudeDegrees>-1.299673</LongitudeDegrees>
            </Position>
            <AltitudeMeters>892.139</AltitudeMeters>
            <DistanceMeters>569620.33357066</DistanceMeters>
          </Trackpoint>
          <Trackpoint>
            <Time>2021-08-03T16:50:42Z</Time>
            <Position>
              <LatitudeDegrees>40.918249</LatitudeDegrees>
              <LongitudeDegrees>-1.299648</LongitudeDegrees>
            </Position>
            <AltitudeMeters>892.197</AltitudeMeters>
            <DistanceMeters>569627.86709775</DistanceMeters>
          </Trackpoint>
          <Trackpoint>
            <Time>2021-08-03T16:50:44Z</Time>
            <Position>
              <LatitudeDegrees>40.918184</LatitudeDegrees>
              <LongitudeDegrees>-1.299637</LongitudeDegrees>
            </Position>
            <AltitudeMeters>892.252</AltitudeMeters>
            <DistanceMeters>569635.16128793</DistanceMeters>
          </Trackpoint>
          <Trackpoint>
            <Time>2021-08-03T16:50:46Z</Time>
            <Position>
              <LatitudeDegrees>40.918113</LatitudeDegrees>
              <LongitudeDegrees>-1.299603</LongitudeDegrees>
            </Position>
            <AltitudeMeters>892.387</AltitudeMeters>
            <DistanceMeters>569643.5656474</DistanceMeters>
          </Trackpoint>
          <Trackpoint>
            <Time>2021-08-03T16:50:48Z</Time>
            <Position>
              <LatitudeDegrees>40.918049</LatitudeDegrees>
              <LongitudeDegrees>-1.299576</LongitudeDegrees>
            </Position>
            <AltitudeMeters>892.348</AltitudeMeters>
            <DistanceMeters>569651.04202173</DistanceMeters>
          </Trackpoint>
          <Trackpoint>
            <Time>2021-08-03T16:50:50Z</Time>
            <Position>
              <LatitudeDegrees>40.917988</LatitudeDegrees>
              <LongitudeDegrees>-1.299538</LongitudeDegrees>
            </Position>
            <AltitudeMeters>892.462</AltitudeMeters>
            <DistanceMeters>569658.54552269</DistanceMeters>
          </Trackpoint>
          <Trackpoint>
            <Time>2021-08-03T16:50:52Z</Time>
            <Position>
              <LatitudeDegrees>40.917923</LatitudeDegrees>
              <LongitudeDegrees>-1.299510</LongitudeDegrees>
            </Position>
            <AltitudeMeters>892.483</AltitudeMeters>
            <DistanceMeters>569666.15359669</DistanceMeters>
          </Trackpoint>
          <Trackpoint>
            <Time>2021-08-03T16:50:54Z</Time>
            <Position>
              <LatitudeDegrees>40.917850</LatitudeDegrees>
              <LongitudeDegrees>-1.299464</LongitudeDegrees>
            </Position>
            <AltitudeMeters>892.511</AltitudeMeters>
            <DistanceMeters>569675.1530831</DistanceMeters>
          </Trackpoint>
          <Trackpoint>
            <Time>2021-08-03T16:50:56Z</Time>
            <Position>
              <LatitudeDegrees>40.917792</LatitudeDegrees>
              <LongitudeDegrees>-1.299421</LongitudeDegrees>
            </Position>
            <AltitudeMeters>892.808</AltitudeMeters>
            <DistanceMeters>569682.55297388</DistanceMeters>
          </Trackpoint>
          <Trackpoint>
            <Time>2021-08-03T16:50:58Z</Time>
            <Position>
              <LatitudeDegrees>40.917750</LatitudeDegrees>
              <LongitudeDegrees>-1.299394</LongitudeDegrees>
            </Position>
            <AltitudeMeters>893.163</AltitudeMeters>
            <DistanceMeters>569687.74998827</DistanceMeters>
          </Trackpoint>
          <Trackpoint>
            <Time>2021-08-03T16:51:01Z</Time>
            <Position>
              <LatitudeDegrees>40.917698</LatitudeDegrees>
              <LongitudeDegrees>-1.299354</LongitudeDegrees>
            </Position>
            <AltitudeMeters>893.615</AltitudeMeters>
            <DistanceMeters>569694.44448373</DistanceMeters>
          </Trackpoint>
          <Trackpoint>
            <Time>2021-08-03T16:51:04Z</Time>
            <Position>
              <LatitudeDegrees>40.917651</LatitudeDegrees>
              <LongitudeDegrees>-1.299313</LongitudeDegrees>
            </Position>
            <AltitudeMeters>893.895</AltitudeMeters>
            <DistanceMeters>569700.71048504</DistanceMeters>
          </Trackpoint>
          <Trackpoint>
            <Time>2021-08-03T16:51:07Z</Time>
            <Position>
              <LatitudeDegrees>40.917635</LatitudeDegrees>
              <LongitudeDegrees>-1.299245</LongitudeDegrees>
            </Position>
            <AltitudeMeters>894.268</AltitudeMeters>
            <DistanceMeters>569706.700184</DistanceMeters>
          </Trackpoint>
          <Trackpoint>
            <Time>2021-08-03T16:51:11Z</Time>
            <Position>
              <LatitudeDegrees>40.917621</LatitudeDegrees>
              <LongitudeDegrees>-1.299174</LongitudeDegrees>
            </Position>
            <AltitudeMeters>894.776</AltitudeMeters>
            <DistanceMeters>569712.87180149</DistanceMeters>
          </Trackpoint>
          <Trackpoint>
            <Time>2021-08-03T16:51:13Z</Time>
            <Position>
              <LatitudeDegrees>40.917608</LatitudeDegrees>
              <LongitudeDegrees>-1.299112</LongitudeDegrees>
            </Position>
            <AltitudeMeters>894.841</AltitudeMeters>
            <DistanceMeters>569718.28248609</DistanceMeters>
          </Trackpoint>
          <Trackpoint>
            <Time>2021-08-03T16:51:15Z</Time>
            <Position>
              <LatitudeDegrees>40.917603</LatitudeDegrees>
              <LongitudeDegrees>-1.299004</LongitudeDegrees>
            </Position>
            <AltitudeMeters>894.936</AltitudeMeters>
            <DistanceMeters>569727.38275153</DistanceMeters>
          </Trackpoint>
          <Trackpoint>
            <Time>2021-08-03T16:51:17Z</Time>
            <Position>
              <LatitudeDegrees>40.917605</LatitudeDegrees>
              <LongitudeDegrees>-1.298875</LongitudeDegrees>
            </Position>
            <AltitudeMeters>894.947</AltitudeMeters>
            <DistanceMeters>569738.23495209</DistanceMeters>
          </Trackpoint>
          <Trackpoint>
            <Time>2021-08-03T16:51:18Z</Time>
            <Position>
              <LatitudeDegrees>40.917610</LatitudeDegrees>
              <LongitudeDegrees>-1.298780</LongitudeDegrees>
            </Position>
            <AltitudeMeters>894.344</AltitudeMeters>
            <DistanceMeters>569746.24486427</DistanceMeters>
          </Trackpoint>
          <Trackpoint>
            <Time>2021-08-03T16:51:19Z</Time>
            <Position>
              <LatitudeDegrees>40.917619</LatitudeDegrees>
              <LongitudeDegrees>-1.298710</LongitudeDegrees>
            </Position>
            <AltitudeMeters>893.605</AltitudeMeters>
            <DistanceMeters>569752.21720066</DistanceMeters>
          </Trackpoint>
          <Trackpoint>
            <Time>2021-08-03T16:51:21Z</Time>
            <Position>
              <LatitudeDegrees>40.917630</LatitudeDegrees>
              <LongitudeDegrees>-1.298570</LongitudeDegrees>
            </Position>
            <AltitudeMeters>893.315</AltitudeMeters>
            <DistanceMeters>569764.05556146</DistanceMeters>
          </Trackpoint>
          <Trackpoint>
            <Time>2021-08-03T16:51:23Z</Time>
            <Position>
              <LatitudeDegrees>40.917646</LatitudeDegrees>
              <LongitudeDegrees>-1.298442</LongitudeDegrees>
            </Position>
            <AltitudeMeters>892.708</AltitudeMeters>
            <DistanceMeters>569774.96792225</DistanceMeters>
          </Trackpoint>
          <Trackpoint>
            <Time>2021-08-03T16:51:25Z</Time>
            <Position>
              <LatitudeDegrees>40.917646</LatitudeDegrees>
              <LongitudeDegrees>-1.298302</LongitudeDegrees>
            </Position>
            <AltitudeMeters>892.771</AltitudeMeters>
            <DistanceMeters>569786.74280203</DistanceMeters>
          </Trackpoint>
          <Trackpoint>
            <Time>2021-08-03T16:51:27Z</Time>
            <Position>
              <LatitudeDegrees>40.917636</LatitudeDegrees>
              <LongitudeDegrees>-1.298164</LongitudeDegrees>
            </Position>
            <AltitudeMeters>892.643</AltitudeMeters>
            <DistanceMeters>569798.40285481</DistanceMeters>
          </Trackpoint>
          <Trackpoint>
            <Time>2021-08-03T16:51:28Z</Time>
            <Position>
              <LatitudeDegrees>40.917628</LatitudeDegrees>
              <LongitudeDegrees>-1.298086</LongitudeDegrees>
            </Position>
            <AltitudeMeters>892.663</AltitudeMeters>
            <DistanceMeters>569805.02342813</DistanceMeters>
          </Trackpoint>
          <Trackpoint>
            <Time>2021-08-03T16:51:29Z</Time>
            <Position>
              <LatitudeDegrees>40.917626</LatitudeDegrees>
              <LongitudeDegrees>-1.298020</LongitudeDegrees>
            </Position>
            <AltitudeMeters>892.286</AltitudeMeters>
            <DistanceMeters>569810.57903802</DistanceMeters>
          </Trackpoint>
          <Trackpoint>
            <Time>2021-08-03T16:51:30Z</Time>
            <Position>
              <LatitudeDegrees>40.917623</LatitudeDegrees>
              <LongitudeDegrees>-1.297941</LongitudeDegrees>
            </Position>
            <AltitudeMeters>892.274</AltitudeMeters>
            <DistanceMeters>569817.23226542</DistanceMeters>
          </Trackpoint>
          <Trackpoint>
            <Time>2021-08-03T16:51:32Z</Time>
            <Position>
              <LatitudeDegrees>40.917623</LatitudeDegrees>
              <LongitudeDegrees>-1.297838</LongitudeDegrees>
            </Position>
            <AltitudeMeters>892.349</AltitudeMeters>
            <DistanceMeters>569825.89482481</DistanceMeters>
          </Trackpoint>
          <Trackpoint>
            <Time>2021-08-03T16:51:34Z</Time>
            <Position>
              <LatitudeDegrees>40.917617</LatitudeDegrees>
              <LongitudeDegrees>-1.297740</LongitudeDegrees>
            </Position>
            <AltitudeMeters>893.024</AltitudeMeters>
            <DistanceMeters>569834.16378719</DistanceMeters>
          </Trackpoint>
          <Trackpoint>
            <Time>2021-08-03T16:51:37Z</Time>
            <Position>
              <LatitudeDegrees>40.917619</LatitudeDegrees>
              <LongitudeDegrees>-1.297667</LongitudeDegrees>
            </Position>
            <AltitudeMeters>893.525</AltitudeMeters>
            <DistanceMeters>569840.3075417</DistanceMeters>
          </Trackpoint>
          <Trackpoint>
            <Time>2021-08-03T16:51:42Z</Time>
            <Position>
              <LatitudeDegrees>40.917609</LatitudeDegrees>
              <LongitudeDegrees>-1.297590</LongitudeDegrees>
            </Position>
            <AltitudeMeters>894.549</AltitudeMeters>
            <DistanceMeters>569846.87882967</DistanceMeters>
          </Trackpoint>
          <Trackpoint>
            <Time>2021-08-03T16:51:45Z</Time>
            <Position>
              <LatitudeDegrees>40.917615</LatitudeDegrees>
              <LongitudeDegrees>-1.297505</LongitudeDegrees>
            </Position>
            <AltitudeMeters>895.102</AltitudeMeters>
            <DistanceMeters>569854.05947982</DistanceMeters>
          </Trackpoint>
          <Trackpoint>
            <Time>2021-08-03T16:51:47Z</Time>
            <Position>
              <LatitudeDegrees>40.917617</LatitudeDegrees>
              <LongitudeDegrees>-1.297436</LongitudeDegrees>
            </Position>
            <AltitudeMeters>895.722</AltitudeMeters>
            <DistanceMeters>569859.86700386</DistanceMeters>
          </Trackpoint>
          <Trackpoint>
            <Time>2021-08-03T16:51:49Z</Time>
            <Position>
              <LatitudeDegrees>40.917616</LatitudeDegrees>
              <LongitudeDegrees>-1.297339</LongitudeDegrees>
            </Position>
            <AltitudeMeters>896.008</AltitudeMeters>
            <DistanceMeters>569868.02603098</DistanceMeters>
          </Trackpoint>
          <Trackpoint>
            <Time>2021-08-03T16:51:51Z</Time>
            <Position>
              <LatitudeDegrees>40.917615</LatitudeDegrees>
              <LongitudeDegrees>-1.297215</LongitudeDegrees>
            </Position>
            <AltitudeMeters>896.431</AltitudeMeters>
            <DistanceMeters>569878.45561874</DistanceMeters>
          </Trackpoint>
          <Trackpoint>
            <Time>2021-08-03T16:51:53Z</Time>
            <Position>
              <LatitudeDegrees>40.917618</LatitudeDegrees>
              <LongitudeDegrees>-1.297107</LongitudeDegrees>
            </Position>
            <AltitudeMeters>896.843</AltitudeMeters>
            <DistanceMeters>569887.54496247</DistanceMeters>
          </Trackpoint>
          <Trackpoint>
            <Time>2021-08-03T16:51:55Z</Time>
            <Position>
              <LatitudeDegrees>40.917616</LatitudeDegrees>
              <LongitudeDegrees>-1.297004</LongitudeDegrees>
            </Position>
            <AltitudeMeters>896.953</AltitudeMeters>
            <DistanceMeters>569896.21064857</DistanceMeters>
          </Trackpoint>
          <Trackpoint>
            <Time>2021-08-03T16:51:57Z</Time>
            <Position>
              <LatitudeDegrees>40.917609</LatitudeDegrees>
              <LongitudeDegrees>-1.296906</LongitudeDegrees>
            </Position>
            <AltitudeMeters>897.056</AltitudeMeters>
            <DistanceMeters>569904.48943352</DistanceMeters>
          </Trackpoint>
          <Trackpoint>
            <Time>2021-08-03T16:51:59Z</Time>
            <Position>
              <LatitudeDegrees>40.917607</LatitudeDegrees>
              <LongitudeDegrees>-1.296825</LongitudeDegrees>
            </Position>
            <AltitudeMeters>897.064</AltitudeMeters>
            <DistanceMeters>569911.30623434</DistanceMeters>
          </Trackpoint>
          <Trackpoint>
            <Time>2021-08-03T16:52:01Z</Time>
            <Position>
              <LatitudeDegrees>40.917603</LatitudeDegrees>
              <LongitudeDegrees>-1.296739</LongitudeDegrees>
            </Position>
            <AltitudeMeters>897.189</AltitudeMeters>
            <DistanceMeters>569918.55260547</DistanceMeters>
          </Trackpoint>
          <Trackpoint>
            <Time>2021-08-03T16:52:03Z</Time>
            <Position>
              <LatitudeDegrees>40.917595</LatitudeDegrees>
              <LongitudeDegrees>-1.296654</LongitudeDegrees>
            </Position>
            <AltitudeMeters>897.114</AltitudeMeters>
            <DistanceMeters>569925.75710957</DistanceMeters>
          </Trackpoint>
          <Trackpoint>
            <Time>2021-08-03T16:52:05Z</Time>
            <Position>
              <LatitudeDegrees>40.917588</LatitudeDegrees>
              <LongitudeDegrees>-1.296567</LongitudeDegrees>
            </Position>
            <AltitudeMeters>897.125</AltitudeMeters>
            <DistanceMeters>569933.11539323</DistanceMeters>
          </Trackpoint>
          <Trackpoint>
            <Time>2021-08-03T16:52:07Z</Time>
            <Position>
              <LatitudeDegrees>40.917584</LatitudeDegrees>
              <LongitudeDegrees>-1.296479</LongitudeDegrees>
            </Position>
            <AltitudeMeters>897.472</AltitudeMeters>
            <DistanceMeters>569940.52991313</DistanceMeters>
          </Trackpoint>
          <Trackpoint>
            <Time>2021-08-03T16:52:09Z</Time>
            <Position>
              <LatitudeDegrees>40.917583</LatitudeDegrees>
              <LongitudeDegrees>-1.296393</LongitudeDegrees>
            </Position>
            <AltitudeMeters>897.913</AltitudeMeters>
            <DistanceMeters>569947.76318783</DistanceMeters>
          </Trackpoint>
          <Trackpoint>
            <Time>2021-08-03T16:52:11Z</Time>
            <Position>
              <LatitudeDegrees>40.917584</LatitudeDegrees>
              <LongitudeDegrees>-1.296313</LongitudeDegrees>
            </Position>
            <AltitudeMeters>898.414</AltitudeMeters>
            <DistanceMeters>569954.49199183</DistanceMeters>
          </Trackpoint>
          <Trackpoint>
            <Time>2021-08-03T16:52:13Z</Time>
            <Position>
              <LatitudeDegrees>40.917586</LatitudeDegrees>
              <LongitudeDegrees>-1.296230</LongitudeDegrees>
            </Position>
            <AltitudeMeters>898.408</AltitudeMeters>
            <DistanceMeters>569961.47629373</DistanceMeters>
          </Trackpoint>
          <Trackpoint>
            <Time>2021-08-03T16:52:15Z</Time>
            <Position>
              <LatitudeDegrees>40.917588</LatitudeDegrees>
              <LongitudeDegrees>-1.296156</LongitudeDegrees>
            </Position>
            <AltitudeMeters>899.064</AltitudeMeters>
            <DistanceMeters>569967.70326315</DistanceMeters>
          </Trackpoint>
          <Trackpoint>
            <Time>2021-08-03T16:52:18Z</Time>
            <Position>
              <LatitudeDegrees>40.917587</LatitudeDegrees>
              <LongitudeDegrees>-1.296096</LongitudeDegrees>
            </Position>
            <AltitudeMeters>899.356</AltitudeMeters>
            <DistanceMeters>569972.74953064</DistanceMeters>
          </Trackpoint>
          <Trackpoint>
            <Time>2021-08-03T16:52:20Z</Time>
            <Position>
              <LatitudeDegrees>40.917586</LatitudeDegrees>
              <LongitudeDegrees>-1.296010</LongitudeDegrees>
            </Position>
            <AltitudeMeters>899.486</AltitudeMeters>
            <DistanceMeters>569979.98280535</DistanceMeters>
          </Trackpoint>
          <Trackpoint>
            <Time>2021-08-03T16:52:22Z</Time>
            <Position>
              <LatitudeDegrees>40.917581</LatitudeDegrees>
              <LongitudeDegrees>-1.295873</LongitudeDegrees>
            </Position>
            <AltitudeMeters>899.759</AltitudeMeters>
            <DistanceMeters>569991.51828134</DistanceMeters>
          </Trackpoint>
          <Trackpoint>
            <Time>2021-08-03T16:52:25Z</Time>
            <Position>
              <LatitudeDegrees>40.917578</LatitudeDegrees>
              <LongitudeDegrees>-1.295805</LongitudeDegrees>
            </Position>
            <AltitudeMeters>900.127</AltitudeMeters>
            <DistanceMeters>569997.24674517</DistanceMeters>
          </Trackpoint>
          <Trackpoint>
            <Time>2021-08-03T16:52:28Z</Time>
            <Position>
              <LatitudeDegrees>40.917571</LatitudeDegrees>
              <LongitudeDegrees>-1.295726</LongitudeDegrees>
            </Position>
            <AltitudeMeters>900.492</AltitudeMeters>
            <DistanceMeters>570003.93651787</DistanceMeters>
          </Trackpoint>
          <Trackpoint>
            <Time>2021-08-03T16:52:30Z</Time>
            <Position>
              <LatitudeDegrees>40.917563</LatitudeDegrees>
              <LongitudeDegrees>-1.295660</LongitudeDegrees>
            </Position>
            <AltitudeMeters>900.627</AltitudeMeters>
            <DistanceMeters>570009.55837411</DistanceMeters>
          </Trackpoint>
          <Trackpoint>
            <Time>2021-08-03T16:52:32Z</Time>
            <Position>
              <LatitudeDegrees>40.917549</LatitudeDegrees>
              <LongitudeDegrees>-1.295589</LongitudeDegrees>
            </Position>
            <AltitudeMeters>901.288</AltitudeMeters>
            <DistanceMeters>570015.7299916</DistanceMeters>
          </Trackpoint>
          <Trackpoint>
            <Time>2021-08-03T16:52:35Z</Time>
            <Position>
              <LatitudeDegrees>40.917529</LatitudeDegrees>
              <LongitudeDegrees>-1.295516</LongitudeDegrees>
            </Position>
            <AltitudeMeters>901.562</AltitudeMeters>
            <DistanceMeters>570022.26130702</DistanceMeters>
          </Trackpoint>
          <Trackpoint>
            <Time>2021-08-03T16:52:52Z</Time>
            <Position>
              <LatitudeDegrees>40.917514</LatitudeDegrees>
              <LongitudeDegrees>-1.295427</LongitudeDegrees>
            </Position>
            <AltitudeMeters>901.983</AltitudeMeters>
            <DistanceMeters>570029.93085186</DistanceMeters>
          </Trackpoint>
          <Trackpoint>
            <Time>2021-08-03T16:52:56Z</Time>
            <Position>
              <LatitudeDegrees>40.917537</LatitudeDegrees>
              <LongitudeDegrees>-1.295363</LongitudeDegrees>
            </Position>
            <AltitudeMeters>901.911</AltitudeMeters>
            <DistanceMeters>570035.89183758</DistanceMeters>
          </Trackpoint>
          <Trackpoint>
            <Time>2021-08-03T16:52:59Z</Time>
            <Position>
              <LatitudeDegrees>40.917588</LatitudeDegrees>
              <LongitudeDegrees>-1.295320</LongitudeDegrees>
            </Position>
            <AltitudeMeters>901.908</AltitudeMeters>
            <DistanceMeters>570042.62332505</DistanceMeters>
          </Trackpoint>
          <Trackpoint>
            <Time>2021-08-03T16:53:01Z</Time>
            <Position>
              <LatitudeDegrees>40.917634</LatitudeDegrees>
              <LongitudeDegrees>-1.295291</LongitudeDegrees>
            </Position>
            <AltitudeMeters>901.933</AltitudeMeters>
            <DistanceMeters>570048.29475629</DistanceMeters>
          </Trackpoint>
          <Trackpoint>
            <Time>2021-08-03T16:53:03Z</Time>
            <Position>
              <LatitudeDegrees>40.917681</LatitudeDegrees>
              <LongitudeDegrees>-1.295255</LongitudeDegrees>
            </Position>
            <AltitudeMeters>901.955</AltitudeMeters>
            <DistanceMeters>570054.33848521</DistanceMeters>
          </Trackpoint>
          <Trackpoint>
            <Time>2021-08-03T16:53:05Z</Time>
            <Position>
              <LatitudeDegrees>40.917731</LatitudeDegrees>
              <LongitudeDegrees>-1.295217</LongitudeDegrees>
            </Position>
            <AltitudeMeters>902.045</AltitudeMeters>
            <DistanceMeters>570060.75613109</DistanceMeters>
          </Trackpoint>
          <Trackpoint>
            <Time>2021-08-03T16:53:07Z</Time>
            <Position>
              <LatitudeDegrees>40.917784</LatitudeDegrees>
              <LongitudeDegrees>-1.295181</LongitudeDegrees>
            </Position>
            <AltitudeMeters>902.078</AltitudeMeters>
            <DistanceMeters>570067.38624512</DistanceMeters>
          </Trackpoint>
          <Trackpoint>
            <Time>2021-08-03T16:53:09Z</Time>
            <Position>
              <LatitudeDegrees>40.917839</LatitudeDegrees>
              <LongitudeDegrees>-1.295148</LongitudeDegrees>
            </Position>
            <AltitudeMeters>902.026</AltitudeMeters>
            <DistanceMeters>570074.10699228</DistanceMeters>
          </Trackpoint>
          <Trackpoint>
            <Time>2021-08-03T16:53:11Z</Time>
            <Position>
              <LatitudeDegrees>40.917894</LatitudeDegrees>
              <LongitudeDegrees>-1.295114</LongitudeDegrees>
            </Position>
            <AltitudeMeters>902.171</AltitudeMeters>
            <DistanceMeters>570080.86391958</DistanceMeters>
          </Trackpoint>
          <Trackpoint>
            <Time>2021-08-03T16:53:13Z</Time>
            <Position>
              <LatitudeDegrees>40.917954</LatitudeDegrees>
              <LongitudeDegrees>-1.295062</LongitudeDegrees>
            </Position>
            <AltitudeMeters>902.316</AltitudeMeters>
            <DistanceMeters>570088.8467292</DistanceMeters>
          </Trackpoint>
          <Trackpoint>
            <Time>2021-08-03T16:53:15Z</Time>
            <Position>
              <LatitudeDegrees>40.918029</LatitudeDegrees>
              <LongitudeDegrees>-1.295034</LongitudeDegrees>
            </Position>
            <AltitudeMeters>902.447</AltitudeMeters>
            <DistanceMeters>570097.52022716</DistanceMeters>
          </Trackpoint>
          <Trackpoint>
            <Time>2021-08-03T16:53:17Z</Time>
            <Position>
              <LatitudeDegrees>40.918108</LatitudeDegrees>
              <LongitudeDegrees>-1.295018</LongitudeDegrees>
            </Position>
            <AltitudeMeters>902.416</AltitudeMeters>
            <DistanceMeters>570106.41525554</DistanceMeters>
          </Trackpoint>
          <Trackpoint>
            <Time>2021-08-03T16:53:19Z</Time>
            <Position>
              <LatitudeDegrees>40.918175</LatitudeDegrees>
              <LongitudeDegrees>-1.294976</LongitudeDegrees>
            </Position>
            <AltitudeMeters>902.476</AltitudeMeters>
            <DistanceMeters>570114.6667267</DistanceMeters>
          </Trackpoint>
          <Trackpoint>
            <Time>2021-08-03T16:53:20Z</Time>
            <Position>
              <LatitudeDegrees>40.918223</LatitudeDegrees>
              <LongitudeDegrees>-1.294959</LongitudeDegrees>
            </Position>
            <AltitudeMeters>902.413</AltitudeMeters>
            <DistanceMeters>570120.19626907</DistanceMeters>
          </Trackpoint>
          <Trackpoint>
            <Time>2021-08-03T16:53:22Z</Time>
            <Position>
              <LatitudeDegrees>40.918297</LatitudeDegrees>
              <LongitudeDegrees>-1.294926</LongitudeDegrees>
            </Position>
            <AltitudeMeters>902.308</AltitudeMeters>
            <DistanceMeters>570128.88796739</DistanceMeters>
          </Trackpoint>
          <Trackpoint>
            <Time>2021-08-03T16:53:24Z</Time>
            <Position>
              <LatitudeDegrees>40.918363</LatitudeDegrees>
              <LongitudeDegrees>-1.294898</LongitudeDegrees>
            </Position>
            <AltitudeMeters>902.248</AltitudeMeters>
            <DistanceMeters>570136.60212345</DistanceMeters>
          </Trackpoint>
          <Trackpoint>
            <Time>2021-08-03T16:53:26Z</Time>
            <Position>
              <LatitudeDegrees>40.918423</LatitudeDegrees>
              <LongitudeDegrees>-1.294872</LongitudeDegrees>
            </Position>
            <AltitudeMeters>902.090</AltitudeMeters>
            <DistanceMeters>570143.62896186</DistanceMeters>
          </Trackpoint>
          <Trackpoint>
            <Time>2021-08-03T16:53:28Z</Time>
            <Position>
              <LatitudeDegrees>40.918477</LatitudeDegrees>
              <LongitudeDegrees>-1.294841</LongitudeDegrees>
            </Position>
            <AltitudeMeters>902.060</AltitudeMeters>
            <DistanceMeters>570150.18098318</DistanceMeters>
          </Trackpoint>
          <Trackpoint>
            <Time>2021-08-03T16:53:30Z</Time>
            <Position>
              <LatitudeDegrees>40.918526</LatitudeDegrees>
              <LongitudeDegrees>-1.294809</LongitudeDegrees>
            </Position>
            <AltitudeMeters>902.073</AltitudeMeters>
            <DistanceMeters>570156.2626929</DistanceMeters>
          </Trackpoint>
          <Trackpoint>
            <Time>2021-08-03T16:53:32Z</Time>
            <Position>
              <LatitudeDegrees>40.918580</LatitudeDegrees>
              <LongitudeDegrees>-1.294766</LongitudeDegrees>
            </Position>
            <AltitudeMeters>902.081</AltitudeMeters>
            <DistanceMeters>570163.27795602</DistanceMeters>
          </Trackpoint>
          <Trackpoint>
            <Time>2021-08-03T16:53:34Z</Time>
            <Position>
              <LatitudeDegrees>40.918651</LatitudeDegrees>
              <LongitudeDegrees>-1.294713</LongitudeDegrees>
            </Position>
            <AltitudeMeters>901.936</AltitudeMeters>
            <DistanceMeters>570172.35089252</DistanceMeters>
          </Trackpoint>
          <Trackpoint>
            <Time>2021-08-03T16:53:35Z</Time>
            <Position>
              <LatitudeDegrees>40.918696</LatitudeDegrees>
              <LongitudeDegrees>-1.294693</LongitudeDegrees>
            </Position>
            <AltitudeMeters>901.941</AltitudeMeters>
            <DistanceMeters>570177.63407019</DistanceMeters>
          </Trackpoint>
          <Trackpoint>
            <Time>2021-08-03T16:53:37Z</Time>
            <Position>
              <LatitudeDegrees>40.918770</LatitudeDegrees>
              <LongitudeDegrees>-1.294656</LongitudeDegrees>
            </Position>
            <AltitudeMeters>901.942</AltitudeMeters>
            <DistanceMeters>570186.43879655</DistanceMeters>
          </Trackpoint>
          <Trackpoint>
            <Time>2021-08-03T16:53:39Z</Time>
            <Position>
              <LatitudeDegrees>40.918838</LatitudeDegrees>
              <LongitudeDegrees>-1.294604</LongitudeDegrees>
            </Position>
            <AltitudeMeters>901.823</AltitudeMeters>
            <DistanceMeters>570195.18073781</DistanceMeters>
          </Trackpoint>
          <Trackpoint>
            <Time>2021-08-03T16:53:41Z</Time>
            <Position>
              <LatitudeDegrees>40.918893</LatitudeDegrees>
              <LongitudeDegrees>-1.294543</LongitudeDegrees>
            </Position>
            <AltitudeMeters>901.683</AltitudeMeters>
            <DistanceMeters>570203.16863617</DistanceMeters>
          </Trackpoint>
          <Trackpoint>
            <Time>2021-08-03T16:53:43Z</Time>
            <Position>
              <LatitudeDegrees>40.918958</LatitudeDegrees>
              <LongitudeDegrees>-1.294484</LongitudeDegrees>
            </Position>
            <AltitudeMeters>901.511</AltitudeMeters>
            <DistanceMeters>570211.94099682</DistanceMeters>
          </Trackpoint>
          <Trackpoint>
            <Time>2021-08-03T16:53:45Z</Time>
            <Position>
              <LatitudeDegrees>40.919030</LatitudeDegrees>
              <LongitudeDegrees>-1.294420</LongitudeDegrees>
            </Position>
            <AltitudeMeters>901.308</AltitudeMeters>
            <DistanceMeters>570221.59451374</DistanceMeters>
          </Trackpoint>
          <Trackpoint>
            <Time>2021-08-03T16:53:46Z</Time>
            <Position>
              <LatitudeDegrees>40.919066</LatitudeDegrees>
              <LongitudeDegrees>-1.294383</LongitudeDegrees>
            </Position>
            <AltitudeMeters>901.399</AltitudeMeters>
            <DistanceMeters>570226.66755207</DistanceMeters>
          </Trackpoint>
          <Trackpoint>
            <Time>2021-08-03T16:53:48Z</Time>
            <Position>
              <LatitudeDegrees>40.919128</LatitudeDegrees>
              <LongitudeDegrees>-1.294310</LongitudeDegrees>
            </Position>
            <AltitudeMeters>900.751</AltitudeMeters>
            <DistanceMeters>570235.90422691</DistanceMeters>
          </Trackpoint>
          <Trackpoint>
            <Time>2021-08-03T16:53:50Z</Time>
            <Position>
              <LatitudeDegrees>40.919172</LatitudeDegrees>
              <LongitudeDegrees>-1.294260</LongitudeDegrees>
            </Position>
            <AltitudeMeters>900.341</AltitudeMeters>
            <DistanceMeters>570242.35905245</DistanceMeters>
          </Trackpoint>
          <Trackpoint>
            <Time>2021-08-03T16:53:53Z</Time>
            <Position>
              <LatitudeDegrees>40.919216</LatitudeDegrees>
              <LongitudeDegrees>-1.294212</LongitudeDegrees>
            </Position>
            <AltitudeMeters>900.114</AltitudeMeters>
            <DistanceMeters>570248.70524351</DistanceMeters>
          </Trackpoint>
          <Trackpoint>
            <Time>2021-08-03T16:55:19Z</Time>
            <Position>
              <LatitudeDegrees>40.919232</LatitudeDegrees>
              <LongitudeDegrees>-1.294153</LongitudeDegrees>
            </Position>
            <AltitudeMeters>900.122</AltitudeMeters>
            <DistanceMeters>570253.97729959</DistanceMeters>
          </Trackpoint>
          <Trackpoint>
            <Time>2021-08-03T16:56:15Z</Time>
            <Position>
              <LatitudeDegrees>40.919197</LatitudeDegrees>
              <LongitudeDegrees>-1.294097</LongitudeDegrees>
            </Position>
            <AltitudeMeters>900.257</AltitudeMeters>
            <DistanceMeters>570260.09011042</DistanceMeters>
          </Trackpoint>
          <Trackpoint>
            <Time>2021-08-03T16:56:58Z</Time>
            <Position>
              <LatitudeDegrees>40.919216</LatitudeDegrees>
              <LongitudeDegrees>-1.294165</LongitudeDegrees>
            </Position>
            <AltitudeMeters>900.352</AltitudeMeters>
            <DistanceMeters>570266.18813099</DistanceMeters>
          </Trackpoint>
          <Trackpoint>
            <Time>2021-08-03T16:57:26Z</Time>
            <Position>
              <LatitudeDegrees>40.919186</LatitudeDegrees>
              <LongitudeDegrees>-1.294114</LongitudeDegrees>
            </Position>
            <AltitudeMeters>900.513</AltitudeMeters>
            <DistanceMeters>570271.62379195</DistanceMeters>
          </Trackpoint>
          <Trackpoint>
            <Time>2021-08-03T16:57:35Z</Time>
            <Position>
              <LatitudeDegrees>40.919224</LatitudeDegrees>
              <LongitudeDegrees>-1.294072</LongitudeDegrees>
            </Position>
            <AltitudeMeters>900.651</AltitudeMeters>
            <DistanceMeters>570277.13452213</DistanceMeters>
          </Trackpoint>
          <Trackpoint>
            <Time>2021-08-03T16:57:54Z</Time>
            <Position>
              <LatitudeDegrees>40.919224</LatitudeDegrees>
              <LongitudeDegrees>-1.294134</LongitudeDegrees>
            </Position>
            <AltitudeMeters>900.901</AltitudeMeters>
            <DistanceMeters>570282.34801713</DistanceMeters>
          </Trackpoint>
          <Trackpoint>
            <Time>2021-08-03T16:58:32Z</Time>
            <Position>
              <LatitudeDegrees>40.919193</LatitudeDegrees>
              <LongitudeDegrees>-1.294086</LongitudeDegrees>
            </Position>
            <AltitudeMeters>900.811</AltitudeMeters>
            <DistanceMeters>570287.65847179</DistanceMeters>
          </Trackpoint>
          <Trackpoint>
            <Time>2021-08-03T16:58:49Z</Time>
            <Position>
              <LatitudeDegrees>40.919225</LatitudeDegrees>
              <LongitudeDegrees>-1.294140</LongitudeDegrees>
            </Position>
            <AltitudeMeters>900.808</AltitudeMeters>
            <DistanceMeters>570293.42934018</DistanceMeters>
          </Trackpoint>
          <Trackpoint>
            <Time>2021-08-03T16:58:55Z</Time>
            <Position>
              <LatitudeDegrees>40.919224</LatitudeDegrees>
              <LongitudeDegrees>-1.294200</LongitudeDegrees>
            </Position>
            <AltitudeMeters>900.972</AltitudeMeters>
            <DistanceMeters>570298.47739681</DistanceMeters>
          </Trackpoint>
          <Trackpoint>
            <Time>2021-08-03T16:59:18Z</Time>
            <Position>
              <LatitudeDegrees>40.919187</LatitudeDegrees>
              <LongitudeDegrees>-1.294235</LongitudeDegrees>
            </Position>
            <AltitudeMeters>900.954</AltitudeMeters>
            <DistanceMeters>570303.53974379</DistanceMeters>
          </Trackpoint>
          <Trackpoint>
            <Time>2021-08-03T16:59:26Z</Time>
            <Position>
              <LatitudeDegrees>40.919143</LatitudeDegrees>
              <LongitudeDegrees>-1.294220</LongitudeDegrees>
            </Position>
            <AltitudeMeters>900.994</AltitudeMeters>
            <DistanceMeters>570308.59673662</DistanceMeters>
          </Trackpoint>
          <Trackpoint>
            <Time>2021-08-03T16:59:46Z</Time>
            <Position>
              <LatitudeDegrees>40.919193</LatitudeDegrees>
              <LongitudeDegrees>-1.294214</LongitudeDegrees>
            </Position>
            <AltitudeMeters>900.757</AltitudeMeters>
            <DistanceMeters>570314.18475991</DistanceMeters>
          </Trackpoint>
          <Trackpoint>
            <Time>2021-08-03T16:59:52Z</Time>
            <Position>
              <LatitudeDegrees>40.919235</LatitudeDegrees>
              <LongitudeDegrees>-1.294170</LongitudeDegrees>
            </Position>
            <AltitudeMeters>900.685</AltitudeMeters>
            <DistanceMeters>570320.1480175</DistanceMeters>
          </Trackpoint>
          <Trackpoint>
            <Time>2021-08-03T17:00:00Z</Time>
            <Position>
              <LatitudeDegrees>40.919225</LatitudeDegrees>
              <LongitudeDegrees>-1.294110</LongitudeDegrees>
            </Position>
            <AltitudeMeters>900.590</AltitudeMeters>
            <DistanceMeters>570325.31628279</DistanceMeters>
          </Trackpoint>
          <Trackpoint>
            <Time>2021-08-03T17:00:08Z</Time>
            <Position>
              <LatitudeDegrees>40.919177</LatitudeDegrees>
              <LongitudeDegrees>-1.294125</LongitudeDegrees>
            </Position>
            <AltitudeMeters>900.625</AltitudeMeters>
            <DistanceMeters>570330.80566938</DistanceMeters>
          </Trackpoint>
          <Trackpoint>
            <Time>2021-08-03T17:00:20Z</Time>
            <Position>
              <LatitudeDegrees>40.919208</LatitudeDegrees>
              <LongitudeDegrees>-1.294068</LongitudeDegrees>
            </Position>
            <AltitudeMeters>900.956</AltitudeMeters>
            <DistanceMeters>570336.71186826</DistanceMeters>
          </Trackpoint>
          <Trackpoint>
            <Time>2021-08-03T17:00:25Z</Time>
            <Position>
              <LatitudeDegrees>40.919210</LatitudeDegrees>
              <LongitudeDegrees>-1.294003</LongitudeDegrees>
            </Position>
            <AltitudeMeters>900.959</AltitudeMeters>
            <DistanceMeters>570342.18230457</DistanceMeters>
          </Trackpoint>
          <Trackpoint>
            <Time>2021-08-03T17:00:30Z</Time>
            <Position>
              <LatitudeDegrees>40.919183</LatitudeDegrees>
              <LongitudeDegrees>-1.293951</LongitudeDegrees>
            </Position>
            <AltitudeMeters>901.003</AltitudeMeters>
            <DistanceMeters>570347.48850644</DistanceMeters>
          </Trackpoint>
          <Trackpoint>
            <Time>2021-08-03T17:00:38Z</Time>
            <Position>
              <LatitudeDegrees>40.919134</LatitudeDegrees>
              <LongitudeDegrees>-1.293929</LongitudeDegrees>
            </Position>
            <AltitudeMeters>901.023</AltitudeMeters>
            <DistanceMeters>570353.24841103</DistanceMeters>
          </Trackpoint>
          <Trackpoint>
            <Time>2021-08-03T17:00:42Z</Time>
            <Position>
              <LatitudeDegrees>40.919176</LatitudeDegrees>
              <LongitudeDegrees>-1.293900</LongitudeDegrees>
            </Position>
            <AltitudeMeters>901.008</AltitudeMeters>
            <DistanceMeters>570358.52217965</DistanceMeters>
          </Trackpoint>
          <Trackpoint>
            <Time>2021-08-03T17:00:45Z</Time>
            <Position>
              <LatitudeDegrees>40.919200</LatitudeDegrees>
              <LongitudeDegrees>-1.293846</LongitudeDegrees>
            </Position>
            <AltitudeMeters>901.042</AltitudeMeters>
            <DistanceMeters>570363.79080898</DistanceMeters>
          </Trackpoint>
          <Trackpoint>
            <Time>2021-08-03T17:01:07Z</Time>
            <Position>
              <LatitudeDegrees>40.919157</LatitudeDegrees>
              <LongitudeDegrees>-1.293806</LongitudeDegrees>
            </Position>
            <AltitudeMeters>901.194</AltitudeMeters>
            <DistanceMeters>570369.6409363</DistanceMeters>
          </Trackpoint>
          <Trackpoint>
            <Time>2021-08-03T17:01:13Z</Time>
            <Position>
              <LatitudeDegrees>40.919130</LatitudeDegrees>
              <LongitudeDegrees>-1.293856</LongitudeDegrees>
            </Position>
            <AltitudeMeters>901.174</AltitudeMeters>
            <DistanceMeters>570374.80920159</DistanceMeters>
          </Trackpoint>
          <Trackpoint>
            <Time>2021-08-03T17:01:18Z</Time>
            <Position>
              <LatitudeDegrees>40.919110</LatitudeDegrees>
              <LongitudeDegrees>-1.293914</LongitudeDegrees>
            </Position>
            <AltitudeMeters>901.157</AltitudeMeters>
            <DistanceMeters>570380.16958434</DistanceMeters>
          </Trackpoint>
          <Trackpoint>
            <Time>2021-08-03T17:01:26Z</Time>
            <Position>
              <LatitudeDegrees>40.919161</LatitudeDegrees>
              <LongitudeDegrees>-1.293930</LongitudeDegrees>
            </Position>
            <AltitudeMeters>901.235</AltitudeMeters>
            <DistanceMeters>570386.0027077</DistanceMeters>
          </Trackpoint>
          <Trackpoint>
            <Time>2021-08-03T17:01:32Z</Time>
            <Position>
              <LatitudeDegrees>40.919205</LatitudeDegrees>
              <LongitudeDegrees>-1.293960</LongitudeDegrees>
            </Position>
            <AltitudeMeters>901.220</AltitudeMeters>
            <DistanceMeters>570391.51179899</DistanceMeters>
          </Trackpoint>
          <Trackpoint>
            <Time>2021-08-03T17:01:38Z</Time>
            <Position>
              <LatitudeDegrees>40.919246</LatitudeDegrees>
              <LongitudeDegrees>-1.293997</LongitudeDegrees>
            </Position>
            <AltitudeMeters>901.275</AltitudeMeters>
            <DistanceMeters>570397.03480526</DistanceMeters>
          </Trackpoint>
          <Trackpoint>
            <Time>2021-08-03T17:01:41Z</Time>
            <Position>
              <LatitudeDegrees>40.919044</LatitudeDegrees>
              <LongitudeDegrees>-1.294198</LongitudeDegrees>
            </Position>
            <AltitudeMeters>901.296</AltitudeMeters>
            <DistanceMeters>570425.16399683</DistanceMeters>
          </Trackpoint>
          <Trackpoint>
            <Time>2021-08-03T17:01:43Z</Time>
            <Position>
              <LatitudeDegrees>40.919078</LatitudeDegrees>
              <LongitudeDegrees>-1.294152</LongitudeDegrees>
            </Position>
            <AltitudeMeters>901.369</AltitudeMeters>
            <DistanceMeters>570430.57635011</DistanceMeters>
          </Trackpoint>
          <Trackpoint>
            <Time>2021-08-03T17:01:45Z</Time>
            <Position>
              <LatitudeDegrees>40.919117</LatitudeDegrees>
              <LongitudeDegrees>-1.294122</LongitudeDegrees>
            </Position>
            <AltitudeMeters>901.304</AltitudeMeters>
            <DistanceMeters>570435.59750271</DistanceMeters>
          </Trackpoint>
          <Trackpoint>
            <Time>2021-08-03T17:01:49Z</Time>
            <Position>
              <LatitudeDegrees>40.919167</LatitudeDegrees>
              <LongitudeDegrees>-1.294125</LongitudeDegrees>
            </Position>
            <AltitudeMeters>901.324</AltitudeMeters>
            <DistanceMeters>570441.16772197</DistanceMeters>
          </Trackpoint>
          <Trackpoint>
            <Time>2021-08-03T17:01:57Z</Time>
            <Position>
              <LatitudeDegrees>40.919172</LatitudeDegrees>
              <LongitudeDegrees>-1.294204</LongitudeDegrees>
            </Position>
            <AltitudeMeters>901.208</AltitudeMeters>
            <DistanceMeters>570447.83518523</DistanceMeters>
          </Trackpoint>
          <Trackpoint>
            <Time>2021-08-03T17:02:04Z</Time>
            <Position>
              <LatitudeDegrees>40.919208</LatitudeDegrees>
              <LongitudeDegrees>-1.294241</LongitudeDegrees>
            </Position>
            <AltitudeMeters>901.193</AltitudeMeters>
            <DistanceMeters>570452.90733347</DistanceMeters>
          </Trackpoint>
          <Trackpoint>
            <Time>2021-08-03T17:02:10Z</Time>
            <Position>
              <LatitudeDegrees>40.919199</LatitudeDegrees>
              <LongitudeDegrees>-1.294171</LongitudeDegrees>
            </Position>
            <AltitudeMeters>900.965</AltitudeMeters>
            <DistanceMeters>570458.87815769</DistanceMeters>
          </Trackpoint>
          <Trackpoint>
            <Time>2021-08-03T17:02:16Z</Time>
            <Position>
              <LatitudeDegrees>40.919194</LatitudeDegrees>
              <LongitudeDegrees>-1.294107</LongitudeDegrees>
            </Position>
            <AltitudeMeters>901.135</AltitudeMeters>
            <DistanceMeters>570464.28884229</DistanceMeters>
          </Trackpoint>
          <Trackpoint>
            <Time>2021-08-03T17:02:27Z</Time>
            <Position>
              <LatitudeDegrees>40.919168</LatitudeDegrees>
              <LongitudeDegrees>-1.294052</LongitudeDegrees>
            </Position>
            <AltitudeMeters>901.248</AltitudeMeters>
            <DistanceMeters>570469.74605697</DistanceMeters>
          </Trackpoint>
          <Trackpoint>
            <Time>2021-08-03T17:02:52Z</Time>
            <Position>
              <LatitudeDegrees>40.919130</LatitudeDegrees>
              <LongitudeDegrees>-1.294002</LongitudeDegrees>
            </Position>
            <AltitudeMeters>901.446</AltitudeMeters>
            <DistanceMeters>570475.70931456</DistanceMeters>
          </Trackpoint>
          <Trackpoint>
            <Time>2021-08-03T17:02:56Z</Time>
            <Position>
              <LatitudeDegrees>40.919100</LatitudeDegrees>
              <LongitudeDegrees>-1.293956</LongitudeDegrees>
            </Position>
            <AltitudeMeters>901.471</AltitudeMeters>
            <DistanceMeters>570480.81959646</DistanceMeters>
          </Trackpoint>
          <Trackpoint>
            <Time>2021-08-03T17:03:06Z</Time>
            <Position>
              <LatitudeDegrees>40.919156</LatitudeDegrees>
              <LongitudeDegrees>-1.293927</LongitudeDegrees>
            </Position>
            <AltitudeMeters>901.416</AltitudeMeters>
            <DistanceMeters>570487.51274289</DistanceMeters>
          </Trackpoint>
          <Trackpoint>
            <Time>2021-08-03T17:03:08Z</Time>
            <Position>
              <LatitudeDegrees>40.919099</LatitudeDegrees>
              <LongitudeDegrees>-1.293871</LongitudeDegrees>
            </Position>
            <AltitudeMeters>901.487</AltitudeMeters>
            <DistanceMeters>570495.41425848</DistanceMeters>
          </Trackpoint>
          <Trackpoint>
            <Time>2021-08-03T17:03:11Z</Time>
            <Position>
              <LatitudeDegrees>40.919048</LatitudeDegrees>
              <LongitudeDegrees>-1.293833</LongitudeDegrees>
            </Position>
            <AltitudeMeters>901.464</AltitudeMeters>
            <DistanceMeters>570501.92896179</DistanceMeters>
          </Trackpoint>
          <Trackpoint>
            <Time>2021-08-03T17:03:20Z</Time>
            <Position>
              <LatitudeDegrees>40.918988</LatitudeDegrees>
              <LongitudeDegrees>-1.293832</LongitudeDegrees>
            </Position>
            <AltitudeMeters>901.406</AltitudeMeters>
            <DistanceMeters>570508.60792711</DistanceMeters>
          </Trackpoint>
          <Trackpoint>
            <Time>2021-08-03T17:03:43Z</Time>
            <Position>
              <LatitudeDegrees>40.919013</LatitudeDegrees>
              <LongitudeDegrees>-1.293771</LongitudeDegrees>
            </Position>
            <AltitudeMeters>901.416</AltitudeMeters>
            <DistanceMeters>570514.44414577</DistanceMeters>
          </Trackpoint>
          <Trackpoint>
            <Time>2021-08-03T17:03:56Z</Time>
            <Position>
              <LatitudeDegrees>40.919073</LatitudeDegrees>
              <LongitudeDegrees>-1.293769</LongitudeDegrees>
            </Position>
            <AltitudeMeters>901.508</AltitudeMeters>
            <DistanceMeters>570521.12446297</DistanceMeters>
          </Trackpoint>
          <Trackpoint>
            <Time>2021-08-03T17:05:05Z</Time>
            <Position>
              <LatitudeDegrees>40.919076</LatitudeDegrees>
              <LongitudeDegrees>-1.293709</LongitudeDegrees>
            </Position>
            <AltitudeMeters>901.593</AltitudeMeters>
            <DistanceMeters>570526.18324114</DistanceMeters>
          </Trackpoint>
          <Trackpoint>
            <Time>2021-08-03T17:05:23Z</Time>
            <Position>
              <LatitudeDegrees>40.919006</LatitudeDegrees>
              <LongitudeDegrees>-1.293688</LongitudeDegrees>
            </Position>
            <AltitudeMeters>901.575</AltitudeMeters>
            <DistanceMeters>570534.17226989</DistanceMeters>
          </Trackpoint>
          <Trackpoint>
            <Time>2021-08-04T07:26:03.000Z</Time>
            <Position>
              <LatitudeDegrees>40.9190389327704906463623046875</LatitudeDegrees>
              <LongitudeDegrees>-1.29413626156747341156005859375</LongitudeDegrees>
            </Position>
            <AltitudeMeters>889.20001220703125</AltitudeMeters>
            <DistanceMeters>570572.0503998</DistanceMeters>
          </Trackpoint>
          <Trackpoint>
            <Time>2021-08-04T07:26:04.000Z</Time>
            <Position>
              <LatitudeDegrees>40.9190389327704906463623046875</LatitudeDegrees>
              <LongitudeDegrees>-1.294136345386505126953125</LongitudeDegrees>
            </Position>
            <AltitudeMeters>890.5999755859375</AltitudeMeters>
            <DistanceMeters>570572.0503998</DistanceMeters>
          </Trackpoint>
          <Trackpoint>
            <Time>2021-08-04T07:26:34.000Z</Time>
            <Position>
              <LatitudeDegrees>40.91903884895145893096923828125</LatitudeDegrees>
              <LongitudeDegrees>-1.294136680662631988525390625</LongitudeDegrees>
            </Position>
            <AltitudeMeters>890.5999755859375</AltitudeMeters>
            <DistanceMeters>570572.0503998</DistanceMeters>
          </Trackpoint>
          <Trackpoint>
            <Time>2021-08-04T07:26:35.000Z</Time>
            <Position>
              <LatitudeDegrees>40.9190391004085540771484375</LatitudeDegrees>
              <LongitudeDegrees>-1.2941368483006954193115234375</LongitudeDegrees>
            </Position>
            <AltitudeMeters>890.5999755859375</AltitudeMeters>
            <DistanceMeters>570572.0503998</DistanceMeters>
          </Trackpoint>
          <Trackpoint>
            <Time>2021-08-04T07:26:43.000Z</Time>
            <Position>
              <LatitudeDegrees>40.919015295803546905517578125</LatitudeDegrees>
              <LongitudeDegrees>-1.2941532768309116363525390625</LongitudeDegrees>
            </Position>
            <AltitudeMeters>891</AltitudeMeters>
            <DistanceMeters>570575.0373239</DistanceMeters>
          </Trackpoint>
          <Trackpoint>
            <Time>2021-08-04T07:26:53.000Z</Time>
            <Position>
              <LatitudeDegrees>40.91916156001389026641845703125</LatitudeDegrees>
              <LongitudeDegrees>-1.29423349164426326751708984375</LongitudeDegrees>
            </Position>
            <AltitudeMeters>889.79998779296875</AltitudeMeters>
            <DistanceMeters>570592.65933567</DistanceMeters>
          </Trackpoint>
          <Trackpoint>
            <Time>2021-08-04T07:26:55.000Z</Time>
            <Position>
              <LatitudeDegrees>40.91923280619084835052490234375</LatitudeDegrees>
              <LongitudeDegrees>-1.2942367605865001678466796875</LongitudeDegrees>
            </Position>
            <AltitudeMeters>889.4000244140625</AltitudeMeters>
            <DistanceMeters>570600.59392406</DistanceMeters>
          </Trackpoint>
          <Trackpoint>
            <Time>2021-08-04T07:27:03.000Z</Time>
            <Position>
              <LatitudeDegrees>40.91953866183757781982421875</LatitudeDegrees>
              <LongitudeDegrees>-1.294248662889003753662109375</LongitudeDegrees>
            </Position>
            <AltitudeMeters>889.20001220703125</AltitudeMeters>
            <DistanceMeters>570634.65089396</DistanceMeters>
          </Trackpoint>
          <Trackpoint>
            <Time>2021-08-04T07:27:06.000Z</Time>
            <Position>
              <LatitudeDegrees>40.91965894214808940887451171875</LatitudeDegrees>
              <LongitudeDegrees>-1.29421018995344638824462890625</LongitudeDegrees>
            </Position>
            <AltitudeMeters>888.4000244140625</AltitudeMeters>
            <DistanceMeters>570648.42386807</DistanceMeters>
          </Trackpoint>
          <Trackpoint>
            <Time>2021-08-04T07:27:14.000Z</Time>
            <Position>
              <LatitudeDegrees>40.9200018458068370819091796875</LatitudeDegrees>
              <LongitudeDegrees>-1.29410373978316783905029296875</LongitudeDegrees>
            </Position>
            <AltitudeMeters>887.4000244140625</AltitudeMeters>
            <DistanceMeters>570687.62581432</DistanceMeters>
          </Trackpoint>
          <Trackpoint>
            <Time>2021-08-04T07:27:17.000Z</Time>
            <Position>
              <LatitudeDegrees>40.9201302565634250640869140625</LatitudeDegrees>
              <LongitudeDegrees>-1.29406266845762729644775390625</LongitudeDegrees>
            </Position>
            <AltitudeMeters>887.20001220703125</AltitudeMeters>
            <DistanceMeters>570702.3294904</DistanceMeters>
          </Trackpoint>
          <Trackpoint>
            <Time>2021-08-04T07:27:23.000Z</Time>
            <Position>
              <LatitudeDegrees>40.92024550773203372955322265625</LatitudeDegrees>
              <LongitudeDegrees>-1.29378321580588817596435546875</LongitudeDegrees>
            </Position>
            <AltitudeMeters>887.4000244140625</AltitudeMeters>
            <DistanceMeters>570729.10477432</DistanceMeters>
          </Trackpoint>
          <Trackpoint>
            <Time>2021-08-04T07:27:31.000Z</Time>
            <Position>
              <LatitudeDegrees>40.92020259238779544830322265625</LatitudeDegrees>
              <LongitudeDegrees>-1.29334442317485809326171875</LongitudeDegrees>
            </Position>
            <AltitudeMeters>888.4000244140625</AltitudeMeters>
            <DistanceMeters>570766.31595439</DistanceMeters>
          </Trackpoint>
          <Trackpoint>
            <Time>2021-08-04T07:27:34.000Z</Time>
            <Position>
              <LatitudeDegrees>40.920169651508331298828125</LatitudeDegrees>
              <LongitudeDegrees>-1.29319178871810436248779296875</LongitudeDegrees>
            </Position>
            <AltitudeMeters>889.5999755859375</AltitudeMeters>
            <DistanceMeters>570779.66644684</DistanceMeters>
          </Trackpoint>
          <Trackpoint>
            <Time>2021-08-04T07:27:38.000Z</Time>
            <Position>
              <LatitudeDegrees>40.9201124869287014007568359375</LatitudeDegrees>
              <LongitudeDegrees>-1.29299464635550975799560546875</LongitudeDegrees>
            </Position>
            <AltitudeMeters>890.5999755859375</AltitudeMeters>
            <DistanceMeters>570797.42551354</DistanceMeters>
          </Trackpoint>
          <Trackpoint>
            <Time>2021-08-04T07:27:43.000Z</Time>
            <Position>
              <LatitudeDegrees>40.92002741061151027679443359375</LatitudeDegrees>
              <LongitudeDegrees>-1.29275500774383544921875</LongitudeDegrees>
            </Position>
            <AltitudeMeters>891.79998779296875</AltitudeMeters>
            <DistanceMeters>570819.69341774</DistanceMeters>
          </Trackpoint>
          <Trackpoint>
            <Time>2021-08-04T07:27:53.000Z</Time>
            <Position>
              <LatitudeDegrees>40.9198625385761260986328125</LatitudeDegrees>
              <LongitudeDegrees>-1.2922482378780841827392578125</LongitudeDegrees>
            </Position>
            <AltitudeMeters>892.5999755859375</AltitudeMeters>
            <DistanceMeters>570866.09682181</DistanceMeters>
          </Trackpoint>
          <Trackpoint>
            <Time>2021-08-04T07:28:00.000Z</Time>
            <Position>
              <LatitudeDegrees>40.91974510811269283294677734375</LatitudeDegrees>
              <LongitudeDegrees>-1.2918894924223423004150390625</LongitudeDegrees>
            </Position>
            <AltitudeMeters>893.79998779296875</AltitudeMeters>
            <DistanceMeters>570898.9777128</DistanceMeters>
          </Trackpoint>
          <Trackpoint>
            <Time>2021-08-04T07:28:07.000Z</Time>
            <Position>
              <LatitudeDegrees>40.91963681392371654510498046875</LatitudeDegrees>
              <LongitudeDegrees>-1.29154172725975513458251953125</LongitudeDegrees>
            </Position>
            <AltitudeMeters>894.79998779296875</AltitudeMeters>
            <DistanceMeters>570930.61204749</DistanceMeters>
          </Trackpoint>
          <Trackpoint>
            <Time>2021-08-04T07:28:13.000Z</Time>
            <Position>
              <LatitudeDegrees>40.91956037096679210662841796875</LatitudeDegrees>
              <LongitudeDegrees>-1.2912900187075138092041015625</LongitudeDegrees>
            </Position>
            <AltitudeMeters>895.79998779296875</AltitudeMeters>
            <DistanceMeters>570953.42716806</DistanceMeters>
          </Trackpoint>
          <Trackpoint>
            <Time>2021-08-04T07:28:19.000Z</Time>
            <Position>
              <LatitudeDegrees>40.9195083193480968475341796875</LatitudeDegrees>
              <LongitudeDegrees>-1.2911186926066875457763671875</LongitudeDegrees>
            </Position>
            <AltitudeMeters>897</AltitudeMeters>
            <DistanceMeters>570968.95698717</DistanceMeters>
          </Trackpoint>
          <Trackpoint>
            <Time>2021-08-04T07:28:25.000Z</Time>
            <Position>
              <LatitudeDegrees>40.919472612440586090087890625</LatitudeDegrees>
              <LongitudeDegrees>-1.29095382057130336761474609375</LongitudeDegrees>
            </Position>
            <AltitudeMeters>898</AltitudeMeters>
            <DistanceMeters>570983.38134128</DistanceMeters>
          </Trackpoint>
          <Trackpoint>
            <Time>2021-08-04T07:28:33.000Z</Time>
            <Position>
              <LatitudeDegrees>40.9193758852779865264892578125</LatitudeDegrees>
              <LongitudeDegrees>-1.2907223962247371673583984375</LongitudeDegrees>
            </Position>
            <AltitudeMeters>899.20001220703125</AltitudeMeters>
            <DistanceMeters>571005.62408905</DistanceMeters>
          </Trackpoint>
          <Trackpoint>
            <Time>2021-08-04T07:28:40.000Z</Time>
            <Position>
              <LatitudeDegrees>40.91931813396513462066650390625</LatitudeDegrees>
              <LongitudeDegrees>-1.290574371814727783203125</LongitudeDegrees>
            </Position>
            <AltitudeMeters>900.20001220703125</AltitudeMeters>
            <DistanceMeters>571019.63464941</DistanceMeters>
          </Trackpoint>
          <Trackpoint>
            <Time>2021-08-04T07:28:51.000Z</Time>
            <Position>
              <LatitudeDegrees>40.91921503655612468719482421875</LatitudeDegrees>
              <LongitudeDegrees>-1.29030137322843074798583984375</LongitudeDegrees>
            </Position>
            <AltitudeMeters>901.4000244140625</AltitudeMeters>
            <DistanceMeters>571045.30259455</DistanceMeters>
          </Trackpoint>
          <Trackpoint>
            <Time>2021-08-04T07:29:05.000Z</Time>
            <Position>
              <LatitudeDegrees>40.91902258805930614471435546875</LatitudeDegrees>
              <LongitudeDegrees>-1.28976099193096160888671875</LongitudeDegrees>
            </Position>
            <AltitudeMeters>902.4000244140625</AltitudeMeters>
            <DistanceMeters>571095.54540308</DistanceMeters>
          </Trackpoint>
          <Trackpoint>
            <Time>2021-08-04T07:29:19.000Z</Time>
            <Position>
              <LatitudeDegrees>40.918848328292369842529296875</LatitudeDegrees>
              <LongitudeDegrees>-1.28905179910361766815185546875</LongitudeDegrees>
            </Position>
            <AltitudeMeters>902.5999755859375</AltitudeMeters>
            <DistanceMeters>571158.26548218</DistanceMeters>
          </Trackpoint>
          <Trackpoint>
            <Time>2021-08-04T07:29:32.000Z</Time>
            <Position>
              <LatitudeDegrees>40.9186979569494724273681640625</LatitudeDegrees>
              <LongitudeDegrees>-1.28833615221083164215087890625</LongitudeDegrees>
            </Position>
            <AltitudeMeters>902.5999755859375</AltitudeMeters>
            <DistanceMeters>571220.73786839</DistanceMeters>
          </Trackpoint>
          <Trackpoint>
            <Time>2021-08-04T07:29:44.000Z</Time>
            <Position>
              <LatitudeDegrees>40.91854163445532321929931640625</LatitudeDegrees>
              <LongitudeDegrees>-1.28759636543691158294677734375</LongitudeDegrees>
            </Position>
            <AltitudeMeters>901.20001220703125</AltitudeMeters>
            <DistanceMeters>571285.34415473</DistanceMeters>
          </Trackpoint>
          <Trackpoint>
            <Time>2021-08-04T07:29:45.000Z</Time>
            <Position>
              <LatitudeDegrees>40.9185276366770267486572265625</LatitudeDegrees>
              <LongitudeDegrees>-1.28753207623958587646484375</LongitudeDegrees>
            </Position>
            <AltitudeMeters>901</AltitudeMeters>
            <DistanceMeters>571290.97082764</DistanceMeters>
          </Trackpoint>
          <Trackpoint>
            <Time>2021-08-04T07:29:49.000Z</Time>
            <Position>
              <LatitudeDegrees>40.91847273521125316619873046875</LatitudeDegrees>
              <LongitudeDegrees>-1.2872707284986972808837890625</LongitudeDegrees>
            </Position>
            <AltitudeMeters>900.4000244140625</AltitudeMeters>
            <DistanceMeters>571313.7847608</DistanceMeters>
          </Trackpoint>
          <Trackpoint>
            <Time>2021-08-04T07:30:00.000Z</Time>
            <Position>
              <LatitudeDegrees>40.918319262564182281494140625</LatitudeDegrees>
              <LongitudeDegrees>-1.28652733750641345977783203125</LongitudeDegrees>
            </Position>
            <AltitudeMeters>899.79998779296875</AltitudeMeters>
            <DistanceMeters>571378.59883182</DistanceMeters>
          </Trackpoint>
          <Trackpoint>
            <Time>2021-08-04T07:30:10.000Z</Time>
            <Position>
              <LatitudeDegrees>40.9181709028780460357666015625</LatitudeDegrees>
              <LongitudeDegrees>-1.28580867312848567962646484375</LongitudeDegrees>
            </Position>
            <AltitudeMeters>899.20001220703125</AltitudeMeters>
            <DistanceMeters>571441.25689934</DistanceMeters>
          </Trackpoint>
          <Trackpoint>
            <Time>2021-08-04T07:30:21.000Z</Time>
            <Position>
              <LatitudeDegrees>40.91801441274583339691162109375</LatitudeDegrees>
              <LongitudeDegrees>-1.2850599177181720733642578125</LongitudeDegrees>
            </Position>
            <AltitudeMeters>899.4000244140625</AltitudeMeters>
            <DistanceMeters>571506.59521169</DistanceMeters>
          </Trackpoint>
          <Trackpoint>
            <Time>2021-08-04T07:30:32.000Z</Time>
            <Position>
              <LatitudeDegrees>40.917863287031650543212890625</LatitudeDegrees>
              <LongitudeDegrees>-1.28435541875660419464111328125</LongitudeDegrees>
            </Position>
            <AltitudeMeters>900.20001220703125</AltitudeMeters>
            <DistanceMeters>571568.18850496</DistanceMeters>
          </Trackpoint>
          <Trackpoint>
            <Time>2021-08-04T07:30:39.000Z</Time>
            <Position>
              <LatitudeDegrees>40.91777385212481021881103515625</LatitudeDegrees>
              <LongitudeDegrees>-1.28391888923943042755126953125</LongitudeDegrees>
            </Position>
            <AltitudeMeters>900.4000244140625</AltitudeMeters>
            <DistanceMeters>571606.22851889</DistanceMeters>
          </Trackpoint>
          <Trackpoint>
            <Time>2021-08-04T07:30:42.000Z</Time>
            <Position>
              <LatitudeDegrees>40.91768802143633365631103515625</LatitudeDegrees>
              <LongitudeDegrees>-1.28376617096364498138427734375</LongitudeDegrees>
            </Position>
            <AltitudeMeters>901.20001220703125</AltitudeMeters>
            <DistanceMeters>571622.23593745</DistanceMeters>
          </Trackpoint>
          <Trackpoint>
            <Time>2021-08-04T07:30:52.000Z</Time>
            <Position>
              <LatitudeDegrees>40.91752432286739349365234375</LatitudeDegrees>
              <LongitudeDegrees>-1.28323785960674285888671875</LongitudeDegrees>
            </Position>
            <AltitudeMeters>901.5999755859375</AltitudeMeters>
            <DistanceMeters>571670.26044957</DistanceMeters>
          </Trackpoint>
          <Trackpoint>
            <Time>2021-08-04T07:30:53.000Z</Time>
            <Position>
              <LatitudeDegrees>40.9175370633602142333984375</LatitudeDegrees>
              <LongitudeDegrees>-1.283177845180034637451171875</LongitudeDegrees>
            </Position>
            <AltitudeMeters>901.79998779296875</AltitudeMeters>
            <DistanceMeters>571675.50330688</DistanceMeters>
          </Trackpoint>
          <Trackpoint>
            <Time>2021-08-04T07:30:59.000Z</Time>
            <Position>
              <LatitudeDegrees>40.91747545637190341949462890625</LatitudeDegrees>
              <LongitudeDegrees>-1.28282370977103710174560546875</LongitudeDegrees>
            </Position>
            <AltitudeMeters>902</AltitudeMeters>
            <DistanceMeters>571706.06706561</DistanceMeters>
          </Trackpoint>
          <Trackpoint>
            <Time>2021-08-04T07:31:02.000Z</Time>
            <Position>
              <LatitudeDegrees>40.91743656434118747711181640625</LatitudeDegrees>
              <LongitudeDegrees>-1.2826479412615299224853515625</LongitudeDegrees>
            </Position>
            <AltitudeMeters>902.79998779296875</AltitudeMeters>
            <DistanceMeters>571721.47077583</DistanceMeters>
          </Trackpoint>
          <Trackpoint>
            <Time>2021-08-04T07:31:59.000Z</Time>
            <Position>
              <LatitudeDegrees>40.91678177006542682647705078125</LatitudeDegrees>
              <LongitudeDegrees>-1.2796569429337978363037109375</LongitudeDegrees>
            </Position>
            <AltitudeMeters>909.5999755859375</AltitudeMeters>
            <DistanceMeters>571983.37672694</DistanceMeters>
          </Trackpoint>
          <Trackpoint>
            <Time>2021-08-04T07:32:11.000Z</Time>
            <Position>
              <LatitudeDegrees>40.9166514314711093902587890625</LatitudeDegrees>
              <LongitudeDegrees>-1.2790507636964321136474609375</LongitudeDegrees>
            </Position>
            <AltitudeMeters>910.79998779296875</AltitudeMeters>
            <DistanceMeters>572036.38426024</DistanceMeters>
          </Trackpoint>
          <Trackpoint>
            <Time>2021-08-04T07:32:21.000Z</Time>
            <Position>
              <LatitudeDegrees>40.91653685085475444793701171875</LatitudeDegrees>
              <LongitudeDegrees>-1.2785525433719158172607421875</LongitudeDegrees>
            </Position>
            <AltitudeMeters>912</AltitudeMeters>
            <DistanceMeters>572080.18570042</DistanceMeters>
          </Trackpoint>
          <Trackpoint>
            <Time>2021-08-04T07:32:26.000Z</Time>
            <Position>
              <LatitudeDegrees>40.91648052446544170379638671875</LatitudeDegrees>
              <LongitudeDegrees>-1.27829681150615215301513671875</LongitudeDegrees>
            </Position>
            <AltitudeMeters>913</AltitudeMeters>
            <DistanceMeters>572102.58984801</DistanceMeters>
          </Trackpoint>
          <Trackpoint>
            <Time>2021-08-04T07:32:34.000Z</Time>
            <Position>
              <LatitudeDegrees>40.916394777595996856689453125</LatitudeDegrees>
              <LongitudeDegrees>-1.27789733000099658966064453125</LongitudeDegrees>
            </Position>
            <AltitudeMeters>913.79998779296875</AltitudeMeters>
            <DistanceMeters>572137.51807997</DistanceMeters>
          </Trackpoint>
          <Trackpoint>
            <Time>2021-08-04T07:32:43.000Z</Time>
            <Position>
              <LatitudeDegrees>40.9163060970604419708251953125</LatitudeDegrees>
              <LongitudeDegrees>-1.277457363903522491455078125</LongitudeDegrees>
            </Position>
            <AltitudeMeters>915</AltitudeMeters>
            <DistanceMeters>572175.81608588</DistanceMeters>
          </Trackpoint>
          <Trackpoint>
            <Time>2021-08-04T07:32:49.000Z</Time>
            <Position>
              <LatitudeDegrees>40.916280783712863922119140625</LatitudeDegrees>
              <LongitudeDegrees>-1.2771645002067089080810546875</LongitudeDegrees>
            </Position>
            <AltitudeMeters>916.20001220703125</AltitudeMeters>
            <DistanceMeters>572200.60877237</DistanceMeters>
          </Trackpoint>
          <Trackpoint>
            <Time>2021-08-04T07:32:58.000Z</Time>
            <Position>
              <LatitudeDegrees>40.91628472320735454559326171875</LatitudeDegrees>
              <LongitudeDegrees>-1.276729144155979156494140625</LongitudeDegrees>
            </Position>
            <AltitudeMeters>917.4000244140625</AltitudeMeters>
            <DistanceMeters>572237.22797979</DistanceMeters>
          </Trackpoint>
          <Trackpoint>
            <Time>2021-08-04T07:33:06.000Z</Time>
            <Position>
              <LatitudeDegrees>40.916324369609355926513671875</LatitudeDegrees>
              <LongitudeDegrees>-1.2763484381139278411865234375</LongitudeDegrees>
            </Position>
            <AltitudeMeters>918.4000244140625</AltitudeMeters>
            <DistanceMeters>572269.5507548</DistanceMeters>
          </Trackpoint>
          <Trackpoint>
            <Time>2021-08-04T07:33:12.000Z</Time>
            <Position>
              <LatitudeDegrees>40.916358567774295806884765625</LatitudeDegrees>
              <LongitudeDegrees>-1.27607225440442562103271484375</LongitudeDegrees>
            </Position>
            <AltitudeMeters>919.5999755859375</AltitudeMeters>
            <DistanceMeters>572293.08977539</DistanceMeters>
          </Trackpoint>
          <Trackpoint>
            <Time>2021-08-04T07:33:20.000Z</Time>
            <Position>
              <LatitudeDegrees>40.9164267964661121368408203125</LatitudeDegrees>
              <LongitudeDegrees>-1.27570915035903453826904296875</LongitudeDegrees>
            </Position>
            <AltitudeMeters>920.5999755859375</AltitudeMeters>
            <DistanceMeters>572324.55940383</DistanceMeters>
          </Trackpoint>
          <Trackpoint>
            <Time>2021-08-04T07:33:27.000Z</Time>
            <Position>
              <LatitudeDegrees>40.9164918400347232818603515625</LatitudeDegrees>
              <LongitudeDegrees>-1.2753944098949432373046875</LongitudeDegrees>
            </Position>
            <AltitudeMeters>921.5999755859375</AltitudeMeters>
            <DistanceMeters>572352.00354011</DistanceMeters>
          </Trackpoint>
          <Trackpoint>
            <Time>2021-08-04T07:33:29.000Z</Time>
            <Position>
              <LatitudeDegrees>40.91651069931685924530029296875</LatitudeDegrees>
              <LongitudeDegrees>-1.27530656754970550537109375</LongitudeDegrees>
            </Position>
            <AltitudeMeters>922.4000244140625</AltitudeMeters>
            <DistanceMeters>572359.68367418</DistanceMeters>
          </Trackpoint>
          <Trackpoint>
            <Time>2021-08-04T07:33:30.000Z</Time>
            <Position>
              <LatitudeDegrees>40.9165196679532527923583984375</LatitudeDegrees>
              <LongitudeDegrees>-1.27526273019611835479736328125</LongitudeDegrees>
            </Position>
            <AltitudeMeters>922.79998779296875</AltitudeMeters>
            <DistanceMeters>572363.50370082</DistanceMeters>
          </Trackpoint>
          <Trackpoint>
            <Time>2021-08-04T07:33:38.000Z</Time>
            <Position>
              <LatitudeDegrees>40.91658814810216426849365234375</LatitudeDegrees>
              <LongitudeDegrees>-1.2749183177947998046875</LongitudeDegrees>
            </Position>
            <AltitudeMeters>923.79998779296875</AltitudeMeters>
            <DistanceMeters>572393.45717032</DistanceMeters>
          </Trackpoint>
          <Trackpoint>
            <Time>2021-08-04T07:33:45.000Z</Time>
            <Position>
              <LatitudeDegrees>40.91664950363337993621826171875</LatitudeDegrees>
              <LongitudeDegrees>-1.27462604083120822906494140625</LongitudeDegrees>
            </Position>
            <AltitudeMeters>924.79998779296875</AltitudeMeters>
            <DistanceMeters>572418.97073711</DistanceMeters>
          </Trackpoint>
          <Trackpoint>
            <Time>2021-08-04T07:33:51.000Z</Time>
            <Position>
              <LatitudeDegrees>40.91669761575758457183837890625</LatitudeDegrees>
              <LongitudeDegrees>-1.27438095398247241973876953125</LongitudeDegrees>
            </Position>
            <AltitudeMeters>925.79998779296875</AltitudeMeters>
            <DistanceMeters>572440.26817217</DistanceMeters>
          </Trackpoint>
          <Trackpoint>
            <Time>2021-08-04T07:34:00.000Z</Time>
            <Position>
              <LatitudeDegrees>40.916764251887798309326171875</LatitudeDegrees>
              <LongitudeDegrees>-1.2740125693380832672119140625</LongitudeDegrees>
            </Position>
            <AltitudeMeters>927</AltitudeMeters>
            <DistanceMeters>572472.12721566</DistanceMeters>
          </Trackpoint>
          <Trackpoint>
            <Time>2021-08-04T07:34:10.000Z</Time>
            <Position>
              <LatitudeDegrees>40.91682284139096736907958984375</LatitudeDegrees>
              <LongitudeDegrees>-1.27360261045396327972412109375</LongitudeDegrees>
            </Position>
            <AltitudeMeters>928.20001220703125</AltitudeMeters>
            <DistanceMeters>572507.21871698</DistanceMeters>
          </Trackpoint>
          <Trackpoint>
            <Time>2021-08-04T07:34:15.000Z</Time>
            <Position>
              <LatitudeDegrees>40.9168613143265247344970703125</LatitudeDegrees>
              <LongitudeDegrees>-1.27341552637517452239990234375</LongitudeDegrees>
            </Position>
            <AltitudeMeters>929.20001220703125</AltitudeMeters>
            <DistanceMeters>572523.52569987</DistanceMeters>
          </Trackpoint>
          <Trackpoint>
            <Time>2021-08-04T07:34:21.000Z</Time>
            <Position>
              <LatitudeDegrees>40.9169310517609119415283203125</LatitudeDegrees>
              <LongitudeDegrees>-1.27319977618753910064697265625</LongitudeDegrees>
            </Position>
            <AltitudeMeters>930.4000244140625</AltitudeMeters>
            <DistanceMeters>572543.26199581</DistanceMeters>
          </Trackpoint>
          <Trackpoint>
            <Time>2021-08-04T07:34:27.000Z</Time>
            <Position>
              <LatitudeDegrees>40.917009003460407257080078125</LatitudeDegrees>
              <LongitudeDegrees>-1.272996179759502410888671875</LongitudeDegrees>
            </Position>
            <AltitudeMeters>931.4000244140625</AltitudeMeters>
            <DistanceMeters>572562.45833295</DistanceMeters>
          </Trackpoint>
          <Trackpoint>
            <Time>2021-08-04T07:34:34.000Z</Time>
            <Position>
              <LatitudeDegrees>40.91710732318460941314697265625</LatitudeDegrees>
              <LongitudeDegrees>-1.2727603130042552947998046875</LongitudeDegrees>
            </Position>
            <AltitudeMeters>932.4000244140625</AltitudeMeters>
            <DistanceMeters>572585.11418441</DistanceMeters>
          </Trackpoint>
          <Trackpoint>
            <Time>2021-08-04T07:34:41.000Z</Time>
            <Position>
              <LatitudeDegrees>40.91723573394119739532470703125</LatitudeDegrees>
              <LongitudeDegrees>-1.27252654172480106353759765625</LongitudeDegrees>
            </Position>
            <AltitudeMeters>933.5999755859375</AltitudeMeters>
            <DistanceMeters>572609.42171332</DistanceMeters>
          </Trackpoint>
          <Trackpoint>
            <Time>2021-08-04T07:34:48.000Z</Time>
            <Position>
              <LatitudeDegrees>40.917391888797283172607421875</LatitudeDegrees>
              <LongitudeDegrees>-1.2723221071064472198486328125</LongitudeDegrees>
            </Position>
            <AltitudeMeters>934.5999755859375</AltitudeMeters>
            <DistanceMeters>572633.87000201</DistanceMeters>
          </Trackpoint>
          <Trackpoint>
            <Time>2021-08-04T07:34:53.000Z</Time>
            <Position>
              <LatitudeDegrees>40.9175129234790802001953125</LatitudeDegrees>
              <LongitudeDegrees>-1.27220232971012592315673828125</LongitudeDegrees>
            </Position>
            <AltitudeMeters>935.79998779296875</AltitudeMeters>
            <DistanceMeters>572650.69160941</DistanceMeters>
          </Trackpoint>
          <Trackpoint>
            <Time>2021-08-04T07:35:00.000Z</Time>
            <Position>
              <LatitudeDegrees>40.91767712496221065521240234375</LatitudeDegrees>
              <LongitudeDegrees>-1.27203184179961681365966796875</LongitudeDegrees>
            </Position>
            <AltitudeMeters>936.5999755859375</AltitudeMeters>
            <DistanceMeters>572673.92131686</DistanceMeters>
          </Trackpoint>
          <Trackpoint>
            <Time>2021-08-04T07:35:07.000Z</Time>
            <Position>
              <LatitudeDegrees>40.91782816685736179351806640625</LatitudeDegrees>
              <LongitudeDegrees>-1.27183436416089534759521484375</LongitudeDegrees>
            </Position>
            <AltitudeMeters>937.79998779296875</AltitudeMeters>
            <DistanceMeters>572697.55337364</DistanceMeters>
          </Trackpoint>
          <Trackpoint>
            <Time>2021-08-04T07:35:19.000Z</Time>
            <Position>
              <LatitudeDegrees>40.918062441051006317138671875</LatitudeDegrees>
              <LongitudeDegrees>-1.27148835919797420501708984375</LongitudeDegrees>
            </Position>
            <AltitudeMeters>938.79998779296875</AltitudeMeters>
            <DistanceMeters>572736.6272678</DistanceMeters>
          </Trackpoint>
          <Trackpoint>
            <Time>2021-08-04T07:35:25.000Z</Time>
            <Position>
              <LatitudeDegrees>40.9181968867778778076171875</LatitudeDegrees>
              <LongitudeDegrees>-1.27132591791450977325439453125</LongitudeDegrees>
            </Position>
            <AltitudeMeters>939.79998779296875</AltitudeMeters>
            <DistanceMeters>572756.8900296</DistanceMeters>
          </Trackpoint>
          <Trackpoint>
            <Time>2021-08-04T07:35:38.000Z</Time>
            <Position>
              <LatitudeDegrees>40.9185159020125865936279296875</LatitudeDegrees>
              <LongitudeDegrees>-1.2709655798971652984619140625</LongitudeDegrees>
            </Position>
            <AltitudeMeters>941</AltitudeMeters>
            <DistanceMeters>572803.57204207</DistanceMeters>
          </Trackpoint>
          <Trackpoint>
            <Time>2021-08-04T07:35:44.000Z</Time>
            <Position>
              <LatitudeDegrees>40.91867105104029178619384765625</LatitudeDegrees>
              <LongitudeDegrees>-1.27079215832054615020751953125</LongitudeDegrees>
            </Position>
            <AltitudeMeters>941.79998779296875</AltitudeMeters>
            <DistanceMeters>572826.17601927</DistanceMeters>
          </Trackpoint>
          <Trackpoint>
            <Time>2021-08-04T07:35:54.000Z</Time>
            <Position>
              <LatitudeDegrees>40.91893223114311695098876953125</LatitudeDegrees>
              <LongitudeDegrees>-1.2704928405582904815673828125</LongitudeDegrees>
            </Position>
            <AltitudeMeters>943</AltitudeMeters>
            <DistanceMeters>572864.63097186</DistanceMeters>
          </Trackpoint>
          <Trackpoint>
            <Time>2021-08-04T07:36:10.000Z</Time>
            <Position>
              <LatitudeDegrees>40.9193809144198894500732421875</LatitudeDegrees>
              <LongitudeDegrees>-1.27003795467317104339599609375</LongitudeDegrees>
            </Position>
            <AltitudeMeters>943.5999755859375</AltitudeMeters>
            <DistanceMeters>572927.54023575</DistanceMeters>
          </Trackpoint>
          <Trackpoint>
            <Time>2021-08-04T07:36:12.000Z</Time>
            <Position>
              <LatitudeDegrees>40.919440425932407379150390625</LatitudeDegrees>
              <LongitudeDegrees>-1.26998850144445896148681640625</LongitudeDegrees>
            </Position>
            <AltitudeMeters>944</AltitudeMeters>
            <DistanceMeters>572935.36249872</DistanceMeters>
          </Trackpoint>
          <Trackpoint>
            <Time>2021-08-04T07:36:23.000Z</Time>
            <Position>
              <LatitudeDegrees>40.9198503009974956512451171875</LatitudeDegrees>
              <LongitudeDegrees>-1.26975917257368564605712890625</LongitudeDegrees>
            </Position>
            <AltitudeMeters>943</AltitudeMeters>
            <DistanceMeters>572984.89211418</DistanceMeters>
          </Trackpoint>
          <Trackpoint>
            <Time>2021-08-04T07:36:28.000Z</Time>
            <Position>
              <LatitudeDegrees>40.92011089436709880828857421875</LatitudeDegrees>
              <LongitudeDegrees>-1.26970837824046611785888671875</LongitudeDegrees>
            </Position>
            <AltitudeMeters>941.79998779296875</AltitudeMeters>
            <DistanceMeters>573014.20966517</DistanceMeters>
          </Trackpoint>
          <Trackpoint>
            <Time>2021-08-04T07:36:31.000Z</Time>
            <Position>
              <LatitudeDegrees>40.9202989004552364349365234375</LatitudeDegrees>
              <LongitudeDegrees>-1.269716508686542510986328125</LongitudeDegrees>
            </Position>
            <AltitudeMeters>940.20001220703125</AltitudeMeters>
            <DistanceMeters>573035.14618758</DistanceMeters>
          </Trackpoint>
          <Trackpoint>
            <Time>2021-08-04T07:36:33.000Z</Time>
            <Position>
              <LatitudeDegrees>40.92043493874371051788330078125</LatitudeDegrees>
              <LongitudeDegrees>-1.2697247229516506195068359375</LongitudeDegrees>
            </Position>
            <AltitudeMeters>938.20001220703125</AltitudeMeters>
            <DistanceMeters>573050.30317194</DistanceMeters>
          </Trackpoint>
          <Trackpoint>
            <Time>2021-08-04T07:36:34.000Z</Time>
            <Position>
              <LatitudeDegrees>40.92050652019679546356201171875</LatitudeDegrees>
              <LongitudeDegrees>-1.2697267346084117889404296875</LongitudeDegrees>
            </Position>
            <AltitudeMeters>937</AltitudeMeters>
            <DistanceMeters>573058.27239572</DistanceMeters>
          </Trackpoint>
          <Trackpoint>
            <Time>2021-08-04T07:36:37.000Z</Time>
            <Position>
              <LatitudeDegrees>40.92072931118309497833251953125</LatitudeDegrees>
              <LongitudeDegrees>-1.26971072517335414886474609375</LongitudeDegrees>
            </Position>
            <AltitudeMeters>935.79998779296875</AltitudeMeters>
            <DistanceMeters>573083.10620535</DistanceMeters>
          </Trackpoint>
          <Trackpoint>
            <Time>2021-08-04T07:36:40.000Z</Time>
            <Position>
              <LatitudeDegrees>40.9209597297012805938720703125</LatitudeDegrees>
              <LongitudeDegrees>-1.269663870334625244140625</LongitudeDegrees>
            </Position>
            <AltitudeMeters>934.20001220703125</AltitudeMeters>
            <DistanceMeters>573109.05337108</DistanceMeters>
          </Trackpoint>
          <Trackpoint>
            <Time>2021-08-04T07:36:42.000Z</Time>
            <Position>
              <LatitudeDegrees>40.921116136014461517333984375</LatitudeDegrees>
              <LongitudeDegrees>-1.26962070353329181671142578125</LongitudeDegrees>
            </Position>
            <AltitudeMeters>933.20001220703125</AltitudeMeters>
            <DistanceMeters>573126.83581233</DistanceMeters>
          </Trackpoint>
          <Trackpoint>
            <Time>2021-08-04T07:36:45.000Z</Time>
            <Position>
              <LatitudeDegrees>40.92135745100677013397216796875</LatitudeDegrees>
              <LongitudeDegrees>-1.26955834217369556427001953125</LongitudeDegrees>
            </Position>
            <AltitudeMeters>932.20001220703125</AltitudeMeters>
            <DistanceMeters>573154.20185625</DistanceMeters>
          </Trackpoint>
          <Trackpoint>
            <Time>2021-08-04T07:36:46.000Z</Time>
            <Position>
              <LatitudeDegrees>40.92144034802913665771484375</LatitudeDegrees>
              <LongitudeDegrees>-1.26955188810825347900390625</LongitudeDegrees>
            </Position>
            <AltitudeMeters>931.79998779296875</AltitudeMeters>
            <DistanceMeters>573163.44488353</DistanceMeters>
          </Trackpoint>
          <Trackpoint>
            <Time>2021-08-04T07:36:49.000Z</Time>
            <Position>
              <LatitudeDegrees>40.9216805733740329742431640625</LatitudeDegrees>
              <LongitudeDegrees>-1.269636042416095733642578125</LongitudeDegrees>
            </Position>
            <AltitudeMeters>930.79998779296875</AltitudeMeters>
            <DistanceMeters>573191.10337148</DistanceMeters>
          </Trackpoint>
          <Trackpoint>
            <Time>2021-08-04T07:36:51.000Z</Time>
            <Position>
              <LatitudeDegrees>40.92181258834898471832275390625</LatitudeDegrees>
              <LongitudeDegrees>-1.26978549174964427947998046875</LongitudeDegrees>
            </Position>
            <AltitudeMeters>929.79998779296875</AltitudeMeters>
            <DistanceMeters>573210.43891453</DistanceMeters>
          </Trackpoint>
          <Trackpoint>
            <Time>2021-08-04T07:36:52.000Z</Time>
            <Position>
              <LatitudeDegrees>40.92187461443245410919189453125</LatitudeDegrees>
              <LongitudeDegrees>-1.26987241208553314208984375</LongitudeDegrees>
            </Position>
            <AltitudeMeters>929.20001220703125</AltitudeMeters>
            <DistanceMeters>573220.4938007</DistanceMeters>
          </Trackpoint>
          <Trackpoint>
            <Time>2021-08-04T07:36:54.000Z</Time>
            <Position>
              <LatitudeDegrees>40.92199623584747314453125</LatitudeDegrees>
              <LongitudeDegrees>-1.27005404792726039886474609375</LongitudeDegrees>
            </Position>
            <AltitudeMeters>928.20001220703125</AltitudeMeters>
            <DistanceMeters>573240.90420287</DistanceMeters>
          </Trackpoint>
          <Trackpoint>
            <Time>2021-08-04T07:36:56.000Z</Time>
            <Position>
              <LatitudeDegrees>40.92211601324379444122314453125</LatitudeDegrees>
              <LongitudeDegrees>-1.2702405452728271484375</LongitudeDegrees>
            </Position>
            <AltitudeMeters>926.79998779296875</AltitudeMeters>
            <DistanceMeters>573261.48905985</DistanceMeters>
          </Trackpoint>
          <Trackpoint>
            <Time>2021-08-04T07:37:00.000Z</Time>
            <Position>
              <LatitudeDegrees>40.92244290746748447418212890625</LatitudeDegrees>
              <LongitudeDegrees>-1.2704189121723175048828125</LongitudeDegrees>
            </Position>
            <AltitudeMeters>924.5999755859375</AltitudeMeters>
            <DistanceMeters>573300.84411863</DistanceMeters>
          </Trackpoint>
          <Trackpoint>
            <Time>2021-08-04T07:37:02.000Z</Time>
            <Position>
              <LatitudeDegrees>40.9225742518901824951171875</LatitudeDegrees>
              <LongitudeDegrees>-1.2703000567853450775146484375</LongitudeDegrees>
            </Position>
            <AltitudeMeters>923.4000244140625</AltitudeMeters>
            <DistanceMeters>573318.55379438</DistanceMeters>
          </Trackpoint>
          <Trackpoint>
            <Time>2021-08-04T07:37:04.000Z</Time>
            <Position>
              <LatitudeDegrees>40.922658406198024749755859375</LatitudeDegrees>
              <LongitudeDegrees>-1.2701126374304294586181640625</LongitudeDegrees>
            </Position>
            <AltitudeMeters>922.5999755859375</AltitudeMeters>
            <DistanceMeters>573336.88877968</DistanceMeters>
          </Trackpoint>
          <Trackpoint>
            <Time>2021-08-04T07:37:05.000Z</Time>
            <Position>
              <LatitudeDegrees>40.92270224355161190032958984375</LatitudeDegrees>
              <LongitudeDegrees>-1.27001884393393993377685546875</LongitudeDegrees>
            </Position>
            <AltitudeMeters>922.4000244140625</AltitudeMeters>
            <DistanceMeters>573346.1644774</DistanceMeters>
          </Trackpoint>
          <Trackpoint>
            <Time>2021-08-04T07:37:08.000Z</Time>
            <Position>
              <LatitudeDegrees>40.922835767269134521484375</LatitudeDegrees>
              <LongitudeDegrees>-1.26974022947251796722412109375</LongitudeDegrees>
            </Position>
            <AltitudeMeters>921.4000244140625</AltitudeMeters>
            <DistanceMeters>573373.9114644</DistanceMeters>
          </Trackpoint>
          <Trackpoint>
            <Time>2021-08-04T07:37:15.000Z</Time>
            <Position>
              <LatitudeDegrees>40.92315402813255786895751953125</LatitudeDegrees>
              <LongitudeDegrees>-1.2691624648869037628173828125</LongitudeDegrees>
            </Position>
            <AltitudeMeters>920.4000244140625</AltitudeMeters>
            <DistanceMeters>573434.04227887</DistanceMeters>
          </Trackpoint>
          <Trackpoint>
            <Time>2021-08-04T07:37:16.000Z</Time>
            <Position>
              <LatitudeDegrees>40.92320113442838191986083984375</LatitudeDegrees>
              <LongitudeDegrees>-1.26908920705318450927734375</LongitudeDegrees>
            </Position>
            <AltitudeMeters>920</AltitudeMeters>
            <DistanceMeters>573442.13239594</DistanceMeters>
          </Trackpoint>
          <Trackpoint>
            <Time>2021-08-04T07:37:21.000Z</Time>
            <Position>
              <LatitudeDegrees>40.92343213967978954315185546875</LatitudeDegrees>
              <LongitudeDegrees>-1.268730796873569488525390625</LongitudeDegrees>
            </Position>
            <AltitudeMeters>919</AltitudeMeters>
            <DistanceMeters>573481.7504452</DistanceMeters>
          </Trackpoint>
          <Trackpoint>
            <Time>2021-08-04T07:37:26.000Z</Time>
            <Position>
              <LatitudeDegrees>40.92367538250982761383056640625</LatitudeDegrees>
              <LongitudeDegrees>-1.268391497433185577392578125</LongitudeDegrees>
            </Position>
            <AltitudeMeters>917.79998779296875</AltitudeMeters>
            <DistanceMeters>573521.08461835</DistanceMeters>
          </Trackpoint>
          <Trackpoint>
            <Time>2021-08-04T07:37:35.000Z</Time>
            <Position>
              <LatitudeDegrees>40.92416857369244098663330078125</LatitudeDegrees>
              <LongitudeDegrees>-1.26794122159481048583984375</LongitudeDegrees>
            </Position>
            <AltitudeMeters>917.5999755859375</AltitudeMeters>
            <DistanceMeters>573587.77170981</DistanceMeters>
          </Trackpoint>
          <Trackpoint>
            <Time>2021-08-04T07:37:38.000Z</Time>
            <Position>
              <LatitudeDegrees>40.92436395585536956787109375</LatitudeDegrees>
              <LongitudeDegrees>-1.26783267594873905181884765625</LongitudeDegrees>
            </Position>
            <AltitudeMeters>916.79998779296875</AltitudeMeters>
            <DistanceMeters>573611.35633719</DistanceMeters>
          </Trackpoint>
          <Trackpoint>
            <Time>2021-08-04T07:37:41.000Z</Time>
            <Position>
              <LatitudeDegrees>40.9245698153972625732421875</LatitudeDegrees>
              <LongitudeDegrees>-1.267721615731716156005859375</LongitudeDegrees>
            </Position>
            <AltitudeMeters>915.79998779296875</AltitudeMeters>
            <DistanceMeters>573636.09943972</DistanceMeters>
          </Trackpoint>
          <Trackpoint>
            <Time>2021-08-04T07:37:44.000Z</Time>
            <Position>
              <LatitudeDegrees>40.9247790277004241943359375</LatitudeDegrees>
              <LongitudeDegrees>-1.2675950489938259124755859375</LongitudeDegrees>
            </Position>
            <AltitudeMeters>914.5999755859375</AltitudeMeters>
            <DistanceMeters>573661.70239481</DistanceMeters>
          </Trackpoint>
          <Trackpoint>
            <Time>2021-08-04T07:37:48.000Z</Time>
            <Position>
              <LatitudeDegrees>40.9250740706920623779296875</LatitudeDegrees>
              <LongitudeDegrees>-1.2674126587808132171630859375</LongitudeDegrees>
            </Position>
            <AltitudeMeters>913.20001220703125</AltitudeMeters>
            <DistanceMeters>573697.94658525</DistanceMeters>
          </Trackpoint>
          <Trackpoint>
            <Time>2021-08-04T07:37:50.000Z</Time>
            <Position>
              <LatitudeDegrees>40.92521748505532741546630859375</LatitudeDegrees>
              <LongitudeDegrees>-1.267284415662288665771484375</LongitudeDegrees>
            </Position>
            <AltitudeMeters>912</AltitudeMeters>
            <DistanceMeters>573717.21054179</DistanceMeters>
          </Trackpoint>
          <Trackpoint>
            <Time>2021-08-04T07:37:52.000Z</Time>
            <Position>
              <LatitudeDegrees>40.925351344048976898193359375</LatitudeDegrees>
              <LongitudeDegrees>-1.2671253271400928497314453125</LongitudeDegrees>
            </Position>
            <AltitudeMeters>910.5999755859375</AltitudeMeters>
            <DistanceMeters>573737.23458944</DistanceMeters>
          </Trackpoint>
          <Trackpoint>
            <Time>2021-08-04T07:37:54.000Z</Time>
            <Position>
              <LatitudeDegrees>40.9254765696823596954345703125</LatitudeDegrees>
              <LongitudeDegrees>-1.2669439427554607391357421875</LongitudeDegrees>
            </Position>
            <AltitudeMeters>908.79998779296875</AltitudeMeters>
            <DistanceMeters>573757.89672762</DistanceMeters>
          </Trackpoint>
          <Trackpoint>
            <Time>2021-08-04T07:37:55.000Z</Time>
            <Position>
              <LatitudeDegrees>40.9255372546613216400146484375</LatitudeDegrees>
              <LongitudeDegrees>-1.26684880815446376800537109375</LongitudeDegrees>
            </Position>
            <AltitudeMeters>907.5999755859375</AltitudeMeters>
            <DistanceMeters>573768.36692953</DistanceMeters>
          </Trackpoint>
          <Trackpoint>
            <Time>2021-08-04T07:37:57.000Z</Time>
            <Position>
              <LatitudeDegrees>40.925656445324420928955078125</LatitudeDegrees>
              <LongitudeDegrees>-1.26665133051574230194091796875</LongitudeDegrees>
            </Position>
            <AltitudeMeters>906</AltitudeMeters>
            <DistanceMeters>573789.6223473</DistanceMeters>
          </Trackpoint>
          <Trackpoint>
            <Time>2021-08-04T07:37:59.000Z</Time>
            <Position>
              <LatitudeDegrees>40.92577236704528331756591796875</LatitudeDegrees>
              <LongitudeDegrees>-1.2664465606212615966796875</LongitudeDegrees>
            </Position>
            <AltitudeMeters>904.79998779296875</AltitudeMeters>
            <DistanceMeters>573811.13997123</DistanceMeters>
          </Trackpoint>
          <Trackpoint>
            <Time>2021-08-04T07:38:01.000Z</Time>
            <Position>
              <LatitudeDegrees>40.92588610947132110595703125</LatitudeDegrees>
              <LongitudeDegrees>-1.26623776741325855255126953125</LongitudeDegrees>
            </Position>
            <AltitudeMeters>903.20001220703125</AltitudeMeters>
            <DistanceMeters>573832.7864644</DistanceMeters>
          </Trackpoint>
          <Trackpoint>
            <Time>2021-08-04T07:38:04.000Z</Time>
            <Position>
              <LatitudeDegrees>40.9260676614940166473388671875</LatitudeDegrees>
              <LongitudeDegrees>-1.2659263797104358673095703125</LongitudeDegrees>
            </Position>
            <AltitudeMeters>901.79998779296875</AltitudeMeters>
            <DistanceMeters>573865.86285994</DistanceMeters>
          </Trackpoint>
          <Trackpoint>
            <Time>2021-08-04T07:38:06.000Z</Time>
            <Position>
              <LatitudeDegrees>40.9262014366686344146728515625</LatitudeDegrees>
              <LongitudeDegrees>-1.2657312490046024322509765625</LongitudeDegrees>
            </Position>
            <AltitudeMeters>900.79998779296875</AltitudeMeters>
            <DistanceMeters>573888.02059575</DistanceMeters>
          </Trackpoint>
          <Trackpoint>
            <Time>2021-08-04T07:38:09.000Z</Time>
            <Position>
              <LatitudeDegrees>40.9264150075614452362060546875</LatitudeDegrees>
              <LongitudeDegrees>-1.2654595077037811279296875</LongitudeDegrees>
            </Position>
            <AltitudeMeters>899.5999755859375</AltitudeMeters>
            <DistanceMeters>573920.994181</DistanceMeters>
          </Trackpoint>
          <Trackpoint>
            <Time>2021-08-04T07:38:15.000Z</Time>
            <Position>
              <LatitudeDegrees>40.92675673775374889373779296875</LatitudeDegrees>
              <LongitudeDegrees>-1.26489046029746532440185546875</LongitudeDegrees>
            </Position>
            <AltitudeMeters>899.20001220703125</AltitudeMeters>
            <DistanceMeters>573982.12228936</DistanceMeters>
          </Trackpoint>
          <Trackpoint>
            <Time>2021-08-04T07:38:20.000Z</Time>
            <Position>
              <LatitudeDegrees>40.92694097198545932769775390625</LatitudeDegrees>
              <LongitudeDegrees>-1.26439777202904224395751953125</LongitudeDegrees>
            </Position>
            <AltitudeMeters>899.20001220703125</AltitudeMeters>
            <DistanceMeters>574028.35100351</DistanceMeters>
          </Trackpoint>
          <Trackpoint>
            <Time>2021-08-04T07:38:22.000Z</Time>
            <Position>
              <LatitudeDegrees>40.92700953595340251922607421875</LatitudeDegrees>
              <LongitudeDegrees>-1.26419828273355960845947265625</LongitudeDegrees>
            </Position>
            <AltitudeMeters>898.5999755859375</AltitudeMeters>
            <DistanceMeters>574046.7807972</DistanceMeters>
          </Trackpoint>
          <Trackpoint>
            <Time>2021-08-04T07:38:27.000Z</Time>
            <Position>
              <LatitudeDegrees>40.9271811135113239288330078125</LatitudeDegrees>
              <LongitudeDegrees>-1.26369805075228214263916015625</LongitudeDegrees>
            </Position>
            <AltitudeMeters>897.20001220703125</AltitudeMeters>
            <DistanceMeters>574092.9788336</DistanceMeters>
          </Trackpoint>
          <Trackpoint>
            <Time>2021-08-04T07:38:30.000Z</Time>
            <Position>
              <LatitudeDegrees>40.927281193435192108154296875</LatitudeDegrees>
              <LongitudeDegrees>-1.26339747570455074310302734375</LongitudeDegrees>
            </Position>
            <AltitudeMeters>896</AltitudeMeters>
            <DistanceMeters>574120.60089451</DistanceMeters>
          </Trackpoint>
          <Trackpoint>
            <Time>2021-08-04T07:38:37.000Z</Time>
            <Position>
              <LatitudeDegrees>40.9274853765964508056640625</LatitudeDegrees>
              <LongitudeDegrees>-1.26270496286451816558837890625</LongitudeDegrees>
            </Position>
            <AltitudeMeters>895</AltitudeMeters>
            <DistanceMeters>574183.11374025</DistanceMeters>
          </Trackpoint>
          <Trackpoint>
            <Time>2021-08-04T07:38:45.000Z</Time>
            <Position>
              <LatitudeDegrees>40.92768997885286808013916015625</LatitudeDegrees>
              <LongitudeDegrees>-1.26199618913233280181884765625</LongitudeDegrees>
            </Position>
            <AltitudeMeters>894.79998779296875</AltitudeMeters>
            <DistanceMeters>574246.91885426</DistanceMeters>
          </Trackpoint>
          <Trackpoint>
            <Time>2021-08-04T07:38:54.000Z</Time>
            <Position>
              <LatitudeDegrees>40.9278935752809047698974609375</LatitudeDegrees>
              <LongitudeDegrees>-1.26124986447393894195556640625</LongitudeDegrees>
            </Position>
            <AltitudeMeters>894.5999755859375</AltitudeMeters>
            <DistanceMeters>574313.64506763</DistanceMeters>
          </Trackpoint>
          <Trackpoint>
            <Time>2021-08-04T07:39:03.000Z</Time>
            <Position>
              <LatitudeDegrees>40.92809264548122882843017578125</LatitudeDegrees>
              <LongitudeDegrees>-1.260549724102020263671875</LongitudeDegrees>
            </Position>
            <AltitudeMeters>894.79998779296875</AltitudeMeters>
            <DistanceMeters>574376.552609</DistanceMeters>
          </Trackpoint>
          <Trackpoint>
            <Time>2021-08-04T07:39:09.000Z</Time>
            <Position>
              <LatitudeDegrees>40.92823295854032039642333984375</LatitudeDegrees>
              <LongitudeDegrees>-1.26008142717182636260986328125</LongitudeDegrees>
            </Position>
            <AltitudeMeters>893.5999755859375</AltitudeMeters>
            <DistanceMeters>574418.91630269</DistanceMeters>
          </Trackpoint>
          <Trackpoint>
            <Time>2021-08-04T07:39:18.000Z</Time>
            <Position>
              <LatitudeDegrees>40.9284303523600101470947265625</LatitudeDegrees>
              <LongitudeDegrees>-1.25940953381359577178955078125</LongitudeDegrees>
            </Position>
            <AltitudeMeters>894</AltitudeMeters>
            <DistanceMeters>574479.53843108</DistanceMeters>
          </Trackpoint>
          <Trackpoint>
            <Time>2021-08-04T07:39:27.000Z</Time>
            <Position>
              <LatitudeDegrees>40.92863528989255428314208984375</LatitudeDegrees>
              <LongitudeDegrees>-1.25881693325936794281005859375</LongitudeDegrees>
            </Position>
            <AltitudeMeters>894.79998779296875</AltitudeMeters>
            <DistanceMeters>574534.34355938</DistanceMeters>
          </Trackpoint>
          <Trackpoint>
            <Time>2021-08-04T07:39:32.000Z</Time>
            <Position>
              <LatitudeDegrees>40.92875816859304904937744140625</LatitudeDegrees>
              <LongitudeDegrees>-1.2585161067545413970947265625</LongitudeDegrees>
            </Position>
            <AltitudeMeters>895.5999755859375</AltitudeMeters>
            <DistanceMeters>574563.10087898</DistanceMeters>
          </Trackpoint>
          <Trackpoint>
            <Time>2021-08-04T07:39:43.000Z</Time>
            <Position>
              <LatitudeDegrees>40.929010547697544097900390625</LatitudeDegrees>
              <LongitudeDegrees>-1.25785904936492443084716796875</LongitudeDegrees>
            </Position>
            <AltitudeMeters>895.79998779296875</AltitudeMeters>
            <DistanceMeters>574625.0842342</DistanceMeters>
          </Trackpoint>
          <Trackpoint>
            <Time>2021-08-04T07:39:55.000Z</Time>
            <Position>
              <LatitudeDegrees>40.9292288124561309814453125</LatitudeDegrees>
              <LongitudeDegrees>-1.25715530477464199066162109375</LongitudeDegrees>
            </Position>
            <AltitudeMeters>896.79998779296875</AltitudeMeters>
            <DistanceMeters>574689.05507211</DistanceMeters>
          </Trackpoint>
          <Trackpoint>
            <Time>2021-08-04T07:39:58.000Z</Time>
            <Position>
              <LatitudeDegrees>40.92926477082073688507080078125</LatitudeDegrees>
              <LongitudeDegrees>-1.25699051655828952789306640625</LongitudeDegrees>
            </Position>
            <AltitudeMeters>897.4000244140625</AltitudeMeters>
            <DistanceMeters>574703.47848714</DistanceMeters>
          </Trackpoint>
          <Trackpoint>
            <Time>2021-08-04T07:40:00.000Z</Time>
            <Position>
              <LatitudeDegrees>40.929254628717899322509765625</LatitudeDegrees>
              <LongitudeDegrees>-1.25687937252223491668701171875</LongitudeDegrees>
            </Position>
            <AltitudeMeters>897.79998779296875</AltitudeMeters>
            <DistanceMeters>574712.89284852</DistanceMeters>
          </Trackpoint>
          <Trackpoint>
            <Time>2021-08-04T07:40:07.000Z</Time>
            <Position>
              <LatitudeDegrees>40.92903980053961277008056640625</LatitudeDegrees>
              <LongitudeDegrees>-1.25661249272525310516357421875</LongitudeDegrees>
            </Position>
            <AltitudeMeters>898.79998779296875</AltitudeMeters>
            <DistanceMeters>574745.68574018</DistanceMeters>
          </Trackpoint>
          <Trackpoint>
            <Time>2021-08-04T07:40:10.000Z</Time>
            <Position>
              <LatitudeDegrees>40.92891138978302478790283203125</LatitudeDegrees>
              <LongitudeDegrees>-1.2565309368073940277099609375</LongitudeDegrees>
            </Position>
            <AltitudeMeters>898.79998779296875</AltitudeMeters>
            <DistanceMeters>574761.53840644</DistanceMeters>
          </Trackpoint>
          <Trackpoint>
            <Time>2021-08-04T07:40:16.000Z</Time>
            <Position>
              <LatitudeDegrees>40.92864744365215301513671875</LatitudeDegrees>
              <LongitudeDegrees>-1.25635097734630107879638671875</LongitudeDegrees>
            </Position>
            <AltitudeMeters>898.79998779296875</AltitudeMeters>
            <DistanceMeters>574794.5847576</DistanceMeters>
          </Trackpoint>
          <Trackpoint>
            <Time>2021-08-04T07:40:26.000Z</Time>
            <Position>
              <LatitudeDegrees>40.92822256498038768768310546875</LatitudeDegrees>
              <LongitudeDegrees>-1.25603950582444667816162109375</LongitudeDegrees>
            </Position>
            <AltitudeMeters>899.5999755859375</AltitudeMeters>
            <DistanceMeters>574848.64368396</DistanceMeters>
          </Trackpoint>
          <Trackpoint>
            <Time>2021-08-04T07:40:29.000Z</Time>
            <Position>
              <LatitudeDegrees>40.9280850179493427276611328125</LatitudeDegrees>
              <LongitudeDegrees>-1.25599793158471584320068359375</LongitudeDegrees>
            </Position>
            <AltitudeMeters>900</AltitudeMeters>
            <DistanceMeters>574864.3469743</DistanceMeters>
          </Trackpoint>
          <Trackpoint>
            <Time>2021-08-04T07:40:40.000Z</Time>
            <Position>
              <LatitudeDegrees>40.9275532700121402740478515625</LatitudeDegrees>
              <LongitudeDegrees>-1.255835406482219696044921875</LongitudeDegrees>
            </Position>
            <AltitudeMeters>900.20001220703125</AltitudeMeters>
            <DistanceMeters>574925.0890432</DistanceMeters>
          </Trackpoint>
          <Trackpoint>
            <Time>2021-08-04T07:40:51.000Z</Time>
            <Position>
              <LatitudeDegrees>40.92699847184121608734130859375</LatitudeDegrees>
              <LongitudeDegrees>-1.25566340982913970947265625</LongitudeDegrees>
            </Position>
            <AltitudeMeters>900.20001220703125</AltitudeMeters>
            <DistanceMeters>574988.5103878</DistanceMeters>
          </Trackpoint>
          <Trackpoint>
            <Time>2021-08-04T07:41:00.000Z</Time>
            <Position>
              <LatitudeDegrees>40.92655808664858341217041015625</LatitudeDegrees>
              <LongitudeDegrees>-1.25556626357138156890869140625</LongitudeDegrees>
            </Position>
            <AltitudeMeters>900.5999755859375</AltitudeMeters>
            <DistanceMeters>575038.20218192</DistanceMeters>
          </Trackpoint>
          <Trackpoint>
            <Time>2021-08-04T07:41:04.000Z</Time>
            <Position>
              <LatitudeDegrees>40.9263586811721324920654296875</LatitudeDegrees>
              <LongitudeDegrees>-1.25554027967154979705810546875</LongitudeDegrees>
            </Position>
            <AltitudeMeters>901</AltitudeMeters>
            <DistanceMeters>575060.50371887</DistanceMeters>
          </Trackpoint>
          <Trackpoint>
            <Time>2021-08-04T07:41:16.000Z</Time>
            <Position>
              <LatitudeDegrees>40.9257957525551319122314453125</LatitudeDegrees>
              <LongitudeDegrees>-1.2553299777209758758544921875</LongitudeDegrees>
            </Position>
            <AltitudeMeters>901.79998779296875</AltitudeMeters>
            <DistanceMeters>575125.60693631</DistanceMeters>
          </Trackpoint>
          <Trackpoint>
            <Time>2021-08-04T07:41:19.000Z</Time>
            <Position>
              <LatitudeDegrees>40.92566214501857757568359375</LatitudeDegrees>
              <LongitudeDegrees>-1.255250684916973114013671875</LongitudeDegrees>
            </Position>
            <AltitudeMeters>902.20001220703125</AltitudeMeters>
            <DistanceMeters>575141.90450265</DistanceMeters>
          </Trackpoint>
          <Trackpoint>
            <Time>2021-08-04T07:41:24.000Z</Time>
            <Position>
              <LatitudeDegrees>40.92544798739254474639892578125</LatitudeDegrees>
              <LongitudeDegrees>-1.255113221704959869384765625</LongitudeDegrees>
            </Position>
            <AltitudeMeters>903</AltitudeMeters>
            <DistanceMeters>575168.39600093</DistanceMeters>
          </Trackpoint>
          <Trackpoint>
            <Time>2021-08-04T07:41:27.000Z</Time>
            <Position>
              <LatitudeDegrees>40.92531077563762664794921875</LatitudeDegrees>
              <LongitudeDegrees>-1.25506284646689891815185546875</LongitudeDegrees>
            </Position>
            <AltitudeMeters>903.20001220703125</AltitudeMeters>
            <DistanceMeters>575184.24439442</DistanceMeters>
          </Trackpoint>
          <Trackpoint>
            <Time>2021-08-04T07:41:39.000Z</Time>
            <Position>
              <LatitudeDegrees>40.9247664548456668853759765625</LatitudeDegrees>
              <LongitudeDegrees>-1.2548468448221683502197265625</LongitudeDegrees>
            </Position>
            <AltitudeMeters>904.20001220703125</AltitudeMeters>
            <DistanceMeters>575247.49293626</DistanceMeters>
          </Trackpoint>
          <Trackpoint>
            <Time>2021-08-04T07:41:50.000Z</Time>
            <Position>
              <LatitudeDegrees>40.92429715208709239959716796875</LatitudeDegrees>
              <LongitudeDegrees>-1.25447787344455718994140625</LongitudeDegrees>
            </Position>
            <AltitudeMeters>903.79998779296875</AltitudeMeters>
            <DistanceMeters>575308.24860627</DistanceMeters>
          </Trackpoint>
          <Trackpoint>
            <Time>2021-08-04T07:41:56.000Z</Time>
            <Position>
              <LatitudeDegrees>40.92402490787208080291748046875</LatitudeDegrees>
              <LongitudeDegrees>-1.25431065447628498077392578125</LongitudeDegrees>
            </Position>
            <AltitudeMeters>903.5999755859375</AltitudeMeters>
            <DistanceMeters>575341.65424722</DistanceMeters>
          </Trackpoint>
          <Trackpoint>
            <Time>2021-08-04T07:42:07.000Z</Time>
            <Position>
              <LatitudeDegrees>40.92346231453120708465576171875</LatitudeDegrees>
              <LongitudeDegrees>-1.25422214157879352569580078125</LongitudeDegrees>
            </Position>
            <AltitudeMeters>903.5999755859375</AltitudeMeters>
            <DistanceMeters>575404.71290374</DistanceMeters>
          </Trackpoint>
          <Trackpoint>
            <Time>2021-08-04T07:42:12.000Z</Time>
            <Position>
              <LatitudeDegrees>40.923216640949249267578125</LatitudeDegrees>
              <LongitudeDegrees>-1.254171431064605712890625</LongitudeDegrees>
            </Position>
            <AltitudeMeters>903.79998779296875</AltitudeMeters>
            <DistanceMeters>575432.38754797</DistanceMeters>
          </Trackpoint>
          <Trackpoint>
            <Time>2021-08-04T07:42:16.000Z</Time>
            <Position>
              <LatitudeDegrees>40.92304766178131103515625</LatitudeDegrees>
              <LongitudeDegrees>-1.25404813326895236968994140625</LongitudeDegrees>
            </Position>
            <AltitudeMeters>904</AltitudeMeters>
            <DistanceMeters>575453.86421612</DistanceMeters>
          </Trackpoint>
          <Trackpoint>
            <Time>2021-08-04T07:42:23.000Z</Time>
            <Position>
              <LatitudeDegrees>40.92280550859868526458740234375</LatitudeDegrees>
              <LongitudeDegrees>-1.25377287156879901885986328125</LongitudeDegrees>
            </Position>
            <AltitudeMeters>905.20001220703125</AltitudeMeters>
            <DistanceMeters>575489.393153</DistanceMeters>
          </Trackpoint>
          <Trackpoint>
            <Time>2021-08-04T07:42:34.000Z</Time>
            <Position>
              <LatitudeDegrees>40.922313742339611053466796875</LatitudeDegrees>
              <LongitudeDegrees>-1.253464333713054656982421875</LongitudeDegrees>
            </Position>
            <AltitudeMeters>905</AltitudeMeters>
            <DistanceMeters>575549.96670202</DistanceMeters>
          </Trackpoint>
          <Trackpoint>
            <Time>2021-08-04T07:42:44.000Z</Time>
            <Position>
              <LatitudeDegrees>40.9217985905706882476806640625</LatitudeDegrees>
              <LongitudeDegrees>-1.25321245752274990081787109375</LongitudeDegrees>
            </Position>
            <AltitudeMeters>904.5999755859375</AltitudeMeters>
            <DistanceMeters>575611.09185584</DistanceMeters>
          </Trackpoint>
          <Trackpoint>
            <Time>2021-08-04T07:42:55.000Z</Time>
            <Position>
              <LatitudeDegrees>40.9212762303650379180908203125</LatitudeDegrees>
              <LongitudeDegrees>-1.2529498524963855743408203125</LongitudeDegrees>
            </Position>
            <AltitudeMeters>904.4000244140625</AltitudeMeters>
            <DistanceMeters>575673.28500735</DistanceMeters>
          </Trackpoint>
          <Trackpoint>
            <Time>2021-08-04T07:43:05.000Z</Time>
            <Position>
              <LatitudeDegrees>40.920845903456211090087890625</LatitudeDegrees>
              <LongitudeDegrees>-1.25281398184597492218017578125</LongitudeDegrees>
            </Position>
            <AltitudeMeters>906.4000244140625</AltitudeMeters>
            <DistanceMeters>575722.52553645</DistanceMeters>
          </Trackpoint>
          <Trackpoint>
            <Time>2021-08-04T07:43:10.000Z</Time>
            <Position>
              <LatitudeDegrees>40.920641385018825531005859375</LatitudeDegrees>
              <LongitudeDegrees>-1.2527634389698505401611328125</LongitudeDegrees>
            </Position>
            <AltitudeMeters>907.5999755859375</AltitudeMeters>
            <DistanceMeters>575745.68243735</DistanceMeters>
          </Trackpoint>
          <Trackpoint>
            <Time>2021-08-04T07:43:16.000Z</Time>
            <Position>
              <LatitudeDegrees>40.92040744610130786895751953125</LatitudeDegrees>
              <LongitudeDegrees>-1.2526390515267848968505859375</LongitudeDegrees>
            </Position>
            <AltitudeMeters>908.4000244140625</AltitudeMeters>
            <DistanceMeters>575773.74316802</DistanceMeters>
          </Trackpoint>
          <Trackpoint>
            <Time>2021-08-04T07:43:24.000Z</Time>
            <Position>
              <LatitudeDegrees>40.92012681998312473297119140625</LatitudeDegrees>
              <LongitudeDegrees>-1.252404861152172088623046875</LongitudeDegrees>
            </Position>
            <AltitudeMeters>909.5999755859375</AltitudeMeters>
            <DistanceMeters>575810.66884233</DistanceMeters>
          </Trackpoint>
          <Trackpoint>
            <Time>2021-08-04T07:43:30.000Z</Time>
            <Position>
              <LatitudeDegrees>40.91992800123989582061767578125</LatitudeDegrees>
              <LongitudeDegrees>-1.2522269971668720245361328125</LongitudeDegrees>
            </Position>
            <AltitudeMeters>910.5999755859375</AltitudeMeters>
            <DistanceMeters>575837.37929496</DistanceMeters>
          </Trackpoint>
          <Trackpoint>
            <Time>2021-08-04T07:43:34.000Z</Time>
            <Position>
              <LatitudeDegrees>40.91979221440851688385009765625</LatitudeDegrees>
              <LongitudeDegrees>-1.2521173618733882904052734375</LongitudeDegrees>
            </Position>
            <AltitudeMeters>911.79998779296875</AltitudeMeters>
            <DistanceMeters>575855.0828509</DistanceMeters>
          </Trackpoint>
          <Trackpoint>
            <Time>2021-08-04T07:43:47.000Z</Time>
            <Position>
              <LatitudeDegrees>40.9193341434001922607421875</LatitudeDegrees>
              <LongitudeDegrees>-1.25170757062733173370361328125</LongitudeDegrees>
            </Position>
            <AltitudeMeters>912.5999755859375</AltitudeMeters>
            <DistanceMeters>575916.62304915</DistanceMeters>
          </Trackpoint>
          <Trackpoint>
            <Time>2021-08-04T07:43:48.000Z</Time>
            <Position>
              <LatitudeDegrees>40.91929852031171321868896484375</LatitudeDegrees>
              <LongitudeDegrees>-1.25167471356689929962158203125</LongitudeDegrees>
            </Position>
            <AltitudeMeters>912.79998779296875</AltitudeMeters>
            <DistanceMeters>575921.45541686</DistanceMeters>
          </Trackpoint>
          <Trackpoint>
            <Time>2021-08-04T07:44:01.000Z</Time>
            <Position>
              <LatitudeDegrees>40.91891747899353504180908203125</LatitudeDegrees>
              <LongitudeDegrees>-1.2511189095675945281982421875</LongitudeDegrees>
            </Position>
            <AltitudeMeters>913.5999755859375</AltitudeMeters>
            <DistanceMeters>575984.57261551</DistanceMeters>
          </Trackpoint>
          <Trackpoint>
            <Time>2021-08-04T07:44:02.000Z</Time>
            <Position>
              <LatitudeDegrees>40.9188942611217498779296875</LatitudeDegrees>
              <LongitudeDegrees>-1.25106752850115299224853515625</LongitudeDegrees>
            </Position>
            <AltitudeMeters>913.79998779296875</AltitudeMeters>
            <DistanceMeters>575989.60813481</DistanceMeters>
          </Trackpoint>
          <Trackpoint>
            <Time>2021-08-04T07:44:14.000Z</Time>
            <Position>
              <LatitudeDegrees>40.91864414513111114501953125</LatitudeDegrees>
              <LongitudeDegrees>-1.2504176795482635498046875</LongitudeDegrees>
            </Position>
            <AltitudeMeters>914.20001220703125</AltitudeMeters>
            <DistanceMeters>576050.94447451</DistanceMeters>
          </Trackpoint>
          <Trackpoint>
            <Time>2021-08-04T07:44:22.000Z</Time>
            <Position>
              <LatitudeDegrees>40.9184800274670124053955078125</LatitudeDegrees>
              <LongitudeDegrees>-1.24998978339135646820068359375</LongitudeDegrees>
            </Position>
            <AltitudeMeters>914.79998779296875</AltitudeMeters>
            <DistanceMeters>576091.30298128</DistanceMeters>
          </Trackpoint>
          <Trackpoint>
            <Time>2021-08-04T07:44:34.000Z</Time>
            <Position>
              <LatitudeDegrees>40.91824256815016269683837890625</LatitudeDegrees>
              <LongitudeDegrees>-1.249351166188716888427734375</LongitudeDegrees>
            </Position>
            <AltitudeMeters>915.79998779296875</AltitudeMeters>
            <DistanceMeters>576151.16423014</DistanceMeters>
          </Trackpoint>
          <Trackpoint>
            <Time>2021-08-04T07:44:46.000Z</Time>
            <Position>
              <LatitudeDegrees>40.918214321136474609375</LatitudeDegrees>
              <LongitudeDegrees>-1.248640716075897216796875</LongitudeDegrees>
            </Position>
            <AltitudeMeters>916</AltitudeMeters>
            <DistanceMeters>576210.99914987</DistanceMeters>
          </Trackpoint>
          <Trackpoint>
            <Time>2021-08-04T07:44:58.000Z</Time>
            <Position>
              <LatitudeDegrees>40.918323956429958343505859375</LatitudeDegrees>
              <LongitudeDegrees>-1.2479324452579021453857421875</LongitudeDegrees>
            </Position>
            <AltitudeMeters>916.79998779296875</AltitudeMeters>
            <DistanceMeters>576271.8051101</DistanceMeters>
          </Trackpoint>
          <Trackpoint>
            <Time>2021-08-04T07:44:59.000Z</Time>
            <Position>
              <LatitudeDegrees>40.91832705773413181304931640625</LatitudeDegrees>
              <LongitudeDegrees>-1.2478731013834476470947265625</LongitudeDegrees>
            </Position>
            <AltitudeMeters>917</AltitudeMeters>
            <DistanceMeters>576276.80734378</DistanceMeters>
          </Trackpoint>
          <Trackpoint>
            <Time>2021-08-04T07:45:09.000Z</Time>
            <Position>
              <LatitudeDegrees>40.91829436831176280975341796875</LatitudeDegrees>
              <LongitudeDegrees>-1.247283183038234710693359375</LongitudeDegrees>
            </Position>
            <AltitudeMeters>918.20001220703125</AltitudeMeters>
            <DistanceMeters>576326.55543974</DistanceMeters>
          </Trackpoint>
          <Trackpoint>
            <Time>2021-08-04T07:45:21.000Z</Time>
            <Position>
              <LatitudeDegrees>40.918234102427959442138671875</LatitudeDegrees>
              <LongitudeDegrees>-1.24653006903827190399169921875</LongitudeDegrees>
            </Position>
            <AltitudeMeters>918</AltitudeMeters>
            <DistanceMeters>576390.25006788</DistanceMeters>
          </Trackpoint>
          <Trackpoint>
            <Time>2021-08-04T07:45:26.000Z</Time>
            <Position>
              <LatitudeDegrees>40.9181994013488292694091796875</LatitudeDegrees>
              <LongitudeDegrees>-1.24616227112710475921630859375</LongitudeDegrees>
            </Position>
            <AltitudeMeters>917.20001220703125</AltitudeMeters>
            <DistanceMeters>576421.42389981</DistanceMeters>
          </Trackpoint>
          <Trackpoint>
            <Time>2021-08-04T07:45:31.000Z</Time>
            <Position>
              <LatitudeDegrees>40.9181869961321353912353515625</LatitudeDegrees>
              <LongitudeDegrees>-1.2457598559558391571044921875</LongitudeDegrees>
            </Position>
            <AltitudeMeters>915.79998779296875</AltitudeMeters>
            <DistanceMeters>576455.29715819</DistanceMeters>
          </Trackpoint>
          <Trackpoint>
            <Time>2021-08-04T07:45:34.000Z</Time>
            <Position>
              <LatitudeDegrees>40.91821004636585712432861328125</LatitudeDegrees>
              <LongitudeDegrees>-1.2455043755471706390380859375</LongitudeDegrees>
            </Position>
            <AltitudeMeters>914.4000244140625</AltitudeMeters>
            <DistanceMeters>576476.93697575</DistanceMeters>
          </Trackpoint>
          <Trackpoint>
            <Time>2021-08-04T07:45:38.000Z</Time>
            <Position>
              <LatitudeDegrees>40.9182627685368061065673828125</LatitudeDegrees>
              <LongitudeDegrees>-1.24515593983232975006103515625</LongitudeDegrees>
            </Position>
            <AltitudeMeters>913.4000244140625</AltitudeMeters>
            <DistanceMeters>576506.82389717</DistanceMeters>
          </Trackpoint>
          <Trackpoint>
            <Time>2021-08-04T07:45:45.000Z</Time>
            <Position>
              <LatitudeDegrees>40.9183631837368011474609375</LatitudeDegrees>
              <LongitudeDegrees>-1.24453266151249408721923828125</LongitudeDegrees>
            </Position>
            <AltitudeMeters>912.20001220703125</AltitudeMeters>
            <DistanceMeters>576560.42267066</DistanceMeters>
          </Trackpoint>
          <Trackpoint>
            <Time>2021-08-04T07:45:54.000Z</Time>
            <Position>
              <LatitudeDegrees>40.91850592754781246185302734375</LatitudeDegrees>
              <LongitudeDegrees>-1.24380938708782196044921875</LongitudeDegrees>
            </Position>
            <AltitudeMeters>912.5999755859375</AltitudeMeters>
            <DistanceMeters>576623.2938846</DistanceMeters>
          </Trackpoint>
          <Trackpoint>
            <Time>2021-08-04T07:46:04.000Z</Time>
            <Position>
              <LatitudeDegrees>40.91865981929004192352294921875</LatitudeDegrees>
              <LongitudeDegrees>-1.2430897168815135955810546875</LongitudeDegrees>
            </Position>
            <AltitudeMeters>913</AltitudeMeters>
            <DistanceMeters>576686.19812434</DistanceMeters>
          </Trackpoint>
          <Trackpoint>
            <Time>2021-08-04T07:46:06.000Z</Time>
            <Position>
              <LatitudeDegrees>40.918672643601894378662109375</LatitudeDegrees>
              <LongitudeDegrees>-1.24295099638402462005615234375</LongitudeDegrees>
            </Position>
            <AltitudeMeters>913.4000244140625</AltitudeMeters>
            <DistanceMeters>576697.95227976</DistanceMeters>
          </Trackpoint>
          <Trackpoint>
            <Time>2021-08-04T07:46:17.000Z</Time>
            <Position>
              <LatitudeDegrees>40.91874648816883563995361328125</LatitudeDegrees>
              <LongitudeDegrees>-1.24220701865851879119873046875</LongitudeDegrees>
            </Position>
            <AltitudeMeters>914.4000244140625</AltitudeMeters>
            <DistanceMeters>576761.06146606</DistanceMeters>
          </Trackpoint>
          <Trackpoint>
            <Time>2021-08-04T07:46:20.000Z</Time>
            <Position>
              <LatitudeDegrees>40.91879342682659626007080078125</LatitudeDegrees>
              <LongitudeDegrees>-1.242015995085239410400390625</LongitudeDegrees>
            </Position>
            <AltitudeMeters>914.4000244140625</AltitudeMeters>
            <DistanceMeters>576777.95538793</DistanceMeters>
          </Trackpoint>
          <Trackpoint>
            <Time>2021-08-04T07:46:27.000Z</Time>
            <Position>
              <LatitudeDegrees>40.91906365938484668731689453125</LatitudeDegrees>
              <LongitudeDegrees>-1.24181122519075870513916015625</LongitudeDegrees>
            </Position>
            <AltitudeMeters>915.20001220703125</AltitudeMeters>
            <DistanceMeters>576812.61435472</DistanceMeters>
          </Trackpoint>
          <Trackpoint>
            <Time>2021-08-04T07:46:28.000Z</Time>
            <Position>
              <LatitudeDegrees>40.91910523362457752227783203125</LatitudeDegrees>
              <LongitudeDegrees>-1.24180669896304607391357421875</LongitudeDegrees>
            </Position>
            <AltitudeMeters>915.4000244140625</AltitudeMeters>
            <DistanceMeters>576817.25804103</DistanceMeters>
          </Trackpoint>
          <Trackpoint>
            <Time>2021-08-04T07:46:33.000Z</Time>
            <Position>
              <LatitudeDegrees>40.9192887134850025177001953125</LatitudeDegrees>
              <LongitudeDegrees>-1.24174752272665500640869140625</LongitudeDegrees>
            </Position>
            <AltitudeMeters>916.5999755859375</AltitudeMeters>
            <DistanceMeters>576838.27764094</DistanceMeters>
          </Trackpoint>
          <Trackpoint>
            <Time>2021-08-04T07:46:41.000Z</Time>
            <Position>
              <LatitudeDegrees>40.91956187970936298370361328125</LatitudeDegrees>
              <LongitudeDegrees>-1.24158927239477634429931640625</LongitudeDegrees>
            </Position>
            <AltitudeMeters>917.5999755859375</AltitudeMeters>
            <DistanceMeters>576871.4672769</DistanceMeters>
          </Trackpoint>
          <Trackpoint>
            <Time>2021-08-04T07:46:49.000Z</Time>
            <Position>
              <LatitudeDegrees>40.91984284110367298126220703125</LatitudeDegrees>
              <LongitudeDegrees>-1.24157150276005268096923828125</LongitudeDegrees>
            </Position>
            <AltitudeMeters>918.79998779296875</AltitudeMeters>
            <DistanceMeters>576902.77450542</DistanceMeters>
          </Trackpoint>
          <Trackpoint>
            <Time>2021-08-04T07:46:56.000Z</Time>
            <Position>
              <LatitudeDegrees>40.920097567141056060791015625</LatitudeDegrees>
              <LongitudeDegrees>-1.241463124752044677734375</LongitudeDegrees>
            </Position>
            <AltitudeMeters>919</AltitudeMeters>
            <DistanceMeters>576932.55533798</DistanceMeters>
          </Trackpoint>
          <Trackpoint>
            <Time>2021-08-04T07:47:01.000Z</Time>
            <Position>
              <LatitudeDegrees>40.92025405727326869964599609375</LatitudeDegrees>
              <LongitudeDegrees>-1.24126799404621124267578125</LongitudeDegrees>
            </Position>
            <AltitudeMeters>919</AltitudeMeters>
            <DistanceMeters>576956.48622697</DistanceMeters>
          </Trackpoint>
          <Trackpoint>
            <Time>2021-08-04T07:47:07.000Z</Time>
            <Position>
              <LatitudeDegrees>40.92046310193836688995361328125</LatitudeDegrees>
              <LongitudeDegrees>-1.2410586141049861907958984375</LongitudeDegrees>
            </Position>
            <AltitudeMeters>919</AltitudeMeters>
            <DistanceMeters>576985.66577303</DistanceMeters>
          </Trackpoint>
          <Trackpoint>
            <Time>2021-08-04T07:47:13.000Z</Time>
            <Position>
              <LatitudeDegrees>40.920652784407138824462890625</LatitudeDegrees>
              <LongitudeDegrees>-1.2408234179019927978515625</LongitudeDegrees>
            </Position>
            <AltitudeMeters>919</AltitudeMeters>
            <DistanceMeters>577014.59653098</DistanceMeters>
          </Trackpoint>
          <Trackpoint>
            <Time>2021-08-04T07:47:23.000Z</Time>
            <Position>
              <LatitudeDegrees>40.92102636583149433135986328125</LatitudeDegrees>
              <LongitudeDegrees>-1.2405929155647754669189453125</LongitudeDegrees>
            </Position>
            <AltitudeMeters>919.79998779296875</AltitudeMeters>
            <DistanceMeters>577060.4738698</DistanceMeters>
          </Trackpoint>
          <Trackpoint>
            <Time>2021-08-04T07:47:27.000Z</Time>
            <Position>
              <LatitudeDegrees>40.92116952873766422271728515625</LatitudeDegrees>
              <LongitudeDegrees>-1.24053248204290866851806640625</LongitudeDegrees>
            </Position>
            <AltitudeMeters>921</AltitudeMeters>
            <DistanceMeters>577077.19857153</DistanceMeters>
          </Trackpoint>
          <Trackpoint>
            <Time>2021-08-04T07:47:34.000Z</Time>
            <Position>
              <LatitudeDegrees>40.92139399610459804534912109375</LatitudeDegrees>
              <LongitudeDegrees>-1.2403739802539348602294921875</LongitudeDegrees>
            </Position>
            <AltitudeMeters>921.4000244140625</AltitudeMeters>
            <DistanceMeters>577105.51589464</DistanceMeters>
          </Trackpoint>
          <Trackpoint>
            <Time>2021-08-04T07:47:42.000Z</Time>
            <Position>
              <LatitudeDegrees>40.92168987728655338287353515625</LatitudeDegrees>
              <LongitudeDegrees>-1.240102238953113555908203125</LongitudeDegrees>
            </Position>
            <AltitudeMeters>921</AltitudeMeters>
            <DistanceMeters>577145.60095174</DistanceMeters>
          </Trackpoint>
          <Trackpoint>
            <Time>2021-08-04T07:47:51.000Z</Time>
            <Position>
              <LatitudeDegrees>40.92207712121307849884033203125</LatitudeDegrees>
              <LongitudeDegrees>-1.2398390471935272216796875</LongitudeDegrees>
            </Position>
            <AltitudeMeters>920.4000244140625</AltitudeMeters>
            <DistanceMeters>577194.05339516</DistanceMeters>
          </Trackpoint>
          <Trackpoint>
            <Time>2021-08-04T07:48:00.000Z</Time>
            <Position>
              <LatitudeDegrees>40.9223635308444499969482421875</LatitudeDegrees>
              <LongitudeDegrees>-1.23951240442693233489990234375</LongitudeDegrees>
            </Position>
            <AltitudeMeters>920</AltitudeMeters>
            <DistanceMeters>577236.13478227</DistanceMeters>
          </Trackpoint>
          <Trackpoint>
            <Time>2021-08-04T07:48:01.000Z</Time>
            <Position>
              <LatitudeDegrees>40.92238741926848888397216796875</LatitudeDegrees>
              <LongitudeDegrees>-1.239459514617919921875</LongitudeDegrees>
            </Position>
            <AltitudeMeters>920</AltitudeMeters>
            <DistanceMeters>577241.31700644</DistanceMeters>
          </Trackpoint>
          <Trackpoint>
            <Time>2021-08-04T07:48:11.000Z</Time>
            <Position>
              <LatitudeDegrees>40.9225784428417682647705078125</LatitudeDegrees>
              <LongitudeDegrees>-1.2389270961284637451171875</LongitudeDegrees>
            </Position>
            <AltitudeMeters>921</AltitudeMeters>
            <DistanceMeters>577290.88452927</DistanceMeters>
          </Trackpoint>
          <Trackpoint>
            <Time>2021-08-04T07:48:24.000Z</Time>
            <Position>
              <LatitudeDegrees>40.92290340922772884368896484375</LatitudeDegrees>
              <LongitudeDegrees>-1.2383230961859226226806640625</LongitudeDegrees>
            </Position>
            <AltitudeMeters>920.5999755859375</AltitudeMeters>
            <DistanceMeters>577353.24189626</DistanceMeters>
          </Trackpoint>
          <Trackpoint>
            <Time>2021-08-04T07:48:33.000Z</Time>
            <Position>
              <LatitudeDegrees>40.92314086854457855224609375</LatitudeDegrees>
              <LongitudeDegrees>-1.23794549144804477691650390625</LongitudeDegrees>
            </Position>
            <AltitudeMeters>921.79998779296875</AltitudeMeters>
            <DistanceMeters>577394.55743099</DistanceMeters>
          </Trackpoint>
          <Trackpoint>
            <Time>2021-08-04T07:48:42.000Z</Time>
            <Position>
              <LatitudeDegrees>40.92339743860065937042236328125</LatitudeDegrees>
              <LongitudeDegrees>-1.2375972233712673187255859375</LongitudeDegrees>
            </Position>
            <AltitudeMeters>922.79998779296875</AltitudeMeters>
            <DistanceMeters>577435.46375502</DistanceMeters>
          </Trackpoint>
          <Trackpoint>
            <Time>2021-08-04T07:48:56.000Z</Time>
            <Position>
              <LatitudeDegrees>40.9238528273999691009521484375</LatitudeDegrees>
              <LongitudeDegrees>-1.2371556647121906280517578125</LongitudeDegrees>
            </Position>
            <AltitudeMeters>923.5999755859375</AltitudeMeters>
            <DistanceMeters>577498.2966804</DistanceMeters>
          </Trackpoint>
          <Trackpoint>
            <Time>2021-08-04T07:49:00.000Z</Time>
            <Position>
              <LatitudeDegrees>40.9239711798727512359619140625</LatitudeDegrees>
              <LongitudeDegrees>-1.23699598945677280426025390625</LongitudeDegrees>
            </Position>
            <AltitudeMeters>923.4000244140625</AltitudeMeters>
            <DistanceMeters>577517.1071699</DistanceMeters>
          </Trackpoint>
          <Trackpoint>
            <Time>2021-08-04T07:49:05.000Z</Time>
            <Position>
              <LatitudeDegrees>40.92408743686974048614501953125</LatitudeDegrees>
              <LongitudeDegrees>-1.23675559647381305694580078125</LongitudeDegrees>
            </Position>
            <AltitudeMeters>923.79998779296875</AltitudeMeters>
            <DistanceMeters>577541.11002259</DistanceMeters>
          </Trackpoint>
          <Trackpoint>
            <Time>2021-08-04T07:49:06.000Z</Time>
            <Position>
              <LatitudeDegrees>40.92411451041698455810546875</LatitudeDegrees>
              <LongitudeDegrees>-1.236714608967304229736328125</LongitudeDegrees>
            </Position>
            <AltitudeMeters>924</AltitudeMeters>
            <DistanceMeters>577545.68908773</DistanceMeters>
          </Trackpoint>
          <Trackpoint>
            <Time>2021-08-04T07:49:24.000Z</Time>
            <Position>
              <LatitudeDegrees>40.924542658030986785888671875</LatitudeDegrees>
              <LongitudeDegrees>-1.23622083105146884918212890625</LongitudeDegrees>
            </Position>
            <AltitudeMeters>924.5999755859375</AltitudeMeters>
            <DistanceMeters>577608.89685522</DistanceMeters>
          </Trackpoint>
          <Trackpoint>
            <Time>2021-08-04T07:49:30.000Z</Time>
            <Position>
              <LatitudeDegrees>40.92468959279358386993408203125</LatitudeDegrees>
              <LongitudeDegrees>-1.23605906032025814056396484375</LongitudeDegrees>
            </Position>
            <AltitudeMeters>925.20001220703125</AltitudeMeters>
            <DistanceMeters>577630.1698964</DistanceMeters>
          </Trackpoint>
          <Trackpoint>
            <Time>2021-08-04T07:49:47.000Z</Time>
            <Position>
              <LatitudeDegrees>40.924999974668025970458984375</LatitudeDegrees>
              <LongitudeDegrees>-1.23546662740409374237060546875</LongitudeDegrees>
            </Position>
            <AltitudeMeters>925.20001220703125</AltitudeMeters>
            <DistanceMeters>577690.79679122</DistanceMeters>
          </Trackpoint>
          <Trackpoint>
            <Time>2021-08-04T07:50:01.000Z</Time>
            <Position>
              <LatitudeDegrees>40.925244055688381195068359375</LatitudeDegrees>
              <LongitudeDegrees>-1.2348895333707332611083984375</LongitudeDegrees>
            </Position>
            <AltitudeMeters>926</AltitudeMeters>
            <DistanceMeters>577746.41437744</DistanceMeters>
          </Trackpoint>
          <Trackpoint>
            <Time>2021-08-04T07:50:16.000Z</Time>
            <Position>
              <LatitudeDegrees>40.92551336623728275299072265625</LatitudeDegrees>
              <LongitudeDegrees>-1.234263069927692413330078125</LongitudeDegrees>
            </Position>
            <AltitudeMeters>926.79998779296875</AltitudeMeters>
            <DistanceMeters>577807.02771674</DistanceMeters>
          </Trackpoint>
          <Trackpoint>
            <Time>2021-08-04T07:50:18.000Z</Time>
            <Position>
              <LatitudeDegrees>40.925552509725093841552734375</LatitudeDegrees>
              <LongitudeDegrees>-1.23417631722986698150634765625</LongitudeDegrees>
            </Position>
            <AltitudeMeters>927</AltitudeMeters>
            <DistanceMeters>577815.52503934</DistanceMeters>
          </Trackpoint>
          <Trackpoint>
            <Time>2021-08-04T07:50:32.000Z</Time>
            <Position>
              <LatitudeDegrees>40.92584126628935337066650390625</LatitudeDegrees>
              <LongitudeDegrees>-1.23356527648866176605224609375</LongitudeDegrees>
            </Position>
            <AltitudeMeters>928</AltitudeMeters>
            <DistanceMeters>577876.13376014</DistanceMeters>
          </Trackpoint>
          <Trackpoint>
            <Time>2021-08-04T07:50:46.000Z</Time>
            <Position>
              <LatitudeDegrees>40.9262138418853282928466796875</LatitudeDegrees>
              <LongitudeDegrees>-1.233050711452960968017578125</LongitudeDegrees>
            </Position>
            <AltitudeMeters>928.4000244140625</AltitudeMeters>
            <DistanceMeters>577936.06812665</DistanceMeters>
          </Trackpoint>
          <Trackpoint>
            <Time>2021-08-04T07:50:52.000Z</Time>
            <Position>
              <LatitudeDegrees>40.92636748217046260833740234375</LatitudeDegrees>
              <LongitudeDegrees>-1.23278844170272350311279296875</LongitudeDegrees>
            </Position>
            <AltitudeMeters>929.20001220703125</AltitudeMeters>
            <DistanceMeters>577963.97622858</DistanceMeters>
          </Trackpoint>
          <Trackpoint>
            <Time>2021-08-04T07:51:05.000Z</Time>
            <Position>
              <LatitudeDegrees>40.92669303528964519500732421875</LatitudeDegrees>
              <LongitudeDegrees>-1.232264824211597442626953125</LongitudeDegrees>
            </Position>
            <AltitudeMeters>930.4000244140625</AltitudeMeters>
            <DistanceMeters>578021.00144238</DistanceMeters>
          </Trackpoint>
          <Trackpoint>
            <Time>2021-08-04T07:51:17.000Z</Time>
            <Position>
              <LatitudeDegrees>40.92708312906324863433837890625</LatitudeDegrees>
              <LongitudeDegrees>-1.23191219754517078399658203125</LongitudeDegrees>
            </Position>
            <AltitudeMeters>931.4000244140625</AltitudeMeters>
            <DistanceMeters>578073.57990463</DistanceMeters>
          </Trackpoint>
          <Trackpoint>
            <Time>2021-08-04T07:51:32.000Z</Time>
            <Position>
              <LatitudeDegrees>40.9275546111166477203369140625</LatitudeDegrees>
              <LongitudeDegrees>-1.2314703874289989471435546875</LongitudeDegrees>
            </Position>
            <AltitudeMeters>932</AltitudeMeters>
            <DistanceMeters>578137.8776087</DistanceMeters>
          </Trackpoint>
          <Trackpoint>
            <Time>2021-08-04T07:51:40.000Z</Time>
            <Position>
              <LatitudeDegrees>40.92781134881079196929931640625</LatitudeDegrees>
              <LongitudeDegrees>-1.23125321231782436370849609375</LongitudeDegrees>
            </Position>
            <AltitudeMeters>932.4000244140625</AltitudeMeters>
            <DistanceMeters>578171.79056487</DistanceMeters>
          </Trackpoint>
          <Trackpoint>
            <Time>2021-08-04T07:51:54.000Z</Time>
            <Position>
              <LatitudeDegrees>40.92831258662045001983642578125</LatitudeDegrees>
              <LongitudeDegrees>-1.23096269555389881134033203125</LongitudeDegrees>
            </Position>
            <AltitudeMeters>933.5999755859375</AltitudeMeters>
            <DistanceMeters>578232.69386741</DistanceMeters>
          </Trackpoint>
          <Trackpoint>
            <Time>2021-08-04T07:52:01.000Z</Time>
            <Position>
              <LatitudeDegrees>40.92858902178704738616943359375</LatitudeDegrees>
              <LongitudeDegrees>-1.230830512940883636474609375</LongitudeDegrees>
            </Position>
            <AltitudeMeters>933.79998779296875</AltitudeMeters>
            <DistanceMeters>578265.40790934</DistanceMeters>
          </Trackpoint>
          <Trackpoint>
            <Time>2021-08-04T07:52:16.000Z</Time>
            <Position>
              <LatitudeDegrees>40.9291136451065540313720703125</LatitudeDegrees>
              <LongitudeDegrees>-1.23052985407412052154541015625</LongitudeDegrees>
            </Position>
            <AltitudeMeters>934.5999755859375</AltitudeMeters>
            <DistanceMeters>578329.03806976</DistanceMeters>
          </Trackpoint>
          <Trackpoint>
            <Time>2021-08-04T07:52:26.000Z</Time>
            <Position>
              <LatitudeDegrees>40.9294365160167217254638671875</LatitudeDegrees>
              <LongitudeDegrees>-1.23027303256094455718994140625</LongitudeDegrees>
            </Position>
            <AltitudeMeters>935.5999755859375</AltitudeMeters>
            <DistanceMeters>578370.96434721</DistanceMeters>
          </Trackpoint>
          <Trackpoint>
            <Time>2021-08-04T07:52:34.000Z</Time>
            <Position>
              <LatitudeDegrees>40.92968151904642581939697265625</LatitudeDegrees>
              <LongitudeDegrees>-1.23006750829517841339111328125</LongitudeDegrees>
            </Position>
            <AltitudeMeters>936.5999755859375</AltitudeMeters>
            <DistanceMeters>578403.24910528</DistanceMeters>
          </Trackpoint>
          <Trackpoint>
            <Time>2021-08-04T07:52:39.000Z</Time>
            <Position>
              <LatitudeDegrees>40.929782688617706298828125</LatitudeDegrees>
              <LongitudeDegrees>-1.22999374754726886749267578125</LongitudeDegrees>
            </Position>
            <AltitudeMeters>937.5999755859375</AltitudeMeters>
            <DistanceMeters>578416.10478337</DistanceMeters>
          </Trackpoint>
          <Trackpoint>
            <Time>2021-08-04T07:52:49.000Z</Time>
            <Position>
              <LatitudeDegrees>40.92998611740767955780029296875</LatitudeDegrees>
              <LongitudeDegrees>-1.2298080883920192718505859375</LongitudeDegrees>
            </Position>
            <AltitudeMeters>938.5999755859375</AltitudeMeters>
            <DistanceMeters>578443.60775381</DistanceMeters>
          </Trackpoint>
          <Trackpoint>
            <Time>2021-08-04T07:53:07.000Z</Time>
            <Position>
              <LatitudeDegrees>40.930399596691131591796875</LatitudeDegrees>
              <LongitudeDegrees>-1.2293105386197566986083984375</LongitudeDegrees>
            </Position>
            <AltitudeMeters>939</AltitudeMeters>
            <DistanceMeters>578505.80431729</DistanceMeters>
          </Trackpoint>
          <Trackpoint>
            <Time>2021-08-04T07:53:11.000Z</Time>
            <Position>
              <LatitudeDegrees>40.930481068789958953857421875</LatitudeDegrees>
              <LongitudeDegrees>-1.229189336299896240234375</LongitudeDegrees>
            </Position>
            <AltitudeMeters>939.79998779296875</AltitudeMeters>
            <DistanceMeters>578519.44652662</DistanceMeters>
          </Trackpoint>
          <Trackpoint>
            <Time>2021-08-04T07:53:19.000Z</Time>
            <Position>
              <LatitudeDegrees>40.93064158223569393157958984375</LatitudeDegrees>
              <LongitudeDegrees>-1.2289460934698581695556640625</LongitudeDegrees>
            </Position>
            <AltitudeMeters>941</AltitudeMeters>
            <DistanceMeters>578546.60439019</DistanceMeters>
          </Trackpoint>
          <Trackpoint>
            <Time>2021-08-04T07:53:36.000Z</Time>
            <Position>
              <LatitudeDegrees>40.9309258125722408294677734375</LatitudeDegrees>
              <LongitudeDegrees>-1.2283184565603733062744140625</LongitudeDegrees>
            </Position>
            <AltitudeMeters>941.5999755859375</AltitudeMeters>
            <DistanceMeters>578608.13666426</DistanceMeters>
          </Trackpoint>
          <Trackpoint>
            <Time>2021-08-04T07:53:52.000Z</Time>
            <Position>
              <LatitudeDegrees>40.93117944896221160888671875</LatitudeDegrees>
              <LongitudeDegrees>-1.22764714993536472320556640625</LongitudeDegrees>
            </Position>
            <AltitudeMeters>942</AltitudeMeters>
            <DistanceMeters>578671.25128762</DistanceMeters>
          </Trackpoint>
          <Trackpoint>
            <Time>2021-08-04T07:54:07.000Z</Time>
            <Position>
              <LatitudeDegrees>40.931571386754512786865234375</LatitudeDegrees>
              <LongitudeDegrees>-1.22715529985725879669189453125</LongitudeDegrees>
            </Position>
            <AltitudeMeters>942.5999755859375</AltitudeMeters>
            <DistanceMeters>578731.36407853</DistanceMeters>
          </Trackpoint>
          <Trackpoint>
            <Time>2021-08-04T07:54:22.000Z</Time>
            <Position>
              <LatitudeDegrees>40.93207270838320255279541015625</LatitudeDegrees>
              <LongitudeDegrees>-1.22683234512805938720703125</LongitudeDegrees>
            </Position>
            <AltitudeMeters>942.4000244140625</AltitudeMeters>
            <DistanceMeters>578793.41965168</DistanceMeters>
          </Trackpoint>
          <Trackpoint>
            <Time>2021-08-04T07:54:26.000Z</Time>
            <Position>
              <LatitudeDegrees>40.93220950104296207427978515625</LatitudeDegrees>
              <LongitudeDegrees>-1.2268088757991790771484375</LongitudeDegrees>
            </Position>
            <AltitudeMeters>942.79998779296875</AltitudeMeters>
            <DistanceMeters>578808.77227541</DistanceMeters>
          </Trackpoint>
          <Trackpoint>
            <Time>2021-08-04T07:54:43.000Z</Time>
            <Position>
              <LatitudeDegrees>40.9326068870723247528076171875</LatitudeDegrees>
              <LongitudeDegrees>-1.2263349629938602447509765625</LongitudeDegrees>
            </Position>
            <AltitudeMeters>943.4000244140625</AltitudeMeters>
            <DistanceMeters>578868.30618965</DistanceMeters>
          </Trackpoint>
          <Trackpoint>
            <Time>2021-08-04T07:54:46.000Z</Time>
            <Position>
              <LatitudeDegrees>40.9326293505728244781494140625</LatitudeDegrees>
              <LongitudeDegrees>-1.22623446397483348846435546875</LongitudeDegrees>
            </Position>
            <AltitudeMeters>944</AltitudeMeters>
            <DistanceMeters>578877.11860461</DistanceMeters>
          </Trackpoint>
          <Trackpoint>
            <Time>2021-08-04T07:54:51.000Z</Time>
            <Position>
              <LatitudeDegrees>40.9326967410743236541748046875</LatitudeDegrees>
              <LongitudeDegrees>-1.22606028802692890167236328125</LongitudeDegrees>
            </Position>
            <AltitudeMeters>945.20001220703125</AltitudeMeters>
            <DistanceMeters>578893.57332466</DistanceMeters>
          </Trackpoint>
          <Trackpoint>
            <Time>2021-08-04T07:55:08.000Z</Time>
            <Position>
              <LatitudeDegrees>40.9328583441674709320068359375</LatitudeDegrees>
              <LongitudeDegrees>-1.22536542825400829315185546875</LongitudeDegrees>
            </Position>
            <AltitudeMeters>946</AltitudeMeters>
            <DistanceMeters>578954.7073417</DistanceMeters>
          </Trackpoint>
          <Trackpoint>
            <Time>2021-08-04T07:55:11.000Z</Time>
            <Position>
              <LatitudeDegrees>40.93290184624493122100830078125</LatitudeDegrees>
              <LongitudeDegrees>-1.22524456121027469635009765625</LongitudeDegrees>
            </Position>
            <AltitudeMeters>946.20001220703125</AltitudeMeters>
            <DistanceMeters>578965.96510004</DistanceMeters>
          </Trackpoint>
          <Trackpoint>
            <Time>2021-08-04T07:55:29.000Z</Time>
            <Position>
              <LatitudeDegrees>40.93315883539617061614990234375</LatitudeDegrees>
              <LongitudeDegrees>-1.224584318697452545166015625</LongitudeDegrees>
            </Position>
            <AltitudeMeters>947.20001220703125</AltitudeMeters>
            <DistanceMeters>579028.41753584</DistanceMeters>
          </Trackpoint>
          <Trackpoint>
            <Time>2021-08-04T07:55:37.000Z</Time>
            <Position>
              <LatitudeDegrees>40.933306105434894561767578125</LatitudeDegrees>
              <LongitudeDegrees>-1.22448164038360118865966796875</LongitudeDegrees>
            </Position>
            <AltitudeMeters>948.4000244140625</AltitudeMeters>
            <DistanceMeters>579046.94360249</DistanceMeters>
          </Trackpoint>
          <Trackpoint>
            <Time>2021-08-04T07:55:44.000Z</Time>
            <Position>
              <LatitudeDegrees>40.93334524892270565032958984375</LatitudeDegrees>
              <LongitudeDegrees>-1.2246331013739109039306640625</LongitudeDegrees>
            </Position>
            <AltitudeMeters>949.4000244140625</AltitudeMeters>
            <DistanceMeters>579060.40389423</DistanceMeters>
          </Trackpoint>
          <Trackpoint>
            <Time>2021-08-04T07:55:50.000Z</Time>
            <Position>
              <LatitudeDegrees>40.9333894215524196624755859375</LatitudeDegrees>
              <LongitudeDegrees>-1.224747933447360992431640625</LongitudeDegrees>
            </Position>
            <AltitudeMeters>950.5999755859375</AltitudeMeters>
            <DistanceMeters>579071.23944009</DistanceMeters>
          </Trackpoint>
          <Trackpoint>
            <Time>2021-08-04T07:55:54.000Z</Time>
            <Position>
              <LatitudeDegrees>40.9334330074489116668701171875</LatitudeDegrees>
              <LongitudeDegrees>-1.2248071096837520599365234375</LongitudeDegrees>
            </Position>
            <AltitudeMeters>951.79998779296875</AltitudeMeters>
            <DistanceMeters>579078.18874572</DistanceMeters>
          </Trackpoint>
          <Trackpoint>
            <Time>2021-08-04T07:56:00.000Z</Time>
            <Position>
              <LatitudeDegrees>40.93350601382553577423095703125</LatitudeDegrees>
              <LongitudeDegrees>-1.22483820654451847076416015625</LongitudeDegrees>
            </Position>
            <AltitudeMeters>953</AltitudeMeters>
            <DistanceMeters>579086.72476862</DistanceMeters>
          </Trackpoint>
          <Trackpoint>
            <Time>2021-08-04T07:56:04.000Z</Time>
            <Position>
              <LatitudeDegrees>40.93356083147227764129638671875</LatitudeDegrees>
              <LongitudeDegrees>-1.22483569197356700897216796875</LongitudeDegrees>
            </Position>
            <AltitudeMeters>958.79998779296875</AltitudeMeters>
            <DistanceMeters>579092.82944924</DistanceMeters>
          </Trackpoint>
          <Trackpoint>
            <Time>2021-08-04T07:56:06.000Z</Time>
            <Position>
              <LatitudeDegrees>40.93358597718179225921630859375</LatitudeDegrees>
              <LongitudeDegrees>-1.22482194565236568450927734375</LongitudeDegrees>
            </Position>
            <AltitudeMeters>954</AltitudeMeters>
            <DistanceMeters>579095.85691147</DistanceMeters>
          </Trackpoint>
          <Trackpoint>
            <Time>2021-08-04T07:56:12.000Z</Time>
            <Position>
              <LatitudeDegrees>40.9336532838642597198486328125</LatitudeDegrees>
              <LongitudeDegrees>-1.224767379462718963623046875</LongitudeDegrees>
            </Position>
            <AltitudeMeters>955.20001220703125</AltitudeMeters>
            <DistanceMeters>579104.64161598</DistanceMeters>
          </Trackpoint>
          <Trackpoint>
            <Time>2021-08-04T07:56:18.000Z</Time>
            <Position>
              <LatitudeDegrees>40.9337112866342067718505859375</LatitudeDegrees>
              <LongitudeDegrees>-1.2247021682560443878173828125</LongitudeDegrees>
            </Position>
            <AltitudeMeters>956.20001220703125</AltitudeMeters>
            <DistanceMeters>579113.11179646</DistanceMeters>
          </Trackpoint>
          <Trackpoint>
            <Time>2021-08-04T07:56:23.000Z</Time>
            <Position>
              <LatitudeDegrees>40.9337582252919673919677734375</LatitudeDegrees>
              <LongitudeDegrees>-1.22464357875287532806396484375</LongitudeDegrees>
            </Position>
            <AltitudeMeters>957.4000244140625</AltitudeMeters>
            <DistanceMeters>579120.2924466</DistanceMeters>
          </Trackpoint>
          <Trackpoint>
            <Time>2021-08-04T07:56:28.000Z</Time>
            <Position>
              <LatitudeDegrees>40.9338081814348697662353515625</LatitudeDegrees>
              <LongitudeDegrees>-1.22459965758025646209716796875</LongitudeDegrees>
            </Position>
            <AltitudeMeters>958.5999755859375</AltitudeMeters>
            <DistanceMeters>579126.96735463</DistanceMeters>
          </Trackpoint>
          <Trackpoint>
            <Time>2021-08-04T07:56:33.000Z</Time>
            <Position>
              <LatitudeDegrees>40.933864675462245941162109375</LatitudeDegrees>
              <LongitudeDegrees>-1.22457920573651790618896484375</LongitudeDegrees>
            </Position>
            <AltitudeMeters>959.5999755859375</AltitudeMeters>
            <DistanceMeters>579133.48690752</DistanceMeters>
          </Trackpoint>
          <Trackpoint>
            <Time>2021-08-04T07:56:39.000Z</Time>
            <Position>
              <LatitudeDegrees>40.93393550254404544830322265625</LatitudeDegrees>
              <LongitudeDegrees>-1.22457970865070819854736328125</LongitudeDegrees>
            </Position>
            <AltitudeMeters>960.79998779296875</AltitudeMeters>
            <DistanceMeters>579141.37011664</DistanceMeters>
          </Trackpoint>
          <Trackpoint>
            <Time>2021-08-04T07:56:41.000Z</Time>
            <Position>
              <LatitudeDegrees>40.9339590556919574737548828125</LatitudeDegrees>
              <LongitudeDegrees>-1.224591694772243499755859375</LongitudeDegrees>
            </Position>
            <AltitudeMeters>961.20001220703125</AltitudeMeters>
            <DistanceMeters>579144.17943805</DistanceMeters>
          </Trackpoint>
          <Trackpoint>
            <Time>2021-08-04T07:56:45.000Z</Time>
            <Position>
              <LatitudeDegrees>40.934008173644542694091796875</LatitudeDegrees>
              <LongitudeDegrees>-1.224623881280422210693359375</LongitudeDegrees>
            </Position>
            <AltitudeMeters>961.79998779296875</AltitudeMeters>
            <DistanceMeters>579150.27967945</DistanceMeters>
          </Trackpoint>
          <Trackpoint>
            <Time>2021-08-04T07:56:52.000Z</Time>
            <Position>
              <LatitudeDegrees>40.9340864606201648712158203125</LatitudeDegrees>
              <LongitudeDegrees>-1.2246786989271640777587890625</LongitudeDegrees>
            </Position>
            <AltitudeMeters>963</AltitudeMeters>
            <DistanceMeters>579160.13729846</DistanceMeters>
          </Trackpoint>
          <Trackpoint>
            <Time>2021-08-04T07:56:59.000Z</Time>
            <Position>
              <LatitudeDegrees>40.9341736324131488800048828125</LatitudeDegrees>
              <LongitudeDegrees>-1.22470594011247158050537109375</LongitudeDegrees>
            </Position>
            <AltitudeMeters>964.20001220703125</AltitudeMeters>
            <DistanceMeters>579170.10650211</DistanceMeters>
          </Trackpoint>
          <Trackpoint>
            <Time>2021-08-04T07:57:05.000Z</Time>
            <Position>
              <LatitudeDegrees>40.93424898572266101837158203125</LatitudeDegrees>
              <LongitudeDegrees>-1.224710382521152496337890625</LongitudeDegrees>
            </Position>
            <AltitudeMeters>965.20001220703125</AltitudeMeters>
            <DistanceMeters>579178.50118593</DistanceMeters>
          </Trackpoint>
          <Trackpoint>
            <Time>2021-08-04T07:57:12.000Z</Time>
            <Position>
              <LatitudeDegrees>40.93433112837374210357666015625</LatitudeDegrees>
              <LongitudeDegrees>-1.22468096204102039337158203125</LongitudeDegrees>
            </Position>
            <AltitudeMeters>966.4000244140625</AltitudeMeters>
            <DistanceMeters>579187.97244664</DistanceMeters>
          </Trackpoint>
          <Trackpoint>
            <Time>2021-08-04T07:57:15.000Z</Time>
            <Position>
              <LatitudeDegrees>40.9343684278428554534912109375</LatitudeDegrees>
              <LongitudeDegrees>-1.224661767482757568359375</LongitudeDegrees>
            </Position>
            <AltitudeMeters>966.79998779296875</AltitudeMeters>
            <DistanceMeters>579192.42655463</DistanceMeters>
          </Trackpoint>
          <Trackpoint>
            <Time>2021-08-04T07:57:21.000Z</Time>
            <Position>
              <LatitudeDegrees>40.93444746918976306915283203125</LatitudeDegrees>
              <LongitudeDegrees>-1.22462463565170764923095703125</LongitudeDegrees>
            </Position>
            <AltitudeMeters>967.4000244140625</AltitudeMeters>
            <DistanceMeters>579201.76193184</DistanceMeters>
          </Trackpoint>
          <Trackpoint>
            <Time>2021-08-04T07:57:28.000Z</Time>
            <Position>
              <LatitudeDegrees>40.9345390833914279937744140625</LatitudeDegrees>
              <LongitudeDegrees>-1.2245901860296726226806640625</LongitudeDegrees>
            </Position>
            <AltitudeMeters>968.5999755859375</AltitudeMeters>
            <DistanceMeters>579212.36241632</DistanceMeters>
          </Trackpoint>
          <Trackpoint>
            <Time>2021-08-04T07:57:33.000Z</Time>
            <Position>
              <LatitudeDegrees>40.9346031211316585540771484375</LatitudeDegrees>
              <LongitudeDegrees>-1.22457870282232761383056640625</LongitudeDegrees>
            </Position>
            <AltitudeMeters>969.5999755859375</AltitudeMeters>
            <DistanceMeters>579219.55437558</DistanceMeters>
          </Trackpoint>
          <Trackpoint>
            <Time>2021-08-04T07:57:39.000Z</Time>
            <Position>
              <LatitudeDegrees>40.9346886165440082550048828125</LatitudeDegrees>
              <LongitudeDegrees>-1.22457149438560009002685546875</LongitudeDegrees>
            </Position>
            <AltitudeMeters>970.79998779296875</AltitudeMeters>
            <DistanceMeters>579229.08977487</DistanceMeters>
          </Trackpoint>
          <Trackpoint>
            <Time>2021-08-04T07:57:46.000Z</Time>
            <Position>
              <LatitudeDegrees>40.93478023074567317962646484375</LatitudeDegrees>
              <LongitudeDegrees>-1.22455246746540069580078125</LongitudeDegrees>
            </Position>
            <AltitudeMeters>971.79998779296875</AltitudeMeters>
            <DistanceMeters>579239.41144343</DistanceMeters>
          </Trackpoint>
          <Trackpoint>
            <Time>2021-08-04T07:57:53.000Z</Time>
            <Position>
              <LatitudeDegrees>40.93486337922513484954833984375</LatitudeDegrees>
              <LongitudeDegrees>-1.22452656738460063934326171875</LongitudeDegrees>
            </Position>
            <AltitudeMeters>973</AltitudeMeters>
            <DistanceMeters>579248.91839011</DistanceMeters>
          </Trackpoint>
          <Trackpoint>
            <Time>2021-08-04T07:58:01.000Z</Time>
            <Position>
              <LatitudeDegrees>40.9349591843783855438232421875</LatitudeDegrees>
              <LongitudeDegrees>-1.22446269728243350982666015625</LongitudeDegrees>
            </Position>
            <AltitudeMeters>974</AltitudeMeters>
            <DistanceMeters>579260.85776977</DistanceMeters>
          </Trackpoint>
          <Trackpoint>
            <Time>2021-08-04T07:58:06.000Z</Time>
            <Position>
              <LatitudeDegrees>40.93500570394098758697509765625</LatitudeDegrees>
              <LongitudeDegrees>-1.22440670616924762725830078125</LongitudeDegrees>
            </Position>
            <AltitudeMeters>975.20001220703125</AltitudeMeters>
            <DistanceMeters>579267.85627923</DistanceMeters>
          </Trackpoint>
          <Trackpoint>
            <Time>2021-08-04T07:58:13.000Z</Time>
            <Position>
              <LatitudeDegrees>40.9350694902241230010986328125</LatitudeDegrees>
              <LongitudeDegrees>-1.22433646582067012786865234375</LongitudeDegrees>
            </Position>
            <AltitudeMeters>976.20001220703125</AltitudeMeters>
            <DistanceMeters>579277.09148751</DistanceMeters>
          </Trackpoint>
          <Trackpoint>
            <Time>2021-08-04T07:58:19.000Z</Time>
            <Position>
              <LatitudeDegrees>40.93514149077236652374267578125</LatitudeDegrees>
              <LongitudeDegrees>-1.22431903146207332611083984375</LongitudeDegrees>
            </Position>
            <AltitudeMeters>977.4000244140625</AltitudeMeters>
            <DistanceMeters>579285.23777696</DistanceMeters>
          </Trackpoint>
          <Trackpoint>
            <Time>2021-08-04T07:58:24.000Z</Time>
            <Position>
              <LatitudeDegrees>40.935204438865184783935546875</LatitudeDegrees>
              <LongitudeDegrees>-1.224339567124843597412109375</LongitudeDegrees>
            </Position>
            <AltitudeMeters>978.5999755859375</AltitudeMeters>
            <DistanceMeters>579292.45355279</DistanceMeters>
          </Trackpoint>
          <Trackpoint>
            <Time>2021-08-04T07:58:28.000Z</Time>
            <Position>
              <LatitudeDegrees>40.9352488629519939422607421875</LatitudeDegrees>
              <LongitudeDegrees>-1.22437284328043460845947265625</LongitudeDegrees>
            </Position>
            <AltitudeMeters>979.4000244140625</AltitudeMeters>
            <DistanceMeters>579298.13452922</DistanceMeters>
          </Trackpoint>
          <Trackpoint>
            <Time>2021-08-04T07:58:30.000Z</Time>
            <Position>
              <LatitudeDegrees>40.93526981770992279052734375</LatitudeDegrees>
              <LongitudeDegrees>-1.2243943847715854644775390625</LongitudeDegrees>
            </Position>
            <AltitudeMeters>979.5999755859375</AltitudeMeters>
            <DistanceMeters>579301.08801087</DistanceMeters>
          </Trackpoint>
          <Trackpoint>
            <Time>2021-08-04T07:58:37.000Z</Time>
            <Position>
              <LatitudeDegrees>40.93533276580274105072021484375</LatitudeDegrees>
              <LongitudeDegrees>-1.22447124682366847991943359375</LongitudeDegrees>
            </Position>
            <AltitudeMeters>980.79998779296875</AltitudeMeters>
            <DistanceMeters>579310.62009507</DistanceMeters>
          </Trackpoint>
          <Trackpoint>
            <Time>2021-08-04T07:58:43.000Z</Time>
            <Position>
              <LatitudeDegrees>40.93537886627018451690673828125</LatitudeDegrees>
              <LongitudeDegrees>-1.22453729622066020965576171875</LongitudeDegrees>
            </Position>
            <AltitudeMeters>981.79998779296875</AltitudeMeters>
            <DistanceMeters>579318.18173801</DistanceMeters>
          </Trackpoint>
          <Trackpoint>
            <Time>2021-08-04T07:58:47.000Z</Time>
            <Position>
              <LatitudeDegrees>40.9353977255523204803466796875</LatitudeDegrees>
              <LongitudeDegrees>-1.22455640695989131927490234375</LongitudeDegrees>
            </Position>
            <AltitudeMeters>982.5999755859375</AltitudeMeters>
            <DistanceMeters>579320.8254625</DistanceMeters>
          </Trackpoint>
          <Trackpoint>
            <Time>2021-08-04T07:59:17.000Z</Time>
            <Position>
              <LatitudeDegrees>40.93551968224346637725830078125</LatitudeDegrees>
              <LongitudeDegrees>-1.22477886267006397247314453125</LongitudeDegrees>
            </Position>
            <AltitudeMeters>985.20001220703125</AltitudeMeters>
            <DistanceMeters>579343.93630328</DistanceMeters>
          </Trackpoint>
          <Trackpoint>
            <Time>2021-08-04T07:59:29.000Z</Time>
            <Position>
              <LatitudeDegrees>40.93562378548085689544677734375</LatitudeDegrees>
              <LongitudeDegrees>-1.22496242634952068328857421875</LongitudeDegrees>
            </Position>
            <AltitudeMeters>986.20001220703125</AltitudeMeters>
            <DistanceMeters>579363.23608626</DistanceMeters>
          </Trackpoint>
          <Trackpoint>
            <Time>2021-08-04T07:59:35.000Z</Time>
            <Position>
              <LatitudeDegrees>40.93568044714629650115966796875</LatitudeDegrees>
              <LongitudeDegrees>-1.22504708357155323028564453125</LongitudeDegrees>
            </Position>
            <AltitudeMeters>987.4000244140625</AltitudeMeters>
            <DistanceMeters>579372.7463568</DistanceMeters>
          </Trackpoint>
          <Trackpoint>
            <Time>2021-08-04T07:59:42.000Z</Time>
            <Position>
              <LatitudeDegrees>40.935753285884857177734375</LatitudeDegrees>
              <LongitudeDegrees>-1.2251229397952556610107421875</LongitudeDegrees>
            </Position>
            <AltitudeMeters>988.5999755859375</AltitudeMeters>
            <DistanceMeters>579383.06189948</DistanceMeters>
          </Trackpoint>
          <Trackpoint>
            <Time>2021-08-04T07:59:49.000Z</Time>
            <Position>
              <LatitudeDegrees>40.93582771718502044677734375</LatitudeDegrees>
              <LongitudeDegrees>-1.22518722899258136749267578125</LongitudeDegrees>
            </Position>
            <AltitudeMeters>989.4000244140625</AltitudeMeters>
            <DistanceMeters>579392.95381074</DistanceMeters>
          </Trackpoint>
          <Trackpoint>
            <Time>2021-08-04T08:00:12.000Z</Time>
            <Position>
              <LatitudeDegrees>40.93622024171054363250732421875</LatitudeDegrees>
              <LongitudeDegrees>-1.225602217018604278564453125</LongitudeDegrees>
            </Position>
            <AltitudeMeters>990.4000244140625</AltitudeMeters>
            <DistanceMeters>579448.86651524</DistanceMeters>
          </Trackpoint>
          <Trackpoint>
            <Time>2021-08-04T08:00:29.000Z</Time>
            <Position>
              <LatitudeDegrees>40.93652014620602130889892578125</LatitudeDegrees>
              <LongitudeDegrees>-1.22504197061061859130859375</LongitudeDegrees>
            </Position>
            <AltitudeMeters>990.20001220703125</AltitudeMeters>
            <DistanceMeters>579506.6006992</DistanceMeters>
          </Trackpoint>
          <Trackpoint>
            <Time>2021-08-04T08:00:50.000Z</Time>
            <Position>
              <LatitudeDegrees>40.9365956671535968780517578125</LatitudeDegrees>
              <LongitudeDegrees>-1.2243353761732578277587890625</LongitudeDegrees>
            </Position>
            <AltitudeMeters>991.79998779296875</AltitudeMeters>
            <DistanceMeters>579566.60388061</DistanceMeters>
          </Trackpoint>
          <Trackpoint>
            <Time>2021-08-04T08:00:57.000Z</Time>
            <Position>
              <LatitudeDegrees>40.936621315777301788330078125</LatitudeDegrees>
              <LongitudeDegrees>-1.22411887161433696746826171875</LongitudeDegrees>
            </Position>
            <AltitudeMeters>993</AltitudeMeters>
            <DistanceMeters>579585.03024418</DistanceMeters>
          </Trackpoint>
          <Trackpoint>
            <Time>2021-08-04T08:01:02.000Z</Time>
            <Position>
              <LatitudeDegrees>40.93664646148681640625</LatitudeDegrees>
              <LongitudeDegrees>-1.2239498086273670196533203125</LongitudeDegrees>
            </Position>
            <AltitudeMeters>994.20001220703125</AltitudeMeters>
            <DistanceMeters>579599.51800097</DistanceMeters>
          </Trackpoint>
          <Trackpoint>
            <Time>2021-08-04T08:01:15.000Z</Time>
            <Position>
              <LatitudeDegrees>40.9367720223963260650634765625</LatitudeDegrees>
              <LongitudeDegrees>-1.22352325357496738433837890625</LongitudeDegrees>
            </Position>
            <AltitudeMeters>995.20001220703125</AltitudeMeters>
            <DistanceMeters>579638.00980299</DistanceMeters>
          </Trackpoint>
          <Trackpoint>
            <Time>2021-08-04T08:01:34.000Z</Time>
            <Position>
              <LatitudeDegrees>40.93694795854389667510986328125</LatitudeDegrees>
              <LongitudeDegrees>-1.22288203798234462738037109375</LongitudeDegrees>
            </Position>
            <AltitudeMeters>996.4000244140625</AltitudeMeters>
            <DistanceMeters>579695.36989881</DistanceMeters>
          </Trackpoint>
          <Trackpoint>
            <Time>2021-08-04T08:01:47.000Z</Time>
            <Position>
              <LatitudeDegrees>40.937054492533206939697265625</LatitudeDegrees>
              <LongitudeDegrees>-1.2225262261927127838134765625</LongitudeDegrees>
            </Position>
            <AltitudeMeters>996</AltitudeMeters>
            <DistanceMeters>579727.55100114</DistanceMeters>
          </Trackpoint>
          <Trackpoint>
            <Time>2021-08-04T08:02:03.000Z</Time>
            <Position>
              <LatitudeDegrees>40.9369976632297039031982421875</LatitudeDegrees>
              <LongitudeDegrees>-1.22252983041107654571533203125</LongitudeDegrees>
            </Position>
            <AltitudeMeters>995.5999755859375</AltitudeMeters>
            <DistanceMeters>579733.88294708</DistanceMeters>
          </Trackpoint>
          <Trackpoint>
            <Time>2021-08-04T08:02:04.000Z</Time>
            <Position>
              <LatitudeDegrees>40.93696975149214267730712890625</LatitudeDegrees>
              <LongitudeDegrees>-1.22253217734396457672119140625</LongitudeDegrees>
            </Position>
            <AltitudeMeters>995.4000244140625</AltitudeMeters>
            <DistanceMeters>579736.99715679</DistanceMeters>
          </Trackpoint>
          <Trackpoint>
            <Time>2021-08-04T08:02:07.000Z</Time>
            <Position>
              <LatitudeDegrees>40.9369034506380558013916015625</LatitudeDegrees>
              <LongitudeDegrees>-1.22248406521975994110107421875</LongitudeDegrees>
            </Position>
            <AltitudeMeters>994.4000244140625</AltitudeMeters>
            <DistanceMeters>579745.41225391</DistanceMeters>
          </Trackpoint>
          <Trackpoint>
            <Time>2021-08-04T08:02:10.000Z</Time>
            <Position>
              <LatitudeDegrees>40.93687185086309909820556640625</LatitudeDegrees>
              <LongitudeDegrees>-1.22238163836300373077392578125</LongitudeDegrees>
            </Position>
            <AltitudeMeters>993.20001220703125</AltitudeMeters>
            <DistanceMeters>579754.71517026</DistanceMeters>
          </Trackpoint>
          <Trackpoint>
            <Time>2021-08-04T08:02:12.000Z</Time>
            <Position>
              <LatitudeDegrees>40.93690521083772182464599609375</LatitudeDegrees>
              <LongitudeDegrees>-1.2223148345947265625</LongitudeDegrees>
            </Position>
            <AltitudeMeters>992</AltitudeMeters>
            <DistanceMeters>579761.44866963</DistanceMeters>
          </Trackpoint>
          <Trackpoint>
            <Time>2021-08-04T08:02:15.000Z</Time>
            <Position>
              <LatitudeDegrees>40.93699824996292591094970703125</LatitudeDegrees>
              <LongitudeDegrees>-1.22225272469222545623779296875</LongitudeDegrees>
            </Position>
            <AltitudeMeters>991</AltitudeMeters>
            <DistanceMeters>579773.04621198</DistanceMeters>
          </Trackpoint>
          <Trackpoint>
            <Time>2021-08-04T08:02:17.000Z</Time>
            <Position>
              <LatitudeDegrees>40.93704803846776485443115234375</LatitudeDegrees>
              <LongitudeDegrees>-1.2221825681626796722412109375</LongitudeDegrees>
            </Position>
            <AltitudeMeters>989.79998779296875</AltitudeMeters>
            <DistanceMeters>579781.13967691</DistanceMeters>
          </Trackpoint>
          <Trackpoint>
            <Time>2021-08-04T08:02:20.000Z</Time>
            <Position>
              <LatitudeDegrees>40.93706564046442508697509765625</LatitudeDegrees>
              <LongitudeDegrees>-1.22199900448322296142578125</LongitudeDegrees>
            </Position>
            <AltitudeMeters>988.20001220703125</AltitudeMeters>
            <DistanceMeters>579796.69767161</DistanceMeters>
          </Trackpoint>
          <Trackpoint>
            <Time>2021-08-04T08:02:22.000Z</Time>
            <Position>
              <LatitudeDegrees>40.93707301653921604156494140625</LatitudeDegrees>
              <LongitudeDegrees>-1.2218590267002582550048828125</LongitudeDegrees>
            </Position>
            <AltitudeMeters>986.5999755859375</AltitudeMeters>
            <DistanceMeters>579808.49553575</DistanceMeters>
          </Trackpoint>
          <Trackpoint>
            <Time>2021-08-04T08:02:24.000Z</Time>
            <Position>
              <LatitudeDegrees>40.937083661556243896484375</LatitudeDegrees>
              <LongitudeDegrees>-1.2217165343463420867919921875</LongitudeDegrees>
            </Position>
            <AltitudeMeters>984.4000244140625</AltitudeMeters>
            <DistanceMeters>579820.53433665</DistanceMeters>
          </Trackpoint>
          <Trackpoint>
            <Time>2021-08-04T08:02:25.000Z</Time>
            <Position>
              <LatitudeDegrees>40.93708408065140247344970703125</LatitudeDegrees>
              <LongitudeDegrees>-1.22164386324584484100341796875</LongitudeDegrees>
            </Position>
            <AltitudeMeters>983.79998779296875</AltitudeMeters>
            <DistanceMeters>579826.64493122</DistanceMeters>
          </Trackpoint>
          <Trackpoint>
            <Time>2021-08-04T08:02:26.000Z</Time>
            <Position>
              <LatitudeDegrees>40.937078632414340972900390625</LatitudeDegrees>
              <LongitudeDegrees>-1.2215723656117916107177734375</LongitudeDegrees>
            </Position>
            <AltitudeMeters>982.79998779296875</AltitudeMeters>
            <DistanceMeters>579832.68641854</DistanceMeters>
          </Trackpoint>
          <Trackpoint>
            <Time>2021-08-04T08:02:28.000Z</Time>
            <Position>
              <LatitudeDegrees>40.93704502098262310028076171875</LatitudeDegrees>
              <LongitudeDegrees>-1.22145342640578746795654296875</LongitudeDegrees>
            </Position>
            <AltitudeMeters>981.4000244140625</AltitudeMeters>
            <DistanceMeters>579843.36414045</DistanceMeters>
          </Trackpoint>
          <Trackpoint>
            <Time>2021-08-04T08:02:31.000Z</Time>
            <Position>
              <LatitudeDegrees>40.9369953162968158721923828125</LatitudeDegrees>
              <LongitudeDegrees>-1.221309341490268707275390625</LongitudeDegrees>
            </Position>
            <AltitudeMeters>980</AltitudeMeters>
            <DistanceMeters>579856.68212684</DistanceMeters>
          </Trackpoint>
          <Trackpoint>
            <Time>2021-08-04T08:02:33.000Z</Time>
            <Position>
              <LatitudeDegrees>40.93698601238429546356201171875</LatitudeDegrees>
              <LongitudeDegrees>-1.221191324293613433837890625</LongitudeDegrees>
            </Position>
            <AltitudeMeters>978.79998779296875</AltitudeMeters>
            <DistanceMeters>579866.65857423</DistanceMeters>
          </Trackpoint>
          <Trackpoint>
            <Time>2021-08-04T08:02:35.000Z</Time>
            <Position>
              <LatitudeDegrees>40.9369986690580844879150390625</LatitudeDegrees>
              <LongitudeDegrees>-1.22102561406791210174560546875</LongitudeDegrees>
            </Position>
            <AltitudeMeters>976.4000244140625</AltitudeMeters>
            <DistanceMeters>579880.66204309</DistanceMeters>
          </Trackpoint>
          <Trackpoint>
            <Time>2021-08-04T08:02:36.000Z</Time>
            <Position>
              <LatitudeDegrees>40.9370100684463977813720703125</LatitudeDegrees>
              <LongitudeDegrees>-1.220932491123676300048828125</LongitudeDegrees>
            </Position>
            <AltitudeMeters>975.20001220703125</AltitudeMeters>
            <DistanceMeters>579888.59435503</DistanceMeters>
          </Trackpoint>
          <Trackpoint>
            <Time>2021-08-04T08:02:38.000Z</Time>
            <Position>
              <LatitudeDegrees>40.93703295104205608367919921875</LatitudeDegrees>
              <LongitudeDegrees>-1.220741383731365203857421875</LongitudeDegrees>
            </Position>
            <AltitudeMeters>973.4000244140625</AltitudeMeters>
            <DistanceMeters>579904.86336147</DistanceMeters>
          </Trackpoint>
          <Trackpoint>
            <Time>2021-08-04T08:02:40.000Z</Time>
            <Position>
              <LatitudeDegrees>40.9370409138500690460205078125</LatitudeDegrees>
              <LongitudeDegrees>-1.2205504439771175384521484375</LongitudeDegrees>
            </Position>
            <AltitudeMeters>972.20001220703125</AltitudeMeters>
            <DistanceMeters>579920.94226344</DistanceMeters>
          </Trackpoint>
          <Trackpoint>
            <Time>2021-08-04T08:02:44.000Z</Time>
            <Position>
              <LatitudeDegrees>40.9370529837906360626220703125</LatitudeDegrees>
              <LongitudeDegrees>-1.2202084623277187347412109375</LongitudeDegrees>
            </Position>
            <AltitudeMeters>971.79998779296875</AltitudeMeters>
            <DistanceMeters>579949.72767319</DistanceMeters>
          </Trackpoint>
          <Trackpoint>
            <Time>2021-08-04T08:02:48.000Z</Time>
            <Position>
              <LatitudeDegrees>40.93694753944873809814453125</LatitudeDegrees>
              <LongitudeDegrees>-1.21990931220352649688720703125</LongitudeDegrees>
            </Position>
            <AltitudeMeters>970.79998779296875</AltitudeMeters>
            <DistanceMeters>579977.48377111</DistanceMeters>
          </Trackpoint>
          <Trackpoint>
            <Time>2021-08-04T08:02:50.000Z</Time>
            <Position>
              <LatitudeDegrees>40.936868079006671905517578125</LatitudeDegrees>
              <LongitudeDegrees>-1.219770424067974090576171875</LongitudeDegrees>
            </Position>
            <AltitudeMeters>969.20001220703125</AltitudeMeters>
            <DistanceMeters>579992.132687</DistanceMeters>
          </Trackpoint>
          <Trackpoint>
            <Time>2021-08-04T08:02:52.000Z</Time>
            <Position>
              <LatitudeDegrees>40.9367944858968257904052734375</LatitudeDegrees>
              <LongitudeDegrees>-1.21962617151439189910888671875</LongitudeDegrees>
            </Position>
            <AltitudeMeters>967.5999755859375</AltitudeMeters>
            <DistanceMeters>580006.76803507</DistanceMeters>
          </Trackpoint>
          <Trackpoint>
            <Time>2021-08-04T08:02:53.000Z</Time>
            <Position>
              <LatitudeDegrees>40.93675534240901470184326171875</LatitudeDegrees>
              <LongitudeDegrees>-1.21954570524394512176513671875</LongitudeDegrees>
            </Position>
            <AltitudeMeters>966.20001220703125</AltitudeMeters>
            <DistanceMeters>580014.81506422</DistanceMeters>
          </Trackpoint>
          <Trackpoint>
            <Time>2021-08-04T08:02:54.000Z</Time>
            <Position>
              <LatitudeDegrees>40.93671527691185474395751953125</LatitudeDegrees>
              <LongitudeDegrees>-1.21945970691740512847900390625</LongitudeDegrees>
            </Position>
            <AltitudeMeters>965</AltitudeMeters>
            <DistanceMeters>580023.31026116</DistanceMeters>
          </Trackpoint>
          <Trackpoint>
            <Time>2021-08-04T08:02:55.000Z</Time>
            <Position>
              <LatitudeDegrees>40.936675630509853363037109375</LatitudeDegrees>
              <LongitudeDegrees>-1.21937052346765995025634765625</LongitudeDegrees>
            </Position>
            <AltitudeMeters>964</AltitudeMeters>
            <DistanceMeters>580032.01026695</DistanceMeters>
          </Trackpoint>
          <Trackpoint>
            <Time>2021-08-04T08:02:57.000Z</Time>
            <Position>
              <LatitudeDegrees>40.9365990199148654937744140625</LatitudeDegrees>
              <LongitudeDegrees>-1.2191862054169178009033203125</LongitudeDegrees>
            </Position>
            <AltitudeMeters>962.5999755859375</AltitudeMeters>
            <DistanceMeters>580049.69902464</DistanceMeters>
          </Trackpoint>
          <Trackpoint>
            <Time>2021-08-04T08:03:00.000Z</Time>
            <Position>
              <LatitudeDegrees>40.9365111775696277618408203125</LatitudeDegrees>
              <LongitudeDegrees>-1.21890239417552947998046875</LongitudeDegrees>
            </Position>
            <AltitudeMeters>961.4000244140625</AltitudeMeters>
            <DistanceMeters>580075.48753119</DistanceMeters>
          </Trackpoint>
          <Trackpoint>
            <Time>2021-08-04T08:03:01.000Z</Time>
            <Position>
              <LatitudeDegrees>40.93648091889917850494384765625</LatitudeDegrees>
              <LongitudeDegrees>-1.21881396509706974029541015625</LongitudeDegrees>
            </Position>
            <AltitudeMeters>961.4000244140625</AltitudeMeters>
            <DistanceMeters>580083.64987791</DistanceMeters>
          </Trackpoint>
          <Trackpoint>
            <Time>2021-08-04T08:03:05.000Z</Time>
            <Position>
              <LatitudeDegrees>40.93631629832088947296142578125</LatitudeDegrees>
              <LongitudeDegrees>-1.218546666204929351806640625</LongitudeDegrees>
            </Position>
            <AltitudeMeters>962</AltitudeMeters>
            <DistanceMeters>580112.64719845</DistanceMeters>
          </Trackpoint>
          <Trackpoint>
            <Time>2021-08-04T08:03:11.000Z</Time>
            <Position>
              <LatitudeDegrees>40.93613290227949619293212890625</LatitudeDegrees>
              <LongitudeDegrees>-1.21813100762665271759033203125</LongitudeDegrees>
            </Position>
            <AltitudeMeters>962.4000244140625</AltitudeMeters>
            <DistanceMeters>580153.12099377</DistanceMeters>
          </Trackpoint>
          <Trackpoint>
            <Time>2021-08-04T08:03:15.000Z</Time>
            <Position>
              <LatitudeDegrees>40.9359797649085521697998046875</LatitudeDegrees>
              <LongitudeDegrees>-1.21788005344569683074951171875</LongitudeDegrees>
            </Position>
            <AltitudeMeters>961.20001220703125</AltitudeMeters>
            <DistanceMeters>580180.24591955</DistanceMeters>
          </Trackpoint>
          <Trackpoint>
            <Time>2021-08-04T08:03:18.000Z</Time>
            <Position>
              <LatitudeDegrees>40.9358671121299266815185546875</LatitudeDegrees>
              <LongitudeDegrees>-1.21769883669912815093994140625</LongitudeDegrees>
            </Position>
            <AltitudeMeters>960</AltitudeMeters>
            <DistanceMeters>580199.97901247</DistanceMeters>
          </Trackpoint>
          <Trackpoint>
            <Time>2021-08-04T08:03:21.000Z</Time>
            <Position>
              <LatitudeDegrees>40.93579008243978023529052734375</LatitudeDegrees>
              <LongitudeDegrees>-1.2174695916473865509033203125</LongitudeDegrees>
            </Position>
            <AltitudeMeters>958.4000244140625</AltitudeMeters>
            <DistanceMeters>580221.07537111</DistanceMeters>
          </Trackpoint>
          <Trackpoint>
            <Time>2021-08-04T08:03:23.000Z</Time>
            <Position>
              <LatitudeDegrees>40.93576828949153423309326171875</LatitudeDegrees>
              <LongitudeDegrees>-1.21730153448879718780517578125</LongitudeDegrees>
            </Position>
            <AltitudeMeters>957.20001220703125</AltitudeMeters>
            <DistanceMeters>580235.4127579</DistanceMeters>
          </Trackpoint>
          <Trackpoint>
            <Time>2021-08-04T08:03:25.000Z</Time>
            <Position>
              <LatitudeDegrees>40.9357675351202487945556640625</LatitudeDegrees>
              <LongitudeDegrees>-1.21713213622570037841796875</LongitudeDegrees>
            </Position>
            <AltitudeMeters>957</AltitudeMeters>
            <DistanceMeters>580249.65662527</DistanceMeters>
          </Trackpoint>
          <Trackpoint>
            <Time>2021-08-04T08:03:26.000Z</Time>
            <Position>
              <LatitudeDegrees>40.935772396624088287353515625</LatitudeDegrees>
              <LongitudeDegrees>-1.21705175377428531646728515625</LongitudeDegrees>
            </Position>
            <AltitudeMeters>957</AltitudeMeters>
            <DistanceMeters>580256.43756541</DistanceMeters>
          </Trackpoint>
          <Trackpoint>
            <Time>2021-08-04T08:03:32.000Z</Time>
            <Position>
              <LatitudeDegrees>40.93577147461473941802978515625</LatitudeDegrees>
              <LongitudeDegrees>-1.21674992144107818603515625</LongitudeDegrees>
            </Position>
            <AltitudeMeters>958.4000244140625</AltitudeMeters>
            <DistanceMeters>580281.81663736</DistanceMeters>
          </Trackpoint>
          <Trackpoint>
            <Time>2021-08-04T08:03:36.000Z</Time>
            <Position>
              <LatitudeDegrees>40.935785807669162750244140625</LatitudeDegrees>
              <LongitudeDegrees>-1.2166320718824863433837890625</LongitudeDegrees>
            </Position>
            <AltitudeMeters>959.4000244140625</AltitudeMeters>
            <DistanceMeters>580291.85309603</DistanceMeters>
          </Trackpoint>
          <Trackpoint>
            <Time>2021-08-04T08:03:43.000Z</Time>
            <Position>
              <LatitudeDegrees>40.9358335845172405242919921875</LatitudeDegrees>
              <LongitudeDegrees>-1.21642696671187877655029296875</LongitudeDegrees>
            </Position>
            <AltitudeMeters>960.79998779296875</AltitudeMeters>
            <DistanceMeters>580309.89991755</DistanceMeters>
          </Trackpoint>
          <Trackpoint>
            <Time>2021-08-04T08:03:52.000Z</Time>
            <Position>
              <LatitudeDegrees>40.93589745461940765380859375</LatitudeDegrees>
              <LongitudeDegrees>-1.216168887913227081298828125</LongitudeDegrees>
            </Position>
            <AltitudeMeters>962</AltitudeMeters>
            <DistanceMeters>580332.7346215</DistanceMeters>
          </Trackpoint>
          <Trackpoint>
            <Time>2021-08-04T08:03:57.000Z</Time>
            <Position>
              <LatitudeDegrees>40.935923270881175994873046875</LatitudeDegrees>
              <LongitudeDegrees>-1.21604274027049541473388671875</LongitudeDegrees>
            </Position>
            <AltitudeMeters>963.20001220703125</AltitudeMeters>
            <DistanceMeters>580343.72408201</DistanceMeters>
          </Trackpoint>
          <Trackpoint>
            <Time>2021-08-04T08:04:02.000Z</Time>
            <Position>
              <LatitudeDegrees>40.935946069657802581787109375</LatitudeDegrees>
              <LongitudeDegrees>-1.2159155867993831634521484375</LongitudeDegrees>
            </Position>
            <AltitudeMeters>964.20001220703125</AltitudeMeters>
            <DistanceMeters>580354.71272079</DistanceMeters>
          </Trackpoint>
          <Trackpoint>
            <Time>2021-08-04T08:04:08.000Z</Time>
            <Position>
              <LatitudeDegrees>40.9359492547810077667236328125</LatitudeDegrees>
              <LongitudeDegrees>-1.215769238770008087158203125</LongitudeDegrees>
            </Position>
            <AltitudeMeters>965.4000244140625</AltitudeMeters>
            <DistanceMeters>580367.0229906</DistanceMeters>
          </Trackpoint>
          <Trackpoint>
            <Time>2021-08-04T08:04:14.000Z</Time>
            <Position>
              <LatitudeDegrees>40.93592570163309574127197265625</LatitudeDegrees>
              <LongitudeDegrees>-1.21562297455966472625732421875</LongitudeDegrees>
            </Position>
            <AltitudeMeters>966.4000244140625</AltitudeMeters>
            <DistanceMeters>580379.59743447</DistanceMeters>
          </Trackpoint>
          <Trackpoint>
            <Time>2021-08-04T08:04:20.000Z</Time>
            <Position>
              <LatitudeDegrees>40.9358915872871875762939453125</LatitudeDegrees>
              <LongitudeDegrees>-1.2154700048267841339111328125</LongitudeDegrees>
            </Position>
            <AltitudeMeters>967.5999755859375</AltitudeMeters>
            <DistanceMeters>580393.00832678</DistanceMeters>
          </Trackpoint>
          <Trackpoint>
            <Time>2021-08-04T08:04:40.000Z</Time>
            <Position>
              <LatitudeDegrees>40.935599394142627716064453125</LatitudeDegrees>
              <LongitudeDegrees>-1.2148195691406726837158203125</LongitudeDegrees>
            </Position>
            <AltitudeMeters>967.4000244140625</AltitudeMeters>
            <DistanceMeters>580456.6376357</DistanceMeters>
          </Trackpoint>
          <Trackpoint>
            <Time>2021-08-04T08:04:43.000Z</Time>
            <Position>
              <LatitudeDegrees>40.93553443439304828643798828125</LatitudeDegrees>
              <LongitudeDegrees>-1.2146807648241519927978515625</LongitudeDegrees>
            </Position>
            <AltitudeMeters>966.5999755859375</AltitudeMeters>
            <DistanceMeters>580470.3669407</DistanceMeters>
          </Trackpoint>
          <Trackpoint>
            <Time>2021-08-04T08:04:58.000Z</Time>
            <Position>
              <LatitudeDegrees>40.93527208082377910614013671875</LatitudeDegrees>
              <LongitudeDegrees>-1.214057989418506622314453125</LongitudeDegrees>
            </Position>
            <AltitudeMeters>967.4000244140625</AltitudeMeters>
            <DistanceMeters>580530.32314981</DistanceMeters>
          </Trackpoint>
          <Trackpoint>
            <Time>2021-08-04T08:05:02.000Z</Time>
            <Position>
              <LatitudeDegrees>40.93525028787553310394287109375</LatitudeDegrees>
              <LongitudeDegrees>-1.21388674713671207427978515625</LongitudeDegrees>
            </Position>
            <AltitudeMeters>967.5999755859375</AltitudeMeters>
            <DistanceMeters>580544.9245232</DistanceMeters>
          </Trackpoint>
          <Trackpoint>
            <Time>2021-08-04T08:05:15.000Z</Time>
            <Position>
              <LatitudeDegrees>40.9351336956024169921875</LatitudeDegrees>
              <LongitudeDegrees>-1.21337972581386566162109375</LongitudeDegrees>
            </Position>
            <AltitudeMeters>968.5999755859375</AltitudeMeters>
            <DistanceMeters>580589.48789843</DistanceMeters>
          </Trackpoint>
          <Trackpoint>
            <Time>2021-08-04T08:05:19.000Z</Time>
            <Position>
              <LatitudeDegrees>40.9350932948291301727294921875</LatitudeDegrees>
              <LongitudeDegrees>-1.2132729403674602508544921875</LongitudeDegrees>
            </Position>
            <AltitudeMeters>969.79998779296875</AltitudeMeters>
            <DistanceMeters>580599.52975401</DistanceMeters>
          </Trackpoint>
          <Trackpoint>
            <Time>2021-08-04T08:05:38.000Z</Time>
            <Position>
              <LatitudeDegrees>40.93500486575067043304443359375</LatitudeDegrees>
              <LongitudeDegrees>-1.2125564552843570709228515625</LongitudeDegrees>
            </Position>
            <AltitudeMeters>970.4000244140625</AltitudeMeters>
            <DistanceMeters>580660.57301003</DistanceMeters>
          </Trackpoint>
          <Trackpoint>
            <Time>2021-08-04T08:05:53.000Z</Time>
            <Position>
              <LatitudeDegrees>40.9350956417620182037353515625</LatitudeDegrees>
              <LongitudeDegrees>-1.21192303486168384552001953125</LongitudeDegrees>
            </Position>
            <AltitudeMeters>970.5999755859375</AltitudeMeters>
            <DistanceMeters>580714.78306461</DistanceMeters>
          </Trackpoint>
          <Trackpoint>
            <Time>2021-08-04T08:05:55.000Z</Time>
            <Position>
              <LatitudeDegrees>40.93505063094198703765869140625</LatitudeDegrees>
              <LongitudeDegrees>-1.21188196353614330291748046875</LongitudeDegrees>
            </Position>
            <AltitudeMeters>971</AltitudeMeters>
            <DistanceMeters>580720.86848518</DistanceMeters>
          </Trackpoint>
          <Trackpoint>
            <Time>2021-08-04T08:06:12.000Z</Time>
            <Position>
              <LatitudeDegrees>40.93480579555034637451171875</LatitudeDegrees>
              <LongitudeDegrees>-1.21122146956622600555419921875</LongitudeDegrees>
            </Position>
            <AltitudeMeters>970.79998779296875</AltitudeMeters>
            <DistanceMeters>580782.73051131</DistanceMeters>
          </Trackpoint>
          <Trackpoint>
            <Time>2021-08-04T08:06:24.000Z</Time>
            <Position>
              <LatitudeDegrees>40.93467612750828266143798828125</LatitudeDegrees>
              <LongitudeDegrees>-1.21065066196024417877197265625</LongitudeDegrees>
            </Position>
            <AltitudeMeters>971</AltitudeMeters>
            <DistanceMeters>580832.84897341</DistanceMeters>
          </Trackpoint>
          <Trackpoint>
            <Time>2021-08-04T08:06:38.000Z</Time>
            <Position>
              <LatitudeDegrees>40.9345333836972713470458984375</LatitudeDegrees>
              <LongitudeDegrees>-1.20995731092989444732666015625</LongitudeDegrees>
            </Position>
            <AltitudeMeters>971.5999755859375</AltitudeMeters>
            <DistanceMeters>580893.27475673</DistanceMeters>
          </Trackpoint>
          <Trackpoint>
            <Time>2021-08-04T08:06:46.000Z</Time>
            <Position>
              <LatitudeDegrees>40.93448233790695667266845703125</LatitudeDegrees>
              <LongitudeDegrees>-1.20953603647649288177490234375</LongitudeDegrees>
            </Position>
            <AltitudeMeters>971.20001220703125</AltitudeMeters>
            <DistanceMeters>580929.14995298</DistanceMeters>
          </Trackpoint>
          <Trackpoint>
            <Time>2021-08-04T08:06:52.000Z</Time>
            <Position>
              <LatitudeDegrees>40.93449859879910945892333984375</LatitudeDegrees>
              <LongitudeDegrees>-1.209168322384357452392578125</LongitudeDegrees>
            </Position>
            <AltitudeMeters>970.79998779296875</AltitudeMeters>
            <DistanceMeters>580960.12166524</DistanceMeters>
          </Trackpoint>
          <Trackpoint>
            <Time>2021-08-04T08:07:00.000Z</Time>
            <Position>
              <LatitudeDegrees>40.934355519711971282958984375</LatitudeDegrees>
              <LongitudeDegrees>-1.2088275142014026641845703125</LongitudeDegrees>
            </Position>
            <AltitudeMeters>969.79998779296875</AltitudeMeters>
            <DistanceMeters>580992.90601942</DistanceMeters>
          </Trackpoint>
          <Trackpoint>
            <Time>2021-08-04T08:07:18.000Z</Time>
            <Position>
              <LatitudeDegrees>40.93421847559511661529541015625</LatitudeDegrees>
              <LongitudeDegrees>-1.20813198387622833251953125</LongitudeDegrees>
            </Position>
            <AltitudeMeters>970.5999755859375</AltitudeMeters>
            <DistanceMeters>581053.34569913</DistanceMeters>
          </Trackpoint>
          <Trackpoint>
            <Time>2021-08-04T08:07:21.000Z</Time>
            <Position>
              <LatitudeDegrees>40.9341826848685741424560546875</LatitudeDegrees>
              <LongitudeDegrees>-1.2080359272658824920654296875</LongitudeDegrees>
            </Position>
            <AltitudeMeters>971</AltitudeMeters>
            <DistanceMeters>581062.35120392</DistanceMeters>
          </Trackpoint>
          <Trackpoint>
            <Time>2021-08-04T08:07:32.000Z</Time>
            <Position>
              <LatitudeDegrees>40.93401856720447540283203125</LatitudeDegrees>
              <LongitudeDegrees>-1.20772319845855236053466796875</LongitudeDegrees>
            </Position>
            <AltitudeMeters>971.5999755859375</AltitudeMeters>
            <DistanceMeters>581094.36886152</DistanceMeters>
          </Trackpoint>
          <Trackpoint>
            <Time>2021-08-04T08:07:47.000Z</Time>
            <Position>
              <LatitudeDegrees>40.9336677007377147674560546875</LatitudeDegrees>
              <LongitudeDegrees>-1.2074974738061428070068359375</LongitudeDegrees>
            </Position>
            <AltitudeMeters>971.79998779296875</AltitudeMeters>
            <DistanceMeters>581137.78889561</DistanceMeters>
          </Trackpoint>
          <Trackpoint>
            <Time>2021-08-04T08:07:57.000Z</Time>
            <Position>
              <LatitudeDegrees>40.93348355032503604888916015625</LatitudeDegrees>
              <LongitudeDegrees>-1.20725884102284908294677734375</LongitudeDegrees>
            </Position>
            <AltitudeMeters>972.4000244140625</AltitudeMeters>
            <DistanceMeters>581166.4720132</DistanceMeters>
          </Trackpoint>
          <Trackpoint>
            <Time>2021-08-04T08:07:58.000Z</Time>
            <Position>
              <LatitudeDegrees>40.9334651939570903778076171875</LatitudeDegrees>
              <LongitudeDegrees>-1.2072314321994781494140625</LongitudeDegrees>
            </Position>
            <AltitudeMeters>972.5999755859375</AltitudeMeters>
            <DistanceMeters>581169.55123067</DistanceMeters>
          </Trackpoint>
          <Trackpoint>
            <Time>2021-08-04T08:08:16.000Z</Time>
            <Position>
              <LatitudeDegrees>40.9332408942282199859619140625</LatitudeDegrees>
              <LongitudeDegrees>-1.206563897430896759033203125</LongitudeDegrees>
            </Position>
            <AltitudeMeters>973.4000244140625</AltitudeMeters>
            <DistanceMeters>581230.98274935</DistanceMeters>
          </Trackpoint>
          <Trackpoint>
            <Time>2021-08-04T08:08:27.000Z</Time>
            <Position>
              <LatitudeDegrees>40.93312581069767475128173828125</LatitudeDegrees>
              <LongitudeDegrees>-1.20612007565796375274658203125</LongitudeDegrees>
            </Position>
            <AltitudeMeters>974</AltitudeMeters>
            <DistanceMeters>581270.43886648</DistanceMeters>
          </Trackpoint>
          <Trackpoint>
            <Time>2021-08-04T08:08:43.000Z</Time>
            <Position>
              <LatitudeDegrees>40.933095552027225494384765625</LatitudeDegrees>
              <LongitudeDegrees>-1.2053780257701873779296875</LongitudeDegrees>
            </Position>
            <AltitudeMeters>975.20001220703125</AltitudeMeters>
            <DistanceMeters>581332.92563328</DistanceMeters>
          </Trackpoint>
          <Trackpoint>
            <Time>2021-08-04T08:08:59.000Z</Time>
            <Position>
              <LatitudeDegrees>40.93334826640784740447998046875</LatitudeDegrees>
              <LongitudeDegrees>-1.204729937016963958740234375</LongitudeDegrees>
            </Position>
            <AltitudeMeters>975.79998779296875</AltitudeMeters>
            <DistanceMeters>581394.25159293</DistanceMeters>
          </Trackpoint>
          <Trackpoint>
            <Time>2021-08-04T08:09:06.000Z</Time>
            <Position>
              <LatitudeDegrees>40.93348480761051177978515625</LatitudeDegrees>
              <LongitudeDegrees>-1.2045047990977764129638671875</LongitudeDegrees>
            </Position>
            <AltitudeMeters>976.20001220703125</AltitudeMeters>
            <DistanceMeters>581418.52789638</DistanceMeters>
          </Trackpoint>
          <Trackpoint>
            <Time>2021-08-04T08:09:25.000Z</Time>
            <Position>
              <LatitudeDegrees>40.933600477874279022216796875</LatitudeDegrees>
              <LongitudeDegrees>-1.2038402818143367767333984375</LongitudeDegrees>
            </Position>
            <AltitudeMeters>977</AltitudeMeters>
            <DistanceMeters>581475.86799538</DistanceMeters>
          </Trackpoint>
          <Trackpoint>
            <Time>2021-08-04T08:09:32.000Z</Time>
            <Position>
              <LatitudeDegrees>40.93361950479447841644287109375</LatitudeDegrees>
              <LongitudeDegrees>-1.2036213465034961700439453125</LongitudeDegrees>
            </Position>
            <AltitudeMeters>977</AltitudeMeters>
            <DistanceMeters>581494.39869199</DistanceMeters>
          </Trackpoint>
          <Trackpoint>
            <Time>2021-08-04T08:09:55.000Z</Time>
            <Position>
              <LatitudeDegrees>40.9335887432098388671875</LatitudeDegrees>
              <LongitudeDegrees>-1.2029135785996913909912109375</LongitudeDegrees>
            </Position>
            <AltitudeMeters>977.79998779296875</AltitudeMeters>
            <DistanceMeters>581554.0099126</DistanceMeters>
          </Trackpoint>
          <Trackpoint>
            <Time>2021-08-04T08:10:11.000Z</Time>
            <Position>
              <LatitudeDegrees>40.933507271111011505126953125</LatitudeDegrees>
              <LongitudeDegrees>-1.2024052999913692474365234375</LongitudeDegrees>
            </Position>
            <AltitudeMeters>978.20001220703125</AltitudeMeters>
            <DistanceMeters>581597.70009158</DistanceMeters>
          </Trackpoint>
          <Trackpoint>
            <Time>2021-08-04T08:10:15.000Z</Time>
            <Position>
              <LatitudeDegrees>40.93350081704556941986083984375</LatitudeDegrees>
              <LongitudeDegrees>-1.2023020349442958831787109375</LongitudeDegrees>
            </Position>
            <AltitudeMeters>979.20001220703125</AltitudeMeters>
            <DistanceMeters>581606.41254374</DistanceMeters>
          </Trackpoint>
          <Trackpoint>
            <Time>2021-08-04T08:10:31.000Z</Time>
            <Position>
              <LatitudeDegrees>40.93336570076644420623779296875</LatitudeDegrees>
              <LongitudeDegrees>-1.20169342495501041412353515625</LongitudeDegrees>
            </Position>
            <AltitudeMeters>980.4000244140625</AltitudeMeters>
            <DistanceMeters>581659.75174194</DistanceMeters>
          </Trackpoint>
          <Trackpoint>
            <Time>2021-08-04T08:10:45.000Z</Time>
            <Position>
              <LatitudeDegrees>40.9331651218235492706298828125</LatitudeDegrees>
              <LongitudeDegrees>-1.2011825479567050933837890625</LongitudeDegrees>
            </Position>
            <AltitudeMeters>981.4000244140625</AltitudeMeters>
            <DistanceMeters>581708.16391273</DistanceMeters>
          </Trackpoint>
          <Trackpoint>
            <Time>2021-08-04T08:10:54.000Z</Time>
            <Position>
              <LatitudeDegrees>40.93306210823357105255126953125</LatitudeDegrees>
              <LongitudeDegrees>-1.2008477747440338134765625</LongitudeDegrees>
            </Position>
            <AltitudeMeters>982.4000244140625</AltitudeMeters>
            <DistanceMeters>581738.55909526</DistanceMeters>
          </Trackpoint>
          <Trackpoint>
            <Time>2021-08-04T08:11:03.000Z</Time>
            <Position>
              <LatitudeDegrees>40.93296940438449382781982421875</LatitudeDegrees>
              <LongitudeDegrees>-1.200528927147388458251953125</LongitudeDegrees>
            </Position>
            <AltitudeMeters>983.4000244140625</AltitudeMeters>
            <DistanceMeters>581767.28672563</DistanceMeters>
          </Trackpoint>
          <Trackpoint>
            <Time>2021-08-04T08:11:19.000Z</Time>
            <Position>
              <LatitudeDegrees>40.93268693424761295318603515625</LatitudeDegrees>
              <LongitudeDegrees>-1.200011260807514190673828125</LongitudeDegrees>
            </Position>
            <AltitudeMeters>984.4000244140625</AltitudeMeters>
            <DistanceMeters>581820.98211693</DistanceMeters>
          </Trackpoint>
          <Trackpoint>
            <Time>2021-08-04T08:11:34.000Z</Time>
            <Position>
              <LatitudeDegrees>40.93244184739887714385986328125</LatitudeDegrees>
              <LongitudeDegrees>-1.1995343305170536041259765625</LongitudeDegrees>
            </Position>
            <AltitudeMeters>985.4000244140625</AltitudeMeters>
            <DistanceMeters>581869.48373705</DistanceMeters>
          </Trackpoint>
          <Trackpoint>
            <Time>2021-08-04T08:11:42.000Z</Time>
            <Position>
              <LatitudeDegrees>40.93232232145965099334716796875</LatitudeDegrees>
              <LongitudeDegrees>-1.1992309056222438812255859375</LongitudeDegrees>
            </Position>
            <AltitudeMeters>986.5999755859375</AltitudeMeters>
            <DistanceMeters>581898.25785127</DistanceMeters>
          </Trackpoint>
          <Trackpoint>
            <Time>2021-08-04T08:11:52.000Z</Time>
            <Position>
              <LatitudeDegrees>40.9322233311831951141357421875</LatitudeDegrees>
              <LongitudeDegrees>-1.19884978048503398895263671875</LongitudeDegrees>
            </Position>
            <AltitudeMeters>987.4000244140625</AltitudeMeters>
            <DistanceMeters>581932.14656801</DistanceMeters>
          </Trackpoint>
          <Trackpoint>
            <Time>2021-08-04T08:12:02.000Z</Time>
            <Position>
              <LatitudeDegrees>40.9321780689060688018798828125</LatitudeDegrees>
              <LongitudeDegrees>-1.19845717214047908782958984375</LongitudeDegrees>
            </Position>
            <AltitudeMeters>988.4000244140625</AltitudeMeters>
            <DistanceMeters>581965.54193537</DistanceMeters>
          </Trackpoint>
          <Trackpoint>
            <Time>2021-08-04T08:12:20.000Z</Time>
            <Position>
              <LatitudeDegrees>40.93209098093211650848388671875</LatitudeDegrees>
              <LongitudeDegrees>-1.1977466382086277008056640625</LongitudeDegrees>
            </Position>
            <AltitudeMeters>989</AltitudeMeters>
            <DistanceMeters>582026.06977528</DistanceMeters>
          </Trackpoint>
          <Trackpoint>
            <Time>2021-08-04T08:12:27.000Z</Time>
            <Position>
              <LatitudeDegrees>40.9320419467985630035400390625</LatitudeDegrees>
              <LongitudeDegrees>-1.1974646709859371185302734375</LongitudeDegrees>
            </Position>
            <AltitudeMeters>989.4000244140625</AltitudeMeters>
            <DistanceMeters>582050.39958356</DistanceMeters>
          </Trackpoint>
          <Trackpoint>
            <Time>2021-08-04T08:12:44.000Z</Time>
            <Position>
              <LatitudeDegrees>40.93209299258887767791748046875</LatitudeDegrees>
              <LongitudeDegrees>-1.19672563858330249786376953125</LongitudeDegrees>
            </Position>
            <AltitudeMeters>990.4000244140625</AltitudeMeters>
            <DistanceMeters>582112.80197074</DistanceMeters>
          </Trackpoint>
          <Trackpoint>
            <Time>2021-08-04T08:13:01.000Z</Time>
            <Position>
              <LatitudeDegrees>40.9321881271898746490478515625</LatitudeDegrees>
              <LongitudeDegrees>-1.19598752819001674652099609375</LongitudeDegrees>
            </Position>
            <AltitudeMeters>991.20001220703125</AltitudeMeters>
            <DistanceMeters>582175.76417908</DistanceMeters>
          </Trackpoint>
          <Trackpoint>
            <Time>2021-08-04T08:13:02.000Z</Time>
            <Position>
              <LatitudeDegrees>40.932195000350475311279296875</LatitudeDegrees>
              <LongitudeDegrees>-1.19594159536063671112060546875</LongitudeDegrees>
            </Position>
            <AltitudeMeters>991.5999755859375</AltitudeMeters>
            <DistanceMeters>582179.70062559</DistanceMeters>
          </Trackpoint>
          <Trackpoint>
            <Time>2021-08-04T08:13:14.000Z</Time>
            <Position>
              <LatitudeDegrees>40.9323172084987163543701171875</LatitudeDegrees>
              <LongitudeDegrees>-1.19541085325181484222412109375</LongitudeDegrees>
            </Position>
            <AltitudeMeters>992.5999755859375</AltitudeMeters>
            <DistanceMeters>582226.35593598</DistanceMeters>
          </Trackpoint>
          <Trackpoint>
            <Time>2021-08-04T08:13:31.000Z</Time>
            <Position>
              <LatitudeDegrees>40.93255751766264438629150390625</LatitudeDegrees>
              <LongitudeDegrees>-1.1947449110448360443115234375</LongitudeDegrees>
            </Position>
            <AltitudeMeters>993</AltitudeMeters>
            <DistanceMeters>582288.41274601</DistanceMeters>
          </Trackpoint>
          <Trackpoint>
            <Time>2021-08-04T08:13:39.000Z</Time>
            <Position>
              <LatitudeDegrees>40.93268022872507572174072265625</LatitudeDegrees>
              <LongitudeDegrees>-1.1944491975009441375732421875</LongitudeDegrees>
            </Position>
            <AltitudeMeters>993.4000244140625</AltitudeMeters>
            <DistanceMeters>582316.78231867</DistanceMeters>
          </Trackpoint>
          <Trackpoint>
            <Time>2021-08-04T08:13:47.000Z</Time>
            <Position>
              <LatitudeDegrees>40.93280880711972713470458984375</LatitudeDegrees>
              <LongitudeDegrees>-1.19419262744486331939697265625</LongitudeDegrees>
            </Position>
            <AltitudeMeters>994</AltitudeMeters>
            <DistanceMeters>582342.67147459</DistanceMeters>
          </Trackpoint>
          <Trackpoint>
            <Time>2021-08-04T08:13:50.000Z</Time>
            <Position>
              <LatitudeDegrees>40.93286580406129360198974609375</LatitudeDegrees>
              <LongitudeDegrees>-1.19418860413134098052978515625</LongitudeDegrees>
            </Position>
            <AltitudeMeters>994.4000244140625</AltitudeMeters>
            <DistanceMeters>582349.02477623</DistanceMeters>
          </Trackpoint>
          <Trackpoint>
            <Time>2021-08-04T08:13:53.000Z</Time>
            <Position>
              <LatitudeDegrees>40.93287703581154346466064453125</LatitudeDegrees>
              <LongitudeDegrees>-1.19425381533801555633544921875</LongitudeDegrees>
            </Position>
            <AltitudeMeters>994.79998779296875</AltitudeMeters>
            <DistanceMeters>582354.64984404</DistanceMeters>
          </Trackpoint>
          <Trackpoint>
            <Time>2021-08-04T08:14:13.000Z</Time>
            <Position>
              <LatitudeDegrees>40.93289732001721858978271484375</LatitudeDegrees>
              <LongitudeDegrees>-1.19499242864549160003662109375</LongitudeDegrees>
            </Position>
            <AltitudeMeters>995.4000244140625</AltitudeMeters>
            <DistanceMeters>582416.79796909</DistanceMeters>
          </Trackpoint>
          <Trackpoint>
            <Time>2021-08-04T08:14:16.000Z</Time>
            <Position>
              <LatitudeDegrees>40.93292615376412868499755859375</LatitudeDegrees>
              <LongitudeDegrees>-1.19509644806385040283203125</LongitudeDegrees>
            </Position>
            <AltitudeMeters>995.5999755859375</AltitudeMeters>
            <DistanceMeters>582426.11446493</DistanceMeters>
          </Trackpoint>
          <Trackpoint>
            <Time>2021-08-04T08:14:33.000Z</Time>
            <Position>
              <LatitudeDegrees>40.933115668594837188720703125</LatitudeDegrees>
              <LongitudeDegrees>-1.195749901235103607177734375</LongitudeDegrees>
            </Position>
            <AltitudeMeters>996.4000244140625</AltitudeMeters>
            <DistanceMeters>582484.97030206</DistanceMeters>
          </Trackpoint>
          <Trackpoint>
            <Time>2021-08-04T08:14:35.000Z</Time>
            <Position>
              <LatitudeDegrees>40.9331118129193782806396484375</LatitudeDegrees>
              <LongitudeDegrees>-1.19582961313426494598388671875</LongitudeDegrees>
            </Position>
            <AltitudeMeters>996.5999755859375</AltitudeMeters>
            <DistanceMeters>582491.68634493</DistanceMeters>
          </Trackpoint>
          <Trackpoint>
            <Time>2021-08-04T08:14:50.000Z</Time>
            <Position>
              <LatitudeDegrees>40.93306764028966426849365234375</LatitudeDegrees>
              <LongitudeDegrees>-1.196437217295169830322265625</LongitudeDegrees>
            </Position>
            <AltitudeMeters>997.79998779296875</AltitudeMeters>
            <DistanceMeters>582543.01326342</DistanceMeters>
          </Trackpoint>
          <Trackpoint>
            <Time>2021-08-04T08:15:07.000Z</Time>
            <Position>
              <LatitudeDegrees>40.93327484093606472015380859375</LatitudeDegrees>
              <LongitudeDegrees>-1.19712285697460174560546875</LongitudeDegrees>
            </Position>
            <AltitudeMeters>997.79998779296875</AltitudeMeters>
            <DistanceMeters>582605.10724091</DistanceMeters>
          </Trackpoint>
          <Trackpoint>
            <Time>2021-08-04T08:15:17.000Z</Time>
            <Position>
              <LatitudeDegrees>40.93349277041852474212646484375</LatitudeDegrees>
              <LongitudeDegrees>-1.19745318777859210968017578125</LongitudeDegrees>
            </Position>
            <AltitudeMeters>998.79998779296875</AltitudeMeters>
            <DistanceMeters>582641.98372843</DistanceMeters>
          </Trackpoint>
          <Trackpoint>
            <Time>2021-08-04T08:15:32.000Z</Time>
            <Position>
              <LatitudeDegrees>40.93394338153302669525146484375</LatitudeDegrees>
              <LongitudeDegrees>-1.197903044521808624267578125</LongitudeDegrees>
            </Position>
            <AltitudeMeters>997.5999755859375</AltitudeMeters>
            <DistanceMeters>582704.80292746</DistanceMeters>
          </Trackpoint>
          <Trackpoint>
            <Time>2021-08-04T08:15:45.000Z</Time>
            <Position>
              <LatitudeDegrees>40.9342279471457004547119140625</LatitudeDegrees>
              <LongitudeDegrees>-1.198499165475368499755859375</LongitudeDegrees>
            </Position>
            <AltitudeMeters>998.5999755859375</AltitudeMeters>
            <DistanceMeters>582764.09578995</DistanceMeters>
          </Trackpoint>
          <Trackpoint>
            <Time>2021-08-04T08:15:50.000Z</Time>
            <Position>
              <LatitudeDegrees>40.9342859499156475067138671875</LatitudeDegrees>
              <LongitudeDegrees>-1.19868524372577667236328125</LongitudeDegrees>
            </Position>
            <AltitudeMeters>999.79998779296875</AltitudeMeters>
            <DistanceMeters>582781.02148566</DistanceMeters>
          </Trackpoint>
          <Trackpoint>
            <Time>2021-08-04T08:16:07.000Z</Time>
            <Position>
              <LatitudeDegrees>40.934650562703609466552734375</LatitudeDegrees>
              <LongitudeDegrees>-1.19922193698585033416748046875</LongitudeDegrees>
            </Position>
            <AltitudeMeters>1000.4000244140625</AltitudeMeters>
            <DistanceMeters>582841.71254185</DistanceMeters>
          </Trackpoint>
          <Trackpoint>
            <Time>2021-08-04T08:16:09.000Z</Time>
            <Position>
              <LatitudeDegrees>40.9346849285066127777099609375</LatitudeDegrees>
              <LongitudeDegrees>-1.19928681291639804840087890625</LongitudeDegrees>
            </Position>
            <AltitudeMeters>1000.79998779296875</AltitudeMeters>
            <DistanceMeters>582848.3752632</DistanceMeters>
          </Trackpoint>
          <Trackpoint>
            <Time>2021-08-04T08:16:14.000Z</Time>
            <Position>
              <LatitudeDegrees>40.93477704562246799468994140625</LatitudeDegrees>
              <LongitudeDegrees>-1.19942528195679187774658203125</LongitudeDegrees>
            </Position>
            <AltitudeMeters>1001.79998779296875</AltitudeMeters>
            <DistanceMeters>582863.88879269</DistanceMeters>
          </Trackpoint>
          <Trackpoint>
            <Time>2021-08-04T08:16:22.000Z</Time>
            <Position>
              <LatitudeDegrees>40.9349544905126094818115234375</LatitudeDegrees>
              <LongitudeDegrees>-1.1996211670339107513427734375</LongitudeDegrees>
            </Position>
            <AltitudeMeters>1002.79998779296875</AltitudeMeters>
            <DistanceMeters>582889.60541647</DistanceMeters>
          </Trackpoint>
          <Trackpoint>
            <Time>2021-08-04T08:16:27.000Z</Time>
            <Position>
              <LatitudeDegrees>40.9350661374628543853759765625</LatitudeDegrees>
              <LongitudeDegrees>-1.19974647648632526397705078125</LongitudeDegrees>
            </Position>
            <AltitudeMeters>1004</AltitudeMeters>
            <DistanceMeters>582905.89771825</DistanceMeters>
          </Trackpoint>
          <Trackpoint>
            <Time>2021-08-04T08:16:33.000Z</Time>
            <Position>
              <LatitudeDegrees>40.935197062790393829345703125</LatitudeDegrees>
              <LongitudeDegrees>-1.19987170211970806121826171875</LongitudeDegrees>
            </Position>
            <AltitudeMeters>1005</AltitudeMeters>
            <DistanceMeters>582923.87610962</DistanceMeters>
          </Trackpoint>
          <Trackpoint>
            <Time>2021-08-04T08:16:41.000Z</Time>
            <Position>
              <LatitudeDegrees>40.9354584105312824249267578125</LatitudeDegrees>
              <LongitudeDegrees>-1.19998385198414325714111328125</LongitudeDegrees>
            </Position>
            <AltitudeMeters>1003.5999755859375</AltitudeMeters>
            <DistanceMeters>582954.45493261</DistanceMeters>
          </Trackpoint>
          <Trackpoint>
            <Time>2021-08-04T08:16:43.000Z</Time>
            <Position>
              <LatitudeDegrees>40.9355630166828632354736328125</LatitudeDegrees>
              <LongitudeDegrees>-1.200012601912021636962890625</LongitudeDegrees>
            </Position>
            <AltitudeMeters>1002.20001220703125</AltitudeMeters>
            <DistanceMeters>582966.34580882</DistanceMeters>
          </Trackpoint>
          <Trackpoint>
            <Time>2021-08-04T08:16:44.000Z</Time>
            <Position>
              <LatitudeDegrees>40.93562043271958827972412109375</LatitudeDegrees>
              <LongitudeDegrees>-1.2000204809010028839111328125</LongitudeDegrees>
            </Position>
            <AltitudeMeters>1001.5999755859375</AltitudeMeters>
            <DistanceMeters>582972.77118892</DistanceMeters>
          </Trackpoint>
          <Trackpoint>
            <Time>2021-08-04T08:16:45.000Z</Time>
            <Position>
              <LatitudeDegrees>40.93567893840372562408447265625</LatitudeDegrees>
              <LongitudeDegrees>-1.20001888833940029144287109375</LongitudeDegrees>
            </Position>
            <AltitudeMeters>1000.79998779296875</AltitudeMeters>
            <DistanceMeters>582979.28381275</DistanceMeters>
          </Trackpoint>
          <Trackpoint>
            <Time>2021-08-04T08:16:47.000Z</Time>
            <Position>
              <LatitudeDegrees>40.93580164946615695953369140625</LatitudeDegrees>
              <LongitudeDegrees>-1.2000070698559284210205078125</LongitudeDegrees>
            </Position>
            <AltitudeMeters>999.79998779296875</AltitudeMeters>
            <DistanceMeters>582992.97821407</DistanceMeters>
          </Trackpoint>
          <Trackpoint>
            <Time>2021-08-04T08:16:48.000Z</Time>
            <Position>
              <LatitudeDegrees>40.9358687885105609893798828125</LatitudeDegrees>
              <LongitudeDegrees>-1.20000950060784816741943359375</LongitudeDegrees>
            </Position>
            <AltitudeMeters>999</AltitudeMeters>
            <DistanceMeters>583000.45398447</DistanceMeters>
          </Trackpoint>
          <Trackpoint>
            <Time>2021-08-04T08:16:49.000Z</Time>
            <Position>
              <LatitudeDegrees>40.9359358437359333038330078125</LatitudeDegrees>
              <LongitudeDegrees>-1.200028359889984130859375</LongitudeDegrees>
            </Position>
            <AltitudeMeters>998</AltitudeMeters>
            <DistanceMeters>583008.08339289</DistanceMeters>
          </Trackpoint>
          <Trackpoint>
            <Time>2021-08-04T08:16:51.000Z</Time>
            <Position>
              <LatitudeDegrees>40.93604656867682933807373046875</LatitudeDegrees>
              <LongitudeDegrees>-1.20010538958013057708740234375</LongitudeDegrees>
            </Position>
            <AltitudeMeters>996.79998779296875</AltitudeMeters>
            <DistanceMeters>583022.0053741</DistanceMeters>
          </Trackpoint>
          <Trackpoint>
            <Time>2021-08-04T08:16:52.000Z</Time>
            <Position>
              <LatitudeDegrees>40.9360793419182300567626953125</LatitudeDegrees>
              <LongitudeDegrees>-1.20015819557011127471923828125</LongitudeDegrees>
            </Position>
            <AltitudeMeters>996.4000244140625</AltitudeMeters>
            <DistanceMeters>583027.75115163</DistanceMeters>
          </Trackpoint>
          <Trackpoint>
            <Time>2021-08-04T08:16:58.000Z</Time>
            <Position>
              <LatitudeDegrees>40.9359801001846790313720703125</LatitudeDegrees>
              <LongitudeDegrees>-1.20048877783119678497314453125</LongitudeDegrees>
            </Position>
            <AltitudeMeters>995.5999755859375</AltitudeMeters>
            <DistanceMeters>583057.66147984</DistanceMeters>
          </Trackpoint>
          <Trackpoint>
            <Time>2021-08-04T08:17:00.000Z</Time>
            <Position>
              <LatitudeDegrees>40.93595805577933788299560546875</LatitudeDegrees>
              <LongitudeDegrees>-1.20062205009162425994873046875</LongitudeDegrees>
            </Position>
            <AltitudeMeters>994.5999755859375</AltitudeMeters>
            <DistanceMeters>583069.13337306</DistanceMeters>
          </Trackpoint>
          <Trackpoint>
            <Time>2021-08-04T08:17:02.000Z</Time>
            <Position>
              <LatitudeDegrees>40.93595487065613269805908203125</LatitudeDegrees>
              <LongitudeDegrees>-1.2007818929851055145263671875</LongitudeDegrees>
            </Position>
            <AltitudeMeters>993.5999755859375</AltitudeMeters>
            <DistanceMeters>583082.57822599</DistanceMeters>
          </Trackpoint>
          <Trackpoint>
            <Time>2021-08-04T08:17:04.000Z</Time>
            <Position>
              <LatitudeDegrees>40.93596023507416248321533203125</LatitudeDegrees>
              <LongitudeDegrees>-1.2009763531386852264404296875</LongitudeDegrees>
            </Position>
            <AltitudeMeters>991.4000244140625</AltitudeMeters>
            <DistanceMeters>583098.93966285</DistanceMeters>
          </Trackpoint>
          <Trackpoint>
            <Time>2021-08-04T08:17:06.000Z</Time>
            <Position>
              <LatitudeDegrees>40.93597616069018840789794921875</LatitudeDegrees>
              <LongitudeDegrees>-1.20117257349193096160888671875</LongitudeDegrees>
            </Position>
            <AltitudeMeters>988.5999755859375</AltitudeMeters>
            <DistanceMeters>583115.53318842</DistanceMeters>
          </Trackpoint>
          <Trackpoint>
            <Time>2021-08-04T08:17:07.000Z</Time>
            <Position>
              <LatitudeDegrees>40.935989655554294586181640625</LatitudeDegrees>
              <LongitudeDegrees>-1.2012661993503570556640625</LongitudeDegrees>
            </Position>
            <AltitudeMeters>987.4000244140625</AltitudeMeters>
            <DistanceMeters>583123.5470454</DistanceMeters>
          </Trackpoint>
          <Trackpoint>
            <Time>2021-08-04T08:17:09.000Z</Time>
            <Position>
              <LatitudeDegrees>40.93601488508284091949462890625</LatitudeDegrees>
              <LongitudeDegrees>-1.201443560421466827392578125</LongitudeDegrees>
            </Position>
            <AltitudeMeters>986.4000244140625</AltitudeMeters>
            <DistanceMeters>583138.72159479</DistanceMeters>
          </Trackpoint>
          <Trackpoint>
            <Time>2021-08-04T08:17:13.000Z</Time>
            <Position>
              <LatitudeDegrees>40.9360605664551258087158203125</LatitudeDegrees>
              <LongitudeDegrees>-1.20163843967020511627197265625</LongitudeDegrees>
            </Position>
            <AltitudeMeters>986</AltitudeMeters>
            <DistanceMeters>583155.87806214</DistanceMeters>
          </Trackpoint>
          <Trackpoint>
            <Time>2021-08-04T08:17:15.000Z</Time>
            <Position>
              <LatitudeDegrees>40.936069451272487640380859375</LatitudeDegrees>
              <LongitudeDegrees>-1.20165520347654819488525390625</LongitudeDegrees>
            </Position>
            <AltitudeMeters>985.5999755859375</AltitudeMeters>
            <DistanceMeters>583157.59906913</DistanceMeters>
          </Trackpoint>
          <Trackpoint>
            <Time>2021-08-04T08:17:50.000Z</Time>
            <Position>
              <LatitudeDegrees>40.9361809305846691131591796875</LatitudeDegrees>
              <LongitudeDegrees>-1.2017394416034221649169921875</LongitudeDegrees>
            </Position>
            <AltitudeMeters>985.4000244140625</AltitudeMeters>
            <DistanceMeters>583171.8859809</DistanceMeters>
          </Trackpoint>
          <Trackpoint>
            <Time>2021-08-04T08:17:51.000Z</Time>
            <Position>
              <LatitudeDegrees>40.93619375489652156829833984375</LatitudeDegrees>
              <LongitudeDegrees>-1.20174841023981571197509765625</LongitudeDegrees>
            </Position>
            <AltitudeMeters>985.4000244140625</AltitudeMeters>
            <DistanceMeters>583173.49863772</DistanceMeters>
          </Trackpoint>
          <Trackpoint>
            <Time>2021-08-04T08:18:07.000Z</Time>
            <Position>
              <LatitudeDegrees>40.93648510985076427459716796875</LatitudeDegrees>
              <LongitudeDegrees>-1.20181043632328510284423828125</LongitudeDegrees>
            </Position>
            <AltitudeMeters>986.5999755859375</AltitudeMeters>
            <DistanceMeters>583206.34380742</DistanceMeters>
          </Trackpoint>
          <Trackpoint>
            <Time>2021-08-04T08:18:25.000Z</Time>
            <Position>
              <LatitudeDegrees>40.93704217113554477691650390625</LatitudeDegrees>
              <LongitudeDegrees>-1.20167213492095470428466796875</LongitudeDegrees>
            </Position>
            <AltitudeMeters>986.20001220703125</AltitudeMeters>
            <DistanceMeters>583269.4269466</DistanceMeters>
          </Trackpoint>
          <Trackpoint>
            <Time>2021-08-04T08:18:42.000Z</Time>
            <Position>
              <LatitudeDegrees>40.93756017275154590606689453125</LatitudeDegrees>
              <LongitudeDegrees>-1.201466359198093414306640625</LongitudeDegrees>
            </Position>
            <AltitudeMeters>987.4000244140625</AltitudeMeters>
            <DistanceMeters>583329.62155112</DistanceMeters>
          </Trackpoint>
          <Trackpoint>
            <Time>2021-08-04T08:18:44.000Z</Time>
            <Position>
              <LatitudeDegrees>40.937622450292110443115234375</LatitudeDegrees>
              <LongitudeDegrees>-1.20142654515802860260009765625</LongitudeDegrees>
            </Position>
            <AltitudeMeters>987.79998779296875</AltitudeMeters>
            <DistanceMeters>583337.31930155</DistanceMeters>
          </Trackpoint>
          <Trackpoint>
            <Time>2021-08-04T08:18:53.000Z</Time>
            <Position>
              <LatitudeDegrees>40.93787684105336666107177734375</LatitudeDegrees>
              <LongitudeDegrees>-1.20118548162281513214111328125</LongitudeDegrees>
            </Position>
            <AltitudeMeters>988.79998779296875</AltitudeMeters>
            <DistanceMeters>583372.14033663</DistanceMeters>
          </Trackpoint>
          <Trackpoint>
            <Time>2021-08-04T08:19:10.000Z</Time>
            <Position>
              <LatitudeDegrees>40.9384410269558429718017578125</LatitudeDegrees>
              <LongitudeDegrees>-1.20117726735770702362060546875</LongitudeDegrees>
            </Position>
            <AltitudeMeters>989.5999755859375</AltitudeMeters>
            <DistanceMeters>583434.93912026</DistanceMeters>
          </Trackpoint>
          <Trackpoint>
            <Time>2021-08-04T08:19:11.000Z</Time>
            <Position>
              <LatitudeDegrees>40.93847329728305339813232421875</LatitudeDegrees>
              <LongitudeDegrees>-1.2011830508708953857421875</LongitudeDegrees>
            </Position>
            <AltitudeMeters>989.79998779296875</AltitudeMeters>
            <DistanceMeters>583438.56261735</DistanceMeters>
          </Trackpoint>
          <Trackpoint>
            <Time>2021-08-04T08:19:16.000Z</Time>
            <Position>
              <LatitudeDegrees>40.938628613948822021484375</LatitudeDegrees>
              <LongitudeDegrees>-1.20121146552264690399169921875</LongitudeDegrees>
            </Position>
            <AltitudeMeters>990.79998779296875</AltitudeMeters>
            <DistanceMeters>583456.01367257</DistanceMeters>
          </Trackpoint>
          <Trackpoint>
            <Time>2021-08-04T08:19:30.000Z</Time>
            <Position>
              <LatitudeDegrees>40.9390430152416229248046875</LatitudeDegrees>
              <LongitudeDegrees>-1.20129126124083995819091796875</LongitudeDegrees>
            </Position>
            <AltitudeMeters>992</AltitudeMeters>
            <DistanceMeters>583502.62270185</DistanceMeters>
          </Trackpoint>
          <Trackpoint>
            <Time>2021-08-04T08:19:48.000Z</Time>
            <Position>
              <LatitudeDegrees>40.9396144933998584747314453125</LatitudeDegrees>
              <LongitudeDegrees>-1.2013082765042781829833984375</LongitudeDegrees>
            </Position>
            <AltitudeMeters>993</AltitudeMeters>
            <DistanceMeters>583566.24541129</DistanceMeters>
          </Trackpoint>
          <Trackpoint>
            <Time>2021-08-04T08:19:58.000Z</Time>
            <Position>
              <LatitudeDegrees>40.93992973677814006805419921875</LatitudeDegrees>
              <LongitudeDegrees>-1.20122722350060939788818359375</LongitudeDegrees>
            </Position>
            <AltitudeMeters>992.79998779296875</AltitudeMeters>
            <DistanceMeters>583601.98834283</DistanceMeters>
          </Trackpoint>
          <Trackpoint>
            <Time>2021-08-04T08:20:06.000Z</Time>
            <Position>
              <LatitudeDegrees>40.94017817638814449310302734375</LatitudeDegrees>
              <LongitudeDegrees>-1.20113150216639041900634765625</LongitudeDegrees>
            </Position>
            <AltitudeMeters>994</AltitudeMeters>
            <DistanceMeters>583630.78755222</DistanceMeters>
          </Trackpoint>
          <Trackpoint>
            <Time>2021-08-04T08:20:19.000Z</Time>
            <Position>
              <LatitudeDegrees>40.94058084301650524139404296875</LatitudeDegrees>
              <LongitudeDegrees>-1.2009837292134761810302734375</LongitudeDegrees>
            </Position>
            <AltitudeMeters>995.20001220703125</AltitudeMeters>
            <DistanceMeters>583677.29533878</DistanceMeters>
          </Trackpoint>
          <Trackpoint>
            <Time>2021-08-04T08:20:36.000Z</Time>
            <Position>
              <LatitudeDegrees>40.94112365506589412689208984375</LatitudeDegrees>
              <LongitudeDegrees>-1.20087803341448307037353515625</LongitudeDegrees>
            </Position>
            <AltitudeMeters>996</AltitudeMeters>
            <DistanceMeters>583738.36144556</DistanceMeters>
          </Trackpoint>
          <Trackpoint>
            <Time>2021-08-04T08:20:39.000Z</Time>
            <Position>
              <LatitudeDegrees>40.94121669419109821319580078125</LatitudeDegrees>
              <LongitudeDegrees>-1.20093100704252719879150390625</LongitudeDegrees>
            </Position>
            <AltitudeMeters>996.20001220703125</AltitudeMeters>
            <DistanceMeters>583749.63403336</DistanceMeters>
          </Trackpoint>
          <Trackpoint>
            <Time>2021-08-04T08:20:47.000Z</Time>
            <Position>
              <LatitudeDegrees>40.941458679735660552978515625</LatitudeDegrees>
              <LongitudeDegrees>-1.201002337038516998291015625</LongitudeDegrees>
            </Position>
            <AltitudeMeters>997.20001220703125</AltitudeMeters>
            <DistanceMeters>583777.2271471</DistanceMeters>
          </Trackpoint>
          <Trackpoint>
            <Time>2021-08-04T08:21:04.000Z</Time>
            <Position>
              <LatitudeDegrees>40.9417294152081012725830078125</LatitudeDegrees>
              <LongitudeDegrees>-1.20038844645023345947265625</LongitudeDegrees>
            </Position>
            <AltitudeMeters>998</AltitudeMeters>
            <DistanceMeters>583836.99268046</DistanceMeters>
          </Trackpoint>
          <Trackpoint>
            <Time>2021-08-04T08:21:05.000Z</Time>
            <Position>
              <LatitudeDegrees>40.941734611988067626953125</LatitudeDegrees>
              <LongitudeDegrees>-1.2003470398485660552978515625</LongitudeDegrees>
            </Position>
            <AltitudeMeters>998</AltitudeMeters>
            <DistanceMeters>583840.52276622</DistanceMeters>
          </Trackpoint>
          <Trackpoint>
            <Time>2021-08-04T08:21:13.000Z</Time>
            <Position>
              <LatitudeDegrees>40.94181784428656101226806640625</LatitudeDegrees>
              <LongitudeDegrees>-1.2000633962452411651611328125</LongitudeDegrees>
            </Position>
            <AltitudeMeters>999.20001220703125</AltitudeMeters>
            <DistanceMeters>583866.10613916</DistanceMeters>
          </Trackpoint>
          <Trackpoint>
            <Time>2021-08-04T08:21:23.000Z</Time>
            <Position>
              <LatitudeDegrees>40.942030660808086395263671875</LatitudeDegrees>
              <LongitudeDegrees>-1.199869774281978607177734375</LongitudeDegrees>
            </Position>
            <AltitudeMeters>1000.5999755859375</AltitudeMeters>
            <DistanceMeters>583894.8475969</DistanceMeters>
          </Trackpoint>
          <Trackpoint>
            <Time>2021-08-04T08:21:42.000Z</Time>
            <Position>
              <LatitudeDegrees>40.94258378259837627410888671875</LatitudeDegrees>
              <LongitudeDegrees>-1.19975988753139972686767578125</LongitudeDegrees>
            </Position>
            <AltitudeMeters>1001.20001220703125</AltitudeMeters>
            <DistanceMeters>583957.10046709</DistanceMeters>
          </Trackpoint>
          <Trackpoint>
            <Time>2021-08-04T08:21:45.000Z</Time>
            <Position>
              <LatitudeDegrees>40.94266869127750396728515625</LatitudeDegrees>
              <LongitudeDegrees>-1.19971512816846370697021484375</LongitudeDegrees>
            </Position>
            <AltitudeMeters>1001.5999755859375</AltitudeMeters>
            <DistanceMeters>583967.27276506</DistanceMeters>
          </Trackpoint>
          <Trackpoint>
            <Time>2021-08-04T08:21:49.000Z</Time>
            <Position>
              <LatitudeDegrees>40.94277790747582912445068359375</LatitudeDegrees>
              <LongitudeDegrees>-1.19964287616312503814697265625</LongitudeDegrees>
            </Position>
            <AltitudeMeters>1002.5999755859375</AltitudeMeters>
            <DistanceMeters>583980.86191747</DistanceMeters>
          </Trackpoint>
          <Trackpoint>
            <Time>2021-08-04T08:22:07.000Z</Time>
            <Position>
              <LatitudeDegrees>40.9432928077876567840576171875</LatitudeDegrees>
              <LongitudeDegrees>-1.1997116915881633758544921875</LongitudeDegrees>
            </Position>
            <AltitudeMeters>1003</AltitudeMeters>
            <DistanceMeters>584038.46268784</DistanceMeters>
          </Trackpoint>
          <Trackpoint>
            <Time>2021-08-04T08:22:19.000Z</Time>
            <Position>
              <LatitudeDegrees>40.9436468593776226043701171875</LatitudeDegrees>
              <LongitudeDegrees>-1.19981579482555389404296875</LongitudeDegrees>
            </Position>
            <AltitudeMeters>1003.5999755859375</AltitudeMeters>
            <DistanceMeters>584078.82958424</DistanceMeters>
          </Trackpoint>
          <Trackpoint>
            <Time>2021-08-04T08:22:38.000Z</Time>
            <Position>
              <LatitudeDegrees>40.94416779465973377227783203125</LatitudeDegrees>
              <LongitudeDegrees>-1.20008845813572406768798828125</LongitudeDegrees>
            </Position>
            <AltitudeMeters>1004.79998779296875</AltitudeMeters>
            <DistanceMeters>584141.17768259</DistanceMeters>
          </Trackpoint>
          <Trackpoint>
            <Time>2021-08-04T08:22:47.000Z</Time>
            <Position>
              <LatitudeDegrees>40.9444451518356800079345703125</LatitudeDegrees>
              <LongitudeDegrees>-1.200103126466274261474609375</LongitudeDegrees>
            </Position>
            <AltitudeMeters>1005.79998779296875</AltitudeMeters>
            <DistanceMeters>584172.07261972</DistanceMeters>
          </Trackpoint>
          <Trackpoint>
            <Time>2021-08-04T08:23:03.000Z</Time>
            <Position>
              <LatitudeDegrees>40.94490339048206806182861328125</LatitudeDegrees>
              <LongitudeDegrees>-1.19985208846628665924072265625</LongitudeDegrees>
            </Position>
            <AltitudeMeters>1006.5999755859375</AltitudeMeters>
            <DistanceMeters>584227.26980925</DistanceMeters>
          </Trackpoint>
          <Trackpoint>
            <Time>2021-08-04T08:23:21.000Z</Time>
            <Position>
              <LatitudeDegrees>40.94526565633714199066162109375</LatitudeDegrees>
              <LongitudeDegrees>-1.199286393821239471435546875</LongitudeDegrees>
            </Position>
            <AltitudeMeters>1007.20001220703125</AltitudeMeters>
            <DistanceMeters>584289.62015247</DistanceMeters>
          </Trackpoint>
          <Trackpoint>
            <Time>2021-08-04T08:23:23.000Z</Time>
            <Position>
              <LatitudeDegrees>40.94531443901360034942626953125</LatitudeDegrees>
              <LongitudeDegrees>-1.19923702441155910491943359375</LongitudeDegrees>
            </Position>
            <AltitudeMeters>1007.5999755859375</AltitudeMeters>
            <DistanceMeters>584296.45481306</DistanceMeters>
          </Trackpoint>
          <Trackpoint>
            <Time>2021-08-04T08:23:40.000Z</Time>
            <Position>
              <LatitudeDegrees>40.9458512999117374420166015625</LatitudeDegrees>
              <LongitudeDegrees>-1.19924792088568210601806640625</LongitudeDegrees>
            </Position>
            <AltitudeMeters>1008.79998779296875</AltitudeMeters>
            <DistanceMeters>584356.2155113</DistanceMeters>
          </Trackpoint>
          <Trackpoint>
            <Time>2021-08-04T08:24:01.000Z</Time>
            <Position>
              <LatitudeDegrees>40.94638866372406482696533203125</LatitudeDegrees>
              <LongitudeDegrees>-1.19941337965428829193115234375</LongitudeDegrees>
            </Position>
            <AltitudeMeters>1009</AltitudeMeters>
            <DistanceMeters>584417.62144766</DistanceMeters>
          </Trackpoint>
          <Trackpoint>
            <Time>2021-08-04T08:24:08.000Z</Time>
            <Position>
              <LatitudeDegrees>40.946587063372135162353515625</LatitudeDegrees>
              <LongitudeDegrees>-1.19953206740319728851318359375</LongitudeDegrees>
            </Position>
            <AltitudeMeters>1009.79998779296875</AltitudeMeters>
            <DistanceMeters>584441.8530735</DistanceMeters>
          </Trackpoint>
          <Trackpoint>
            <Time>2021-08-04T08:24:21.000Z</Time>
            <Position>
              <LatitudeDegrees>40.94699886627495288848876953125</LatitudeDegrees>
              <LongitudeDegrees>-1.19976961053907871246337890625</LongitudeDegrees>
            </Position>
            <AltitudeMeters>1010.79998779296875</AltitudeMeters>
            <DistanceMeters>584491.84904734</DistanceMeters>
          </Trackpoint>
          <Trackpoint>
            <Time>2021-08-04T08:24:32.000Z</Time>
            <Position>
              <LatitudeDegrees>40.9473216533660888671875</LatitudeDegrees>
              <LongitudeDegrees>-1.199631057679653167724609375</LongitudeDegrees>
            </Position>
            <AltitudeMeters>1012</AltitudeMeters>
            <DistanceMeters>584529.6171158</DistanceMeters>
          </Trackpoint>
          <Trackpoint>
            <Time>2021-08-04T08:24:38.000Z</Time>
            <Position>
              <LatitudeDegrees>40.9474770538508892059326171875</LatitudeDegrees>
              <LongitudeDegrees>-1.1995175667107105255126953125</LongitudeDegrees>
            </Position>
            <AltitudeMeters>1013.20001220703125</AltitudeMeters>
            <DistanceMeters>584549.37033334</DistanceMeters>
          </Trackpoint>
          <Trackpoint>
            <Time>2021-08-04T08:24:56.000Z</Time>
            <Position>
              <LatitudeDegrees>40.9478847496211528778076171875</LatitudeDegrees>
              <LongitudeDegrees>-1.199022866785526275634765625</LongitudeDegrees>
            </Position>
            <AltitudeMeters>1014.4000244140625</AltitudeMeters>
            <DistanceMeters>584610.92241594</DistanceMeters>
          </Trackpoint>
          <Trackpoint>
            <Time>2021-08-04T08:25:13.000Z</Time>
            <Position>
              <LatitudeDegrees>40.94821608625352382659912109375</LatitudeDegrees>
              <LongitudeDegrees>-1.198456250131130218505859375</LongitudeDegrees>
            </Position>
            <AltitudeMeters>1015.4000244140625</AltitudeMeters>
            <DistanceMeters>584671.16350708</DistanceMeters>
          </Trackpoint>
          <Trackpoint>
            <Time>2021-08-04T08:25:15.000Z</Time>
            <Position>
              <LatitudeDegrees>40.94826838932931423187255859375</LatitudeDegrees>
              <LongitudeDegrees>-1.19839732535183429718017578125</LongitudeDegrees>
            </Position>
            <AltitudeMeters>1015.5999755859375</AltitudeMeters>
            <DistanceMeters>584678.80710535</DistanceMeters>
          </Trackpoint>
          <Trackpoint>
            <Time>2021-08-04T08:25:33.000Z</Time>
            <Position>
              <LatitudeDegrees>40.9487765841186046600341796875</LatitudeDegrees>
              <LongitudeDegrees>-1.1980899609625339508056640625</LongitudeDegrees>
            </Position>
            <AltitudeMeters>1016.20001220703125</AltitudeMeters>
            <DistanceMeters>584740.99263371</DistanceMeters>
          </Trackpoint>
          <Trackpoint>
            <Time>2021-08-04T08:25:39.000Z</Time>
            <Position>
              <LatitudeDegrees>40.94896509312093257904052734375</LatitudeDegrees>
              <LongitudeDegrees>-1.1980919726192951202392578125</LongitudeDegrees>
            </Position>
            <AltitudeMeters>1015.79998779296875</AltitudeMeters>
            <DistanceMeters>584761.97460971</DistanceMeters>
          </Trackpoint>
          <Trackpoint>
            <Time>2021-08-04T08:25:56.000Z</Time>
            <Position>
              <LatitudeDegrees>40.9494689293205738067626953125</LatitudeDegrees>
              <LongitudeDegrees>-1.19813212193548679351806640625</LongitudeDegrees>
            </Position>
            <AltitudeMeters>1016.5999755859375</AltitudeMeters>
            <DistanceMeters>584818.15396604</DistanceMeters>
          </Trackpoint>
          <Trackpoint>
            <Time>2021-08-04T08:26:04.000Z</Time>
            <Position>
              <LatitudeDegrees>40.9496771357953548431396484375</LatitudeDegrees>
              <LongitudeDegrees>-1.19795341975986957550048828125</LongitudeDegrees>
            </Position>
            <AltitudeMeters>1017.5999755859375</AltitudeMeters>
            <DistanceMeters>584845.7709593</DistanceMeters>
          </Trackpoint>
          <Trackpoint>
            <Time>2021-08-04T08:26:09.000Z</Time>
            <Position>
              <LatitudeDegrees>40.94977143220603466033935546875</LatitudeDegrees>
              <LongitudeDegrees>-1.1977781541645526885986328125</LongitudeDegrees>
            </Position>
            <AltitudeMeters>1018.79998779296875</AltitudeMeters>
            <DistanceMeters>584863.86051181</DistanceMeters>
          </Trackpoint>
          <Trackpoint>
            <Time>2021-08-04T08:26:22.000Z</Time>
            <Position>
              <LatitudeDegrees>40.950018949806690216064453125</LatitudeDegrees>
              <LongitudeDegrees>-1.19733684696257114410400390625</LongitudeDegrees>
            </Position>
            <AltitudeMeters>1019.79998779296875</AltitudeMeters>
            <DistanceMeters>584910.06929751</DistanceMeters>
          </Trackpoint>
          <Trackpoint>
            <Time>2021-08-04T08:26:40.000Z</Time>
            <Position>
              <LatitudeDegrees>40.95036101527512073516845703125</LatitudeDegrees>
              <LongitudeDegrees>-1.1967652849853038787841796875</LongitudeDegrees>
            </Position>
            <AltitudeMeters>1020.20001220703125</AltitudeMeters>
            <DistanceMeters>584971.37279786</DistanceMeters>
          </Trackpoint>
          <Trackpoint>
            <Time>2021-08-04T08:26:49.000Z</Time>
            <Position>
              <LatitudeDegrees>40.95055832527577877044677734375</LatitudeDegrees>
              <LongitudeDegrees>-1.1965017579495906829833984375</LongitudeDegrees>
            </Position>
            <AltitudeMeters>1020.79998779296875</AltitudeMeters>
            <DistanceMeters>585002.56646576</DistanceMeters>
          </Trackpoint>
          <Trackpoint>
            <Time>2021-08-04T08:27:01.000Z</Time>
            <Position>
              <LatitudeDegrees>40.9508073516190052032470703125</LatitudeDegrees>
              <LongitudeDegrees>-1.19614711962640285491943359375</LongitudeDegrees>
            </Position>
            <AltitudeMeters>1022</AltitudeMeters>
            <DistanceMeters>585043.27274252</DistanceMeters>
          </Trackpoint>
          <Trackpoint>
            <Time>2021-08-04T08:27:19.000Z</Time>
            <Position>
              <LatitudeDegrees>40.951115302741527557373046875</LatitudeDegrees>
              <LongitudeDegrees>-1.195542700588703155517578125</LongitudeDegrees>
            </Position>
            <AltitudeMeters>1023</AltitudeMeters>
            <DistanceMeters>585104.56224765</DistanceMeters>
          </Trackpoint>
          <Trackpoint>
            <Time>2021-08-04T08:27:31.000Z</Time>
            <Position>
              <LatitudeDegrees>40.95120607875287532806396484375</LatitudeDegrees>
              <LongitudeDegrees>-1.19507624767720699310302734375</LongitudeDegrees>
            </Position>
            <AltitudeMeters>1024.199951171875</AltitudeMeters>
            <DistanceMeters>585145.0544453</DistanceMeters>
          </Trackpoint>
          <Trackpoint>
            <Time>2021-08-04T08:27:46.000Z</Time>
            <Position>
              <LatitudeDegrees>40.9512660093605518341064453125</LatitudeDegrees>
              <LongitudeDegrees>-1.19448951445519924163818359375</LongitudeDegrees>
            </Position>
            <AltitudeMeters>1025</AltitudeMeters>
            <DistanceMeters>585194.82586059</DistanceMeters>
          </Trackpoint>
          <Trackpoint>
            <Time>2021-08-04T08:28:04.000Z</Time>
            <Position>
              <LatitudeDegrees>40.9513382613658905029296875</LatitudeDegrees>
              <LongitudeDegrees>-1.19378392584621906280517578125</LongitudeDegrees>
            </Position>
            <AltitudeMeters>1025.800048828125</AltitudeMeters>
            <DistanceMeters>585254.68220662</DistanceMeters>
          </Trackpoint>
          <Trackpoint>
            <Time>2021-08-04T08:28:06.000Z</Time>
            <Position>
              <LatitudeDegrees>40.95134253613650798797607421875</LatitudeDegrees>
              <LongitudeDegrees>-1.19370438158512115478515625</LongitudeDegrees>
            </Position>
            <AltitudeMeters>1026</AltitudeMeters>
            <DistanceMeters>585261.38546407</DistanceMeters>
          </Trackpoint>
          <Trackpoint>
            <Time>2021-08-04T08:28:23.000Z</Time>
            <Position>
              <LatitudeDegrees>40.95147983171045780181884765625</LatitudeDegrees>
              <LongitudeDegrees>-1.19303894229233264923095703125</LongitudeDegrees>
            </Position>
            <AltitudeMeters>1027.199951171875</AltitudeMeters>
            <DistanceMeters>585319.37372087</DistanceMeters>
          </Trackpoint>
          <Trackpoint>
            <Time>2021-08-04T08:28:37.000Z</Time>
            <Position>
              <LatitudeDegrees>40.9516193903982639312744140625</LatitudeDegrees>
              <LongitudeDegrees>-1.1924898438155651092529296875</LongitudeDegrees>
            </Position>
            <AltitudeMeters>1028.199951171875</AltitudeMeters>
            <DistanceMeters>585368.07581589</DistanceMeters>
          </Trackpoint>
          <Trackpoint>
            <Time>2021-08-04T08:28:53.000Z</Time>
            <Position>
              <LatitudeDegrees>40.9517352283000946044921875</LatitudeDegrees>
              <LongitudeDegrees>-1.19185374118387699127197265625</LongitudeDegrees>
            </Position>
            <AltitudeMeters>1029.199951171875</AltitudeMeters>
            <DistanceMeters>585423.08044344</DistanceMeters>
          </Trackpoint>
          <Trackpoint>
            <Time>2021-08-04T08:28:57.000Z</Time>
            <Position>
              <LatitudeDegrees>40.95174721442162990570068359375</LatitudeDegrees>
              <LongitudeDegrees>-1.1917327903211116790771484375</LongitudeDegrees>
            </Position>
            <AltitudeMeters>1030.4000244140625</AltitudeMeters>
            <DistanceMeters>585433.33540664</DistanceMeters>
          </Trackpoint>
          <Trackpoint>
            <Time>2021-08-04T08:29:05.000Z</Time>
            <Position>
              <LatitudeDegrees>40.95177747309207916259765625</LatitudeDegrees>
              <LongitudeDegrees>-1.19152483530342578887939453125</LongitudeDegrees>
            </Position>
            <AltitudeMeters>1031.4000244140625</AltitudeMeters>
            <DistanceMeters>585451.13814865</DistanceMeters>
          </Trackpoint>
          <Trackpoint>
            <Time>2021-08-04T08:29:13.000Z</Time>
            <Position>
              <LatitudeDegrees>40.95183111727237701416015625</LatitudeDegrees>
              <LongitudeDegrees>-1.191257201135158538818359375</LongitudeDegrees>
            </Position>
            <AltitudeMeters>1032.4000244140625</AltitudeMeters>
            <DistanceMeters>585474.41484486</DistanceMeters>
          </Trackpoint>
          <Trackpoint>
            <Time>2021-08-04T08:29:26.000Z</Time>
            <Position>
              <LatitudeDegrees>40.95200948417186737060546875</LatitudeDegrees>
              <LongitudeDegrees>-1.19086601771414279937744140625</LongitudeDegrees>
            </Position>
            <AltitudeMeters>1033.4000244140625</AltitudeMeters>
            <DistanceMeters>585512.82656587</DistanceMeters>
          </Trackpoint>
          <Trackpoint>
            <Time>2021-08-04T08:29:43.000Z</Time>
            <Position>
              <LatitudeDegrees>40.95235507003962993621826171875</LatitudeDegrees>
              <LongitudeDegrees>-1.19048841297626495361328125</LongitudeDegrees>
            </Position>
            <AltitudeMeters>1034.5999755859375</AltitudeMeters>
            <DistanceMeters>585562.69703463</DistanceMeters>
          </Trackpoint>
          <Trackpoint>
            <Time>2021-08-04T08:29:45.000Z</Time>
            <Position>
              <LatitudeDegrees>40.952402092516422271728515625</LatitudeDegrees>
              <LongitudeDegrees>-1.19045664556324481964111328125</LongitudeDegrees>
            </Position>
            <AltitudeMeters>1034.5999755859375</AltitudeMeters>
            <DistanceMeters>585568.57180715</DistanceMeters>
          </Trackpoint>
          <Trackpoint>
            <Time>2021-08-04T08:30:06.000Z</Time>
            <Position>
              <LatitudeDegrees>40.9528267197310924530029296875</LatitudeDegrees>
              <LongitudeDegrees>-1.1899896897375583648681640625</LongitudeDegrees>
            </Position>
            <AltitudeMeters>1035</AltitudeMeters>
            <DistanceMeters>585630.00847041</DistanceMeters>
          </Trackpoint>
          <Trackpoint>
            <Time>2021-08-04T08:30:18.000Z</Time>
            <Position>
              <LatitudeDegrees>40.95308396033942699432373046875</LatitudeDegrees>
              <LongitudeDegrees>-1.189696155488491058349609375</LongitudeDegrees>
            </Position>
            <AltitudeMeters>1035.5999755859375</AltitudeMeters>
            <DistanceMeters>585667.80533858</DistanceMeters>
          </Trackpoint>
          <Trackpoint>
            <Time>2021-08-04T08:30:33.000Z</Time>
            <Position>
              <LatitudeDegrees>40.95338269136846065521240234375</LatitudeDegrees>
              <LongitudeDegrees>-1.189394406974315643310546875</LongitudeDegrees>
            </Position>
            <AltitudeMeters>1036.4000244140625</AltitudeMeters>
            <DistanceMeters>585709.62529895</DistanceMeters>
          </Trackpoint>
          <Trackpoint>
            <Time>2021-08-04T08:30:42.000Z</Time>
            <Position>
              <LatitudeDegrees>40.9535063244402408599853515625</LatitudeDegrees>
              <LongitudeDegrees>-1.18918351829051971435546875</LongitudeDegrees>
            </Position>
            <AltitudeMeters>1037.4000244140625</AltitudeMeters>
            <DistanceMeters>585732.06669805</DistanceMeters>
          </Trackpoint>
          <Trackpoint>
            <Time>2021-08-04T08:31:02.000Z</Time>
            <Position>
              <LatitudeDegrees>40.953866578638553619384765625</LatitudeDegrees>
              <LongitudeDegrees>-1.18872779421508312225341796875</LongitudeDegrees>
            </Position>
            <AltitudeMeters>1038.5999755859375</AltitudeMeters>
            <DistanceMeters>585787.52193075</DistanceMeters>
          </Trackpoint>
          <Trackpoint>
            <Time>2021-08-04T08:31:08.000Z</Time>
            <Position>
              <LatitudeDegrees>40.95397210679948329925537109375</LatitudeDegrees>
              <LongitudeDegrees>-1.18860675953328609466552734375</LongitudeDegrees>
            </Position>
            <AltitudeMeters>1039.5999755859375</AltitudeMeters>
            <DistanceMeters>585803.0613411</DistanceMeters>
          </Trackpoint>
          <Trackpoint>
            <Time>2021-08-04T08:31:15.000Z</Time>
            <Position>
              <LatitudeDegrees>40.95407872460782527923583984375</LatitudeDegrees>
              <LongitudeDegrees>-1.18845907039940357208251953125</LongitudeDegrees>
            </Position>
            <AltitudeMeters>1040.800048828125</AltitudeMeters>
            <DistanceMeters>585820.23516877</DistanceMeters>
          </Trackpoint>
          <Trackpoint>
            <Time>2021-08-04T08:31:27.000Z</Time>
            <Position>
              <LatitudeDegrees>40.9542962349951267242431640625</LatitudeDegrees>
              <LongitudeDegrees>-1.18824005126953125</LongitudeDegrees>
            </Position>
            <AltitudeMeters>1041.800048828125</AltitudeMeters>
            <DistanceMeters>585850.64965596</DistanceMeters>
          </Trackpoint>
          <Trackpoint>
            <Time>2021-08-04T08:31:48.000Z</Time>
            <Position>
              <LatitudeDegrees>40.95465221442282199859619140625</LatitudeDegrees>
              <LongitudeDegrees>-1.18865252472460269927978515625</LongitudeDegrees>
            </Position>
            <AltitudeMeters>1042.800048828125</AltitudeMeters>
            <DistanceMeters>585903.2992583</DistanceMeters>
          </Trackpoint>
          <Trackpoint>
            <Time>2021-08-04T08:31:55.000Z</Time>
            <Position>
              <LatitudeDegrees>40.95462488941848278045654296875</LatitudeDegrees>
              <LongitudeDegrees>-1.18860416114330291748046875</LongitudeDegrees>
            </Position>
            <AltitudeMeters>1043.199951171875</AltitudeMeters>
            <DistanceMeters>585908.37496594</DistanceMeters>
          </Trackpoint>
          <Trackpoint>
            <Time>2021-08-04T08:32:02.000Z</Time>
            <Position>
              <LatitudeDegrees>40.95450150780379772186279296875</LatitudeDegrees>
              <LongitudeDegrees>-1.1884102039039134979248046875</LongitudeDegrees>
            </Position>
            <AltitudeMeters>1041.5999755859375</AltitudeMeters>
            <DistanceMeters>585929.69147238</DistanceMeters>
          </Trackpoint>
          <Trackpoint>
            <Time>2021-08-04T08:32:10.000Z</Time>
            <Position>
              <LatitudeDegrees>40.9543951414525508880615234375</LatitudeDegrees>
              <LongitudeDegrees>-1.18824608623981475830078125</LongitudeDegrees>
            </Position>
            <AltitudeMeters>1042.4000244140625</AltitudeMeters>
            <DistanceMeters>585947.87065657</DistanceMeters>
          </Trackpoint>
          <Trackpoint>
            <Time>2021-08-04T08:32:16.000Z</Time>
            <Position>
              <LatitudeDegrees>40.9544779546558856964111328125</LatitudeDegrees>
              <LongitudeDegrees>-1.18815958499908447265625</LongitudeDegrees>
            </Position>
            <AltitudeMeters>1042.5999755859375</AltitudeMeters>
            <DistanceMeters>585959.61097542</DistanceMeters>
          </Trackpoint>
          <Trackpoint>
            <Time>2021-08-04T08:32:17.000Z</Time>
            <Position>
              <LatitudeDegrees>40.95450016669929027557373046875</LatitudeDegrees>
              <LongitudeDegrees>-1.1881543882191181182861328125</LongitudeDegrees>
            </Position>
            <AltitudeMeters>1042.5999755859375</AltitudeMeters>
            <DistanceMeters>585962.12155172</DistanceMeters>
          </Trackpoint>
          <Trackpoint>
            <Time>2021-08-04T08:32:26.000Z</Time>
            <Position>
              <LatitudeDegrees>40.9547044336795806884765625</LatitudeDegrees>
              <LongitudeDegrees>-1.18811457417905330657958984375</LongitudeDegrees>
            </Position>
            <AltitudeMeters>1043.4000244140625</AltitudeMeters>
            <DistanceMeters>585985.10191139</DistanceMeters>
          </Trackpoint>
          <Trackpoint>
            <Time>2021-08-04T08:32:50.000Z</Time>
            <Position>
              <LatitudeDegrees>40.955247581005096435546875</LatitudeDegrees>
              <LongitudeDegrees>-1.18811138905584812164306640625</LongitudeDegrees>
            </Position>
            <AltitudeMeters>1044.4000244140625</AltitudeMeters>
            <DistanceMeters>586045.55578305</DistanceMeters>
          </Trackpoint>
          <Trackpoint>
            <Time>2021-08-04T08:32:51.000Z</Time>
            <Position>
              <LatitudeDegrees>40.95526744611561298370361328125</LatitudeDegrees>
              <LongitudeDegrees>-1.188115663826465606689453125</LongitudeDegrees>
            </Position>
            <AltitudeMeters>1044.5999755859375</AltitudeMeters>
            <DistanceMeters>586047.79647993</DistanceMeters>
          </Trackpoint>
          <Trackpoint>
            <Time>2021-08-04T08:33:12.000Z</Time>
            <Position>
              <LatitudeDegrees>40.95569106750190258026123046875</LatitudeDegrees>
              <LongitudeDegrees>-1.187999658286571502685546875</LongitudeDegrees>
            </Position>
            <AltitudeMeters>1045.800048828125</AltitudeMeters>
            <DistanceMeters>586095.94418211</DistanceMeters>
          </Trackpoint>
          <Trackpoint>
            <Time>2021-08-04T08:33:13.000Z</Time>
            <Position>
              <LatitudeDegrees>40.95571001060307025909423828125</LatitudeDegrees>
              <LongitudeDegrees>-1.18799823336303234100341796875</LongitudeDegrees>
            </Position>
            <AltitudeMeters>1045.800048828125</AltitudeMeters>
            <DistanceMeters>586098.05625639</DistanceMeters>
          </Trackpoint>
          <Trackpoint>
            <Time>2021-08-04T08:33:27.000Z</Time>
            <Position>
              <LatitudeDegrees>40.95594839192926883697509765625</LatitudeDegrees>
              <LongitudeDegrees>-1.18803896941244602203369140625</LongitudeDegrees>
            </Position>
            <AltitudeMeters>1046.5999755859375</AltitudeMeters>
            <DistanceMeters>586124.80859719</DistanceMeters>
          </Trackpoint>
          <Trackpoint>
            <Time>2021-08-04T08:33:39.000Z</Time>
            <Position>
              <LatitudeDegrees>40.95616950653493404388427734375</LatitudeDegrees>
              <LongitudeDegrees>-1.18790938518941402435302734375</LongitudeDegrees>
            </Position>
            <AltitudeMeters>1046.800048828125</AltitudeMeters>
            <DistanceMeters>586151.72180012</DistanceMeters>
          </Trackpoint>
          <Trackpoint>
            <Time>2021-08-04T08:33:52.000Z</Time>
            <Position>
              <LatitudeDegrees>40.9564674831926822662353515625</LatitudeDegrees>
              <LongitudeDegrees>-1.18776370771229267120361328125</LongitudeDegrees>
            </Position>
            <AltitudeMeters>1047.800048828125</AltitudeMeters>
            <DistanceMeters>586187.07556938</DistanceMeters>
          </Trackpoint>
          <Trackpoint>
            <Time>2021-08-04T08:34:03.000Z</Time>
            <Position>
              <LatitudeDegrees>40.9566770307719707489013671875</LatitudeDegrees>
              <LongitudeDegrees>-1.1875656433403491973876953125</LongitudeDegrees>
            </Position>
            <AltitudeMeters>1048.800048828125</AltitudeMeters>
            <DistanceMeters>586215.73096924</DistanceMeters>
          </Trackpoint>
          <Trackpoint>
            <Time>2021-08-04T08:34:15.000Z</Time>
            <Position>
              <LatitudeDegrees>40.95688230358064174652099609375</LatitudeDegrees>
              <LongitudeDegrees>-1.18734511546790599822998046875</LongitudeDegrees>
            </Position>
            <AltitudeMeters>1049.800048828125</AltitudeMeters>
            <DistanceMeters>586245.15244317</DistanceMeters>
          </Trackpoint>
          <Trackpoint>
            <Time>2021-08-04T08:34:35.000Z</Time>
            <Position>
              <LatitudeDegrees>40.95703401602804660797119140625</LatitudeDegrees>
              <LongitudeDegrees>-1.18682979606091976165771484375</LongitudeDegrees>
            </Position>
            <AltitudeMeters>1050.5999755859375</AltitudeMeters>
            <DistanceMeters>586291.64294603</DistanceMeters>
          </Trackpoint>
          <Trackpoint>
            <Time>2021-08-04T08:34:55.000Z</Time>
            <Position>
              <LatitudeDegrees>40.95708631910383701324462890625</LatitudeDegrees>
              <LongitudeDegrees>-1.1862694658339023590087890625</LongitudeDegrees>
            </Position>
            <AltitudeMeters>1051.5999755859375</AltitudeMeters>
            <DistanceMeters>586339.10020434</DistanceMeters>
          </Trackpoint>
          <Trackpoint>
            <Time>2021-08-04T08:34:56.000Z</Time>
            <Position>
              <LatitudeDegrees>40.9570894204080104827880859375</LatitudeDegrees>
              <LongitudeDegrees>-1.1862406320869922637939453125</LongitudeDegrees>
            </Position>
            <AltitudeMeters>1051.800048828125</AltitudeMeters>
            <DistanceMeters>586341.54887148</DistanceMeters>
          </Trackpoint>
          <Trackpoint>
            <Time>2021-08-04T08:35:19.000Z</Time>
            <Position>
              <LatitudeDegrees>40.95733358524739742279052734375</LatitudeDegrees>
              <LongitudeDegrees>-1.18558089248836040496826171875</LongitudeDegrees>
            </Position>
            <AltitudeMeters>1052.800048828125</AltitudeMeters>
            <DistanceMeters>586403.30439289</DistanceMeters>
          </Trackpoint>
          <Trackpoint>
            <Time>2021-08-04T08:35:29.000Z</Time>
            <Position>
              <LatitudeDegrees>40.9574337489902973175048828125</LatitudeDegrees>
              <LongitudeDegrees>-1.1852834187448024749755859375</LongitudeDegrees>
            </Position>
            <AltitudeMeters>1052.800048828125</AltitudeMeters>
            <DistanceMeters>586430.68132378</DistanceMeters>
          </Trackpoint>
          <Trackpoint>
            <Time>2021-08-04T08:35:43.000Z</Time>
            <Position>
              <LatitudeDegrees>40.95756878145039081573486328125</LatitudeDegrees>
              <LongitudeDegrees>-1.18488620035350322723388671875</LongitudeDegrees>
            </Position>
            <AltitudeMeters>1054</AltitudeMeters>
            <DistanceMeters>586467.29633886</DistanceMeters>
          </Trackpoint>
          <Trackpoint>
            <Time>2021-08-04T08:35:50.000Z</Time>
            <Position>
              <LatitudeDegrees>40.95763751305639743804931640625</LatitudeDegrees>
              <LongitudeDegrees>-1.1846769042313098907470703125</LongitudeDegrees>
            </Position>
            <AltitudeMeters>1055</AltitudeMeters>
            <DistanceMeters>586486.47997083</DistanceMeters>
          </Trackpoint>
          <Trackpoint>
            <Time>2021-08-04T08:36:07.000Z</Time>
            <Position>
              <LatitudeDegrees>40.95787421800196170806884765625</LatitudeDegrees>
              <LongitudeDegrees>-1.18418849073350429534912109375</LongitudeDegrees>
            </Position>
            <AltitudeMeters>1055.800048828125</AltitudeMeters>
            <DistanceMeters>586535.25987779</DistanceMeters>
          </Trackpoint>
          <Trackpoint>
            <Time>2021-08-04T08:36:21.000Z</Time>
            <Position>
              <LatitudeDegrees>40.958007909357547760009765625</LatitudeDegrees>
              <LongitudeDegrees>-1.183792613446712493896484375</LongitudeDegrees>
            </Position>
            <AltitudeMeters>1057</AltitudeMeters>
            <DistanceMeters>586571.71064401</DistanceMeters>
          </Trackpoint>
          <Trackpoint>
            <Time>2021-08-04T08:36:34.000Z</Time>
            <Position>
              <LatitudeDegrees>40.9580657444894313812255859375</LatitudeDegrees>
              <LongitudeDegrees>-1.183383576571941375732421875</LongitudeDegrees>
            </Position>
            <AltitudeMeters>1058</AltitudeMeters>
            <DistanceMeters>586606.6895116</DistanceMeters>
          </Trackpoint>
          <Trackpoint>
            <Time>2021-08-04T08:36:48.000Z</Time>
            <Position>
              <LatitudeDegrees>40.95810807310044765472412109375</LatitudeDegrees>
              <LongitudeDegrees>-1.18294612504541873931884765625</LongitudeDegrees>
            </Position>
            <AltitudeMeters>1058.800048828125</AltitudeMeters>
            <DistanceMeters>586643.75967525</DistanceMeters>
          </Trackpoint>
          <Trackpoint>
            <Time>2021-08-04T08:36:59.000Z</Time>
            <Position>
              <LatitudeDegrees>40.95809809863567352294921875</LatitudeDegrees>
              <LongitudeDegrees>-1.1826515011489391326904296875</LongitudeDegrees>
            </Position>
            <AltitudeMeters>1059.800048828125</AltitudeMeters>
            <DistanceMeters>586668.54890138</DistanceMeters>
          </Trackpoint>
          <Trackpoint>
            <Time>2021-08-04T08:37:12.000Z</Time>
            <Position>
              <LatitudeDegrees>40.95807756297290325164794921875</LatitudeDegrees>
              <LongitudeDegrees>-1.18222963996231555938720703125</LongitudeDegrees>
            </Position>
            <AltitudeMeters>1060.800048828125</AltitudeMeters>
            <DistanceMeters>586704.08152341</DistanceMeters>
          </Trackpoint>
          <Trackpoint>
            <Time>2021-08-04T08:37:27.000Z</Time>
            <Position>
              <LatitudeDegrees>40.958074294030666351318359375</LatitudeDegrees>
              <LongitudeDegrees>-1.18174768052995204925537109375</LongitudeDegrees>
            </Position>
            <AltitudeMeters>1062</AltitudeMeters>
            <DistanceMeters>586744.59389823</DistanceMeters>
          </Trackpoint>
          <Trackpoint>
            <Time>2021-08-04T08:37:40.000Z</Time>
            <Position>
              <LatitudeDegrees>40.95815953798592090606689453125</LatitudeDegrees>
              <LongitudeDegrees>-1.18134568445384502410888671875</LongitudeDegrees>
            </Position>
            <AltitudeMeters>1063</AltitudeMeters>
            <DistanceMeters>586779.69003117</DistanceMeters>
          </Trackpoint>
          <Trackpoint>
            <Time>2021-08-04T08:37:58.000Z</Time>
            <Position>
              <LatitudeDegrees>40.95823430456221103668212890625</LatitudeDegrees>
              <LongitudeDegrees>-1.1808745376765727996826171875</LongitudeDegrees>
            </Position>
            <AltitudeMeters>1064</AltitudeMeters>
            <DistanceMeters>586820.15657479</DistanceMeters>
          </Trackpoint>
          <Trackpoint>
            <Time>2021-08-04T08:38:00.000Z</Time>
            <Position>
              <LatitudeDegrees>40.9582377411425113677978515625</LatitudeDegrees>
              <LongitudeDegrees>-1.18087160401046276092529296875</LongitudeDegrees>
            </Position>
            <AltitudeMeters>1064.199951171875</AltitudeMeters>
            <DistanceMeters>586820.60228959</DistanceMeters>
          </Trackpoint>
          <Trackpoint>
            <Time>2021-08-04T08:39:20.000Z</Time>
            <Position>
              <LatitudeDegrees>40.95850638113915920257568359375</LatitudeDegrees>
              <LongitudeDegrees>-1.18002737872302532196044921875</LongitudeDegrees>
            </Position>
            <AltitudeMeters>1067</AltitudeMeters>
            <DistanceMeters>586897.6047764</DistanceMeters>
          </Trackpoint>
          <Trackpoint>
            <Time>2021-08-04T08:39:40.000Z</Time>
            <Position>
              <LatitudeDegrees>40.95880578272044658660888671875</LatitudeDegrees>
              <LongitudeDegrees>-1.179804168641567230224609375</LongitudeDegrees>
            </Position>
            <AltitudeMeters>1068</AltitudeMeters>
            <DistanceMeters>586935.84733281</DistanceMeters>
          </Trackpoint>
          <Trackpoint>
            <Time>2021-08-04T08:39:56.000Z</Time>
            <Position>
              <LatitudeDegrees>40.959078781306743621826171875</LatitudeDegrees>
              <LongitudeDegrees>-1.17950468324124813079833984375</LongitudeDegrees>
            </Position>
            <AltitudeMeters>1069</AltitudeMeters>
            <DistanceMeters>586975.30528081</DistanceMeters>
          </Trackpoint>
          <Trackpoint>
            <Time>2021-08-04T08:40:06.000Z</Time>
            <Position>
              <LatitudeDegrees>40.95927231945097446441650390625</LatitudeDegrees>
              <LongitudeDegrees>-1.17940510623157024383544921875</LongitudeDegrees>
            </Position>
            <AltitudeMeters>1070.199951171875</AltitudeMeters>
            <DistanceMeters>586998.41534012</DistanceMeters>
          </Trackpoint>
          <Trackpoint>
            <Time>2021-08-04T08:40:18.000Z</Time>
            <Position>
              <LatitudeDegrees>40.9595034085214138031005859375</LatitudeDegrees>
              <LongitudeDegrees>-1.17933922447264194488525390625</LongitudeDegrees>
            </Position>
            <AltitudeMeters>1071</AltitudeMeters>
            <DistanceMeters>587024.72521545</DistanceMeters>
          </Trackpoint>
          <Trackpoint>
            <Time>2021-08-04T08:40:23.000Z</Time>
            <Position>
              <LatitudeDegrees>40.95957322977483272552490234375</LatitudeDegrees>
              <LongitudeDegrees>-1.1792575009167194366455078125</LongitudeDegrees>
            </Position>
            <AltitudeMeters>1072</AltitudeMeters>
            <DistanceMeters>587035.09750212</DistanceMeters>
          </Trackpoint>
          <Trackpoint>
            <Time>2021-08-04T08:40:46.000Z</Time>
            <Position>
              <LatitudeDegrees>40.95995024777948856353759765625</LatitudeDegrees>
              <LongitudeDegrees>-1.178734302520751953125</LongitudeDegrees>
            </Position>
            <AltitudeMeters>1073.199951171875</AltitudeMeters>
            <DistanceMeters>587095.8819251</DistanceMeters>
          </Trackpoint>
          <Trackpoint>
            <Time>2021-08-04T08:41:00.000Z</Time>
            <Position>
              <LatitudeDegrees>40.96017169766128063201904296875</LatitudeDegrees>
              <LongitudeDegrees>-1.1784095875918865203857421875</LongitudeDegrees>
            </Position>
            <AltitudeMeters>1074.199951171875</AltitudeMeters>
            <DistanceMeters>587132.65701802</DistanceMeters>
          </Trackpoint>
          <Trackpoint>
            <Time>2021-08-04T08:41:19.000Z</Time>
            <Position>
              <LatitudeDegrees>40.96039935015141963958740234375</LatitudeDegrees>
              <LongitudeDegrees>-1.1778868921101093292236328125</LongitudeDegrees>
            </Position>
            <AltitudeMeters>1075.199951171875</AltitudeMeters>
            <DistanceMeters>587183.37342625</DistanceMeters>
          </Trackpoint>
          <Trackpoint>
            <Time>2021-08-04T08:41:32.000Z</Time>
            <Position>
              <LatitudeDegrees>40.9605638869106769561767578125</LatitudeDegrees>
              <LongitudeDegrees>-1.17758640088140964508056640625</LongitudeDegrees>
            </Position>
            <AltitudeMeters>1076.199951171875</AltitudeMeters>
            <DistanceMeters>587214.57056778</DistanceMeters>
          </Trackpoint>
          <Trackpoint>
            <Time>2021-08-04T08:41:40.000Z</Time>
            <Position>
              <LatitudeDegrees>40.96063471399247646331787109375</LatitudeDegrees>
              <LongitudeDegrees>-1.17738976143300533294677734375</LongitudeDegrees>
            </Position>
            <AltitudeMeters>1077.199951171875</AltitudeMeters>
            <DistanceMeters>587232.88189756</DistanceMeters>
          </Trackpoint>
          <Trackpoint>
            <Time>2021-08-04T08:41:53.000Z</Time>
            <Position>
              <LatitudeDegrees>40.96081308089196681976318359375</LatitudeDegrees>
              <LongitudeDegrees>-1.1770892702043056488037109375</LongitudeDegrees>
            </Position>
            <AltitudeMeters>1078.199951171875</AltitudeMeters>
            <DistanceMeters>587265.0068305</DistanceMeters>
          </Trackpoint>
          <Trackpoint>
            <Time>2021-08-04T08:42:03.000Z</Time>
            <Position>
              <LatitudeDegrees>40.9609450958669185638427734375</LatitudeDegrees>
              <LongitudeDegrees>-1.17679112590849399566650390625</LongitudeDegrees>
            </Position>
            <AltitudeMeters>1079.199951171875</AltitudeMeters>
            <DistanceMeters>587294.05611008</DistanceMeters>
          </Trackpoint>
          <Trackpoint>
            <Time>2021-08-04T08:42:19.000Z</Time>
            <Position>
              <LatitudeDegrees>40.96121004782617092132568359375</LatitudeDegrees>
              <LongitudeDegrees>-1.17648971267044544219970703125</LongitudeDegrees>
            </Position>
            <AltitudeMeters>1080.199951171875</AltitudeMeters>
            <DistanceMeters>587332.9334192</DistanceMeters>
          </Trackpoint>
          <Trackpoint>
            <Time>2021-08-04T08:42:38.000Z</Time>
            <Position>
              <LatitudeDegrees>40.96143786795437335968017578125</LatitudeDegrees>
              <LongitudeDegrees>-1.175999455153942108154296875</LongitudeDegrees>
            </Position>
            <AltitudeMeters>1081.199951171875</AltitudeMeters>
            <DistanceMeters>587381.31639004</DistanceMeters>
          </Trackpoint>
          <Trackpoint>
            <Time>2021-08-04T08:42:51.000Z</Time>
            <Position>
              <LatitudeDegrees>40.9615452401340007781982421875</LatitudeDegrees>
              <LongitudeDegrees>-1.175651438534259796142578125</LongitudeDegrees>
            </Position>
            <AltitudeMeters>1082.199951171875</AltitudeMeters>
            <DistanceMeters>587412.91416579</DistanceMeters>
          </Trackpoint>
          <Trackpoint>
            <Time>2021-08-04T08:43:02.000Z</Time>
            <Position>
              <LatitudeDegrees>40.96163065172731876373291015625</LatitudeDegrees>
              <LongitudeDegrees>-1.1753642745316028594970703125</LongitudeDegrees>
            </Position>
            <AltitudeMeters>1083.199951171875</AltitudeMeters>
            <DistanceMeters>587438.85489239</DistanceMeters>
          </Trackpoint>
          <Trackpoint>
            <Time>2021-08-04T08:43:17.000Z</Time>
            <Position>
              <LatitudeDegrees>40.96166702918708324432373046875</LatitudeDegrees>
              <LongitudeDegrees>-1.17495783604681491851806640625</LongitudeDegrees>
            </Position>
            <AltitudeMeters>1084.4000244140625</AltitudeMeters>
            <DistanceMeters>587473.25482549</DistanceMeters>
          </Trackpoint>
          <Trackpoint>
            <Time>2021-08-04T08:43:22.000Z</Time>
            <Position>
              <LatitudeDegrees>40.96170642413198947906494140625</LatitudeDegrees>
              <LongitudeDegrees>-1.17483931593596935272216796875</LongitudeDegrees>
            </Position>
            <AltitudeMeters>1085.5999755859375</AltitudeMeters>
            <DistanceMeters>587484.13859978</DistanceMeters>
          </Trackpoint>
          <Trackpoint>
            <Time>2021-08-04T08:43:38.000Z</Time>
            <Position>
              <LatitudeDegrees>40.961799882352352142333984375</LatitudeDegrees>
              <LongitudeDegrees>-1.1744556762278079986572265625</LongitudeDegrees>
            </Position>
            <AltitudeMeters>1086.5999755859375</AltitudeMeters>
            <DistanceMeters>587518.01958822</DistanceMeters>
          </Trackpoint>
          <Trackpoint>
            <Time>2021-08-04T08:43:53.000Z</Time>
            <Position>
              <LatitudeDegrees>40.96187531948089599609375</LatitudeDegrees>
              <LongitudeDegrees>-1.1743162013590335845947265625</LongitudeDegrees>
            </Position>
            <AltitudeMeters>1087</AltitudeMeters>
            <DistanceMeters>587532.43893322</DistanceMeters>
          </Trackpoint>
          <Trackpoint>
            <Time>2021-08-04T08:44:31.000Z</Time>
            <Position>
              <LatitudeDegrees>40.96188076771795749664306640625</LatitudeDegrees>
              <LongitudeDegrees>-1.1742504872381687164306640625</LongitudeDegrees>
            </Position>
            <AltitudeMeters>1086.800048828125</AltitudeMeters>
            <DistanceMeters>587537.99616827</DistanceMeters>
          </Trackpoint>
          <Trackpoint>
            <Time>2021-08-04T08:44:48.000Z</Time>
            <Position>
              <LatitudeDegrees>40.9620699472725391387939453125</LatitudeDegrees>
              <LongitudeDegrees>-1.17384874261915683746337890625</LongitudeDegrees>
            </Position>
            <AltitudeMeters>1087.5999755859375</AltitudeMeters>
            <DistanceMeters>587577.78978919</DistanceMeters>
          </Trackpoint>
          <Trackpoint>
            <Time>2021-08-04T08:45:04.000Z</Time>
            <Position>
              <LatitudeDegrees>40.9624625556170940399169921875</LatitudeDegrees>
              <LongitudeDegrees>-1.1735965311527252197265625</LongitudeDegrees>
            </Position>
            <AltitudeMeters>1088.5999755859375</AltitudeMeters>
            <DistanceMeters>587626.35810931</DistanceMeters>
          </Trackpoint>
          <Trackpoint>
            <Time>2021-08-04T08:45:25.000Z</Time>
            <Position>
              <LatitudeDegrees>40.9626638889312744140625</LatitudeDegrees>
              <LongitudeDegrees>-1.1731658689677715301513671875</LongitudeDegrees>
            </Position>
            <AltitudeMeters>1089.4000244140625</AltitudeMeters>
            <DistanceMeters>587668.92965311</DistanceMeters>
          </Trackpoint>
          <Trackpoint>
            <Time>2021-08-04T08:45:30.000Z</Time>
            <Position>
              <LatitudeDegrees>40.96265777014195919036865234375</LatitudeDegrees>
              <LongitudeDegrees>-1.1730723269283771514892578125</LongitudeDegrees>
            </Position>
            <AltitudeMeters>1090.5999755859375</AltitudeMeters>
            <DistanceMeters>587676.82144868</DistanceMeters>
          </Trackpoint>
          <Trackpoint>
            <Time>2021-08-04T08:45:32.000Z</Time>
            <Position>
              <LatitudeDegrees>40.96264871768653392791748046875</LatitudeDegrees>
              <LongitudeDegrees>-1.17303938604891300201416015625</LongitudeDegrees>
            </Position>
            <AltitudeMeters>1090.800048828125</AltitudeMeters>
            <DistanceMeters>587679.76727682</DistanceMeters>
          </Trackpoint>
          <Trackpoint>
            <Time>2021-08-04T08:45:39.000Z</Time>
            <Position>
              <LatitudeDegrees>40.96269314177334308624267578125</LatitudeDegrees>
              <LongitudeDegrees>-1.17290225811302661895751953125</LongitudeDegrees>
            </Position>
            <AltitudeMeters>1091.5999755859375</AltitudeMeters>
            <DistanceMeters>587692.30864324</DistanceMeters>
          </Trackpoint>
          <Trackpoint>
            <Time>2021-08-04T08:45:51.000Z</Time>
            <Position>
              <LatitudeDegrees>40.96275583840906620025634765625</LatitudeDegrees>
              <LongitudeDegrees>-1.17267812602221965789794921875</LongitudeDegrees>
            </Position>
            <AltitudeMeters>1092.5999755859375</AltitudeMeters>
            <DistanceMeters>587712.39729965</DistanceMeters>
          </Trackpoint>
          <Trackpoint>
            <Time>2021-08-04T08:45:57.000Z</Time>
            <Position>
              <LatitudeDegrees>40.96277511678636074066162109375</LatitudeDegrees>
              <LongitudeDegrees>-1.1725799739360809326171875</LongitudeDegrees>
            </Position>
            <AltitudeMeters>1093.4000244140625</AltitudeMeters>
            <DistanceMeters>587720.92114825</DistanceMeters>
          </Trackpoint>
          <Trackpoint>
            <Time>2021-08-04T08:46:00.000Z</Time>
            <Position>
              <LatitudeDegrees>40.96278768964111804962158203125</LatitudeDegrees>
              <LongitudeDegrees>-1.17252876050770282745361328125</LongitudeDegrees>
            </Position>
            <AltitudeMeters>1093.800048828125</AltitudeMeters>
            <DistanceMeters>587725.44665523</DistanceMeters>
          </Trackpoint>
          <Trackpoint>
            <Time>2021-08-04T08:46:10.000Z</Time>
            <Position>
              <LatitudeDegrees>40.96275684423744678497314453125</LatitudeDegrees>
              <LongitudeDegrees>-1.17231778800487518310546875</LongitudeDegrees>
            </Position>
            <AltitudeMeters>1094.4000244140625</AltitudeMeters>
            <DistanceMeters>587743.50773165</DistanceMeters>
          </Trackpoint>
          <Trackpoint>
            <Time>2021-08-04T08:46:14.000Z</Time>
            <Position>
              <LatitudeDegrees>40.96272222697734832763671875</LatitudeDegrees>
              <LongitudeDegrees>-1.17222751490771770477294921875</LongitudeDegrees>
            </Position>
            <AltitudeMeters>1094.4000244140625</AltitudeMeters>
            <DistanceMeters>587752.01726648</DistanceMeters>
          </Trackpoint>
          <Trackpoint>
            <Time>2021-08-04T08:46:20.000Z</Time>
            <Position>
              <LatitudeDegrees>40.962725915014743804931640625</LatitudeDegrees>
              <LongitudeDegrees>-1.17207244969904422760009765625</LongitudeDegrees>
            </Position>
            <AltitudeMeters>1094.800048828125</AltitudeMeters>
            <DistanceMeters>587765.05637225</DistanceMeters>
          </Trackpoint>
          <Trackpoint>
            <Time>2021-08-04T08:46:34.000Z</Time>
            <Position>
              <LatitudeDegrees>40.962736643850803375244140625</LatitudeDegrees>
              <LongitudeDegrees>-1.171726696193218231201171875</LongitudeDegrees>
            </Position>
            <AltitudeMeters>1096</AltitudeMeters>
            <DistanceMeters>587794.14075708</DistanceMeters>
          </Trackpoint>
          <Trackpoint>
            <Time>2021-08-04T08:46:40.000Z</Time>
            <Position>
              <LatitudeDegrees>40.96271015703678131103515625</LatitudeDegrees>
              <LongitudeDegrees>-1.17158344946801662445068359375</LongitudeDegrees>
            </Position>
            <AltitudeMeters>1097.199951171875</AltitudeMeters>
            <DistanceMeters>587806.53582548</DistanceMeters>
          </Trackpoint>
          <Trackpoint>
            <Time>2021-08-04T08:46:47.000Z</Time>
            <Position>
              <LatitudeDegrees>40.96267352811992168426513671875</LatitudeDegrees>
              <LongitudeDegrees>-1.171410195529460906982421875</LongitudeDegrees>
            </Position>
            <AltitudeMeters>1098.199951171875</AltitudeMeters>
            <DistanceMeters>587821.65731997</DistanceMeters>
          </Trackpoint>
          <Trackpoint>
            <Time>2021-08-04T08:46:56.000Z</Time>
            <Position>
              <LatitudeDegrees>40.962663553655147552490234375</LatitudeDegrees>
              <LongitudeDegrees>-1.17117608897387981414794921875</LongitudeDegrees>
            </Position>
            <AltitudeMeters>1099.4000244140625</AltitudeMeters>
            <DistanceMeters>587841.36477003</DistanceMeters>
          </Trackpoint>
          <Trackpoint>
            <Time>2021-08-04T08:47:01.000Z</Time>
            <Position>
              <LatitudeDegrees>40.9626536630094051361083984375</LatitudeDegrees>
              <LongitudeDegrees>-1.1710496060550212860107421875</LongitudeDegrees>
            </Position>
            <AltitudeMeters>1100.5999755859375</AltitudeMeters>
            <DistanceMeters>587852.05221298</DistanceMeters>
          </Trackpoint>
          <Trackpoint>
            <Time>2021-08-04T08:47:08.000Z</Time>
            <Position>
              <LatitudeDegrees>40.96261066384613513946533203125</LatitudeDegrees>
              <LongitudeDegrees>-1.1708829738199710845947265625</LongitudeDegrees>
            </Position>
            <AltitudeMeters>1101.5999755859375</AltitudeMeters>
            <DistanceMeters>587866.85260468</DistanceMeters>
          </Trackpoint>
          <Trackpoint>
            <Time>2021-08-04T08:47:12.000Z</Time>
            <Position>
              <LatitudeDegrees>40.962591134011745452880859375</LatitudeDegrees>
              <LongitudeDegrees>-1.170786581933498382568359375</LongitudeDegrees>
            </Position>
            <AltitudeMeters>1102.800048828125</AltitudeMeters>
            <DistanceMeters>587875.24083189</DistanceMeters>
          </Trackpoint>
          <Trackpoint>
            <Time>2021-08-04T08:47:16.000Z</Time>
            <Position>
              <LatitudeDegrees>40.9625664912164211273193359375</LatitudeDegrees>
              <LongitudeDegrees>-1.170701421797275543212890625</LongitudeDegrees>
            </Position>
            <AltitudeMeters>1103.800048828125</AltitudeMeters>
            <DistanceMeters>587882.90507662</DistanceMeters>
          </Trackpoint>
          <Trackpoint>
            <Time>2021-08-04T08:47:20.000Z</Time>
            <Position>
              <LatitudeDegrees>40.96254847012460231781005859375</LatitudeDegrees>
              <LongitudeDegrees>-1.17061248980462551116943359375</LongitudeDegrees>
            </Position>
            <AltitudeMeters>1104.800048828125</AltitudeMeters>
            <DistanceMeters>587890.64377592</DistanceMeters>
          </Trackpoint>
          <Trackpoint>
            <Time>2021-08-04T08:47:24.000Z</Time>
            <Position>
              <LatitudeDegrees>40.96251393668353557586669921875</LatitudeDegrees>
              <LongitudeDegrees>-1.17052934132516384124755859375</LongitudeDegrees>
            </Position>
            <AltitudeMeters>1105.800048828125</AltitudeMeters>
            <DistanceMeters>587898.62036157</DistanceMeters>
          </Trackpoint>
          <Trackpoint>
            <Time>2021-08-04T08:47:32.000Z</Time>
            <Position>
              <LatitudeDegrees>40.9624776430428028106689453125</LatitudeDegrees>
              <LongitudeDegrees>-1.170341670513153076171875</LongitudeDegrees>
            </Position>
            <AltitudeMeters>1106.800048828125</AltitudeMeters>
            <DistanceMeters>587914.90296101</DistanceMeters>
          </Trackpoint>
          <Trackpoint>
            <Time>2021-08-04T08:47:37.000Z</Time>
            <Position>
              <LatitudeDegrees>40.9624414332211017608642578125</LatitudeDegrees>
              <LongitudeDegrees>-1.17024133913218975067138671875</LongitudeDegrees>
            </Position>
            <AltitudeMeters>1108</AltitudeMeters>
            <DistanceMeters>587924.24945551</DistanceMeters>
          </Trackpoint>
          <Trackpoint>
            <Time>2021-08-04T08:47:43.000Z</Time>
            <Position>
              <LatitudeDegrees>40.96239876933395862579345703125</LatitudeDegrees>
              <LongitudeDegrees>-1.17013715207576751708984375</LongitudeDegrees>
            </Position>
            <AltitudeMeters>1109.199951171875</AltitudeMeters>
            <DistanceMeters>587934.21050365</DistanceMeters>
          </Trackpoint>
          <Trackpoint>
            <Time>2021-08-04T08:47:48.000Z</Time>
            <Position>
              <LatitudeDegrees>40.9623556025326251983642578125</LatitudeDegrees>
              <LongitudeDegrees>-1.1700640618801116943359375</LongitudeDegrees>
            </Position>
            <AltitudeMeters>1110.4000244140625</AltitudeMeters>
            <DistanceMeters>587942.0096443</DistanceMeters>
          </Trackpoint>
          <Trackpoint>
            <Time>2021-08-04T08:47:52.000Z</Time>
            <Position>
              <LatitudeDegrees>40.96232685260474681854248046875</LatitudeDegrees>
              <LongitudeDegrees>-1.16999365389347076416015625</LongitudeDegrees>
            </Position>
            <AltitudeMeters>1111.4000244140625</AltitudeMeters>
            <DistanceMeters>587948.73710617</DistanceMeters>
          </Trackpoint>
          <Trackpoint>
            <Time>2021-08-04T08:47:56.000Z</Time>
            <Position>
              <LatitudeDegrees>40.962296426296234130859375</LatitudeDegrees>
              <LongitudeDegrees>-1.16992115043103694915771484375</LongitudeDegrees>
            </Position>
            <AltitudeMeters>1112.5999755859375</AltitudeMeters>
            <DistanceMeters>587955.70911459</DistanceMeters>
          </Trackpoint>
          <Trackpoint>
            <Time>2021-08-04T08:48:01.000Z</Time>
            <Position>
              <LatitudeDegrees>40.9622771479189395904541015625</LatitudeDegrees>
              <LongitudeDegrees>-1.169817633926868438720703125</LongitudeDegrees>
            </Position>
            <AltitudeMeters>1113.4000244140625</AltitudeMeters>
            <DistanceMeters>587964.67039072</DistanceMeters>
          </Trackpoint>
          <Trackpoint>
            <Time>2021-08-04T08:48:05.000Z</Time>
            <Position>
              <LatitudeDegrees>40.96226398833096027374267578125</LatitudeDegrees>
              <LongitudeDegrees>-1.169736497104167938232421875</LongitudeDegrees>
            </Position>
            <AltitudeMeters>1114.5999755859375</AltitudeMeters>
            <DistanceMeters>587971.64563637</DistanceMeters>
          </Trackpoint>
          <Trackpoint>
            <Time>2021-08-04T08:48:09.000Z</Time>
            <Position>
              <LatitudeDegrees>40.9622563607990741729736328125</LatitudeDegrees>
              <LongitudeDegrees>-1.16965577937662601470947265625</LongitudeDegrees>
            </Position>
            <AltitudeMeters>1115.5999755859375</AltitudeMeters>
            <DistanceMeters>587978.48293889</DistanceMeters>
          </Trackpoint>
          <Trackpoint>
            <Time>2021-08-04T08:48:13.000Z</Time>
            <Position>
              <LatitudeDegrees>40.962246470153331756591796875</LatitudeDegrees>
              <LongitudeDegrees>-1.16957833059132099151611328125</LongitudeDegrees>
            </Position>
            <AltitudeMeters>1116.5999755859375</AltitudeMeters>
            <DistanceMeters>587985.08438941</DistanceMeters>
          </Trackpoint>
          <Trackpoint>
            <Time>2021-08-04T08:48:18.000Z</Time>
            <Position>
              <LatitudeDegrees>40.962249152362346649169921875</LatitudeDegrees>
              <LongitudeDegrees>-1.16948026232421398162841796875</LongitudeDegrees>
            </Position>
            <AltitudeMeters>1117.800048828125</AltitudeMeters>
            <DistanceMeters>587993.33257684</DistanceMeters>
          </Trackpoint>
          <Trackpoint>
            <Time>2021-08-04T08:48:24.000Z</Time>
            <Position>
              <LatitudeDegrees>40.962269604206085205078125</LatitudeDegrees>
              <LongitudeDegrees>-1.16935051046311855316162109375</LongitudeDegrees>
            </Position>
            <AltitudeMeters>1118.800048828125</AltitudeMeters>
            <DistanceMeters>588004.47301537</DistanceMeters>
          </Trackpoint>
          <Trackpoint>
            <Time>2021-08-04T08:48:36.000Z</Time>
            <Position>
              <LatitudeDegrees>40.96233062446117401123046875</LatitudeDegrees>
              <LongitudeDegrees>-1.1691331677138805389404296875</LongitudeDegrees>
            </Position>
            <AltitudeMeters>1120</AltitudeMeters>
            <DistanceMeters>588023.96206551</DistanceMeters>
          </Trackpoint>
          <Trackpoint>
            <Time>2021-08-04T08:48:42.000Z</Time>
            <Position>
              <LatitudeDegrees>40.96236038021743297576904296875</LatitudeDegrees>
              <LongitudeDegrees>-1.1690584011375904083251953125</LongitudeDegrees>
            </Position>
            <AltitudeMeters>1120.5999755859375</AltitudeMeters>
            <DistanceMeters>588031.06495486</DistanceMeters>
          </Trackpoint>
          <Trackpoint>
            <Time>2021-08-04T08:48:47.000Z</Time>
            <Position>
              <LatitudeDegrees>40.9623773954808712005615234375</LatitudeDegrees>
              <LongitudeDegrees>-1.16902428679168224334716796875</LongitudeDegrees>
            </Position>
            <AltitudeMeters>1120.800048828125</AltitudeMeters>
            <DistanceMeters>588034.50171787</DistanceMeters>
          </Trackpoint>
          <Trackpoint>
            <Time>2021-08-04T08:50:25.000Z</Time>
            <Position>
              <LatitudeDegrees>40.96240111626684665679931640625</LatitudeDegrees>
              <LongitudeDegrees>-1.1689454130828380584716796875</LongitudeDegrees>
            </Position>
            <AltitudeMeters>1121</AltitudeMeters>
            <DistanceMeters>588041.63695234</DistanceMeters>
          </Trackpoint>
          <Trackpoint>
            <Time>2021-08-04T08:50:47.000Z</Time>
            <Position>
              <LatitudeDegrees>40.96260412596166133880615234375</LatitudeDegrees>
              <LongitudeDegrees>-1.16825080476701259613037109375</LongitudeDegrees>
            </Position>
            <AltitudeMeters>1120.199951171875</AltitudeMeters>
            <DistanceMeters>588104.23770725</DistanceMeters>
          </Trackpoint>
          <Trackpoint>
            <Time>2021-08-04T08:51:06.000Z</Time>
            <Position>
              <LatitudeDegrees>40.9628528170287609100341796875</LatitudeDegrees>
              <LongitudeDegrees>-1.16761176846921443939208984375</LongitudeDegrees>
            </Position>
            <AltitudeMeters>1121</AltitudeMeters>
            <DistanceMeters>588164.66050168</DistanceMeters>
          </Trackpoint>
          <Trackpoint>
            <Time>2021-08-04T08:51:23.000Z</Time>
            <Position>
              <LatitudeDegrees>40.96317417919635772705078125</LatitudeDegrees>
              <LongitudeDegrees>-1.16698530502617359161376953125</LongitudeDegrees>
            </Position>
            <AltitudeMeters>1120.800048828125</AltitudeMeters>
            <DistanceMeters>588228.31336446</DistanceMeters>
          </Trackpoint>
          <Trackpoint>
            <Time>2021-08-04T08:51:36.000Z</Time>
            <Position>
              <LatitudeDegrees>40.96343393437564373016357421875</LatitudeDegrees>
              <LongitudeDegrees>-1.16647400893270969390869140625</LongitudeDegrees>
            </Position>
            <AltitudeMeters>1121.800048828125</AltitudeMeters>
            <DistanceMeters>588280.10684676</DistanceMeters>
          </Trackpoint>
          <Trackpoint>
            <Time>2021-08-04T08:51:40.000Z</Time>
            <Position>
              <LatitudeDegrees>40.96350098960101604461669921875</LatitudeDegrees>
              <LongitudeDegrees>-1.16632330231368541717529296875</LongitudeDegrees>
            </Position>
            <AltitudeMeters>1123</AltitudeMeters>
            <DistanceMeters>588294.80868031</DistanceMeters>
          </Trackpoint>
          <Trackpoint>
            <Time>2021-08-04T08:51:55.000Z</Time>
            <Position>
              <LatitudeDegrees>40.963793098926544189453125</LatitudeDegrees>
              <LongitudeDegrees>-1.16566213779151439666748046875</LongitudeDegrees>
            </Position>
            <AltitudeMeters>1123</AltitudeMeters>
            <DistanceMeters>588359.18996307</DistanceMeters>
          </Trackpoint>
          <Trackpoint>
            <Time>2021-08-04T08:52:09.000Z</Time>
            <Position>
              <LatitudeDegrees>40.964088477194309234619140625</LatitudeDegrees>
              <LongitudeDegrees>-1.1650045774877071380615234375</LongitudeDegrees>
            </Position>
            <AltitudeMeters>1122.800048828125</AltitudeMeters>
            <DistanceMeters>588423.49503989</DistanceMeters>
          </Trackpoint>
          <Trackpoint>
            <Time>2021-08-04T08:52:15.000Z</Time>
            <Position>
              <LatitudeDegrees>40.964213199913501739501953125</LatitudeDegrees>
              <LongitudeDegrees>-1.16473727859556674957275390625</LongitudeDegrees>
            </Position>
            <AltitudeMeters>1123.199951171875</AltitudeMeters>
            <DistanceMeters>588449.90340663</DistanceMeters>
          </Trackpoint>
          <Trackpoint>
            <Time>2021-08-04T08:52:23.000Z</Time>
            <Position>
              <LatitudeDegrees>40.964414365589618682861328125</LatitudeDegrees>
              <LongitudeDegrees>-1.1643843166530132293701171875</LongitudeDegrees>
            </Position>
            <AltitudeMeters>1123.800048828125</AltitudeMeters>
            <DistanceMeters>588487.06966544</DistanceMeters>
          </Trackpoint>
          <Trackpoint>
            <Time>2021-08-04T08:52:31.000Z</Time>
            <Position>
              <LatitudeDegrees>40.96459633670747280120849609375</LatitudeDegrees>
              <LongitudeDegrees>-1.1640741862356662750244140625</LongitudeDegrees>
            </Position>
            <AltitudeMeters>1125</AltitudeMeters>
            <DistanceMeters>588520.07883302</DistanceMeters>
          </Trackpoint>
          <Trackpoint>
            <Time>2021-08-04T08:52:42.000Z</Time>
            <Position>
              <LatitudeDegrees>40.96475576050579547882080078125</LatitudeDegrees>
              <LongitudeDegrees>-1.1638200469315052032470703125</LongitudeDegrees>
            </Position>
            <AltitudeMeters>1126</AltitudeMeters>
            <DistanceMeters>588547.84712838</DistanceMeters>
          </Trackpoint>
          <Trackpoint>
            <Time>2021-08-04T08:52:49.000Z</Time>
            <Position>
              <LatitudeDegrees>40.96486656926572322845458984375</LatitudeDegrees>
              <LongitudeDegrees>-1.16369222290813922882080078125</LongitudeDegrees>
            </Position>
            <AltitudeMeters>1127</AltitudeMeters>
            <DistanceMeters>588564.20332124</DistanceMeters>
          </Trackpoint>
          <Trackpoint>
            <Time>2021-08-04T08:52:55.000Z</Time>
            <Position>
              <LatitudeDegrees>40.9649533219635486602783203125</LatitudeDegrees>
              <LongitudeDegrees>-1.163625083863735198974609375</LongitudeDegrees>
            </Position>
            <AltitudeMeters>1128.199951171875</AltitudeMeters>
            <DistanceMeters>588575.38663733</DistanceMeters>
          </Trackpoint>
          <Trackpoint>
            <Time>2021-08-04T08:53:02.000Z</Time>
            <Position>
              <LatitudeDegrees>40.965066812932491302490234375</LatitudeDegrees>
              <LongitudeDegrees>-1.16357638500630855560302734375</LongitudeDegrees>
            </Position>
            <AltitudeMeters>1129.199951171875</AltitudeMeters>
            <DistanceMeters>588588.66455932</DistanceMeters>
          </Trackpoint>
          <Trackpoint>
            <Time>2021-08-04T08:53:08.000Z</Time>
            <Position>
              <LatitudeDegrees>40.96514769829809665679931640625</LatitudeDegrees>
              <LongitudeDegrees>-1.16354051046073436737060546875</LongitudeDegrees>
            </Position>
            <AltitudeMeters>1130.4000244140625</AltitudeMeters>
            <DistanceMeters>588598.1586745</DistanceMeters>
          </Trackpoint>
          <Trackpoint>
            <Time>2021-08-04T08:53:17.000Z</Time>
            <Position>
              <LatitudeDegrees>40.9652828983962535858154296875</LatitudeDegrees>
              <LongitudeDegrees>-1.1634576134383678436279296875</LongitudeDegrees>
            </Position>
            <AltitudeMeters>1131.4000244140625</AltitudeMeters>
            <DistanceMeters>588614.74131265</DistanceMeters>
          </Trackpoint>
          <Trackpoint>
            <Time>2021-08-04T08:53:28.000Z</Time>
            <Position>
              <LatitudeDegrees>40.96544844098389148712158203125</LatitudeDegrees>
              <LongitudeDegrees>-1.16336080245673656463623046875</LongitudeDegrees>
            </Position>
            <AltitudeMeters>1132.4000244140625</AltitudeMeters>
            <DistanceMeters>588634.88294154</DistanceMeters>
          </Trackpoint>
          <Trackpoint>
            <Time>2021-08-04T08:53:37.000Z</Time>
            <Position>
              <LatitudeDegrees>40.96556830219924449920654296875</LatitudeDegrees>
              <LongitudeDegrees>-1.1632829345762729644775390625</LongitudeDegrees>
            </Position>
            <AltitudeMeters>1133.5999755859375</AltitudeMeters>
            <DistanceMeters>588649.74239742</DistanceMeters>
          </Trackpoint>
          <Trackpoint>
            <Time>2021-08-04T08:53:46.000Z</Time>
            <Position>
              <LatitudeDegrees>40.9656828828155994415283203125</LatitudeDegrees>
              <LongitudeDegrees>-1.1632138676941394805908203125</LongitudeDegrees>
            </Position>
            <AltitudeMeters>1134.800048828125</AltitudeMeters>
            <DistanceMeters>588663.75424677</DistanceMeters>
          </Trackpoint>
          <Trackpoint>
            <Time>2021-08-04T08:53:59.000Z</Time>
            <Position>
              <LatitudeDegrees>40.965857394039630889892578125</LatitudeDegrees>
              <LongitudeDegrees>-1.163181178271770477294921875</LongitudeDegrees>
            </Position>
            <AltitudeMeters>1135.800048828125</AltitudeMeters>
            <DistanceMeters>588683.37122252</DistanceMeters>
          </Trackpoint>
          <Trackpoint>
            <Time>2021-08-04T08:54:03.000Z</Time>
            <Position>
              <LatitudeDegrees>40.9659085236489772796630859375</LatitudeDegrees>
              <LongitudeDegrees>-1.1631786637008190155029296875</LongitudeDegrees>
            </Position>
            <AltitudeMeters>1137</AltitudeMeters>
            <DistanceMeters>588689.06648675</DistanceMeters>
          </Trackpoint>
          <Trackpoint>
            <Time>2021-08-04T08:54:08.000Z</Time>
            <Position>
              <LatitudeDegrees>40.96596795134246349334716796875</LatitudeDegrees>
              <LongitudeDegrees>-1.16315309889614582061767578125</LongitudeDegrees>
            </Position>
            <AltitudeMeters>1138</AltitudeMeters>
            <DistanceMeters>588696.02098812</DistanceMeters>
          </Trackpoint>
          <Trackpoint>
            <Time>2021-08-04T08:54:16.000Z</Time>
            <Position>
              <LatitudeDegrees>40.9660533629357814788818359375</LatitudeDegrees>
              <LongitudeDegrees>-1.16304430179297924041748046875</LongitudeDegrees>
            </Position>
            <AltitudeMeters>1139</AltitudeMeters>
            <DistanceMeters>588709.21088777</DistanceMeters>
          </Trackpoint>
          <Trackpoint>
            <Time>2021-08-04T08:54:17.000Z</Time>
            <Position>
              <LatitudeDegrees>40.966061241924762725830078125</LatitudeDegrees>
              <LongitudeDegrees>-1.163036338984966278076171875</LongitudeDegrees>
            </Position>
            <AltitudeMeters>1139.199951171875</AltitudeMeters>
            <DistanceMeters>588710.31499842</DistanceMeters>
          </Trackpoint>
          <Trackpoint>
            <Time>2021-08-04T08:54:19.000Z</Time>
            <Position>
              <LatitudeDegrees>40.96606970764696598052978515625</LatitudeDegrees>
              <LongitudeDegrees>-1.16300390101969242095947265625</LongitudeDegrees>
            </Position>
            <AltitudeMeters>1139</AltitudeMeters>
            <DistanceMeters>588713.19730138</DistanceMeters>
          </Trackpoint>
          <Trackpoint>
            <Time>2021-08-04T08:54:25.000Z</Time>
            <Position>
              <LatitudeDegrees>40.9660801850259304046630859375</LatitudeDegrees>
              <LongitudeDegrees>-1.16277985274791717529296875</LongitudeDegrees>
            </Position>
            <AltitudeMeters>1137.800048828125</AltitudeMeters>
            <DistanceMeters>588732.06291647</DistanceMeters>
          </Trackpoint>
          <Trackpoint>
            <Time>2021-08-04T08:54:29.000Z</Time>
            <Position>
              <LatitudeDegrees>40.96606149338185787200927734375</LatitudeDegrees>
              <LongitudeDegrees>-1.1625801958143711090087890625</LongitudeDegrees>
            </Position>
            <AltitudeMeters>1136.4000244140625</AltitudeMeters>
            <DistanceMeters>588748.97126412</DistanceMeters>
          </Trackpoint>
          <Trackpoint>
            <Time>2021-08-04T08:54:33.000Z</Time>
            <Position>
              <LatitudeDegrees>40.96607389859855175018310546875</LatitudeDegrees>
              <LongitudeDegrees>-1.16233804263174533843994140625</LongitudeDegrees>
            </Position>
            <AltitudeMeters>1135</AltitudeMeters>
            <DistanceMeters>588769.36949597</DistanceMeters>
          </Trackpoint>
          <Trackpoint>
            <Time>2021-08-04T08:54:34.000Z</Time>
            <Position>
              <LatitudeDegrees>40.966087393462657928466796875</LatitudeDegrees>
              <LongitudeDegrees>-1.1622757650911808013916015625</LongitudeDegrees>
            </Position>
            <AltitudeMeters>1134.800048828125</AltitudeMeters>
            <DistanceMeters>588774.8151154</DistanceMeters>
          </Trackpoint>
          <Trackpoint>
            <Time>2021-08-04T08:54:36.000Z</Time>
            <Position>
              <LatitudeDegrees>40.96611681394279003143310546875</LatitudeDegrees>
              <LongitudeDegrees>-1.16215146146714687347412109375</LongitudeDegrees>
            </Position>
            <AltitudeMeters>1134</AltitudeMeters>
            <DistanceMeters>588785.76341366</DistanceMeters>
          </Trackpoint>
          <Trackpoint>
            <Time>2021-08-04T08:54:43.000Z</Time>
            <Position>
              <LatitudeDegrees>40.9662588872015476226806640625</LatitudeDegrees>
              <LongitudeDegrees>-1.1618147604167461395263671875</LongitudeDegrees>
            </Position>
            <AltitudeMeters>1132.5999755859375</AltitudeMeters>
            <DistanceMeters>588818.17964317</DistanceMeters>
          </Trackpoint>
          <Trackpoint>
            <Time>2021-08-04T08:54:49.000Z</Time>
            <Position>
              <LatitudeDegrees>40.9664379246532917022705078125</LatitudeDegrees>
              <LongitudeDegrees>-1.16154142655432224273681640625</LongitudeDegrees>
            </Position>
            <AltitudeMeters>1131.5999755859375</AltitudeMeters>
            <DistanceMeters>588848.59027041</DistanceMeters>
          </Trackpoint>
          <Trackpoint>
            <Time>2021-08-04T08:54:55.000Z</Time>
            <Position>
              <LatitudeDegrees>40.9665991924703121185302734375</LatitudeDegrees>
              <LongitudeDegrees>-1.16126901470124721527099609375</LongitudeDegrees>
            </Position>
            <AltitudeMeters>1131.199951171875</AltitudeMeters>
            <DistanceMeters>588877.68210577</DistanceMeters>
          </Trackpoint>
          <Trackpoint>
            <Time>2021-08-04T08:55:07.000Z</Time>
            <Position>
              <LatitudeDegrees>40.966881997883319854736328125</LatitudeDegrees>
              <LongitudeDegrees>-1.1609655059874057769775390625</LongitudeDegrees>
            </Position>
            <AltitudeMeters>1132.5999755859375</AltitudeMeters>
            <DistanceMeters>588918.19682094</DistanceMeters>
          </Trackpoint>
          <Trackpoint>
            <Time>2021-08-04T08:55:12.000Z</Time>
            <Position>
              <LatitudeDegrees>40.96696523018181324005126953125</LatitudeDegrees>
              <LongitudeDegrees>-1.16088210605084896087646484375</LongitudeDegrees>
            </Position>
            <AltitudeMeters>1133.800048828125</AltitudeMeters>
            <DistanceMeters>588929.81342382</DistanceMeters>
          </Trackpoint>
          <Trackpoint>
            <Time>2021-08-04T08:55:20.000Z</Time>
            <Position>
              <LatitudeDegrees>40.96716170199215412139892578125</LatitudeDegrees>
              <LongitudeDegrees>-1.16066627204418182373046875</LongitudeDegrees>
            </Position>
            <AltitudeMeters>1133.199951171875</AltitudeMeters>
            <DistanceMeters>588958.22529904</DistanceMeters>
          </Trackpoint>
          <Trackpoint>
            <Time>2021-08-04T08:55:28.000Z</Time>
            <Position>
              <LatitudeDegrees>40.96736244857311248779296875</LatitudeDegrees>
              <LongitudeDegrees>-1.16044792346656322479248046875</LongitudeDegrees>
            </Position>
            <AltitudeMeters>1134.800048828125</AltitudeMeters>
            <DistanceMeters>588987.13841642</DistanceMeters>
          </Trackpoint>
          <Trackpoint>
            <Time>2021-08-04T08:55:43.000Z</Time>
            <Position>
              <LatitudeDegrees>40.9677077829837799072265625</LatitudeDegrees>
              <LongitudeDegrees>-1.1600227095186710357666015625</LongitudeDegrees>
            </Position>
            <AltitudeMeters>1135.800048828125</AltitudeMeters>
            <DistanceMeters>589039.62078553</DistanceMeters>
          </Trackpoint>
          <Trackpoint>
            <Time>2021-08-04T08:55:52.000Z</Time>
            <Position>
              <LatitudeDegrees>40.96786913461983203887939453125</LatitudeDegrees>
              <LongitudeDegrees>-1.15973596461117267608642578125</LongitudeDegrees>
            </Position>
            <AltitudeMeters>1137</AltitudeMeters>
            <DistanceMeters>589069.67507785</DistanceMeters>
          </Trackpoint>
          <Trackpoint>
            <Time>2021-08-04T08:56:11.000Z</Time>
            <Position>
              <LatitudeDegrees>40.96820306964218616485595703125</LatitudeDegrees>
              <LongitudeDegrees>-1.15915224887430667877197265625</LongitudeDegrees>
            </Position>
            <AltitudeMeters>1137</AltitudeMeters>
            <DistanceMeters>589131.221512</DistanceMeters>
          </Trackpoint>
          <Trackpoint>
            <Time>2021-08-04T08:56:15.000Z</Time>
            <Position>
              <LatitudeDegrees>40.9683154709637165069580078125</LatitudeDegrees>
              <LongitudeDegrees>-1.15903456695377826690673828125</LongitudeDegrees>
            </Position>
            <AltitudeMeters>1136.800048828125</AltitudeMeters>
            <DistanceMeters>589147.16902193</DistanceMeters>
          </Trackpoint>
          <Trackpoint>
            <Time>2021-08-04T08:56:17.000Z</Time>
            <Position>
              <LatitudeDegrees>40.96839166246354579925537109375</LatitudeDegrees>
              <LongitudeDegrees>-1.158976145088672637939453125</LongitudeDegrees>
            </Position>
            <AltitudeMeters>1135.800048828125</AltitudeMeters>
            <DistanceMeters>589156.96829909</DistanceMeters>
          </Trackpoint>
          <Trackpoint>
            <Time>2021-08-04T08:56:27.000Z</Time>
            <Position>
              <LatitudeDegrees>40.968659631907939910888671875</LatitudeDegrees>
              <LongitudeDegrees>-1.15883306600153446197509765625</LongitudeDegrees>
            </Position>
            <AltitudeMeters>1135.4000244140625</AltitudeMeters>
            <DistanceMeters>589189.12652424</DistanceMeters>
          </Trackpoint>
          <Trackpoint>
            <Time>2021-08-04T09:06:37.000Z</Time>
            <Position>
              <LatitudeDegrees>40.96875543706119060516357421875</LatitudeDegrees>
              <LongitudeDegrees>-1.1587878875434398651123046875</LongitudeDegrees>
            </Position>
            <AltitudeMeters>1135.5999755859375</AltitudeMeters>
            <DistanceMeters>589200.44547846</DistanceMeters>
          </Trackpoint>
          <Trackpoint>
            <Time>2021-08-04T09:06:39.000Z</Time>
            <Position>
              <LatitudeDegrees>40.96879617311060428619384765625</LatitudeDegrees>
              <LongitudeDegrees>-1.1587637476623058319091796875</LongitudeDegrees>
            </Position>
            <AltitudeMeters>1135</AltitudeMeters>
            <DistanceMeters>589205.41238583</DistanceMeters>
          </Trackpoint>
          <Trackpoint>
            <Time>2021-08-04T09:06:48.000Z</Time>
            <Position>
              <LatitudeDegrees>40.96895308233797550201416015625</LatitudeDegrees>
              <LongitudeDegrees>-1.15852653980255126953125</LongitudeDegrees>
            </Position>
            <AltitudeMeters>1136.199951171875</AltitudeMeters>
            <DistanceMeters>589231.91547105</DistanceMeters>
          </Trackpoint>
          <Trackpoint>
            <Time>2021-08-04T09:06:53.000Z</Time>
            <Position>
              <LatitudeDegrees>40.96901074983179569244384765625</LatitudeDegrees>
              <LongitudeDegrees>-1.1584164015948772430419921875</LongitudeDegrees>
            </Position>
            <AltitudeMeters>1137.199951171875</AltitudeMeters>
            <DistanceMeters>589243.17924369</DistanceMeters>
          </Trackpoint>
          <Trackpoint>
            <Time>2021-08-04T09:07:08.000Z</Time>
            <Position>
              <LatitudeDegrees>40.9692227281630039215087890625</LatitudeDegrees>
              <LongitudeDegrees>-1.15807433612644672393798828125</LongitudeDegrees>
            </Position>
            <AltitudeMeters>1138.199951171875</AltitudeMeters>
            <DistanceMeters>589280.36857695</DistanceMeters>
          </Trackpoint>
          <Trackpoint>
            <Time>2021-08-04T09:07:29.000Z</Time>
            <Position>
              <LatitudeDegrees>40.96961055882275104522705078125</LatitudeDegrees>
              <LongitudeDegrees>-1.15757695399224758148193359375</LongitudeDegrees>
            </Position>
            <AltitudeMeters>1138.4000244140625</AltitudeMeters>
            <DistanceMeters>589340.45650148</DistanceMeters>
          </Trackpoint>
          <Trackpoint>
            <Time>2021-08-04T09:07:42.000Z</Time>
            <Position>
              <LatitudeDegrees>40.96985757350921630859375</LatitudeDegrees>
              <LongitudeDegrees>-1.15722273476421833038330078125</LongitudeDegrees>
            </Position>
            <AltitudeMeters>1139.4000244140625</AltitudeMeters>
            <DistanceMeters>589380.97845973</DistanceMeters>
          </Trackpoint>
          <Trackpoint>
            <Time>2021-08-04T09:07:54.000Z</Time>
            <Position>
              <LatitudeDegrees>40.97008279524743556976318359375</LatitudeDegrees>
              <LongitudeDegrees>-1.15686667151749134063720703125</LongitudeDegrees>
            </Position>
            <AltitudeMeters>1138.800048828125</AltitudeMeters>
            <DistanceMeters>589420.01397202</DistanceMeters>
          </Trackpoint>
          <Trackpoint>
            <Time>2021-08-04T09:08:12.000Z</Time>
            <Position>
              <LatitudeDegrees>40.97032855264842510223388671875</LatitudeDegrees>
              <LongitudeDegrees>-1.15620173513889312744140625</LongitudeDegrees>
            </Position>
            <AltitudeMeters>1139</AltitudeMeters>
            <DistanceMeters>589482.22969711</DistanceMeters>
          </Trackpoint>
          <Trackpoint>
            <Time>2021-08-04T09:08:20.000Z</Time>
            <Position>
              <LatitudeDegrees>40.970450676977634429931640625</LatitudeDegrees>
              <LongitudeDegrees>-1.1559501104056835174560546875</LongitudeDegrees>
            </Position>
            <AltitudeMeters>1140.4000244140625</AltitudeMeters>
            <DistanceMeters>589507.36763098</DistanceMeters>
          </Trackpoint>
          <Trackpoint>
            <Time>2021-08-04T09:08:26.000Z</Time>
            <Position>
              <LatitudeDegrees>40.97054329700767993927001953125</LatitudeDegrees>
              <LongitudeDegrees>-1.155788339674472808837890625</LongitudeDegrees>
            </Position>
            <AltitudeMeters>1141.4000244140625</AltitudeMeters>
            <DistanceMeters>589524.4290947</DistanceMeters>
          </Trackpoint>
          <Trackpoint>
            <Time>2021-08-04T09:08:34.000Z</Time>
            <Position>
              <LatitudeDegrees>40.9706805087625980377197265625</LatitudeDegrees>
              <LongitudeDegrees>-1.15557770244777202606201171875</LongitudeDegrees>
            </Position>
            <AltitudeMeters>1142.4000244140625</AltitudeMeters>
            <DistanceMeters>589547.80798405</DistanceMeters>
          </Trackpoint>
          <Trackpoint>
            <Time>2021-08-04T09:08:40.000Z</Time>
            <Position>
              <LatitudeDegrees>40.970785953104496002197265625</LatitudeDegrees>
              <LongitudeDegrees>-1.15544308908283710479736328125</LongitudeDegrees>
            </Position>
            <AltitudeMeters>1143.5999755859375</AltitudeMeters>
            <DistanceMeters>589564.1088745</DistanceMeters>
          </Trackpoint>
          <Trackpoint>
            <Time>2021-08-04T09:09:00.000Z</Time>
            <Position>
              <LatitudeDegrees>40.97118635661900043487548828125</LatitudeDegrees>
              <LongitudeDegrees>-1.15503589622676372528076171875</LongitudeDegrees>
            </Position>
            <AltitudeMeters>1144.5999755859375</AltitudeMeters>
            <DistanceMeters>589620.29674922</DistanceMeters>
          </Trackpoint>
          <Trackpoint>
            <Time>2021-08-04T09:09:08.000Z</Time>
            <Position>
              <LatitudeDegrees>40.97134963609278202056884765625</LatitudeDegrees>
              <LongitudeDegrees>-1.15490086376667022705078125</LongitudeDegrees>
            </Position>
            <AltitudeMeters>1145.5999755859375</AltitudeMeters>
            <DistanceMeters>589641.72205986</DistanceMeters>
          </Trackpoint>
          <Trackpoint>
            <Time>2021-08-04T09:09:18.000Z</Time>
            <Position>
              <LatitudeDegrees>40.97155599854886531829833984375</LatitudeDegrees>
              <LongitudeDegrees>-1.15468804724514484405517578125</LongitudeDegrees>
            </Position>
            <AltitudeMeters>1146.800048828125</AltitudeMeters>
            <DistanceMeters>589670.8323581</DistanceMeters>
          </Trackpoint>
          <Trackpoint>
            <Time>2021-08-04T09:09:27.000Z</Time>
            <Position>
              <LatitudeDegrees>40.971701927483081817626953125</LatitudeDegrees>
              <LongitudeDegrees>-1.15447397343814373016357421875</LongitudeDegrees>
            </Position>
            <AltitudeMeters>1148</AltitudeMeters>
            <DistanceMeters>589695.06994571</DistanceMeters>
          </Trackpoint>
          <Trackpoint>
            <Time>2021-08-04T09:09:34.000Z</Time>
            <Position>
              <LatitudeDegrees>40.9718238003551959991455078125</LatitudeDegrees>
              <LongitudeDegrees>-1.15434958599507808685302734375</LongitudeDegrees>
            </Position>
            <AltitudeMeters>1149</AltitudeMeters>
            <DistanceMeters>589712.19480375</DistanceMeters>
          </Trackpoint>
          <Trackpoint>
            <Time>2021-08-04T09:09:41.000Z</Time>
            <Position>
              <LatitudeDegrees>40.97194257192313671112060546875</LatitudeDegrees>
              <LongitudeDegrees>-1.15421899594366550445556640625</LongitudeDegrees>
            </Position>
            <AltitudeMeters>1150.199951171875</AltitudeMeters>
            <DistanceMeters>589729.3759911</DistanceMeters>
          </Trackpoint>
          <Trackpoint>
            <Time>2021-08-04T09:09:50.000Z</Time>
            <Position>
              <LatitudeDegrees>40.97207886166870594024658203125</LatitudeDegrees>
              <LongitudeDegrees>-1.15404951386153697967529296875</LongitudeDegrees>
            </Position>
            <AltitudeMeters>1151.199951171875</AltitudeMeters>
            <DistanceMeters>589750.18402093</DistanceMeters>
          </Trackpoint>
          <Trackpoint>
            <Time>2021-08-04T09:10:01.000Z</Time>
            <Position>
              <LatitudeDegrees>40.972241051495075225830078125</LatitudeDegrees>
              <LongitudeDegrees>-1.15384734235703945159912109375</LongitudeDegrees>
            </Position>
            <AltitudeMeters>1151.800048828125</AltitudeMeters>
            <DistanceMeters>589774.97379346</DistanceMeters>
          </Trackpoint>
          <Trackpoint>
            <Time>2021-08-04T09:10:08.000Z</Time>
            <Position>
              <LatitudeDegrees>40.97235261462628841400146484375</LatitudeDegrees>
              <LongitudeDegrees>-1.1537320911884307861328125</LongitudeDegrees>
            </Position>
            <AltitudeMeters>1152.199951171875</AltitudeMeters>
            <DistanceMeters>589790.72129991</DistanceMeters>
          </Trackpoint>
          <Trackpoint>
            <Time>2021-08-04T09:10:22.000Z</Time>
            <Position>
              <LatitudeDegrees>40.97255210392177104949951171875</LatitudeDegrees>
              <LongitudeDegrees>-1.15345892496407032012939453125</LongitudeDegrees>
            </Position>
            <AltitudeMeters>1153.199951171875</AltitudeMeters>
            <DistanceMeters>589822.65819385</DistanceMeters>
          </Trackpoint>
          <Trackpoint>
            <Time>2021-08-04T09:10:32.000Z</Time>
            <Position>
              <LatitudeDegrees>40.9726807661354541778564453125</LatitudeDegrees>
              <LongitudeDegrees>-1.15324518643319606781005859375</LongitudeDegrees>
            </Position>
            <AltitudeMeters>1154.199951171875</AltitudeMeters>
            <DistanceMeters>589845.6297105</DistanceMeters>
          </Trackpoint>
          <Trackpoint>
            <Time>2021-08-04T09:10:37.000Z</Time>
            <Position>
              <LatitudeDegrees>40.9727424569427967071533203125</LatitudeDegrees>
              <LongitudeDegrees>-1.1531425081193447113037109375</LongitudeDegrees>
            </Position>
            <AltitudeMeters>1155.4000244140625</AltitudeMeters>
            <DistanceMeters>589856.65690459</DistanceMeters>
          </Trackpoint>
          <Trackpoint>
            <Time>2021-08-04T09:11:00.000Z</Time>
            <Position>
              <LatitudeDegrees>40.97316406667232513427734375</LatitudeDegrees>
              <LongitudeDegrees>-1.1526684276759624481201171875</LongitudeDegrees>
            </Position>
            <AltitudeMeters>1155.800048828125</AltitudeMeters>
            <DistanceMeters>589918.21360826</DistanceMeters>
          </Trackpoint>
          <Trackpoint>
            <Time>2021-08-04T09:11:05.000Z</Time>
            <Position>
              <LatitudeDegrees>40.97327713854610919952392578125</LatitudeDegrees>
              <LongitudeDegrees>-1.1525423638522624969482421875</LongitudeDegrees>
            </Position>
            <AltitudeMeters>1156</AltitudeMeters>
            <DistanceMeters>589934.66393747</DistanceMeters>
          </Trackpoint>
          <Trackpoint>
            <Time>2021-08-04T09:11:22.000Z</Time>
            <Position>
              <LatitudeDegrees>40.97364284098148345947265625</LatitudeDegrees>
              <LongitudeDegrees>-1.15202629007399082183837890625</LongitudeDegrees>
            </Position>
            <AltitudeMeters>1156.199951171875</AltitudeMeters>
            <DistanceMeters>589994.14124833</DistanceMeters>
          </Trackpoint>
          <Trackpoint>
            <Time>2021-08-04T09:11:38.000Z</Time>
            <Position>
              <LatitudeDegrees>40.9741036780178546905517578125</LatitudeDegrees>
              <LongitudeDegrees>-1.15160870365798473358154296875</LongitudeDegrees>
            </Position>
            <AltitudeMeters>1155.4000244140625</AltitudeMeters>
            <DistanceMeters>590056.28842892</DistanceMeters>
          </Trackpoint>
          <Trackpoint>
            <Time>2021-08-04T09:11:55.000Z</Time>
            <Position>
              <LatitudeDegrees>40.97458362579345703125</LatitudeDegrees>
              <LongitudeDegrees>-1.1512250639498233795166015625</LongitudeDegrees>
            </Position>
            <AltitudeMeters>1156.800048828125</AltitudeMeters>
            <DistanceMeters>590118.68169887</DistanceMeters>
          </Trackpoint>
          <Trackpoint>
            <Time>2021-08-04T09:11:56.000Z</Time>
            <Position>
              <LatitudeDegrees>40.974612794816493988037109375</LatitudeDegrees>
              <LongitudeDegrees>-1.15121282637119293212890625</LongitudeDegrees>
            </Position>
            <AltitudeMeters>1157.199951171875</AltitudeMeters>
            <DistanceMeters>590122.08678597</DistanceMeters>
          </Trackpoint>
          <Trackpoint>
            <Time>2021-08-04T09:12:03.000Z</Time>
            <Position>
              <LatitudeDegrees>40.9748717956244945526123046875</LatitudeDegrees>
              <LongitudeDegrees>-1.15115976892411708831787109375</LongitudeDegrees>
            </Position>
            <AltitudeMeters>1155.800048828125</AltitudeMeters>
            <DistanceMeters>590151.25673701</DistanceMeters>
          </Trackpoint>
          <Trackpoint>
            <Time>2021-08-04T09:12:04.000Z</Time>
            <Position>
              <LatitudeDegrees>40.9749180637300014495849609375</LatitudeDegrees>
              <LongitudeDegrees>-1.15114350803196430206298828125</LongitudeDegrees>
            </Position>
            <AltitudeMeters>1155.4000244140625</AltitudeMeters>
            <DistanceMeters>590156.58501631</DistanceMeters>
          </Trackpoint>
          <Trackpoint>
            <Time>2021-08-04T09:12:12.000Z</Time>
            <Position>
              <LatitudeDegrees>40.9751198999583721160888671875</LatitudeDegrees>
              <LongitudeDegrees>-1.150879897177219390869140625</LongitudeDegrees>
            </Position>
            <AltitudeMeters>1157</AltitudeMeters>
            <DistanceMeters>590188.13445792</DistanceMeters>
          </Trackpoint>
          <Trackpoint>
            <Time>2021-08-04T09:12:17.000Z</Time>
            <Position>
              <LatitudeDegrees>40.97520078532397747039794921875</LatitudeDegrees>
              <LongitudeDegrees>-1.150753498077392578125</LongitudeDegrees>
            </Position>
            <AltitudeMeters>1158.199951171875</AltitudeMeters>
            <DistanceMeters>590202.05838486</DistanceMeters>
          </Trackpoint>
          <Trackpoint>
            <Time>2021-08-04T09:12:25.000Z</Time>
            <Position>
              <LatitudeDegrees>40.9753371588885784149169921875</LatitudeDegrees>
              <LongitudeDegrees>-1.1505809985101222991943359375</LongitudeDegrees>
            </Position>
            <AltitudeMeters>1159.199951171875</AltitudeMeters>
            <DistanceMeters>590223.04660034</DistanceMeters>
          </Trackpoint>
          <Trackpoint>
            <Time>2021-08-04T09:12:31.000Z</Time>
            <Position>
              <LatitudeDegrees>40.97544553689658641815185546875</LatitudeDegrees>
              <LongitudeDegrees>-1.15047111175954341888427734375</LongitudeDegrees>
            </Position>
            <AltitudeMeters>1160.5999755859375</AltitudeMeters>
            <DistanceMeters>590238.23780285</DistanceMeters>
          </Trackpoint>
          <Trackpoint>
            <Time>2021-08-04T09:12:36.000Z</Time>
            <Position>
              <LatitudeDegrees>40.975534804165363311767578125</LatitudeDegrees>
              <LongitudeDegrees>-1.150392405688762664794921875</LongitudeDegrees>
            </Position>
            <AltitudeMeters>1160.800048828125</AltitudeMeters>
            <DistanceMeters>590250.17340028</DistanceMeters>
          </Trackpoint>
          <Trackpoint>
            <Time>2021-08-04T09:12:44.000Z</Time>
            <Position>
              <LatitudeDegrees>40.9756858460605144500732421875</LatitudeDegrees>
              <LongitudeDegrees>-1.15026676096022129058837890625</LongitudeDegrees>
            </Position>
            <AltitudeMeters>1161.5999755859375</AltitudeMeters>
            <DistanceMeters>590270.02534291</DistanceMeters>
          </Trackpoint>
          <Trackpoint>
            <Time>2021-08-04T09:12:52.000Z</Time>
            <Position>
              <LatitudeDegrees>40.97583998925983905792236328125</LatitudeDegrees>
              <LongitudeDegrees>-1.15015561692416667938232421875</LongitudeDegrees>
            </Position>
            <AltitudeMeters>1162.5999755859375</AltitudeMeters>
            <DistanceMeters>590289.55928542</DistanceMeters>
          </Trackpoint>
          <Trackpoint>
            <Time>2021-08-04T09:12:58.000Z</Time>
            <Position>
              <LatitudeDegrees>40.97594409249722957611083984375</LatitudeDegrees>
              <LongitudeDegrees>-1.15007900632917881011962890625</LongitudeDegrees>
            </Position>
            <AltitudeMeters>1162.800048828125</AltitudeMeters>
            <DistanceMeters>590302.81474571</DistanceMeters>
          </Trackpoint>
          <Trackpoint>
            <Time>2021-08-04T09:13:03.000Z</Time>
            <Position>
              <LatitudeDegrees>40.97603813745081424713134765625</LatitudeDegrees>
              <LongitudeDegrees>-1.15000046789646148681640625</LongitudeDegrees>
            </Position>
            <AltitudeMeters>1163.800048828125</AltitudeMeters>
            <DistanceMeters>590315.18866894</DistanceMeters>
          </Trackpoint>
          <Trackpoint>
            <Time>2021-08-04T09:13:07.000Z</Time>
            <Position>
              <LatitudeDegrees>40.9761059470474720001220703125</LatitudeDegrees>
              <LongitudeDegrees>-1.149940453469753265380859375</LongitudeDegrees>
            </Position>
            <AltitudeMeters>1164.4000244140625</AltitudeMeters>
            <DistanceMeters>590324.26558568</DistanceMeters>
          </Trackpoint>
          <Trackpoint>
            <Time>2021-08-04T09:13:10.000Z</Time>
            <Position>
              <LatitudeDegrees>40.9761567413806915283203125</LatitudeDegrees>
              <LongitudeDegrees>-1.149900220334529876708984375</LongitudeDegrees>
            </Position>
            <AltitudeMeters>1165</AltitudeMeters>
            <DistanceMeters>590330.85334307</DistanceMeters>
          </Trackpoint>
          <Trackpoint>
            <Time>2021-08-04T09:13:18.000Z</Time>
            <Position>
              <LatitudeDegrees>40.97630417905747890472412109375</LatitudeDegrees>
              <LongitudeDegrees>-1.1497857235372066497802734375</LongitudeDegrees>
            </Position>
            <AltitudeMeters>1166.199951171875</AltitudeMeters>
            <DistanceMeters>590349.87578306</DistanceMeters>
          </Trackpoint>
          <Trackpoint>
            <Time>2021-08-04T09:13:26.000Z</Time>
            <Position>
              <LatitudeDegrees>40.97645647823810577392578125</LatitudeDegrees>
              <LongitudeDegrees>-1.14966343156993389129638671875</LongitudeDegrees>
            </Position>
            <AltitudeMeters>1167</AltitudeMeters>
            <DistanceMeters>590369.69859256</DistanceMeters>
          </Trackpoint>
          <Trackpoint>
            <Time>2021-08-04T09:13:33.000Z</Time>
            <Position>
              <LatitudeDegrees>40.97659729421138763427734375</LatitudeDegrees>
              <LongitudeDegrees>-1.149558909237384796142578125</LongitudeDegrees>
            </Position>
            <AltitudeMeters>1168</AltitudeMeters>
            <DistanceMeters>590387.66492531</DistanceMeters>
          </Trackpoint>
          <Trackpoint>
            <Time>2021-08-04T09:13:48.000Z</Time>
            <Position>
              <LatitudeDegrees>40.9769280441105365753173828125</LatitudeDegrees>
              <LongitudeDegrees>-1.14933662116527557373046875</LongitudeDegrees>
            </Position>
            <AltitudeMeters>1169</AltitudeMeters>
            <DistanceMeters>590428.94569379</DistanceMeters>
          </Trackpoint>
          <Trackpoint>
            <Time>2021-08-04T09:14:08.000Z</Time>
            <Position>
              <LatitudeDegrees>40.97738728858530521392822265625</LatitudeDegrees>
              <LongitudeDegrees>-1.14906035363674163818359375</LongitudeDegrees>
            </Position>
            <AltitudeMeters>1170.199951171875</AltitudeMeters>
            <DistanceMeters>590485.08517331</DistanceMeters>
          </Trackpoint>
          <Trackpoint>
            <Time>2021-08-04T09:14:28.000Z</Time>
            <Position>
              <LatitudeDegrees>40.97787243314087390899658203125</LatitudeDegrees>
              <LongitudeDegrees>-1.148720718920230865478515625</LongitudeDegrees>
            </Position>
            <AltitudeMeters>1171.199951171875</AltitudeMeters>
            <DistanceMeters>590546.16066936</DistanceMeters>
          </Trackpoint>
          <Trackpoint>
            <Time>2021-08-04T09:14:31.000Z</Time>
            <Position>
              <LatitudeDegrees>40.977944433689117431640625</LatitudeDegrees>
              <LongitudeDegrees>-1.14867277443408966064453125</LongitudeDegrees>
            </Position>
            <AltitudeMeters>1171.199951171875</AltitudeMeters>
            <DistanceMeters>590555.13000328</DistanceMeters>
          </Trackpoint>
          <Trackpoint>
            <Time>2021-08-04T09:14:51.000Z</Time>
            <Position>
              <LatitudeDegrees>40.97844491712749004364013671875</LatitudeDegrees>
              <LongitudeDegrees>-1.1484814994037151336669921875</LongitudeDegrees>
            </Position>
            <AltitudeMeters>1172.4000244140625</AltitudeMeters>
            <DistanceMeters>590613.10720273</DistanceMeters>
          </Trackpoint>
          <Trackpoint>
            <Time>2021-08-04T09:15:02.000Z</Time>
            <Position>
              <LatitudeDegrees>40.97868061624467372894287109375</LatitudeDegrees>
              <LongitudeDegrees>-1.14820363931357860565185546875</LongitudeDegrees>
            </Position>
            <AltitudeMeters>1173.5999755859375</AltitudeMeters>
            <DistanceMeters>590648.2262275</DistanceMeters>
          </Trackpoint>
          <Trackpoint>
            <Time>2021-08-04T09:15:16.000Z</Time>
            <Position>
              <LatitudeDegrees>40.978996865451335906982421875</LatitudeDegrees>
              <LongitudeDegrees>-1.14795737899839878082275390625</LongitudeDegrees>
            </Position>
            <AltitudeMeters>1174.5999755859375</AltitudeMeters>
            <DistanceMeters>590689.05720634</DistanceMeters>
          </Trackpoint>
          <Trackpoint>
            <Time>2021-08-04T09:15:24.000Z</Time>
            <Position>
              <LatitudeDegrees>40.97918151877820491790771484375</LatitudeDegrees>
              <LongitudeDegrees>-1.14784019999206066131591796875</LongitudeDegrees>
            </Position>
            <AltitudeMeters>1175.5999755859375</AltitudeMeters>
            <DistanceMeters>590711.84638769</DistanceMeters>
          </Trackpoint>
          <Trackpoint>
            <Time>2021-08-04T09:15:40.000Z</Time>
            <Position>
              <LatitudeDegrees>40.97957798279821872711181640625</LatitudeDegrees>
              <LongitudeDegrees>-1.14758782088756561279296875</LongitudeDegrees>
            </Position>
            <AltitudeMeters>1176.800048828125</AltitudeMeters>
            <DistanceMeters>590760.80497725</DistanceMeters>
          </Trackpoint>
          <Trackpoint>
            <Time>2021-08-04T09:15:51.000Z</Time>
            <Position>
              <LatitudeDegrees>40.9798167832195758819580078125</LatitudeDegrees>
              <LongitudeDegrees>-1.14739394746720790863037109375</LongitudeDegrees>
            </Position>
            <AltitudeMeters>1178</AltitudeMeters>
            <DistanceMeters>590791.97924367</DistanceMeters>
          </Trackpoint>
          <Trackpoint>
            <Time>2021-08-04T09:15:58.000Z</Time>
            <Position>
              <LatitudeDegrees>40.9799351356923580169677734375</LatitudeDegrees>
              <LongitudeDegrees>-1.14722840487957000732421875</LongitudeDegrees>
            </Position>
            <AltitudeMeters>1179.199951171875</AltitudeMeters>
            <DistanceMeters>590811.13673299</DistanceMeters>
          </Trackpoint>
          <Trackpoint>
            <Time>2021-08-04T09:16:09.000Z</Time>
            <Position>
              <LatitudeDegrees>40.9801393188536167144775390625</LatitudeDegrees>
              <LongitudeDegrees>-1.1469888500869274139404296875</LongitudeDegrees>
            </Position>
            <AltitudeMeters>1180.199951171875</AltitudeMeters>
            <DistanceMeters>590841.49520284</DistanceMeters>
          </Trackpoint>
          <Trackpoint>
            <Time>2021-08-04T09:16:19.000Z</Time>
            <Position>
              <LatitudeDegrees>40.98033227026462554931640625</LatitudeDegrees>
              <LongitudeDegrees>-1.1467923782765865325927734375</LongitudeDegrees>
            </Position>
            <AltitudeMeters>1181.199951171875</AltitudeMeters>
            <DistanceMeters>590868.58298407</DistanceMeters>
          </Trackpoint>
          <Trackpoint>
            <Time>2021-08-04T09:16:23.000Z</Time>
            <Position>
              <LatitudeDegrees>40.98040695302188396453857421875</LatitudeDegrees>
              <LongitudeDegrees>-1.14672255702316761016845703125</LongitudeDegrees>
            </Position>
            <AltitudeMeters>1181.800048828125</AltitudeMeters>
            <DistanceMeters>590878.75750108</DistanceMeters>
          </Trackpoint>
          <Trackpoint>
            <Time>2021-08-04T09:16:28.000Z</Time>
            <Position>
              <LatitudeDegrees>40.9804947115480899810791015625</LatitudeDegrees>
              <LongitudeDegrees>-1.14663940854370594024658203125</LongitudeDegrees>
            </Position>
            <AltitudeMeters>1182.4000244140625</AltitudeMeters>
            <DistanceMeters>590890.76701318</DistanceMeters>
          </Trackpoint>
          <Trackpoint>
            <Time>2021-08-04T09:16:37.000Z</Time>
            <Position>
              <LatitudeDegrees>40.9806506149470806121826171875</LatitudeDegrees>
              <LongitudeDegrees>-1.1465033702552318572998046875</LongitudeDegrees>
            </Position>
            <AltitudeMeters>1183.4000244140625</AltitudeMeters>
            <DistanceMeters>590911.54594662</DistanceMeters>
          </Trackpoint>
          <Trackpoint>
            <Time>2021-08-04T09:16:46.000Z</Time>
            <Position>
              <LatitudeDegrees>40.98082621581852436065673828125</LatitudeDegrees>
              <LongitudeDegrees>-1.1463618837296962738037109375</LongitudeDegrees>
            </Position>
            <AltitudeMeters>1184.5999755859375</AltitudeMeters>
            <DistanceMeters>590934.42233293</DistanceMeters>
          </Trackpoint>
          <Trackpoint>
            <Time>2021-08-04T09:17:08.000Z</Time>
            <Position>
              <LatitudeDegrees>40.9813607297837734222412109375</LatitudeDegrees>
              <LongitudeDegrees>-1.14620220847427845001220703125</LongitudeDegrees>
            </Position>
            <AltitudeMeters>1185</AltitudeMeters>
            <DistanceMeters>590995.40883173</DistanceMeters>
          </Trackpoint>
          <Trackpoint>
            <Time>2021-08-04T09:17:13.000Z</Time>
            <Position>
              <LatitudeDegrees>40.981488637626171112060546875</LatitudeDegrees>
              <LongitudeDegrees>-1.1461709439754486083984375</LongitudeDegrees>
            </Position>
            <AltitudeMeters>1185.5999755859375</AltitudeMeters>
            <DistanceMeters>591009.88505306</DistanceMeters>
          </Trackpoint>
          <Trackpoint>
            <Time>2021-08-04T09:17:18.000Z</Time>
            <Position>
              <LatitudeDegrees>40.98162014968693256378173828125</LatitudeDegrees>
              <LongitudeDegrees>-1.14610766060650348663330078125</LongitudeDegrees>
            </Position>
            <AltitudeMeters>1186.800048828125</AltitudeMeters>
            <DistanceMeters>591025.45842113</DistanceMeters>
          </Trackpoint>
          <Trackpoint>
            <Time>2021-08-04T09:17:21.000Z</Time>
            <Position>
              <LatitudeDegrees>40.98169256933033466339111328125</LatitudeDegrees>
              <LongitudeDegrees>-1.14610916934907436370849609375</LongitudeDegrees>
            </Position>
            <AltitudeMeters>1188</AltitudeMeters>
            <DistanceMeters>591033.51946511</DistanceMeters>
          </Trackpoint>
          <Trackpoint>
            <Time>2021-08-04T09:17:29.000Z</Time>
            <Position>
              <LatitudeDegrees>40.981851406395435333251953125</LatitudeDegrees>
              <LongitudeDegrees>-1.1460688523948192596435546875</LongitudeDegrees>
            </Position>
            <AltitudeMeters>1189</AltitudeMeters>
            <DistanceMeters>591051.51994297</DistanceMeters>
          </Trackpoint>
          <Trackpoint>
            <Time>2021-08-04T09:17:38.000Z</Time>
            <Position>
              <LatitudeDegrees>40.9820161946117877960205078125</LatitudeDegrees>
              <LongitudeDegrees>-1.14602367393672466278076171875</LongitudeDegrees>
            </Position>
            <AltitudeMeters>1190</AltitudeMeters>
            <DistanceMeters>591070.25009166</DistanceMeters>
          </Trackpoint>
          <Trackpoint>
            <Time>2021-08-04T09:17:46.000Z</Time>
            <Position>
              <LatitudeDegrees>40.98214234225451946258544921875</LatitudeDegrees>
              <LongitudeDegrees>-1.145944632589817047119140625</LongitudeDegrees>
            </Position>
            <AltitudeMeters>1191.199951171875</AltitudeMeters>
            <DistanceMeters>591085.78223646</DistanceMeters>
          </Trackpoint>
          <Trackpoint>
            <Time>2021-08-04T09:18:00.000Z</Time>
            <Position>
              <LatitudeDegrees>40.982371754944324493408203125</LatitudeDegrees>
              <LongitudeDegrees>-1.14582368172705173492431640625</LongitudeDegrees>
            </Position>
            <AltitudeMeters>1192.4000244140625</AltitudeMeters>
            <DistanceMeters>591113.26451427</DistanceMeters>
          </Trackpoint>
          <Trackpoint>
            <Time>2021-08-04T09:18:10.000Z</Time>
            <Position>
              <LatitudeDegrees>40.9825046919286251068115234375</LatitudeDegrees>
              <LongitudeDegrees>-1.1456547863781452178955078125</LongitudeDegrees>
            </Position>
            <AltitudeMeters>1193.5999755859375</AltitudeMeters>
            <DistanceMeters>591133.76607368</DistanceMeters>
          </Trackpoint>
          <Trackpoint>
            <Time>2021-08-04T09:18:21.000Z</Time>
            <Position>
              <LatitudeDegrees>40.9826770238578319549560546875</LatitudeDegrees>
              <LongitudeDegrees>-1.14545454271137714385986328125</LongitudeDegrees>
            </Position>
            <AltitudeMeters>1194.5999755859375</AltitudeMeters>
            <DistanceMeters>591159.28070225</DistanceMeters>
          </Trackpoint>
          <Trackpoint>
            <Time>2021-08-04T09:18:29.000Z</Time>
            <Position>
              <LatitudeDegrees>40.98281322978436946868896484375</LatitudeDegrees>
              <LongitudeDegrees>-1.14533350802958011627197265625</LongitudeDegrees>
            </Position>
            <AltitudeMeters>1195.5999755859375</AltitudeMeters>
            <DistanceMeters>591177.53597467</DistanceMeters>
          </Trackpoint>
          <Trackpoint>
            <Time>2021-08-04T09:18:36.000Z</Time>
            <Position>
              <LatitudeDegrees>40.9829009883105754852294921875</LatitudeDegrees>
              <LongitudeDegrees>-1.14519839175045490264892578125</LongitudeDegrees>
            </Position>
            <AltitudeMeters>1196.800048828125</AltitudeMeters>
            <DistanceMeters>591192.51286016</DistanceMeters>
          </Trackpoint>
          <Trackpoint>
            <Time>2021-08-04T09:18:42.000Z</Time>
            <Position>
              <LatitudeDegrees>40.98296527750790119171142578125</LatitudeDegrees>
              <LongitudeDegrees>-1.1450824700295925140380859375</LongitudeDegrees>
            </Position>
            <AltitudeMeters>1197.800048828125</AltitudeMeters>
            <DistanceMeters>591204.59919735</DistanceMeters>
          </Trackpoint>
          <Trackpoint>
            <Time>2021-08-04T09:18:50.000Z</Time>
            <Position>
              <LatitudeDegrees>40.98305781371891498565673828125</LatitudeDegrees>
              <LongitudeDegrees>-1.14495632238686084747314453125</LongitudeDegrees>
            </Position>
            <AltitudeMeters>1198.800048828125</AltitudeMeters>
            <DistanceMeters>591219.37821927</DistanceMeters>
          </Trackpoint>
          <Trackpoint>
            <Time>2021-08-04T09:18:56.000Z</Time>
            <Position>
              <LatitudeDegrees>40.9831370227038860321044921875</LatitudeDegrees>
              <LongitudeDegrees>-1.14487434737384319305419921875</LongitudeDegrees>
            </Position>
            <AltitudeMeters>1200</AltitudeMeters>
            <DistanceMeters>591230.56637907</DistanceMeters>
          </Trackpoint>
          <Trackpoint>
            <Time>2021-08-04T09:19:06.000Z</Time>
            <Position>
              <LatitudeDegrees>40.98323903046548366546630859375</LatitudeDegrees>
              <LongitudeDegrees>-1.14468089304864406585693359375</LongitudeDegrees>
            </Position>
            <AltitudeMeters>1201</AltitudeMeters>
            <DistanceMeters>591250.39374344</DistanceMeters>
          </Trackpoint>
          <Trackpoint>
            <Time>2021-08-04T09:19:15.000Z</Time>
            <Position>
              <LatitudeDegrees>40.983341038227081298828125</LatitudeDegrees>
              <LongitudeDegrees>-1.14450738765299320220947265625</LongitudeDegrees>
            </Position>
            <AltitudeMeters>1202</AltitudeMeters>
            <DistanceMeters>591268.87149196</DistanceMeters>
          </Trackpoint>
          <Trackpoint>
            <Time>2021-08-04T09:19:22.000Z</Time>
            <Position>
              <LatitudeDegrees>40.98342619836330413818359375</LatitudeDegrees>
              <LongitudeDegrees>-1.14437042735517024993896484375</LongitudeDegrees>
            </Position>
            <AltitudeMeters>1203</AltitudeMeters>
            <DistanceMeters>591283.7800902</DistanceMeters>
          </Trackpoint>
          <Trackpoint>
            <Time>2021-08-04T09:19:41.000Z</Time>
            <Position>
              <LatitudeDegrees>40.98369450308382511138916015625</LatitudeDegrees>
              <LongitudeDegrees>-1.14399475045502185821533203125</LongitudeDegrees>
            </Position>
            <AltitudeMeters>1204.199951171875</AltitudeMeters>
            <DistanceMeters>591327.23286726</DistanceMeters>
          </Trackpoint>
          <Trackpoint>
            <Time>2021-08-04T09:19:45.000Z</Time>
            <Position>
              <LatitudeDegrees>40.9837482310831546783447265625</LatitudeDegrees>
              <LongitudeDegrees>-1.1439157091081142425537109375</LongitudeDegrees>
            </Position>
            <AltitudeMeters>1205.199951171875</AltitudeMeters>
            <DistanceMeters>591336.16942119</DistanceMeters>
          </Trackpoint>
          <Trackpoint>
            <Time>2021-08-04T09:20:10.000Z</Time>
            <Position>
              <LatitudeDegrees>40.9842221438884735107421875</LatitudeDegrees>
              <LongitudeDegrees>-1.14358303137123584747314453125</LongitudeDegrees>
            </Position>
            <AltitudeMeters>1205.4000244140625</AltitudeMeters>
            <DistanceMeters>591395.86526064</DistanceMeters>
          </Trackpoint>
          <Trackpoint>
            <Time>2021-08-04T09:20:20.000Z</Time>
            <Position>
              <LatitudeDegrees>40.98444879055023193359375</LatitudeDegrees>
              <LongitudeDegrees>-1.1434121243655681610107421875</LongitudeDegrees>
            </Position>
            <AltitudeMeters>1206.4000244140625</AltitudeMeters>
            <DistanceMeters>591424.89215011</DistanceMeters>
          </Trackpoint>
          <Trackpoint>
            <Time>2021-08-04T09:20:27.000Z</Time>
            <Position>
              <LatitudeDegrees>40.98455817438662052154541015625</LatitudeDegrees>
              <LongitudeDegrees>-1.14329402334988117218017578125</LongitudeDegrees>
            </Position>
            <AltitudeMeters>1207.4000244140625</AltitudeMeters>
            <DistanceMeters>591440.59831541</DistanceMeters>
          </Trackpoint>
          <Trackpoint>
            <Time>2021-08-04T09:20:32.000Z</Time>
            <Position>
              <LatitudeDegrees>40.9846352040767669677734375</LatitudeDegrees>
              <LongitudeDegrees>-1.143221519887447357177734375</LongitudeDegrees>
            </Position>
            <AltitudeMeters>1208.5999755859375</AltitudeMeters>
            <DistanceMeters>591451.11584537</DistanceMeters>
          </Trackpoint>
          <Trackpoint>
            <Time>2021-08-04T09:20:38.000Z</Time>
            <Position>
              <LatitudeDegrees>40.9847342781722545623779296875</LatitudeDegrees>
              <LongitudeDegrees>-1.14317399449646472930908203125</LongitudeDegrees>
            </Position>
            <AltitudeMeters>1209.5999755859375</AltitudeMeters>
            <DistanceMeters>591462.84346637</DistanceMeters>
          </Trackpoint>
          <Trackpoint>
            <Time>2021-08-04T09:20:45.000Z</Time>
            <Position>
              <LatitudeDegrees>40.98485338501632213592529296875</LatitudeDegrees>
              <LongitudeDegrees>-1.1431807838380336761474609375</LongitudeDegrees>
            </Position>
            <AltitudeMeters>1210.800048828125</AltitudeMeters>
            <DistanceMeters>591476.11220408</DistanceMeters>
          </Trackpoint>
          <Trackpoint>
            <Time>2021-08-04T09:20:50.000Z</Time>
            <Position>
              <LatitudeDegrees>40.9849371202290058135986328125</LatitudeDegrees>
              <LongitudeDegrees>-1.14316142164170742034912109375</LongitudeDegrees>
            </Position>
            <AltitudeMeters>1212</AltitudeMeters>
            <DistanceMeters>591485.57249412</DistanceMeters>
          </Trackpoint>
          <Trackpoint>
            <Time>2021-08-04T09:20:57.000Z</Time>
            <Position>
              <LatitudeDegrees>40.9850423969328403472900390625</LatitudeDegrees>
              <LongitudeDegrees>-1.14311615936458110809326171875</LongitudeDegrees>
            </Position>
            <AltitudeMeters>1213</AltitudeMeters>
            <DistanceMeters>591497.89156327</DistanceMeters>
          </Trackpoint>
          <Trackpoint>
            <Time>2021-08-04T09:21:04.000Z</Time>
            <Position>
              <LatitudeDegrees>40.985147170722484588623046875</LatitudeDegrees>
              <LongitudeDegrees>-1.14306519739329814910888671875</LongitudeDegrees>
            </Position>
            <AltitudeMeters>1214.199951171875</AltitudeMeters>
            <DistanceMeters>591510.31428465</DistanceMeters>
          </Trackpoint>
          <Trackpoint>
            <Time>2021-08-04T09:21:17.000Z</Time>
            <Position>
              <LatitudeDegrees>40.98537507466971874237060546875</LatitudeDegrees>
              <LongitudeDegrees>-1.1430879123508930206298828125</LongitudeDegrees>
            </Position>
            <AltitudeMeters>1215.4000244140625</AltitudeMeters>
            <DistanceMeters>591535.75217465</DistanceMeters>
          </Trackpoint>
          <Trackpoint>
            <Time>2021-08-04T09:21:24.000Z</Time>
            <Position>
              <LatitudeDegrees>40.98551304079592227935791015625</LatitudeDegrees>
              <LongitudeDegrees>-1.14312638528645038604736328125</LongitudeDegrees>
            </Position>
            <AltitudeMeters>1216.4000244140625</AltitudeMeters>
            <DistanceMeters>591551.44453536</DistanceMeters>
          </Trackpoint>
          <Trackpoint>
            <Time>2021-08-04T09:21:31.000Z</Time>
            <Position>
              <LatitudeDegrees>40.98562904633581638336181640625</LatitudeDegrees>
              <LongitudeDegrees>-1.14319578744471073150634765625</LongitudeDegrees>
            </Position>
            <AltitudeMeters>1217.4000244140625</AltitudeMeters>
            <DistanceMeters>591565.6114856</DistanceMeters>
          </Trackpoint>
          <Trackpoint>
            <Time>2021-08-04T09:21:38.000Z</Time>
            <Position>
              <LatitudeDegrees>40.9857729636132717132568359375</LatitudeDegrees>
              <LongitudeDegrees>-1.14323233254253864288330078125</LongitudeDegrees>
            </Position>
            <AltitudeMeters>1218.4000244140625</AltitudeMeters>
            <DistanceMeters>591581.92123703</DistanceMeters>
          </Trackpoint>
          <Trackpoint>
            <Time>2021-08-04T09:21:46.000Z</Time>
            <Position>
              <LatitudeDegrees>40.98593113012611865997314453125</LatitudeDegrees>
              <LongitudeDegrees>-1.14322923123836517333984375</LongitudeDegrees>
            </Position>
            <AltitudeMeters>1219.5999755859375</AltitudeMeters>
            <DistanceMeters>591599.52709981</DistanceMeters>
          </Trackpoint>
          <Trackpoint>
            <Time>2021-08-04T09:21:52.000Z</Time>
            <Position>
              <LatitudeDegrees>40.9860458783805370330810546875</LatitudeDegrees>
              <LongitudeDegrees>-1.143210120499134063720703125</LongitudeDegrees>
            </Position>
            <AltitudeMeters>1220.5999755859375</AltitudeMeters>
            <DistanceMeters>591612.3989234</DistanceMeters>
          </Trackpoint>
          <Trackpoint>
            <Time>2021-08-04T09:21:58.000Z</Time>
            <Position>
              <LatitudeDegrees>40.98615626804530620574951171875</LatitudeDegrees>
              <LongitudeDegrees>-1.143177263438701629638671875</LongitudeDegrees>
            </Position>
            <AltitudeMeters>1221.5999755859375</AltitudeMeters>
            <DistanceMeters>591624.99202479</DistanceMeters>
          </Trackpoint>
          <Trackpoint>
            <Time>2021-08-04T09:22:04.000Z</Time>
            <Position>
              <LatitudeDegrees>40.98626372404396533966064453125</LatitudeDegrees>
              <LongitudeDegrees>-1.143146418035030364990234375</LongitudeDegrees>
            </Position>
            <AltitudeMeters>1222.5999755859375</AltitudeMeters>
            <DistanceMeters>591637.23019654</DistanceMeters>
          </Trackpoint>
          <Trackpoint>
            <Time>2021-08-04T09:22:12.000Z</Time>
            <Position>
              <LatitudeDegrees>40.98641023971140384674072265625</LatitudeDegrees>
              <LongitudeDegrees>-1.14314465783536434173583984375</LongitudeDegrees>
            </Position>
            <AltitudeMeters>1223.800048828125</AltitudeMeters>
            <DistanceMeters>591653.53828691</DistanceMeters>
          </Trackpoint>
          <Trackpoint>
            <Time>2021-08-04T09:22:31.000Z</Time>
            <Position>
              <LatitudeDegrees>40.9867000021040439605712890625</LatitudeDegrees>
              <LongitudeDegrees>-1.1434205062687397003173828125</LongitudeDegrees>
            </Position>
            <AltitudeMeters>1224.800048828125</AltitudeMeters>
            <DistanceMeters>591693.25320127</DistanceMeters>
          </Trackpoint>
          <Trackpoint>
            <Time>2021-08-04T09:22:37.000Z</Time>
            <Position>
              <LatitudeDegrees>40.98679278977215290069580078125</LatitudeDegrees>
              <LongitudeDegrees>-1.1434967815876007080078125</LongitudeDegrees>
            </Position>
            <AltitudeMeters>1225.800048828125</AltitudeMeters>
            <DistanceMeters>591705.40733721</DistanceMeters>
          </Trackpoint>
          <Trackpoint>
            <Time>2021-08-04T09:22:42.000Z</Time>
            <Position>
              <LatitudeDegrees>40.98687476478517055511474609375</LatitudeDegrees>
              <LongitudeDegrees>-1.1435438878834247589111328125</LongitudeDegrees>
            </Position>
            <AltitudeMeters>1227</AltitudeMeters>
            <DistanceMeters>591715.35296225</DistanceMeters>
          </Trackpoint>
          <Trackpoint>
            <Time>2021-08-04T09:22:47.000Z</Time>
            <Position>
              <LatitudeDegrees>40.9869564883410930633544921875</LatitudeDegrees>
              <LongitudeDegrees>-1.1435894854366779327392578125</LongitudeDegrees>
            </Position>
            <AltitudeMeters>1228</AltitudeMeters>
            <DistanceMeters>591725.22294019</DistanceMeters>
          </Trackpoint>
          <Trackpoint>
            <Time>2021-08-04T09:22:53.000Z</Time>
            <Position>
              <LatitudeDegrees>40.9870545566082000732421875</LatitudeDegrees>
              <LongitudeDegrees>-1.1436196602880954742431640625</LongitudeDegrees>
            </Position>
            <AltitudeMeters>1229.199951171875</AltitudeMeters>
            <DistanceMeters>591736.42884234</DistanceMeters>
          </Trackpoint>
          <Trackpoint>
            <Time>2021-08-04T09:22:57.000Z</Time>
            <Position>
              <LatitudeDegrees>40.9871242940425872802734375</LatitudeDegrees>
              <LongitudeDegrees>-1.1436424590647220611572265625</LongitudeDegrees>
            </Position>
            <AltitudeMeters>1230.199951171875</AltitudeMeters>
            <DistanceMeters>591744.42352064</DistanceMeters>
          </Trackpoint>
          <Trackpoint>
            <Time>2021-08-04T09:23:04.000Z</Time>
            <Position>
              <LatitudeDegrees>40.98722915165126323699951171875</LatitudeDegrees>
              <LongitudeDegrees>-1.14364790730178356170654296875</LongitudeDegrees>
            </Position>
            <AltitudeMeters>1231.4000244140625</AltitudeMeters>
            <DistanceMeters>591756.10291852</DistanceMeters>
          </Trackpoint>
          <Trackpoint>
            <Time>2021-08-04T09:23:11.000Z</Time>
            <Position>
              <LatitudeDegrees>40.9873363561928272247314453125</LatitudeDegrees>
              <LongitudeDegrees>-1.14363491535186767578125</LongitudeDegrees>
            </Position>
            <AltitudeMeters>1232.199951171875</AltitudeMeters>
            <DistanceMeters>591768.08457764</DistanceMeters>
          </Trackpoint>
          <Trackpoint>
            <Time>2021-08-04T09:23:16.000Z</Time>
            <Position>
              <LatitudeDegrees>40.98741020075976848602294921875</LatitudeDegrees>
              <LongitudeDegrees>-1.1436350829899311065673828125</LongitudeDegrees>
            </Position>
            <AltitudeMeters>1232.800048828125</AltitudeMeters>
            <DistanceMeters>591776.30315244</DistanceMeters>
          </Trackpoint>
          <Trackpoint>
            <Time>2021-08-04T09:23:20.000Z</Time>
            <Position>
              <LatitudeDegrees>40.9874691255390644073486328125</LatitudeDegrees>
              <LongitudeDegrees>-1.1436233483254909515380859375</LongitudeDegrees>
            </Position>
            <AltitudeMeters>1233</AltitudeMeters>
            <DistanceMeters>591782.93530913</DistanceMeters>
          </Trackpoint>
          <Trackpoint>
            <Time>2021-08-04T09:23:23.000Z</Time>
            <Position>
              <LatitudeDegrees>40.98750776611268520355224609375</LatitudeDegrees>
              <LongitudeDegrees>-1.1436049081385135650634765625</LongitudeDegrees>
            </Position>
            <AltitudeMeters>1233.4000244140625</AltitudeMeters>
            <DistanceMeters>591787.50647932</DistanceMeters>
          </Trackpoint>
          <Trackpoint>
            <Time>2021-08-04T09:23:25.000Z</Time>
            <Position>
              <LatitudeDegrees>40.9875294752418994903564453125</LatitudeDegrees>
              <LongitudeDegrees>-1.14358554594218730926513671875</LongitudeDegrees>
            </Position>
            <AltitudeMeters>1233.5999755859375</AltitudeMeters>
            <DistanceMeters>591790.41994321</DistanceMeters>
          </Trackpoint>
          <Trackpoint>
            <Time>2021-08-04T09:23:30.000Z</Time>
            <Position>
              <LatitudeDegrees>40.987575240433216094970703125</LatitudeDegrees>
              <LongitudeDegrees>-1.1435143835842609405517578125</LongitudeDegrees>
            </Position>
            <AltitudeMeters>1234.4000244140625</AltitudeMeters>
            <DistanceMeters>591798.27331333</DistanceMeters>
          </Trackpoint>
          <Trackpoint>
            <Time>2021-08-04T09:23:34.000Z</Time>
            <Position>
              <LatitudeDegrees>40.9876096062362194061279296875</LatitudeDegrees>
              <LongitudeDegrees>-1.14345856010913848876953125</LongitudeDegrees>
            </Position>
            <AltitudeMeters>1235.5999755859375</AltitudeMeters>
            <DistanceMeters>591804.32525434</DistanceMeters>
          </Trackpoint>
          <Trackpoint>
            <Time>2021-08-04T09:23:41.000Z</Time>
            <Position>
              <LatitudeDegrees>40.98766400478780269622802734375</LatitudeDegrees>
              <LongitudeDegrees>-1.14337163977324962615966796875</LongitudeDegrees>
            </Position>
            <AltitudeMeters>1236.800048828125</AltitudeMeters>
            <DistanceMeters>591813.81175748</DistanceMeters>
          </Trackpoint>
          <Trackpoint>
            <Time>2021-08-04T09:23:50.000Z</Time>
            <Position>
              <LatitudeDegrees>40.98772888071835041046142578125</LatitudeDegrees>
              <LongitudeDegrees>-1.1432619206607341766357421875</LongitudeDegrees>
            </Position>
            <AltitudeMeters>1237.800048828125</AltitudeMeters>
            <DistanceMeters>591825.52126989</DistanceMeters>
          </Trackpoint>
          <Trackpoint>
            <Time>2021-08-04T09:23:57.000Z</Time>
            <Position>
              <LatitudeDegrees>40.98777514882385730743408203125</LatitudeDegrees>
              <LongitudeDegrees>-1.14315890707075595855712890625</LongitudeDegrees>
            </Position>
            <AltitudeMeters>1239</AltitudeMeters>
            <DistanceMeters>591835.59230849</DistanceMeters>
          </Trackpoint>
          <Trackpoint>
            <Time>2021-08-04T09:24:03.000Z</Time>
            <Position>
              <LatitudeDegrees>40.98781437613070011138916015625</LatitudeDegrees>
              <LongitudeDegrees>-1.14307257346808910369873046875</LongitudeDegrees>
            </Position>
            <AltitudeMeters>1240.199951171875</AltitudeMeters>
            <DistanceMeters>591844.05822349</DistanceMeters>
          </Trackpoint>
          <Trackpoint>
            <Time>2021-08-04T09:24:13.000Z</Time>
            <Position>
              <LatitudeDegrees>40.9878426231443881988525390625</LatitudeDegrees>
              <LongitudeDegrees>-1.14292706362903118133544921875</LongitudeDegrees>
            </Position>
            <AltitudeMeters>1241.199951171875</AltitudeMeters>
            <DistanceMeters>591856.68069032</DistanceMeters>
          </Trackpoint>
          <Trackpoint>
            <Time>2021-08-04T09:24:19.000Z</Time>
            <Position>
              <LatitudeDegrees>40.98786081187427043914794921875</LatitudeDegrees>
              <LongitudeDegrees>-1.1428369581699371337890625</LongitudeDegrees>
            </Position>
            <AltitudeMeters>1242.199951171875</AltitudeMeters>
            <DistanceMeters>591864.51679393</DistanceMeters>
          </Trackpoint>
          <Trackpoint>
            <Time>2021-08-04T09:24:27.000Z</Time>
            <Position>
              <LatitudeDegrees>40.98788260482251644134521484375</LatitudeDegrees>
              <LongitudeDegrees>-1.14272941835224628448486328125</LongitudeDegrees>
            </Position>
            <AltitudeMeters>1243.4000244140625</AltitudeMeters>
            <DistanceMeters>591873.87149707</DistanceMeters>
          </Trackpoint>
          <Trackpoint>
            <Time>2021-08-04T09:24:33.000Z</Time>
            <Position>
              <LatitudeDegrees>40.9879090078175067901611328125</LatitudeDegrees>
              <LongitudeDegrees>-1.142655573785305023193359375</LongitudeDegrees>
            </Position>
            <AltitudeMeters>1244.5999755859375</AltitudeMeters>
            <DistanceMeters>591880.73647842</DistanceMeters>
          </Trackpoint>
          <Trackpoint>
            <Time>2021-08-04T09:24:39.000Z</Time>
            <Position>
              <LatitudeDegrees>40.987938679754734039306640625</LatitudeDegrees>
              <LongitudeDegrees>-1.14258424378931522369384765625</LongitudeDegrees>
            </Position>
            <AltitudeMeters>1245.5999755859375</AltitudeMeters>
            <DistanceMeters>591887.57840185</DistanceMeters>
          </Trackpoint>
          <Trackpoint>
            <Time>2021-08-04T09:24:43.000Z</Time>
            <Position>
              <LatitudeDegrees>40.98795603029429912567138671875</LatitudeDegrees>
              <LongitudeDegrees>-1.14253596402704715728759765625</LongitudeDegrees>
            </Position>
            <AltitudeMeters>1247</AltitudeMeters>
            <DistanceMeters>591892.06985939</DistanceMeters>
          </Trackpoint>
          <Trackpoint>
            <Time>2021-08-04T09:24:47.000Z</Time>
            <Position>
              <LatitudeDegrees>40.987967513501644134521484375</LatitudeDegrees>
              <LongitudeDegrees>-1.14248332567512989044189453125</LongitudeDegrees>
            </Position>
            <AltitudeMeters>1247.800048828125</AltitudeMeters>
            <DistanceMeters>591896.67350896</DistanceMeters>
          </Trackpoint>
          <Trackpoint>
            <Time>2021-08-04T09:24:49.000Z</Time>
            <Position>
              <LatitudeDegrees>40.987972207367420196533203125</LatitudeDegrees>
              <LongitudeDegrees>-1.14245717413723468780517578125</LongitudeDegrees>
            </Position>
            <AltitudeMeters>1248</AltitudeMeters>
            <DistanceMeters>591898.93026839</DistanceMeters>
          </Trackpoint>
          <Trackpoint>
            <Time>2021-08-04T09:24:55.000Z</Time>
            <Position>
              <LatitudeDegrees>40.9879874624311923980712890625</LatitudeDegrees>
              <LongitudeDegrees>-1.14237369038164615631103515625</LongitudeDegrees>
            </Position>
            <AltitudeMeters>1249.199951171875</AltitudeMeters>
            <DistanceMeters>591906.14729554</DistanceMeters>
          </Trackpoint>
          <Trackpoint>
            <Time>2021-08-04T09:25:03.000Z</Time>
            <Position>
              <LatitudeDegrees>40.98802073858678340911865234375</LatitudeDegrees>
              <LongitudeDegrees>-1.1422495543956756591796875</LongitudeDegrees>
            </Position>
            <AltitudeMeters>1250</AltitudeMeters>
            <DistanceMeters>591917.21454258</DistanceMeters>
          </Trackpoint>
          <Trackpoint>
            <Time>2021-08-04T09:25:09.000Z</Time>
            <Position>
              <LatitudeDegrees>40.98802752792835235595703125</LatitudeDegrees>
              <LongitudeDegrees>-1.14215056411921977996826171875</LongitudeDegrees>
            </Position>
            <AltitudeMeters>1251.199951171875</AltitudeMeters>
            <DistanceMeters>591925.56554733</DistanceMeters>
          </Trackpoint>
          <Trackpoint>
            <Time>2021-08-04T09:25:21.000Z</Time>
            <Position>
              <LatitudeDegrees>40.987996347248554229736328125</LatitudeDegrees>
              <LongitudeDegrees>-1.1419603787362575531005859375</LongitudeDegrees>
            </Position>
            <AltitudeMeters>1252.4000244140625</AltitudeMeters>
            <DistanceMeters>591941.91677063</DistanceMeters>
          </Trackpoint>
          <Trackpoint>
            <Time>2021-08-04T09:25:31.000Z</Time>
            <Position>
              <LatitudeDegrees>40.9879643283784389495849609375</LatitudeDegrees>
              <LongitudeDegrees>-1.141807325184345245361328125</LongitudeDegrees>
            </Position>
            <AltitudeMeters>1253.4000244140625</AltitudeMeters>
            <DistanceMeters>591955.26049752</DistanceMeters>
          </Trackpoint>
          <Trackpoint>
            <Time>2021-08-04T09:25:39.000Z</Time>
            <Position>
              <LatitudeDegrees>40.98795770667493343353271484375</LatitudeDegrees>
              <LongitudeDegrees>-1.14167933352291584014892578125</LongitudeDegrees>
            </Position>
            <AltitudeMeters>1254.5999755859375</AltitudeMeters>
            <DistanceMeters>591966.03922488</DistanceMeters>
          </Trackpoint>
          <Trackpoint>
            <Time>2021-08-04T09:25:44.000Z</Time>
            <Position>
              <LatitudeDegrees>40.9879569523036479949951171875</LatitudeDegrees>
              <LongitudeDegrees>-1.14160113036632537841796875</LongitudeDegrees>
            </Position>
            <AltitudeMeters>1255.5999755859375</AltitudeMeters>
            <DistanceMeters>591972.61051285</DistanceMeters>
          </Trackpoint>
          <Trackpoint>
            <Time>2021-08-04T09:25:52.000Z</Time>
            <Position>
              <LatitudeDegrees>40.98795888014137744903564453125</LatitudeDegrees>
              <LongitudeDegrees>-1.1414782516658306121826171875</LongitudeDegrees>
            </Position>
            <AltitudeMeters>1256.5999755859375</AltitudeMeters>
            <DistanceMeters>591982.93655481</DistanceMeters>
          </Trackpoint>
          <Trackpoint>
            <Time>2021-08-04T09:26:00.000Z</Time>
            <Position>
              <LatitudeDegrees>40.98794613964855670928955078125</LatitudeDegrees>
              <LongitudeDegrees>-1.1413518525660037994384765625</LongitudeDegrees>
            </Position>
            <AltitudeMeters>1257.800048828125</AltitudeMeters>
            <DistanceMeters>591993.65057981</DistanceMeters>
          </Trackpoint>
          <Trackpoint>
            <Time>2021-08-04T09:26:07.000Z</Time>
            <Position>
              <LatitudeDegrees>40.9879316389560699462890625</LatitudeDegrees>
              <LongitudeDegrees>-1.14123408682644367218017578125</LongitudeDegrees>
            </Position>
            <AltitudeMeters>1258.800048828125</AltitudeMeters>
            <DistanceMeters>592003.67533521</DistanceMeters>
          </Trackpoint>
          <Trackpoint>
            <Time>2021-08-04T09:26:14.000Z</Time>
            <Position>
              <LatitudeDegrees>40.9879137016832828521728515625</LatitudeDegrees>
              <LongitudeDegrees>-1.14112746901810169219970703125</LongitudeDegrees>
            </Position>
            <AltitudeMeters>1259.800048828125</AltitudeMeters>
            <DistanceMeters>592012.85316464</DistanceMeters>
          </Trackpoint>
          <Trackpoint>
            <Time>2021-08-04T09:26:21.000Z</Time>
            <Position>
              <LatitudeDegrees>40.98789534531533718109130859375</LatitudeDegrees>
              <LongitudeDegrees>-1.14103074185550212860107421875</LongitudeDegrees>
            </Position>
            <AltitudeMeters>1260.800048828125</AltitudeMeters>
            <DistanceMeters>592021.23223645</DistanceMeters>
          </Trackpoint>
          <Trackpoint>
            <Time>2021-08-04T09:26:31.000Z</Time>
            <Position>
              <LatitudeDegrees>40.9878664277493953704833984375</LatitudeDegrees>
              <LongitudeDegrees>-1.14088841713964939117431640625</LongitudeDegrees>
            </Position>
            <AltitudeMeters>1261.800048828125</AltitudeMeters>
            <DistanceMeters>592033.61491378</DistanceMeters>
          </Trackpoint>
          <Trackpoint>
            <Time>2021-08-04T09:26:38.000Z</Time>
            <Position>
              <LatitudeDegrees>40.98783843219280242919921875</LatitudeDegrees>
              <LongitudeDegrees>-1.14078666083514690399169921875</LongitudeDegrees>
            </Position>
            <AltitudeMeters>1262.800048828125</AltitudeMeters>
            <DistanceMeters>592042.71369067</DistanceMeters>
          </Trackpoint>
          <Trackpoint>
            <Time>2021-08-04T09:26:45.000Z</Time>
            <Position>
              <LatitudeDegrees>40.9878221713006496429443359375</LatitudeDegrees>
              <LongitudeDegrees>-1.14067970775067806243896484375</LongitudeDegrees>
            </Position>
            <AltitudeMeters>1263.800048828125</AltitudeMeters>
            <DistanceMeters>592051.87970569</DistanceMeters>
          </Trackpoint>
          <Trackpoint>
            <Time>2021-08-04T09:26:52.000Z</Time>
            <Position>
              <LatitudeDegrees>40.98781186155974864959716796875</LatitudeDegrees>
              <LongitudeDegrees>-1.14056789316236972808837890625</LongitudeDegrees>
            </Position>
            <AltitudeMeters>1264.5999755859375</AltitudeMeters>
            <DistanceMeters>592061.34381305</DistanceMeters>
          </Trackpoint>
          <Trackpoint>
            <Time>2021-08-04T09:26:59.000Z</Time>
            <Position>
              <LatitudeDegrees>40.98778747022151947021484375</LatitudeDegrees>
              <LongitudeDegrees>-1.14047150127589702606201171875</LongitudeDegrees>
            </Position>
            <AltitudeMeters>1265.800048828125</AltitudeMeters>
            <DistanceMeters>592069.8851237</DistanceMeters>
          </Trackpoint>
          <Trackpoint>
            <Time>2021-08-04T09:27:05.000Z</Time>
            <Position>
              <LatitudeDegrees>40.987767018377780914306640625</LatitudeDegrees>
              <LongitudeDegrees>-1.140385754406452178955078125</LongitudeDegrees>
            </Position>
            <AltitudeMeters>1267</AltitudeMeters>
            <DistanceMeters>592077.44019572</DistanceMeters>
          </Trackpoint>
          <Trackpoint>
            <Time>2021-08-04T09:27:10.000Z</Time>
            <Position>
              <LatitudeDegrees>40.9877467341721057891845703125</LatitudeDegrees>
              <LongitudeDegrees>-1.14031643606722354888916015625</LongitudeDegrees>
            </Position>
            <AltitudeMeters>1268.199951171875</AltitudeMeters>
            <DistanceMeters>592083.68598872</DistanceMeters>
          </Trackpoint>
          <Trackpoint>
            <Time>2021-08-04T09:27:16.000Z</Time>
            <Position>
              <LatitudeDegrees>40.987726114690303802490234375</LatitudeDegrees>
              <LongitudeDegrees>-1.14023177884519100189208984375</LongitudeDegrees>
            </Position>
            <AltitudeMeters>1269.199951171875</AltitudeMeters>
            <DistanceMeters>592091.15994704</DistanceMeters>
          </Trackpoint>
          <Trackpoint>
            <Time>2021-08-04T09:27:21.000Z</Time>
            <Position>
              <LatitudeDegrees>40.9877081774175167083740234375</LatitudeDegrees>
              <LongitudeDegrees>-1.14015952683985233306884765625</LongitudeDegrees>
            </Position>
            <AltitudeMeters>1270.4000244140625</AltitudeMeters>
            <DistanceMeters>592097.55009615</DistanceMeters>
          </Trackpoint>
          <Trackpoint>
            <Time>2021-08-04T09:27:28.000Z</Time>
            <Position>
              <LatitudeDegrees>40.98768630065023899078369140625</LatitudeDegrees>
              <LongitudeDegrees>-1.1400519870221614837646484375</LongitudeDegrees>
            </Position>
            <AltitudeMeters>1271.4000244140625</AltitudeMeters>
            <DistanceMeters>592106.90721222</DistanceMeters>
          </Trackpoint>
          <Trackpoint>
            <Time>2021-08-04T09:27:37.000Z</Time>
            <Position>
              <LatitudeDegrees>40.987651012837886810302734375</LatitudeDegrees>
              <LongitudeDegrees>-1.13990991376340389251708984375</LongitudeDegrees>
            </Position>
            <AltitudeMeters>1272.4000244140625</AltitudeMeters>
            <DistanceMeters>592119.47303558</DistanceMeters>
          </Trackpoint>
          <Trackpoint>
            <Time>2021-08-04T09:27:57.000Z</Time>
            <Position>
              <LatitudeDegrees>40.987509191036224365234375</LatitudeDegrees>
              <LongitudeDegrees>-1.1394659243524074554443359375</LongitudeDegrees>
            </Position>
            <AltitudeMeters>1271.199951171875</AltitudeMeters>
            <DistanceMeters>592159.97783121</DistanceMeters>
          </Trackpoint>
          <Trackpoint>
            <Time>2021-08-04T09:27:58.000Z</Time>
            <Position>
              <LatitudeDegrees>40.9874785132706165313720703125</LatitudeDegrees>
              <LongitudeDegrees>-1.13943130709230899810791015625</LongitudeDegrees>
            </Position>
            <AltitudeMeters>1270.5999755859375</AltitudeMeters>
            <DistanceMeters>592164.46325319</DistanceMeters>
          </Trackpoint>
          <Trackpoint>
            <Time>2021-08-04T09:27:59.000Z</Time>
            <Position>
              <LatitudeDegrees>40.987437106668949127197265625</LatitudeDegrees>
              <LongitudeDegrees>-1.13940532319247722625732421875</LongitudeDegrees>
            </Position>
            <AltitudeMeters>1270</AltitudeMeters>
            <DistanceMeters>592169.56292182</DistanceMeters>
          </Trackpoint>
          <Trackpoint>
            <Time>2021-08-04T09:28:02.000Z</Time>
            <Position>
              <LatitudeDegrees>40.98729168064892292022705078125</LatitudeDegrees>
              <LongitudeDegrees>-1.1393676884472370147705078125</LongitudeDegrees>
            </Position>
            <AltitudeMeters>1268.5999755859375</AltitudeMeters>
            <DistanceMeters>592186.05519069</DistanceMeters>
          </Trackpoint>
          <Trackpoint>
            <Time>2021-08-04T09:28:10.000Z</Time>
            <Position>
              <LatitudeDegrees>40.98695539869368076324462890625</LatitudeDegrees>
              <LongitudeDegrees>-1.13938956521451473236083984375</LongitudeDegrees>
            </Position>
            <AltitudeMeters>1267.4000244140625</AltitudeMeters>
            <DistanceMeters>592223.52922581</DistanceMeters>
          </Trackpoint>
          <Trackpoint>
            <Time>2021-08-04T09:28:11.000Z</Time>
            <Position>
              <LatitudeDegrees>40.98691307008266448974609375</LatitudeDegrees>
              <LongitudeDegrees>-1.1393948458135128021240234375</LongitudeDegrees>
            </Position>
            <AltitudeMeters>1266.800048828125</AltitudeMeters>
            <DistanceMeters>592228.26151802</DistanceMeters>
          </Trackpoint>
          <Trackpoint>
            <Time>2021-08-04T09:28:13.000Z</Time>
            <Position>
              <LatitudeDegrees>40.98682967014610767364501953125</LatitudeDegrees>
              <LongitudeDegrees>-1.13940708339214324951171875</LongitudeDegrees>
            </Position>
            <AltitudeMeters>1266</AltitudeMeters>
            <DistanceMeters>592237.60076362</DistanceMeters>
          </Trackpoint>
          <Trackpoint>
            <Time>2021-08-04T09:28:16.000Z</Time>
            <Position>
              <LatitudeDegrees>40.9866772033274173736572265625</LatitudeDegrees>
              <LongitudeDegrees>-1.13943524658679962158203125</LongitudeDegrees>
            </Position>
            <AltitudeMeters>1264.800048828125</AltitudeMeters>
            <DistanceMeters>592254.73458355</DistanceMeters>
          </Trackpoint>
          <Trackpoint>
            <Time>2021-08-04T09:28:17.000Z</Time>
            <Position>
              <LatitudeDegrees>40.9866222180426120758056640625</LatitudeDegrees>
              <LongitudeDegrees>-1.1394424550235271453857421875</LongitudeDegrees>
            </Position>
            <AltitudeMeters>1264.199951171875</AltitudeMeters>
            <DistanceMeters>592260.88421444</DistanceMeters>
          </Trackpoint>
          <Trackpoint>
            <Time>2021-08-04T09:28:18.000Z</Time>
            <Position>
              <LatitudeDegrees>40.9865665622055530548095703125</LatitudeDegrees>
              <LongitudeDegrees>-1.13944522105157375335693359375</LongitudeDegrees>
            </Position>
            <AltitudeMeters>1263.4000244140625</AltitudeMeters>
            <DistanceMeters>592267.08356968</DistanceMeters>
          </Trackpoint>
          <Trackpoint>
            <Time>2021-08-04T09:28:20.000Z</Time>
            <Position>
              <LatitudeDegrees>40.9864458627998828887939453125</LatitudeDegrees>
              <LongitudeDegrees>-1.13944220356643199920654296875</LongitudeDegrees>
            </Position>
            <AltitudeMeters>1261.800048828125</AltitudeMeters>
            <DistanceMeters>592280.51968847</DistanceMeters>
          </Trackpoint>
          <Trackpoint>
            <Time>2021-08-04T09:28:21.000Z</Time>
            <Position>
              <LatitudeDegrees>40.98637788556516170501708984375</LatitudeDegrees>
              <LongitudeDegrees>-1.13943935371935367584228515625</LongitudeDegrees>
            </Position>
            <AltitudeMeters>1260.5999755859375</AltitudeMeters>
            <DistanceMeters>592288.08908971</DistanceMeters>
          </Trackpoint>
          <Trackpoint>
            <Time>2021-08-04T09:28:23.000Z</Time>
            <Position>
              <LatitudeDegrees>40.98624545149505138397216796875</LatitudeDegrees>
              <LongitudeDegrees>-1.13943750970065593719482421875</LongitudeDegrees>
            </Position>
            <AltitudeMeters>1258.800048828125</AltitudeMeters>
            <DistanceMeters>592302.83018056</DistanceMeters>
          </Trackpoint>
          <Trackpoint>
            <Time>2021-08-04T09:28:24.000Z</Time>
            <Position>
              <LatitudeDegrees>40.98618862219154834747314453125</LatitudeDegrees>
              <LongitudeDegrees>-1.1394303850829601287841796875</LongitudeDegrees>
            </Position>
            <AltitudeMeters>1258.199951171875</AltitudeMeters>
            <DistanceMeters>592309.18419282</DistanceMeters>
          </Trackpoint>
          <Trackpoint>
            <Time>2021-08-04T09:28:25.000Z</Time>
            <Position>
              <LatitudeDegrees>40.98614051006734371185302734375</LatitudeDegrees>
              <LongitudeDegrees>-1.1394198238849639892578125</LongitudeDegrees>
            </Position>
            <AltitudeMeters>1257.5999755859375</AltitudeMeters>
            <DistanceMeters>592314.6115411</DistanceMeters>
          </Trackpoint>
          <Trackpoint>
            <Time>2021-08-04T09:28:28.000Z</Time>
            <Position>
              <LatitudeDegrees>40.9860160388052463531494140625</LatitudeDegrees>
              <LongitudeDegrees>-1.1393348313868045806884765625</LongitudeDegrees>
            </Position>
            <AltitudeMeters>1256</AltitudeMeters>
            <DistanceMeters>592330.19737077</DistanceMeters>
          </Trackpoint>
          <Trackpoint>
            <Time>2021-08-04T09:28:29.000Z</Time>
            <Position>
              <LatitudeDegrees>40.985982008278369903564453125</LatitudeDegrees>
              <LongitudeDegrees>-1.13928646780550479888916015625</LongitudeDegrees>
            </Position>
            <AltitudeMeters>1254.800048828125</AltitudeMeters>
            <DistanceMeters>592335.7521679</DistanceMeters>
          </Trackpoint>
          <Trackpoint>
            <Time>2021-08-04T09:28:30.000Z</Time>
            <Position>
              <LatitudeDegrees>40.985951162874698638916015625</LatitudeDegrees>
              <LongitudeDegrees>-1.139239780604839324951171875</LongitudeDegrees>
            </Position>
            <AltitudeMeters>1254.199951171875</AltitudeMeters>
            <DistanceMeters>592340.9656629</DistanceMeters>
          </Trackpoint>
          <Trackpoint>
            <Time>2021-08-04T09:28:31.000Z</Time>
            <Position>
              <LatitudeDegrees>40.985922999680042266845703125</LatitudeDegrees>
              <LongitudeDegrees>-1.1391891539096832275390625</LongitudeDegrees>
            </Position>
            <AltitudeMeters>1253.199951171875</AltitudeMeters>
            <DistanceMeters>592346.24969511</DistanceMeters>
          </Trackpoint>
          <Trackpoint>
            <Time>2021-08-04T09:28:33.000Z</Time>
            <Position>
              <LatitudeDegrees>40.98589559085667133331298828125</LatitudeDegrees>
              <LongitudeDegrees>-1.13910508342087268829345703125</LongitudeDegrees>
            </Position>
            <AltitudeMeters>1252.800048828125</AltitudeMeters>
            <DistanceMeters>592353.94392549</DistanceMeters>
          </Trackpoint>
          <Trackpoint>
            <Time>2021-08-04T09:28:39.000Z</Time>
            <Position>
              <LatitudeDegrees>40.98597505129873752593994140625</LatitudeDegrees>
              <LongitudeDegrees>-1.139076165854930877685546875</LongitudeDegrees>
            </Position>
            <AltitudeMeters>1252.5999755859375</AltitudeMeters>
            <DistanceMeters>592363.11584961</DistanceMeters>
          </Trackpoint>
          <Trackpoint>
            <Time>2021-08-04T09:28:42.000Z</Time>
            <Position>
              <LatitudeDegrees>40.98603037185966968536376953125</LatitudeDegrees>
              <LongitudeDegrees>-1.1390759982168674468994140625</LongitudeDegrees>
            </Position>
            <AltitudeMeters>1252.5999755859375</AltitudeMeters>
            <DistanceMeters>592369.2728181</DistanceMeters>
          </Trackpoint>
          <Trackpoint>
            <Time>2021-08-04T09:28:46.000Z</Time>
            <Position>
              <LatitudeDegrees>40.986108072102069854736328125</LatitudeDegrees>
              <LongitudeDegrees>-1.13908312283456325531005859375</LongitudeDegrees>
            </Position>
            <AltitudeMeters>1253.199951171875</AltitudeMeters>
            <DistanceMeters>592377.94162979</DistanceMeters>
          </Trackpoint>
          <Trackpoint>
            <Time>2021-08-04T09:28:54.000Z</Time>
            <Position>
              <LatitudeDegrees>40.98626573570072650909423828125</LatitudeDegrees>
              <LongitudeDegrees>-1.13907423801720142364501953125</LongitudeDegrees>
            </Position>
            <AltitudeMeters>1254.4000244140625</AltitudeMeters>
            <DistanceMeters>592395.50589839</DistanceMeters>
          </Trackpoint>
          <Trackpoint>
            <Time>2021-08-04T09:29:04.000Z</Time>
            <Position>
              <LatitudeDegrees>40.986449383199214935302734375</LatitudeDegrees>
              <LongitudeDegrees>-1.13900014199316501617431640625</LongitudeDegrees>
            </Position>
            <AltitudeMeters>1255.5999755859375</AltitudeMeters>
            <DistanceMeters>592416.87317864</DistanceMeters>
          </Trackpoint>
          <Trackpoint>
            <Time>2021-08-04T09:29:09.000Z</Time>
            <Position>
              <LatitudeDegrees>40.98653093911707401275634765625</LatitudeDegrees>
              <LongitudeDegrees>-1.13890844397246837615966796875</LongitudeDegrees>
            </Position>
            <AltitudeMeters>1256.800048828125</AltitudeMeters>
            <DistanceMeters>592428.7792334</DistanceMeters>
          </Trackpoint>
          <Trackpoint>
            <Time>2021-08-04T09:29:13.000Z</Time>
            <Position>
              <LatitudeDegrees>40.98657100461423397064208984375</LatitudeDegrees>
              <LongitudeDegrees>-1.13881959579885005950927734375</LongitudeDegrees>
            </Position>
            <AltitudeMeters>1257.800048828125</AltitudeMeters>
            <DistanceMeters>592437.47508644</DistanceMeters>
          </Trackpoint>
          <Trackpoint>
            <Time>2021-08-04T09:29:20.000Z</Time>
            <Position>
              <LatitudeDegrees>40.98658726550638675689697265625</LatitudeDegrees>
              <LongitudeDegrees>-1.13865028135478496551513671875</LongitudeDegrees>
            </Position>
            <AltitudeMeters>1259</AltitudeMeters>
            <DistanceMeters>592451.81499233</DistanceMeters>
          </Trackpoint>
          <Trackpoint>
            <Time>2021-08-04T09:29:28.000Z</Time>
            <Position>
              <LatitudeDegrees>40.98658374510705471038818359375</LatitudeDegrees>
              <LongitudeDegrees>-1.13844224251806735992431640625</LongitudeDegrees>
            </Position>
            <AltitudeMeters>1260.199951171875</AltitudeMeters>
            <DistanceMeters>592469.29835835</DistanceMeters>
          </Trackpoint>
          <Trackpoint>
            <Time>2021-08-04T09:29:37.000Z</Time>
            <Position>
              <LatitudeDegrees>40.9865692444145679473876953125</LatitudeDegrees>
              <LongitudeDegrees>-1.1382220499217510223388671875</LongitudeDegrees>
            </Position>
            <AltitudeMeters>1261.199951171875</AltitudeMeters>
            <DistanceMeters>592487.86872775</DistanceMeters>
          </Trackpoint>
          <Trackpoint>
            <Time>2021-08-04T09:29:49.000Z</Time>
            <Position>
              <LatitudeDegrees>40.98650931380689144134521484375</LatitudeDegrees>
              <LongitudeDegrees>-1.13792826421558856964111328125</LongitudeDegrees>
            </Position>
            <AltitudeMeters>1262</AltitudeMeters>
            <DistanceMeters>592513.43744837</DistanceMeters>
          </Trackpoint>
          <Trackpoint>
            <Time>2021-08-04T09:29:55.000Z</Time>
            <Position>
              <LatitudeDegrees>40.98646371625363826751708984375</LatitudeDegrees>
              <LongitudeDegrees>-1.1377855204045772552490234375</LongitudeDegrees>
            </Position>
            <AltitudeMeters>1263.199951171875</AltitudeMeters>
            <DistanceMeters>592526.45992262</DistanceMeters>
          </Trackpoint>
          <Trackpoint>
            <Time>2021-08-04T09:30:04.000Z</Time>
            <Position>
              <LatitudeDegrees>40.98638492636382579803466796875</LatitudeDegrees>
              <LongitudeDegrees>-1.13758209161460399627685546875</LongitudeDegrees>
            </Position>
            <AltitudeMeters>1264.4000244140625</AltitudeMeters>
            <DistanceMeters>592545.6698967</DistanceMeters>
          </Trackpoint>
          <Trackpoint>
            <Time>2021-08-04T09:30:13.000Z</Time>
            <Position>
              <LatitudeDegrees>40.98630295135080814361572265625</LatitudeDegrees>
              <LongitudeDegrees>-1.1373882181942462921142578125</LongitudeDegrees>
            </Position>
            <AltitudeMeters>1265.4000244140625</AltitudeMeters>
            <DistanceMeters>592564.34016748</DistanceMeters>
          </Trackpoint>
          <Trackpoint>
            <Time>2021-08-04T09:30:24.000Z</Time>
            <Position>
              <LatitudeDegrees>40.98619868047535419464111328125</LatitudeDegrees>
              <LongitudeDegrees>-1.13713902421295642852783203125</LongitudeDegrees>
            </Position>
            <AltitudeMeters>1266.5999755859375</AltitudeMeters>
            <DistanceMeters>592588.27841346</DistanceMeters>
          </Trackpoint>
          <Trackpoint>
            <Time>2021-08-04T09:30:31.000Z</Time>
            <Position>
              <LatitudeDegrees>40.9861303679645061492919921875</LatitudeDegrees>
              <LongitudeDegrees>-1.13697566092014312744140625</LongitudeDegrees>
            </Position>
            <AltitudeMeters>1267.5999755859375</AltitudeMeters>
            <DistanceMeters>592603.96904775</DistanceMeters>
          </Trackpoint>
          <Trackpoint>
            <Time>2021-08-04T09:30:39.000Z</Time>
            <Position>
              <LatitudeDegrees>40.98608803935348987579345703125</LatitudeDegrees>
              <LongitudeDegrees>-1.1367786861956119537353515625</LongitudeDegrees>
            </Position>
            <AltitudeMeters>1268.5999755859375</AltitudeMeters>
            <DistanceMeters>592621.17596922</DistanceMeters>
          </Trackpoint>
          <Trackpoint>
            <Time>2021-08-04T09:30:50.000Z</Time>
            <Position>
              <LatitudeDegrees>40.98607446067035198211669921875</LatitudeDegrees>
              <LongitudeDegrees>-1.13648490048944950103759765625</LongitudeDegrees>
            </Position>
            <AltitudeMeters>1269.5999755859375</AltitudeMeters>
            <DistanceMeters>592645.90592994</DistanceMeters>
          </Trackpoint>
          <Trackpoint>
            <Time>2021-08-04T09:30:59.000Z</Time>
            <Position>
              <LatitudeDegrees>40.98614704795181751251220703125</LatitudeDegrees>
              <LongitudeDegrees>-1.13626713864505290985107421875</LongitudeDegrees>
            </Position>
            <AltitudeMeters>1270.800048828125</AltitudeMeters>
            <DistanceMeters>592665.90628809</DistanceMeters>
          </Trackpoint>
          <Trackpoint>
            <Time>2021-08-04T09:31:08.000Z</Time>
            <Position>
              <LatitudeDegrees>40.9862336330115795135498046875</LatitudeDegrees>
              <LongitudeDegrees>-1.13605524413287639617919921875</LongitudeDegrees>
            </Position>
            <AltitudeMeters>1271.800048828125</AltitudeMeters>
            <DistanceMeters>592686.15032399</DistanceMeters>
          </Trackpoint>
          <Trackpoint>
            <Time>2021-08-04T09:31:22.000Z</Time>
            <Position>
              <LatitudeDegrees>40.98637486808001995086669921875</LatitudeDegrees>
              <LongitudeDegrees>-1.1357420124113559722900390625</LongitudeDegrees>
            </Position>
            <AltitudeMeters>1272.800048828125</AltitudeMeters>
            <DistanceMeters>592716.8049464</DistanceMeters>
          </Trackpoint>
          <Trackpoint>
            <Time>2021-08-04T09:31:34.000Z</Time>
            <Position>
              <LatitudeDegrees>40.9864763729274272918701171875</LatitudeDegrees>
              <LongitudeDegrees>-1.135459877550601959228515625</LongitudeDegrees>
            </Position>
            <AltitudeMeters>1274</AltitudeMeters>
            <DistanceMeters>592743.06397603</DistanceMeters>
          </Trackpoint>
          <Trackpoint>
            <Time>2021-08-04T09:31:44.000Z</Time>
            <Position>
              <LatitudeDegrees>40.9865843318402767181396484375</LatitudeDegrees>
              <LongitudeDegrees>-1.13521252758800983428955078125</LongitudeDegrees>
            </Position>
            <AltitudeMeters>1274.800048828125</AltitudeMeters>
            <DistanceMeters>592767.06946203</DistanceMeters>
          </Trackpoint>
          <Trackpoint>
            <Time>2021-08-04T09:31:53.000Z</Time>
            <Position>
              <LatitudeDegrees>40.98670578561723232269287109375</LatitudeDegrees>
              <LongitudeDegrees>-1.1350211687386035919189453125</LongitudeDegrees>
            </Position>
            <AltitudeMeters>1275.800048828125</AltitudeMeters>
            <DistanceMeters>592788.07488027</DistanceMeters>
          </Trackpoint>
          <Trackpoint>
            <Time>2021-08-04T09:32:01.000Z</Time>
            <Position>
              <LatitudeDegrees>40.9868428297340869903564453125</LatitudeDegrees>
              <LongitudeDegrees>-1.1349024809896945953369140625</LongitudeDegrees>
            </Position>
            <AltitudeMeters>1276.800048828125</AltitudeMeters>
            <DistanceMeters>592806.29871498</DistanceMeters>
          </Trackpoint>
          <Trackpoint>
            <Time>2021-08-04T09:32:08.000Z</Time>
            <Position>
              <LatitudeDegrees>40.98696126602590084075927734375</LatitudeDegrees>
              <LongitudeDegrees>-1.1348117887973785400390625</LongitudeDegrees>
            </Position>
            <AltitudeMeters>1278</AltitudeMeters>
            <DistanceMeters>592821.52494835</DistanceMeters>
          </Trackpoint>
          <Trackpoint>
            <Time>2021-08-04T09:32:15.000Z</Time>
            <Position>
              <LatitudeDegrees>40.98707827739417552947998046875</LatitudeDegrees>
              <LongitudeDegrees>-1.1346912570297718048095703125</LongitudeDegrees>
            </Position>
            <AltitudeMeters>1278.800048828125</AltitudeMeters>
            <DistanceMeters>592838.02214429</DistanceMeters>
          </Trackpoint>
          <Trackpoint>
            <Time>2021-08-04T09:32:21.000Z</Time>
            <Position>
              <LatitudeDegrees>40.987143404781818389892578125</LatitudeDegrees>
              <LongitudeDegrees>-1.1345611698925495147705078125</LongitudeDegrees>
            </Position>
            <AltitudeMeters>1280</AltitudeMeters>
            <DistanceMeters>592851.137208</DistanceMeters>
          </Trackpoint>
          <Trackpoint>
            <Time>2021-08-04T09:32:30.000Z</Time>
            <Position>
              <LatitudeDegrees>40.9872022457420825958251953125</LatitudeDegrees>
              <LongitudeDegrees>-1.1343164183199405670166015625</LongitudeDegrees>
            </Position>
            <AltitudeMeters>1281</AltitudeMeters>
            <DistanceMeters>592872.71852591</DistanceMeters>
          </Trackpoint>
          <Trackpoint>
            <Time>2021-08-04T09:32:37.000Z</Time>
            <Position>
              <LatitudeDegrees>40.98720182664692401885986328125</LatitudeDegrees>
              <LongitudeDegrees>-1.13411952741444110870361328125</LongitudeDegrees>
            </Position>
            <AltitudeMeters>1282.199951171875</AltitudeMeters>
            <DistanceMeters>592889.26081827</DistanceMeters>
          </Trackpoint>
          <Trackpoint>
            <Time>2021-08-04T09:32:55.000Z</Time>
            <Position>
              <LatitudeDegrees>40.98687149584293365478515625</LatitudeDegrees>
              <LongitudeDegrees>-1.1338567547500133514404296875</LongitudeDegrees>
            </Position>
            <AltitudeMeters>1283.199951171875</AltitudeMeters>
            <DistanceMeters>592932.14661766</DistanceMeters>
          </Trackpoint>
          <Trackpoint>
            <Time>2021-08-04T09:33:03.000Z</Time>
            <Position>
              <LatitudeDegrees>40.98669120110571384429931640625</LatitudeDegrees>
              <LongitudeDegrees>-1.13385197706520557403564453125</LongitudeDegrees>
            </Position>
            <AltitudeMeters>1284.4000244140625</AltitudeMeters>
            <DistanceMeters>592952.21773548</DistanceMeters>
          </Trackpoint>
          <Trackpoint>
            <Time>2021-08-04T09:33:15.000Z</Time>
            <Position>
              <LatitudeDegrees>40.986414514482021331787109375</LatitudeDegrees>
              <LongitudeDegrees>-1.1338500492274761199951171875</LongitudeDegrees>
            </Position>
            <AltitudeMeters>1285.4000244140625</AltitudeMeters>
            <DistanceMeters>592983.01401559</DistanceMeters>
          </Trackpoint>
          <Trackpoint>
            <Time>2021-08-04T09:33:16.000Z</Time>
            <Position>
              <LatitudeDegrees>40.98639129661023616790771484375</LatitudeDegrees>
              <LongitudeDegrees>-1.13384879194200038909912109375</LongitudeDegrees>
            </Position>
            <AltitudeMeters>1285.5999755859375</AltitudeMeters>
            <DistanceMeters>592985.5990217</DistanceMeters>
          </Trackpoint>
          <Trackpoint>
            <Time>2021-08-04T09:33:19.000Z</Time>
            <Position>
              <LatitudeDegrees>40.98632105626165866851806640625</LatitudeDegrees>
              <LongitudeDegrees>-1.13383437506854534149169921875</LongitudeDegrees>
            </Position>
            <AltitudeMeters>1286.4000244140625</AltitudeMeters>
            <DistanceMeters>592993.51024536</DistanceMeters>
          </Trackpoint>
          <Trackpoint>
            <Time>2021-08-04T09:33:26.000Z</Time>
            <Position>
              <LatitudeDegrees>40.98616867326200008392333984375</LatitudeDegrees>
              <LongitudeDegrees>-1.133765392005443572998046875</LongitudeDegrees>
            </Position>
            <AltitudeMeters>1287.4000244140625</AltitudeMeters>
            <DistanceMeters>593011.43380526</DistanceMeters>
          </Trackpoint>
          <Trackpoint>
            <Time>2021-08-04T09:33:31.000Z</Time>
            <Position>
              <LatitudeDegrees>40.98608552478253841400146484375</LatitudeDegrees>
              <LongitudeDegrees>-1.133658774197101593017578125</LongitudeDegrees>
            </Position>
            <AltitudeMeters>1288.5999755859375</AltitudeMeters>
            <DistanceMeters>593024.31369402</DistanceMeters>
          </Trackpoint>
          <Trackpoint>
            <Time>2021-08-04T09:33:37.000Z</Time>
            <Position>
              <LatitudeDegrees>40.9860307909548282623291015625</LatitudeDegrees>
              <LongitudeDegrees>-1.1334889568388462066650390625</LongitudeDegrees>
            </Position>
            <AltitudeMeters>1289.4000244140625</AltitudeMeters>
            <DistanceMeters>593039.82780558</DistanceMeters>
          </Trackpoint>
          <Trackpoint>
            <Time>2021-08-04T09:33:43.000Z</Time>
            <Position>
              <LatitudeDegrees>40.9860029630362987518310546875</LatitudeDegrees>
              <LongitudeDegrees>-1.13331117667257785797119140625</LongitudeDegrees>
            </Position>
            <AltitudeMeters>1290.5999755859375</AltitudeMeters>
            <DistanceMeters>593055.08247929</DistanceMeters>
          </Trackpoint>
          <Trackpoint>
            <Time>2021-08-04T09:33:48.000Z</Time>
            <Position>
              <LatitudeDegrees>40.9859992749989032745361328125</LatitudeDegrees>
              <LongitudeDegrees>-1.133167929947376251220703125</LongitudeDegrees>
            </Position>
            <AltitudeMeters>1291.5999755859375</AltitudeMeters>
            <DistanceMeters>593067.12503</DistanceMeters>
          </Trackpoint>
          <Trackpoint>
            <Time>2021-08-04T09:33:54.000Z</Time>
            <Position>
              <LatitudeDegrees>40.98601897247135639190673828125</LatitudeDegrees>
              <LongitudeDegrees>-1.13298931159079074859619140625</LongitudeDegrees>
            </Position>
            <AltitudeMeters>1292.5999755859375</AltitudeMeters>
            <DistanceMeters>593082.29184138</DistanceMeters>
          </Trackpoint>
          <Trackpoint>
            <Time>2021-08-04T09:33:59.000Z</Time>
            <Position>
              <LatitudeDegrees>40.9860643185675144195556640625</LatitudeDegrees>
              <LongitudeDegrees>-1.13285101018846035003662109375</LongitudeDegrees>
            </Position>
            <AltitudeMeters>1293.800048828125</AltitudeMeters>
            <DistanceMeters>593094.96036728</DistanceMeters>
          </Trackpoint>
          <Trackpoint>
            <Time>2021-08-04T09:34:03.000Z</Time>
            <Position>
              <LatitudeDegrees>40.98612424917519092559814453125</LatitudeDegrees>
              <LongitudeDegrees>-1.13276249729096889495849609375</LongitudeDegrees>
            </Position>
            <AltitudeMeters>1294.800048828125</AltitudeMeters>
            <DistanceMeters>593104.95038254</DistanceMeters>
          </Trackpoint>
          <Trackpoint>
            <Time>2021-08-04T09:34:09.000Z</Time>
            <Position>
              <LatitudeDegrees>40.9862406738102436065673828125</LatitudeDegrees>
              <LongitudeDegrees>-1.1326561309397220611572265625</LongitudeDegrees>
            </Position>
            <AltitudeMeters>1295.800048828125</AltitudeMeters>
            <DistanceMeters>593120.69158001</DistanceMeters>
          </Trackpoint>
          <Trackpoint>
            <Time>2021-08-04T09:34:26.000Z</Time>
            <Position>
              <LatitudeDegrees>40.98660319112241268157958984375</LatitudeDegrees>
              <LongitudeDegrees>-1.13248296082019805908203125</LongitudeDegrees>
            </Position>
            <AltitudeMeters>1296.5999755859375</AltitudeMeters>
            <DistanceMeters>593163.58348523</DistanceMeters>
          </Trackpoint>
          <Trackpoint>
            <Time>2021-08-04T09:34:33.000Z</Time>
            <Position>
              <LatitudeDegrees>40.98675481975078582763671875</LatitudeDegrees>
              <LongitudeDegrees>-1.13244079984724521636962890625</LongitudeDegrees>
            </Position>
            <AltitudeMeters>1297.800048828125</AltitudeMeters>
            <DistanceMeters>593180.82762677</DistanceMeters>
          </Trackpoint>
          <Trackpoint>
            <Time>2021-08-04T09:34:39.000Z</Time>
            <Position>
              <LatitudeDegrees>40.98688230849802494049072265625</LatitudeDegrees>
              <LongitudeDegrees>-1.13239335827529430389404296875</LongitudeDegrees>
            </Position>
            <AltitudeMeters>1299</AltitudeMeters>
            <DistanceMeters>593195.56687977</DistanceMeters>
          </Trackpoint>
          <Trackpoint>
            <Time>2021-08-04T09:34:46.000Z</Time>
            <Position>
              <LatitudeDegrees>40.98701926879584789276123046875</LatitudeDegrees>
              <LongitudeDegrees>-1.132341139018535614013671875</LongitudeDegrees>
            </Position>
            <AltitudeMeters>1300.4000244140625</AltitudeMeters>
            <DistanceMeters>593211.42979597</DistanceMeters>
          </Trackpoint>
          <Trackpoint>
            <Time>2021-08-04T09:34:53.000Z</Time>
            <Position>
              <LatitudeDegrees>40.98715254105627536773681640625</LatitudeDegrees>
              <LongitudeDegrees>-1.1322719044983386993408203125</LongitudeDegrees>
            </Position>
            <AltitudeMeters>1301.4000244140625</AltitudeMeters>
            <DistanceMeters>593227.36314367</DistanceMeters>
          </Trackpoint>
          <Trackpoint>
            <Time>2021-08-04T09:35:03.000Z</Time>
            <Position>
              <LatitudeDegrees>40.98733493126928806304931640625</LatitudeDegrees>
              <LongitudeDegrees>-1.13217651844024658203125</LongitudeDegrees>
            </Position>
            <AltitudeMeters>1302.5999755859375</AltitudeMeters>
            <DistanceMeters>593249.18786526</DistanceMeters>
          </Trackpoint>
          <Trackpoint>
            <Time>2021-08-04T09:35:10.000Z</Time>
            <Position>
              <LatitudeDegrees>40.9874510206282138824462890625</LatitudeDegrees>
              <LongitudeDegrees>-1.1321022547781467437744140625</LongitudeDegrees>
            </Position>
            <AltitudeMeters>1303.5999755859375</AltitudeMeters>
            <DistanceMeters>593263.53658447</DistanceMeters>
          </Trackpoint>
          <Trackpoint>
            <Time>2021-08-04T09:35:12.000Z</Time>
            <Position>
              <LatitudeDegrees>40.98748438060283660888671875</LatitudeDegrees>
              <LongitudeDegrees>-1.13208909519016742706298828125</LongitudeDegrees>
            </Position>
            <AltitudeMeters>1303.5999755859375</AltitudeMeters>
            <DistanceMeters>593267.41176409</DistanceMeters>
          </Trackpoint>
          <Trackpoint>
            <Time>2021-08-04T09:35:17.000Z</Time>
            <Position>
              <LatitudeDegrees>40.98756778053939342498779296875</LatitudeDegrees>
              <LongitudeDegrees>-1.1320321820676326751708984375</LongitudeDegrees>
            </Position>
            <AltitudeMeters>1304</AltitudeMeters>
            <DistanceMeters>593277.8534662</DistanceMeters>
          </Trackpoint>
          <Trackpoint>
            <Time>2021-08-04T09:35:23.000Z</Time>
            <Position>
              <LatitudeDegrees>40.98767347633838653564453125</LatitudeDegrees>
              <LongitudeDegrees>-1.1319517157971858978271484375</LongitudeDegrees>
            </Position>
            <AltitudeMeters>1304.5999755859375</AltitudeMeters>
            <DistanceMeters>593291.42200329</DistanceMeters>
          </Trackpoint>
          <Trackpoint>
            <Time>2021-08-04T09:35:28.000Z</Time>
            <Position>
              <LatitudeDegrees>40.98776190541684627532958984375</LatitudeDegrees>
              <LongitudeDegrees>-1.1318883486092090606689453125</LongitudeDegrees>
            </Position>
            <AltitudeMeters>1305.800048828125</AltitudeMeters>
            <DistanceMeters>593302.61177719</DistanceMeters>
          </Trackpoint>
          <Trackpoint>
            <Time>2021-08-04T09:35:34.000Z</Time>
            <Position>
              <LatitudeDegrees>40.98787103779613971710205078125</LatitudeDegrees>
              <LongitudeDegrees>-1.13181752152740955352783203125</LongitudeDegrees>
            </Position>
            <AltitudeMeters>1306.800048828125</AltitudeMeters>
            <DistanceMeters>593316.13765419</DistanceMeters>
          </Trackpoint>
          <Trackpoint>
            <Time>2021-08-04T09:35:47.000Z</Time>
            <Position>
              <LatitudeDegrees>40.98809550516307353973388671875</LatitudeDegrees>
              <LongitudeDegrees>-1.13159783184528350830078125</LongitudeDegrees>
            </Position>
            <AltitudeMeters>1308</AltitudeMeters>
            <DistanceMeters>593347.19990891</DistanceMeters>
          </Trackpoint>
          <Trackpoint>
            <Time>2021-08-04T09:35:54.000Z</Time>
            <Position>
              <LatitudeDegrees>40.98819524981081485748291015625</LatitudeDegrees>
              <LongitudeDegrees>-1.131443940103054046630859375</LongitudeDegrees>
            </Position>
            <AltitudeMeters>1308.800048828125</AltitudeMeters>
            <DistanceMeters>593364.24177848</DistanceMeters>
          </Trackpoint>
          <Trackpoint>
            <Time>2021-08-04T09:36:01.000Z</Time>
            <Position>
              <LatitudeDegrees>40.98828124813735485076904296875</LatitudeDegrees>
              <LongitudeDegrees>-1.1312761344015598297119140625</LongitudeDegrees>
            </Position>
            <AltitudeMeters>1310</AltitudeMeters>
            <DistanceMeters>593381.28232332</DistanceMeters>
          </Trackpoint>
          <Trackpoint>
            <Time>2021-08-04T09:36:07.000Z</Time>
            <Position>
              <LatitudeDegrees>40.98837043158710002899169921875</LatitudeDegrees>
              <LongitudeDegrees>-1.1311463825404644012451171875</LongitudeDegrees>
            </Position>
            <AltitudeMeters>1311</AltitudeMeters>
            <DistanceMeters>593396.02555804</DistanceMeters>
          </Trackpoint>
          <Trackpoint>
            <Time>2021-08-04T09:36:14.000Z</Time>
            <Position>
              <LatitudeDegrees>40.9885021112859249114990234375</LatitudeDegrees>
              <LongitudeDegrees>-1.1310401000082492828369140625</LongitudeDegrees>
            </Position>
            <AltitudeMeters>1312</AltitudeMeters>
            <DistanceMeters>593413.18781411</DistanceMeters>
          </Trackpoint>
          <Trackpoint>
            <Time>2021-08-04T09:36:20.000Z</Time>
            <Position>
              <LatitudeDegrees>40.988619290292263031005859375</LatitudeDegrees>
              <LongitudeDegrees>-1.1309740506112575531005859375</LongitudeDegrees>
            </Position>
            <AltitudeMeters>1313.199951171875</AltitudeMeters>
            <DistanceMeters>593427.36177406</DistanceMeters>
          </Trackpoint>
          <Trackpoint>
            <Time>2021-08-04T09:36:26.000Z</Time>
            <Position>
              <LatitudeDegrees>40.98874074406921863555908203125</LatitudeDegrees>
              <LongitudeDegrees>-1.1309395171701908111572265625</LongitudeDegrees>
            </Position>
            <AltitudeMeters>1314.4000244140625</AltitudeMeters>
            <DistanceMeters>593441.18807936</DistanceMeters>
          </Trackpoint>
          <Trackpoint>
            <Time>2021-08-04T09:36:32.000Z</Time>
            <Position>
              <LatitudeDegrees>40.98887108266353607177734375</LatitudeDegrees>
              <LongitudeDegrees>-1.1308972723782062530517578125</LongitudeDegrees>
            </Position>
            <AltitudeMeters>1315.5999755859375</AltitudeMeters>
            <DistanceMeters>593456.12330445</DistanceMeters>
          </Trackpoint>
          <Trackpoint>
            <Time>2021-08-04T09:36:38.000Z</Time>
            <Position>
              <LatitudeDegrees>40.98901114426553249359130859375</LatitudeDegrees>
              <LongitudeDegrees>-1.13087858073413372039794921875</LongitudeDegrees>
            </Position>
            <AltitudeMeters>1316.5999755859375</AltitudeMeters>
            <DistanceMeters>593471.79147786</DistanceMeters>
          </Trackpoint>
          <Trackpoint>
            <Time>2021-08-04T09:36:43.000Z</Time>
            <Position>
              <LatitudeDegrees>40.98912748508155345916748046875</LatitudeDegrees>
              <LongitudeDegrees>-1.130861230194568634033203125</LongitudeDegrees>
            </Position>
            <AltitudeMeters>1317.5999755859375</AltitudeMeters>
            <DistanceMeters>593484.82227053</DistanceMeters>
          </Trackpoint>
          <Trackpoint>
            <Time>2021-08-04T09:36:48.000Z</Time>
            <Position>
              <LatitudeDegrees>40.98924533464014530181884765625</LatitudeDegrees>
              <LongitudeDegrees>-1.13085075281560420989990234375</LongitudeDegrees>
            </Position>
            <AltitudeMeters>1318.800048828125</AltitudeMeters>
            <DistanceMeters>593497.96896833</DistanceMeters>
          </Trackpoint>
          <Trackpoint>
            <Time>2021-08-04T09:36:55.000Z</Time>
            <Position>
              <LatitudeDegrees>40.9894083626568317413330078125</LatitudeDegrees>
              <LongitudeDegrees>-1.1308499984443187713623046875</LongitudeDegrees>
            </Position>
            <AltitudeMeters>1319.800048828125</AltitudeMeters>
            <DistanceMeters>593516.1143437</DistanceMeters>
          </Trackpoint>
          <Trackpoint>
            <Time>2021-08-04T09:37:03.000Z</Time>
            <Position>
              <LatitudeDegrees>40.9896024875342845916748046875</LatitudeDegrees>
              <LongitudeDegrees>-1.1308456398546695709228515625</LongitudeDegrees>
            </Position>
            <AltitudeMeters>1321</AltitudeMeters>
            <DistanceMeters>593537.72388657</DistanceMeters>
          </Trackpoint>
          <Trackpoint>
            <Time>2021-08-04T09:37:11.000Z</Time>
            <Position>
              <LatitudeDegrees>40.9897935949265956878662109375</LatitudeDegrees>
              <LongitudeDegrees>-1.13084354437887668609619140625</LongitudeDegrees>
            </Position>
            <AltitudeMeters>1322</AltitudeMeters>
            <DistanceMeters>593558.99501749</DistanceMeters>
          </Trackpoint>
          <Trackpoint>
            <Time>2021-08-04T09:37:17.000Z</Time>
            <Position>
              <LatitudeDegrees>40.9899458102881908416748046875</LatitudeDegrees>
              <LongitudeDegrees>-1.1308560334146022796630859375</LongitudeDegrees>
            </Position>
            <AltitudeMeters>1323</AltitudeMeters>
            <DistanceMeters>593575.96945943</DistanceMeters>
          </Trackpoint>
          <Trackpoint>
            <Time>2021-08-04T09:37:32.000Z</Time>
            <Position>
              <LatitudeDegrees>40.99031603895127773284912109375</LatitudeDegrees>
              <LongitudeDegrees>-1.13085309974849224090576171875</LongitudeDegrees>
            </Position>
            <AltitudeMeters>1324</AltitudeMeters>
            <DistanceMeters>593617.17732051</DistanceMeters>
          </Trackpoint>
          <Trackpoint>
            <Time>2021-08-04T09:37:35.000Z</Time>
            <Position>
              <LatitudeDegrees>40.99039097316563129425048828125</LatitudeDegrees>
              <LongitudeDegrees>-1.1308439634740352630615234375</LongitudeDegrees>
            </Position>
            <AltitudeMeters>1324.5999755859375</AltitudeMeters>
            <DistanceMeters>593625.55315861</DistanceMeters>
          </Trackpoint>
          <Trackpoint>
            <Time>2021-08-04T09:37:37.000Z</Time>
            <Position>
              <LatitudeDegrees>40.99044159986078739166259765625</LatitudeDegrees>
              <LongitudeDegrees>-1.13083817996084690093994140625</LongitudeDegrees>
            </Position>
            <AltitudeMeters>1325</AltitudeMeters>
            <DistanceMeters>593631.2086454</DistanceMeters>
          </Trackpoint>
          <Trackpoint>
            <Time>2021-08-04T09:37:43.000Z</Time>
            <Position>
              <LatitudeDegrees>40.99059817381203174591064453125</LatitudeDegrees>
              <LongitudeDegrees>-1.1308174766600131988525390625</LongitudeDegrees>
            </Position>
            <AltitudeMeters>1326</AltitudeMeters>
            <DistanceMeters>593648.72220033</DistanceMeters>
          </Trackpoint>
          <Trackpoint>
            <Time>2021-08-04T09:37:52.000Z</Time>
            <Position>
              <LatitudeDegrees>40.99083177745342254638671875</LatitudeDegrees>
              <LongitudeDegrees>-1.13078738562762737274169921875</LongitudeDegrees>
            </Position>
            <AltitudeMeters>1327.199951171875</AltitudeMeters>
            <DistanceMeters>593674.84521522</DistanceMeters>
          </Trackpoint>
          <Trackpoint>
            <Time>2021-08-04T09:37:57.000Z</Time>
            <Position>
              <LatitudeDegrees>40.9909603558480739593505859375</LatitudeDegrees>
              <LongitudeDegrees>-1.1307826079428195953369140625</LongitudeDegrees>
            </Position>
            <AltitudeMeters>1328.4000244140625</AltitudeMeters>
            <DistanceMeters>593689.16180264</DistanceMeters>
          </Trackpoint>
          <Trackpoint>
            <Time>2021-08-04T09:38:04.000Z</Time>
            <Position>
              <LatitudeDegrees>40.99115171469748020172119140625</LatitudeDegrees>
              <LongitudeDegrees>-1.1307896487414836883544921875</LongitudeDegrees>
            </Position>
            <AltitudeMeters>1329.4000244140625</AltitudeMeters>
            <DistanceMeters>593710.46856361</DistanceMeters>
          </Trackpoint>
          <Trackpoint>
            <Time>2021-08-04T09:38:14.000Z</Time>
            <Position>
              <LatitudeDegrees>40.99142261780798435211181640625</LatitudeDegrees>
              <LongitudeDegrees>-1.1308292113244533538818359375</LongitudeDegrees>
            </Position>
            <AltitudeMeters>1330.4000244140625</AltitudeMeters>
            <DistanceMeters>593740.80307943</DistanceMeters>
          </Trackpoint>
          <Trackpoint>
            <Time>2021-08-04T09:38:21.000Z</Time>
            <Position>
              <LatitudeDegrees>40.99160023033618927001953125</LatitudeDegrees>
              <LongitudeDegrees>-1.1308704502880573272705078125</LongitudeDegrees>
            </Position>
            <AltitudeMeters>1331.4000244140625</AltitudeMeters>
            <DistanceMeters>593760.87284748</DistanceMeters>
          </Trackpoint>
          <Trackpoint>
            <Time>2021-08-04T09:38:28.000Z</Time>
            <Position>
              <LatitudeDegrees>40.99177650175988674163818359375</LatitudeDegrees>
              <LongitudeDegrees>-1.1308944225311279296875</LongitudeDegrees>
            </Position>
            <AltitudeMeters>1332.4000244140625</AltitudeMeters>
            <DistanceMeters>593780.59541255</DistanceMeters>
          </Trackpoint>
          <Trackpoint>
            <Time>2021-08-04T09:38:35.000Z</Time>
            <Position>
              <LatitudeDegrees>40.99195201881229877471923828125</LatitudeDegrees>
              <LongitudeDegrees>-1.13093440420925617218017578125</LongitudeDegrees>
            </Position>
            <AltitudeMeters>1333.5999755859375</AltitudeMeters>
            <DistanceMeters>593800.41731095</DistanceMeters>
          </Trackpoint>
          <Trackpoint>
            <Time>2021-08-04T09:38:40.000Z</Time>
            <Position>
              <LatitudeDegrees>40.9920754842460155487060546875</LatitudeDegrees>
              <LongitudeDegrees>-1.13096491433680057525634765625</LongitudeDegrees>
            </Position>
            <AltitudeMeters>1334.5999755859375</AltitudeMeters>
            <DistanceMeters>593814.3962542</DistanceMeters>
          </Trackpoint>
          <Trackpoint>
            <Time>2021-08-04T09:38:51.000Z</Time>
            <Position>
              <LatitudeDegrees>40.99234630353748798370361328125</LatitudeDegrees>
              <LongitudeDegrees>-1.1310407705605030059814453125</LongitudeDegrees>
            </Position>
            <AltitudeMeters>1335.5999755859375</AltitudeMeters>
            <DistanceMeters>593845.20543327</DistanceMeters>
          </Trackpoint>
          <Trackpoint>
            <Time>2021-08-04T09:38:57.000Z</Time>
            <Position>
              <LatitudeDegrees>40.9924962557852268218994140625</LatitudeDegrees>
              <LongitudeDegrees>-1.131071113049983978271484375</LongitudeDegrees>
            </Position>
            <AltitudeMeters>1336.5999755859375</AltitudeMeters>
            <DistanceMeters>593862.08946369</DistanceMeters>
          </Trackpoint>
          <Trackpoint>
            <Time>2021-08-04T09:39:07.000Z</Time>
            <Position>
              <LatitudeDegrees>40.99274343810975551605224609375</LatitudeDegrees>
              <LongitudeDegrees>-1.1311222426593303680419921875</LongitudeDegrees>
            </Position>
            <AltitudeMeters>1337.5999755859375</AltitudeMeters>
            <DistanceMeters>593889.93472332</DistanceMeters>
          </Trackpoint>
          <Trackpoint>
            <Time>2021-08-04T09:39:12.000Z</Time>
            <Position>
              <LatitudeDegrees>40.99287017248570919036865234375</LatitudeDegrees>
              <LongitudeDegrees>-1.13114009611308574676513671875</LongitudeDegrees>
            </Position>
            <AltitudeMeters>1338.800048828125</AltitudeMeters>
            <DistanceMeters>593904.12014625</DistanceMeters>
          </Trackpoint>
          <Trackpoint>
            <Time>2021-08-04T09:39:20.000Z</Time>
            <Position>
              <LatitudeDegrees>40.99306714721024036407470703125</LatitudeDegrees>
              <LongitudeDegrees>-1.13116356544196605682373046875</LongitudeDegrees>
            </Position>
            <AltitudeMeters>1339.800048828125</AltitudeMeters>
            <DistanceMeters>593926.1323211</DistanceMeters>
          </Trackpoint>
          <Trackpoint>
            <Time>2021-08-04T09:39:26.000Z</Time>
            <Position>
              <LatitudeDegrees>40.99320712499320507049560546875</LatitudeDegrees>
              <LongitudeDegrees>-1.1311728693544864654541015625</LongitudeDegrees>
            </Position>
            <AltitudeMeters>1341</AltitudeMeters>
            <DistanceMeters>593941.73176019</DistanceMeters>
          </Trackpoint>
          <Trackpoint>
            <Time>2021-08-04T09:39:33.000Z</Time>
            <Position>
              <LatitudeDegrees>40.9933733381330966949462890625</LatitudeDegrees>
              <LongitudeDegrees>-1.1312003619968891143798828125</LongitudeDegrees>
            </Position>
            <AltitudeMeters>1342.199951171875</AltitudeMeters>
            <DistanceMeters>593960.37541065</DistanceMeters>
          </Trackpoint>
          <Trackpoint>
            <Time>2021-08-04T09:39:41.000Z</Time>
            <Position>
              <LatitudeDegrees>40.99356201477348804473876953125</LatitudeDegrees>
              <LongitudeDegrees>-1.13121989183127880096435546875</LongitudeDegrees>
            </Position>
            <AltitudeMeters>1343</AltitudeMeters>
            <DistanceMeters>593981.43964186</DistanceMeters>
          </Trackpoint>
          <Trackpoint>
            <Time>2021-08-04T09:39:46.000Z</Time>
            <Position>
              <LatitudeDegrees>40.99367558956146240234375</LatitudeDegrees>
              <LongitudeDegrees>-1.1312650702893733978271484375</LongitudeDegrees>
            </Position>
            <AltitudeMeters>1344</AltitudeMeters>
            <DistanceMeters>593994.63843857</DistanceMeters>
          </Trackpoint>
          <Trackpoint>
            <Time>2021-08-04T09:39:51.000Z</Time>
            <Position>
              <LatitudeDegrees>40.99378949962556362152099609375</LatitudeDegrees>
              <LongitudeDegrees>-1.13133220933377742767333984375</LongitudeDegrees>
            </Position>
            <AltitudeMeters>1345.199951171875</AltitudeMeters>
            <DistanceMeters>594008.5149421</DistanceMeters>
          </Trackpoint>
          <Trackpoint>
            <Time>2021-08-04T09:40:00.000Z</Time>
            <Position>
              <LatitudeDegrees>40.99400558508932590484619140625</LatitudeDegrees>
              <LongitudeDegrees>-1.13145223818719387054443359375</LongitudeDegrees>
            </Position>
            <AltitudeMeters>1346.4000244140625</AltitudeMeters>
            <DistanceMeters>594034.59384617</DistanceMeters>
          </Trackpoint>
          <Trackpoint>
            <Time>2021-08-04T09:40:05.000Z</Time>
            <Position>
              <LatitudeDegrees>40.994115807116031646728515625</LatitudeDegrees>
              <LongitudeDegrees>-1.131531782448291778564453125</LongitudeDegrees>
            </Position>
            <AltitudeMeters>1347.4000244140625</AltitudeMeters>
            <DistanceMeters>594048.56374281</DistanceMeters>
          </Trackpoint>
          <Trackpoint>
            <Time>2021-08-04T09:40:11.000Z</Time>
            <Position>
              <LatitudeDegrees>40.99424161948263645172119140625</LatitudeDegrees>
              <LongitudeDegrees>-1.13162104971706867218017578125</LongitudeDegrees>
            </Position>
            <AltitudeMeters>1348.5999755859375</AltitudeMeters>
            <DistanceMeters>594064.44884451</DistanceMeters>
          </Trackpoint>
          <Trackpoint>
            <Time>2021-08-04T09:40:19.000Z</Time>
            <Position>
              <LatitudeDegrees>40.9944086708128452301025390625</LatitudeDegrees>
              <LongitudeDegrees>-1.13174342550337314605712890625</LongitudeDegrees>
            </Position>
            <AltitudeMeters>1349.800048828125</AltitudeMeters>
            <DistanceMeters>594085.69512633</DistanceMeters>
          </Trackpoint>
          <Trackpoint>
            <Time>2021-08-04T09:40:27.000Z</Time>
            <Position>
              <LatitudeDegrees>40.99456666968762874603271484375</LatitudeDegrees>
              <LongitudeDegrees>-1.13185021094977855682373046875</LongitudeDegrees>
            </Position>
            <AltitudeMeters>1350.5999755859375</AltitudeMeters>
            <DistanceMeters>594105.43691195</DistanceMeters>
          </Trackpoint>
          <Trackpoint>
            <Time>2021-08-04T09:40:34.000Z</Time>
            <Position>
              <LatitudeDegrees>40.994692482054233551025390625</LatitudeDegrees>
              <LongitudeDegrees>-1.13195129670202732086181640625</LongitudeDegrees>
            </Position>
            <AltitudeMeters>1351.800048828125</AltitudeMeters>
            <DistanceMeters>594121.81351936</DistanceMeters>
          </Trackpoint>
          <Trackpoint>
            <Time>2021-08-04T09:40:42.000Z</Time>
            <Position>
              <LatitudeDegrees>40.99483623169362545013427734375</LatitudeDegrees>
              <LongitudeDegrees>-1.13208104856312274932861328125</LongitudeDegrees>
            </Position>
            <AltitudeMeters>1353</AltitudeMeters>
            <DistanceMeters>594141.17309898</DistanceMeters>
          </Trackpoint>
          <Trackpoint>
            <Time>2021-08-04T09:40:47.000Z</Time>
            <Position>
              <LatitudeDegrees>40.9949229843914508819580078125</LatitudeDegrees>
              <LongitudeDegrees>-1.1321669630706310272216796875</LongitudeDegrees>
            </Position>
            <AltitudeMeters>1354</AltitudeMeters>
            <DistanceMeters>594153.22839036</DistanceMeters>
          </Trackpoint>
          <Trackpoint>
            <Time>2021-08-04T09:40:54.000Z</Time>
            <Position>
              <LatitudeDegrees>40.99505131132900714874267578125</LatitudeDegrees>
              <LongitudeDegrees>-1.13228456117212772369384765625</LongitudeDegrees>
            </Position>
            <AltitudeMeters>1355.199951171875</AltitudeMeters>
            <DistanceMeters>594170.59515613</DistanceMeters>
          </Trackpoint>
          <Trackpoint>
            <Time>2021-08-04T09:41:00.000Z</Time>
            <Position>
              <LatitudeDegrees>40.9951653890311717987060546875</LatitudeDegrees>
              <LongitudeDegrees>-1.1323808692395687103271484375</LongitudeDegrees>
            </Position>
            <AltitudeMeters>1356.199951171875</AltitudeMeters>
            <DistanceMeters>594185.65051892</DistanceMeters>
          </Trackpoint>
          <Trackpoint>
            <Time>2021-08-04T09:41:11.000Z</Time>
            <Position>
              <LatitudeDegrees>40.9953799657523632049560546875</LatitudeDegrees>
              <LongitudeDegrees>-1.13253853283822536468505859375</LongitudeDegrees>
            </Position>
            <AltitudeMeters>1357</AltitudeMeters>
            <DistanceMeters>594212.96007903</DistanceMeters>
          </Trackpoint>
          <Trackpoint>
            <Time>2021-08-04T09:41:18.000Z</Time>
            <Position>
              <LatitudeDegrees>40.99551734514534473419189453125</LatitudeDegrees>
              <LongitudeDegrees>-1.13263760693371295928955078125</LongitudeDegrees>
            </Position>
            <AltitudeMeters>1358.199951171875</AltitudeMeters>
            <DistanceMeters>594230.36891086</DistanceMeters>
          </Trackpoint>
          <Trackpoint>
            <Time>2021-08-04T09:41:24.000Z</Time>
            <Position>
              <LatitudeDegrees>40.99564055912196636199951171875</LatitudeDegrees>
              <LongitudeDegrees>-1.13270985893905162811279296875</LongitudeDegrees>
            </Position>
            <AltitudeMeters>1359.199951171875</AltitudeMeters>
            <DistanceMeters>594245.3662821</DistanceMeters>
          </Trackpoint>
          <Trackpoint>
            <Time>2021-08-04T09:41:30.000Z</Time>
            <Position>
              <LatitudeDegrees>40.99576528184115886688232421875</LatitudeDegrees>
              <LongitudeDegrees>-1.1327706277370452880859375</LongitudeDegrees>
            </Position>
            <AltitudeMeters>1360.4000244140625</AltitudeMeters>
            <DistanceMeters>594260.15690859</DistanceMeters>
          </Trackpoint>
          <Trackpoint>
            <Time>2021-08-04T09:41:45.000Z</Time>
            <Position>
              <LatitudeDegrees>40.99606401287019252777099609375</LatitudeDegrees>
              <LongitudeDegrees>-1.1329706199467182159423828125</LongitudeDegrees>
            </Position>
            <AltitudeMeters>1361.199951171875</AltitudeMeters>
            <DistanceMeters>594297.40980469</DistanceMeters>
          </Trackpoint>
          <Trackpoint>
            <Time>2021-08-04T09:41:49.000Z</Time>
            <Position>
              <LatitudeDegrees>40.99614179693162441253662109375</LatitudeDegrees>
              <LongitudeDegrees>-1.133023761212825775146484375</LongitudeDegrees>
            </Position>
            <AltitudeMeters>1362.4000244140625</AltitudeMeters>
            <DistanceMeters>594307.15085409</DistanceMeters>
          </Trackpoint>
          <Trackpoint>
            <Time>2021-08-04T09:42:03.000Z</Time>
            <Position>
              <LatitudeDegrees>40.99641689099371433258056640625</LatitudeDegrees>
              <LongitudeDegrees>-1.1332113482058048248291015625</LongitudeDegrees>
            </Position>
            <AltitudeMeters>1363.5999755859375</AltitudeMeters>
            <DistanceMeters>594341.58646906</DistanceMeters>
          </Trackpoint>
          <Trackpoint>
            <Time>2021-08-04T09:42:07.000Z</Time>
            <Position>
              <LatitudeDegrees>40.99649132229387760162353515625</LatitudeDegrees>
              <LongitudeDegrees>-1.13327085971832275390625</LongitudeDegrees>
            </Position>
            <AltitudeMeters>1364.5999755859375</AltitudeMeters>
            <DistanceMeters>594351.26240997</DistanceMeters>
          </Trackpoint>
          <Trackpoint>
            <Time>2021-08-04T09:42:14.000Z</Time>
            <Position>
              <LatitudeDegrees>40.99663146771490573883056640625</LatitudeDegrees>
              <LongitudeDegrees>-1.1333763040602207183837890625</LongitudeDegrees>
            </Position>
            <AltitudeMeters>1365.5999755859375</AltitudeMeters>
            <DistanceMeters>594369.20057443</DistanceMeters>
          </Trackpoint>
          <Trackpoint>
            <Time>2021-08-04T09:42:25.000Z</Time>
            <Position>
              <LatitudeDegrees>40.99684906192123889923095703125</LatitudeDegrees>
              <LongitudeDegrees>-1.133525669574737548828125</LongitudeDegrees>
            </Position>
            <AltitudeMeters>1366.4000244140625</AltitudeMeters>
            <DistanceMeters>594396.47671782</DistanceMeters>
          </Trackpoint>
          <Trackpoint>
            <Time>2021-08-04T09:42:32.000Z</Time>
            <Position>
              <LatitudeDegrees>40.996997840702533721923828125</LatitudeDegrees>
              <LongitudeDegrees>-1.133595071732997894287109375</LongitudeDegrees>
            </Position>
            <AltitudeMeters>1367.5999755859375</AltitudeMeters>
            <DistanceMeters>594414.03250145</DistanceMeters>
          </Trackpoint>
          <Trackpoint>
            <Time>2021-08-04T09:42:41.000Z</Time>
            <Position>
              <LatitudeDegrees>40.99718065001070499420166015625</LatitudeDegrees>
              <LongitudeDegrees>-1.1334872804582118988037109375</LongitudeDegrees>
            </Position>
            <AltitudeMeters>1368.800048828125</AltitudeMeters>
            <DistanceMeters>594436.30364958</DistanceMeters>
          </Trackpoint>
          <Trackpoint>
            <Time>2021-08-04T09:42:54.000Z</Time>
            <Position>
              <LatitudeDegrees>40.99730017594993114471435546875</LatitudeDegrees>
              <LongitudeDegrees>-1.13309274427592754364013671875</LongitudeDegrees>
            </Position>
            <AltitudeMeters>1369.5999755859375</AltitudeMeters>
            <DistanceMeters>594472.01650437</DistanceMeters>
          </Trackpoint>
          <Trackpoint>
            <Time>2021-08-04T09:42:59.000Z</Time>
            <Position>
              <LatitudeDegrees>40.9972585178911685943603515625</LatitudeDegrees>
              <LongitudeDegrees>-1.13293399102985858917236328125</LongitudeDegrees>
            </Position>
            <AltitudeMeters>1370.800048828125</AltitudeMeters>
            <DistanceMeters>594486.13556834</DistanceMeters>
          </Trackpoint>
          <Trackpoint>
            <Time>2021-08-04T09:43:04.000Z</Time>
            <Position>
              <LatitudeDegrees>40.997192971408367156982421875</LatitudeDegrees>
              <LongitudeDegrees>-1.13279418088495731353759765625</LongitudeDegrees>
            </Position>
            <AltitudeMeters>1371.800048828125</AltitudeMeters>
            <DistanceMeters>594499.96122052</DistanceMeters>
          </Trackpoint>
          <Trackpoint>
            <Time>2021-08-04T09:43:11.000Z</Time>
            <Position>
              <LatitudeDegrees>40.9970942325890064239501953125</LatitudeDegrees>
              <LongitudeDegrees>-1.1326018162071704864501953125</LongitudeDegrees>
            </Position>
            <AltitudeMeters>1372.800048828125</AltitudeMeters>
            <DistanceMeters>594519.50348224</DistanceMeters>
          </Trackpoint>
          <Trackpoint>
            <Time>2021-08-04T09:43:19.000Z</Time>
            <Position>
              <LatitudeDegrees>40.99697026424109935760498046875</LatitudeDegrees>
              <LongitudeDegrees>-1.13234792836010456085205078125</LongitudeDegrees>
            </Position>
            <AltitudeMeters>1374</AltitudeMeters>
            <DistanceMeters>594544.90531568</DistanceMeters>
          </Trackpoint>
          <Trackpoint>
            <Time>2021-08-04T09:43:25.000Z</Time>
            <Position>
              <LatitudeDegrees>40.99689600057899951934814453125</LatitudeDegrees>
              <LongitudeDegrees>-1.132153384387493133544921875</LongitudeDegrees>
            </Position>
            <AltitudeMeters>1375</AltitudeMeters>
            <DistanceMeters>594563.21935755</DistanceMeters>
          </Trackpoint>
          <Trackpoint>
            <Time>2021-08-04T09:43:33.000Z</Time>
            <Position>
              <LatitudeDegrees>40.99678737111389636993408203125</LatitudeDegrees>
              <LongitudeDegrees>-1.131897903978824615478515625</LongitudeDegrees>
            </Position>
            <AltitudeMeters>1376.199951171875</AltitudeMeters>
            <DistanceMeters>594587.85218091</DistanceMeters>
          </Trackpoint>
          <Trackpoint>
            <Time>2021-08-04T09:43:40.000Z</Time>
            <Position>
              <LatitudeDegrees>40.99669215269386768341064453125</LatitudeDegrees>
              <LongitudeDegrees>-1.131689362227916717529296875</LongitudeDegrees>
            </Position>
            <AltitudeMeters>1377.199951171875</AltitudeMeters>
            <DistanceMeters>594608.32685475</DistanceMeters>
          </Trackpoint>
          <Trackpoint>
            <Time>2021-08-04T09:43:48.000Z</Time>
            <Position>
              <LatitudeDegrees>40.99654664285480976104736328125</LatitudeDegrees>
              <LongitudeDegrees>-1.13148023374378681182861328125</LongitudeDegrees>
            </Position>
            <AltitudeMeters>1378.199951171875</AltitudeMeters>
            <DistanceMeters>594632.22092479</DistanceMeters>
          </Trackpoint>
          <Trackpoint>
            <Time>2021-08-04T09:43:56.000Z</Time>
            <Position>
              <LatitudeDegrees>40.99637967534363269805908203125</LatitudeDegrees>
              <LongitudeDegrees>-1.131298430263996124267578125</LongitudeDegrees>
            </Position>
            <AltitudeMeters>1379.199951171875</AltitudeMeters>
            <DistanceMeters>594656.27526282</DistanceMeters>
          </Trackpoint>
          <Trackpoint>
            <Time>2021-08-04T09:44:05.000Z</Time>
            <Position>
              <LatitudeDegrees>40.99619057960808277130126953125</LatitudeDegrees>
              <LongitudeDegrees>-1.13110422156751155853271484375</LongitudeDegrees>
            </Position>
            <AltitudeMeters>1380.199951171875</AltitudeMeters>
            <DistanceMeters>594682.90479348</DistanceMeters>
          </Trackpoint>
          <Trackpoint>
            <Time>2021-08-04T09:44:14.000Z</Time>
            <Position>
              <LatitudeDegrees>40.99600500427186489105224609375</LatitudeDegrees>
              <LongitudeDegrees>-1.13090037368237972259521484375</LongitudeDegrees>
            </Position>
            <AltitudeMeters>1381</AltitudeMeters>
            <DistanceMeters>594709.7351618</DistanceMeters>
          </Trackpoint>
          <Trackpoint>
            <Time>2021-08-04T09:44:21.000Z</Time>
            <Position>
              <LatitudeDegrees>40.9958771802484989166259765625</LatitudeDegrees>
              <LongitudeDegrees>-1.1307061649858951568603515625</LongitudeDegrees>
            </Position>
            <AltitudeMeters>1382.199951171875</AltitudeMeters>
            <DistanceMeters>594731.38186355</DistanceMeters>
          </Trackpoint>
          <Trackpoint>
            <Time>2021-08-04T09:44:28.000Z</Time>
            <Position>
              <LatitudeDegrees>40.99576679058372974395751953125</LatitudeDegrees>
              <LongitudeDegrees>-1.1304842121899127960205078125</LongitudeDegrees>
            </Position>
            <AltitudeMeters>1383.199951171875</AltitudeMeters>
            <DistanceMeters>594753.71132169</DistanceMeters>
          </Trackpoint>
          <Trackpoint>
            <Time>2021-08-04T09:44:35.000Z</Time>
            <Position>
              <LatitudeDegrees>40.99567676894366741180419921875</LatitudeDegrees>
              <LongitudeDegrees>-1.13025429658591747283935546875</LongitudeDegrees>
            </Position>
            <AltitudeMeters>1384.4000244140625</AltitudeMeters>
            <DistanceMeters>594775.46994936</DistanceMeters>
          </Trackpoint>
          <Trackpoint>
            <Time>2021-08-04T09:44:40.000Z</Time>
            <Position>
              <LatitudeDegrees>40.99563452415168285369873046875</LatitudeDegrees>
              <LongitudeDegrees>-1.13007022999227046966552734375</LongitudeDegrees>
            </Position>
            <AltitudeMeters>1385.5999755859375</AltitudeMeters>
            <DistanceMeters>594791.63175592</DistanceMeters>
          </Trackpoint>
          <Trackpoint>
            <Time>2021-08-04T09:44:45.000Z</Time>
            <Position>
              <LatitudeDegrees>40.99562278948724269866943359375</LatitudeDegrees>
              <LongitudeDegrees>-1.1298857443034648895263671875</LongitudeDegrees>
            </Position>
            <AltitudeMeters>1386.4000244140625</AltitudeMeters>
            <DistanceMeters>594807.18481631</DistanceMeters>
          </Trackpoint>
          <Trackpoint>
            <Time>2021-08-04T09:44:55.000Z</Time>
            <Position>
              <LatitudeDegrees>40.99574952386319637298583984375</LatitudeDegrees>
              <LongitudeDegrees>-1.1295085586607456207275390625</LongitudeDegrees>
            </Position>
            <AltitudeMeters>1387.4000244140625</AltitudeMeters>
            <DistanceMeters>594841.86891619</DistanceMeters>
          </Trackpoint>
          <Trackpoint>
            <Time>2021-08-04T09:45:04.000Z</Time>
            <Position>
              <LatitudeDegrees>40.99595479667186737060546875</LatitudeDegrees>
              <LongitudeDegrees>-1.12919096834957599639892578125</LongitudeDegrees>
            </Position>
            <AltitudeMeters>1388.4000244140625</AltitudeMeters>
            <DistanceMeters>594876.99436856</DistanceMeters>
          </Trackpoint>
          <Trackpoint>
            <Time>2021-08-04T09:45:09.000Z</Time>
            <Position>
              <LatitudeDegrees>40.9960833750665187835693359375</LatitudeDegrees>
              <LongitudeDegrees>-1.1290203966200351715087890625</LongitudeDegrees>
            </Position>
            <AltitudeMeters>1389.4000244140625</AltitudeMeters>
            <DistanceMeters>594897.24598608</DistanceMeters>
          </Trackpoint>
          <Trackpoint>
            <Time>2021-08-04T09:45:16.000Z</Time>
            <Position>
              <LatitudeDegrees>40.9962607361376285552978515625</LatitudeDegrees>
              <LongitudeDegrees>-1.12877706997096538543701171875</LongitudeDegrees>
            </Position>
            <AltitudeMeters>1390.5999755859375</AltitudeMeters>
            <DistanceMeters>594925.66294608</DistanceMeters>
          </Trackpoint>
          <Trackpoint>
            <Time>2021-08-04T09:45:22.000Z</Time>
            <Position>
              <LatitudeDegrees>40.9964152984321117401123046875</LatitudeDegrees>
              <LongitudeDegrees>-1.12857942469418048858642578125</LongitudeDegrees>
            </Position>
            <AltitudeMeters>1391.800048828125</AltitudeMeters>
            <DistanceMeters>594949.57118397</DistanceMeters>
          </Trackpoint>
          <Trackpoint>
            <Time>2021-08-04T09:45:30.000Z</Time>
            <Position>
              <LatitudeDegrees>40.99662425927817821502685546875</LatitudeDegrees>
              <LongitudeDegrees>-1.12830718047916889190673828125</LongitudeDegrees>
            </Position>
            <AltitudeMeters>1392.800048828125</AltitudeMeters>
            <DistanceMeters>594982.1895795</DistanceMeters>
          </Trackpoint>
          <Trackpoint>
            <Time>2021-08-04T09:45:35.000Z</Time>
            <Position>
              <LatitudeDegrees>40.996753759682178497314453125</LatitudeDegrees>
              <LongitudeDegrees>-1.128143481910228729248046875</LongitudeDegrees>
            </Position>
            <AltitudeMeters>1394</AltitudeMeters>
            <DistanceMeters>595002.11076921</DistanceMeters>
          </Trackpoint>
          <Trackpoint>
            <Time>2021-08-04T09:45:41.000Z</Time>
            <Position>
              <LatitudeDegrees>40.9968987666070461273193359375</LatitudeDegrees>
              <LongitudeDegrees>-1.12796922214329242706298828125</LongitudeDegrees>
            </Position>
            <AltitudeMeters>1395</AltitudeMeters>
            <DistanceMeters>595023.90029329</DistanceMeters>
          </Trackpoint>
          <Trackpoint>
            <Time>2021-08-04T09:45:46.000Z</Time>
            <Position>
              <LatitudeDegrees>40.997011251747608184814453125</LatitudeDegrees>
              <LongitudeDegrees>-1.12784483470022678375244140625</LongitudeDegrees>
            </Position>
            <AltitudeMeters>1396</AltitudeMeters>
            <DistanceMeters>595040.20755306</DistanceMeters>
          </Trackpoint>
          <Trackpoint>
            <Time>2021-08-04T09:45:51.000Z</Time>
            <Position>
              <LatitudeDegrees>40.9971182048320770263671875</LatitudeDegrees>
              <LongitudeDegrees>-1.127726733684539794921875</LongitudeDegrees>
            </Position>
            <AltitudeMeters>1397</AltitudeMeters>
            <DistanceMeters>595055.70419311</DistanceMeters>
          </Trackpoint>
          <Trackpoint>
            <Time>2021-08-04T09:46:03.000Z</Time>
            <Position>
              <LatitudeDegrees>40.9973849169909954071044921875</LatitudeDegrees>
              <LongitudeDegrees>-1.12748466432094573974609375</LongitudeDegrees>
            </Position>
            <AltitudeMeters>1398</AltitudeMeters>
            <DistanceMeters>595091.6865827</DistanceMeters>
          </Trackpoint>
          <Trackpoint>
            <Time>2021-08-04T09:46:12.000Z</Time>
            <Position>
              <LatitudeDegrees>40.99757024087011814117431640625</LatitudeDegrees>
              <LongitudeDegrees>-1.12731392495334148406982421875</LongitudeDegrees>
            </Position>
            <AltitudeMeters>1398.800048828125</AltitudeMeters>
            <DistanceMeters>595116.80996391</DistanceMeters>
          </Trackpoint>
          <Trackpoint>
            <Time>2021-08-04T09:46:15.000Z</Time>
            <Position>
              <LatitudeDegrees>40.99763788282871246337890625</LatitudeDegrees>
              <LongitudeDegrees>-1.1272544972598552703857421875</LongitudeDegrees>
            </Position>
            <AltitudeMeters>1399.4000244140625</AltitudeMeters>
            <DistanceMeters>595125.84300164</DistanceMeters>
          </Trackpoint>
          <Trackpoint>
            <Time>2021-08-04T09:46:19.000Z</Time>
            <Position>
              <LatitudeDegrees>40.99772564135491847991943359375</LatitudeDegrees>
              <LongitudeDegrees>-1.127177886664867401123046875</LongitudeDegrees>
            </Position>
            <AltitudeMeters>1400</AltitudeMeters>
            <DistanceMeters>595137.54016875</DistanceMeters>
          </Trackpoint>
          <Trackpoint>
            <Time>2021-08-04T09:46:25.000Z</Time>
            <Position>
              <LatitudeDegrees>40.99785556085407733917236328125</LatitudeDegrees>
              <LongitudeDegrees>-1.1270670779049396514892578125</LongitudeDegrees>
            </Position>
            <AltitudeMeters>1401</AltitudeMeters>
            <DistanceMeters>595154.73764134</DistanceMeters>
          </Trackpoint>
          <Trackpoint>
            <Time>2021-08-04T09:46:35.000Z</Time>
            <Position>
              <LatitudeDegrees>40.99808254279196262359619140625</LatitudeDegrees>
              <LongitudeDegrees>-1.12687437795102596282958984375</LongitudeDegrees>
            </Position>
            <AltitudeMeters>1402.199951171875</AltitudeMeters>
            <DistanceMeters>595184.742317</DistanceMeters>
          </Trackpoint>
          <Trackpoint>
            <Time>2021-08-04T09:46:41.000Z</Time>
            <Position>
              <LatitudeDegrees>40.99821162410080432891845703125</LatitudeDegrees>
              <LongitudeDegrees>-1.126749403774738311767578125</LongitudeDegrees>
            </Position>
            <AltitudeMeters>1403.199951171875</AltitudeMeters>
            <DistanceMeters>595202.53643402</DistanceMeters>
          </Trackpoint>
          <Trackpoint>
            <Time>2021-08-04T09:46:50.000Z</Time>
            <Position>
              <LatitudeDegrees>40.998402647674083709716796875</LatitudeDegrees>
              <LongitudeDegrees>-1.12658067606389522552490234375</LongitudeDegrees>
            </Position>
            <AltitudeMeters>1404.4000244140625</AltitudeMeters>
            <DistanceMeters>595228.08908041</DistanceMeters>
          </Trackpoint>
          <Trackpoint>
            <Time>2021-08-04T09:46:56.000Z</Time>
            <Position>
              <LatitudeDegrees>40.998536758124828338623046875</LatitudeDegrees>
              <LongitudeDegrees>-1.12646651454269886016845703125</LongitudeDegrees>
            </Position>
            <AltitudeMeters>1405.4000244140625</AltitudeMeters>
            <DistanceMeters>595245.83085046</DistanceMeters>
          </Trackpoint>
          <Trackpoint>
            <Time>2021-08-04T09:47:03.000Z</Time>
            <Position>
              <LatitudeDegrees>40.9986948408186435699462890625</LatitudeDegrees>
              <LongitudeDegrees>-1.12632452510297298431396484375</LongitudeDegrees>
            </Position>
            <AltitudeMeters>1406.199951171875</AltitudeMeters>
            <DistanceMeters>595267.0875427</DistanceMeters>
          </Trackpoint>
          <Trackpoint>
            <Time>2021-08-04T09:47:11.000Z</Time>
            <Position>
              <LatitudeDegrees>40.99886960349977016448974609375</LatitudeDegrees>
              <LongitudeDegrees>-1.126165352761745452880859375</LongitudeDegrees>
            </Position>
            <AltitudeMeters>1407.4000244140625</AltitudeMeters>
            <DistanceMeters>595290.69130631</DistanceMeters>
          </Trackpoint>
          <Trackpoint>
            <Time>2021-08-04T09:47:16.000Z</Time>
            <Position>
              <LatitudeDegrees>40.99897119216620922088623046875</LatitudeDegrees>
              <LongitudeDegrees>-1.1260796897113323211669921875</LongitudeDegrees>
            </Position>
            <AltitudeMeters>1408.4000244140625</AltitudeMeters>
            <DistanceMeters>595304.09377924</DistanceMeters>
          </Trackpoint>
          <Trackpoint>
            <Time>2021-08-04T09:47:25.000Z</Time>
            <Position>
              <LatitudeDegrees>40.999163724482059478759765625</LatitudeDegrees>
              <LongitudeDegrees>-1.125909201800823211669921875</LongitudeDegrees>
            </Position>
            <AltitudeMeters>1409.5999755859375</AltitudeMeters>
            <DistanceMeters>595329.86792527</DistanceMeters>
          </Trackpoint>
          <Trackpoint>
            <Time>2021-08-04T09:47:29.000Z</Time>
            <Position>
              <LatitudeDegrees>40.9992507286369800567626953125</LatitudeDegrees>
              <LongitudeDegrees>-1.12583586014807224273681640625</LongitudeDegrees>
            </Position>
            <AltitudeMeters>1410.5999755859375</AltitudeMeters>
            <DistanceMeters>595341.34493382</DistanceMeters>
          </Trackpoint>
          <Trackpoint>
            <Time>2021-08-04T09:47:35.000Z</Time>
            <Position>
              <LatitudeDegrees>40.9993885271251201629638671875</LatitudeDegrees>
              <LongitudeDegrees>-1.12572521902620792388916015625</LongitudeDegrees>
            </Position>
            <AltitudeMeters>1412</AltitudeMeters>
            <DistanceMeters>595359.2785671</DistanceMeters>
          </Trackpoint>
          <Trackpoint>
            <Time>2021-08-04T09:47:40.000Z</Time>
            <Position>
              <LatitudeDegrees>40.99949799478054046630859375</LatitudeDegrees>
              <LongitudeDegrees>-1.12561759538948535919189453125</LongitudeDegrees>
            </Position>
            <AltitudeMeters>1412.800048828125</AltitudeMeters>
            <DistanceMeters>595374.4501408</DistanceMeters>
          </Trackpoint>
          <Trackpoint>
            <Time>2021-08-04T09:47:44.000Z</Time>
            <Position>
              <LatitudeDegrees>40.99959229119122028350830078125</LatitudeDegrees>
              <LongitudeDegrees>-1.1255207844078540802001953125</LongitudeDegrees>
            </Position>
            <AltitudeMeters>1413.800048828125</AltitudeMeters>
            <DistanceMeters>595387.72738269</DistanceMeters>
          </Trackpoint>
          <Trackpoint>
            <Time>2021-08-04T09:47:49.000Z</Time>
            <Position>
              <LatitudeDegrees>40.9997127391397953033447265625</LatitudeDegrees>
              <LongitudeDegrees>-1.125398576259613037109375</LongitudeDegrees>
            </Position>
            <AltitudeMeters>1415</AltitudeMeters>
            <DistanceMeters>595404.61221534</DistanceMeters>
          </Trackpoint>
          <Trackpoint>
            <Time>2021-08-04T09:47:54.000Z</Time>
            <Position>
              <LatitudeDegrees>40.9997985698282718658447265625</LatitudeDegrees>
              <LongitudeDegrees>-1.12524610944092273712158203125</LongitudeDegrees>
            </Position>
            <AltitudeMeters>1416.199951171875</AltitudeMeters>
            <DistanceMeters>595420.59027283</DistanceMeters>
          </Trackpoint>
          <Trackpoint>
            <Time>2021-08-04T09:47:59.000Z</Time>
            <Position>
              <LatitudeDegrees>40.999815501272678375244140625</LatitudeDegrees>
              <LongitudeDegrees>-1.12507469952106475830078125</LongitudeDegrees>
            </Position>
            <AltitudeMeters>1417.5999755859375</AltitudeMeters>
            <DistanceMeters>595435.11164828</DistanceMeters>
          </Trackpoint>
          <Trackpoint>
            <Time>2021-08-04T09:48:04.000Z</Time>
            <Position>
              <LatitudeDegrees>40.9997864998877048492431640625</LatitudeDegrees>
              <LongitudeDegrees>-1.1249236576259136199951171875</LongitudeDegrees>
            </Position>
            <AltitudeMeters>1418.800048828125</AltitudeMeters>
            <DistanceMeters>595448.20328114</DistanceMeters>
          </Trackpoint>
          <Trackpoint>
            <Time>2021-08-04T09:48:08.000Z</Time>
            <Position>
              <LatitudeDegrees>40.99973746575415134429931640625</LatitudeDegrees>
              <LongitudeDegrees>-1.12481242977082729339599609375</LongitudeDegrees>
            </Position>
            <AltitudeMeters>1419.800048828125</AltitudeMeters>
            <DistanceMeters>595459.02381584</DistanceMeters>
          </Trackpoint>
          <Trackpoint>
            <Time>2021-08-04T09:48:15.000Z</Time>
            <Position>
              <LatitudeDegrees>40.99962330423295497894287109375</LatitudeDegrees>
              <LongitudeDegrees>-1.12464345060288906097412109375</LongitudeDegrees>
            </Position>
            <AltitudeMeters>1420.800048828125</AltitudeMeters>
            <DistanceMeters>595478.07471694</DistanceMeters>
          </Trackpoint>
          <Trackpoint>
            <Time>2021-08-04T09:48:20.000Z</Time>
            <Position>
              <LatitudeDegrees>40.999523811042308807373046875</LatitudeDegrees>
              <LongitudeDegrees>-1.124546639621257781982421875</LongitudeDegrees>
            </Position>
            <AltitudeMeters>1421.800048828125</AltitudeMeters>
            <DistanceMeters>595491.81388423</DistanceMeters>
          </Trackpoint>
          <Trackpoint>
            <Time>2021-08-04T09:48:27.000Z</Time>
            <Position>
              <LatitudeDegrees>40.99936866201460361480712890625</LatitudeDegrees>
              <LongitudeDegrees>-1.12443440593779087066650390625</LongitudeDegrees>
            </Position>
            <AltitudeMeters>1422.800048828125</AltitudeMeters>
            <DistanceMeters>595511.48831578</DistanceMeters>
          </Trackpoint>
          <Trackpoint>
            <Time>2021-08-04T09:48:29.000Z</Time>
            <Position>
              <LatitudeDegrees>40.999321639537811279296875</LatitudeDegrees>
              <LongitudeDegrees>-1.12440473400056362152099609375</LongitudeDegrees>
            </Position>
            <AltitudeMeters>1423.199951171875</AltitudeMeters>
            <DistanceMeters>595517.28572421</DistanceMeters>
          </Trackpoint>
          <Trackpoint>
            <Time>2021-08-04T09:48:32.000Z</Time>
            <Position>
              <LatitudeDegrees>40.99925584159791469573974609375</LatitudeDegrees>
              <LongitudeDegrees>-1.12435980699956417083740234375</LongitudeDegrees>
            </Position>
            <AltitudeMeters>1423.800048828125</AltitudeMeters>
            <DistanceMeters>595525.52460063</DistanceMeters>
          </Trackpoint>
          <Trackpoint>
            <Time>2021-08-04T09:48:36.000Z</Time>
            <Position>
              <LatitudeDegrees>40.99916716106235980987548828125</LatitudeDegrees>
              <LongitudeDegrees>-1.1243070848286151885986328125</LongitudeDegrees>
            </Position>
            <AltitudeMeters>1424.800048828125</AltitudeMeters>
            <DistanceMeters>595536.3430488</DistanceMeters>
          </Trackpoint>
          <Trackpoint>
            <Time>2021-08-04T09:48:43.000Z</Time>
            <Position>
              <LatitudeDegrees>40.999012179672718048095703125</LatitudeDegrees>
              <LongitudeDegrees>-1.12420893274247646331787109375</LongitudeDegrees>
            </Position>
            <AltitudeMeters>1426</AltitudeMeters>
            <DistanceMeters>595555.46208367</DistanceMeters>
          </Trackpoint>
          <Trackpoint>
            <Time>2021-08-04T09:48:50.000Z</Time>
            <Position>
              <LatitudeDegrees>40.99885451607406139373779296875</LatitudeDegrees>
              <LongitudeDegrees>-1.1241129599511623382568359375</LongitudeDegrees>
            </Position>
            <AltitudeMeters>1426.800048828125</AltitudeMeters>
            <DistanceMeters>595574.77379404</DistanceMeters>
          </Trackpoint>
          <Trackpoint>
            <Time>2021-08-04T09:48:55.000Z</Time>
            <Position>
              <LatitudeDegrees>40.99874370731413364410400390625</LatitudeDegrees>
              <LongitudeDegrees>-1.1240375228226184844970703125</LongitudeDegrees>
            </Position>
            <AltitudeMeters>1428</AltitudeMeters>
            <DistanceMeters>595588.63988172</DistanceMeters>
          </Trackpoint>
          <Trackpoint>
            <Time>2021-08-04T09:49:02.000Z</Time>
            <Position>
              <LatitudeDegrees>40.9985714592039585113525390625</LatitudeDegrees>
              <LongitudeDegrees>-1.12393610179424285888671875</LongitudeDegrees>
            </Position>
            <AltitudeMeters>1429</AltitudeMeters>
            <DistanceMeters>595609.61927532</DistanceMeters>
          </Trackpoint>
          <Trackpoint>
            <Time>2021-08-04T09:49:08.000Z</Time>
            <Position>
              <LatitudeDegrees>40.99842100404202938079833984375</LatitudeDegrees>
              <LongitudeDegrees>-1.12384029664099216461181640625</LongitudeDegrees>
            </Position>
            <AltitudeMeters>1429.800048828125</AltitudeMeters>
            <DistanceMeters>595628.19888141</DistanceMeters>
          </Trackpoint>
          <Trackpoint>
            <Time>2021-08-04T09:49:14.000Z</Time>
            <Position>
              <LatitudeDegrees>40.99827088415622711181640625</LatitudeDegrees>
              <LongitudeDegrees>-1.1237632669508457183837890625</LongitudeDegrees>
            </Position>
            <AltitudeMeters>1430.800048828125</AltitudeMeters>
            <DistanceMeters>595646.11689854</DistanceMeters>
          </Trackpoint>
          <Trackpoint>
            <Time>2021-08-04T09:49:20.000Z</Time>
            <Position>
              <LatitudeDegrees>40.9981221891939640045166015625</LatitudeDegrees>
              <LongitudeDegrees>-1.12370333634316921234130859375</LongitudeDegrees>
            </Position>
            <AltitudeMeters>1432</AltitudeMeters>
            <DistanceMeters>595663.41593705</DistanceMeters>
          </Trackpoint>
          <Trackpoint>
            <Time>2021-08-04T09:49:26.000Z</Time>
            <Position>
              <LatitudeDegrees>40.99797458387911319732666015625</LatitudeDegrees>
              <LongitudeDegrees>-1.12366042099893093109130859375</LongitudeDegrees>
            </Position>
            <AltitudeMeters>1433</AltitudeMeters>
            <DistanceMeters>595680.23539705</DistanceMeters>
          </Trackpoint>
          <Trackpoint>
            <Time>2021-08-04T09:49:32.000Z</Time>
            <Position>
              <LatitudeDegrees>40.99782697856426239013671875</LatitudeDegrees>
              <LongitudeDegrees>-1.1236135661602020263671875</LongitudeDegrees>
            </Position>
            <AltitudeMeters>1433.800048828125</AltitudeMeters>
            <DistanceMeters>595697.12931892</DistanceMeters>
          </Trackpoint>
          <Trackpoint>
            <Time>2021-08-04T09:49:41.000Z</Time>
            <Position>
              <LatitudeDegrees>40.99760225974023342132568359375</LatitudeDegrees>
              <LongitudeDegrees>-1.12354994751513004302978515625</LongitudeDegrees>
            </Position>
            <AltitudeMeters>1434.800048828125</AltitudeMeters>
            <DistanceMeters>595722.70580808</DistanceMeters>
          </Trackpoint>
          <Trackpoint>
            <Time>2021-08-04T09:49:48.000Z</Time>
            <Position>
              <LatitudeDegrees>40.997424982488155364990234375</LatitudeDegrees>
              <LongitudeDegrees>-1.12350820563733577728271484375</LongitudeDegrees>
            </Position>
            <AltitudeMeters>1435.800048828125</AltitudeMeters>
            <DistanceMeters>595742.74630907</DistanceMeters>
          </Trackpoint>
          <Trackpoint>
            <Time>2021-08-04T09:49:54.000Z</Time>
            <Position>
              <LatitudeDegrees>40.99727184511721134185791015625</LatitudeDegrees>
              <LongitudeDegrees>-1.12347266636788845062255859375</LongitudeDegrees>
            </Position>
            <AltitudeMeters>1437</AltitudeMeters>
            <DistanceMeters>595760.05056678</DistanceMeters>
          </Trackpoint>
          <Trackpoint>
            <Time>2021-08-04T09:50:02.000Z</Time>
            <Position>
              <LatitudeDegrees>40.9970690868794918060302734375</LatitudeDegrees>
              <LongitudeDegrees>-1.12339169718325138092041015625</LongitudeDegrees>
            </Position>
            <AltitudeMeters>1438</AltitudeMeters>
            <DistanceMeters>595783.62064024</DistanceMeters>
          </Trackpoint>
          <Trackpoint>
            <Time>2021-08-04T09:50:09.000Z</Time>
            <Position>
              <LatitudeDegrees>40.99692986346781253814697265625</LatitudeDegrees>
              <LongitudeDegrees>-1.12322925589978694915771484375</LongitudeDegrees>
            </Position>
            <AltitudeMeters>1439</AltitudeMeters>
            <DistanceMeters>595804.26835123</DistanceMeters>
          </Trackpoint>
          <Trackpoint>
            <Time>2021-08-04T09:50:16.000Z</Time>
            <Position>
              <LatitudeDegrees>40.9968803264200687408447265625</LatitudeDegrees>
              <LongitudeDegrees>-1.12298534251749515533447265625</LongitudeDegrees>
            </Position>
            <AltitudeMeters>1440.199951171875</AltitudeMeters>
            <DistanceMeters>595825.48720161</DistanceMeters>
          </Trackpoint>
          <Trackpoint>
            <Time>2021-08-04T09:50:22.000Z</Time>
            <Position>
              <LatitudeDegrees>40.99687211215496063232421875</LatitudeDegrees>
              <LongitudeDegrees>-1.122770346701145172119140625</LongitudeDegrees>
            </Position>
            <AltitudeMeters>1441.199951171875</AltitudeMeters>
            <DistanceMeters>595843.57076288</DistanceMeters>
          </Trackpoint>
          <Trackpoint>
            <Time>2021-08-04T09:50:30.000Z</Time>
            <Position>
              <LatitudeDegrees>40.99686062894761562347412109375</LatitudeDegrees>
              <LongitudeDegrees>-1.12247052602469921112060546875</LongitudeDegrees>
            </Position>
            <AltitudeMeters>1442.199951171875</AltitudeMeters>
            <DistanceMeters>595868.78957102</DistanceMeters>
          </Trackpoint>
          <Trackpoint>
            <Time>2021-08-04T09:50:36.000Z</Time>
            <Position>
              <LatitudeDegrees>40.996846966445446014404296875</LatitudeDegrees>
              <LongitudeDegrees>-1.12222217023372650146484375</LongitudeDegrees>
            </Position>
            <AltitudeMeters>1443.199951171875</AltitudeMeters>
            <DistanceMeters>595889.70797068</DistanceMeters>
          </Trackpoint>
          <Trackpoint>
            <Time>2021-08-04T09:50:49.000Z</Time>
            <Position>
              <LatitudeDegrees>40.99682374857366085052490234375</LatitudeDegrees>
              <LongitudeDegrees>-1.12168011255562305450439453125</LongitudeDegrees>
            </Position>
            <AltitudeMeters>1444</AltitudeMeters>
            <DistanceMeters>595935.31663597</DistanceMeters>
          </Trackpoint>
          <Trackpoint>
            <Time>2021-08-04T09:51:02.000Z</Time>
            <Position>
              <LatitudeDegrees>40.9967837668955326080322265625</LatitudeDegrees>
              <LongitudeDegrees>-1.12110796384513378143310546875</LongitudeDegrees>
            </Position>
            <AltitudeMeters>1445.199951171875</AltitudeMeters>
            <DistanceMeters>595983.58553013</DistanceMeters>
          </Trackpoint>
          <Trackpoint>
            <Time>2021-08-04T09:51:10.000Z</Time>
            <Position>
              <LatitudeDegrees>40.99674294702708721160888671875</LatitudeDegrees>
              <LongitudeDegrees>-1.1207595281302928924560546875</LongitudeDegrees>
            </Position>
            <AltitudeMeters>1446.199951171875</AltitudeMeters>
            <DistanceMeters>596013.20644078</DistanceMeters>
          </Trackpoint>
          <Trackpoint>
            <Time>2021-08-04T09:51:17.000Z</Time>
            <Position>
              <LatitudeDegrees>40.99669097922742366790771484375</LatitudeDegrees>
              <LongitudeDegrees>-1.1204597912728786468505859375</LongitudeDegrees>
            </Position>
            <AltitudeMeters>1447</AltitudeMeters>
            <DistanceMeters>596039.04182602</DistanceMeters>
          </Trackpoint>
          <Trackpoint>
            <Time>2021-08-04T09:51:27.000Z</Time>
            <Position>
              <LatitudeDegrees>40.99661604501307010650634765625</LatitudeDegrees>
              <LongitudeDegrees>-1.12003206275403499603271484375</LongitudeDegrees>
            </Position>
            <AltitudeMeters>1448</AltitudeMeters>
            <DistanceMeters>596075.9285968</DistanceMeters>
          </Trackpoint>
          <Trackpoint>
            <Time>2021-08-04T09:51:34.000Z</Time>
            <Position>
              <LatitudeDegrees>40.9965701960027217864990234375</LatitudeDegrees>
              <LongitudeDegrees>-1.1197377741336822509765625</LongitudeDegrees>
            </Position>
            <AltitudeMeters>1448.800048828125</AltitudeMeters>
            <DistanceMeters>596101.1717419</DistanceMeters>
          </Trackpoint>
          <Trackpoint>
            <Time>2021-08-04T09:51:48.000Z</Time>
            <Position>
              <LatitudeDegrees>40.9965430386364459991455078125</LatitudeDegrees>
              <LongitudeDegrees>-1.119128577411174774169921875</LongitudeDegrees>
            </Position>
            <AltitudeMeters>1449.800048828125</AltitudeMeters>
            <DistanceMeters>596152.43660665</DistanceMeters>
          </Trackpoint>
          <Trackpoint>
            <Time>2021-08-04T09:52:03.000Z</Time>
            <Position>
              <LatitudeDegrees>40.99668863229453563690185546875</LatitudeDegrees>
              <LongitudeDegrees>-1.11842148005962371826171875</LongitudeDegrees>
            </Position>
            <AltitudeMeters>1450.199951171875</AltitudeMeters>
            <DistanceMeters>596214.0070248</DistanceMeters>
          </Trackpoint>
          <Trackpoint>
            <Time>2021-08-04T09:52:17.000Z</Time>
            <Position>
              <LatitudeDegrees>40.99687613546848297119140625</LatitudeDegrees>
              <LongitudeDegrees>-1.1177272908389568328857421875</LongitudeDegrees>
            </Position>
            <AltitudeMeters>1449.4000244140625</AltitudeMeters>
            <DistanceMeters>596275.9440347</DistanceMeters>
          </Trackpoint>
          <Trackpoint>
            <Time>2021-08-04T09:52:18.000Z</Time>
            <Position>
              <LatitudeDegrees>40.99688074551522731781005859375</LatitudeDegrees>
              <LongitudeDegrees>-1.11766937188804149627685546875</LongitudeDegrees>
            </Position>
            <AltitudeMeters>1449.4000244140625</AltitudeMeters>
            <DistanceMeters>596280.83583423</DistanceMeters>
          </Trackpoint>
          <Trackpoint>
            <Time>2021-08-04T09:52:21.000Z</Time>
            <Position>
              <LatitudeDegrees>40.996881164610385894775390625</LatitudeDegrees>
              <LongitudeDegrees>-1.11748530529439449310302734375</LongitudeDegrees>
            </Position>
            <AltitudeMeters>1449</AltitudeMeters>
            <DistanceMeters>596296.29805606</DistanceMeters>
          </Trackpoint>
          <Trackpoint>
            <Time>2021-08-04T09:52:31.000Z</Time>
            <Position>
              <LatitudeDegrees>40.99695702083408832550048828125</LatitudeDegrees>
              <LongitudeDegrees>-1.117559485137462615966796875</LongitudeDegrees>
            </Position>
            <AltitudeMeters>1449</AltitudeMeters>
            <DistanceMeters>596306.79151841</DistanceMeters>
          </Trackpoint>
          <Trackpoint>
            <Time>2021-08-04T09:52:32.000Z</Time>
            <Position>
              <LatitudeDegrees>40.99693556316196918487548828125</LatitudeDegrees>
              <LongitudeDegrees>-1.11758940853178501129150390625</LongitudeDegrees>
            </Position>
            <AltitudeMeters>1449</AltitudeMeters>
            <DistanceMeters>596310.25966804</DistanceMeters>
          </Trackpoint>
          <Trackpoint>
            <Time>2021-08-04T09:52:47.000Z</Time>
            <Position>
              <LatitudeDegrees>40.99675518460571765899658203125</LatitudeDegrees>
              <LongitudeDegrees>-1.118299104273319244384765625</LongitudeDegrees>
            </Position>
            <AltitudeMeters>1449.4000244140625</AltitudeMeters>
            <DistanceMeters>596373.16706586</DistanceMeters>
          </Trackpoint>
          <Trackpoint>
            <Time>2021-08-04T09:53:01.000Z</Time>
            <Position>
              <LatitudeDegrees>40.9965898096561431884765625</LatitudeDegrees>
              <LongitudeDegrees>-1.11891425214707851409912109375</LongitudeDegrees>
            </Position>
            <AltitudeMeters>1449</AltitudeMeters>
            <DistanceMeters>596428.02291891</DistanceMeters>
          </Trackpoint>
          <Trackpoint>
            <Time>2021-08-04T09:53:07.000Z</Time>
            <Position>
              <LatitudeDegrees>40.99655284546315670013427734375</LatitudeDegrees>
              <LongitudeDegrees>-1.11920141614973545074462890625</LongitudeDegrees>
            </Position>
            <AltitudeMeters>1448.199951171875</AltitudeMeters>
            <DistanceMeters>596452.49428135</DistanceMeters>
          </Trackpoint>
          <Trackpoint>
            <Time>2021-08-04T09:53:10.000Z</Time>
            <Position>
              <LatitudeDegrees>40.99654597230255603790283203125</LatitudeDegrees>
              <LongitudeDegrees>-1.11934608779847621917724609375</LongitudeDegrees>
            </Position>
            <AltitudeMeters>1446.5999755859375</AltitudeMeters>
            <DistanceMeters>596464.67105659</DistanceMeters>
          </Trackpoint>
          <Trackpoint>
            <Time>2021-08-04T09:53:24.000Z</Time>
            <Position>
              <LatitudeDegrees>40.9966429509222507476806640625</LatitudeDegrees>
              <LongitudeDegrees>-1.12005184404551982879638671875</LongitudeDegrees>
            </Position>
            <AltitudeMeters>1446.4000244140625</AltitudeMeters>
            <DistanceMeters>596524.93268038</DistanceMeters>
          </Trackpoint>
          <Trackpoint>
            <Time>2021-08-04T09:53:34.000Z</Time>
            <Position>
              <LatitudeDegrees>40.9967468865215778350830078125</LatitudeDegrees>
              <LongitudeDegrees>-1.12066539935767650604248046875</LongitudeDegrees>
            </Position>
            <AltitudeMeters>1445.5999755859375</AltitudeMeters>
            <DistanceMeters>596577.75659411</DistanceMeters>
          </Trackpoint>
          <Trackpoint>
            <Time>2021-08-04T09:53:39.000Z</Time>
            <Position>
              <LatitudeDegrees>40.9968028776347637176513671875</LatitudeDegrees>
              <LongitudeDegrees>-1.12102732993662357330322265625</LongitudeDegrees>
            </Position>
            <AltitudeMeters>1444.199951171875</AltitudeMeters>
            <DistanceMeters>596608.79267399</DistanceMeters>
          </Trackpoint>
          <Trackpoint>
            <Time>2021-08-04T09:53:42.000Z</Time>
            <Position>
              <LatitudeDegrees>40.996835567057132720947265625</LatitudeDegrees>
              <LongitudeDegrees>-1.12125498242676258087158203125</LongitudeDegrees>
            </Position>
            <AltitudeMeters>1442.5999755859375</AltitudeMeters>
            <DistanceMeters>596628.25947106</DistanceMeters>
          </Trackpoint>
          <Trackpoint>
            <Time>2021-08-04T09:53:46.000Z</Time>
            <Position>
              <LatitudeDegrees>40.9968695975840091705322265625</LatitudeDegrees>
              <LongitudeDegrees>-1.1215534619987010955810546875</LongitudeDegrees>
            </Position>
            <AltitudeMeters>1443.5999755859375</AltitudeMeters>
            <DistanceMeters>596653.61754164</DistanceMeters>
          </Trackpoint>
          <Trackpoint>
            <Time>2021-08-04T09:53:52.000Z</Time>
            <Position>
              <LatitudeDegrees>40.9968826733529567718505859375</LatitudeDegrees>
              <LongitudeDegrees>-1.122038103640079498291015625</LongitudeDegrees>
            </Position>
            <AltitudeMeters>1442.4000244140625</AltitudeMeters>
            <DistanceMeters>596694.35575011</DistanceMeters>
          </Trackpoint>
          <Trackpoint>
            <Time>2021-08-04T09:53:53.000Z</Time>
            <Position>
              <LatitudeDegrees>40.9968830086290836334228515625</LatitudeDegrees>
              <LongitudeDegrees>-1.12212359905242919921875</LongitudeDegrees>
            </Position>
            <AltitudeMeters>1441.4000244140625</AltitudeMeters>
            <DistanceMeters>596701.5376577</DistanceMeters>
          </Trackpoint>
          <Trackpoint>
            <Time>2021-08-04T09:53:55.000Z</Time>
            <Position>
              <LatitudeDegrees>40.9968833439052104949951171875</LatitudeDegrees>
              <LongitudeDegrees>-1.12229702062904834747314453125</LongitudeDegrees>
            </Position>
            <AltitudeMeters>1439.800048828125</AltitudeMeters>
            <DistanceMeters>596716.10559704</DistanceMeters>
          </Trackpoint>
          <Trackpoint>
            <Time>2021-08-04T09:53:57.000Z</Time>
            <Position>
              <LatitudeDegrees>40.996886529028415679931640625</LatitudeDegrees>
              <LongitudeDegrees>-1.12247337587177753448486328125</LongitudeDegrees>
            </Position>
            <AltitudeMeters>1438.4000244140625</AltitudeMeters>
            <DistanceMeters>596730.92428115</DistanceMeters>
          </Trackpoint>
          <Trackpoint>
            <Time>2021-08-04T09:54:02.000Z</Time>
            <Position>
              <LatitudeDegrees>40.99690840579569339752197265625</LatitudeDegrees>
              <LongitudeDegrees>-1.12292826175689697265625</LongitudeDegrees>
            </Position>
            <AltitudeMeters>1437.4000244140625</AltitudeMeters>
            <DistanceMeters>596769.21426955</DistanceMeters>
          </Trackpoint>
          <Trackpoint>
            <Time>2021-08-04T09:54:04.000Z</Time>
            <Position>
              <LatitudeDegrees>40.9969333000481128692626953125</LatitudeDegrees>
              <LongitudeDegrees>-1.12311760894954204559326171875</LongitudeDegrees>
            </Position>
            <AltitudeMeters>1436.199951171875</AltitudeMeters>
            <DistanceMeters>596785.35986483</DistanceMeters>
          </Trackpoint>
          <Trackpoint>
            <Time>2021-08-04T09:54:06.000Z</Time>
            <Position>
              <LatitudeDegrees>40.9970020316541194915771484375</LatitudeDegrees>
              <LongitudeDegrees>-1.12329312600195407867431640625</LongitudeDegrees>
            </Position>
            <AltitudeMeters>1435</AltitudeMeters>
            <DistanceMeters>596801.97025181</DistanceMeters>
          </Trackpoint>
          <Trackpoint>
            <Time>2021-08-04T09:54:08.000Z</Time>
            <Position>
              <LatitudeDegrees>40.997129939496517181396484375</LatitudeDegrees>
              <LongitudeDegrees>-1.1234125681221485137939453125</LongitudeDegrees>
            </Position>
            <AltitudeMeters>1433.800048828125</AltitudeMeters>
            <DistanceMeters>596819.3868625</DistanceMeters>
          </Trackpoint>
          <Trackpoint>
            <Time>2021-08-04T09:54:10.000Z</Time>
            <Position>
              <LatitudeDegrees>40.9972823224961757659912109375</LatitudeDegrees>
              <LongitudeDegrees>-1.1234819702804088592529296875</LongitudeDegrees>
            </Position>
            <AltitudeMeters>1432.800048828125</AltitudeMeters>
            <DistanceMeters>596837.32125105</DistanceMeters>
          </Trackpoint>
          <Trackpoint>
            <Time>2021-08-04T09:54:12.000Z</Time>
            <Position>
              <LatitudeDegrees>40.9974422492086887359619140625</LatitudeDegrees>
              <LongitudeDegrees>-1.1235329322516918182373046875</LongitudeDegrees>
            </Position>
            <AltitudeMeters>1430.800048828125</AltitudeMeters>
            <DistanceMeters>596855.62863528</DistanceMeters>
          </Trackpoint>
          <Trackpoint>
            <Time>2021-08-04T09:54:15.000Z</Time>
            <Position>
              <LatitudeDegrees>40.99768817424774169921875</LatitudeDegrees>
              <LongitudeDegrees>-1.123589761555194854736328125</LongitudeDegrees>
            </Position>
            <AltitudeMeters>1429.800048828125</AltitudeMeters>
            <DistanceMeters>596883.41367308</DistanceMeters>
          </Trackpoint>
          <Trackpoint>
            <Time>2021-08-04T09:54:19.000Z</Time>
            <Position>
              <LatitudeDegrees>40.998028814792633056640625</LatitudeDegrees>
              <LongitudeDegrees>-1.1236764304339885711669921875</LongitudeDegrees>
            </Position>
            <AltitudeMeters>1428.800048828125</AltitudeMeters>
            <DistanceMeters>596922.02037363</DistanceMeters>
          </Trackpoint>
          <Trackpoint>
            <Time>2021-08-04T09:54:22.000Z</Time>
            <Position>
              <LatitudeDegrees>40.99829007871448993682861328125</LatitudeDegrees>
              <LongitudeDegrees>-1.1237669549882411956787109375</LongitudeDegrees>
            </Position>
            <AltitudeMeters>1427.199951171875</AltitudeMeters>
            <DistanceMeters>596952.07736995</DistanceMeters>
          </Trackpoint>
          <Trackpoint>
            <Time>2021-08-04T09:54:25.000Z</Time>
            <Position>
              <LatitudeDegrees>40.99855343811213970184326171875</LatitudeDegrees>
              <LongitudeDegrees>-1.12390902824699878692626953125</LongitudeDegrees>
            </Position>
            <AltitudeMeters>1425.5999755859375</AltitudeMeters>
            <DistanceMeters>596983.72625934</DistanceMeters>
          </Trackpoint>
          <Trackpoint>
            <Time>2021-08-04T09:54:27.000Z</Time>
            <Position>
              <LatitudeDegrees>40.99873381666839122772216796875</LatitudeDegrees>
              <LongitudeDegrees>-1.12402335740625858306884765625</LongitudeDegrees>
            </Position>
            <AltitudeMeters>1424.4000244140625</AltitudeMeters>
            <DistanceMeters>597005.98158888</DistanceMeters>
          </Trackpoint>
          <Trackpoint>
            <Time>2021-08-04T09:54:28.000Z</Time>
            <Position>
              <LatitudeDegrees>40.99882434122264385223388671875</LatitudeDegrees>
              <LongitudeDegrees>-1.12408303655683994293212890625</LongitudeDegrees>
            </Position>
            <AltitudeMeters>1423.199951171875</AltitudeMeters>
            <DistanceMeters>597017.2349347</DistanceMeters>
          </Trackpoint>
          <Trackpoint>
            <Time>2021-08-04T09:54:30.000Z</Time>
            <Position>
              <LatitudeDegrees>40.99899717606604099273681640625</LatitudeDegrees>
              <LongitudeDegrees>-1.124198623001575469970703125</LongitudeDegrees>
            </Position>
            <AltitudeMeters>1422</AltitudeMeters>
            <DistanceMeters>597038.783172</DistanceMeters>
          </Trackpoint>
          <Trackpoint>
            <Time>2021-08-04T09:54:36.000Z</Time>
            <Position>
              <LatitudeDegrees>40.9993419237434864044189453125</LatitudeDegrees>
              <LongitudeDegrees>-1.12442669458687305450439453125</LongitudeDegrees>
            </Position>
            <AltitudeMeters>1423</AltitudeMeters>
            <DistanceMeters>597081.6712875</DistanceMeters>
          </Trackpoint>
          <Trackpoint>
            <Time>2021-08-04T09:54:44.000Z</Time>
            <Position>
              <LatitudeDegrees>40.99942155182361602783203125</LatitudeDegrees>
              <LongitudeDegrees>-1.12450028769671916961669921875</LongitudeDegrees>
            </Position>
            <AltitudeMeters>1423.800048828125</AltitudeMeters>
            <DistanceMeters>597092.47720803</DistanceMeters>
          </Trackpoint>
          <Trackpoint>
            <Time>2021-08-04T09:54:48.000Z</Time>
            <Position>
              <LatitudeDegrees>40.9993819892406463623046875</LatitudeDegrees>
              <LongitudeDegrees>-1.1245008744299411773681640625</LongitudeDegrees>
            </Position>
            <AltitudeMeters>1423.800048828125</AltitudeMeters>
            <DistanceMeters>597096.88034034</DistanceMeters>
          </Trackpoint>
          <Trackpoint>
            <Time>2021-08-04T09:55:11.000Z</Time>
            <Position>
              <LatitudeDegrees>40.99940353073179721832275390625</LatitudeDegrees>
              <LongitudeDegrees>-1.1244877986609935760498046875</LongitudeDegrees>
            </Position>
            <AltitudeMeters>1424.199951171875</AltitudeMeters>
            <DistanceMeters>597099.51893635</DistanceMeters>
          </Trackpoint>
          <Trackpoint>
            <Time>2021-08-04T09:55:15.000Z</Time>
            <Position>
              <LatitudeDegrees>40.9995259903371334075927734375</LatitudeDegrees>
              <LongitudeDegrees>-1.12457019276916980743408203125</LongitudeDegrees>
            </Position>
            <AltitudeMeters>1423.199951171875</AltitudeMeters>
            <DistanceMeters>597114.8061329</DistanceMeters>
          </Trackpoint>
          <Trackpoint>
            <Time>2021-08-04T09:55:16.000Z</Time>
            <Position>
              <LatitudeDegrees>40.99956697784364223480224609375</LatitudeDegrees>
              <LongitudeDegrees>-1.1245967634022235870361328125</LongitudeDegrees>
            </Position>
            <AltitudeMeters>1422.800048828125</AltitudeMeters>
            <DistanceMeters>597119.88539746</DistanceMeters>
          </Trackpoint>
          <Trackpoint>
            <Time>2021-08-04T09:55:17.000Z</Time>
            <Position>
              <LatitudeDegrees>40.9996072947978973388671875</LatitudeDegrees>
              <LongitudeDegrees>-1.12463079392910003662109375</LongitudeDegrees>
            </Position>
            <AltitudeMeters>1422.5999755859375</AltitudeMeters>
            <DistanceMeters>597125.20604494</DistanceMeters>
          </Trackpoint>
          <Trackpoint>
            <Time>2021-08-04T09:55:20.000Z</Time>
            <Position>
              <LatitudeDegrees>40.9997150860726833343505859375</LatitudeDegrees>
              <LongitudeDegrees>-1.12478041090071201324462890625</LongitudeDegrees>
            </Position>
            <AltitudeMeters>1421.5999755859375</AltitudeMeters>
            <DistanceMeters>597142.58112813</DistanceMeters>
          </Trackpoint>
          <Trackpoint>
            <Time>2021-08-04T09:55:22.000Z</Time>
            <Position>
              <LatitudeDegrees>40.99977803416550159454345703125</LatitudeDegrees>
              <LongitudeDegrees>-1.1249089054763317108154296875</LongitudeDegrees>
            </Position>
            <AltitudeMeters>1420.4000244140625</AltitudeMeters>
            <DistanceMeters>597155.44944355</DistanceMeters>
          </Trackpoint>
          <Trackpoint>
            <Time>2021-08-04T09:55:24.000Z</Time>
            <Position>
              <LatitudeDegrees>40.99982254207134246826171875</LatitudeDegrees>
              <LongitudeDegrees>-1.12505257129669189453125</LongitudeDegrees>
            </Position>
            <AltitudeMeters>1419</AltitudeMeters>
            <DistanceMeters>597168.49478067</DistanceMeters>
          </Trackpoint>
          <Trackpoint>
            <Time>2021-08-04T09:55:27.000Z</Time>
            <Position>
              <LatitudeDegrees>40.9998066164553165435791015625</LatitudeDegrees>
              <LongitudeDegrees>-1.12528164871037006378173828125</LongitudeDegrees>
            </Position>
            <AltitudeMeters>1417.4000244140625</AltitudeMeters>
            <DistanceMeters>597187.8186447</DistanceMeters>
          </Trackpoint>
          <Trackpoint>
            <Time>2021-08-04T09:55:29.000Z</Time>
            <Position>
              <LatitudeDegrees>40.99974266253411769866943359375</LatitudeDegrees>
              <LongitudeDegrees>-1.125404275953769683837890625</LongitudeDegrees>
            </Position>
            <AltitudeMeters>1416.4000244140625</AltitudeMeters>
            <DistanceMeters>597200.33983423</DistanceMeters>
          </Trackpoint>
          <Trackpoint>
            <Time>2021-08-04T09:55:31.000Z</Time>
            <Position>
              <LatitudeDegrees>40.99966018460690975189208984375</LatitudeDegrees>
              <LongitudeDegrees>-1.12549220211803913116455078125</LongitudeDegrees>
            </Position>
            <AltitudeMeters>1415.199951171875</AltitudeMeters>
            <DistanceMeters>597212.12238045</DistanceMeters>
          </Trackpoint>
          <Trackpoint>
            <Time>2021-08-04T09:55:33.000Z</Time>
            <Position>
              <LatitudeDegrees>40.99957066588103771209716796875</LatitudeDegrees>
              <LongitudeDegrees>-1.12557350657880306243896484375</LongitudeDegrees>
            </Position>
            <AltitudeMeters>1414</AltitudeMeters>
            <DistanceMeters>597224.20236535</DistanceMeters>
          </Trackpoint>
          <Trackpoint>
            <Time>2021-08-04T09:55:38.000Z</Time>
            <Position>
              <LatitudeDegrees>40.999348126351833343505859375</LatitudeDegrees>
              <LongitudeDegrees>-1.12576813437044620513916015625</LongitudeDegrees>
            </Position>
            <AltitudeMeters>1413</AltitudeMeters>
            <DistanceMeters>597253.88068549</DistanceMeters>
          </Trackpoint>
          <Trackpoint>
            <Time>2021-08-04T09:55:40.000Z</Time>
            <Position>
              <LatitudeDegrees>40.99925215356051921844482421875</LatitudeDegrees>
              <LongitudeDegrees>-1.1258496902883052825927734375</LongitudeDegrees>
            </Position>
            <AltitudeMeters>1411.4000244140625</AltitudeMeters>
            <DistanceMeters>597266.57093306</DistanceMeters>
          </Trackpoint>
          <Trackpoint>
            <Time>2021-08-04T09:55:43.000Z</Time>
            <Position>
              <LatitudeDegrees>40.9991209767758846282958984375</LatitudeDegrees>
              <LongitudeDegrees>-1.1259710602462291717529296875</LongitudeDegrees>
            </Position>
            <AltitudeMeters>1410.199951171875</AltitudeMeters>
            <DistanceMeters>597284.37874664</DistanceMeters>
          </Trackpoint>
          <Trackpoint>
            <Time>2021-08-04T09:55:46.000Z</Time>
            <Position>
              <LatitudeDegrees>40.99899952299892902374267578125</LatitudeDegrees>
              <LongitudeDegrees>-1.12608346156775951385498046875</LongitudeDegrees>
            </Position>
            <AltitudeMeters>1409</AltitudeMeters>
            <DistanceMeters>597300.8680038</DistanceMeters>
          </Trackpoint>
          <Trackpoint>
            <Time>2021-08-04T09:55:52.000Z</Time>
            <Position>
              <LatitudeDegrees>40.9988004527986049652099609375</LatitudeDegrees>
              <LongitudeDegrees>-1.126248501241207122802734375</LongitudeDegrees>
            </Position>
            <AltitudeMeters>1407.800048828125</AltitudeMeters>
            <DistanceMeters>597327.00466929</DistanceMeters>
          </Trackpoint>
          <Trackpoint>
            <Time>2021-08-04T09:55:53.000Z</Time>
            <Position>
              <LatitudeDegrees>40.9987650811672210693359375</LatitudeDegrees>
              <LongitudeDegrees>-1.126279346644878387451171875</LongitudeDegrees>
            </Position>
            <AltitudeMeters>1407.199951171875</AltitudeMeters>
            <DistanceMeters>597331.716883</DistanceMeters>
          </Trackpoint>
          <Trackpoint>
            <Time>2021-08-04T09:55:54.000Z</Time>
            <Position>
              <LatitudeDegrees>40.9987248480319976806640625</LatitudeDegrees>
              <LongitudeDegrees>-1.1263140477240085601806640625</LongitudeDegrees>
            </Position>
            <AltitudeMeters>1406.4000244140625</AltitudeMeters>
            <DistanceMeters>597337.06039324</DistanceMeters>
          </Trackpoint>
          <Trackpoint>
            <Time>2021-08-04T09:55:56.000Z</Time>
            <Position>
              <LatitudeDegrees>40.99864463321864604949951171875</LatitudeDegrees>
              <LongitudeDegrees>-1.12639275379478931427001953125</LongitudeDegrees>
            </Position>
            <AltitudeMeters>1405.199951171875</AltitudeMeters>
            <DistanceMeters>597348.16998751</DistanceMeters>
          </Trackpoint>
          <Trackpoint>
            <Time>2021-08-04T09:55:59.000Z</Time>
            <Position>
              <LatitudeDegrees>40.9985027275979518890380859375</LatitudeDegrees>
              <LongitudeDegrees>-1.1265178956091403961181640625</LongitudeDegrees>
            </Position>
            <AltitudeMeters>1404</AltitudeMeters>
            <DistanceMeters>597367.14299379</DistanceMeters>
          </Trackpoint>
          <Trackpoint>
            <Time>2021-08-04T09:56:03.000Z</Time>
            <Position>
              <LatitudeDegrees>40.998286642134189605712890625</LatitudeDegrees>
              <LongitudeDegrees>-1.12671612761914730072021484375</LongitudeDegrees>
            </Position>
            <AltitudeMeters>1402.800048828125</AltitudeMeters>
            <DistanceMeters>597396.39579133</DistanceMeters>
          </Trackpoint>
          <Trackpoint>
            <Time>2021-08-04T09:56:06.000Z</Time>
            <Position>
              <LatitudeDegrees>40.9981027431786060333251953125</LatitudeDegrees>
              <LongitudeDegrees>-1.12687823362648487091064453125</LongitudeDegrees>
            </Position>
            <AltitudeMeters>1401.800048828125</AltitudeMeters>
            <DistanceMeters>597420.97999391</DistanceMeters>
          </Trackpoint>
          <Trackpoint>
            <Time>2021-08-04T09:56:10.000Z</Time>
            <Position>
              <LatitudeDegrees>40.99784332327544689178466796875</LatitudeDegrees>
              <LongitudeDegrees>-1.12711141817271709442138671875</LongitudeDegrees>
            </Position>
            <AltitudeMeters>1400.5999755859375</AltitudeMeters>
            <DistanceMeters>597455.87123616</DistanceMeters>
          </Trackpoint>
          <Trackpoint>
            <Time>2021-08-04T09:56:15.000Z</Time>
            <Position>
              <LatitudeDegrees>40.99754660390317440032958984375</LatitudeDegrees>
              <LongitudeDegrees>-1.12737276591360569000244140625</LongitudeDegrees>
            </Position>
            <AltitudeMeters>1399.4000244140625</AltitudeMeters>
            <DistanceMeters>597495.52824202</DistanceMeters>
          </Trackpoint>
          <Trackpoint>
            <Time>2021-08-04T09:56:19.000Z</Time>
            <Position>
              <LatitudeDegrees>40.99737728945910930633544921875</LatitudeDegrees>
              <LongitudeDegrees>-1.1275270767509937286376953125</LongitudeDegrees>
            </Position>
            <AltitudeMeters>1398.199951171875</AltitudeMeters>
            <DistanceMeters>597518.40107545</DistanceMeters>
          </Trackpoint>
          <Trackpoint>
            <Time>2021-08-04T09:56:21.000Z</Time>
            <Position>
              <LatitudeDegrees>40.99733001552522182464599609375</LatitudeDegrees>
              <LongitudeDegrees>-1.12754694186151027679443359375</LongitudeDegrees>
            </Position>
            <AltitudeMeters>1398.199951171875</AltitudeMeters>
            <DistanceMeters>597523.92081076</DistanceMeters>
          </Trackpoint>
          <Trackpoint>
            <Time>2021-08-04T09:56:27.000Z</Time>
            <Position>
              <LatitudeDegrees>40.997401513159275054931640625</LatitudeDegrees>
              <LongitudeDegrees>-1.12746714614331722259521484375</LongitudeDegrees>
            </Position>
            <AltitudeMeters>1398.199951171875</AltitudeMeters>
            <DistanceMeters>597534.32525963</DistanceMeters>
          </Trackpoint>
          <Trackpoint>
            <Time>2021-08-04T09:56:38.000Z</Time>
            <Position>
              <LatitudeDegrees>40.997624136507511138916015625</LatitudeDegrees>
              <LongitudeDegrees>-1.1272957362234592437744140625</LongitudeDegrees>
            </Position>
            <AltitudeMeters>1399.4000244140625</AltitudeMeters>
            <DistanceMeters>597562.98365304</DistanceMeters>
          </Trackpoint>
          <Trackpoint>
            <Time>2021-08-04T09:56:47.000Z</Time>
            <Position>
              <LatitudeDegrees>40.99776587449014186859130859375</LatitudeDegrees>
              <LongitudeDegrees>-1.127173863351345062255859375</LongitudeDegrees>
            </Position>
            <AltitudeMeters>1400.5999755859375</AltitudeMeters>
            <DistanceMeters>597581.79030171</DistanceMeters>
          </Trackpoint>
          <Trackpoint>
            <Time>2021-08-04T09:57:00.000Z</Time>
            <Position>
              <LatitudeDegrees>40.99795513786375522613525390625</LatitudeDegrees>
              <LongitudeDegrees>-1.12699993886053562164306640625</LongitudeDegrees>
            </Position>
            <AltitudeMeters>1401.5999755859375</AltitudeMeters>
            <DistanceMeters>597607.42638885</DistanceMeters>
          </Trackpoint>
          <Trackpoint>
            <Time>2021-08-04T09:57:07.000Z</Time>
            <Position>
              <LatitudeDegrees>40.998059995472431182861328125</LatitudeDegrees>
              <LongitudeDegrees>-1.12691042013466358184814453125</LongitudeDegrees>
            </Position>
            <AltitudeMeters>1402.5999755859375</AltitudeMeters>
            <DistanceMeters>597621.31004873</DistanceMeters>
          </Trackpoint>
          <Trackpoint>
            <Time>2021-08-04T09:57:12.000Z</Time>
            <Position>
              <LatitudeDegrees>40.99813400767743587493896484375</LatitudeDegrees>
              <LongitudeDegrees>-1.12684336490929126739501953125</LongitudeDegrees>
            </Position>
            <AltitudeMeters>1403.800048828125</AltitudeMeters>
            <DistanceMeters>597631.28921117</DistanceMeters>
          </Trackpoint>
          <Trackpoint>
            <Time>2021-08-04T09:57:35.000Z</Time>
            <Position>
              <LatitudeDegrees>40.9984608180820941925048828125</LatitudeDegrees>
              <LongitudeDegrees>-1.1265527643263339996337890625</LongitudeDegrees>
            </Position>
            <AltitudeMeters>1404.800048828125</AltitudeMeters>
            <DistanceMeters>597675.09580503</DistanceMeters>
          </Trackpoint>
          <Trackpoint>
            <Time>2021-08-04T09:57:45.000Z</Time>
            <Position>
              <LatitudeDegrees>40.9986043162643909454345703125</LatitudeDegrees>
              <LongitudeDegrees>-1.12642292864620685577392578125</LongitudeDegrees>
            </Position>
            <AltitudeMeters>1405.800048828125</AltitudeMeters>
            <DistanceMeters>597694.43601771</DistanceMeters>
          </Trackpoint>
          <Trackpoint>
            <Time>2021-08-04T09:57:56.000Z</Time>
            <Position>
              <LatitudeDegrees>40.99875812418758869171142578125</LatitudeDegrees>
              <LongitudeDegrees>-1.126284040510654449462890625</LongitudeDegrees>
            </Position>
            <AltitudeMeters>1407</AltitudeMeters>
            <DistanceMeters>597715.15271323</DistanceMeters>
          </Trackpoint>
          <Trackpoint>
            <Time>2021-08-04T09:58:05.000Z</Time>
            <Position>
              <LatitudeDegrees>40.99887312389910221099853515625</LatitudeDegrees>
              <LongitudeDegrees>-1.12618655897676944732666015625</LongitudeDegrees>
            </Position>
            <AltitudeMeters>1408</AltitudeMeters>
            <DistanceMeters>597730.34748188</DistanceMeters>
          </Trackpoint>
          <Trackpoint>
            <Time>2021-08-04T09:58:15.000Z</Time>
            <Position>
              <LatitudeDegrees>40.9989969246089458465576171875</LatitudeDegrees>
              <LongitudeDegrees>-1.1260811984539031982421875</LongitudeDegrees>
            </Position>
            <AltitudeMeters>1409.199951171875</AltitudeMeters>
            <DistanceMeters>597746.72464069</DistanceMeters>
          </Trackpoint>
          <Trackpoint>
            <Time>2021-08-04T09:58:23.000Z</Time>
            <Position>
              <LatitudeDegrees>40.99909365177154541015625</LatitudeDegrees>
              <LongitudeDegrees>-1.12599243409931659698486328125</LongitudeDegrees>
            </Position>
            <AltitudeMeters>1410.199951171875</AltitudeMeters>
            <DistanceMeters>597759.82041145</DistanceMeters>
          </Trackpoint>
          <Trackpoint>
            <Time>2021-08-04T09:58:33.000Z</Time>
            <Position>
              <LatitudeDegrees>40.9992103278636932373046875</LatitudeDegrees>
              <LongitudeDegrees>-1.1258961260318756103515625</LongitudeDegrees>
            </Position>
            <AltitudeMeters>1411.199951171875</AltitudeMeters>
            <DistanceMeters>597775.12030268</DistanceMeters>
          </Trackpoint>
          <Trackpoint>
            <Time>2021-08-04T09:58:39.000Z</Time>
            <Position>
              <LatitudeDegrees>40.9992827475070953369140625</LatitudeDegrees>
              <LongitudeDegrees>-1.125826053321361541748046875</LongitudeDegrees>
            </Position>
            <AltitudeMeters>1412.199951171875</AltitudeMeters>
            <DistanceMeters>597785.10127474</DistanceMeters>
          </Trackpoint>
          <Trackpoint>
            <Time>2021-08-04T09:58:48.000Z</Time>
            <Position>
              <LatitudeDegrees>40.99939716048538684844970703125</LatitudeDegrees>
              <LongitudeDegrees>-1.12572404555976390838623046875</LongitudeDegrees>
            </Position>
            <AltitudeMeters>1413.199951171875</AltitudeMeters>
            <DistanceMeters>597800.45007484</DistanceMeters>
          </Trackpoint>
          <Trackpoint>
            <Time>2021-08-04T09:58:57.000Z</Time>
            <Position>
              <LatitudeDegrees>40.99952087737619876861572265625</LatitudeDegrees>
              <LongitudeDegrees>-1.12562396563589572906494140625</LongitudeDegrees>
            </Position>
            <AltitudeMeters>1414.199951171875</AltitudeMeters>
            <DistanceMeters>597816.58336103</DistanceMeters>
          </Trackpoint>
          <Trackpoint>
            <Time>2021-08-04T09:59:05.000Z</Time>
            <Position>
              <LatitudeDegrees>40.99962598644196987152099609375</LatitudeDegrees>
              <LongitudeDegrees>-1.125533692538738250732421875</LongitudeDegrees>
            </Position>
            <AltitudeMeters>1415.199951171875</AltitudeMeters>
            <DistanceMeters>597830.52478726</DistanceMeters>
          </Trackpoint>
          <Trackpoint>
            <Time>2021-08-04T09:59:15.000Z</Time>
            <Position>
              <LatitudeDegrees>40.9997553192079067230224609375</LatitudeDegrees>
              <LongitudeDegrees>-1.12540452741086483001708984375</LongitudeDegrees>
            </Position>
            <AltitudeMeters>1416.4000244140625</AltitudeMeters>
            <DistanceMeters>597848.5508315</DistanceMeters>
          </Trackpoint>
          <Trackpoint>
            <Time>2021-08-04T09:59:21.000Z</Time>
            <Position>
              <LatitudeDegrees>40.99981659092009067535400390625</LatitudeDegrees>
              <LongitudeDegrees>-1.12530612386763095855712890625</LongitudeDegrees>
            </Position>
            <AltitudeMeters>1417.4000244140625</AltitudeMeters>
            <DistanceMeters>597859.26654202</DistanceMeters>
          </Trackpoint>
          <Trackpoint>
            <Time>2021-08-04T09:59:29.000Z</Time>
            <Position>
              <LatitudeDegrees>40.99985162727534770965576171875</LatitudeDegrees>
              <LongitudeDegrees>-1.125164218246936798095703125</LongitudeDegrees>
            </Position>
            <AltitudeMeters>1418.5999755859375</AltitudeMeters>
            <DistanceMeters>597871.80826844</DistanceMeters>
          </Trackpoint>
          <Trackpoint>
            <Time>2021-08-04T09:59:36.000Z</Time>
            <Position>
              <LatitudeDegrees>40.99985011853277683258056640625</LatitudeDegrees>
              <LongitudeDegrees>-1.12502817995846271514892578125</LongitudeDegrees>
            </Position>
            <AltitudeMeters>1419.5999755859375</AltitudeMeters>
            <DistanceMeters>597883.23678653</DistanceMeters>
          </Trackpoint>
          <Trackpoint>
            <Time>2021-08-04T09:59:42.000Z</Time>
            <Position>
              <LatitudeDegrees>40.99981508217751979827880859375</LatitudeDegrees>
              <LongitudeDegrees>-1.12491686828434467315673828125</LongitudeDegrees>
            </Position>
            <AltitudeMeters>1420.4000244140625</AltitudeMeters>
            <DistanceMeters>597893.36772177</DistanceMeters>
          </Trackpoint>
          <Trackpoint>
            <Time>2021-08-04T09:59:51.000Z</Time>
            <Position>
              <LatitudeDegrees>40.99973679520189762115478515625</LatitudeDegrees>
              <LongitudeDegrees>-1.12476096488535404205322265625</LongitudeDegrees>
            </Position>
            <AltitudeMeters>1421.4000244140625</AltitudeMeters>
            <DistanceMeters>597909.09801594</DistanceMeters>
          </Trackpoint>
          <Trackpoint>
            <Time>2021-08-04T10:00:00.000Z</Time>
            <Position>
              <LatitudeDegrees>40.99963621236383914947509765625</LatitudeDegrees>
              <LongitudeDegrees>-1.12462970428168773651123046875</LongitudeDegrees>
            </Position>
            <AltitudeMeters>1422.5999755859375</AltitudeMeters>
            <DistanceMeters>597924.81107898</DistanceMeters>
          </Trackpoint>
          <Trackpoint>
            <Time>2021-08-04T10:00:11.000Z</Time>
            <Position>
              <LatitudeDegrees>40.99949439056217670440673828125</LatitudeDegrees>
              <LongitudeDegrees>-1.1245042271912097930908203125</LongitudeDegrees>
            </Position>
            <AltitudeMeters>1423.5999755859375</AltitudeMeters>
            <DistanceMeters>597943.79169883</DistanceMeters>
          </Trackpoint>
          <Trackpoint>
            <Time>2021-08-04T10:00:24.000Z</Time>
            <Position>
              <LatitudeDegrees>40.9993047080934047698974609375</LatitudeDegrees>
              <LongitudeDegrees>-1.12438344396650791168212890625</LongitudeDegrees>
            </Position>
            <AltitudeMeters>1424.4000244140625</AltitudeMeters>
            <DistanceMeters>597967.21535023</DistanceMeters>
          </Trackpoint>
          <Trackpoint>
            <Time>2021-08-04T10:00:32.000Z</Time>
            <Position>
              <LatitudeDegrees>40.99918794818222522735595703125</LatitudeDegrees>
              <LongitudeDegrees>-1.12431907095015048980712890625</LongitudeDegrees>
            </Position>
            <AltitudeMeters>1425.5999755859375</AltitudeMeters>
            <DistanceMeters>597981.29085651</DistanceMeters>
          </Trackpoint>
          <Trackpoint>
            <Time>2021-08-04T10:00:43.000Z</Time>
            <Position>
              <LatitudeDegrees>40.99901997484266757965087890625</LatitudeDegrees>
              <LongitudeDegrees>-1.1242138780653476715087890625</LongitudeDegrees>
            </Position>
            <AltitudeMeters>1426.5999755859375</AltitudeMeters>
            <DistanceMeters>598001.96959535</DistanceMeters>
          </Trackpoint>
          <Trackpoint>
            <Time>2021-08-04T10:00:52.000Z</Time>
            <Position>
              <LatitudeDegrees>40.9988789074122905731201171875</LatitudeDegrees>
              <LongitudeDegrees>-1.1241246946156024932861328125</LongitudeDegrees>
            </Position>
            <AltitudeMeters>1427.5999755859375</AltitudeMeters>
            <DistanceMeters>598019.36597377</DistanceMeters>
          </Trackpoint>
          <Trackpoint>
            <Time>2021-08-04T10:01:03.000Z</Time>
            <Position>
              <LatitudeDegrees>40.9987099282443523406982421875</LatitudeDegrees>
              <LongitudeDegrees>-1.12402134574949741363525390625</LongitudeDegrees>
            </Position>
            <AltitudeMeters>1428.800048828125</AltitudeMeters>
            <DistanceMeters>598040.08048975</DistanceMeters>
          </Trackpoint>
          <Trackpoint>
            <Time>2021-08-04T10:01:11.000Z</Time>
            <Position>
              <LatitudeDegrees>40.998591743409633636474609375</LatitudeDegrees>
              <LongitudeDegrees>-1.12394523806869983673095703125</LongitudeDegrees>
            </Position>
            <AltitudeMeters>1429.800048828125</AltitudeMeters>
            <DistanceMeters>598054.70627113</DistanceMeters>
          </Trackpoint>
          <Trackpoint>
            <Time>2021-08-04T10:01:18.000Z</Time>
            <Position>
              <LatitudeDegrees>40.99848872981965541839599609375</LatitudeDegrees>
              <LongitudeDegrees>-1.123878769576549530029296875</LongitudeDegrees>
            </Position>
            <AltitudeMeters>1430.5999755859375</AltitudeMeters>
            <DistanceMeters>598067.45898365</DistanceMeters>
          </Trackpoint>
          <Trackpoint>
            <Time>2021-08-04T10:01:27.000Z</Time>
            <Position>
              <LatitudeDegrees>40.99834891967475414276123046875</LatitudeDegrees>
              <LongitudeDegrees>-1.1237964592874050140380859375</LongitudeDegrees>
            </Position>
            <AltitudeMeters>1431.800048828125</AltitudeMeters>
            <DistanceMeters>598084.48654057</DistanceMeters>
          </Trackpoint>
          <Trackpoint>
            <Time>2021-08-04T10:01:38.000Z</Time>
            <Position>
              <LatitudeDegrees>40.99816761910915374755859375</LatitudeDegrees>
              <LongitudeDegrees>-1.123713143169879913330078125</LongitudeDegrees>
            </Position>
            <AltitudeMeters>1432.5999755859375</AltitudeMeters>
            <DistanceMeters>598105.84494411</DistanceMeters>
          </Trackpoint>
          <Trackpoint>
            <Time>2021-08-04T10:01:46.000Z</Time>
            <Position>
              <LatitudeDegrees>40.99803124554455280303955078125</LatitudeDegrees>
              <LongitudeDegrees>-1.123664863407611846923828125</LongitudeDegrees>
            </Position>
            <AltitudeMeters>1433.800048828125</AltitudeMeters>
            <DistanceMeters>598121.556283</DistanceMeters>
          </Trackpoint>
          <Trackpoint>
            <Time>2021-08-04T10:01:54.000Z</Time>
            <Position>
              <LatitudeDegrees>40.9978958778083324432373046875</LatitudeDegrees>
              <LongitudeDegrees>-1.1236254684627056121826171875</LongitudeDegrees>
            </Position>
            <AltitudeMeters>1434.5999755859375</AltitudeMeters>
            <DistanceMeters>598136.98196108</DistanceMeters>
          </Trackpoint>
          <Trackpoint>
            <Time>2021-08-04T10:02:05.000Z</Time>
            <Position>
              <LatitudeDegrees>40.997713319957256317138671875</LatitudeDegrees>
              <LongitudeDegrees>-1.12358800135552883148193359375</LongitudeDegrees>
            </Position>
            <AltitudeMeters>1435.5999755859375</AltitudeMeters>
            <DistanceMeters>598157.54311593</DistanceMeters>
          </Trackpoint>
          <Trackpoint>
            <Time>2021-08-04T10:02:18.000Z</Time>
            <Position>
              <LatitudeDegrees>40.997497737407684326171875</LatitudeDegrees>
              <LongitudeDegrees>-1.1235272325575351715087890625</LongitudeDegrees>
            </Position>
            <AltitudeMeters>1436.4000244140625</AltitudeMeters>
            <DistanceMeters>598182.07473664</DistanceMeters>
          </Trackpoint>
          <Trackpoint>
            <Time>2021-08-04T10:02:30.000Z</Time>
            <Position>
              <LatitudeDegrees>40.997296907007694244384765625</LatitudeDegrees>
              <LongitudeDegrees>-1.1234742589294910430908203125</LongitudeDegrees>
            </Position>
            <AltitudeMeters>1437.5999755859375</AltitudeMeters>
            <DistanceMeters>598204.86609723</DistanceMeters>
          </Trackpoint>
          <Trackpoint>
            <Time>2021-08-04T10:02:39.000Z</Time>
            <Position>
              <LatitudeDegrees>40.997150726616382598876953125</LatitudeDegrees>
              <LongitudeDegrees>-1.123424805700778961181640625</LongitudeDegrees>
            </Position>
            <AltitudeMeters>1438.4000244140625</AltitudeMeters>
            <DistanceMeters>598221.65815389</DistanceMeters>
          </Trackpoint>
          <Trackpoint>
            <Time>2021-08-04T10:02:48.000Z</Time>
            <Position>
              <LatitudeDegrees>40.997017957270145416259765625</LatitudeDegrees>
              <LongitudeDegrees>-1.12333620898425579071044921875</LongitudeDegrees>
            </Position>
            <AltitudeMeters>1439.4000244140625</AltitudeMeters>
            <DistanceMeters>598238.20399408</DistanceMeters>
          </Trackpoint>
          <Trackpoint>
            <Time>2021-08-04T10:02:59.000Z</Time>
            <Position>
              <LatitudeDegrees>40.99690890870988368988037109375</LatitudeDegrees>
              <LongitudeDegrees>-1.12312473356723785400390625</LongitudeDegrees>
            </Position>
            <AltitudeMeters>1440.4000244140625</AltitudeMeters>
            <DistanceMeters>598259.71930976</DistanceMeters>
          </Trackpoint>
          <Trackpoint>
            <Time>2021-08-04T10:03:08.000Z</Time>
            <Position>
              <LatitudeDegrees>40.99688124842941761016845703125</LatitudeDegrees>
              <LongitudeDegrees>-1.12290973775088787078857421875</LongitudeDegrees>
            </Position>
            <AltitudeMeters>1441.4000244140625</AltitudeMeters>
            <DistanceMeters>598278.04049972</DistanceMeters>
          </Trackpoint>
          <Trackpoint>
            <Time>2021-08-04T10:03:20.000Z</Time>
            <Position>
              <LatitudeDegrees>40.9968826733529567718505859375</LatitudeDegrees>
              <LongitudeDegrees>-1.1226333864033222198486328125</LongitudeDegrees>
            </Position>
            <AltitudeMeters>1442.5999755859375</AltitudeMeters>
            <DistanceMeters>598301.2560142</DistanceMeters>
          </Trackpoint>
          <Trackpoint>
            <Time>2021-08-04T10:03:32.000Z</Time>
            <Position>
              <LatitudeDegrees>40.99687320180237293243408203125</LatitudeDegrees>
              <LongitudeDegrees>-1.122346557676792144775390625</LongitudeDegrees>
            </Position>
            <AltitudeMeters>1443.4000244140625</AltitudeMeters>
            <DistanceMeters>598325.37408635</DistanceMeters>
          </Trackpoint>
          <Trackpoint>
            <Time>2021-08-04T10:03:49.000Z</Time>
            <Position>
              <LatitudeDegrees>40.99686498753726482391357421875</LatitudeDegrees>
              <LongitudeDegrees>-1.12191639840602874755859375</LongitudeDegrees>
            </Position>
            <AltitudeMeters>1444.4000244140625</AltitudeMeters>
            <DistanceMeters>598361.52097945</DistanceMeters>
          </Trackpoint>
          <Trackpoint>
            <Time>2021-08-04T10:04:02.000Z</Time>
            <Position>
              <LatitudeDegrees>40.99684470333158969879150390625</LatitudeDegrees>
              <LongitudeDegrees>-1.1215531267225742340087890625</LongitudeDegrees>
            </Position>
            <AltitudeMeters>1445.199951171875</AltitudeMeters>
            <DistanceMeters>598392.12076191</DistanceMeters>
          </Trackpoint>
          <Trackpoint>
            <Time>2021-08-04T10:04:16.000Z</Time>
            <Position>
              <LatitudeDegrees>40.9968055598437786102294921875</LatitudeDegrees>
              <LongitudeDegrees>-1.12116261385381221771240234375</LongitudeDegrees>
            </Position>
            <AltitudeMeters>1446.199951171875</AltitudeMeters>
            <DistanceMeters>598425.21380666</DistanceMeters>
          </Trackpoint>
          <Trackpoint>
            <Time>2021-08-04T10:04:34.000Z</Time>
            <Position>
              <LatitudeDegrees>40.99673263728618621826171875</LatitudeDegrees>
              <LongitudeDegrees>-1.120719797909259796142578125</LongitudeDegrees>
            </Position>
            <AltitudeMeters>1447.4000244140625</AltitudeMeters>
            <DistanceMeters>598463.28763274</DistanceMeters>
          </Trackpoint>
          <Trackpoint>
            <Time>2021-08-04T10:04:47.000Z</Time>
            <Position>
              <LatitudeDegrees>40.99667723290622234344482421875</LatitudeDegrees>
              <LongitudeDegrees>-1.1203696019947528839111328125</LongitudeDegrees>
            </Position>
            <AltitudeMeters>1448.4000244140625</AltitudeMeters>
            <DistanceMeters>598493.34522992</DistanceMeters>
          </Trackpoint>
          <Trackpoint>
            <Time>2021-08-04T10:05:03.000Z</Time>
            <Position>
              <LatitudeDegrees>40.99661730229854583740234375</LatitudeDegrees>
              <LongitudeDegrees>-1.1199213378131389617919921875</LongitudeDegrees>
            </Position>
            <AltitudeMeters>1449.4000244140625</AltitudeMeters>
            <DistanceMeters>598531.58790439</DistanceMeters>
          </Trackpoint>
          <Trackpoint>
            <Time>2021-08-04T10:05:14.000Z</Time>
            <Position>
              <LatitudeDegrees>40.996564663946628570556640625</LatitudeDegrees>
              <LongitudeDegrees>-1.11957742832601070404052734375</LongitudeDegrees>
            </Position>
            <AltitudeMeters>1450.199951171875</AltitudeMeters>
            <DistanceMeters>598561.06610406</DistanceMeters>
          </Trackpoint>
          <Trackpoint>
            <Time>2021-08-04T10:05:35.000Z</Time>
            <Position>
              <LatitudeDegrees>40.99660565145313739776611328125</LatitudeDegrees>
              <LongitudeDegrees>-1.11884434707462787628173828125</LongitudeDegrees>
            </Position>
            <AltitudeMeters>1451</AltitudeMeters>
            <DistanceMeters>598622.81738487</DistanceMeters>
          </Trackpoint>
          <Trackpoint>
            <Time>2021-08-04T10:05:52.000Z</Time>
            <Position>
              <LatitudeDegrees>40.996783934533596038818359375</LatitudeDegrees>
              <LongitudeDegrees>-1.1181380040943622589111328125</LongitudeDegrees>
            </Position>
            <AltitudeMeters>1450.5999755859375</AltitudeMeters>
            <DistanceMeters>598685.38379917</DistanceMeters>
          </Trackpoint>
          <Trackpoint>
            <Time>2021-08-04T10:06:09.000Z</Time>
            <Position>
              <LatitudeDegrees>40.99694453179836273193359375</LatitudeDegrees>
              <LongitudeDegrees>-1.1174444854259490966796875</LongitudeDegrees>
            </Position>
            <AltitudeMeters>1450.199951171875</AltitudeMeters>
            <DistanceMeters>598746.32312044</DistanceMeters>
          </Trackpoint>
          <Trackpoint>
            <Time>2021-08-04T10:06:13.000Z</Time>
            <Position>
              <LatitudeDegrees>40.9969544224441051483154296875</LatitudeDegrees>
              <LongitudeDegrees>-1.1173967085778713226318359375</LongitudeDegrees>
            </Position>
            <AltitudeMeters>1450.199951171875</AltitudeMeters>
            <DistanceMeters>598750.4848132</DistanceMeters>
          </Trackpoint>
          <Trackpoint>
            <Time>2021-08-04T10:10:05.000Z</Time>
            <Position>
              <LatitudeDegrees>40.9969597868621349334716796875</LatitudeDegrees>
              <LongitudeDegrees>-1.11731213517487049102783203125</LongitudeDegrees>
            </Position>
            <AltitudeMeters>1450.199951171875</AltitudeMeters>
            <DistanceMeters>598757.61498363</DistanceMeters>
          </Trackpoint>
          <Trackpoint>
            <Time>2021-08-04T10:10:14.000Z</Time>
            <Position>
              <LatitudeDegrees>40.99704855121672153472900390625</LatitudeDegrees>
              <LongitudeDegrees>-1.11701323650777339935302734375</LongitudeDegrees>
            </Position>
            <AltitudeMeters>1448.199951171875</AltitudeMeters>
            <DistanceMeters>598784.59755103</DistanceMeters>
          </Trackpoint>
          <Trackpoint>
            <Time>2021-08-04T10:10:17.000Z</Time>
            <Position>
              <LatitudeDegrees>40.99709607660770416259765625</LatitudeDegrees>
              <LongitudeDegrees>-1.11681860871613025665283203125</LongitudeDegrees>
            </Position>
            <AltitudeMeters>1447.199951171875</AltitudeMeters>
            <DistanceMeters>598801.78136608</DistanceMeters>
          </Trackpoint>
          <Trackpoint>
            <Time>2021-08-04T10:10:19.000Z</Time>
            <Position>
              <LatitudeDegrees>40.99713656120002269744873046875</LatitudeDegrees>
              <LongitudeDegrees>-1.11666220240294933319091796875</LongitudeDegrees>
            </Position>
            <AltitudeMeters>1446</AltitudeMeters>
            <DistanceMeters>598815.67152855</DistanceMeters>
          </Trackpoint>
          <Trackpoint>
            <Time>2021-08-04T10:10:21.000Z</Time>
            <Position>
              <LatitudeDegrees>40.9971837513148784637451171875</LatitudeDegrees>
              <LongitudeDegrees>-1.1164867691695690155029296875</LongitudeDegrees>
            </Position>
            <AltitudeMeters>1445</AltitudeMeters>
            <DistanceMeters>598831.31663168</DistanceMeters>
          </Trackpoint>
          <Trackpoint>
            <Time>2021-08-04T10:10:23.000Z</Time>
            <Position>
              <LatitudeDegrees>40.99722909741103649139404296875</LatitudeDegrees>
              <LongitudeDegrees>-1.11629339866340160369873046875</LongitudeDegrees>
            </Position>
            <AltitudeMeters>1443.199951171875</AltitudeMeters>
            <DistanceMeters>598848.32667899</DistanceMeters>
          </Trackpoint>
          <Trackpoint>
            <Time>2021-08-04T10:10:25.000Z</Time>
            <Position>
              <LatitudeDegrees>40.99725441075861454010009765625</LatitudeDegrees>
              <LongitudeDegrees>-1.1160738766193389892578125</LongitudeDegrees>
            </Position>
            <AltitudeMeters>1441.800048828125</AltitudeMeters>
            <DistanceMeters>598866.9814662</DistanceMeters>
          </Trackpoint>
          <Trackpoint>
            <Time>2021-08-04T10:10:27.000Z</Time>
            <Position>
              <LatitudeDegrees>40.99723144434392452239990234375</LatitudeDegrees>
              <LongitudeDegrees>-1.115837506949901580810546875</LongitudeDegrees>
            </Position>
            <AltitudeMeters>1440.5999755859375</AltitudeMeters>
            <DistanceMeters>598887.00145479</DistanceMeters>
          </Trackpoint>
          <Trackpoint>
            <Time>2021-08-04T10:10:29.000Z</Time>
            <Position>
              <LatitudeDegrees>40.99715466611087322235107421875</LatitudeDegrees>
              <LongitudeDegrees>-1.1156009696424007415771484375</LongitudeDegrees>
            </Position>
            <AltitudeMeters>1439.800048828125</AltitudeMeters>
            <DistanceMeters>598908.63146382</DistanceMeters>
          </Trackpoint>
          <Trackpoint>
            <Time>2021-08-04T10:10:30.000Z</Time>
            <Position>
              <LatitudeDegrees>40.9971089847385883331298828125</LatitudeDegrees>
              <LongitudeDegrees>-1.11548119224607944488525390625</LongitudeDegrees>
            </Position>
            <AltitudeMeters>1439</AltitudeMeters>
            <DistanceMeters>598919.90565364</DistanceMeters>
          </Trackpoint>
          <Trackpoint>
            <Time>2021-08-04T10:10:31.000Z</Time>
            <Position>
              <LatitudeDegrees>40.9970643930137157440185546875</LatitudeDegrees>
              <LongitudeDegrees>-1.11535814590752124786376953125</LongitudeDegrees>
            </Position>
            <AltitudeMeters>1437.800048828125</AltitudeMeters>
            <DistanceMeters>598931.3720355</DistanceMeters>
          </Trackpoint>
          <Trackpoint>
            <Time>2021-08-04T10:10:33.000Z</Time>
            <Position>
              <LatitudeDegrees>40.996984429657459259033203125</LatitudeDegrees>
              <LongitudeDegrees>-1.115096546709537506103515625</LongitudeDegrees>
            </Position>
            <AltitudeMeters>1436.5999755859375</AltitudeMeters>
            <DistanceMeters>598955.08115313</DistanceMeters>
          </Trackpoint>
          <Trackpoint>
            <Time>2021-08-04T10:10:35.000Z</Time>
            <Position>
              <LatitudeDegrees>40.996943525969982147216796875</LatitudeDegrees>
              <LongitudeDegrees>-1.114807538688182830810546875</LongitudeDegrees>
            </Position>
            <AltitudeMeters>1435</AltitudeMeters>
            <DistanceMeters>598979.78225037</DistanceMeters>
          </Trackpoint>
          <Trackpoint>
            <Time>2021-08-04T10:10:36.000Z</Time>
            <Position>
              <LatitudeDegrees>40.99694679491221904754638671875</LatitudeDegrees>
              <LongitudeDegrees>-1.11465431749820709228515625</LongitudeDegrees>
            </Position>
            <AltitudeMeters>1434</AltitudeMeters>
            <DistanceMeters>598992.65828251</DistanceMeters>
          </Trackpoint>
          <Trackpoint>
            <Time>2021-08-04T10:10:37.000Z</Time>
            <Position>
              <LatitudeDegrees>40.99696020595729351043701171875</LatitudeDegrees>
              <LongitudeDegrees>-1.11449849791824817657470703125</LongitudeDegrees>
            </Position>
            <AltitudeMeters>1433</AltitudeMeters>
            <DistanceMeters>599005.83242647</DistanceMeters>
          </Trackpoint>
          <Trackpoint>
            <Time>2021-08-04T10:10:38.000Z</Time>
            <Position>
              <LatitudeDegrees>40.9969747066497802734375</LatitudeDegrees>
              <LongitudeDegrees>-1.11433924175798892974853515625</LongitudeDegrees>
            </Position>
            <AltitudeMeters>1431.4000244140625</AltitudeMeters>
            <DistanceMeters>599019.30780429</DistanceMeters>
          </Trackpoint>
          <Trackpoint>
            <Time>2021-08-04T10:10:39.000Z</Time>
            <Position>
              <LatitudeDegrees>40.99698501639068126678466796875</LatitudeDegrees>
              <LongitudeDegrees>-1.1141834221780300140380859375</LongitudeDegrees>
            </Position>
            <AltitudeMeters>1430</AltitudeMeters>
            <DistanceMeters>599032.44763159</DistanceMeters>
          </Trackpoint>
          <Trackpoint>
            <Time>2021-08-04T10:10:40.000Z</Time>
            <Position>
              <LatitudeDegrees>40.9969845972955226898193359375</LatitudeDegrees>
              <LongitudeDegrees>-1.114038415253162384033203125</LongitudeDegrees>
            </Position>
            <AltitudeMeters>1429.4000244140625</AltitudeMeters>
            <DistanceMeters>599044.62885551</DistanceMeters>
          </Trackpoint>
          <Trackpoint>
            <Time>2021-08-04T10:10:42.000Z</Time>
            <Position>
              <LatitudeDegrees>40.99692433141171932220458984375</LatitudeDegrees>
              <LongitudeDegrees>-1.113811098039150238037109375</LongitudeDegrees>
            </Position>
            <AltitudeMeters>1429</AltitudeMeters>
            <DistanceMeters>599064.8684303</DistanceMeters>
          </Trackpoint>
          <Trackpoint>
            <Time>2021-08-04T10:10:47.000Z</Time>
            <Position>
              <LatitudeDegrees>40.99654094316065311431884765625</LatitudeDegrees>
              <LongitudeDegrees>-1.11376206390559673309326171875</LongitudeDegrees>
            </Position>
            <AltitudeMeters>1428.5999755859375</AltitudeMeters>
            <DistanceMeters>599107.73864535</DistanceMeters>
          </Trackpoint>
          <Trackpoint>
            <Time>2021-08-04T10:10:49.000Z</Time>
            <Position>
              <LatitudeDegrees>40.99635637365281581878662109375</LatitudeDegrees>
              <LongitudeDegrees>-1.1138085834681987762451171875</LongitudeDegrees>
            </Position>
            <AltitudeMeters>1427</AltitudeMeters>
            <DistanceMeters>599128.64992106</DistanceMeters>
          </Trackpoint>
          <Trackpoint>
            <Time>2021-08-04T10:10:51.000Z</Time>
            <Position>
              <LatitudeDegrees>40.99618772976100444793701171875</LatitudeDegrees>
              <LongitudeDegrees>-1.113828532397747039794921875</LongitudeDegrees>
            </Position>
            <AltitudeMeters>1426</AltitudeMeters>
            <DistanceMeters>599147.49518244</DistanceMeters>
          </Trackpoint>
          <Trackpoint>
            <Time>2021-08-04T10:10:55.000Z</Time>
            <Position>
              <LatitudeDegrees>40.9959415532648563385009765625</LatitudeDegrees>
              <LongitudeDegrees>-1.11365192569792270660400390625</LongitudeDegrees>
            </Position>
            <AltitudeMeters>1425</AltitudeMeters>
            <DistanceMeters>599178.65394796</DistanceMeters>
          </Trackpoint>
          <Trackpoint>
            <Time>2021-08-04T10:10:56.000Z</Time>
            <Position>
              <LatitudeDegrees>40.9958848915994167327880859375</LatitudeDegrees>
              <LongitudeDegrees>-1.113586127758026123046875</LongitudeDegrees>
            </Position>
            <AltitudeMeters>1424.5999755859375</AltitudeMeters>
            <DistanceMeters>599187.04002186</DistanceMeters>
          </Trackpoint>
          <Trackpoint>
            <Time>2021-08-04T10:10:59.000Z</Time>
            <Position>
              <LatitudeDegrees>40.99572278559207916259765625</LatitudeDegrees>
              <LongitudeDegrees>-1.11335772089660167694091796875</LongitudeDegrees>
            </Position>
            <AltitudeMeters>1423</AltitudeMeters>
            <DistanceMeters>599213.37836904</DistanceMeters>
          </Trackpoint>
          <Trackpoint>
            <Time>2021-08-04T10:11:01.000Z</Time>
            <Position>
              <LatitudeDegrees>40.995608456432819366455078125</LatitudeDegrees>
              <LongitudeDegrees>-1.11319980584084987640380859375</LongitudeDegrees>
            </Position>
            <AltitudeMeters>1421.4000244140625</AltitudeMeters>
            <DistanceMeters>599231.76081966</DistanceMeters>
          </Trackpoint>
          <Trackpoint>
            <Time>2021-08-04T10:11:02.000Z</Time>
            <Position>
              <LatitudeDegrees>40.99555539898574352264404296875</LatitudeDegrees>
              <LongitudeDegrees>-1.11311146058142185211181640625</LongitudeDegrees>
            </Position>
            <AltitudeMeters>1421.199951171875</AltitudeMeters>
            <DistanceMeters>599241.24446671</DistanceMeters>
          </Trackpoint>
          <Trackpoint>
            <Time>2021-08-04T10:11:05.000Z</Time>
            <Position>
              <LatitudeDegrees>40.99545364268124103546142578125</LatitudeDegrees>
              <LongitudeDegrees>-1.1127828061580657958984375</LongitudeDegrees>
            </Position>
            <AltitudeMeters>1420.199951171875</AltitudeMeters>
            <DistanceMeters>599271.0861838</DistanceMeters>
          </Trackpoint>
          <Trackpoint>
            <Time>2021-08-04T10:11:06.000Z</Time>
            <Position>
              <LatitudeDegrees>40.9954269044101238250732421875</LatitudeDegrees>
              <LongitudeDegrees>-1.11266286112368106842041015625</LongitudeDegrees>
            </Position>
            <AltitudeMeters>1418.800048828125</AltitudeMeters>
            <DistanceMeters>599281.59254637</DistanceMeters>
          </Trackpoint>
          <Trackpoint>
            <Time>2021-08-04T10:11:07.000Z</Time>
            <Position>
              <LatitudeDegrees>40.99539848975837230682373046875</LatitudeDegrees>
              <LongitudeDegrees>-1.112541742622852325439453125</LongitudeDegrees>
            </Position>
            <AltitudeMeters>1417.199951171875</AltitudeMeters>
            <DistanceMeters>599292.24741009</DistanceMeters>
          </Trackpoint>
          <Trackpoint>
            <Time>2021-08-04T10:11:09.000Z</Time>
            <Position>
              <LatitudeDegrees>40.99535557441413402557373046875</LatitudeDegrees>
              <LongitudeDegrees>-1.11228919588029384613037109375</LongitudeDegrees>
            </Position>
            <AltitudeMeters>1415.5999755859375</AltitudeMeters>
            <DistanceMeters>599313.99420672</DistanceMeters>
          </Trackpoint>
          <Trackpoint>
            <Time>2021-08-04T10:11:11.000Z</Time>
            <Position>
              <LatitudeDegrees>40.99537602625787258148193359375</LatitudeDegrees>
              <LongitudeDegrees>-1.11202114261686801910400390625</LongitudeDegrees>
            </Position>
            <AltitudeMeters>1414.4000244140625</AltitudeMeters>
            <DistanceMeters>599336.62732795</DistanceMeters>
          </Trackpoint>
          <Trackpoint>
            <Time>2021-08-04T10:11:13.000Z</Time>
            <Position>
              <LatitudeDegrees>40.995458252727985382080078125</LatitudeDegrees>
              <LongitudeDegrees>-1.1117503233253955841064453125</LongitudeDegrees>
            </Position>
            <AltitudeMeters>1412.800048828125</AltitudeMeters>
            <DistanceMeters>599361.14974444</DistanceMeters>
          </Trackpoint>
          <Trackpoint>
            <Time>2021-08-04T10:11:14.000Z</Time>
            <Position>
              <LatitudeDegrees>40.99550024606287479400634765625</LatitudeDegrees>
              <LongitudeDegrees>-1.11161193810403347015380859375</LongitudeDegrees>
            </Position>
            <AltitudeMeters>1411</AltitudeMeters>
            <DistanceMeters>599373.67958519</DistanceMeters>
          </Trackpoint>
          <Trackpoint>
            <Time>2021-08-04T10:11:15.000Z</Time>
            <Position>
              <LatitudeDegrees>40.9955318458378314971923828125</LatitudeDegrees>
              <LongitudeDegrees>-1.11147514544427394866943359375</LongitudeDegrees>
            </Position>
            <AltitudeMeters>1410.199951171875</AltitudeMeters>
            <DistanceMeters>599385.69736546</DistanceMeters>
          </Trackpoint>
          <Trackpoint>
            <Time>2021-08-04T10:11:16.000Z</Time>
            <Position>
              <LatitudeDegrees>40.9955422393977642059326171875</LatitudeDegrees>
              <LongitudeDegrees>-1.11134656704962253570556640625</LongitudeDegrees>
            </Position>
            <AltitudeMeters>1409.800048828125</AltitudeMeters>
            <DistanceMeters>599396.56037788</DistanceMeters>
          </Trackpoint>
          <Trackpoint>
            <Time>2021-08-04T10:11:19.000Z</Time>
            <Position>
              <LatitudeDegrees>40.99541760049760341644287109375</LatitudeDegrees>
              <LongitudeDegrees>-1.11104045994579792022705078125</LongitudeDegrees>
            </Position>
            <AltitudeMeters>1408.800048828125</AltitudeMeters>
            <DistanceMeters>599425.77858158</DistanceMeters>
          </Trackpoint>
          <Trackpoint>
            <Time>2021-08-04T10:11:21.000Z</Time>
            <Position>
              <LatitudeDegrees>40.995247028768062591552734375</LatitudeDegrees>
              <LongitudeDegrees>-1.11092009581625461578369140625</LongitudeDegrees>
            </Position>
            <AltitudeMeters>1407.199951171875</AltitudeMeters>
            <DistanceMeters>599447.2882305</DistanceMeters>
          </Trackpoint>
          <Trackpoint>
            <Time>2021-08-04T10:11:22.000Z</Time>
            <Position>
              <LatitudeDegrees>40.9951653890311717987060546875</LatitudeDegrees>
              <LongitudeDegrees>-1.1108484305441379547119140625</LongitudeDegrees>
            </Position>
            <AltitudeMeters>1406.800048828125</AltitudeMeters>
            <DistanceMeters>599458.18858581</DistanceMeters>
          </Trackpoint>
          <Trackpoint>
            <Time>2021-08-04T10:11:23.000Z</Time>
            <Position>
              <LatitudeDegrees>40.9950973279774188995361328125</LatitudeDegrees>
              <LongitudeDegrees>-1.1107515357434749603271484375</LongitudeDegrees>
            </Position>
            <AltitudeMeters>1406</AltitudeMeters>
            <DistanceMeters>599469.30792961</DistanceMeters>
          </Trackpoint>
          <Trackpoint>
            <Time>2021-08-04T10:11:24.000Z</Time>
            <Position>
              <LatitudeDegrees>40.9950446896255016326904296875</LatitudeDegrees>
              <LongitudeDegrees>-1.11063343472778797149658203125</LongitudeDegrees>
            </Position>
            <AltitudeMeters>1405</AltitudeMeters>
            <DistanceMeters>599480.83009017</DistanceMeters>
          </Trackpoint>
          <Trackpoint>
            <Time>2021-08-04T10:11:26.000Z</Time>
            <Position>
              <LatitudeDegrees>40.9949682466685771942138671875</LatitudeDegrees>
              <LongitudeDegrees>-1.11036487855017185211181640625</LongitudeDegrees>
            </Position>
            <AltitudeMeters>1402.4000244140625</AltitudeMeters>
            <DistanceMeters>599504.94179649</DistanceMeters>
          </Trackpoint>
          <Trackpoint>
            <Time>2021-08-04T10:11:27.000Z</Time>
            <Position>
              <LatitudeDegrees>40.9949367307126522064208984375</LatitudeDegrees>
              <LongitudeDegrees>-1.11022062599658966064453125</LongitudeDegrees>
            </Position>
            <AltitudeMeters>1401</AltitudeMeters>
            <DistanceMeters>599517.5578231</DistanceMeters>
          </Trackpoint>
          <Trackpoint>
            <Time>2021-08-04T10:11:28.000Z</Time>
            <Position>
              <LatitudeDegrees>40.9949125908315181732177734375</LatitudeDegrees>
              <LongitudeDegrees>-1.1100702546536922454833984375</LongitudeDegrees>
            </Position>
            <AltitudeMeters>1399.5999755859375</AltitudeMeters>
            <DistanceMeters>599530.47236962</DistanceMeters>
          </Trackpoint>
          <Trackpoint>
            <Time>2021-08-04T10:11:29.000Z</Time>
            <Position>
              <LatitudeDegrees>40.99490345455706119537353515625</LatitudeDegrees>
              <LongitudeDegrees>-1.10991426743566989898681640625</LongitudeDegrees>
            </Position>
            <AltitudeMeters>1398.199951171875</AltitudeMeters>
            <DistanceMeters>599543.61563262</DistanceMeters>
          </Trackpoint>
          <Trackpoint>
            <Time>2021-08-04T10:11:31.000Z</Time>
            <Position>
              <LatitudeDegrees>40.99492876790463924407958984375</LatitudeDegrees>
              <LongitudeDegrees>-1.10959474928677082061767578125</LongitudeDegrees>
            </Position>
            <AltitudeMeters>1395.5999755859375</AltitudeMeters>
            <DistanceMeters>599570.60505975</DistanceMeters>
          </Trackpoint>
          <Trackpoint>
            <Time>2021-08-04T10:11:32.000Z</Time>
            <Position>
              <LatitudeDegrees>40.99495542235672473907470703125</LatitudeDegrees>
              <LongitudeDegrees>-1.1094318889081478118896484375</LongitudeDegrees>
            </Position>
            <AltitudeMeters>1394.4000244140625</AltitudeMeters>
            <DistanceMeters>599584.604659</DistanceMeters>
          </Trackpoint>
          <Trackpoint>
            <Time>2021-08-04T10:11:34.000Z</Time>
            <Position>
              <LatitudeDegrees>40.9950296021997928619384765625</LatitudeDegrees>
              <LongitudeDegrees>-1.1091200821101665496826171875</LongitudeDegrees>
            </Position>
            <AltitudeMeters>1392.5999755859375</AltitudeMeters>
            <DistanceMeters>599612.06902346</DistanceMeters>
          </Trackpoint>
          <Trackpoint>
            <Time>2021-08-04T10:11:36.000Z</Time>
            <Position>
              <LatitudeDegrees>40.99518273957073688507080078125</LatitudeDegrees>
              <LongitudeDegrees>-1.1088739894330501556396484375</LongitudeDegrees>
            </Position>
            <AltitudeMeters>1391</AltitudeMeters>
            <DistanceMeters>599638.86284994</DistanceMeters>
          </Trackpoint>
          <Trackpoint>
            <Time>2021-08-04T10:11:37.000Z</Time>
            <Position>
              <LatitudeDegrees>40.9952889382839202880859375</LatitudeDegrees>
              <LongitudeDegrees>-1.10879645682871341705322265625</LongitudeDegrees>
            </Position>
            <AltitudeMeters>1389.5999755859375</AltitudeMeters>
            <DistanceMeters>599652.35865084</DistanceMeters>
          </Trackpoint>
          <Trackpoint>
            <Time>2021-08-04T10:11:38.000Z</Time>
            <Position>
              <LatitudeDegrees>40.99540486000478267669677734375</LatitudeDegrees>
              <LongitudeDegrees>-1.10874985344707965850830078125</LongitudeDegrees>
            </Position>
            <AltitudeMeters>1388.199951171875</AltitudeMeters>
            <DistanceMeters>599665.84206766</DistanceMeters>
          </Trackpoint>
          <Trackpoint>
            <Time>2021-08-04T10:11:40.000Z</Time>
            <Position>
              <LatitudeDegrees>40.99564508534967899322509765625</LatitudeDegrees>
              <LongitudeDegrees>-1.1086962930858135223388671875</LongitudeDegrees>
            </Position>
            <AltitudeMeters>1387</AltitudeMeters>
            <DistanceMeters>599692.95550571</DistanceMeters>
          </Trackpoint>
          <Trackpoint>
            <Time>2021-08-04T10:11:41.000Z</Time>
            <Position>
              <LatitudeDegrees>40.995757989585399627685546875</LatitudeDegrees>
              <LongitudeDegrees>-1.10865882597863674163818359375</LongitudeDegrees>
            </Position>
            <AltitudeMeters>1386.800048828125</AltitudeMeters>
            <DistanceMeters>599705.91019485</DistanceMeters>
          </Trackpoint>
          <Trackpoint>
            <Time>2021-08-04T10:11:47.000Z</Time>
            <Position>
              <LatitudeDegrees>40.9959621727466583251953125</LatitudeDegrees>
              <LongitudeDegrees>-1.10796329565346240997314453125</LongitudeDegrees>
            </Position>
            <AltitudeMeters>1387.199951171875</AltitudeMeters>
            <DistanceMeters>599768.60291287</DistanceMeters>
          </Trackpoint>
          <Trackpoint>
            <Time>2021-08-04T10:11:49.000Z</Time>
            <Position>
              <LatitudeDegrees>40.99588044919073581695556640625</LatitudeDegrees>
              <LongitudeDegrees>-1.10768518410623073577880859375</LongitudeDegrees>
            </Position>
            <AltitudeMeters>1385.800048828125</AltitudeMeters>
            <DistanceMeters>599793.67430276</DistanceMeters>
          </Trackpoint>
          <Trackpoint>
            <Time>2021-08-04T10:11:51.000Z</Time>
            <Position>
              <LatitudeDegrees>40.99579042755067348480224609375</LatitudeDegrees>
              <LongitudeDegrees>-1.10740170814096927642822265625</LongitudeDegrees>
            </Position>
            <AltitudeMeters>1384.4000244140625</AltitudeMeters>
            <DistanceMeters>599819.51003752</DistanceMeters>
          </Trackpoint>
          <Trackpoint>
            <Time>2021-08-04T10:11:53.000Z</Time>
            <Position>
              <LatitudeDegrees>40.995709709823131561279296875</LatitudeDegrees>
              <LongitudeDegrees>-1.10710649751126766204833984375</LongitudeDegrees>
            </Position>
            <AltitudeMeters>1382.4000244140625</AltitudeMeters>
            <DistanceMeters>599845.8864135</DistanceMeters>
          </Trackpoint>
          <Trackpoint>
            <Time>2021-08-04T10:11:55.000Z</Time>
            <Position>
              <LatitudeDegrees>40.99556461907923221588134765625</LatitudeDegrees>
              <LongitudeDegrees>-1.10685001127421855926513671875</LongitudeDegrees>
            </Position>
            <AltitudeMeters>1381.4000244140625</AltitudeMeters>
            <DistanceMeters>599872.81303412</DistanceMeters>
          </Trackpoint>
          <Trackpoint>
            <Time>2021-08-04T10:11:57.000Z</Time>
            <Position>
              <LatitudeDegrees>40.99538139067590236663818359375</LatitudeDegrees>
              <LongitudeDegrees>-1.10662269406020641326904296875</LongitudeDegrees>
            </Position>
            <AltitudeMeters>1379.800048828125</AltitudeMeters>
            <DistanceMeters>599900.75153457</DistanceMeters>
          </Trackpoint>
          <Trackpoint>
            <Time>2021-08-04T10:11:59.000Z</Time>
            <Position>
              <LatitudeDegrees>40.99527846090495586395263671875</LatitudeDegrees>
              <LongitudeDegrees>-1.106312982738018035888671875</LongitudeDegrees>
            </Position>
            <AltitudeMeters>1378</AltitudeMeters>
            <DistanceMeters>599929.17993202</DistanceMeters>
          </Trackpoint>
          <Trackpoint>
            <Time>2021-08-04T10:12:00.000Z</Time>
            <Position>
              <LatitudeDegrees>40.9952689893543720245361328125</LatitudeDegrees>
              <LongitudeDegrees>-1.106139309704303741455078125</LongitudeDegrees>
            </Position>
            <AltitudeMeters>1376.199951171875</AltitudeMeters>
            <DistanceMeters>599943.80787417</DistanceMeters>
          </Trackpoint>
          <Trackpoint>
            <Time>2021-08-04T10:12:01.000Z</Time>
            <Position>
              <LatitudeDegrees>40.99527477286756038665771484375</LatitudeDegrees>
              <LongitudeDegrees>-1.10596236772835254669189453125</LongitudeDegrees>
            </Position>
            <AltitudeMeters>1374.800048828125</AltitudeMeters>
            <DistanceMeters>599958.6861568</DistanceMeters>
          </Trackpoint>
          <Trackpoint>
            <Time>2021-08-04T10:12:02.000Z</Time>
            <Position>
              <LatitudeDegrees>40.9952844120562076568603515625</LatitudeDegrees>
              <LongitudeDegrees>-1.10578282736241817474365234375</LongitudeDegrees>
            </Position>
            <AltitudeMeters>1373.199951171875</AltitudeMeters>
            <DistanceMeters>599973.80675551</DistanceMeters>
          </Trackpoint>
          <Trackpoint>
            <Time>2021-08-04T10:12:04.000Z</Time>
            <Position>
              <LatitudeDegrees>40.99532590247690677642822265625</LatitudeDegrees>
              <LongitudeDegrees>-1.10543447546660900115966796875</LongitudeDegrees>
            </Position>
            <AltitudeMeters>1371.800048828125</AltitudeMeters>
            <DistanceMeters>600003.43284824</DistanceMeters>
          </Trackpoint>
          <Trackpoint>
            <Time>2021-08-04T10:12:06.000Z</Time>
            <Position>
              <LatitudeDegrees>40.995463617146015167236328125</LatitudeDegrees>
              <LongitudeDegrees>-1.1051358282566070556640625</LongitudeDegrees>
            </Position>
            <AltitudeMeters>1369.4000244140625</AltitudeMeters>
            <DistanceMeters>600032.8329834</DistanceMeters>
          </Trackpoint>
          <Trackpoint>
            <Time>2021-08-04T10:12:07.000Z</Time>
            <Position>
              <LatitudeDegrees>40.99556721746921539306640625</LatitudeDegrees>
              <LongitudeDegrees>-1.10501487739384174346923828125</LongitudeDegrees>
            </Position>
            <AltitudeMeters>1367.4000244140625</AltitudeMeters>
            <DistanceMeters>600048.20206729</DistanceMeters>
          </Trackpoint>
          <Trackpoint>
            <Time>2021-08-04T10:12:08.000Z</Time>
            <Position>
              <LatitudeDegrees>40.99567987024784088134765625</LatitudeDegrees>
              <LongitudeDegrees>-1.10490406863391399383544921875</LongitudeDegrees>
            </Position>
            <AltitudeMeters>1365</AltitudeMeters>
            <DistanceMeters>600063.81828464</DistanceMeters>
          </Trackpoint>
          <Trackpoint>
            <Time>2021-08-04T10:12:09.000Z</Time>
            <Position>
              <LatitudeDegrees>40.9957849793136119842529296875</LatitudeDegrees>
              <LongitudeDegrees>-1.10479409806430339813232421875</LongitudeDegrees>
            </Position>
            <AltitudeMeters>1363.4000244140625</AltitudeMeters>
            <DistanceMeters>600078.7247628</DistanceMeters>
          </Trackpoint>
          <Trackpoint>
            <Time>2021-08-04T10:12:11.000Z</Time>
            <Position>
              <LatitudeDegrees>40.9959318302571773529052734375</LatitudeDegrees>
              <LongitudeDegrees>-1.10454230569303035736083984375</LongitudeDegrees>
            </Position>
            <AltitudeMeters>1361.800048828125</AltitudeMeters>
            <DistanceMeters>600105.45616772</DistanceMeters>
          </Trackpoint>
          <Trackpoint>
            <Time>2021-08-04T10:12:14.000Z</Time>
            <Position>
              <LatitudeDegrees>40.99597893655300140380859375</LatitudeDegrees>
              <LongitudeDegrees>-1.10407141037285327911376953125</LongitudeDegrees>
            </Position>
            <AltitudeMeters>1359.800048828125</AltitudeMeters>
            <DistanceMeters>600145.35992067</DistanceMeters>
          </Trackpoint>
          <Trackpoint>
            <Time>2021-08-04T10:12:15.000Z</Time>
            <Position>
              <LatitudeDegrees>40.99597231484949588775634765625</LatitudeDegrees>
              <LongitudeDegrees>-1.103904359042644500732421875</LongitudeDegrees>
            </Position>
            <AltitudeMeters>1358.4000244140625</AltitudeMeters>
            <DistanceMeters>600159.41263364</DistanceMeters>
          </Trackpoint>
          <Trackpoint>
            <Time>2021-08-04T10:12:17.000Z</Time>
            <Position>
              <LatitudeDegrees>40.99589645862579345703125</LatitudeDegrees>
              <LongitudeDegrees>-1.10357671044766902923583984375</LongitudeDegrees>
            </Position>
            <AltitudeMeters>1356.5999755859375</AltitudeMeters>
            <DistanceMeters>600188.2030622</DistanceMeters>
          </Trackpoint>
          <Trackpoint>
            <Time>2021-08-04T10:12:19.000Z</Time>
            <Position>
              <LatitudeDegrees>40.9957527928054332733154296875</LatitudeDegrees>
              <LongitudeDegrees>-1.10327864997088909149169921875</LongitudeDegrees>
            </Position>
            <AltitudeMeters>1353.800048828125</AltitudeMeters>
            <DistanceMeters>600217.9122492</DistanceMeters>
          </Trackpoint>
          <Trackpoint>
            <Time>2021-08-04T10:12:20.000Z</Time>
            <Position>
              <LatitudeDegrees>40.9956914372742176055908203125</LatitudeDegrees>
              <LongitudeDegrees>-1.10312283039093017578125</LongitudeDegrees>
            </Position>
            <AltitudeMeters>1352.800048828125</AltitudeMeters>
            <DistanceMeters>600232.67659969</DistanceMeters>
          </Trackpoint>
          <Trackpoint>
            <Time>2021-08-04T10:12:22.000Z</Time>
            <Position>
              <LatitudeDegrees>40.99561876617372035980224609375</LatitudeDegrees>
              <LongitudeDegrees>-1.10277825035154819488525390625</LongitudeDegrees>
            </Position>
            <AltitudeMeters>1351.4000244140625</AltitudeMeters>
            <DistanceMeters>600262.73224404</DistanceMeters>
          </Trackpoint>
          <Trackpoint>
            <Time>2021-08-04T10:12:23.000Z</Time>
            <Position>
              <LatitudeDegrees>40.99559135735034942626953125</LatitudeDegrees>
              <LongitudeDegrees>-1.1026006378233432769775390625</LongitudeDegrees>
            </Position>
            <AltitudeMeters>1350</AltitudeMeters>
            <DistanceMeters>600277.96144242</DistanceMeters>
          </Trackpoint>
          <Trackpoint>
            <Time>2021-08-04T10:12:24.000Z</Time>
            <Position>
              <LatitudeDegrees>40.995553471148014068603515625</LatitudeDegrees>
              <LongitudeDegrees>-1.10242486931383609771728515625</LongitudeDegrees>
            </Position>
            <AltitudeMeters>1348.800048828125</AltitudeMeters>
            <DistanceMeters>600293.31759481</DistanceMeters>
          </Trackpoint>
          <Trackpoint>
            <Time>2021-08-04T10:12:26.000Z</Time>
            <Position>
              <LatitudeDegrees>40.99544995464384555816650390625</LatitudeDegrees>
              <LongitudeDegrees>-1.10208221711218357086181640625</LongitudeDegrees>
            </Position>
            <AltitudeMeters>1346.800048828125</AltitudeMeters>
            <DistanceMeters>600324.32281821</DistanceMeters>
          </Trackpoint>
          <Trackpoint>
            <Time>2021-08-04T10:12:28.000Z</Time>
            <Position>
              <LatitudeDegrees>40.99533361382782459259033203125</LatitudeDegrees>
              <LongitudeDegrees>-1.10174174420535564422607421875</LongitudeDegrees>
            </Position>
            <AltitudeMeters>1344.5999755859375</AltitudeMeters>
            <DistanceMeters>600355.71933402</DistanceMeters>
          </Trackpoint>
          <Trackpoint>
            <Time>2021-08-04T10:12:30.000Z</Time>
            <Position>
              <LatitudeDegrees>40.995209477841854095458984375</LatitudeDegrees>
              <LongitudeDegrees>-1.10140730626881122589111328125</LongitudeDegrees>
            </Position>
            <AltitudeMeters>1343.199951171875</AltitudeMeters>
            <DistanceMeters>600387.02771625</DistanceMeters>
          </Trackpoint>
          <Trackpoint>
            <Time>2021-08-04T10:12:32.000Z</Time>
            <Position>
              <LatitudeDegrees>40.995046198368072509765625</LatitudeDegrees>
              <LongitudeDegrees>-1.10110505484044551849365234375</LongitudeDegrees>
            </Position>
            <AltitudeMeters>1342</AltitudeMeters>
            <DistanceMeters>600418.25234361</DistanceMeters>
          </Trackpoint>
          <Trackpoint>
            <Time>2021-08-04T10:12:34.000Z</Time>
            <Position>
              <LatitudeDegrees>40.994858443737030029296875</LatitudeDegrees>
              <LongitudeDegrees>-1.10083825886249542236328125</LongitudeDegrees>
            </Position>
            <AltitudeMeters>1341.199951171875</AltitudeMeters>
            <DistanceMeters>600448.89591747</DistanceMeters>
          </Trackpoint>
          <Trackpoint>
            <Time>2021-08-04T10:12:35.000Z</Time>
            <Position>
              <LatitudeDegrees>40.99476381205022335052490234375</LatitudeDegrees>
              <LongitudeDegrees>-1.1007093451917171478271484375</LongitudeDegrees>
            </Position>
            <AltitudeMeters>1341</AltitudeMeters>
            <DistanceMeters>600464.00247538</DistanceMeters>
          </Trackpoint>
          <Trackpoint>
            <Time>2021-08-04T10:12:37.000Z</Time>
            <Position>
              <LatitudeDegrees>40.9945727884769439697265625</LatitudeDegrees>
              <LongitudeDegrees>-1.1004585586488246917724609375</LongitudeDegrees>
            </Position>
            <AltitudeMeters>1340</AltitudeMeters>
            <DistanceMeters>600493.93408032</DistanceMeters>
          </Trackpoint>
          <Trackpoint>
            <Time>2021-08-04T10:12:41.000Z</Time>
            <Position>
              <LatitudeDegrees>40.9941776655614376068115234375</LatitudeDegrees>
              <LongitudeDegrees>-1.099968887865543365478515625</LongitudeDegrees>
            </Position>
            <AltitudeMeters>1339</AltitudeMeters>
            <DistanceMeters>600554.15253246</DistanceMeters>
          </Trackpoint>
          <Trackpoint>
            <Time>2021-08-04T10:12:43.000Z</Time>
            <Position>
              <LatitudeDegrees>40.9939989633858203887939453125</LatitudeDegrees>
              <LongitudeDegrees>-1.09969940967857837677001953125</LongitudeDegrees>
            </Position>
            <AltitudeMeters>1338</AltitudeMeters>
            <DistanceMeters>600584.28738998</DistanceMeters>
          </Trackpoint>
          <Trackpoint>
            <Time>2021-08-04T10:12:44.000Z</Time>
            <Position>
              <LatitudeDegrees>40.99392511881887912750244140625</LatitudeDegrees>
              <LongitudeDegrees>-1.099548451602458953857421875</LongitudeDegrees>
            </Position>
            <AltitudeMeters>1337.5999755859375</AltitudeMeters>
            <DistanceMeters>600599.39932676</DistanceMeters>
          </Trackpoint>
          <Trackpoint>
            <Time>2021-08-04T10:12:46.000Z</Time>
            <Position>
              <LatitudeDegrees>40.99380777217447757720947265625</LatitudeDegrees>
              <LongitudeDegrees>-1.0992203839123249053955078125</LongitudeDegrees>
            </Position>
            <AltitudeMeters>1336</AltitudeMeters>
            <DistanceMeters>600629.89816517</DistanceMeters>
          </Trackpoint>
          <Trackpoint>
            <Time>2021-08-04T10:12:47.000Z</Time>
            <Position>
              <LatitudeDegrees>40.99374867975711822509765625</LatitudeDegrees>
              <LongitudeDegrees>-1.09905534423887729644775390625</LongitudeDegrees>
            </Position>
            <AltitudeMeters>1335</AltitudeMeters>
            <DistanceMeters>600645.24372914</DistanceMeters>
          </Trackpoint>
          <Trackpoint>
            <Time>2021-08-04T10:12:48.000Z</Time>
            <Position>
              <LatitudeDegrees>40.99368321709334850311279296875</LatitudeDegrees>
              <LongitudeDegrees>-1.09889307059347629547119140625</LongitudeDegrees>
            </Position>
            <AltitudeMeters>1333.5999755859375</AltitudeMeters>
            <DistanceMeters>600660.70127819</DistanceMeters>
          </Trackpoint>
          <Trackpoint>
            <Time>2021-08-04T10:12:50.000Z</Time>
            <Position>
              <LatitudeDegrees>40.9935523755848407745361328125</LatitudeDegrees>
              <LongitudeDegrees>-1.098565421998500823974609375</LongitudeDegrees>
            </Position>
            <AltitudeMeters>1332</AltitudeMeters>
            <DistanceMeters>600691.84178043</DistanceMeters>
          </Trackpoint>
          <Trackpoint>
            <Time>2021-08-04T10:12:53.000Z</Time>
            <Position>
              <LatitudeDegrees>40.99336084909737110137939453125</LatitudeDegrees>
              <LongitudeDegrees>-1.09806208871304988861083984375</LongitudeDegrees>
            </Position>
            <AltitudeMeters>1330.4000244140625</AltitudeMeters>
            <DistanceMeters>600739.19589105</DistanceMeters>
          </Trackpoint>
          <Trackpoint>
            <Time>2021-08-04T10:12:54.000Z</Time>
            <Position>
              <LatitudeDegrees>40.99328868091106414794921875</LatitudeDegrees>
              <LongitudeDegrees>-1.0979017429053783416748046875</LongitudeDegrees>
            </Position>
            <AltitudeMeters>1328.5999755859375</AltitudeMeters>
            <DistanceMeters>600754.87961772</DistanceMeters>
          </Trackpoint>
          <Trackpoint>
            <Time>2021-08-04T10:12:55.000Z</Time>
            <Position>
              <LatitudeDegrees>40.993203185498714447021484375</LatitudeDegrees>
              <LongitudeDegrees>-1.09775413759052753448486328125</LongitudeDegrees>
            </Position>
            <AltitudeMeters>1327.800048828125</AltitudeMeters>
            <DistanceMeters>600770.51028464</DistanceMeters>
          </Trackpoint>
          <Trackpoint>
            <Time>2021-08-04T10:12:56.000Z</Time>
            <Position>
              <LatitudeDegrees>40.9930975735187530517578125</LatitudeDegrees>
              <LongitudeDegrees>-1.0976264812052249908447265625</LongitudeDegrees>
            </Position>
            <AltitudeMeters>1327.199951171875</AltitudeMeters>
            <DistanceMeters>600786.42179787</DistanceMeters>
          </Trackpoint>
          <Trackpoint>
            <Time>2021-08-04T10:12:58.000Z</Time>
            <Position>
              <LatitudeDegrees>40.9928481280803680419921875</LatitudeDegrees>
              <LongitudeDegrees>-1.0974296741187572479248046875</LongitudeDegrees>
            </Position>
            <AltitudeMeters>1325.4000244140625</AltitudeMeters>
            <DistanceMeters>600818.73577147</DistanceMeters>
          </Trackpoint>
          <Trackpoint>
            <Time>2021-08-04T10:12:59.000Z</Time>
            <Position>
              <LatitudeDegrees>40.9927299432456493377685546875</LatitudeDegrees>
              <LongitudeDegrees>-1.09731894917786121368408203125</LongitudeDegrees>
            </Position>
            <AltitudeMeters>1324.199951171875</AltitudeMeters>
            <DistanceMeters>600834.84665342</DistanceMeters>
          </Trackpoint>
          <Trackpoint>
            <Time>2021-08-04T10:13:00.000Z</Time>
            <Position>
              <LatitudeDegrees>40.99262961186468601226806640625</LatitudeDegrees>
              <LongitudeDegrees>-1.09717947430908679962158203125</LongitudeDegrees>
            </Position>
            <AltitudeMeters>1323</AltitudeMeters>
            <DistanceMeters>600851.0330254</DistanceMeters>
          </Trackpoint>
          <Trackpoint>
            <Time>2021-08-04T10:13:02.000Z</Time>
            <Position>
              <LatitudeDegrees>40.99247328937053680419921875</LatitudeDegrees>
              <LongitudeDegrees>-1.09685693867504596710205078125</LongitudeDegrees>
            </Position>
            <AltitudeMeters>1320.800048828125</AltitudeMeters>
            <DistanceMeters>600883.23446494</DistanceMeters>
          </Trackpoint>
          <Trackpoint>
            <Time>2021-08-04T10:13:03.000Z</Time>
            <Position>
              <LatitudeDegrees>40.99240045063197612762451171875</LatitudeDegrees>
              <LongitudeDegrees>-1.09669365920126438140869140625</LongitudeDegrees>
            </Position>
            <AltitudeMeters>1317.800048828125</AltitudeMeters>
            <DistanceMeters>600899.16781264</DistanceMeters>
          </Trackpoint>
          <Trackpoint>
            <Time>2021-08-04T10:13:04.000Z</Time>
            <Position>
              <LatitudeDegrees>40.9923259355127811431884765625</LatitudeDegrees>
              <LongitudeDegrees>-1.0965331457555294036865234375</LongitudeDegrees>
            </Position>
            <AltitudeMeters>1316.5999755859375</AltitudeMeters>
            <DistanceMeters>600914.99881835</DistanceMeters>
          </Trackpoint>
          <Trackpoint>
            <Time>2021-08-04T10:13:06.000Z</Time>
            <Position>
              <LatitudeDegrees>40.9921740554273128509521484375</LatitudeDegrees>
              <LongitudeDegrees>-1.09621874056756496429443359375</LongitudeDegrees>
            </Position>
            <AltitudeMeters>1315</AltitudeMeters>
            <DistanceMeters>600946.35835398</DistanceMeters>
          </Trackpoint>
          <Trackpoint>
            <Time>2021-08-04T10:13:08.000Z</Time>
            <Position>
              <LatitudeDegrees>40.99200968630611896514892578125</LatitudeDegrees>
              <LongitudeDegrees>-1.09591665677726268768310546875</LongitudeDegrees>
            </Position>
            <AltitudeMeters>1313.800048828125</AltitudeMeters>
            <DistanceMeters>600977.64336518</DistanceMeters>
          </Trackpoint>
          <Trackpoint>
            <Time>2021-08-04T10:13:10.000Z</Time>
            <Position>
              <LatitudeDegrees>40.99185043014585971832275390625</LatitudeDegrees>
              <LongitudeDegrees>-1.09560904093086719512939453125</LongitudeDegrees>
            </Position>
            <AltitudeMeters>1312.5999755859375</AltitudeMeters>
            <DistanceMeters>601008.98115281</DistanceMeters>
          </Trackpoint>
          <Trackpoint>
            <Time>2021-08-04T10:13:12.000Z</Time>
            <Position>
              <LatitudeDegrees>40.991752780973911285400390625</LatitudeDegrees>
              <LongitudeDegrees>-1.09525683335959911346435546875</LongitudeDegrees>
            </Position>
            <AltitudeMeters>1310.5999755859375</AltitudeMeters>
            <DistanceMeters>601040.50339181</DistanceMeters>
          </Trackpoint>
          <Trackpoint>
            <Time>2021-08-04T10:13:14.000Z</Time>
            <Position>
              <LatitudeDegrees>40.99169754423201084136962890625</LatitudeDegrees>
              <LongitudeDegrees>-1.09488450922071933746337890625</LongitudeDegrees>
            </Position>
            <AltitudeMeters>1309.199951171875</AltitudeMeters>
            <DistanceMeters>601072.38113675</DistanceMeters>
          </Trackpoint>
          <Trackpoint>
            <Time>2021-08-04T10:13:17.000Z</Time>
            <Position>
              <LatitudeDegrees>40.99158891476690769195556640625</LatitudeDegrees>
              <LongitudeDegrees>-1.09433591365814208984375</LongitudeDegrees>
            </Position>
            <AltitudeMeters>1308.199951171875</AltitudeMeters>
            <DistanceMeters>601120.02886177</DistanceMeters>
          </Trackpoint>
          <Trackpoint>
            <Time>2021-08-04T10:13:20.000Z</Time>
            <Position>
              <LatitudeDegrees>40.99135824479162693023681640625</LatitudeDegrees>
              <LongitudeDegrees>-1.09384967945516109466552734375</LongitudeDegrees>
            </Position>
            <AltitudeMeters>1305.5999755859375</AltitudeMeters>
            <DistanceMeters>601168.27633068</DistanceMeters>
          </Trackpoint>
          <Trackpoint>
            <Time>2021-08-04T10:13:21.000Z</Time>
            <Position>
              <LatitudeDegrees>40.9912667982280254364013671875</LatitudeDegrees>
              <LongitudeDegrees>-1.09369779936969280242919921875</LongitudeDegrees>
            </Position>
            <AltitudeMeters>1304.199951171875</AltitudeMeters>
            <DistanceMeters>601184.59825812</DistanceMeters>
          </Trackpoint>
          <Trackpoint>
            <Time>2021-08-04T10:13:22.000Z</Time>
            <Position>
              <LatitudeDegrees>40.99117451347410678863525390625</LatitudeDegrees>
              <LongitudeDegrees>-1.09354533255100250244140625</LongitudeDegrees>
            </Position>
            <AltitudeMeters>1302.5999755859375</AltitudeMeters>
            <DistanceMeters>601201.0172685</DistanceMeters>
          </Trackpoint>
          <Trackpoint>
            <Time>2021-08-04T10:13:23.000Z</Time>
            <Position>
              <LatitudeDegrees>40.991088934242725372314453125</LatitudeDegrees>
              <LongitudeDegrees>-1.0933862440288066864013671875</LongitudeDegrees>
            </Position>
            <AltitudeMeters>1300.4000244140625</AltitudeMeters>
            <DistanceMeters>601217.42940274</DistanceMeters>
          </Trackpoint>
          <Trackpoint>
            <Time>2021-08-04T10:13:24.000Z</Time>
            <Position>
              <LatitudeDegrees>40.9910166822373867034912109375</LatitudeDegrees>
              <LongitudeDegrees>-1.0932172648608684539794921875</LongitudeDegrees>
            </Position>
            <AltitudeMeters>1298.800048828125</AltitudeMeters>
            <DistanceMeters>601233.74524331</DistanceMeters>
          </Trackpoint>
          <Trackpoint>
            <Time>2021-08-04T10:13:26.000Z</Time>
            <Position>
              <LatitudeDegrees>40.9909124113619327545166015625</LatitudeDegrees>
              <LongitudeDegrees>-1.09285659156739711761474609375</LongitudeDegrees>
            </Position>
            <AltitudeMeters>1297.4000244140625</AltitudeMeters>
            <DistanceMeters>601266.19265728</DistanceMeters>
          </Trackpoint>
          <Trackpoint>
            <Time>2021-08-04T10:13:27.000Z</Time>
            <Position>
              <LatitudeDegrees>40.99086823873221874237060546875</LatitudeDegrees>
              <LongitudeDegrees>-1.0926711000502109527587890625</LongitudeDegrees>
            </Position>
            <AltitudeMeters>1297</AltitudeMeters>
            <DistanceMeters>601282.53310801</DistanceMeters>
          </Trackpoint>
          <Trackpoint>
            <Time>2021-08-04T10:13:29.000Z</Time>
            <Position>
              <LatitudeDegrees>40.99077737890183925628662109375</LatitudeDegrees>
              <LongitudeDegrees>-1.0922999493777751922607421875</LongitudeDegrees>
            </Position>
            <AltitudeMeters>1296</AltitudeMeters>
            <DistanceMeters>601315.31319262</DistanceMeters>
          </Trackpoint>
          <Trackpoint>
            <Time>2021-08-04T10:13:31.000Z</Time>
            <Position>
              <LatitudeDegrees>40.99072323180735111236572265625</LatitudeDegrees>
              <LongitudeDegrees>-1.0919177345931529998779296875</LongitudeDegrees>
            </Position>
            <AltitudeMeters>1294.800048828125</AltitudeMeters>
            <DistanceMeters>601347.98469819</DistanceMeters>
          </Trackpoint>
          <Trackpoint>
            <Time>2021-08-04T10:13:32.000Z</Time>
            <Position>
              <LatitudeDegrees>40.99071619100868701934814453125</LatitudeDegrees>
              <LongitudeDegrees>-1.091721765697002410888671875</LongitudeDegrees>
            </Position>
            <AltitudeMeters>1293.800048828125</AltitudeMeters>
            <DistanceMeters>601364.46738243</DistanceMeters>
          </Trackpoint>
          <Trackpoint>
            <Time>2021-08-04T10:13:33.000Z</Time>
            <Position>
              <LatitudeDegrees>40.99072356708347797393798828125</LatitudeDegrees>
              <LongitudeDegrees>-1.09152428805828094482421875</LongitudeDegrees>
            </Position>
            <AltitudeMeters>1292.5999755859375</AltitudeMeters>
            <DistanceMeters>601381.07831304</DistanceMeters>
          </Trackpoint>
          <Trackpoint>
            <Time>2021-08-04T10:13:34.000Z</Time>
            <Position>
              <LatitudeDegrees>40.99073681049048900604248046875</LatitudeDegrees>
              <LongitudeDegrees>-1.0913263075053691864013671875</LongitudeDegrees>
            </Position>
            <AltitudeMeters>1291.199951171875</AltitudeMeters>
            <DistanceMeters>601397.77599672</DistanceMeters>
          </Trackpoint>
          <Trackpoint>
            <Time>2021-08-04T10:13:35.000Z</Time>
            <Position>
              <LatitudeDegrees>40.990747623145580291748046875</LatitudeDegrees>
              <LongitudeDegrees>-1.09112799167633056640625</LongitudeDegrees>
            </Position>
            <AltitudeMeters>1289.5999755859375</AltitudeMeters>
            <DistanceMeters>601414.4807093</DistanceMeters>
          </Trackpoint>
          <Trackpoint>
            <Time>2021-08-04T10:13:36.000Z</Time>
            <Position>
              <LatitudeDegrees>40.99075575359165668487548828125</LatitudeDegrees>
              <LongitudeDegrees>-1.09093478880822658538818359375</LongitudeDegrees>
            </Position>
            <AltitudeMeters>1288.4000244140625</AltitudeMeters>
            <DistanceMeters>601430.73777784</DistanceMeters>
          </Trackpoint>
          <Trackpoint>
            <Time>2021-08-04T10:13:39.000Z</Time>
            <Position>
              <LatitudeDegrees>40.99078291095793247222900390625</LatitudeDegrees>
              <LongitudeDegrees>-1.09040983021259307861328125</LongitudeDegrees>
            </Position>
            <AltitudeMeters>1287.4000244140625</AltitudeMeters>
            <DistanceMeters>601474.94440555</DistanceMeters>
          </Trackpoint>
          <Trackpoint>
            <Time>2021-08-04T10:13:43.000Z</Time>
            <Position>
              <LatitudeDegrees>40.99105683155357837677001953125</LatitudeDegrees>
              <LongitudeDegrees>-1.09003406949341297149658203125</LongitudeDegrees>
            </Position>
            <AltitudeMeters>1287.199951171875</AltitudeMeters>
            <DistanceMeters>601518.83152422</DistanceMeters>
          </Trackpoint>
          <Trackpoint>
            <Time>2021-08-04T10:13:45.000Z</Time>
            <Position>
              <LatitudeDegrees>40.9912751801311969757080078125</LatitudeDegrees>
              <LongitudeDegrees>-1.09001018106937408447265625</LongitudeDegrees>
            </Position>
            <AltitudeMeters>1285.199951171875</AltitudeMeters>
            <DistanceMeters>601543.21675671</DistanceMeters>
          </Trackpoint>
          <Trackpoint>
            <Time>2021-08-04T10:13:46.000Z</Time>
            <Position>
              <LatitudeDegrees>40.9913878329098224639892578125</LatitudeDegrees>
              <LongitudeDegrees>-1.0899835266172885894775390625</LongitudeDegrees>
            </Position>
            <AltitudeMeters>1283.5999755859375</AltitudeMeters>
            <DistanceMeters>601555.95317274</DistanceMeters>
          </Trackpoint>
          <Trackpoint>
            <Time>2021-08-04T10:13:47.000Z</Time>
            <Position>
              <LatitudeDegrees>40.99150140769779682159423828125</LatitudeDegrees>
              <LongitudeDegrees>-1.08994203619658946990966796875</LongitudeDegrees>
            </Position>
            <AltitudeMeters>1281.800048828125</AltitudeMeters>
            <DistanceMeters>601569.06617071</DistanceMeters>
          </Trackpoint>
          <Trackpoint>
            <Time>2021-08-04T10:13:48.000Z</Time>
            <Position>
              <LatitudeDegrees>40.991613306105136871337890625</LatitudeDegrees>
              <LongitudeDegrees>-1.0898822732269763946533203125</LongitudeDegrees>
            </Position>
            <AltitudeMeters>1280.199951171875</AltitudeMeters>
            <DistanceMeters>601582.49489464</DistanceMeters>
          </Trackpoint>
          <Trackpoint>
            <Time>2021-08-04T10:13:49.000Z</Time>
            <Position>
              <LatitudeDegrees>40.99172470159828662872314453125</LatitudeDegrees>
              <LongitudeDegrees>-1.089813373982906341552734375</LongitudeDegrees>
            </Position>
            <AltitudeMeters>1279.199951171875</AltitudeMeters>
            <DistanceMeters>601596.17808159</DistanceMeters>
          </Trackpoint>
          <Trackpoint>
            <Time>2021-08-04T10:13:50.000Z</Time>
            <Position>
              <LatitudeDegrees>40.99183986894786357879638671875</LatitudeDegrees>
              <LongitudeDegrees>-1.089753024280071258544921875</LongitudeDegrees>
            </Position>
            <AltitudeMeters>1278.199951171875</AltitudeMeters>
            <DistanceMeters>601609.96252458</DistanceMeters>
          </Trackpoint>
          <Trackpoint>
            <Time>2021-08-04T10:13:51.000Z</Time>
            <Position>
              <LatitudeDegrees>40.99195671267807483673095703125</LatitudeDegrees>
              <LongitudeDegrees>-1.08971924521028995513916015625</LongitudeDegrees>
            </Position>
            <AltitudeMeters>1277.199951171875</AltitudeMeters>
            <DistanceMeters>601623.27338969</DistanceMeters>
          </Trackpoint>
          <Trackpoint>
            <Time>2021-08-04T10:13:52.000Z</Time>
            <Position>
              <LatitudeDegrees>40.9920744784176349639892578125</LatitudeDegrees>
              <LongitudeDegrees>-1.08972410671412944793701171875</LongitudeDegrees>
            </Position>
            <AltitudeMeters>1275.4000244140625</AltitudeMeters>
            <DistanceMeters>601636.38707627</DistanceMeters>
          </Trackpoint>
          <Trackpoint>
            <Time>2021-08-04T10:13:53.000Z</Time>
            <Position>
              <LatitudeDegrees>40.99218905903398990631103515625</LatitudeDegrees>
              <LongitudeDegrees>-1.08977020718157291412353515625</LongitudeDegrees>
            </Position>
            <AltitudeMeters>1273.5999755859375</AltitudeMeters>
            <DistanceMeters>601649.71522932</DistanceMeters>
          </Trackpoint>
          <Trackpoint>
            <Time>2021-08-04T10:13:54.000Z</Time>
            <Position>
              <LatitudeDegrees>40.99229400046169757843017578125</LatitudeDegrees>
              <LongitudeDegrees>-1.0898487456142902374267578125</LongitudeDegrees>
            </Position>
            <AltitudeMeters>1272</AltitudeMeters>
            <DistanceMeters>601663.12982449</DistanceMeters>
          </Trackpoint>
          <Trackpoint>
            <Time>2021-08-04T10:13:55.000Z</Time>
            <Position>
              <LatitudeDegrees>40.99238871596753597259521484375</LatitudeDegrees>
              <LongitudeDegrees>-1.08994605951011180877685546875</LongitudeDegrees>
            </Position>
            <AltitudeMeters>1270.5999755859375</AltitudeMeters>
            <DistanceMeters>601676.47016731</DistanceMeters>
          </Trackpoint>
          <Trackpoint>
            <Time>2021-08-04T10:13:56.000Z</Time>
            <Position>
              <LatitudeDegrees>40.992477647960186004638671875</LatitudeDegrees>
              <LongitudeDegrees>-1.09004949219524860382080078125</LongitudeDegrees>
            </Position>
            <AltitudeMeters>1270</AltitudeMeters>
            <DistanceMeters>601689.64156923</DistanceMeters>
          </Trackpoint>
          <Trackpoint>
            <Time>2021-08-04T10:13:57.000Z</Time>
            <Position>
              <LatitudeDegrees>40.992565155029296875</LatitudeDegrees>
              <LongitudeDegrees>-1.0901518352329730987548828125</LongitudeDegrees>
            </Position>
            <AltitudeMeters>1269.5999755859375</AltitudeMeters>
            <DistanceMeters>601702.63349707</DistanceMeters>
          </Trackpoint>
          <Trackpoint>
            <Time>2021-08-04T10:14:00.000Z</Time>
            <Position>
              <LatitudeDegrees>40.99282708950340747833251953125</LatitudeDegrees>
              <LongitudeDegrees>-1.0904401727020740509033203125</LongitudeDegrees>
            </Position>
            <AltitudeMeters>1268.4000244140625</AltitudeMeters>
            <DistanceMeters>601740.53748435</DistanceMeters>
          </Trackpoint>
          <Trackpoint>
            <Time>2021-08-04T10:14:06.000Z</Time>
            <Position>
              <LatitudeDegrees>40.99338716827332973480224609375</LatitudeDegrees>
              <LongitudeDegrees>-1.09033548273146152496337890625</LongitudeDegrees>
            </Position>
            <AltitudeMeters>1267.4000244140625</AltitudeMeters>
            <DistanceMeters>601803.49273641</DistanceMeters>
          </Trackpoint>
          <Trackpoint>
            <Time>2021-08-04T10:14:08.000Z</Time>
            <Position>
              <LatitudeDegrees>40.993497557938098907470703125</LatitudeDegrees>
              <LongitudeDegrees>-1.090078242123126983642578125</LongitudeDegrees>
            </Position>
            <AltitudeMeters>1265.4000244140625</AltitudeMeters>
            <DistanceMeters>601828.35198643</DistanceMeters>
          </Trackpoint>
          <Trackpoint>
            <Time>2021-08-04T10:14:09.000Z</Time>
            <Position>
              <LatitudeDegrees>40.99355782382190227508544921875</LatitudeDegrees>
              <LongitudeDegrees>-1.089950501918792724609375</LongitudeDegrees>
            </Position>
            <AltitudeMeters>1264.199951171875</AltitudeMeters>
            <DistanceMeters>601841.00731874</DistanceMeters>
          </Trackpoint>
          <Trackpoint>
            <Time>2021-08-04T10:14:11.000Z</Time>
            <Position>
              <LatitudeDegrees>40.99371523596346378326416015625</LatitudeDegrees>
              <LongitudeDegrees>-1.08972628600895404815673828125</LongitudeDegrees>
            </Position>
            <AltitudeMeters>1263</AltitudeMeters>
            <DistanceMeters>601866.73219293</DistanceMeters>
          </Trackpoint>
          <Trackpoint>
            <Time>2021-08-04T10:14:13.000Z</Time>
            <Position>
              <LatitudeDegrees>40.9939081035554409027099609375</LatitudeDegrees>
              <LongitudeDegrees>-1.0895436443388462066650390625</LongitudeDegrees>
            </Position>
            <AltitudeMeters>1260.4000244140625</AltitudeMeters>
            <DistanceMeters>601893.11849533</DistanceMeters>
          </Trackpoint>
          <Trackpoint>
            <Time>2021-08-04T10:14:14.000Z</Time>
            <Position>
              <LatitudeDegrees>40.99401530809700489044189453125</LatitudeDegrees>
              <LongitudeDegrees>-1.08946703374385833740234375</LongitudeDegrees>
            </Position>
            <AltitudeMeters>1259</AltitudeMeters>
            <DistanceMeters>601906.67538088</DistanceMeters>
          </Trackpoint>
          <Trackpoint>
            <Time>2021-08-04T10:14:15.000Z</Time>
            <Position>
              <LatitudeDegrees>40.99412620067596435546875</LatitudeDegrees>
              <LongitudeDegrees>-1.08939419500529766082763671875</LongitudeDegrees>
            </Position>
            <AltitudeMeters>1258.4000244140625</AltitudeMeters>
            <DistanceMeters>601920.45130504</DistanceMeters>
          </Trackpoint>
          <Trackpoint>
            <Time>2021-08-04T10:14:16.000Z</Time>
            <Position>
              <LatitudeDegrees>40.99423273466527462005615234375</LatitudeDegrees>
              <LongitudeDegrees>-1.089312471449375152587890625</LongitudeDegrees>
            </Position>
            <AltitudeMeters>1257.800048828125</AltitudeMeters>
            <DistanceMeters>601934.15295783</DistanceMeters>
          </Trackpoint>
          <Trackpoint>
            <Time>2021-08-04T10:14:20.000Z</Time>
            <Position>
              <LatitudeDegrees>40.9944971837103366851806640625</LatitudeDegrees>
              <LongitudeDegrees>-1.08885004185140132904052734375</LongitudeDegrees>
            </Position>
            <AltitudeMeters>1256.800048828125</AltitudeMeters>
            <DistanceMeters>601982.89193638</DistanceMeters>
          </Trackpoint>
          <Trackpoint>
            <Time>2021-08-04T10:14:24.000Z</Time>
            <Position>
              <LatitudeDegrees>40.9943675994873046875</LatitudeDegrees>
              <LongitudeDegrees>-1.08842574991285800933837890625</LongitudeDegrees>
            </Position>
            <AltitudeMeters>1255.5999755859375</AltitudeMeters>
            <DistanceMeters>602021.34336647</DistanceMeters>
          </Trackpoint>
          <Trackpoint>
            <Time>2021-08-04T10:14:25.000Z</Time>
            <Position>
              <LatitudeDegrees>40.9942960180342197418212890625</LatitudeDegrees>
              <LongitudeDegrees>-1.08834813348948955535888671875</LongitudeDegrees>
            </Position>
            <AltitudeMeters>1255</AltitudeMeters>
            <DistanceMeters>602031.6387556</DistanceMeters>
          </Trackpoint>
          <Trackpoint>
            <Time>2021-08-04T10:14:26.000Z</Time>
            <Position>
              <LatitudeDegrees>40.9942205809056758880615234375</LatitudeDegrees>
              <LongitudeDegrees>-1.08827210962772369384765625</LongitudeDegrees>
            </Position>
            <AltitudeMeters>1254.4000244140625</AltitudeMeters>
            <DistanceMeters>602042.18800496</DistanceMeters>
          </Trackpoint>
          <Trackpoint>
            <Time>2021-08-04T10:14:28.000Z</Time>
            <Position>
              <LatitudeDegrees>40.9940656833350658416748046875</LatitudeDegrees>
              <LongitudeDegrees>-1.088108830153942108154296875</LongitudeDegrees>
            </Position>
            <AltitudeMeters>1253.199951171875</AltitudeMeters>
            <DistanceMeters>602064.21945224</DistanceMeters>
          </Trackpoint>
          <Trackpoint>
            <Time>2021-08-04T10:14:30.000Z</Time>
            <Position>
              <LatitudeDegrees>40.9939054213464260101318359375</LatitudeDegrees>
              <LongitudeDegrees>-1.08793951570987701416015625</LongitudeDegrees>
            </Position>
            <AltitudeMeters>1252</AltitudeMeters>
            <DistanceMeters>602087.03378121</DistanceMeters>
          </Trackpoint>
          <Trackpoint>
            <Time>2021-08-04T10:14:34.000Z</Time>
            <Position>
              <LatitudeDegrees>40.99358481355011463165283203125</LatitudeDegrees>
              <LongitudeDegrees>-1.08757674694061279296875</LongitudeDegrees>
            </Position>
            <AltitudeMeters>1250.800048828125</AltitudeMeters>
            <DistanceMeters>602133.96072072</DistanceMeters>
          </Trackpoint>
          <Trackpoint>
            <Time>2021-08-04T10:14:37.000Z</Time>
            <Position>
              <LatitudeDegrees>40.9933441691100597381591796875</LatitudeDegrees>
              <LongitudeDegrees>-1.08728011138737201690673828125</LongitudeDegrees>
            </Position>
            <AltitudeMeters>1249.5999755859375</AltitudeMeters>
            <DistanceMeters>602170.54489503</DistanceMeters>
          </Trackpoint>
          <Trackpoint>
            <Time>2021-08-04T10:14:40.000Z</Time>
            <Position>
              <LatitudeDegrees>40.993271581828594207763671875</LatitudeDegrees>
              <LongitudeDegrees>-1.0868699848651885986328125</LongitudeDegrees>
            </Position>
            <AltitudeMeters>1247.5999755859375</AltitudeMeters>
            <DistanceMeters>602205.93389477</DistanceMeters>
          </Trackpoint>
          <Trackpoint>
            <Time>2021-08-04T10:14:41.000Z</Time>
            <Position>
              <LatitudeDegrees>40.99327803589403629302978515625</LatitudeDegrees>
              <LongitudeDegrees>-1.08672271482646465301513671875</LongitudeDegrees>
            </Position>
            <AltitudeMeters>1245.800048828125</AltitudeMeters>
            <DistanceMeters>602218.32677741</DistanceMeters>
          </Trackpoint>
          <Trackpoint>
            <Time>2021-08-04T10:14:42.000Z</Time>
            <Position>
              <LatitudeDegrees>40.993287675082683563232421875</LatitudeDegrees>
              <LongitudeDegrees>-1.08657469041645526885986328125</LongitudeDegrees>
            </Position>
            <AltitudeMeters>1244</AltitudeMeters>
            <DistanceMeters>602230.80860055</DistanceMeters>
          </Trackpoint>
          <Trackpoint>
            <Time>2021-08-04T10:14:43.000Z</Time>
            <Position>
              <LatitudeDegrees>40.99330184049904346466064453125</LatitudeDegrees>
              <LongitudeDegrees>-1.08642674982547760009765625</LongitudeDegrees>
            </Position>
            <AltitudeMeters>1242.4000244140625</AltitudeMeters>
            <DistanceMeters>602243.33627905</DistanceMeters>
          </Trackpoint>
          <Trackpoint>
            <Time>2021-08-04T10:14:44.000Z</Time>
            <Position>
              <LatitudeDegrees>40.99332799203693866729736328125</LatitudeDegrees>
              <LongitudeDegrees>-1.086280904710292816162109375</LongitudeDegrees>
            </Position>
            <AltitudeMeters>1241.199951171875</AltitudeMeters>
            <DistanceMeters>602255.92973896</DistanceMeters>
          </Trackpoint>
          <Trackpoint>
            <Time>2021-08-04T10:14:46.000Z</Time>
            <Position>
              <LatitudeDegrees>40.99343578331172466278076171875</LatitudeDegrees>
              <LongitudeDegrees>-1.08601427637040615081787109375</LongitudeDegrees>
            </Position>
            <AltitudeMeters>1239.800048828125</AltitudeMeters>
            <DistanceMeters>602281.33974734</DistanceMeters>
          </Trackpoint>
          <Trackpoint>
            <Time>2021-08-04T10:14:49.000Z</Time>
            <Position>
              <LatitudeDegrees>40.99370836280286312103271484375</LatitudeDegrees>
              <LongitudeDegrees>-1.0857255198061466217041015625</LongitudeDegrees>
            </Position>
            <AltitudeMeters>1238.5999755859375</AltitudeMeters>
            <DistanceMeters>602320.1841762</DistanceMeters>
          </Trackpoint>
          <Trackpoint>
            <Time>2021-08-04T10:14:50.000Z</Time>
            <Position>
              <LatitudeDegrees>40.99380609579384326934814453125</LatitudeDegrees>
              <LongitudeDegrees>-1.085643880069255828857421875</LongitudeDegrees>
            </Position>
            <AltitudeMeters>1238</AltitudeMeters>
            <DistanceMeters>602333.04371701</DistanceMeters>
          </Trackpoint>
          <Trackpoint>
            <Time>2021-08-04T10:14:53.000Z</Time>
            <Position>
              <LatitudeDegrees>40.9940693713724613189697265625</LatitudeDegrees>
              <LongitudeDegrees>-1.08542150817811489105224609375</LongitudeDegrees>
            </Position>
            <AltitudeMeters>1237.4000244140625</AltitudeMeters>
            <DistanceMeters>602367.7949228</DistanceMeters>
          </Trackpoint>
          <Trackpoint>
            <Time>2021-08-04T10:15:00.000Z</Time>
            <Position>
              <LatitudeDegrees>40.99454127252101898193359375</LatitudeDegrees>
              <LongitudeDegrees>-1.0850190930068492889404296875</LongitudeDegrees>
            </Position>
            <AltitudeMeters>1236.5999755859375</AltitudeMeters>
            <DistanceMeters>602430.25747917</DistanceMeters>
          </Trackpoint>
          <Trackpoint>
            <Time>2021-08-04T10:15:01.000Z</Time>
            <Position>
              <LatitudeDegrees>40.99459432996809482574462890625</LatitudeDegrees>
              <LongitudeDegrees>-1.08497341163456439971923828125</LongitudeDegrees>
            </Position>
            <AltitudeMeters>1236.4000244140625</AltitudeMeters>
            <DistanceMeters>602437.3003628</DistanceMeters>
          </Trackpoint>
          <Trackpoint>
            <Time>2021-08-04T10:15:04.000Z</Time>
            <Position>
              <LatitudeDegrees>40.99473573267459869384765625</LatitudeDegrees>
              <LongitudeDegrees>-1.08485053293406963348388671875</LongitudeDegrees>
            </Position>
            <AltitudeMeters>1235.199951171875</AltitudeMeters>
            <DistanceMeters>602456.12189034</DistanceMeters>
          </Trackpoint>
          <Trackpoint>
            <Time>2021-08-04T10:15:09.000Z</Time>
            <Position>
              <LatitudeDegrees>40.9949320368468761444091796875</LatitudeDegrees>
              <LongitudeDegrees>-1.0846885107457637786865234375</LongitudeDegrees>
            </Position>
            <AltitudeMeters>1234.4000244140625</AltitudeMeters>
            <DistanceMeters>602481.86378362</DistanceMeters>
          </Trackpoint>
          <Trackpoint>
            <Time>2021-08-04T10:15:12.000Z</Time>
            <Position>
              <LatitudeDegrees>40.99504980258643627166748046875</LatitudeDegrees>
              <LongitudeDegrees>-1.08457275666296482086181640625</LongitudeDegrees>
            </Position>
            <AltitudeMeters>1234.199951171875</AltitudeMeters>
            <DistanceMeters>602498.18460453</DistanceMeters>
          </Trackpoint>
          <Trackpoint>
            <Time>2021-08-04T10:15:15.000Z</Time>
            <Position>
              <LatitudeDegrees>40.99518659524619579315185546875</LatitudeDegrees>
              <LongitudeDegrees>-1.08456403948366641998291015625</LongitudeDegrees>
            </Position>
            <AltitudeMeters>1233.199951171875</AltitudeMeters>
            <DistanceMeters>602513.42743454</DistanceMeters>
          </Trackpoint>
          <Trackpoint>
            <Time>2021-08-04T10:15:18.000Z</Time>
            <Position>
              <LatitudeDegrees>40.99530545063316822052001953125</LatitudeDegrees>
              <LongitudeDegrees>-1.08456990681588649749755859375</LongitudeDegrees>
            </Position>
            <AltitudeMeters>1232</AltitudeMeters>
            <DistanceMeters>602526.66551195</DistanceMeters>
          </Trackpoint>
          <Trackpoint>
            <Time>2021-08-04T10:15:19.000Z</Time>
            <Position>
              <LatitudeDegrees>40.9953390620648860931396484375</LatitudeDegrees>
              <LongitudeDegrees>-1.0845520533621311187744140625</LongitudeDegrees>
            </Position>
            <AltitudeMeters>1231.800048828125</AltitudeMeters>
            <DistanceMeters>602530.69491358</DistanceMeters>
          </Trackpoint>
          <Trackpoint>
            <Time>2021-08-04T10:15:23.000Z</Time>
            <Position>
              <LatitudeDegrees>40.99546772427856922149658203125</LatitudeDegrees>
              <LongitudeDegrees>-1.0845131613314151763916015625</LongitudeDegrees>
            </Position>
            <AltitudeMeters>1231.4000244140625</AltitudeMeters>
            <DistanceMeters>602545.3832282</DistanceMeters>
          </Trackpoint>
          <Trackpoint>
            <Time>2021-08-04T10:15:27.000Z</Time>
            <Position>
              <LatitudeDegrees>40.99557283334434032440185546875</LatitudeDegrees>
              <LongitudeDegrees>-1.084626652300357818603515625</LongitudeDegrees>
            </Position>
            <AltitudeMeters>1230.800048828125</AltitudeMeters>
            <DistanceMeters>602560.47483474</DistanceMeters>
          </Trackpoint>
          <Trackpoint>
            <Time>2021-08-04T10:15:34.000Z</Time>
            <Position>
              <LatitudeDegrees>40.9957299940288066864013671875</LatitudeDegrees>
              <LongitudeDegrees>-1.08480803668498992919921875</LongitudeDegrees>
            </Position>
            <AltitudeMeters>1229.5999755859375</AltitudeMeters>
            <DistanceMeters>602583.67303372</DistanceMeters>
          </Trackpoint>
          <Trackpoint>
            <Time>2021-08-04T10:15:36.000Z</Time>
            <Position>
              <LatitudeDegrees>40.99576712585985660552978515625</LatitudeDegrees>
              <LongitudeDegrees>-1.0848529636859893798828125</LongitudeDegrees>
            </Position>
            <AltitudeMeters>1228.5999755859375</AltitudeMeters>
            <DistanceMeters>602589.26913103</DistanceMeters>
          </Trackpoint>
          <Trackpoint>
            <Time>2021-08-04T10:15:38.000Z</Time>
            <Position>
              <LatitudeDegrees>40.9958057664334774017333984375</LatitudeDegrees>
              <LongitudeDegrees>-1.08487509191036224365234375</LongitudeDegrees>
            </Position>
            <AltitudeMeters>1227.800048828125</AltitudeMeters>
            <DistanceMeters>602593.95443954</DistanceMeters>
          </Trackpoint>
          <Trackpoint>
            <Time>2021-08-04T10:15:40.000Z</Time>
            <Position>
              <LatitudeDegrees>40.99583904258906841278076171875</LatitudeDegrees>
              <LongitudeDegrees>-1.084865033626556396484375</LongitudeDegrees>
            </Position>
            <AltitudeMeters>1227.199951171875</AltitudeMeters>
            <DistanceMeters>602597.7531317</DistanceMeters>
          </Trackpoint>
          <Trackpoint>
            <Time>2021-08-04T10:15:43.000Z</Time>
            <Position>
              <LatitudeDegrees>40.9958922676742076873779296875</LatitudeDegrees>
              <LongitudeDegrees>-1.08484424650669097900390625</LongitudeDegrees>
            </Position>
            <AltitudeMeters>1227.199951171875</AltitudeMeters>
            <DistanceMeters>602603.92986814</DistanceMeters>
          </Trackpoint>
          <Trackpoint>
            <Time>2021-08-04T10:15:55.000Z</Time>
            <Position>
              <LatitudeDegrees>40.99603928625583648681640625</LatitudeDegrees>
              <LongitudeDegrees>-1.0847619362175464630126953125</LongitudeDegrees>
            </Position>
            <AltitudeMeters>1227</AltitudeMeters>
            <DistanceMeters>602621.69401887</DistanceMeters>
          </Trackpoint>
          <Trackpoint>
            <Time>2021-08-04T10:15:58.000Z</Time>
            <Position>
              <LatitudeDegrees>40.996055044233798980712890625</LatitudeDegrees>
              <LongitudeDegrees>-1.08479118905961513519287109375</LongitudeDegrees>
            </Position>
            <AltitudeMeters>1227.199951171875</AltitudeMeters>
            <DistanceMeters>602624.7140151</DistanceMeters>
          </Trackpoint>
          <Trackpoint>
            <Time>2021-08-04T10:26:47.000Z</Time>
            <Position>
              <LatitudeDegrees>40.99605144001543521881103515625</LatitudeDegrees>
              <LongitudeDegrees>-1.08479605056345462799072265625</LongitudeDegrees>
            </Position>
            <AltitudeMeters>1226.5999755859375</AltitudeMeters>
            <DistanceMeters>602625.28417539</DistanceMeters>
          </Trackpoint>
          <Trackpoint>
            <Time>2021-08-04T10:26:53.000Z</Time>
            <Position>
              <LatitudeDegrees>40.99616895429790019989013671875</LatitudeDegrees>
              <LongitudeDegrees>-1.08482589013874530792236328125</LongitudeDegrees>
            </Position>
            <AltitudeMeters>1226.199951171875</AltitudeMeters>
            <DistanceMeters>602638.60216178</DistanceMeters>
          </Trackpoint>
          <Trackpoint>
            <Time>2021-08-04T10:26:58.000Z</Time>
            <Position>
              <LatitudeDegrees>40.99627456627786159515380859375</LatitudeDegrees>
              <LongitudeDegrees>-1.08499989844858646392822265625</LongitudeDegrees>
            </Position>
            <AltitudeMeters>1225.800048828125</AltitudeMeters>
            <DistanceMeters>602657.35977086</DistanceMeters>
          </Trackpoint>
          <Trackpoint>
            <Time>2021-08-04T10:27:00.000Z</Time>
            <Position>
              <LatitudeDegrees>40.99633156321942806243896484375</LatitudeDegrees>
              <LongitudeDegrees>-1.08508690260350704193115234375</LongitudeDegrees>
            </Position>
            <AltitudeMeters>1225</AltitudeMeters>
            <DistanceMeters>602667.0375781</DistanceMeters>
          </Trackpoint>
          <Trackpoint>
            <Time>2021-08-04T10:27:01.000Z</Time>
            <Position>
              <LatitudeDegrees>40.99637162871658802032470703125</LatitudeDegrees>
              <LongitudeDegrees>-1.0851200111210346221923828125</LongitudeDegrees>
            </Position>
            <AltitudeMeters>1224.5999755859375</AltitudeMeters>
            <DistanceMeters>602672.29247807</DistanceMeters>
          </Trackpoint>
          <Trackpoint>
            <Time>2021-08-04T10:27:04.000Z</Time>
            <Position>
              <LatitudeDegrees>40.996534824371337890625</LatitudeDegrees>
              <LongitudeDegrees>-1.085110120475292205810546875</LongitudeDegrees>
            </Position>
            <AltitudeMeters>1223.5999755859375</AltitudeMeters>
            <DistanceMeters>602690.47513901</DistanceMeters>
          </Trackpoint>
          <Trackpoint>
            <Time>2021-08-04T10:27:05.000Z</Time>
            <Position>
              <LatitudeDegrees>40.9965903125703334808349609375</LatitudeDegrees>
              <LongitudeDegrees>-1.08507801778614521026611328125</LongitudeDegrees>
            </Position>
            <AltitudeMeters>1223.4000244140625</AltitudeMeters>
            <DistanceMeters>602697.21467049</DistanceMeters>
          </Trackpoint>
          <Trackpoint>
            <Time>2021-08-04T10:27:10.000Z</Time>
            <Position>
              <LatitudeDegrees>40.9968746267259120941162109375</LatitudeDegrees>
              <LongitudeDegrees>-1.08489277772605419158935546875</LongitudeDegrees>
            </Position>
            <AltitudeMeters>1222.199951171875</AltitudeMeters>
            <DistanceMeters>602732.47841713</DistanceMeters>
          </Trackpoint>
          <Trackpoint>
            <Time>2021-08-04T10:27:14.000Z</Time>
            <Position>
              <LatitudeDegrees>40.9970928914844989776611328125</LatitudeDegrees>
              <LongitudeDegrees>-1.08468624763190746307373046875</LongitudeDegrees>
            </Position>
            <AltitudeMeters>1221.4000244140625</AltitudeMeters>
            <DistanceMeters>602762.33087455</DistanceMeters>
          </Trackpoint>
          <Trackpoint>
            <Time>2021-08-04T10:27:18.000Z</Time>
            <Position>
              <LatitudeDegrees>40.99722222425043582916259765625</LatitudeDegrees>
              <LongitudeDegrees>-1.08451022766530513763427734375</LongitudeDegrees>
            </Position>
            <AltitudeMeters>1221.800048828125</AltitudeMeters>
            <DistanceMeters>602782.96699277</DistanceMeters>
          </Trackpoint>
          <Trackpoint>
            <Time>2021-08-04T10:27:34.000Z</Time>
            <Position>
              <LatitudeDegrees>40.99700798280537128448486328125</LatitudeDegrees>
              <LongitudeDegrees>-1.08384671621024608612060546875</LongitudeDegrees>
            </Position>
            <AltitudeMeters>1222</AltitudeMeters>
            <DistanceMeters>602843.59135547</DistanceMeters>
          </Trackpoint>
          <Trackpoint>
            <Time>2021-08-04T10:27:50.000Z</Time>
            <Position>
              <LatitudeDegrees>40.99677027203142642974853515625</LatitudeDegrees>
              <LongitudeDegrees>-1.0831780917942523956298828125</LongitudeDegrees>
            </Position>
            <AltitudeMeters>1222</AltitudeMeters>
            <DistanceMeters>602905.67842484</DistanceMeters>
          </Trackpoint>
          <Trackpoint>
            <Time>2021-08-04T10:28:05.000Z</Time>
            <Position>
              <LatitudeDegrees>40.996557958424091339111328125</LatitudeDegrees>
              <LongitudeDegrees>-1.08248046599328517913818359375</LongitudeDegrees>
            </Position>
            <AltitudeMeters>1222</AltitudeMeters>
            <DistanceMeters>602968.867403</DistanceMeters>
          </Trackpoint>
          <Trackpoint>
            <Time>2021-08-04T10:28:20.000Z</Time>
            <Position>
              <LatitudeDegrees>40.99635578691959381103515625</LatitudeDegrees>
              <LongitudeDegrees>-1.08177244663238525390625</LongitudeDegrees>
            </Position>
            <AltitudeMeters>1222</AltitudeMeters>
            <DistanceMeters>603032.45902182</DistanceMeters>
          </Trackpoint>
          <Trackpoint>
            <Time>2021-08-04T10:28:29.000Z</Time>
            <Position>
              <LatitudeDegrees>40.99624992348253726959228515625</LatitudeDegrees>
              <LongitudeDegrees>-1.08135829679667949676513671875</LongitudeDegrees>
            </Position>
            <AltitudeMeters>1222.800048828125</AltitudeMeters>
            <DistanceMeters>603069.19099566</DistanceMeters>
          </Trackpoint>
          <Trackpoint>
            <Time>2021-08-04T10:28:43.000Z</Time>
            <Position>
              <LatitudeDegrees>40.9960645996034145355224609375</LatitudeDegrees>
              <LongitudeDegrees>-1.08066947199404239654541015625</LongitudeDegrees>
            </Position>
            <AltitudeMeters>1223.4000244140625</AltitudeMeters>
            <DistanceMeters>603130.62251434</DistanceMeters>
          </Trackpoint>
          <Trackpoint>
            <Time>2021-08-04T10:28:53.000Z</Time>
            <Position>
              <LatitudeDegrees>40.99591095931828022003173828125</LatitudeDegrees>
              <LongitudeDegrees>-1.0801512189209461212158203125</LongitudeDegrees>
            </Position>
            <AltitudeMeters>1223.199951171875</AltitudeMeters>
            <DistanceMeters>603177.39670573</DistanceMeters>
          </Trackpoint>
          <Trackpoint>
            <Time>2021-08-04T10:28:55.000Z</Time>
            <Position>
              <LatitudeDegrees>40.99588514305651187896728515625</LatitudeDegrees>
              <LongitudeDegrees>-1.08003563247621059417724609375</LongitudeDegrees>
            </Position>
            <AltitudeMeters>1223</AltitudeMeters>
            <DistanceMeters>603187.52229154</DistanceMeters>
          </Trackpoint>
          <Trackpoint>
            <Time>2021-08-04T10:29:05.000Z</Time>
            <Position>
              <LatitudeDegrees>40.9956810437142848968505859375</LatitudeDegrees>
              <LongitudeDegrees>-1.0793472267687320709228515625</LongitudeDegrees>
            </Position>
            <AltitudeMeters>1222.199951171875</AltitudeMeters>
            <DistanceMeters>603249.65435895</DistanceMeters>
          </Trackpoint>
          <Trackpoint>
            <Time>2021-08-04T10:29:08.000Z</Time>
            <Position>
              <LatitudeDegrees>40.99561507813632488250732421875</LatitudeDegrees>
              <LongitudeDegrees>-1.07911731116473674774169921875</LongitudeDegrees>
            </Position>
            <AltitudeMeters>1221.800048828125</AltitudeMeters>
            <DistanceMeters>603270.31693416</DistanceMeters>
          </Trackpoint>
          <Trackpoint>
            <Time>2021-08-04T10:29:12.000Z</Time>
            <Position>
              <LatitudeDegrees>40.9955234639346599578857421875</LatitudeDegrees>
              <LongitudeDegrees>-1.0787953622639179229736328125</LongitudeDegrees>
            </Position>
            <AltitudeMeters>1221.199951171875</AltitudeMeters>
            <DistanceMeters>603299.22099291</DistanceMeters>
          </Trackpoint>
          <Trackpoint>
            <Time>2021-08-04T10:29:19.000Z</Time>
            <Position>
              <LatitudeDegrees>40.99535741843283176422119140625</LatitudeDegrees>
              <LongitudeDegrees>-1.0782160051167011260986328125</LongitudeDegrees>
            </Position>
            <AltitudeMeters>1220.800048828125</AltitudeMeters>
            <DistanceMeters>603351.28141112</DistanceMeters>
          </Trackpoint>
          <Trackpoint>
            <Time>2021-08-04T10:29:25.000Z</Time>
            <Position>
              <LatitudeDegrees>40.995210818946361541748046875</LatitudeDegrees>
              <LongitudeDegrees>-1.0776969976723194122314453125</LongitudeDegrees>
            </Position>
            <AltitudeMeters>1219.800048828125</AltitudeMeters>
            <DistanceMeters>603397.83460957</DistanceMeters>
          </Trackpoint>
          <Trackpoint>
            <Time>2021-08-04T10:29:31.000Z</Time>
            <Position>
              <LatitudeDegrees>40.9950631298124790191650390625</LatitudeDegrees>
              <LongitudeDegrees>-1.0771541856229305267333984375</LongitudeDegrees>
            </Position>
            <AltitudeMeters>1218.5999755859375</AltitudeMeters>
            <DistanceMeters>603446.30689733</DistanceMeters>
          </Trackpoint>
          <Trackpoint>
            <Time>2021-08-04T10:29:39.000Z</Time>
            <Position>
              <LatitudeDegrees>40.99485098384320735931396484375</LatitudeDegrees>
              <LongitudeDegrees>-1.0764246247708797454833984375</LongitudeDegrees>
            </Position>
            <AltitudeMeters>1217.5999755859375</AltitudeMeters>
            <DistanceMeters>603511.98637615</DistanceMeters>
          </Trackpoint>
          <Trackpoint>
            <Time>2021-08-04T10:29:43.000Z</Time>
            <Position>
              <LatitudeDegrees>40.99475308321416378021240234375</LatitudeDegrees>
              <LongitudeDegrees>-1.07607954181730747222900390625</LongitudeDegrees>
            </Position>
            <AltitudeMeters>1218</AltitudeMeters>
            <DistanceMeters>603542.95619322</DistanceMeters>
          </Trackpoint>
          <Trackpoint>
            <Time>2021-08-04T10:29:52.000Z</Time>
            <Position>
              <LatitudeDegrees>40.99455627612769603729248046875</LatitudeDegrees>
              <LongitudeDegrees>-1.075338833034038543701171875</LongitudeDegrees>
            </Position>
            <AltitudeMeters>1217.5999755859375</AltitudeMeters>
            <DistanceMeters>603608.92431052</DistanceMeters>
          </Trackpoint>
          <Trackpoint>
            <Time>2021-08-04T10:29:57.000Z</Time>
            <Position>
              <LatitudeDegrees>40.99445720203220844268798828125</LatitudeDegrees>
              <LongitudeDegrees>-1.07498042285442352294921875</LongitudeDegrees>
            </Position>
            <AltitudeMeters>1218.800048828125</AltitudeMeters>
            <DistanceMeters>603640.98931487</DistanceMeters>
          </Trackpoint>
          <Trackpoint>
            <Time>2021-08-04T10:30:08.000Z</Time>
            <Position>
              <LatitudeDegrees>40.99426223896443843841552734375</LatitudeDegrees>
              <LongitudeDegrees>-1.07430224306881427764892578125</LongitudeDegrees>
            </Position>
            <AltitudeMeters>1219.5999755859375</AltitudeMeters>
            <DistanceMeters>603701.95441426</DistanceMeters>
          </Trackpoint>
          <Trackpoint>
            <Time>2021-08-04T10:30:11.000Z</Time>
            <Position>
              <LatitudeDegrees>40.994213707745075225830078125</LatitudeDegrees>
              <LongitudeDegrees>-1.07412924058735370635986328125</LongitudeDegrees>
            </Position>
            <AltitudeMeters>1220</AltitudeMeters>
            <DistanceMeters>603717.45921014</DistanceMeters>
          </Trackpoint>
          <Trackpoint>
            <Time>2021-08-04T10:30:24.000Z</Time>
            <Position>
              <LatitudeDegrees>40.9940184094011783599853515625</LatitudeDegrees>
              <LongitudeDegrees>-1.07341946102678775787353515625</LongitudeDegrees>
            </Position>
            <AltitudeMeters>1221</AltitudeMeters>
            <DistanceMeters>603780.92510475</DistanceMeters>
          </Trackpoint>
          <Trackpoint>
            <Time>2021-08-04T10:30:36.000Z</Time>
            <Position>
              <LatitudeDegrees>40.99382721818983554840087890625</LatitudeDegrees>
              <LongitudeDegrees>-1.07274304144084453582763671875</LongitudeDegrees>
            </Position>
            <AltitudeMeters>1221.199951171875</AltitudeMeters>
            <DistanceMeters>603841.60395913</DistanceMeters>
          </Trackpoint>
          <Trackpoint>
            <Time>2021-08-04T10:30:47.000Z</Time>
            <Position>
              <LatitudeDegrees>40.99362789653241634368896484375</LatitudeDegrees>
              <LongitudeDegrees>-1.0720385424792766571044921875</LongitudeDegrees>
            </Position>
            <AltitudeMeters>1220.800048828125</AltitudeMeters>
            <DistanceMeters>603904.80936933</DistanceMeters>
          </Trackpoint>
          <Trackpoint>
            <Time>2021-08-04T10:30:58.000Z</Time>
            <Position>
              <LatitudeDegrees>40.99342220462858676910400390625</LatitudeDegrees>
              <LongitudeDegrees>-1.07130805961787700653076171875</LongitudeDegrees>
            </Position>
            <AltitudeMeters>1220.4000244140625</AltitudeMeters>
            <DistanceMeters>603970.30780319</DistanceMeters>
          </Trackpoint>
          <Trackpoint>
            <Time>2021-08-04T10:31:08.000Z</Time>
            <Position>
              <LatitudeDegrees>40.99321533925831317901611328125</LatitudeDegrees>
              <LongitudeDegrees>-1.07056894339621067047119140625</LongitudeDegrees>
            </Position>
            <AltitudeMeters>1220.5999755859375</AltitudeMeters>
            <DistanceMeters>604036.53174249</DistanceMeters>
          </Trackpoint>
          <Trackpoint>
            <Time>2021-08-04T10:31:16.000Z</Time>
            <Position>
              <LatitudeDegrees>40.99305340088903903961181640625</LatitudeDegrees>
              <LongitudeDegrees>-1.06999696232378482818603515625</LongitudeDegrees>
            </Position>
            <AltitudeMeters>1221</AltitudeMeters>
            <DistanceMeters>604087.8527669</DistanceMeters>
          </Trackpoint>
          <Trackpoint>
            <Time>2021-08-04T10:31:26.000Z</Time>
            <Position>
              <LatitudeDegrees>40.99285139702260494232177734375</LatitudeDegrees>
              <LongitudeDegrees>-1.06927410699427127838134765625</LongitudeDegrees>
            </Position>
            <AltitudeMeters>1221.199951171875</AltitudeMeters>
            <DistanceMeters>604152.60815647</DistanceMeters>
          </Trackpoint>
          <Trackpoint>
            <Time>2021-08-04T10:31:36.000Z</Time>
            <Position>
              <LatitudeDegrees>40.9926617145538330078125</LatitudeDegrees>
              <LongitudeDegrees>-1.068596430122852325439453125</LongitudeDegrees>
            </Position>
            <AltitudeMeters>1221.5999755859375</AltitudeMeters>
            <DistanceMeters>604213.32814495</DistanceMeters>
          </Trackpoint>
          <Trackpoint>
            <Time>2021-08-04T10:31:46.000Z</Time>
            <Position>
              <LatitudeDegrees>40.99246934987604618072509765625</LatitudeDegrees>
              <LongitudeDegrees>-1.06791682541370391845703125</LongitudeDegrees>
            </Position>
            <AltitudeMeters>1222</AltitudeMeters>
            <DistanceMeters>604274.30435224</DistanceMeters>
          </Trackpoint>
          <Trackpoint>
            <Time>2021-08-04T10:31:55.000Z</Time>
            <Position>
              <LatitudeDegrees>40.99227673374116420745849609375</LatitudeDegrees>
              <LongitudeDegrees>-1.06721735559403896331787109375</LongitudeDegrees>
            </Position>
            <AltitudeMeters>1221.199951171875</AltitudeMeters>
            <DistanceMeters>604336.85575465</DistanceMeters>
          </Trackpoint>
          <Trackpoint>
            <Time>2021-08-04T10:32:04.000Z</Time>
            <Position>
              <LatitudeDegrees>40.99208696745336055755615234375</LatitudeDegrees>
              <LongitudeDegrees>-1.0665420256555080413818359375</LongitudeDegrees>
            </Position>
            <AltitudeMeters>1221</AltitudeMeters>
            <DistanceMeters>604397.3947081</DistanceMeters>
          </Trackpoint>
          <Trackpoint>
            <Time>2021-08-04T10:32:13.000Z</Time>
            <Position>
              <LatitudeDegrees>40.9918853826820850372314453125</LatitudeDegrees>
              <LongitudeDegrees>-1.0658221878111362457275390625</LongitudeDegrees>
            </Position>
            <AltitudeMeters>1221.4000244140625</AltitudeMeters>
            <DistanceMeters>604461.8969211</DistanceMeters>
          </Trackpoint>
          <Trackpoint>
            <Time>2021-08-04T10:32:21.000Z</Time>
            <Position>
              <LatitudeDegrees>40.99169167689979076385498046875</LatitudeDegrees>
              <LongitudeDegrees>-1.0651298426091670989990234375</LongitudeDegrees>
            </Position>
            <AltitudeMeters>1222</AltitudeMeters>
            <DistanceMeters>604523.92891619</DistanceMeters>
          </Trackpoint>
          <Trackpoint>
            <Time>2021-08-04T10:32:29.000Z</Time>
            <Position>
              <LatitudeDegrees>40.9914934448897838592529296875</LatitudeDegrees>
              <LongitudeDegrees>-1.06441260315477848052978515625</LongitudeDegrees>
            </Position>
            <AltitudeMeters>1222.5999755859375</AltitudeMeters>
            <DistanceMeters>604588.09763565</DistanceMeters>
          </Trackpoint>
          <Trackpoint>
            <Time>2021-08-04T10:32:37.000Z</Time>
            <Position>
              <LatitudeDegrees>40.99128104746341705322265625</LatitudeDegrees>
              <LongitudeDegrees>-1.063667871057987213134765625</LongitudeDegrees>
            </Position>
            <AltitudeMeters>1222.5999755859375</AltitudeMeters>
            <DistanceMeters>604654.98105295</DistanceMeters>
          </Trackpoint>
          <Trackpoint>
            <Time>2021-08-04T10:32:45.000Z</Time>
            <Position>
              <LatitudeDegrees>40.9910810552537441253662109375</LatitudeDegrees>
              <LongitudeDegrees>-1.062919534742832183837890625</LongitudeDegrees>
            </Position>
            <AltitudeMeters>1222.800048828125</AltitudeMeters>
            <DistanceMeters>604721.67457606</DistanceMeters>
          </Trackpoint>
          <Trackpoint>
            <Time>2021-08-04T10:32:53.000Z</Time>
            <Position>
              <LatitudeDegrees>40.99085197784006595611572265625</LatitudeDegrees>
              <LongitudeDegrees>-1.06216290034353733062744140625</LongitudeDegrees>
            </Position>
            <AltitudeMeters>1222.5999755859375</AltitudeMeters>
            <DistanceMeters>604790.16385675</DistanceMeters>
          </Trackpoint>
          <Trackpoint>
            <Time>2021-08-04T10:32:58.000Z</Time>
            <Position>
              <LatitudeDegrees>40.990660451352596282958984375</LatitudeDegrees>
              <LongitudeDegrees>-1.0616681165993213653564453125</LongitudeDegrees>
            </Position>
            <AltitudeMeters>1221.5999755859375</AltitudeMeters>
            <DistanceMeters>604836.87922536</DistanceMeters>
          </Trackpoint>
          <Trackpoint>
            <Time>2021-08-04T10:33:04.000Z</Time>
            <Position>
              <LatitudeDegrees>40.990368425846099853515625</LatitudeDegrees>
              <LongitudeDegrees>-1.06105573475360870361328125</LongitudeDegrees>
            </Position>
            <AltitudeMeters>1220.5999755859375</AltitudeMeters>
            <DistanceMeters>604897.73424718</DistanceMeters>
          </Trackpoint>
          <Trackpoint>
            <Time>2021-08-04T10:33:07.000Z</Time>
            <Position>
              <LatitudeDegrees>40.99022735841572284698486328125</LatitudeDegrees>
              <LongitudeDegrees>-1.06071232818067073822021484375</LongitudeDegrees>
            </Position>
            <AltitudeMeters>1218.800048828125</AltitudeMeters>
            <DistanceMeters>604930.58065404</DistanceMeters>
          </Trackpoint>
          <Trackpoint>
            <Time>2021-08-04T10:33:08.000Z</Time>
            <Position>
              <LatitudeDegrees>40.99017790518701076507568359375</LatitudeDegrees>
              <LongitudeDegrees>-1.060595400631427764892578125</LongitudeDegrees>
            </Position>
            <AltitudeMeters>1218.199951171875</AltitudeMeters>
            <DistanceMeters>604941.84121945</DistanceMeters>
          </Trackpoint>
          <Trackpoint>
            <Time>2021-08-04T10:33:09.000Z</Time>
            <Position>
              <LatitudeDegrees>40.9901297092437744140625</LatitudeDegrees>
              <LongitudeDegrees>-1.06047763489186763763427734375</LongitudeDegrees>
            </Position>
            <AltitudeMeters>1217.4000244140625</AltitudeMeters>
            <DistanceMeters>604953.09576885</DistanceMeters>
          </Trackpoint>
          <Trackpoint>
            <Time>2021-08-04T10:33:11.000Z</Time>
            <Position>
              <LatitudeDegrees>40.99003893323242664337158203125</LatitudeDegrees>
              <LongitudeDegrees>-1.060238666832447052001953125</LongitudeDegrees>
            </Position>
            <AltitudeMeters>1216.4000244140625</AltitudeMeters>
            <DistanceMeters>604975.57134463</DistanceMeters>
          </Trackpoint>
          <Trackpoint>
            <Time>2021-08-04T10:33:13.000Z</Time>
            <Position>
              <LatitudeDegrees>40.9899572096765041351318359375</LatitudeDegrees>
              <LongitudeDegrees>-1.05999249033629894256591796875</LongitudeDegrees>
            </Position>
            <AltitudeMeters>1215.199951171875</AltitudeMeters>
            <DistanceMeters>604998.16533236</DistanceMeters>
          </Trackpoint>
          <Trackpoint>
            <Time>2021-08-04T10:33:16.000Z</Time>
            <Position>
              <LatitudeDegrees>40.98984145559370517730712890625</LatitudeDegrees>
              <LongitudeDegrees>-1.05962100438773632049560546875</LongitudeDegrees>
            </Position>
            <AltitudeMeters>1214</AltitudeMeters>
            <DistanceMeters>605031.92991663</DistanceMeters>
          </Trackpoint>
          <Trackpoint>
            <Time>2021-08-04T10:33:21.000Z</Time>
            <Position>
              <LatitudeDegrees>40.98966694436967372894287109375</LatitudeDegrees>
              <LongitudeDegrees>-1.05898766778409481048583984375</LongitudeDegrees>
            </Position>
            <AltitudeMeters>1213</AltitudeMeters>
            <DistanceMeters>605088.5732519</DistanceMeters>
          </Trackpoint>
          <Trackpoint>
            <Time>2021-08-04T10:33:25.000Z</Time>
            <Position>
              <LatitudeDegrees>40.989523194730281829833984375</LatitudeDegrees>
              <LongitudeDegrees>-1.0584705881774425506591796875</LongitudeDegrees>
            </Position>
            <AltitudeMeters>1211.800048828125</AltitudeMeters>
            <DistanceMeters>605134.86774707</DistanceMeters>
          </Trackpoint>
          <Trackpoint>
            <Time>2021-08-04T10:33:28.000Z</Time>
            <Position>
              <LatitudeDegrees>40.9894127212464809417724609375</LatitudeDegrees>
              <LongitudeDegrees>-1.05807906948029994964599609375</LongitudeDegrees>
            </Position>
            <AltitudeMeters>1210.4000244140625</AltitudeMeters>
            <DistanceMeters>605169.98394333</DistanceMeters>
          </Trackpoint>
          <Trackpoint>
            <Time>2021-08-04T10:33:31.000Z</Time>
            <Position>
              <LatitudeDegrees>40.9893037565052509307861328125</LatitudeDegrees>
              <LongitudeDegrees>-1.05768285691738128662109375</LongitudeDegrees>
            </Position>
            <AltitudeMeters>1209.199951171875</AltitudeMeters>
            <DistanceMeters>605205.41196198</DistanceMeters>
          </Trackpoint>
          <Trackpoint>
            <Time>2021-08-04T10:33:34.000Z</Time>
            <Position>
              <LatitudeDegrees>40.98921180702745914459228515625</LatitudeDegrees>
              <LongitudeDegrees>-1.057278178632259368896484375</LongitudeDegrees>
            </Position>
            <AltitudeMeters>1208.4000244140625</AltitudeMeters>
            <DistanceMeters>605240.91763549</DistanceMeters>
          </Trackpoint>
          <Trackpoint>
            <Time>2021-08-04T10:33:38.000Z</Time>
            <Position>
              <LatitudeDegrees>40.98910686559975147247314453125</LatitudeDegrees>
              <LongitudeDegrees>-1.056718267500400543212890625</LongitudeDegrees>
            </Position>
            <AltitudeMeters>1207.199951171875</AltitudeMeters>
            <DistanceMeters>605289.386663</DistanceMeters>
          </Trackpoint>
          <Trackpoint>
            <Time>2021-08-04T10:33:40.000Z</Time>
            <Position>
              <LatitudeDegrees>40.98905892111361026763916015625</LatitudeDegrees>
              <LongitudeDegrees>-1.05642599053680896759033203125</LongitudeDegrees>
            </Position>
            <AltitudeMeters>1205.5999755859375</AltitudeMeters>
            <DistanceMeters>605314.51543507</DistanceMeters>
          </Trackpoint>
          <Trackpoint>
            <Time>2021-08-04T10:33:42.000Z</Time>
            <Position>
              <LatitudeDegrees>40.98900997079908847808837890625</LatitudeDegrees>
              <LongitudeDegrees>-1.05613212101161479949951171875</LongitudeDegrees>
            </Position>
            <AltitudeMeters>1203.800048828125</AltitudeMeters>
            <DistanceMeters>605339.79897065</DistanceMeters>
          </Trackpoint>
          <Trackpoint>
            <Time>2021-08-04T10:33:44.000Z</Time>
            <Position>
              <LatitudeDegrees>40.988958589732646942138671875</LatitudeDegrees>
              <LongitudeDegrees>-1.05583749711513519287109375</LongitudeDegrees>
            </Position>
            <AltitudeMeters>1202.5999755859375</AltitudeMeters>
            <DistanceMeters>605365.20382558</DistanceMeters>
          </Trackpoint>
          <Trackpoint>
            <Time>2021-08-04T10:33:47.000Z</Time>
            <Position>
              <LatitudeDegrees>40.9888826496899127960205078125</LatitudeDegrees>
              <LongitudeDegrees>-1.05539803393185138702392578125</LongitudeDegrees>
            </Position>
            <AltitudeMeters>1201</AltitudeMeters>
            <DistanceMeters>605403.08028667</DistanceMeters>
          </Trackpoint>
          <Trackpoint>
            <Time>2021-08-04T10:33:51.000Z</Time>
            <Position>
              <LatitudeDegrees>40.988773517310619354248046875</LatitudeDegrees>
              <LongitudeDegrees>-1.0548177547752857208251953125</LongitudeDegrees>
            </Position>
            <AltitudeMeters>1200</AltitudeMeters>
            <DistanceMeters>605453.32273575</DistanceMeters>
          </Trackpoint>
          <Trackpoint>
            <Time>2021-08-04T10:33:53.000Z</Time>
            <Position>
              <LatitudeDegrees>40.98870939575135707855224609375</LatitudeDegrees>
              <LongitudeDegrees>-1.05452447198331356048583984375</LongitudeDegrees>
            </Position>
            <AltitudeMeters>1198.5999755859375</AltitudeMeters>
            <DistanceMeters>605478.97572487</DistanceMeters>
          </Trackpoint>
          <Trackpoint>
            <Time>2021-08-04T10:33:56.000Z</Time>
            <Position>
              <LatitudeDegrees>40.98861048929393291473388671875</LatitudeDegrees>
              <LongitudeDegrees>-1.0540761239826679229736328125</LongitudeDegrees>
            </Position>
            <AltitudeMeters>1197.4000244140625</AltitudeMeters>
            <DistanceMeters>605518.2193419</DistanceMeters>
          </Trackpoint>
          <Trackpoint>
            <Time>2021-08-04T10:33:59.000Z</Time>
            <Position>
              <LatitudeDegrees>40.98850470967590808868408203125</LatitudeDegrees>
              <LongitudeDegrees>-1.05361998081207275390625</LongitudeDegrees>
            </Position>
            <AltitudeMeters>1196.199951171875</AltitudeMeters>
            <DistanceMeters>605558.31014304</DistanceMeters>
          </Trackpoint>
          <Trackpoint>
            <Time>2021-08-04T10:34:01.000Z</Time>
            <Position>
              <LatitudeDegrees>40.9884300269186496734619140625</LatitudeDegrees>
              <LongitudeDegrees>-1.05331311933696269989013671875</LongitudeDegrees>
            </Position>
            <AltitudeMeters>1194.800048828125</AltitudeMeters>
            <DistanceMeters>605585.39825762</DistanceMeters>
          </Trackpoint>
          <Trackpoint>
            <Time>2021-08-04T10:34:03.000Z</Time>
            <Position>
              <LatitudeDegrees>40.9883607923984527587890625</LatitudeDegrees>
              <LongitudeDegrees>-1.05300164781510829925537109375</LongitudeDegrees>
            </Position>
            <AltitudeMeters>1193.199951171875</AltitudeMeters>
            <DistanceMeters>605612.67771143</DistanceMeters>
          </Trackpoint>
          <Trackpoint>
            <Time>2021-08-04T10:34:05.000Z</Time>
            <Position>
              <LatitudeDegrees>40.98829046823084354400634765625</LatitudeDegrees>
              <LongitudeDegrees>-1.0526894219219684600830078125</LongitudeDegrees>
            </Position>
            <AltitudeMeters>1191.800048828125</AltitudeMeters>
            <DistanceMeters>605640.05249825</DistanceMeters>
          </Trackpoint>
          <Trackpoint>
            <Time>2021-08-04T10:34:08.000Z</Time>
            <Position>
              <LatitudeDegrees>40.98818150348961353302001953125</LatitudeDegrees>
              <LongitudeDegrees>-1.0522292554378509521484375</LongitudeDegrees>
            </Position>
            <AltitudeMeters>1190.5999755859375</AltitudeMeters>
            <DistanceMeters>605680.57133657</DistanceMeters>
          </Trackpoint>
          <Trackpoint>
            <Time>2021-08-04T10:34:13.000Z</Time>
            <Position>
              <LatitudeDegrees>40.98800984211266040802001953125</LatitudeDegrees>
              <LongitudeDegrees>-1.05147144757211208343505859375</LongitudeDegrees>
            </Position>
            <AltitudeMeters>1190.4000244140625</AltitudeMeters>
            <DistanceMeters>605747.04427231</DistanceMeters>
          </Trackpoint>
          <Trackpoint>
            <Time>2021-08-04T10:34:18.000Z</Time>
            <Position>
              <LatitudeDegrees>40.98783751018345355987548828125</LatitudeDegrees>
              <LongitudeDegrees>-1.0507454909384250640869140625</LongitudeDegrees>
            </Position>
            <AltitudeMeters>1190</AltitudeMeters>
            <DistanceMeters>605810.98122302</DistanceMeters>
          </Trackpoint>
          <Trackpoint>
            <Time>2021-08-04T10:34:23.000Z</Time>
            <Position>
              <LatitudeDegrees>40.98767875693738460540771484375</LatitudeDegrees>
              <LongitudeDegrees>-1.050049960613250732421875</LongitudeDegrees>
            </Position>
            <AltitudeMeters>1189.800048828125</AltitudeMeters>
            <DistanceMeters>605872.03010008</DistanceMeters>
          </Trackpoint>
          <Trackpoint>
            <Time>2021-08-04T10:34:24.000Z</Time>
            <Position>
              <LatitudeDegrees>40.98764707334339618682861328125</LatitudeDegrees>
              <LongitudeDegrees>-1.0499150119721889495849609375</LongitudeDegrees>
            </Position>
            <AltitudeMeters>1189.4000244140625</AltitudeMeters>
            <DistanceMeters>605883.90311669</DistanceMeters>
          </Trackpoint>
          <Trackpoint>
            <Time>2021-08-04T10:34:30.000Z</Time>
            <Position>
              <LatitudeDegrees>40.9874677844345569610595703125</LatitudeDegrees>
              <LongitudeDegrees>-1.0491190664470195770263671875</LongitudeDegrees>
            </Position>
            <AltitudeMeters>1188.5999755859375</AltitudeMeters>
            <DistanceMeters>605953.68961258</DistanceMeters>
          </Trackpoint>
          <Trackpoint>
            <Time>2021-08-04T10:34:36.000Z</Time>
            <Position>
              <LatitudeDegrees>40.987283885478973388671875</LatitudeDegrees>
              <LongitudeDegrees>-1.04832865297794342041015625</LongitudeDegrees>
            </Position>
            <AltitudeMeters>1188.4000244140625</AltitudeMeters>
            <DistanceMeters>606023.18039492</DistanceMeters>
          </Trackpoint>
          <Trackpoint>
            <Time>2021-08-04T10:34:42.000Z</Time>
            <Position>
              <LatitudeDegrees>40.987040139734745025634765625</LatitudeDegrees>
              <LongitudeDegrees>-1.04757227003574371337890625</LongitudeDegrees>
            </Position>
            <AltitudeMeters>1187.199951171875</AltitudeMeters>
            <DistanceMeters>606092.27808213</DistanceMeters>
          </Trackpoint>
          <Trackpoint>
            <Time>2021-08-04T10:34:48.000Z</Time>
            <Position>
              <LatitudeDegrees>40.98670142702758312225341796875</LatitudeDegrees>
              <LongitudeDegrees>-1.0468824394047260284423828125</LongitudeDegrees>
            </Position>
            <AltitudeMeters>1186.5999755859375</AltitudeMeters>
            <DistanceMeters>606161.41816383</DistanceMeters>
          </Trackpoint>
          <Trackpoint>
            <Time>2021-08-04T10:34:51.000Z</Time>
            <Position>
              <LatitudeDegrees>40.98652523942291736602783203125</LatitudeDegrees>
              <LongitudeDegrees>-1.046532578766345977783203125</LongitudeDegrees>
            </Position>
            <AltitudeMeters>1186.199951171875</AltitudeMeters>
            <DistanceMeters>606196.75353803</DistanceMeters>
          </Trackpoint>
          <Trackpoint>
            <Time>2021-08-04T10:34:53.000Z</Time>
            <Position>
              <LatitudeDegrees>40.98640504293143749237060546875</LatitudeDegrees>
              <LongitudeDegrees>-1.04629461653530597686767578125</LongitudeDegrees>
            </Position>
            <AltitudeMeters>1184.800048828125</AltitudeMeters>
            <DistanceMeters>606220.80956532</DistanceMeters>
          </Trackpoint>
          <Trackpoint>
            <Time>2021-08-04T10:34:56.000Z</Time>
            <Position>
              <LatitudeDegrees>40.986228771507740020751953125</LatitudeDegrees>
              <LongitudeDegrees>-1.04591407813131809234619140625</LongitudeDegrees>
            </Position>
            <AltitudeMeters>1183.199951171875</AltitudeMeters>
            <DistanceMeters>606258.32141348</DistanceMeters>
          </Trackpoint>
          <Trackpoint>
            <Time>2021-08-04T10:34:58.000Z</Time>
            <Position>
              <LatitudeDegrees>40.98611268214881420135498046875</LatitudeDegrees>
              <LongitudeDegrees>-1.04565306566655635833740234375</LongitudeDegrees>
            </Position>
            <AltitudeMeters>1182</AltitudeMeters>
            <DistanceMeters>606283.77474066</DistanceMeters>
          </Trackpoint>
          <Trackpoint>
            <Time>2021-08-04T10:35:00.000Z</Time>
            <Position>
              <LatitudeDegrees>40.9859918989241123199462890625</LatitudeDegrees>
              <LongitudeDegrees>-1.0453928075730800628662109375</LongitudeDegrees>
            </Position>
            <AltitudeMeters>1180.800048828125</AltitudeMeters>
            <DistanceMeters>606309.4430376</DistanceMeters>
          </Trackpoint>
          <Trackpoint>
            <Time>2021-08-04T10:35:03.000Z</Time>
            <Position>
              <LatitudeDegrees>40.98583390004932880401611328125</LatitudeDegrees>
              <LongitudeDegrees>-1.044990308582782745361328125</LongitudeDegrees>
            </Position>
            <AltitudeMeters>1179.800048828125</AltitudeMeters>
            <DistanceMeters>606347.55953087</DistanceMeters>
          </Trackpoint>
          <Trackpoint>
            <Time>2021-08-04T10:35:08.000Z</Time>
            <Position>
              <LatitudeDegrees>40.98557372577488422393798828125</LatitudeDegrees>
              <LongitudeDegrees>-1.04432134889066219329833984375</LongitudeDegrees>
            </Position>
            <AltitudeMeters>1178.5999755859375</AltitudeMeters>
            <DistanceMeters>606410.78608211</DistanceMeters>
          </Trackpoint>
          <Trackpoint>
            <Time>2021-08-04T10:35:10.000Z</Time>
            <Position>
              <LatitudeDegrees>40.98546727560460567474365234375</LatitudeDegrees>
              <LongitudeDegrees>-1.04405078105628490447998046875</LongitudeDegrees>
            </Position>
            <AltitudeMeters>1177.4000244140625</AltitudeMeters>
            <DistanceMeters>606436.42146475</DistanceMeters>
          </Trackpoint>
          <Trackpoint>
            <Time>2021-08-04T10:35:12.000Z</Time>
            <Position>
              <LatitudeDegrees>40.98536275327205657958984375</LatitudeDegrees>
              <LongitudeDegrees>-1.04378088377416133880615234375</LongitudeDegrees>
            </Position>
            <AltitudeMeters>1175.800048828125</AltitudeMeters>
            <DistanceMeters>606461.90811849</DistanceMeters>
          </Trackpoint>
          <Trackpoint>
            <Time>2021-08-04T10:35:14.000Z</Time>
            <Position>
              <LatitudeDegrees>40.985259823501110076904296875</LatitudeDegrees>
              <LongitudeDegrees>-1.04351618327200412750244140625</LongitudeDegrees>
            </Position>
            <AltitudeMeters>1174.5999755859375</AltitudeMeters>
            <DistanceMeters>606486.92524339</DistanceMeters>
          </Trackpoint>
          <Trackpoint>
            <Time>2021-08-04T10:35:18.000Z</Time>
            <Position>
              <LatitudeDegrees>40.98505639471113681793212890625</LatitudeDegrees>
              <LongitudeDegrees>-1.04300421662628650665283203125</LongitudeDegrees>
            </Position>
            <AltitudeMeters>1173.5999755859375</AltitudeMeters>
            <DistanceMeters>606535.53565733</DistanceMeters>
          </Trackpoint>
          <Trackpoint>
            <Time>2021-08-04T10:35:24.000Z</Time>
            <Position>
              <LatitudeDegrees>40.98478834144771099090576171875</LatitudeDegrees>
              <LongitudeDegrees>-1.04226359166204929351806640625</LongitudeDegrees>
            </Position>
            <AltitudeMeters>1173.5999755859375</AltitudeMeters>
            <DistanceMeters>606604.54533705</DistanceMeters>
          </Trackpoint>
          <Trackpoint>
            <Time>2021-08-04T10:35:30.000Z</Time>
            <Position>
              <LatitudeDegrees>40.984604358673095703125</LatitudeDegrees>
              <LongitudeDegrees>-1.04152682237327098846435546875</LongitudeDegrees>
            </Position>
            <AltitudeMeters>1173.800048828125</AltitudeMeters>
            <DistanceMeters>606669.74779092</DistanceMeters>
          </Trackpoint>
          <Trackpoint>
            <Time>2021-08-04T10:35:36.000Z</Time>
            <Position>
              <LatitudeDegrees>40.98447938449680805206298828125</LatitudeDegrees>
              <LongitudeDegrees>-1.04079474695026874542236328125</LongitudeDegrees>
            </Position>
            <AltitudeMeters>1173.800048828125</AltitudeMeters>
            <DistanceMeters>606732.81017056</DistanceMeters>
          </Trackpoint>
          <Trackpoint>
            <Time>2021-08-04T10:35:42.000Z</Time>
            <Position>
              <LatitudeDegrees>40.9843205474317073822021484375</LatitudeDegrees>
              <LongitudeDegrees>-1.0400793515145778656005859375</LongitudeDegrees>
            </Position>
            <AltitudeMeters>1173.5999755859375</AltitudeMeters>
            <DistanceMeters>606795.46405856</DistanceMeters>
          </Trackpoint>
          <Trackpoint>
            <Time>2021-08-04T10:35:49.000Z</Time>
            <Position>
              <LatitudeDegrees>40.98417461849749088287353515625</LatitudeDegrees>
              <LongitudeDegrees>-1.03927477262914180755615234375</LongitudeDegrees>
            </Position>
            <AltitudeMeters>1173.5999755859375</AltitudeMeters>
            <DistanceMeters>606864.9893331</DistanceMeters>
          </Trackpoint>
          <Trackpoint>
            <Time>2021-08-04T10:35:53.000Z</Time>
            <Position>
              <LatitudeDegrees>40.98406263627111911773681640625</LatitudeDegrees>
              <LongitudeDegrees>-1.03881619870662689208984375</LongitudeDegrees>
            </Position>
            <AltitudeMeters>1172.199951171875</AltitudeMeters>
            <DistanceMeters>606905.48498722</DistanceMeters>
          </Trackpoint>
          <Trackpoint>
            <Time>2021-08-04T10:35:55.000Z</Time>
            <Position>
              <LatitudeDegrees>40.98397563211619853973388671875</LatitudeDegrees>
              <LongitudeDegrees>-1.038586534559726715087890625</LongitudeDegrees>
            </Position>
            <AltitudeMeters>1170.800048828125</AltitudeMeters>
            <DistanceMeters>606927.07509019</DistanceMeters>
          </Trackpoint>
          <Trackpoint>
            <Time>2021-08-04T10:35:57.000Z</Time>
            <Position>
              <LatitudeDegrees>40.983873121440410614013671875</LatitudeDegrees>
              <LongitudeDegrees>-1.0383610613644123077392578125</LongitudeDegrees>
            </Position>
            <AltitudeMeters>1169.5999755859375</AltitudeMeters>
            <DistanceMeters>606949.19040163</DistanceMeters>
          </Trackpoint>
          <Trackpoint>
            <Time>2021-08-04T10:36:03.000Z</Time>
            <Position>
              <LatitudeDegrees>40.98356324248015880584716796875</LatitudeDegrees>
              <LongitudeDegrees>-1.0377292335033416748046875</LongitudeDegrees>
            </Position>
            <AltitudeMeters>1169.5999755859375</AltitudeMeters>
            <DistanceMeters>607012.4976666</DistanceMeters>
          </Trackpoint>
          <Trackpoint>
            <Time>2021-08-04T10:36:06.000Z</Time>
            <Position>
              <LatitudeDegrees>40.98342041485011577606201171875</LatitudeDegrees>
              <LongitudeDegrees>-1.03743494488298892974853515625</LongitudeDegrees>
            </Position>
            <AltitudeMeters>1170.5999755859375</AltitudeMeters>
            <DistanceMeters>607041.89365502</DistanceMeters>
          </Trackpoint>
          <Trackpoint>
            <Time>2021-08-04T10:36:08.000Z</Time>
            <Position>
              <LatitudeDegrees>40.9833314828574657440185546875</LatitudeDegrees>
              <LongitudeDegrees>-1.0372482798993587493896484375</LongitudeDegrees>
            </Position>
            <AltitudeMeters>1171.800048828125</AltitudeMeters>
            <DistanceMeters>607060.4399388</DistanceMeters>
          </Trackpoint>
          <Trackpoint>
            <Time>2021-08-04T10:36:10.000Z</Time>
            <Position>
              <LatitudeDegrees>40.98324523307383060455322265625</LatitudeDegrees>
              <LongitudeDegrees>-1.03707410395145416259765625</LongitudeDegrees>
            </Position>
            <AltitudeMeters>1173.4000244140625</AltitudeMeters>
            <DistanceMeters>607077.94214675</DistanceMeters>
          </Trackpoint>
          <Trackpoint>
            <Time>2021-08-04T10:36:12.000Z</Time>
            <Position>
              <LatitudeDegrees>40.98316309042274951934814453125</LatitudeDegrees>
              <LongitudeDegrees>-1.03691090829670429229736328125</LongitudeDegrees>
            </Position>
            <AltitudeMeters>1174.800048828125</AltitudeMeters>
            <DistanceMeters>607094.42263944</DistanceMeters>
          </Trackpoint>
          <Trackpoint>
            <Time>2021-08-04T10:36:15.000Z</Time>
            <Position>
              <LatitudeDegrees>40.983042307198047637939453125</LatitudeDegrees>
              <LongitudeDegrees>-1.0366659052670001983642578125</LongitudeDegrees>
            </Position>
            <AltitudeMeters>1176</AltitudeMeters>
            <DistanceMeters>607119.00904579</DistanceMeters>
          </Trackpoint>
          <Trackpoint>
            <Time>2021-08-04T10:36:18.000Z</Time>
            <Position>
              <LatitudeDegrees>40.98291079513728618621826171875</LatitudeDegrees>
              <LongitudeDegrees>-1.03642844595015048980712890625</LongitudeDegrees>
            </Position>
            <AltitudeMeters>1176</AltitudeMeters>
            <DistanceMeters>607143.7545204</DistanceMeters>
          </Trackpoint>
          <Trackpoint>
            <Time>2021-08-04T10:36:25.000Z</Time>
            <Position>
              <LatitudeDegrees>40.98262966610491275787353515625</LatitudeDegrees>
              <LongitudeDegrees>-1.03584297001361846923828125</LongitudeDegrees>
            </Position>
            <AltitudeMeters>1177</AltitudeMeters>
            <DistanceMeters>607202.05586854</DistanceMeters>
          </Trackpoint>
          <Trackpoint>
            <Time>2021-08-04T10:36:28.000Z</Time>
            <Position>
              <LatitudeDegrees>40.98251265473663806915283203125</LatitudeDegrees>
              <LongitudeDegrees>-1.03559863753616809844970703125</LongitudeDegrees>
            </Position>
            <AltitudeMeters>1178.199951171875</AltitudeMeters>
            <DistanceMeters>607226.36785496</DistanceMeters>
          </Trackpoint>
          <Trackpoint>
            <Time>2021-08-04T10:36:35.000Z</Time>
            <Position>
              <LatitudeDegrees>40.98219598643481731414794921875</LatitudeDegrees>
              <LongitudeDegrees>-1.03501014411449432373046875</LongitudeDegrees>
            </Position>
            <AltitudeMeters>1177</AltitudeMeters>
            <DistanceMeters>607287.09074335</DistanceMeters>
          </Trackpoint>
          <Trackpoint>
            <Time>2021-08-04T10:36:37.000Z</Time>
            <Position>
              <LatitudeDegrees>40.98208400420844554901123046875</LatitudeDegrees>
              <LongitudeDegrees>-1.03480688296258449554443359375</LongitudeDegrees>
            </Position>
            <AltitudeMeters>1174.800048828125</AltitudeMeters>
            <DistanceMeters>607308.23370682</DistanceMeters>
          </Trackpoint>
          <Trackpoint>
            <Time>2021-08-04T10:36:38.000Z</Time>
            <Position>
              <LatitudeDegrees>40.98202474415302276611328125</LatitudeDegrees>
              <LongitudeDegrees>-1.03469825349748134613037109375</LongitudeDegrees>
            </Position>
            <AltitudeMeters>1173.800048828125</AltitudeMeters>
            <DistanceMeters>607319.49547505</DistanceMeters>
          </Trackpoint>
          <Trackpoint>
            <Time>2021-08-04T10:36:40.000Z</Time>
            <Position>
              <LatitudeDegrees>40.9819020330905914306640625</LatitudeDegrees>
              <LongitudeDegrees>-1.03446833789348602294921875</LongitudeDegrees>
            </Position>
            <AltitudeMeters>1171.800048828125</AltitudeMeters>
            <DistanceMeters>607343.1542645</DistanceMeters>
          </Trackpoint>
          <Trackpoint>
            <Time>2021-08-04T10:36:41.000Z</Time>
            <Position>
              <LatitudeDegrees>40.98183824680745601654052734375</LatitudeDegrees>
              <LongitudeDegrees>-1.0343474708497524261474609375</LongitudeDegrees>
            </Position>
            <AltitudeMeters>1170.800048828125</AltitudeMeters>
            <DistanceMeters>607355.544961</DistanceMeters>
          </Trackpoint>
          <Trackpoint>
            <Time>2021-08-04T10:36:42.000Z</Time>
            <Position>
              <LatitudeDegrees>40.981772281229496002197265625</LatitudeDegrees>
              <LongitudeDegrees>-1.0342240892350673675537109375</LongitudeDegrees>
            </Position>
            <AltitudeMeters>1169.5999755859375</AltitudeMeters>
            <DistanceMeters>607368.24872132</DistanceMeters>
          </Trackpoint>
          <Trackpoint>
            <Time>2021-08-04T10:36:43.000Z</Time>
            <Position>
              <LatitudeDegrees>40.98170363344252109527587890625</LatitudeDegrees>
              <LongitudeDegrees>-1.0340986959636211395263671875</LongitudeDegrees>
            </Position>
            <AltitudeMeters>1168.4000244140625</AltitudeMeters>
            <DistanceMeters>607381.26356569</DistanceMeters>
          </Trackpoint>
          <Trackpoint>
            <Time>2021-08-04T10:36:44.000Z</Time>
            <Position>
              <LatitudeDegrees>40.981632135808467864990234375</LatitudeDegrees>
              <LongitudeDegrees>-1.03397154249250888824462890625</LongitudeDegrees>
            </Position>
            <AltitudeMeters>1167.4000244140625</AltitudeMeters>
            <DistanceMeters>607394.58528076</DistanceMeters>
          </Trackpoint>
          <Trackpoint>
            <Time>2021-08-04T10:36:46.000Z</Time>
            <Position>
              <LatitudeDegrees>40.981491990387439727783203125</LatitudeDegrees>
              <LongitudeDegrees>-1.03371622972190380096435546875</LongitudeDegrees>
            </Position>
            <AltitudeMeters>1166.4000244140625</AltitudeMeters>
            <DistanceMeters>607421.10914163</DistanceMeters>
          </Trackpoint>
          <Trackpoint>
            <Time>2021-08-04T10:36:51.000Z</Time>
            <Position>
              <LatitudeDegrees>40.98116836510598659515380859375</LatitudeDegrees>
              <LongitudeDegrees>-1.03311893530189990997314453125</LongitudeDegrees>
            </Position>
            <AltitudeMeters>1166.4000244140625</AltitudeMeters>
            <DistanceMeters>607482.88469234</DistanceMeters>
          </Trackpoint>
          <Trackpoint>
            <Time>2021-08-04T10:36:53.000Z</Time>
            <Position>
              <LatitudeDegrees>40.9810539521276950836181640625</LatitudeDegrees>
              <LongitudeDegrees>-1.03291827253997325897216796875</LongitudeDegrees>
            </Position>
            <AltitudeMeters>1167.4000244140625</AltitudeMeters>
            <DistanceMeters>607504.01398432</DistanceMeters>
          </Trackpoint>
          <Trackpoint>
            <Time>2021-08-04T10:36:55.000Z</Time>
            <Position>
              <LatitudeDegrees>40.9809486754238605499267578125</LatitudeDegrees>
              <LongitudeDegrees>-1.032729931175708770751953125</LongitudeDegrees>
            </Position>
            <AltitudeMeters>1169.5999755859375</AltitudeMeters>
            <DistanceMeters>607523.70516134</DistanceMeters>
          </Trackpoint>
          <Trackpoint>
            <Time>2021-08-04T10:36:59.000Z</Time>
            <Position>
              <LatitudeDegrees>40.98074994049966335296630859375</LatitudeDegrees>
              <LongitudeDegrees>-1.03235282935202121734619140625</LongitudeDegrees>
            </Position>
            <AltitudeMeters>1170.800048828125</AltitudeMeters>
            <DistanceMeters>607562.34809926</DistanceMeters>
          </Trackpoint>
          <Trackpoint>
            <Time>2021-08-04T10:37:06.000Z</Time>
            <Position>
              <LatitudeDegrees>40.980398654937744140625</LatitudeDegrees>
              <LongitudeDegrees>-1.03168898262083530426025390625</LongitudeDegrees>
            </Position>
            <AltitudeMeters>1170</AltitudeMeters>
            <DistanceMeters>607630.4665464</DistanceMeters>
          </Trackpoint>
          <Trackpoint>
            <Time>2021-08-04T10:37:07.000Z</Time>
            <Position>
              <LatitudeDegrees>40.98034559749066829681396484375</LatitudeDegrees>
              <LongitudeDegrees>-1.031594015657901763916015625</LongitudeDegrees>
            </Position>
            <AltitudeMeters>1169.5999755859375</AltitudeMeters>
            <DistanceMeters>607640.39399594</DistanceMeters>
          </Trackpoint>
          <Trackpoint>
            <Time>2021-08-04T10:37:14.000Z</Time>
            <Position>
              <LatitudeDegrees>40.979996658861637115478515625</LatitudeDegrees>
              <LongitudeDegrees>-1.0309360362589359283447265625</LongitudeDegrees>
            </Position>
            <AltitudeMeters>1169.5999755859375</AltitudeMeters>
            <DistanceMeters>607707.95912589</DistanceMeters>
          </Trackpoint>
          <Trackpoint>
            <Time>2021-08-04T10:37:21.000Z</Time>
            <Position>
              <LatitudeDegrees>40.97965157590806484222412109375</LatitudeDegrees>
              <LongitudeDegrees>-1.0302936471998691558837890625</LongitudeDegrees>
            </Position>
            <AltitudeMeters>1169.199951171875</AltitudeMeters>
            <DistanceMeters>607774.20712777</DistanceMeters>
          </Trackpoint>
          <Trackpoint>
            <Time>2021-08-04T10:37:23.000Z</Time>
            <Position>
              <LatitudeDegrees>40.97955468110740184783935546875</LatitudeDegrees>
              <LongitudeDegrees>-1.0301142744719982147216796875</LongitudeDegrees>
            </Position>
            <AltitudeMeters>1168.199951171875</AltitudeMeters>
            <DistanceMeters>607792.74001712</DistanceMeters>
          </Trackpoint>
          <Trackpoint>
            <Time>2021-08-04T10:37:28.000Z</Time>
            <Position>
              <LatitudeDegrees>40.97936709411442279815673828125</LatitudeDegrees>
              <LongitudeDegrees>-1.02968118153512477874755859375</LongitudeDegrees>
            </Position>
            <AltitudeMeters>1169.4000244140625</AltitudeMeters>
            <DistanceMeters>607834.69557601</DistanceMeters>
          </Trackpoint>
          <Trackpoint>
            <Time>2021-08-04T10:37:30.000Z</Time>
            <Position>
              <LatitudeDegrees>40.97932568751275539398193359375</LatitudeDegrees>
              <LongitudeDegrees>-1.0295151360332965850830078125</LongitudeDegrees>
            </Position>
            <AltitudeMeters>1170.800048828125</AltitudeMeters>
            <DistanceMeters>607849.38942261</DistanceMeters>
          </Trackpoint>
          <Trackpoint>
            <Time>2021-08-04T10:37:32.000Z</Time>
            <Position>
              <LatitudeDegrees>40.9792907349765300750732421875</LatitudeDegrees>
              <LongitudeDegrees>-1.0293605737388134002685546875</LongitudeDegrees>
            </Position>
            <AltitudeMeters>1172.5999755859375</AltitudeMeters>
            <DistanceMeters>607862.9466412</DistanceMeters>
          </Trackpoint>
          <Trackpoint>
            <Time>2021-08-04T10:37:34.000Z</Time>
            <Position>
              <LatitudeDegrees>40.97925427369773387908935546875</LatitudeDegrees>
              <LongitudeDegrees>-1.0292167402803897857666015625</LongitudeDegrees>
            </Position>
            <AltitudeMeters>1173.800048828125</AltitudeMeters>
            <DistanceMeters>607875.69581278</DistanceMeters>
          </Trackpoint>
          <Trackpoint>
            <Time>2021-08-04T10:37:36.000Z</Time>
            <Position>
              <LatitudeDegrees>40.9792089276015758514404296875</LatitudeDegrees>
              <LongitudeDegrees>-1.0290871560573577880859375</LongitudeDegrees>
            </Position>
            <AltitudeMeters>1175.199951171875</AltitudeMeters>
            <DistanceMeters>607887.69705102</DistanceMeters>
          </Trackpoint>
          <Trackpoint>
            <Time>2021-08-04T10:37:39.000Z</Time>
            <Position>
              <LatitudeDegrees>40.97910876385867595672607421875</LatitudeDegrees>
              <LongitudeDegrees>-1.028946004807949066162109375</LongitudeDegrees>
            </Position>
            <AltitudeMeters>1176.5999755859375</AltitudeMeters>
            <DistanceMeters>607903.97465843</DistanceMeters>
          </Trackpoint>
          <Trackpoint>
            <Time>2021-08-04T10:37:42.000Z</Time>
            <Position>
              <LatitudeDegrees>40.97900055348873138427734375</LatitudeDegrees>
              <LongitudeDegrees>-1.02885556407272815704345703125</LongitudeDegrees>
            </Position>
            <AltitudeMeters>1177</AltitudeMeters>
            <DistanceMeters>607918.21535563</DistanceMeters>
          </Trackpoint>
          <Trackpoint>
            <Time>2021-08-04T10:37:44.000Z</Time>
            <Position>
              <LatitudeDegrees>40.97893492318689823150634765625</LatitudeDegrees>
              <LongitudeDegrees>-1.0288100503385066986083984375</LongitudeDegrees>
            </Position>
            <AltitudeMeters>1177.800048828125</AltitudeMeters>
            <DistanceMeters>607926.46080562</DistanceMeters>
          </Trackpoint>
          <Trackpoint>
            <Time>2021-08-04T10:37:48.000Z</Time>
            <Position>
              <LatitudeDegrees>40.978818833827972412109375</LatitudeDegrees>
              <LongitudeDegrees>-1.02873519994318485260009765625</LongitudeDegrees>
            </Position>
            <AltitudeMeters>1179</AltitudeMeters>
            <DistanceMeters>607940.83153449</DistanceMeters>
          </Trackpoint>
          <Trackpoint>
            <Time>2021-08-04T10:37:55.000Z</Time>
            <Position>
              <LatitudeDegrees>40.978652536869049072265625</LatitudeDegrees>
              <LongitudeDegrees>-1.02857879363000392913818359375</LongitudeDegrees>
            </Position>
            <AltitudeMeters>1180</AltitudeMeters>
            <DistanceMeters>607963.53198256</DistanceMeters>
          </Trackpoint>
          <Trackpoint>
            <Time>2021-08-04T10:37:59.000Z</Time>
            <Position>
              <LatitudeDegrees>40.978584475815296173095703125</LatitudeDegrees>
              <LongitudeDegrees>-1.02847686968743801116943359375</LongitudeDegrees>
            </Position>
            <AltitudeMeters>1181.199951171875</AltitudeMeters>
            <DistanceMeters>607974.96603025</DistanceMeters>
          </Trackpoint>
          <Trackpoint>
            <Time>2021-08-04T10:38:03.000Z</Time>
            <Position>
              <LatitudeDegrees>40.9785251319408416748046875</LatitudeDegrees>
              <LongitudeDegrees>-1.02836941368877887725830078125</LongitudeDegrees>
            </Position>
            <AltitudeMeters>1182.4000244140625</AltitudeMeters>
            <DistanceMeters>607986.15378649</DistanceMeters>
          </Trackpoint>
          <Trackpoint>
            <Time>2021-08-04T10:38:11.000Z</Time>
            <Position>
              <LatitudeDegrees>40.97842496819794178009033203125</LatitudeDegrees>
              <LongitudeDegrees>-1.02813966572284698486328125</LongitudeDegrees>
            </Position>
            <AltitudeMeters>1183.4000244140625</AltitudeMeters>
            <DistanceMeters>608008.44681875</DistanceMeters>
          </Trackpoint>
          <Trackpoint>
            <Time>2021-08-04T10:38:18.000Z</Time>
            <Position>
              <LatitudeDegrees>40.97834902815520763397216796875</LatitudeDegrees>
              <LongitudeDegrees>-1.02793539874255657196044921875</LongitudeDegrees>
            </Position>
            <AltitudeMeters>1184.5999755859375</AltitudeMeters>
            <DistanceMeters>608027.57907368</DistanceMeters>
          </Trackpoint>
          <Trackpoint>
            <Time>2021-08-04T10:38:25.000Z</Time>
            <Position>
              <LatitudeDegrees>40.97827577032148838043212890625</LatitudeDegrees>
              <LongitudeDegrees>-1.02773423306643962860107421875</LongitudeDegrees>
            </Position>
            <AltitudeMeters>1185.5999755859375</AltitudeMeters>
            <DistanceMeters>608046.34630846</DistanceMeters>
          </Trackpoint>
          <Trackpoint>
            <Time>2021-08-04T10:38:34.000Z</Time>
            <Position>
              <LatitudeDegrees>40.9781534783542156219482421875</LatitudeDegrees>
              <LongitudeDegrees>-1.027495600283145904541015625</LongitudeDegrees>
            </Position>
            <AltitudeMeters>1186.800048828125</AltitudeMeters>
            <DistanceMeters>608070.58147428</DistanceMeters>
          </Trackpoint>
          <Trackpoint>
            <Time>2021-08-04T10:38:53.000Z</Time>
            <Position>
              <LatitudeDegrees>40.9778071381151676177978515625</LatitudeDegrees>
              <LongitudeDegrees>-1.02693275548517704010009765625</LongitudeDegrees>
            </Position>
            <AltitudeMeters>1187.800048828125</AltitudeMeters>
            <DistanceMeters>608131.59617329</DistanceMeters>
          </Trackpoint>
          <Trackpoint>
            <Time>2021-08-04T10:39:07.000Z</Time>
            <Position>
              <LatitudeDegrees>40.97745694220066070556640625</LatitudeDegrees>
              <LongitudeDegrees>-1.02637502364814281463623046875</LongitudeDegrees>
            </Position>
            <AltitudeMeters>1187.199951171875</AltitudeMeters>
            <DistanceMeters>608192.55223677</DistanceMeters>
          </Trackpoint>
          <Trackpoint>
            <Time>2021-08-04T10:39:21.000Z</Time>
            <Position>
              <LatitudeDegrees>40.977096855640411376953125</LatitudeDegrees>
              <LongitudeDegrees>-1.0257929004728794097900390625</LongitudeDegrees>
            </Position>
            <AltitudeMeters>1187.5999755859375</AltitudeMeters>
            <DistanceMeters>608255.78999846</DistanceMeters>
          </Trackpoint>
          <Trackpoint>
            <Time>2021-08-04T10:39:26.000Z</Time>
            <Position>
              <LatitudeDegrees>40.97699635662138462066650390625</LatitudeDegrees>
              <LongitudeDegrees>-1.02560807950794696807861328125</LongitudeDegrees>
            </Position>
            <AltitudeMeters>1188.4000244140625</AltitudeMeters>
            <DistanceMeters>608274.92956771</DistanceMeters>
          </Trackpoint>
          <Trackpoint>
            <Time>2021-08-04T10:39:32.000Z</Time>
            <Position>
              <LatitudeDegrees>40.97691739909350872039794921875</LatitudeDegrees>
              <LongitudeDegrees>-1.02536953054368495941162109375</LongitudeDegrees>
            </Position>
            <AltitudeMeters>1189.5999755859375</AltitudeMeters>
            <DistanceMeters>608296.81667705</DistanceMeters>
          </Trackpoint>
          <Trackpoint>
            <Time>2021-08-04T10:39:37.000Z</Time>
            <Position>
              <LatitudeDegrees>40.976882278919219970703125</LatitudeDegrees>
              <LongitudeDegrees>-1.02520423941314220428466796875</LongitudeDegrees>
            </Position>
            <AltitudeMeters>1190.800048828125</AltitudeMeters>
            <DistanceMeters>608311.24572562</DistanceMeters>
          </Trackpoint>
          <Trackpoint>
            <Time>2021-08-04T10:39:41.000Z</Time>
            <Position>
              <LatitudeDegrees>40.97686241380870342254638671875</LatitudeDegrees>
              <LongitudeDegrees>-1.02507255971431732177734375</LongitudeDegrees>
            </Position>
            <AltitudeMeters>1191.800048828125</AltitudeMeters>
            <DistanceMeters>608322.52952276</DistanceMeters>
          </Trackpoint>
          <Trackpoint>
            <Time>2021-08-04T10:39:47.000Z</Time>
            <Position>
              <LatitudeDegrees>40.9768294729292392730712890625</LatitudeDegrees>
              <LongitudeDegrees>-1.02487248368561267852783203125</LongitudeDegrees>
            </Position>
            <AltitudeMeters>1193</AltitudeMeters>
            <DistanceMeters>608339.73696901</DistanceMeters>
          </Trackpoint>
          <Trackpoint>
            <Time>2021-08-04T10:39:52.000Z</Time>
            <Position>
              <LatitudeDegrees>40.976785719394683837890625</LatitudeDegrees>
              <LongitudeDegrees>-1.024710796773433685302734375</LongitudeDegrees>
            </Position>
            <AltitudeMeters>1194.199951171875</AltitudeMeters>
            <DistanceMeters>608354.16977204</DistanceMeters>
          </Trackpoint>
          <Trackpoint>
            <Time>2021-08-04T10:39:58.000Z</Time>
            <Position>
              <LatitudeDegrees>40.97672360949218273162841796875</LatitudeDegrees>
              <LongitudeDegrees>-1.0245108045637607574462890625</LongitudeDegrees>
            </Position>
            <AltitudeMeters>1195.199951171875</AltitudeMeters>
            <DistanceMeters>608372.34150381</DistanceMeters>
          </Trackpoint>
          <Trackpoint>
            <Time>2021-08-04T10:40:04.000Z</Time>
            <Position>
              <LatitudeDegrees>40.97664096392691135406494140625</LatitudeDegrees>
              <LongitudeDegrees>-1.0243022628128528594970703125</LongitudeDegrees>
            </Position>
            <AltitudeMeters>1196.199951171875</AltitudeMeters>
            <DistanceMeters>608392.13285611</DistanceMeters>
          </Trackpoint>
          <Trackpoint>
            <Time>2021-08-04T10:40:10.000Z</Time>
            <Position>
              <LatitudeDegrees>40.97654230892658233642578125</LatitudeDegrees>
              <LongitudeDegrees>-1.024107635021209716796875</LongitudeDegrees>
            </Position>
            <AltitudeMeters>1197.4000244140625</AltitudeMeters>
            <DistanceMeters>608411.83182753</DistanceMeters>
          </Trackpoint>
          <Trackpoint>
            <Time>2021-08-04T10:40:16.000Z</Time>
            <Position>
              <LatitudeDegrees>40.97643577493727207183837890625</LatitudeDegrees>
              <LongitudeDegrees>-1.023913510143756866455078125</LongitudeDegrees>
            </Position>
            <AltitudeMeters>1198.4000244140625</AltitudeMeters>
            <DistanceMeters>608431.99854722</DistanceMeters>
          </Trackpoint>
          <Trackpoint>
            <Time>2021-08-04T10:40:24.000Z</Time>
            <Position>
              <LatitudeDegrees>40.97626746632158756256103515625</LatitudeDegrees>
              <LongitudeDegrees>-1.0236638970673084259033203125</LongitudeDegrees>
            </Position>
            <AltitudeMeters>1199.800048828125</AltitudeMeters>
            <DistanceMeters>608460.12131762</DistanceMeters>
          </Trackpoint>
          <Trackpoint>
            <Time>2021-08-04T10:40:31.000Z</Time>
            <Position>
              <LatitudeDegrees>40.97615741193294525146484375</LatitudeDegrees>
              <LongitudeDegrees>-1.02342509664595127105712890625</LongitudeDegrees>
            </Position>
            <AltitudeMeters>1200.800048828125</AltitudeMeters>
            <DistanceMeters>608483.6311649</DistanceMeters>
          </Trackpoint>
          <Trackpoint>
            <Time>2021-08-04T10:40:35.000Z</Time>
            <Position>
              <LatitudeDegrees>40.97609865479171276092529296875</LatitudeDegrees>
              <LongitudeDegrees>-1.02327891625463962554931640625</LongitudeDegrees>
            </Position>
            <AltitudeMeters>1201.800048828125</AltitudeMeters>
            <DistanceMeters>608497.54763175</DistanceMeters>
          </Trackpoint>
          <Trackpoint>
            <Time>2021-08-04T10:40:45.000Z</Time>
            <Position>
              <LatitudeDegrees>40.97589790821075439453125</LatitudeDegrees>
              <LongitudeDegrees>-1.0229584760963916778564453125</LongitudeDegrees>
            </Position>
            <AltitudeMeters>1203</AltitudeMeters>
            <DistanceMeters>608532.53759837</DistanceMeters>
          </Trackpoint>
          <Trackpoint>
            <Time>2021-08-04T10:40:54.000Z</Time>
            <Position>
              <LatitudeDegrees>40.97563169896602630615234375</LatitudeDegrees>
              <LongitudeDegrees>-1.022777259349822998046875</LongitudeDegrees>
            </Position>
            <AltitudeMeters>1204</AltitudeMeters>
            <DistanceMeters>608565.85120512</DistanceMeters>
          </Trackpoint>
          <Trackpoint>
            <Time>2021-08-04T10:41:06.000Z</Time>
            <Position>
              <LatitudeDegrees>40.97526666708290576934814453125</LatitudeDegrees>
              <LongitudeDegrees>-1.022551618516445159912109375</LongitudeDegrees>
            </Position>
            <AltitudeMeters>1205.199951171875</AltitudeMeters>
            <DistanceMeters>608610.68669818</DistanceMeters>
          </Trackpoint>
          <Trackpoint>
            <Time>2021-08-04T10:41:12.000Z</Time>
            <Position>
              <LatitudeDegrees>40.97509433515369892120361328125</LatitudeDegrees>
              <LongitudeDegrees>-1.02244139648973941802978515625</LongitudeDegrees>
            </Position>
            <AltitudeMeters>1206.199951171875</AltitudeMeters>
            <DistanceMeters>608631.98688904</DistanceMeters>
          </Trackpoint>
          <Trackpoint>
            <Time>2021-08-04T10:41:21.000Z</Time>
            <Position>
              <LatitudeDegrees>40.974812619388103485107421875</LatitudeDegrees>
              <LongitudeDegrees>-1.0223253071308135986328125</LongitudeDegrees>
            </Position>
            <AltitudeMeters>1207.4000244140625</AltitudeMeters>
            <DistanceMeters>608664.82490982</DistanceMeters>
          </Trackpoint>
          <Trackpoint>
            <Time>2021-08-04T10:41:37.000Z</Time>
            <Position>
              <LatitudeDegrees>40.97424742765724658966064453125</LatitudeDegrees>
              <LongitudeDegrees>-1.02226537652313709259033203125</LongitudeDegrees>
            </Position>
            <AltitudeMeters>1208.199951171875</AltitudeMeters>
            <DistanceMeters>608727.93309451</DistanceMeters>
          </Trackpoint>
          <Trackpoint>
            <Time>2021-08-04T10:41:50.000Z</Time>
            <Position>
              <LatitudeDegrees>40.9737549908459186553955078125</LatitudeDegrees>
              <LongitudeDegrees>-1.0222631134092807769775390625</LongitudeDegrees>
            </Position>
            <AltitudeMeters>1207.5999755859375</AltitudeMeters>
            <DistanceMeters>608782.74250658</DistanceMeters>
          </Trackpoint>
          <Trackpoint>
            <Time>2021-08-04T10:41:55.000Z</Time>
            <Position>
              <LatitudeDegrees>40.97357050515711307525634765625</LatitudeDegrees>
              <LongitudeDegrees>-1.02240904234349727630615234375</LongitudeDegrees>
            </Position>
            <AltitudeMeters>1206.199951171875</AltitudeMeters>
            <DistanceMeters>608806.65905236</DistanceMeters>
          </Trackpoint>
          <Trackpoint>
            <Time>2021-08-04T10:41:57.000Z</Time>
            <Position>
              <LatitudeDegrees>40.9735099039971828460693359375</LatitudeDegrees>
              <LongitudeDegrees>-1.02250124327838420867919921875</LongitudeDegrees>
            </Position>
            <AltitudeMeters>1205.800048828125</AltitudeMeters>
            <DistanceMeters>608816.9316116</DistanceMeters>
          </Trackpoint>
          <Trackpoint>
            <Time>2021-08-04T10:42:08.000Z</Time>
            <Position>
              <LatitudeDegrees>40.9732611291110515594482421875</LatitudeDegrees>
              <LongitudeDegrees>-1.02298923768103122711181640625</LongitudeDegrees>
            </Position>
            <AltitudeMeters>1207.4000244140625</AltitudeMeters>
            <DistanceMeters>608866.41270705</DistanceMeters>
          </Trackpoint>
          <Trackpoint>
            <Time>2021-08-04T10:42:12.000Z</Time>
            <Position>
              <LatitudeDegrees>40.9731457941234111785888671875</LatitudeDegrees>
              <LongitudeDegrees>-1.02310256101191043853759765625</LongitudeDegrees>
            </Position>
            <AltitudeMeters>1208.5999755859375</AltitudeMeters>
            <DistanceMeters>608882.39641509</DistanceMeters>
          </Trackpoint>
          <Trackpoint>
            <Time>2021-08-04T10:42:16.000Z</Time>
            <Position>
              <LatitudeDegrees>40.97302970476448535919189453125</LatitudeDegrees>
              <LongitudeDegrees>-1.02313089184463024139404296875</LongitudeDegrees>
            </Position>
            <AltitudeMeters>1209.5999755859375</AltitudeMeters>
            <DistanceMeters>608895.53521151</DistanceMeters>
          </Trackpoint>
          <Trackpoint>
            <Time>2021-08-04T10:42:20.000Z</Time>
            <Position>
              <LatitudeDegrees>40.97291872836649417877197265625</LatitudeDegrees>
              <LongitudeDegrees>-1.023087389767169952392578125</LongitudeDegrees>
            </Position>
            <AltitudeMeters>1210.800048828125</AltitudeMeters>
            <DistanceMeters>608908.41685289</DistanceMeters>
          </Trackpoint>
          <Trackpoint>
            <Time>2021-08-04T10:42:26.000Z</Time>
            <Position>
              <LatitudeDegrees>40.9727588854730129241943359375</LatitudeDegrees>
              <LongitudeDegrees>-1.022954285144805908203125</LongitudeDegrees>
            </Position>
            <AltitudeMeters>1212.199951171875</AltitudeMeters>
            <DistanceMeters>608929.43172664</DistanceMeters>
          </Trackpoint>
          <Trackpoint>
            <Time>2021-08-04T10:42:41.000Z</Time>
            <Position>
              <LatitudeDegrees>40.972471050918102264404296875</LatitudeDegrees>
              <LongitudeDegrees>-1.02238255552947521209716796875</LongitudeDegrees>
            </Position>
            <AltitudeMeters>1213.199951171875</AltitudeMeters>
            <DistanceMeters>608987.1788128</DistanceMeters>
          </Trackpoint>
          <Trackpoint>
            <Time>2021-08-04T10:42:44.000Z</Time>
            <Position>
              <LatitudeDegrees>40.9724534489214420318603515625</LatitudeDegrees>
              <LongitudeDegrees>-1.02225380949676036834716796875</LongitudeDegrees>
            </Position>
            <AltitudeMeters>1214.199951171875</AltitudeMeters>
            <DistanceMeters>608998.17402373</DistanceMeters>
          </Trackpoint>
          <Trackpoint>
            <Time>2021-08-04T10:42:51.000Z</Time>
            <Position>
              <LatitudeDegrees>40.97239837981760501861572265625</LatitudeDegrees>
              <LongitudeDegrees>-1.021967232227325439453125</LongitudeDegrees>
            </Position>
            <AltitudeMeters>1215.4000244140625</AltitudeMeters>
            <DistanceMeters>609023.02455427</DistanceMeters>
          </Trackpoint>
          <Trackpoint>
            <Time>2021-08-04T10:42:55.000Z</Time>
            <Position>
              <LatitudeDegrees>40.9723387844860553741455078125</LatitudeDegrees>
              <LongitudeDegrees>-1.02183370850980281829833984375</LongitudeDegrees>
            </Position>
            <AltitudeMeters>1216.4000244140625</AltitudeMeters>
            <DistanceMeters>609036.05950415</DistanceMeters>
          </Trackpoint>
          <Trackpoint>
            <Time>2021-08-04T10:43:01.000Z</Time>
            <Position>
              <LatitudeDegrees>40.972233675420284271240234375</LatitudeDegrees>
              <LongitudeDegrees>-1.021645031869411468505859375</LongitudeDegrees>
            </Position>
            <AltitudeMeters>1217.800048828125</AltitudeMeters>
            <DistanceMeters>609055.76397564</DistanceMeters>
          </Trackpoint>
          <Trackpoint>
            <Time>2021-08-04T10:43:07.000Z</Time>
            <Position>
              <LatitudeDegrees>40.97212471067905426025390625</LatitudeDegrees>
              <LongitudeDegrees>-1.021468006074428558349609375</LongitudeDegrees>
            </Position>
            <AltitudeMeters>1218.800048828125</AltitudeMeters>
            <DistanceMeters>609074.9579606</DistanceMeters>
          </Trackpoint>
          <Trackpoint>
            <Time>2021-08-04T10:43:14.000Z</Time>
            <Position>
              <LatitudeDegrees>40.9720008261501789093017578125</LatitudeDegrees>
              <LongitudeDegrees>-1.0212683491408824920654296875</LongitudeDegrees>
            </Position>
            <AltitudeMeters>1219.800048828125</AltitudeMeters>
            <DistanceMeters>609096.67525539</DistanceMeters>
          </Trackpoint>
          <Trackpoint>
            <Time>2021-08-04T10:43:21.000Z</Time>
            <Position>
              <LatitudeDegrees>40.971878953278064727783203125</LatitudeDegrees>
              <LongitudeDegrees>-1.02105553261935710906982421875</LongitudeDegrees>
            </Position>
            <AltitudeMeters>1221</AltitudeMeters>
            <DistanceMeters>609119.12208602</DistanceMeters>
          </Trackpoint>
          <Trackpoint>
            <Time>2021-08-04T10:43:27.000Z</Time>
            <Position>
              <LatitudeDegrees>40.971770323812961578369140625</LatitudeDegrees>
              <LongitudeDegrees>-1.02087498642504215240478515625</LongitudeDegrees>
            </Position>
            <AltitudeMeters>1222.199951171875</AltitudeMeters>
            <DistanceMeters>609138.52290163</DistanceMeters>
          </Trackpoint>
          <Trackpoint>
            <Time>2021-08-04T10:43:31.000Z</Time>
            <Position>
              <LatitudeDegrees>40.97169899381697177886962890625</LatitudeDegrees>
              <LongitudeDegrees>-1.02075797505676746368408203125</LongitudeDegrees>
            </Position>
            <AltitudeMeters>1223.199951171875</AltitudeMeters>
            <DistanceMeters>609151.16109739</DistanceMeters>
          </Trackpoint>
          <Trackpoint>
            <Time>2021-08-04T10:43:38.000Z</Time>
            <Position>
              <LatitudeDegrees>40.9715674817562103271484375</LatitudeDegrees>
              <LongitudeDegrees>-1.0205575637519359588623046875</LongitudeDegrees>
            </Position>
            <AltitudeMeters>1224.4000244140625</AltitudeMeters>
            <DistanceMeters>609173.47477828</DistanceMeters>
          </Trackpoint>
          <Trackpoint>
            <Time>2021-08-04T10:43:43.000Z</Time>
            <Position>
              <LatitudeDegrees>40.971500091254711151123046875</LatitudeDegrees>
              <LongitudeDegrees>-1.02040023542940616607666015625</LongitudeDegrees>
            </Position>
            <AltitudeMeters>1225.4000244140625</AltitudeMeters>
            <DistanceMeters>609188.67578569</DistanceMeters>
          </Trackpoint>
          <Trackpoint>
            <Time>2021-08-04T10:43:47.000Z</Time>
            <Position>
              <LatitudeDegrees>40.971443764865398406982421875</LatitudeDegrees>
              <LongitudeDegrees>-1.02028691209852695465087890625</LongitudeDegrees>
            </Position>
            <AltitudeMeters>1226.5999755859375</AltitudeMeters>
            <DistanceMeters>609200.07740752</DistanceMeters>
          </Trackpoint>
          <Trackpoint>
            <Time>2021-08-04T10:43:52.000Z</Time>
            <Position>
              <LatitudeDegrees>40.971370004117488861083984375</LatitudeDegrees>
              <LongitudeDegrees>-1.02014341391623020172119140625</LongitudeDegrees>
            </Position>
            <AltitudeMeters>1227.800048828125</AltitudeMeters>
            <DistanceMeters>609214.66578789</DistanceMeters>
          </Trackpoint>
          <Trackpoint>
            <Time>2021-08-04T10:43:57.000Z</Time>
            <Position>
              <LatitudeDegrees>40.97129683010280132293701171875</LatitudeDegrees>
              <LongitudeDegrees>-1.01999002508819103240966796875</LongitudeDegrees>
            </Position>
            <AltitudeMeters>1228.800048828125</AltitudeMeters>
            <DistanceMeters>609229.91335648</DistanceMeters>
          </Trackpoint>
          <Trackpoint>
            <Time>2021-08-04T10:44:04.000Z</Time>
            <Position>
              <LatitudeDegrees>40.97118903882801532745361328125</LatitudeDegrees>
              <LongitudeDegrees>-1.01979757659137248992919921875</LongitudeDegrees>
            </Position>
            <AltitudeMeters>1230</AltitudeMeters>
            <DistanceMeters>609250.05027737</DistanceMeters>
          </Trackpoint>
          <Trackpoint>
            <Time>2021-08-04T10:44:11.000Z</Time>
            <Position>
              <LatitudeDegrees>40.97107588313519954681396484375</LatitudeDegrees>
              <LongitudeDegrees>-1.019597835838794708251953125</LongitudeDegrees>
            </Position>
            <AltitudeMeters>1231</AltitudeMeters>
            <DistanceMeters>609271.03548092</DistanceMeters>
          </Trackpoint>
          <Trackpoint>
            <Time>2021-08-04T10:44:17.000Z</Time>
            <Position>
              <LatitudeDegrees>40.9709869511425495147705078125</LatitudeDegrees>
              <LongitudeDegrees>-1.019426174461841583251953125</LongitudeDegrees>
            </Position>
            <AltitudeMeters>1232.199951171875</AltitudeMeters>
            <DistanceMeters>609288.5307223</DistanceMeters>
          </Trackpoint>
          <Trackpoint>
            <Time>2021-08-04T10:44:23.000Z</Time>
            <Position>
              <LatitudeDegrees>40.9709007851779460906982421875</LatitudeDegrees>
              <LongitudeDegrees>-1.0192694328725337982177734375</LongitudeDegrees>
            </Position>
            <AltitudeMeters>1233.199951171875</AltitudeMeters>
            <DistanceMeters>609304.82440965</DistanceMeters>
          </Trackpoint>
          <Trackpoint>
            <Time>2021-08-04T10:44:30.000Z</Time>
            <Position>
              <LatitudeDegrees>40.97080816514790058135986328125</LatitudeDegrees>
              <LongitudeDegrees>-1.0190739668905735015869140625</LongitudeDegrees>
            </Position>
            <AltitudeMeters>1234.4000244140625</AltitudeMeters>
            <DistanceMeters>609324.21777666</DistanceMeters>
          </Trackpoint>
          <Trackpoint>
            <Time>2021-08-04T10:44:38.000Z</Time>
            <Position>
              <LatitudeDegrees>40.97070037387311458587646484375</LatitudeDegrees>
              <LongitudeDegrees>-1.01885645650327205657958984375</LongitudeDegrees>
            </Position>
            <AltitudeMeters>1235.4000244140625</AltitudeMeters>
            <DistanceMeters>609346.0823891</DistanceMeters>
          </Trackpoint>
          <Trackpoint>
            <Time>2021-08-04T10:44:44.000Z</Time>
            <Position>
              <LatitudeDegrees>40.97061672247946262359619140625</LatitudeDegrees>
              <LongitudeDegrees>-1.0186971165239810943603515625</LongitudeDegrees>
            </Position>
            <AltitudeMeters>1236.5999755859375</AltitudeMeters>
            <DistanceMeters>609362.39158686</DistanceMeters>
          </Trackpoint>
          <Trackpoint>
            <Time>2021-08-04T10:44:50.000Z</Time>
            <Position>
              <LatitudeDegrees>40.97053281962871551513671875</LatitudeDegrees>
              <LongitudeDegrees>-1.0185341723263263702392578125</LongitudeDegrees>
            </Position>
            <AltitudeMeters>1237.800048828125</AltitudeMeters>
            <DistanceMeters>609378.96632715</DistanceMeters>
          </Trackpoint>
          <Trackpoint>
            <Time>2021-08-04T10:44:56.000Z</Time>
            <Position>
              <LatitudeDegrees>40.97045210190117359161376953125</LatitudeDegrees>
              <LongitudeDegrees>-1.0183703899383544921875</LongitudeDegrees>
            </Position>
            <AltitudeMeters>1239</AltitudeMeters>
            <DistanceMeters>609395.40292738</DistanceMeters>
          </Trackpoint>
          <Trackpoint>
            <Time>2021-08-04T10:45:04.000Z</Time>
            <Position>
              <LatitudeDegrees>40.97033676691353321075439453125</LatitudeDegrees>
              <LongitudeDegrees>-1.01814567111432552337646484375</LongitudeDegrees>
            </Position>
            <AltitudeMeters>1240</AltitudeMeters>
            <DistanceMeters>609418.23782905</DistanceMeters>
          </Trackpoint>
          <Trackpoint>
            <Time>2021-08-04T10:45:12.000Z</Time>
            <Position>
              <LatitudeDegrees>40.97022025845944881439208984375</LatitudeDegrees>
              <LongitudeDegrees>-1.01791240274906158447265625</LongitudeDegrees>
            </Position>
            <AltitudeMeters>1241.199951171875</AltitudeMeters>
            <DistanceMeters>609441.74229834</DistanceMeters>
          </Trackpoint>
          <Trackpoint>
            <Time>2021-08-04T10:45:17.000Z</Time>
            <Position>
              <LatitudeDegrees>40.970141887664794921875</LatitudeDegrees>
              <LongitudeDegrees>-1.0177643783390522003173828125</LongitudeDegrees>
            </Position>
            <AltitudeMeters>1242.199951171875</AltitudeMeters>
            <DistanceMeters>609456.93558121</DistanceMeters>
          </Trackpoint>
          <Trackpoint>
            <Time>2021-08-04T10:45:25.000Z</Time>
            <Position>
              <LatitudeDegrees>40.97001104615628719329833984375</LatitudeDegrees>
              <LongitudeDegrees>-1.01750998757779598236083984375</LongitudeDegrees>
            </Position>
            <AltitudeMeters>1243.4000244140625</AltitudeMeters>
            <DistanceMeters>609482.80310263</DistanceMeters>
          </Trackpoint>
          <Trackpoint>
            <Time>2021-08-04T10:45:30.000Z</Time>
            <Position>
              <LatitudeDegrees>40.96992588602006435394287109375</LatitudeDegrees>
              <LongitudeDegrees>-1.017341427505016326904296875</LongitudeDegrees>
            </Position>
            <AltitudeMeters>1244.4000244140625</AltitudeMeters>
            <DistanceMeters>609499.84735648</DistanceMeters>
          </Trackpoint>
          <Trackpoint>
            <Time>2021-08-04T10:45:40.000Z</Time>
            <Position>
              <LatitudeDegrees>40.96974835731089115142822265625</LatitudeDegrees>
              <LongitudeDegrees>-1.017001457512378692626953125</LongitudeDegrees>
            </Position>
            <AltitudeMeters>1245.800048828125</AltitudeMeters>
            <DistanceMeters>609534.58517744</DistanceMeters>
          </Trackpoint>
          <Trackpoint>
            <Time>2021-08-04T10:45:54.000Z</Time>
            <Position>
              <LatitudeDegrees>40.9693635441362857818603515625</LatitudeDegrees>
              <LongitudeDegrees>-1.01646937429904937744140625</LongitudeDegrees>
            </Position>
            <AltitudeMeters>1246.4000244140625</AltitudeMeters>
            <DistanceMeters>609596.50425202</DistanceMeters>
          </Trackpoint>
          <Trackpoint>
            <Time>2021-08-04T10:46:00.000Z</Time>
            <Position>
              <LatitudeDegrees>40.9691737778484821319580078125</LatitudeDegrees>
              <LongitudeDegrees>-1.01622504182159900665283203125</LongitudeDegrees>
            </Position>
            <AltitudeMeters>1246.800048828125</AltitudeMeters>
            <DistanceMeters>609625.96161385</DistanceMeters>
          </Trackpoint>
          <Trackpoint>
            <Time>2021-08-04T10:46:03.000Z</Time>
            <Position>
              <LatitudeDegrees>40.9690624661743640899658203125</LatitudeDegrees>
              <LongitudeDegrees>-1.01611490361392498016357421875</LongitudeDegrees>
            </Position>
            <AltitudeMeters>1246.5999755859375</AltitudeMeters>
            <DistanceMeters>609641.42617154</DistanceMeters>
          </Trackpoint>
          <Trackpoint>
            <Time>2021-08-04T10:46:07.000Z</Time>
            <Position>
              <LatitudeDegrees>40.9688664972782135009765625</LatitudeDegrees>
              <LongitudeDegrees>-1.016063354909420013427734375</LongitudeDegrees>
            </Position>
            <AltitudeMeters>1245.5999755859375</AltitudeMeters>
            <DistanceMeters>609663.66364096</DistanceMeters>
          </Trackpoint>
          <Trackpoint>
            <Time>2021-08-04T10:46:08.000Z</Time>
            <Position>
              <LatitudeDegrees>40.968806482851505279541015625</LatitudeDegrees>
              <LongitudeDegrees>-1.01606461219489574432373046875</LongitudeDegrees>
            </Position>
            <AltitudeMeters>1245</AltitudeMeters>
            <DistanceMeters>609670.34395815</DistanceMeters>
          </Trackpoint>
          <Trackpoint>
            <Time>2021-08-04T10:46:10.000Z</Time>
            <Position>
              <LatitudeDegrees>40.96866860054433345794677734375</LatitudeDegrees>
              <LongitudeDegrees>-1.016071736812591552734375</LongitudeDegrees>
            </Position>
            <AltitudeMeters>1244.199951171875</AltitudeMeters>
            <DistanceMeters>609685.70216855</DistanceMeters>
          </Trackpoint>
          <Trackpoint>
            <Time>2021-08-04T10:46:12.000Z</Time>
            <Position>
              <LatitudeDegrees>40.968508757650852203369140625</LatitudeDegrees>
              <LongitudeDegrees>-1.0160651989281177520751953125</LongitudeDegrees>
            </Position>
            <AltitudeMeters>1243</AltitudeMeters>
            <DistanceMeters>609703.5013596</DistanceMeters>
          </Trackpoint>
          <Trackpoint>
            <Time>2021-08-04T10:46:14.000Z</Time>
            <Position>
              <LatitudeDegrees>40.96833868883550167083740234375</LatitudeDegrees>
              <LongitudeDegrees>-1.01599604822695255279541015625</LongitudeDegrees>
            </Position>
            <AltitudeMeters>1241.800048828125</AltitudeMeters>
            <DistanceMeters>609723.3020631</DistanceMeters>
          </Trackpoint>
          <Trackpoint>
            <Time>2021-08-04T10:46:15.000Z</Time>
            <Position>
              <LatitudeDegrees>40.968259312212467193603515625</LatitudeDegrees>
              <LongitudeDegrees>-1.015921197831630706787109375</LongitudeDegrees>
            </Position>
            <AltitudeMeters>1240.5999755859375</AltitudeMeters>
            <DistanceMeters>609734.14760484</DistanceMeters>
          </Trackpoint>
          <Trackpoint>
            <Time>2021-08-04T10:46:16.000Z</Time>
            <Position>
              <LatitudeDegrees>40.96819317899644374847412109375</LatitudeDegrees>
              <LongitudeDegrees>-1.01582027971744537353515625</LongitudeDegrees>
            </Position>
            <AltitudeMeters>1239</AltitudeMeters>
            <DistanceMeters>609745.37765594</DistanceMeters>
          </Trackpoint>
          <Trackpoint>
            <Time>2021-08-04T10:46:17.000Z</Time>
            <Position>
              <LatitudeDegrees>40.96814456395804882049560546875</LatitudeDegrees>
              <LongitudeDegrees>-1.0156977362930774688720703125</LongitudeDegrees>
            </Position>
            <AltitudeMeters>1237.800048828125</AltitudeMeters>
            <DistanceMeters>609757.01134778</DistanceMeters>
          </Trackpoint>
          <Trackpoint>
            <Time>2021-08-04T10:46:18.000Z</Time>
            <Position>
              <LatitudeDegrees>40.968106426298618316650390625</LatitudeDegrees>
              <LongitudeDegrees>-1.01556479930877685546875</LongitudeDegrees>
            </Position>
            <AltitudeMeters>1236.800048828125</AltitudeMeters>
            <DistanceMeters>609768.96282255</DistanceMeters>
          </Trackpoint>
          <Trackpoint>
            <Time>2021-08-04T10:46:19.000Z</Time>
            <Position>
              <LatitudeDegrees>40.96806946210563182830810546875</LatitudeDegrees>
              <LongitudeDegrees>-1.0154271684587001800537109375</LongitudeDegrees>
            </Position>
            <AltitudeMeters>1234.800048828125</AltitudeMeters>
            <DistanceMeters>609781.23930314</DistanceMeters>
          </Trackpoint>
          <Trackpoint>
            <Time>2021-08-04T10:46:20.000Z</Time>
            <Position>
              <LatitudeDegrees>40.9680234454572200775146484375</LatitudeDegrees>
              <LongitudeDegrees>-1.01529096253216266632080078125</LongitudeDegrees>
            </Position>
            <AltitudeMeters>1233.800048828125</AltitudeMeters>
            <DistanceMeters>609793.77958948</DistanceMeters>
          </Trackpoint>
          <Trackpoint>
            <Time>2021-08-04T10:46:22.000Z</Time>
            <Position>
              <LatitudeDegrees>40.96788506023585796356201171875</LatitudeDegrees>
              <LongitudeDegrees>-1.01504151709377765655517578125</LongitudeDegrees>
            </Position>
            <AltitudeMeters>1232</AltitudeMeters>
            <DistanceMeters>609819.79331525</DistanceMeters>
          </Trackpoint>
          <Trackpoint>
            <Time>2021-08-04T10:46:23.000Z</Time>
            <Position>
              <LatitudeDegrees>40.96779922954738140106201171875</LatitudeDegrees>
              <LongitudeDegrees>-1.01492869667708873748779296875</LongitudeDegrees>
            </Position>
            <AltitudeMeters>1230.5999755859375</AltitudeMeters>
            <DistanceMeters>609833.25293611</DistanceMeters>
          </Trackpoint>
          <Trackpoint>
            <Time>2021-08-04T10:46:24.000Z</Time>
            <Position>
              <LatitudeDegrees>40.9677079506218433380126953125</LatitudeDegrees>
              <LongitudeDegrees>-1.01481922902166843414306640625</LongitudeDegrees>
            </Position>
            <AltitudeMeters>1229</AltitudeMeters>
            <DistanceMeters>609846.95887206</DistanceMeters>
          </Trackpoint>
          <Trackpoint>
            <Time>2021-08-04T10:46:26.000Z</Time>
            <Position>
              <LatitudeDegrees>40.96752128563821315765380859375</LatitudeDegrees>
              <LongitudeDegrees>-1.01459543220698833465576171875</LongitudeDegrees>
            </Position>
            <AltitudeMeters>1227.800048828125</AltitudeMeters>
            <DistanceMeters>609874.98418185</DistanceMeters>
          </Trackpoint>
          <Trackpoint>
            <Time>2021-08-04T10:46:28.000Z</Time>
            <Position>
              <LatitudeDegrees>40.9673280827701091766357421875</LatitudeDegrees>
              <LongitudeDegrees>-1.01436459459364414215087890625</LongitudeDegrees>
            </Position>
            <AltitudeMeters>1226.4000244140625</AltitudeMeters>
            <DistanceMeters>609903.9459798</DistanceMeters>
          </Trackpoint>
          <Trackpoint>
            <Time>2021-08-04T10:46:29.000Z</Time>
            <Position>
              <LatitudeDegrees>40.9672298468649387359619140625</LatitudeDegrees>
              <LongitudeDegrees>-1.01424439810216426849365234375</LongitudeDegrees>
            </Position>
            <AltitudeMeters>1225.199951171875</AltitudeMeters>
            <DistanceMeters>609918.83184712</DistanceMeters>
          </Trackpoint>
          <Trackpoint>
            <Time>2021-08-04T10:46:30.000Z</Time>
            <Position>
              <LatitudeDegrees>40.9671332873404026031494140625</LatitudeDegrees>
              <LongitudeDegrees>-1.01411984302103519439697265625</LongitudeDegrees>
            </Position>
            <AltitudeMeters>1223.199951171875</AltitudeMeters>
            <DistanceMeters>609933.83463638</DistanceMeters>
          </Trackpoint>
          <Trackpoint>
            <Time>2021-08-04T10:46:31.000Z</Time>
            <Position>
              <LatitudeDegrees>40.967040918767452239990234375</LatitudeDegrees>
              <LongitudeDegrees>-1.01398791186511516571044921875</LongitudeDegrees>
            </Position>
            <AltitudeMeters>1221.800048828125</AltitudeMeters>
            <DistanceMeters>609948.95553369</DistanceMeters>
          </Trackpoint>
          <Trackpoint>
            <Time>2021-08-04T10:46:33.000Z</Time>
            <Position>
              <LatitudeDegrees>40.96687437035143375396728515625</LatitudeDegrees>
              <LongitudeDegrees>-1.01369655691087245941162109375</LongitudeDegrees>
            </Position>
            <AltitudeMeters>1219.199951171875</AltitudeMeters>
            <DistanceMeters>609979.66725043</DistanceMeters>
          </Trackpoint>
          <Trackpoint>
            <Time>2021-08-04T10:46:34.000Z</Time>
            <Position>
              <LatitudeDegrees>40.96679658629000186920166015625</LatitudeDegrees>
              <LongitudeDegrees>-1.0135410726070404052734375</LongitudeDegrees>
            </Position>
            <AltitudeMeters>1217.199951171875</AltitudeMeters>
            <DistanceMeters>609995.34233831</DistanceMeters>
          </Trackpoint>
          <Trackpoint>
            <Time>2021-08-04T10:46:35.000Z</Time>
            <Position>
              <LatitudeDegrees>40.9667153656482696533203125</LatitudeDegrees>
              <LongitudeDegrees>-1.01338726468384265899658203125</LongitudeDegrees>
            </Position>
            <AltitudeMeters>1216</AltitudeMeters>
            <DistanceMeters>610011.11620043</DistanceMeters>
          </Trackpoint>
          <Trackpoint>
            <Time>2021-08-04T10:46:36.000Z</Time>
            <Position>
              <LatitudeDegrees>40.9666253440082073211669921875</LatitudeDegrees>
              <LongitudeDegrees>-1.01324091665446758270263671875</LongitudeDegrees>
            </Position>
            <AltitudeMeters>1214.800048828125</AltitudeMeters>
            <DistanceMeters>610026.9802551</DistanceMeters>
          </Trackpoint>
          <Trackpoint>
            <Time>2021-08-04T10:46:37.000Z</Time>
            <Position>
              <LatitudeDegrees>40.9665271081030368804931640625</LatitudeDegrees>
              <LongitudeDegrees>-1.01310311816632747650146484375</LongitudeDegrees>
            </Position>
            <AltitudeMeters>1213.5999755859375</AltitudeMeters>
            <DistanceMeters>610042.90736744</DistanceMeters>
          </Trackpoint>
          <Trackpoint>
            <Time>2021-08-04T10:46:39.000Z</Time>
            <Position>
              <LatitudeDegrees>40.96632133238017559051513671875</LatitudeDegrees>
              <LongitudeDegrees>-1.0128343105316162109375</LongitudeDegrees>
            </Position>
            <AltitudeMeters>1211.5999755859375</AltitudeMeters>
            <DistanceMeters>610075.07780513</DistanceMeters>
          </Trackpoint>
          <Trackpoint>
            <Time>2021-08-04T10:46:41.000Z</Time>
            <Position>
              <LatitudeDegrees>40.96611295826733112335205078125</LatitudeDegrees>
              <LongitudeDegrees>-1.0125602222979068756103515625</LongitudeDegrees>
            </Position>
            <AltitudeMeters>1209.5999755859375</AltitudeMeters>
            <DistanceMeters>610107.76602802</DistanceMeters>
          </Trackpoint>
          <Trackpoint>
            <Time>2021-08-04T10:46:42.000Z</Time>
            <Position>
              <LatitudeDegrees>40.96600868739187717437744140625</LatitudeDegrees>
              <LongitudeDegrees>-1.01242083124816417694091796875</LongitudeDegrees>
            </Position>
            <AltitudeMeters>1208.199951171875</AltitudeMeters>
            <DistanceMeters>610124.25638041</DistanceMeters>
          </Trackpoint>
          <Trackpoint>
            <Time>2021-08-04T10:46:43.000Z</Time>
            <Position>
              <LatitudeDegrees>40.96590106375515460968017578125</LatitudeDegrees>
              <LongitudeDegrees>-1.01228571496903896331787109375</LongitudeDegrees>
            </Position>
            <AltitudeMeters>1206.800048828125</AltitudeMeters>
            <DistanceMeters>610140.76233195</DistanceMeters>
          </Trackpoint>
          <Trackpoint>
            <Time>2021-08-04T10:46:45.000Z</Time>
            <Position>
              <LatitudeDegrees>40.96569118089973926544189453125</LatitudeDegrees>
              <LongitudeDegrees>-1.01203140802681446075439453125</LongitudeDegrees>
            </Position>
            <AltitudeMeters>1205.5999755859375</AltitudeMeters>
            <DistanceMeters>610172.42477116</DistanceMeters>
          </Trackpoint>
          <Trackpoint>
            <Time>2021-08-04T10:46:48.000Z</Time>
            <Position>
              <LatitudeDegrees>40.9654515422880649566650390625</LatitudeDegrees>
              <LongitudeDegrees>-1.0116972215473651885986328125</LongitudeDegrees>
            </Position>
            <AltitudeMeters>1205.5999755859375</AltitudeMeters>
            <DistanceMeters>610211.15792105</DistanceMeters>
          </Trackpoint>
          <Trackpoint>
            <Time>2021-08-04T10:46:52.000Z</Time>
            <Position>
              <LatitudeDegrees>40.9653680585324764251708984375</LatitudeDegrees>
              <LongitudeDegrees>-1.01116572506725788116455078125</LongitudeDegrees>
            </Position>
            <AltitudeMeters>1204.5999755859375</AltitudeMeters>
            <DistanceMeters>610256.78361034</DistanceMeters>
          </Trackpoint>
          <Trackpoint>
            <Time>2021-08-04T10:46:53.000Z</Time>
            <Position>
              <LatitudeDegrees>40.9653687290847301483154296875</LatitudeDegrees>
              <LongitudeDegrees>-1.01101736538112163543701171875</LongitudeDegrees>
            </Position>
            <AltitudeMeters>1203.4000244140625</AltitudeMeters>
            <DistanceMeters>610269.25276653</DistanceMeters>
          </Trackpoint>
          <Trackpoint>
            <Time>2021-08-04T10:46:54.000Z</Time>
            <Position>
              <LatitudeDegrees>40.96536126919090747833251953125</LatitudeDegrees>
              <LongitudeDegrees>-1.01087160408496856689453125</LongitudeDegrees>
            </Position>
            <AltitudeMeters>1201.800048828125</AltitudeMeters>
            <DistanceMeters>610281.53145361</DistanceMeters>
          </Trackpoint>
          <Trackpoint>
            <Time>2021-08-04T10:46:55.000Z</Time>
            <Position>
              <LatitudeDegrees>40.9653362073004245758056640625</LatitudeDegrees>
              <LongitudeDegrees>-1.01073439233005046844482421875</LongitudeDegrees>
            </Position>
            <AltitudeMeters>1200.4000244140625</AltitudeMeters>
            <DistanceMeters>610293.39610117</DistanceMeters>
          </Trackpoint>
          <Trackpoint>
            <Time>2021-08-04T10:46:56.000Z</Time>
            <Position>
              <LatitudeDegrees>40.965287424623966217041015625</LatitudeDegrees>
              <LongitudeDegrees>-1.01061101071536540985107421875</LongitudeDegrees>
            </Position>
            <AltitudeMeters>1199.4000244140625</AltitudeMeters>
            <DistanceMeters>610305.10098561</DistanceMeters>
          </Trackpoint>
          <Trackpoint>
            <Time>2021-08-04T10:46:58.000Z</Time>
            <Position>
              <LatitudeDegrees>40.9651280008256435394287109375</LatitudeDegrees>
              <LongitudeDegrees>-1.01041537709534168243408203125</LongitudeDegrees>
            </Position>
            <AltitudeMeters>1198</AltitudeMeters>
            <DistanceMeters>610329.29195777</DistanceMeters>
          </Trackpoint>
          <Trackpoint>
            <Time>2021-08-04T10:46:59.000Z</Time>
            <Position>
              <LatitudeDegrees>40.96503353677690029144287109375</LatitudeDegrees>
              <LongitudeDegrees>-1.0103316418826580047607421875</LongitudeDegrees>
            </Position>
            <AltitudeMeters>1197.4000244140625</AltitudeMeters>
            <DistanceMeters>610341.94407874</DistanceMeters>
          </Trackpoint>
          <Trackpoint>
            <Time>2021-08-04T10:47:00.000Z</Time>
            <Position>
              <LatitudeDegrees>40.9649375639855861663818359375</LatitudeDegrees>
              <LongitudeDegrees>-1.0102446377277374267578125</LongitudeDegrees>
            </Position>
            <AltitudeMeters>1196.800048828125</AltitudeMeters>
            <DistanceMeters>610354.88935428</DistanceMeters>
          </Trackpoint>
          <Trackpoint>
            <Time>2021-08-04T10:47:02.000Z</Time>
            <Position>
              <LatitudeDegrees>40.96475106664001941680908203125</LatitudeDegrees>
              <LongitudeDegrees>-1.0100473277270793914794921875</LongitudeDegrees>
            </Position>
            <AltitudeMeters>1195.199951171875</AltitudeMeters>
            <DistanceMeters>610381.45760686</DistanceMeters>
          </Trackpoint>
          <Trackpoint>
            <Time>2021-08-04T10:47:03.000Z</Time>
            <Position>
              <LatitudeDegrees>40.96466087736189365386962890625</LatitudeDegrees>
              <LongitudeDegrees>-1.00993643514811992645263671875</LongitudeDegrees>
            </Position>
            <AltitudeMeters>1194</AltitudeMeters>
            <DistanceMeters>610395.15530479</DistanceMeters>
          </Trackpoint>
          <Trackpoint>
            <Time>2021-08-04T10:47:04.000Z</Time>
            <Position>
              <LatitudeDegrees>40.9645701013505458831787109375</LatitudeDegrees>
              <LongitudeDegrees>-1.0098223574459552764892578125</LongitudeDegrees>
            </Position>
            <AltitudeMeters>1192.800048828125</AltitudeMeters>
            <DistanceMeters>610409.08377068</DistanceMeters>
          </Trackpoint>
          <Trackpoint>
            <Time>2021-08-04T10:47:05.000Z</Time>
            <Position>
              <LatitudeDegrees>40.9644785709679126739501953125</LatitudeDegrees>
              <LongitudeDegrees>-1.00970844738185405731201171875</LongitudeDegrees>
            </Position>
            <AltitudeMeters>1191.5999755859375</AltitudeMeters>
            <DistanceMeters>610423.06400582</DistanceMeters>
          </Trackpoint>
          <Trackpoint>
            <Time>2021-08-04T10:47:07.000Z</Time>
            <Position>
              <LatitudeDegrees>40.964290313422679901123046875</LatitudeDegrees>
              <LongitudeDegrees>-1.00948029197752475738525390625</LongitudeDegrees>
            </Position>
            <AltitudeMeters>1189.5999755859375</AltitudeMeters>
            <DistanceMeters>610451.46729841</DistanceMeters>
          </Trackpoint>
          <Trackpoint>
            <Time>2021-08-04T10:47:08.000Z</Time>
            <Position>
              <LatitudeDegrees>40.96419383771717548370361328125</LatitudeDegrees>
              <LongitudeDegrees>-1.00936411879956722259521484375</LongitudeDegrees>
            </Position>
            <AltitudeMeters>1188.199951171875</AltitudeMeters>
            <DistanceMeters>610465.9805876</DistanceMeters>
          </Trackpoint>
          <Trackpoint>
            <Time>2021-08-04T10:47:09.000Z</Time>
            <Position>
              <LatitudeDegrees>40.96409543417394161224365234375</LatitudeDegrees>
              <LongitudeDegrees>-1.00924761034548282623291015625</LongitudeDegrees>
            </Position>
            <AltitudeMeters>1187</AltitudeMeters>
            <DistanceMeters>610480.67197579</DistanceMeters>
          </Trackpoint>
          <Trackpoint>
            <Time>2021-08-04T10:47:10.000Z</Time>
            <Position>
              <LatitudeDegrees>40.96399351023137569427490234375</LatitudeDegrees>
              <LongitudeDegrees>-1.009132526814937591552734375</LongitudeDegrees>
            </Position>
            <AltitudeMeters>1186</AltitudeMeters>
            <DistanceMeters>610495.57996833</DistanceMeters>
          </Trackpoint>
          <Trackpoint>
            <Time>2021-08-04T10:47:11.000Z</Time>
            <Position>
              <LatitudeDegrees>40.9638891555368900299072265625</LatitudeDegrees>
              <LongitudeDegrees>-1.00901895202696323394775390625</LongitudeDegrees>
            </Position>
            <AltitudeMeters>1184.800048828125</AltitudeMeters>
            <DistanceMeters>610510.61372313</DistanceMeters>
          </Trackpoint>
          <Trackpoint>
            <Time>2021-08-04T10:47:12.000Z</Time>
            <Position>
              <LatitudeDegrees>40.96378505229949951171875</LatitudeDegrees>
              <LongitudeDegrees>-1.00890361703932285308837890625</LongitudeDegrees>
            </Position>
            <AltitudeMeters>1183.5999755859375</AltitudeMeters>
            <DistanceMeters>610525.72057991</DistanceMeters>
          </Trackpoint>
          <Trackpoint>
            <Time>2021-08-04T10:47:13.000Z</Time>
            <Position>
              <LatitudeDegrees>40.96368086524307727813720703125</LatitudeDegrees>
              <LongitudeDegrees>-1.00878543220460414886474609375</LongitudeDegrees>
            </Position>
            <AltitudeMeters>1182.4000244140625</AltitudeMeters>
            <DistanceMeters>610540.98945393</DistanceMeters>
          </Trackpoint>
          <Trackpoint>
            <Time>2021-08-04T10:47:14.000Z</Time>
            <Position>
              <LatitudeDegrees>40.96357726491987705230712890625</LatitudeDegrees>
              <LongitudeDegrees>-1.0086636431515216827392578125</LongitudeDegrees>
            </Position>
            <AltitudeMeters>1181.199951171875</AltitudeMeters>
            <DistanceMeters>610556.4081057</DistanceMeters>
          </Trackpoint>
          <Trackpoint>
            <Time>2021-08-04T10:47:16.000Z</Time>
            <Position>
              <LatitudeDegrees>40.9633862413465976715087890625</LatitudeDegrees>
              <LongitudeDegrees>-1.0083964280784130096435546875</LongitudeDegrees>
            </Position>
            <AltitudeMeters>1179</AltitudeMeters>
            <DistanceMeters>610587.33444733</DistanceMeters>
          </Trackpoint>
          <Trackpoint>
            <Time>2021-08-04T10:47:18.000Z</Time>
            <Position>
              <LatitudeDegrees>40.96321843564510345458984375</LatitudeDegrees>
              <LongitudeDegrees>-1.00810029543936252593994140625</LongitudeDegrees>
            </Position>
            <AltitudeMeters>1177.4000244140625</AltitudeMeters>
            <DistanceMeters>610618.45217793</DistanceMeters>
          </Trackpoint>
          <Trackpoint>
            <Time>2021-08-04T10:47:20.000Z</Time>
            <Position>
              <LatitudeDegrees>40.96305213868618011474609375</LatitudeDegrees>
              <LongitudeDegrees>-1.00779536180198192596435546875</LongitudeDegrees>
            </Position>
            <AltitudeMeters>1175.800048828125</AltitudeMeters>
            <DistanceMeters>610650.06595341</DistanceMeters>
          </Trackpoint>
          <Trackpoint>
            <Time>2021-08-04T10:47:21.000Z</Time>
            <Position>
              <LatitudeDegrees>40.96296764910221099853515625</LatitudeDegrees>
              <LongitudeDegrees>-1.00764197297394275665283203125</LongitudeDegrees>
            </Position>
            <AltitudeMeters>1174.5999755859375</AltitudeMeters>
            <DistanceMeters>610666.02308648</DistanceMeters>
          </Trackpoint>
          <Trackpoint>
            <Time>2021-08-04T10:47:23.000Z</Time>
            <Position>
              <LatitudeDegrees>40.962796993553638458251953125</LatitudeDegrees>
              <LongitudeDegrees>-1.007332764565944671630859375</LongitudeDegrees>
            </Position>
            <AltitudeMeters>1172.5999755859375</AltitudeMeters>
            <DistanceMeters>610698.21260576</DistanceMeters>
          </Trackpoint>
          <Trackpoint>
            <Time>2021-08-04T10:47:24.000Z</Time>
            <Position>
              <LatitudeDegrees>40.9627116657793521881103515625</LatitudeDegrees>
              <LongitudeDegrees>-1.0071787051856517791748046875</LongitudeDegrees>
            </Position>
            <AltitudeMeters>1170.5999755859375</AltitudeMeters>
            <DistanceMeters>610714.27043353</DistanceMeters>
          </Trackpoint>
          <Trackpoint>
            <Time>2021-08-04T10:47:25.000Z</Time>
            <Position>
              <LatitudeDegrees>40.96262700855731964111328125</LatitudeDegrees>
              <LongitudeDegrees>-1.00702531635761260986328125</LongitudeDegrees>
            </Position>
            <AltitudeMeters>1168.5999755859375</AltitudeMeters>
            <DistanceMeters>610730.2388805</DistanceMeters>
          </Trackpoint>
          <Trackpoint>
            <Time>2021-08-04T10:47:27.000Z</Time>
            <Position>
              <LatitudeDegrees>40.96245828084647655487060546875</LatitudeDegrees>
              <LongitudeDegrees>-1.00672625005245208740234375</LongitudeDegrees>
            </Position>
            <AltitudeMeters>1167</AltitudeMeters>
            <DistanceMeters>610761.61554467</DistanceMeters>
          </Trackpoint>
          <Trackpoint>
            <Time>2021-08-04T10:47:29.000Z</Time>
            <Position>
              <LatitudeDegrees>40.9622717835009098052978515625</LatitudeDegrees>
              <LongitudeDegrees>-1.0064521618187427520751953125</LongitudeDegrees>
            </Position>
            <AltitudeMeters>1165.4000244140625</AltitudeMeters>
            <DistanceMeters>610792.62455401</DistanceMeters>
          </Trackpoint>
          <Trackpoint>
            <Time>2021-08-04T10:47:30.000Z</Time>
            <Position>
              <LatitudeDegrees>40.96216541714966297149658203125</LatitudeDegrees>
              <LongitudeDegrees>-1.0063317976891994476318359375</LongitudeDegrees>
            </Position>
            <AltitudeMeters>1164</AltitudeMeters>
            <DistanceMeters>610808.19676236</DistanceMeters>
          </Trackpoint>
          <Trackpoint>
            <Time>2021-08-04T10:47:31.000Z</Time>
            <Position>
              <LatitudeDegrees>40.96204974688589572906494140625</LatitudeDegrees>
              <LongitudeDegrees>-1.00622777827084064483642578125</LongitudeDegrees>
            </Position>
            <AltitudeMeters>1162.5999755859375</AltitudeMeters>
            <DistanceMeters>610823.75910955</DistanceMeters>
          </Trackpoint>
          <Trackpoint>
            <Time>2021-08-04T10:47:32.000Z</Time>
            <Position>
              <LatitudeDegrees>40.9619291312992572784423828125</LatitudeDegrees>
              <LongitudeDegrees>-1.006136499345302581787109375</LongitudeDegrees>
            </Position>
            <AltitudeMeters>1161.4000244140625</AltitudeMeters>
            <DistanceMeters>610839.22133138</DistanceMeters>
          </Trackpoint>
          <Trackpoint>
            <Time>2021-08-04T10:47:35.000Z</Time>
            <Position>
              <LatitudeDegrees>40.9615910053253173828125</LatitudeDegrees>
              <LongitudeDegrees>-1.0058634169399738311767578125</LongitudeDegrees>
            </Position>
            <AltitudeMeters>1160.4000244140625</AltitudeMeters>
            <DistanceMeters>610883.30246147</DistanceMeters>
          </Trackpoint>
          <Trackpoint>
            <Time>2021-08-04T10:47:39.000Z</Time>
            <Position>
              <LatitudeDegrees>40.96126989461481571197509765625</LatitudeDegrees>
              <LongitudeDegrees>-1.00532907061278820037841796875</LongitudeDegrees>
            </Position>
            <AltitudeMeters>1159.199951171875</AltitudeMeters>
            <DistanceMeters>610940.69954091</DistanceMeters>
          </Trackpoint>
          <Trackpoint>
            <Time>2021-08-04T10:47:41.000Z</Time>
            <Position>
              <LatitudeDegrees>40.96114433370530605316162109375</LatitudeDegrees>
              <LongitudeDegrees>-1.00502765737473964691162109375</LongitudeDegrees>
            </Position>
            <AltitudeMeters>1157.800048828125</AltitudeMeters>
            <DistanceMeters>610969.63232762</DistanceMeters>
          </Trackpoint>
          <Trackpoint>
            <Time>2021-08-04T10:47:43.000Z</Time>
            <Position>
              <LatitudeDegrees>40.96101407893002033233642578125</LatitudeDegrees>
              <LongitudeDegrees>-1.00473529659211635589599609375</LongitudeDegrees>
            </Position>
            <AltitudeMeters>1156.5999755859375</AltitudeMeters>
            <DistanceMeters>610998.16313923</DistanceMeters>
          </Trackpoint>
          <Trackpoint>
            <Time>2021-08-04T10:47:45.000Z</Time>
            <Position>
              <LatitudeDegrees>40.9608944691717624664306640625</LatitudeDegrees>
              <LongitudeDegrees>-1.00444100797176361083984375</LongitudeDegrees>
            </Position>
            <AltitudeMeters>1155.5999755859375</AltitudeMeters>
            <DistanceMeters>611026.25313886</DistanceMeters>
          </Trackpoint>
          <Trackpoint>
            <Time>2021-08-04T10:47:47.000Z</Time>
            <Position>
              <LatitudeDegrees>40.960778631269931793212890625</LatitudeDegrees>
              <LongitudeDegrees>-1.0041444562375545501708984375</LongitudeDegrees>
            </Position>
            <AltitudeMeters>1154.5999755859375</AltitudeMeters>
            <DistanceMeters>611054.3158003</DistanceMeters>
          </Trackpoint>
          <Trackpoint>
            <Time>2021-08-04T10:47:49.000Z</Time>
            <Position>
              <LatitudeDegrees>40.96067880280315876007080078125</LatitudeDegrees>
              <LongitudeDegrees>-1.00383591838181018829345703125</LongitudeDegrees>
            </Position>
            <AltitudeMeters>1153.5999755859375</AltitudeMeters>
            <DistanceMeters>611082.52865407</DistanceMeters>
          </Trackpoint>
          <Trackpoint>
            <Time>2021-08-04T10:47:50.000Z</Time>
            <Position>
              <LatitudeDegrees>40.96064426936209201812744140625</LatitudeDegrees>
              <LongitudeDegrees>-1.003673560917377471923828125</LongitudeDegrees>
            </Position>
            <AltitudeMeters>1153</AltitudeMeters>
            <DistanceMeters>611096.70643605</DistanceMeters>
          </Trackpoint>
          <Trackpoint>
            <Time>2021-08-04T10:47:52.000Z</Time>
            <Position>
              <LatitudeDegrees>40.96061241813004016876220703125</LatitudeDegrees>
              <LongitudeDegrees>-1.00333996117115020751953125</LongitudeDegrees>
            </Position>
            <AltitudeMeters>1151.800048828125</AltitudeMeters>
            <DistanceMeters>611124.96901682</DistanceMeters>
          </Trackpoint>
          <Trackpoint>
            <Time>2021-08-04T10:47:53.000Z</Time>
            <Position>
              <LatitudeDegrees>40.96060931682586669921875</LatitudeDegrees>
              <LongitudeDegrees>-1.003170311450958251953125</LongitudeDegrees>
            </Position>
            <AltitudeMeters>1151.5999755859375</AltitudeMeters>
            <DistanceMeters>611139.23220693</DistanceMeters>
          </Trackpoint>
          <Trackpoint>
            <Time>2021-08-04T10:47:55.000Z</Time>
            <Position>
              <LatitudeDegrees>40.960597582161426544189453125</LatitudeDegrees>
              <LongitudeDegrees>-1.00282807834446430206298828125</LongitudeDegrees>
            </Position>
            <AltitudeMeters>1150.5999755859375</AltitudeMeters>
            <DistanceMeters>611168.02671264</DistanceMeters>
          </Trackpoint>
          <Trackpoint>
            <Time>2021-08-04T10:47:56.000Z</Time>
            <Position>
              <LatitudeDegrees>40.9605709277093410491943359375</LatitudeDegrees>
              <LongitudeDegrees>-1.0026601888239383697509765625</LongitudeDegrees>
            </Position>
            <AltitudeMeters>1149.4000244140625</AltitudeMeters>
            <DistanceMeters>611182.44637076</DistanceMeters>
          </Trackpoint>
          <Trackpoint>
            <Time>2021-08-04T10:47:57.000Z</Time>
            <Position>
              <LatitudeDegrees>40.96052692271769046783447265625</LatitudeDegrees>
              <LongitudeDegrees>-1.00249934010207653045654296875</LongitudeDegrees>
            </Position>
            <AltitudeMeters>1148.199951171875</AltitudeMeters>
            <DistanceMeters>611196.82558006</DistanceMeters>
          </Trackpoint>
          <Trackpoint>
            <Time>2021-08-04T10:47:59.000Z</Time>
            <Position>
              <LatitudeDegrees>40.9604116715490818023681640625</LatitudeDegrees>
              <LongitudeDegrees>-1.002193652093410491943359375</LongitudeDegrees>
            </Position>
            <AltitudeMeters>1146.5999755859375</AltitudeMeters>
            <DistanceMeters>611225.54314997</DistanceMeters>
          </Trackpoint>
          <Trackpoint>
            <Time>2021-08-04T10:48:01.000Z</Time>
            <Position>
              <LatitudeDegrees>40.9602913074195384979248046875</LatitudeDegrees>
              <LongitudeDegrees>-1.0018927417695522308349609375</LongitudeDegrees>
            </Position>
            <AltitudeMeters>1145.5999755859375</AltitudeMeters>
            <DistanceMeters>611254.16402268</DistanceMeters>
          </Trackpoint>
          <Trackpoint>
            <Time>2021-08-04T10:48:04.000Z</Time>
            <Position>
              <LatitudeDegrees>40.9601115994155406951904296875</LatitudeDegrees>
              <LongitudeDegrees>-1.00144506432116031646728515625</LongitudeDegrees>
            </Position>
            <AltitudeMeters>1144.4000244140625</AltitudeMeters>
            <DistanceMeters>611296.77775653</DistanceMeters>
          </Trackpoint>
          <Trackpoint>
            <Time>2021-08-04T10:48:07.000Z</Time>
            <Position>
              <LatitudeDegrees>40.95993432216346263885498046875</LatitudeDegrees>
              <LongitudeDegrees>-1.001004092395305633544921875</LongitudeDegrees>
            </Position>
            <AltitudeMeters>1143.199951171875</AltitudeMeters>
            <DistanceMeters>611338.76709286</DistanceMeters>
          </Trackpoint>
          <Trackpoint>
            <Time>2021-08-04T10:48:10.000Z</Time>
            <Position>
              <LatitudeDegrees>40.9597572125494480133056640625</LatitudeDegrees>
              <LongitudeDegrees>-1.00056479685008525848388671875</LongitudeDegrees>
            </Position>
            <AltitudeMeters>1142</AltitudeMeters>
            <DistanceMeters>611380.62331332</DistanceMeters>
          </Trackpoint>
          <Trackpoint>
            <Time>2021-08-04T10:48:12.000Z</Time>
            <Position>
              <LatitudeDegrees>40.95963860861957073211669921875</LatitudeDegrees>
              <LongitudeDegrees>-1.00027226842939853668212890625</LongitudeDegrees>
            </Position>
            <AltitudeMeters>1140.199951171875</AltitudeMeters>
            <DistanceMeters>611408.53044454</DistanceMeters>
          </Trackpoint>
          <Trackpoint>
            <Time>2021-08-04T10:48:15.000Z</Time>
            <Position>
              <LatitudeDegrees>40.95946510322391986846923828125</LatitudeDegrees>
              <LongitudeDegrees>-0.99983205087482929229736328125</LongitudeDegrees>
            </Position>
            <AltitudeMeters>1138.800048828125</AltitudeMeters>
            <DistanceMeters>611450.26805548</DistanceMeters>
          </Trackpoint>
          <Trackpoint>
            <Time>2021-08-04T10:48:19.000Z</Time>
            <Position>
              <LatitudeDegrees>40.95923376269638538360595703125</LatitudeDegrees>
              <LongitudeDegrees>-0.99926778115332126617431640625</LongitudeDegrees>
            </Position>
            <AltitudeMeters>1137.5999755859375</AltitudeMeters>
            <DistanceMeters>611504.2350309</DistanceMeters>
          </Trackpoint>
          <Trackpoint>
            <Time>2021-08-04T10:48:22.000Z</Time>
            <Position>
              <LatitudeDegrees>40.95907718874514102935791015625</LatitudeDegrees>
              <LongitudeDegrees>-0.99885606206953525543212890625</LongitudeDegrees>
            </Position>
            <AltitudeMeters>1136.5999755859375</AltitudeMeters>
            <DistanceMeters>611542.98146724</DistanceMeters>
          </Trackpoint>
          <Trackpoint>
            <Time>2021-08-04T10:48:27.000Z</Time>
            <Position>
              <LatitudeDegrees>40.95887384377419948577880859375</LatitudeDegrees>
              <LongitudeDegrees>-0.99816505797207355499267578125</LongitudeDegrees>
            </Position>
            <AltitudeMeters>1135.4000244140625</AltitudeMeters>
            <DistanceMeters>611605.31631194</DistanceMeters>
          </Trackpoint>
          <Trackpoint>
            <Time>2021-08-04T10:48:32.000Z</Time>
            <Position>
              <LatitudeDegrees>40.958677791059017181396484375</LatitudeDegrees>
              <LongitudeDegrees>-0.997499786317348480224609375</LongitudeDegrees>
            </Position>
            <AltitudeMeters>1135</AltitudeMeters>
            <DistanceMeters>611665.34138613</DistanceMeters>
          </Trackpoint>
          <Trackpoint>
            <Time>2021-08-04T10:48:35.000Z</Time>
            <Position>
              <LatitudeDegrees>40.9585669822990894317626953125</LatitudeDegrees>
              <LongitudeDegrees>-0.9971044957637786865234375</LongitudeDegrees>
            </Position>
            <AltitudeMeters>1134.4000244140625</AltitudeMeters>
            <DistanceMeters>611700.78214674</DistanceMeters>
          </Trackpoint>
          <Trackpoint>
            <Time>2021-08-04T10:48:38.000Z</Time>
            <Position>
              <LatitudeDegrees>40.95845826901495456695556640625</LatitudeDegrees>
              <LongitudeDegrees>-0.996711887419223785400390625</LongitudeDegrees>
            </Position>
            <AltitudeMeters>1133.4000244140625</AltitudeMeters>
            <DistanceMeters>611735.93072877</DistanceMeters>
          </Trackpoint>
          <Trackpoint>
            <Time>2021-08-04T10:48:44.000Z</Time>
            <Position>
              <LatitudeDegrees>40.958255343139171600341796875</LatitudeDegrees>
              <LongitudeDegrees>-0.99592809565365314483642578125</LongitudeDegrees>
            </Position>
            <AltitudeMeters>1132.4000244140625</AltitudeMeters>
            <DistanceMeters>611805.575457</DistanceMeters>
          </Trackpoint>
          <Trackpoint>
            <Time>2021-08-04T10:48:45.000Z</Time>
            <Position>
              <LatitudeDegrees>40.958221144974231719970703125</LatitudeDegrees>
              <LongitudeDegrees>-0.995798595249652862548828125</LongitudeDegrees>
            </Position>
            <AltitudeMeters>1132</AltitudeMeters>
            <DistanceMeters>611817.10701829</DistanceMeters>
          </Trackpoint>
          <Trackpoint>
            <Time>2021-08-04T10:48:47.000Z</Time>
            <Position>
              <LatitudeDegrees>40.9581537544727325439453125</LatitudeDegrees>
              <LongitudeDegrees>-0.99554236046969890594482421875</LongitudeDegrees>
            </Position>
            <AltitudeMeters>1130.800048828125</AltitudeMeters>
            <DistanceMeters>611839.91342974</DistanceMeters>
          </Trackpoint>
          <Trackpoint>
            <Time>2021-08-04T10:48:51.000Z</Time>
            <Position>
              <LatitudeDegrees>40.95802023075520992279052734375</LatitudeDegrees>
              <LongitudeDegrees>-0.99503743462264537811279296875</LongitudeDegrees>
            </Position>
            <AltitudeMeters>1129.5999755859375</AltitudeMeters>
            <DistanceMeters>611884.88135217</DistanceMeters>
          </Trackpoint>
          <Trackpoint>
            <Time>2021-08-04T10:48:57.000Z</Time>
            <Position>
              <LatitudeDegrees>40.95783121883869171142578125</LatitudeDegrees>
              <LongitudeDegrees>-0.99430653266608715057373046875</LongitudeDegrees>
            </Position>
            <AltitudeMeters>1128.800048828125</AltitudeMeters>
            <DistanceMeters>611949.81902397</DistanceMeters>
          </Trackpoint>
          <Trackpoint>
            <Time>2021-08-04T10:48:59.000Z</Time>
            <Position>
              <LatitudeDegrees>40.95775553025305271148681640625</LatitudeDegrees>
              <LongitudeDegrees>-0.99407737143337726593017578125</LongitudeDegrees>
            </Position>
            <AltitudeMeters>1128.5999755859375</AltitudeMeters>
            <DistanceMeters>611970.84270471</DistanceMeters>
          </Trackpoint>
          <Trackpoint>
            <Time>2021-08-04T10:49:05.000Z</Time>
            <Position>
              <LatitudeDegrees>40.9574793465435504913330078125</LatitudeDegrees>
              <LongitudeDegrees>-0.9934069029986858367919921875</LongitudeDegrees>
            </Position>
            <AltitudeMeters>1127.800048828125</AltitudeMeters>
            <DistanceMeters>612035.03724182</DistanceMeters>
          </Trackpoint>
          <Trackpoint>
            <Time>2021-08-04T10:49:07.000Z</Time>
            <Position>
              <LatitudeDegrees>40.9573853015899658203125</LatitudeDegrees>
              <LongitudeDegrees>-0.993179418146610260009765625</LongitudeDegrees>
            </Position>
            <AltitudeMeters>1127.5999755859375</AltitudeMeters>
            <DistanceMeters>612056.83588129</DistanceMeters>
          </Trackpoint>
          <Trackpoint>
            <Time>2021-08-04T10:49:10.000Z</Time>
            <Position>
              <LatitudeDegrees>40.9572409652173519134521484375</LatitudeDegrees>
              <LongitudeDegrees>-0.99283165298402309417724609375</LongitudeDegrees>
            </Position>
            <AltitudeMeters>1126.4000244140625</AltitudeMeters>
            <DistanceMeters>612090.19093486</DistanceMeters>
          </Trackpoint>
          <Trackpoint>
            <Time>2021-08-04T10:49:15.000Z</Time>
            <Position>
              <LatitudeDegrees>40.95699847675859928131103515625</LatitudeDegrees>
              <LongitudeDegrees>-0.99224768579006195068359375</LongitudeDegrees>
            </Position>
            <AltitudeMeters>1125.199951171875</AltitudeMeters>
            <DistanceMeters>612146.2071478</DistanceMeters>
          </Trackpoint>
          <Trackpoint>
            <Time>2021-08-04T10:49:19.000Z</Time>
            <Position>
              <LatitudeDegrees>40.9568362869322299957275390625</LatitudeDegrees>
              <LongitudeDegrees>-0.99175642244517803192138671875</LongitudeDegrees>
            </Position>
            <AltitudeMeters>1123.5999755859375</AltitudeMeters>
            <DistanceMeters>612191.27406176</DistanceMeters>
          </Trackpoint>
          <Trackpoint>
            <Time>2021-08-04T10:49:21.000Z</Time>
            <Position>
              <LatitudeDegrees>40.95676244236528873443603515625</LatitudeDegrees>
              <LongitudeDegrees>-0.9915089048445224761962890625</LongitudeDegrees>
            </Position>
            <AltitudeMeters>1122.5999755859375</AltitudeMeters>
            <DistanceMeters>612213.64392355</DistanceMeters>
          </Trackpoint>
          <Trackpoint>
            <Time>2021-08-04T10:49:25.000Z</Time>
            <Position>
              <LatitudeDegrees>40.95661894418299198150634765625</LatitudeDegrees>
              <LongitudeDegrees>-0.9910147078335285186767578125</LongitudeDegrees>
            </Position>
            <AltitudeMeters>1121.199951171875</AltitudeMeters>
            <DistanceMeters>612258.14869888</DistanceMeters>
          </Trackpoint>
          <Trackpoint>
            <Time>2021-08-04T10:49:27.000Z</Time>
            <Position>
              <LatitudeDegrees>40.95655205659568309783935546875</LatitudeDegrees>
              <LongitudeDegrees>-0.99076450802385807037353515625</LongitudeDegrees>
            </Position>
            <AltitudeMeters>1120</AltitudeMeters>
            <DistanceMeters>612280.45833252</DistanceMeters>
          </Trackpoint>
          <Trackpoint>
            <Time>2021-08-04T10:49:31.000Z</Time>
            <Position>
              <LatitudeDegrees>40.9564138390123844146728515625</LatitudeDegrees>
              <LongitudeDegrees>-0.99026712588965892791748046875</LongitudeDegrees>
            </Position>
            <AltitudeMeters>1119</AltitudeMeters>
            <DistanceMeters>612325.00711568</DistanceMeters>
          </Trackpoint>
          <Trackpoint>
            <Time>2021-08-04T10:49:34.000Z</Time>
            <Position>
              <LatitudeDegrees>40.9563082270324230194091796875</LatitudeDegrees>
              <LongitudeDegrees>-0.9898975677788257598876953125</LongitudeDegrees>
            </Position>
            <AltitudeMeters>1117.5999755859375</AltitudeMeters>
            <DistanceMeters>612358.22054969</DistanceMeters>
          </Trackpoint>
          <Trackpoint>
            <Time>2021-08-04T10:49:40.000Z</Time>
            <Position>
              <LatitudeDegrees>40.956104882061481475830078125</LatitudeDegrees>
              <LongitudeDegrees>-0.98916088230907917022705078125</LongitudeDegrees>
            </Position>
            <AltitudeMeters>1116.800048828125</AltitudeMeters>
            <DistanceMeters>612424.15012247</DistanceMeters>
          </Trackpoint>
          <Trackpoint>
            <Time>2021-08-04T10:49:41.000Z</Time>
            <Position>
              <LatitudeDegrees>40.95607009716331958770751953125</LatitudeDegrees>
              <LongitudeDegrees>-0.98903733305633068084716796875</LongitudeDegrees>
            </Position>
            <AltitudeMeters>1116.5999755859375</AltitudeMeters>
            <DistanceMeters>612435.23367605</DistanceMeters>
          </Trackpoint>
          <Trackpoint>
            <Time>2021-08-04T10:49:47.000Z</Time>
            <Position>
              <LatitudeDegrees>40.9558613039553165435791015625</LatitudeDegrees>
              <LongitudeDegrees>-0.98830483853816986083984375</LongitudeDegrees>
            </Position>
            <AltitudeMeters>1116</AltitudeMeters>
            <DistanceMeters>612501.04446122</DistanceMeters>
          </Trackpoint>
          <Trackpoint>
            <Time>2021-08-04T10:49:53.000Z</Time>
            <Position>
              <LatitudeDegrees>40.955649577081203460693359375</LatitudeDegrees>
              <LongitudeDegrees>-0.98759899847209453582763671875</LongitudeDegrees>
            </Position>
            <AltitudeMeters>1116</AltitudeMeters>
            <DistanceMeters>612564.88402748</DistanceMeters>
          </Trackpoint>
          <Trackpoint>
            <Time>2021-08-04T10:49:54.000Z</Time>
            <Position>
              <LatitudeDegrees>40.9556152112782001495361328125</LatitudeDegrees>
              <LongitudeDegrees>-0.98748232237994670867919921875</LongitudeDegrees>
            </Position>
            <AltitudeMeters>1115.800048828125</AltitudeMeters>
            <DistanceMeters>612575.41099752</DistanceMeters>
          </Trackpoint>
          <Trackpoint>
            <Time>2021-08-04T10:49:59.000Z</Time>
            <Position>
              <LatitudeDegrees>40.95543508417904376983642578125</LatitudeDegrees>
              <LongitudeDegrees>-0.98690112121403217315673828125</LongitudeDegrees>
            </Position>
            <AltitudeMeters>1114.199951171875</AltitudeMeters>
            <DistanceMeters>612628.21883981</DistanceMeters>
          </Trackpoint>
          <Trackpoint>
            <Time>2021-08-04T10:50:01.000Z</Time>
            <Position>
              <LatitudeDegrees>40.95535210333764553070068359375</LatitudeDegrees>
              <LongitudeDegrees>-0.9866598062217235565185546875</LongitudeDegrees>
            </Position>
            <AltitudeMeters>1112.800048828125</AltitudeMeters>
            <DistanceMeters>612650.50701078</DistanceMeters>
          </Trackpoint>
          <Trackpoint>
            <Time>2021-08-04T10:50:03.000Z</Time>
            <Position>
              <LatitudeDegrees>40.95525856129825115203857421875</LatitudeDegrees>
              <LongitudeDegrees>-0.98641497083008289337158203125</LongitudeDegrees>
            </Position>
            <AltitudeMeters>1111.5999755859375</AltitudeMeters>
            <DistanceMeters>612673.57091642</DistanceMeters>
          </Trackpoint>
          <Trackpoint>
            <Time>2021-08-04T10:50:06.000Z</Time>
            <Position>
              <LatitudeDegrees>40.9551146440207958221435546875</LatitudeDegrees>
              <LongitudeDegrees>-0.98604298196732997894287109375</LongitudeDegrees>
            </Position>
            <AltitudeMeters>1110.199951171875</AltitudeMeters>
            <DistanceMeters>612708.70369483</DistanceMeters>
          </Trackpoint>
          <Trackpoint>
            <Time>2021-08-04T10:50:10.000Z</Time>
            <Position>
              <LatitudeDegrees>40.9549278952181339263916015625</LatitudeDegrees>
              <LongitudeDegrees>-0.98554593510925769805908203125</LongitudeDegrees>
            </Position>
            <AltitudeMeters>1109</AltitudeMeters>
            <DistanceMeters>612755.36926217</DistanceMeters>
          </Trackpoint>
          <Trackpoint>
            <Time>2021-08-04T10:50:14.000Z</Time>
            <Position>
              <LatitudeDegrees>40.95473553054034709930419921875</LatitudeDegrees>
              <LongitudeDegrees>-0.98506665788590908050537109375</LongitudeDegrees>
            </Position>
            <AltitudeMeters>1107.800048828125</AltitudeMeters>
            <DistanceMeters>612800.99237847</DistanceMeters>
          </Trackpoint>
          <Trackpoint>
            <Time>2021-08-04T10:50:20.000Z</Time>
            <Position>
              <LatitudeDegrees>40.9544652141630649566650390625</LatitudeDegrees>
              <LongitudeDegrees>-0.98440892994403839111328125</LongitudeDegrees>
            </Position>
            <AltitudeMeters>1107.5999755859375</AltitudeMeters>
            <DistanceMeters>612863.9362263</DistanceMeters>
          </Trackpoint>
          <Trackpoint>
            <Time>2021-08-04T10:50:27.000Z</Time>
            <Position>
              <LatitudeDegrees>40.95420847646892070770263671875</LatitudeDegrees>
              <LongitudeDegrees>-0.9836852364242076873779296875</LongitudeDegrees>
            </Position>
            <AltitudeMeters>1108.5999755859375</AltitudeMeters>
            <DistanceMeters>612931.1462507</DistanceMeters>
          </Trackpoint>
          <Trackpoint>
            <Time>2021-08-04T10:50:34.000Z</Time>
            <Position>
              <LatitudeDegrees>40.9541198797523975372314453125</LatitudeDegrees>
              <LongitudeDegrees>-0.98291250877082347869873046875</LongitudeDegrees>
            </Position>
            <AltitudeMeters>1107.5999755859375</AltitudeMeters>
            <DistanceMeters>612996.8453185</DistanceMeters>
          </Trackpoint>
          <Trackpoint>
            <Time>2021-08-04T10:50:41.000Z</Time>
            <Position>
              <LatitudeDegrees>40.95403564162552356719970703125</LatitudeDegrees>
              <LongitudeDegrees>-0.9821486659348011016845703125</LongitudeDegrees>
            </Position>
            <AltitudeMeters>1107.5999755859375</AltitudeMeters>
            <DistanceMeters>613061.7342323</DistanceMeters>
          </Trackpoint>
          <Trackpoint>
            <Time>2021-08-04T10:50:48.000Z</Time>
            <Position>
              <LatitudeDegrees>40.95381251536309719085693359375</LatitudeDegrees>
              <LongitudeDegrees>-0.98144617862999439239501953125</LongitudeDegrees>
            </Position>
            <AltitudeMeters>1107.199951171875</AltitudeMeters>
            <DistanceMeters>613125.79457316</DistanceMeters>
          </Trackpoint>
          <Trackpoint>
            <Time>2021-08-04T10:50:54.000Z</Time>
            <Position>
              <LatitudeDegrees>40.95361134968698024749755859375</LatitudeDegrees>
              <LongitudeDegrees>-0.98084427416324615478515625</LongitudeDegrees>
            </Position>
            <AltitudeMeters>1107.4000244140625</AltitudeMeters>
            <DistanceMeters>613181.12330127</DistanceMeters>
          </Trackpoint>
          <Trackpoint>
            <Time>2021-08-04T10:50:57.000Z</Time>
            <Position>
              <LatitudeDegrees>40.95351311378180980682373046875</LatitudeDegrees>
              <LongitudeDegrees>-0.9805363230407238006591796875</LongitudeDegrees>
            </Position>
            <AltitudeMeters>1107</AltitudeMeters>
            <DistanceMeters>613209.22406808</DistanceMeters>
          </Trackpoint>
          <Trackpoint>
            <Time>2021-08-04T10:51:03.000Z</Time>
            <Position>
              <LatitudeDegrees>40.953356958925724029541015625</LatitudeDegrees>
              <LongitudeDegrees>-0.97987306304275989532470703125</LongitudeDegrees>
            </Position>
            <AltitudeMeters>1106</AltitudeMeters>
            <DistanceMeters>613267.6239954</DistanceMeters>
          </Trackpoint>
          <Trackpoint>
            <Time>2021-08-04T10:51:08.000Z</Time>
            <Position>
              <LatitudeDegrees>40.95323634333908557891845703125</LatitudeDegrees>
              <LongitudeDegrees>-0.97929253242909908294677734375</LongitudeDegrees>
            </Position>
            <AltitudeMeters>1104.800048828125</AltitudeMeters>
            <DistanceMeters>613318.23640461</DistanceMeters>
          </Trackpoint>
          <Trackpoint>
            <Time>2021-08-04T10:51:11.000Z</Time>
            <Position>
              <LatitudeDegrees>40.9531616605818271636962890625</LatitudeDegrees>
              <LongitudeDegrees>-0.97893931902945041656494140625</LongitudeDegrees>
            </Position>
            <AltitudeMeters>1103.800048828125</AltitudeMeters>
            <DistanceMeters>613349.0693154</DistanceMeters>
          </Trackpoint>
          <Trackpoint>
            <Time>2021-08-04T10:51:16.000Z</Time>
            <Position>
              <LatitudeDegrees>40.95300257205963134765625</LatitudeDegrees>
              <LongitudeDegrees>-0.978375636041164398193359375</LongitudeDegrees>
            </Position>
            <AltitudeMeters>1102.5999755859375</AltitudeMeters>
            <DistanceMeters>613399.65316995</DistanceMeters>
          </Trackpoint>
          <Trackpoint>
            <Time>2021-08-04T10:51:23.000Z</Time>
            <Position>
              <LatitudeDegrees>40.952691100537776947021484375</LatitudeDegrees>
              <LongitudeDegrees>-0.9776854701340198516845703125</LongitudeDegrees>
            </Position>
            <AltitudeMeters>1101.800048828125</AltitudeMeters>
            <DistanceMeters>613467.23767636</DistanceMeters>
          </Trackpoint>
          <Trackpoint>
            <Time>2021-08-04T10:51:30.000Z</Time>
            <Position>
              <LatitudeDegrees>40.952392704784870147705078125</LatitudeDegrees>
              <LongitudeDegrees>-0.97702472470700740814208984375</LongitudeDegrees>
            </Position>
            <AltitudeMeters>1102.199951171875</AltitudeMeters>
            <DistanceMeters>613531.95296191</DistanceMeters>
          </Trackpoint>
          <Trackpoint>
            <Time>2021-08-04T10:51:37.000Z</Time>
            <Position>
              <LatitudeDegrees>40.9520948119461536407470703125</LatitudeDegrees>
              <LongitudeDegrees>-0.9763715229928493499755859375</LongitudeDegrees>
            </Position>
            <AltitudeMeters>1103.4000244140625</AltitudeMeters>
            <DistanceMeters>613596.0960645</DistanceMeters>
          </Trackpoint>
          <Trackpoint>
            <Time>2021-08-04T10:51:44.000Z</Time>
            <Position>
              <LatitudeDegrees>40.9518011100590229034423828125</LatitudeDegrees>
              <LongitudeDegrees>-0.9757254458963871002197265625</LongitudeDegrees>
            </Position>
            <AltitudeMeters>1103.199951171875</AltitudeMeters>
            <DistanceMeters>613659.4856499</DistanceMeters>
          </Trackpoint>
          <Trackpoint>
            <Time>2021-08-04T10:51:48.000Z</Time>
            <Position>
              <LatitudeDegrees>40.9516395069658756256103515625</LatitudeDegrees>
              <LongitudeDegrees>-0.97537835128605365753173828125</LongitudeDegrees>
            </Position>
            <AltitudeMeters>1103.800048828125</AltitudeMeters>
            <DistanceMeters>613693.76172122</DistanceMeters>
          </Trackpoint>
          <Trackpoint>
            <Time>2021-08-04T10:51:52.000Z</Time>
            <Position>
              <LatitudeDegrees>40.9514869563281536102294921875</LatitudeDegrees>
              <LongitudeDegrees>-0.97504374571144580841064453125</LongitudeDegrees>
            </Position>
            <AltitudeMeters>1105</AltitudeMeters>
            <DistanceMeters>613726.61692429</DistanceMeters>
          </Trackpoint>
          <Trackpoint>
            <Time>2021-08-04T10:51:55.000Z</Time>
            <Position>
              <LatitudeDegrees>40.95137673430144786834716796875</LatitudeDegrees>
              <LongitudeDegrees>-0.97480050288140773773193359375</LongitudeDegrees>
            </Position>
            <AltitudeMeters>1106.199951171875</AltitudeMeters>
            <DistanceMeters>613750.462382</DistanceMeters>
          </Trackpoint>
          <Trackpoint>
            <Time>2021-08-04T10:51:59.000Z</Time>
            <Position>
              <LatitudeDegrees>40.95123541541397571563720703125</LatitudeDegrees>
              <LongitudeDegrees>-0.97447268664836883544921875</LongitudeDegrees>
            </Position>
            <AltitudeMeters>1107.199951171875</AltitudeMeters>
            <DistanceMeters>613782.19234123</DistanceMeters>
          </Trackpoint>
          <Trackpoint>
            <Time>2021-08-04T10:52:06.000Z</Time>
            <Position>
              <LatitudeDegrees>40.95101161859929561614990234375</LatitudeDegrees>
              <LongitudeDegrees>-0.97382484935224056243896484375</LongitudeDegrees>
            </Position>
            <AltitudeMeters>1106.800048828125</AltitudeMeters>
            <DistanceMeters>613842.07757046</DistanceMeters>
          </Trackpoint>
          <Trackpoint>
            <Time>2021-08-04T10:52:08.000Z</Time>
            <Position>
              <LatitudeDegrees>40.95095093362033367156982421875</LatitudeDegrees>
              <LongitudeDegrees>-0.97362150438129901885986328125</LongitudeDegrees>
            </Position>
            <AltitudeMeters>1106.199951171875</AltitudeMeters>
            <DistanceMeters>613860.45731909</DistanceMeters>
          </Trackpoint>
          <Trackpoint>
            <Time>2021-08-04T10:52:14.000Z</Time>
            <Position>
              <LatitudeDegrees>40.95076049678027629852294921875</LatitudeDegrees>
              <LongitudeDegrees>-0.97299604676663875579833984375</LongitudeDegrees>
            </Position>
            <AltitudeMeters>1105</AltitudeMeters>
            <DistanceMeters>613917.14694694</DistanceMeters>
          </Trackpoint>
          <Trackpoint>
            <Time>2021-08-04T10:52:21.000Z</Time>
            <Position>
              <LatitudeDegrees>40.9505403041839599609375</LatitudeDegrees>
              <LongitudeDegrees>-0.972262211143970489501953125</LongitudeDegrees>
            </Position>
            <AltitudeMeters>1104.199951171875</AltitudeMeters>
            <DistanceMeters>613983.52574273</DistanceMeters>
          </Trackpoint>
          <Trackpoint>
            <Time>2021-08-04T10:52:28.000Z</Time>
            <Position>
              <LatitudeDegrees>40.9503228776156902313232421875</LatitudeDegrees>
              <LongitudeDegrees>-0.97152099944651126861572265625</LongitudeDegrees>
            </Position>
            <AltitudeMeters>1104.199951171875</AltitudeMeters>
            <DistanceMeters>614050.36931956</DistanceMeters>
          </Trackpoint>
          <Trackpoint>
            <Time>2021-08-04T10:52:29.000Z</Time>
            <Position>
              <LatitudeDegrees>40.9502916969358921051025390625</LatitudeDegrees>
              <LongitudeDegrees>-0.97141236998140811920166015625</LongitudeDegrees>
            </Position>
            <AltitudeMeters>1104</AltitudeMeters>
            <DistanceMeters>614060.13813975</DistanceMeters>
          </Trackpoint>
          <Trackpoint>
            <Time>2021-08-04T10:52:36.000Z</Time>
            <Position>
              <LatitudeDegrees>40.95003965310752391815185546875</LatitudeDegrees>
              <LongitudeDegrees>-0.9706802107393741607666015625</LongitudeDegrees>
            </Position>
            <AltitudeMeters>1103.199951171875</AltitudeMeters>
            <DistanceMeters>614127.77813902</DistanceMeters>
          </Trackpoint>
          <Trackpoint>
            <Time>2021-08-04T10:52:37.000Z</Time>
            <Position>
              <LatitudeDegrees>40.949998833239078521728515625</LatitudeDegrees>
              <LongitudeDegrees>-0.970581136643886566162109375</LongitudeDegrees>
            </Position>
            <AltitudeMeters>1103</AltitudeMeters>
            <DistanceMeters>614137.265594</DistanceMeters>
          </Trackpoint>
          <Trackpoint>
            <Time>2021-08-04T10:52:44.000Z</Time>
            <Position>
              <LatitudeDegrees>40.94976506195962429046630859375</LatitudeDegrees>
              <LongitudeDegrees>-0.9698859415948390960693359375</LongitudeDegrees>
            </Position>
            <AltitudeMeters>1103</AltitudeMeters>
            <DistanceMeters>614201.23727886</DistanceMeters>
          </Trackpoint>
          <Trackpoint>
            <Time>2021-08-04T10:52:51.000Z</Time>
            <Position>
              <LatitudeDegrees>40.9496419318020343780517578125</LatitudeDegrees>
              <LongitudeDegrees>-0.9691567160189151763916015625</LongitudeDegrees>
            </Position>
            <AltitudeMeters>1103.199951171875</AltitudeMeters>
            <DistanceMeters>614264.05266848</DistanceMeters>
          </Trackpoint>
          <Trackpoint>
            <Time>2021-08-04T10:52:55.000Z</Time>
            <Position>
              <LatitudeDegrees>40.9495778940618038177490234375</LatitudeDegrees>
              <LongitudeDegrees>-0.9687654487788677215576171875</LongitudeDegrees>
            </Position>
            <AltitudeMeters>1104</AltitudeMeters>
            <DistanceMeters>614297.70769111</DistanceMeters>
          </Trackpoint>
          <Trackpoint>
            <Time>2021-08-04T10:52:59.000Z</Time>
            <Position>
              <LatitudeDegrees>40.94952098093926906585693359375</LatitudeDegrees>
              <LongitudeDegrees>-0.968397818505764007568359375</LongitudeDegrees>
            </Position>
            <AltitudeMeters>1105</AltitudeMeters>
            <DistanceMeters>614329.25484289</DistanceMeters>
          </Trackpoint>
          <Trackpoint>
            <Time>2021-08-04T10:53:04.000Z</Time>
            <Position>
              <LatitudeDegrees>40.94945141114294528961181640625</LatitudeDegrees>
              <LongitudeDegrees>-0.967965982854366302490234375</LongitudeDegrees>
            </Position>
            <AltitudeMeters>1106.199951171875</AltitudeMeters>
            <DistanceMeters>614366.3736934</DistanceMeters>
          </Trackpoint>
          <Trackpoint>
            <Time>2021-08-04T10:53:11.000Z</Time>
            <Position>
              <LatitudeDegrees>40.94927631318569183349609375</LatitudeDegrees>
              <LongitudeDegrees>-0.96741906367242336273193359375</LongitudeDegrees>
            </Position>
            <AltitudeMeters>1107.199951171875</AltitudeMeters>
            <DistanceMeters>614416.31039003</DistanceMeters>
          </Trackpoint>
          <Trackpoint>
            <Time>2021-08-04T10:53:12.000Z</Time>
            <Position>
              <LatitudeDegrees>40.9492375887930393218994140625</LatitudeDegrees>
              <LongitudeDegrees>-0.9673529304563999176025390625</LongitudeDegrees>
            </Position>
            <AltitudeMeters>1107.199951171875</AltitudeMeters>
            <DistanceMeters>614423.34493472</DistanceMeters>
          </Trackpoint>
          <Trackpoint>
            <Time>2021-08-04T10:53:16.000Z</Time>
            <Position>
              <LatitudeDegrees>40.9490491636097431182861328125</LatitudeDegrees>
              <LongitudeDegrees>-0.9671239368617534637451171875</LongitudeDegrees>
            </Position>
            <AltitudeMeters>1107.800048828125</AltitudeMeters>
            <DistanceMeters>614451.81237542</DistanceMeters>
          </Trackpoint>
          <Trackpoint>
            <Time>2021-08-04T10:53:19.000Z</Time>
            <Position>
              <LatitudeDegrees>40.948885045945644378662109375</LatitudeDegrees>
              <LongitudeDegrees>-0.96701589412987232208251953125</LongitudeDegrees>
            </Position>
            <AltitudeMeters>1108.4000244140625</AltitudeMeters>
            <DistanceMeters>614472.21237795</DistanceMeters>
          </Trackpoint>
          <Trackpoint>
            <Time>2021-08-04T10:53:22.000Z</Time>
            <Position>
              <LatitudeDegrees>40.948714055120944976806640625</LatitudeDegrees>
              <LongitudeDegrees>-0.9669381938874721527099609375</LongitudeDegrees>
            </Position>
            <AltitudeMeters>1109.5999755859375</AltitudeMeters>
            <DistanceMeters>614492.33382192</DistanceMeters>
          </Trackpoint>
          <Trackpoint>
            <Time>2021-08-04T10:53:27.000Z</Time>
            <Position>
              <LatitudeDegrees>40.94842110760509967803955078125</LatitudeDegrees>
              <LongitudeDegrees>-0.96680785529315471649169921875</LongitudeDegrees>
            </Position>
            <AltitudeMeters>1110.5999755859375</AltitudeMeters>
            <DistanceMeters>614526.73139242</DistanceMeters>
          </Trackpoint>
          <Trackpoint>
            <Time>2021-08-04T10:53:28.000Z</Time>
            <Position>
              <LatitudeDegrees>40.94836260192096233367919921875</LatitudeDegrees>
              <LongitudeDegrees>-0.9667698852717876434326171875</LongitudeDegrees>
            </Position>
            <AltitudeMeters>1110.5999755859375</AltitudeMeters>
            <DistanceMeters>614533.98336906</DistanceMeters>
          </Trackpoint>
          <Trackpoint>
            <Time>2021-08-04T10:53:32.000Z</Time>
            <Position>
              <LatitudeDegrees>40.94816177152097225189208984375</LatitudeDegrees>
              <LongitudeDegrees>-0.96649168990552425384521484375</LongitudeDegrees>
            </Position>
            <AltitudeMeters>1109.800048828125</AltitudeMeters>
            <DistanceMeters>614566.33462746</DistanceMeters>
          </Trackpoint>
          <Trackpoint>
            <Time>2021-08-04T10:53:34.000Z</Time>
            <Position>
              <LatitudeDegrees>40.948087088763713836669921875</LatitudeDegrees>
              <LongitudeDegrees>-0.96629555337131023406982421875</LongitudeDegrees>
            </Position>
            <AltitudeMeters>1108.800048828125</AltitudeMeters>
            <DistanceMeters>614584.79966541</DistanceMeters>
          </Trackpoint>
          <Trackpoint>
            <Time>2021-08-04T10:53:35.000Z</Time>
            <Position>
              <LatitudeDegrees>40.9480527229607105255126953125</LatitudeDegrees>
              <LongitudeDegrees>-0.96619111485779285430908203125</LongitudeDegrees>
            </Position>
            <AltitudeMeters>1108.199951171875</AltitudeMeters>
            <DistanceMeters>614594.37711374</DistanceMeters>
          </Trackpoint>
          <Trackpoint>
            <Time>2021-08-04T10:53:37.000Z</Time>
            <Position>
              <LatitudeDegrees>40.94798508100211620330810546875</LatitudeDegrees>
              <LongitudeDegrees>-0.965972431004047393798828125</LongitudeDegrees>
            </Position>
            <AltitudeMeters>1106.5999755859375</AltitudeMeters>
            <DistanceMeters>614614.24337964</DistanceMeters>
          </Trackpoint>
          <Trackpoint>
            <Time>2021-08-04T10:53:38.000Z</Time>
            <Position>
              <LatitudeDegrees>40.94796546734869480133056640625</LatitudeDegrees>
              <LongitudeDegrees>-0.96585474908351898193359375</LongitudeDegrees>
            </Position>
            <AltitudeMeters>1105.800048828125</AltitudeMeters>
            <DistanceMeters>614624.37476054</DistanceMeters>
          </Trackpoint>
          <Trackpoint>
            <Time>2021-08-04T10:53:39.000Z</Time>
            <Position>
              <LatitudeDegrees>40.94796597026288509368896484375</LatitudeDegrees>
              <LongitudeDegrees>-0.96573128364980220794677734375</LongitudeDegrees>
            </Position>
            <AltitudeMeters>1105.199951171875</AltitudeMeters>
            <DistanceMeters>614634.75400965</DistanceMeters>
          </Trackpoint>
          <Trackpoint>
            <Time>2021-08-04T10:53:40.000Z</Time>
            <Position>
              <LatitudeDegrees>40.947988517582416534423828125</LatitudeDegrees>
              <LongitudeDegrees>-0.965608991682529449462890625</LongitudeDegrees>
            </Position>
            <AltitudeMeters>1103.800048828125</AltitudeMeters>
            <DistanceMeters>614645.33659005</DistanceMeters>
          </Trackpoint>
          <Trackpoint>
            <Time>2021-08-04T10:53:41.000Z</Time>
            <Position>
              <LatitudeDegrees>40.9480265714228153228759765625</LatitudeDegrees>
              <LongitudeDegrees>-0.96549055539071559906005859375</LongitudeDegrees>
            </Position>
            <AltitudeMeters>1102.800048828125</AltitudeMeters>
            <DistanceMeters>614656.15629019</DistanceMeters>
          </Trackpoint>
          <Trackpoint>
            <Time>2021-08-04T10:53:42.000Z</Time>
            <Position>
              <LatitudeDegrees>40.9480708278715610504150390625</LatitudeDegrees>
              <LongitudeDegrees>-0.96537337638437747955322265625</LongitudeDegrees>
            </Position>
            <AltitudeMeters>1102</AltitudeMeters>
            <DistanceMeters>614667.16955432</DistanceMeters>
          </Trackpoint>
          <Trackpoint>
            <Time>2021-08-04T10:53:43.000Z</Time>
            <Position>
              <LatitudeDegrees>40.9481154195964336395263671875</LatitudeDegrees>
              <LongitudeDegrees>-0.96525468863546848297119140625</LongitudeDegrees>
            </Position>
            <AltitudeMeters>1101.4000244140625</AltitudeMeters>
            <DistanceMeters>614678.31323465</DistanceMeters>
          </Trackpoint>
          <Trackpoint>
            <Time>2021-08-04T10:53:44.000Z</Time>
            <Position>
              <LatitudeDegrees>40.94815313816070556640625</LatitudeDegrees>
              <LongitudeDegrees>-0.96513298340141773223876953125</LongitudeDegrees>
            </Position>
            <AltitudeMeters>1100.800048828125</AltitudeMeters>
            <DistanceMeters>614689.37191112</DistanceMeters>
          </Trackpoint>
          <Trackpoint>
            <Time>2021-08-04T10:53:45.000Z</Time>
            <Position>
              <LatitudeDegrees>40.94817467965185642242431640625</LatitudeDegrees>
              <LongitudeDegrees>-0.96500893123447895050048828125</LongitudeDegrees>
            </Position>
            <AltitudeMeters>1100.199951171875</AltitudeMeters>
            <DistanceMeters>614700.07244238</DistanceMeters>
          </Trackpoint>
          <Trackpoint>
            <Time>2021-08-04T10:53:47.000Z</Time>
            <Position>
              <LatitudeDegrees>40.94814534299075603485107421875</LatitudeDegrees>
              <LongitudeDegrees>-0.96476417966187000274658203125</LongitudeDegrees>
            </Position>
            <AltitudeMeters>1099</AltitudeMeters>
            <DistanceMeters>614720.90519386</DistanceMeters>
          </Trackpoint>
          <Trackpoint>
            <Time>2021-08-04T10:53:52.000Z</Time>
            <Position>
              <LatitudeDegrees>40.9477704204618930816650390625</LatitudeDegrees>
              <LongitudeDegrees>-0.964544154703617095947265625</LongitudeDegrees>
            </Position>
            <AltitudeMeters>1098.4000244140625</AltitudeMeters>
            <DistanceMeters>614766.55047267</DistanceMeters>
          </Trackpoint>
          <Trackpoint>
            <Time>2021-08-04T10:53:55.000Z</Time>
            <Position>
              <LatitudeDegrees>40.9475290216505527496337890625</LatitudeDegrees>
              <LongitudeDegrees>-0.96449755132198333740234375</LongitudeDegrees>
            </Position>
            <AltitudeMeters>1100.5999755859375</AltitudeMeters>
            <DistanceMeters>614793.70284938</DistanceMeters>
          </Trackpoint>
          <Trackpoint>
            <Time>2021-08-04T10:53:56.000Z</Time>
            <Position>
              <LatitudeDegrees>40.94745299778878688812255859375</LatitudeDegrees>
              <LongitudeDegrees>-0.96446779556572437286376953125</LongitudeDegrees>
            </Position>
            <AltitudeMeters>1101</AltitudeMeters>
            <DistanceMeters>614802.52652883</DistanceMeters>
          </Trackpoint>
          <Trackpoint>
            <Time>2021-08-04T10:53:57.000Z</Time>
            <Position>
              <LatitudeDegrees>40.947383344173431396484375</LatitudeDegrees>
              <LongitudeDegrees>-0.9644209407269954681396484375</LongitudeDegrees>
            </Position>
            <AltitudeMeters>1101.5999755859375</AltitudeMeters>
            <DistanceMeters>614811.22238188</DistanceMeters>
          </Trackpoint>
          <Trackpoint>
            <Time>2021-08-04T10:53:59.000Z</Time>
            <Position>
              <LatitudeDegrees>40.94727396033704280853271484375</LatitudeDegrees>
              <LongitudeDegrees>-0.96427735872566699981689453125</LongitudeDegrees>
            </Position>
            <AltitudeMeters>1102.800048828125</AltitudeMeters>
            <DistanceMeters>614828.36621249</DistanceMeters>
          </Trackpoint>
          <Trackpoint>
            <Time>2021-08-04T10:54:03.000Z</Time>
            <Position>
              <LatitudeDegrees>40.9471424482762813568115234375</LatitudeDegrees>
              <LongitudeDegrees>-0.96387502737343311309814453125</LongitudeDegrees>
            </Position>
            <AltitudeMeters>1102.4000244140625</AltitudeMeters>
            <DistanceMeters>614865.22077731</DistanceMeters>
          </Trackpoint>
          <Trackpoint>
            <Time>2021-08-04T10:54:04.000Z</Time>
            <Position>
              <LatitudeDegrees>40.94711554236710071563720703125</LatitudeDegrees>
              <LongitudeDegrees>-0.96376120112836360931396484375</LongitudeDegrees>
            </Position>
            <AltitudeMeters>1101.800048828125</AltitudeMeters>
            <DistanceMeters>614875.2477844</DistanceMeters>
          </Trackpoint>
          <Trackpoint>
            <Time>2021-08-04T10:54:06.000Z</Time>
            <Position>
              <LatitudeDegrees>40.94705804251134395599365234375</LatitudeDegrees>
              <LongitudeDegrees>-0.96352835185825824737548828125</LongitudeDegrees>
            </Position>
            <AltitudeMeters>1099.5999755859375</AltitudeMeters>
            <DistanceMeters>614895.84250923</DistanceMeters>
          </Trackpoint>
          <Trackpoint>
            <Time>2021-08-04T10:54:13.000Z</Time>
            <Position>
              <LatitudeDegrees>40.94686391763389110565185546875</LatitudeDegrees>
              <LongitudeDegrees>-0.96277565695345401763916015625</LongitudeDegrees>
            </Position>
            <AltitudeMeters>1099.800048828125</AltitudeMeters>
            <DistanceMeters>614962.70735977</DistanceMeters>
          </Trackpoint>
          <Trackpoint>
            <Time>2021-08-04T10:54:17.000Z</Time>
            <Position>
              <LatitudeDegrees>40.9467709623277187347412109375</LatitudeDegrees>
              <LongitudeDegrees>-0.96240601502358913421630859375</LongitudeDegrees>
            </Position>
            <AltitudeMeters>1101</AltitudeMeters>
            <DistanceMeters>614995.45960963</DistanceMeters>
          </Trackpoint>
          <Trackpoint>
            <Time>2021-08-04T10:54:25.000Z</Time>
            <Position>
              <LatitudeDegrees>40.94667716883122920989990234375</LatitudeDegrees>
              <LongitudeDegrees>-0.9616213850677013397216796875</LongitudeDegrees>
            </Position>
            <AltitudeMeters>1100</AltitudeMeters>
            <DistanceMeters>615062.24331361</DistanceMeters>
          </Trackpoint>
          <Trackpoint>
            <Time>2021-08-04T10:54:33.000Z</Time>
            <Position>
              <LatitudeDegrees>40.94660659320652484893798828125</LatitudeDegrees>
              <LongitudeDegrees>-0.9608237631618976593017578125</LongitudeDegrees>
            </Position>
            <AltitudeMeters>1099.199951171875</AltitudeMeters>
            <DistanceMeters>615129.75683497</DistanceMeters>
          </Trackpoint>
          <Trackpoint>
            <Time>2021-08-04T10:54:34.000Z</Time>
            <Position>
              <LatitudeDegrees>40.9465962834656238555908203125</LatitudeDegrees>
              <LongitudeDegrees>-0.96071689389646053314208984375</LongitudeDegrees>
            </Position>
            <AltitudeMeters>1099</AltitudeMeters>
            <DistanceMeters>615138.81383306</DistanceMeters>
          </Trackpoint>
          <Trackpoint>
            <Time>2021-08-04T10:54:37.000Z</Time>
            <Position>
              <LatitudeDegrees>40.94655898399651050567626953125</LatitudeDegrees>
              <LongitudeDegrees>-0.96038798801600933074951171875</LongitudeDegrees>
            </Position>
            <AltitudeMeters>1097.800048828125</AltitudeMeters>
            <DistanceMeters>615166.77446482</DistanceMeters>
          </Trackpoint>
          <Trackpoint>
            <Time>2021-08-04T10:54:39.000Z</Time>
            <Position>
              <LatitudeDegrees>40.94652076251804828643798828125</LatitudeDegrees>
              <LongitudeDegrees>-0.9601706452667713165283203125</LongitudeDegrees>
            </Position>
            <AltitudeMeters>1097.5999755859375</AltitudeMeters>
            <DistanceMeters>615185.53472146</DistanceMeters>
          </Trackpoint>
          <Trackpoint>
            <Time>2021-08-04T10:54:44.000Z</Time>
            <Position>
              <LatitudeDegrees>40.94629897736012935638427734375</LatitudeDegrees>
              <LongitudeDegrees>-0.95973587594926357269287109375</LongitudeDegrees>
            </Position>
            <AltitudeMeters>1098.4000244140625</AltitudeMeters>
            <DistanceMeters>615229.64042685</DistanceMeters>
          </Trackpoint>
          <Trackpoint>
            <Time>2021-08-04T10:54:48.000Z</Time>
            <Position>
              <LatitudeDegrees>40.94607199542224407196044921875</LatitudeDegrees>
              <LongitudeDegrees>-0.959473438560962677001953125</LongitudeDegrees>
            </Position>
            <AltitudeMeters>1099</AltitudeMeters>
            <DistanceMeters>615263.18176111</DistanceMeters>
          </Trackpoint>
          <Trackpoint>
            <Time>2021-08-04T10:54:51.000Z</Time>
            <Position>
              <LatitudeDegrees>40.94590879976749420166015625</LatitudeDegrees>
              <LongitudeDegrees>-0.9592905454337596893310546875</LongitudeDegrees>
            </Position>
            <AltitudeMeters>1100.199951171875</AltitudeMeters>
            <DistanceMeters>615286.97983528</DistanceMeters>
          </Trackpoint>
          <Trackpoint>
            <Time>2021-08-04T10:54:55.000Z</Time>
            <Position>
              <LatitudeDegrees>40.945704281330108642578125</LatitudeDegrees>
              <LongitudeDegrees>-0.9590491466224193572998046875</LongitudeDegrees>
            </Position>
            <AltitudeMeters>1101.199951171875</AltitudeMeters>
            <DistanceMeters>615317.47615692</DistanceMeters>
          </Trackpoint>
          <Trackpoint>
            <Time>2021-08-04T10:54:58.000Z</Time>
            <Position>
              <LatitudeDegrees>40.94556304626166820526123046875</LatitudeDegrees>
              <LongitudeDegrees>-0.95886214636266231536865234375</LongitudeDegrees>
            </Position>
            <AltitudeMeters>1102.5999755859375</AltitudeMeters>
            <DistanceMeters>615339.70834674</DistanceMeters>
          </Trackpoint>
          <Trackpoint>
            <Time>2021-08-04T10:55:02.000Z</Time>
            <Position>
              <LatitudeDegrees>40.94536028802394866943359375</LatitudeDegrees>
              <LongitudeDegrees>-0.95862544141709804534912109375</LongitudeDegrees>
            </Position>
            <AltitudeMeters>1103.800048828125</AltitudeMeters>
            <DistanceMeters>615369.79627162</DistanceMeters>
          </Trackpoint>
          <Trackpoint>
            <Time>2021-08-04T10:55:06.000Z</Time>
            <Position>
              <LatitudeDegrees>40.94516021199524402618408203125</LatitudeDegrees>
              <LongitudeDegrees>-0.958380438387393951416015625</LongitudeDegrees>
            </Position>
            <AltitudeMeters>1105</AltitudeMeters>
            <DistanceMeters>615400.13034091</DistanceMeters>
          </Trackpoint>
          <Trackpoint>
            <Time>2021-08-04T10:55:14.000Z</Time>
            <Position>
              <LatitudeDegrees>40.94476525671780109405517578125</LatitudeDegrees>
              <LongitudeDegrees>-0.95780887641012668609619140625</LongitudeDegrees>
            </Position>
            <AltitudeMeters>1103.5999755859375</AltitudeMeters>
            <DistanceMeters>615465.25630182</DistanceMeters>
          </Trackpoint>
          <Trackpoint>
            <Time>2021-08-04T10:55:19.000Z</Time>
            <Position>
              <LatitudeDegrees>40.94449116848409175872802734375</LatitudeDegrees>
              <LongitudeDegrees>-0.9573969058692455291748046875</LongitudeDegrees>
            </Position>
            <AltitudeMeters>1102.5999755859375</AltitudeMeters>
            <DistanceMeters>615511.41053341</DistanceMeters>
          </Trackpoint>
          <Trackpoint>
            <Time>2021-08-04T10:55:23.000Z</Time>
            <Position>
              <LatitudeDegrees>40.9442630968987941741943359375</LatitudeDegrees>
              <LongitudeDegrees>-0.95705366693437099456787109375</LongitudeDegrees>
            </Position>
            <AltitudeMeters>1101.4000244140625</AltitudeMeters>
            <DistanceMeters>615549.84352385</DistanceMeters>
          </Trackpoint>
          <Trackpoint>
            <Time>2021-08-04T10:55:27.000Z</Time>
            <Position>
              <LatitudeDegrees>40.94402580522000789642333984375</LatitudeDegrees>
              <LongitudeDegrees>-0.95670212991535663604736328125</LongitudeDegrees>
            </Position>
            <AltitudeMeters>1100.199951171875</AltitudeMeters>
            <DistanceMeters>615589.47934754</DistanceMeters>
          </Trackpoint>
          <Trackpoint>
            <Time>2021-08-04T10:55:31.000Z</Time>
            <Position>
              <LatitudeDegrees>40.9438104741275310516357421875</LatitudeDegrees>
              <LongitudeDegrees>-0.95632527954876422882080078125</LongitudeDegrees>
            </Position>
            <AltitudeMeters>1099</AltitudeMeters>
            <DistanceMeters>615629.20574254</DistanceMeters>
          </Trackpoint>
          <Trackpoint>
            <Time>2021-08-04T10:55:36.000Z</Time>
            <Position>
              <LatitudeDegrees>40.94369924627244472503662109375</LatitudeDegrees>
              <LongitudeDegrees>-0.955894030630588531494140625</LongitudeDegrees>
            </Position>
            <AltitudeMeters>1101</AltitudeMeters>
            <DistanceMeters>615667.51706796</DistanceMeters>
          </Trackpoint>
          <Trackpoint>
            <Time>2021-08-04T10:55:38.000Z</Time>
            <Position>
              <LatitudeDegrees>40.94362146221101284027099609375</LatitudeDegrees>
              <LongitudeDegrees>-0.9557996504008769989013671875</LongitudeDegrees>
            </Position>
            <AltitudeMeters>1102.199951171875</AltitudeMeters>
            <DistanceMeters>615679.26046302</DistanceMeters>
          </Trackpoint>
          <Trackpoint>
            <Time>2021-08-04T10:55:41.000Z</Time>
            <Position>
              <LatitudeDegrees>40.943505875766277313232421875</LatitudeDegrees>
              <LongitudeDegrees>-0.9556665457785129547119140625</LongitudeDegrees>
            </Position>
            <AltitudeMeters>1103.199951171875</AltitudeMeters>
            <DistanceMeters>615696.3113381</DistanceMeters>
          </Trackpoint>
          <Trackpoint>
            <Time>2021-08-04T10:55:42.000Z</Time>
            <Position>
              <LatitudeDegrees>40.94347142614424228668212890625</LatitudeDegrees>
              <LongitudeDegrees>-0.955617092549800872802734375</LongitudeDegrees>
            </Position>
            <AltitudeMeters>1103.4000244140625</AltitudeMeters>
            <DistanceMeters>615701.96682489</DistanceMeters>
          </Trackpoint>
          <Trackpoint>
            <Time>2021-08-04T10:55:46.000Z</Time>
            <Position>
              <LatitudeDegrees>40.94337084330618381500244140625</LatitudeDegrees>
              <LongitudeDegrees>-0.95538382418453693389892578125</LongitudeDegrees>
            </Position>
            <AltitudeMeters>1104.199951171875</AltitudeMeters>
            <DistanceMeters>615724.54861948</DistanceMeters>
          </Trackpoint>
          <Trackpoint>
            <Time>2021-08-04T10:55:51.000Z</Time>
            <Position>
              <LatitudeDegrees>40.94326489605009555816650390625</LatitudeDegrees>
              <LongitudeDegrees>-0.95509934239089488983154296875</LongitudeDegrees>
            </Position>
            <AltitudeMeters>1105.4000244140625</AltitudeMeters>
            <DistanceMeters>615751.2147478</DistanceMeters>
          </Trackpoint>
          <Trackpoint>
            <Time>2021-08-04T10:55:55.000Z</Time>
            <Position>
              <LatitudeDegrees>40.94318007118999958038330078125</LatitudeDegrees>
              <LongitudeDegrees>-0.95490186475217342376708984375</LongitudeDegrees>
            </Position>
            <AltitudeMeters>1106.5999755859375</AltitudeMeters>
            <DistanceMeters>615770.31393543</DistanceMeters>
          </Trackpoint>
          <Trackpoint>
            <Time>2021-08-04T10:55:59.000Z</Time>
            <Position>
              <LatitudeDegrees>40.94309356994926929473876953125</LatitudeDegrees>
              <LongitudeDegrees>-0.95472131855785846710205078125</LongitudeDegrees>
            </Position>
            <AltitudeMeters>1108</AltitudeMeters>
            <DistanceMeters>615788.28881054</DistanceMeters>
          </Trackpoint>
          <Trackpoint>
            <Time>2021-08-04T10:56:04.000Z</Time>
            <Position>
              <LatitudeDegrees>40.9429778158664703369140625</LatitudeDegrees>
              <LongitudeDegrees>-0.954516045749187469482421875</LongitudeDegrees>
            </Position>
            <AltitudeMeters>1109</AltitudeMeters>
            <DistanceMeters>615809.82573015</DistanceMeters>
          </Trackpoint>
          <Trackpoint>
            <Time>2021-08-04T10:56:08.000Z</Time>
            <Position>
              <LatitudeDegrees>40.9428894706070423126220703125</LatitudeDegrees>
              <LongitudeDegrees>-0.95437346957623958587646484375</LongitudeDegrees>
            </Position>
            <AltitudeMeters>1110.199951171875</AltitudeMeters>
            <DistanceMeters>615825.32994361</DistanceMeters>
          </Trackpoint>
          <Trackpoint>
            <Time>2021-08-04T10:56:11.000Z</Time>
            <Position>
              <LatitudeDegrees>40.942831300199031829833984375</LatitudeDegrees>
              <LongitudeDegrees>-0.95427322201430797576904296875</LongitudeDegrees>
            </Position>
            <AltitudeMeters>1111.199951171875</AltitudeMeters>
            <DistanceMeters>615835.95850214</DistanceMeters>
          </Trackpoint>
          <Trackpoint>
            <Time>2021-08-04T10:56:22.000Z</Time>
            <Position>
              <LatitudeDegrees>40.94257774762809276580810546875</LatitudeDegrees>
              <LongitudeDegrees>-0.9538869000971317291259765625</LongitudeDegrees>
            </Position>
            <AltitudeMeters>1112.199951171875</AltitudeMeters>
            <DistanceMeters>615878.98577572</DistanceMeters>
          </Trackpoint>
          <Trackpoint>
            <Time>2021-08-04T10:56:30.000Z</Time>
            <Position>
              <LatitudeDegrees>40.94237155281007289886474609375</LatitudeDegrees>
              <LongitudeDegrees>-0.95362932421267032623291015625</LongitudeDegrees>
            </Position>
            <AltitudeMeters>1113.199951171875</AltitudeMeters>
            <DistanceMeters>615910.53993961</DistanceMeters>
          </Trackpoint>
          <Trackpoint>
            <Time>2021-08-04T10:56:47.000Z</Time>
            <Position>
              <LatitudeDegrees>40.941977687180042266845703125</LatitudeDegrees>
              <LongitudeDegrees>-0.95308366231620311737060546875</LongitudeDegrees>
            </Position>
            <AltitudeMeters>1114.199951171875</AltitudeMeters>
            <DistanceMeters>615973.99381022</DistanceMeters>
          </Trackpoint>
          <Trackpoint>
            <Time>2021-08-04T10:56:48.000Z</Time>
            <Position>
              <LatitudeDegrees>40.9419473446905612945556640625</LatitudeDegrees>
              <LongitudeDegrees>-0.95305583439767360687255859375</LongitudeDegrees>
            </Position>
            <AltitudeMeters>1114.199951171875</AltitudeMeters>
            <DistanceMeters>615978.10199874</DistanceMeters>
          </Trackpoint>
          <Trackpoint>
            <Time>2021-08-04T10:56:55.000Z</Time>
            <Position>
              <LatitudeDegrees>40.94175850041210651397705078125</LatitudeDegrees>
              <LongitudeDegrees>-0.95284963957965373992919921875</LongitudeDegrees>
            </Position>
            <AltitudeMeters>1115.4000244140625</AltitudeMeters>
            <DistanceMeters>616005.34750175</DistanceMeters>
          </Trackpoint>
          <Trackpoint>
            <Time>2021-08-04T10:57:03.000Z</Time>
            <Position>
              <LatitudeDegrees>40.9417119808495044708251953125</LatitudeDegrees>
              <LongitudeDegrees>-0.95249810256063938140869140625</LongitudeDegrees>
            </Position>
            <AltitudeMeters>1116.4000244140625</AltitudeMeters>
            <DistanceMeters>616035.35308026</DistanceMeters>
          </Trackpoint>
          <Trackpoint>
            <Time>2021-08-04T10:57:08.000Z</Time>
            <Position>
              <LatitudeDegrees>40.94170871190726757049560546875</LatitudeDegrees>
              <LongitudeDegrees>-0.952293835580348968505859375</LongitudeDegrees>
            </Position>
            <AltitudeMeters>1117.5999755859375</AltitudeMeters>
            <DistanceMeters>616052.53058816</DistanceMeters>
          </Trackpoint>
          <Trackpoint>
            <Time>2021-08-04T10:57:14.000Z</Time>
            <Position>
              <LatitudeDegrees>40.94169236719608306884765625</LatitudeDegrees>
              <LongitudeDegrees>-0.95209090970456600189208984375</LongitudeDegrees>
            </Position>
            <AltitudeMeters>1118.800048828125</AltitudeMeters>
            <DistanceMeters>616069.68810815</DistanceMeters>
          </Trackpoint>
          <Trackpoint>
            <Time>2021-08-04T10:57:24.000Z</Time>
            <Position>
              <LatitudeDegrees>40.94165079295635223388671875</LatitudeDegrees>
              <LongitudeDegrees>-0.95175663940608501434326171875</LongitudeDegrees>
            </Position>
            <AltitudeMeters>1119.800048828125</AltitudeMeters>
            <DistanceMeters>616098.17045369</DistanceMeters>
          </Trackpoint>
          <Trackpoint>
            <Time>2021-08-04T10:57:32.000Z</Time>
            <Position>
              <LatitudeDegrees>40.9414596855640411376953125</LatitudeDegrees>
              <LongitudeDegrees>-0.9515713155269622802734375</LongitudeDegrees>
            </Position>
            <AltitudeMeters>1118.4000244140625</AltitudeMeters>
            <DistanceMeters>616124.53758447</DistanceMeters>
          </Trackpoint>
          <Trackpoint>
            <Time>2021-08-04T10:57:34.000Z</Time>
            <Position>
              <LatitudeDegrees>40.94137980602681636810302734375</LatitudeDegrees>
              <LongitudeDegrees>-0.95157223753631114959716796875</LongitudeDegrees>
            </Position>
            <AltitudeMeters>1116.4000244140625</AltitudeMeters>
            <DistanceMeters>616133.42956678</DistanceMeters>
          </Trackpoint>
          <Trackpoint>
            <Time>2021-08-04T10:57:37.000Z</Time>
            <Position>
              <LatitudeDegrees>40.94127553515136241912841796875</LatitudeDegrees>
              <LongitudeDegrees>-0.9515793621540069580078125</LongitudeDegrees>
            </Position>
            <AltitudeMeters>1115.199951171875</AltitudeMeters>
            <DistanceMeters>616145.05083277</DistanceMeters>
          </Trackpoint>
          <Trackpoint>
            <Time>2021-08-04T10:57:39.000Z</Time>
            <Position>
              <LatitudeDegrees>40.9412120841443538665771484375</LatitudeDegrees>
              <LongitudeDegrees>-0.9516211040318012237548828125</LongitudeDegrees>
            </Position>
            <AltitudeMeters>1114.199951171875</AltitudeMeters>
            <DistanceMeters>616152.93747759</DistanceMeters>
          </Trackpoint>
          <Trackpoint>
            <Time>2021-08-04T10:57:42.000Z</Time>
            <Position>
              <LatitudeDegrees>40.941120050847530364990234375</LatitudeDegrees>
              <LongitudeDegrees>-0.95167499966919422149658203125</LongitudeDegrees>
            </Position>
            <AltitudeMeters>1113.4000244140625</AltitudeMeters>
            <DistanceMeters>616164.13854371</DistanceMeters>
          </Trackpoint>
          <Trackpoint>
            <Time>2021-08-04T10:57:52.000Z</Time>
            <Position>
              <LatitudeDegrees>40.9408982656896114349365234375</LatitudeDegrees>
              <LongitudeDegrees>-0.9514980576932430267333984375</LongitudeDegrees>
            </Position>
            <AltitudeMeters>1112.4000244140625</AltitudeMeters>
            <DistanceMeters>616192.9598501</DistanceMeters>
          </Trackpoint>
          <Trackpoint>
            <Time>2021-08-04T10:57:54.000Z</Time>
            <Position>
              <LatitudeDegrees>40.9408519975841045379638671875</LatitudeDegrees>
              <LongitudeDegrees>-0.95147014595568180084228515625</LongitudeDegrees>
            </Position>
            <AltitudeMeters>1111.800048828125</AltitudeMeters>
            <DistanceMeters>616198.61852936</DistanceMeters>
          </Trackpoint>
          <Trackpoint>
            <Time>2021-08-04T10:57:55.000Z</Time>
            <Position>
              <LatitudeDegrees>40.94081436283886432647705078125</LatitudeDegrees>
              <LongitudeDegrees>-0.95147836022078990936279296875</LongitudeDegrees>
            </Position>
            <AltitudeMeters>1111.4000244140625</AltitudeMeters>
            <DistanceMeters>616202.86293775</DistanceMeters>
          </Trackpoint>
          <Trackpoint>
            <Time>2021-08-04T10:57:57.000Z</Time>
            <Position>
              <LatitudeDegrees>40.94072752632200717926025390625</LatitudeDegrees>
              <LongitudeDegrees>-0.95152429305016994476318359375</LongitudeDegrees>
            </Position>
            <AltitudeMeters>1110</AltitudeMeters>
            <DistanceMeters>616213.27085766</DistanceMeters>
          </Trackpoint>
          <Trackpoint>
            <Time>2021-08-04T10:58:00.000Z</Time>
            <Position>
              <LatitudeDegrees>40.9406427852809429168701171875</LatitudeDegrees>
              <LongitudeDegrees>-0.9515523724257946014404296875</LongitudeDegrees>
            </Position>
            <AltitudeMeters>1108.5999755859375</AltitudeMeters>
            <DistanceMeters>616222.99334913</DistanceMeters>
          </Trackpoint>
          <Trackpoint>
            <Time>2021-08-04T10:58:19.000Z</Time>
            <Position>
              <LatitudeDegrees>40.94031505286693572998046875</LatitudeDegrees>
              <LongitudeDegrees>-0.951131768524646759033203125</LongitudeDegrees>
            </Position>
            <AltitudeMeters>1108.5999755859375</AltitudeMeters>
            <DistanceMeters>616273.79808247</DistanceMeters>
          </Trackpoint>
          <Trackpoint>
            <Time>2021-08-04T10:58:24.000Z</Time>
            <Position>
              <LatitudeDegrees>40.9402381069958209991455078125</LatitudeDegrees>
              <LongitudeDegrees>-0.95110804773867130279541015625</LongitudeDegrees>
            </Position>
            <AltitudeMeters>1108.800048828125</AltitudeMeters>
            <DistanceMeters>616282.59100659</DistanceMeters>
          </Trackpoint>
          <Trackpoint>
            <Time>2021-08-04T12:14:32.000Z</Time>
            <Position>
              <LatitudeDegrees>40.940277166664600372314453125</LatitudeDegrees>
              <LongitudeDegrees>-0.951123051345348358154296875</LongitudeDegrees>
            </Position>
            <AltitudeMeters>1106.5999755859375</AltitudeMeters>
            <DistanceMeters>616287.11651356</DistanceMeters>
          </Trackpoint>
          <Trackpoint>
            <Time>2021-08-04T12:14:36.000Z</Time>
            <Position>
              <LatitudeDegrees>40.940256379544734954833984375</LatitudeDegrees>
              <LongitudeDegrees>-0.95100277103483676910400390625</LongitudeDegrees>
            </Position>
            <AltitudeMeters>1105.4000244140625</AltitudeMeters>
            <DistanceMeters>616297.49054128</DistanceMeters>
          </Trackpoint>
          <Trackpoint>
            <Time>2021-08-04T12:14:38.000Z</Time>
            <Position>
              <LatitudeDegrees>40.94020181335508823394775390625</LatitudeDegrees>
              <LongitudeDegrees>-0.95092532224953174591064453125</LongitudeDegrees>
            </Position>
            <AltitudeMeters>1104.800048828125</AltitudeMeters>
            <DistanceMeters>616306.39520866</DistanceMeters>
          </Trackpoint>
          <Trackpoint>
            <Time>2021-08-04T12:14:39.000Z</Time>
            <Position>
              <LatitudeDegrees>40.94017784111201763153076171875</LatitudeDegrees>
              <LongitudeDegrees>-0.95087972469627857208251953125</LongitudeDegrees>
            </Position>
            <AltitudeMeters>1104.199951171875</AltitudeMeters>
            <DistanceMeters>616311.06603993</DistanceMeters>
          </Trackpoint>
          <Trackpoint>
            <Time>2021-08-04T12:14:42.000Z</Time>
            <Position>
              <LatitudeDegrees>40.9401881508529186248779296875</LatitudeDegrees>
              <LongitudeDegrees>-0.95075349323451519012451171875</LongitudeDegrees>
            </Position>
            <AltitudeMeters>1102.800048828125</AltitudeMeters>
            <DistanceMeters>616321.74122446</DistanceMeters>
          </Trackpoint>
          <Trackpoint>
            <Time>2021-08-04T12:14:43.000Z</Time>
            <Position>
              <LatitudeDegrees>40.94020298682153224945068359375</LatitudeDegrees>
              <LongitudeDegrees>-0.9507239051163196563720703125</LongitudeDegrees>
            </Position>
            <AltitudeMeters>1102.800048828125</AltitudeMeters>
            <DistanceMeters>616324.72663656</DistanceMeters>
          </Trackpoint>
          <Trackpoint>
            <Time>2021-08-04T12:14:55.000Z</Time>
            <Position>
              <LatitudeDegrees>40.94027138315141201019287109375</LatitudeDegrees>
              <LongitudeDegrees>-0.95053732395172119140625</LongitudeDegrees>
            </Position>
            <AltitudeMeters>1103.800048828125</AltitudeMeters>
            <DistanceMeters>616342.16345605</DistanceMeters>
          </Trackpoint>
          <Trackpoint>
            <Time>2021-08-04T12:14:58.000Z</Time>
            <Position>
              <LatitudeDegrees>40.94029988162219524383544921875</LatitudeDegrees>
              <LongitudeDegrees>-0.95049533061683177947998046875</LongitudeDegrees>
            </Position>
            <AltitudeMeters>1103.800048828125</AltitudeMeters>
            <DistanceMeters>616346.90908674</DistanceMeters>
          </Trackpoint>
          <Trackpoint>
            <Time>2021-08-04T12:15:03.000Z</Time>
            <Position>
              <LatitudeDegrees>40.94042980112135410308837890625</LatitudeDegrees>
              <LongitudeDegrees>-0.95038921572268009185791015625</LongitudeDegrees>
            </Position>
            <AltitudeMeters>1101.800048828125</AltitudeMeters>
            <DistanceMeters>616363.90027781</DistanceMeters>
          </Trackpoint>
          <Trackpoint>
            <Time>2021-08-04T12:15:06.000Z</Time>
            <Position>
              <LatitudeDegrees>40.94051647000014781951904296875</LatitudeDegrees>
              <LongitudeDegrees>-0.95031268894672393798828125</LongitudeDegrees>
            </Position>
            <AltitudeMeters>1100.4000244140625</AltitudeMeters>
            <DistanceMeters>616375.49509468</DistanceMeters>
          </Trackpoint>
          <Trackpoint>
            <Time>2021-08-04T12:15:07.000Z</Time>
            <Position>
              <LatitudeDegrees>40.94054580666124820709228515625</LatitudeDegrees>
              <LongitudeDegrees>-0.95027446746826171875</LongitudeDegrees>
            </Position>
            <AltitudeMeters>1100</AltitudeMeters>
            <DistanceMeters>616380.07810218</DistanceMeters>
          </Trackpoint>
          <Trackpoint>
            <Time>2021-08-04T12:15:09.000Z</Time>
            <Position>
              <LatitudeDegrees>40.94060028903186321258544921875</LatitudeDegrees>
              <LongitudeDegrees>-0.95019022934138774871826171875</LongitudeDegrees>
            </Position>
            <AltitudeMeters>1099</AltitudeMeters>
            <DistanceMeters>616389.40186462</DistanceMeters>
          </Trackpoint>
          <Trackpoint>
            <Time>2021-08-04T12:15:11.000Z</Time>
            <Position>
              <LatitudeDegrees>40.940641276538372039794921875</LatitudeDegrees>
              <LongitudeDegrees>-0.95010758377611637115478515625</LongitudeDegrees>
            </Position>
            <AltitudeMeters>1097.800048828125</AltitudeMeters>
            <DistanceMeters>616397.71439401</DistanceMeters>
          </Trackpoint>
          <Trackpoint>
            <Time>2021-08-04T12:15:12.000Z</Time>
            <Position>
              <LatitudeDegrees>40.94065007753670215606689453125</LatitudeDegrees>
              <LongitudeDegrees>-0.95006986521184444427490234375</LongitudeDegrees>
            </Position>
            <AltitudeMeters>1097.199951171875</AltitudeMeters>
            <DistanceMeters>616401.03353445</DistanceMeters>
          </Trackpoint>
          <Trackpoint>
            <Time>2021-08-04T12:15:15.000Z</Time>
            <Position>
              <LatitudeDegrees>40.9406105987727642059326171875</LatitudeDegrees>
              <LongitudeDegrees>-0.9499759040772914886474609375</LongitudeDegrees>
            </Position>
            <AltitudeMeters>1096.5999755859375</AltitudeMeters>
            <DistanceMeters>616410.07356719</DistanceMeters>
          </Trackpoint>
          <Trackpoint>
            <Time>2021-08-04T12:15:16.000Z</Time>
            <Position>
              <LatitudeDegrees>40.940585620701313018798828125</LatitudeDegrees>
              <LongitudeDegrees>-0.94994581304490566253662109375</LongitudeDegrees>
            </Position>
            <AltitudeMeters>1096.4000244140625</AltitudeMeters>
            <DistanceMeters>616413.83163046</DistanceMeters>
          </Trackpoint>
          <Trackpoint>
            <Time>2021-08-04T12:15:18.000Z</Time>
            <Position>
              <LatitudeDegrees>40.9405408613383769989013671875</LatitudeDegrees>
              <LongitudeDegrees>-0.94986182637512683868408203125</LongitudeDegrees>
            </Position>
            <AltitudeMeters>1095.5999755859375</AltitudeMeters>
            <DistanceMeters>616422.47331619</DistanceMeters>
          </Trackpoint>
          <Trackpoint>
            <Time>2021-08-04T12:15:19.000Z</Time>
            <Position>
              <LatitudeDegrees>40.94052426517009735107421875</LatitudeDegrees>
              <LongitudeDegrees>-0.9498065896332263946533203125</LongitudeDegrees>
            </Position>
            <AltitudeMeters>1095.199951171875</AltitudeMeters>
            <DistanceMeters>616427.47284132</DistanceMeters>
          </Trackpoint>
          <Trackpoint>
            <Time>2021-08-04T12:15:22.000Z</Time>
            <Position>
              <LatitudeDegrees>40.94045720994472503662109375</LatitudeDegrees>
              <LongitudeDegrees>-0.94968094490468502044677734375</LongitudeDegrees>
            </Position>
            <AltitudeMeters>1094</AltitudeMeters>
            <DistanceMeters>616440.40695112</DistanceMeters>
          </Trackpoint>
          <Trackpoint>
            <Time>2021-08-04T12:15:26.000Z</Time>
            <Position>
              <LatitudeDegrees>40.94035721383988857269287109375</LatitudeDegrees>
              <LongitudeDegrees>-0.9495792724192142486572265625</LongitudeDegrees>
            </Position>
            <AltitudeMeters>1093</AltitudeMeters>
            <DistanceMeters>616454.440695</DistanceMeters>
          </Trackpoint>
          <Trackpoint>
            <Time>2021-08-04T12:15:27.000Z</Time>
            <Position>
              <LatitudeDegrees>40.940330810844898223876953125</LatitudeDegrees>
              <LongitudeDegrees>-0.94954423606395721435546875</LongitudeDegrees>
            </Position>
            <AltitudeMeters>1092.800048828125</AltitudeMeters>
            <DistanceMeters>616458.60130271</DistanceMeters>
          </Trackpoint>
          <Trackpoint>
            <Time>2021-08-04T12:15:31.000Z</Time>
            <Position>
              <LatitudeDegrees>40.9402401186525821685791015625</LatitudeDegrees>
              <LongitudeDegrees>-0.94935622997581958770751953125</LongitudeDegrees>
            </Position>
            <AltitudeMeters>1092</AltitudeMeters>
            <DistanceMeters>616477.3565046</DistanceMeters>
          </Trackpoint>
          <Trackpoint>
            <Time>2021-08-04T12:15:32.000Z</Time>
            <Position>
              <LatitudeDegrees>40.9402205049991607666015625</LatitudeDegrees>
              <LongitudeDegrees>-0.94930174760520458221435546875</LongitudeDegrees>
            </Position>
            <AltitudeMeters>1091.4000244140625</AltitudeMeters>
            <DistanceMeters>616482.43043285</DistanceMeters>
          </Trackpoint>
          <Trackpoint>
            <Time>2021-08-04T12:15:33.000Z</Time>
            <Position>
              <LatitudeDegrees>40.94019569456577301025390625</LatitudeDegrees>
              <LongitudeDegrees>-0.9492537193000316619873046875</LongitudeDegrees>
            </Position>
            <AltitudeMeters>1090.800048828125</AltitudeMeters>
            <DistanceMeters>616487.32223237</DistanceMeters>
          </Trackpoint>
          <Trackpoint>
            <Time>2021-08-04T12:15:34.000Z</Time>
            <Position>
              <LatitudeDegrees>40.9401609934866428375244140625</LatitudeDegrees>
              <LongitudeDegrees>-0.9492198564112186431884765625</LongitudeDegrees>
            </Position>
            <AltitudeMeters>1090.4000244140625</AltitudeMeters>
            <DistanceMeters>616492.12084623</DistanceMeters>
          </Trackpoint>
          <Trackpoint>
            <Time>2021-08-04T12:15:36.000Z</Time>
            <Position>
              <LatitudeDegrees>40.94007206149399280548095703125</LatitudeDegrees>
              <LongitudeDegrees>-0.9492040984332561492919921875</LongitudeDegrees>
            </Position>
            <AltitudeMeters>1089.4000244140625</AltitudeMeters>
            <DistanceMeters>616502.10724519</DistanceMeters>
          </Trackpoint>
          <Trackpoint>
            <Time>2021-08-04T12:15:38.000Z</Time>
            <Position>
              <LatitudeDegrees>40.93997969292104244232177734375</LatitudeDegrees>
              <LongitudeDegrees>-0.949267633259296417236328125</LongitudeDegrees>
            </Position>
            <AltitudeMeters>1088.199951171875</AltitudeMeters>
            <DistanceMeters>616513.69271265</DistanceMeters>
          </Trackpoint>
          <Trackpoint>
            <Time>2021-08-04T12:15:39.000Z</Time>
            <Position>
              <LatitudeDegrees>40.93993191607296466827392578125</LatitudeDegrees>
              <LongitudeDegrees>-0.94932102598249912261962890625</LongitudeDegrees>
            </Position>
            <AltitudeMeters>1087.5999755859375</AltitudeMeters>
            <DistanceMeters>616520.6524059</DistanceMeters>
          </Trackpoint>
          <Trackpoint>
            <Time>2021-08-04T12:15:41.000Z</Time>
            <Position>
              <LatitudeDegrees>40.93982814811170101165771484375</LatitudeDegrees>
              <LongitudeDegrees>-0.949437282979488372802734375</LongitudeDegrees>
            </Position>
            <AltitudeMeters>1087</AltitudeMeters>
            <DistanceMeters>616535.78345206</DistanceMeters>
          </Trackpoint>
          <Trackpoint>
            <Time>2021-08-04T12:15:45.000Z</Time>
            <Position>
              <LatitudeDegrees>40.93962647952139377593994140625</LatitudeDegrees>
              <LongitudeDegrees>-0.9496412985026836395263671875</LongitudeDegrees>
            </Position>
            <AltitudeMeters>1086</AltitudeMeters>
            <DistanceMeters>616564.03340952</DistanceMeters>
          </Trackpoint>
          <Trackpoint>
            <Time>2021-08-04T12:15:53.000Z</Time>
            <Position>
              <LatitudeDegrees>40.93930595554411411285400390625</LatitudeDegrees>
              <LongitudeDegrees>-0.949456058442592620849609375</LongitudeDegrees>
            </Position>
            <AltitudeMeters>1084.5999755859375</AltitudeMeters>
            <DistanceMeters>616602.95981299</DistanceMeters>
          </Trackpoint>
          <Trackpoint>
            <Time>2021-08-04T12:15:59.000Z</Time>
            <Position>
              <LatitudeDegrees>40.93904511071741580963134765625</LatitudeDegrees>
              <LongitudeDegrees>-0.94961271621286869049072265625</LongitudeDegrees>
            </Position>
            <AltitudeMeters>1084.199951171875</AltitudeMeters>
            <DistanceMeters>616634.84039053</DistanceMeters>
          </Trackpoint>
          <Trackpoint>
            <Time>2021-08-04T12:16:02.000Z</Time>
            <Position>
              <LatitudeDegrees>40.938929021358489990234375</LatitudeDegrees>
              <LongitudeDegrees>-0.949762500822544097900390625</LongitudeDegrees>
            </Position>
            <AltitudeMeters>1083.5999755859375</AltitudeMeters>
            <DistanceMeters>616652.88345889</DistanceMeters>
          </Trackpoint>
          <Trackpoint>
            <Time>2021-08-04T12:16:03.000Z</Time>
            <Position>
              <LatitudeDegrees>40.93888535164296627044677734375</LatitudeDegrees>
              <LongitudeDegrees>-0.9498052485287189483642578125</LongitudeDegrees>
            </Position>
            <AltitudeMeters>1083.5999755859375</AltitudeMeters>
            <DistanceMeters>616658.92942858</DistanceMeters>
          </Trackpoint>
          <Trackpoint>
            <Time>2021-08-04T12:16:08.000Z</Time>
            <Position>
              <LatitudeDegrees>40.93864378519356250762939453125</LatitudeDegrees>
              <LongitudeDegrees>-0.949943549931049346923828125</LongitudeDegrees>
            </Position>
            <AltitudeMeters>1084.199951171875</AltitudeMeters>
            <DistanceMeters>616688.22309913</DistanceMeters>
          </Trackpoint>
          <Trackpoint>
            <Time>2021-08-04T12:16:17.000Z</Time>
            <Position>
              <LatitudeDegrees>40.93820775859057903289794921875</LatitudeDegrees>
              <LongitudeDegrees>-0.95007590018212795257568359375</LongitudeDegrees>
            </Position>
            <AltitudeMeters>1082.199951171875</AltitudeMeters>
            <DistanceMeters>616738.01328899</DistanceMeters>
          </Trackpoint>
          <Trackpoint>
            <Time>2021-08-04T12:16:20.000Z</Time>
            <Position>
              <LatitudeDegrees>40.93802738003432750701904296875</LatitudeDegrees>
              <LongitudeDegrees>-0.9501405246555805206298828125</LongitudeDegrees>
            </Position>
            <AltitudeMeters>1080.800048828125</AltitudeMeters>
            <DistanceMeters>616758.81198635</DistanceMeters>
          </Trackpoint>
          <Trackpoint>
            <Time>2021-08-04T12:16:22.000Z</Time>
            <Position>
              <LatitudeDegrees>40.93790374696254730224609375</LatitudeDegrees>
              <LongitudeDegrees>-0.95017991960048675537109375</LongitudeDegrees>
            </Position>
            <AltitudeMeters>1079.4000244140625</AltitudeMeters>
            <DistanceMeters>616772.96586377</DistanceMeters>
          </Trackpoint>
          <Trackpoint>
            <Time>2021-08-04T12:16:23.000Z</Time>
            <Position>
              <LatitudeDegrees>40.93784071505069732666015625</LatitudeDegrees>
              <LongitudeDegrees>-0.95019391737878322601318359375</LongitudeDegrees>
            </Position>
            <AltitudeMeters>1079</AltitudeMeters>
            <DistanceMeters>616780.07955117</DistanceMeters>
          </Trackpoint>
          <Trackpoint>
            <Time>2021-08-04T12:16:28.000Z</Time>
            <Position>
              <LatitudeDegrees>40.93748674727976322174072265625</LatitudeDegrees>
              <LongitudeDegrees>-0.95013306476175785064697265625</LongitudeDegrees>
            </Position>
            <AltitudeMeters>1078.199951171875</AltitudeMeters>
            <DistanceMeters>616819.80765094</DistanceMeters>
          </Trackpoint>
          <Trackpoint>
            <Time>2021-08-04T12:16:29.000Z</Time>
            <Position>
              <LatitudeDegrees>40.93740946613252162933349609375</LatitudeDegrees>
              <LongitudeDegrees>-0.9500929154455661773681640625</LongitudeDegrees>
            </Position>
            <AltitudeMeters>1077.800048828125</AltitudeMeters>
            <DistanceMeters>616829.04774687</DistanceMeters>
          </Trackpoint>
          <Trackpoint>
            <Time>2021-08-04T12:16:31.000Z</Time>
            <Position>
              <LatitudeDegrees>40.9372494556009769439697265625</LatitudeDegrees>
              <LongitudeDegrees>-0.95000364817678928375244140625</LongitudeDegrees>
            </Position>
            <AltitudeMeters>1076.800048828125</AltitudeMeters>
            <DistanceMeters>616848.37418089</DistanceMeters>
          </Trackpoint>
          <Trackpoint>
            <Time>2021-08-04T12:16:33.000Z</Time>
            <Position>
              <LatitudeDegrees>40.93709212727844715118408203125</LatitudeDegrees>
              <LongitudeDegrees>-0.94990507699549198150634765625</LongitudeDegrees>
            </Position>
            <AltitudeMeters>1076</AltitudeMeters>
            <DistanceMeters>616867.74751558</DistanceMeters>
          </Trackpoint>
          <Trackpoint>
            <Time>2021-08-04T12:16:34.000Z</Time>
            <Position>
              <LatitudeDegrees>40.93702171929180622100830078125</LatitudeDegrees>
              <LongitudeDegrees>-0.94983802177011966705322265625</LongitudeDegrees>
            </Position>
            <AltitudeMeters>1075.5999755859375</AltitudeMeters>
            <DistanceMeters>616877.4015002</DistanceMeters>
          </Trackpoint>
          <Trackpoint>
            <Time>2021-08-04T12:16:36.000Z</Time>
            <Position>
              <LatitudeDegrees>40.93689833767712116241455078125</LatitudeDegrees>
              <LongitudeDegrees>-0.949670970439910888671875</LongitudeDegrees>
            </Position>
            <AltitudeMeters>1074.199951171875</AltitudeMeters>
            <DistanceMeters>616897.04515634</DistanceMeters>
          </Trackpoint>
          <Trackpoint>
            <Time>2021-08-04T12:16:38.000Z</Time>
            <Position>
              <LatitudeDegrees>40.9367626346647739410400390625</LatitudeDegrees>
              <LongitudeDegrees>-0.949526131153106689453125</LongitudeDegrees>
            </Position>
            <AltitudeMeters>1073.199951171875</AltitudeMeters>
            <DistanceMeters>616916.44736825</DistanceMeters>
          </Trackpoint>
          <Trackpoint>
            <Time>2021-08-04T12:16:40.000Z</Time>
            <Position>
              <LatitudeDegrees>40.93658200465142726898193359375</LatitudeDegrees>
              <LongitudeDegrees>-0.94948430545628070831298828125</LongitudeDegrees>
            </Position>
            <AltitudeMeters>1071.5999755859375</AltitudeMeters>
            <DistanceMeters>616936.85710676</DistanceMeters>
          </Trackpoint>
          <Trackpoint>
            <Time>2021-08-04T12:16:41.000Z</Time>
            <Position>
              <LatitudeDegrees>40.93648728914558887481689453125</LatitudeDegrees>
              <LongitudeDegrees>-0.949478186666965484619140625</LongitudeDegrees>
            </Position>
            <AltitudeMeters>1071</AltitudeMeters>
            <DistanceMeters>616947.41106303</DistanceMeters>
          </Trackpoint>
          <Trackpoint>
            <Time>2021-08-04T12:16:43.000Z</Time>
            <Position>
              <LatitudeDegrees>40.93629953451454639434814453125</LatitudeDegrees>
              <LongitudeDegrees>-0.94945840537548065185546875</LongitudeDegrees>
            </Position>
            <AltitudeMeters>1069.800048828125</AltitudeMeters>
            <DistanceMeters>616968.3747402</DistanceMeters>
          </Trackpoint>
          <Trackpoint>
            <Time>2021-08-04T12:16:45.000Z</Time>
            <Position>
              <LatitudeDegrees>40.93611798249185085296630859375</LatitudeDegrees>
              <LongitudeDegrees>-0.9494572319090366363525390625</LongitudeDegrees>
            </Position>
            <AltitudeMeters>1068.800048828125</AltitudeMeters>
            <DistanceMeters>616988.58216598</DistanceMeters>
          </Trackpoint>
          <Trackpoint>
            <Time>2021-08-04T12:16:47.000Z</Time>
            <Position>
              <LatitudeDegrees>40.935949422419071197509765625</LatitudeDegrees>
              <LongitudeDegrees>-0.94953677617013454437255859375</LongitudeDegrees>
            </Position>
            <AltitudeMeters>1067.4000244140625</AltitudeMeters>
            <DistanceMeters>617008.49972905</DistanceMeters>
          </Trackpoint>
          <Trackpoint>
            <Time>2021-08-04T12:16:49.000Z</Time>
            <Position>
              <LatitudeDegrees>40.93578438274562358856201171875</LatitudeDegrees>
              <LongitudeDegrees>-0.949638448655605316162109375</LongitudeDegrees>
            </Position>
            <AltitudeMeters>1065.800048828125</AltitudeMeters>
            <DistanceMeters>617028.76070817</DistanceMeters>
          </Trackpoint>
          <Trackpoint>
            <Time>2021-08-04T12:16:51.000Z</Time>
            <Position>
              <LatitudeDegrees>40.93561104498803615570068359375</LatitudeDegrees>
              <LongitudeDegrees>-0.9496329165995121002197265625</LongitudeDegrees>
            </Position>
            <AltitudeMeters>1064.800048828125</AltitudeMeters>
            <DistanceMeters>617048.05908745</DistanceMeters>
          </Trackpoint>
          <Trackpoint>
            <Time>2021-08-04T12:16:55.000Z</Time>
            <Position>
              <LatitudeDegrees>40.93529890291392803192138671875</LatitudeDegrees>
              <LongitudeDegrees>-0.949492938816547393798828125</LongitudeDegrees>
            </Position>
            <AltitudeMeters>1063.4000244140625</AltitudeMeters>
            <DistanceMeters>617084.74050701</DistanceMeters>
          </Trackpoint>
          <Trackpoint>
            <Time>2021-08-04T12:16:57.000Z</Time>
            <Position>
              <LatitudeDegrees>40.93515372835099697113037109375</LatitudeDegrees>
              <LongitudeDegrees>-0.9495591558516025543212890625</LongitudeDegrees>
            </Position>
            <AltitudeMeters>1062.199951171875</AltitudeMeters>
            <DistanceMeters>617101.83105564</DistanceMeters>
          </Trackpoint>
          <Trackpoint>
            <Time>2021-08-04T12:16:59.000Z</Time>
            <Position>
              <LatitudeDegrees>40.93507309444248676300048828125</LatitudeDegrees>
              <LongitudeDegrees>-0.9497257880866527557373046875</LongitudeDegrees>
            </Position>
            <AltitudeMeters>1060.5999755859375</AltitudeMeters>
            <DistanceMeters>617118.46968791</DistanceMeters>
          </Trackpoint>
          <Trackpoint>
            <Time>2021-08-04T12:17:01.000Z</Time>
            <Position>
              <LatitudeDegrees>40.93505834229290485382080078125</LatitudeDegrees>
              <LongitudeDegrees>-0.94992720521986484527587890625</LongitudeDegrees>
            </Position>
            <AltitudeMeters>1059.4000244140625</AltitudeMeters>
            <DistanceMeters>617135.48504306</DistanceMeters>
          </Trackpoint>
          <Trackpoint>
            <Time>2021-08-04T12:17:09.000Z</Time>
            <Position>
              <LatitudeDegrees>40.93456439673900604248046875</LatitudeDegrees>
              <LongitudeDegrees>-0.9500399418175220489501953125</LongitudeDegrees>
            </Position>
            <AltitudeMeters>1058.800048828125</AltitudeMeters>
            <DistanceMeters>617191.27341342</DistanceMeters>
          </Trackpoint>
          <Trackpoint>
            <Time>2021-08-04T12:17:10.000Z</Time>
            <Position>
              <LatitudeDegrees>40.9344968385994434356689453125</LatitudeDegrees>
              <LongitudeDegrees>-0.94998671673238277435302734375</LongitudeDegrees>
            </Position>
            <AltitudeMeters>1058.5999755859375</AltitudeMeters>
            <DistanceMeters>617200.02361445</DistanceMeters>
          </Trackpoint>
          <Trackpoint>
            <Time>2021-08-04T12:17:12.000Z</Time>
            <Position>
              <LatitudeDegrees>40.934360884130001068115234375</LatitudeDegrees>
              <LongitudeDegrees>-0.9498739801347255706787109375</LongitudeDegrees>
            </Position>
            <AltitudeMeters>1058.199951171875</AltitudeMeters>
            <DistanceMeters>617217.87978899</DistanceMeters>
          </Trackpoint>
          <Trackpoint>
            <Time>2021-08-04T12:17:16.000Z</Time>
            <Position>
              <LatitudeDegrees>40.934077911078929901123046875</LatitudeDegrees>
              <LongitudeDegrees>-0.9496513567864894866943359375</LongitudeDegrees>
            </Position>
            <AltitudeMeters>1056.800048828125</AltitudeMeters>
            <DistanceMeters>617254.51822569</DistanceMeters>
          </Trackpoint>
          <Trackpoint>
            <Time>2021-08-04T12:17:21.000Z</Time>
            <Position>
              <LatitudeDegrees>40.933704413473606109619140625</LatitudeDegrees>
              <LongitudeDegrees>-0.94937617890536785125732421875</LongitudeDegrees>
            </Position>
            <AltitudeMeters>1055.5999755859375</AltitudeMeters>
            <DistanceMeters>617302.09473368</DistanceMeters>
          </Trackpoint>
          <Trackpoint>
            <Time>2021-08-04T12:17:25.000Z</Time>
            <Position>
              <LatitudeDegrees>40.93341314233839511871337890625</LatitudeDegrees>
              <LongitudeDegrees>-0.9491092152893543243408203125</LongitudeDegrees>
            </Position>
            <AltitudeMeters>1054.199951171875</AltitudeMeters>
            <DistanceMeters>617341.52681279</DistanceMeters>
          </Trackpoint>
          <Trackpoint>
            <Time>2021-08-04T12:17:28.000Z</Time>
            <Position>
              <LatitudeDegrees>40.933198817074298858642578125</LatitudeDegrees>
              <LongitudeDegrees>-0.94889623112976551055908203125</LongitudeDegrees>
            </Position>
            <AltitudeMeters>1053</AltitudeMeters>
            <DistanceMeters>617371.35612073</DistanceMeters>
          </Trackpoint>
          <Trackpoint>
            <Time>2021-08-04T12:17:31.000Z</Time>
            <Position>
              <LatitudeDegrees>40.93299589119851589202880859375</LatitudeDegrees>
              <LongitudeDegrees>-0.9487970732152462005615234375</LongitudeDegrees>
            </Position>
            <AltitudeMeters>1051.800048828125</AltitudeMeters>
            <DistanceMeters>617395.43222231</DistanceMeters>
          </Trackpoint>
          <Trackpoint>
            <Time>2021-08-04T12:17:32.000Z</Time>
            <Position>
              <LatitudeDegrees>40.93292866833508014678955078125</LatitudeDegrees>
              <LongitudeDegrees>-0.948784835636615753173828125</LongitudeDegrees>
            </Position>
            <AltitudeMeters>1051.800048828125</AltitudeMeters>
            <DistanceMeters>617402.98430565</DistanceMeters>
          </Trackpoint>
          <Trackpoint>
            <Time>2021-08-04T12:17:41.000Z</Time>
            <Position>
              <LatitudeDegrees>40.9324714355170726776123046875</LatitudeDegrees>
              <LongitudeDegrees>-0.94868324697017669677734375</LongitudeDegrees>
            </Position>
            <AltitudeMeters>1050.800048828125</AltitudeMeters>
            <DistanceMeters>617454.58713651</DistanceMeters>
          </Trackpoint>
          <Trackpoint>
            <Time>2021-08-04T12:17:43.000Z</Time>
            <Position>
              <LatitudeDegrees>40.93244142830371856689453125</LatitudeDegrees>
              <LongitudeDegrees>-0.9486009366810321807861328125</LongitudeDegrees>
            </Position>
            <AltitudeMeters>1050.5999755859375</AltitudeMeters>
            <DistanceMeters>617462.27197222</DistanceMeters>
          </Trackpoint>
          <Trackpoint>
            <Time>2021-08-04T12:17:45.000Z</Time>
            <Position>
              <LatitudeDegrees>40.932431705296039581298828125</LatitudeDegrees>
              <LongitudeDegrees>-0.9485124237835407257080078125</LongitudeDegrees>
            </Position>
            <AltitudeMeters>1050.4000244140625</AltitudeMeters>
            <DistanceMeters>617469.79350324</DistanceMeters>
          </Trackpoint>
          <Trackpoint>
            <Time>2021-08-04T12:17:48.000Z</Time>
            <Position>
              <LatitudeDegrees>40.9324305318295955657958984375</LatitudeDegrees>
              <LongitudeDegrees>-0.94835559837520122528076171875</LongitudeDegrees>
            </Position>
            <AltitudeMeters>1049.800048828125</AltitudeMeters>
            <DistanceMeters>617482.98134887</DistanceMeters>
          </Trackpoint>
          <Trackpoint>
            <Time>2021-08-04T12:17:49.000Z</Time>
            <Position>
              <LatitudeDegrees>40.93243740499019622802734375</LatitudeDegrees>
              <LongitudeDegrees>-0.94829524867236614227294921875</LongitudeDegrees>
            </Position>
            <AltitudeMeters>1049.5999755859375</AltitudeMeters>
            <DistanceMeters>617488.11279144</DistanceMeters>
          </Trackpoint>
          <Trackpoint>
            <Time>2021-08-04T12:18:05.000Z</Time>
            <Position>
              <LatitudeDegrees>40.93241670168936252593994140625</LatitudeDegrees>
              <LongitudeDegrees>-0.94757658429443836212158203125</LongitudeDegrees>
            </Position>
            <AltitudeMeters>1050</AltitudeMeters>
            <DistanceMeters>617548.58682487</DistanceMeters>
          </Trackpoint>
          <Trackpoint>
            <Time>2021-08-04T12:18:15.000Z</Time>
            <Position>
              <LatitudeDegrees>40.932326428592205047607421875</LatitudeDegrees>
              <LongitudeDegrees>-0.94716452993452548980712890625</LongitudeDegrees>
            </Position>
            <AltitudeMeters>1050.4000244140625</AltitudeMeters>
            <DistanceMeters>617584.66245013</DistanceMeters>
          </Trackpoint>
          <Trackpoint>
            <Time>2021-08-04T12:18:30.000Z</Time>
            <Position>
              <LatitudeDegrees>40.9320612251758575439453125</LatitudeDegrees>
              <LongitudeDegrees>-0.946530438959598541259765625</LongitudeDegrees>
            </Position>
            <AltitudeMeters>1050</AltitudeMeters>
            <DistanceMeters>617645.60651302</DistanceMeters>
          </Trackpoint>
          <Trackpoint>
            <Time>2021-08-04T12:18:38.000Z</Time>
            <Position>
              <LatitudeDegrees>40.93185628764331340789794921875</LatitudeDegrees>
              <LongitudeDegrees>-0.94616456888616085052490234375</LongitudeDegrees>
            </Position>
            <AltitudeMeters>1049.5999755859375</AltitudeMeters>
            <DistanceMeters>617683.9049905</DistanceMeters>
          </Trackpoint>
          <Trackpoint>
            <Time>2021-08-04T12:18:51.000Z</Time>
            <Position>
              <LatitudeDegrees>40.93176173977553844451904296875</LatitudeDegrees>
              <LongitudeDegrees>-0.94562628306448459625244140625</LongitudeDegrees>
            </Position>
            <AltitudeMeters>1051.4000244140625</AltitudeMeters>
            <DistanceMeters>617730.37538571</DistanceMeters>
          </Trackpoint>
          <Trackpoint>
            <Time>2021-08-04T12:18:57.000Z</Time>
            <Position>
              <LatitudeDegrees>40.9317608177661895751953125</LatitudeDegrees>
              <LongitudeDegrees>-0.9454389475286006927490234375</LongitudeDegrees>
            </Position>
            <AltitudeMeters>1052.5999755859375</AltitudeMeters>
            <DistanceMeters>617746.12862541</DistanceMeters>
          </Trackpoint>
          <Trackpoint>
            <Time>2021-08-04T12:19:06.000Z</Time>
            <Position>
              <LatitudeDegrees>40.93178738839924335479736328125</LatitudeDegrees>
              <LongitudeDegrees>-0.94520584680140018463134765625</LongitudeDegrees>
            </Position>
            <AltitudeMeters>1053.4000244140625</AltitudeMeters>
            <DistanceMeters>617765.95120713</DistanceMeters>
          </Trackpoint>
          <Trackpoint>
            <Time>2021-08-04T12:19:25.000Z</Time>
            <Position>
              <LatitudeDegrees>40.93187472783029079437255859375</LatitudeDegrees>
              <LongitudeDegrees>-0.94449229538440704345703125</LongitudeDegrees>
            </Position>
            <AltitudeMeters>1053.800048828125</AltitudeMeters>
            <DistanceMeters>617826.73429307</DistanceMeters>
          </Trackpoint>
          <Trackpoint>
            <Time>2021-08-04T12:19:39.000Z</Time>
            <Position>
              <LatitudeDegrees>40.93205309472978115081787109375</LatitudeDegrees>
              <LongitudeDegrees>-0.9439751319587230682373046875</LongitudeDegrees>
            </Position>
            <AltitudeMeters>1054.199951171875</AltitudeMeters>
            <DistanceMeters>617874.53849211</DistanceMeters>
          </Trackpoint>
          <Trackpoint>
            <Time>2021-08-04T12:19:58.000Z</Time>
            <Position>
              <LatitudeDegrees>40.9323872812092304229736328125</LatitudeDegrees>
              <LongitudeDegrees>-0.943402312695980072021484375</LongitudeDegrees>
            </Position>
            <AltitudeMeters>1055.199951171875</AltitudeMeters>
            <DistanceMeters>617935.39522035</DistanceMeters>
          </Trackpoint>
          <Trackpoint>
            <Time>2021-08-04T12:19:59.000Z</Time>
            <Position>
              <LatitudeDegrees>40.9324000217020511627197265625</LatitudeDegrees>
              <LongitudeDegrees>-0.94338186085224151611328125</LongitudeDegrees>
            </Position>
            <AltitudeMeters>1055.5999755859375</AltitudeMeters>
            <DistanceMeters>617937.6258194</DistanceMeters>
          </Trackpoint>
          <Trackpoint>
            <Time>2021-08-04T12:20:03.000Z</Time>
            <Position>
              <LatitudeDegrees>40.932443104684352874755859375</LatitudeDegrees>
              <LongitudeDegrees>-0.94331539236009120941162109375</LongitudeDegrees>
            </Position>
            <AltitudeMeters>1056.4000244140625</AltitudeMeters>
            <DistanceMeters>617944.98962338</DistanceMeters>
          </Trackpoint>
          <Trackpoint>
            <Time>2021-08-04T12:20:08.000Z</Time>
            <Position>
              <LatitudeDegrees>40.93248342163860797882080078125</LatitudeDegrees>
              <LongitudeDegrees>-0.94326308928430080413818359375</LongitudeDegrees>
            </Position>
            <AltitudeMeters>1057.5999755859375</AltitudeMeters>
            <DistanceMeters>617951.27289436</DistanceMeters>
          </Trackpoint>
          <Trackpoint>
            <Time>2021-08-04T12:20:10.000Z</Time>
            <Position>
              <LatitudeDegrees>40.93250286765396595001220703125</LatitudeDegrees>
              <LongitudeDegrees>-0.94324045814573764801025390625</LongitudeDegrees>
            </Position>
            <AltitudeMeters>1057.800048828125</AltitudeMeters>
            <DistanceMeters>617954.15519732</DistanceMeters>
          </Trackpoint>
          <Trackpoint>
            <Time>2021-08-04T12:20:18.000Z</Time>
            <Position>
              <LatitudeDegrees>40.93262809328734874725341796875</LatitudeDegrees>
              <LongitudeDegrees>-0.94315697439014911651611328125</LongitudeDegrees>
            </Position>
            <AltitudeMeters>1058.5999755859375</AltitudeMeters>
            <DistanceMeters>617969.7610027</DistanceMeters>
          </Trackpoint>
          <Trackpoint>
            <Time>2021-08-04T12:20:36.000Z</Time>
            <Position>
              <LatitudeDegrees>40.93299798667430877685546875</LatitudeDegrees>
              <LongitudeDegrees>-0.9430685453116893768310546875</LongitudeDegrees>
            </Position>
            <AltitudeMeters>1059.4000244140625</AltitudeMeters>
            <DistanceMeters>618011.59693865</DistanceMeters>
          </Trackpoint>
          <Trackpoint>
            <Time>2021-08-04T12:20:40.000Z</Time>
            <Position>
              <LatitudeDegrees>40.93306009657680988311767578125</LatitudeDegrees>
              <LongitudeDegrees>-0.9430802799761295318603515625</LongitudeDegrees>
            </Position>
            <AltitudeMeters>1060.4000244140625</AltitudeMeters>
            <DistanceMeters>618018.57994752</DistanceMeters>
          </Trackpoint>
          <Trackpoint>
            <Time>2021-08-04T12:20:46.000Z</Time>
            <Position>
              <LatitudeDegrees>40.93315967358648777008056640625</LatitudeDegrees>
              <LongitudeDegrees>-0.94309084117412567138671875</LongitudeDegrees>
            </Position>
            <AltitudeMeters>1061.5999755859375</AltitudeMeters>
            <DistanceMeters>618029.69847919</DistanceMeters>
          </Trackpoint>
          <Trackpoint>
            <Time>2021-08-04T12:20:57.000Z</Time>
            <Position>
              <LatitudeDegrees>40.93338363803923130035400390625</LatitudeDegrees>
              <LongitudeDegrees>-0.9429468400776386260986328125</LongitudeDegrees>
            </Position>
            <AltitudeMeters>1062.4000244140625</AltitudeMeters>
            <DistanceMeters>618057.41143647</DistanceMeters>
          </Trackpoint>
          <Trackpoint>
            <Time>2021-08-04T12:21:10.000Z</Time>
            <Position>
              <LatitudeDegrees>40.93365604989230632781982421875</LatitudeDegrees>
              <LongitudeDegrees>-0.94274039380252361297607421875</LongitudeDegrees>
            </Position>
            <AltitudeMeters>1063.5999755859375</AltitudeMeters>
            <DistanceMeters>618092.34897436</DistanceMeters>
          </Trackpoint>
          <Trackpoint>
            <Time>2021-08-04T12:21:21.000Z</Time>
            <Position>
              <LatitudeDegrees>40.93387238681316375732421875</LatitudeDegrees>
              <LongitudeDegrees>-0.9425186924636363983154296875</LongitudeDegrees>
            </Position>
            <AltitudeMeters>1064.199951171875</AltitudeMeters>
            <DistanceMeters>618122.80055149</DistanceMeters>
          </Trackpoint>
          <Trackpoint>
            <Time>2021-08-04T12:21:26.000Z</Time>
            <Position>
              <LatitudeDegrees>40.933965258300304412841796875</LatitudeDegrees>
              <LongitudeDegrees>-0.94239874742925167083740234375</LongitudeDegrees>
            </Position>
            <AltitudeMeters>1064.4000244140625</AltitudeMeters>
            <DistanceMeters>618137.24242379</DistanceMeters>
          </Trackpoint>
          <Trackpoint>
            <Time>2021-08-04T12:21:43.000Z</Time>
            <Position>
              <LatitudeDegrees>40.93419165350496768951416015625</LatitudeDegrees>
              <LongitudeDegrees>-0.94190622679889202117919921875</LongitudeDegrees>
            </Position>
            <AltitudeMeters>1065.5999755859375</AltitudeMeters>
            <DistanceMeters>618185.7194618</DistanceMeters>
          </Trackpoint>
          <Trackpoint>
            <Time>2021-08-04T12:21:59.000Z</Time>
            <Position>
              <LatitudeDegrees>40.93428008258342742919921875</LatitudeDegrees>
              <LongitudeDegrees>-0.9413522668182849884033203125</LongitudeDegrees>
            </Position>
            <AltitudeMeters>1066.4000244140625</AltitudeMeters>
            <DistanceMeters>618233.32737151</DistanceMeters>
          </Trackpoint>
          <Trackpoint>
            <Time>2021-08-04T12:22:07.000Z</Time>
            <Position>
              <LatitudeDegrees>40.93428033404052257537841796875</LatitudeDegrees>
              <LongitudeDegrees>-0.94108647666871547698974609375</LongitudeDegrees>
            </Position>
            <AltitudeMeters>1067.4000244140625</AltitudeMeters>
            <DistanceMeters>618255.67623252</DistanceMeters>
          </Trackpoint>
          <Trackpoint>
            <Time>2021-08-04T12:22:21.000Z</Time>
            <Position>
              <LatitudeDegrees>40.93425468541681766510009765625</LatitudeDegrees>
              <LongitudeDegrees>-0.9406227059662342071533203125</LongitudeDegrees>
            </Position>
            <AltitudeMeters>1068.199951171875</AltitudeMeters>
            <DistanceMeters>618294.77634802</DistanceMeters>
          </Trackpoint>
          <Trackpoint>
            <Time>2021-08-04T12:22:35.000Z</Time>
            <Position>
              <LatitudeDegrees>40.93423641286790370941162109375</LatitudeDegrees>
              <LongitudeDegrees>-0.94016765244305133819580078125</LongitudeDegrees>
            </Position>
            <AltitudeMeters>1069.4000244140625</AltitudeMeters>
            <DistanceMeters>618333.09321205</DistanceMeters>
          </Trackpoint>
          <Trackpoint>
            <Time>2021-08-04T12:22:42.000Z</Time>
            <Position>
              <LatitudeDegrees>40.934228114783763885498046875</LatitudeDegrees>
              <LongitudeDegrees>-0.93993723392486572265625</LongitudeDegrees>
            </Position>
            <AltitudeMeters>1070.4000244140625</AltitudeMeters>
            <DistanceMeters>618352.49007095</DistanceMeters>
          </Trackpoint>
          <Trackpoint>
            <Time>2021-08-04T12:23:04.000Z</Time>
            <Position>
              <LatitudeDegrees>40.93419156968593597412109375</LatitudeDegrees>
              <LongitudeDegrees>-0.9392145462334156036376953125</LongitudeDegrees>
            </Position>
            <AltitudeMeters>1071.199951171875</AltitudeMeters>
            <DistanceMeters>618413.39285454</DistanceMeters>
          </Trackpoint>
          <Trackpoint>
            <Time>2021-08-04T12:23:05.000Z</Time>
            <Position>
              <LatitudeDegrees>40.93419014476239681243896484375</LatitudeDegrees>
              <LongitudeDegrees>-0.93918177299201488494873046875</LongitudeDegrees>
            </Position>
            <AltitudeMeters>1071.199951171875</AltitudeMeters>
            <DistanceMeters>618416.15354006</DistanceMeters>
          </Trackpoint>
          <Trackpoint>
            <Time>2021-08-04T12:23:24.000Z</Time>
            <Position>
              <LatitudeDegrees>40.93416097573935985565185546875</LatitudeDegrees>
              <LongitudeDegrees>-0.93853083439171314239501953125</LongitudeDegrees>
            </Position>
            <AltitudeMeters>1072.4000244140625</AltitudeMeters>
            <DistanceMeters>618470.98354252</DistanceMeters>
          </Trackpoint>
          <Trackpoint>
            <Time>2021-08-04T12:23:35.000Z</Time>
            <Position>
              <LatitudeDegrees>40.934144966304302215576171875</LatitudeDegrees>
              <LongitudeDegrees>-0.93812582083046436309814453125</LongitudeDegrees>
            </Position>
            <AltitudeMeters>1073.199951171875</AltitudeMeters>
            <DistanceMeters>618505.08529269</DistanceMeters>
          </Trackpoint>
          <Trackpoint>
            <Time>2021-08-04T12:23:53.000Z</Time>
            <Position>
              <LatitudeDegrees>40.9341157972812652587890625</LatitudeDegrees>
              <LongitudeDegrees>-0.9375140257179737091064453125</LongitudeDegrees>
            </Position>
            <AltitudeMeters>1074.199951171875</AltitudeMeters>
            <DistanceMeters>618556.63016869</DistanceMeters>
          </Trackpoint>
          <Trackpoint>
            <Time>2021-08-04T12:24:05.000Z</Time>
            <Position>
              <LatitudeDegrees>40.934096686542034149169921875</LatitudeDegrees>
              <LongitudeDegrees>-0.93705159611999988555908203125</LongitudeDegrees>
            </Position>
            <AltitudeMeters>1075.199951171875</AltitudeMeters>
            <DistanceMeters>618595.57141594</DistanceMeters>
          </Trackpoint>
          <Trackpoint>
            <Time>2021-08-04T12:24:18.000Z</Time>
            <Position>
              <LatitudeDegrees>40.93407296575605869293212890625</LatitudeDegrees>
              <LongitudeDegrees>-0.93655052594840526580810546875</LongitudeDegrees>
            </Position>
            <AltitudeMeters>1076.199951171875</AltitudeMeters>
            <DistanceMeters>618637.78627844</DistanceMeters>
          </Trackpoint>
          <Trackpoint>
            <Time>2021-08-04T12:24:30.000Z</Time>
            <Position>
              <LatitudeDegrees>40.93405167572200298309326171875</LatitudeDegrees>
              <LongitudeDegrees>-0.93608717434108257293701171875</LongitudeDegrees>
            </Position>
            <AltitudeMeters>1077</AltitudeMeters>
            <DistanceMeters>618676.81901467</DistanceMeters>
          </Trackpoint>
          <Trackpoint>
            <Time>2021-08-04T12:24:44.000Z</Time>
            <Position>
              <LatitudeDegrees>40.9340244345366954803466796875</LatitudeDegrees>
              <LongitudeDegrees>-0.93552692793309688568115234375</LongitudeDegrees>
            </Position>
            <AltitudeMeters>1078</AltitudeMeters>
            <DistanceMeters>618724.024629</DistanceMeters>
          </Trackpoint>
          <Trackpoint>
            <Time>2021-08-04T12:25:01.000Z</Time>
            <Position>
              <LatitudeDegrees>40.93392929993569850921630859375</LatitudeDegrees>
              <LongitudeDegrees>-0.934889316558837890625</LongitudeDegrees>
            </Position>
            <AltitudeMeters>1078.800048828125</AltitudeMeters>
            <DistanceMeters>618778.67366543</DistanceMeters>
          </Trackpoint>
          <Trackpoint>
            <Time>2021-08-04T12:25:17.000Z</Time>
            <Position>
              <LatitudeDegrees>40.93369997106492519378662109375</LatitudeDegrees>
              <LongitudeDegrees>-0.93438045121729373931884765625</LongitudeDegrees>
            </Position>
            <AltitudeMeters>1080</AltitudeMeters>
            <DistanceMeters>618828.49658048</DistanceMeters>
          </Trackpoint>
          <Trackpoint>
            <Time>2021-08-04T12:25:26.000Z</Time>
            <Position>
              <LatitudeDegrees>40.9335265494883060455322265625</LatitudeDegrees>
              <LongitudeDegrees>-0.93416939489543437957763671875</LongitudeDegrees>
            </Position>
            <AltitudeMeters>1080.800048828125</AltitudeMeters>
            <DistanceMeters>618854.71723894</DistanceMeters>
          </Trackpoint>
          <Trackpoint>
            <Time>2021-08-04T12:25:42.000Z</Time>
            <Position>
              <LatitudeDegrees>40.93320275656878948211669921875</LatitudeDegrees>
              <LongitudeDegrees>-0.93380696140229701995849609375</LongitudeDegrees>
            </Position>
            <AltitudeMeters>1082</AltitudeMeters>
            <DistanceMeters>618901.914053</DistanceMeters>
          </Trackpoint>
          <Trackpoint>
            <Time>2021-08-04T12:25:53.000Z</Time>
            <Position>
              <LatitudeDegrees>40.93298097141087055206298828125</LatitudeDegrees>
              <LongitudeDegrees>-0.93356304802000522613525390625</LongitudeDegrees>
            </Position>
            <AltitudeMeters>1083</AltitudeMeters>
            <DistanceMeters>618934.00776951</DistanceMeters>
          </Trackpoint>
          <Trackpoint>
            <Time>2021-08-04T12:26:09.000Z</Time>
            <Position>
              <LatitudeDegrees>40.9326518140733242034912109375</LatitudeDegrees>
              <LongitudeDegrees>-0.9331923164427280426025390625</LongitudeDegrees>
            </Position>
            <AltitudeMeters>1084</AltitudeMeters>
            <DistanceMeters>618982.11156509</DistanceMeters>
          </Trackpoint>
          <Trackpoint>
            <Time>2021-08-04T12:26:24.000Z</Time>
            <Position>
              <LatitudeDegrees>40.93236205168068408966064453125</LatitudeDegrees>
              <LongitudeDegrees>-0.93286785297095775604248046875</LongitudeDegrees>
            </Position>
            <AltitudeMeters>1084.800048828125</AltitudeMeters>
            <DistanceMeters>619024.3549746</DistanceMeters>
          </Trackpoint>
          <Trackpoint>
            <Time>2021-08-04T12:26:37.000Z</Time>
            <Position>
              <LatitudeDegrees>40.93211419880390167236328125</LatitudeDegrees>
              <LongitudeDegrees>-0.93258571811020374298095703125</LongitudeDegrees>
            </Position>
            <AltitudeMeters>1085.800048828125</AltitudeMeters>
            <DistanceMeters>619060.73941175</DistanceMeters>
          </Trackpoint>
          <Trackpoint>
            <Time>2021-08-04T12:26:48.000Z</Time>
            <Position>
              <LatitudeDegrees>40.931903980672359466552734375</LatitudeDegrees>
              <LongitudeDegrees>-0.9323474206030368804931640625</LongitudeDegrees>
            </Position>
            <AltitudeMeters>1086.800048828125</AltitudeMeters>
            <DistanceMeters>619091.54478033</DistanceMeters>
          </Trackpoint>
          <Trackpoint>
            <Time>2021-08-04T12:27:02.000Z</Time>
            <Position>
              <LatitudeDegrees>40.93162737786769866943359375</LatitudeDegrees>
              <LongitudeDegrees>-0.932040475308895111083984375</LongitudeDegrees>
            </Position>
            <AltitudeMeters>1087.5999755859375</AltitudeMeters>
            <DistanceMeters>619131.71917122</DistanceMeters>
          </Trackpoint>
          <Trackpoint>
            <Time>2021-08-04T12:27:16.000Z</Time>
            <Position>
              <LatitudeDegrees>40.9313504397869110107421875</LatitudeDegrees>
              <LongitudeDegrees>-0.931727997958660125732421875</LongitudeDegrees>
            </Position>
            <AltitudeMeters>1088.5999755859375</AltitudeMeters>
            <DistanceMeters>619172.22229477</DistanceMeters>
          </Trackpoint>
          <Trackpoint>
            <Time>2021-08-04T12:27:30.000Z</Time>
            <Position>
              <LatitudeDegrees>40.9310595877468585968017578125</LatitudeDegrees>
              <LongitudeDegrees>-0.93140252865850925445556640625</LongitudeDegrees>
            </Position>
            <AltitudeMeters>1089.5999755859375</AltitudeMeters>
            <DistanceMeters>619214.61326365</DistanceMeters>
          </Trackpoint>
          <Trackpoint>
            <Time>2021-08-04T12:27:41.000Z</Time>
            <Position>
              <LatitudeDegrees>40.93084744177758693695068359375</LatitudeDegrees>
              <LongitudeDegrees>-0.931159369647502899169921875</LongitudeDegrees>
            </Position>
            <AltitudeMeters>1090.800048828125</AltitudeMeters>
            <DistanceMeters>619245.84801127</DistanceMeters>
          </Trackpoint>
          <Trackpoint>
            <Time>2021-08-04T12:27:55.000Z</Time>
            <Position>
              <LatitudeDegrees>40.93056614510715007781982421875</LatitudeDegrees>
              <LongitudeDegrees>-0.93084253370761871337890625</LongitudeDegrees>
            </Position>
            <AltitudeMeters>1091.5999755859375</AltitudeMeters>
            <DistanceMeters>619286.95846137</DistanceMeters>
          </Trackpoint>
          <Trackpoint>
            <Time>2021-08-04T12:28:05.000Z</Time>
            <Position>
              <LatitudeDegrees>40.9303534962236881256103515625</LatitudeDegrees>
              <LongitudeDegrees>-0.93061144463717937469482421875</LongitudeDegrees>
            </Position>
            <AltitudeMeters>1092.5999755859375</AltitudeMeters>
            <DistanceMeters>619317.58199038</DistanceMeters>
          </Trackpoint>
          <Trackpoint>
            <Time>2021-08-04T12:28:15.000Z</Time>
            <Position>
              <LatitudeDegrees>40.930135734379291534423828125</LatitudeDegrees>
              <LongitudeDegrees>-0.93039192259311676025390625</LongitudeDegrees>
            </Position>
            <AltitudeMeters>1093.800048828125</AltitudeMeters>
            <DistanceMeters>619348.04853904</DistanceMeters>
          </Trackpoint>
          <Trackpoint>
            <Time>2021-08-04T12:28:33.000Z</Time>
            <Position>
              <LatitudeDegrees>40.92968688346445560455322265625</LatitudeDegrees>
              <LongitudeDegrees>-0.9301121346652507781982421875</LongitudeDegrees>
            </Position>
            <AltitudeMeters>1094.800048828125</AltitudeMeters>
            <DistanceMeters>619403.26928147</DistanceMeters>
          </Trackpoint>
          <Trackpoint>
            <Time>2021-08-04T12:28:45.000Z</Time>
            <Position>
              <LatitudeDegrees>40.929337441921234130859375</LatitudeDegrees>
              <LongitudeDegrees>-0.93002202920615673065185546875</LongitudeDegrees>
            </Position>
            <AltitudeMeters>1095.800048828125</AltitudeMeters>
            <DistanceMeters>619442.8939401</DistanceMeters>
          </Trackpoint>
          <Trackpoint>
            <Time>2021-08-04T12:28:58.000Z</Time>
            <Position>
              <LatitudeDegrees>40.928964279592037200927734375</LatitudeDegrees>
              <LongitudeDegrees>-0.9299575723707675933837890625</LongitudeDegrees>
            </Position>
            <AltitudeMeters>1096.800048828125</AltitudeMeters>
            <DistanceMeters>619484.77992215</DistanceMeters>
          </Trackpoint>
          <Trackpoint>
            <Time>2021-08-04T12:29:09.000Z</Time>
            <Position>
              <LatitudeDegrees>40.92865892685949802398681640625</LatitudeDegrees>
              <LongitudeDegrees>-0.92990853823721408843994140625</LongitudeDegrees>
            </Position>
            <AltitudeMeters>1097.5999755859375</AltitudeMeters>
            <DistanceMeters>619519.0156617</DistanceMeters>
          </Trackpoint>
          <Trackpoint>
            <Time>2021-08-04T12:29:15.000Z</Time>
            <Position>
              <LatitudeDegrees>40.92849061824381351470947265625</LatitudeDegrees>
              <LongitudeDegrees>-0.92986780218780040740966796875</LongitudeDegrees>
            </Position>
            <AltitudeMeters>1098.800048828125</AltitudeMeters>
            <DistanceMeters>619538.0594515</DistanceMeters>
          </Trackpoint>
          <Trackpoint>
            <Time>2021-08-04T12:29:28.000Z</Time>
            <Position>
              <LatitudeDegrees>40.92804185114800930023193359375</LatitudeDegrees>
              <LongitudeDegrees>-0.92972095124423503875732421875</LongitudeDegrees>
            </Position>
            <AltitudeMeters>1098</AltitudeMeters>
            <DistanceMeters>619589.51200801</DistanceMeters>
          </Trackpoint>
          <Trackpoint>
            <Time>2021-08-04T12:29:30.000Z</Time>
            <Position>
              <LatitudeDegrees>40.92794411815702915191650390625</LatitudeDegrees>
              <LongitudeDegrees>-0.929690189659595489501953125</LongitudeDegrees>
            </Position>
            <AltitudeMeters>1097.5999755859375</AltitudeMeters>
            <DistanceMeters>619600.69330527</DistanceMeters>
          </Trackpoint>
          <Trackpoint>
            <Time>2021-08-04T12:29:33.000Z</Time>
            <Position>
              <LatitudeDegrees>40.92778243124485015869140625</LatitudeDegrees>
              <LongitudeDegrees>-0.9296259842813014984130859375</LongitudeDegrees>
            </Position>
            <AltitudeMeters>1096.199951171875</AltitudeMeters>
            <DistanceMeters>619619.48169925</DistanceMeters>
          </Trackpoint>
          <Trackpoint>
            <Time>2021-08-04T12:29:36.000Z</Time>
            <Position>
              <LatitudeDegrees>40.92762778513133525848388671875</LatitudeDegrees>
              <LongitudeDegrees>-0.92951710335910320281982421875</LongitudeDegrees>
            </Position>
            <AltitudeMeters>1095</AltitudeMeters>
            <DistanceMeters>619638.97816144</DistanceMeters>
          </Trackpoint>
          <Trackpoint>
            <Time>2021-08-04T12:29:47.000Z</Time>
            <Position>
              <LatitudeDegrees>40.92729502357542514801025390625</LatitudeDegrees>
              <LongitudeDegrees>-0.9291150234639644622802734375</LongitudeDegrees>
            </Position>
            <AltitudeMeters>1096</AltitudeMeters>
            <DistanceMeters>619689.12796414</DistanceMeters>
          </Trackpoint>
          <Trackpoint>
            <Time>2021-08-04T12:29:57.000Z</Time>
            <Position>
              <LatitudeDegrees>40.92706837691366672515869140625</LatitudeDegrees>
              <LongitudeDegrees>-0.92885308898985385894775390625</LongitudeDegrees>
            </Position>
            <AltitudeMeters>1097</AltitudeMeters>
            <DistanceMeters>619722.61743299</DistanceMeters>
          </Trackpoint>
          <Trackpoint>
            <Time>2021-08-04T12:30:08.000Z</Time>
            <Position>
              <LatitudeDegrees>40.9268575720489025115966796875</LatitudeDegrees>
              <LongitudeDegrees>-0.92860464937984943389892578125</LongitudeDegrees>
            </Position>
            <AltitudeMeters>1098</AltitudeMeters>
            <DistanceMeters>619754.03407533</DistanceMeters>
          </Trackpoint>
          <Trackpoint>
            <Time>2021-08-04T12:30:17.000Z</Time>
            <Position>
              <LatitudeDegrees>40.92668297700583934783935546875</LatitudeDegrees>
              <LongitudeDegrees>-0.9284158051013946533203125</LongitudeDegrees>
            </Position>
            <AltitudeMeters>1098.800048828125</AltitudeMeters>
            <DistanceMeters>619779.13030496</DistanceMeters>
          </Trackpoint>
          <Trackpoint>
            <Time>2021-08-04T12:30:24.000Z</Time>
            <Position>
              <LatitudeDegrees>40.9265519678592681884765625</LatitudeDegrees>
              <LongitudeDegrees>-0.928267277777194976806640625</LongitudeDegrees>
            </Position>
            <AltitudeMeters>1099.800048828125</AltitudeMeters>
            <DistanceMeters>619798.32993466</DistanceMeters>
          </Trackpoint>
          <Trackpoint>
            <Time>2021-08-04T12:30:37.000Z</Time>
            <Position>
              <LatitudeDegrees>40.92633001506328582763671875</LatitudeDegrees>
              <LongitudeDegrees>-0.927962847054004669189453125</LongitudeDegrees>
            </Position>
            <AltitudeMeters>1101</AltitudeMeters>
            <DistanceMeters>619833.90649484</DistanceMeters>
          </Trackpoint>
          <Trackpoint>
            <Time>2021-08-04T12:30:42.000Z</Time>
            <Position>
              <LatitudeDegrees>40.92626119963824748992919921875</LatitudeDegrees>
              <LongitudeDegrees>-0.92785396613180637359619140625</LongitudeDegrees>
            </Position>
            <AltitudeMeters>1102</AltitudeMeters>
            <DistanceMeters>619845.84398354</DistanceMeters>
          </Trackpoint>
          <Trackpoint>
            <Time>2021-08-04T12:30:54.000Z</Time>
            <Position>
              <LatitudeDegrees>40.9260364808142185211181640625</LatitudeDegrees>
              <LongitudeDegrees>-0.9276300854980945587158203125</LongitudeDegrees>
            </Position>
            <AltitudeMeters>1102.800048828125</AltitudeMeters>
            <DistanceMeters>619877.1500583</DistanceMeters>
          </Trackpoint>
          <Trackpoint>
            <Time>2021-08-04T12:31:11.000Z</Time>
            <Position>
              <LatitudeDegrees>40.92564345337450504302978515625</LatitudeDegrees>
              <LongitudeDegrees>-0.9275328554213047027587890625</LongitudeDegrees>
            </Position>
            <AltitudeMeters>1103.800048828125</AltitudeMeters>
            <DistanceMeters>619921.65250021</DistanceMeters>
          </Trackpoint>
          <Trackpoint>
            <Time>2021-08-04T12:31:19.000Z</Time>
            <Position>
              <LatitudeDegrees>40.92546709813177585601806640625</LatitudeDegrees>
              <LongitudeDegrees>-0.92749387957155704498291015625</LongitudeDegrees>
            </Position>
            <AltitudeMeters>1105</AltitudeMeters>
            <DistanceMeters>619941.55305453</DistanceMeters>
          </Trackpoint>
          <Trackpoint>
            <Time>2021-08-04T12:31:28.000Z</Time>
            <Position>
              <LatitudeDegrees>40.9253396093845367431640625</LatitudeDegrees>
              <LongitudeDegrees>-0.92742464505136013031005859375</LongitudeDegrees>
            </Position>
            <AltitudeMeters>1106.199951171875</AltitudeMeters>
            <DistanceMeters>619956.89096676</DistanceMeters>
          </Trackpoint>
          <Trackpoint>
            <Time>2021-08-04T12:31:45.000Z</Time>
            <Position>
              <LatitudeDegrees>40.92516199685633182525634765625</LatitudeDegrees>
              <LongitudeDegrees>-0.9270894527435302734375</LongitudeDegrees>
            </Position>
            <AltitudeMeters>1107</AltitudeMeters>
            <DistanceMeters>619991.32028762</DistanceMeters>
          </Trackpoint>
          <Trackpoint>
            <Time>2021-08-04T12:31:56.000Z</Time>
            <Position>
              <LatitudeDegrees>40.9250821173191070556640625</LatitudeDegrees>
              <LongitudeDegrees>-0.9268582798540592193603515625</LongitudeDegrees>
            </Position>
            <AltitudeMeters>1108</AltitudeMeters>
            <DistanceMeters>620012.69770816</DistanceMeters>
          </Trackpoint>
          <Trackpoint>
            <Time>2021-08-04T12:32:05.000Z</Time>
            <Position>
              <LatitudeDegrees>40.9250356815755367279052734375</LatitudeDegrees>
              <LongitudeDegrees>-0.9266889654099941253662109375</LongitudeDegrees>
            </Position>
            <AltitudeMeters>1109</AltitudeMeters>
            <DistanceMeters>620027.84545526</DistanceMeters>
          </Trackpoint>
          <Trackpoint>
            <Time>2021-08-04T12:32:17.000Z</Time>
            <Position>
              <LatitudeDegrees>40.92492990195751190185546875</LatitudeDegrees>
              <LongitudeDegrees>-0.92645955272018909454345703125</LongitudeDegrees>
            </Position>
            <AltitudeMeters>1110.199951171875</AltitudeMeters>
            <DistanceMeters>620050.44703539</DistanceMeters>
          </Trackpoint>
          <Trackpoint>
            <Time>2021-08-04T12:32:24.000Z</Time>
            <Position>
              <LatitudeDegrees>40.9248777665197849273681640625</LatitudeDegrees>
              <LongitudeDegrees>-0.92634405009448528289794921875</LongitudeDegrees>
            </Position>
            <AltitudeMeters>1111.4000244140625</AltitudeMeters>
            <DistanceMeters>620061.76199999</DistanceMeters>
          </Trackpoint>
          <Trackpoint>
            <Time>2021-08-04T12:32:32.000Z</Time>
            <Position>
              <LatitudeDegrees>40.92483242042362689971923828125</LatitudeDegrees>
              <LongitudeDegrees>-0.92620239593088626861572265625</LongitudeDegrees>
            </Position>
            <AltitudeMeters>1112.5999755859375</AltitudeMeters>
            <DistanceMeters>620074.69960011</DistanceMeters>
          </Trackpoint>
          <Trackpoint>
            <Time>2021-08-04T12:32:41.000Z</Time>
            <Position>
              <LatitudeDegrees>40.9247999824583530426025390625</LatitudeDegrees>
              <LongitudeDegrees>-0.92601749114692211151123046875</LongitudeDegrees>
            </Position>
            <AltitudeMeters>1113.5999755859375</AltitudeMeters>
            <DistanceMeters>620090.66352248</DistanceMeters>
          </Trackpoint>
          <Trackpoint>
            <Time>2021-08-04T12:32:53.000Z</Time>
            <Position>
              <LatitudeDegrees>40.92470283620059490203857421875</LatitudeDegrees>
              <LongitudeDegrees>-0.92576636932790279388427734375</LongitudeDegrees>
            </Position>
            <AltitudeMeters>1114.4000244140625</AltitudeMeters>
            <DistanceMeters>620114.38901184</DistanceMeters>
          </Trackpoint>
          <Trackpoint>
            <Time>2021-08-04T12:33:11.000Z</Time>
            <Position>
              <LatitudeDegrees>40.92442707158625125885009765625</LatitudeDegrees>
              <LongitudeDegrees>-0.925495885312557220458984375</LongitudeDegrees>
            </Position>
            <AltitudeMeters>1114.4000244140625</AltitudeMeters>
            <DistanceMeters>620152.59235116</DistanceMeters>
          </Trackpoint>
          <Trackpoint>
            <Time>2021-08-04T12:33:38.000Z</Time>
            <Position>
              <LatitudeDegrees>40.92441433109343051910400390625</LatitudeDegrees>
              <LongitudeDegrees>-0.9254699014127254486083984375</LongitudeDegrees>
            </Position>
            <AltitudeMeters>1115.199951171875</AltitudeMeters>
            <DistanceMeters>620155.19823249</DistanceMeters>
          </Trackpoint>
          <Trackpoint>
            <Time>2021-08-04T12:34:04.000Z</Time>
            <Position>
              <LatitudeDegrees>40.92415868304669857025146484375</LatitudeDegrees>
              <LongitudeDegrees>-0.92482491396367549896240234375</LongitudeDegrees>
            </Position>
            <AltitudeMeters>1115.199951171875</AltitudeMeters>
            <DistanceMeters>620216.45015573</DistanceMeters>
          </Trackpoint>
          <Trackpoint>
            <Time>2021-08-04T12:34:10.000Z</Time>
            <Position>
              <LatitudeDegrees>40.9241031110286712646484375</LatitudeDegrees>
              <LongitudeDegrees>-0.92465660534799098968505859375</LongitudeDegrees>
            </Position>
            <AltitudeMeters>1116.199951171875</AltitudeMeters>
            <DistanceMeters>620231.89689357</DistanceMeters>
          </Trackpoint>
          <Trackpoint>
            <Time>2021-08-04T12:34:26.000Z</Time>
            <Position>
              <LatitudeDegrees>40.92392181046307086944580078125</LatitudeDegrees>
              <LongitudeDegrees>-0.92427170835435390472412109375</LongitudeDegrees>
            </Position>
            <AltitudeMeters>1117.199951171875</AltitudeMeters>
            <DistanceMeters>620270.04038471</DistanceMeters>
          </Trackpoint>
          <Trackpoint>
            <Time>2021-08-04T12:34:32.000Z</Time>
            <Position>
              <LatitudeDegrees>40.923850648105144500732421875</LatitudeDegrees>
              <LongitudeDegrees>-0.92415318824350833892822265625</LongitudeDegrees>
            </Position>
            <AltitudeMeters>1118.199951171875</AltitudeMeters>
            <DistanceMeters>620282.7718368</DistanceMeters>
          </Trackpoint>
          <Trackpoint>
            <Time>2021-08-04T12:34:40.000Z</Time>
            <Position>
              <LatitudeDegrees>40.9237609617412090301513671875</LatitudeDegrees>
              <LongitudeDegrees>-0.9239859692752361297607421875</LongitudeDegrees>
            </Position>
            <AltitudeMeters>1119.199951171875</AltitudeMeters>
            <DistanceMeters>620300.01754924</DistanceMeters>
          </Trackpoint>
          <Trackpoint>
            <Time>2021-08-04T12:34:50.000Z</Time>
            <Position>
              <LatitudeDegrees>40.92364856041967868804931640625</LatitudeDegrees>
              <LongitudeDegrees>-0.92376912944018840789794921875</LongitudeDegrees>
            </Position>
            <AltitudeMeters>1120.199951171875</AltitudeMeters>
            <DistanceMeters>620322.1322482</DistanceMeters>
          </Trackpoint>
          <Trackpoint>
            <Time>2021-08-04T12:34:59.000Z</Time>
            <Position>
              <LatitudeDegrees>40.92354378663003444671630859375</LatitudeDegrees>
              <LongitudeDegrees>-0.92359126545488834381103515625</LongitudeDegrees>
            </Position>
            <AltitudeMeters>1121.199951171875</AltitudeMeters>
            <DistanceMeters>620341.09906621</DistanceMeters>
          </Trackpoint>
          <Trackpoint>
            <Time>2021-08-04T12:35:04.000Z</Time>
            <Position>
              <LatitudeDegrees>40.923515371978282928466796875</LatitudeDegrees>
              <LongitudeDegrees>-0.92347928322851657867431640625</LongitudeDegrees>
            </Position>
            <AltitudeMeters>1122.199951171875</AltitudeMeters>
            <DistanceMeters>620351.03378994</DistanceMeters>
          </Trackpoint>
          <Trackpoint>
            <Time>2021-08-04T12:35:11.000Z</Time>
            <Position>
              <LatitudeDegrees>40.923531465232372283935546875</LatitudeDegrees>
              <LongitudeDegrees>-0.92331214807927608489990234375</LongitudeDegrees>
            </Position>
            <AltitudeMeters>1123.199951171875</AltitudeMeters>
            <DistanceMeters>620365.20328957</DistanceMeters>
          </Trackpoint>
          <Trackpoint>
            <Time>2021-08-04T12:35:18.000Z</Time>
            <Position>
              <LatitudeDegrees>40.92359826900064945220947265625</LatitudeDegrees>
              <LongitudeDegrees>-0.9231692366302013397216796875</LongitudeDegrees>
            </Position>
            <AltitudeMeters>1124.4000244140625</AltitudeMeters>
            <DistanceMeters>620379.33577805</DistanceMeters>
          </Trackpoint>
          <Trackpoint>
            <Time>2021-08-04T12:35:35.000Z</Time>
            <Position>
              <LatitudeDegrees>40.92380044050514698028564453125</LatitudeDegrees>
              <LongitudeDegrees>-0.922881402075290679931640625</LongitudeDegrees>
            </Position>
            <AltitudeMeters>1125.199951171875</AltitudeMeters>
            <DistanceMeters>620412.3854081</DistanceMeters>
          </Trackpoint>
          <Trackpoint>
            <Time>2021-08-04T12:35:36.000Z</Time>
            <Position>
              <LatitudeDegrees>40.92381519265472888946533203125</LatitudeDegrees>
              <LongitudeDegrees>-0.92287058942019939422607421875</LongitudeDegrees>
            </Position>
            <AltitudeMeters>1125.4000244140625</AltitudeMeters>
            <DistanceMeters>620414.26203535</DistanceMeters>
          </Trackpoint>
          <Trackpoint>
            <Time>2021-08-04T12:35:42.000Z</Time>
            <Position>
              <LatitudeDegrees>40.9239138476550579071044921875</LatitudeDegrees>
              <LongitudeDegrees>-0.922791548073291778564453125</LongitudeDegrees>
            </Position>
            <AltitudeMeters>1126.199951171875</AltitudeMeters>
            <DistanceMeters>620427.09803063</DistanceMeters>
          </Trackpoint>
          <Trackpoint>
            <Time>2021-08-04T12:36:01.000Z</Time>
            <Position>
              <LatitudeDegrees>40.9241621196269989013671875</LatitudeDegrees>
              <LongitudeDegrees>-0.92242131941020488739013671875</LongitudeDegrees>
            </Position>
            <AltitudeMeters>1127.199951171875</AltitudeMeters>
            <DistanceMeters>620468.72732429</DistanceMeters>
          </Trackpoint>
          <Trackpoint>
            <Time>2021-08-04T12:36:07.000Z</Time>
            <Position>
              <LatitudeDegrees>40.9242430888116359710693359375</LatitudeDegrees>
              <LongitudeDegrees>-0.92232526279985904693603515625</LongitudeDegrees>
            </Position>
            <AltitudeMeters>1128.4000244140625</AltitudeMeters>
            <DistanceMeters>620480.82971413</DistanceMeters>
          </Trackpoint>
          <Trackpoint>
            <Time>2021-08-04T12:36:12.000Z</Time>
            <Position>
              <LatitudeDegrees>40.92431223951280117034912109375</LatitudeDegrees>
              <LongitudeDegrees>-0.92225284315645694732666015625</LongitudeDegrees>
            </Position>
            <AltitudeMeters>1129.4000244140625</AltitudeMeters>
            <DistanceMeters>620490.64464437</DistanceMeters>
          </Trackpoint>
          <Trackpoint>
            <Time>2021-08-04T12:36:28.000Z</Time>
            <Position>
              <LatitudeDegrees>40.92458481900393962860107421875</LatitudeDegrees>
              <LongitudeDegrees>-0.9220396913588047027587890625</LongitudeDegrees>
            </Position>
            <AltitudeMeters>1130.4000244140625</AltitudeMeters>
            <DistanceMeters>620525.88303071</DistanceMeters>
          </Trackpoint>
          <Trackpoint>
            <Time>2021-08-04T12:36:38.000Z</Time>
            <Position>
              <LatitudeDegrees>40.924759246408939361572265625</LatitudeDegrees>
              <LongitudeDegrees>-0.92185981571674346923828125</LongitudeDegrees>
            </Position>
            <AltitudeMeters>1131.4000244140625</AltitudeMeters>
            <DistanceMeters>620550.49476628</DistanceMeters>
          </Trackpoint>
          <Trackpoint>
            <Time>2021-08-04T12:36:46.000Z</Time>
            <Position>
              <LatitudeDegrees>40.92489092610776424407958984375</LatitudeDegrees>
              <LongitudeDegrees>-0.92172293923795223236083984375</LongitudeDegrees>
            </Position>
            <AltitudeMeters>1132.4000244140625</AltitudeMeters>
            <DistanceMeters>620569.13090778</DistanceMeters>
          </Trackpoint>
          <Trackpoint>
            <Time>2021-08-04T12:36:47.000Z</Time>
            <Position>
              <LatitudeDegrees>40.92490802519023418426513671875</LatitudeDegrees>
              <LongitudeDegrees>-0.921706594526767730712890625</LongitudeDegrees>
            </Position>
            <AltitudeMeters>1132.5999755859375</AltitudeMeters>
            <DistanceMeters>620571.47789449</DistanceMeters>
          </Trackpoint>
          <Trackpoint>
            <Time>2021-08-04T12:37:04.000Z</Time>
            <Position>
              <LatitudeDegrees>40.92525620944797992706298828125</LatitudeDegrees>
              <LongitudeDegrees>-0.92142169363796710968017578125</LongitudeDegrees>
            </Position>
            <AltitudeMeters>1133.4000244140625</AltitudeMeters>
            <DistanceMeters>620617.0396119</DistanceMeters>
          </Trackpoint>
          <Trackpoint>
            <Time>2021-08-04T12:37:23.000Z</Time>
            <Position>
              <LatitudeDegrees>40.92569709755480289459228515625</LatitudeDegrees>
              <LongitudeDegrees>-0.92095985077321529388427734375</LongitudeDegrees>
            </Position>
            <AltitudeMeters>1134.199951171875</AltitudeMeters>
            <DistanceMeters>620679.62161167</DistanceMeters>
          </Trackpoint>
          <Trackpoint>
            <Time>2021-08-04T12:37:37.000Z</Time>
            <Position>
              <LatitudeDegrees>40.92607679776847362518310546875</LatitudeDegrees>
              <LongitudeDegrees>-0.92042625881731510162353515625</LongitudeDegrees>
            </Position>
            <AltitudeMeters>1133</AltitudeMeters>
            <DistanceMeters>620741.26224117</DistanceMeters>
          </Trackpoint>
          <Trackpoint>
            <Time>2021-08-04T12:37:48.000Z</Time>
            <Position>
              <LatitudeDegrees>40.926410146057605743408203125</LatitudeDegrees>
              <LongitudeDegrees>-0.9201242588460445404052734375</LongitudeDegrees>
            </Position>
            <AltitudeMeters>1132.199951171875</AltitudeMeters>
            <DistanceMeters>620786.22403844</DistanceMeters>
          </Trackpoint>
          <Trackpoint>
            <Time>2021-08-04T12:37:49.000Z</Time>
            <Position>
              <LatitudeDegrees>40.92645230703055858612060546875</LatitudeDegrees>
              <LongitudeDegrees>-0.92008578591048717498779296875</LongitudeDegrees>
            </Position>
            <AltitudeMeters>1131.800048828125</AltitudeMeters>
            <DistanceMeters>620791.9240573</DistanceMeters>
          </Trackpoint>
          <Trackpoint>
            <Time>2021-08-04T12:37:51.000Z</Time>
            <Position>
              <LatitudeDegrees>40.92655104584991931915283203125</LatitudeDegrees>
              <LongitudeDegrees>-0.92000364325940608978271484375</LongitudeDegrees>
            </Position>
            <AltitudeMeters>1130.5999755859375</AltitudeMeters>
            <DistanceMeters>620804.90485953</DistanceMeters>
          </Trackpoint>
          <Trackpoint>
            <Time>2021-08-04T12:37:53.000Z</Time>
            <Position>
              <LatitudeDegrees>40.92666068114340305328369140625</LatitudeDegrees>
              <LongitudeDegrees>-0.91991563327610492706298828125</LongitudeDegrees>
            </Position>
            <AltitudeMeters>1129.4000244140625</AltitudeMeters>
            <DistanceMeters>620819.17659398</DistanceMeters>
          </Trackpoint>
          <Trackpoint>
            <Time>2021-08-04T12:37:55.000Z</Time>
            <Position>
              <LatitudeDegrees>40.9267804585397243499755859375</LatitudeDegrees>
              <LongitudeDegrees>-0.91981471516191959381103515625</LongitudeDegrees>
            </Position>
            <AltitudeMeters>1128.4000244140625</AltitudeMeters>
            <DistanceMeters>620834.98019656</DistanceMeters>
          </Trackpoint>
          <Trackpoint>
            <Time>2021-08-04T12:37:57.000Z</Time>
            <Position>
              <LatitudeDegrees>40.92690669000148773193359375</LatitudeDegrees>
              <LongitudeDegrees>-0.91971329413354396820068359375</LongitudeDegrees>
            </Position>
            <AltitudeMeters>1127.199951171875</AltitudeMeters>
            <DistanceMeters>620851.41597268</DistanceMeters>
          </Trackpoint>
          <Trackpoint>
            <Time>2021-08-04T12:38:00.000Z</Time>
            <Position>
              <LatitudeDegrees>40.9271019883453845977783203125</LatitudeDegrees>
              <LongitudeDegrees>-0.91956275515258312225341796875</LongitudeDegrees>
            </Position>
            <AltitudeMeters>1125.800048828125</AltitudeMeters>
            <DistanceMeters>620876.57060479</DistanceMeters>
          </Trackpoint>
          <Trackpoint>
            <Time>2021-08-04T12:38:01.000Z</Time>
            <Position>
              <LatitudeDegrees>40.92716694809496402740478515625</LatitudeDegrees>
              <LongitudeDegrees>-0.9194932691752910614013671875</LongitudeDegrees>
            </Position>
            <AltitudeMeters>1124.5999755859375</AltitudeMeters>
            <DistanceMeters>620885.86672396</DistanceMeters>
          </Trackpoint>
          <Trackpoint>
            <Time>2021-08-04T12:38:03.000Z</Time>
            <Position>
              <LatitudeDegrees>40.9272917546331882476806640625</LatitudeDegrees>
              <LongitudeDegrees>-0.9193340130150318145751953125</LongitudeDegrees>
            </Position>
            <AltitudeMeters>1122.4000244140625</AltitudeMeters>
            <DistanceMeters>620905.16252951</DistanceMeters>
          </Trackpoint>
          <Trackpoint>
            <Time>2021-08-04T12:38:05.000Z</Time>
            <Position>
              <LatitudeDegrees>40.927399210631847381591796875</LatitudeDegrees>
              <LongitudeDegrees>-0.91915304772555828094482421875</LongitudeDegrees>
            </Position>
            <AltitudeMeters>1121.4000244140625</AltitudeMeters>
            <DistanceMeters>620924.51767744</DistanceMeters>
          </Trackpoint>
          <Trackpoint>
            <Time>2021-08-04T12:38:07.000Z</Time>
            <Position>
              <LatitudeDegrees>40.9274888969957828521728515625</LatitudeDegrees>
              <LongitudeDegrees>-0.91894836165010929107666015625</LongitudeDegrees>
            </Position>
            <AltitudeMeters>1120.199951171875</AltitudeMeters>
            <DistanceMeters>620944.41573593</DistanceMeters>
          </Trackpoint>
          <Trackpoint>
            <Time>2021-08-04T12:38:10.000Z</Time>
            <Position>
              <LatitudeDegrees>40.92759333550930023193359375</LatitudeDegrees>
              <LongitudeDegrees>-0.9186802245676517486572265625</LongitudeDegrees>
            </Position>
            <AltitudeMeters>1118.800048828125</AltitudeMeters>
            <DistanceMeters>620969.78413139</DistanceMeters>
          </Trackpoint>
          <Trackpoint>
            <Time>2021-08-04T12:38:12.000Z</Time>
            <Position>
              <LatitudeDegrees>40.92764454893767833709716796875</LatitudeDegrees>
              <LongitudeDegrees>-0.91851920820772647857666015625</LongitudeDegrees>
            </Position>
            <AltitudeMeters>1118.5999755859375</AltitudeMeters>
            <DistanceMeters>620984.47551958</DistanceMeters>
          </Trackpoint>
          <Trackpoint>
            <Time>2021-08-04T12:38:15.000Z</Time>
            <Position>
              <LatitudeDegrees>40.9277007915079593658447265625</LatitudeDegrees>
              <LongitudeDegrees>-0.91824310831725597381591796875</LongitudeDegrees>
            </Position>
            <AltitudeMeters>1117.4000244140625</AltitudeMeters>
            <DistanceMeters>621008.52253614</DistanceMeters>
          </Trackpoint>
          <Trackpoint>
            <Time>2021-08-04T12:38:19.000Z</Time>
            <Position>
              <LatitudeDegrees>40.92776457779109477996826171875</LatitudeDegrees>
              <LongitudeDegrees>-0.9179204888641834259033203125</LongitudeDegrees>
            </Position>
            <AltitudeMeters>1116.4000244140625</AltitudeMeters>
            <DistanceMeters>621036.56588397</DistanceMeters>
          </Trackpoint>
          <Trackpoint>
            <Time>2021-08-04T12:38:30.000Z</Time>
            <Position>
              <LatitudeDegrees>40.92755955643951892852783203125</LatitudeDegrees>
              <LongitudeDegrees>-0.91772359795868396759033203125</LongitudeDegrees>
            </Position>
            <AltitudeMeters>1115.5999755859375</AltitudeMeters>
            <DistanceMeters>621064.75888645</DistanceMeters>
          </Trackpoint>
          <Trackpoint>
            <Time>2021-08-04T12:38:34.000Z</Time>
            <Position>
              <LatitudeDegrees>40.9274949319660663604736328125</LatitudeDegrees>
              <LongitudeDegrees>-0.917782522737979888916015625</LongitudeDegrees>
            </Position>
            <AltitudeMeters>1116.4000244140625</AltitudeMeters>
            <DistanceMeters>621073.49307707</DistanceMeters>
          </Trackpoint>
          <Trackpoint>
            <Time>2021-08-04T12:38:37.000Z</Time>
            <Position>
              <LatitudeDegrees>40.9274503402411937713623046875</LatitudeDegrees>
              <LongitudeDegrees>-0.91776399873197078704833984375</LongitudeDegrees>
            </Position>
            <AltitudeMeters>1117.199951171875</AltitudeMeters>
            <DistanceMeters>621078.69443353</DistanceMeters>
          </Trackpoint>
          <Trackpoint>
            <Time>2021-08-04T12:38:38.000Z</Time>
            <Position>
              <LatitudeDegrees>40.92743533663451671600341796875</LatitudeDegrees>
              <LongitudeDegrees>-0.91775762848556041717529296875</LongitudeDegrees>
            </Position>
            <AltitudeMeters>1117.4000244140625</AltitudeMeters>
            <DistanceMeters>621080.45178556</DistanceMeters>
          </Trackpoint>
          <Trackpoint>
            <Time>2021-08-04T12:38:40.000Z</Time>
            <Position>
              <LatitudeDegrees>40.92740817926824092864990234375</LatitudeDegrees>
              <LongitudeDegrees>-0.91773080639541149139404296875</LongitudeDegrees>
            </Position>
            <AltitudeMeters>1117.800048828125</AltitudeMeters>
            <DistanceMeters>621084.22304137</DistanceMeters>
          </Trackpoint>
          <Trackpoint>
            <Time>2021-08-04T12:38:53.000Z</Time>
            <Position>
              <LatitudeDegrees>40.9271804429590702056884765625</LatitudeDegrees>
              <LongitudeDegrees>-0.9173190034925937652587890625</LongitudeDegrees>
            </Position>
            <AltitudeMeters>1118.199951171875</AltitudeMeters>
            <DistanceMeters>621127.13830918</DistanceMeters>
          </Trackpoint>
          <Trackpoint>
            <Time>2021-08-04T12:39:09.000Z</Time>
            <Position>
              <LatitudeDegrees>40.92676646076142787933349609375</LatitudeDegrees>
              <LongitudeDegrees>-0.9168549813330173492431640625</LongitudeDegrees>
            </Position>
            <AltitudeMeters>1118.5999755859375</AltitudeMeters>
            <DistanceMeters>621187.51842108</DistanceMeters>
          </Trackpoint>
          <Trackpoint>
            <Time>2021-08-04T12:39:25.000Z</Time>
            <Position>
              <LatitudeDegrees>40.92627628706395626068115234375</LatitudeDegrees>
              <LongitudeDegrees>-0.9164982475340366363525390625</LongitudeDegrees>
            </Position>
            <AltitudeMeters>1118.5999755859375</AltitudeMeters>
            <DistanceMeters>621249.77963136</DistanceMeters>
          </Trackpoint>
          <Trackpoint>
            <Time>2021-08-04T12:39:28.000Z</Time>
            <Position>
              <LatitudeDegrees>40.92618794180452823638916015625</LatitudeDegrees>
              <LongitudeDegrees>-0.91644703410565853118896484375</LongitudeDegrees>
            </Position>
            <AltitudeMeters>1119.4000244140625</AltitudeMeters>
            <DistanceMeters>621260.51470638</DistanceMeters>
          </Trackpoint>
          <Trackpoint>
            <Time>2021-08-04T12:39:38.000Z</Time>
            <Position>
              <LatitudeDegrees>40.92589993961155414581298828125</LatitudeDegrees>
              <LongitudeDegrees>-0.9162789769470691680908203125</LongitudeDegrees>
            </Position>
            <AltitudeMeters>1120.4000244140625</AltitudeMeters>
            <DistanceMeters>621295.54710081</DistanceMeters>
          </Trackpoint>
          <Trackpoint>
            <Time>2021-08-04T12:39:57.000Z</Time>
            <Position>
              <LatitudeDegrees>40.92541697435081005096435546875</LatitudeDegrees>
              <LongitudeDegrees>-0.91588377021253108978271484375</LongitudeDegrees>
            </Position>
            <AltitudeMeters>1121.4000244140625</AltitudeMeters>
            <DistanceMeters>621358.74651024</DistanceMeters>
          </Trackpoint>
          <Trackpoint>
            <Time>2021-08-04T12:39:58.000Z</Time>
            <Position>
              <LatitudeDegrees>40.9253905713558197021484375</LatitudeDegrees>
              <LongitudeDegrees>-0.9158649109303951263427734375</LongitudeDegrees>
            </Position>
            <AltitudeMeters>1121.4000244140625</AltitudeMeters>
            <DistanceMeters>621362.08734464</DistanceMeters>
          </Trackpoint>
          <Trackpoint>
            <Time>2021-08-04T12:40:13.000Z</Time>
            <Position>
              <LatitudeDegrees>40.9250108711421489715576171875</LatitudeDegrees>
              <LongitudeDegrees>-0.91563650406897068023681640625</LongitudeDegrees>
            </Position>
            <AltitudeMeters>1122.4000244140625</AltitudeMeters>
            <DistanceMeters>621408.50903744</DistanceMeters>
          </Trackpoint>
          <Trackpoint>
            <Time>2021-08-04T12:40:17.000Z</Time>
            <Position>
              <LatitudeDegrees>40.9249136410653591156005859375</LatitudeDegrees>
              <LongitudeDegrees>-0.9155862964689731597900390625</LongitudeDegrees>
            </Position>
            <AltitudeMeters>1123.4000244140625</AltitudeMeters>
            <DistanceMeters>621420.12525164</DistanceMeters>
          </Trackpoint>
          <Trackpoint>
            <Time>2021-08-04T12:40:28.000Z</Time>
            <Position>
              <LatitudeDegrees>40.92466779984533786773681640625</LatitudeDegrees>
              <LongitudeDegrees>-0.91542360372841358184814453125</LongitudeDegrees>
            </Position>
            <AltitudeMeters>1124.4000244140625</AltitudeMeters>
            <DistanceMeters>621450.71780323</DistanceMeters>
          </Trackpoint>
          <Trackpoint>
            <Time>2021-08-04T12:40:37.000Z</Time>
            <Position>
              <LatitudeDegrees>40.924454145133495330810546875</LatitudeDegrees>
              <LongitudeDegrees>-0.91533810831606388092041015625</LongitudeDegrees>
            </Position>
            <AltitudeMeters>1125.199951171875</AltitudeMeters>
            <DistanceMeters>621475.56124693</DistanceMeters>
          </Trackpoint>
          <Trackpoint>
            <Time>2021-08-04T12:40:48.000Z</Time>
            <Position>
              <LatitudeDegrees>40.92420746572315692901611328125</LatitudeDegrees>
              <LongitudeDegrees>-0.91523383744060993194580078125</LongitudeDegrees>
            </Position>
            <AltitudeMeters>1126.4000244140625</AltitudeMeters>
            <DistanceMeters>621504.38349324</DistanceMeters>
          </Trackpoint>
          <Trackpoint>
            <Time>2021-08-04T12:40:55.000Z</Time>
            <Position>
              <LatitudeDegrees>40.92405281960964202880859375</LatitudeDegrees>
              <LongitudeDegrees>-0.91517734341323375701904296875</LongitudeDegrees>
            </Position>
            <AltitudeMeters>1127.5999755859375</AltitudeMeters>
            <DistanceMeters>621522.23941493</DistanceMeters>
          </Trackpoint>
          <Trackpoint>
            <Time>2021-08-04T12:41:03.000Z</Time>
            <Position>
              <LatitudeDegrees>40.92388509772717952728271484375</LatitudeDegrees>
              <LongitudeDegrees>-0.91509637422859668731689453125</LongitudeDegrees>
            </Position>
            <AltitudeMeters>1128.800048828125</AltitudeMeters>
            <DistanceMeters>621542.11068018</DistanceMeters>
          </Trackpoint>
          <Trackpoint>
            <Time>2021-08-04T12:41:10.000Z</Time>
            <Position>
              <LatitudeDegrees>40.9237398393452167510986328125</LatitudeDegrees>
              <LongitudeDegrees>-0.91501238755881786346435546875</LongitudeDegrees>
            </Position>
            <AltitudeMeters>1129.800048828125</AltitudeMeters>
            <DistanceMeters>621559.75394505</DistanceMeters>
          </Trackpoint>
          <Trackpoint>
            <Time>2021-08-04T12:41:15.000Z</Time>
            <Position>
              <LatitudeDegrees>40.92364235781133174896240234375</LatitudeDegrees>
              <LongitudeDegrees>-0.91494642198085784912109375</LongitudeDegrees>
            </Position>
            <AltitudeMeters>1130.4000244140625</AltitudeMeters>
            <DistanceMeters>621571.93961602</DistanceMeters>
          </Trackpoint>
          <Trackpoint>
            <Time>2021-08-04T12:41:21.000Z</Time>
            <Position>
              <LatitudeDegrees>40.923518054187297821044921875</LatitudeDegrees>
              <LongitudeDegrees>-0.9148755110800266265869140625</LongitudeDegrees>
            </Position>
            <AltitudeMeters>1130.800048828125</AltitudeMeters>
            <DistanceMeters>621587.0054715</DistanceMeters>
          </Trackpoint>
          <Trackpoint>
            <Time>2021-08-04T12:41:28.000Z</Time>
            <Position>
              <LatitudeDegrees>40.9233748912811279296875</LatitudeDegrees>
              <LongitudeDegrees>-0.91482597403228282928466796875</LongitudeDegrees>
            </Position>
            <AltitudeMeters>1131.800048828125</AltitudeMeters>
            <DistanceMeters>621603.47527619</DistanceMeters>
          </Trackpoint>
          <Trackpoint>
            <Time>2021-08-04T12:41:36.000Z</Time>
            <Position>
              <LatitudeDegrees>40.92322058044373989105224609375</LatitudeDegrees>
              <LongitudeDegrees>-0.91478406451642513275146484375</LongitudeDegrees>
            </Position>
            <AltitudeMeters>1132.800048828125</AltitudeMeters>
            <DistanceMeters>621621.00815565</DistanceMeters>
          </Trackpoint>
          <Trackpoint>
            <Time>2021-08-04T12:41:49.000Z</Time>
            <Position>
              <LatitudeDegrees>40.92298127710819244384765625</LatitudeDegrees>
              <LongitudeDegrees>-0.9147269837558269500732421875</LongitudeDegrees>
            </Position>
            <AltitudeMeters>1133.800048828125</AltitudeMeters>
            <DistanceMeters>621648.07225772</DistanceMeters>
          </Trackpoint>
          <Trackpoint>
            <Time>2021-08-04T12:41:58.000Z</Time>
            <Position>
              <LatitudeDegrees>40.92280550859868526458740234375</LatitudeDegrees>
              <LongitudeDegrees>-0.91468431986868381500244140625</LongitudeDegrees>
            </Position>
            <AltitudeMeters>1135</AltitudeMeters>
            <DistanceMeters>621667.96214583</DistanceMeters>
          </Trackpoint>
          <Trackpoint>
            <Time>2021-08-04T12:42:07.000Z</Time>
            <Position>
              <LatitudeDegrees>40.9226448275148868560791015625</LatitudeDegrees>
              <LongitudeDegrees>-0.9146106429398059844970703125</LongitudeDegrees>
            </Position>
            <AltitudeMeters>1136</AltitudeMeters>
            <DistanceMeters>621686.8894064</DistanceMeters>
          </Trackpoint>
          <Trackpoint>
            <Time>2021-08-04T12:42:15.000Z</Time>
            <Position>
              <LatitudeDegrees>40.92249906621873378753662109375</LatitudeDegrees>
              <LongitudeDegrees>-0.91453663073480129241943359375</LongitudeDegrees>
            </Position>
            <AltitudeMeters>1137.199951171875</AltitudeMeters>
            <DistanceMeters>621704.26604865</DistanceMeters>
          </Trackpoint>
          <Trackpoint>
            <Time>2021-08-04T12:42:27.000Z</Time>
            <Position>
              <LatitudeDegrees>40.9222535602748394012451171875</LatitudeDegrees>
              <LongitudeDegrees>-0.91443638317286968231201171875</LongitudeDegrees>
            </Position>
            <AltitudeMeters>1138.199951171875</AltitudeMeters>
            <DistanceMeters>621732.86230125</DistanceMeters>
          </Trackpoint>
          <Trackpoint>
            <Time>2021-08-04T12:42:36.000Z</Time>
            <Position>
              <LatitudeDegrees>40.92206605710089206695556640625</LatitudeDegrees>
              <LongitudeDegrees>-0.91439195908606052398681640625</LongitudeDegrees>
            </Position>
            <AltitudeMeters>1139.199951171875</AltitudeMeters>
            <DistanceMeters>621754.06369614</DistanceMeters>
          </Trackpoint>
          <Trackpoint>
            <Time>2021-08-04T12:42:43.000Z</Time>
            <Position>
              <LatitudeDegrees>40.92191769741475582122802734375</LatitudeDegrees>
              <LongitudeDegrees>-0.914354659616947174072265625</LongitudeDegrees>
            </Position>
            <AltitudeMeters>1140.199951171875</AltitudeMeters>
            <DistanceMeters>621770.87187783</DistanceMeters>
          </Trackpoint>
          <Trackpoint>
            <Time>2021-08-04T12:42:48.000Z</Time>
            <Position>
              <LatitudeDegrees>40.92182013206183910369873046875</LatitudeDegrees>
              <LongitudeDegrees>-0.91433596797287464141845703125</LongitudeDegrees>
            </Position>
            <AltitudeMeters>1141.4000244140625</AltitudeMeters>
            <DistanceMeters>621781.844069</DistanceMeters>
          </Trackpoint>
          <Trackpoint>
            <Time>2021-08-04T12:42:55.000Z</Time>
            <Position>
              <LatitudeDegrees>40.92168836854398250579833984375</LatitudeDegrees>
              <LongitudeDegrees>-0.9143129177391529083251953125</LongitudeDegrees>
            </Position>
            <AltitudeMeters>1142.5999755859375</AltitudeMeters>
            <DistanceMeters>621796.6371374</DistanceMeters>
          </Trackpoint>
          <Trackpoint>
            <Time>2021-08-04T12:43:04.000Z</Time>
            <Position>
              <LatitudeDegrees>40.92154637910425662994384765625</LatitudeDegrees>
              <LongitudeDegrees>-0.91424393467605113983154296875</LongitudeDegrees>
            </Position>
            <AltitudeMeters>1143.4000244140625</AltitudeMeters>
            <DistanceMeters>621813.4721598</DistanceMeters>
          </Trackpoint>
          <Trackpoint>
            <Time>2021-08-04T12:43:12.000Z</Time>
            <Position>
              <LatitudeDegrees>40.92141964472830295562744140625</LatitudeDegrees>
              <LongitudeDegrees>-0.91418207623064517974853515625</LongitudeDegrees>
            </Position>
            <AltitudeMeters>1144.5999755859375</AltitudeMeters>
            <DistanceMeters>621828.50651524</DistanceMeters>
          </Trackpoint>
          <Trackpoint>
            <Time>2021-08-04T12:43:18.000Z</Time>
            <Position>
              <LatitudeDegrees>40.9213323891162872314453125</LatitudeDegrees>
              <LongitudeDegrees>-0.9141288511455059051513671875</LongitudeDegrees>
            </Position>
            <AltitudeMeters>1145.5999755859375</AltitudeMeters>
            <DistanceMeters>621839.20029324</DistanceMeters>
          </Trackpoint>
          <Trackpoint>
            <Time>2021-08-04T12:43:27.000Z</Time>
            <Position>
              <LatitudeDegrees>40.921187214553356170654296875</LatitudeDegrees>
              <LongitudeDegrees>-0.9140581078827381134033203125</LongitudeDegrees>
            </Position>
            <AltitudeMeters>1146.5999755859375</AltitudeMeters>
            <DistanceMeters>621856.41901851</DistanceMeters>
          </Trackpoint>
          <Trackpoint>
            <Time>2021-08-04T12:43:35.000Z</Time>
            <Position>
              <LatitudeDegrees>40.92106676660478115081787109375</LatitudeDegrees>
              <LongitudeDegrees>-0.91399767436087131500244140625</LongitudeDegrees>
            </Position>
            <AltitudeMeters>1147.800048828125</AltitudeMeters>
            <DistanceMeters>621870.75609039</DistanceMeters>
          </Trackpoint>
          <Trackpoint>
            <Time>2021-08-04T12:43:43.000Z</Time>
            <Position>
              <LatitudeDegrees>40.9209392778575420379638671875</LatitudeDegrees>
              <LongitudeDegrees>-0.91393866576254367828369140625</LongitudeDegrees>
            </Position>
            <AltitudeMeters>1148.800048828125</AltitudeMeters>
            <DistanceMeters>621885.78834348</DistanceMeters>
          </Trackpoint>
          <Trackpoint>
            <Time>2021-08-04T12:43:50.000Z</Time>
            <Position>
              <LatitudeDegrees>40.92084062285721302032470703125</LatitudeDegrees>
              <LongitudeDegrees>-0.91386825777590274810791015625</LongitudeDegrees>
            </Position>
            <AltitudeMeters>1149.5999755859375</AltitudeMeters>
            <DistanceMeters>621898.26401571</DistanceMeters>
          </Trackpoint>
          <Trackpoint>
            <Time>2021-08-04T12:43:59.000Z</Time>
            <Position>
              <LatitudeDegrees>40.9207116253674030303955078125</LatitudeDegrees>
              <LongitudeDegrees>-0.9137875400483608245849609375</LongitudeDegrees>
            </Position>
            <AltitudeMeters>1150.5999755859375</AltitudeMeters>
            <DistanceMeters>621914.14570628</DistanceMeters>
          </Trackpoint>
          <Trackpoint>
            <Time>2021-08-04T12:44:07.000Z</Time>
            <Position>
              <LatitudeDegrees>40.92059117741882801055908203125</LatitudeDegrees>
              <LongitudeDegrees>-0.91373230330646038055419921875</LongitudeDegrees>
            </Position>
            <AltitudeMeters>1151.5999755859375</AltitudeMeters>
            <DistanceMeters>621928.33367527</DistanceMeters>
          </Trackpoint>
          <Trackpoint>
            <Time>2021-08-04T12:44:14.000Z</Time>
            <Position>
              <LatitudeDegrees>40.9204866550862789154052734375</LatitudeDegrees>
              <LongitudeDegrees>-0.9136970154941082000732421875</LongitudeDegrees>
            </Position>
            <AltitudeMeters>1152.800048828125</AltitudeMeters>
            <DistanceMeters>621940.33942723</DistanceMeters>
          </Trackpoint>
          <Trackpoint>
            <Time>2021-08-04T12:44:24.000Z</Time>
            <Position>
              <LatitudeDegrees>40.9203377924859523773193359375</LatitudeDegrees>
              <LongitudeDegrees>-0.91364228166639804840087890625</LongitudeDegrees>
            </Position>
            <AltitudeMeters>1153.800048828125</AltitudeMeters>
            <DistanceMeters>621957.53584963</DistanceMeters>
          </Trackpoint>
          <Trackpoint>
            <Time>2021-08-04T12:44:34.000Z</Time>
            <Position>
              <LatitudeDegrees>40.92018633149564266204833984375</LatitudeDegrees>
              <LongitudeDegrees>-0.91359324753284454345703125</LongitudeDegrees>
            </Position>
            <AltitudeMeters>1154.800048828125</AltitudeMeters>
            <DistanceMeters>621974.89065213</DistanceMeters>
          </Trackpoint>
          <Trackpoint>
            <Time>2021-08-04T12:44:43.000Z</Time>
            <Position>
              <LatitudeDegrees>40.92005523853003978729248046875</LatitudeDegrees>
              <LongitudeDegrees>-0.9135394357144832611083984375</LongitudeDegrees>
            </Position>
            <AltitudeMeters>1156</AltitudeMeters>
            <DistanceMeters>621990.16721246</DistanceMeters>
          </Trackpoint>
          <Trackpoint>
            <Time>2021-08-04T12:44:50.000Z</Time>
            <Position>
              <LatitudeDegrees>40.919952057301998138427734375</LatitudeDegrees>
              <LongitudeDegrees>-0.91348470188677310943603515625</LongitudeDegrees>
            </Position>
            <AltitudeMeters>1157</AltitudeMeters>
            <DistanceMeters>622002.540041</DistanceMeters>
          </Trackpoint>
          <Trackpoint>
            <Time>2021-08-04T12:44:56.000Z</Time>
            <Position>
              <LatitudeDegrees>40.91986195184290409088134765625</LatitudeDegrees>
              <LongitudeDegrees>-0.91342250816524028778076171875</LongitudeDegrees>
            </Position>
            <AltitudeMeters>1158</AltitudeMeters>
            <DistanceMeters>622013.85141373</DistanceMeters>
          </Trackpoint>
          <Trackpoint>
            <Time>2021-08-04T12:45:00.000Z</Time>
            <Position>
              <LatitudeDegrees>40.91982389800250530242919921875</LatitudeDegrees>
              <LongitudeDegrees>-0.91334673576056957244873046875</LongitudeDegrees>
            </Position>
            <AltitudeMeters>1158.4000244140625</AltitudeMeters>
            <DistanceMeters>622021.5044573</DistanceMeters>
          </Trackpoint>
          <Trackpoint>
            <Time>2021-08-04T12:45:04.000Z</Time>
            <Position>
              <LatitudeDegrees>40.91985407285392284393310546875</LatitudeDegrees>
              <LongitudeDegrees>-0.91325520537793636322021484375</LongitudeDegrees>
            </Position>
            <AltitudeMeters>1157.5999755859375</AltitudeMeters>
            <DistanceMeters>622029.9029052</DistanceMeters>
          </Trackpoint>
          <Trackpoint>
            <Time>2021-08-04T12:45:21.000Z</Time>
            <Position>
              <LatitudeDegrees>40.9200477786362171173095703125</LatitudeDegrees>
              <LongitudeDegrees>-0.91281917877495288848876953125</LongitudeDegrees>
            </Position>
            <AltitudeMeters>1159</AltitudeMeters>
            <DistanceMeters>622072.44208912</DistanceMeters>
          </Trackpoint>
          <Trackpoint>
            <Time>2021-08-04T12:45:42.000Z</Time>
            <Position>
              <LatitudeDegrees>40.92053200118243694305419921875</LatitudeDegrees>
              <LongitudeDegrees>-0.91254995204508304595947265625</LongitudeDegrees>
            </Position>
            <AltitudeMeters>1159.199951171875</AltitudeMeters>
            <DistanceMeters>622130.9002037</DistanceMeters>
          </Trackpoint>
          <Trackpoint>
            <Time>2021-08-04T12:45:59.000Z</Time>
            <Position>
              <LatitudeDegrees>40.920825786888599395751953125</LatitudeDegrees>
              <LongitudeDegrees>-0.91209950856864452362060546875</LongitudeDegrees>
            </Position>
            <AltitudeMeters>1160</AltitudeMeters>
            <DistanceMeters>622180.94365702</DistanceMeters>
          </Trackpoint>
          <Trackpoint>
            <Time>2021-08-04T12:46:02.000Z</Time>
            <Position>
              <LatitudeDegrees>40.9208494238555431365966796875</LatitudeDegrees>
              <LongitudeDegrees>-0.912017785012722015380859375</LongitudeDegrees>
            </Position>
            <AltitudeMeters>1161</AltitudeMeters>
            <DistanceMeters>622188.30316777</DistanceMeters>
          </Trackpoint>
          <Trackpoint>
            <Time>2021-08-04T12:46:07.000Z</Time>
            <Position>
              <LatitudeDegrees>40.92087867669761180877685546875</LatitudeDegrees>
              <LongitudeDegrees>-0.91187822632491588592529296875</LongitudeDegrees>
            </Position>
            <AltitudeMeters>1162</AltitudeMeters>
            <DistanceMeters>622200.48290898</DistanceMeters>
          </Trackpoint>
          <Trackpoint>
            <Time>2021-08-04T12:46:15.000Z</Time>
            <Position>
              <LatitudeDegrees>40.920912958681583404541015625</LatitudeDegrees>
              <LongitudeDegrees>-0.91164864599704742431640625</LongitudeDegrees>
            </Position>
            <AltitudeMeters>1163.199951171875</AltitudeMeters>
            <DistanceMeters>622220.16445336</DistanceMeters>
          </Trackpoint>
          <Trackpoint>
            <Time>2021-08-04T12:46:21.000Z</Time>
            <Position>
              <LatitudeDegrees>40.9209473244845867156982421875</LatitudeDegrees>
              <LongitudeDegrees>-0.91147430241107940673828125</LongitudeDegrees>
            </Position>
            <AltitudeMeters>1164.199951171875</AltitudeMeters>
            <DistanceMeters>622235.31756471</DistanceMeters>
          </Trackpoint>
          <Trackpoint>
            <Time>2021-08-04T12:46:27.000Z</Time>
            <Position>
              <LatitudeDegrees>40.9209828637540340423583984375</LatitudeDegrees>
              <LongitudeDegrees>-0.911233238875865936279296875</LongitudeDegrees>
            </Position>
            <AltitudeMeters>1163.5999755859375</AltitudeMeters>
            <DistanceMeters>622255.97336491</DistanceMeters>
          </Trackpoint>
          <Trackpoint>
            <Time>2021-08-04T12:46:28.000Z</Time>
            <Position>
              <LatitudeDegrees>40.920990072190761566162109375</LatitudeDegrees>
              <LongitudeDegrees>-0.911175906658172607421875</LongitudeDegrees>
            </Position>
            <AltitudeMeters>1163</AltitudeMeters>
            <DistanceMeters>622260.86147112</DistanceMeters>
          </Trackpoint>
          <Trackpoint>
            <Time>2021-08-04T12:46:33.000Z</Time>
            <Position>
              <LatitudeDegrees>40.920908264815807342529296875</LatitudeDegrees>
              <LongitudeDegrees>-0.91086099855601787567138671875</LongitudeDegrees>
            </Position>
            <AltitudeMeters>1161.5999755859375</AltitudeMeters>
            <DistanceMeters>622288.86711911</DistanceMeters>
          </Trackpoint>
          <Trackpoint>
            <Time>2021-08-04T12:46:34.000Z</Time>
            <Position>
              <LatitudeDegrees>40.92087532393634319305419921875</LatitudeDegrees>
              <LongitudeDegrees>-0.9107992239296436309814453125</LongitudeDegrees>
            </Position>
            <AltitudeMeters>1161.199951171875</AltitudeMeters>
            <DistanceMeters>622295.22468328</DistanceMeters>
          </Trackpoint>
          <Trackpoint>
            <Time>2021-08-04T12:46:35.000Z</Time>
            <Position>
              <LatitudeDegrees>40.92084162868559360504150390625</LatitudeDegrees>
              <LongitudeDegrees>-0.91073669493198394775390625</LongitudeDegrees>
            </Position>
            <AltitudeMeters>1160.4000244140625</AltitudeMeters>
            <DistanceMeters>622301.68370435</DistanceMeters>
          </Trackpoint>
          <Trackpoint>
            <Time>2021-08-04T12:46:38.000Z</Time>
            <Position>
              <LatitudeDegrees>40.92073920182883739471435546875</LatitudeDegrees>
              <LongitudeDegrees>-0.91054818592965602874755859375</LongitudeDegrees>
            </Position>
            <AltitudeMeters>1159.4000244140625</AltitudeMeters>
            <DistanceMeters>622321.21071149</DistanceMeters>
          </Trackpoint>
          <Trackpoint>
            <Time>2021-08-04T12:46:41.000Z</Time>
            <Position>
              <LatitudeDegrees>40.9206395410001277923583984375</LatitudeDegrees>
              <LongitudeDegrees>-0.9103968925774097442626953125</LongitudeDegrees>
            </Position>
            <AltitudeMeters>1158.199951171875</AltitudeMeters>
            <DistanceMeters>622338.09099769</DistanceMeters>
          </Trackpoint>
          <Trackpoint>
            <Time>2021-08-04T12:46:44.000Z</Time>
            <Position>
              <LatitudeDegrees>40.92061179690062999725341796875</LatitudeDegrees>
              <LongitudeDegrees>-0.91023805551230907440185546875</LongitudeDegrees>
            </Position>
            <AltitudeMeters>1156.5999755859375</AltitudeMeters>
            <DistanceMeters>622351.80154478</DistanceMeters>
          </Trackpoint>
          <Trackpoint>
            <Time>2021-08-04T12:46:46.000Z</Time>
            <Position>
              <LatitudeDegrees>40.92063660733401775360107421875</LatitudeDegrees>
              <LongitudeDegrees>-0.9101370535790920257568359375</LongitudeDegrees>
            </Position>
            <AltitudeMeters>1155</AltitudeMeters>
            <DistanceMeters>622360.73405593</DistanceMeters>
          </Trackpoint>
          <Trackpoint>
            <Time>2021-08-04T12:46:47.000Z</Time>
            <Position>
              <LatitudeDegrees>40.9206390380859375</LatitudeDegrees>
              <LongitudeDegrees>-0.910073183476924896240234375</LongitudeDegrees>
            </Position>
            <AltitudeMeters>1153.800048828125</AltitudeMeters>
            <DistanceMeters>622366.11293731</DistanceMeters>
          </Trackpoint>
          <Trackpoint>
            <Time>2021-08-04T12:46:49.000Z</Time>
            <Position>
              <LatitudeDegrees>40.92061833478510379791259765625</LatitudeDegrees>
              <LongitudeDegrees>-0.9099392406642436981201171875</LongitudeDegrees>
            </Position>
            <AltitudeMeters>1152</AltitudeMeters>
            <DistanceMeters>622377.61077707</DistanceMeters>
          </Trackpoint>
          <Trackpoint>
            <Time>2021-08-04T12:46:50.000Z</Time>
            <Position>
              <LatitudeDegrees>40.92060928232967853546142578125</LatitudeDegrees>
              <LongitudeDegrees>-0.909869670867919921875</LongitudeDegrees>
            </Position>
            <AltitudeMeters>1151.5999755859375</AltitudeMeters>
            <DistanceMeters>622383.54823599</DistanceMeters>
          </Trackpoint>
          <Trackpoint>
            <Time>2021-08-04T12:46:51.000Z</Time>
            <Position>
              <LatitudeDegrees>40.9205976314842700958251953125</LatitudeDegrees>
              <LongitudeDegrees>-0.90980353765189647674560546875</LongitudeDegrees>
            </Position>
            <AltitudeMeters>1151</AltitudeMeters>
            <DistanceMeters>622389.26012414</DistanceMeters>
          </Trackpoint>
          <Trackpoint>
            <Time>2021-08-04T12:46:53.000Z</Time>
            <Position>
              <LatitudeDegrees>40.9205470047891139984130859375</LatitudeDegrees>
              <LongitudeDegrees>-0.90970412828028202056884765625</LongitudeDegrees>
            </Position>
            <AltitudeMeters>1149.5999755859375</AltitudeMeters>
            <DistanceMeters>622399.34191666</DistanceMeters>
          </Trackpoint>
          <Trackpoint>
            <Time>2021-08-04T12:46:55.000Z</Time>
            <Position>
              <LatitudeDegrees>40.92047081328928470611572265625</LatitudeDegrees>
              <LongitudeDegrees>-0.90965501032769680023193359375</LongitudeDegrees>
            </Position>
            <AltitudeMeters>1148.800048828125</AltitudeMeters>
            <DistanceMeters>622408.77496353</DistanceMeters>
          </Trackpoint>
          <Trackpoint>
            <Time>2021-08-04T12:46:56.000Z</Time>
            <Position>
              <LatitudeDegrees>40.920437872409820556640625</LatitudeDegrees>
              <LongitudeDegrees>-0.9096331335604190826416015625</LongitudeDegrees>
            </Position>
            <AltitudeMeters>1148.5999755859375</AltitudeMeters>
            <DistanceMeters>622412.8776532</DistanceMeters>
          </Trackpoint>
          <Trackpoint>
            <Time>2021-08-04T12:46:57.000Z</Time>
            <Position>
              <LatitudeDegrees>40.920418091118335723876953125</LatitudeDegrees>
              <LongitudeDegrees>-0.90960346162319183349609375</LongitudeDegrees>
            </Position>
            <AltitudeMeters>1148.199951171875</AltitudeMeters>
            <DistanceMeters>622416.20765828</DistanceMeters>
          </Trackpoint>
          <Trackpoint>
            <Time>2021-08-04T12:46:59.000Z</Time>
            <Position>
              <LatitudeDegrees>40.92042387463152408599853515625</LatitudeDegrees>
              <LongitudeDegrees>-0.9095369093120098114013671875</LongitudeDegrees>
            </Position>
            <AltitudeMeters>1147.5999755859375</AltitudeMeters>
            <DistanceMeters>622421.84074701</DistanceMeters>
          </Trackpoint>
          <Trackpoint>
            <Time>2021-08-04T12:47:03.000Z</Time>
            <Position>
              <LatitudeDegrees>40.9205245412886142730712890625</LatitudeDegrees>
              <LongitudeDegrees>-0.90944395400583744049072265625</LongitudeDegrees>
            </Position>
            <AltitudeMeters>1146</AltitudeMeters>
            <DistanceMeters>622435.50279957</DistanceMeters>
          </Trackpoint>
          <Trackpoint>
            <Time>2021-08-04T12:47:06.000Z</Time>
            <Position>
              <LatitudeDegrees>40.92059587128460407257080078125</LatitudeDegrees>
              <LongitudeDegrees>-0.90933549217879772186279296875</LongitudeDegrees>
            </Position>
            <AltitudeMeters>1145.4000244140625</AltitudeMeters>
            <DistanceMeters>622447.59585907</DistanceMeters>
          </Trackpoint>
          <Trackpoint>
            <Time>2021-08-04T12:47:23.000Z</Time>
            <Position>
              <LatitudeDegrees>40.9208624996244907379150390625</LatitudeDegrees>
              <LongitudeDegrees>-0.90914237312972545623779296875</LongitudeDegrees>
            </Position>
            <AltitudeMeters>1147.199951171875</AltitudeMeters>
            <DistanceMeters>622481.42590324</DistanceMeters>
          </Trackpoint>
          <Trackpoint>
            <Time>2021-08-04T12:47:27.000Z</Time>
            <Position>
              <LatitudeDegrees>40.9209181554615497589111328125</LatitudeDegrees>
              <LongitudeDegrees>-0.90916617773473262786865234375</LongitudeDegrees>
            </Position>
            <AltitudeMeters>1148.4000244140625</AltitudeMeters>
            <DistanceMeters>622487.9364469</DistanceMeters>
          </Trackpoint>
          <Trackpoint>
            <Time>2021-08-04T12:47:36.000Z</Time>
            <Position>
              <LatitudeDegrees>40.92102921567857265472412109375</LatitudeDegrees>
              <LongitudeDegrees>-0.909232981503009796142578125</LongitudeDegrees>
            </Position>
            <AltitudeMeters>1149.5999755859375</AltitudeMeters>
            <DistanceMeters>622501.51429801</DistanceMeters>
          </Trackpoint>
          <Trackpoint>
            <Time>2021-08-04T12:47:47.000Z</Time>
            <Position>
              <LatitudeDegrees>40.9211635775864124298095703125</LatitudeDegrees>
              <LongitudeDegrees>-0.9092874638736248016357421875</LongitudeDegrees>
            </Position>
            <AltitudeMeters>1150.5999755859375</AltitudeMeters>
            <DistanceMeters>622517.15507168</DistanceMeters>
          </Trackpoint>
          <Trackpoint>
            <Time>2021-08-04T12:47:53.000Z</Time>
            <Position>
              <LatitudeDegrees>40.92123624868690967559814453125</LatitudeDegrees>
              <LongitudeDegrees>-0.90930799953639507293701171875</LongitudeDegrees>
            </Position>
            <AltitudeMeters>1151.5999755859375</AltitudeMeters>
            <DistanceMeters>622525.42676372</DistanceMeters>
          </Trackpoint>
          <Trackpoint>
            <Time>2021-08-04T12:48:04.000Z</Time>
            <Position>
              <LatitudeDegrees>40.92136918567121028900146484375</LatitudeDegrees>
              <LongitudeDegrees>-0.90932727791368961334228515625</LongitudeDegrees>
            </Position>
            <AltitudeMeters>1152.5999755859375</AltitudeMeters>
            <DistanceMeters>622540.31172108</DistanceMeters>
          </Trackpoint>
          <Trackpoint>
            <Time>2021-08-04T12:48:12.000Z</Time>
            <Position>
              <LatitudeDegrees>40.9214676730334758758544921875</LatitudeDegrees>
              <LongitudeDegrees>-0.9093156270682811737060546875</LongitudeDegrees>
            </Position>
            <AltitudeMeters>1153.800048828125</AltitudeMeters>
            <DistanceMeters>622551.31760339</DistanceMeters>
          </Trackpoint>
          <Trackpoint>
            <Time>2021-08-04T12:48:21.000Z</Time>
            <Position>
              <LatitudeDegrees>40.92158007435500621795654296875</LatitudeDegrees>
              <LongitudeDegrees>-0.90927665121853351593017578125</LongitudeDegrees>
            </Position>
            <AltitudeMeters>1154.800048828125</AltitudeMeters>
            <DistanceMeters>622564.25031679</DistanceMeters>
          </Trackpoint>
          <Trackpoint>
            <Time>2021-08-04T12:48:35.000Z</Time>
            <Position>
              <LatitudeDegrees>40.921762883663177490234375</LatitudeDegrees>
              <LongitudeDegrees>-0.90924161486327648162841796875</LongitudeDegrees>
            </Position>
            <AltitudeMeters>1155.4000244140625</AltitudeMeters>
            <DistanceMeters>622584.80949523</DistanceMeters>
          </Trackpoint>
          <Trackpoint>
            <Time>2021-08-04T12:48:37.000Z</Time>
            <Position>
              <LatitudeDegrees>40.92178635299205780029296875</LatitudeDegrees>
              <LongitudeDegrees>-0.9092626534402370452880859375</LongitudeDegrees>
            </Position>
            <AltitudeMeters>1156</AltitudeMeters>
            <DistanceMeters>622587.96689992</DistanceMeters>
          </Trackpoint>
          <Trackpoint>
            <Time>2021-08-04T12:48:45.000Z</Time>
            <Position>
              <LatitudeDegrees>40.9218582697212696075439453125</LatitudeDegrees>
              <LongitudeDegrees>-0.909367762506008148193359375</LongitudeDegrees>
            </Position>
            <AltitudeMeters>1156.800048828125</AltitudeMeters>
            <DistanceMeters>622599.89190071</DistanceMeters>
          </Trackpoint>
          <Trackpoint>
            <Time>2021-08-04T12:48:49.000Z</Time>
            <Position>
              <LatitudeDegrees>40.92188182286918163299560546875</LatitudeDegrees>
              <LongitudeDegrees>-0.909432470798492431640625</LongitudeDegrees>
            </Position>
            <AltitudeMeters>1158</AltitudeMeters>
            <DistanceMeters>622605.93189317</DistanceMeters>
          </Trackpoint>
          <Trackpoint>
            <Time>2021-08-04T12:48:58.000Z</Time>
            <Position>
              <LatitudeDegrees>40.92194217257201671600341796875</LatitudeDegrees>
              <LongitudeDegrees>-0.9095570258796215057373046875</LongitudeDegrees>
            </Position>
            <AltitudeMeters>1159</AltitudeMeters>
            <DistanceMeters>622618.37531395</DistanceMeters>
          </Trackpoint>
          <Trackpoint>
            <Time>2021-08-04T12:49:03.000Z</Time>
            <Position>
              <LatitudeDegrees>40.92199011705815792083740234375</LatitudeDegrees>
              <LongitudeDegrees>-0.9096076525747776031494140625</LongitudeDegrees>
            </Position>
            <AltitudeMeters>1160.199951171875</AltitudeMeters>
            <DistanceMeters>622625.20138123</DistanceMeters>
          </Trackpoint>
          <Trackpoint>
            <Time>2021-08-04T12:49:07.000Z</Time>
            <Position>
              <LatitudeDegrees>40.9220378100872039794921875</LatitudeDegrees>
              <LongitudeDegrees>-0.90962760150432586669921875</LongitudeDegrees>
            </Position>
            <AltitudeMeters>1161.199951171875</AltitudeMeters>
            <DistanceMeters>622630.76916826</DistanceMeters>
          </Trackpoint>
          <Trackpoint>
            <Time>2021-08-04T12:49:15.000Z</Time>
            <Position>
              <LatitudeDegrees>40.92213126830756664276123046875</LatitudeDegrees>
              <LongitudeDegrees>-0.90961997397243976593017578125</LongitudeDegrees>
            </Position>
            <AltitudeMeters>1162.199951171875</AltitudeMeters>
            <DistanceMeters>622641.19096078</DistanceMeters>
          </Trackpoint>
          <Trackpoint>
            <Time>2021-08-04T12:49:21.000Z</Time>
            <Position>
              <LatitudeDegrees>40.92219647951424121856689453125</LatitudeDegrees>
              <LongitudeDegrees>-0.90958342887461185455322265625</LongitudeDegrees>
            </Position>
            <AltitudeMeters>1163.4000244140625</AltitudeMeters>
            <DistanceMeters>622649.07302434</DistanceMeters>
          </Trackpoint>
          <Trackpoint>
            <Time>2021-08-04T12:49:28.000Z</Time>
            <Position>
              <LatitudeDegrees>40.92226990498602390289306640625</LatitudeDegrees>
              <LongitudeDegrees>-0.9095291979610919952392578125</LongitudeDegrees>
            </Position>
            <AltitudeMeters>1163.800048828125</AltitudeMeters>
            <DistanceMeters>622658.43255273</DistanceMeters>
          </Trackpoint>
          <Trackpoint>
            <Time>2021-08-04T12:49:31.000Z</Time>
            <Position>
              <LatitudeDegrees>40.92229773290455341339111328125</LatitudeDegrees>
              <LongitudeDegrees>-0.90950564481317996978759765625</LongitudeDegrees>
            </Position>
            <AltitudeMeters>1164.4000244140625</AltitudeMeters>
            <DistanceMeters>622662.10801111</DistanceMeters>
          </Trackpoint>
          <Trackpoint>
            <Time>2021-08-04T12:49:32.000Z</Time>
            <Position>
              <LatitudeDegrees>40.92230670154094696044921875</LatitudeDegrees>
              <LongitudeDegrees>-0.90949675999581813812255859375</LongitudeDegrees>
            </Position>
            <AltitudeMeters>1164.5999755859375</AltitudeMeters>
            <DistanceMeters>622663.35427479</DistanceMeters>
          </Trackpoint>
          <Trackpoint>
            <Time>2021-08-04T12:49:44.000Z</Time>
            <Position>
              <LatitudeDegrees>40.92237836681306362152099609375</LatitudeDegrees>
              <LongitudeDegrees>-0.90931914746761322021484375</LongitudeDegrees>
            </Position>
            <AltitudeMeters>1165.5999755859375</AltitudeMeters>
            <DistanceMeters>622680.28770467</DistanceMeters>
          </Trackpoint>
          <Trackpoint>
            <Time>2021-08-04T12:49:55.000Z</Time>
            <Position>
              <LatitudeDegrees>40.92239446006715297698974609375</LatitudeDegrees>
              <LongitudeDegrees>-0.90912946499884128570556640625</LongitudeDegrees>
            </Position>
            <AltitudeMeters>1166.199951171875</AltitudeMeters>
            <DistanceMeters>622696.33990798</DistanceMeters>
          </Trackpoint>
          <Trackpoint>
            <Time>2021-08-04T12:49:58.000Z</Time>
            <Position>
              <LatitudeDegrees>40.922398902475833892822265625</LatitudeDegrees>
              <LongitudeDegrees>-0.90907783247530460357666015625</LongitudeDegrees>
            </Position>
            <AltitudeMeters>1166.5999755859375</AltitudeMeters>
            <DistanceMeters>622700.70907056</DistanceMeters>
          </Trackpoint>
          <Trackpoint>
            <Time>2021-08-04T12:50:12.000Z</Time>
            <Position>
              <LatitudeDegrees>40.9223357029259204864501953125</LatitudeDegrees>
              <LongitudeDegrees>-0.90881246142089366912841796875</LongitudeDegrees>
            </Position>
            <AltitudeMeters>1167.5999755859375</AltitudeMeters>
            <DistanceMeters>622724.10880806</DistanceMeters>
          </Trackpoint>
          <Trackpoint>
            <Time>2021-08-04T12:50:22.000Z</Time>
            <Position>
              <LatitudeDegrees>40.92222464270889759063720703125</LatitudeDegrees>
              <LongitudeDegrees>-0.90865253470838069915771484375</LongitudeDegrees>
            </Position>
            <AltitudeMeters>1168.5999755859375</AltitudeMeters>
            <DistanceMeters>622742.37619553</DistanceMeters>
          </Trackpoint>
          <Trackpoint>
            <Time>2021-08-04T12:50:30.000Z</Time>
            <Position>
              <LatitudeDegrees>40.9221948869526386260986328125</LatitudeDegrees>
              <LongitudeDegrees>-0.9084885008633136749267578125</LongitudeDegrees>
            </Position>
            <AltitudeMeters>1169.5999755859375</AltitudeMeters>
            <DistanceMeters>622756.56352805</DistanceMeters>
          </Trackpoint>
          <Trackpoint>
            <Time>2021-08-04T12:50:35.000Z</Time>
            <Position>
              <LatitudeDegrees>40.92223889194428920745849609375</LatitudeDegrees>
              <LongitudeDegrees>-0.90840577147901058197021484375</LongitudeDegrees>
            </Position>
            <AltitudeMeters>1170.800048828125</AltitudeMeters>
            <DistanceMeters>622765.07200164</DistanceMeters>
          </Trackpoint>
          <Trackpoint>
            <Time>2021-08-04T12:50:40.000Z</Time>
            <Position>
              <LatitudeDegrees>40.922302342951297760009765625</LatitudeDegrees>
              <LongitudeDegrees>-0.9083393029868602752685546875</LongitudeDegrees>
            </Position>
            <AltitudeMeters>1172</AltitudeMeters>
            <DistanceMeters>622774.0785091</DistanceMeters>
          </Trackpoint>
          <Trackpoint>
            <Time>2021-08-04T12:50:50.000Z</Time>
            <Position>
              <LatitudeDegrees>40.92243569903075695037841796875</LatitudeDegrees>
              <LongitudeDegrees>-0.90822489000856876373291015625</LongitudeDegrees>
            </Position>
            <AltitudeMeters>1172.800048828125</AltitudeMeters>
            <DistanceMeters>622791.7672668</DistanceMeters>
          </Trackpoint>
          <Trackpoint>
            <Time>2021-08-04T12:51:00.000Z</Time>
            <Position>
              <LatitudeDegrees>40.922548435628414154052734375</LatitudeDegrees>
              <LongitudeDegrees>-0.90807770378887653350830078125</LongitudeDegrees>
            </Position>
            <AltitudeMeters>1174</AltitudeMeters>
            <DistanceMeters>622809.39312138</DistanceMeters>
          </Trackpoint>
          <Trackpoint>
            <Time>2021-08-04T12:51:11.000Z</Time>
            <Position>
              <LatitudeDegrees>40.92266385443508625030517578125</LatitudeDegrees>
              <LongitudeDegrees>-0.9078866802155971527099609375</LongitudeDegrees>
            </Position>
            <AltitudeMeters>1175</AltitudeMeters>
            <DistanceMeters>622829.96283849</DistanceMeters>
          </Trackpoint>
          <Trackpoint>
            <Time>2021-08-04T12:51:21.000Z</Time>
            <Position>
              <LatitudeDegrees>40.922740884125232696533203125</LatitudeDegrees>
              <LongitudeDegrees>-0.907710492610931396484375</LongitudeDegrees>
            </Position>
            <AltitudeMeters>1176.199951171875</AltitudeMeters>
            <DistanceMeters>622847.08163141</DistanceMeters>
          </Trackpoint>
          <Trackpoint>
            <Time>2021-08-04T12:51:28.000Z</Time>
            <Position>
              <LatitudeDegrees>40.9227980487048625946044921875</LatitudeDegrees>
              <LongitudeDegrees>-0.9075929783284664154052734375</LongitudeDegrees>
            </Position>
            <AltitudeMeters>1177.4000244140625</AltitudeMeters>
            <DistanceMeters>622858.83578682</DistanceMeters>
          </Trackpoint>
          <Trackpoint>
            <Time>2021-08-04T12:51:37.000Z</Time>
            <Position>
              <LatitudeDegrees>40.92294104397296905517578125</LatitudeDegrees>
              <LongitudeDegrees>-0.90735149569809436798095703125</LongitudeDegrees>
            </Position>
            <AltitudeMeters>1176</AltitudeMeters>
            <DistanceMeters>622884.63759598</DistanceMeters>
          </Trackpoint>
          <Trackpoint>
            <Time>2021-08-04T12:51:38.000Z</Time>
            <Position>
              <LatitudeDegrees>40.92297197319567203521728515625</LatitudeDegrees>
              <LongitudeDegrees>-0.90731763280928134918212890625</LongitudeDegrees>
            </Position>
            <AltitudeMeters>1175.4000244140625</AltitudeMeters>
            <DistanceMeters>622889.10587294</DistanceMeters>
          </Trackpoint>
          <Trackpoint>
            <Time>2021-08-04T12:51:39.000Z</Time>
            <Position>
              <LatitudeDegrees>40.92300566844642162322998046875</LatitudeDegrees>
              <LongitudeDegrees>-0.907288379967212677001953125</LongitudeDegrees>
            </Position>
            <AltitudeMeters>1174.800048828125</AltitudeMeters>
            <DistanceMeters>622893.59129492</DistanceMeters>
          </Trackpoint>
          <Trackpoint>
            <Time>2021-08-04T12:51:42.000Z</Time>
            <Position>
              <LatitudeDegrees>40.9231160581111907958984375</LatitudeDegrees>
              <LongitudeDegrees>-0.90724621899425983428955078125</LongitudeDegrees>
            </Position>
            <AltitudeMeters>1173.800048828125</AltitudeMeters>
            <DistanceMeters>622906.37936297</DistanceMeters>
          </Trackpoint>
          <Trackpoint>
            <Time>2021-08-04T12:51:43.000Z</Time>
            <Position>
              <LatitudeDegrees>40.92315671034157276153564453125</LatitudeDegrees>
              <LongitudeDegrees>-0.90723934583365917205810546875</LongitudeDegrees>
            </Position>
            <AltitudeMeters>1173.199951171875</AltitudeMeters>
            <DistanceMeters>622910.94064526</DistanceMeters>
          </Trackpoint>
          <Trackpoint>
            <Time>2021-08-04T12:51:46.000Z</Time>
            <Position>
              <LatitudeDegrees>40.923292078077793121337890625</LatitudeDegrees>
              <LongitudeDegrees>-0.907208584249019622802734375</LongitudeDegrees>
            </Position>
            <AltitudeMeters>1171.800048828125</AltitudeMeters>
            <DistanceMeters>622926.22754646</DistanceMeters>
          </Trackpoint>
          <Trackpoint>
            <Time>2021-08-04T12:51:48.000Z</Time>
            <Position>
              <LatitudeDegrees>40.9233888052403926849365234375</LatitudeDegrees>
              <LongitudeDegrees>-0.90718721039593219757080078125</LongitudeDegrees>
            </Position>
            <AltitudeMeters>1170.5999755859375</AltitudeMeters>
            <DistanceMeters>622937.14280315</DistanceMeters>
          </Trackpoint>
          <Trackpoint>
            <Time>2021-08-04T12:51:50.000Z</Time>
            <Position>
              <LatitudeDegrees>40.92350162565708160400390625</LatitudeDegrees>
              <LongitudeDegrees>-0.9071490727365016937255859375</LongitudeDegrees>
            </Position>
            <AltitudeMeters>1168.800048828125</AltitudeMeters>
            <DistanceMeters>622950.10341587</DistanceMeters>
          </Trackpoint>
          <Trackpoint>
            <Time>2021-08-04T12:51:51.000Z</Time>
            <Position>
              <LatitudeDegrees>40.9235628135502338409423828125</LatitudeDegrees>
              <LongitudeDegrees>-0.90713582932949066162109375</LongitudeDegrees>
            </Position>
            <AltitudeMeters>1168.199951171875</AltitudeMeters>
            <DistanceMeters>622957.00512966</DistanceMeters>
          </Trackpoint>
          <Trackpoint>
            <Time>2021-08-04T12:51:52.000Z</Time>
            <Position>
              <LatitudeDegrees>40.92362291179597377777099609375</LatitudeDegrees>
              <LongitudeDegrees>-0.90713121928274631500244140625</LongitudeDegrees>
            </Position>
            <AltitudeMeters>1167.4000244140625</AltitudeMeters>
            <DistanceMeters>622963.70569232</DistanceMeters>
          </Trackpoint>
          <Trackpoint>
            <Time>2021-08-04T12:51:54.000Z</Time>
            <Position>
              <LatitudeDegrees>40.92373573221266269683837890625</LatitudeDegrees>
              <LongitudeDegrees>-0.90712736360728740692138671875</LongitudeDegrees>
            </Position>
            <AltitudeMeters>1166.800048828125</AltitudeMeters>
            <DistanceMeters>622976.26648432</DistanceMeters>
          </Trackpoint>
          <Trackpoint>
            <Time>2021-08-04T12:51:56.000Z</Time>
            <Position>
              <LatitudeDegrees>40.92384033836424350738525390625</LatitudeDegrees>
              <LongitudeDegrees>-0.90707489289343357086181640625</LongitudeDegrees>
            </Position>
            <AltitudeMeters>1166.4000244140625</AltitudeMeters>
            <DistanceMeters>622988.71752253</DistanceMeters>
          </Trackpoint>
          <Trackpoint>
            <Time>2021-08-04T12:51:59.000Z</Time>
            <Position>
              <LatitudeDegrees>40.92397947795689105987548828125</LatitudeDegrees>
              <LongitudeDegrees>-0.9068830311298370361328125</LongitudeDegrees>
            </Position>
            <AltitudeMeters>1165.4000244140625</AltitudeMeters>
            <DistanceMeters>623011.08213597</DistanceMeters>
          </Trackpoint>
          <Trackpoint>
            <Time>2021-08-04T12:52:01.000Z</Time>
            <Position>
              <LatitudeDegrees>40.92406983487308025360107421875</LatitudeDegrees>
              <LongitudeDegrees>-0.90673391707241535186767578125</LongitudeDegrees>
            </Position>
            <AltitudeMeters>1164.199951171875</AltitudeMeters>
            <DistanceMeters>623027.15710618</DistanceMeters>
          </Trackpoint>
          <Trackpoint>
            <Time>2021-08-04T12:52:03.000Z</Time>
            <Position>
              <LatitudeDegrees>40.92417486011981964111328125</LatitudeDegrees>
              <LongitudeDegrees>-0.90659142471849918365478515625</LongitudeDegrees>
            </Position>
            <AltitudeMeters>1163.800048828125</AltitudeMeters>
            <DistanceMeters>623043.8974584</DistanceMeters>
          </Trackpoint>
          <Trackpoint>
            <Time>2021-08-04T12:52:08.000Z</Time>
            <Position>
              <LatitudeDegrees>40.92448725365102291107177734375</LatitudeDegrees>
              <LongitudeDegrees>-0.90632806532084941864013671875</LongitudeDegrees>
            </Position>
            <AltitudeMeters>1162.5999755859375</AltitudeMeters>
            <DistanceMeters>623085.12218941</DistanceMeters>
          </Trackpoint>
          <Trackpoint>
            <Time>2021-08-04T12:52:11.000Z</Time>
            <Position>
              <LatitudeDegrees>40.92464827001094818115234375</LatitudeDegrees>
              <LongitudeDegrees>-0.90620133094489574432373046875</LongitudeDegrees>
            </Position>
            <AltitudeMeters>1162</AltitudeMeters>
            <DistanceMeters>623105.97335462</DistanceMeters>
          </Trackpoint>
          <Trackpoint>
            <Time>2021-08-04T12:52:14.000Z</Time>
            <Position>
              <LatitudeDegrees>40.9247641079127788543701171875</LatitudeDegrees>
              <LongitudeDegrees>-0.9060456790030002593994140625</LongitudeDegrees>
            </Position>
            <AltitudeMeters>1162.800048828125</AltitudeMeters>
            <DistanceMeters>623124.34622368</DistanceMeters>
          </Trackpoint>
          <Trackpoint>
            <Time>2021-08-04T12:52:30.000Z</Time>
            <Position>
              <LatitudeDegrees>40.9249696321785449981689453125</LatitudeDegrees>
              <LongitudeDegrees>-0.90537889860570430755615234375</LongitudeDegrees>
            </Position>
            <AltitudeMeters>1163.5999755859375</AltitudeMeters>
            <DistanceMeters>623184.90650347</DistanceMeters>
          </Trackpoint>
          <Trackpoint>
            <Time>2021-08-04T12:52:38.000Z</Time>
            <Position>
              <LatitudeDegrees>40.92499100603163242340087890625</LatitudeDegrees>
              <LongitudeDegrees>-0.90514454059302806854248046875</LongitudeDegrees>
            </Position>
            <AltitudeMeters>1164.5999755859375</AltitudeMeters>
            <DistanceMeters>623204.75821866</DistanceMeters>
          </Trackpoint>
          <Trackpoint>
            <Time>2021-08-04T12:52:56.000Z</Time>
            <Position>
              <LatitudeDegrees>40.9250772558152675628662109375</LatitudeDegrees>
              <LongitudeDegrees>-0.90458370745182037353515625</LongitudeDegrees>
            </Position>
            <AltitudeMeters>1165.4000244140625</AltitudeMeters>
            <DistanceMeters>623252.88922604</DistanceMeters>
          </Trackpoint>
          <Trackpoint>
            <Time>2021-08-04T12:53:00.000Z</Time>
            <Position>
              <LatitudeDegrees>40.9250742383301258087158203125</LatitudeDegrees>
              <LongitudeDegrees>-0.90448555536568164825439453125</LongitudeDegrees>
            </Position>
            <AltitudeMeters>1166.5999755859375</AltitudeMeters>
            <DistanceMeters>623261.15054057</DistanceMeters>
          </Trackpoint>
          <Trackpoint>
            <Time>2021-08-04T12:53:04.000Z</Time>
            <Position>
              <LatitudeDegrees>40.92507298104465007781982421875</LatitudeDegrees>
              <LongitudeDegrees>-0.9043966233730316162109375</LongitudeDegrees>
            </Position>
            <AltitudeMeters>1167.800048828125</AltitudeMeters>
            <DistanceMeters>623268.63053747</DistanceMeters>
          </Trackpoint>
          <Trackpoint>
            <Time>2021-08-04T12:53:12.000Z</Time>
            <Position>
              <LatitudeDegrees>40.9250695444643497467041015625</LatitudeDegrees>
              <LongitudeDegrees>-0.90422697365283966064453125</LongitudeDegrees>
            </Position>
            <AltitudeMeters>1168.800048828125</AltitudeMeters>
            <DistanceMeters>623282.90258828</DistanceMeters>
          </Trackpoint>
          <Trackpoint>
            <Time>2021-08-04T12:53:18.000Z</Time>
            <Position>
              <LatitudeDegrees>40.92508236877620220184326171875</LatitudeDegrees>
              <LongitudeDegrees>-0.904113985598087310791015625</LongitudeDegrees>
            </Position>
            <AltitudeMeters>1169.800048828125</AltitudeMeters>
            <DistanceMeters>623292.5106303</DistanceMeters>
          </Trackpoint>
          <Trackpoint>
            <Time>2021-08-04T12:53:30.000Z</Time>
            <Position>
              <LatitudeDegrees>40.925121009349822998046875</LatitudeDegrees>
              <LongitudeDegrees>-0.903879292309284210205078125</LongitudeDegrees>
            </Position>
            <AltitudeMeters>1171</AltitudeMeters>
            <DistanceMeters>623312.71045788</DistanceMeters>
          </Trackpoint>
          <Trackpoint>
            <Time>2021-08-04T12:53:40.000Z</Time>
            <Position>
              <LatitudeDegrees>40.9251550398766994476318359375</LatitudeDegrees>
              <LongitudeDegrees>-0.903700254857540130615234375</LongitudeDegrees>
            </Position>
            <AltitudeMeters>1172</AltitudeMeters>
            <DistanceMeters>623328.23562456</DistanceMeters>
          </Trackpoint>
          <Trackpoint>
            <Time>2021-08-04T12:53:47.000Z</Time>
            <Position>
              <LatitudeDegrees>40.925153531134128570556640625</LatitudeDegrees>
              <LongitudeDegrees>-0.9035666473209857940673828125</LongitudeDegrees>
            </Position>
            <AltitudeMeters>1173</AltitudeMeters>
            <DistanceMeters>623339.47291022</DistanceMeters>
          </Trackpoint>
          <Trackpoint>
            <Time>2021-08-04T12:53:52.000Z</Time>
            <Position>
              <LatitudeDegrees>40.92515897937119007110595703125</LatitudeDegrees>
              <LongitudeDegrees>-0.90347721241414546966552734375</LongitudeDegrees>
            </Position>
            <AltitudeMeters>1174</AltitudeMeters>
            <DistanceMeters>623347.01841431</DistanceMeters>
          </Trackpoint>
          <Trackpoint>
            <Time>2021-08-04T12:54:01.000Z</Time>
            <Position>
              <LatitudeDegrees>40.92514892108738422393798828125</LatitudeDegrees>
              <LongitudeDegrees>-0.90332164429128170013427734375</LongitudeDegrees>
            </Position>
            <AltitudeMeters>1175.199951171875</AltitudeMeters>
            <DistanceMeters>623360.14896074</DistanceMeters>
          </Trackpoint>
          <Trackpoint>
            <Time>2021-08-04T12:54:07.000Z</Time>
            <Position>
              <LatitudeDegrees>40.9251107834279537200927734375</LatitudeDegrees>
              <LongitudeDegrees>-0.9032364003360271453857421875</LongitudeDegrees>
            </Position>
            <AltitudeMeters>1175.800048828125</AltitudeMeters>
            <DistanceMeters>623368.47993713</DistanceMeters>
          </Trackpoint>
          <Trackpoint>
            <Time>2021-08-04T12:54:10.000Z</Time>
            <Position>
              <LatitudeDegrees>40.9250816144049167633056640625</LatitudeDegrees>
              <LongitudeDegrees>-0.9032030403614044189453125</LongitudeDegrees>
            </Position>
            <AltitudeMeters>1176</AltitudeMeters>
            <DistanceMeters>623372.77089575</DistanceMeters>
          </Trackpoint>
          <Trackpoint>
            <Time>2021-08-04T12:54:16.000Z</Time>
            <Position>
              <LatitudeDegrees>40.925010703504085540771484375</LatitudeDegrees>
              <LongitudeDegrees>-0.9031646512448787689208984375</LongitudeDegrees>
            </Position>
            <AltitudeMeters>1176.5999755859375</AltitudeMeters>
            <DistanceMeters>623381.29792193</DistanceMeters>
          </Trackpoint>
          <Trackpoint>
            <Time>2021-08-04T12:54:19.000Z</Time>
            <Position>
              <LatitudeDegrees>40.92497323639690876007080078125</LatitudeDegrees>
              <LongitudeDegrees>-0.90314336121082305908203125</LongitudeDegrees>
            </Position>
            <AltitudeMeters>1177.199951171875</AltitudeMeters>
            <DistanceMeters>623385.83538535</DistanceMeters>
          </Trackpoint>
          <Trackpoint>
            <Time>2021-08-04T12:54:27.000Z</Time>
            <Position>
              <LatitudeDegrees>40.9248864836990833282470703125</LatitudeDegrees>
              <LongitudeDegrees>-0.9030677564442157745361328125</LongitudeDegrees>
            </Position>
            <AltitudeMeters>1178.199951171875</AltitudeMeters>
            <DistanceMeters>623397.39666519</DistanceMeters>
          </Trackpoint>
          <Trackpoint>
            <Time>2021-08-04T12:54:38.000Z</Time>
            <Position>
              <LatitudeDegrees>40.924770645797252655029296875</LatitudeDegrees>
              <LongitudeDegrees>-0.902929790318012237548828125</LongitudeDegrees>
            </Position>
            <AltitudeMeters>1179.4000244140625</AltitudeMeters>
            <DistanceMeters>623414.74157876</DistanceMeters>
          </Trackpoint>
          <Trackpoint>
            <Time>2021-08-04T12:54:48.000Z</Time>
            <Position>
              <LatitudeDegrees>40.92466981150209903717041015625</LatitudeDegrees>
              <LongitudeDegrees>-0.90278939343988895416259765625</LongitudeDegrees>
            </Position>
            <AltitudeMeters>1180.5999755859375</AltitudeMeters>
            <DistanceMeters>623431.03110903</DistanceMeters>
          </Trackpoint>
          <Trackpoint>
            <Time>2021-08-04T12:54:54.000Z</Time>
            <Position>
              <LatitudeDegrees>40.92460527084767818450927734375</LatitudeDegrees>
              <LongitudeDegrees>-0.9027137048542499542236328125</LongitudeDegrees>
            </Position>
            <AltitudeMeters>1181.800048828125</AltitudeMeters>
            <DistanceMeters>623440.62833674</DistanceMeters>
          </Trackpoint>
          <Trackpoint>
            <Time>2021-08-04T12:55:03.000Z</Time>
            <Position>
              <LatitudeDegrees>40.92452128417789936065673828125</LatitudeDegrees>
              <LongitudeDegrees>-0.90256777592003345489501953125</LongitudeDegrees>
            </Position>
            <AltitudeMeters>1182.800048828125</AltitudeMeters>
            <DistanceMeters>623456.05518556</DistanceMeters>
          </Trackpoint>
          <Trackpoint>
            <Time>2021-08-04T12:55:11.000Z</Time>
            <Position>
              <LatitudeDegrees>40.9245703183114528656005859375</LatitudeDegrees>
              <LongitudeDegrees>-0.90232662856578826904296875</LongitudeDegrees>
            </Position>
            <AltitudeMeters>1181.5999755859375</AltitudeMeters>
            <DistanceMeters>623477.05651942</DistanceMeters>
          </Trackpoint>
          <Trackpoint>
            <Time>2021-08-04T12:55:31.000Z</Time>
            <Position>
              <LatitudeDegrees>40.9246310032904148101806640625</LatitudeDegrees>
              <LongitudeDegrees>-0.90161106549203395843505859375</LongitudeDegrees>
            </Position>
            <AltitudeMeters>1182.199951171875</AltitudeMeters>
            <DistanceMeters>623537.61098368</DistanceMeters>
          </Trackpoint>
          <Trackpoint>
            <Time>2021-08-04T12:55:46.000Z</Time>
            <Position>
              <LatitudeDegrees>40.92442422173917293548583984375</LatitudeDegrees>
              <LongitudeDegrees>-0.901105888187885284423828125</LongitudeDegrees>
            </Position>
            <AltitudeMeters>1182.800048828125</AltitudeMeters>
            <DistanceMeters>623585.9283069</DistanceMeters>
          </Trackpoint>
          <Trackpoint>
            <Time>2021-08-04T12:56:03.000Z</Time>
            <Position>
              <LatitudeDegrees>40.92422758229076862335205078125</LatitudeDegrees>
              <LongitudeDegrees>-0.9004321508109569549560546875</LongitudeDegrees>
            </Position>
            <AltitudeMeters>1182.199951171875</AltitudeMeters>
            <DistanceMeters>623646.66792282</DistanceMeters>
          </Trackpoint>
          <Trackpoint>
            <Time>2021-08-04T12:56:05.000Z</Time>
            <Position>
              <LatitudeDegrees>40.924207381904125213623046875</LatitudeDegrees>
              <LongitudeDegrees>-0.9002916701138019561767578125</LongitudeDegrees>
            </Position>
            <AltitudeMeters>1181.4000244140625</AltitudeMeters>
            <DistanceMeters>623658.69396557</DistanceMeters>
          </Trackpoint>
          <Trackpoint>
            <Time>2021-08-04T12:56:07.000Z</Time>
            <Position>
              <LatitudeDegrees>40.9241860918700695037841796875</LatitudeDegrees>
              <LongitudeDegrees>-0.9001211822032928466796875</LongitudeDegrees>
            </Position>
            <AltitudeMeters>1179.5999755859375</AltitudeMeters>
            <DistanceMeters>623673.22590858</DistanceMeters>
          </Trackpoint>
          <Trackpoint>
            <Time>2021-08-04T12:56:08.000Z</Time>
            <Position>
              <LatitudeDegrees>40.92416857369244098663330078125</LatitudeDegrees>
              <LongitudeDegrees>-0.9000375308096408843994140625</LongitudeDegrees>
            </Position>
            <AltitudeMeters>1178.4000244140625</AltitudeMeters>
            <DistanceMeters>623680.52566756</DistanceMeters>
          </Trackpoint>
          <Trackpoint>
            <Time>2021-08-04T12:56:10.000Z</Time>
            <Position>
              <LatitudeDegrees>40.924096405506134033203125</LatitudeDegrees>
              <LongitudeDegrees>-0.8999057672917842864990234375</LongitudeDegrees>
            </Position>
            <AltitudeMeters>1176.800048828125</AltitudeMeters>
            <DistanceMeters>623694.21182391</DistanceMeters>
          </Trackpoint>
          <Trackpoint>
            <Time>2021-08-04T12:56:13.000Z</Time>
            <Position>
              <LatitudeDegrees>40.92396019957959651947021484375</LatitudeDegrees>
              <LongitudeDegrees>-0.89976050890982151031494140625</LongitudeDegrees>
            </Position>
            <AltitudeMeters>1175</AltitudeMeters>
            <DistanceMeters>623713.6811721</DistanceMeters>
          </Trackpoint>
          <Trackpoint>
            <Time>2021-08-04T12:56:15.000Z</Time>
            <Position>
              <LatitudeDegrees>40.923881828784942626953125</LatitudeDegrees>
              <LongitudeDegrees>-0.89960955083370208740234375</LongitudeDegrees>
            </Position>
            <AltitudeMeters>1173</AltitudeMeters>
            <DistanceMeters>623729.08400296</DistanceMeters>
          </Trackpoint>
          <Trackpoint>
            <Time>2021-08-04T12:56:16.000Z</Time>
            <Position>
              <LatitudeDegrees>40.92384369112551212310791015625</LatitudeDegrees>
              <LongitudeDegrees>-0.89952179230749607086181640625</LongitudeDegrees>
            </Position>
            <AltitudeMeters>1171.5999755859375</AltitudeMeters>
            <DistanceMeters>623737.59831172</DistanceMeters>
          </Trackpoint>
          <Trackpoint>
            <Time>2021-08-04T12:56:25.000Z</Time>
            <Position>
              <LatitudeDegrees>40.92358653433620929718017578125</LatitudeDegrees>
              <LongitudeDegrees>-0.89895232580602169036865234375</LongitudeDegrees>
            </Position>
            <AltitudeMeters>1172.800048828125</AltitudeMeters>
            <DistanceMeters>623793.3904048</DistanceMeters>
          </Trackpoint>
          <Trackpoint>
            <Time>2021-08-04T12:56:33.000Z</Time>
            <Position>
              <LatitudeDegrees>40.92335821129381656646728515625</LatitudeDegrees>
              <LongitudeDegrees>-0.8986030519008636474609375</LongitudeDegrees>
            </Position>
            <AltitudeMeters>1174</AltitudeMeters>
            <DistanceMeters>623832.231114</DistanceMeters>
          </Trackpoint>
          <Trackpoint>
            <Time>2021-08-04T12:56:37.000Z</Time>
            <Position>
              <LatitudeDegrees>40.9232416190207004547119140625</LatitudeDegrees>
              <LongitudeDegrees>-0.8984409458935260772705078125</LongitudeDegrees>
            </Position>
            <AltitudeMeters>1173.5999755859375</AltitudeMeters>
            <DistanceMeters>623851.05288143</DistanceMeters>
          </Trackpoint>
          <Trackpoint>
            <Time>2021-08-04T12:56:39.000Z</Time>
            <Position>
              <LatitudeDegrees>40.92317179776728153228759765625</LatitudeDegrees>
              <LongitudeDegrees>-0.898370705544948577880859375</LongitudeDegrees>
            </Position>
            <AltitudeMeters>1172.800048828125</AltitudeMeters>
            <DistanceMeters>623860.81384125</DistanceMeters>
          </Trackpoint>
          <Trackpoint>
            <Time>2021-08-04T12:56:42.000Z</Time>
            <Position>
              <LatitudeDegrees>40.923071801662445068359375</LatitudeDegrees>
              <LongitudeDegrees>-0.8982545323669910430908203125</LongitudeDegrees>
            </Position>
            <AltitudeMeters>1171.800048828125</AltitudeMeters>
            <DistanceMeters>623875.62338198</DistanceMeters>
          </Trackpoint>
          <Trackpoint>
            <Time>2021-08-04T12:56:44.000Z</Time>
            <Position>
              <LatitudeDegrees>40.92306165955960750579833984375</LatitudeDegrees>
              <LongitudeDegrees>-0.89814213104546070098876953125</LongitudeDegrees>
            </Position>
            <AltitudeMeters>1170.4000244140625</AltitudeMeters>
            <DistanceMeters>623885.14314286</DistanceMeters>
          </Trackpoint>
          <Trackpoint>
            <Time>2021-08-04T12:56:46.000Z</Time>
            <Position>
              <LatitudeDegrees>40.923101641237735748291015625</LatitudeDegrees>
              <LongitudeDegrees>-0.89802612550556659698486328125</LongitudeDegrees>
            </Position>
            <AltitudeMeters>1168.800048828125</AltitudeMeters>
            <DistanceMeters>623895.86559282</DistanceMeters>
          </Trackpoint>
          <Trackpoint>
            <Time>2021-08-04T12:56:48.000Z</Time>
            <Position>
              <LatitudeDegrees>40.92314430512487888336181640625</LatitudeDegrees>
              <LongitudeDegrees>-0.89787340722978115081787109375</LongitudeDegrees>
            </Position>
            <AltitudeMeters>1167.199951171875</AltitudeMeters>
            <DistanceMeters>623909.55867528</DistanceMeters>
          </Trackpoint>
          <Trackpoint>
            <Time>2021-08-04T12:56:49.000Z</Time>
            <Position>
              <LatitudeDegrees>40.92316593043506145477294921875</LatitudeDegrees>
              <LongitudeDegrees>-0.8977901749312877655029296875</LongitudeDegrees>
            </Position>
            <AltitudeMeters>1165.5999755859375</AltitudeMeters>
            <DistanceMeters>623916.96100626</DistanceMeters>
          </Trackpoint>
          <Trackpoint>
            <Time>2021-08-04T12:56:50.000Z</Time>
            <Position>
              <LatitudeDegrees>40.92318219132721424102783203125</LatitudeDegrees>
              <LongitudeDegrees>-0.89770224876701831817626953125</LongitudeDegrees>
            </Position>
            <AltitudeMeters>1164.5999755859375</AltitudeMeters>
            <DistanceMeters>623924.5732333</DistanceMeters>
          </Trackpoint>
          <Trackpoint>
            <Time>2021-08-04T12:56:52.000Z</Time>
            <Position>
              <LatitudeDegrees>40.92318688519299030303955078125</LatitudeDegrees>
              <LongitudeDegrees>-0.89751549996435642242431640625</LongitudeDegrees>
            </Position>
            <AltitudeMeters>1163.199951171875</AltitudeMeters>
            <DistanceMeters>623940.28715835</DistanceMeters>
          </Trackpoint>
          <Trackpoint>
            <Time>2021-08-04T12:56:54.000Z</Time>
            <Position>
              <LatitudeDegrees>40.92316157184541225433349609375</LatitudeDegrees>
              <LongitudeDegrees>-0.8973209559917449951171875</LongitudeDegrees>
            </Position>
            <AltitudeMeters>1161.199951171875</AltitudeMeters>
            <DistanceMeters>623956.8888448</DistanceMeters>
          </Trackpoint>
          <Trackpoint>
            <Time>2021-08-04T12:56:56.000Z</Time>
            <Position>
              <LatitudeDegrees>40.92312301509082317352294921875</LatitudeDegrees>
              <LongitudeDegrees>-0.897116102278232574462890625</LongitudeDegrees>
            </Position>
            <AltitudeMeters>1159.800048828125</AltitudeMeters>
            <DistanceMeters>623974.64333462</DistanceMeters>
          </Trackpoint>
          <Trackpoint>
            <Time>2021-08-04T12:56:58.000Z</Time>
            <Position>
              <LatitudeDegrees>40.92306802980601787567138671875</LatitudeDegrees>
              <LongitudeDegrees>-0.896938405930995941162109375</LongitudeDegrees>
            </Position>
            <AltitudeMeters>1158.800048828125</AltitudeMeters>
            <DistanceMeters>623990.79200569</DistanceMeters>
          </Trackpoint>
          <Trackpoint>
            <Time>2021-08-04T12:56:59.000Z</Time>
            <Position>
              <LatitudeDegrees>40.92305009253323078155517578125</LatitudeDegrees>
              <LongitudeDegrees>-0.89686037041246891021728515625</LongitudeDegrees>
            </Position>
            <AltitudeMeters>1158.4000244140625</AltitudeMeters>
            <DistanceMeters>623997.65106527</DistanceMeters>
          </Trackpoint>
          <Trackpoint>
            <Time>2021-08-04T12:57:03.000Z</Time>
            <Position>
              <LatitudeDegrees>40.923069454729557037353515625</LatitudeDegrees>
              <LongitudeDegrees>-0.89657756499946117401123046875</LongitudeDegrees>
            </Position>
            <AltitudeMeters>1157.5999755859375</AltitudeMeters>
            <DistanceMeters>624021.53190441</DistanceMeters>
          </Trackpoint>
          <Trackpoint>
            <Time>2021-08-04T12:57:07.000Z</Time>
            <Position>
              <LatitudeDegrees>40.9231162257492542266845703125</LatitudeDegrees>
              <LongitudeDegrees>-0.89633214287459850311279296875</LongitudeDegrees>
            </Position>
            <AltitudeMeters>1156.4000244140625</AltitudeMeters>
            <DistanceMeters>624042.81788843</DistanceMeters>
          </Trackpoint>
          <Trackpoint>
            <Time>2021-08-04T12:57:09.000Z</Time>
            <Position>
              <LatitudeDegrees>40.92314061708748340606689453125</LatitudeDegrees>
              <LongitudeDegrees>-0.89621395803987979888916015625</LongitudeDegrees>
            </Position>
            <AltitudeMeters>1154.800048828125</AltitudeMeters>
            <DistanceMeters>624053.12116842</DistanceMeters>
          </Trackpoint>
          <Trackpoint>
            <Time>2021-08-04T12:57:11.000Z</Time>
            <Position>
              <LatitudeDegrees>40.9231634996831417083740234375</LatitudeDegrees>
              <LongitudeDegrees>-0.896115638315677642822265625</LongitudeDegrees>
            </Position>
            <AltitudeMeters>1153.4000244140625</AltitudeMeters>
            <DistanceMeters>624061.77329728</DistanceMeters>
          </Trackpoint>
          <Trackpoint>
            <Time>2021-08-04T12:57:12.000Z</Time>
            <Position>
              <LatitudeDegrees>40.923168025910854339599609375</LatitudeDegrees>
              <LongitudeDegrees>-0.89606492780148983001708984375</LongitudeDegrees>
            </Position>
            <AltitudeMeters>1152.800048828125</AltitudeMeters>
            <DistanceMeters>624066.0674114</DistanceMeters>
          </Trackpoint>
          <Trackpoint>
            <Time>2021-08-04T12:57:13.000Z</Time>
            <Position>
              <LatitudeDegrees>40.9231668524444103240966796875</LatitudeDegrees>
              <LongitudeDegrees>-0.896007008850574493408203125</LongitudeDegrees>
            </Position>
            <AltitudeMeters>1152</AltitudeMeters>
            <DistanceMeters>624070.94071634</DistanceMeters>
          </Trackpoint>
          <Trackpoint>
            <Time>2021-08-04T12:57:15.000Z</Time>
            <Position>
              <LatitudeDegrees>40.9231509268283843994140625</LatitudeDegrees>
              <LongitudeDegrees>-0.89586074464023113250732421875</LongitudeDegrees>
            </Position>
            <AltitudeMeters>1150.5999755859375</AltitudeMeters>
            <DistanceMeters>624083.36852498</DistanceMeters>
          </Trackpoint>
          <Trackpoint>
            <Time>2021-08-04T12:57:16.000Z</Time>
            <Position>
              <LatitudeDegrees>40.92313148081302642822265625</LatitudeDegrees>
              <LongitudeDegrees>-0.89577876962721347808837890625</LongitudeDegrees>
            </Position>
            <AltitudeMeters>1149.5999755859375</AltitudeMeters>
            <DistanceMeters>624090.59430535</DistanceMeters>
          </Trackpoint>
          <Trackpoint>
            <Time>2021-08-04T12:57:18.000Z</Time>
            <Position>
              <LatitudeDegrees>40.92306668870151042938232421875</LatitudeDegrees>
              <LongitudeDegrees>-0.89561582542955875396728515625</LongitudeDegrees>
            </Position>
            <AltitudeMeters>1148.199951171875</AltitudeMeters>
            <DistanceMeters>624106.07928678</DistanceMeters>
          </Trackpoint>
          <Trackpoint>
            <Time>2021-08-04T12:57:19.000Z</Time>
            <Position>
              <LatitudeDegrees>40.9230270422995090484619140625</LatitudeDegrees>
              <LongitudeDegrees>-0.89553686790168285369873046875</LongitudeDegrees>
            </Position>
            <AltitudeMeters>1147.5999755859375</AltitudeMeters>
            <DistanceMeters>624114.05247549</DistanceMeters>
          </Trackpoint>
          <Trackpoint>
            <Time>2021-08-04T12:57:20.000Z</Time>
            <Position>
              <LatitudeDegrees>40.92298521660268306732177734375</LatitudeDegrees>
              <LongitudeDegrees>-0.895461849868297576904296875</LongitudeDegrees>
            </Position>
            <AltitudeMeters>1146.800048828125</AltitudeMeters>
            <DistanceMeters>624121.89318722</DistanceMeters>
          </Trackpoint>
          <Trackpoint>
            <Time>2021-08-04T12:57:22.000Z</Time>
            <Position>
              <LatitudeDegrees>40.9229050017893314361572265625</LatitudeDegrees>
              <LongitudeDegrees>-0.89530301280319690704345703125</LongitudeDegrees>
            </Position>
            <AltitudeMeters>1145.5999755859375</AltitudeMeters>
            <DistanceMeters>624137.96029104</DistanceMeters>
          </Trackpoint>
          <Trackpoint>
            <Time>2021-08-04T12:57:24.000Z</Time>
            <Position>
              <LatitudeDegrees>40.92282244004309177398681640625</LatitudeDegrees>
              <LongitudeDegrees>-0.8951456844806671142578125</LongitudeDegrees>
            </Position>
            <AltitudeMeters>1144.5999755859375</AltitudeMeters>
            <DistanceMeters>624154.06949142</DistanceMeters>
          </Trackpoint>
          <Trackpoint>
            <Time>2021-08-04T12:57:25.000Z</Time>
            <Position>
              <LatitudeDegrees>40.9227740764617919921875</LatitudeDegrees>
              <LongitudeDegrees>-0.89507997035980224609375</LongitudeDegrees>
            </Position>
            <AltitudeMeters>1144.199951171875</AltitudeMeters>
            <DistanceMeters>624161.78364749</DistanceMeters>
          </Trackpoint>
          <Trackpoint>
            <Time>2021-08-04T12:57:28.000Z</Time>
            <Position>
              <LatitudeDegrees>40.92259797267615795135498046875</LatitudeDegrees>
              <LongitudeDegrees>-0.8949081413447856903076171875</LongitudeDegrees>
            </Position>
            <AltitudeMeters>1143.199951171875</AltitudeMeters>
            <DistanceMeters>624186.13534394</DistanceMeters>
          </Trackpoint>
          <Trackpoint>
            <Time>2021-08-04T12:57:31.000Z</Time>
            <Position>
              <LatitudeDegrees>40.9224379621446132659912109375</LatitudeDegrees>
              <LongitudeDegrees>-0.894719548523426055908203125</LongitudeDegrees>
            </Position>
            <AltitudeMeters>1142.199951171875</AltitudeMeters>
            <DistanceMeters>624209.98345234</DistanceMeters>
          </Trackpoint>
          <Trackpoint>
            <Time>2021-08-04T12:57:32.000Z</Time>
            <Position>
              <LatitudeDegrees>40.9223883412778377532958984375</LatitudeDegrees>
              <LongitudeDegrees>-0.89467772282660007476806640625</LongitudeDegrees>
            </Position>
            <AltitudeMeters>1141.800048828125</AltitudeMeters>
            <DistanceMeters>624216.53064815</DistanceMeters>
          </Trackpoint>
          <Trackpoint>
            <Time>2021-08-04T12:57:35.000Z</Time>
            <Position>
              <LatitudeDegrees>40.92224098742008209228515625</LatitudeDegrees>
              <LongitudeDegrees>-0.89461301453411579132080078125</LongitudeDegrees>
            </Position>
            <AltitudeMeters>1142</AltitudeMeters>
            <DistanceMeters>624233.81036191</DistanceMeters>
          </Trackpoint>
          <Trackpoint>
            <Time>2021-08-04T12:57:39.000Z</Time>
            <Position>
              <LatitudeDegrees>40.92207603156566619873046875</LatitudeDegrees>
              <LongitudeDegrees>-0.89459038339555263519287109375</LongitudeDegrees>
            </Position>
            <AltitudeMeters>1143</AltitudeMeters>
            <DistanceMeters>624252.26855208</DistanceMeters>
          </Trackpoint>
          <Trackpoint>
            <Time>2021-08-04T12:57:41.000Z</Time>
            <Position>
              <LatitudeDegrees>40.922007970511913299560546875</LatitudeDegrees>
              <LongitudeDegrees>-0.89457412250339984893798828125</LongitudeDegrees>
            </Position>
            <AltitudeMeters>1143.4000244140625</AltitudeMeters>
            <DistanceMeters>624259.9663025</DistanceMeters>
          </Trackpoint>
          <Trackpoint>
            <Time>2021-08-04T12:57:45.000Z</Time>
            <Position>
              <LatitudeDegrees>40.92196580953896045684814453125</LatitudeDegrees>
              <LongitudeDegrees>-0.89439307339489459991455078125</LongitudeDegrees>
            </Position>
            <AltitudeMeters>1141.800048828125</AltitudeMeters>
            <DistanceMeters>624275.89908346</DistanceMeters>
          </Trackpoint>
          <Trackpoint>
            <Time>2021-08-04T12:57:47.000Z</Time>
            <Position>
              <LatitudeDegrees>40.92195943929255008697509765625</LatitudeDegrees>
              <LongitudeDegrees>-0.89426902122795581817626953125</LongitudeDegrees>
            </Position>
            <AltitudeMeters>1140.199951171875</AltitudeMeters>
            <DistanceMeters>624286.35590877</DistanceMeters>
          </Trackpoint>
          <Trackpoint>
            <Time>2021-08-04T12:57:49.000Z</Time>
            <Position>
              <LatitudeDegrees>40.9219166077673435211181640625</LatitudeDegrees>
              <LongitudeDegrees>-0.89414681307971477508544921875</LongitudeDegrees>
            </Position>
            <AltitudeMeters>1139</AltitudeMeters>
            <DistanceMeters>624297.68522943</DistanceMeters>
          </Trackpoint>
          <Trackpoint>
            <Time>2021-08-04T12:57:51.000Z</Time>
            <Position>
              <LatitudeDegrees>40.9218746982514858245849609375</LatitudeDegrees>
              <LongitudeDegrees>-0.8940111100673675537109375</LongitudeDegrees>
            </Position>
            <AltitudeMeters>1137.800048828125</AltitudeMeters>
            <DistanceMeters>624310.01455654</DistanceMeters>
          </Trackpoint>
          <Trackpoint>
            <Time>2021-08-04T12:57:52.000Z</Time>
            <Position>
              <LatitudeDegrees>40.921863131225109100341796875</LatitudeDegrees>
              <LongitudeDegrees>-0.89393877424299716949462890625</LongitudeDegrees>
            </Position>
            <AltitudeMeters>1136.5999755859375</AltitudeMeters>
            <DistanceMeters>624316.23281894</DistanceMeters>
          </Trackpoint>
          <Trackpoint>
            <Time>2021-08-04T12:57:53.000Z</Time>
            <Position>
              <LatitudeDegrees>40.92185768298804759979248046875</LatitudeDegrees>
              <LongitudeDegrees>-0.89386694133281707763671875</LongitudeDegrees>
            </Position>
            <AltitudeMeters>1135.4000244140625</AltitudeMeters>
            <DistanceMeters>624322.30412622</DistanceMeters>
          </Trackpoint>
          <Trackpoint>
            <Time>2021-08-04T12:57:54.000Z</Time>
            <Position>
              <LatitudeDegrees>40.9218502230942249298095703125</LatitudeDegrees>
              <LongitudeDegrees>-0.8937980420887470245361328125</LongitudeDegrees>
            </Position>
            <AltitudeMeters>1134.4000244140625</AltitudeMeters>
            <DistanceMeters>624328.15733987</DistanceMeters>
          </Trackpoint>
          <Trackpoint>
            <Time>2021-08-04T12:57:56.000Z</Time>
            <Position>
              <LatitudeDegrees>40.92181577347218990325927734375</LatitudeDegrees>
              <LongitudeDegrees>-0.89366912841796875</LongitudeDegrees>
            </Position>
            <AltitudeMeters>1133.199951171875</AltitudeMeters>
            <DistanceMeters>624339.65675026</DistanceMeters>
          </Trackpoint>
          <Trackpoint>
            <Time>2021-08-04T12:57:57.000Z</Time>
            <Position>
              <LatitudeDegrees>40.921795070171356201171875</LatitudeDegrees>
              <LongitudeDegrees>-0.89360936544835567474365234375</LongitudeDegrees>
            </Position>
            <AltitudeMeters>1132.800048828125</AltitudeMeters>
            <DistanceMeters>624345.18629263</DistanceMeters>
          </Trackpoint>
          <Trackpoint>
            <Time>2021-08-04T12:57:59.000Z</Time>
            <Position>
              <LatitudeDegrees>40.92173262499272823333740234375</LatitudeDegrees>
              <LongitudeDegrees>-0.893503837287425994873046875</LongitudeDegrees>
            </Position>
            <AltitudeMeters>1131.5999755859375</AltitudeMeters>
            <DistanceMeters>624356.45888043</DistanceMeters>
          </Trackpoint>
          <Trackpoint>
            <Time>2021-08-04T12:58:01.000Z</Time>
            <Position>
              <LatitudeDegrees>40.921641178429126739501953125</LatitudeDegrees>
              <LongitudeDegrees>-0.8934191800653934478759765625</LongitudeDegrees>
            </Position>
            <AltitudeMeters>1130.5999755859375</AltitudeMeters>
            <DistanceMeters>624368.87978443</DistanceMeters>
          </Trackpoint>
          <Trackpoint>
            <Time>2021-08-04T12:58:02.000Z</Time>
            <Position>
              <LatitudeDegrees>40.92159993946552276611328125</LatitudeDegrees>
              <LongitudeDegrees>-0.89337953366339206695556640625</LongitudeDegrees>
            </Position>
            <AltitudeMeters>1130.199951171875</AltitudeMeters>
            <DistanceMeters>624374.55280765</DistanceMeters>
          </Trackpoint>
          <Trackpoint>
            <Time>2021-08-04T12:58:06.000Z</Time>
            <Position>
              <LatitudeDegrees>40.9215545095503330230712890625</LatitudeDegrees>
              <LongitudeDegrees>-0.89316244237124919891357421875</LongitudeDegrees>
            </Position>
            <AltitudeMeters>1128.5999755859375</AltitudeMeters>
            <DistanceMeters>624393.49747413</DistanceMeters>
          </Trackpoint>
          <Trackpoint>
            <Time>2021-08-04T12:58:08.000Z</Time>
            <Position>
              <LatitudeDegrees>40.92154889367520809173583984375</LatitudeDegrees>
              <LongitudeDegrees>-0.89306688867509365081787109375</LongitudeDegrees>
            </Position>
            <AltitudeMeters>1127.5999755859375</AltitudeMeters>
            <DistanceMeters>624401.55851812</DistanceMeters>
          </Trackpoint>
          <Trackpoint>
            <Time>2021-08-04T12:58:11.000Z</Time>
            <Position>
              <LatitudeDegrees>40.92147479765117168426513671875</LatitudeDegrees>
              <LongitudeDegrees>-0.892920792102813720703125</LongitudeDegrees>
            </Position>
            <AltitudeMeters>1126.4000244140625</AltitudeMeters>
            <DistanceMeters>624416.35646912</DistanceMeters>
          </Trackpoint>
          <Trackpoint>
            <Time>2021-08-04T12:58:12.000Z</Time>
            <Position>
              <LatitudeDegrees>40.92145107686519622802734375</LatitudeDegrees>
              <LongitudeDegrees>-0.89286983013153076171875</LongitudeDegrees>
            </Position>
            <AltitudeMeters>1125.800048828125</AltitudeMeters>
            <DistanceMeters>624421.38929779</DistanceMeters>
          </Trackpoint>
          <Trackpoint>
            <Time>2021-08-04T12:58:14.000Z</Time>
            <Position>
              <LatitudeDegrees>40.92142685316503047943115234375</LatitudeDegrees>
              <LongitudeDegrees>-0.89278140105307102203369140625</LongitudeDegrees>
            </Position>
            <AltitudeMeters>1125.4000244140625</AltitudeMeters>
            <DistanceMeters>624429.29995071</DistanceMeters>
          </Trackpoint>
          <Trackpoint>
            <Time>2021-08-04T12:58:16.000Z</Time>
            <Position>
              <LatitudeDegrees>40.9213952533900737762451171875</LatitudeDegrees>
              <LongitudeDegrees>-0.8927181176841259002685546875</LongitudeDegrees>
            </Position>
            <AltitudeMeters>1124.199951171875</AltitudeMeters>
            <DistanceMeters>624435.67878481</DistanceMeters>
          </Trackpoint>
          <Trackpoint>
            <Time>2021-08-04T12:58:18.000Z</Time>
            <Position>
              <LatitudeDegrees>40.92134110629558563232421875</LatitudeDegrees>
              <LongitudeDegrees>-0.89265064336359500885009765625</LongitudeDegrees>
            </Position>
            <AltitudeMeters>1123.199951171875</AltitudeMeters>
            <DistanceMeters>624443.95647894</DistanceMeters>
          </Trackpoint>
          <Trackpoint>
            <Time>2021-08-04T12:58:20.000Z</Time>
            <Position>
              <LatitudeDegrees>40.9212748892605304718017578125</LatitudeDegrees>
              <LongitudeDegrees>-0.892577469348907470703125</LongitudeDegrees>
            </Position>
            <AltitudeMeters>1122.199951171875</AltitudeMeters>
            <DistanceMeters>624453.55841002</DistanceMeters>
          </Trackpoint>
          <Trackpoint>
            <Time>2021-08-04T12:58:22.000Z</Time>
            <Position>
              <LatitudeDegrees>40.92119903303682804107666015625</LatitudeDegrees>
              <LongitudeDegrees>-0.89250396005809307098388671875</LongitudeDegrees>
            </Position>
            <AltitudeMeters>1121.199951171875</AltitudeMeters>
            <DistanceMeters>624464.02257301</DistanceMeters>
          </Trackpoint>
          <Trackpoint>
            <Time>2021-08-04T12:58:23.000Z</Time>
            <Position>
              <LatitudeDegrees>40.9211572073400020599365234375</LatitudeDegrees>
              <LongitudeDegrees>-0.89247219264507293701171875</LongitudeDegrees>
            </Position>
            <AltitudeMeters>1120.800048828125</AltitudeMeters>
            <DistanceMeters>624469.3888486</DistanceMeters>
          </Trackpoint>
          <Trackpoint>
            <Time>2021-08-04T12:58:25.000Z</Time>
            <Position>
              <LatitudeDegrees>40.92107045464217662811279296875</LatitudeDegrees>
              <LongitudeDegrees>-0.892406143248081207275390625</LongitudeDegrees>
            </Position>
            <AltitudeMeters>1120.5999755859375</AltitudeMeters>
            <DistanceMeters>624480.52847654</DistanceMeters>
          </Trackpoint>
          <Trackpoint>
            <Time>2021-08-04T12:58:29.000Z</Time>
            <Position>
              <LatitudeDegrees>40.92093701474368572235107421875</LatitudeDegrees>
              <LongitudeDegrees>-0.89220531284809112548828125</LongitudeDegrees>
            </Position>
            <AltitudeMeters>1120.4000244140625</AltitudeMeters>
            <DistanceMeters>624503.02011748</DistanceMeters>
          </Trackpoint>
          <Trackpoint>
            <Time>2021-08-04T12:58:30.000Z</Time>
            <Position>
              <LatitudeDegrees>40.920909605920314788818359375</LatitudeDegrees>
              <LongitudeDegrees>-0.8921488188207149505615234375</LongitudeDegrees>
            </Position>
            <AltitudeMeters>1120</AltitudeMeters>
            <DistanceMeters>624508.66761516</DistanceMeters>
          </Trackpoint>
          <Trackpoint>
            <Time>2021-08-04T12:58:31.000Z</Time>
            <Position>
              <LatitudeDegrees>40.9208806045353412628173828125</LatitudeDegrees>
              <LongitudeDegrees>-0.89209827594459056854248046875</LongitudeDegrees>
            </Position>
            <AltitudeMeters>1119.5999755859375</AltitudeMeters>
            <DistanceMeters>624514.00605325</DistanceMeters>
          </Trackpoint>
          <Trackpoint>
            <Time>2021-08-04T12:58:34.000Z</Time>
            <Position>
              <LatitudeDegrees>40.92077591456472873687744140625</LatitudeDegrees>
              <LongitudeDegrees>-0.8919731341302394866943359375</LongitudeDegrees>
            </Position>
            <AltitudeMeters>1118.4000244140625</AltitudeMeters>
            <DistanceMeters>624529.70761836</DistanceMeters>
          </Trackpoint>
          <Trackpoint>
            <Time>2021-08-04T12:58:35.000Z</Time>
            <Position>
              <LatitudeDegrees>40.92072947882115840911865234375</LatitudeDegrees>
              <LongitudeDegrees>-0.89192493818700313568115234375</LongitudeDegrees>
            </Position>
            <AltitudeMeters>1117.4000244140625</AltitudeMeters>
            <DistanceMeters>624536.27753202</DistanceMeters>
          </Trackpoint>
          <Trackpoint>
            <Time>2021-08-04T12:58:37.000Z</Time>
            <Position>
              <LatitudeDegrees>40.92064130119979381561279296875</LatitudeDegrees>
              <LongitudeDegrees>-0.89184589684009552001953125</LongitudeDegrees>
            </Position>
            <AltitudeMeters>1116.199951171875</AltitudeMeters>
            <DistanceMeters>624548.13113862</DistanceMeters>
          </Trackpoint>
          <Trackpoint>
            <Time>2021-08-04T12:58:39.000Z</Time>
            <Position>
              <LatitudeDegrees>40.9205453284084796905517578125</LatitudeDegrees>
              <LongitudeDegrees>-0.891800634562969207763671875</LongitudeDegrees>
            </Position>
            <AltitudeMeters>1114.800048828125</AltitudeMeters>
            <DistanceMeters>624559.4712144</DistanceMeters>
          </Trackpoint>
          <Trackpoint>
            <Time>2021-08-04T12:58:41.000Z</Time>
            <Position>
              <LatitudeDegrees>40.92043896205723285675048828125</LatitudeDegrees>
              <LongitudeDegrees>-0.8917622454464435577392578125</LongitudeDegrees>
            </Position>
            <AltitudeMeters>1113.800048828125</AltitudeMeters>
            <DistanceMeters>624571.74180911</DistanceMeters>
          </Trackpoint>
          <Trackpoint>
            <Time>2021-08-04T12:58:42.000Z</Time>
            <Position>
              <LatitudeDegrees>40.92039068229496479034423828125</LatitudeDegrees>
              <LongitudeDegrees>-0.891750343143939971923828125</LongitudeDegrees>
            </Position>
            <AltitudeMeters>1113.4000244140625</AltitudeMeters>
            <DistanceMeters>624577.20729105</DistanceMeters>
          </Trackpoint>
          <Trackpoint>
            <Time>2021-08-04T12:58:45.000Z</Time>
            <Position>
              <LatitudeDegrees>40.9202700667083263397216796875</LatitudeDegrees>
              <LongitudeDegrees>-0.89170784689486026763916015625</LongitudeDegrees>
            </Position>
            <AltitudeMeters>1112.800048828125</AltitudeMeters>
            <DistanceMeters>624591.0997287</DistanceMeters>
          </Trackpoint>
          <Trackpoint>
            <Time>2021-08-04T12:58:48.000Z</Time>
            <Position>
              <LatitudeDegrees>40.920124389231204986572265625</LatitudeDegrees>
              <LongitudeDegrees>-0.891615562140941619873046875</LongitudeDegrees>
            </Position>
            <AltitudeMeters>1111.199951171875</AltitudeMeters>
            <DistanceMeters>624609.07560853</DistanceMeters>
          </Trackpoint>
          <Trackpoint>
            <Time>2021-08-04T12:58:50.000Z</Time>
            <Position>
              <LatitudeDegrees>40.9200095571577548980712890625</LatitudeDegrees>
              <LongitudeDegrees>-0.8915476687252521514892578125</LongitudeDegrees>
            </Position>
            <AltitudeMeters>1109.5999755859375</AltitudeMeters>
            <DistanceMeters>624623.07424021</DistanceMeters>
          </Trackpoint>
          <Trackpoint>
            <Time>2021-08-04T12:58:52.000Z</Time>
            <Position>
              <LatitudeDegrees>40.91989866457879543304443359375</LatitudeDegrees>
              <LongitudeDegrees>-0.8914749138057231903076171875</LongitudeDegrees>
            </Position>
            <AltitudeMeters>1108.199951171875</AltitudeMeters>
            <DistanceMeters>624636.85016437</DistanceMeters>
          </Trackpoint>
          <Trackpoint>
            <Time>2021-08-04T12:58:53.000Z</Time>
            <Position>
              <LatitudeDegrees>40.91984686441719532012939453125</LatitudeDegrees>
              <LongitudeDegrees>-0.8914361894130706787109375</LongitudeDegrees>
            </Position>
            <AltitudeMeters>1107.199951171875</AltitudeMeters>
            <DistanceMeters>624643.47210149</DistanceMeters>
          </Trackpoint>
          <Trackpoint>
            <Time>2021-08-04T12:58:54.000Z</Time>
            <Position>
              <LatitudeDegrees>40.9198000095784664154052734375</LatitudeDegrees>
              <LongitudeDegrees>-0.89139587245881557464599609375</LongitudeDegrees>
            </Position>
            <AltitudeMeters>1106.5999755859375</AltitudeMeters>
            <DistanceMeters>624649.69181591</DistanceMeters>
          </Trackpoint>
          <Trackpoint>
            <Time>2021-08-04T12:58:55.000Z</Time>
            <Position>
              <LatitudeDegrees>40.91975332237780094146728515625</LatitudeDegrees>
              <LongitudeDegrees>-0.8913619257509708404541015625</LongitudeDegrees>
            </Position>
            <AltitudeMeters>1106.4000244140625</AltitudeMeters>
            <DistanceMeters>624655.62166563</DistanceMeters>
          </Trackpoint>
          <Trackpoint>
            <Time>2021-08-04T12:59:01.000Z</Time>
            <Position>
              <LatitudeDegrees>40.919455848634243011474609375</LatitudeDegrees>
              <LongitudeDegrees>-0.891284979879856109619140625</LongitudeDegrees>
            </Position>
            <AltitudeMeters>1107.4000244140625</AltitudeMeters>
            <DistanceMeters>624689.35748761</DistanceMeters>
          </Trackpoint>
          <Trackpoint>
            <Time>2021-08-04T12:59:08.000Z</Time>
            <Position>
              <LatitudeDegrees>40.919118560850620269775390625</LatitudeDegrees>
              <LongitudeDegrees>-0.89107635430991649627685546875</LongitudeDegrees>
            </Position>
            <AltitudeMeters>1106.4000244140625</AltitudeMeters>
            <DistanceMeters>624730.79632684</DistanceMeters>
          </Trackpoint>
          <Trackpoint>
            <Time>2021-08-04T12:59:11.000Z</Time>
            <Position>
              <LatitudeDegrees>40.91899375431239604949951171875</LatitudeDegrees>
              <LongitudeDegrees>-0.8909478597342967987060546875</LongitudeDegrees>
            </Position>
            <AltitudeMeters>1105.199951171875</AltitudeMeters>
            <DistanceMeters>624748.39603372</DistanceMeters>
          </Trackpoint>
          <Trackpoint>
            <Time>2021-08-04T12:59:12.000Z</Time>
            <Position>
              <LatitudeDegrees>40.91895930469036102294921875</LatitudeDegrees>
              <LongitudeDegrees>-0.89089832268655300140380859375</LongitudeDegrees>
            </Position>
            <AltitudeMeters>1104.800048828125</AltitudeMeters>
            <DistanceMeters>624754.05790367</DistanceMeters>
          </Trackpoint>
          <Trackpoint>
            <Time>2021-08-04T12:59:14.000Z</Time>
            <Position>
              <LatitudeDegrees>40.9188920818269252777099609375</LatitudeDegrees>
              <LongitudeDegrees>-0.8908083848655223846435546875</LongitudeDegrees>
            </Position>
            <AltitudeMeters>1103.800048828125</AltitudeMeters>
            <DistanceMeters>624764.69707696</DistanceMeters>
          </Trackpoint>
          <Trackpoint>
            <Time>2021-08-04T12:59:17.000Z</Time>
            <Position>
              <LatitudeDegrees>40.91876995749771595001220703125</LatitudeDegrees>
              <LongitudeDegrees>-0.89069397188723087310791015625</LongitudeDegrees>
            </Position>
            <AltitudeMeters>1102.5999755859375</AltitudeMeters>
            <DistanceMeters>624781.35089838</DistanceMeters>
          </Trackpoint>
          <Trackpoint>
            <Time>2021-08-04T12:59:19.000Z</Time>
            <Position>
              <LatitudeDegrees>40.9186687879264354705810546875</LatitudeDegrees>
              <LongitudeDegrees>-0.890617780387401580810546875</LongitudeDegrees>
            </Position>
            <AltitudeMeters>1101</AltitudeMeters>
            <DistanceMeters>624794.30663305</DistanceMeters>
          </Trackpoint>
          <Trackpoint>
            <Time>2021-08-04T12:59:21.000Z</Time>
            <Position>
              <LatitudeDegrees>40.91855705715715885162353515625</LatitudeDegrees>
              <LongitudeDegrees>-0.890525244176387786865234375</LongitudeDegrees>
            </Position>
            <AltitudeMeters>1098.800048828125</AltitudeMeters>
            <DistanceMeters>624808.97710823</DistanceMeters>
          </Trackpoint>
          <Trackpoint>
            <Time>2021-08-04T12:59:24.000Z</Time>
            <Position>
              <LatitudeDegrees>40.91842009685933589935302734375</LatitudeDegrees>
              <LongitudeDegrees>-0.89039138518273830413818359375</LongitudeDegrees>
            </Position>
            <AltitudeMeters>1097.800048828125</AltitudeMeters>
            <DistanceMeters>624827.92773197</DistanceMeters>
          </Trackpoint>
          <Trackpoint>
            <Time>2021-08-04T12:59:27.000Z</Time>
            <Position>
              <LatitudeDegrees>40.91826436109840869903564453125</LatitudeDegrees>
              <LongitudeDegrees>-0.890264399349689483642578125</LongitudeDegrees>
            </Position>
            <AltitudeMeters>1096.199951171875</AltitudeMeters>
            <DistanceMeters>624848.28741343</DistanceMeters>
          </Trackpoint>
          <Trackpoint>
            <Time>2021-08-04T12:59:30.000Z</Time>
            <Position>
              <LatitudeDegrees>40.9181165881454944610595703125</LatitudeDegrees>
              <LongitudeDegrees>-0.89012349955737590789794921875</LongitudeDegrees>
            </Position>
            <AltitudeMeters>1094.4000244140625</AltitudeMeters>
            <DistanceMeters>624868.55908625</DistanceMeters>
          </Trackpoint>
          <Trackpoint>
            <Time>2021-08-04T12:59:33.000Z</Time>
            <Position>
              <LatitudeDegrees>40.91797652654349803924560546875</LatitudeDegrees>
              <LongitudeDegrees>-0.88999190367758274078369140625</LongitudeDegrees>
            </Position>
            <AltitudeMeters>1093</AltitudeMeters>
            <DistanceMeters>624887.6776488</DistanceMeters>
          </Trackpoint>
          <Trackpoint>
            <Time>2021-08-04T12:59:36.000Z</Time>
            <Position>
              <LatitudeDegrees>40.91784216463565826416015625</LatitudeDegrees>
              <LongitudeDegrees>-0.8898709528148174285888671875</LongitudeDegrees>
            </Position>
            <AltitudeMeters>1091.800048828125</AltitudeMeters>
            <DistanceMeters>624905.76420595</DistanceMeters>
          </Trackpoint>
          <Trackpoint>
            <Time>2021-08-04T12:59:38.000Z</Time>
            <Position>
              <LatitudeDegrees>40.9177554957568645477294921875</LatitudeDegrees>
              <LongitudeDegrees>-0.8898095972836017608642578125</LongitudeDegrees>
            </Position>
            <AltitudeMeters>1090.5999755859375</AltitudeMeters>
            <DistanceMeters>624916.70425317</DistanceMeters>
          </Trackpoint>
          <Trackpoint>
            <Time>2021-08-04T12:59:39.000Z</Time>
            <Position>
              <LatitudeDegrees>40.9177109040319919586181640625</LatitudeDegrees>
              <LongitudeDegrees>-0.8897723816335201263427734375</LongitudeDegrees>
            </Position>
            <AltitudeMeters>1089.800048828125</AltitudeMeters>
            <DistanceMeters>624922.57287409</DistanceMeters>
          </Trackpoint>
          <Trackpoint>
            <Time>2021-08-04T12:59:40.000Z</Time>
            <Position>
              <LatitudeDegrees>40.91767075471580028533935546875</LatitudeDegrees>
              <LongitudeDegrees>-0.889721922576427459716796875</LongitudeDegrees>
            </Position>
            <AltitudeMeters>1089.4000244140625</AltitudeMeters>
            <DistanceMeters>624928.73717143</DistanceMeters>
          </Trackpoint>
          <Trackpoint>
            <Time>2021-08-04T12:59:43.000Z</Time>
            <Position>
              <LatitudeDegrees>40.91759674251079559326171875</LatitudeDegrees>
              <LongitudeDegrees>-0.88953710161149501800537109375</LongitudeDegrees>
            </Position>
            <AltitudeMeters>1088.4000244140625</AltitudeMeters>
            <DistanceMeters>624946.32969371</DistanceMeters>
          </Trackpoint>
          <Trackpoint>
            <Time>2021-08-04T12:59:44.000Z</Time>
            <Position>
              <LatitudeDegrees>40.91758039779961109161376953125</LatitudeDegrees>
              <LongitudeDegrees>-0.8894763328135013580322265625</LongitudeDegrees>
            </Position>
            <AltitudeMeters>1088.199951171875</AltitudeMeters>
            <DistanceMeters>624951.75537792</DistanceMeters>
          </Trackpoint>
          <Trackpoint>
            <Time>2021-08-04T12:59:45.000Z</Time>
            <Position>
              <LatitudeDegrees>40.917560197412967681884765625</LatitudeDegrees>
              <LongitudeDegrees>-0.889417491853237152099609375</LongitudeDegrees>
            </Position>
            <AltitudeMeters>1088</AltitudeMeters>
            <DistanceMeters>624957.19103889</DistanceMeters>
          </Trackpoint>
          <Trackpoint>
            <Time>2021-08-04T12:59:52.000Z</Time>
            <Position>
              <LatitudeDegrees>40.91726456768810749053955078125</LatitudeDegrees>
              <LongitudeDegrees>-0.8891085349023342132568359375</LongitudeDegrees>
            </Position>
            <AltitudeMeters>1087.199951171875</AltitudeMeters>
            <DistanceMeters>624999.1186086</DistanceMeters>
          </Trackpoint>
          <Trackpoint>
            <Time>2021-08-04T12:59:55.000Z</Time>
            <Position>
              <LatitudeDegrees>40.91708972118794918060302734375</LatitudeDegrees>
              <LongitudeDegrees>-0.88902899064123630523681640625</LongitudeDegrees>
            </Position>
            <AltitudeMeters>1085.5999755859375</AltitudeMeters>
            <DistanceMeters>625019.69732321</DistanceMeters>
          </Trackpoint>
          <Trackpoint>
            <Time>2021-08-04T12:59:57.000Z</Time>
            <Position>
              <LatitudeDegrees>40.916973464190959930419921875</LatitudeDegrees>
              <LongitudeDegrees>-0.8889747597277164459228515625</LongitudeDegrees>
            </Position>
            <AltitudeMeters>1084.5999755859375</AltitudeMeters>
            <DistanceMeters>625033.41774607</DistanceMeters>
          </Trackpoint>
          <Trackpoint>
            <Time>2021-08-04T13:00:00.000Z</Time>
            <Position>
              <LatitudeDegrees>40.9167899005115032196044921875</LatitudeDegrees>
              <LongitudeDegrees>-0.88889144361019134521484375</LongitudeDegrees>
            </Position>
            <AltitudeMeters>1083.4000244140625</AltitudeMeters>
            <DistanceMeters>625055.01704859</DistanceMeters>
          </Trackpoint>
          <Trackpoint>
            <Time>2021-08-04T13:00:02.000Z</Time>
            <Position>
              <LatitudeDegrees>40.91667146421968936920166015625</LatitudeDegrees>
              <LongitudeDegrees>-0.88882782496511936187744140625</LongitudeDegrees>
            </Position>
            <AltitudeMeters>1082.199951171875</AltitudeMeters>
            <DistanceMeters>625069.24378868</DistanceMeters>
          </Trackpoint>
          <Trackpoint>
            <Time>2021-08-04T13:00:06.000Z</Time>
            <Position>
              <LatitudeDegrees>40.91646325774490833282470703125</LatitudeDegrees>
              <LongitudeDegrees>-0.88870109058916568756103515625</LongitudeDegrees>
            </Position>
            <AltitudeMeters>1081</AltitudeMeters>
            <DistanceMeters>625094.75169192</DistanceMeters>
          </Trackpoint>
          <Trackpoint>
            <Time>2021-08-04T13:00:10.000Z</Time>
            <Position>
              <LatitudeDegrees>40.9163188375532627105712890625</LatitudeDegrees>
              <LongitudeDegrees>-0.88858759962022304534912109375</LongitudeDegrees>
            </Position>
            <AltitudeMeters>1080</AltitudeMeters>
            <DistanceMeters>625113.44661312</DistanceMeters>
          </Trackpoint>
          <Trackpoint>
            <Time>2021-08-04T13:00:13.000Z</Time>
            <Position>
              <LatitudeDegrees>40.9162417240440845489501953125</LatitudeDegrees>
              <LongitudeDegrees>-0.888524986803531646728515625</LongitudeDegrees>
            </Position>
            <AltitudeMeters>1078.4000244140625</AltitudeMeters>
            <DistanceMeters>625123.51630668</DistanceMeters>
          </Trackpoint>
          <Trackpoint>
            <Time>2021-08-04T13:00:15.000Z</Time>
            <Position>
              <LatitudeDegrees>40.9161867387592792510986328125</LatitudeDegrees>
              <LongitudeDegrees>-0.88848215527832508087158203125</LongitudeDegrees>
            </Position>
            <AltitudeMeters>1077</AltitudeMeters>
            <DistanceMeters>625130.61728879</DistanceMeters>
          </Trackpoint>
          <Trackpoint>
            <Time>2021-08-04T13:00:17.000Z</Time>
            <Position>
              <LatitudeDegrees>40.91612529940903186798095703125</LatitudeDegrees>
              <LongitudeDegrees>-0.88843538425862789154052734375</LongitudeDegrees>
            </Position>
            <AltitudeMeters>1076</AltitudeMeters>
            <DistanceMeters>625138.50622325</DistanceMeters>
          </Trackpoint>
          <Trackpoint>
            <Time>2021-08-04T13:00:20.000Z</Time>
            <Position>
              <LatitudeDegrees>40.9160144068300724029541015625</LatitudeDegrees>
              <LongitudeDegrees>-0.88835458271205425262451171875</LongitudeDegrees>
            </Position>
            <AltitudeMeters>1074.5999755859375</AltitudeMeters>
            <DistanceMeters>625152.59615691</DistanceMeters>
          </Trackpoint>
          <Trackpoint>
            <Time>2021-08-04T13:00:22.000Z</Time>
            <Position>
              <LatitudeDegrees>40.915942490100860595703125</LatitudeDegrees>
              <LongitudeDegrees>-0.888305716216564178466796875</LongitudeDegrees>
            </Position>
            <AltitudeMeters>1073.4000244140625</AltitudeMeters>
            <DistanceMeters>625161.59413809</DistanceMeters>
          </Trackpoint>
          <Trackpoint>
            <Time>2021-08-04T13:00:24.000Z</Time>
            <Position>
              <LatitudeDegrees>40.9158625267446041107177734375</LatitudeDegrees>
              <LongitudeDegrees>-0.88824628852307796478271484375</LongitudeDegrees>
            </Position>
            <AltitudeMeters>1071.800048828125</AltitudeMeters>
            <DistanceMeters>625171.80144048</DistanceMeters>
          </Trackpoint>
          <Trackpoint>
            <Time>2021-08-04T13:00:28.000Z</Time>
            <Position>
              <LatitudeDegrees>40.91569866053760051727294921875</LatitudeDegrees>
              <LongitudeDegrees>-0.8881164528429508209228515625</LongitudeDegrees>
            </Position>
            <AltitudeMeters>1070.800048828125</AltitudeMeters>
            <DistanceMeters>625193.05940712</DistanceMeters>
          </Trackpoint>
          <Trackpoint>
            <Time>2021-08-04T13:00:31.000Z</Time>
            <Position>
              <LatitudeDegrees>40.91556455008685588836669921875</LatitudeDegrees>
              <LongitudeDegrees>-0.8880217373371124267578125</LongitudeDegrees>
            </Position>
            <AltitudeMeters>1069.199951171875</AltitudeMeters>
            <DistanceMeters>625209.97896631</DistanceMeters>
          </Trackpoint>
          <Trackpoint>
            <Time>2021-08-04T13:00:33.000Z</Time>
            <Position>
              <LatitudeDegrees>40.91546681709587574005126953125</LatitudeDegrees>
              <LongitudeDegrees>-0.88795476593077182769775390625</LongitudeDegrees>
            </Position>
            <AltitudeMeters>1068</AltitudeMeters>
            <DistanceMeters>625222.22893817</DistanceMeters>
          </Trackpoint>
          <Trackpoint>
            <Time>2021-08-04T13:00:36.000Z</Time>
            <Position>
              <LatitudeDegrees>40.9153086505830287933349609375</LatitudeDegrees>
              <LongitudeDegrees>-0.88784680701792240142822265625</LongitudeDegrees>
            </Position>
            <AltitudeMeters>1066.800048828125</AltitudeMeters>
            <DistanceMeters>625242.03693709</DistanceMeters>
          </Trackpoint>
          <Trackpoint>
            <Time>2021-08-04T13:00:38.000Z</Time>
            <Position>
              <LatitudeDegrees>40.91519239358603954315185546875</LatitudeDegrees>
              <LongitudeDegrees>-0.88778058998286724090576171875</LongitudeDegrees>
            </Position>
            <AltitudeMeters>1065.4000244140625</AltitudeMeters>
            <DistanceMeters>625256.12462747</DistanceMeters>
          </Trackpoint>
          <Trackpoint>
            <Time>2021-08-04T13:00:39.000Z</Time>
            <Position>
              <LatitudeDegrees>40.915133468806743621826171875</LatitudeDegrees>
              <LongitudeDegrees>-0.88774555362761020660400390625</LongitudeDegrees>
            </Position>
            <AltitudeMeters>1065</AltitudeMeters>
            <DistanceMeters>625263.31533103</DistanceMeters>
          </Trackpoint>
          <Trackpoint>
            <Time>2021-08-04T13:00:41.000Z</Time>
            <Position>
              <LatitudeDegrees>40.91502140276134014129638671875</LatitudeDegrees>
              <LongitudeDegrees>-0.88764966465532779693603515625</LongitudeDegrees>
            </Position>
            <AltitudeMeters>1064.199951171875</AltitudeMeters>
            <DistanceMeters>625278.16870868</DistanceMeters>
          </Trackpoint>
          <Trackpoint>
            <Time>2021-08-04T13:00:43.000Z</Time>
            <Position>
              <LatitudeDegrees>40.91491260565817356109619140625</LatitudeDegrees>
              <LongitudeDegrees>-0.88753751479089260101318359375</LongitudeDegrees>
            </Position>
            <AltitudeMeters>1063.199951171875</AltitudeMeters>
            <DistanceMeters>625293.51839124</DistanceMeters>
          </Trackpoint>
          <Trackpoint>
            <Time>2021-08-04T13:00:48.000Z</Time>
            <Position>
              <LatitudeDegrees>40.9146779961884021759033203125</LatitudeDegrees>
              <LongitudeDegrees>-0.88729418814182281494140625</LongitudeDegrees>
            </Position>
            <AltitudeMeters>1062.4000244140625</AltitudeMeters>
            <DistanceMeters>625326.69564547</DistanceMeters>
          </Trackpoint>
          <Trackpoint>
            <Time>2021-08-04T13:00:49.000Z</Time>
            <Position>
              <LatitudeDegrees>40.91463868506252765655517578125</LatitudeDegrees>
              <LongitudeDegrees>-0.88723358698189258575439453125</LongitudeDegrees>
            </Position>
            <AltitudeMeters>1062</AltitudeMeters>
            <DistanceMeters>625333.41370486</DistanceMeters>
          </Trackpoint>
          <Trackpoint>
            <Time>2021-08-04T13:00:51.000Z</Time>
            <Position>
              <LatitudeDegrees>40.914552100002765655517578125</LatitudeDegrees>
              <LongitudeDegrees>-0.88710618205368518829345703125</LongitudeDegrees>
            </Position>
            <AltitudeMeters>1060.800048828125</AltitudeMeters>
            <DistanceMeters>625347.82553293</DistanceMeters>
          </Trackpoint>
          <Trackpoint>
            <Time>2021-08-04T13:00:55.000Z</Time>
            <Position>
              <LatitudeDegrees>40.91438588686287403106689453125</LatitudeDegrees>
              <LongitudeDegrees>-0.88679823093116283416748046875</LongitudeDegrees>
            </Position>
            <AltitudeMeters>1059.5999755859375</AltitudeMeters>
            <DistanceMeters>625379.65536888</DistanceMeters>
          </Trackpoint>
          <Trackpoint>
            <Time>2021-08-04T13:00:58.000Z</Time>
            <Position>
              <LatitudeDegrees>40.9143189154565334320068359375</LatitudeDegrees>
              <LongitudeDegrees>-0.88654224760830402374267578125</LongitudeDegrees>
            </Position>
            <AltitudeMeters>1058.4000244140625</AltitudeMeters>
            <DistanceMeters>625402.43959664</DistanceMeters>
          </Trackpoint>
          <Trackpoint>
            <Time>2021-08-04T13:01:00.000Z</Time>
            <Position>
              <LatitudeDegrees>40.9143044985830783843994140625</LatitudeDegrees>
              <LongitudeDegrees>-0.8863948099315166473388671875</LongitudeDegrees>
            </Position>
            <AltitudeMeters>1057.800048828125</AltitudeMeters>
            <DistanceMeters>625414.94418795</DistanceMeters>
          </Trackpoint>
          <Trackpoint>
            <Time>2021-08-04T13:01:02.000Z</Time>
            <Position>
              <LatitudeDegrees>40.9142981283366680145263671875</LatitudeDegrees>
              <LongitudeDegrees>-0.886275283992290496826171875</LongitudeDegrees>
            </Position>
            <AltitudeMeters>1057.5999755859375</AltitudeMeters>
            <DistanceMeters>625425.02239711</DistanceMeters>
          </Trackpoint>
          <Trackpoint>
            <Time>2021-08-04T13:01:05.000Z</Time>
            <Position>
              <LatitudeDegrees>40.91425412334501743316650390625</LatitudeDegrees>
              <LongitudeDegrees>-0.8860960789024829864501953125</LongitudeDegrees>
            </Position>
            <AltitudeMeters>1057.199951171875</AltitudeMeters>
            <DistanceMeters>625440.87136037</DistanceMeters>
          </Trackpoint>
          <Trackpoint>
            <Time>2021-08-04T13:01:07.000Z</Time>
            <Position>
              <LatitudeDegrees>40.91421422548592090606689453125</LatitudeDegrees>
              <LongitudeDegrees>-0.8859659917652606964111328125</LongitudeDegrees>
            </Position>
            <AltitudeMeters>1055.5999755859375</AltitudeMeters>
            <DistanceMeters>625452.67955288</DistanceMeters>
          </Trackpoint>
          <Trackpoint>
            <Time>2021-08-04T13:01:09.000Z</Time>
            <Position>
              <LatitudeDegrees>40.9141735732555389404296875</LatitudeDegrees>
              <LongitudeDegrees>-0.885823331773281097412109375</LongitudeDegrees>
            </Position>
            <AltitudeMeters>1054.800048828125</AltitudeMeters>
            <DistanceMeters>625465.50323106</DistanceMeters>
          </Trackpoint>
          <Trackpoint>
            <Time>2021-08-04T13:01:10.000Z</Time>
            <Position>
              <LatitudeDegrees>40.9141593240201473236083984375</LatitudeDegrees>
              <LongitudeDegrees>-0.8857472240924835205078125</LongitudeDegrees>
            </Position>
            <AltitudeMeters>1054.5999755859375</AltitudeMeters>
            <DistanceMeters>625472.09852319</DistanceMeters>
          </Trackpoint>
          <Trackpoint>
            <Time>2021-08-04T13:01:14.000Z</Time>
            <Position>
              <LatitudeDegrees>40.91409654356539249420166015625</LatitudeDegrees>
              <LongitudeDegrees>-0.88546131737530231475830078125</LongitudeDegrees>
            </Position>
            <AltitudeMeters>1053.4000244140625</AltitudeMeters>
            <DistanceMeters>625497.14090225</DistanceMeters>
          </Trackpoint>
          <Trackpoint>
            <Time>2021-08-04T13:01:17.000Z</Time>
            <Position>
              <LatitudeDegrees>40.9140346013009548187255859375</LatitudeDegrees>
              <LongitudeDegrees>-0.88529971428215503692626953125</LongitudeDegrees>
            </Position>
            <AltitudeMeters>1052</AltitudeMeters>
            <DistanceMeters>625512.38195491</DistanceMeters>
          </Trackpoint>
          <Trackpoint>
            <Time>2021-08-04T13:01:19.000Z</Time>
            <Position>
              <LatitudeDegrees>40.91397567652165889739990234375</LatitudeDegrees>
              <LongitudeDegrees>-0.88520483113825321197509765625</LongitudeDegrees>
            </Position>
            <AltitudeMeters>1050.800048828125</AltitudeMeters>
            <DistanceMeters>625522.71236843</DistanceMeters>
          </Trackpoint>
          <Trackpoint>
            <Time>2021-08-04T13:01:22.000Z</Time>
            <Position>
              <LatitudeDegrees>40.9138689748942852020263671875</LatitudeDegrees>
              <LongitudeDegrees>-0.88506929576396942138671875</LongitudeDegrees>
            </Position>
            <AltitudeMeters>1049.4000244140625</AltitudeMeters>
            <DistanceMeters>625539.17476966</DistanceMeters>
          </Trackpoint>
          <Trackpoint>
            <Time>2021-08-04T13:01:24.000Z</Time>
            <Position>
              <LatitudeDegrees>40.9137958846986293792724609375</LatitudeDegrees>
              <LongitudeDegrees>-0.8849725686013698577880859375</LongitudeDegrees>
            </Position>
            <AltitudeMeters>1048.199951171875</AltitudeMeters>
            <DistanceMeters>625550.67967559</DistanceMeters>
          </Trackpoint>
          <Trackpoint>
            <Time>2021-08-04T13:01:25.000Z</Time>
            <Position>
              <LatitudeDegrees>40.91376327909529209136962890625</LatitudeDegrees>
              <LongitudeDegrees>-0.88492873124778270721435546875</LongitudeDegrees>
            </Position>
            <AltitudeMeters>1047.199951171875</AltitudeMeters>
            <DistanceMeters>625555.85317988</DistanceMeters>
          </Trackpoint>
          <Trackpoint>
            <Time>2021-08-04T13:01:27.000Z</Time>
            <Position>
              <LatitudeDegrees>40.91370091773569583892822265625</LatitudeDegrees>
              <LongitudeDegrees>-0.88485203683376312255859375</LongitudeDegrees>
            </Position>
            <AltitudeMeters>1045.800048828125</AltitudeMeters>
            <DistanceMeters>625565.32825349</DistanceMeters>
          </Trackpoint>
          <Trackpoint>
            <Time>2021-08-04T13:01:29.000Z</Time>
            <Position>
              <LatitudeDegrees>40.91364157386124134063720703125</LatitudeDegrees>
              <LongitudeDegrees>-0.884794704616069793701171875</LongitudeDegrees>
            </Position>
            <AltitudeMeters>1044.5999755859375</AltitudeMeters>
            <DistanceMeters>625573.50607387</DistanceMeters>
          </Trackpoint>
          <Trackpoint>
            <Time>2021-08-04T13:01:32.000Z</Time>
            <Position>
              <LatitudeDegrees>40.9135390631854534149169921875</LatitudeDegrees>
              <LongitudeDegrees>-0.88474701158702373504638671875</LongitudeDegrees>
            </Position>
            <AltitudeMeters>1043.5999755859375</AltitudeMeters>
            <DistanceMeters>625585.60025339</DistanceMeters>
          </Trackpoint>
          <Trackpoint>
            <Time>2021-08-04T13:01:38.000Z</Time>
            <Position>
              <LatitudeDegrees>40.9133513085544109344482421875</LatitudeDegrees>
              <LongitudeDegrees>-0.8845943771302700042724609375</LongitudeDegrees>
            </Position>
            <AltitudeMeters>1043.199951171875</AltitudeMeters>
            <DistanceMeters>625610.1259838</DistanceMeters>
          </Trackpoint>
          <Trackpoint>
            <Time>2021-08-04T13:01:44.000Z</Time>
            <Position>
              <LatitudeDegrees>40.91331350617110729217529296875</LatitudeDegrees>
              <LongitudeDegrees>-0.8845259808003902435302734375</LongitudeDegrees>
            </Position>
            <AltitudeMeters>1044.5999755859375</AltitudeMeters>
            <DistanceMeters>625617.25362086</DistanceMeters>
          </Trackpoint>
          <Trackpoint>
            <Time>2021-08-04T13:01:58.000Z</Time>
            <Position>
              <LatitudeDegrees>40.9131006896495819091796875</LatitudeDegrees>
              <LongitudeDegrees>-0.88431584648787975311279296875</LongitudeDegrees>
            </Position>
            <AltitudeMeters>1045.5999755859375</AltitudeMeters>
            <DistanceMeters>625646.80815121</DistanceMeters>
          </Trackpoint>
          <Trackpoint>
            <Time>2021-08-04T13:02:11.000Z</Time>
            <Position>
              <LatitudeDegrees>40.912867672741413116455078125</LatitudeDegrees>
              <LongitudeDegrees>-0.8840686641633510589599609375</LongitudeDegrees>
            </Position>
            <AltitudeMeters>1046.800048828125</AltitudeMeters>
            <DistanceMeters>625680.0482188</DistanceMeters>
          </Trackpoint>
          <Trackpoint>
            <Time>2021-08-04T13:02:26.000Z</Time>
            <Position>
              <LatitudeDegrees>40.91254170052707195281982421875</LatitudeDegrees>
              <LongitudeDegrees>-0.8838668279349803924560546875</LongitudeDegrees>
            </Position>
            <AltitudeMeters>1047</AltitudeMeters>
            <DistanceMeters>625720.10499418</DistanceMeters>
          </Trackpoint>
          <Trackpoint>
            <Time>2021-08-04T13:02:29.000Z</Time>
            <Position>
              <LatitudeDegrees>40.91239116154611110687255859375</LatitudeDegrees>
              <LongitudeDegrees>-0.88389557786285877227783203125</LongitudeDegrees>
            </Position>
            <AltitudeMeters>1045.199951171875</AltitudeMeters>
            <DistanceMeters>625737.03415736</DistanceMeters>
          </Trackpoint>
          <Trackpoint>
            <Time>2021-08-04T13:02:31.000Z</Time>
            <Position>
              <LatitudeDegrees>40.91229409910738468170166015625</LatitudeDegrees>
              <LongitudeDegrees>-0.88392742909491062164306640625</LongitudeDegrees>
            </Position>
            <AltitudeMeters>1044.199951171875</AltitudeMeters>
            <DistanceMeters>625748.16486483</DistanceMeters>
          </Trackpoint>
          <Trackpoint>
            <Time>2021-08-04T13:02:34.000Z</Time>
            <Position>
              <LatitudeDegrees>40.91214875690639019012451171875</LatitudeDegrees>
              <LongitudeDegrees>-0.8839935623109340667724609375</LongitudeDegrees>
            </Position>
            <AltitudeMeters>1043</AltitudeMeters>
            <DistanceMeters>625765.27125712</DistanceMeters>
          </Trackpoint>
          <Trackpoint>
            <Time>2021-08-04T13:02:36.000Z</Time>
            <Position>
              <LatitudeDegrees>40.9120400436222553253173828125</LatitudeDegrees>
              <LongitudeDegrees>-0.8840552531182765960693359375</LongitudeDegrees>
            </Position>
            <AltitudeMeters>1041.5999755859375</AltitudeMeters>
            <DistanceMeters>625778.43717325</DistanceMeters>
          </Trackpoint>
          <Trackpoint>
            <Time>2021-08-04T13:02:38.000Z</Time>
            <Position>
              <LatitudeDegrees>40.9119387902319431304931640625</LatitudeDegrees>
              <LongitudeDegrees>-0.88415843434631824493408203125</LongitudeDegrees>
            </Position>
            <AltitudeMeters>1040.199951171875</AltitudeMeters>
            <DistanceMeters>625792.66169162</DistanceMeters>
          </Trackpoint>
          <Trackpoint>
            <Time>2021-08-04T13:02:42.000Z</Time>
            <Position>
              <LatitudeDegrees>40.91183963231742382049560546875</LatitudeDegrees>
              <LongitudeDegrees>-0.88443269021809101104736328125</LongitudeDegrees>
            </Position>
            <AltitudeMeters>1040</AltitudeMeters>
            <DistanceMeters>625818.23429681</DistanceMeters>
          </Trackpoint>
          <Trackpoint>
            <Time>2021-08-04T13:02:45.000Z</Time>
            <Position>
              <LatitudeDegrees>40.9118123911321163177490234375</LatitudeDegrees>
              <LongitudeDegrees>-0.8845678903162479400634765625</LongitudeDegrees>
            </Position>
            <AltitudeMeters>1042</AltitudeMeters>
            <DistanceMeters>625830.00380711</DistanceMeters>
          </Trackpoint>
          <Trackpoint>
            <Time>2021-08-04T13:02:47.000Z</Time>
            <Position>
              <LatitudeDegrees>40.9118003211915493011474609375</LatitudeDegrees>
              <LongitudeDegrees>-0.88463217951357364654541015625</LongitudeDegrees>
            </Position>
            <AltitudeMeters>1043.199951171875</AltitudeMeters>
            <DistanceMeters>625835.57564727</DistanceMeters>
          </Trackpoint>
          <Trackpoint>
            <Time>2021-08-04T13:02:52.000Z</Time>
            <Position>
              <LatitudeDegrees>40.91176251880824565887451171875</LatitudeDegrees>
              <LongitudeDegrees>-0.88477500714361667633056640625</LongitudeDegrees>
            </Position>
            <AltitudeMeters>1044.199951171875</AltitudeMeters>
            <DistanceMeters>625848.30497136</DistanceMeters>
          </Trackpoint>
          <Trackpoint>
            <Time>2021-08-04T13:02:57.000Z</Time>
            <Position>
              <LatitudeDegrees>40.9117141552269458770751953125</LatitudeDegrees>
              <LongitudeDegrees>-0.88490794412791728973388671875</LongitudeDegrees>
            </Position>
            <AltitudeMeters>1045.199951171875</AltitudeMeters>
            <DistanceMeters>625860.71496546</DistanceMeters>
          </Trackpoint>
          <Trackpoint>
            <Time>2021-08-04T13:03:01.000Z</Time>
            <Position>
              <LatitudeDegrees>40.91168959625065326690673828125</LatitudeDegrees>
              <LongitudeDegrees>-0.88499687612056732177734375</LongitudeDegrees>
            </Position>
            <AltitudeMeters>1046.199951171875</AltitudeMeters>
            <DistanceMeters>625868.67908858</DistanceMeters>
          </Trackpoint>
          <Trackpoint>
            <Time>2021-08-04T13:03:08.000Z</Time>
            <Position>
              <LatitudeDegrees>40.91165489517152309417724609375</LatitudeDegrees>
              <LongitudeDegrees>-0.88515588082373142242431640625</LongitudeDegrees>
            </Position>
            <AltitudeMeters>1047.5999755859375</AltitudeMeters>
            <DistanceMeters>625882.59977249</DistanceMeters>
          </Trackpoint>
          <Trackpoint>
            <Time>2021-08-04T13:03:11.000Z</Time>
            <Position>
              <LatitudeDegrees>40.91164492070674896240234375</LatitudeDegrees>
              <LongitudeDegrees>-0.88521388359367847442626953125</LongitudeDegrees>
            </Position>
            <AltitudeMeters>1048.5999755859375</AltitudeMeters>
            <DistanceMeters>625887.60381105</DistanceMeters>
          </Trackpoint>
          <Trackpoint>
            <Time>2021-08-04T13:03:17.000Z</Time>
            <Position>
              <LatitudeDegrees>40.9116149134933948516845703125</LatitudeDegrees>
              <LongitudeDegrees>-0.88532335124909877777099609375</LongitudeDegrees>
            </Position>
            <AltitudeMeters>1049.800048828125</AltitudeMeters>
            <DistanceMeters>625897.39847961</DistanceMeters>
          </Trackpoint>
          <Trackpoint>
            <Time>2021-08-04T13:03:23.000Z</Time>
            <Position>
              <LatitudeDegrees>40.9115763567388057708740234375</LatitudeDegrees>
              <LongitudeDegrees>-0.88542125187814235687255859375</LongitudeDegrees>
            </Position>
            <AltitudeMeters>1051</AltitudeMeters>
            <DistanceMeters>625906.68487988</DistanceMeters>
          </Trackpoint>
          <Trackpoint>
            <Time>2021-08-04T13:03:34.000Z</Time>
            <Position>
              <LatitudeDegrees>40.91146395541727542877197265625</LatitudeDegrees>
              <LongitudeDegrees>-0.88560841977596282958984375</LongitudeDegrees>
            </Position>
            <AltitudeMeters>1052</AltitudeMeters>
            <DistanceMeters>625926.79375412</DistanceMeters>
          </Trackpoint>
          <Trackpoint>
            <Time>2021-08-04T13:03:40.000Z</Time>
            <Position>
              <LatitudeDegrees>40.91134878806769847869873046875</LatitudeDegrees>
              <LongitudeDegrees>-0.8857311308383941650390625</LongitudeDegrees>
            </Position>
            <AltitudeMeters>1050.800048828125</AltitudeMeters>
            <DistanceMeters>625943.25094352</DistanceMeters>
          </Trackpoint>
          <Trackpoint>
            <Time>2021-08-04T13:03:41.000Z</Time>
            <Position>
              <LatitudeDegrees>40.91130838729441165924072265625</LatitudeDegrees>
              <LongitudeDegrees>-0.8857525885105133056640625</LongitudeDegrees>
            </Position>
            <AltitudeMeters>1050.4000244140625</AltitudeMeters>
            <DistanceMeters>625948.09637423</DistanceMeters>
          </Trackpoint>
          <Trackpoint>
            <Time>2021-08-04T13:03:43.000Z</Time>
            <Position>
              <LatitudeDegrees>40.91120763681828975677490234375</LatitudeDegrees>
              <LongitudeDegrees>-0.88577731512486934661865234375</LongitudeDegrees>
            </Position>
            <AltitudeMeters>1049.5999755859375</AltitudeMeters>
            <DistanceMeters>625959.50116362</DistanceMeters>
          </Trackpoint>
          <Trackpoint>
            <Time>2021-08-04T13:03:46.000Z</Time>
            <Position>
              <LatitudeDegrees>40.91105273924767971038818359375</LatitudeDegrees>
              <LongitudeDegrees>-0.88575485162436962127685546875</LongitudeDegrees>
            </Position>
            <AltitudeMeters>1048.199951171875</AltitudeMeters>
            <DistanceMeters>625976.84451527</DistanceMeters>
          </Trackpoint>
          <Trackpoint>
            <Time>2021-08-04T13:03:48.000Z</Time>
            <Position>
              <LatitudeDegrees>40.9109554253518581390380859375</LatitudeDegrees>
              <LongitudeDegrees>-0.8857068233191967010498046875</LongitudeDegrees>
            </Position>
            <AltitudeMeters>1048</AltitudeMeters>
            <DistanceMeters>625988.40501402</DistanceMeters>
          </Trackpoint>
          <Trackpoint>
            <Time>2021-08-04T13:03:49.000Z</Time>
            <Position>
              <LatitudeDegrees>40.91091259382665157318115234375</LatitudeDegrees>
              <LongitudeDegrees>-0.88568754494190216064453125</LongitudeDegrees>
            </Position>
            <AltitudeMeters>1048</AltitudeMeters>
            <DistanceMeters>625993.4396366</DistanceMeters>
          </Trackpoint>
          <Trackpoint>
            <Time>2021-08-04T13:03:52.000Z</Time>
            <Position>
              <LatitudeDegrees>40.9108223207294940948486328125</LatitudeDegrees>
              <LongitudeDegrees>-0.8856706134974956512451171875</LongitudeDegrees>
            </Position>
            <AltitudeMeters>1049.5999755859375</AltitudeMeters>
            <DistanceMeters>626003.58749311</DistanceMeters>
          </Trackpoint>
          <Trackpoint>
            <Time>2021-08-04T13:03:56.000Z</Time>
            <Position>
              <LatitudeDegrees>40.9107150323688983917236328125</LatitudeDegrees>
              <LongitudeDegrees>-0.885657370090484619140625</LongitudeDegrees>
            </Position>
            <AltitudeMeters>1050.800048828125</AltitudeMeters>
            <DistanceMeters>626015.58082825</DistanceMeters>
          </Trackpoint>
          <Trackpoint>
            <Time>2021-08-04T13:04:00.000Z</Time>
            <Position>
              <LatitudeDegrees>40.91061855666339397430419921875</LatitudeDegrees>
              <LongitudeDegrees>-0.885667093098163604736328125</LongitudeDegrees>
            </Position>
            <AltitudeMeters>1051.800048828125</AltitudeMeters>
            <DistanceMeters>626026.34991696</DistanceMeters>
          </Trackpoint>
          <Trackpoint>
            <Time>2021-08-04T13:04:19.000Z</Time>
            <Position>
              <LatitudeDegrees>40.910075493156909942626953125</LatitudeDegrees>
              <LongitudeDegrees>-0.88569852523505687713623046875</LongitudeDegrees>
            </Position>
            <AltitudeMeters>1052.4000244140625</AltitudeMeters>
            <DistanceMeters>626086.85171783</DistanceMeters>
          </Trackpoint>
          <Trackpoint>
            <Time>2021-08-04T13:04:23.000Z</Time>
            <Position>
              <LatitudeDegrees>40.9099703840911388397216796875</LatitudeDegrees>
              <LongitudeDegrees>-0.88564404286444187164306640625</LongitudeDegrees>
            </Position>
            <AltitudeMeters>1052.800048828125</AltitudeMeters>
            <DistanceMeters>626099.41610386</DistanceMeters>
          </Trackpoint>
          <Trackpoint>
            <Time>2021-08-04T13:04:29.000Z</Time>
            <Position>
              <LatitudeDegrees>40.9098104573786258697509765625</LatitudeDegrees>
              <LongitudeDegrees>-0.88558654300868511199951171875</LongitudeDegrees>
            </Position>
            <AltitudeMeters>1054</AltitudeMeters>
            <DistanceMeters>626117.86181475</DistanceMeters>
          </Trackpoint>
          <Trackpoint>
            <Time>2021-08-04T13:04:32.000Z</Time>
            <Position>
              <LatitudeDegrees>40.9097464196383953094482421875</LatitudeDegrees>
              <LongitudeDegrees>-0.88555469177663326263427734375</LongitudeDegrees>
            </Position>
            <AltitudeMeters>1055.199951171875</AltitudeMeters>
            <DistanceMeters>626125.47641394</DistanceMeters>
          </Trackpoint>
          <Trackpoint>
            <Time>2021-08-04T13:04:35.000Z</Time>
            <Position>
              <LatitudeDegrees>40.90969956479966640472412109375</LatitudeDegrees>
              <LongitudeDegrees>-0.88552921079099178314208984375</LongitudeDegrees>
            </Position>
            <AltitudeMeters>1056.199951171875</AltitudeMeters>
            <DistanceMeters>626131.11511053</DistanceMeters>
          </Trackpoint>
          <Trackpoint>
            <Time>2021-08-04T13:04:39.000Z</Time>
            <Position>
              <LatitudeDegrees>40.90963602997362613677978515625</LatitudeDegrees>
              <LongitudeDegrees>-0.8854748122394084930419921875</LongitudeDegrees>
            </Position>
            <AltitudeMeters>1057.199951171875</AltitudeMeters>
            <DistanceMeters>626139.53878791</DistanceMeters>
          </Trackpoint>
          <Trackpoint>
            <Time>2021-08-04T13:04:56.000Z</Time>
            <Position>
              <LatitudeDegrees>40.90923168696463108062744140625</LatitudeDegrees>
              <LongitudeDegrees>-0.884989164769649505615234375</LongitudeDegrees>
            </Position>
            <AltitudeMeters>1057.4000244140625</AltitudeMeters>
            <DistanceMeters>626200.31838254</DistanceMeters>
          </Trackpoint>
          <Trackpoint>
            <Time>2021-08-04T13:05:00.000Z</Time>
            <Position>
              <LatitudeDegrees>40.909082405269145965576171875</LatitudeDegrees>
              <LongitudeDegrees>-0.8849398791790008544921875</LongitudeDegrees>
            </Position>
            <AltitudeMeters>1056.800048828125</AltitudeMeters>
            <DistanceMeters>626217.44297691</DistanceMeters>
          </Trackpoint>
          <Trackpoint>
            <Time>2021-08-04T13:05:15.000Z</Time>
            <Position>
              <LatitudeDegrees>40.908535234630107879638671875</LatitudeDegrees>
              <LongitudeDegrees>-0.88500064797699451446533203125</LongitudeDegrees>
            </Position>
            <AltitudeMeters>1056.5999755859375</AltitudeMeters>
            <DistanceMeters>626278.55837971</DistanceMeters>
          </Trackpoint>
          <Trackpoint>
            <Time>2021-08-04T13:05:22.000Z</Time>
            <Position>
              <LatitudeDegrees>40.908336751163005828857421875</LatitudeDegrees>
              <LongitudeDegrees>-0.8850188367068767547607421875</LongitudeDegrees>
            </Position>
            <AltitudeMeters>1058.4000244140625</AltitudeMeters>
            <DistanceMeters>626300.70266275</DistanceMeters>
          </Trackpoint>
          <Trackpoint>
            <Time>2021-08-04T13:05:31.000Z</Time>
            <Position>
              <LatitudeDegrees>40.908121168613433837890625</LatitudeDegrees>
              <LongitudeDegrees>-0.8850124664604663848876953125</LongitudeDegrees>
            </Position>
            <AltitudeMeters>1059.4000244140625</AltitudeMeters>
            <DistanceMeters>626324.70325808</DistanceMeters>
          </Trackpoint>
          <Trackpoint>
            <Time>2021-08-04T13:05:37.000Z</Time>
            <Position>
              <LatitudeDegrees>40.90797725133597850799560546875</LatitudeDegrees>
              <LongitudeDegrees>-0.88505881838500499725341796875</LongitudeDegrees>
            </Position>
            <AltitudeMeters>1060.4000244140625</AltitudeMeters>
            <DistanceMeters>626341.18895524</DistanceMeters>
          </Trackpoint>
          <Trackpoint>
            <Time>2021-08-04T13:05:50.000Z</Time>
            <Position>
              <LatitudeDegrees>40.9076532907783985137939453125</LatitudeDegrees>
              <LongitudeDegrees>-0.885197035968303680419921875</LongitudeDegrees>
            </Position>
            <AltitudeMeters>1061.5999755859375</AltitudeMeters>
            <DistanceMeters>626379.07459395</DistanceMeters>
          </Trackpoint>
          <Trackpoint>
            <Time>2021-08-04T13:05:55.000Z</Time>
            <Position>
              <LatitudeDegrees>40.90754541568458080291748046875</LatitudeDegrees>
              <LongitudeDegrees>-0.88522243313491344451904296875</LongitudeDegrees>
            </Position>
            <AltitudeMeters>1062.5999755859375</AltitudeMeters>
            <DistanceMeters>626391.26989465</DistanceMeters>
          </Trackpoint>
          <Trackpoint>
            <Time>2021-08-04T13:06:07.000Z</Time>
            <Position>
              <LatitudeDegrees>40.907247103750705718994140625</LatitudeDegrees>
              <LongitudeDegrees>-0.88531346060335636138916015625</LongitudeDegrees>
            </Position>
            <AltitudeMeters>1063.800048828125</AltitudeMeters>
            <DistanceMeters>626425.3440947</DistanceMeters>
          </Trackpoint>
          <Trackpoint>
            <Time>2021-08-04T13:06:21.000Z</Time>
            <Position>
              <LatitudeDegrees>40.9070228040218353271484375</LatitudeDegrees>
              <LongitudeDegrees>-0.88569014333188533782958984375</LongitudeDegrees>
            </Position>
            <AltitudeMeters>1064.800048828125</AltitudeMeters>
            <DistanceMeters>626465.6834666</DistanceMeters>
          </Trackpoint>
          <Trackpoint>
            <Time>2021-08-04T13:06:31.000Z</Time>
            <Position>
              <LatitudeDegrees>40.90699103660881519317626953125</LatitudeDegrees>
              <LongitudeDegrees>-0.88602961041033267974853515625</LongitudeDegrees>
            </Position>
            <AltitudeMeters>1066</AltitudeMeters>
            <DistanceMeters>626494.45726699</DistanceMeters>
          </Trackpoint>
          <Trackpoint>
            <Time>2021-08-04T13:06:36.000Z</Time>
            <Position>
              <LatitudeDegrees>40.9069334529340267181396484375</LatitudeDegrees>
              <LongitudeDegrees>-0.8861477114260196685791015625</LongitudeDegrees>
            </Position>
            <AltitudeMeters>1067.199951171875</AltitudeMeters>
            <DistanceMeters>626506.27959854</DistanceMeters>
          </Trackpoint>
          <Trackpoint>
            <Time>2021-08-04T13:06:40.000Z</Time>
            <Position>
              <LatitudeDegrees>40.90687855146825313568115234375</LatitudeDegrees>
              <LongitudeDegrees>-0.88623681105673313140869140625</LongitudeDegrees>
            </Position>
            <AltitudeMeters>1068.199951171875</AltitudeMeters>
            <DistanceMeters>626515.94993833</DistanceMeters>
          </Trackpoint>
          <Trackpoint>
            <Time>2021-08-04T13:06:47.000Z</Time>
            <Position>
              <LatitudeDegrees>40.9067782200872898101806640625</LatitudeDegrees>
              <LongitudeDegrees>-0.886383242905139923095703125</LongitudeDegrees>
            </Position>
            <AltitudeMeters>1069.4000244140625</AltitudeMeters>
            <DistanceMeters>626532.5760834</DistanceMeters>
          </Trackpoint>
          <Trackpoint>
            <Time>2021-08-04T13:06:52.000Z</Time>
            <Position>
              <LatitudeDegrees>40.90670504607260227203369140625</LatitudeDegrees>
              <LongitudeDegrees>-0.8864953927695751190185546875</LongitudeDegrees>
            </Position>
            <AltitudeMeters>1070.5999755859375</AltitudeMeters>
            <DistanceMeters>626545.03944471</DistanceMeters>
          </Trackpoint>
          <Trackpoint>
            <Time>2021-08-04T13:06:59.000Z</Time>
            <Position>
              <LatitudeDegrees>40.90652433224022388458251953125</LatitudeDegrees>
              <LongitudeDegrees>-0.8866221271455287933349609375</LongitudeDegrees>
            </Position>
            <AltitudeMeters>1069.800048828125</AltitudeMeters>
            <DistanceMeters>626567.80384733</DistanceMeters>
          </Trackpoint>
          <Trackpoint>
            <Time>2021-08-04T13:07:00.000Z</Time>
            <Position>
              <LatitudeDegrees>40.906473957002162933349609375</LatitudeDegrees>
              <LongitudeDegrees>-0.88662774302065372467041015625</LongitudeDegrees>
            </Position>
            <AltitudeMeters>1069.4000244140625</AltitudeMeters>
            <DistanceMeters>626573.43052024</DistanceMeters>
          </Trackpoint>
          <Trackpoint>
            <Time>2021-08-04T13:07:04.000Z</Time>
            <Position>
              <LatitudeDegrees>40.90626935474574565887451171875</LatitudeDegrees>
              <LongitudeDegrees>-0.8866261504590511322021484375</LongitudeDegrees>
            </Position>
            <AltitudeMeters>1068.4000244140625</AltitudeMeters>
            <DistanceMeters>626596.20344979</DistanceMeters>
          </Trackpoint>
          <Trackpoint>
            <Time>2021-08-04T13:07:12.000Z</Time>
            <Position>
              <LatitudeDegrees>40.90596777386963367462158203125</LatitudeDegrees>
              <LongitudeDegrees>-0.88663729839026927947998046875</LongitudeDegrees>
            </Position>
            <AltitudeMeters>1069.5999755859375</AltitudeMeters>
            <DistanceMeters>626629.78299186</DistanceMeters>
          </Trackpoint>
          <Trackpoint>
            <Time>2021-08-04T13:07:17.000Z</Time>
            <Position>
              <LatitudeDegrees>40.9058297239243984222412109375</LatitudeDegrees>
              <LongitudeDegrees>-0.88663277216255664825439453125</LongitudeDegrees>
            </Position>
            <AltitudeMeters>1070.5999755859375</AltitudeMeters>
            <DistanceMeters>626645.1532508</DistanceMeters>
          </Trackpoint>
          <Trackpoint>
            <Time>2021-08-04T13:07:19.000Z</Time>
            <Position>
              <LatitudeDegrees>40.90578353963792324066162109375</LatitudeDegrees>
              <LongitudeDegrees>-0.88660997338593006134033203125</LongitudeDegrees>
            </Position>
            <AltitudeMeters>1071.5999755859375</AltitudeMeters>
            <DistanceMeters>626650.64016932</DistanceMeters>
          </Trackpoint>
          <Trackpoint>
            <Time>2021-08-04T13:07:37.000Z</Time>
            <Position>
              <LatitudeDegrees>40.90526922605931758880615234375</LatitudeDegrees>
              <LongitudeDegrees>-0.88641970418393611907958984375</LongitudeDegrees>
            </Position>
            <AltitudeMeters>1072</AltitudeMeters>
            <DistanceMeters>626710.07981593</DistanceMeters>
          </Trackpoint>
          <Trackpoint>
            <Time>2021-08-04T13:07:40.000Z</Time>
            <Position>
              <LatitudeDegrees>40.90521843172609806060791015625</LatitudeDegrees>
              <LongitudeDegrees>-0.88639589957892894744873046875</LongitudeDegrees>
            </Position>
            <AltitudeMeters>1073</AltitudeMeters>
            <DistanceMeters>626716.07780097</DistanceMeters>
          </Trackpoint>
          <Trackpoint>
            <Time>2021-08-04T13:07:45.000Z</Time>
            <Position>
              <LatitudeDegrees>40.90513511560857295989990234375</LatitudeDegrees>
              <LongitudeDegrees>-0.88636019267141819000244140625</LongitudeDegrees>
            </Position>
            <AltitudeMeters>1074</AltitudeMeters>
            <DistanceMeters>626725.8253373</DistanceMeters>
          </Trackpoint>
          <Trackpoint>
            <Time>2021-08-04T13:07:47.000Z</Time>
            <Position>
              <LatitudeDegrees>40.905102677643299102783203125</LatitudeDegrees>
              <LongitudeDegrees>-0.886338651180267333984375</LongitudeDegrees>
            </Position>
            <AltitudeMeters>1075</AltitudeMeters>
            <DistanceMeters>626729.86592861</DistanceMeters>
          </Trackpoint>
          <Trackpoint>
            <Time>2021-08-04T13:07:52.000Z</Time>
            <Position>
              <LatitudeDegrees>40.9050196968019008636474609375</LatitudeDegrees>
              <LongitudeDegrees>-0.88627335615456104278564453125</LongitudeDegrees>
            </Position>
            <AltitudeMeters>1076</AltitudeMeters>
            <DistanceMeters>626740.61193334</DistanceMeters>
          </Trackpoint>
          <Trackpoint>
            <Time>2021-08-04T13:07:59.000Z</Time>
            <Position>
              <LatitudeDegrees>40.90491031296551227569580078125</LatitudeDegrees>
              <LongitudeDegrees>-0.88617545552551746368408203125</LongitudeDegrees>
            </Position>
            <AltitudeMeters>1077.199951171875</AltitudeMeters>
            <DistanceMeters>626755.3106955</DistanceMeters>
          </Trackpoint>
          <Trackpoint>
            <Time>2021-08-04T13:08:17.000Z</Time>
            <Position>
              <LatitudeDegrees>40.904591716825962066650390625</LatitudeDegrees>
              <LongitudeDegrees>-0.8858600445091724395751953125</LongitudeDegrees>
            </Position>
            <AltitudeMeters>1078.199951171875</AltitudeMeters>
            <DistanceMeters>626799.59875184</DistanceMeters>
          </Trackpoint>
          <Trackpoint>
            <Time>2021-08-04T13:08:34.000Z</Time>
            <Position>
              <LatitudeDegrees>40.904177315533161163330078125</LatitudeDegrees>
              <LongitudeDegrees>-0.88549886830151081085205078125</LongitudeDegrees>
            </Position>
            <AltitudeMeters>1079.199951171875</AltitudeMeters>
            <DistanceMeters>626854.83028599</DistanceMeters>
          </Trackpoint>
          <Trackpoint>
            <Time>2021-08-04T13:08:42.000Z</Time>
            <Position>
              <LatitudeDegrees>40.90400397777557373046875</LatitudeDegrees>
              <LongitudeDegrees>-0.8854114450514316558837890625</LongitudeDegrees>
            </Position>
            <AltitudeMeters>1080.4000244140625</AltitudeMeters>
            <DistanceMeters>626875.47734095</DistanceMeters>
          </Trackpoint>
          <Trackpoint>
            <Time>2021-08-04T13:08:46.000Z</Time>
            <Position>
              <LatitudeDegrees>40.90392879210412502288818359375</LatitudeDegrees>
              <LongitudeDegrees>-0.8854037337005138397216796875</LongitudeDegrees>
            </Position>
            <AltitudeMeters>1081.5999755859375</AltitudeMeters>
            <DistanceMeters>626883.87094902</DistanceMeters>
          </Trackpoint>
          <Trackpoint>
            <Time>2021-08-04T13:08:52.000Z</Time>
            <Position>
              <LatitudeDegrees>40.903833322227001190185546875</LatitudeDegrees>
              <LongitudeDegrees>-0.88539292104542255401611328125</LongitudeDegrees>
            </Position>
            <AltitudeMeters>1082.5999755859375</AltitudeMeters>
            <DistanceMeters>626894.53555463</DistanceMeters>
          </Trackpoint>
          <Trackpoint>
            <Time>2021-08-04T13:08:57.000Z</Time>
            <Position>
              <LatitudeDegrees>40.903759561479091644287109375</LatitudeDegrees>
              <LongitudeDegrees>-0.88535805232822895050048828125</LongitudeDegrees>
            </Position>
            <AltitudeMeters>1083.800048828125</AltitudeMeters>
            <DistanceMeters>626903.25370544</DistanceMeters>
          </Trackpoint>
          <Trackpoint>
            <Time>2021-08-04T13:09:01.000Z</Time>
            <Position>
              <LatitudeDegrees>40.90371186845004558563232421875</LatitudeDegrees>
              <LongitudeDegrees>-0.88529535569250583648681640625</LongitudeDegrees>
            </Position>
            <AltitudeMeters>1084.800048828125</AltitudeMeters>
            <DistanceMeters>626910.7367198</DistanceMeters>
          </Trackpoint>
          <Trackpoint>
            <Time>2021-08-04T13:09:24.000Z</Time>
            <Position>
              <LatitudeDegrees>40.90330660343170166015625</LatitudeDegrees>
              <LongitudeDegrees>-0.88484558276832103729248046875</LongitudeDegrees>
            </Position>
            <AltitudeMeters>1085.199951171875</AltitudeMeters>
            <DistanceMeters>626969.61127206</DistanceMeters>
          </Trackpoint>
          <Trackpoint>
            <Time>2021-08-04T13:09:28.000Z</Time>
            <Position>
              <LatitudeDegrees>40.903160758316516876220703125</LatitudeDegrees>
              <LongitudeDegrees>-0.8848699741065502166748046875</LongitudeDegrees>
            </Position>
            <AltitudeMeters>1084.5999755859375</AltitudeMeters>
            <DistanceMeters>626985.97326082</DistanceMeters>
          </Trackpoint>
          <Trackpoint>
            <Time>2021-08-04T13:09:43.000Z</Time>
            <Position>
              <LatitudeDegrees>40.90260453522205352783203125</LatitudeDegrees>
              <LongitudeDegrees>-0.88501590304076671600341796875</LongitudeDegrees>
            </Position>
            <AltitudeMeters>1084</AltitudeMeters>
            <DistanceMeters>627049.08745496</DistanceMeters>
          </Trackpoint>
          <Trackpoint>
            <Time>2021-08-04T13:09:45.000Z</Time>
            <Position>
              <LatitudeDegrees>40.90252549387514591217041015625</LatitudeDegrees>
              <LongitudeDegrees>-0.88502260856330394744873046875</LongitudeDegrees>
            </Position>
            <AltitudeMeters>1083.800048828125</AltitudeMeters>
            <DistanceMeters>627057.90294348</DistanceMeters>
          </Trackpoint>
          <Trackpoint>
            <Time>2021-08-04T13:09:46.000Z</Time>
            <Position>
              <LatitudeDegrees>40.9024823270738124847412109375</LatitudeDegrees>
              <LongitudeDegrees>-0.8850255422294139862060546875</LongitudeDegrees>
            </Position>
            <AltitudeMeters>1083.5999755859375</AltitudeMeters>
            <DistanceMeters>627062.71283494</DistanceMeters>
          </Trackpoint>
          <Trackpoint>
            <Time>2021-08-04T13:09:49.000Z</Time>
            <Position>
              <LatitudeDegrees>40.902344696223735809326171875</LatitudeDegrees>
              <LongitudeDegrees>-0.885030739009380340576171875</LongitudeDegrees>
            </Position>
            <AltitudeMeters>1083.199951171875</AltitudeMeters>
            <DistanceMeters>627078.03720012</DistanceMeters>
          </Trackpoint>
          <Trackpoint>
            <Time>2021-08-04T13:09:59.000Z</Time>
            <Position>
              <LatitudeDegrees>40.9021202288568019866943359375</LatitudeDegrees>
              <LongitudeDegrees>-0.8852563798427581787109375</LongitudeDegrees>
            </Position>
            <AltitudeMeters>1084.800048828125</AltitudeMeters>
            <DistanceMeters>627109.41386428</DistanceMeters>
          </Trackpoint>
          <Trackpoint>
            <Time>2021-08-04T13:10:04.000Z</Time>
            <Position>
              <LatitudeDegrees>40.902091227471828460693359375</LatitudeDegrees>
              <LongitudeDegrees>-0.88536911644041538238525390625</LongitudeDegrees>
            </Position>
            <AltitudeMeters>1086.199951171875</AltitudeMeters>
            <DistanceMeters>627119.43186157</DistanceMeters>
          </Trackpoint>
          <Trackpoint>
            <Time>2021-08-04T13:10:07.000Z</Time>
            <Position>
              <LatitudeDegrees>40.90208158828318119049072265625</LatitudeDegrees>
              <LongitudeDegrees>-0.8854318968951702117919921875</LongitudeDegrees>
            </Position>
            <AltitudeMeters>1087.199951171875</AltitudeMeters>
            <DistanceMeters>627124.82080635</DistanceMeters>
          </Trackpoint>
          <Trackpoint>
            <Time>2021-08-04T13:10:13.000Z</Time>
            <Position>
              <LatitudeDegrees>40.902046971023082733154296875</LatitudeDegrees>
              <LongitudeDegrees>-0.88554245419800281524658203125</LongitudeDegrees>
            </Position>
            <AltitudeMeters>1088.4000244140625</AltitudeMeters>
            <DistanceMeters>627134.88780927</DistanceMeters>
          </Trackpoint>
          <Trackpoint>
            <Time>2021-08-04T13:10:24.000Z</Time>
            <Position>
              <LatitudeDegrees>40.90196474455296993255615234375</LatitudeDegrees>
              <LongitudeDegrees>-0.88571227155625820159912109375</LongitudeDegrees>
            </Position>
            <AltitudeMeters>1089.4000244140625</AltitudeMeters>
            <DistanceMeters>627151.85426963</DistanceMeters>
          </Trackpoint>
          <Trackpoint>
            <Time>2021-08-04T13:10:33.000Z</Time>
            <Position>
              <LatitudeDegrees>40.90188712812960147857666015625</LatitudeDegrees>
              <LongitudeDegrees>-0.88587890379130840301513671875</LongitudeDegrees>
            </Position>
            <AltitudeMeters>1090.5999755859375</AltitudeMeters>
            <DistanceMeters>627168.3205101</DistanceMeters>
          </Trackpoint>
          <Trackpoint>
            <Time>2021-08-04T13:10:41.000Z</Time>
            <Position>
              <LatitudeDegrees>40.90180431492626667022705078125</LatitudeDegrees>
              <LongitudeDegrees>-0.88600764982402324676513671875</LongitudeDegrees>
            </Position>
            <AltitudeMeters>1091.800048828125</AltitudeMeters>
            <DistanceMeters>627182.54280641</DistanceMeters>
          </Trackpoint>
          <Trackpoint>
            <Time>2021-08-04T13:10:44.000Z</Time>
            <Position>
              <LatitudeDegrees>40.9017715416848659515380859375</LatitudeDegrees>
              <LongitudeDegrees>-0.886047966778278350830078125</LongitudeDegrees>
            </Position>
            <AltitudeMeters>1092.4000244140625</AltitudeMeters>
            <DistanceMeters>627187.52333048</DistanceMeters>
          </Trackpoint>
          <Trackpoint>
            <Time>2021-08-04T13:10:51.000Z</Time>
            <Position>
              <LatitudeDegrees>40.901689231395721435546875</LatitudeDegrees>
              <LongitudeDegrees>-0.886143855750560760498046875</LongitudeDegrees>
            </Position>
            <AltitudeMeters>1092.800048828125</AltitudeMeters>
            <DistanceMeters>627199.72973295</DistanceMeters>
          </Trackpoint>
          <Trackpoint>
            <Time>2021-08-04T13:10:59.000Z</Time>
            <Position>
              <LatitudeDegrees>40.90159275569021701812744140625</LatitudeDegrees>
              <LongitudeDegrees>-0.8862650580704212188720703125</LongitudeDegrees>
            </Position>
            <AltitudeMeters>1094</AltitudeMeters>
            <DistanceMeters>627214.53744433</DistanceMeters>
          </Trackpoint>
          <Trackpoint>
            <Time>2021-08-04T13:11:09.000Z</Time>
            <Position>
              <LatitudeDegrees>40.90147473849356174468994140625</LatitudeDegrees>
              <LongitudeDegrees>-0.88643562979996204376220703125</LongitudeDegrees>
            </Position>
            <AltitudeMeters>1095</AltitudeMeters>
            <DistanceMeters>627233.99124868</DistanceMeters>
          </Trackpoint>
          <Trackpoint>
            <Time>2021-08-04T13:11:20.000Z</Time>
            <Position>
              <LatitudeDegrees>40.901327468454837799072265625</LatitudeDegrees>
              <LongitudeDegrees>-0.8866350352764129638671875</LongitudeDegrees>
            </Position>
            <AltitudeMeters>1095.800048828125</AltitudeMeters>
            <DistanceMeters>627257.44495066</DistanceMeters>
          </Trackpoint>
          <Trackpoint>
            <Time>2021-08-04T13:11:33.000Z</Time>
            <Position>
              <LatitudeDegrees>40.90114214457571506500244140625</LatitudeDegrees>
              <LongitudeDegrees>-0.88687584735453128814697265625</LongitudeDegrees>
            </Position>
            <AltitudeMeters>1096.800048828125</AltitudeMeters>
            <DistanceMeters>627286.35666258</DistanceMeters>
          </Trackpoint>
          <Trackpoint>
            <Time>2021-08-04T13:11:41.000Z</Time>
            <Position>
              <LatitudeDegrees>40.9010282345116138458251953125</LatitudeDegrees>
              <LongitudeDegrees>-0.8870066888630390167236328125</LongitudeDegrees>
            </Position>
            <AltitudeMeters>1097.800048828125</AltitudeMeters>
            <DistanceMeters>627303.14656807</DistanceMeters>
          </Trackpoint>
          <Trackpoint>
            <Time>2021-08-04T13:11:47.000Z</Time>
            <Position>
              <LatitudeDegrees>40.90093142352998256683349609375</LatitudeDegrees>
              <LongitudeDegrees>-0.88709545321762561798095703125</LongitudeDegrees>
            </Position>
            <AltitudeMeters>1098.800048828125</AltitudeMeters>
            <DistanceMeters>627316.25646681</DistanceMeters>
          </Trackpoint>
          <Trackpoint>
            <Time>2021-08-04T13:12:00.000Z</Time>
            <Position>
              <LatitudeDegrees>40.90073880739510059356689453125</LatitudeDegrees>
              <LongitudeDegrees>-0.8873352594673633575439453125</LongitudeDegrees>
            </Position>
            <AltitudeMeters>1100</AltitudeMeters>
            <DistanceMeters>627345.69481657</DistanceMeters>
          </Trackpoint>
          <Trackpoint>
            <Time>2021-08-04T13:12:13.000Z</Time>
            <Position>
              <LatitudeDegrees>40.90055474080145359039306640625</LatitudeDegrees>
              <LongitudeDegrees>-0.88758612982928752899169921875</LongitudeDegrees>
            </Position>
            <AltitudeMeters>1101</AltitudeMeters>
            <DistanceMeters>627375.10784895</DistanceMeters>
          </Trackpoint>
          <Trackpoint>
            <Time>2021-08-04T13:12:20.000Z</Time>
            <Position>
              <LatitudeDegrees>40.9004482068121433258056640625</LatitudeDegrees>
              <LongitudeDegrees>-0.88770213536918163299560546875</LongitudeDegrees>
            </Position>
            <AltitudeMeters>1102.4000244140625</AltitudeMeters>
            <DistanceMeters>627390.46458937</DistanceMeters>
          </Trackpoint>
          <Trackpoint>
            <Time>2021-08-04T13:12:27.000Z</Time>
            <Position>
              <LatitudeDegrees>40.90034049935638904571533203125</LatitudeDegrees>
              <LongitudeDegrees>-0.88780690915882587432861328125</LongitudeDegrees>
            </Position>
            <AltitudeMeters>1103.4000244140625</AltitudeMeters>
            <DistanceMeters>627405.34408581</DistanceMeters>
          </Trackpoint>
          <Trackpoint>
            <Time>2021-08-04T13:12:32.000Z</Time>
            <Position>
              <LatitudeDegrees>40.90026942081749439239501953125</LatitudeDegrees>
              <LongitudeDegrees>-0.887869186699390411376953125</LongitudeDegrees>
            </Position>
            <AltitudeMeters>1104.5999755859375</AltitudeMeters>
            <DistanceMeters>627414.83296837</DistanceMeters>
          </Trackpoint>
          <Trackpoint>
            <Time>2021-08-04T13:12:36.000Z</Time>
            <Position>
              <LatitudeDegrees>40.90021041221916675567626953125</LatitudeDegrees>
              <LongitudeDegrees>-0.88791570626199245452880859375</LongitudeDegrees>
            </Position>
            <AltitudeMeters>1105.800048828125</AltitudeMeters>
            <DistanceMeters>627422.47892906</DistanceMeters>
          </Trackpoint>
          <Trackpoint>
            <Time>2021-08-04T13:12:40.000Z</Time>
            <Position>
              <LatitudeDegrees>40.9001454524695873260498046875</LatitudeDegrees>
              <LongitudeDegrees>-0.88796029798686504364013671875</LongitudeDegrees>
            </Position>
            <AltitudeMeters>1107</AltitudeMeters>
            <DistanceMeters>627430.62521851</DistanceMeters>
          </Trackpoint>
          <Trackpoint>
            <Time>2021-08-04T13:12:49.000Z</Time>
            <Position>
              <LatitudeDegrees>40.90001461096107959747314453125</LatitudeDegrees>
              <LongitudeDegrees>-0.88809608481824398040771484375</LongitudeDegrees>
            </Position>
            <AltitudeMeters>1108</AltitudeMeters>
            <DistanceMeters>627449.1342174</DistanceMeters>
          </Trackpoint>
          <Trackpoint>
            <Time>2021-08-04T13:13:08.000Z</Time>
            <Position>
              <LatitudeDegrees>40.8996995352208614349365234375</LatitudeDegrees>
              <LongitudeDegrees>-0.88847176171839237213134765625</LongitudeDegrees>
            </Position>
            <AltitudeMeters>1109.199951171875</AltitudeMeters>
            <DistanceMeters>627496.34317923</DistanceMeters>
          </Trackpoint>
          <Trackpoint>
            <Time>2021-08-04T13:13:23.000Z</Time>
            <Position>
              <LatitudeDegrees>40.8994407020509243011474609375</LatitudeDegrees>
              <LongitudeDegrees>-0.88877434842288494110107421875</LongitudeDegrees>
            </Position>
            <AltitudeMeters>1110.4000244140625</AltitudeMeters>
            <DistanceMeters>627534.78732848</DistanceMeters>
          </Trackpoint>
          <Trackpoint>
            <Time>2021-08-04T13:13:29.000Z</Time>
            <Position>
              <LatitudeDegrees>40.89933282695710659027099609375</LatitudeDegrees>
              <LongitudeDegrees>-0.88884324766695499420166015625</LongitudeDegrees>
            </Position>
            <AltitudeMeters>1111.4000244140625</AltitudeMeters>
            <DistanceMeters>627548.11954603</DistanceMeters>
          </Trackpoint>
          <Trackpoint>
            <Time>2021-08-04T13:13:38.000Z</Time>
            <Position>
              <LatitudeDegrees>40.899141132831573486328125</LatitudeDegrees>
              <LongitudeDegrees>-0.88886101730167865753173828125</LongitudeDegrees>
            </Position>
            <AltitudeMeters>1112.4000244140625</AltitudeMeters>
            <DistanceMeters>627569.50752425</DistanceMeters>
          </Trackpoint>
          <Trackpoint>
            <Time>2021-08-04T13:13:48.000Z</Time>
            <Position>
              <LatitudeDegrees>40.898967124521732330322265625</LatitudeDegrees>
              <LongitudeDegrees>-0.8889294974505901336669921875</LongitudeDegrees>
            </Position>
            <AltitudeMeters>1113.5999755859375</AltitudeMeters>
            <DistanceMeters>627589.71338593</DistanceMeters>
          </Trackpoint>
          <Trackpoint>
            <Time>2021-08-04T13:13:55.000Z</Time>
            <Position>
              <LatitudeDegrees>40.8988688886165618896484375</LatitudeDegrees>
              <LongitudeDegrees>-0.88898741640150547027587890625</LongitudeDegrees>
            </Position>
            <AltitudeMeters>1114.5999755859375</AltitudeMeters>
            <DistanceMeters>627601.68373484</DistanceMeters>
          </Trackpoint>
          <Trackpoint>
            <Time>2021-08-04T13:14:03.000Z</Time>
            <Position>
              <LatitudeDegrees>40.898761264979839324951171875</LatitudeDegrees>
              <LongitudeDegrees>-0.88903049938380718231201171875</LongitudeDegrees>
            </Position>
            <AltitudeMeters>1115.5999755859375</AltitudeMeters>
            <DistanceMeters>627614.19915357</DistanceMeters>
          </Trackpoint>
          <Trackpoint>
            <Time>2021-08-04T13:14:14.000Z</Time>
            <Position>
              <LatitudeDegrees>40.898610055446624755859375</LatitudeDegrees>
              <LongitudeDegrees>-0.88906972669064998626708984375</LongitudeDegrees>
            </Position>
            <AltitudeMeters>1116.800048828125</AltitudeMeters>
            <DistanceMeters>627631.34983024</DistanceMeters>
          </Trackpoint>
          <Trackpoint>
            <Time>2021-08-04T13:14:24.000Z</Time>
            <Position>
              <LatitudeDegrees>40.89848273433744907379150390625</LatitudeDegrees>
              <LongitudeDegrees>-0.88914046995341777801513671875</LongitudeDegrees>
            </Position>
            <AltitudeMeters>1118</AltitudeMeters>
            <DistanceMeters>627646.72008918</DistanceMeters>
          </Trackpoint>
          <Trackpoint>
            <Time>2021-08-04T13:14:29.000Z</Time>
            <Position>
              <LatitudeDegrees>40.8984251506626605987548828125</LatitudeDegrees>
              <LongitudeDegrees>-0.8891755901277065277099609375</LongitudeDegrees>
            </Position>
            <AltitudeMeters>1119.199951171875</AltitudeMeters>
            <DistanceMeters>627653.77770221</DistanceMeters>
          </Trackpoint>
          <Trackpoint>
            <Time>2021-08-04T13:14:34.000Z</Time>
            <Position>
              <LatitudeDegrees>40.8983731828629970550537109375</LatitudeDegrees>
              <LongitudeDegrees>-0.889204256236553192138671875</LongitudeDegrees>
            </Position>
            <AltitudeMeters>1120.4000244140625</AltitudeMeters>
            <DistanceMeters>627660.04514447</DistanceMeters>
          </Trackpoint>
          <Trackpoint>
            <Time>2021-08-04T13:14:39.000Z</Time>
            <Position>
              <LatitudeDegrees>40.8983245678246021270751953125</LatitudeDegrees>
              <LongitudeDegrees>-0.8892319165170192718505859375</LongitudeDegrees>
            </Position>
            <AltitudeMeters>1121.4000244140625</AltitudeMeters>
            <DistanceMeters>627665.93526788</DistanceMeters>
          </Trackpoint>
          <Trackpoint>
            <Time>2021-08-04T13:14:45.000Z</Time>
            <Position>
              <LatitudeDegrees>40.8982653915882110595703125</LatitudeDegrees>
              <LongitudeDegrees>-0.8892724849283695220947265625</LongitudeDegrees>
            </Position>
            <AltitudeMeters>1122.199951171875</AltitudeMeters>
            <DistanceMeters>627673.35344055</DistanceMeters>
          </Trackpoint>
          <Trackpoint>
            <Time>2021-08-04T13:14:48.000Z</Time>
            <Position>
              <LatitudeDegrees>40.898234210908412933349609375</LatitudeDegrees>
              <LongitudeDegrees>-0.8892919309437274932861328125</LongitudeDegrees>
            </Position>
            <AltitudeMeters>1122.5999755859375</AltitudeMeters>
            <DistanceMeters>627677.18997865</DistanceMeters>
          </Trackpoint>
          <Trackpoint>
            <Time>2021-08-04T13:14:55.000Z</Time>
            <Position>
              <LatitudeDegrees>40.89815466664731502532958984375</LatitudeDegrees>
              <LongitudeDegrees>-0.88932872749865055084228515625</LongitudeDegrees>
            </Position>
            <AltitudeMeters>1123.199951171875</AltitudeMeters>
            <DistanceMeters>627686.56926459</DistanceMeters>
          </Trackpoint>
          <Trackpoint>
            <Time>2021-08-04T13:15:01.000Z</Time>
            <Position>
              <LatitudeDegrees>40.8980922214686870574951171875</LatitudeDegrees>
              <LongitudeDegrees>-0.88936510495841503143310546875</LongitudeDegrees>
            </Position>
            <AltitudeMeters>1124.4000244140625</AltitudeMeters>
            <DistanceMeters>627694.16308235</DistanceMeters>
          </Trackpoint>
          <Trackpoint>
            <Time>2021-08-04T13:15:07.000Z</Time>
            <Position>
              <LatitudeDegrees>40.8980347216129302978515625</LatitudeDegrees>
              <LongitudeDegrees>-0.88940215297043323516845703125</LongitudeDegrees>
            </Position>
            <AltitudeMeters>1125.4000244140625</AltitudeMeters>
            <DistanceMeters>627701.28121124</DistanceMeters>
          </Trackpoint>
          <Trackpoint>
            <Time>2021-08-04T13:15:13.000Z</Time>
            <Position>
              <LatitudeDegrees>40.89798971079289913177490234375</LatitudeDegrees>
              <LongitudeDegrees>-0.88945093564689159393310546875</LongitudeDegrees>
            </Position>
            <AltitudeMeters>1126.5999755859375</AltitudeMeters>
            <DistanceMeters>627707.75698726</DistanceMeters>
          </Trackpoint>
          <Trackpoint>
            <Time>2021-08-04T13:15:16.000Z</Time>
            <Position>
              <LatitudeDegrees>40.8979688398540019989013671875</LatitudeDegrees>
              <LongitudeDegrees>-0.8894749917089939117431640625</LongitudeDegrees>
            </Position>
            <AltitudeMeters>1126.800048828125</AltitudeMeters>
            <DistanceMeters>627710.83913593</DistanceMeters>
          </Trackpoint>
          <Trackpoint>
            <Time>2021-08-04T13:15:23.000Z</Time>
            <Position>
              <LatitudeDegrees>40.897906310856342315673828125</LatitudeDegrees>
              <LongitudeDegrees>-0.88952838443219661712646484375</LongitudeDegrees>
            </Position>
            <AltitudeMeters>1127.5999755859375</AltitudeMeters>
            <DistanceMeters>627719.12282779</DistanceMeters>
          </Trackpoint>
          <Trackpoint>
            <Time>2021-08-04T13:15:31.000Z</Time>
            <Position>
              <LatitudeDegrees>40.89781519956886768341064453125</LatitudeDegrees>
              <LongitudeDegrees>-0.88954280130565166473388671875</LongitudeDegrees>
            </Position>
            <AltitudeMeters>1128.5999755859375</AltitudeMeters>
            <DistanceMeters>627729.33632098</DistanceMeters>
          </Trackpoint>
          <Trackpoint>
            <Time>2021-08-04T13:15:38.000Z</Time>
            <Position>
              <LatitudeDegrees>40.89773339219391345977783203125</LatitudeDegrees>
              <LongitudeDegrees>-0.88951212354004383087158203125</LongitudeDegrees>
            </Position>
            <AltitudeMeters>1130</AltitudeMeters>
            <DistanceMeters>627738.80042835</DistanceMeters>
          </Trackpoint>
          <Trackpoint>
            <Time>2021-08-04T13:15:45.000Z</Time>
            <Position>
              <LatitudeDegrees>40.89765963144600391387939453125</LatitudeDegrees>
              <LongitudeDegrees>-0.88948010466992855072021484375</LongitudeDegrees>
            </Position>
            <AltitudeMeters>1131.199951171875</AltitudeMeters>
            <DistanceMeters>627747.44002393</DistanceMeters>
          </Trackpoint>
          <Trackpoint>
            <Time>2021-08-04T13:15:47.000Z</Time>
            <Position>
              <LatitudeDegrees>40.89763934724032878875732421875</LatitudeDegrees>
              <LongitudeDegrees>-0.8894729800522327423095703125</LongitudeDegrees>
            </Position>
            <AltitudeMeters>1131.800048828125</AltitudeMeters>
            <DistanceMeters>627749.77737206</DistanceMeters>
          </Trackpoint>
          <Trackpoint>
            <Time>2021-08-04T13:15:50.000Z</Time>
            <Position>
              <LatitudeDegrees>40.8976047299802303314208984375</LatitudeDegrees>
              <LongitudeDegrees>-0.88947339914739131927490234375</LongitudeDegrees>
            </Position>
            <AltitudeMeters>1132.4000244140625</AltitudeMeters>
            <DistanceMeters>627753.63035086</DistanceMeters>
          </Trackpoint>
          <Trackpoint>
            <Time>2021-08-04T13:15:58.000Z</Time>
            <Position>
              <LatitudeDegrees>40.89751370251178741455078125</LatitudeDegrees>
              <LongitudeDegrees>-0.88948781602084636688232421875</LongitudeDegrees>
            </Position>
            <AltitudeMeters>1133.199951171875</AltitudeMeters>
            <DistanceMeters>627763.83411396</DistanceMeters>
          </Trackpoint>
          <Trackpoint>
            <Time>2021-08-04T13:15:59.000Z</Time>
            <Position>
              <LatitudeDegrees>40.8975021354854106903076171875</LatitudeDegrees>
              <LongitudeDegrees>-0.88948689401149749755859375</LongitudeDegrees>
            </Position>
            <AltitudeMeters>1133.4000244140625</AltitudeMeters>
            <DistanceMeters>627765.12311903</DistanceMeters>
          </Trackpoint>
          <Trackpoint>
            <Time>2021-08-04T13:16:02.000Z</Time>
            <Position>
              <LatitudeDegrees>40.89746450074017047882080078125</LatitudeDegrees>
              <LongitudeDegrees>-0.88948345743119716644287109375</LongitudeDegrees>
            </Position>
            <AltitudeMeters>1133.800048828125</AltitudeMeters>
            <DistanceMeters>627769.32153649</DistanceMeters>
          </Trackpoint>
          <Trackpoint>
            <Time>2021-08-04T13:16:17.000Z</Time>
            <Position>
              <LatitudeDegrees>40.8972238563001155853271484375</LatitudeDegrees>
              <LongitudeDegrees>-0.8893854729831218719482421875</LongitudeDegrees>
            </Position>
            <AltitudeMeters>1134.5999755859375</AltitudeMeters>
            <DistanceMeters>627797.34555741</DistanceMeters>
          </Trackpoint>
          <Trackpoint>
            <Time>2021-08-04T13:16:35.000Z</Time>
            <Position>
              <LatitudeDegrees>40.89696577750146389007568359375</LatitudeDegrees>
              <LongitudeDegrees>-0.88918506167829036712646484375</LongitudeDegrees>
            </Position>
            <AltitudeMeters>1135.5999755859375</AltitudeMeters>
            <DistanceMeters>627830.65320025</DistanceMeters>
          </Trackpoint>
          <Trackpoint>
            <Time>2021-08-04T13:16:44.000Z</Time>
            <Position>
              <LatitudeDegrees>40.89683552272617816925048828125</LatitudeDegrees>
              <LongitudeDegrees>-0.8890954591333866119384765625</LongitudeDegrees>
            </Position>
            <AltitudeMeters>1136</AltitudeMeters>
            <DistanceMeters>627846.99337468</DistanceMeters>
          </Trackpoint>
          <Trackpoint>
            <Time>2021-08-04T13:16:48.000Z</Time>
            <Position>
              <LatitudeDegrees>40.89677550829946994781494140625</LatitudeDegrees>
              <LongitudeDegrees>-0.88909990154206752777099609375</LongitudeDegrees>
            </Position>
            <AltitudeMeters>1136.4000244140625</AltitudeMeters>
            <DistanceMeters>627853.68314738</DistanceMeters>
          </Trackpoint>
          <Trackpoint>
            <Time>2021-08-04T13:16:50.000Z</Time>
            <Position>
              <LatitudeDegrees>40.8967460878193378448486328125</LatitudeDegrees>
              <LongitudeDegrees>-0.8891201019287109375</LongitudeDegrees>
            </Position>
            <AltitudeMeters>1136.5999755859375</AltitudeMeters>
            <DistanceMeters>627857.37331747</DistanceMeters>
          </Trackpoint>
          <Trackpoint>
            <Time>2021-08-04T13:16:52.000Z</Time>
            <Position>
              <LatitudeDegrees>40.8967202715575695037841796875</LatitudeDegrees>
              <LongitudeDegrees>-0.889137201011180877685546875</LongitudeDegrees>
            </Position>
            <AltitudeMeters>1136.800048828125</AltitudeMeters>
            <DistanceMeters>627860.58741259</DistanceMeters>
          </Trackpoint>
          <Trackpoint>
            <Time>2021-08-04T13:17:05.000Z</Time>
            <Position>
              <LatitudeDegrees>40.89651047252118587493896484375</LatitudeDegrees>
              <LongitudeDegrees>-0.88905111886560916900634765625</LongitudeDegrees>
            </Position>
            <AltitudeMeters>1137.5999755859375</AltitudeMeters>
            <DistanceMeters>627885.03607064</DistanceMeters>
          </Trackpoint>
          <Trackpoint>
            <Time>2021-08-04T13:17:30.000Z</Time>
            <Position>
              <LatitudeDegrees>40.896237976849079132080078125</LatitudeDegrees>
              <LongitudeDegrees>-0.88934280909597873687744140625</LongitudeDegrees>
            </Position>
            <AltitudeMeters>1138.4000244140625</AltitudeMeters>
            <DistanceMeters>627924.05029478</DistanceMeters>
          </Trackpoint>
          <Trackpoint>
            <Time>2021-08-04T13:17:41.000Z</Time>
            <Position>
              <LatitudeDegrees>40.89617050252854824066162109375</LatitudeDegrees>
              <LongitudeDegrees>-0.88956777937710285186767578125</LongitudeDegrees>
            </Position>
            <AltitudeMeters>1139.4000244140625</AltitudeMeters>
            <DistanceMeters>627944.41308069</DistanceMeters>
          </Trackpoint>
          <Trackpoint>
            <Time>2021-08-04T13:17:43.000Z</Time>
            <Position>
              <LatitudeDegrees>40.8961690776050090789794921875</LatitudeDegrees>
              <LongitudeDegrees>-0.88960449211299419403076171875</LongitudeDegrees>
            </Position>
            <AltitudeMeters>1139.4000244140625</AltitudeMeters>
            <DistanceMeters>627947.50546666</DistanceMeters>
          </Trackpoint>
          <Trackpoint>
            <Time>2021-08-04T13:17:44.000Z</Time>
            <Position>
              <LatitudeDegrees>40.8961727656424045562744140625</LatitudeDegrees>
              <LongitudeDegrees>-0.8896228484809398651123046875</LongitudeDegrees>
            </Position>
            <AltitudeMeters>1139.4000244140625</AltitudeMeters>
            <DistanceMeters>627949.10123655</DistanceMeters>
          </Trackpoint>
          <Trackpoint>
            <Time>2021-08-04T13:17:53.000Z</Time>
            <Position>
              <LatitudeDegrees>40.89616077952086925506591796875</LatitudeDegrees>
              <LongitudeDegrees>-0.88956375606358051300048828125</LongitudeDegrees>
            </Position>
            <AltitudeMeters>1139</AltitudeMeters>
            <DistanceMeters>627954.24849255</DistanceMeters>
          </Trackpoint>
          <Trackpoint>
            <Time>2021-08-04T13:17:59.000Z</Time>
            <Position>
              <LatitudeDegrees>40.89622230269014835357666015625</LatitudeDegrees>
              <LongitudeDegrees>-0.88937164284288883209228515625</LongitudeDegrees>
            </Position>
            <AltitudeMeters>1138.4000244140625</AltitudeMeters>
            <DistanceMeters>627971.80196139</DistanceMeters>
          </Trackpoint>
          <Trackpoint>
            <Time>2021-08-04T13:18:05.000Z</Time>
            <Position>
              <LatitudeDegrees>40.89631249196827411651611328125</LatitudeDegrees>
              <LongitudeDegrees>-0.88912521488964557647705078125</LongitudeDegrees>
            </Position>
            <AltitudeMeters>1137.199951171875</AltitudeMeters>
            <DistanceMeters>627994.83707203</DistanceMeters>
          </Trackpoint>
          <Trackpoint>
            <Time>2021-08-04T13:18:09.000Z</Time>
            <Position>
              <LatitudeDegrees>40.89634568430483341217041015625</LatitudeDegrees>
              <LongitudeDegrees>-0.8890102989971637725830078125</LongitudeDegrees>
            </Position>
            <AltitudeMeters>1137.199951171875</AltitudeMeters>
            <DistanceMeters>628005.18713467</DistanceMeters>
          </Trackpoint>
          <Trackpoint>
            <Time>2021-08-04T13:18:54.000Z</Time>
            <Position>
              <LatitudeDegrees>40.8963585086166858673095703125</LatitudeDegrees>
              <LongitudeDegrees>-0.88898188434541225433349609375</LongitudeDegrees>
            </Position>
            <AltitudeMeters>1137.199951171875</AltitudeMeters>
            <DistanceMeters>628007.9706227</DistanceMeters>
          </Trackpoint>
          <Trackpoint>
            <Time>2021-08-04T13:18:58.000Z</Time>
            <Position>
              <LatitudeDegrees>40.89638960547745227813720703125</LatitudeDegrees>
              <LongitudeDegrees>-0.88885984383523464202880859375</LongitudeDegrees>
            </Position>
            <AltitudeMeters>1136.5999755859375</AltitudeMeters>
            <DistanceMeters>628018.80616855</DistanceMeters>
          </Trackpoint>
          <Trackpoint>
            <Time>2021-08-04T13:19:00.000Z</Time>
            <Position>
              <LatitudeDegrees>40.89640687219798564910888671875</LatitudeDegrees>
              <LongitudeDegrees>-0.88877954520285129547119140625</LongitudeDegrees>
            </Position>
            <AltitudeMeters>1135.800048828125</AltitudeMeters>
            <DistanceMeters>628025.83043632</DistanceMeters>
          </Trackpoint>
          <Trackpoint>
            <Time>2021-08-04T13:19:07.000Z</Time>
            <Position>
              <LatitudeDegrees>40.89649706147611141204833984375</LatitudeDegrees>
              <LongitudeDegrees>-0.8884071372449398040771484375</LongitudeDegrees>
            </Position>
            <AltitudeMeters>1134.5999755859375</AltitudeMeters>
            <DistanceMeters>628058.73095749</DistanceMeters>
          </Trackpoint>
          <Trackpoint>
            <Time>2021-08-04T13:19:08.000Z</Time>
            <Position>
              <LatitudeDegrees>40.89650929905474185943603515625</LatitudeDegrees>
              <LongitudeDegrees>-0.8883382380008697509765625</LongitudeDegrees>
            </Position>
            <AltitudeMeters>1134.199951171875</AltitudeMeters>
            <DistanceMeters>628064.68588068</DistanceMeters>
          </Trackpoint>
          <Trackpoint>
            <Time>2021-08-04T13:19:11.000Z</Time>
            <Position>
              <LatitudeDegrees>40.89650125242769718170166015625</LatitudeDegrees>
              <LongitudeDegrees>-0.8881362341344356536865234375</LongitudeDegrees>
            </Position>
            <AltitudeMeters>1133.5999755859375</AltitudeMeters>
            <DistanceMeters>628081.70468505</DistanceMeters>
          </Trackpoint>
          <Trackpoint>
            <Time>2021-08-04T13:19:14.000Z</Time>
            <Position>
              <LatitudeDegrees>40.8964745141565799713134765625</LatitudeDegrees>
              <LongitudeDegrees>-0.8879935741424560546875</LongitudeDegrees>
            </Position>
            <AltitudeMeters>1133.199951171875</AltitudeMeters>
            <DistanceMeters>628094.07057824</DistanceMeters>
          </Trackpoint>
          <Trackpoint>
            <Time>2021-08-04T13:19:18.000Z</Time>
            <Position>
              <LatitudeDegrees>40.89638650417327880859375</LatitudeDegrees>
              <LongitudeDegrees>-0.88784404098987579345703125</LongitudeDegrees>
            </Position>
            <AltitudeMeters>1132.5999755859375</AltitudeMeters>
            <DistanceMeters>628110.01525673</DistanceMeters>
          </Trackpoint>
          <Trackpoint>
            <Time>2021-08-04T13:19:19.000Z</Time>
            <Position>
              <LatitudeDegrees>40.8963665552437305450439453125</LatitudeDegrees>
              <LongitudeDegrees>-0.8878029696643352508544921875</LongitudeDegrees>
            </Position>
            <AltitudeMeters>1132.4000244140625</AltitudeMeters>
            <DistanceMeters>628114.12344525</DistanceMeters>
          </Trackpoint>
          <Trackpoint>
            <Time>2021-08-04T13:19:29.000Z</Time>
            <Position>
              <LatitudeDegrees>40.89619196020066738128662109375</LatitudeDegrees>
              <LongitudeDegrees>-0.887606330215930938720703125</LongitudeDegrees>
            </Position>
            <AltitudeMeters>1131.4000244140625</AltitudeMeters>
            <DistanceMeters>628139.64444354</DistanceMeters>
          </Trackpoint>
          <Trackpoint>
            <Time>2021-08-04T13:19:34.000Z</Time>
            <Position>
              <LatitudeDegrees>40.896179974079132080078125</LatitudeDegrees>
              <LongitudeDegrees>-0.88758344762027263641357421875</LongitudeDegrees>
            </Position>
            <AltitudeMeters>1130.800048828125</AltitudeMeters>
            <DistanceMeters>628141.98372256</DistanceMeters>
          </Trackpoint>
          <Trackpoint>
            <Time>2021-08-04T13:19:48.000Z</Time>
            <Position>
              <LatitudeDegrees>40.8963216282427310943603515625</LatitudeDegrees>
              <LongitudeDegrees>-0.8876931667327880859375</LongitudeDegrees>
            </Position>
            <AltitudeMeters>1131.800048828125</AltitudeMeters>
            <DistanceMeters>628160.2535815</DistanceMeters>
          </Trackpoint>
          <Trackpoint>
            <Time>2021-08-04T13:19:52.000Z</Time>
            <Position>
              <LatitudeDegrees>40.8963575027883052825927734375</LatitudeDegrees>
              <LongitudeDegrees>-0.887765586376190185546875</LongitudeDegrees>
            </Position>
            <AltitudeMeters>1132.199951171875</AltitudeMeters>
            <DistanceMeters>628167.53786109</DistanceMeters>
          </Trackpoint>
          <Trackpoint>
            <Time>2021-08-04T13:19:53.000Z</Time>
            <Position>
              <LatitudeDegrees>40.8963695727288722991943359375</LatitudeDegrees>
              <LongitudeDegrees>-0.88778176344931125640869140625</LongitudeDegrees>
            </Position>
            <AltitudeMeters>1132.4000244140625</AltitudeMeters>
            <DistanceMeters>628169.44787441</DistanceMeters>
          </Trackpoint>
          <Trackpoint>
            <Time>2021-08-04T13:19:59.000Z</Time>
            <Position>
              <LatitudeDegrees>40.8964315988123416900634765625</LatitudeDegrees>
              <LongitudeDegrees>-0.88788871653378009796142578125</LongitudeDegrees>
            </Position>
            <AltitudeMeters>1132.5999755859375</AltitudeMeters>
            <DistanceMeters>628180.78914457</DistanceMeters>
          </Trackpoint>
          <Trackpoint>
            <Time>2021-08-04T13:20:05.000Z</Time>
            <Position>
              <LatitudeDegrees>40.89651483111083507537841796875</LatitudeDegrees>
              <LongitudeDegrees>-0.88798192329704761505126953125</LongitudeDegrees>
            </Position>
            <AltitudeMeters>1133.4000244140625</AltitudeMeters>
            <DistanceMeters>628192.92655233</DistanceMeters>
          </Trackpoint>
          <Trackpoint>
            <Time>2021-08-04T13:20:11.000Z</Time>
            <Position>
              <LatitudeDegrees>40.8966096304357051849365234375</LatitudeDegrees>
              <LongitudeDegrees>-0.88797404430806636810302734375</LongitudeDegrees>
            </Position>
            <AltitudeMeters>1134.4000244140625</AltitudeMeters>
            <DistanceMeters>628203.49888822</DistanceMeters>
          </Trackpoint>
          <Trackpoint>
            <Time>2021-08-04T13:20:12.000Z</Time>
            <Position>
              <LatitudeDegrees>40.89662614278495311737060546875</LatitudeDegrees>
              <LongitudeDegrees>-0.8879672549664974212646484375</LongitudeDegrees>
            </Position>
            <AltitudeMeters>1134.5999755859375</AltitudeMeters>
            <DistanceMeters>628205.42303254</DistanceMeters>
          </Trackpoint>
          <Trackpoint>
            <Time>2021-08-04T13:20:18.000Z</Time>
            <Position>
              <LatitudeDegrees>40.896707363426685333251953125</LatitudeDegrees>
              <LongitudeDegrees>-0.887905396521091461181640625</LongitudeDegrees>
            </Position>
            <AltitudeMeters>1135.4000244140625</AltitudeMeters>
            <DistanceMeters>628215.85391894</DistanceMeters>
          </Trackpoint>
          <Trackpoint>
            <Time>2021-08-04T13:20:21.000Z</Time>
            <Position>
              <LatitudeDegrees>40.8967346884310245513916015625</LatitudeDegrees>
              <LongitudeDegrees>-0.8878556080162525177001953125</LongitudeDegrees>
            </Position>
            <AltitudeMeters>1136</AltitudeMeters>
            <DistanceMeters>628221.03091294</DistanceMeters>
          </Trackpoint>
          <Trackpoint>
            <Time>2021-08-04T13:20:23.000Z</Time>
            <Position>
              <LatitudeDegrees>40.89673309586942195892333984375</LatitudeDegrees>
              <LongitudeDegrees>-0.88782048784196376800537109375</LongitudeDegrees>
            </Position>
            <AltitudeMeters>1136.4000244140625</AltitudeMeters>
            <DistanceMeters>628223.99050314</DistanceMeters>
          </Trackpoint>
          <Trackpoint>
            <Time>2021-08-04T13:20:40.000Z</Time>
            <Position>
              <LatitudeDegrees>40.8967219479382038116455078125</LatitudeDegrees>
              <LongitudeDegrees>-0.88777841068804264068603515625</LongitudeDegrees>
            </Position>
            <AltitudeMeters>1137</AltitudeMeters>
            <DistanceMeters>628227.74135092</DistanceMeters>
          </Trackpoint>
          <Trackpoint>
            <Time>2021-08-04T13:20:43.000Z</Time>
            <Position>
              <LatitudeDegrees>40.89672052301466464996337890625</LatitudeDegrees>
              <LongitudeDegrees>-0.8877858705818653106689453125</LongitudeDegrees>
            </Position>
            <AltitudeMeters>1137.199951171875</AltitudeMeters>
            <DistanceMeters>628228.38585345</DistanceMeters>
          </Trackpoint>
          <Trackpoint>
            <Time>2021-08-04T13:22:02.000Z</Time>
            <Position>
              <LatitudeDegrees>40.89670510031282901763916015625</LatitudeDegrees>
              <LongitudeDegrees>-0.88788050226867198944091796875</LongitudeDegrees>
            </Position>
            <AltitudeMeters>1136.800048828125</AltitudeMeters>
            <DistanceMeters>628236.52992562</DistanceMeters>
          </Trackpoint>
          <Trackpoint>
            <Time>2021-08-04T13:22:13.000Z</Time>
            <Position>
              <LatitudeDegrees>40.8966870792210102081298828125</LatitudeDegrees>
              <LongitudeDegrees>-0.887911431491374969482421875</LongitudeDegrees>
            </Position>
            <AltitudeMeters>1135.199951171875</AltitudeMeters>
            <DistanceMeters>628239.81625662</DistanceMeters>
          </Trackpoint>
          <Trackpoint>
            <Time>2021-08-04T13:22:19.000Z</Time>
            <Position>
              <LatitudeDegrees>40.8968071080744266510009765625</LatitudeDegrees>
              <LongitudeDegrees>-0.88788553141057491302490234375</LongitudeDegrees>
            </Position>
            <AltitudeMeters>1136.800048828125</AltitudeMeters>
            <DistanceMeters>628253.3524777</DistanceMeters>
          </Trackpoint>
          <Trackpoint>
            <Time>2021-08-04T13:22:20.000Z</Time>
            <Position>
              <LatitudeDegrees>40.89681808836758136749267578125</LatitudeDegrees>
              <LongitudeDegrees>-0.88786759413778781890869140625</LongitudeDegrees>
            </Position>
            <AltitudeMeters>1137.199951171875</AltitudeMeters>
            <DistanceMeters>628255.29530347</DistanceMeters>
          </Trackpoint>
          <Trackpoint>
            <Time>2021-08-04T13:22:23.000Z</Time>
            <Position>
              <LatitudeDegrees>40.896840132772922515869140625</LatitudeDegrees>
              <LongitudeDegrees>-0.8878125250339508056640625</LongitudeDegrees>
            </Position>
            <AltitudeMeters>1137.800048828125</AltitudeMeters>
            <DistanceMeters>628260.53816077</DistanceMeters>
          </Trackpoint>
          <Trackpoint>
            <Time>2021-08-04T13:22:28.000Z</Time>
            <Position>
              <LatitudeDegrees>40.89684608392417430877685546875</LatitudeDegrees>
              <LongitudeDegrees>-0.88770146481692790985107421875</LongitudeDegrees>
            </Position>
            <AltitudeMeters>1139</AltitudeMeters>
            <DistanceMeters>628269.90540438</DistanceMeters>
          </Trackpoint>
          <Trackpoint>
            <Time>2021-08-04T13:22:33.000Z</Time>
            <Position>
              <LatitudeDegrees>40.896850526332855224609375</LatitudeDegrees>
              <LongitudeDegrees>-0.8875997923314571380615234375</LongitudeDegrees>
            </Position>
            <AltitudeMeters>1140.199951171875</AltitudeMeters>
            <DistanceMeters>628278.47363182</DistanceMeters>
          </Trackpoint>
          <Trackpoint>
            <Time>2021-08-04T13:22:38.000Z</Time>
            <Position>
              <LatitudeDegrees>40.89693124406039714813232421875</LatitudeDegrees>
              <LongitudeDegrees>-0.88754841126501560211181640625</LongitudeDegrees>
            </Position>
            <AltitudeMeters>1140.5999755859375</AltitudeMeters>
            <DistanceMeters>628288.44328835</DistanceMeters>
          </Trackpoint>
          <Trackpoint>
            <Time>2021-08-04T13:22:42.000Z</Time>
            <Position>
              <LatitudeDegrees>40.89695848524570465087890625</LatitudeDegrees>
              <LongitudeDegrees>-0.8876148797571659088134765625</LongitudeDegrees>
            </Position>
            <AltitudeMeters>1141.199951171875</AltitudeMeters>
            <DistanceMeters>628294.80369262</DistanceMeters>
          </Trackpoint>
          <Trackpoint>
            <Time>2021-08-04T13:22:44.000Z</Time>
            <Position>
              <LatitudeDegrees>40.896944738924503326416015625</LatitudeDegrees>
              <LongitudeDegrees>-0.887654609978199005126953125</LongitudeDegrees>
            </Position>
            <AltitudeMeters>1141.5999755859375</AltitudeMeters>
            <DistanceMeters>628298.47915101</DistanceMeters>
          </Trackpoint>
          <Trackpoint>
            <Time>2021-08-04T13:22:49.000Z</Time>
            <Position>
              <LatitudeDegrees>40.89692940004169940948486328125</LatitudeDegrees>
              <LongitudeDegrees>-0.8877121098339557647705078125</LongitudeDegrees>
            </Position>
            <AltitudeMeters>1141.800048828125</AltitudeMeters>
            <DistanceMeters>628303.60971363</DistanceMeters>
          </Trackpoint>
          <Trackpoint>
            <Time>2021-08-04T13:26:48.000Z</Time>
            <Position>
              <LatitudeDegrees>40.89695069007575511932373046875</LatitudeDegrees>
              <LongitudeDegrees>-0.8876178972423076629638671875</LongitudeDegrees>
            </Position>
            <AltitudeMeters>1141.5999755859375</AltitudeMeters>
            <DistanceMeters>628311.88304304</DistanceMeters>
          </Trackpoint>
          <Trackpoint>
            <Time>2021-08-04T13:26:56.000Z</Time>
            <Position>
              <LatitudeDegrees>40.89685010723769664764404296875</LatitudeDegrees>
              <LongitudeDegrees>-0.8877127803862094879150390625</LongitudeDegrees>
            </Position>
            <AltitudeMeters>1140.4000244140625</AltitudeMeters>
            <DistanceMeters>628325.63337905</DistanceMeters>
          </Trackpoint>
          <Trackpoint>
            <Time>2021-08-04T13:26:57.000Z</Time>
            <Position>
              <LatitudeDegrees>40.89685178361833095550537109375</LatitudeDegrees>
              <LongitudeDegrees>-0.88776885531842708587646484375</LongitudeDegrees>
            </Position>
            <AltitudeMeters>1140</AltitudeMeters>
            <DistanceMeters>628330.35612072</DistanceMeters>
          </Trackpoint>
          <Trackpoint>
            <Time>2021-08-04T13:26:58.000Z</Time>
            <Position>
              <LatitudeDegrees>40.8968496881425380706787109375</LatitudeDegrees>
              <LongitudeDegrees>-0.88782601989805698394775390625</LongitudeDegrees>
            </Position>
            <AltitudeMeters>1139.4000244140625</AltitudeMeters>
            <DistanceMeters>628335.17070338</DistanceMeters>
          </Trackpoint>
          <Trackpoint>
            <Time>2021-08-04T13:27:00.000Z</Time>
            <Position>
              <LatitudeDegrees>40.89679763652384281158447265625</LatitudeDegrees>
              <LongitudeDegrees>-0.8879008702933788299560546875</LongitudeDegrees>
            </Position>
            <AltitudeMeters>1138.199951171875</AltitudeMeters>
            <DistanceMeters>628343.72838531</DistanceMeters>
          </Trackpoint>
          <Trackpoint>
            <Time>2021-08-04T13:27:02.000Z</Time>
            <Position>
              <LatitudeDegrees>40.8967182599008083343505859375</LatitudeDegrees>
              <LongitudeDegrees>-0.8879333920776844024658203125</LongitudeDegrees>
            </Position>
            <AltitudeMeters>1136.800048828125</AltitudeMeters>
            <DistanceMeters>628352.97727249</DistanceMeters>
          </Trackpoint>
          <Trackpoint>
            <Time>2021-08-04T13:27:04.000Z</Time>
            <Position>
              <LatitudeDegrees>40.89664206840097904205322265625</LatitudeDegrees>
              <LongitudeDegrees>-0.88797144591808319091796875</LongitudeDegrees>
            </Position>
            <AltitudeMeters>1135.5999755859375</AltitudeMeters>
            <DistanceMeters>628362.04124709</DistanceMeters>
          </Trackpoint>
          <Trackpoint>
            <Time>2021-08-04T13:27:07.000Z</Time>
            <Position>
              <LatitudeDegrees>40.89653469622135162353515625</LatitudeDegrees>
              <LongitudeDegrees>-0.8880668319761753082275390625</LongitudeDegrees>
            </Position>
            <AltitudeMeters>1133.800048828125</AltitudeMeters>
            <DistanceMeters>628376.43646137</DistanceMeters>
          </Trackpoint>
          <Trackpoint>
            <Time>2021-08-04T13:27:10.000Z</Time>
            <Position>
              <LatitudeDegrees>40.8965073712170124053955078125</LatitudeDegrees>
              <LongitudeDegrees>-0.888238660991191864013671875</LongitudeDegrees>
            </Position>
            <AltitudeMeters>1133</AltitudeMeters>
            <DistanceMeters>628391.20937197</DistanceMeters>
          </Trackpoint>
          <Trackpoint>
            <Time>2021-08-04T13:27:19.000Z</Time>
            <Position>
              <LatitudeDegrees>40.89646839536726474761962890625</LatitudeDegrees>
              <LongitudeDegrees>-0.88856748305261135101318359375</LongitudeDegrees>
            </Position>
            <AltitudeMeters>1135</AltitudeMeters>
            <DistanceMeters>628419.21195664</DistanceMeters>
          </Trackpoint>
          <Trackpoint>
            <Time>2021-08-04T13:27:23.000Z</Time>
            <Position>
              <LatitudeDegrees>40.89643704704940319061279296875</LatitudeDegrees>
              <LongitudeDegrees>-0.8886802196502685546875</LongitudeDegrees>
            </Position>
            <AltitudeMeters>1136</AltitudeMeters>
            <DistanceMeters>628429.31835039</DistanceMeters>
          </Trackpoint>
          <Trackpoint>
            <Time>2021-08-04T13:27:35.000Z</Time>
            <Position>
              <LatitudeDegrees>40.89634291827678680419921875</LatitudeDegrees>
              <LongitudeDegrees>-0.88901641778647899627685546875</LongitudeDegrees>
            </Position>
            <AltitudeMeters>1137</AltitudeMeters>
            <DistanceMeters>628459.48151206</DistanceMeters>
          </Trackpoint>
          <Trackpoint>
            <Time>2021-08-04T13:27:43.000Z</Time>
            <Position>
              <LatitudeDegrees>40.896270833909511566162109375</LatitudeDegrees>
              <LongitudeDegrees>-0.889221690595149993896484375</LongitudeDegrees>
            </Position>
            <AltitudeMeters>1138</AltitudeMeters>
            <DistanceMeters>628478.52435349</DistanceMeters>
          </Trackpoint>
          <Trackpoint>
            <Time>2021-08-04T13:27:58.000Z</Time>
            <Position>
              <LatitudeDegrees>40.896234624087810516357421875</LatitudeDegrees>
              <LongitudeDegrees>-0.8893851377069950103759765625</LongitudeDegrees>
            </Position>
            <AltitudeMeters>1138.4000244140625</AltitudeMeters>
            <DistanceMeters>628492.85418037</DistanceMeters>
          </Trackpoint>
          <Trackpoint>
            <Time>2021-08-04T13:48:09.000Z</Time>
            <Position>
              <LatitudeDegrees>40.896187014877796173095703125</LatitudeDegrees>
              <LongitudeDegrees>-0.8894059248268604278564453125</LongitudeDegrees>
            </Position>
            <AltitudeMeters>1139.800048828125</AltitudeMeters>
            <DistanceMeters>628498.43492707</DistanceMeters>
          </Trackpoint>
          <Trackpoint>
            <Time>2021-08-04T13:48:20.000Z</Time>
            <Position>
              <LatitudeDegrees>40.89611384086310863494873046875</LatitudeDegrees>
              <LongitudeDegrees>-0.88976961560547351837158203125</LongitudeDegrees>
            </Position>
            <AltitudeMeters>1138.5999755859375</AltitudeMeters>
            <DistanceMeters>628530.09864964</DistanceMeters>
          </Trackpoint>
          <Trackpoint>
            <Time>2021-08-04T13:48:37.000Z</Time>
            <Position>
              <LatitudeDegrees>40.8961429260671138763427734375</LatitudeDegrees>
              <LongitudeDegrees>-0.8905056305229663848876953125</LongitudeDegrees>
            </Position>
            <AltitudeMeters>1139.199951171875</AltitudeMeters>
            <DistanceMeters>628592.10632957</DistanceMeters>
          </Trackpoint>
          <Trackpoint>
            <Time>2021-08-04T13:48:51.000Z</Time>
            <Position>
              <LatitudeDegrees>40.89613144285976886749267578125</LatitudeDegrees>
              <LongitudeDegrees>-0.8910953812301158905029296875</LongitudeDegrees>
            </Position>
            <AltitudeMeters>1139.800048828125</AltitudeMeters>
            <DistanceMeters>628641.74030256</DistanceMeters>
          </Trackpoint>
          <Trackpoint>
            <Time>2021-08-04T13:49:07.000Z</Time>
            <Position>
              <LatitudeDegrees>40.8962790481746196746826171875</LatitudeDegrees>
              <LongitudeDegrees>-0.8917481638491153717041015625</LongitudeDegrees>
            </Position>
            <AltitudeMeters>1140.800048828125</AltitudeMeters>
            <DistanceMeters>628699.06528122</DistanceMeters>
          </Trackpoint>
          <Trackpoint>
            <Time>2021-08-04T13:49:11.000Z</Time>
            <Position>
              <LatitudeDegrees>40.89635037817060947418212890625</LatitudeDegrees>
              <LongitudeDegrees>-0.89190758764743804931640625</LongitudeDegrees>
            </Position>
            <AltitudeMeters>1140.800048828125</AltitudeMeters>
            <DistanceMeters>628714.65140058</DistanceMeters>
          </Trackpoint>
          <Trackpoint>
            <Time>2021-08-04T13:49:27.000Z</Time>
            <Position>
              <LatitudeDegrees>40.896635949611663818359375</LatitudeDegrees>
              <LongitudeDegrees>-0.89256045408546924591064453125</LongitudeDegrees>
            </Position>
            <AltitudeMeters>1141</AltitudeMeters>
            <DistanceMeters>628778.11217281</DistanceMeters>
          </Trackpoint>
          <Trackpoint>
            <Time>2021-08-04T13:49:39.000Z</Time>
            <Position>
              <LatitudeDegrees>40.8967903442680835723876953125</LatitudeDegrees>
              <LongitudeDegrees>-0.893039144575595855712890625</LongitudeDegrees>
            </Position>
            <AltitudeMeters>1141.4000244140625</AltitudeMeters>
            <DistanceMeters>628821.89835454</DistanceMeters>
          </Trackpoint>
          <Trackpoint>
            <Time>2021-08-04T13:49:49.000Z</Time>
            <Position>
              <LatitudeDegrees>40.89682932011783123016357421875</LatitudeDegrees>
              <LongitudeDegrees>-0.89346989057958126068115234375</LongitudeDegrees>
            </Position>
            <AltitudeMeters>1141.800048828125</AltitudeMeters>
            <DistanceMeters>628858.39653089</DistanceMeters>
          </Trackpoint>
          <Trackpoint>
            <Time>2021-08-04T13:49:58.000Z</Time>
            <Position>
              <LatitudeDegrees>40.89684046804904937744140625</LatitudeDegrees>
              <LongitudeDegrees>-0.893810279667377471923828125</LongitudeDegrees>
            </Position>
            <AltitudeMeters>1143</AltitudeMeters>
            <DistanceMeters>628887.06091045</DistanceMeters>
          </Trackpoint>
          <Trackpoint>
            <Time>2021-08-04T13:50:05.000Z</Time>
            <Position>
              <LatitudeDegrees>40.89683686383068561553955078125</LatitudeDegrees>
              <LongitudeDegrees>-0.8940250240266323089599609375</LongitudeDegrees>
            </Position>
            <AltitudeMeters>1143.800048828125</AltitudeMeters>
            <DistanceMeters>628905.13248329</DistanceMeters>
          </Trackpoint>
          <Trackpoint>
            <Time>2021-08-04T13:50:08.000Z</Time>
            <Position>
              <LatitudeDegrees>40.89682932011783123016357421875</LatitudeDegrees>
              <LongitudeDegrees>-0.89411144144833087921142578125</LongitudeDegrees>
            </Position>
            <AltitudeMeters>1144</AltitudeMeters>
            <DistanceMeters>628912.45139123</DistanceMeters>
          </Trackpoint>
          <Trackpoint>
            <Time>2021-08-04T13:50:18.000Z</Time>
            <Position>
              <LatitudeDegrees>40.89681138284504413604736328125</LatitudeDegrees>
              <LongitudeDegrees>-0.89438050054013729095458984375</LongitudeDegrees>
            </Position>
            <AltitudeMeters>1145.199951171875</AltitudeMeters>
            <DistanceMeters>628935.17569433</DistanceMeters>
          </Trackpoint>
          <Trackpoint>
            <Time>2021-08-04T13:50:26.000Z</Time>
            <Position>
              <LatitudeDegrees>40.896773748099803924560546875</LatitudeDegrees>
              <LongitudeDegrees>-0.89456406421959400177001953125</LongitudeDegrees>
            </Position>
            <AltitudeMeters>1146.199951171875</AltitudeMeters>
            <DistanceMeters>628951.17690639</DistanceMeters>
          </Trackpoint>
          <Trackpoint>
            <Time>2021-08-04T13:50:35.000Z</Time>
            <Position>
              <LatitudeDegrees>40.89673024602234363555908203125</LatitudeDegrees>
              <LongitudeDegrees>-0.894771516323089599609375</LongitudeDegrees>
            </Position>
            <AltitudeMeters>1147.199951171875</AltitudeMeters>
            <DistanceMeters>628969.28940697</DistanceMeters>
          </Trackpoint>
          <Trackpoint>
            <Time>2021-08-04T13:50:42.000Z</Time>
            <Position>
              <LatitudeDegrees>40.89667551219463348388671875</LatitudeDegrees>
              <LongitudeDegrees>-0.89493052102625370025634765625</LongitudeDegrees>
            </Position>
            <AltitudeMeters>1148.4000244140625</AltitudeMeters>
            <DistanceMeters>628983.98816913</DistanceMeters>
          </Trackpoint>
          <Trackpoint>
            <Time>2021-08-04T13:50:49.000Z</Time>
            <Position>
              <LatitudeDegrees>40.89662245474755764007568359375</LatitudeDegrees>
              <LongitudeDegrees>-0.8950720913708209991455078125</LongitudeDegrees>
            </Position>
            <AltitudeMeters>1149.4000244140625</AltitudeMeters>
            <DistanceMeters>628997.28240308</DistanceMeters>
          </Trackpoint>
          <Trackpoint>
            <Time>2021-08-04T13:50:58.000Z</Time>
            <Position>
              <LatitudeDegrees>40.89653679169714450836181640625</LatitudeDegrees>
              <LongitudeDegrees>-0.895238220691680908203125</LongitudeDegrees>
            </Position>
            <AltitudeMeters>1150.4000244140625</AltitudeMeters>
            <DistanceMeters>629014.20142856</DistanceMeters>
          </Trackpoint>
          <Trackpoint>
            <Time>2021-08-04T13:51:07.000Z</Time>
            <Position>
              <LatitudeDegrees>40.8964450098574161529541015625</LatitudeDegrees>
              <LongitudeDegrees>-0.89537057094275951385498046875</LongitudeDegrees>
            </Position>
            <AltitudeMeters>1151.5999755859375</AltitudeMeters>
            <DistanceMeters>629029.31246899</DistanceMeters>
          </Trackpoint>
          <Trackpoint>
            <Time>2021-08-04T13:51:14.000Z</Time>
            <Position>
              <LatitudeDegrees>40.896367393434047698974609375</LatitudeDegrees>
              <LongitudeDegrees>-0.8954533003270626068115234375</LongitudeDegrees>
            </Position>
            <AltitudeMeters>1152.5999755859375</AltitudeMeters>
            <DistanceMeters>629040.40620199</DistanceMeters>
          </Trackpoint>
          <Trackpoint>
            <Time>2021-08-04T13:51:23.000Z</Time>
            <Position>
              <LatitudeDegrees>40.89625650085508823394775390625</LatitudeDegrees>
              <LongitudeDegrees>-0.89554608799517154693603515625</LongitudeDegrees>
            </Position>
            <AltitudeMeters>1153.5999755859375</AltitudeMeters>
            <DistanceMeters>629055.01004893</DistanceMeters>
          </Trackpoint>
          <Trackpoint>
            <Time>2021-08-04T13:51:37.000Z</Time>
            <Position>
              <LatitudeDegrees>40.89608869515359401702880859375</LatitudeDegrees>
              <LongitudeDegrees>-0.8956695534288883209228515625</LongitudeDegrees>
            </Position>
            <AltitudeMeters>1154.800048828125</AltitudeMeters>
            <DistanceMeters>629076.38155488</DistanceMeters>
          </Trackpoint>
          <Trackpoint>
            <Time>2021-08-04T13:51:44.000Z</Time>
            <Position>
              <LatitudeDegrees>40.8960222266614437103271484375</LatitudeDegrees>
              <LongitudeDegrees>-0.89574985206127166748046875</LongitudeDegrees>
            </Position>
            <AltitudeMeters>1155.800048828125</AltitudeMeters>
            <DistanceMeters>629086.40000285</DistanceMeters>
          </Trackpoint>
          <Trackpoint>
            <Time>2021-08-04T13:51:47.000Z</Time>
            <Position>
              <LatitudeDegrees>40.89598844759166240692138671875</LatitudeDegrees>
              <LongitudeDegrees>-0.89578212238848209381103515625</LongitudeDegrees>
            </Position>
            <AltitudeMeters>1156.199951171875</AltitudeMeters>
            <DistanceMeters>629091.03785171</DistanceMeters>
          </Trackpoint>
          <Trackpoint>
            <Time>2021-08-04T13:51:56.000Z</Time>
            <Position>
              <LatitudeDegrees>40.8959105797111988067626953125</LatitudeDegrees>
              <LongitudeDegrees>-0.895911119878292083740234375</LongitudeDegrees>
            </Position>
            <AltitudeMeters>1157</AltitudeMeters>
            <DistanceMeters>629104.92671391</DistanceMeters>
          </Trackpoint>
          <Trackpoint>
            <Time>2021-08-04T13:52:08.000Z</Time>
            <Position>
              <LatitudeDegrees>40.89584528468549251556396484375</LatitudeDegrees>
              <LongitudeDegrees>-0.89610298164188861846923828125</LongitudeDegrees>
            </Position>
            <AltitudeMeters>1158</AltitudeMeters>
            <DistanceMeters>629122.62924968</DistanceMeters>
          </Trackpoint>
          <Trackpoint>
            <Time>2021-08-04T13:52:14.000Z</Time>
            <Position>
              <LatitudeDegrees>40.8958230726420879364013671875</LatitudeDegrees>
              <LongitudeDegrees>-0.89617925696074962615966796875</LongitudeDegrees>
            </Position>
            <AltitudeMeters>1159.199951171875</AltitudeMeters>
            <DistanceMeters>629129.50605929</DistanceMeters>
          </Trackpoint>
          <Trackpoint>
            <Time>2021-08-04T13:52:21.000Z</Time>
            <Position>
              <LatitudeDegrees>40.8957747928798198699951171875</LatitudeDegrees>
              <LongitudeDegrees>-0.89628503657877445220947265625</LongitudeDegrees>
            </Position>
            <AltitudeMeters>1160.199951171875</AltitudeMeters>
            <DistanceMeters>629139.90182549</DistanceMeters>
          </Trackpoint>
          <Trackpoint>
            <Time>2021-08-04T13:52:30.000Z</Time>
            <Position>
              <LatitudeDegrees>40.8957318775355815887451171875</LatitudeDegrees>
              <LongitudeDegrees>-0.89642669074237346649169921875</LongitudeDegrees>
            </Position>
            <AltitudeMeters>1161.199951171875</AltitudeMeters>
            <DistanceMeters>629152.74133777</DistanceMeters>
          </Trackpoint>
          <Trackpoint>
            <Time>2021-08-04T13:52:38.000Z</Time>
            <Position>
              <LatitudeDegrees>40.8957211486995220184326171875</LatitudeDegrees>
              <LongitudeDegrees>-0.896568596363067626953125</LongitudeDegrees>
            </Position>
            <AltitudeMeters>1162.4000244140625</AltitudeMeters>
            <DistanceMeters>629164.73994222</DistanceMeters>
          </Trackpoint>
          <Trackpoint>
            <Time>2021-08-04T13:52:45.000Z</Time>
            <Position>
              <LatitudeDegrees>40.89571394026279449462890625</LatitudeDegrees>
              <LongitudeDegrees>-0.89667563326656818389892578125</LongitudeDegrees>
            </Position>
            <AltitudeMeters>1163.4000244140625</AltitudeMeters>
            <DistanceMeters>629173.78097379</DistanceMeters>
          </Trackpoint>
          <Trackpoint>
            <Time>2021-08-04T13:52:57.000Z</Time>
            <Position>
              <LatitudeDegrees>40.89558477513492107391357421875</LatitudeDegrees>
              <LongitudeDegrees>-0.8967206440865993499755859375</LongitudeDegrees>
            </Position>
            <AltitudeMeters>1164.4000244140625</AltitudeMeters>
            <DistanceMeters>629188.64772028</DistanceMeters>
          </Trackpoint>
          <Trackpoint>
            <Time>2021-08-04T13:53:03.000Z</Time>
            <Position>
              <LatitudeDegrees>40.8955134451389312744140625</LatitudeDegrees>
              <LongitudeDegrees>-0.89668870903551578521728515625</LongitudeDegrees>
            </Position>
            <AltitudeMeters>1165.4000244140625</AltitudeMeters>
            <DistanceMeters>629197.02948589</DistanceMeters>
          </Trackpoint>
          <Trackpoint>
            <Time>2021-08-04T13:53:16.000Z</Time>
            <Position>
              <LatitudeDegrees>40.8953593857586383819580078125</LatitudeDegrees>
              <LongitudeDegrees>-0.89654085226356983184814453125</LongitudeDegrees>
            </Position>
            <AltitudeMeters>1166.5999755859375</AltitudeMeters>
            <DistanceMeters>629218.21383717</DistanceMeters>
          </Trackpoint>
          <Trackpoint>
            <Time>2021-08-04T13:53:31.000Z</Time>
            <Position>
              <LatitudeDegrees>40.8951377682387828826904296875</LatitudeDegrees>
              <LongitudeDegrees>-0.89628973044455051422119140625</LongitudeDegrees>
            </Position>
            <AltitudeMeters>1167.5999755859375</AltitudeMeters>
            <DistanceMeters>629250.69184957</DistanceMeters>
          </Trackpoint>
          <Trackpoint>
            <Time>2021-08-04T13:53:41.000Z</Time>
            <Position>
              <LatitudeDegrees>40.89498714543879032135009765625</LatitudeDegrees>
              <LongitudeDegrees>-0.8961493335664272308349609375</LongitudeDegrees>
            </Position>
            <AltitudeMeters>1168.800048828125</AltitudeMeters>
            <DistanceMeters>629271.19979462</DistanceMeters>
          </Trackpoint>
          <Trackpoint>
            <Time>2021-08-04T13:53:54.000Z</Time>
            <Position>
              <LatitudeDegrees>40.89482034556567668914794921875</LatitudeDegrees>
              <LongitudeDegrees>-0.8960038237273693084716796875</LongitudeDegrees>
            </Position>
            <AltitudeMeters>1169.800048828125</AltitudeMeters>
            <DistanceMeters>629293.43807618</DistanceMeters>
          </Trackpoint>
          <Trackpoint>
            <Time>2021-08-04T13:54:05.000Z</Time>
            <Position>
              <LatitudeDegrees>40.8946851454675197601318359375</LatitudeDegrees>
              <LongitudeDegrees>-0.895882956683635711669921875</LongitudeDegrees>
            </Position>
            <AltitudeMeters>1170.800048828125</AltitudeMeters>
            <DistanceMeters>629311.59986663</DistanceMeters>
          </Trackpoint>
          <Trackpoint>
            <Time>2021-08-04T13:54:06.000Z</Time>
            <Position>
              <LatitudeDegrees>40.89467248879373073577880859375</LatitudeDegrees>
              <LongitudeDegrees>-0.8958725631237030029296875</LongitudeDegrees>
            </Position>
            <AltitudeMeters>1171</AltitudeMeters>
            <DistanceMeters>629313.25943685</DistanceMeters>
          </Trackpoint>
          <Trackpoint>
            <Time>2021-08-04T13:54:21.000Z</Time>
            <Position>
              <LatitudeDegrees>40.8944749273359775543212890625</LatitudeDegrees>
              <LongitudeDegrees>-0.89571121148765087127685546875</LongitudeDegrees>
            </Position>
            <AltitudeMeters>1172</AltitudeMeters>
            <DistanceMeters>629339.10128746</DistanceMeters>
          </Trackpoint>
          <Trackpoint>
            <Time>2021-08-04T13:54:31.000Z</Time>
            <Position>
              <LatitudeDegrees>40.89433419518172740936279296875</LatitudeDegrees>
              <LongitudeDegrees>-0.89559168554842472076416015625</LongitudeDegrees>
            </Position>
            <AltitudeMeters>1173</AltitudeMeters>
            <DistanceMeters>629357.71536905</DistanceMeters>
          </Trackpoint>
          <Trackpoint>
            <Time>2021-08-04T13:54:42.000Z</Time>
            <Position>
              <LatitudeDegrees>40.894153900444507598876953125</LatitudeDegrees>
              <LongitudeDegrees>-0.89541164226830005645751953125</LongitudeDegrees>
            </Position>
            <AltitudeMeters>1174</AltitudeMeters>
            <DistanceMeters>629382.85815194</DistanceMeters>
          </Trackpoint>
          <Trackpoint>
            <Time>2021-08-04T13:54:55.000Z</Time>
            <Position>
              <LatitudeDegrees>40.8939819037914276123046875</LatitudeDegrees>
              <LongitudeDegrees>-0.89516219682991504669189453125</LongitudeDegrees>
            </Position>
            <AltitudeMeters>1175</AltitudeMeters>
            <DistanceMeters>629411.26478252</DistanceMeters>
          </Trackpoint>
          <Trackpoint>
            <Time>2021-08-04T13:55:04.000Z</Time>
            <Position>
              <LatitudeDegrees>40.89387528598308563232421875</LatitudeDegrees>
              <LongitudeDegrees>-0.8949939720332622528076171875</LongitudeDegrees>
            </Position>
            <AltitudeMeters>1176</AltitudeMeters>
            <DistanceMeters>629429.73471018</DistanceMeters>
          </Trackpoint>
          <Trackpoint>
            <Time>2021-08-04T13:55:18.000Z</Time>
            <Position>
              <LatitudeDegrees>40.8937136828899383544921875</LatitudeDegrees>
              <LongitudeDegrees>-0.8946516551077365875244140625</LongitudeDegrees>
            </Position>
            <AltitudeMeters>1177</AltitudeMeters>
            <DistanceMeters>629463.69104098</DistanceMeters>
          </Trackpoint>
          <Trackpoint>
            <Time>2021-08-04T13:55:35.000Z</Time>
            <Position>
              <LatitudeDegrees>40.89375936426222324371337890625</LatitudeDegrees>
              <LongitudeDegrees>-0.89413038454949855804443359375</LongitudeDegrees>
            </Position>
            <AltitudeMeters>1178.199951171875</AltitudeMeters>
            <DistanceMeters>629507.84237915</DistanceMeters>
          </Trackpoint>
          <Trackpoint>
            <Time>2021-08-04T13:55:43.000Z</Time>
            <Position>
              <LatitudeDegrees>40.8937691710889339447021484375</LatitudeDegrees>
              <LongitudeDegrees>-0.8939204178750514984130859375</LongitudeDegrees>
            </Position>
            <AltitudeMeters>1179.199951171875</AltitudeMeters>
            <DistanceMeters>629525.54185405</DistanceMeters>
          </Trackpoint>
          <Trackpoint>
            <Time>2021-08-04T13:55:49.000Z</Time>
            <Position>
              <LatitudeDegrees>40.89375332929193973541259765625</LatitudeDegrees>
              <LongitudeDegrees>-0.89378052391111850738525390625</LongitudeDegrees>
            </Position>
            <AltitudeMeters>1180.4000244140625</AltitudeMeters>
            <DistanceMeters>629537.44335728</DistanceMeters>
          </Trackpoint>
          <Trackpoint>
            <Time>2021-08-04T13:55:51.000Z</Time>
            <Position>
              <LatitudeDegrees>40.8937467075884342193603515625</LatitudeDegrees>
              <LongitudeDegrees>-0.8937383629381656646728515625</LongitudeDegrees>
            </Position>
            <AltitudeMeters>1180.800048828125</AltitudeMeters>
            <DistanceMeters>629541.06685437</DistanceMeters>
          </Trackpoint>
          <Trackpoint>
            <Time>2021-08-04T13:55:54.000Z</Time>
            <Position>
              <LatitudeDegrees>40.893733464181423187255859375</LatitudeDegrees>
              <LongitudeDegrees>-0.89367692358791828155517578125</LongitudeDegrees>
            </Position>
            <AltitudeMeters>1181.4000244140625</AltitudeMeters>
            <DistanceMeters>629546.4423771</DistanceMeters>
          </Trackpoint>
          <Trackpoint>
            <Time>2021-08-04T13:56:04.000Z</Time>
            <Position>
              <LatitudeDegrees>40.893631540238857269287109375</LatitudeDegrees>
              <LongitudeDegrees>-0.893460921943187713623046875</LongitudeDegrees>
            </Position>
            <AltitudeMeters>1182.5999755859375</AltitudeMeters>
            <DistanceMeters>629567.86579105</DistanceMeters>
          </Trackpoint>
          <Trackpoint>
            <Time>2021-08-04T13:56:26.000Z</Time>
            <Position>
              <LatitudeDegrees>40.89321068488061428070068359375</LatitudeDegrees>
              <LongitudeDegrees>-0.8929932117462158203125</LongitudeDegrees>
            </Position>
            <AltitudeMeters>1183.199951171875</AltitudeMeters>
            <DistanceMeters>629629.04336688</DistanceMeters>
          </Trackpoint>
          <Trackpoint>
            <Time>2021-08-04T13:56:33.000Z</Time>
            <Position>
              <LatitudeDegrees>40.89305587112903594970703125</LatitudeDegrees>
              <LongitudeDegrees>-0.89274586178362369537353515625</LongitudeDegrees>
            </Position>
            <AltitudeMeters>1183.4000244140625</AltitudeMeters>
            <DistanceMeters>629656.06205374</DistanceMeters>
          </Trackpoint>
          <Trackpoint>
            <Time>2021-08-04T13:56:41.000Z</Time>
            <Position>
              <LatitudeDegrees>40.89288546703755855560302734375</LatitudeDegrees>
              <LongitudeDegrees>-0.8923856914043426513671875</LongitudeDegrees>
            </Position>
            <AltitudeMeters>1182.4000244140625</AltitudeMeters>
            <DistanceMeters>629691.81155331</DistanceMeters>
          </Trackpoint>
          <Trackpoint>
            <Time>2021-08-04T13:56:44.000Z</Time>
            <Position>
              <LatitudeDegrees>40.8928065933287143707275390625</LatitudeDegrees>
              <LongitudeDegrees>-0.8922038041055202484130859375</LongitudeDegrees>
            </Position>
            <AltitudeMeters>1181.199951171875</AltitudeMeters>
            <DistanceMeters>629709.45430635</DistanceMeters>
          </Trackpoint>
          <Trackpoint>
            <Time>2021-08-04T13:56:45.000Z</Time>
            <Position>
              <LatitudeDegrees>40.89277700521051883697509765625</LatitudeDegrees>
              <LongitudeDegrees>-0.89214823208749294281005859375</LongitudeDegrees>
            </Position>
            <AltitudeMeters>1181</AltitudeMeters>
            <DistanceMeters>629715.17330424</DistanceMeters>
          </Trackpoint>
          <Trackpoint>
            <Time>2021-08-04T13:56:57.000Z</Time>
            <Position>
              <LatitudeDegrees>40.892329998314380645751953125</LatitudeDegrees>
              <LongitudeDegrees>-0.89172209613025188446044921875</LongitudeDegrees>
            </Position>
            <AltitudeMeters>1181.4000244140625</AltitudeMeters>
            <DistanceMeters>629776.49904303</DistanceMeters>
          </Trackpoint>
          <Trackpoint>
            <Time>2021-08-04T13:57:01.000Z</Time>
            <Position>
              <LatitudeDegrees>40.89213344268500804901123046875</LatitudeDegrees>
              <LongitudeDegrees>-0.89157189242541790008544921875</LongitudeDegrees>
            </Position>
            <AltitudeMeters>1180.199951171875</AltitudeMeters>
            <DistanceMeters>629801.76399986</DistanceMeters>
          </Trackpoint>
          <Trackpoint>
            <Time>2021-08-04T13:57:10.000Z</Time>
            <Position>
              <LatitudeDegrees>40.8916743658483028411865234375</LatitudeDegrees>
              <LongitudeDegrees>-0.89126360602676868438720703125</LongitudeDegrees>
            </Position>
            <AltitudeMeters>1179</AltitudeMeters>
            <DistanceMeters>629859.06707846</DistanceMeters>
          </Trackpoint>
          <Trackpoint>
            <Time>2021-08-04T13:57:12.000Z</Time>
            <Position>
              <LatitudeDegrees>40.89156012050807476043701171875</LatitudeDegrees>
              <LongitudeDegrees>-0.891172997653484344482421875</LongitudeDegrees>
            </Position>
            <AltitudeMeters>1178</AltitudeMeters>
            <DistanceMeters>629873.89307323</DistanceMeters>
          </Trackpoint>
          <Trackpoint>
            <Time>2021-08-04T13:57:13.000Z</Time>
            <Position>
              <LatitudeDegrees>40.8914993517100811004638671875</LatitudeDegrees>
              <LongitudeDegrees>-0.8911352790892124176025390625</LongitudeDegrees>
            </Position>
            <AltitudeMeters>1177.5999755859375</AltitudeMeters>
            <DistanceMeters>629881.36461474</DistanceMeters>
          </Trackpoint>
          <Trackpoint>
            <Time>2021-08-04T13:57:16.000Z</Time>
            <Position>
              <LatitudeDegrees>40.8913042210042476654052734375</LatitudeDegrees>
              <LongitudeDegrees>-0.89102891273796558380126953125</LongitudeDegrees>
            </Position>
            <AltitudeMeters>1176.199951171875</AltitudeMeters>
            <DistanceMeters>629904.85486487</DistanceMeters>
          </Trackpoint>
          <Trackpoint>
            <Time>2021-08-04T13:57:18.000Z</Time>
            <Position>
              <LatitudeDegrees>40.8911640755832195281982421875</LatitudeDegrees>
              <LongitudeDegrees>-0.89094107039272785186767578125</LongitudeDegrees>
            </Position>
            <AltitudeMeters>1175</AltitudeMeters>
            <DistanceMeters>629922.11575541</DistanceMeters>
          </Trackpoint>
          <Trackpoint>
            <Time>2021-08-04T13:57:26.000Z</Time>
            <Position>
              <LatitudeDegrees>40.89069678448140621185302734375</LatitudeDegrees>
              <LongitudeDegrees>-0.89050470851361751556396484375</LongitudeDegrees>
            </Position>
            <AltitudeMeters>1174.800048828125</AltitudeMeters>
            <DistanceMeters>629985.77961173</DistanceMeters>
          </Trackpoint>
          <Trackpoint>
            <Time>2021-08-04T13:57:36.000Z</Time>
            <Position>
              <LatitudeDegrees>40.89025321416556835174560546875</LatitudeDegrees>
              <LongitudeDegrees>-0.89002107270061969757080078125</LongitudeDegrees>
            </Position>
            <AltitudeMeters>1175.800048828125</AltitudeMeters>
            <DistanceMeters>630049.75891864</DistanceMeters>
          </Trackpoint>
          <Trackpoint>
            <Time>2021-08-04T13:57:43.000Z</Time>
            <Position>
              <LatitudeDegrees>40.88990083895623683929443359375</LatitudeDegrees>
              <LongitudeDegrees>-0.8897006325423717498779296875</LongitudeDegrees>
            </Position>
            <AltitudeMeters>1174.800048828125</AltitudeMeters>
            <DistanceMeters>630097.35279026</DistanceMeters>
          </Trackpoint>
          <Trackpoint>
            <Time>2021-08-04T13:57:52.000Z</Time>
            <Position>
              <LatitudeDegrees>40.8894270099699497222900390625</LatitudeDegrees>
              <LongitudeDegrees>-0.88932369835674762725830078125</LongitudeDegrees>
            </Position>
            <AltitudeMeters>1174</AltitudeMeters>
            <DistanceMeters>630158.89298851</DistanceMeters>
          </Trackpoint>
          <Trackpoint>
            <Time>2021-08-04T13:58:01.000Z</Time>
            <Position>
              <LatitudeDegrees>40.8890028856694698333740234375</LatitudeDegrees>
              <LongitudeDegrees>-0.88902245275676250457763671875</LongitudeDegrees>
            </Position>
            <AltitudeMeters>1176</AltitudeMeters>
            <DistanceMeters>630212.47356356</DistanceMeters>
          </Trackpoint>
          <Trackpoint>
            <Time>2021-08-04T13:58:09.000Z</Time>
            <Position>
              <LatitudeDegrees>40.8886709623038768768310546875</LatitudeDegrees>
              <LongitudeDegrees>-0.8887481130659580230712890625</LongitudeDegrees>
            </Position>
            <AltitudeMeters>1177</AltitudeMeters>
            <DistanceMeters>630256.03603164</DistanceMeters>
          </Trackpoint>
          <Trackpoint>
            <Time>2021-08-04T13:58:21.000Z</Time>
            <Position>
              <LatitudeDegrees>40.888247005641460418701171875</LatitudeDegrees>
              <LongitudeDegrees>-0.88826623745262622833251953125</LongitudeDegrees>
            </Position>
            <AltitudeMeters>1177.199951171875</AltitudeMeters>
            <DistanceMeters>630318.25059558</DistanceMeters>
          </Trackpoint>
          <Trackpoint>
            <Time>2021-08-04T13:58:32.000Z</Time>
            <Position>
              <LatitudeDegrees>40.88791139423847198486328125</LatitudeDegrees>
              <LongitudeDegrees>-0.887765586376190185546875</LongitudeDegrees>
            </Position>
            <AltitudeMeters>1176.800048828125</AltitudeMeters>
            <DistanceMeters>630374.55310188</DistanceMeters>
          </Trackpoint>
          <Trackpoint>
            <Time>2021-08-04T13:58:40.000Z</Time>
            <Position>
              <LatitudeDegrees>40.88766085915267467498779296875</LatitudeDegrees>
              <LongitudeDegrees>-0.88738001883029937744140625</LongitudeDegrees>
            </Position>
            <AltitudeMeters>1175.800048828125</AltitudeMeters>
            <DistanceMeters>630417.33306907</DistanceMeters>
          </Trackpoint>
          <Trackpoint>
            <Time>2021-08-04T13:58:46.000Z</Time>
            <Position>
              <LatitudeDegrees>40.8874793909490108489990234375</LatitudeDegrees>
              <LongitudeDegrees>-0.88721296750009059906005859375</LongitudeDegrees>
            </Position>
            <AltitudeMeters>1174.800048828125</AltitudeMeters>
            <DistanceMeters>630441.94058492</DistanceMeters>
          </Trackpoint>
          <Trackpoint>
            <Time>2021-08-04T13:58:48.000Z</Time>
            <Position>
              <LatitudeDegrees>40.88739213533699512481689453125</LatitudeDegrees>
              <LongitudeDegrees>-0.8871527016162872314453125</LongitudeDegrees>
            </Position>
            <AltitudeMeters>1173.5999755859375</AltitudeMeters>
            <DistanceMeters>630452.89630379</DistanceMeters>
          </Trackpoint>
          <Trackpoint>
            <Time>2021-08-04T13:58:51.000Z</Time>
            <Position>
              <LatitudeDegrees>40.88724276982247829437255859375</LatitudeDegrees>
              <LongitudeDegrees>-0.88706946931779384613037109375</LongitudeDegrees>
            </Position>
            <AltitudeMeters>1172</AltitudeMeters>
            <DistanceMeters>630470.9358685</DistanceMeters>
          </Trackpoint>
          <Trackpoint>
            <Time>2021-08-04T13:58:52.000Z</Time>
            <Position>
              <LatitudeDegrees>40.88719147257506847381591796875</LatitudeDegrees>
              <LongitudeDegrees>-0.8870341815054416656494140625</LongitudeDegrees>
            </Position>
            <AltitudeMeters>1171.5999755859375</AltitudeMeters>
            <DistanceMeters>630477.37107872</DistanceMeters>
          </Trackpoint>
          <Trackpoint>
            <Time>2021-08-04T13:58:54.000Z</Time>
            <Position>
              <LatitudeDegrees>40.88709063827991485595703125</LatitudeDegrees>
              <LongitudeDegrees>-0.88694281876087188720703125</LongitudeDegrees>
            </Position>
            <AltitudeMeters>1170.800048828125</AltitudeMeters>
            <DistanceMeters>630490.97484242</DistanceMeters>
          </Trackpoint>
          <Trackpoint>
            <Time>2021-08-04T13:58:57.000Z</Time>
            <Position>
              <LatitudeDegrees>40.88694118894636631011962890625</LatitudeDegrees>
              <LongitudeDegrees>-0.88679370470345020294189453125</LongitudeDegrees>
            </Position>
            <AltitudeMeters>1169.5999755859375</AltitudeMeters>
            <DistanceMeters>630511.81019446</DistanceMeters>
          </Trackpoint>
          <Trackpoint>
            <Time>2021-08-04T13:59:02.000Z</Time>
            <Position>
              <LatitudeDegrees>40.88671202771365642547607421875</LatitudeDegrees>
              <LongitudeDegrees>-0.88651173748075962066650390625</LongitudeDegrees>
            </Position>
            <AltitudeMeters>1168.199951171875</AltitudeMeters>
            <DistanceMeters>630546.64523046</DistanceMeters>
          </Trackpoint>
          <Trackpoint>
            <Time>2021-08-04T13:59:05.000Z</Time>
            <Position>
              <LatitudeDegrees>40.88655780069530010223388671875</LatitudeDegrees>
              <LongitudeDegrees>-0.886316187679767608642578125</LongitudeDegrees>
            </Position>
            <AltitudeMeters>1167</AltitudeMeters>
            <DistanceMeters>630570.42356527</DistanceMeters>
          </Trackpoint>
          <Trackpoint>
            <Time>2021-08-04T13:59:07.000Z</Time>
            <Position>
              <LatitudeDegrees>40.8864386938512325286865234375</LatitudeDegrees>
              <LongitudeDegrees>-0.8861852623522281646728515625</LongitudeDegrees>
            </Position>
            <AltitudeMeters>1165.800048828125</AltitudeMeters>
            <DistanceMeters>630587.66063594</DistanceMeters>
          </Trackpoint>
          <Trackpoint>
            <Time>2021-08-04T13:59:08.000Z</Time>
            <Position>
              <LatitudeDegrees>40.88637909851968288421630859375</LatitudeDegrees>
              <LongitudeDegrees>-0.88612130843102931976318359375</LongitudeDegrees>
            </Position>
            <AltitudeMeters>1164.199951171875</AltitudeMeters>
            <DistanceMeters>630596.20247518</DistanceMeters>
          </Trackpoint>
          <Trackpoint>
            <Time>2021-08-04T13:59:10.000Z</Time>
            <Position>
              <LatitudeDegrees>40.886266529560089111328125</LatitudeDegrees>
              <LongitudeDegrees>-0.88599742390215396881103515625</LongitudeDegrees>
            </Position>
            <AltitudeMeters>1163</AltitudeMeters>
            <DistanceMeters>630612.50114963</DistanceMeters>
          </Trackpoint>
          <Trackpoint>
            <Time>2021-08-04T13:59:15.000Z</Time>
            <Position>
              <LatitudeDegrees>40.88602035306394100189208984375</LatitudeDegrees>
              <LongitudeDegrees>-0.885679163038730621337890625</LongitudeDegrees>
            </Position>
            <AltitudeMeters>1161.800048828125</AltitudeMeters>
            <DistanceMeters>630650.81471416</DistanceMeters>
          </Trackpoint>
          <Trackpoint>
            <Time>2021-08-04T13:59:18.000Z</Time>
            <Position>
              <LatitudeDegrees>40.88586227037012577056884765625</LatitudeDegrees>
              <LongitudeDegrees>-0.8854808472096920013427734375</LongitudeDegrees>
            </Position>
            <AltitudeMeters>1160.800048828125</AltitudeMeters>
            <DistanceMeters>630675.06422092</DistanceMeters>
          </Trackpoint>
          <Trackpoint>
            <Time>2021-08-04T13:59:21.000Z</Time>
            <Position>
              <LatitudeDegrees>40.8856846578419208526611328125</LatitudeDegrees>
              <LongitudeDegrees>-0.885297618806362152099609375</LongitudeDegrees>
            </Position>
            <AltitudeMeters>1159.5999755859375</AltitudeMeters>
            <DistanceMeters>630700.13398997</DistanceMeters>
          </Trackpoint>
          <Trackpoint>
            <Time>2021-08-04T13:59:24.000Z</Time>
            <Position>
              <LatitudeDegrees>40.885531939566135406494140625</LatitudeDegrees>
              <LongitudeDegrees>-0.88512872345745563507080078125</LongitudeDegrees>
            </Position>
            <AltitudeMeters>1158.4000244140625</AltitudeMeters>
            <DistanceMeters>630722.29050314</DistanceMeters>
          </Trackpoint>
          <Trackpoint>
            <Time>2021-08-04T13:59:29.000Z</Time>
            <Position>
              <LatitudeDegrees>40.885318033397197723388671875</LatitudeDegrees>
              <LongitudeDegrees>-0.88485538959503173828125</LongitudeDegrees>
            </Position>
            <AltitudeMeters>1157.4000244140625</AltitudeMeters>
            <DistanceMeters>630755.39391531</DistanceMeters>
          </Trackpoint>
          <Trackpoint>
            <Time>2021-08-04T13:59:31.000Z</Time>
            <Position>
              <LatitudeDegrees>40.8852244913578033447265625</LatitudeDegrees>
              <LongitudeDegrees>-0.8847318403422832489013671875</LongitudeDegrees>
            </Position>
            <AltitudeMeters>1156.5999755859375</AltitudeMeters>
            <DistanceMeters>630770.10710743</DistanceMeters>
          </Trackpoint>
          <Trackpoint>
            <Time>2021-08-04T13:59:32.000Z</Time>
            <Position>
              <LatitudeDegrees>40.88517696596682071685791015625</LatitudeDegrees>
              <LongitudeDegrees>-0.884665958583354949951171875</LongitudeDegrees>
            </Position>
            <AltitudeMeters>1156.199951171875</AltitudeMeters>
            <DistanceMeters>630777.76958465</DistanceMeters>
          </Trackpoint>
          <Trackpoint>
            <Time>2021-08-04T13:59:35.000Z</Time>
            <Position>
              <LatitudeDegrees>40.8850322104990482330322265625</LatitudeDegrees>
              <LongitudeDegrees>-0.88445750065147876739501953125</LongitudeDegrees>
            </Position>
            <AltitudeMeters>1155</AltitudeMeters>
            <DistanceMeters>630801.58700269</DistanceMeters>
          </Trackpoint>
          <Trackpoint>
            <Time>2021-08-04T13:59:37.000Z</Time>
            <Position>
              <LatitudeDegrees>40.8849292807281017303466796875</LatitudeDegrees>
              <LongitudeDegrees>-0.88431718759238719940185546875</LongitudeDegrees>
            </Position>
            <AltitudeMeters>1153.800048828125</AltitudeMeters>
            <DistanceMeters>630818.03842971</DistanceMeters>
          </Trackpoint>
          <Trackpoint>
            <Time>2021-08-04T13:59:41.000Z</Time>
            <Position>
              <LatitudeDegrees>40.884720571339130401611328125</LatitudeDegrees>
              <LongitudeDegrees>-0.88402700610458850860595703125</LongitudeDegrees>
            </Position>
            <AltitudeMeters>1152.4000244140625</AltitudeMeters>
            <DistanceMeters>630851.74091027</DistanceMeters>
          </Trackpoint>
          <Trackpoint>
            <Time>2021-08-04T13:59:44.000Z</Time>
            <Position>
              <LatitudeDegrees>40.884555615484714508056640625</LatitudeDegrees>
              <LongitudeDegrees>-0.88378694839775562286376953125</LongitudeDegrees>
            </Position>
            <AltitudeMeters>1151.199951171875</AltitudeMeters>
            <DistanceMeters>630879.03790256</DistanceMeters>
          </Trackpoint>
          <Trackpoint>
            <Time>2021-08-04T13:59:45.000Z</Time>
            <Position>
              <LatitudeDegrees>40.88449384085834026336669921875</LatitudeDegrees>
              <LongitudeDegrees>-0.88370597921311855316162109375</LongitudeDegrees>
            </Position>
            <AltitudeMeters>1150</AltitudeMeters>
            <DistanceMeters>630888.71757575</DistanceMeters>
          </Trackpoint>
          <Trackpoint>
            <Time>2021-08-04T13:59:47.000Z</Time>
            <Position>
              <LatitudeDegrees>40.88436509482562541961669921875</LatitudeDegrees>
              <LongitudeDegrees>-0.88355175219476222991943359375</LongitudeDegrees>
            </Position>
            <AltitudeMeters>1148.5999755859375</AltitudeMeters>
            <DistanceMeters>630908.05055002</DistanceMeters>
          </Trackpoint>
          <Trackpoint>
            <Time>2021-08-04T13:59:49.000Z</Time>
            <Position>
              <LatitudeDegrees>40.884249508380889892578125</LatitudeDegrees>
              <LongitudeDegrees>-0.8834175579249858856201171875</LongitudeDegrees>
            </Position>
            <AltitudeMeters>1148.199951171875</AltitudeMeters>
            <DistanceMeters>630925.16828791</DistanceMeters>
          </Trackpoint>
          <Trackpoint>
            <Time>2021-08-04T13:59:53.000Z</Time>
            <Position>
              <LatitudeDegrees>40.884098298847675323486328125</LatitudeDegrees>
              <LongitudeDegrees>-0.8831127919256687164306640625</LongitudeDegrees>
            </Position>
            <AltitudeMeters>1148</AltitudeMeters>
            <DistanceMeters>630955.84293486</DistanceMeters>
          </Trackpoint>
          <Trackpoint>
            <Time>2021-08-04T13:59:57.000Z</Time>
            <Position>
              <LatitudeDegrees>40.88390224613249301910400390625</LatitudeDegrees>
              <LongitudeDegrees>-0.88288404978811740875244140625</LongitudeDegrees>
            </Position>
            <AltitudeMeters>1147.4000244140625</AltitudeMeters>
            <DistanceMeters>630984.94035687</DistanceMeters>
          </Trackpoint>
          <Trackpoint>
            <Time>2021-08-04T14:00:02.000Z</Time>
            <Position>
              <LatitudeDegrees>40.88367207907140254974365234375</LatitudeDegrees>
              <LongitudeDegrees>-0.88256821967661380767822265625</LongitudeDegrees>
            </Position>
            <AltitudeMeters>1146.199951171875</AltitudeMeters>
            <DistanceMeters>631021.85392409</DistanceMeters>
          </Trackpoint>
          <Trackpoint>
            <Time>2021-08-04T14:00:04.000Z</Time>
            <Position>
              <LatitudeDegrees>40.8835856616497039794921875</LatitudeDegrees>
              <LongitudeDegrees>-0.88240586221218109130859375</LongitudeDegrees>
            </Position>
            <AltitudeMeters>1145</AltitudeMeters>
            <DistanceMeters>631038.56242023</DistanceMeters>
          </Trackpoint>
          <Trackpoint>
            <Time>2021-08-04T14:00:05.000Z</Time>
            <Position>
              <LatitudeDegrees>40.883545763790607452392578125</LatitudeDegrees>
              <LongitudeDegrees>-0.8823155052959918975830078125</LongitudeDegrees>
            </Position>
            <AltitudeMeters>1144.4000244140625</AltitudeMeters>
            <DistanceMeters>631047.36765938</DistanceMeters>
          </Trackpoint>
          <Trackpoint>
            <Time>2021-08-04T14:00:06.000Z</Time>
            <Position>
              <LatitudeDegrees>40.88351416401565074920654296875</LatitudeDegrees>
              <LongitudeDegrees>-0.8822209574282169342041015625</LongitudeDegrees>
            </Position>
            <AltitudeMeters>1144</AltitudeMeters>
            <DistanceMeters>631056.06662716</DistanceMeters>
          </Trackpoint>
          <Trackpoint>
            <Time>2021-08-04T14:00:08.000Z</Time>
            <Position>
              <LatitudeDegrees>40.8834569156169891357421875</LatitudeDegrees>
              <LongitudeDegrees>-0.8820342086255550384521484375</LongitudeDegrees>
            </Position>
            <AltitudeMeters>1143</AltitudeMeters>
            <DistanceMeters>631073.02403718</DistanceMeters>
          </Trackpoint>
          <Trackpoint>
            <Time>2021-08-04T14:00:09.000Z</Time>
            <Position>
              <LatitudeDegrees>40.88341492228209972381591796875</LatitudeDegrees>
              <LongitudeDegrees>-0.88195382617413997650146484375</LongitudeDegrees>
            </Position>
            <AltitudeMeters>1142.4000244140625</AltitudeMeters>
            <DistanceMeters>631081.24590754</DistanceMeters>
          </Trackpoint>
          <Trackpoint>
            <Time>2021-08-04T14:00:13.000Z</Time>
            <Position>
              <LatitudeDegrees>40.88319514878094196319580078125</LatitudeDegrees>
              <LongitudeDegrees>-0.88174712844192981719970703125</LongitudeDegrees>
            </Position>
            <AltitudeMeters>1141.800048828125</AltitudeMeters>
            <DistanceMeters>631111.26066352</DistanceMeters>
          </Trackpoint>
          <Trackpoint>
            <Time>2021-08-04T14:00:15.000Z</Time>
            <Position>
              <LatitudeDegrees>40.883089117705821990966796875</LatitudeDegrees>
              <LongitudeDegrees>-0.88165995664894580841064453125</LongitudeDegrees>
            </Position>
            <AltitudeMeters>1141.199951171875</AltitudeMeters>
            <DistanceMeters>631125.15602586</DistanceMeters>
          </Trackpoint>
          <Trackpoint>
            <Time>2021-08-04T14:00:17.000Z</Time>
            <Position>
              <LatitudeDegrees>40.8829846791923046112060546875</LatitudeDegrees>
              <LongitudeDegrees>-0.8815631456673145294189453125</LongitudeDegrees>
            </Position>
            <AltitudeMeters>1140.199951171875</AltitudeMeters>
            <DistanceMeters>631139.3506761</DistanceMeters>
          </Trackpoint>
          <Trackpoint>
            <Time>2021-08-04T14:00:19.000Z</Time>
            <Position>
              <LatitudeDegrees>40.88287554681301116943359375</LatitudeDegrees>
              <LongitudeDegrees>-0.881451331079006195068359375</LongitudeDegrees>
            </Position>
            <AltitudeMeters>1138.800048828125</AltitudeMeters>
            <DistanceMeters>631154.71505889</DistanceMeters>
          </Trackpoint>
          <Trackpoint>
            <Time>2021-08-04T14:00:21.000Z</Time>
            <Position>
              <LatitudeDegrees>40.88276289403438568115234375</LatitudeDegrees>
              <LongitudeDegrees>-0.8813334815204143524169921875</LongitudeDegrees>
            </Position>
            <AltitudeMeters>1137.199951171875</AltitudeMeters>
            <DistanceMeters>631170.70102659</DistanceMeters>
          </Trackpoint>
          <Trackpoint>
            <Time>2021-08-04T14:00:23.000Z</Time>
            <Position>
              <LatitudeDegrees>40.88264881633222103118896484375</LatitudeDegrees>
              <LongitudeDegrees>-0.8812127821147441864013671875</LongitudeDegrees>
            </Position>
            <AltitudeMeters>1135.800048828125</AltitudeMeters>
            <DistanceMeters>631186.96059448</DistanceMeters>
          </Trackpoint>
          <Trackpoint>
            <Time>2021-08-04T14:00:25.000Z</Time>
            <Position>
              <LatitudeDegrees>40.88253247551620006561279296875</LatitudeDegrees>
              <LongitudeDegrees>-0.8810882270336151123046875</LongitudeDegrees>
            </Position>
            <AltitudeMeters>1134.5999755859375</AltitudeMeters>
            <DistanceMeters>631203.62037928</DistanceMeters>
          </Trackpoint>
          <Trackpoint>
            <Time>2021-08-04T14:00:27.000Z</Time>
            <Position>
              <LatitudeDegrees>40.88241512887179851531982421875</LatitudeDegrees>
              <LongitudeDegrees>-0.88096409104764461517333984375</LongitudeDegrees>
            </Position>
            <AltitudeMeters>1132.5999755859375</AltitudeMeters>
            <DistanceMeters>631220.34481105</DistanceMeters>
          </Trackpoint>
          <Trackpoint>
            <Time>2021-08-04T14:00:33.000Z</Time>
            <Position>
              <LatitudeDegrees>40.88209460489451885223388671875</LatitudeDegrees>
              <LongitudeDegrees>-0.88060073554515838623046875</LongitudeDegrees>
            </Position>
            <AltitudeMeters>1132</AltitudeMeters>
            <DistanceMeters>631267.33011629</DistanceMeters>
          </Trackpoint>
          <Trackpoint>
            <Time>2021-08-04T14:00:36.000Z</Time>
            <Position>
              <LatitudeDegrees>40.8819718100130558013916015625</LatitudeDegrees>
              <LongitudeDegrees>-0.88037299923598766326904296875</LongitudeDegrees>
            </Position>
            <AltitudeMeters>1131</AltitudeMeters>
            <DistanceMeters>631290.86875326</DistanceMeters>
          </Trackpoint>
          <Trackpoint>
            <Time>2021-08-04T14:00:39.000Z</Time>
            <Position>
              <LatitudeDegrees>40.881877429783344268798828125</LatitudeDegrees>
              <LongitudeDegrees>-0.88010528124868869781494140625</LongitudeDegrees>
            </Position>
            <AltitudeMeters>1129.5999755859375</AltitudeMeters>
            <DistanceMeters>631315.72618697</DistanceMeters>
          </Trackpoint>
          <Trackpoint>
            <Time>2021-08-04T14:00:42.000Z</Time>
            <Position>
              <LatitudeDegrees>40.8817796967923641204833984375</LatitudeDegrees>
              <LongitudeDegrees>-0.8798270858824253082275390625</LongitudeDegrees>
            </Position>
            <AltitudeMeters>1128.5999755859375</AltitudeMeters>
            <DistanceMeters>631341.54059228</DistanceMeters>
          </Trackpoint>
          <Trackpoint>
            <Time>2021-08-04T14:00:47.000Z</Time>
            <Position>
              <LatitudeDegrees>40.8816164173185825347900390625</LatitudeDegrees>
              <LongitudeDegrees>-0.8793823421001434326171875</LongitudeDegrees>
            </Position>
            <AltitudeMeters>1127.199951171875</AltitudeMeters>
            <DistanceMeters>631383.14536717</DistanceMeters>
          </Trackpoint>
          <Trackpoint>
            <Time>2021-08-04T14:00:53.000Z</Time>
            <Position>
              <LatitudeDegrees>40.88133067823946475982666015625</LatitudeDegrees>
              <LongitudeDegrees>-0.87900205515325069427490234375</LongitudeDegrees>
            </Position>
            <AltitudeMeters>1126.199951171875</AltitudeMeters>
            <DistanceMeters>631428.26254607</DistanceMeters>
          </Trackpoint>
          <Trackpoint>
            <Time>2021-08-04T14:00:58.000Z</Time>
            <Position>
              <LatitudeDegrees>40.88111006654798984527587890625</LatitudeDegrees>
              <LongitudeDegrees>-0.87866761721670627593994140625</LongitudeDegrees>
            </Position>
            <AltitudeMeters>1124.5999755859375</AltitudeMeters>
            <DistanceMeters>631465.61191339</DistanceMeters>
          </Trackpoint>
          <Trackpoint>
            <Time>2021-08-04T14:01:00.000Z</Time>
            <Position>
              <LatitudeDegrees>40.88103932328522205352783203125</LatitudeDegrees>
              <LongitudeDegrees>-0.87850081734359264373779296875</LongitudeDegrees>
            </Position>
            <AltitudeMeters>1123.800048828125</AltitudeMeters>
            <DistanceMeters>631481.70597169</DistanceMeters>
          </Trackpoint>
          <Trackpoint>
            <Time>2021-08-04T14:01:01.000Z</Time>
            <Position>
              <LatitudeDegrees>40.88101065717637538909912109375</LatitudeDegrees>
              <LongitudeDegrees>-0.8784105442464351654052734375</LongitudeDegrees>
            </Position>
            <AltitudeMeters>1123.199951171875</AltitudeMeters>
            <DistanceMeters>631489.94539611</DistanceMeters>
          </Trackpoint>
          <Trackpoint>
            <Time>2021-08-04T14:01:04.000Z</Time>
            <Position>
              <LatitudeDegrees>40.8809344656765460968017578125</LatitudeDegrees>
              <LongitudeDegrees>-0.87812664918601512908935546875</LongitudeDegrees>
            </Position>
            <AltitudeMeters>1122.199951171875</AltitudeMeters>
            <DistanceMeters>631515.29616553</DistanceMeters>
          </Trackpoint>
          <Trackpoint>
            <Time>2021-08-04T14:01:06.000Z</Time>
            <Position>
              <LatitudeDegrees>40.88087260723114013671875</LatitudeDegrees>
              <LongitudeDegrees>-0.87794207967817783355712890625</LongitudeDegrees>
            </Position>
            <AltitudeMeters>1121.4000244140625</AltitudeMeters>
            <DistanceMeters>631532.28576216</DistanceMeters>
          </Trackpoint>
          <Trackpoint>
            <Time>2021-08-04T14:01:07.000Z</Time>
            <Position>
              <LatitudeDegrees>40.88083245791494846343994140625</LatitudeDegrees>
              <LongitudeDegrees>-0.87785675190389156341552734375</LongitudeDegrees>
            </Position>
            <AltitudeMeters>1121</AltitudeMeters>
            <DistanceMeters>631540.74367358</DistanceMeters>
          </Trackpoint>
          <Trackpoint>
            <Time>2021-08-04T14:01:15.000Z</Time>
            <Position>
              <LatitudeDegrees>40.88049198500812053680419921875</LatitudeDegrees>
              <LongitudeDegrees>-0.8772950805723667144775390625</LongitudeDegrees>
            </Position>
            <AltitudeMeters>1120.199951171875</AltitudeMeters>
            <DistanceMeters>631601.32542124</DistanceMeters>
          </Trackpoint>
          <Trackpoint>
            <Time>2021-08-04T14:01:17.000Z</Time>
            <Position>
              <LatitudeDegrees>40.8804318867623805999755859375</LatitudeDegrees>
              <LongitudeDegrees>-0.8771629817783832550048828125</LongitudeDegrees>
            </Position>
            <AltitudeMeters>1120</AltitudeMeters>
            <DistanceMeters>631614.29926511</DistanceMeters>
          </Trackpoint>
          <Trackpoint>
            <Time>2021-08-04T14:01:18.000Z</Time>
            <Position>
              <LatitudeDegrees>40.8804074116051197052001953125</LatitudeDegrees>
              <LongitudeDegrees>-0.87709165178239345550537109375</LongitudeDegrees>
            </Position>
            <AltitudeMeters>1119.800048828125</AltitudeMeters>
            <DistanceMeters>631620.89113343</DistanceMeters>
          </Trackpoint>
          <Trackpoint>
            <Time>2021-08-04T14:01:24.000Z</Time>
            <Position>
              <LatitudeDegrees>40.88029786013066768646240234375</LatitudeDegrees>
              <LongitudeDegrees>-0.87664187885820865631103515625</LongitudeDegrees>
            </Position>
            <AltitudeMeters>1118.800048828125</AltitudeMeters>
            <DistanceMeters>631660.65637888</DistanceMeters>
          </Trackpoint>
          <Trackpoint>
            <Time>2021-08-04T14:01:27.000Z</Time>
            <Position>
              <LatitudeDegrees>40.88019174523651599884033203125</LatitudeDegrees>
              <LongitudeDegrees>-0.87643870152533054351806640625</LongitudeDegrees>
            </Position>
            <AltitudeMeters>1117.199951171875</AltitudeMeters>
            <DistanceMeters>631681.43661602</DistanceMeters>
          </Trackpoint>
          <Trackpoint>
            <Time>2021-08-04T14:01:32.000Z</Time>
            <Position>
              <LatitudeDegrees>40.87996694259345531463623046875</LatitudeDegrees>
              <LongitudeDegrees>-0.87613510899245738983154296875</LongitudeDegrees>
            </Position>
            <AltitudeMeters>1116.199951171875</AltitudeMeters>
            <DistanceMeters>631717.1964704</DistanceMeters>
          </Trackpoint>
          <Trackpoint>
            <Time>2021-08-04T14:01:36.000Z</Time>
            <Position>
              <LatitudeDegrees>40.87976946495473384857177734375</LatitudeDegrees>
              <LongitudeDegrees>-0.875890441238880157470703125</LongitudeDegrees>
            </Position>
            <AltitudeMeters>1115</AltitudeMeters>
            <DistanceMeters>631747.31379297</DistanceMeters>
          </Trackpoint>
          <Trackpoint>
            <Time>2021-08-04T14:01:40.000Z</Time>
            <Position>
              <LatitudeDegrees>40.87957584299147129058837890625</LatitudeDegrees>
              <LongitudeDegrees>-0.8756022714078426361083984375</LongitudeDegrees>
            </Position>
            <AltitudeMeters>1113.800048828125</AltitudeMeters>
            <DistanceMeters>631779.75647551</DistanceMeters>
          </Trackpoint>
          <Trackpoint>
            <Time>2021-08-04T14:01:43.000Z</Time>
            <Position>
              <LatitudeDegrees>40.8794336020946502685546875</LatitudeDegrees>
              <LongitudeDegrees>-0.87536497972905635833740234375</LongitudeDegrees>
            </Position>
            <AltitudeMeters>1112.800048828125</AltitudeMeters>
            <DistanceMeters>631805.2399403</DistanceMeters>
          </Trackpoint>
          <Trackpoint>
            <Time>2021-08-04T14:01:46.000Z</Time>
            <Position>
              <LatitudeDegrees>40.87928004562854766845703125</LatitudeDegrees>
              <LongitudeDegrees>-0.8751345612108707427978515625</LongitudeDegrees>
            </Position>
            <AltitudeMeters>1111.5999755859375</AltitudeMeters>
            <DistanceMeters>631831.08790532</DistanceMeters>
          </Trackpoint>
          <Trackpoint>
            <Time>2021-08-04T14:01:48.000Z</Time>
            <Position>
              <LatitudeDegrees>40.8791725896298885345458984375</LatitudeDegrees>
              <LongitudeDegrees>-0.87498729117214679718017578125</LongitudeDegrees>
            </Position>
            <AltitudeMeters>1110.4000244140625</AltitudeMeters>
            <DistanceMeters>631848.3110877</DistanceMeters>
          </Trackpoint>
          <Trackpoint>
            <Time>2021-08-04T14:01:50.000Z</Time>
            <Position>
              <LatitudeDegrees>40.87905365042388439178466796875</LatitudeDegrees>
              <LongitudeDegrees>-0.874850414693355560302734375</LongitudeDegrees>
            </Position>
            <AltitudeMeters>1109.199951171875</AltitudeMeters>
            <DistanceMeters>631865.85889687</DistanceMeters>
          </Trackpoint>
          <Trackpoint>
            <Time>2021-08-04T14:01:53.000Z</Time>
            <Position>
              <LatitudeDegrees>40.8788916282355785369873046875</LatitudeDegrees>
              <LongitudeDegrees>-0.87464983575046062469482421875</LongitudeDegrees>
            </Position>
            <AltitudeMeters>1108.800048828125</AltitudeMeters>
            <DistanceMeters>631890.55962854</DistanceMeters>
          </Trackpoint>
          <Trackpoint>
            <Time>2021-08-04T14:01:56.000Z</Time>
            <Position>
              <LatitudeDegrees>40.87871418334543704986572265625</LatitudeDegrees>
              <LongitudeDegrees>-0.874499715864658355712890625</LongitudeDegrees>
            </Position>
            <AltitudeMeters>1108.199951171875</AltitudeMeters>
            <DistanceMeters>631914.00447346</DistanceMeters>
          </Trackpoint>
          <Trackpoint>
            <Time>2021-08-04T14:02:03.000Z</Time>
            <Position>
              <LatitudeDegrees>40.87831914424896240234375</LatitudeDegrees>
              <LongitudeDegrees>-0.87420165538787841796875</LongitudeDegrees>
            </Position>
            <AltitudeMeters>1107</AltitudeMeters>
            <DistanceMeters>631964.62473236</DistanceMeters>
          </Trackpoint>
          <Trackpoint>
            <Time>2021-08-04T14:02:06.000Z</Time>
            <Position>
              <LatitudeDegrees>40.87816701270639896392822265625</LatitudeDegrees>
              <LongitudeDegrees>-0.8740527927875518798828125</LongitudeDegrees>
            </Position>
            <AltitudeMeters>1105.800048828125</AltitudeMeters>
            <DistanceMeters>631985.68810616</DistanceMeters>
          </Trackpoint>
          <Trackpoint>
            <Time>2021-08-04T14:02:08.000Z</Time>
            <Position>
              <LatitudeDegrees>40.87807531468570232391357421875</LatitudeDegrees>
              <LongitudeDegrees>-0.8739631064236164093017578125</LongitudeDegrees>
            </Position>
            <AltitudeMeters>1105</AltitudeMeters>
            <DistanceMeters>631998.3822668</DistanceMeters>
          </Trackpoint>
          <Trackpoint>
            <Time>2021-08-04T14:02:09.000Z</Time>
            <Position>
              <LatitudeDegrees>40.87802745401859283447265625</LatitudeDegrees>
              <LongitudeDegrees>-0.87392563931643962860107421875</LongitudeDegrees>
            </Position>
            <AltitudeMeters>1104.5999755859375</AltitudeMeters>
            <DistanceMeters>632004.57287617</DistanceMeters>
          </Trackpoint>
          <Trackpoint>
            <Time>2021-08-04T14:02:12.000Z</Time>
            <Position>
              <LatitudeDegrees>40.877888984978199005126953125</LatitudeDegrees>
              <LongitudeDegrees>-0.8737894333899021148681640625</LongitudeDegrees>
            </Position>
            <AltitudeMeters>1103.4000244140625</AltitudeMeters>
            <DistanceMeters>632023.7800296</DistanceMeters>
          </Trackpoint>
          <Trackpoint>
            <Time>2021-08-04T14:02:16.000Z</Time>
            <Position>
              <LatitudeDegrees>40.87774624116718769073486328125</LatitudeDegrees>
              <LongitudeDegrees>-0.8735512197017669677734375</LongitudeDegrees>
            </Position>
            <AltitudeMeters>1102.199951171875</AltitudeMeters>
            <DistanceMeters>632049.35951961</DistanceMeters>
          </Trackpoint>
          <Trackpoint>
            <Time>2021-08-04T14:02:20.000Z</Time>
            <Position>
              <LatitudeDegrees>40.8776011504232883453369140625</LatitudeDegrees>
              <LongitudeDegrees>-0.8732838369905948638916015625</LongitudeDegrees>
            </Position>
            <AltitudeMeters>1101.199951171875</AltitudeMeters>
            <DistanceMeters>632077.05650598</DistanceMeters>
          </Trackpoint>
          <Trackpoint>
            <Time>2021-08-04T14:02:28.000Z</Time>
            <Position>
              <LatitudeDegrees>40.8772829733788967132568359375</LatitudeDegrees>
              <LongitudeDegrees>-0.87272400967776775360107421875</LongitudeDegrees>
            </Position>
            <AltitudeMeters>1099.800048828125</AltitudeMeters>
            <DistanceMeters>632135.9953653</DistanceMeters>
          </Trackpoint>
          <Trackpoint>
            <Time>2021-08-04T14:02:30.000Z</Time>
            <Position>
              <LatitudeDegrees>40.87721340358257293701171875</LatitudeDegrees>
              <LongitudeDegrees>-0.872564502060413360595703125</LongitudeDegrees>
            </Position>
            <AltitudeMeters>1098.4000244140625</AltitudeMeters>
            <DistanceMeters>632151.49200535</DistanceMeters>
          </Trackpoint>
          <Trackpoint>
            <Time>2021-08-04T14:02:33.000Z</Time>
            <Position>
              <LatitudeDegrees>40.87711005471646785736083984375</LatitudeDegrees>
              <LongitudeDegrees>-0.8723182417452335357666015625</LongitudeDegrees>
            </Position>
            <AltitudeMeters>1097.4000244140625</AltitudeMeters>
            <DistanceMeters>632175.1948378</DistanceMeters>
          </Trackpoint>
          <Trackpoint>
            <Time>2021-08-04T14:02:35.000Z</Time>
            <Position>
              <LatitudeDegrees>40.87704241275787353515625</LatitudeDegrees>
              <LongitudeDegrees>-0.87214800529181957244873046875</LongitudeDegrees>
            </Position>
            <AltitudeMeters>1096.800048828125</AltitudeMeters>
            <DistanceMeters>632191.37953605</DistanceMeters>
          </Trackpoint>
          <Trackpoint>
            <Time>2021-08-04T14:02:37.000Z</Time>
            <Position>
              <LatitudeDegrees>40.8770003356039524078369140625</LatitudeDegrees>
              <LongitudeDegrees>-0.8719611726701259613037109375</LongitudeDegrees>
            </Position>
            <AltitudeMeters>1096.199951171875</AltitudeMeters>
            <DistanceMeters>632207.78534169</DistanceMeters>
          </Trackpoint>
          <Trackpoint>
            <Time>2021-08-04T14:02:40.000Z</Time>
            <Position>
              <LatitudeDegrees>40.8769426681101322174072265625</LatitudeDegrees>
              <LongitudeDegrees>-0.87166495621204376220703125</LongitudeDegrees>
            </Position>
            <AltitudeMeters>1095</AltitudeMeters>
            <DistanceMeters>632233.52705957</DistanceMeters>
          </Trackpoint>
          <Trackpoint>
            <Time>2021-08-04T14:02:43.000Z</Time>
            <Position>
              <LatitudeDegrees>40.87687888182699680328369140625</LatitudeDegrees>
              <LongitudeDegrees>-0.8713707514107227325439453125</LongitudeDegrees>
            </Position>
            <AltitudeMeters>1094</AltitudeMeters>
            <DistanceMeters>632259.28438312</DistanceMeters>
          </Trackpoint>
          <Trackpoint>
            <Time>2021-08-04T14:02:49.000Z</Time>
            <Position>
              <LatitudeDegrees>40.8767173625528812408447265625</LatitudeDegrees>
              <LongitudeDegrees>-0.87078711949288845062255859375</LongitudeDegrees>
            </Position>
            <AltitudeMeters>1092.800048828125</AltitudeMeters>
            <DistanceMeters>632311.58793614</DistanceMeters>
          </Trackpoint>
          <Trackpoint>
            <Time>2021-08-04T14:02:53.000Z</Time>
            <Position>
              <LatitudeDegrees>40.87655349634587764739990234375</LatitudeDegrees>
              <LongitudeDegrees>-0.8704051561653614044189453125</LongitudeDegrees>
            </Position>
            <AltitudeMeters>1091.800048828125</AltitudeMeters>
            <DistanceMeters>632348.54673176</DistanceMeters>
          </Trackpoint>
          <Trackpoint>
            <Time>2021-08-04T14:02:56.000Z</Time>
            <Position>
              <LatitudeDegrees>40.8764169551432132720947265625</LatitudeDegrees>
              <LongitudeDegrees>-0.87011237628757953643798828125</LongitudeDegrees>
            </Position>
            <AltitudeMeters>1090.5999755859375</AltitudeMeters>
            <DistanceMeters>632377.49636724</DistanceMeters>
          </Trackpoint>
          <Trackpoint>
            <Time>2021-08-04T14:02:58.000Z</Time>
            <Position>
              <LatitudeDegrees>40.87632399983704090118408203125</LatitudeDegrees>
              <LongitudeDegrees>-0.869924537837505340576171875</LongitudeDegrees>
            </Position>
            <AltitudeMeters>1089.4000244140625</AltitudeMeters>
            <DistanceMeters>632396.38876787</DistanceMeters>
          </Trackpoint>
          <Trackpoint>
            <Time>2021-08-04T14:02:59.000Z</Time>
            <Position>
              <LatitudeDegrees>40.87627320550382137298583984375</LatitudeDegrees>
              <LongitudeDegrees>-0.86984298191964626312255859375</LongitudeDegrees>
            </Position>
            <AltitudeMeters>1089</AltitudeMeters>
            <DistanceMeters>632405.28075018</DistanceMeters>
          </Trackpoint>
          <Trackpoint>
            <Time>2021-08-04T14:03:02.000Z</Time>
            <Position>
              <LatitudeDegrees>40.8761044777929782867431640625</LatitudeDegrees>
              <LongitudeDegrees>-0.86965061724185943603515625</LongitudeDegrees>
            </Position>
            <AltitudeMeters>1088.199951171875</AltitudeMeters>
            <DistanceMeters>632430.07525772</DistanceMeters>
          </Trackpoint>
          <Trackpoint>
            <Time>2021-08-04T14:03:05.000Z</Time>
            <Position>
              <LatitudeDegrees>40.87596609257161617279052734375</LatitudeDegrees>
              <LongitudeDegrees>-0.8694536425173282623291015625</LongitudeDegrees>
            </Position>
            <AltitudeMeters>1088.800048828125</AltitudeMeters>
            <DistanceMeters>632452.7033912</DistanceMeters>
          </Trackpoint>
          <Trackpoint>
            <Time>2021-08-04T14:03:12.000Z</Time>
            <Position>
              <LatitudeDegrees>40.875661410391330718994140625</LatitudeDegrees>
              <LongitudeDegrees>-0.86893220432102680206298828125</LongitudeDegrees>
            </Position>
            <AltitudeMeters>1087</AltitudeMeters>
            <DistanceMeters>632508.16310169</DistanceMeters>
          </Trackpoint>
          <Trackpoint>
            <Time>2021-08-04T14:03:20.000Z</Time>
            <Position>
              <LatitudeDegrees>40.87545655667781829833984375</LatitudeDegrees>
              <LongitudeDegrees>-0.8682443015277385711669921875</LongitudeDegrees>
            </Position>
            <AltitudeMeters>1086</AltitudeMeters>
            <DistanceMeters>632570.38448703</DistanceMeters>
          </Trackpoint>
          <Trackpoint>
            <Time>2021-08-04T14:03:23.000Z</Time>
            <Position>
              <LatitudeDegrees>40.87542478926479816436767578125</LatitudeDegrees>
              <LongitudeDegrees>-0.86798873730003833770751953125</LongitudeDegrees>
            </Position>
            <AltitudeMeters>1086</AltitudeMeters>
            <DistanceMeters>632592.18105515</DistanceMeters>
          </Trackpoint>
          <Trackpoint>
            <Time>2021-08-04T14:03:24.000Z</Time>
            <Position>
              <LatitudeDegrees>40.8754074387252330780029296875</LatitudeDegrees>
              <LongitudeDegrees>-0.86790240369737148284912109375</LongitudeDegrees>
            </Position>
            <AltitudeMeters>1085.800048828125</AltitudeMeters>
            <DistanceMeters>632599.69898362</DistanceMeters>
          </Trackpoint>
          <Trackpoint>
            <Time>2021-08-04T14:03:27.000Z</Time>
            <Position>
              <LatitudeDegrees>40.87530995719134807586669921875</LatitudeDegrees>
              <LongitudeDegrees>-0.867671482264995574951171875</LongitudeDegrees>
            </Position>
            <AltitudeMeters>1084.5999755859375</AltitudeMeters>
            <DistanceMeters>632621.95695038</DistanceMeters>
          </Trackpoint>
          <Trackpoint>
            <Time>2021-08-04T14:03:28.000Z</Time>
            <Position>
              <LatitudeDegrees>40.87527140043675899505615234375</LatitudeDegrees>
              <LongitudeDegrees>-0.86760685779154300689697265625</LongitudeDegrees>
            </Position>
            <AltitudeMeters>1084.5999755859375</AltitudeMeters>
            <DistanceMeters>632628.88478238</DistanceMeters>
          </Trackpoint>
          <Trackpoint>
            <Time>2021-08-04T14:03:37.000Z</Time>
            <Position>
              <LatitudeDegrees>40.8750134892761707305908203125</LatitudeDegrees>
              <LongitudeDegrees>-0.8669288456439971923828125</LongitudeDegrees>
            </Position>
            <AltitudeMeters>1084</AltitudeMeters>
            <DistanceMeters>632692.75970124</DistanceMeters>
          </Trackpoint>
          <Trackpoint>
            <Time>2021-08-04T14:03:38.000Z</Time>
            <Position>
              <LatitudeDegrees>40.87498893029987812042236328125</LatitudeDegrees>
              <LongitudeDegrees>-0.86685567162930965423583984375</LongitudeDegrees>
            </Position>
            <AltitudeMeters>1083.5999755859375</AltitudeMeters>
            <DistanceMeters>632699.49655245</DistanceMeters>
          </Trackpoint>
          <Trackpoint>
            <Time>2021-08-04T14:03:42.000Z</Time>
            <Position>
              <LatitudeDegrees>40.8748196996748447418212890625</LatitudeDegrees>
              <LongitudeDegrees>-0.8666820824146270751953125</LongitudeDegrees>
            </Position>
            <AltitudeMeters>1083</AltitudeMeters>
            <DistanceMeters>632723.33367749</DistanceMeters>
          </Trackpoint>
          <Trackpoint>
            <Time>2021-08-04T14:03:45.000Z</Time>
            <Position>
              <LatitudeDegrees>40.8746922947466373443603515625</LatitudeDegrees>
              <LongitudeDegrees>-0.86658359505236148834228515625</LongitudeDegrees>
            </Position>
            <AltitudeMeters>1082.4000244140625</AltitudeMeters>
            <DistanceMeters>632739.75928628</DistanceMeters>
          </Trackpoint>
          <Trackpoint>
            <Time>2021-08-04T14:03:48.000Z</Time>
            <Position>
              <LatitudeDegrees>40.87457771413028240203857421875</LatitudeDegrees>
              <LongitudeDegrees>-0.866447053849697113037109375</LongitudeDegrees>
            </Position>
            <AltitudeMeters>1081</AltitudeMeters>
            <DistanceMeters>632756.9257511</DistanceMeters>
          </Trackpoint>
          <Trackpoint>
            <Time>2021-08-04T14:03:49.000Z</Time>
            <Position>
              <LatitudeDegrees>40.8745441026985645294189453125</LatitudeDegrees>
              <LongitudeDegrees>-0.8663915656507015228271484375</LongitudeDegrees>
            </Position>
            <AltitudeMeters>1080.5999755859375</AltitudeMeters>
            <DistanceMeters>632762.91017114</DistanceMeters>
          </Trackpoint>
          <Trackpoint>
            <Time>2021-08-04T14:03:51.000Z</Time>
            <Position>
              <LatitudeDegrees>40.87448132224380970001220703125</LatitudeDegrees>
              <LongitudeDegrees>-0.8662621490657329559326171875</LongitudeDegrees>
            </Position>
            <AltitudeMeters>1080</AltitudeMeters>
            <DistanceMeters>632775.85091175</DistanceMeters>
          </Trackpoint>
          <Trackpoint>
            <Time>2021-08-04T14:03:52.000Z</Time>
            <Position>
              <LatitudeDegrees>40.874453745782375335693359375</LatitudeDegrees>
              <LongitudeDegrees>-0.86618964560329914093017578125</LongitudeDegrees>
            </Position>
            <AltitudeMeters>1079.800048828125</AltitudeMeters>
            <DistanceMeters>632782.68160754</DistanceMeters>
          </Trackpoint>
          <Trackpoint>
            <Time>2021-08-04T14:03:55.000Z</Time>
            <Position>
              <LatitudeDegrees>40.87438099086284637451171875</LatitudeDegrees>
              <LongitudeDegrees>-0.8659714646637439727783203125</LongitudeDegrees>
            </Position>
            <AltitudeMeters>1078.5999755859375</AltitudeMeters>
            <DistanceMeters>632802.75025073</DistanceMeters>
          </Trackpoint>
          <Trackpoint>
            <Time>2021-08-04T14:03:59.000Z</Time>
            <Position>
              <LatitudeDegrees>40.87430186569690704345703125</LatitudeDegrees>
              <LongitudeDegrees>-0.865663848817348480224609375</LongitudeDegrees>
            </Position>
            <AltitudeMeters>1077.4000244140625</AltitudeMeters>
            <DistanceMeters>632830.09615885</DistanceMeters>
          </Trackpoint>
          <Trackpoint>
            <Time>2021-08-04T14:04:04.000Z</Time>
            <Position>
              <LatitudeDegrees>40.8741603791713714599609375</LatitudeDegrees>
              <LongitudeDegrees>-0.86525003425776958465576171875</LongitudeDegrees>
            </Position>
            <AltitudeMeters>1075.800048828125</AltitudeMeters>
            <DistanceMeters>632868.31793049</DistanceMeters>
          </Trackpoint>
          <Trackpoint>
            <Time>2021-08-04T14:04:09.000Z</Time>
            <Position>
              <LatitudeDegrees>40.8739945851266384124755859375</LatitudeDegrees>
              <LongitudeDegrees>-0.86483848281204700469970703125</LongitudeDegrees>
            </Position>
            <AltitudeMeters>1074.800048828125</AltitudeMeters>
            <DistanceMeters>632907.56338829</DistanceMeters>
          </Trackpoint>
          <Trackpoint>
            <Time>2021-08-04T14:04:14.000Z</Time>
            <Position>
              <LatitudeDegrees>40.87385770864784717559814453125</LatitudeDegrees>
              <LongitudeDegrees>-0.864533297717571258544921875</LongitudeDegrees>
            </Position>
            <AltitudeMeters>1074.4000244140625</AltitudeMeters>
            <DistanceMeters>632937.426431</DistanceMeters>
          </Trackpoint>
          <Trackpoint>
            <Time>2021-08-04T14:04:21.000Z</Time>
            <Position>
              <LatitudeDegrees>40.87367431260645389556884765625</LatitudeDegrees>
              <LongitudeDegrees>-0.86422392167150974273681640625</LongitudeDegrees>
            </Position>
            <AltitudeMeters>1073.800048828125</AltitudeMeters>
            <DistanceMeters>632970.51128866</DistanceMeters>
          </Trackpoint>
          <Trackpoint>
            <Time>2021-08-04T14:04:22.000Z</Time>
            <Position>
              <LatitudeDegrees>40.87365201674401760101318359375</LatitudeDegrees>
              <LongitudeDegrees>-0.8641733787953853607177734375</LongitudeDegrees>
            </Position>
            <AltitudeMeters>1073.800048828125</AltitudeMeters>
            <DistanceMeters>632975.43620341</DistanceMeters>
          </Trackpoint>
          <Trackpoint>
            <Time>2021-08-04T14:04:31.000Z</Time>
            <Position>
              <LatitudeDegrees>40.87354070506989955902099609375</LatitudeDegrees>
              <LongitudeDegrees>-0.86389903910458087921142578125</LongitudeDegrees>
            </Position>
            <AltitudeMeters>1073.199951171875</AltitudeMeters>
            <DistanceMeters>633001.6391199</DistanceMeters>
          </Trackpoint>
          <Trackpoint>
            <Time>2021-08-04T14:08:04.000Z</Time>
            <Position>
              <LatitudeDegrees>40.87351740337908267974853515625</LatitudeDegrees>
              <LongitudeDegrees>-0.86385059170424938201904296875</LongitudeDegrees>
            </Position>
            <AltitudeMeters>1072.800048828125</AltitudeMeters>
            <DistanceMeters>633006.47148761</DistanceMeters>
          </Trackpoint>
          <Trackpoint>
            <Time>2021-08-04T14:08:09.000Z</Time>
            <Position>
              <LatitudeDegrees>40.87341816164553165435791015625</LatitudeDegrees>
              <LongitudeDegrees>-0.8636714704334735870361328125</LongitudeDegrees>
            </Position>
            <AltitudeMeters>1071.800048828125</AltitudeMeters>
            <DistanceMeters>633025.16012845</DistanceMeters>
          </Trackpoint>
          <Trackpoint>
            <Time>2021-08-04T14:08:25.000Z</Time>
            <Position>
              <LatitudeDegrees>40.873075760900974273681640625</LatitudeDegrees>
              <LongitudeDegrees>-0.8631179295480251312255859375</LongitudeDegrees>
            </Position>
            <AltitudeMeters>1071.5999755859375</AltitudeMeters>
            <DistanceMeters>633085.34918218</DistanceMeters>
          </Trackpoint>
          <Trackpoint>
            <Time>2021-08-04T14:08:32.000Z</Time>
            <Position>
              <LatitudeDegrees>40.87293368764221668243408203125</LatitudeDegrees>
              <LongitudeDegrees>-0.8627484552562236785888671875</LongitudeDegrees>
            </Position>
            <AltitudeMeters>1070.5999755859375</AltitudeMeters>
            <DistanceMeters>633120.23473022</DistanceMeters>
          </Trackpoint>
          <Trackpoint>
            <Time>2021-08-04T14:08:38.000Z</Time>
            <Position>
              <LatitudeDegrees>40.87286327965557575225830078125</LatitudeDegrees>
              <LongitudeDegrees>-0.86238040588796138763427734375</LongitudeDegrees>
            </Position>
            <AltitudeMeters>1070</AltitudeMeters>
            <DistanceMeters>633152.18660627</DistanceMeters>
          </Trackpoint>
          <Trackpoint>
            <Time>2021-08-04T14:08:40.000Z</Time>
            <Position>
              <LatitudeDegrees>40.872815586626529693603515625</LatitudeDegrees>
              <LongitudeDegrees>-0.86229239590466022491455078125</LongitudeDegrees>
            </Position>
            <AltitudeMeters>1069.5999755859375</AltitudeMeters>
            <DistanceMeters>633161.29926685</DistanceMeters>
          </Trackpoint>
          <Trackpoint>
            <Time>2021-08-04T14:08:44.000Z</Time>
            <Position>
              <LatitudeDegrees>40.87264820002019405364990234375</LatitudeDegrees>
              <LongitudeDegrees>-0.86214219219982624053955078125</LongitudeDegrees>
            </Position>
            <AltitudeMeters>1068.199951171875</AltitudeMeters>
            <DistanceMeters>633183.81358032</DistanceMeters>
          </Trackpoint>
          <Trackpoint>
            <Time>2021-08-04T14:08:47.000Z</Time>
            <Position>
              <LatitudeDegrees>40.87252247147262096405029296875</LatitudeDegrees>
              <LongitudeDegrees>-0.8619622327387332916259765625</LongitudeDegrees>
            </Position>
            <AltitudeMeters>1067.199951171875</AltitudeMeters>
            <DistanceMeters>633204.4345963</DistanceMeters>
          </Trackpoint>
          <Trackpoint>
            <Time>2021-08-04T14:08:52.000Z</Time>
            <Position>
              <LatitudeDegrees>40.87228576652705669403076171875</LatitudeDegrees>
              <LongitudeDegrees>-0.86164229549467563629150390625</LongitudeDegrees>
            </Position>
            <AltitudeMeters>1065.800048828125</AltitudeMeters>
            <DistanceMeters>633242.10630696</DistanceMeters>
          </Trackpoint>
          <Trackpoint>
            <Time>2021-08-04T14:08:55.000Z</Time>
            <Position>
              <LatitudeDegrees>40.8721210621297359466552734375</LatitudeDegrees>
              <LongitudeDegrees>-0.86149091832339763641357421875</LongitudeDegrees>
            </Position>
            <AltitudeMeters>1064.800048828125</AltitudeMeters>
            <DistanceMeters>633264.43091175</DistanceMeters>
          </Trackpoint>
          <Trackpoint>
            <Time>2021-08-04T14:08:57.000Z</Time>
            <Position>
              <LatitudeDegrees>40.872007571160793304443359375</LatitudeDegrees>
              <LongitudeDegrees>-0.86141397245228290557861328125</LongitudeDegrees>
            </Position>
            <AltitudeMeters>1064.800048828125</AltitudeMeters>
            <DistanceMeters>633278.62588007</DistanceMeters>
          </Trackpoint>
          <Trackpoint>
            <Time>2021-08-04T14:09:01.000Z</Time>
            <Position>
              <LatitudeDegrees>40.8718079142272472381591796875</LatitudeDegrees>
              <LongitudeDegrees>-0.861226804554462432861328125</LongitudeDegrees>
            </Position>
            <AltitudeMeters>1064.199951171875</AltitudeMeters>
            <DistanceMeters>633305.86491936</DistanceMeters>
          </Trackpoint>
          <Trackpoint>
            <Time>2021-08-04T14:09:02.000Z</Time>
            <Position>
              <LatitudeDegrees>40.87176659144461154937744140625</LatitudeDegrees>
              <LongitudeDegrees>-0.86117257364094257354736328125</LongitudeDegrees>
            </Position>
            <AltitudeMeters>1063.800048828125</AltitudeMeters>
            <DistanceMeters>633312.34418053</DistanceMeters>
          </Trackpoint>
          <Trackpoint>
            <Time>2021-08-04T14:09:03.000Z</Time>
            <Position>
              <LatitudeDegrees>40.87172292172908782958984375</LatitudeDegrees>
              <LongitudeDegrees>-0.8611250482499599456787109375</LongitudeDegrees>
            </Position>
            <AltitudeMeters>1063.4000244140625</AltitudeMeters>
            <DistanceMeters>633318.63893831</DistanceMeters>
          </Trackpoint>
          <Trackpoint>
            <Time>2021-08-04T14:09:05.000Z</Time>
            <Position>
              <LatitudeDegrees>40.87163507938385009765625</LatitudeDegrees>
              <LongitudeDegrees>-0.86104952730238437652587890625</LongitudeDegrees>
            </Position>
            <AltitudeMeters>1063</AltitudeMeters>
            <DistanceMeters>633330.30053988</DistanceMeters>
          </Trackpoint>
          <Trackpoint>
            <Time>2021-08-04T14:09:07.000Z</Time>
            <Position>
              <LatitudeDegrees>40.8715762384235858917236328125</LatitudeDegrees>
              <LongitudeDegrees>-0.86097241379320621490478515625</LongitudeDegrees>
            </Position>
            <AltitudeMeters>1062.800048828125</AltitudeMeters>
            <DistanceMeters>633339.52057999</DistanceMeters>
          </Trackpoint>
          <Trackpoint>
            <Time>2021-08-04T14:09:09.000Z</Time>
            <Position>
              <LatitudeDegrees>40.8715452253818511962890625</LatitudeDegrees>
              <LongitudeDegrees>-0.86088876239955425262451171875</LongitudeDegrees>
            </Position>
            <AltitudeMeters>1062.800048828125</AltitudeMeters>
            <DistanceMeters>633347.36129172</DistanceMeters>
          </Trackpoint>
          <Trackpoint>
            <Time>2021-08-04T14:09:20.000Z</Time>
            <Position>
              <LatitudeDegrees>40.8713750727474689483642578125</LatitudeDegrees>
              <LongitudeDegrees>-0.86049363948404788970947265625</LongitudeDegrees>
            </Position>
            <AltitudeMeters>1061.5999755859375</AltitudeMeters>
            <DistanceMeters>633385.63099303</DistanceMeters>
          </Trackpoint>
          <Trackpoint>
            <Time>2021-08-04T14:09:33.000Z</Time>
            <Position>
              <LatitudeDegrees>40.87108799256384372711181640625</LatitudeDegrees>
              <LongitudeDegrees>-0.86018468253314495086669921875</LongitudeDegrees>
            </Position>
            <AltitudeMeters>1060.4000244140625</AltitudeMeters>
            <DistanceMeters>633426.82712873</DistanceMeters>
          </Trackpoint>
          <Trackpoint>
            <Time>2021-08-04T14:09:45.000Z</Time>
            <Position>
              <LatitudeDegrees>40.8709207735955715179443359375</LatitudeDegrees>
              <LongitudeDegrees>-0.8598724566400051116943359375</LongitudeDegrees>
            </Position>
            <AltitudeMeters>1059.5999755859375</AltitudeMeters>
            <DistanceMeters>633459.02884869</DistanceMeters>
          </Trackpoint>
          <Trackpoint>
            <Time>2021-08-04T14:09:56.000Z</Time>
            <Position>
              <LatitudeDegrees>40.87075154297053813934326171875</LatitudeDegrees>
              <LongitudeDegrees>-0.8595385216176509857177734375</LongitudeDegrees>
            </Position>
            <AltitudeMeters>1058.5999755859375</AltitudeMeters>
            <DistanceMeters>633492.86236271</DistanceMeters>
          </Trackpoint>
          <Trackpoint>
            <Time>2021-08-04T14:10:11.000Z</Time>
            <Position>
              <LatitudeDegrees>40.87051567621529102325439453125</LatitudeDegrees>
              <LongitudeDegrees>-0.85922026075422763824462890625</LongitudeDegrees>
            </Position>
            <AltitudeMeters>1059</AltitudeMeters>
            <DistanceMeters>633530.36843299</DistanceMeters>
          </Trackpoint>
          <Trackpoint>
            <Time>2021-08-04T14:10:24.000Z</Time>
            <Position>
              <LatitudeDegrees>40.87027394212782382965087890625</LatitudeDegrees>
              <LongitudeDegrees>-0.85881792940199375152587890625</LongitudeDegrees>
            </Position>
            <AltitudeMeters>1057.4000244140625</AltitudeMeters>
            <DistanceMeters>633573.61853479</DistanceMeters>
          </Trackpoint>
          <Trackpoint>
            <Time>2021-08-04T14:10:32.000Z</Time>
            <Position>
              <LatitudeDegrees>40.8701171167194843292236328125</LatitudeDegrees>
              <LongitudeDegrees>-0.85856772959232330322265625</LongitudeDegrees>
            </Position>
            <AltitudeMeters>1056.4000244140625</AltitudeMeters>
            <DistanceMeters>633600.97038616</DistanceMeters>
          </Trackpoint>
          <Trackpoint>
            <Time>2021-08-04T14:10:52.000Z</Time>
            <Position>
              <LatitudeDegrees>40.86971268989145755767822265625</LatitudeDegrees>
              <LongitudeDegrees>-0.8580525778234004974365234375</LongitudeDegrees>
            </Position>
            <AltitudeMeters>1057</AltitudeMeters>
            <DistanceMeters>633663.46972421</DistanceMeters>
          </Trackpoint>
          <Trackpoint>
            <Time>2021-08-04T14:11:08.000Z</Time>
            <Position>
              <LatitudeDegrees>40.8692531101405620574951171875</LatitudeDegrees>
              <LongitudeDegrees>-0.85766809992492198944091796875</LongitudeDegrees>
            </Position>
            <AltitudeMeters>1056.4000244140625</AltitudeMeters>
            <DistanceMeters>633723.99853384</DistanceMeters>
          </Trackpoint>
          <Trackpoint>
            <Time>2021-08-04T14:11:15.000Z</Time>
            <Position>
              <LatitudeDegrees>40.8690522797405719757080078125</LatitudeDegrees>
              <LongitudeDegrees>-0.8575017191469669342041015625</LongitudeDegrees>
            </Position>
            <AltitudeMeters>1056.4000244140625</AltitudeMeters>
            <DistanceMeters>633750.37576569</DistanceMeters>
          </Trackpoint>
          <Trackpoint>
            <Time>2021-08-04T14:11:20.000Z</Time>
            <Position>
              <LatitudeDegrees>40.868824459612369537353515625</LatitudeDegrees>
              <LongitudeDegrees>-0.85742770694196224212646484375</LongitudeDegrees>
            </Position>
            <AltitudeMeters>1055.5999755859375</AltitudeMeters>
            <DistanceMeters>633776.48650623</DistanceMeters>
          </Trackpoint>
          <Trackpoint>
            <Time>2021-08-04T14:11:22.000Z</Time>
            <Position>
              <LatitudeDegrees>40.86872949264943599700927734375</LatitudeDegrees>
              <LongitudeDegrees>-0.8573924191296100616455078125</LongitudeDegrees>
            </Position>
            <AltitudeMeters>1055</AltitudeMeters>
            <DistanceMeters>633787.46610188</DistanceMeters>
          </Trackpoint>
          <Trackpoint>
            <Time>2021-08-04T14:11:24.000Z</Time>
            <Position>
              <LatitudeDegrees>40.86863209493458271026611328125</LatitudeDegrees>
              <LongitudeDegrees>-0.8573495037853717803955078125</LongitudeDegrees>
            </Position>
            <AltitudeMeters>1054.5999755859375</AltitudeMeters>
            <DistanceMeters>633798.89303958</DistanceMeters>
          </Trackpoint>
          <Trackpoint>
            <Time>2021-08-04T14:11:34.000Z</Time>
            <Position>
              <LatitudeDegrees>40.86812607944011688232421875</LatitudeDegrees>
              <LongitudeDegrees>-0.85705638863146305084228515625</LongitudeDegrees>
            </Position>
            <AltitudeMeters>1053.5999755859375</AltitudeMeters>
            <DistanceMeters>633860.38009696</DistanceMeters>
          </Trackpoint>
          <Trackpoint>
            <Time>2021-08-04T14:11:36.000Z</Time>
            <Position>
              <LatitudeDegrees>40.8680296875536441802978515625</LatitudeDegrees>
              <LongitudeDegrees>-0.85699503310024738311767578125</LongitudeDegrees>
            </Position>
            <AltitudeMeters>1053.4000244140625</AltitudeMeters>
            <DistanceMeters>633872.28691015</DistanceMeters>
          </Trackpoint>
          <Trackpoint>
            <Time>2021-08-04T14:11:46.000Z</Time>
            <Position>
              <LatitudeDegrees>40.86769600398838520050048828125</LatitudeDegrees>
              <LongitudeDegrees>-0.85664399899542331695556640625</LongitudeDegrees>
            </Position>
            <AltitudeMeters>1052.199951171875</AltitudeMeters>
            <DistanceMeters>633919.74569065</DistanceMeters>
          </Trackpoint>
          <Trackpoint>
            <Time>2021-08-04T14:11:51.000Z</Time>
            <Position>
              <LatitudeDegrees>40.86752115748822689056396484375</LatitudeDegrees>
              <LongitudeDegrees>-0.8563904464244842529296875</LongitudeDegrees>
            </Position>
            <AltitudeMeters>1050.800048828125</AltitudeMeters>
            <DistanceMeters>633948.62755939</DistanceMeters>
          </Trackpoint>
          <Trackpoint>
            <Time>2021-08-04T14:11:55.000Z</Time>
            <Position>
              <LatitudeDegrees>40.86735804565250873565673828125</LatitudeDegrees>
              <LongitudeDegrees>-0.8562179468572139739990234375</LongitudeDegrees>
            </Position>
            <AltitudeMeters>1049.5999755859375</AltitudeMeters>
            <DistanceMeters>633971.87417042</DistanceMeters>
          </Trackpoint>
          <Trackpoint>
            <Time>2021-08-04T14:11:56.000Z</Time>
            <Position>
              <LatitudeDegrees>40.86731412447988986968994140625</LatitudeDegrees>
              <LongitudeDegrees>-0.85616606287658214569091796875</LongitudeDegrees>
            </Position>
            <AltitudeMeters>1049.199951171875</AltitudeMeters>
            <DistanceMeters>633978.43032508</DistanceMeters>
          </Trackpoint>
          <Trackpoint>
            <Time>2021-08-04T14:11:58.000Z</Time>
            <Position>
              <LatitudeDegrees>40.8672317303717136383056640625</LatitudeDegrees>
              <LongitudeDegrees>-0.85604653693735599517822265625</LongitudeDegrees>
            </Position>
            <AltitudeMeters>1048.4000244140625</AltitudeMeters>
            <DistanceMeters>633992.0433787</DistanceMeters>
          </Trackpoint>
          <Trackpoint>
            <Time>2021-08-04T14:12:01.000Z</Time>
            <Position>
              <LatitudeDegrees>40.8670992963016033172607421875</LatitudeDegrees>
              <LongitudeDegrees>-0.855859704315662384033203125</LongitudeDegrees>
            </Position>
            <AltitudeMeters>1046.800048828125</AltitudeMeters>
            <DistanceMeters>634013.59748209</DistanceMeters>
          </Trackpoint>
          <Trackpoint>
            <Time>2021-08-04T14:12:03.000Z</Time>
            <Position>
              <LatitudeDegrees>40.8669886551797389984130859375</LatitudeDegrees>
              <LongitudeDegrees>-0.85573975928127765655517578125</LongitudeDegrees>
            </Position>
            <AltitudeMeters>1044.800048828125</AltitudeMeters>
            <DistanceMeters>634029.52147583</DistanceMeters>
          </Trackpoint>
          <Trackpoint>
            <Time>2021-08-04T14:12:04.000Z</Time>
            <Position>
              <LatitudeDegrees>40.8669306524097919464111328125</LatitudeDegrees>
              <LongitudeDegrees>-0.855675972998142242431640625</LongitudeDegrees>
            </Position>
            <AltitudeMeters>1043.800048828125</AltitudeMeters>
            <DistanceMeters>634037.91831076</DistanceMeters>
          </Trackpoint>
          <Trackpoint>
            <Time>2021-08-04T14:12:07.000Z</Time>
            <Position>
              <LatitudeDegrees>40.866764523088932037353515625</LatitudeDegrees>
              <LongitudeDegrees>-0.8555160462856292724609375</LongitudeDegrees>
            </Position>
            <AltitudeMeters>1042.4000244140625</AltitudeMeters>
            <DistanceMeters>634060.78956495</DistanceMeters>
          </Trackpoint>
          <Trackpoint>
            <Time>2021-08-04T14:12:08.000Z</Time>
            <Position>
              <LatitudeDegrees>40.866714231669902801513671875</LatitudeDegrees>
              <LongitudeDegrees>-0.85547220893204212188720703125</LongitudeDegrees>
            </Position>
            <AltitudeMeters>1042.4000244140625</AltitudeMeters>
            <DistanceMeters>634067.49282239</DistanceMeters>
          </Trackpoint>
          <Trackpoint>
            <Time>2021-08-04T14:12:10.000Z</Time>
            <Position>
              <LatitudeDegrees>40.86662714369595050811767578125</LatitudeDegrees>
              <LongitudeDegrees>-0.855392329394817352294921875</LongitudeDegrees>
            </Position>
            <AltitudeMeters>1042.5999755859375</AltitudeMeters>
            <DistanceMeters>634079.28915564</DistanceMeters>
          </Trackpoint>
          <Trackpoint>
            <Time>2021-08-04T14:12:24.000Z</Time>
            <Position>
              <LatitudeDegrees>40.86615423671901226043701171875</LatitudeDegrees>
              <LongitudeDegrees>-0.85516476072371006011962890625</LongitudeDegrees>
            </Position>
            <AltitudeMeters>1043.4000244140625</AltitudeMeters>
            <DistanceMeters>634135.30158015</DistanceMeters>
          </Trackpoint>
          <Trackpoint>
            <Time>2021-08-04T14:12:33.000Z</Time>
            <Position>
              <LatitudeDegrees>40.866016857326030731201171875</LatitudeDegrees>
              <LongitudeDegrees>-0.8550448156893253326416015625</LongitudeDegrees>
            </Position>
            <AltitudeMeters>1044.4000244140625</AltitudeMeters>
            <DistanceMeters>634153.62474151</DistanceMeters>
          </Trackpoint>
          <Trackpoint>
            <Time>2021-08-04T14:12:36.000Z</Time>
            <Position>
              <LatitudeDegrees>40.8659742772579193115234375</LatitudeDegrees>
              <LongitudeDegrees>-0.855001397430896759033203125</LongitudeDegrees>
            </Position>
            <AltitudeMeters>1045.800048828125</AltitudeMeters>
            <DistanceMeters>634159.60916154</DistanceMeters>
          </Trackpoint>
          <Trackpoint>
            <Time>2021-08-04T14:12:57.000Z</Time>
            <Position>
              <LatitudeDegrees>40.86552836000919342041015625</LatitudeDegrees>
              <LongitudeDegrees>-0.85458657704293727874755859375</LongitudeDegrees>
            </Position>
            <AltitudeMeters>1045.5999755859375</AltitudeMeters>
            <DistanceMeters>634220.29210827</DistanceMeters>
          </Trackpoint>
          <Trackpoint>
            <Time>2021-08-04T14:13:01.000Z</Time>
            <Position>
              <LatitudeDegrees>40.8654017932713031768798828125</LatitudeDegrees>
              <LongitudeDegrees>-0.85446738637983798980712890625</LongitudeDegrees>
            </Position>
            <AltitudeMeters>1045</AltitudeMeters>
            <DistanceMeters>634237.58644815</DistanceMeters>
          </Trackpoint>
          <Trackpoint>
            <Time>2021-08-04T14:13:14.000Z</Time>
            <Position>
              <LatitudeDegrees>40.86498646996915340423583984375</LatitudeDegrees>
              <LongitudeDegrees>-0.8540577627718448638916015625</LongitudeDegrees>
            </Position>
            <AltitudeMeters>1044</AltitudeMeters>
            <DistanceMeters>634295.2551383</DistanceMeters>
          </Trackpoint>
          <Trackpoint>
            <Time>2021-08-04T14:13:19.000Z</Time>
            <Position>
              <LatitudeDegrees>40.864854790270328521728515625</LatitudeDegrees>
              <LongitudeDegrees>-0.85384058766067028045654296875</LongitudeDegrees>
            </Position>
            <AltitudeMeters>1043.800048828125</AltitudeMeters>
            <DistanceMeters>634318.68534247</DistanceMeters>
          </Trackpoint>
          <Trackpoint>
            <Time>2021-08-04T14:13:32.000Z</Time>
            <Position>
              <LatitudeDegrees>40.86440660990774631500244140625</LatitudeDegrees>
              <LongitudeDegrees>-0.85344445891678333282470703125</LongitudeDegrees>
            </Position>
            <AltitudeMeters>1043.199951171875</AltitudeMeters>
            <DistanceMeters>634378.68641694</DistanceMeters>
          </Trackpoint>
          <Trackpoint>
            <Time>2021-08-04T14:13:39.000Z</Time>
            <Position>
              <LatitudeDegrees>40.86416873149573802947998046875</LatitudeDegrees>
              <LongitudeDegrees>-0.853297524154186248779296875</LongitudeDegrees>
            </Position>
            <AltitudeMeters>1043</AltitudeMeters>
            <DistanceMeters>634407.9091016</DistanceMeters>
          </Trackpoint>
          <Trackpoint>
            <Time>2021-08-04T14:13:41.000Z</Time>
            <Position>
              <LatitudeDegrees>40.864099748432636260986328125</LatitudeDegrees>
              <LongitudeDegrees>-0.85325620137155055999755859375</LongitudeDegrees>
            </Position>
            <AltitudeMeters>1043</AltitudeMeters>
            <DistanceMeters>634416.33867286</DistanceMeters>
          </Trackpoint>
          <Trackpoint>
            <Time>2021-08-04T14:13:50.000Z</Time>
            <Position>
              <LatitudeDegrees>40.8638189546763896942138671875</LatitudeDegrees>
              <LongitudeDegrees>-0.85294456221163272857666015625</LongitudeDegrees>
            </Position>
            <AltitudeMeters>1041.800048828125</AltitudeMeters>
            <DistanceMeters>634457.14133373</DistanceMeters>
          </Trackpoint>
          <Trackpoint>
            <Time>2021-08-04T14:13:55.000Z</Time>
            <Position>
              <LatitudeDegrees>40.86369196884334087371826171875</LatitudeDegrees>
              <LongitudeDegrees>-0.8527340926229953765869140625</LongitudeDegrees>
            </Position>
            <AltitudeMeters>1041</AltitudeMeters>
            <DistanceMeters>634479.80435841</DistanceMeters>
          </Trackpoint>
          <Trackpoint>
            <Time>2021-08-04T14:14:11.000Z</Time>
            <Position>
              <LatitudeDegrees>40.8632724545896053314208984375</LatitudeDegrees>
              <LongitudeDegrees>-0.85224500857293605804443359375</LongitudeDegrees>
            </Position>
            <AltitudeMeters>1041.5999755859375</AltitudeMeters>
            <DistanceMeters>634542.05418238</DistanceMeters>
          </Trackpoint>
          <Trackpoint>
            <Time>2021-08-04T14:14:16.000Z</Time>
            <Position>
              <LatitudeDegrees>40.8631333149969577789306640625</LatitudeDegrees>
              <LongitudeDegrees>-0.8521949686110019683837890625</LongitudeDegrees>
            </Position>
            <AltitudeMeters>1043.4000244140625</AltitudeMeters>
            <DistanceMeters>634558.10329141</DistanceMeters>
          </Trackpoint>
          <Trackpoint>
            <Time>2021-08-04T14:14:17.000Z</Time>
            <Position>
              <LatitudeDegrees>40.86310900747776031494140625</LatitudeDegrees>
              <LongitudeDegrees>-0.85221030749380588531494140625</LongitudeDegrees>
            </Position>
            <AltitudeMeters>1043.5999755859375</AltitudeMeters>
            <DistanceMeters>634561.10228393</DistanceMeters>
          </Trackpoint>
          <Trackpoint>
            <Time>2021-08-04T14:14:23.000Z</Time>
            <Position>
              <LatitudeDegrees>40.86306097917258739471435546875</LatitudeDegrees>
              <LongitudeDegrees>-0.85237174294888973236083984375</LongitudeDegrees>
            </Position>
            <AltitudeMeters>1044.5999755859375</AltitudeMeters>
            <DistanceMeters>634575.70489414</DistanceMeters>
          </Trackpoint>
          <Trackpoint>
            <Time>2021-08-04T14:14:26.000Z</Time>
            <Position>
              <LatitudeDegrees>40.863011442124843597412109375</LatitudeDegrees>
              <LongitudeDegrees>-0.8524041809141635894775390625</LongitudeDegrees>
            </Position>
            <AltitudeMeters>1045.800048828125</AltitudeMeters>
            <DistanceMeters>634581.85746112</DistanceMeters>
          </Trackpoint>
          <Trackpoint>
            <Time>2021-08-04T14:14:32.000Z</Time>
            <Position>
              <LatitudeDegrees>40.86291496641933917999267578125</LatitudeDegrees>
              <LongitudeDegrees>-0.8523247204720973968505859375</LongitudeDegrees>
            </Position>
            <AltitudeMeters>1046.4000244140625</AltitudeMeters>
            <DistanceMeters>634594.50851147</DistanceMeters>
          </Trackpoint>
          <Trackpoint>
            <Time>2021-08-04T14:14:35.000Z</Time>
            <Position>
              <LatitudeDegrees>40.8628768287599086761474609375</LatitudeDegrees>
              <LongitudeDegrees>-0.8522526361048221588134765625</LongitudeDegrees>
            </Position>
            <AltitudeMeters>1046.800048828125</AltitudeMeters>
            <DistanceMeters>634601.91389156</DistanceMeters>
          </Trackpoint>
          <Trackpoint>
            <Time>2021-08-04T14:14:42.000Z</Time>
            <Position>
              <LatitudeDegrees>40.86279116570949554443359375</LatitudeDegrees>
              <LongitudeDegrees>-0.8521010912954807281494140625</LongitudeDegrees>
            </Position>
            <AltitudeMeters>1047.800048828125</AltitudeMeters>
            <DistanceMeters>634617.83986993</DistanceMeters>
          </Trackpoint>
          <Trackpoint>
            <Time>2021-08-04T14:14:51.000Z</Time>
            <Position>
              <LatitudeDegrees>40.86266853846609592437744140625</LatitudeDegrees>
              <LongitudeDegrees>-0.8519555814564228057861328125</LongitudeDegrees>
            </Position>
            <AltitudeMeters>1049</AltitudeMeters>
            <DistanceMeters>634636.17879485</DistanceMeters>
          </Trackpoint>
          <Trackpoint>
            <Time>2021-08-04T14:14:59.000Z</Time>
            <Position>
              <LatitudeDegrees>40.862569548189640045166015625</LatitudeDegrees>
              <LongitudeDegrees>-0.85185860283672809600830078125</LongitudeDegrees>
            </Position>
            <AltitudeMeters>1050</AltitudeMeters>
            <DistanceMeters>634649.89098839</DistanceMeters>
          </Trackpoint>
          <Trackpoint>
            <Time>2021-08-04T14:15:05.000Z</Time>
            <Position>
              <LatitudeDegrees>40.8624892495572566986083984375</LatitudeDegrees>
              <LongitudeDegrees>-0.85180562920868396759033203125</LongitudeDegrees>
            </Position>
            <AltitudeMeters>1051.4000244140625</AltitudeMeters>
            <DistanceMeters>634659.87919566</DistanceMeters>
          </Trackpoint>
          <Trackpoint>
            <Time>2021-08-04T14:15:12.000Z</Time>
            <Position>
              <LatitudeDegrees>40.86239025928080081939697265625</LatitudeDegrees>
              <LongitudeDegrees>-0.851781405508518218994140625</LongitudeDegrees>
            </Position>
            <AltitudeMeters>1052.4000244140625</AltitudeMeters>
            <DistanceMeters>634671.083889</DistanceMeters>
          </Trackpoint>
          <Trackpoint>
            <Time>2021-08-04T14:15:22.000Z</Time>
            <Position>
              <LatitudeDegrees>40.86223888210952281951904296875</LatitudeDegrees>
              <LongitudeDegrees>-0.85181116126477718353271484375</LongitudeDegrees>
            </Position>
            <AltitudeMeters>1053.5999755859375</AltitudeMeters>
            <DistanceMeters>634688.11754352</DistanceMeters>
          </Trackpoint>
          <Trackpoint>
            <Time>2021-08-04T14:15:29.000Z</Time>
            <Position>
              <LatitudeDegrees>40.862137712538242340087890625</LatitudeDegrees>
              <LongitudeDegrees>-0.8517943136394023895263671875</LongitudeDegrees>
            </Position>
            <AltitudeMeters>1054.4000244140625</AltitudeMeters>
            <DistanceMeters>634699.46637519</DistanceMeters>
          </Trackpoint>
          <Trackpoint>
            <Time>2021-08-04T14:15:32.000Z</Time>
            <Position>
              <LatitudeDegrees>40.8620989881455898284912109375</LatitudeDegrees>
              <LongitudeDegrees>-0.8517540805041790008544921875</LongitudeDegrees>
            </Position>
            <AltitudeMeters>1054.800048828125</AltitudeMeters>
            <DistanceMeters>634704.94835425</DistanceMeters>
          </Trackpoint>
          <Trackpoint>
            <Time>2021-08-04T14:15:39.000Z</Time>
            <Position>
              <LatitudeDegrees>40.86201508529484272003173828125</LatitudeDegrees>
              <LongitudeDegrees>-0.851672105491161346435546875</LongitudeDegrees>
            </Position>
            <AltitudeMeters>1055.800048828125</AltitudeMeters>
            <DistanceMeters>634716.55951446</DistanceMeters>
          </Trackpoint>
          <Trackpoint>
            <Time>2021-08-04T14:15:47.000Z</Time>
            <Position>
              <LatitudeDegrees>40.86192548274993896484375</LatitudeDegrees>
              <LongitudeDegrees>-0.85156314074993133544921875</LongitudeDegrees>
            </Position>
            <AltitudeMeters>1056.800048828125</AltitudeMeters>
            <DistanceMeters>634730.10907106</DistanceMeters>
          </Trackpoint>
          <Trackpoint>
            <Time>2021-08-04T14:15:55.000Z</Time>
            <Position>
              <LatitudeDegrees>40.86182691156864166259765625</LatitudeDegrees>
              <LongitudeDegrees>-0.8514660783112049102783203125</LongitudeDegrees>
            </Position>
            <AltitudeMeters>1057.800048828125</AltitudeMeters>
            <DistanceMeters>634743.78862786</DistanceMeters>
          </Trackpoint>
          <Trackpoint>
            <Time>2021-08-04T14:15:58.000Z</Time>
            <Position>
              <LatitudeDegrees>40.86178894154727458953857421875</LatitudeDegrees>
              <LongitudeDegrees>-0.8514208160340785980224609375</LongitudeDegrees>
            </Position>
            <AltitudeMeters>1058</AltitudeMeters>
            <DistanceMeters>634749.47913347</DistanceMeters>
          </Trackpoint>
          <Trackpoint>
            <Time>2021-08-04T14:16:16.000Z</Time>
            <Position>
              <LatitudeDegrees>40.8615539968013763427734375</LatitudeDegrees>
              <LongitudeDegrees>-0.851153098046779632568359375</LongitudeDegrees>
            </Position>
            <AltitudeMeters>1059</AltitudeMeters>
            <DistanceMeters>634783.99960664</DistanceMeters>
          </Trackpoint>
          <Trackpoint>
            <Time>2021-08-04T14:16:28.000Z</Time>
            <Position>
              <LatitudeDegrees>40.86139901541173458099365234375</LatitudeDegrees>
              <LongitudeDegrees>-0.85098110139369964599609375</LongitudeDegrees>
            </Position>
            <AltitudeMeters>1060.199951171875</AltitudeMeters>
            <DistanceMeters>634806.51993553</DistanceMeters>
          </Trackpoint>
          <Trackpoint>
            <Time>2021-08-04T14:16:34.000Z</Time>
            <Position>
              <LatitudeDegrees>40.861325673758983612060546875</LatitudeDegrees>
              <LongitudeDegrees>-0.85089568980038166046142578125</LongitudeDegrees>
            </Position>
            <AltitudeMeters>1061.199951171875</AltitudeMeters>
            <DistanceMeters>634817.39748543</DistanceMeters>
          </Trackpoint>
          <Trackpoint>
            <Time>2021-08-04T14:16:41.000Z</Time>
            <Position>
              <LatitudeDegrees>40.86123322136700153350830078125</LatitudeDegrees>
              <LongitudeDegrees>-0.85080902092158794403076171875</LongitudeDegrees>
            </Position>
            <AltitudeMeters>1062.5999755859375</AltitudeMeters>
            <DistanceMeters>634830.0117225</DistanceMeters>
          </Trackpoint>
          <Trackpoint>
            <Time>2021-08-04T14:16:47.000Z</Time>
            <Position>
              <LatitudeDegrees>40.8611454628407955169677734375</LatitudeDegrees>
              <LongitudeDegrees>-0.8507505990564823150634765625</LongitudeDegrees>
            </Position>
            <AltitudeMeters>1063.5999755859375</AltitudeMeters>
            <DistanceMeters>634840.94764187</DistanceMeters>
          </Trackpoint>
          <Trackpoint>
            <Time>2021-08-04T14:16:58.000Z</Time>
            <Position>
              <LatitudeDegrees>40.86100188083946704864501953125</LatitudeDegrees>
              <LongitudeDegrees>-0.85062168538570404052734375</LongitudeDegrees>
            </Position>
            <AltitudeMeters>1064.5999755859375</AltitudeMeters>
            <DistanceMeters>634860.26496257</DistanceMeters>
          </Trackpoint>
          <Trackpoint>
            <Time>2021-08-04T14:17:04.000Z</Time>
            <Position>
              <LatitudeDegrees>40.86093583144247531890869140625</LatitudeDegrees>
              <LongitudeDegrees>-0.8505397103726863861083984375</LongitudeDegrees>
            </Position>
            <AltitudeMeters>1065.5999755859375</AltitudeMeters>
            <DistanceMeters>634870.34765073</DistanceMeters>
          </Trackpoint>
          <Trackpoint>
            <Time>2021-08-04T14:17:11.000Z</Time>
            <Position>
              <LatitudeDegrees>40.860862322151660919189453125</LatitudeDegrees>
              <LongitudeDegrees>-0.85042848251760005950927734375</LongitudeDegrees>
            </Position>
            <AltitudeMeters>1066.4000244140625</AltitudeMeters>
            <DistanceMeters>634882.78199707</DistanceMeters>
          </Trackpoint>
          <Trackpoint>
            <Time>2021-08-04T14:17:15.000Z</Time>
            <Position>
              <LatitudeDegrees>40.860826112329959869384765625</LatitudeDegrees>
              <LongitudeDegrees>-0.8503581583499908447265625</LongitudeDegrees>
            </Position>
            <AltitudeMeters>1066.800048828125</AltitudeMeters>
            <DistanceMeters>634889.94375902</DistanceMeters>
          </Trackpoint>
          <Trackpoint>
            <Time>2021-08-04T14:17:26.000Z</Time>
            <Position>
              <LatitudeDegrees>40.86075830273330211639404296875</LatitudeDegrees>
              <LongitudeDegrees>-0.8501851558685302734375</LongitudeDegrees>
            </Position>
            <AltitudeMeters>1068</AltitudeMeters>
            <DistanceMeters>634906.3462618</DistanceMeters>
          </Trackpoint>
          <Trackpoint>
            <Time>2021-08-04T14:17:37.000Z</Time>
            <Position>
              <LatitudeDegrees>40.86071538738906383514404296875</LatitudeDegrees>
              <LongitudeDegrees>-0.85002682171761989593505859375</LongitudeDegrees>
            </Position>
            <AltitudeMeters>1069</AltitudeMeters>
            <DistanceMeters>634920.50428557</DistanceMeters>
          </Trackpoint>
          <Trackpoint>
            <Time>2021-08-04T14:17:45.000Z</Time>
            <Position>
              <LatitudeDegrees>40.86068722419440746307373046875</LatitudeDegrees>
              <LongitudeDegrees>-0.8499063737690448760986328125</LongitudeDegrees>
            </Position>
            <AltitudeMeters>1070</AltitudeMeters>
            <DistanceMeters>634931.11668932</DistanceMeters>
          </Trackpoint>
          <Trackpoint>
            <Time>2021-08-04T14:17:53.000Z</Time>
            <Position>
              <LatitudeDegrees>40.86065285839140415191650390625</LatitudeDegrees>
              <LongitudeDegrees>-0.84979028441011905670166015625</LongitudeDegrees>
            </Position>
            <AltitudeMeters>1071</AltitudeMeters>
            <DistanceMeters>634941.61101218</DistanceMeters>
          </Trackpoint>
          <Trackpoint>
            <Time>2021-08-04T14:17:59.000Z</Time>
            <Position>
              <LatitudeDegrees>40.8606200851500034332275390625</LatitudeDegrees>
              <LongitudeDegrees>-0.84970034658908843994140625</LongitudeDegrees>
            </Position>
            <AltitudeMeters>1072.199951171875</AltitudeMeters>
            <DistanceMeters>634950.01429712</DistanceMeters>
          </Trackpoint>
          <Trackpoint>
            <Time>2021-08-04T14:18:08.000Z</Time>
            <Position>
              <LatitudeDegrees>40.860569290816783905029296875</LatitudeDegrees>
              <LongitudeDegrees>-0.84957025945186614990234375</LongitudeDegrees>
            </Position>
            <AltitudeMeters>1073.199951171875</AltitudeMeters>
            <DistanceMeters>634962.33776358</DistanceMeters>
          </Trackpoint>
          <Trackpoint>
            <Time>2021-08-04T14:18:14.000Z</Time>
            <Position>
              <LatitudeDegrees>40.860532410442829132080078125</LatitudeDegrees>
              <LongitudeDegrees>-0.84948652423918247222900390625</LongitudeDegrees>
            </Position>
            <AltitudeMeters>1074.4000244140625</AltitudeMeters>
            <DistanceMeters>634970.49457688</DistanceMeters>
          </Trackpoint>
          <Trackpoint>
            <Time>2021-08-04T14:18:18.000Z</Time>
            <Position>
              <LatitudeDegrees>40.86050533689558506011962890625</LatitudeDegrees>
              <LongitudeDegrees>-0.84943438880145549774169921875</LongitudeDegrees>
            </Position>
            <AltitudeMeters>1074.800048828125</AltitudeMeters>
            <DistanceMeters>634975.81776952</DistanceMeters>
          </Trackpoint>
          <Trackpoint>
            <Time>2021-08-04T14:18:21.000Z</Time>
            <Position>
              <LatitudeDegrees>40.86048505268990993499755859375</LatitudeDegrees>
              <LongitudeDegrees>-0.84939331747591495513916015625</LongitudeDegrees>
            </Position>
            <AltitudeMeters>1075.5999755859375</AltitudeMeters>
            <DistanceMeters>634979.94897328</DistanceMeters>
          </Trackpoint>
          <Trackpoint>
            <Time>2021-08-04T14:18:29.000Z</Time>
            <Position>
              <LatitudeDegrees>40.86041196249425411224365234375</LatitudeDegrees>
              <LongitudeDegrees>-0.8493048883974552154541015625</LongitudeDegrees>
            </Position>
            <AltitudeMeters>1076.5999755859375</AltitudeMeters>
            <DistanceMeters>634990.97575791</DistanceMeters>
          </Trackpoint>
          <Trackpoint>
            <Time>2021-08-04T14:18:37.000Z</Time>
            <Position>
              <LatitudeDegrees>40.8603344298899173736572265625</LatitudeDegrees>
              <LongitudeDegrees>-0.8492348156869411468505859375</LongitudeDegrees>
            </Position>
            <AltitudeMeters>1077.5999755859375</AltitudeMeters>
            <DistanceMeters>635001.42869649</DistanceMeters>
          </Trackpoint>
          <Trackpoint>
            <Time>2021-08-04T14:18:43.000Z</Time>
            <Position>
              <LatitudeDegrees>40.86027030833065509796142578125</LatitudeDegrees>
              <LongitudeDegrees>-0.8491892181336879730224609375</LongitudeDegrees>
            </Position>
            <AltitudeMeters>1078.800048828125</AltitudeMeters>
            <DistanceMeters>635009.53219672</DistanceMeters>
          </Trackpoint>
          <Trackpoint>
            <Time>2021-08-04T14:18:54.000Z</Time>
            <Position>
              <LatitudeDegrees>40.8601563982665538787841796875</LatitudeDegrees>
              <LongitudeDegrees>-0.84906172938644886016845703125</LongitudeDegrees>
            </Position>
            <AltitudeMeters>1080</AltitudeMeters>
            <DistanceMeters>635026.14285552</DistanceMeters>
          </Trackpoint>
          <Trackpoint>
            <Time>2021-08-04T14:19:00.000Z</Time>
            <Position>
              <LatitudeDegrees>40.86010401137173175811767578125</LatitudeDegrees>
              <LongitudeDegrees>-0.84898059256374835968017578125</LongitudeDegrees>
            </Position>
            <AltitudeMeters>1081.199951171875</AltitudeMeters>
            <DistanceMeters>635035.12325711</DistanceMeters>
          </Trackpoint>
          <Trackpoint>
            <Time>2021-08-04T14:19:15.000Z</Time>
            <Position>
              <LatitudeDegrees>40.85995338857173919677734375</LatitudeDegrees>
              <LongitudeDegrees>-0.84877707995474338531494140625</LongitudeDegrees>
            </Position>
            <AltitudeMeters>1082.199951171875</AltitudeMeters>
            <DistanceMeters>635059.09260386</DistanceMeters>
          </Trackpoint>
          <Trackpoint>
            <Time>2021-08-04T14:19:26.000Z</Time>
            <Position>
              <LatitudeDegrees>40.8598583377897739410400390625</LatitudeDegrees>
              <LongitudeDegrees>-0.84861346520483493804931640625</LongitudeDegrees>
            </Position>
            <AltitudeMeters>1083.199951171875</AltitudeMeters>
            <DistanceMeters>635076.45936963</DistanceMeters>
          </Trackpoint>
          <Trackpoint>
            <Time>2021-08-04T14:19:34.000Z</Time>
            <Position>
              <LatitudeDegrees>40.8598204515874385833740234375</LatitudeDegrees>
              <LongitudeDegrees>-0.84847633726894855499267578125</LongitudeDegrees>
            </Position>
            <AltitudeMeters>1084.199951171875</AltitudeMeters>
            <DistanceMeters>635088.74834837</DistanceMeters>
          </Trackpoint>
          <Trackpoint>
            <Time>2021-08-04T14:19:39.000Z</Time>
            <Position>
              <LatitudeDegrees>40.859805531799793243408203125</LatitudeDegrees>
              <LongitudeDegrees>-0.8483845554292201995849609375</LongitudeDegrees>
            </Position>
            <AltitudeMeters>1085.5999755859375</AltitudeMeters>
            <DistanceMeters>635096.6510067</DistanceMeters>
          </Trackpoint>
          <Trackpoint>
            <Time>2021-08-04T14:19:47.000Z</Time>
            <Position>
              <LatitudeDegrees>40.859747864305973052978515625</LatitudeDegrees>
              <LongitudeDegrees>-0.84825932979583740234375</LongitudeDegrees>
            </Position>
            <AltitudeMeters>1086.800048828125</AltitudeMeters>
            <DistanceMeters>635108.99277843</DistanceMeters>
          </Trackpoint>
          <Trackpoint>
            <Time>2021-08-04T14:20:06.000Z</Time>
            <Position>
              <LatitudeDegrees>40.85948023013770580291748046875</LatitudeDegrees>
              <LongitudeDegrees>-0.84807132370769977569580078125</LongitudeDegrees>
            </Position>
            <AltitudeMeters>1087.800048828125</AltitudeMeters>
            <DistanceMeters>635142.72418356</DistanceMeters>
          </Trackpoint>
          <Trackpoint>
            <Time>2021-08-04T14:20:16.000Z</Time>
            <Position>
              <LatitudeDegrees>40.85933522321283817291259765625</LatitudeDegrees>
              <LongitudeDegrees>-0.84800259210169315338134765625</LongitudeDegrees>
            </Position>
            <AltitudeMeters>1089</AltitudeMeters>
            <DistanceMeters>635159.86959427</DistanceMeters>
          </Trackpoint>
          <Trackpoint>
            <Time>2021-08-04T14:20:27.000Z</Time>
            <Position>
              <LatitudeDegrees>40.85917278192937374114990234375</LatitudeDegrees>
              <LongitudeDegrees>-0.8479245565831661224365234375</LongitudeDegrees>
            </Position>
            <AltitudeMeters>1090</AltitudeMeters>
            <DistanceMeters>635179.1061091</DistanceMeters>
          </Trackpoint>
          <Trackpoint>
            <Time>2021-08-04T14:20:35.000Z</Time>
            <Position>
              <LatitudeDegrees>40.85907018743455410003662109375</LatitudeDegrees>
              <LongitudeDegrees>-0.8478387258946895599365234375</LongitudeDegrees>
            </Position>
            <AltitudeMeters>1091.199951171875</AltitudeMeters>
            <DistanceMeters>635192.61862721</DistanceMeters>
          </Trackpoint>
          <Trackpoint>
            <Time>2021-08-04T14:20:40.000Z</Time>
            <Position>
              <LatitudeDegrees>40.859003551304340362548828125</LatitudeDegrees>
              <LongitudeDegrees>-0.8477857522666454315185546875</LongitudeDegrees>
            </Position>
            <AltitudeMeters>1092.199951171875</AltitudeMeters>
            <DistanceMeters>635201.27284318</DistanceMeters>
          </Trackpoint>
          <Trackpoint>
            <Time>2021-08-04T14:20:49.000Z</Time>
            <Position>
              <LatitudeDegrees>40.8588798344135284423828125</LatitudeDegrees>
              <LongitudeDegrees>-0.8477146737277507781982421875</LongitudeDegrees>
            </Position>
            <AltitudeMeters>1093.5999755859375</AltitudeMeters>
            <DistanceMeters>635216.2864626</DistanceMeters>
          </Trackpoint>
          <Trackpoint>
            <Time>2021-08-04T14:20:51.000Z</Time>
            <Position>
              <LatitudeDegrees>40.85885879583656787872314453125</LatitudeDegrees>
              <LongitudeDegrees>-0.84770654328167438507080078125</LongitudeDegrees>
            </Position>
            <AltitudeMeters>1093.800048828125</AltitudeMeters>
            <DistanceMeters>635218.72774309</DistanceMeters>
          </Trackpoint>
          <Trackpoint>
            <Time>2021-08-04T14:20:56.000Z</Time>
            <Position>
              <LatitudeDegrees>40.85881001316010951995849609375</LatitudeDegrees>
              <LongitudeDegrees>-0.84766027517616748809814453125</LongitudeDegrees>
            </Position>
            <AltitudeMeters>1094.5999755859375</AltitudeMeters>
            <DistanceMeters>635225.40941189</DistanceMeters>
          </Trackpoint>
          <Trackpoint>
            <Time>2021-08-04T14:20:59.000Z</Time>
            <Position>
              <LatitudeDegrees>40.85880381055176258087158203125</LatitudeDegrees>
              <LongitudeDegrees>-0.847646780312061309814453125</LongitudeDegrees>
            </Position>
            <AltitudeMeters>1095</AltitudeMeters>
            <DistanceMeters>635226.73978589</DistanceMeters>
          </Trackpoint>
          <Trackpoint>
            <Time>2021-08-04T14:28:14.000Z</Time>
            <Position>
              <LatitudeDegrees>40.858819484710693359375</LatitudeDegrees>
              <LongitudeDegrees>-0.84772280417382717132568359375</LongitudeDegrees>
            </Position>
            <AltitudeMeters>1095.4000244140625</AltitudeMeters>
            <DistanceMeters>635233.373304</DistanceMeters>
          </Trackpoint>
          <Trackpoint>
            <Time>2021-08-04T14:28:21.000Z</Time>
            <Position>
              <LatitudeDegrees>40.85870339535176753997802734375</LatitudeDegrees>
              <LongitudeDegrees>-0.8476298488676548004150390625</LongitudeDegrees>
            </Position>
            <AltitudeMeters>1094.199951171875</AltitudeMeters>
            <DistanceMeters>635248.47926414</DistanceMeters>
          </Trackpoint>
          <Trackpoint>
            <Time>2021-08-04T14:28:26.000Z</Time>
            <Position>
              <LatitudeDegrees>40.85855805315077304840087890625</LatitudeDegrees>
              <LongitudeDegrees>-0.847448967397212982177734375</LongitudeDegrees>
            </Position>
            <AltitudeMeters>1093.199951171875</AltitudeMeters>
            <DistanceMeters>635270.69520117</DistanceMeters>
          </Trackpoint>
          <Trackpoint>
            <Time>2021-08-04T14:28:29.000Z</Time>
            <Position>
              <LatitudeDegrees>40.85843433625996112823486328125</LatitudeDegrees>
              <LongitudeDegrees>-0.84731577895581722259521484375</LongitudeDegrees>
            </Position>
            <AltitudeMeters>1092.199951171875</AltitudeMeters>
            <DistanceMeters>635288.45248811</DistanceMeters>
          </Trackpoint>
          <Trackpoint>
            <Time>2021-08-04T14:28:33.000Z</Time>
            <Position>
              <LatitudeDegrees>40.85822847671806812286376953125</LatitudeDegrees>
              <LongitudeDegrees>-0.8471892960369586944580078125</LongitudeDegrees>
            </Position>
            <AltitudeMeters>1091.199951171875</AltitudeMeters>
            <DistanceMeters>635313.71815976</DistanceMeters>
          </Trackpoint>
          <Trackpoint>
            <Time>2021-08-04T14:28:37.000Z</Time>
            <Position>
              <LatitudeDegrees>40.85801792331039905548095703125</LatitudeDegrees>
              <LongitudeDegrees>-0.84709801711142063140869140625</LongitudeDegrees>
            </Position>
            <AltitudeMeters>1091</AltitudeMeters>
            <DistanceMeters>635338.3806588</DistanceMeters>
          </Trackpoint>
          <Trackpoint>
            <Time>2021-08-04T14:28:41.000Z</Time>
            <Position>
              <LatitudeDegrees>40.8578118123114109039306640625</LatitudeDegrees>
              <LongitudeDegrees>-0.84700866602361202239990234375</LongitudeDegrees>
            </Position>
            <AltitudeMeters>1090.4000244140625</AltitudeMeters>
            <DistanceMeters>635362.52305542</DistanceMeters>
          </Trackpoint>
          <Trackpoint>
            <Time>2021-08-04T14:28:43.000Z</Time>
            <Position>
              <LatitudeDegrees>40.85770728997886180877685546875</LatitudeDegrees>
              <LongitudeDegrees>-0.84697698242962360382080078125</LongitudeDegrees>
            </Position>
            <AltitudeMeters>1089.800048828125</AltitudeMeters>
            <DistanceMeters>635374.45865284</DistanceMeters>
          </Trackpoint>
          <Trackpoint>
            <Time>2021-08-04T14:28:48.000Z</Time>
            <Position>
              <LatitudeDegrees>40.8574383147060871124267578125</LatitudeDegrees>
              <LongitudeDegrees>-0.84691428579390048980712890625</LongitudeDegrees>
            </Position>
            <AltitudeMeters>1088.4000244140625</AltitudeMeters>
            <DistanceMeters>635404.85799434</DistanceMeters>
          </Trackpoint>
          <Trackpoint>
            <Time>2021-08-04T14:28:50.000Z</Time>
            <Position>
              <LatitudeDegrees>40.8573300205171108245849609375</LatitudeDegrees>
              <LongitudeDegrees>-0.84687975235283374786376953125</LongitudeDegrees>
            </Position>
            <AltitudeMeters>1086.800048828125</AltitudeMeters>
            <DistanceMeters>635417.25743309</DistanceMeters>
          </Trackpoint>
          <Trackpoint>
            <Time>2021-08-04T14:28:53.000Z</Time>
            <Position>
              <LatitudeDegrees>40.8571650646626949310302734375</LatitudeDegrees>
              <LongitudeDegrees>-0.84683968685567378997802734375</LongitudeDegrees>
            </Position>
            <AltitudeMeters>1085.4000244140625</AltitudeMeters>
            <DistanceMeters>635435.92455981</DistanceMeters>
          </Trackpoint>
          <Trackpoint>
            <Time>2021-08-04T14:28:55.000Z</Time>
            <Position>
              <LatitudeDegrees>40.8570571057498455047607421875</LatitudeDegrees>
              <LongitudeDegrees>-0.84680892527103424072265625</LongitudeDegrees>
            </Position>
            <AltitudeMeters>1084.4000244140625</AltitudeMeters>
            <DistanceMeters>635448.21647744</DistanceMeters>
          </Trackpoint>
          <Trackpoint>
            <Time>2021-08-04T14:28:57.000Z</Time>
            <Position>
              <LatitudeDegrees>40.856949985027313232421875</LatitudeDegrees>
              <LongitudeDegrees>-0.8467779122292995452880859375</LongitudeDegrees>
            </Position>
            <AltitudeMeters>1082.800048828125</AltitudeMeters>
            <DistanceMeters>635460.42140026</DistanceMeters>
          </Trackpoint>
          <Trackpoint>
            <Time>2021-08-04T14:28:59.000Z</Time>
            <Position>
              <LatitudeDegrees>40.8568529225885868072509765625</LatitudeDegrees>
              <LongitudeDegrees>-0.84675067104399204254150390625</LongitudeDegrees>
            </Position>
            <AltitudeMeters>1081.800048828125</AltitudeMeters>
            <DistanceMeters>635471.46496004</DistanceMeters>
          </Trackpoint>
          <Trackpoint>
            <Time>2021-08-04T14:29:03.000Z</Time>
            <Position>
              <LatitudeDegrees>40.85670934058725833892822265625</LatitudeDegrees>
              <LongitudeDegrees>-0.8466907404363155364990234375</LongitudeDegrees>
            </Position>
            <AltitudeMeters>1080.5999755859375</AltitudeMeters>
            <DistanceMeters>635488.22337307</DistanceMeters>
          </Trackpoint>
          <Trackpoint>
            <Time>2021-08-04T14:29:06.000Z</Time>
            <Position>
              <LatitudeDegrees>40.85663256235420703887939453125</LatitudeDegrees>
              <LongitudeDegrees>-0.8465995453298091888427734375</LongitudeDegrees>
            </Position>
            <AltitudeMeters>1079.4000244140625</AltitudeMeters>
            <DistanceMeters>635499.71099846</DistanceMeters>
          </Trackpoint>
          <Trackpoint>
            <Time>2021-08-04T14:29:10.000Z</Time>
            <Position>
              <LatitudeDegrees>40.85657321847975254058837890625</LatitudeDegrees>
              <LongitudeDegrees>-0.84651279263198375701904296875</LongitudeDegrees>
            </Position>
            <AltitudeMeters>1078.4000244140625</AltitudeMeters>
            <DistanceMeters>635509.55807726</DistanceMeters>
          </Trackpoint>
          <Trackpoint>
            <Time>2021-08-04T14:29:14.000Z</Time>
            <Position>
              <LatitudeDegrees>40.856499709188938140869140625</LatitudeDegrees>
              <LongitudeDegrees>-0.846434421837329864501953125</LongitudeDegrees>
            </Position>
            <AltitudeMeters>1077.199951171875</AltitudeMeters>
            <DistanceMeters>635520.06787722</DistanceMeters>
          </Trackpoint>
          <Trackpoint>
            <Time>2021-08-04T14:29:20.000Z</Time>
            <Position>
              <LatitudeDegrees>40.856350846588611602783203125</LatitudeDegrees>
              <LongitudeDegrees>-0.8463105373084545135498046875</LongitudeDegrees>
            </Position>
            <AltitudeMeters>1076.199951171875</AltitudeMeters>
            <DistanceMeters>635539.64568671</DistanceMeters>
          </Trackpoint>
          <Trackpoint>
            <Time>2021-08-04T14:29:23.000Z</Time>
            <Position>
              <LatitudeDegrees>40.85624531842768192291259765625</LatitudeDegrees>
              <LongitudeDegrees>-0.84623417817056179046630859375</LongitudeDegrees>
            </Position>
            <AltitudeMeters>1075.199951171875</AltitudeMeters>
            <DistanceMeters>635553.03501484</DistanceMeters>
          </Trackpoint>
          <Trackpoint>
            <Time>2021-08-04T14:29:24.000Z</Time>
            <Position>
              <LatitudeDegrees>40.85619829595088958740234375</LatitudeDegrees>
              <LongitudeDegrees>-0.8462154865264892578125</LongitudeDegrees>
            </Position>
            <AltitudeMeters>1074.4000244140625</AltitudeMeters>
            <DistanceMeters>635558.50049678</DistanceMeters>
          </Trackpoint>
          <Trackpoint>
            <Time>2021-08-04T14:29:27.000Z</Time>
            <Position>
              <LatitudeDegrees>40.85604918189346790313720703125</LatitudeDegrees>
              <LongitudeDegrees>-0.84617986343801021575927734375</LongitudeDegrees>
            </Position>
            <AltitudeMeters>1073.4000244140625</AltitudeMeters>
            <DistanceMeters>635575.36606549</DistanceMeters>
          </Trackpoint>
          <Trackpoint>
            <Time>2021-08-04T14:29:28.000Z</Time>
            <Position>
              <LatitudeDegrees>40.85600090213119983673095703125</LatitudeDegrees>
              <LongitudeDegrees>-0.84616645239293575286865234375</LongitudeDegrees>
            </Position>
            <AltitudeMeters>1072.5999755859375</AltitudeMeters>
            <DistanceMeters>635580.85791904</DistanceMeters>
          </Trackpoint>
          <Trackpoint>
            <Time>2021-08-04T14:29:29.000Z</Time>
            <Position>
              <LatitudeDegrees>40.85595396347343921661376953125</LatitudeDegrees>
              <LongitudeDegrees>-0.84615035913884639739990234375</LongitudeDegrees>
            </Position>
            <AltitudeMeters>1071.800048828125</AltitudeMeters>
            <DistanceMeters>635586.25523565</DistanceMeters>
          </Trackpoint>
          <Trackpoint>
            <Time>2021-08-04T14:29:31.000Z</Time>
            <Position>
              <LatitudeDegrees>40.8558601699769496917724609375</LatitudeDegrees>
              <LongitudeDegrees>-0.8461160771548748016357421875</LongitudeDegrees>
            </Position>
            <AltitudeMeters>1070.5999755859375</AltitudeMeters>
            <DistanceMeters>635597.08619697</DistanceMeters>
          </Trackpoint>
          <Trackpoint>
            <Time>2021-08-04T14:29:32.000Z</Time>
            <Position>
              <LatitudeDegrees>40.855815745890140533447265625</LatitudeDegrees>
              <LongitudeDegrees>-0.84609839133918285369873046875</LongitudeDegrees>
            </Position>
            <AltitudeMeters>1069.5999755859375</AltitudeMeters>
            <DistanceMeters>635602.24921795</DistanceMeters>
          </Trackpoint>
          <Trackpoint>
            <Time>2021-08-04T14:29:33.000Z</Time>
            <Position>
              <LatitudeDegrees>40.855772495269775390625</LatitudeDegrees>
              <LongitudeDegrees>-0.84608330391347408294677734375</LongitudeDegrees>
            </Position>
            <AltitudeMeters>1069</AltitudeMeters>
            <DistanceMeters>635607.22702166</DistanceMeters>
          </Trackpoint>
          <Trackpoint>
            <Time>2021-08-04T14:29:34.000Z</Time>
            <Position>
              <LatitudeDegrees>40.85572698153555393218994140625</LatitudeDegrees>
              <LongitudeDegrees>-0.84607207216322422027587890625</LongitudeDegrees>
            </Position>
            <AltitudeMeters>1068.199951171875</AltitudeMeters>
            <DistanceMeters>635612.37953801</DistanceMeters>
          </Trackpoint>
          <Trackpoint>
            <Time>2021-08-04T14:29:36.000Z</Time>
            <Position>
              <LatitudeDegrees>40.85562874563038349151611328125</LatitudeDegrees>
              <LongitudeDegrees>-0.84605924785137176513671875</LongitudeDegrees>
            </Position>
            <AltitudeMeters>1066.800048828125</AltitudeMeters>
            <DistanceMeters>635623.36653313</DistanceMeters>
          </Trackpoint>
          <Trackpoint>
            <Time>2021-08-04T14:29:38.000Z</Time>
            <Position>
              <LatitudeDegrees>40.855522044003009796142578125</LatitudeDegrees>
              <LongitudeDegrees>-0.84605882875621318817138671875</LongitudeDegrees>
            </Position>
            <AltitudeMeters>1065.5999755859375</AltitudeMeters>
            <DistanceMeters>635635.24259157</DistanceMeters>
          </Trackpoint>
          <Trackpoint>
            <Time>2021-08-04T14:29:40.000Z</Time>
            <Position>
              <LatitudeDegrees>40.85540612228214740753173828125</LatitudeDegrees>
              <LongitudeDegrees>-0.8460661210119724273681640625</LongitudeDegrees>
            </Position>
            <AltitudeMeters>1064.4000244140625</AltitudeMeters>
            <DistanceMeters>635648.15993466</DistanceMeters>
          </Trackpoint>
          <Trackpoint>
            <Time>2021-08-04T14:29:41.000Z</Time>
            <Position>
              <LatitudeDegrees>40.85534803569316864013671875</LatitudeDegrees>
              <LongitudeDegrees>-0.8460694737732410430908203125</LongitudeDegrees>
            </Position>
            <AltitudeMeters>1063.199951171875</AltitudeMeters>
            <DistanceMeters>635654.63152601</DistanceMeters>
          </Trackpoint>
          <Trackpoint>
            <Time>2021-08-04T14:29:43.000Z</Time>
            <Position>
              <LatitudeDegrees>40.8552288450300693511962890625</LatitudeDegrees>
              <LongitudeDegrees>-0.8460758440196514129638671875</LongitudeDegrees>
            </Position>
            <AltitudeMeters>1061.5999755859375</AltitudeMeters>
            <DistanceMeters>635667.9087679</DistanceMeters>
          </Trackpoint>
          <Trackpoint>
            <Time>2021-08-04T14:29:46.000Z</Time>
            <Position>
              <LatitudeDegrees>40.8550335466861724853515625</LatitudeDegrees>
              <LongitudeDegrees>-0.84610174410045146942138671875</LongitudeDegrees>
            </Position>
            <AltitudeMeters>1060</AltitudeMeters>
            <DistanceMeters>635689.75499413</DistanceMeters>
          </Trackpoint>
          <Trackpoint>
            <Time>2021-08-04T14:29:47.000Z</Time>
            <Position>
              <LatitudeDegrees>40.854962803423404693603515625</LatitudeDegrees>
              <LongitudeDegrees>-0.8461227826774120330810546875</LongitudeDegrees>
            </Position>
            <AltitudeMeters>1058.199951171875</AltitudeMeters>
            <DistanceMeters>635697.82611372</DistanceMeters>
          </Trackpoint>
          <Trackpoint>
            <Time>2021-08-04T14:29:48.000Z</Time>
            <Position>
              <LatitudeDegrees>40.854890383780002593994140625</LatitudeDegrees>
              <LongitudeDegrees>-0.84615455009043216705322265625</LongitudeDegrees>
            </Position>
            <AltitudeMeters>1057</AltitudeMeters>
            <DistanceMeters>635706.31918446</DistanceMeters>
          </Trackpoint>
          <Trackpoint>
            <Time>2021-08-04T14:29:50.000Z</Time>
            <Position>
              <LatitudeDegrees>40.85475250147283077239990234375</LatitudeDegrees>
              <LongitudeDegrees>-0.8462532050907611846923828125</LongitudeDegrees>
            </Position>
            <AltitudeMeters>1055.199951171875</AltitudeMeters>
            <DistanceMeters>635723.768946</DistanceMeters>
          </Trackpoint>
          <Trackpoint>
            <Time>2021-08-04T14:29:52.000Z</Time>
            <Position>
              <LatitudeDegrees>40.8546370826661586761474609375</LatitudeDegrees>
              <LongitudeDegrees>-0.846378766000270843505859375</LongitudeDegrees>
            </Position>
            <AltitudeMeters>1054.5999755859375</AltitudeMeters>
            <DistanceMeters>635740.40486445</DistanceMeters>
          </Trackpoint>
          <Trackpoint>
            <Time>2021-08-04T14:29:55.000Z</Time>
            <Position>
              <LatitudeDegrees>40.85447631776332855224609375</LatitudeDegrees>
              <LongitudeDegrees>-0.846545733511447906494140625</LongitudeDegrees>
            </Position>
            <AltitudeMeters>1055</AltitudeMeters>
            <DistanceMeters>635763.15895118</DistanceMeters>
          </Trackpoint>
          <Trackpoint>
            <Time>2021-08-04T14:30:00.000Z</Time>
            <Position>
              <LatitudeDegrees>40.85411581210792064666748046875</LatitudeDegrees>
              <LongitudeDegrees>-0.8466987870633602142333984375</LongitudeDegrees>
            </Position>
            <AltitudeMeters>1053.5999755859375</AltitudeMeters>
            <DistanceMeters>635805.30198661</DistanceMeters>
          </Trackpoint>
          <Trackpoint>
            <Time>2021-08-04T14:30:02.000Z</Time>
            <Position>
              <LatitudeDegrees>40.8539392054080963134765625</LatitudeDegrees>
              <LongitudeDegrees>-0.84673658944666385650634765625</LongitudeDegrees>
            </Position>
            <AltitudeMeters>1052.199951171875</AltitudeMeters>
            <DistanceMeters>635825.21456195</DistanceMeters>
          </Trackpoint>
          <Trackpoint>
            <Time>2021-08-04T14:30:04.000Z</Time>
            <Position>
              <LatitudeDegrees>40.85374566726386547088623046875</LatitudeDegrees>
              <LongitudeDegrees>-0.8467532694339752197265625</LongitudeDegrees>
            </Position>
            <AltitudeMeters>1050.4000244140625</AltitudeMeters>
            <DistanceMeters>635846.80152781</DistanceMeters>
          </Trackpoint>
          <Trackpoint>
            <Time>2021-08-04T14:30:05.000Z</Time>
            <Position>
              <LatitudeDegrees>40.85364458151161670684814453125</LatitudeDegrees>
              <LongitudeDegrees>-0.84676240570843219757080078125</LongitudeDegrees>
            </Position>
            <AltitudeMeters>1048.5999755859375</AltitudeMeters>
            <DistanceMeters>635858.07932133</DistanceMeters>
          </Trackpoint>
          <Trackpoint>
            <Time>2021-08-04T14:30:06.000Z</Time>
            <Position>
              <LatitudeDegrees>40.8535434119403362274169921875</LatitudeDegrees>
              <LongitudeDegrees>-0.84677531383931636810302734375</LongitudeDegrees>
            </Position>
            <AltitudeMeters>1047.5999755859375</AltitudeMeters>
            <DistanceMeters>635869.39189148</DistanceMeters>
          </Trackpoint>
          <Trackpoint>
            <Time>2021-08-04T14:30:08.000Z</Time>
            <Position>
              <LatitudeDegrees>40.85334836505353450775146484375</LatitudeDegrees>
              <LongitudeDegrees>-0.84681035019457340240478515625</LongitudeDegrees>
            </Position>
            <AltitudeMeters>1046.4000244140625</AltitudeMeters>
            <DistanceMeters>635891.30044422</DistanceMeters>
          </Trackpoint>
          <Trackpoint>
            <Time>2021-08-04T14:30:14.000Z</Time>
            <Position>
              <LatitudeDegrees>40.85284151136875152587890625</LatitudeDegrees>
              <LongitudeDegrees>-0.84690816700458526611328125</LongitudeDegrees>
            </Position>
            <AltitudeMeters>1045.4000244140625</AltitudeMeters>
            <DistanceMeters>635948.31219648</DistanceMeters>
          </Trackpoint>
          <Trackpoint>
            <Time>2021-08-04T14:30:15.000Z</Time>
            <Position>
              <LatitudeDegrees>40.852757357060909271240234375</LatitudeDegrees>
              <LongitudeDegrees>-0.84692166186869144439697265625</LongitudeDegrees>
            </Position>
            <AltitudeMeters>1044.4000244140625</AltitudeMeters>
            <DistanceMeters>635957.74763625</DistanceMeters>
          </Trackpoint>
          <Trackpoint>
            <Time>2021-08-04T14:30:16.000Z</Time>
            <Position>
              <LatitudeDegrees>40.85267412476241588592529296875</LatitudeDegrees>
              <LongitudeDegrees>-0.84693624638020992279052734375</LongitudeDegrees>
            </Position>
            <AltitudeMeters>1043.4000244140625</AltitudeMeters>
            <DistanceMeters>635967.09219826</DistanceMeters>
          </Trackpoint>
          <Trackpoint>
            <Time>2021-08-04T14:30:17.000Z</Time>
            <Position>
              <LatitudeDegrees>40.85258963517844676971435546875</LatitudeDegrees>
              <LongitudeDegrees>-0.84695233963429927825927734375</LongitudeDegrees>
            </Position>
            <AltitudeMeters>1043</AltitudeMeters>
            <DistanceMeters>635976.59296898</DistanceMeters>
          </Trackpoint>
          <Trackpoint>
            <Time>2021-08-04T14:30:24.000Z</Time>
            <Position>
              <LatitudeDegrees>40.8520321547985076904296875</LatitudeDegrees>
              <LongitudeDegrees>-0.8471306227147579193115234375</LongitudeDegrees>
            </Position>
            <AltitudeMeters>1043.199951171875</AltitudeMeters>
            <DistanceMeters>636040.43126218</DistanceMeters>
          </Trackpoint>
          <Trackpoint>
            <Time>2021-08-04T14:30:27.000Z</Time>
            <Position>
              <LatitudeDegrees>40.85185588337481021881103515625</LatitudeDegrees>
              <LongitudeDegrees>-0.84721100516617298126220703125</LongitudeDegrees>
            </Position>
            <AltitudeMeters>1044.4000244140625</AltitudeMeters>
            <DistanceMeters>636061.18497477</DistanceMeters>
          </Trackpoint>
          <Trackpoint>
            <Time>2021-08-04T14:30:31.000Z</Time>
            <Position>
              <LatitudeDegrees>40.8516655303537845611572265625</LatitudeDegrees>
              <LongitudeDegrees>-0.84729935042560100555419921875</LongitudeDegrees>
            </Position>
            <AltitudeMeters>1045.4000244140625</AltitudeMeters>
            <DistanceMeters>636083.63944756</DistanceMeters>
          </Trackpoint>
          <Trackpoint>
            <Time>2021-08-04T14:30:34.000Z</Time>
            <Position>
              <LatitudeDegrees>40.8515387959778308868408203125</LatitudeDegrees>
              <LongitudeDegrees>-0.84732030518352985382080078125</LongitudeDegrees>
            </Position>
            <AltitudeMeters>1046.4000244140625</AltitudeMeters>
            <DistanceMeters>636097.85507561</DistanceMeters>
          </Trackpoint>
          <Trackpoint>
            <Time>2021-08-04T14:30:35.000Z</Time>
            <Position>
              <LatitudeDegrees>40.85149948485195636749267578125</LatitudeDegrees>
              <LongitudeDegrees>-0.84731519222259521484375</LongitudeDegrees>
            </Position>
            <AltitudeMeters>1046.4000244140625</AltitudeMeters>
            <DistanceMeters>636102.25307785</DistanceMeters>
          </Trackpoint>
          <Trackpoint>
            <Time>2021-08-04T14:30:39.000Z</Time>
            <Position>
              <LatitudeDegrees>40.85134374909102916717529296875</LatitudeDegrees>
              <LongitudeDegrees>-0.8472483046352863311767578125</LongitudeDegrees>
            </Position>
            <AltitudeMeters>1046.5999755859375</AltitudeMeters>
            <DistanceMeters>636120.47839903</DistanceMeters>
          </Trackpoint>
          <Trackpoint>
            <Time>2021-08-04T14:30:43.000Z</Time>
            <Position>
              <LatitudeDegrees>40.851195640861988067626953125</LatitudeDegrees>
              <LongitudeDegrees>-0.847165323793888092041015625</LongitudeDegrees>
            </Position>
            <AltitudeMeters>1047.5999755859375</AltitudeMeters>
            <DistanceMeters>636138.38229954</DistanceMeters>
          </Trackpoint>
          <Trackpoint>
            <Time>2021-08-04T14:30:53.000Z</Time>
            <Position>
              <LatitudeDegrees>40.8508058823645114898681640625</LatitudeDegrees>
              <LongitudeDegrees>-0.847060382366180419921875</LongitudeDegrees>
            </Position>
            <AltitudeMeters>1046.5999755859375</AltitudeMeters>
            <DistanceMeters>636182.65373539</DistanceMeters>
          </Trackpoint>
          <Trackpoint>
            <Time>2021-08-04T14:30:55.000Z</Time>
            <Position>
              <LatitudeDegrees>40.85070923902094364166259765625</LatitudeDegrees>
              <LongitudeDegrees>-0.84706432186067104339599609375</LongitudeDegrees>
            </Position>
            <AltitudeMeters>1045.4000244140625</AltitudeMeters>
            <DistanceMeters>636193.41485523</DistanceMeters>
          </Trackpoint>
          <Trackpoint>
            <Time>2021-08-04T14:30:57.000Z</Time>
            <Position>
              <LatitudeDegrees>40.850598514080047607421875</LatitudeDegrees>
              <LongitudeDegrees>-0.84707974456250667572021484375</LongitudeDegrees>
            </Position>
            <AltitudeMeters>1043.800048828125</AltitudeMeters>
            <DistanceMeters>636205.8070092</DistanceMeters>
          </Trackpoint>
          <Trackpoint>
            <Time>2021-08-04T14:30:59.000Z</Time>
            <Position>
              <LatitudeDegrees>40.85047504864633083343505859375</LatitudeDegrees>
              <LongitudeDegrees>-0.84711310453712940216064453125</LongitudeDegrees>
            </Position>
            <AltitudeMeters>1042.199951171875</AltitudeMeters>
            <DistanceMeters>636219.8333514</DistanceMeters>
          </Trackpoint>
          <Trackpoint>
            <Time>2021-08-04T14:31:02.000Z</Time>
            <Position>
              <LatitudeDegrees>40.85027304477989673614501953125</LatitudeDegrees>
              <LongitudeDegrees>-0.847195498645305633544921875</LongitudeDegrees>
            </Position>
            <AltitudeMeters>1041</AltitudeMeters>
            <DistanceMeters>636243.36239572</DistanceMeters>
          </Trackpoint>
          <Trackpoint>
            <Time>2021-08-04T14:31:10.000Z</Time>
            <Position>
              <LatitudeDegrees>40.8497916720807552337646484375</LatitudeDegrees>
              <LongitudeDegrees>-0.84733639843761920928955078125</LongitudeDegrees>
            </Position>
            <AltitudeMeters>1039.5999755859375</AltitudeMeters>
            <DistanceMeters>636298.23758759</DistanceMeters>
          </Trackpoint>
          <Trackpoint>
            <Time>2021-08-04T14:31:12.000Z</Time>
            <Position>
              <LatitudeDegrees>40.84966443479061126708984375</LatitudeDegrees>
              <LongitudeDegrees>-0.8473488874733448028564453125</LongitudeDegrees>
            </Position>
            <AltitudeMeters>1038.800048828125</AltitudeMeters>
            <DistanceMeters>636312.43828008</DistanceMeters>
          </Trackpoint>
          <Trackpoint>
            <Time>2021-08-04T14:31:13.000Z</Time>
            <Position>
              <LatitudeDegrees>40.84959628991782665252685546875</LatitudeDegrees>
              <LongitudeDegrees>-0.847347714006900787353515625</LongitudeDegrees>
            </Position>
            <AltitudeMeters>1038</AltitudeMeters>
            <DistanceMeters>636320.02376932</DistanceMeters>
          </Trackpoint>
          <Trackpoint>
            <Time>2021-08-04T14:31:14.000Z</Time>
            <Position>
              <LatitudeDegrees>40.84952588193118572235107421875</LatitudeDegrees>
              <LongitudeDegrees>-0.847345031797885894775390625</LongitudeDegrees>
            </Position>
            <AltitudeMeters>1036.4000244140625</AltitudeMeters>
            <DistanceMeters>636327.86390518</DistanceMeters>
          </Trackpoint>
          <Trackpoint>
            <Time>2021-08-04T14:31:15.000Z</Time>
            <Position>
              <LatitudeDegrees>40.84945580922067165374755859375</LatitudeDegrees>
              <LongitudeDegrees>-0.84734176285564899444580078125</LongitudeDegrees>
            </Position>
            <AltitudeMeters>1035</AltitudeMeters>
            <DistanceMeters>636335.66883284</DistanceMeters>
          </Trackpoint>
          <Trackpoint>
            <Time>2021-08-04T14:31:16.000Z</Time>
            <Position>
              <LatitudeDegrees>40.84939009509980678558349609375</LatitudeDegrees>
              <LongitudeDegrees>-0.8473398350179195404052734375</LongitudeDegrees>
            </Position>
            <AltitudeMeters>1033.800048828125</AltitudeMeters>
            <DistanceMeters>636342.98527276</DistanceMeters>
          </Trackpoint>
          <Trackpoint>
            <Time>2021-08-04T14:31:19.000Z</Time>
            <Position>
              <LatitudeDegrees>40.8492371253669261932373046875</LatitudeDegrees>
              <LongitudeDegrees>-0.84735433571040630340576171875</LongitudeDegrees>
            </Position>
            <AltitudeMeters>1032.5999755859375</AltitudeMeters>
            <DistanceMeters>636360.05520266</DistanceMeters>
          </Trackpoint>
          <Trackpoint>
            <Time>2021-08-04T14:31:27.000Z</Time>
            <Position>
              <LatitudeDegrees>40.848972760140895843505859375</LatitudeDegrees>
              <LongitudeDegrees>-0.847400017082691192626953125</LongitudeDegrees>
            </Position>
            <AltitudeMeters>1031.199951171875</AltitudeMeters>
            <DistanceMeters>636389.7298714</DistanceMeters>
          </Trackpoint>
          <Trackpoint>
            <Time>2021-08-04T14:31:31.000Z</Time>
            <Position>
              <LatitudeDegrees>40.84888902492821216583251953125</LatitudeDegrees>
              <LongitudeDegrees>-0.847400017082691192626953125</LongitudeDegrees>
            </Position>
            <AltitudeMeters>1030.800048828125</AltitudeMeters>
            <DistanceMeters>636399.04975902</DistanceMeters>
          </Trackpoint>
          <Trackpoint>
            <Time>2021-08-04T14:31:45.000Z</Time>
            <Position>
              <LatitudeDegrees>40.848817862570285797119140625</LatitudeDegrees>
              <LongitudeDegrees>-0.84744133986532688140869140625</LongitudeDegrees>
            </Position>
            <AltitudeMeters>1030.800048828125</AltitudeMeters>
            <DistanceMeters>636407.70084413</DistanceMeters>
          </Trackpoint>
          <Trackpoint>
            <Time>2021-08-04T14:31:49.000Z</Time>
            <Position>
              <LatitudeDegrees>40.84872256033122539520263671875</LatitudeDegrees>
              <LongitudeDegrees>-0.84748341701924800872802734375</LongitudeDegrees>
            </Position>
            <AltitudeMeters>1030.199951171875</AltitudeMeters>
            <DistanceMeters>636418.88416022</DistanceMeters>
          </Trackpoint>
          <Trackpoint>
            <Time>2021-08-04T14:32:03.000Z</Time>
            <Position>
              <LatitudeDegrees>40.84834587760269641876220703125</LatitudeDegrees>
              <LongitudeDegrees>-0.8476446010172367095947265625</LongitudeDegrees>
            </Position>
            <AltitudeMeters>1029.199951171875</AltitudeMeters>
            <DistanceMeters>636462.95125576</DistanceMeters>
          </Trackpoint>
          <Trackpoint>
            <Time>2021-08-04T14:32:07.000Z</Time>
            <Position>
              <LatitudeDegrees>40.84825401194393634796142578125</LatitudeDegrees>
              <LongitudeDegrees>-0.84766362793743610382080078125</LongitudeDegrees>
            </Position>
            <AltitudeMeters>1028</AltitudeMeters>
            <DistanceMeters>636473.30088216</DistanceMeters>
          </Trackpoint>
          <Trackpoint>
            <Time>2021-08-04T14:32:13.000Z</Time>
            <Position>
              <LatitudeDegrees>40.8481002040207386016845703125</LatitudeDegrees>
              <LongitudeDegrees>-0.84770637564361095428466796875</LongitudeDegrees>
            </Position>
            <AltitudeMeters>1027</AltitudeMeters>
            <DistanceMeters>636490.79405885</DistanceMeters>
          </Trackpoint>
          <Trackpoint>
            <Time>2021-08-04T14:32:17.000Z</Time>
            <Position>
              <LatitudeDegrees>40.8479768224060535430908203125</LatitudeDegrees>
              <LongitudeDegrees>-0.8476875163614749908447265625</LongitudeDegrees>
            </Position>
            <AltitudeMeters>1025.800048828125</AltitudeMeters>
            <DistanceMeters>636504.61840469</DistanceMeters>
          </Trackpoint>
          <Trackpoint>
            <Time>2021-08-04T14:32:24.000Z</Time>
            <Position>
              <LatitudeDegrees>40.84778127260506153106689453125</LatitudeDegrees>
              <LongitudeDegrees>-0.8475912921130657196044921875</LongitudeDegrees>
            </Position>
            <AltitudeMeters>1024.5999755859375</AltitudeMeters>
            <DistanceMeters>636527.84228046</DistanceMeters>
          </Trackpoint>
          <Trackpoint>
            <Time>2021-08-04T14:32:28.000Z</Time>
            <Position>
              <LatitudeDegrees>40.84767733700573444366455078125</LatitudeDegrees>
              <LongitudeDegrees>-0.84752012975513935089111328125</LongitudeDegrees>
            </Position>
            <AltitudeMeters>1023.4000244140625</AltitudeMeters>
            <DistanceMeters>636540.86995434</DistanceMeters>
          </Trackpoint>
          <Trackpoint>
            <Time>2021-08-04T14:32:31.000Z</Time>
            <Position>
              <LatitudeDegrees>40.84754892624914646148681640625</LatitudeDegrees>
              <LongitudeDegrees>-0.84742340259253978729248046875</LongitudeDegrees>
            </Position>
            <AltitudeMeters>1022.4000244140625</AltitudeMeters>
            <DistanceMeters>636557.3197346</DistanceMeters>
          </Trackpoint>
          <Trackpoint>
            <Time>2021-08-04T14:32:33.000Z</Time>
            <Position>
              <LatitudeDegrees>40.8474387042224407196044921875</LatitudeDegrees>
              <LongitudeDegrees>-0.8473438583314418792724609375</LongitudeDegrees>
            </Position>
            <AltitudeMeters>1021.20001220703125</AltitudeMeters>
            <DistanceMeters>636571.29673978</DistanceMeters>
          </Trackpoint>
          <Trackpoint>
            <Time>2021-08-04T14:32:35.000Z</Time>
            <Position>
              <LatitudeDegrees>40.84732378832995891571044921875</LatitudeDegrees>
              <LongitudeDegrees>-0.84727588109672069549560546875</LongitudeDegrees>
            </Position>
            <AltitudeMeters>1019.5999755859375</AltitudeMeters>
            <DistanceMeters>636585.30923357</DistanceMeters>
          </Trackpoint>
          <Trackpoint>
            <Time>2021-08-04T14:32:37.000Z</Time>
            <Position>
              <LatitudeDegrees>40.84721297957003116607666015625</LatitudeDegrees>
              <LongitudeDegrees>-0.84722693078219890594482421875</LongitudeDegrees>
            </Position>
            <AltitudeMeters>1018.20001220703125</AltitudeMeters>
            <DistanceMeters>636598.31297194</DistanceMeters>
          </Trackpoint>
          <Trackpoint>
            <Time>2021-08-04T14:32:39.000Z</Time>
            <Position>
              <LatitudeDegrees>40.847091190516948699951171875</LatitudeDegrees>
              <LongitudeDegrees>-0.84719474427402019500732421875</LongitudeDegrees>
            </Position>
            <AltitudeMeters>1016.79998779296875</AltitudeMeters>
            <DistanceMeters>636612.13633794</DistanceMeters>
          </Trackpoint>
          <Trackpoint>
            <Time>2021-08-04T14:32:40.000Z</Time>
            <Position>
              <LatitudeDegrees>40.84702514111995697021484375</LatitudeDegrees>
              <LongitudeDegrees>-0.847182758152484893798828125</LongitudeDegrees>
            </Position>
            <AltitudeMeters>1015.5999755859375</AltitudeMeters>
            <DistanceMeters>636619.5569448</DistanceMeters>
          </Trackpoint>
          <Trackpoint>
            <Time>2021-08-04T14:32:41.000Z</Time>
            <Position>
              <LatitudeDegrees>40.84695582278072834014892578125</LatitudeDegrees>
              <LongitudeDegrees>-0.84717026911675930023193359375</LongitudeDegrees>
            </Position>
            <AltitudeMeters>1014.4000244140625</AltitudeMeters>
            <DistanceMeters>636627.34333891</DistanceMeters>
          </Trackpoint>
          <Trackpoint>
            <Time>2021-08-04T14:32:42.000Z</Time>
            <Position>
              <LatitudeDegrees>40.846885330975055694580078125</LatitudeDegrees>
              <LongitudeDegrees>-0.84715853445231914520263671875</LongitudeDegrees>
            </Position>
            <AltitudeMeters>1013.20001220703125</AltitudeMeters>
            <DistanceMeters>636635.25170849</DistanceMeters>
          </Trackpoint>
          <Trackpoint>
            <Time>2021-08-04T14:32:44.000Z</Time>
            <Position>
              <LatitudeDegrees>40.84674946032464504241943359375</LatitudeDegrees>
              <LongitudeDegrees>-0.84713338874280452728271484375</LongitudeDegrees>
            </Position>
            <AltitudeMeters>1012</AltitudeMeters>
            <DistanceMeters>636650.52176527</DistanceMeters>
          </Trackpoint>
          <Trackpoint>
            <Time>2021-08-04T14:32:49.000Z</Time>
            <Position>
              <LatitudeDegrees>40.8464737795293331146240234375</LatitudeDegrees>
              <LongitudeDegrees>-0.8470233343541622161865234375</LongitudeDegrees>
            </Position>
            <AltitudeMeters>1011</AltitudeMeters>
            <DistanceMeters>636682.57423518</DistanceMeters>
          </Trackpoint>
          <Trackpoint>
            <Time>2021-08-04T14:32:52.000Z</Time>
            <Position>
              <LatitudeDegrees>40.846326760947704315185546875</LatitudeDegrees>
              <LongitudeDegrees>-0.84695485420525074005126953125</LongitudeDegrees>
            </Position>
            <AltitudeMeters>1010</AltitudeMeters>
            <DistanceMeters>636699.92383368</DistanceMeters>
          </Trackpoint>
          <Trackpoint>
            <Time>2021-08-04T14:32:57.000Z</Time>
            <Position>
              <LatitudeDegrees>40.8460808359086513519287109375</LatitudeDegrees>
              <LongitudeDegrees>-0.846852846443653106689453125</LongitudeDegrees>
            </Position>
            <AltitudeMeters>1009</AltitudeMeters>
            <DistanceMeters>636728.61151582</DistanceMeters>
          </Trackpoint>
          <Trackpoint>
            <Time>2021-08-04T14:33:02.000Z</Time>
            <Position>
              <LatitudeDegrees>40.84586097858846187591552734375</LatitudeDegrees>
              <LongitudeDegrees>-0.8467252738773822784423828125</LongitudeDegrees>
            </Position>
            <AltitudeMeters>1007.79998779296875</AltitudeMeters>
            <DistanceMeters>636755.33582584</DistanceMeters>
          </Trackpoint>
          <Trackpoint>
            <Time>2021-08-04T14:33:05.000Z</Time>
            <Position>
              <LatitudeDegrees>40.8457401953637599945068359375</LatitudeDegrees>
              <LongitudeDegrees>-0.84663701243698596954345703125</LongitudeDegrees>
            </Position>
            <AltitudeMeters>1006</AltitudeMeters>
            <DistanceMeters>636770.69668186</DistanceMeters>
          </Trackpoint>
          <Trackpoint>
            <Time>2021-08-04T14:33:08.000Z</Time>
            <Position>
              <LatitudeDegrees>40.8456131257116794586181640625</LatitudeDegrees>
              <LongitudeDegrees>-0.8465519361197948455810546875</LongitudeDegrees>
            </Position>
            <AltitudeMeters>1004.4000244140625</AltitudeMeters>
            <DistanceMeters>636786.55020253</DistanceMeters>
          </Trackpoint>
          <Trackpoint>
            <Time>2021-08-04T14:33:10.000Z</Time>
            <Position>
              <LatitudeDegrees>40.84552905522286891937255859375</LatitudeDegrees>
              <LongitudeDegrees>-0.84650072269141674041748046875</LongitudeDegrees>
            </Position>
            <AltitudeMeters>1003.20001220703125</AltitudeMeters>
            <DistanceMeters>636796.85260606</DistanceMeters>
          </Trackpoint>
          <Trackpoint>
            <Time>2021-08-04T14:33:13.000Z</Time>
            <Position>
              <LatitudeDegrees>40.84540911018848419189453125</LatitudeDegrees>
              <LongitudeDegrees>-0.84643207490444183349609375</LongitudeDegrees>
            </Position>
            <AltitudeMeters>1002</AltitudeMeters>
            <DistanceMeters>636811.40038601</DistanceMeters>
          </Trackpoint>
          <Trackpoint>
            <Time>2021-08-04T14:33:16.000Z</Time>
            <Position>
              <LatitudeDegrees>40.84529654122889041900634765625</LatitudeDegrees>
              <LongitudeDegrees>-0.846364684402942657470703125</LongitudeDegrees>
            </Position>
            <AltitudeMeters>1000.5999755859375</AltitudeMeters>
            <DistanceMeters>636825.15400522</DistanceMeters>
          </Trackpoint>
          <Trackpoint>
            <Time>2021-08-04T14:33:18.000Z</Time>
            <Position>
              <LatitudeDegrees>40.84522076882421970367431640625</LatitudeDegrees>
              <LongitudeDegrees>-0.84632067941129207611083984375</LongitudeDegrees>
            </Position>
            <AltitudeMeters>999.4000244140625</AltitudeMeters>
            <DistanceMeters>636834.3657167</DistanceMeters>
          </Trackpoint>
          <Trackpoint>
            <Time>2021-08-04T14:33:21.000Z</Time>
            <Position>
              <LatitudeDegrees>40.84509755484759807586669921875</LatitudeDegrees>
              <LongitudeDegrees>-0.8462431468069553375244140625</LongitudeDegrees>
            </Position>
            <AltitudeMeters>998.20001220703125</AltitudeMeters>
            <DistanceMeters>636849.55424404</DistanceMeters>
          </Trackpoint>
          <Trackpoint>
            <Time>2021-08-04T14:33:23.000Z</Time>
            <Position>
              <LatitudeDegrees>40.84500786848366260528564453125</LatitudeDegrees>
              <LongitudeDegrees>-0.84617952816188335418701171875</LongitudeDegrees>
            </Position>
            <AltitudeMeters>996.79998779296875</AltitudeMeters>
            <DistanceMeters>636860.88276762</DistanceMeters>
          </Trackpoint>
          <Trackpoint>
            <Time>2021-08-04T14:33:25.000Z</Time>
            <Position>
              <LatitudeDegrees>40.8449080400168895721435546875</LatitudeDegrees>
              <LongitudeDegrees>-0.84610191173851490020751953125</LongitudeDegrees>
            </Position>
            <AltitudeMeters>995.79998779296875</AltitudeMeters>
            <DistanceMeters>636873.7728183</DistanceMeters>
          </Trackpoint>
          <Trackpoint>
            <Time>2021-08-04T14:33:27.000Z</Time>
            <Position>
              <LatitudeDegrees>40.8448094688355922698974609375</LatitudeDegrees>
              <LongitudeDegrees>-0.84602060727775096893310546875</LongitudeDegrees>
            </Position>
            <AltitudeMeters>994.4000244140625</AltitudeMeters>
            <DistanceMeters>636886.70448431</DistanceMeters>
          </Trackpoint>
          <Trackpoint>
            <Time>2021-08-04T14:33:29.000Z</Time>
            <Position>
              <LatitudeDegrees>40.844710059463977813720703125</LatitudeDegrees>
              <LongitudeDegrees>-0.84595405496656894683837890625</LongitudeDegrees>
            </Position>
            <AltitudeMeters>993.20001220703125</AltitudeMeters>
            <DistanceMeters>636899.10683578</DistanceMeters>
          </Trackpoint>
          <Trackpoint>
            <Time>2021-08-04T14:33:31.000Z</Time>
            <Position>
              <LatitudeDegrees>40.8446056209504604339599609375</LatitudeDegrees>
              <LongitudeDegrees>-0.84589504636824131011962890625</LongitudeDegrees>
            </Position>
            <AltitudeMeters>991.5999755859375</AltitudeMeters>
            <DistanceMeters>636911.74860358</DistanceMeters>
          </Trackpoint>
          <Trackpoint>
            <Time>2021-08-04T14:33:32.000Z</Time>
            <Position>
              <LatitudeDegrees>40.84455524571239948272705078125</LatitudeDegrees>
              <LongitudeDegrees>-0.84585900418460369110107421875</LongitudeDegrees>
            </Position>
            <AltitudeMeters>991</AltitudeMeters>
            <DistanceMeters>636918.12460578</DistanceMeters>
          </Trackpoint>
          <Trackpoint>
            <Time>2021-08-04T14:33:33.000Z</Time>
            <Position>
              <LatitudeDegrees>40.84451031871140003204345703125</LatitudeDegrees>
              <LongitudeDegrees>-0.845814831554889678955078125</LongitudeDegrees>
            </Position>
            <AltitudeMeters>990.20001220703125</AltitudeMeters>
            <DistanceMeters>636924.35664869</DistanceMeters>
          </Trackpoint>
          <Trackpoint>
            <Time>2021-08-04T14:33:36.000Z</Time>
            <Position>
              <LatitudeDegrees>40.84440235979855060577392578125</LatitudeDegrees>
              <LongitudeDegrees>-0.84566186182200908660888671875</LongitudeDegrees>
            </Position>
            <AltitudeMeters>988.5999755859375</AltitudeMeters>
            <DistanceMeters>636941.97122863</DistanceMeters>
          </Trackpoint>
          <Trackpoint>
            <Time>2021-08-04T14:33:37.000Z</Time>
            <Position>
              <LatitudeDegrees>40.84436195902526378631591796875</LatitudeDegrees>
              <LongitudeDegrees>-0.84561274386942386627197265625</LongitudeDegrees>
            </Position>
            <AltitudeMeters>988.20001220703125</AltitudeMeters>
            <DistanceMeters>636948.08034526</DistanceMeters>
          </Trackpoint>
          <Trackpoint>
            <Time>2021-08-04T14:33:41.000Z</Time>
            <Position>
              <LatitudeDegrees>40.84416531957685947418212890625</LatitudeDegrees>
              <LongitudeDegrees>-0.8455135859549045562744140625</LongitudeDegrees>
            </Position>
            <AltitudeMeters>987.20001220703125</AltitudeMeters>
            <DistanceMeters>636971.50515316</DistanceMeters>
          </Trackpoint>
          <Trackpoint>
            <Time>2021-08-04T14:33:43.000Z</Time>
            <Position>
              <LatitudeDegrees>40.84407529793679714202880859375</LatitudeDegrees>
              <LongitudeDegrees>-0.84545097313821315765380859375</LongitudeDegrees>
            </Position>
            <AltitudeMeters>985.79998779296875</AltitudeMeters>
            <DistanceMeters>636982.82729806</DistanceMeters>
          </Trackpoint>
          <Trackpoint>
            <Time>2021-08-04T14:33:45.000Z</Time>
            <Position>
              <LatitudeDegrees>40.84400505758821964263916015625</LatitudeDegrees>
              <LongitudeDegrees>-0.8453452773392200469970703125</LongitudeDegrees>
            </Position>
            <AltitudeMeters>984.20001220703125</AltitudeMeters>
            <DistanceMeters>636994.67328422</DistanceMeters>
          </Trackpoint>
          <Trackpoint>
            <Time>2021-08-04T14:33:48.000Z</Time>
            <Position>
              <LatitudeDegrees>40.8439528383314609527587890625</LatitudeDegrees>
              <LongitudeDegrees>-0.845156013965606689453125</LongitudeDegrees>
            </Position>
            <AltitudeMeters>982.79998779296875</AltitudeMeters>
            <DistanceMeters>637011.63601854</DistanceMeters>
          </Trackpoint>
          <Trackpoint>
            <Time>2021-08-04T14:33:49.000Z</Time>
            <Position>
              <LatitudeDegrees>40.84393481723964214324951171875</LatitudeDegrees>
              <LongitudeDegrees>-0.84509189240634441375732421875</LongitudeDegrees>
            </Position>
            <AltitudeMeters>982.20001220703125</AltitudeMeters>
            <DistanceMeters>637017.3951392</DistanceMeters>
          </Trackpoint>
          <Trackpoint>
            <Time>2021-08-04T14:33:51.000Z</Time>
            <Position>
              <LatitudeDegrees>40.8438943326473236083984375</LatitudeDegrees>
              <LongitudeDegrees>-0.84495577029883861541748046875</LongitudeDegrees>
            </Position>
            <AltitudeMeters>981.5999755859375</AltitudeMeters>
            <DistanceMeters>637029.7101761</DistanceMeters>
          </Trackpoint>
          <Trackpoint>
            <Time>2021-08-04T14:33:54.000Z</Time>
            <Position>
              <LatitudeDegrees>40.84382501430809497833251953125</LatitudeDegrees>
              <LongitudeDegrees>-0.8447521738708019256591796875</LongitudeDegrees>
            </Position>
            <AltitudeMeters>980.5999755859375</AltitudeMeters>
            <DistanceMeters>637048.50914075</DistanceMeters>
          </Trackpoint>
          <Trackpoint>
            <Time>2021-08-04T14:33:55.000Z</Time>
            <Position>
              <LatitudeDegrees>40.84379835985600948333740234375</LatitudeDegrees>
              <LongitudeDegrees>-0.84468335844576358795166015625</LongitudeDegrees>
            </Position>
            <AltitudeMeters>980.20001220703125</AltitudeMeters>
            <DistanceMeters>637055.01899088</DistanceMeters>
          </Trackpoint>
          <Trackpoint>
            <Time>2021-08-04T14:33:57.000Z</Time>
            <Position>
              <LatitudeDegrees>40.8437261916697025299072265625</LatitudeDegrees>
              <LongitudeDegrees>-0.844570957124233245849609375</LongitudeDegrees>
            </Position>
            <AltitudeMeters>979.20001220703125</AltitudeMeters>
            <DistanceMeters>637067.43225896</DistanceMeters>
          </Trackpoint>
          <Trackpoint>
            <Time>2021-08-04T14:34:01.000Z</Time>
            <Position>
              <LatitudeDegrees>40.84354707039892673492431640625</LatitudeDegrees>
              <LongitudeDegrees>-0.8445436321198940277099609375</LongitudeDegrees>
            </Position>
            <AltitudeMeters>978</AltitudeMeters>
            <DistanceMeters>637087.50112713</DistanceMeters>
          </Trackpoint>
          <Trackpoint>
            <Time>2021-08-04T14:34:04.000Z</Time>
            <Position>
              <LatitudeDegrees>40.84345721639692783355712890625</LatitudeDegrees>
              <LongitudeDegrees>-0.8446743898093700408935546875</LongitudeDegrees>
            </Position>
            <AltitudeMeters>977.4000244140625</AltitudeMeters>
            <DistanceMeters>637102.37516064</DistanceMeters>
          </Trackpoint>
          <Trackpoint>
            <Time>2021-08-04T14:34:05.000Z</Time>
            <Position>
              <LatitudeDegrees>40.843427963554859161376953125</LatitudeDegrees>
              <LongitudeDegrees>-0.84471873007714748382568359375</LongitudeDegrees>
            </Position>
            <AltitudeMeters>977</AltitudeMeters>
            <DistanceMeters>637107.32750227</DistanceMeters>
          </Trackpoint>
          <Trackpoint>
            <Time>2021-08-04T14:34:06.000Z</Time>
            <Position>
              <LatitudeDegrees>40.84339166991412639617919921875</LatitudeDegrees>
              <LongitudeDegrees>-0.84475108422338962554931640625</LongitudeDegrees>
            </Position>
            <AltitudeMeters>976.5999755859375</AltitudeMeters>
            <DistanceMeters>637112.19895389</DistanceMeters>
          </Trackpoint>
          <Trackpoint>
            <Time>2021-08-04T14:34:09.000Z</Time>
            <Position>
              <LatitudeDegrees>40.84325605072081089019775390625</LatitudeDegrees>
              <LongitudeDegrees>-0.8447732962667942047119140625</LongitudeDegrees>
            </Position>
            <AltitudeMeters>975.20001220703125</AltitudeMeters>
            <DistanceMeters>637127.4085725</DistanceMeters>
          </Trackpoint>
          <Trackpoint>
            <Time>2021-08-04T14:34:12.000Z</Time>
            <Position>
              <LatitudeDegrees>40.843151696026325225830078125</LatitudeDegrees>
              <LongitudeDegrees>-0.84467816166579723358154296875</LongitudeDegrees>
            </Position>
            <AltitudeMeters>974.4000244140625</AltitudeMeters>
            <DistanceMeters>637141.51803973</DistanceMeters>
          </Trackpoint>
          <Trackpoint>
            <Time>2021-08-04T14:34:13.000Z</Time>
            <Position>
              <LatitudeDegrees>40.8431216888129711151123046875</LatitudeDegrees>
              <LongitudeDegrees>-0.8446422033011913299560546875</LongitudeDegrees>
            </Position>
            <AltitudeMeters>974</AltitudeMeters>
            <DistanceMeters>637146.02655412</DistanceMeters>
          </Trackpoint>
          <Trackpoint>
            <Time>2021-08-04T14:34:16.000Z</Time>
            <Position>
              <LatitudeDegrees>40.8430304937064647674560546875</LatitudeDegrees>
              <LongitudeDegrees>-0.84455209784209728240966796875</LongitudeDegrees>
            </Position>
            <AltitudeMeters>972.79998779296875</AltitudeMeters>
            <DistanceMeters>637158.69864351</DistanceMeters>
          </Trackpoint>
          <Trackpoint>
            <Time>2021-08-04T14:34:23.000Z</Time>
            <Position>
              <LatitudeDegrees>40.84286511875689029693603515625</LatitudeDegrees>
              <LongitudeDegrees>-0.844414718449115753173828125</LongitudeDegrees>
            </Position>
            <AltitudeMeters>971.79998779296875</AltitudeMeters>
            <DistanceMeters>637180.43796458</DistanceMeters>
          </Trackpoint>
          <Trackpoint>
            <Time>2021-08-04T14:34:27.000Z</Time>
            <Position>
              <LatitudeDegrees>40.84275430999696254730224609375</LatitudeDegrees>
              <LongitudeDegrees>-0.84440642036497592926025390625</LongitudeDegrees>
            </Position>
            <AltitudeMeters>970.4000244140625</AltitudeMeters>
            <DistanceMeters>637192.79070646</DistanceMeters>
          </Trackpoint>
          <Trackpoint>
            <Time>2021-08-04T14:34:29.000Z</Time>
            <Position>
              <LatitudeDegrees>40.842693038284778594970703125</LatitudeDegrees>
              <LongitudeDegrees>-0.84442310035228729248046875</LongitudeDegrees>
            </Position>
            <AltitudeMeters>969.20001220703125</AltitudeMeters>
            <DistanceMeters>637199.75429106</DistanceMeters>
          </Trackpoint>
          <Trackpoint>
            <Time>2021-08-04T14:34:31.000Z</Time>
            <Position>
              <LatitudeDegrees>40.8426278270781040191650390625</LatitudeDegrees>
              <LongitudeDegrees>-0.84444447420537471771240234375</LongitudeDegrees>
            </Position>
            <AltitudeMeters>968</AltitudeMeters>
            <DistanceMeters>637207.23187311</DistanceMeters>
          </Trackpoint>
          <Trackpoint>
            <Time>2021-08-04T14:34:37.000Z</Time>
            <Position>
              <LatitudeDegrees>40.8424524776637554168701171875</LatitudeDegrees>
              <LongitudeDegrees>-0.84449124522507190704345703125</LongitudeDegrees>
            </Position>
            <AltitudeMeters>966.79998779296875</AltitudeMeters>
            <DistanceMeters>637227.14218089</DistanceMeters>
          </Trackpoint>
          <Trackpoint>
            <Time>2021-08-04T14:34:42.000Z</Time>
            <Position>
              <LatitudeDegrees>40.8423079736530780792236328125</LatitudeDegrees>
              <LongitudeDegrees>-0.844520665705204010009765625</LongitudeDegrees>
            </Position>
            <AltitudeMeters>965.5999755859375</AltitudeMeters>
            <DistanceMeters>637243.41534966</DistanceMeters>
          </Trackpoint>
          <Trackpoint>
            <Time>2021-08-04T14:34:45.000Z</Time>
            <Position>
              <LatitudeDegrees>40.842227004468441009521484375</LatitudeDegrees>
              <LongitudeDegrees>-0.844524018466472625732421875</LongitudeDegrees>
            </Position>
            <AltitudeMeters>964.5999755859375</AltitudeMeters>
            <DistanceMeters>637252.43137695</DistanceMeters>
          </Trackpoint>
          <Trackpoint>
            <Time>2021-08-04T14:34:49.000Z</Time>
            <Position>
              <LatitudeDegrees>40.8421299420297145843505859375</LatitudeDegrees>
              <LongitudeDegrees>-0.84450264461338520050048828125</LongitudeDegrees>
            </Position>
            <AltitudeMeters>963.20001220703125</AltitudeMeters>
            <DistanceMeters>637263.38338615</DistanceMeters>
          </Trackpoint>
          <Trackpoint>
            <Time>2021-08-04T14:34:52.000Z</Time>
            <Position>
              <LatitudeDegrees>40.84206230007112026214599609375</LatitudeDegrees>
              <LongitudeDegrees>-0.84448437206447124481201171875</LongitudeDegrees>
            </Position>
            <AltitudeMeters>962.20001220703125</AltitudeMeters>
            <DistanceMeters>637271.06822186</DistanceMeters>
          </Trackpoint>
          <Trackpoint>
            <Time>2021-08-04T14:34:54.000Z</Time>
            <Position>
              <LatitudeDegrees>40.842023156583309173583984375</LatitudeDegrees>
              <LongitudeDegrees>-0.84446961991488933563232421875</LongitudeDegrees>
            </Position>
            <AltitudeMeters>961.20001220703125</AltitudeMeters>
            <DistanceMeters>637275.599711</DistanceMeters>
          </Trackpoint>
          <Trackpoint>
            <Time>2021-08-04T14:34:55.000Z</Time>
            <Position>
              <LatitudeDegrees>40.84200547076761722564697265625</LatitudeDegrees>
              <LongitudeDegrees>-0.84446039982140064239501953125</LongitudeDegrees>
            </Position>
            <AltitudeMeters>961</AltitudeMeters>
            <DistanceMeters>637277.72031895</DistanceMeters>
          </Trackpoint>
          <Trackpoint>
            <Time>2021-08-04T14:34:58.000Z</Time>
            <Position>
              <LatitudeDegrees>40.841946713626384735107421875</LatitudeDegrees>
              <LongitudeDegrees>-0.8444423787295818328857421875</LongitudeDegrees>
            </Position>
            <AltitudeMeters>959.5999755859375</AltitudeMeters>
            <DistanceMeters>637284.43367217</DistanceMeters>
          </Trackpoint>
          <Trackpoint>
            <Time>2021-08-04T14:35:01.000Z</Time>
            <Position>
              <LatitudeDegrees>40.84187907166779041290283203125</LatitudeDegrees>
              <LongitudeDegrees>-0.84442737512290477752685546875</LongitudeDegrees>
            </Position>
            <AltitudeMeters>958.4000244140625</AltitudeMeters>
            <DistanceMeters>637292.06781347</DistanceMeters>
          </Trackpoint>
          <Trackpoint>
            <Time>2021-08-04T14:35:04.000Z</Time>
            <Position>
              <LatitudeDegrees>40.841798521578311920166015625</LatitudeDegrees>
              <LongitudeDegrees>-0.8444004692137241363525390625</LongitudeDegrees>
            </Position>
            <AltitudeMeters>957</AltitudeMeters>
            <DistanceMeters>637301.31523603</DistanceMeters>
          </Trackpoint>
          <Trackpoint>
            <Time>2021-08-04T14:35:06.000Z</Time>
            <Position>
              <LatitudeDegrees>40.8417432010173797607421875</LatitudeDegrees>
              <LongitudeDegrees>-0.84437255747616291046142578125</LongitudeDegrees>
            </Position>
            <AltitudeMeters>956</AltitudeMeters>
            <DistanceMeters>637307.90573432</DistanceMeters>
          </Trackpoint>
          <Trackpoint>
            <Time>2021-08-04T14:35:10.000Z</Time>
            <Position>
              <LatitudeDegrees>40.84163683466613292694091796875</LatitudeDegrees>
              <LongitudeDegrees>-0.84431044757366180419921875</LongitudeDegrees>
            </Position>
            <AltitudeMeters>954.5999755859375</AltitudeMeters>
            <DistanceMeters>637320.84856817</DistanceMeters>
          </Trackpoint>
          <Trackpoint>
            <Time>2021-08-04T14:35:12.000Z</Time>
            <Position>
              <LatitudeDegrees>40.84157497622072696685791015625</LatitudeDegrees>
              <LongitudeDegrees>-0.844279266893863677978515625</LongitudeDegrees>
            </Position>
            <AltitudeMeters>953.5999755859375</AltitudeMeters>
            <DistanceMeters>637328.21666287</DistanceMeters>
          </Trackpoint>
          <Trackpoint>
            <Time>2021-08-04T14:35:15.000Z</Time>
            <Position>
              <LatitudeDegrees>40.8414701186120510101318359375</LatitudeDegrees>
              <LongitudeDegrees>-0.8442308194935321807861328125</LongitudeDegrees>
            </Position>
            <AltitudeMeters>952</AltitudeMeters>
            <DistanceMeters>637340.57963476</DistanceMeters>
          </Trackpoint>
          <Trackpoint>
            <Time>2021-08-04T14:35:17.000Z</Time>
            <Position>
              <LatitudeDegrees>40.8413940109312534332275390625</LatitudeDegrees>
              <LongitudeDegrees>-0.8441989682614803314208984375</LongitudeDegrees>
            </Position>
            <AltitudeMeters>950.79998779296875</AltitudeMeters>
            <DistanceMeters>637349.4655218</DistanceMeters>
          </Trackpoint>
          <Trackpoint>
            <Time>2021-08-04T14:35:19.000Z</Time>
            <Position>
              <LatitudeDegrees>40.84131815470755100250244140625</LatitudeDegrees>
              <LongitudeDegrees>-0.84415613673627376556396484375</LongitudeDegrees>
            </Position>
            <AltitudeMeters>949.5999755859375</AltitudeMeters>
            <DistanceMeters>637358.64728599</DistanceMeters>
          </Trackpoint>
          <Trackpoint>
            <Time>2021-08-04T14:35:21.000Z</Time>
            <Position>
              <LatitudeDegrees>40.84124087356030941009521484375</LatitudeDegrees>
              <LongitudeDegrees>-0.8441191725432872772216796875</LongitudeDegrees>
            </Position>
            <AltitudeMeters>948.5999755859375</AltitudeMeters>
            <DistanceMeters>637367.79456364</DistanceMeters>
          </Trackpoint>
          <Trackpoint>
            <Time>2021-08-04T14:35:23.000Z</Time>
            <Position>
              <LatitudeDegrees>40.8411616645753383636474609375</LatitudeDegrees>
              <LongitudeDegrees>-0.84408304654061794281005859375</LongitudeDegrees>
            </Position>
            <AltitudeMeters>947.4000244140625</AltitudeMeters>
            <DistanceMeters>637377.12026287</DistanceMeters>
          </Trackpoint>
          <Trackpoint>
            <Time>2021-08-04T14:35:25.000Z</Time>
            <Position>
              <LatitudeDegrees>40.8410775102674961090087890625</LatitudeDegrees>
              <LongitudeDegrees>-0.84404750727117061614990234375</LongitudeDegrees>
            </Position>
            <AltitudeMeters>946</AltitudeMeters>
            <DistanceMeters>637386.95357658</DistanceMeters>
          </Trackpoint>
          <Trackpoint>
            <Time>2021-08-04T14:35:26.000Z</Time>
            <Position>
              <LatitudeDegrees>40.841033421456813812255859375</LatitudeDegrees>
              <LongitudeDegrees>-0.8440229482948780059814453125</LongitudeDegrees>
            </Position>
            <AltitudeMeters>945.79998779296875</AltitudeMeters>
            <DistanceMeters>637392.27761734</DistanceMeters>
          </Trackpoint>
          <Trackpoint>
            <Time>2021-08-04T14:35:28.000Z</Time>
            <Position>
              <LatitudeDegrees>40.8409450761973857879638671875</LatitudeDegrees>
              <LongitudeDegrees>-0.84395228885114192962646484375</LongitudeDegrees>
            </Position>
            <AltitudeMeters>944.4000244140625</AltitudeMeters>
            <DistanceMeters>637403.76995818</DistanceMeters>
          </Trackpoint>
          <Trackpoint>
            <Time>2021-08-04T14:35:30.000Z</Time>
            <Position>
              <LatitudeDegrees>40.8408612571656703948974609375</LatitudeDegrees>
              <LongitudeDegrees>-0.84385086782276630401611328125</LongitudeDegrees>
            </Position>
            <AltitudeMeters>943</AltitudeMeters>
            <DistanceMeters>637416.41779611</DistanceMeters>
          </Trackpoint>
          <Trackpoint>
            <Time>2021-08-04T14:35:31.000Z</Time>
            <Position>
              <LatitudeDegrees>40.8408230356872081756591796875</LatitudeDegrees>
              <LongitudeDegrees>-0.843793787062168121337890625</LongitudeDegrees>
            </Position>
            <AltitudeMeters>942.5999755859375</AltitudeMeters>
            <DistanceMeters>637422.83614549</DistanceMeters>
          </Trackpoint>
          <Trackpoint>
            <Time>2021-08-04T14:35:34.000Z</Time>
            <Position>
              <LatitudeDegrees>40.84072102792561054229736328125</LatitudeDegrees>
              <LongitudeDegrees>-0.84361919201910495758056640625</LongitudeDegrees>
            </Position>
            <AltitudeMeters>942</AltitudeMeters>
            <DistanceMeters>637441.41137687</DistanceMeters>
          </Trackpoint>
          <Trackpoint>
            <Time>2021-08-04T14:35:37.000Z</Time>
            <Position>
              <LatitudeDegrees>40.84063620306551456451416015625</LatitudeDegrees>
              <LongitudeDegrees>-0.84343277849256992340087890625</LongitudeDegrees>
            </Position>
            <AltitudeMeters>941</AltitudeMeters>
            <DistanceMeters>637459.7286234</DistanceMeters>
          </Trackpoint>
          <Trackpoint>
            <Time>2021-08-04T14:35:39.000Z</Time>
            <Position>
              <LatitudeDegrees>40.84057769738137722015380859375</LatitudeDegrees>
              <LongitudeDegrees>-0.8433014340698719024658203125</LongitudeDegrees>
            </Position>
            <AltitudeMeters>939.79998779296875</AltitudeMeters>
            <DistanceMeters>637472.5632116</DistanceMeters>
          </Trackpoint>
          <Trackpoint>
            <Time>2021-08-04T14:35:41.000Z</Time>
            <Position>
              <LatitudeDegrees>40.8405201137065887451171875</LatitudeDegrees>
              <LongitudeDegrees>-0.8431684970855712890625</LongitudeDegrees>
            </Position>
            <AltitudeMeters>938.5999755859375</AltitudeMeters>
            <DistanceMeters>637485.46201614</DistanceMeters>
          </Trackpoint>
          <Trackpoint>
            <Time>2021-08-04T14:35:45.000Z</Time>
            <Position>
              <LatitudeDegrees>40.84042464382946491241455078125</LatitudeDegrees>
              <LongitudeDegrees>-0.8429215662181377410888671875</LongitudeDegrees>
            </Position>
            <AltitudeMeters>937.5999755859375</AltitudeMeters>
            <DistanceMeters>637508.81230555</DistanceMeters>
          </Trackpoint>
          <Trackpoint>
            <Time>2021-08-04T14:35:47.000Z</Time>
            <Position>
              <LatitudeDegrees>40.84037192165851593017578125</LatitudeDegrees>
              <LongitudeDegrees>-0.84281369112432003021240234375</LongitudeDegrees>
            </Position>
            <AltitudeMeters>936.4000244140625</AltitudeMeters>
            <DistanceMeters>637519.62616194</DistanceMeters>
          </Trackpoint>
          <Trackpoint>
            <Time>2021-08-04T14:35:50.000Z</Time>
            <Position>
              <LatitudeDegrees>40.84028013981878757476806640625</LatitudeDegrees>
              <LongitudeDegrees>-0.8426674269139766693115234375</LongitudeDegrees>
            </Position>
            <AltitudeMeters>935.20001220703125</AltitudeMeters>
            <DistanceMeters>637535.627374</DistanceMeters>
          </Trackpoint>
          <Trackpoint>
            <Time>2021-08-04T14:35:52.000Z</Time>
            <Position>
              <LatitudeDegrees>40.84021174348890781402587890625</LatitudeDegrees>
              <LongitudeDegrees>-0.84256575442850589752197265625</LongitudeDegrees>
            </Position>
            <AltitudeMeters>933.79998779296875</AltitudeMeters>
            <DistanceMeters>637547.08351345</DistanceMeters>
          </Trackpoint>
          <Trackpoint>
            <Time>2021-08-04T14:35:53.000Z</Time>
            <Position>
              <LatitudeDegrees>40.84018039517104625701904296875</LatitudeDegrees>
              <LongitudeDegrees>-0.8425068296492099761962890625</LongitudeDegrees>
            </Position>
            <AltitudeMeters>933.20001220703125</AltitudeMeters>
            <DistanceMeters>637553.14886846</DistanceMeters>
          </Trackpoint>
          <Trackpoint>
            <Time>2021-08-04T14:35:55.000Z</Time>
            <Position>
              <LatitudeDegrees>40.8401263318955898284912109375</LatitudeDegrees>
              <LongitudeDegrees>-0.84238772280514240264892578125</LongitudeDegrees>
            </Position>
            <AltitudeMeters>932</AltitudeMeters>
            <DistanceMeters>637564.84449149</DistanceMeters>
          </Trackpoint>
          <Trackpoint>
            <Time>2021-08-04T14:35:57.000Z</Time>
            <Position>
              <LatitudeDegrees>40.84007956087589263916015625</LatitudeDegrees>
              <LongitudeDegrees>-0.84225512109696865081787109375</LongitudeDegrees>
            </Position>
            <AltitudeMeters>930.20001220703125</AltitudeMeters>
            <DistanceMeters>637577.16429364</DistanceMeters>
          </Trackpoint>
          <Trackpoint>
            <Time>2021-08-04T14:35:59.000Z</Time>
            <Position>
              <LatitudeDegrees>40.84002817980945110321044921875</LatitudeDegrees>
              <LongitudeDegrees>-0.8421008102595806121826171875</LongitudeDegrees>
            </Position>
            <AltitudeMeters>928.79998779296875</AltitudeMeters>
            <DistanceMeters>637591.3605342</DistanceMeters>
          </Trackpoint>
          <Trackpoint>
            <Time>2021-08-04T14:36:00.000Z</Time>
            <Position>
              <LatitudeDegrees>40.84000487811863422393798828125</LatitudeDegrees>
              <LongitudeDegrees>-0.8420164883136749267578125</LongitudeDegrees>
            </Position>
            <AltitudeMeters>928.4000244140625</AltitudeMeters>
            <DistanceMeters>637598.91919107</DistanceMeters>
          </Trackpoint>
          <Trackpoint>
            <Time>2021-08-04T14:36:02.000Z</Time>
            <Position>
              <LatitudeDegrees>40.8399648964405059814453125</LatitudeDegrees>
              <LongitudeDegrees>-0.8418392948806285858154296875</LongitudeDegrees>
            </Position>
            <AltitudeMeters>927.5999755859375</AltitudeMeters>
            <DistanceMeters>637614.4890797</DistanceMeters>
          </Trackpoint>
          <Trackpoint>
            <Time>2021-08-04T14:36:04.000Z</Time>
            <Position>
              <LatitudeDegrees>40.8399084024131298065185546875</LatitudeDegrees>
              <LongitudeDegrees>-0.84166520275175571441650390625</LongitudeDegrees>
            </Position>
            <AltitudeMeters>927</AltitudeMeters>
            <DistanceMeters>637630.4399867</DistanceMeters>
          </Trackpoint>
          <Trackpoint>
            <Time>2021-08-04T14:36:05.000Z</Time>
            <Position>
              <LatitudeDegrees>40.8398661576211452484130859375</LatitudeDegrees>
              <LongitudeDegrees>-0.84158523939549922943115234375</LongitudeDegrees>
            </Position>
            <AltitudeMeters>926.4000244140625</AltitudeMeters>
            <DistanceMeters>637638.65251621</DistanceMeters>
          </Trackpoint>
          <Trackpoint>
            <Time>2021-08-04T14:36:08.000Z</Time>
            <Position>
              <LatitudeDegrees>40.83972609601914882659912109375</LatitudeDegrees>
              <LongitudeDegrees>-0.84139446727931499481201171875</LongitudeDegrees>
            </Position>
            <AltitudeMeters>925.20001220703125</AltitudeMeters>
            <DistanceMeters>637661.03710715</DistanceMeters>
          </Trackpoint>
          <Trackpoint>
            <Time>2021-08-04T14:36:14.000Z</Time>
            <Position>
              <LatitudeDegrees>40.839475728571414947509765625</LatitudeDegrees>
              <LongitudeDegrees>-0.84108517505228519439697265625</LongitudeDegrees>
            </Position>
            <AltitudeMeters>924.4000244140625</AltitudeMeters>
            <DistanceMeters>637699.17917783</DistanceMeters>
          </Trackpoint>
          <Trackpoint>
            <Time>2021-08-04T14:36:17.000Z</Time>
            <Position>
              <LatitudeDegrees>40.83935670554637908935546875</LatitudeDegrees>
              <LongitudeDegrees>-0.84086758084595203399658203125</LongitudeDegrees>
            </Position>
            <AltitudeMeters>922.79998779296875</AltitudeMeters>
            <DistanceMeters>637721.78894691</DistanceMeters>
          </Trackpoint>
          <Trackpoint>
            <Time>2021-08-04T14:36:19.000Z</Time>
            <Position>
              <LatitudeDegrees>40.83926551043987274169921875</LatitudeDegrees>
              <LongitudeDegrees>-0.84071218036115169525146484375</LongitudeDegrees>
            </Position>
            <AltitudeMeters>921.4000244140625</AltitudeMeters>
            <DistanceMeters>637738.34978873</DistanceMeters>
          </Trackpoint>
          <Trackpoint>
            <Time>2021-08-04T14:36:22.000Z</Time>
            <Position>
              <LatitudeDegrees>40.8390873111784458160400390625</LatitudeDegrees>
              <LongitudeDegrees>-0.8405421115458011627197265625</LongitudeDegrees>
            </Position>
            <AltitudeMeters>920</AltitudeMeters>
            <DistanceMeters>637762.81340081</DistanceMeters>
          </Trackpoint>
          <Trackpoint>
            <Time>2021-08-04T14:36:23.000Z</Time>
            <Position>
              <LatitudeDegrees>40.83902503363788127899169921875</LatitudeDegrees>
              <LongitudeDegrees>-0.84050078876316547393798828125</LongitudeDegrees>
            </Position>
            <AltitudeMeters>919.4000244140625</AltitudeMeters>
            <DistanceMeters>637770.56958346</DistanceMeters>
          </Trackpoint>
          <Trackpoint>
            <Time>2021-08-04T14:36:24.000Z</Time>
            <Position>
              <LatitudeDegrees>40.83896183408796787261962890625</LatitudeDegrees>
              <LongitudeDegrees>-0.84046147763729095458984375</LongitudeDegrees>
            </Position>
            <AltitudeMeters>918.79998779296875</AltitudeMeters>
            <DistanceMeters>637778.34321013</DistanceMeters>
          </Trackpoint>
          <Trackpoint>
            <Time>2021-08-04T14:36:27.000Z</Time>
            <Position>
              <LatitudeDegrees>40.838775672018527984619140625</LatitudeDegrees>
              <LongitudeDegrees>-0.8403684385120868682861328125</LongitudeDegrees>
            </Position>
            <AltitudeMeters>917.79998779296875</AltitudeMeters>
            <DistanceMeters>637800.49503588</DistanceMeters>
          </Trackpoint>
          <Trackpoint>
            <Time>2021-08-04T14:36:30.000Z</Time>
            <Position>
              <LatitudeDegrees>40.83858615718781948089599609375</LatitudeDegrees>
              <LongitudeDegrees>-0.840322673320770263671875</LongitudeDegrees>
            </Position>
            <AltitudeMeters>916.79998779296875</AltitudeMeters>
            <DistanceMeters>637821.93761973</DistanceMeters>
          </Trackpoint>
          <Trackpoint>
            <Time>2021-08-04T14:36:31.000Z</Time>
            <Position>
              <LatitudeDegrees>40.83852119743824005126953125</LatitudeDegrees>
              <LongitudeDegrees>-0.84031487815082073211669921875</LongitudeDegrees>
            </Position>
            <AltitudeMeters>916.5999755859375</AltitudeMeters>
            <DistanceMeters>637829.19830746</DistanceMeters>
          </Trackpoint>
          <Trackpoint>
            <Time>2021-08-04T14:36:33.000Z</Time>
            <Position>
              <LatitudeDegrees>40.83839605562388896942138671875</LatitudeDegrees>
              <LongitudeDegrees>-0.84029945544898509979248046875</LongitudeDegrees>
            </Position>
            <AltitudeMeters>915.4000244140625</AltitudeMeters>
            <DistanceMeters>637843.18758252</DistanceMeters>
          </Trackpoint>
          <Trackpoint>
            <Time>2021-08-04T14:36:36.000Z</Time>
            <Position>
              <LatitudeDegrees>40.83821542561054229736328125</LatitudeDegrees>
              <LongitudeDegrees>-0.84028872661292552947998046875</LongitudeDegrees>
            </Position>
            <AltitudeMeters>914</AltitudeMeters>
            <DistanceMeters>637863.31216769</DistanceMeters>
          </Trackpoint>
          <Trackpoint>
            <Time>2021-08-04T14:36:39.000Z</Time>
            <Position>
              <LatitudeDegrees>40.838040746748447418212890625</LatitudeDegrees>
              <LongitudeDegrees>-0.84027531556785106658935546875</LongitudeDegrees>
            </Position>
            <AltitudeMeters>912.79998779296875</AltitudeMeters>
            <DistanceMeters>637882.78684897</DistanceMeters>
          </Trackpoint>
          <Trackpoint>
            <Time>2021-08-04T14:36:41.000Z</Time>
            <Position>
              <LatitudeDegrees>40.8379302732646465301513671875</LatitudeDegrees>
              <LongitudeDegrees>-0.84025050513446331024169921875</LongitudeDegrees>
            </Position>
            <AltitudeMeters>912.20001220703125</AltitudeMeters>
            <DistanceMeters>637895.2589016</DistanceMeters>
          </Trackpoint>
          <Trackpoint>
            <Time>2021-08-04T14:36:42.000Z</Time>
            <Position>
              <LatitudeDegrees>40.83787956275045871734619140625</LatitudeDegrees>
              <LongitudeDegrees>-0.840227119624614715576171875</LongitudeDegrees>
            </Position>
            <AltitudeMeters>911.79998779296875</AltitudeMeters>
            <DistanceMeters>637901.23652759</DistanceMeters>
          </Trackpoint>
          <Trackpoint>
            <Time>2021-08-04T14:36:43.000Z</Time>
            <Position>
              <LatitudeDegrees>40.837834216654300689697265625</LatitudeDegrees>
              <LongitudeDegrees>-0.84021362476050853729248046875</LongitudeDegrees>
            </Position>
            <AltitudeMeters>911.20001220703125</AltitudeMeters>
            <DistanceMeters>637906.41003187</DistanceMeters>
          </Trackpoint>
          <Trackpoint>
            <Time>2021-08-04T14:36:45.000Z</Time>
            <Position>
              <LatitudeDegrees>40.8377643115818500518798828125</LatitudeDegrees>
              <LongitudeDegrees>-0.84023558534681797027587890625</LongitudeDegrees>
            </Position>
            <AltitudeMeters>910.5999755859375</AltitudeMeters>
            <DistanceMeters>637914.40809798</DistanceMeters>
          </Trackpoint>
          <Trackpoint>
            <Time>2021-08-04T14:36:48.000Z</Time>
            <Position>
              <LatitudeDegrees>40.837709493935108184814453125</LatitudeDegrees>
              <LongitudeDegrees>-0.84037019871175289154052734375</LongitudeDegrees>
            </Position>
            <AltitudeMeters>909.20001220703125</AltitudeMeters>
            <DistanceMeters>637927.28097384</DistanceMeters>
          </Trackpoint>
          <Trackpoint>
            <Time>2021-08-04T14:36:50.000Z</Time>
            <Position>
              <LatitudeDegrees>40.83769298158586025238037109375</LatitudeDegrees>
              <LongitudeDegrees>-0.8405008725821971893310546875</LongitudeDegrees>
            </Position>
            <AltitudeMeters>907.5999755859375</AltitudeMeters>
            <DistanceMeters>637938.43761194</DistanceMeters>
          </Trackpoint>
          <Trackpoint>
            <Time>2021-08-04T14:36:52.000Z</Time>
            <Position>
              <LatitudeDegrees>40.8376469649374485015869140625</LatitudeDegrees>
              <LongitudeDegrees>-0.84062500856816768646240234375</LongitudeDegrees>
            </Position>
            <AltitudeMeters>905.5999755859375</AltitudeMeters>
            <DistanceMeters>637950.07828748</DistanceMeters>
          </Trackpoint>
          <Trackpoint>
            <Time>2021-08-04T14:36:54.000Z</Time>
            <Position>
              <LatitudeDegrees>40.83757705986499786376953125</LatitudeDegrees>
              <LongitudeDegrees>-0.8407375775277614593505859375</LongitudeDegrees>
            </Position>
            <AltitudeMeters>904.5999755859375</AltitudeMeters>
            <DistanceMeters>637962.34152087</DistanceMeters>
          </Trackpoint>
          <Trackpoint>
            <Time>2021-08-04T14:36:55.000Z</Time>
            <Position>
              <LatitudeDegrees>40.837537832558155059814453125</LatitudeDegrees>
              <LongitudeDegrees>-0.84079767577350139617919921875</LongitudeDegrees>
            </Position>
            <AltitudeMeters>903.4000244140625</AltitudeMeters>
            <DistanceMeters>637969.02521657</DistanceMeters>
          </Trackpoint>
          <Trackpoint>
            <Time>2021-08-04T14:36:57.000Z</Time>
            <Position>
              <LatitudeDegrees>40.837443955242633819580078125</LatitudeDegrees>
              <LongitudeDegrees>-0.84090798161923885345458984375</LongitudeDegrees>
            </Position>
            <AltitudeMeters>901.4000244140625</AltitudeMeters>
            <DistanceMeters>637983.00577466</DistanceMeters>
          </Trackpoint>
          <Trackpoint>
            <Time>2021-08-04T14:36:59.000Z</Time>
            <Position>
              <LatitudeDegrees>40.837331302464008331298828125</LatitudeDegrees>
              <LongitudeDegrees>-0.8409829996526241302490234375</LongitudeDegrees>
            </Position>
            <AltitudeMeters>899.5999755859375</AltitudeMeters>
            <DistanceMeters>637997.04563003</DistanceMeters>
          </Trackpoint>
          <Trackpoint>
            <Time>2021-08-04T14:37:01.000Z</Time>
            <Position>
              <LatitudeDegrees>40.837205238640308380126953125</LatitudeDegrees>
              <LongitudeDegrees>-0.84102616645395755767822265625</LongitudeDegrees>
            </Position>
            <AltitudeMeters>898.4000244140625</AltitudeMeters>
            <DistanceMeters>638011.53961838</DistanceMeters>
          </Trackpoint>
          <Trackpoint>
            <Time>2021-08-04T14:37:03.000Z</Time>
            <Position>
              <LatitudeDegrees>40.83707490004599094390869140625</LatitudeDegrees>
              <LongitudeDegrees>-0.841059945523738861083984375</LongitudeDegrees>
            </Position>
            <AltitudeMeters>897.20001220703125</AltitudeMeters>
            <DistanceMeters>638026.32291673</DistanceMeters>
          </Trackpoint>
          <Trackpoint>
            <Time>2021-08-04T14:37:05.000Z</Time>
            <Position>
              <LatitudeDegrees>40.83694866858422756195068359375</LatitudeDegrees>
              <LongitudeDegrees>-0.8410911262035369873046875</LongitudeDegrees>
            </Position>
            <AltitudeMeters>895.79998779296875</AltitudeMeters>
            <DistanceMeters>638040.61614763</DistanceMeters>
          </Trackpoint>
          <Trackpoint>
            <Time>2021-08-04T14:37:07.000Z</Time>
            <Position>
              <LatitudeDegrees>40.8368272148072719573974609375</LatitudeDegrees>
              <LongitudeDegrees>-0.84112666547298431396484375</LongitudeDegrees>
            </Position>
            <AltitudeMeters>895</AltitudeMeters>
            <DistanceMeters>638054.46138012</DistanceMeters>
          </Trackpoint>
          <Trackpoint>
            <Time>2021-08-04T14:37:08.000Z</Time>
            <Position>
              <LatitudeDegrees>40.83677197806537151336669921875</LatitudeDegrees>
              <LongitudeDegrees>-0.84115625359117984771728515625</LongitudeDegrees>
            </Position>
            <AltitudeMeters>894.20001220703125</AltitudeMeters>
            <DistanceMeters>638061.09421755</DistanceMeters>
          </Trackpoint>
          <Trackpoint>
            <Time>2021-08-04T14:37:11.000Z</Time>
            <Position>
              <LatitudeDegrees>40.83663065917789936065673828125</LatitudeDegrees>
              <LongitudeDegrees>-0.84128265269100666046142578125</LongitudeDegrees>
            </Position>
            <AltitudeMeters>892.79998779296875</AltitudeMeters>
            <DistanceMeters>638080.08601429</DistanceMeters>
          </Trackpoint>
          <Trackpoint>
            <Time>2021-08-04T14:37:13.000Z</Time>
            <Position>
              <LatitudeDegrees>40.83655170165002346038818359375</LatitudeDegrees>
              <LongitudeDegrees>-0.841384492814540863037109375</LongitudeDegrees>
            </Position>
            <AltitudeMeters>891.4000244140625</AltitudeMeters>
            <DistanceMeters>638092.36506908</DistanceMeters>
          </Trackpoint>
          <Trackpoint>
            <Time>2021-08-04T14:37:17.000Z</Time>
            <Position>
              <LatitudeDegrees>40.83645631559193134307861328125</LatitudeDegrees>
              <LongitudeDegrees>-0.84160787053406238555908203125</LongitudeDegrees>
            </Position>
            <AltitudeMeters>890.4000244140625</AltitudeMeters>
            <DistanceMeters>638113.96478967</DistanceMeters>
          </Trackpoint>
          <Trackpoint>
            <Time>2021-08-04T14:37:19.000Z</Time>
            <Position>
              <LatitudeDegrees>40.83642848767340183258056640625</LatitudeDegrees>
              <LongitudeDegrees>-0.84172882139682769775390625</LongitudeDegrees>
            </Position>
            <AltitudeMeters>889.79998779296875</AltitudeMeters>
            <DistanceMeters>638124.61032673</DistanceMeters>
          </Trackpoint>
          <Trackpoint>
            <Time>2021-08-04T14:37:20.000Z</Time>
            <Position>
              <LatitudeDegrees>40.83642597310245037078857421875</LatitudeDegrees>
              <LongitudeDegrees>-0.8417926914989948272705078125</LongitudeDegrees>
            </Position>
            <AltitudeMeters>889.20001220703125</AltitudeMeters>
            <DistanceMeters>638129.99591913</DistanceMeters>
          </Trackpoint>
          <Trackpoint>
            <Time>2021-08-04T14:37:22.000Z</Time>
            <Position>
              <LatitudeDegrees>40.8364503644406795501708984375</LatitudeDegrees>
              <LongitudeDegrees>-0.84191347472369670867919921875</LongitudeDegrees>
            </Position>
            <AltitudeMeters>888</AltitudeMeters>
            <DistanceMeters>638140.52288917</DistanceMeters>
          </Trackpoint>
          <Trackpoint>
            <Time>2021-08-04T14:37:25.000Z</Time>
            <Position>
              <LatitudeDegrees>40.83654306828975677490234375</LatitudeDegrees>
              <LongitudeDegrees>-0.84203735925257205963134765625</LongitudeDegrees>
            </Position>
            <AltitudeMeters>886.79998779296875</AltitudeMeters>
            <DistanceMeters>638155.19582625</DistanceMeters>
          </Trackpoint>
          <Trackpoint>
            <Time>2021-08-04T14:37:28.000Z</Time>
            <Position>
              <LatitudeDegrees>40.83666921593248844146728515625</LatitudeDegrees>
              <LongitudeDegrees>-0.842115394771099090576171875</LongitudeDegrees>
            </Position>
            <AltitudeMeters>885.79998779296875</AltitudeMeters>
            <DistanceMeters>638170.69829233</DistanceMeters>
          </Trackpoint>
          <Trackpoint>
            <Time>2021-08-04T14:37:30.000Z</Time>
            <Position>
              <LatitudeDegrees>40.83671464584767818450927734375</LatitudeDegrees>
              <LongitudeDegrees>-0.84221027791500091552734375</LongitudeDegrees>
            </Position>
            <AltitudeMeters>884.4000244140625</AltitudeMeters>
            <DistanceMeters>638180.15428603</DistanceMeters>
          </Trackpoint>
          <Trackpoint>
            <Time>2021-08-04T14:37:34.000Z</Time>
            <Position>
              <LatitudeDegrees>40.83667181432247161865234375</LatitudeDegrees>
              <LongitudeDegrees>-0.8424778282642364501953125</LongitudeDegrees>
            </Position>
            <AltitudeMeters>883.20001220703125</AltitudeMeters>
            <DistanceMeters>638203.1831236</DistanceMeters>
          </Trackpoint>
          <Trackpoint>
            <Time>2021-08-04T14:37:36.000Z</Time>
            <Position>
              <LatitudeDegrees>40.83661490119993686676025390625</LatitudeDegrees>
              <LongitudeDegrees>-0.84260900504887104034423828125</LongitudeDegrees>
            </Position>
            <AltitudeMeters>882.79998779296875</AltitudeMeters>
            <DistanceMeters>638215.91670332</DistanceMeters>
          </Trackpoint>
          <Trackpoint>
            <Time>2021-08-04T14:37:37.000Z</Time>
            <Position>
              <LatitudeDegrees>40.8365895040333271026611328125</LatitudeDegrees>
              <LongitudeDegrees>-0.84267471916973590850830078125</LongitudeDegrees>
            </Position>
            <AltitudeMeters>882.79998779296875</AltitudeMeters>
            <DistanceMeters>638222.13060764</DistanceMeters>
          </Trackpoint>
          <Trackpoint>
            <Time>2021-08-04T14:37:42.000Z</Time>
            <Position>
              <LatitudeDegrees>40.83653770387172698974609375</LatitudeDegrees>
              <LongitudeDegrees>-0.84301603026688098907470703125</LongitudeDegrees>
            </Position>
            <AltitudeMeters>882.79998779296875</AltitudeMeters>
            <DistanceMeters>638251.44446229</DistanceMeters>
          </Trackpoint>
          <Trackpoint>
            <Time>2021-08-04T14:37:45.000Z</Time>
            <Position>
              <LatitudeDegrees>40.83653627894818782806396484375</LatitudeDegrees>
              <LongitudeDegrees>-0.8432243205606937408447265625</LongitudeDegrees>
            </Position>
            <AltitudeMeters>882.5999755859375</AltitudeMeters>
            <DistanceMeters>638268.9850656</DistanceMeters>
          </Trackpoint>
          <Trackpoint>
            <Time>2021-08-04T14:37:47.000Z</Time>
            <Position>
              <LatitudeDegrees>40.83649721927940845489501953125</LatitudeDegrees>
              <LongitudeDegrees>-0.8433658070862293243408203125</LongitudeDegrees>
            </Position>
            <AltitudeMeters>882.20001220703125</AltitudeMeters>
            <DistanceMeters>638281.66783942</DistanceMeters>
          </Trackpoint>
          <Trackpoint>
            <Time>2021-08-04T14:37:50.000Z</Time>
            <Position>
              <LatitudeDegrees>40.83633108995854854583740234375</LatitudeDegrees>
              <LongitudeDegrees>-0.84346965886652469635009765625</LongitudeDegrees>
            </Position>
            <AltitudeMeters>880.79998779296875</AltitudeMeters>
            <DistanceMeters>638302.12221552</DistanceMeters>
          </Trackpoint>
          <Trackpoint>
            <Time>2021-08-04T14:37:51.000Z</Time>
            <Position>
              <LatitudeDegrees>40.83626453764736652374267578125</LatitudeDegrees>
              <LongitudeDegrees>-0.843482650816440582275390625</LongitudeDegrees>
            </Position>
            <AltitudeMeters>880.20001220703125</AltitudeMeters>
            <DistanceMeters>638309.61065827</DistanceMeters>
          </Trackpoint>
          <Trackpoint>
            <Time>2021-08-04T14:37:52.000Z</Time>
            <Position>
              <LatitudeDegrees>40.836196728050708770751953125</LatitudeDegrees>
              <LongitudeDegrees>-0.8434891887009143829345703125</LongitudeDegrees>
            </Position>
            <AltitudeMeters>879.79998779296875</AltitudeMeters>
            <DistanceMeters>638317.17826983</DistanceMeters>
          </Trackpoint>
          <Trackpoint>
            <Time>2021-08-04T14:37:53.000Z</Time>
            <Position>
              <LatitudeDegrees>40.83612975664436817169189453125</LatitudeDegrees>
              <LongitudeDegrees>-0.84348558448255062103271484375</LongitudeDegrees>
            </Position>
            <AltitudeMeters>879.4000244140625</AltitudeMeters>
            <DistanceMeters>638324.63892605</DistanceMeters>
          </Trackpoint>
          <Trackpoint>
            <Time>2021-08-04T14:37:58.000Z</Time>
            <Position>
              <LatitudeDegrees>40.83582079969346523284912109375</LatitudeDegrees>
              <LongitudeDegrees>-0.84342841990292072296142578125</LongitudeDegrees>
            </Position>
            <AltitudeMeters>878.4000244140625</AltitudeMeters>
            <DistanceMeters>638359.36179671</DistanceMeters>
          </Trackpoint>
          <Trackpoint>
            <Time>2021-08-04T14:38:00.000Z</Time>
            <Position>
              <LatitudeDegrees>40.8356869406998157501220703125</LatitudeDegrees>
              <LongitudeDegrees>-0.84340930916368961334228515625</LongitudeDegrees>
            </Position>
            <AltitudeMeters>877.20001220703125</AltitudeMeters>
            <DistanceMeters>638374.34712089</DistanceMeters>
          </Trackpoint>
          <Trackpoint>
            <Time>2021-08-04T14:38:08.000Z</Time>
            <Position>
              <LatitudeDegrees>40.83537890575826168060302734375</LatitudeDegrees>
              <LongitudeDegrees>-0.8433470316231250762939453125</LongitudeDegrees>
            </Position>
            <AltitudeMeters>877.79998779296875</AltitudeMeters>
            <DistanceMeters>638409.03083023</DistanceMeters>
          </Trackpoint>
          <Trackpoint>
            <Time>2021-08-04T14:38:42.000Z</Time>
            <Position>
              <LatitudeDegrees>40.83534286357462406158447265625</LatitudeDegrees>
              <LongitudeDegrees>-0.84333412349224090576171875</LongitudeDegrees>
            </Position>
            <AltitudeMeters>878.20001220703125</AltitudeMeters>
            <DistanceMeters>638413.18600847</DistanceMeters>
          </Trackpoint>
          <Trackpoint>
            <Time>2021-08-04T14:38:51.000Z</Time>
            <Position>
              <LatitudeDegrees>40.83508218638598918914794921875</LatitudeDegrees>
              <LongitudeDegrees>-0.84314963780343532562255859375</LongitudeDegrees>
            </Position>
            <AltitudeMeters>877.4000244140625</AltitudeMeters>
            <DistanceMeters>638446.09736927</DistanceMeters>
          </Trackpoint>
          <Trackpoint>
            <Time>2021-08-04T14:38:58.000Z</Time>
            <Position>
              <LatitudeDegrees>40.83498068153858184814453125</LatitudeDegrees>
              <LongitudeDegrees>-0.8427261002361774444580078125</LongitudeDegrees>
            </Position>
            <AltitudeMeters>876.5999755859375</AltitudeMeters>
            <DistanceMeters>638483.51038959</DistanceMeters>
          </Trackpoint>
          <Trackpoint>
            <Time>2021-08-04T14:39:08.000Z</Time>
            <Position>
              <LatitudeDegrees>40.83487230353057384490966796875</LatitudeDegrees>
              <LongitudeDegrees>-0.84202847443521022796630859375</LongitudeDegrees>
            </Position>
            <AltitudeMeters>875.5999755859375</AltitudeMeters>
            <DistanceMeters>638543.48361535</DistanceMeters>
          </Trackpoint>
          <Trackpoint>
            <Time>2021-08-04T14:39:13.000Z</Time>
            <Position>
              <LatitudeDegrees>40.83481371402740478515625</LatitudeDegrees>
              <LongitudeDegrees>-0.8416438288986682891845703125</LongitudeDegrees>
            </Position>
            <AltitudeMeters>874.5999755859375</AltitudeMeters>
            <DistanceMeters>638576.52477426</DistanceMeters>
          </Trackpoint>
          <Trackpoint>
            <Time>2021-08-04T14:39:16.000Z</Time>
            <Position>
              <LatitudeDegrees>40.83478211425244808197021484375</LatitudeDegrees>
              <LongitudeDegrees>-0.8414077945053577423095703125</LongitudeDegrees>
            </Position>
            <AltitudeMeters>873.4000244140625</AltitudeMeters>
            <DistanceMeters>638596.71029157</DistanceMeters>
          </Trackpoint>
          <Trackpoint>
            <Time>2021-08-04T14:39:26.000Z</Time>
            <Position>
              <LatitudeDegrees>40.834695361554622650146484375</LatitudeDegrees>
              <LongitudeDegrees>-0.840648226439952850341796875</LongitudeDegrees>
            </Position>
            <AltitudeMeters>873</AltitudeMeters>
            <DistanceMeters>638661.39892036</DistanceMeters>
          </Trackpoint>
          <Trackpoint>
            <Time>2021-08-04T14:39:36.000Z</Time>
            <Position>
              <LatitudeDegrees>40.834626294672489166259765625</LatitudeDegrees>
              <LongitudeDegrees>-0.83992042578756809234619140625</LongitudeDegrees>
            </Position>
            <AltitudeMeters>873</AltitudeMeters>
            <DistanceMeters>638723.16796592</DistanceMeters>
          </Trackpoint>
          <Trackpoint>
            <Time>2021-08-04T14:39:46.000Z</Time>
            <Position>
              <LatitudeDegrees>40.8345671184360980987548828125</LatitudeDegrees>
              <LongitudeDegrees>-0.83922623656690120697021484375</LongitudeDegrees>
            </Position>
            <AltitudeMeters>872.5999755859375</AltitudeMeters>
            <DistanceMeters>638781.99625646</DistanceMeters>
          </Trackpoint>
          <Trackpoint>
            <Time>2021-08-04T14:39:56.000Z</Time>
            <Position>
              <LatitudeDegrees>40.83450199104845523834228515625</LatitudeDegrees>
              <LongitudeDegrees>-0.838535986840724945068359375</LongitudeDegrees>
            </Position>
            <AltitudeMeters>871.79998779296875</AltitudeMeters>
            <DistanceMeters>638840.57326993</DistanceMeters>
          </Trackpoint>
          <Trackpoint>
            <Time>2021-08-04T14:40:07.000Z</Time>
            <Position>
              <LatitudeDegrees>40.83443476818501949310302734375</LatitudeDegrees>
              <LongitudeDegrees>-0.83780852146446704864501953125</LongitudeDegrees>
            </Position>
            <AltitudeMeters>871.5999755859375</AltitudeMeters>
            <DistanceMeters>638902.28929851</DistanceMeters>
          </Trackpoint>
          <Trackpoint>
            <Time>2021-08-04T14:40:18.000Z</Time>
            <Position>
              <LatitudeDegrees>40.83436955697834491729736328125</LatitudeDegrees>
              <LongitudeDegrees>-0.837093628942966461181640625</LongitudeDegrees>
            </Position>
            <AltitudeMeters>871.79998779296875</AltitudeMeters>
            <DistanceMeters>638962.92736318</DistanceMeters>
          </Trackpoint>
          <Trackpoint>
            <Time>2021-08-04T14:40:30.000Z</Time>
            <Position>
              <LatitudeDegrees>40.834289006888866424560546875</LatitudeDegrees>
              <LongitudeDegrees>-0.8363360725343227386474609375</LongitudeDegrees>
            </Position>
            <AltitudeMeters>871.79998779296875</AltitudeMeters>
            <DistanceMeters>639027.34916814</DistanceMeters>
          </Trackpoint>
          <Trackpoint>
            <Time>2021-08-04T14:40:38.000Z</Time>
            <Position>
              <LatitudeDegrees>40.83417643792927265167236328125</LatitudeDegrees>
              <LongitudeDegrees>-0.83584816195070743560791015625</LongitudeDegrees>
            </Position>
            <AltitudeMeters>871.4000244140625</AltitudeMeters>
            <DistanceMeters>639070.30460668</DistanceMeters>
          </Trackpoint>
          <Trackpoint>
            <Time>2021-08-04T14:40:43.000Z</Time>
            <Position>
              <LatitudeDegrees>40.834009386599063873291015625</LatitudeDegrees>
              <LongitudeDegrees>-0.83560089580714702606201171875</LongitudeDegrees>
            </Position>
            <AltitudeMeters>871</AltitudeMeters>
            <DistanceMeters>639098.22047308</DistanceMeters>
          </Trackpoint>
          <Trackpoint>
            <Time>2021-08-04T14:40:45.000Z</Time>
            <Position>
              <LatitudeDegrees>40.83392716012895107269287109375</LatitudeDegrees>
              <LongitudeDegrees>-0.835521854460239410400390625</LongitudeDegrees>
            </Position>
            <AltitudeMeters>871</AltitudeMeters>
            <DistanceMeters>639109.5370337</DistanceMeters>
          </Trackpoint>
          <Trackpoint>
            <Time>2021-08-04T14:40:48.000Z</Time>
            <Position>
              <LatitudeDegrees>40.8337902836501598358154296875</LatitudeDegrees>
              <LongitudeDegrees>-0.83543811924755573272705078125</LongitudeDegrees>
            </Position>
            <AltitudeMeters>870.5999755859375</AltitudeMeters>
            <DistanceMeters>639126.32451879</DistanceMeters>
          </Trackpoint>
          <Trackpoint>
            <Time>2021-08-04T14:40:53.000Z</Time>
            <Position>
              <LatitudeDegrees>40.83353555761277675628662109375</LatitudeDegrees>
              <LongitudeDegrees>-0.83541565574705600738525390625</LongitudeDegrees>
            </Position>
            <AltitudeMeters>870.5999755859375</AltitudeMeters>
            <DistanceMeters>639154.73909542</DistanceMeters>
          </Trackpoint>
          <Trackpoint>
            <Time>2021-08-04T14:40:59.000Z</Time>
            <Position>
              <LatitudeDegrees>40.83321671001613140106201171875</LatitudeDegrees>
              <LongitudeDegrees>-0.83546795882284641265869140625</LongitudeDegrees>
            </Position>
            <AltitudeMeters>870</AltitudeMeters>
            <DistanceMeters>639190.49970735</DistanceMeters>
          </Trackpoint>
          <Trackpoint>
            <Time>2021-08-04T14:41:09.000Z</Time>
            <Position>
              <LatitudeDegrees>40.83267071284353733062744140625</LatitudeDegrees>
              <LongitudeDegrees>-0.83559553138911724090576171875</LongitudeDegrees>
            </Position>
            <AltitudeMeters>869.20001220703125</AltitudeMeters>
            <DistanceMeters>639252.21266321</DistanceMeters>
          </Trackpoint>
          <Trackpoint>
            <Time>2021-08-04T14:41:12.000Z</Time>
            <Position>
              <LatitudeDegrees>40.83251162432134151458740234375</LatitudeDegrees>
              <LongitudeDegrees>-0.83563207648694515228271484375</LongitudeDegrees>
            </Position>
            <AltitudeMeters>869</AltitudeMeters>
            <DistanceMeters>639270.18502628</DistanceMeters>
          </Trackpoint>
          <Trackpoint>
            <Time>2021-08-04T14:41:22.000Z</Time>
            <Position>
              <LatitudeDegrees>40.83218992687761783599853515625</LatitudeDegrees>
              <LongitudeDegrees>-0.83570885471999645233154296875</LongitudeDegrees>
            </Position>
            <AltitudeMeters>870.4000244140625</AltitudeMeters>
            <DistanceMeters>639306.56971162</DistanceMeters>
          </Trackpoint>
          <Trackpoint>
            <Time>2021-08-04T14:42:10.000Z</Time>
            <Position>
              <LatitudeDegrees>40.832176096737384796142578125</LatitudeDegrees>
              <LongitudeDegrees>-0.8357141353189945220947265625</LongitudeDegrees>
            </Position>
            <AltitudeMeters>870.5999755859375</AltitudeMeters>
            <DistanceMeters>639308.17394719</DistanceMeters>
          </Trackpoint>
          <Trackpoint>
            <Time>2021-08-04T14:42:21.000Z</Time>
            <Position>
              <LatitudeDegrees>40.83187200129032135009765625</LatitudeDegrees>
              <LongitudeDegrees>-0.83578311838209629058837890625</LongitudeDegrees>
            </Position>
            <AltitudeMeters>869.79998779296875</AltitudeMeters>
            <DistanceMeters>639342.5152923</DistanceMeters>
          </Trackpoint>
          <Trackpoint>
            <Time>2021-08-04T14:42:36.000Z</Time>
            <Position>
              <LatitudeDegrees>40.8313045464456081390380859375</LatitudeDegrees>
              <LongitudeDegrees>-0.8359089307487010955810546875</LongitudeDegrees>
            </Position>
            <AltitudeMeters>869.5999755859375</AltitudeMeters>
            <DistanceMeters>639406.55674145</DistanceMeters>
          </Trackpoint>
          <Trackpoint>
            <Time>2021-08-04T14:42:50.000Z</Time>
            <Position>
              <LatitudeDegrees>40.83073700778186321258544921875</LatitudeDegrees>
              <LongitudeDegrees>-0.83603641949594020843505859375</LongitudeDegrees>
            </Position>
            <AltitudeMeters>870</AltitudeMeters>
            <DistanceMeters>639470.63089509</DistanceMeters>
          </Trackpoint>
          <Trackpoint>
            <Time>2021-08-04T14:43:05.000Z</Time>
            <Position>
              <LatitudeDegrees>40.83019956015050411224365234375</LatitudeDegrees>
              <LongitudeDegrees>-0.83612342365086078643798828125</LongitudeDegrees>
            </Position>
            <AltitudeMeters>870.79998779296875</AltitudeMeters>
            <DistanceMeters>639530.89701415</DistanceMeters>
          </Trackpoint>
          <Trackpoint>
            <Time>2021-08-04T14:43:07.000Z</Time>
            <Position>
              <LatitudeDegrees>40.83013116382062435150146484375</LatitudeDegrees>
              <LongitudeDegrees>-0.8361278660595417022705078125</LongitudeDegrees>
            </Position>
            <AltitudeMeters>871.4000244140625</AltitudeMeters>
            <DistanceMeters>639538.51872536</DistanceMeters>
          </Trackpoint>
          <Trackpoint>
            <Time>2021-08-04T14:43:13.000Z</Time>
            <Position>
              <LatitudeDegrees>40.82993008196353912353515625</LatitudeDegrees>
              <LongitudeDegrees>-0.83614203147590160369873046875</LongitudeDegrees>
            </Position>
            <AltitudeMeters>872.4000244140625</AltitudeMeters>
            <DistanceMeters>639560.93133548</DistanceMeters>
          </Trackpoint>
          <Trackpoint>
            <Time>2021-08-04T14:43:20.000Z</Time>
            <Position>
              <LatitudeDegrees>40.82970486022531986236572265625</LatitudeDegrees>
              <LongitudeDegrees>-0.836152844130992889404296875</LongitudeDegrees>
            </Position>
            <AltitudeMeters>873.5999755859375</AltitudeMeters>
            <DistanceMeters>639586.01550832</DistanceMeters>
          </Trackpoint>
          <Trackpoint>
            <Time>2021-08-04T14:43:26.000Z</Time>
            <Position>
              <LatitudeDegrees>40.8295195363461971282958984375</LatitudeDegrees>
              <LongitudeDegrees>-0.836162567138671875</LongitudeDegrees>
            </Position>
            <AltitudeMeters>874.79998779296875</AltitudeMeters>
            <DistanceMeters>639606.65862672</DistanceMeters>
          </Trackpoint>
          <Trackpoint>
            <Time>2021-08-04T14:43:32.000Z</Time>
            <Position>
              <LatitudeDegrees>40.82935365848243236541748046875</LatitudeDegrees>
              <LongitudeDegrees>-0.836182348430156707763671875</LongitudeDegrees>
            </Position>
            <AltitudeMeters>876</AltitudeMeters>
            <DistanceMeters>639625.19638789</DistanceMeters>
          </Trackpoint>
          <Trackpoint>
            <Time>2021-08-04T14:43:40.000Z</Time>
            <Position>
              <LatitudeDegrees>40.82914696075022220611572265625</LatitudeDegrees>
              <LongitudeDegrees>-0.836216546595096588134765625</LongitudeDegrees>
            </Position>
            <AltitudeMeters>877</AltitudeMeters>
            <DistanceMeters>639648.3817378</DistanceMeters>
          </Trackpoint>
          <Trackpoint>
            <Time>2021-08-04T14:43:48.000Z</Time>
            <Position>
              <LatitudeDegrees>40.828942023217678070068359375</LatitudeDegrees>
              <LongitudeDegrees>-0.83626859821379184722900390625</LongitudeDegrees>
            </Position>
            <AltitudeMeters>878.20001220703125</AltitudeMeters>
            <DistanceMeters>639671.60911276</DistanceMeters>
          </Trackpoint>
          <Trackpoint>
            <Time>2021-08-04T14:43:55.000Z</Time>
            <Position>
              <LatitudeDegrees>40.8287708647549152374267578125</LatitudeDegrees>
              <LongitudeDegrees>-0.83633431233465671539306640625</LongitudeDegrees>
            </Position>
            <AltitudeMeters>879.5999755859375</AltitudeMeters>
            <DistanceMeters>639691.44717697</DistanceMeters>
          </Trackpoint>
          <Trackpoint>
            <Time>2021-08-04T14:44:02.000Z</Time>
            <Position>
              <LatitudeDegrees>40.828606747090816497802734375</LatitudeDegrees>
              <LongitudeDegrees>-0.83641494624316692352294921875</LongitudeDegrees>
            </Position>
            <AltitudeMeters>880.79998779296875</AltitudeMeters>
            <DistanceMeters>639710.9353004</DistanceMeters>
          </Trackpoint>
          <Trackpoint>
            <Time>2021-08-04T14:44:09.000Z</Time>
            <Position>
              <LatitudeDegrees>40.8284523524343967437744140625</LatitudeDegrees>
              <LongitudeDegrees>-0.836513936519622802734375</LongitudeDegrees>
            </Position>
            <AltitudeMeters>881.79998779296875</AltitudeMeters>
            <DistanceMeters>639730.03543361</DistanceMeters>
          </Trackpoint>
          <Trackpoint>
            <Time>2021-08-04T14:44:17.000Z</Time>
            <Position>
              <LatitudeDegrees>40.828283540904521942138671875</LatitudeDegrees>
              <LongitudeDegrees>-0.8366445265710353851318359375</LongitudeDegrees>
            </Position>
            <AltitudeMeters>883.20001220703125</AltitudeMeters>
            <DistanceMeters>639751.80671544</DistanceMeters>
          </Trackpoint>
          <Trackpoint>
            <Time>2021-08-04T14:44:24.000Z</Time>
            <Position>
              <LatitudeDegrees>40.82814130000770092010498046875</LatitudeDegrees>
              <LongitudeDegrees>-0.8367799781262874603271484375</LongitudeDegrees>
            </Position>
            <AltitudeMeters>884.20001220703125</AltitudeMeters>
            <DistanceMeters>639771.3203072</DistanceMeters>
          </Trackpoint>
          <Trackpoint>
            <Time>2021-08-04T14:44:33.000Z</Time>
            <Position>
              <LatitudeDegrees>40.82796410657465457916259765625</LatitudeDegrees>
              <LongitudeDegrees>-0.83697787486016750335693359375</LongitudeDegrees>
            </Position>
            <AltitudeMeters>885.20001220703125</AltitudeMeters>
            <DistanceMeters>639797.14170771</DistanceMeters>
          </Trackpoint>
          <Trackpoint>
            <Time>2021-08-04T14:44:43.000Z</Time>
            <Position>
              <LatitudeDegrees>40.82778171636164188385009765625</LatitudeDegrees>
              <LongitudeDegrees>-0.83722245879471302032470703125</LongitudeDegrees>
            </Position>
            <AltitudeMeters>886.4000244140625</AltitudeMeters>
            <DistanceMeters>639826.06247586</DistanceMeters>
          </Trackpoint>
          <Trackpoint>
            <Time>2021-08-04T14:44:52.000Z</Time>
            <Position>
              <LatitudeDegrees>40.8276322670280933380126953125</LatitudeDegrees>
              <LongitudeDegrees>-0.83745279349386692047119140625</LongitudeDegrees>
            </Position>
            <AltitudeMeters>887.5999755859375</AltitudeMeters>
            <DistanceMeters>639851.61635909</DistanceMeters>
          </Trackpoint>
          <Trackpoint>
            <Time>2021-08-04T14:45:01.000Z</Time>
            <Position>
              <LatitudeDegrees>40.8274864219129085540771484375</LatitudeDegrees>
              <LongitudeDegrees>-0.83769838325679302215576171875</LongitudeDegrees>
            </Position>
            <AltitudeMeters>888.5999755859375</AltitudeMeters>
            <DistanceMeters>639877.90923954</DistanceMeters>
          </Trackpoint>
          <Trackpoint>
            <Time>2021-08-04T14:45:13.000Z</Time>
            <Position>
              <LatitudeDegrees>40.82728768698871135711669921875</LatitudeDegrees>
              <LongitudeDegrees>-0.83803583867847919464111328125</LongitudeDegrees>
            </Position>
            <AltitudeMeters>889.79998779296875</AltitudeMeters>
            <DistanceMeters>639913.92323598</DistanceMeters>
          </Trackpoint>
          <Trackpoint>
            <Time>2021-08-04T14:45:19.000Z</Time>
            <Position>
              <LatitudeDegrees>40.82718609832227230072021484375</LatitudeDegrees>
              <LongitudeDegrees>-0.83821772597730159759521484375</LongitudeDegrees>
            </Position>
            <AltitudeMeters>890.79998779296875</AltitudeMeters>
            <DistanceMeters>639932.96323202</DistanceMeters>
          </Trackpoint>
          <Trackpoint>
            <Time>2021-08-04T14:45:37.000Z</Time>
            <Position>
              <LatitudeDegrees>40.82684394903481006622314453125</LatitudeDegrees>
              <LongitudeDegrees>-0.8387705124914646148681640625</LongitudeDegrees>
            </Position>
            <AltitudeMeters>890.20001220703125</AltitudeMeters>
            <DistanceMeters>639993.11056334</DistanceMeters>
          </Trackpoint>
          <Trackpoint>
            <Time>2021-08-04T14:45:42.000Z</Time>
            <Position>
              <LatitudeDegrees>40.82676817663013935089111328125</LatitudeDegrees>
              <LongitudeDegrees>-0.83896757103502750396728515625</LongitudeDegrees>
            </Position>
            <AltitudeMeters>889.79998779296875</AltitudeMeters>
            <DistanceMeters>640011.72707037</DistanceMeters>
          </Trackpoint>
          <Trackpoint>
            <Time>2021-08-04T14:46:00.000Z</Time>
            <Position>
              <LatitudeDegrees>40.8267062343657016754150390625</LatitudeDegrees>
              <LongitudeDegrees>-0.8396802842617034912109375</LongitudeDegrees>
            </Position>
            <AltitudeMeters>891</AltitudeMeters>
            <DistanceMeters>640072.14717467</DistanceMeters>
          </Trackpoint>
          <Trackpoint>
            <Time>2021-08-04T14:46:18.000Z</Time>
            <Position>
              <LatitudeDegrees>40.82671151496469974517822265625</LatitudeDegrees>
              <LongitudeDegrees>-0.8404009602963924407958984375</LongitudeDegrees>
            </Position>
            <AltitudeMeters>892.20001220703125</AltitudeMeters>
            <DistanceMeters>640132.84626486</DistanceMeters>
          </Trackpoint>
          <Trackpoint>
            <Time>2021-08-04T14:46:25.000Z</Time>
            <Position>
              <LatitudeDegrees>40.82670606672763824462890625</LatitudeDegrees>
              <LongitudeDegrees>-0.84067379124462604522705078125</LongitudeDegrees>
            </Position>
            <AltitudeMeters>892.4000244140625</AltitudeMeters>
            <DistanceMeters>640155.83251799</DistanceMeters>
          </Trackpoint>
          <Trackpoint>
            <Time>2021-08-04T14:46:38.000Z</Time>
            <Position>
              <LatitudeDegrees>40.82667547278106212615966796875</LatitudeDegrees>
              <LongitudeDegrees>-0.84117896854877471923828125</LongitudeDegrees>
            </Position>
            <AltitudeMeters>893.4000244140625</AltitudeMeters>
            <DistanceMeters>640198.51527707</DistanceMeters>
          </Trackpoint>
          <Trackpoint>
            <Time>2021-08-04T14:46:44.000Z</Time>
            <Position>
              <LatitudeDegrees>40.82663943059742450714111328125</LatitudeDegrees>
              <LongitudeDegrees>-0.84140184335410594940185546875</LongitudeDegrees>
            </Position>
            <AltitudeMeters>894.4000244140625</AltitudeMeters>
            <DistanceMeters>640217.71020294</DistanceMeters>
          </Trackpoint>
          <Trackpoint>
            <Time>2021-08-04T14:46:50.000Z</Time>
            <Position>
              <LatitudeDegrees>40.82661487162113189697265625</LatitudeDegrees>
              <LongitudeDegrees>-0.84161491133272647857666015625</LongitudeDegrees>
            </Position>
            <AltitudeMeters>895.4000244140625</AltitudeMeters>
            <DistanceMeters>640235.86204663</DistanceMeters>
          </Trackpoint>
          <Trackpoint>
            <Time>2021-08-04T14:46:57.000Z</Time>
            <Position>
              <LatitudeDegrees>40.8265811763703823089599609375</LatitudeDegrees>
              <LongitudeDegrees>-0.8418369479477405548095703125</LongitudeDegrees>
            </Position>
            <AltitudeMeters>896.4000244140625</AltitudeMeters>
            <DistanceMeters>640254.93450241</DistanceMeters>
          </Trackpoint>
          <Trackpoint>
            <Time>2021-08-04T14:47:03.000Z</Time>
            <Position>
              <LatitudeDegrees>40.8265724591910839080810546875</LatitudeDegrees>
              <LongitudeDegrees>-0.8420377783477306365966796875</LongitudeDegrees>
            </Position>
            <AltitudeMeters>897.5999755859375</AltitudeMeters>
            <DistanceMeters>640271.87646244</DistanceMeters>
          </Trackpoint>
          <Trackpoint>
            <Time>2021-08-04T14:47:18.000Z</Time>
            <Position>
              <LatitudeDegrees>40.82659198902547359466552734375</LatitudeDegrees>
              <LongitudeDegrees>-0.84251211024820804595947265625</LongitudeDegrees>
            </Position>
            <AltitudeMeters>899</AltitudeMeters>
            <DistanceMeters>640311.88440203</DistanceMeters>
          </Trackpoint>
          <Trackpoint>
            <Time>2021-08-04T14:47:28.000Z</Time>
            <Position>
              <LatitudeDegrees>40.82659852690994739532470703125</LatitudeDegrees>
              <LongitudeDegrees>-0.8427690155804157257080078125</LongitudeDegrees>
            </Position>
            <AltitudeMeters>900.20001220703125</AltitudeMeters>
            <DistanceMeters>640333.53339802</DistanceMeters>
          </Trackpoint>
          <Trackpoint>
            <Time>2021-08-04T14:47:35.000Z</Time>
            <Position>
              <LatitudeDegrees>40.8266110159456729888916015625</LatitudeDegrees>
              <LongitudeDegrees>-0.84294629283249378204345703125</LongitudeDegrees>
            </Position>
            <AltitudeMeters>901.20001220703125</AltitudeMeters>
            <DistanceMeters>640348.52836063</DistanceMeters>
          </Trackpoint>
          <Trackpoint>
            <Time>2021-08-04T14:47:45.000Z</Time>
            <Position>
              <LatitudeDegrees>40.82662501372396945953369140625</LatitudeDegrees>
              <LongitudeDegrees>-0.84320261143147945404052734375</LongitudeDegrees>
            </Position>
            <AltitudeMeters>902.4000244140625</AltitudeMeters>
            <DistanceMeters>640370.17193348</DistanceMeters>
          </Trackpoint>
          <Trackpoint>
            <Time>2021-08-04T14:47:55.000Z</Time>
            <Position>
              <LatitudeDegrees>40.82664362154901027679443359375</LatitudeDegrees>
              <LongitudeDegrees>-0.843447111546993255615234375</LongitudeDegrees>
            </Position>
            <AltitudeMeters>903.5999755859375</AltitudeMeters>
            <DistanceMeters>640390.86813231</DistanceMeters>
          </Trackpoint>
          <Trackpoint>
            <Time>2021-08-04T14:48:04.000Z</Time>
            <Position>
              <LatitudeDegrees>40.8266718685626983642578125</LatitudeDegrees>
              <LongitudeDegrees>-0.84367208182811737060546875</LongitudeDegrees>
            </Position>
            <AltitudeMeters>904.79998779296875</AltitudeMeters>
            <DistanceMeters>640410.07434543</DistanceMeters>
          </Trackpoint>
          <Trackpoint>
            <Time>2021-08-04T14:48:13.000Z</Time>
            <Position>
              <LatitudeDegrees>40.8267032168805599212646484375</LatitudeDegrees>
              <LongitudeDegrees>-0.8438831381499767303466796875</LongitudeDegrees>
            </Position>
            <AltitudeMeters>905.79998779296875</AltitudeMeters>
            <DistanceMeters>640428.18859087</DistanceMeters>
          </Trackpoint>
          <Trackpoint>
            <Time>2021-08-04T14:48:24.000Z</Time>
            <Position>
              <LatitudeDegrees>40.82672484219074249267578125</LatitudeDegrees>
              <LongitudeDegrees>-0.8441389538347721099853515625</LongitudeDegrees>
            </Position>
            <AltitudeMeters>906.79998779296875</AltitudeMeters>
            <DistanceMeters>640449.8675982</DistanceMeters>
          </Trackpoint>
          <Trackpoint>
            <Time>2021-08-04T14:48:31.000Z</Time>
            <Position>
              <LatitudeDegrees>40.8267501555383205413818359375</LatitudeDegrees>
              <LongitudeDegrees>-0.84430952556431293487548828125</LongitudeDegrees>
            </Position>
            <AltitudeMeters>907.79998779296875</AltitudeMeters>
            <DistanceMeters>640464.50726467</DistanceMeters>
          </Trackpoint>
          <Trackpoint>
            <Time>2021-08-04T14:48:38.000Z</Time>
            <Position>
              <LatitudeDegrees>40.8268041349947452545166015625</LatitudeDegrees>
              <LongitudeDegrees>-0.844473727047443389892578125</LongitudeDegrees>
            </Position>
            <AltitudeMeters>909</AltitudeMeters>
            <DistanceMeters>640479.58510286</DistanceMeters>
          </Trackpoint>
          <Trackpoint>
            <Time>2021-08-04T14:48:45.000Z</Time>
            <Position>
              <LatitudeDegrees>40.826876722276210784912109375</LatitudeDegrees>
              <LongitudeDegrees>-0.84461898542940616607666015625</LongitudeDegrees>
            </Position>
            <AltitudeMeters>910.4000244140625</AltitudeMeters>
            <DistanceMeters>640494.24634222</DistanceMeters>
          </Trackpoint>
          <Trackpoint>
            <Time>2021-08-04T14:48:47.000Z</Time>
            <Position>
              <LatitudeDegrees>40.8268809132277965545654296875</LatitudeDegrees>
              <LongitudeDegrees>-0.84467128850519657135009765625</LongitudeDegrees>
            </Position>
            <AltitudeMeters>911.4000244140625</AltitudeMeters>
            <DistanceMeters>640498.67707424</DistanceMeters>
          </Trackpoint>
          <Trackpoint>
            <Time>2021-08-04T14:48:51.000Z</Time>
            <Position>
              <LatitudeDegrees>40.82685434259474277496337890625</LatitudeDegrees>
              <LongitudeDegrees>-0.84476910531520843505859375</LongitudeDegrees>
            </Position>
            <AltitudeMeters>912.4000244140625</AltitudeMeters>
            <DistanceMeters>640507.42985485</DistanceMeters>
          </Trackpoint>
          <Trackpoint>
            <Time>2021-08-04T14:49:12.000Z</Time>
            <Position>
              <LatitudeDegrees>40.82633784972131252288818359375</LatitudeDegrees>
              <LongitudeDegrees>-0.84488234482705593109130859375</LongitudeDegrees>
            </Position>
            <AltitudeMeters>913.4000244140625</AltitudeMeters>
            <DistanceMeters>640565.70230955</DistanceMeters>
          </Trackpoint>
          <Trackpoint>
            <Time>2021-08-04T14:49:13.000Z</Time>
            <Position>
              <LatitudeDegrees>40.8263109438121318817138671875</LatitudeDegrees>
              <LongitudeDegrees>-0.8448708616197109222412109375</LongitudeDegrees>
            </Position>
            <AltitudeMeters>913.4000244140625</AltitudeMeters>
            <DistanceMeters>640568.84968844</DistanceMeters>
          </Trackpoint>
          <Trackpoint>
            <Time>2021-08-04T14:49:30.000Z</Time>
            <Position>
              <LatitudeDegrees>40.82576435990631580352783203125</LatitudeDegrees>
              <LongitudeDegrees>-0.84473289549350738525390625</LongitudeDegrees>
            </Position>
            <AltitudeMeters>913.79998779296875</AltitudeMeters>
            <DistanceMeters>640630.78531327</DistanceMeters>
          </Trackpoint>
          <Trackpoint>
            <Time>2021-08-04T14:49:45.000Z</Time>
            <Position>
              <LatitudeDegrees>40.825217105448246002197265625</LatitudeDegrees>
              <LongitudeDegrees>-0.84468863904476165771484375</LongitudeDegrees>
            </Position>
            <AltitudeMeters>913.4000244140625</AltitudeMeters>
            <DistanceMeters>640691.80977939</DistanceMeters>
          </Trackpoint>
          <Trackpoint>
            <Time>2021-08-04T14:49:59.000Z</Time>
            <Position>
              <LatitudeDegrees>40.8247582800686359405517578125</LatitudeDegrees>
              <LongitudeDegrees>-0.84441262297332286834716796875</LongitudeDegrees>
            </Position>
            <AltitudeMeters>914.4000244140625</AltitudeMeters>
            <DistanceMeters>640747.92029831</DistanceMeters>
          </Trackpoint>
          <Trackpoint>
            <Time>2021-08-04T14:50:03.000Z</Time>
            <Position>
              <LatitudeDegrees>40.82466683350503444671630859375</LatitudeDegrees>
              <LongitudeDegrees>-0.8442757464945316314697265625</LongitudeDegrees>
            </Position>
            <AltitudeMeters>914.79998779296875</AltitudeMeters>
            <DistanceMeters>640763.29878009</DistanceMeters>
          </Trackpoint>
          <Trackpoint>
            <Time>2021-08-04T14:50:06.000Z</Time>
            <Position>
              <LatitudeDegrees>40.82460011355578899383544921875</LatitudeDegrees>
              <LongitudeDegrees>-0.84417658858001232147216796875</LongitudeDegrees>
            </Position>
            <AltitudeMeters>915.20001220703125</AltitudeMeters>
            <DistanceMeters>640774.47401867</DistanceMeters>
          </Trackpoint>
          <Trackpoint>
            <Time>2021-08-04T14:50:10.000Z</Time>
            <Position>
              <LatitudeDegrees>40.824492909014225006103515625</LatitudeDegrees>
              <LongitudeDegrees>-0.84405773319303989410400390625</LongitudeDegrees>
            </Position>
            <AltitudeMeters>916</AltitudeMeters>
            <DistanceMeters>640790.04912617</DistanceMeters>
          </Trackpoint>
          <Trackpoint>
            <Time>2021-08-04T14:50:16.000Z</Time>
            <Position>
              <LatitudeDegrees>40.82429610192775726318359375</LatitudeDegrees>
              <LongitudeDegrees>-0.84387232549488544464111328125</LongitudeDegrees>
            </Position>
            <AltitudeMeters>916</AltitudeMeters>
            <DistanceMeters>640816.95058312</DistanceMeters>
          </Trackpoint>
          <Trackpoint>
            <Time>2021-08-04T14:50:30.000Z</Time>
            <Position>
              <LatitudeDegrees>40.82398362457752227783203125</LatitudeDegrees>
              <LongitudeDegrees>-0.84328961558640003204345703125</LongitudeDegrees>
            </Position>
            <AltitudeMeters>915.79998779296875</AltitudeMeters>
            <DistanceMeters>640877.10279356</DistanceMeters>
          </Trackpoint>
          <Trackpoint>
            <Time>2021-08-04T14:50:45.000Z</Time>
            <Position>
              <LatitudeDegrees>40.823618508875370025634765625</LatitudeDegrees>
              <LongitudeDegrees>-0.84274537861347198486328125</LongitudeDegrees>
            </Position>
            <AltitudeMeters>917</AltitudeMeters>
            <DistanceMeters>640938.36120317</DistanceMeters>
          </Trackpoint>
          <Trackpoint>
            <Time>2021-08-04T14:51:00.000Z</Time>
            <Position>
              <LatitudeDegrees>40.82328516058623790740966796875</LatitudeDegrees>
              <LongitudeDegrees>-0.84219058044254779815673828125</LongitudeDegrees>
            </Position>
            <AltitudeMeters>918.20001220703125</AltitudeMeters>
            <DistanceMeters>640998.02768939</DistanceMeters>
          </Trackpoint>
          <Trackpoint>
            <Time>2021-08-04T14:51:15.000Z</Time>
            <Position>
              <LatitudeDegrees>40.8227955736219882965087890625</LatitudeDegrees>
              <LongitudeDegrees>-0.84205848164856433868408203125</LongitudeDegrees>
            </Position>
            <AltitudeMeters>919.4000244140625</AltitudeMeters>
            <DistanceMeters>641053.64389553</DistanceMeters>
          </Trackpoint>
          <Trackpoint>
            <Time>2021-08-04T14:51:31.000Z</Time>
            <Position>
              <LatitudeDegrees>40.82225619815289974212646484375</LatitudeDegrees>
              <LongitudeDegrees>-0.8422392792999744415283203125</LongitudeDegrees>
            </Position>
            <AltitudeMeters>919.20001220703125</AltitudeMeters>
            <DistanceMeters>641115.57857267</DistanceMeters>
          </Trackpoint>
          <Trackpoint>
            <Time>2021-08-04T14:51:46.000Z</Time>
            <Position>
              <LatitudeDegrees>40.8217542059719562530517578125</LatitudeDegrees>
              <LongitudeDegrees>-0.841918252408504486083984375</LongitudeDegrees>
            </Position>
            <AltitudeMeters>920.20001220703125</AltitudeMeters>
            <DistanceMeters>641177.65007778</DistanceMeters>
          </Trackpoint>
          <Trackpoint>
            <Time>2021-08-04T14:51:48.000Z</Time>
            <Position>
              <LatitudeDegrees>40.82169075496494770050048828125</LatitudeDegrees>
              <LongitudeDegrees>-0.84187173284590244293212890625</LongitudeDegrees>
            </Position>
            <AltitudeMeters>920.4000244140625</AltitudeMeters>
            <DistanceMeters>641185.72623046</DistanceMeters>
          </Trackpoint>
          <Trackpoint>
            <Time>2021-08-04T14:52:02.000Z</Time>
            <Position>
              <LatitudeDegrees>40.821230001747608184814453125</LatitudeDegrees>
              <LongitudeDegrees>-0.8416056074202060699462890625</LongitudeDegrees>
            </Position>
            <AltitudeMeters>921.20001220703125</AltitudeMeters>
            <DistanceMeters>641241.69373842</DistanceMeters>
          </Trackpoint>
          <Trackpoint>
            <Time>2021-08-04T14:52:05.000Z</Time>
            <Position>
              <LatitudeDegrees>40.82110100425779819488525390625</LatitudeDegrees>
              <LongitudeDegrees>-0.84161616861820220947265625</LongitudeDegrees>
            </Position>
            <AltitudeMeters>921</AltitudeMeters>
            <DistanceMeters>641256.07891244</DistanceMeters>
          </Trackpoint>
          <Trackpoint>
            <Time>2021-08-04T14:52:12.000Z</Time>
            <Position>
              <LatitudeDegrees>40.82083244808018207550048828125</LatitudeDegrees>
              <LongitudeDegrees>-0.84162128157913684844970703125</LongitudeDegrees>
            </Position>
            <AltitudeMeters>921.5999755859375</AltitudeMeters>
            <DistanceMeters>641285.97293334</DistanceMeters>
          </Trackpoint>
          <Trackpoint>
            <Time>2021-08-04T14:52:16.000Z</Time>
            <Position>
              <LatitudeDegrees>40.82069498486816883087158203125</LatitudeDegrees>
              <LongitudeDegrees>-0.84165380336344242095947265625</LongitudeDegrees>
            </Position>
            <AltitudeMeters>922.79998779296875</AltitudeMeters>
            <DistanceMeters>641301.51612044</DistanceMeters>
          </Trackpoint>
          <Trackpoint>
            <Time>2021-08-04T14:52:31.000Z</Time>
            <Position>
              <LatitudeDegrees>40.82017547450959682464599609375</LatitudeDegrees>
              <LongitudeDegrees>-0.84173108451068401336669921875</LongitudeDegrees>
            </Position>
            <AltitudeMeters>923.79998779296875</AltitudeMeters>
            <DistanceMeters>641359.7039038</DistanceMeters>
          </Trackpoint>
          <Trackpoint>
            <Time>2021-08-04T14:52:46.000Z</Time>
            <Position>
              <LatitudeDegrees>40.81961103715002536773681640625</LatitudeDegrees>
              <LongitudeDegrees>-0.8416287414729595184326171875</LongitudeDegrees>
            </Position>
            <AltitudeMeters>924.5999755859375</AltitudeMeters>
            <DistanceMeters>641423.11556566</DistanceMeters>
          </Trackpoint>
          <Trackpoint>
            <Time>2021-08-04T14:52:53.000Z</Time>
            <Position>
              <LatitudeDegrees>40.8193603344261646270751953125</LatitudeDegrees>
              <LongitudeDegrees>-0.84155305288732051849365234375</LongitudeDegrees>
            </Position>
            <AltitudeMeters>925.20001220703125</AltitudeMeters>
            <DistanceMeters>641451.73833135</DistanceMeters>
          </Trackpoint>
          <Trackpoint>
            <Time>2021-08-04T14:53:08.000Z</Time>
            <Position>
              <LatitudeDegrees>40.81881274469196796417236328125</LatitudeDegrees>
              <LongitudeDegrees>-0.84155774675309658050537109375</LongitudeDegrees>
            </Position>
            <AltitudeMeters>926</AltitudeMeters>
            <DistanceMeters>641512.68743181</DistanceMeters>
          </Trackpoint>
          <Trackpoint>
            <Time>2021-08-04T14:53:13.000Z</Time>
            <Position>
              <LatitudeDegrees>40.81863001920282840728759765625</LatitudeDegrees>
              <LongitudeDegrees>-0.841527990996837615966796875</LongitudeDegrees>
            </Position>
            <AltitudeMeters>926.4000244140625</AltitudeMeters>
            <DistanceMeters>641533.17885818</DistanceMeters>
          </Trackpoint>
          <Trackpoint>
            <Time>2021-08-04T14:53:28.000Z</Time>
            <Position>
              <LatitudeDegrees>40.8180846087634563446044921875</LatitudeDegrees>
              <LongitudeDegrees>-0.84144316613674163818359375</LongitudeDegrees>
            </Position>
            <AltitudeMeters>927.20001220703125</AltitudeMeters>
            <DistanceMeters>641594.30305174</DistanceMeters>
          </Trackpoint>
          <Trackpoint>
            <Time>2021-08-04T14:53:40.000Z</Time>
            <Position>
              <LatitudeDegrees>40.81766241230070590972900390625</LatitudeDegrees>
              <LongitudeDegrees>-0.8414896018803119659423828125</LongitudeDegrees>
            </Position>
            <AltitudeMeters>927.4000244140625</AltitudeMeters>
            <DistanceMeters>641641.45679733</DistanceMeters>
          </Trackpoint>
          <Trackpoint>
            <Time>2021-08-04T14:54:05.000Z</Time>
            <Position>
              <LatitudeDegrees>40.81681542098522186279296875</LatitudeDegrees>
              <LongitudeDegrees>-0.84170862101018428802490234375</LongitudeDegrees>
            </Position>
            <AltitudeMeters>929.4000244140625</AltitudeMeters>
            <DistanceMeters>641737.51682073</DistanceMeters>
          </Trackpoint>
          <Trackpoint>
            <Time>2021-08-04T14:54:13.000Z</Time>
            <Position>
              <LatitudeDegrees>40.8165765367448329925537109375</LatitudeDegrees>
              <LongitudeDegrees>-0.84195856936275959014892578125</LongitudeDegrees>
            </Position>
            <AltitudeMeters>929.79998779296875</AltitudeMeters>
            <DistanceMeters>641771.43177388</DistanceMeters>
          </Trackpoint>
          <Trackpoint>
            <Time>2021-08-04T14:54:21.000Z</Time>
            <Position>
              <LatitudeDegrees>40.816314518451690673828125</LatitudeDegrees>
              <LongitudeDegrees>-0.84211765788495540618896484375</LongitudeDegrees>
            </Position>
            <AltitudeMeters>930.79998779296875</AltitudeMeters>
            <DistanceMeters>641803.52647515</DistanceMeters>
          </Trackpoint>
          <Trackpoint>
            <Time>2021-08-04T14:54:36.000Z</Time>
            <Position>
              <LatitudeDegrees>40.8158007077872753143310546875</LatitudeDegrees>
              <LongitudeDegrees>-0.84193543531000614166259765625</LongitudeDegrees>
            </Position>
            <AltitudeMeters>931</AltitudeMeters>
            <DistanceMeters>641862.73871815</DistanceMeters>
          </Trackpoint>
          <Trackpoint>
            <Time>2021-08-04T14:54:51.000Z</Time>
            <Position>
              <LatitudeDegrees>40.815410278737545013427734375</LatitudeDegrees>
              <LongitudeDegrees>-0.84139077924191951751708984375</LongitudeDegrees>
            </Position>
            <AltitudeMeters>931.4000244140625</AltitudeMeters>
            <DistanceMeters>641925.93119741</DistanceMeters>
          </Trackpoint>
          <Trackpoint>
            <Time>2021-08-04T14:54:56.000Z</Time>
            <Position>
              <LatitudeDegrees>40.8152310736477375030517578125</LatitudeDegrees>
              <LongitudeDegrees>-0.84133411757647991180419921875</LongitudeDegrees>
            </Position>
            <AltitudeMeters>931.79998779296875</AltitudeMeters>
            <DistanceMeters>641946.44024324</DistanceMeters>
          </Trackpoint>
          <Trackpoint>
            <Time>2021-08-04T14:55:01.000Z</Time>
            <Position>
              <LatitudeDegrees>40.81506469286978244781494140625</LatitudeDegrees>
              <LongitudeDegrees>-0.84138214588165283203125</LongitudeDegrees>
            </Position>
            <AltitudeMeters>933</AltitudeMeters>
            <DistanceMeters>641965.39563144</DistanceMeters>
          </Trackpoint>
          <Trackpoint>
            <Time>2021-08-04T14:55:16.000Z</Time>
            <Position>
              <LatitudeDegrees>40.81470460630953311920166015625</LatitudeDegrees>
              <LongitudeDegrees>-0.8418662846088409423828125</LongitudeDegrees>
            </Position>
            <AltitudeMeters>932.4000244140625</AltitudeMeters>
            <DistanceMeters>642022.57471448</DistanceMeters>
          </Trackpoint>
          <Trackpoint>
            <Time>2021-08-04T14:55:32.000Z</Time>
            <Position>
              <LatitudeDegrees>40.81473997794091701507568359375</LatitudeDegrees>
              <LongitudeDegrees>-0.8425708673894405364990234375</LongitudeDegrees>
            </Position>
            <AltitudeMeters>933.20001220703125</AltitudeMeters>
            <DistanceMeters>642082.05657988</DistanceMeters>
          </Trackpoint>
          <Trackpoint>
            <Time>2021-08-04T14:55:48.000Z</Time>
            <Position>
              <LatitudeDegrees>40.81505228765308856964111328125</LatitudeDegrees>
              <LongitudeDegrees>-0.843173526227474212646484375</LongitudeDegrees>
            </Position>
            <AltitudeMeters>934</AltitudeMeters>
            <DistanceMeters>642143.58269</DistanceMeters>
          </Trackpoint>
          <Trackpoint>
            <Time>2021-08-04T14:55:49.000Z</Time>
            <Position>
              <LatitudeDegrees>40.81507324241101741790771484375</LatitudeDegrees>
              <LongitudeDegrees>-0.8432115800678730010986328125</LongitudeDegrees>
            </Position>
            <AltitudeMeters>934.20001220703125</AltitudeMeters>
            <DistanceMeters>642147.54770741</DistanceMeters>
          </Trackpoint>
          <Trackpoint>
            <Time>2021-08-04T14:56:01.000Z</Time>
            <Position>
              <LatitudeDegrees>40.81509587354958057403564453125</LatitudeDegrees>
              <LongitudeDegrees>-0.8437379635870456695556640625</LongitudeDegrees>
            </Position>
            <AltitudeMeters>935.20001220703125</AltitudeMeters>
            <DistanceMeters>642191.95966005</DistanceMeters>
          </Trackpoint>
          <Trackpoint>
            <Time>2021-08-04T14:56:14.000Z</Time>
            <Position>
              <LatitudeDegrees>40.81475154496729373931884765625</LatitudeDegrees>
              <LongitudeDegrees>-0.844186730682849884033203125</LongitudeDegrees>
            </Position>
            <AltitudeMeters>936.4000244140625</AltitudeMeters>
            <DistanceMeters>642245.79076306</DistanceMeters>
          </Trackpoint>
          <Trackpoint>
            <Time>2021-08-04T14:56:30.000Z</Time>
            <Position>
              <LatitudeDegrees>40.814281404018402099609375</LatitudeDegrees>
              <LongitudeDegrees>-0.844592414796352386474609375</LongitudeDegrees>
            </Position>
            <AltitudeMeters>937</AltitudeMeters>
            <DistanceMeters>642308.28880076</DistanceMeters>
          </Trackpoint>
          <Trackpoint>
            <Time>2021-08-04T14:56:36.000Z</Time>
            <Position>
              <LatitudeDegrees>40.81407780759036540985107421875</LatitudeDegrees>
              <LongitudeDegrees>-0.8446163870394229888916015625</LongitudeDegrees>
            </Position>
            <AltitudeMeters>937.4000244140625</AltitudeMeters>
            <DistanceMeters>642331.03931551</DistanceMeters>
          </Trackpoint>
          <Trackpoint>
            <Time>2021-08-04T14:56:43.000Z</Time>
            <Position>
              <LatitudeDegrees>40.81389189697802066802978515625</LatitudeDegrees>
              <LongitudeDegrees>-0.8448125235736370086669921875</LongitudeDegrees>
            </Position>
            <AltitudeMeters>937.79998779296875</AltitudeMeters>
            <DistanceMeters>642357.51853974</DistanceMeters>
          </Trackpoint>
          <Trackpoint>
            <Time>2021-08-04T14:56:53.000Z</Time>
            <Position>
              <LatitudeDegrees>40.81390321254730224609375</LatitudeDegrees>
              <LongitudeDegrees>-0.84527227096259593963623046875</LongitudeDegrees>
            </Position>
            <AltitudeMeters>937.79998779296875</AltitudeMeters>
            <DistanceMeters>642396.26684048</DistanceMeters>
          </Trackpoint>
          <Trackpoint>
            <Time>2021-08-04T14:57:02.000Z</Time>
            <Position>
              <LatitudeDegrees>40.814026929438114166259765625</LatitudeDegrees>
              <LongitudeDegrees>-0.84566823206841945648193359375</LongitudeDegrees>
            </Position>
            <AltitudeMeters>938.4000244140625</AltitudeMeters>
            <DistanceMeters>642432.35222649</DistanceMeters>
          </Trackpoint>
          <Trackpoint>
            <Time>2021-08-04T14:57:18.000Z</Time>
            <Position>
              <LatitudeDegrees>40.81426556222140789031982421875</LatitudeDegrees>
              <LongitudeDegrees>-0.846331156790256500244140625</LongitudeDegrees>
            </Position>
            <AltitudeMeters>939.20001220703125</AltitudeMeters>
            <DistanceMeters>642494.18972459</DistanceMeters>
          </Trackpoint>
          <Trackpoint>
            <Time>2021-08-04T14:57:21.000Z</Time>
            <Position>
              <LatitudeDegrees>40.81431535072624683380126953125</LatitudeDegrees>
              <LongitudeDegrees>-0.84645411930978298187255859375</LongitudeDegrees>
            </Position>
            <AltitudeMeters>939.5999755859375</AltitudeMeters>
            <DistanceMeters>642505.93696376</DistanceMeters>
          </Trackpoint>
          <Trackpoint>
            <Time>2021-08-04T14:57:28.000Z</Time>
            <Position>
              <LatitudeDegrees>40.814403779804706573486328125</LatitudeDegrees>
              <LongitudeDegrees>-0.8467532694339752197265625</LongitudeDegrees>
            </Position>
            <AltitudeMeters>940.5999755859375</AltitudeMeters>
            <DistanceMeters>642532.99038676</DistanceMeters>
          </Trackpoint>
          <Trackpoint>
            <Time>2021-08-04T14:57:35.000Z</Time>
            <Position>
              <LatitudeDegrees>40.81437729299068450927734375</LatitudeDegrees>
              <LongitudeDegrees>-0.8470484800636768341064453125</LongitudeDegrees>
            </Position>
            <AltitudeMeters>941.5999755859375</AltitudeMeters>
            <DistanceMeters>642558.03222492</DistanceMeters>
          </Trackpoint>
          <Trackpoint>
            <Time>2021-08-04T14:57:52.000Z</Time>
            <Position>
              <LatitudeDegrees>40.8138453774154186248779296875</LatitudeDegrees>
              <LongitudeDegrees>-0.8471165411174297332763671875</LongitudeDegrees>
            </Position>
            <AltitudeMeters>942.4000244140625</AltitudeMeters>
            <DistanceMeters>642617.51242037</DistanceMeters>
          </Trackpoint>
          <Trackpoint>
            <Time>2021-08-04T14:57:56.000Z</Time>
            <Position>
              <LatitudeDegrees>40.81373691558837890625</LatitudeDegrees>
              <LongitudeDegrees>-0.84699290804564952850341796875</LongitudeDegrees>
            </Position>
            <AltitudeMeters>942.79998779296875</AltitudeMeters>
            <DistanceMeters>642633.45568295</DistanceMeters>
          </Trackpoint>
          <Trackpoint>
            <Time>2021-08-04T14:58:06.000Z</Time>
            <Position>
              <LatitudeDegrees>40.81348604522645473480224609375</LatitudeDegrees>
              <LongitudeDegrees>-0.8468701131641864776611328125</LongitudeDegrees>
            </Position>
            <AltitudeMeters>943.79998779296875</AltitudeMeters>
            <DistanceMeters>642663.23257342</DistanceMeters>
          </Trackpoint>
          <Trackpoint>
            <Time>2021-08-04T14:58:09.000Z</Time>
            <Position>
              <LatitudeDegrees>40.81342452205717563629150390625</LatitudeDegrees>
              <LongitudeDegrees>-0.84687991999089717864990234375</LongitudeDegrees>
            </Position>
            <AltitudeMeters>945</AltitudeMeters>
            <DistanceMeters>642670.13036095</DistanceMeters>
          </Trackpoint>
          <Trackpoint>
            <Time>2021-08-04T14:58:12.000Z</Time>
            <Position>
              <LatitudeDegrees>40.8133813552558422088623046875</LatitudeDegrees>
              <LongitudeDegrees>-0.846909843385219573974609375</LongitudeDegrees>
            </Position>
            <AltitudeMeters>946</AltitudeMeters>
            <DistanceMeters>642675.55521294</DistanceMeters>
          </Trackpoint>
          <Trackpoint>
            <Time>2021-08-04T14:58:19.000Z</Time>
            <Position>
              <LatitudeDegrees>40.81327892839908599853515625</LatitudeDegrees>
              <LongitudeDegrees>-0.84702358581125736236572265625</LongitudeDegrees>
            </Position>
            <AltitudeMeters>947.20001220703125</AltitudeMeters>
            <DistanceMeters>642690.44684204</DistanceMeters>
          </Trackpoint>
          <Trackpoint>
            <Time>2021-08-04T14:58:36.000Z</Time>
            <Position>
              <LatitudeDegrees>40.81293082796037197113037109375</LatitudeDegrees>
              <LongitudeDegrees>-0.8474038727581501007080078125</LongitudeDegrees>
            </Position>
            <AltitudeMeters>948.79998779296875</AltitudeMeters>
            <DistanceMeters>642740.7194767</DistanceMeters>
          </Trackpoint>
          <Trackpoint>
            <Time>2021-08-04T14:58:38.000Z</Time>
            <Position>
              <LatitudeDegrees>40.8128918521106243133544921875</LatitudeDegrees>
              <LongitudeDegrees>-0.8474399149417877197265625</LongitudeDegrees>
            </Position>
            <AltitudeMeters>949.4000244140625</AltitudeMeters>
            <DistanceMeters>642746.01545795</DistanceMeters>
          </Trackpoint>
          <Trackpoint>
            <Time>2021-08-04T14:58:40.000Z</Time>
            <Position>
              <LatitudeDegrees>40.81285103224217891693115234375</LatitudeDegrees>
              <LongitudeDegrees>-0.84745776839554309844970703125</LongitudeDegrees>
            </Position>
            <AltitudeMeters>949.79998779296875</AltitudeMeters>
            <DistanceMeters>642750.80088101</DistanceMeters>
          </Trackpoint>
          <Trackpoint>
            <Time>2021-08-04T14:58:41.000Z</Time>
            <Position>
              <LatitudeDegrees>40.81283225677907466888427734375</LatitudeDegrees>
              <LongitudeDegrees>-0.84744821302592754364013671875</LongitudeDegrees>
            </Position>
            <AltitudeMeters>950</AltitudeMeters>
            <DistanceMeters>642753.04157789</DistanceMeters>
          </Trackpoint>
          <Trackpoint>
            <Time>2021-08-04T14:59:01.000Z</Time>
            <Position>
              <LatitudeDegrees>40.81249010749161243438720703125</LatitudeDegrees>
              <LongitudeDegrees>-0.84686458110809326171875</LongitudeDegrees>
            </Position>
            <AltitudeMeters>950.4000244140625</AltitudeMeters>
            <DistanceMeters>642815.2298652</DistanceMeters>
          </Trackpoint>
          <Trackpoint>
            <Time>2021-08-04T14:59:10.000Z</Time>
            <Position>
              <LatitudeDegrees>40.81233940087258815765380859375</LatitudeDegrees>
              <LongitudeDegrees>-0.846582613885402679443359375</LongitudeDegrees>
            </Position>
            <AltitudeMeters>951.20001220703125</AltitudeMeters>
            <DistanceMeters>642844.30819507</DistanceMeters>
          </Trackpoint>
          <Trackpoint>
            <Time>2021-08-04T14:59:18.000Z</Time>
            <Position>
              <LatitudeDegrees>40.8122026920318603515625</LatitudeDegrees>
              <LongitudeDegrees>-0.846367366611957550048828125</LongitudeDegrees>
            </Position>
            <AltitudeMeters>952.20001220703125</AltitudeMeters>
            <DistanceMeters>642867.97919512</DistanceMeters>
          </Trackpoint>
          <Trackpoint>
            <Time>2021-08-04T14:59:22.000Z</Time>
            <Position>
              <LatitudeDegrees>40.81217008642852306365966796875</LatitudeDegrees>
              <LongitudeDegrees>-0.84628480486571788787841796875</LongitudeDegrees>
            </Position>
            <AltitudeMeters>952.4000244140625</AltitudeMeters>
            <DistanceMeters>642875.82336116</DistanceMeters>
          </Trackpoint>
          <Trackpoint>
            <Time>2021-08-04T14:59:30.000Z</Time>
            <Position>
              <LatitudeDegrees>40.81235448829829692840576171875</LatitudeDegrees>
              <LongitudeDegrees>-0.8460057713091373443603515625</LongitudeDegrees>
            </Position>
            <AltitudeMeters>951.20001220703125</AltitudeMeters>
            <DistanceMeters>642907.02860629</DistanceMeters>
          </Trackpoint>
          <Trackpoint>
            <Time>2021-08-04T14:59:33.000Z</Time>
            <Position>
              <LatitudeDegrees>40.81241953186690807342529296875</LatitudeDegrees>
              <LongitudeDegrees>-0.8458721637725830078125</LongitudeDegrees>
            </Position>
            <AltitudeMeters>950.4000244140625</AltitudeMeters>
            <DistanceMeters>642920.4108511</DistanceMeters>
          </Trackpoint>
          <Trackpoint>
            <Time>2021-08-04T14:59:35.000Z</Time>
            <Position>
              <LatitudeDegrees>40.81239203922450542449951171875</LatitudeDegrees>
              <LongitudeDegrees>-0.845767222344875335693359375</LongitudeDegrees>
            </Position>
            <AltitudeMeters>950.20001220703125</AltitudeMeters>
            <DistanceMeters>642929.76603687</DistanceMeters>
          </Trackpoint>
          <Trackpoint>
            <Time>2021-08-04T14:59:37.000Z</Time>
            <Position>
              <LatitudeDegrees>40.812335796654224395751953125</LatitudeDegrees>
              <LongitudeDegrees>-0.84568801335990428924560546875</LongitudeDegrees>
            </Position>
            <AltitudeMeters>950.20001220703125</AltitudeMeters>
            <DistanceMeters>642938.91528868</DistanceMeters>
          </Trackpoint>
          <Trackpoint>
            <Time>2021-08-04T14:59:44.000Z</Time>
            <Position>
              <LatitudeDegrees>40.81219539977610111236572265625</LatitudeDegrees>
              <LongitudeDegrees>-0.8455078862607479095458984375</LongitudeDegrees>
            </Position>
            <AltitudeMeters>950</AltitudeMeters>
            <DistanceMeters>642960.69693729</DistanceMeters>
          </Trackpoint>
          <Trackpoint>
            <Time>2021-08-04T14:59:55.000Z</Time>
            <Position>
              <LatitudeDegrees>40.81212834455072879791259765625</LatitudeDegrees>
              <LongitudeDegrees>-0.84547142498195171356201171875</LongitudeDegrees>
            </Position>
            <AltitudeMeters>950</AltitudeMeters>
            <DistanceMeters>642968.76805689</DistanceMeters>
          </Trackpoint>
          <Trackpoint>
            <Time>2021-08-04T14:59:58.000Z</Time>
            <Position>
              <LatitudeDegrees>40.8121465332806110382080078125</LatitudeDegrees>
              <LongitudeDegrees>-0.84549824707210063934326171875</LongitudeDegrees>
            </Position>
            <AltitudeMeters>950</AltitudeMeters>
            <DistanceMeters>642971.80296676</DistanceMeters>
          </Trackpoint>
        </Track>
      </Lap>
    </Activity>
  </Activities>
</TrainingCenterDatabase>
